<?xml version="1.0" encoding="UTF-8"?>
<gpx version="1.1" creator="https://www.youtrack.es" xsi:schemaLocation="http://www.topografix.com/GPX/1/1 http://www.topografix.com/GPX/1/1/gpx.xsd http://www.garmin.com/xmlschemas/GpxExtensions/v3 http://www.garmin.com/xmlschemas/GpxExtensionsv3.xsd http://www.garmin.com/xmlschemas/TrackPointExtension/v1 http://www.garmin.com/xmlschemas/TrackPointExtensionv1.xsd" xmlns:gpxtpx="http://www.garmin.com/xmlschemas/TrackPointExtension/v1" xmlns:gpxx="http://www.garmin.com/xmlschemas/GpxExtensions/v3" xmlns:xsi="http://www.w3.org/2001/XMLSchema-instance">
  <metadata>
    <link href="https://www.youtrack.es">
      <text>YouTrack.es</text>
    </link>
    <time>2026-05-08T22:27:57Z</time>
  </metadata>
  <trk>
    <src>https://www.youtrack.es</src>
    <link href="https://www.youtrack.es/ruta/6865-caminho">
      <text>YouTrack.es</text>
    </link>
    <trkseg>
      <trkpt lat="38.57236898504197597503662109375" lon="-7.9071347415447235107421875">
        <ele>309.79998779296875</ele>
        <time>2019-04-24T13:25:12.000Z</time>
      </trkpt>
      <trkpt lat="38.57236613519489765167236328125" lon="-7.907153852283954620361328125">
        <ele>309.79998779296875</ele>
        <time>2019-04-24T13:25:14.000Z</time>
      </trkpt>
      <trkpt lat="38.572061955928802490234375" lon="-7.9074232466518878936767578125">
        <ele>308.600006103515625</ele>
        <time>2019-04-24T13:25:30.000Z</time>
      </trkpt>
      <trkpt lat="38.571806810796260833740234375" lon="-7.90731118060648441314697265625">
        <ele>307.600006103515625</ele>
        <time>2019-04-24T13:25:41.000Z</time>
      </trkpt>
      <trkpt lat="38.571710251271724700927734375" lon="-7.90730439126491546630859375">
        <ele>307</ele>
        <time>2019-04-24T13:25:48.000Z</time>
      </trkpt>
      <trkpt lat="38.57170128263533115386962890625" lon="-7.90724161081016063690185546875">
        <ele>307</ele>
        <time>2019-04-24T13:25:53.000Z</time>
      </trkpt>
      <trkpt lat="38.57170580886304378509521484375" lon="-7.9070440493524074554443359375">
        <ele>306.79998779296875</ele>
        <time>2019-04-24T13:30:15.000Z</time>
      </trkpt>
      <trkpt lat="38.57124178670346736907958984375" lon="-7.9066599905490875244140625">
        <ele>300</ele>
        <time>2019-04-24T13:30:33.000Z</time>
      </trkpt>
      <trkpt lat="38.5710368491709232330322265625" lon="-7.90631256066262722015380859375">
        <ele>296.20001220703125</ele>
        <time>2019-04-24T13:30:45.000Z</time>
      </trkpt>
      <trkpt lat="38.5711253620684146881103515625" lon="-7.90610804222524166107177734375">
        <ele>296</ele>
        <time>2019-04-24T13:30:52.000Z</time>
      </trkpt>
      <trkpt lat="38.57112293131649494171142578125" lon="-7.9060730896890163421630859375">
        <ele>295.79998779296875</ele>
        <time>2019-04-24T13:30:54.000Z</time>
      </trkpt>
      <trkpt lat="38.57103542424738407135009765625" lon="-7.90594258345663547515869140625">
        <ele>294.399993896484375</ele>
        <time>2019-04-24T13:30:58.000Z</time>
      </trkpt>
      <trkpt lat="38.5706144012510776519775390625" lon="-7.90551225654780864715576171875">
        <ele>289.79998779296875</ele>
        <time>2019-04-24T13:31:14.000Z</time>
      </trkpt>
      <trkpt lat="38.57028457336127758026123046875" lon="-7.9051879607141017913818359375">
        <ele>288.399993896484375</ele>
        <time>2019-04-24T13:31:24.000Z</time>
      </trkpt>
      <trkpt lat="38.56998391449451446533203125" lon="-7.904955781996250152587890625">
        <ele>286.600006103515625</ele>
        <time>2019-04-24T13:31:30.000Z</time>
      </trkpt>
      <trkpt lat="38.5697654820978641510009765625" lon="-7.90483131073415279388427734375">
        <ele>285.20001220703125</ele>
        <time>2019-04-24T13:31:34.000Z</time>
      </trkpt>
      <trkpt lat="38.56931327842175960540771484375" lon="-7.90440760552883148193359375">
        <ele>282.399993896484375</ele>
        <time>2019-04-24T13:31:42.000Z</time>
      </trkpt>
      <trkpt lat="38.5688339173793792724609375" lon="-7.90396562777459621429443359375">
        <ele>282.600006103515625</ele>
        <time>2019-04-24T13:31:50.000Z</time>
      </trkpt>
      <trkpt lat="38.56845011003315448760986328125" lon="-7.90352792479097843170166015625">
        <ele>278.399993896484375</ele>
        <time>2019-04-24T13:31:59.000Z</time>
      </trkpt>
      <trkpt lat="38.5683720745146274566650390625" lon="-7.903267331421375274658203125">
        <ele>277.20001220703125</ele>
        <time>2019-04-24T13:32:04.000Z</time>
      </trkpt>
      <trkpt lat="38.56788667850196361541748046875" lon="-7.90292090736329555511474609375">
        <ele>274.600006103515625</ele>
        <time>2019-04-24T13:32:23.000Z</time>
      </trkpt>
      <trkpt lat="38.5677819885313510894775390625" lon="-7.9028862901031970977783203125">
        <ele>274.20001220703125</ele>
        <time>2019-04-24T13:32:28.000Z</time>
      </trkpt>
      <trkpt lat="38.56766740791499614715576171875" lon="-7.90284228511154651641845703125">
        <ele>273.600006103515625</ele>
        <time>2019-04-24T13:32:34.000Z</time>
      </trkpt>
      <trkpt lat="38.56758459471166133880615234375" lon="-7.9028966836631298065185546875">
        <ele>273</ele>
        <time>2019-04-24T13:32:41.000Z</time>
      </trkpt>
      <trkpt lat="38.56746054254472255706787109375" lon="-7.90337990038096904754638671875">
        <ele>271.79998779296875</ele>
        <time>2019-04-24T13:32:53.000Z</time>
      </trkpt>
      <trkpt lat="38.56706357561051845550537109375" lon="-7.9039175994694232940673828125">
        <ele>270</ele>
        <time>2019-04-24T13:33:05.000Z</time>
      </trkpt>
      <trkpt lat="38.56661665253341197967529296875" lon="-7.90438036434352397918701171875">
        <ele>268.20001220703125</ele>
        <time>2019-04-24T13:33:16.000Z</time>
      </trkpt>
      <trkpt lat="38.56644415296614170074462890625" lon="-7.90460784919559955596923828125">
        <ele>268</ele>
        <time>2019-04-24T13:33:24.000Z</time>
      </trkpt>
      <trkpt lat="38.5664844699203968048095703125" lon="-7.90471178479492664337158203125">
        <ele>268.399993896484375</ele>
        <time>2019-04-24T13:33:27.000Z</time>
      </trkpt>
      <trkpt lat="38.5668465681374073028564453125" lon="-7.90525116026401519775390625">
        <ele>271</ele>
        <time>2019-04-24T13:33:44.000Z</time>
      </trkpt>
      <trkpt lat="38.56722249649465084075927734375" lon="-7.90578223764896392822265625">
        <ele>272.79998779296875</ele>
        <time>2019-04-24T13:34:02.000Z</time>
      </trkpt>
      <trkpt lat="38.5673722811043262481689453125" lon="-7.90637592785060405731201171875">
        <ele>274</ele>
        <time>2019-04-24T13:34:20.000Z</time>
      </trkpt>
      <trkpt lat="38.5671721212565898895263671875" lon="-7.90703223086893558502197265625">
        <ele>274.399993896484375</ele>
        <time>2019-04-24T13:34:35.000Z</time>
      </trkpt>
      <trkpt lat="38.56695863418281078338623046875" lon="-7.90767797268927097320556640625">
        <ele>273</ele>
        <time>2019-04-24T13:34:49.000Z</time>
      </trkpt>
      <trkpt lat="38.56673919595777988433837890625" lon="-7.90834701620042324066162109375">
        <ele>272.600006103515625</ele>
        <time>2019-04-24T13:35:04.000Z</time>
      </trkpt>
      <trkpt lat="38.5666393674910068511962890625" lon="-7.90876912884414196014404296875">
        <ele>272</ele>
        <time>2019-04-24T13:35:12.000Z</time>
      </trkpt>
      <trkpt lat="38.56661103665828704833984375" lon="-7.90904237888753414154052734375">
        <ele>271.79998779296875</ele>
        <time>2019-04-24T13:35:17.000Z</time>
      </trkpt>
      <trkpt lat="38.56663928367197513580322265625" lon="-7.9097606241703033447265625">
        <ele>271.79998779296875</ele>
        <time>2019-04-24T13:35:30.000Z</time>
      </trkpt>
      <trkpt lat="38.56669108383357524871826171875" lon="-7.9104544781148433685302734375">
        <ele>272.399993896484375</ele>
        <time>2019-04-24T13:35:43.000Z</time>
      </trkpt>
      <trkpt lat="38.566691167652606964111328125" lon="-7.91116886772215366363525390625">
        <ele>273.600006103515625</ele>
        <time>2019-04-24T13:35:57.000Z</time>
      </trkpt>
      <trkpt lat="38.566214405000209808349609375" lon="-7.9114214144647121429443359375">
        <ele>270.79998779296875</ele>
        <time>2019-04-24T13:36:13.000Z</time>
      </trkpt>
      <trkpt lat="38.566085658967494964599609375" lon="-7.911403812468051910400390625">
        <ele>269.79998779296875</ele>
        <time>2019-04-24T13:36:17.000Z</time>
      </trkpt>
      <trkpt lat="38.56576974503695964813232421875" lon="-7.91174973361194133758544921875">
        <ele>269.399993896484375</ele>
        <time>2019-04-24T13:36:31.000Z</time>
      </trkpt>
      <trkpt lat="38.56584870256483554840087890625" lon="-7.911899350583553314208984375">
        <ele>269.600006103515625</ele>
        <time>2019-04-24T13:36:37.000Z</time>
      </trkpt>
      <trkpt lat="38.56591366231441497802734375" lon="-7.91197688318789005279541015625">
        <ele>269.600006103515625</ele>
        <time>2019-04-24T13:36:42.000Z</time>
      </trkpt>
      <trkpt lat="38.5659067891538143157958984375" lon="-7.91199549101293087005615234375">
        <ele>269.600006103515625</ele>
        <time>2019-04-24T13:36:45.000Z</time>
      </trkpt>
      <trkpt lat="38.5659034363925457000732421875" lon="-7.9120002686977386474609375">
        <ele>269.600006103515625</ele>
        <time>2019-04-24T13:37:02.000Z</time>
      </trkpt>
      <trkpt lat="38.56583663262426853179931640625" lon="-7.9120594449341297149658203125">
        <ele>269.399993896484375</ele>
        <time>2019-04-24T13:37:05.000Z</time>
      </trkpt>
      <trkpt lat="38.56555759906768798828125" lon="-7.912152148783206939697265625">
        <ele>269</ele>
        <time>2019-04-24T13:37:14.000Z</time>
      </trkpt>
      <trkpt lat="38.565106652677059173583984375" lon="-7.9125911928713321685791015625">
        <ele>267.79998779296875</ele>
        <time>2019-04-24T13:37:27.000Z</time>
      </trkpt>
      <trkpt lat="38.5650548525154590606689453125" lon="-7.9126106388866901397705078125">
        <ele>267.600006103515625</ele>
        <time>2019-04-24T13:37:28.000Z</time>
      </trkpt>
      <trkpt lat="38.56448982842266559600830078125" lon="-7.91258591227233409881591796875">
        <ele>265.600006103515625</ele>
        <time>2019-04-24T13:37:39.000Z</time>
      </trkpt>
      <trkpt lat="38.5639239661395549774169921875" lon="-7.91252262890338897705078125">
        <ele>265</ele>
        <time>2019-04-24T13:37:49.000Z</time>
      </trkpt>
      <trkpt lat="38.563331030309200286865234375" lon="-7.91250846348702907562255859375">
        <ele>264.399993896484375</ele>
        <time>2019-04-24T13:37:59.000Z</time>
      </trkpt>
      <trkpt lat="38.56276567094027996063232421875" lon="-7.91251701302826404571533203125">
        <ele>263.20001220703125</ele>
        <time>2019-04-24T13:38:09.000Z</time>
      </trkpt>
      <trkpt lat="38.56253466568887233734130859375" lon="-7.9125633649528026580810546875">
        <ele>263</ele>
        <time>2019-04-24T13:38:14.000Z</time>
      </trkpt>
      <trkpt lat="38.56238764710724353790283203125" lon="-7.91257384233176708221435546875">
        <ele>263</ele>
        <time>2019-04-24T13:38:17.000Z</time>
      </trkpt>
      <trkpt lat="38.56185757555067539215087890625" lon="-7.912786491215229034423828125">
        <ele>262.79998779296875</ele>
        <time>2019-04-24T13:38:29.000Z</time>
      </trkpt>
      <trkpt lat="38.56133705936372280120849609375" lon="-7.91311698965728282928466796875">
        <ele>261.79998779296875</ele>
        <time>2019-04-24T13:38:41.000Z</time>
      </trkpt>
      <trkpt lat="38.5608280263841152191162109375" lon="-7.91335386224091053009033203125">
        <ele>260.20001220703125</ele>
        <time>2019-04-24T13:38:51.000Z</time>
      </trkpt>
      <trkpt lat="38.5603100247681140899658203125" lon="-7.9135940037667751312255859375">
        <ele>258</ele>
        <time>2019-04-24T13:39:01.000Z</time>
      </trkpt>
      <trkpt lat="38.560002408921718597412109375" lon="-7.91374077089130878448486328125">
        <ele>257.20001220703125</ele>
        <time>2019-04-24T13:39:07.000Z</time>
      </trkpt>
      <trkpt lat="38.55997181497514247894287109375" lon="-7.914025671780109405517578125">
        <ele>256.600006103515625</ele>
        <time>2019-04-24T13:39:13.000Z</time>
      </trkpt>
      <trkpt lat="38.5600669495761394500732421875" lon="-7.9143855907022953033447265625">
        <ele>255.8000030517578125</ele>
        <time>2019-04-24T13:39:19.000Z</time>
      </trkpt>
      <trkpt lat="38.5600501857697963714599609375" lon="-7.914719693362712860107421875">
        <ele>255.399993896484375</ele>
        <time>2019-04-24T13:39:24.000Z</time>
      </trkpt>
      <trkpt lat="38.55992085300385951995849609375" lon="-7.91501800529658794403076171875">
        <ele>255</ele>
        <time>2019-04-24T13:39:29.000Z</time>
      </trkpt>
      <trkpt lat="38.5598557256162166595458984375" lon="-7.91512412019073963165283203125">
        <ele>255</ele>
        <time>2019-04-24T13:39:31.000Z</time>
      </trkpt>
      <trkpt lat="38.55968783609569072723388671875" lon="-7.91527398861944675445556640625">
        <ele>255</ele>
        <time>2019-04-24T13:39:35.000Z</time>
      </trkpt>
      <trkpt lat="38.55919263325631618499755859375" lon="-7.91555042378604412078857421875">
        <ele>255</ele>
        <time>2019-04-24T13:39:45.000Z</time>
      </trkpt>
      <trkpt lat="38.55886573903262615203857421875" lon="-7.91578277014195919036865234375">
        <ele>255</ele>
        <time>2019-04-24T13:39:55.000Z</time>
      </trkpt>
      <trkpt lat="38.5588904656469821929931640625" lon="-7.9159446246922016143798828125">
        <ele>255</ele>
        <time>2019-04-24T13:39:59.000Z</time>
      </trkpt>
      <trkpt lat="38.5590792261064052581787109375" lon="-7.9166225530207157135009765625">
        <ele>255.600006103515625</ele>
        <time>2019-04-24T13:40:11.000Z</time>
      </trkpt>
      <trkpt lat="38.5592019371688365936279296875" lon="-7.9173018224537372589111328125">
        <ele>254.399993896484375</ele>
        <time>2019-04-24T13:40:22.000Z</time>
      </trkpt>
      <trkpt lat="38.55926186777651309967041015625" lon="-7.91802392341196537017822265625">
        <ele>253.600006103515625</ele>
        <time>2019-04-24T13:40:34.000Z</time>
      </trkpt>
      <trkpt lat="38.5593169368803501129150390625" lon="-7.91861250065267086029052734375">
        <ele>252.399993896484375</ele>
        <time>2019-04-24T13:40:43.000Z</time>
      </trkpt>
      <trkpt lat="38.55927578173577785491943359375" lon="-7.9188906960189342498779296875">
        <ele>251.8000030517578125</ele>
        <time>2019-04-24T13:40:47.000Z</time>
      </trkpt>
      <trkpt lat="38.559255413711071014404296875" lon="-7.918955571949481964111328125">
        <ele>251.600006103515625</ele>
        <time>2019-04-24T13:40:48.000Z</time>
      </trkpt>
      <trkpt lat="38.55896674096584320068359375" lon="-7.91955278255045413970947265625">
        <ele>251</ele>
        <time>2019-04-24T13:40:58.000Z</time>
      </trkpt>
      <trkpt lat="38.55888736434280872344970703125" lon="-7.9202472232282161712646484375">
        <ele>251.399993896484375</ele>
        <time>2019-04-24T13:41:11.000Z</time>
      </trkpt>
      <trkpt lat="38.55883489362895488739013671875" lon="-7.92044009082019329071044921875">
        <ele>251.8000030517578125</ele>
        <time>2019-04-24T13:41:15.000Z</time>
      </trkpt>
      <trkpt lat="38.5587241686880588531494140625" lon="-7.92064142413437366485595703125">
        <ele>252.399993896484375</ele>
        <time>2019-04-24T13:41:20.000Z</time>
      </trkpt>
      <trkpt lat="38.5586225800216197967529296875" lon="-7.92121591977775096893310546875">
        <ele>253.1999969482421875</ele>
        <time>2019-04-24T13:41:37.000Z</time>
      </trkpt>
      <trkpt lat="38.55861126445233821868896484375" lon="-7.921206615865230560302734375">
        <ele>253.1999969482421875</ele>
        <time>2019-04-24T13:41:50.000Z</time>
      </trkpt>
      <trkpt lat="38.55873883701860904693603515625" lon="-7.92053899727761745452880859375">
        <ele>252.1999969482421875</ele>
        <time>2019-04-24T13:42:05.000Z</time>
      </trkpt>
      <trkpt lat="38.558735065162181854248046875" lon="-7.92024697177112102508544921875">
        <ele>251.399993896484375</ele>
        <time>2019-04-24T13:42:10.000Z</time>
      </trkpt>
      <trkpt lat="38.5589524917304515838623046875" lon="-7.92026750743389129638671875">
        <ele>251.399993896484375</ele>
        <time>2019-04-24T13:42:16.000Z</time>
      </trkpt>
      <trkpt lat="38.559067659080028533935546875" lon="-7.92039046995341777801513671875">
        <ele>251.8000030517578125</ele>
        <time>2019-04-24T13:42:19.000Z</time>
      </trkpt>
      <trkpt lat="38.5595901869237422943115234375" lon="-7.9206706769764423370361328125">
        <ele>252</ele>
        <time>2019-04-24T13:42:32.000Z</time>
      </trkpt>
      <trkpt lat="38.55964475311338901519775390625" lon="-7.9207484610378742218017578125">
        <ele>252.1999969482421875</ele>
        <time>2019-04-24T13:42:37.000Z</time>
      </trkpt>
      <trkpt lat="38.55962614528834819793701171875" lon="-7.92073949240148067474365234375">
        <ele>252.1999969482421875</ele>
        <time>2019-04-24T13:43:15.000Z</time>
      </trkpt>
      <trkpt lat="38.55959228239953517913818359375" lon="-7.9206750355660915374755859375">
        <ele>252</ele>
        <time>2019-04-24T13:43:19.000Z</time>
      </trkpt>
      <trkpt lat="38.55907402932643890380859375" lon="-7.9203411005437374114990234375">
        <ele>251.600006103515625</ele>
        <time>2019-04-24T13:43:37.000Z</time>
      </trkpt>
      <trkpt lat="38.55902700684964656829833984375" lon="-7.920324839651584625244140625">
        <ele>251.600006103515625</ele>
        <time>2019-04-24T13:43:38.000Z</time>
      </trkpt>
      <trkpt lat="38.55879700742661952972412109375" lon="-7.92037722654640674591064453125">
        <ele>251.8000030517578125</ele>
        <time>2019-04-24T13:43:42.000Z</time>
      </trkpt>
      <trkpt lat="38.558678068220615386962890625" lon="-7.920181341469287872314453125">
        <ele>251.1999969482421875</ele>
        <time>2019-04-24T13:43:49.000Z</time>
      </trkpt>
      <trkpt lat="38.5588039644062519073486328125" lon="-7.919770963490009307861328125">
        <ele>251</ele>
        <time>2019-04-24T13:43:56.000Z</time>
      </trkpt>
      <trkpt lat="38.558849059045314788818359375" lon="-7.91952981613576412200927734375">
        <ele>250.8000030517578125</ele>
        <time>2019-04-24T13:44:00.000Z</time>
      </trkpt>
      <trkpt lat="38.5586678422987461090087890625" lon="-7.9193238727748394012451171875">
        <ele>250.1999969482421875</ele>
        <time>2019-04-24T13:44:06.000Z</time>
      </trkpt>
      <trkpt lat="38.558275066316127777099609375" lon="-7.919154055416584014892578125">
        <ele>250.1999969482421875</ele>
        <time>2019-04-24T13:44:14.000Z</time>
      </trkpt>
      <trkpt lat="38.5582070052623748779296875" lon="-7.9189745150506496429443359375">
        <ele>250.8000030517578125</ele>
        <time>2019-04-24T13:44:18.000Z</time>
      </trkpt>
      <trkpt lat="38.55809393338859081268310546875" lon="-7.9182865284383296966552734375">
        <ele>251.8000030517578125</ele>
        <time>2019-04-24T13:44:33.000Z</time>
      </trkpt>
      <trkpt lat="38.5580801032483577728271484375" lon="-7.91817932389676570892333984375">
        <ele>251.600006103515625</ele>
        <time>2019-04-24T13:44:36.000Z</time>
      </trkpt>
      <trkpt lat="38.55810047127306461334228515625" lon="-7.9181492328643798828125">
        <ele>251.8000030517578125</ele>
        <time>2019-04-24T13:44:40.000Z</time>
      </trkpt>
      <trkpt lat="38.55811958201229572296142578125" lon="-7.91830480098724365234375">
        <ele>252</ele>
        <time>2019-04-24T13:46:16.000Z</time>
      </trkpt>
      <trkpt lat="38.55820122174918651580810546875" lon="-7.91843513958156108856201171875">
        <ele>252.399993896484375</ele>
        <time>2019-04-24T13:46:31.000Z</time>
      </trkpt>
      <trkpt lat="38.55809946544468402862548828125" lon="-7.91834159754216670989990234375">
        <ele>252</ele>
        <time>2019-04-24T13:53:35.000Z</time>
      </trkpt>
      <trkpt lat="38.558116145431995391845703125" lon="-7.91841602884232997894287109375">
        <ele>252</ele>
        <time>2019-04-24T13:53:41.000Z</time>
      </trkpt>
      <trkpt lat="38.5581501759588718414306640625" lon="-7.91845492087304592132568359375">
        <ele>252.1999969482421875</ele>
        <time>2019-04-24T13:57:15.000Z</time>
      </trkpt>
      <trkpt lat="38.5583023913204669952392578125" lon="-7.91906629689037799835205078125">
        <ele>250.600006103515625</ele>
        <time>2019-04-24T13:57:42.000Z</time>
      </trkpt>
      <trkpt lat="38.55830557644367218017578125" lon="-7.91908104903995990753173828125">
        <ele>250.399993896484375</ele>
        <time>2019-04-24T13:58:36.000Z</time>
      </trkpt>
      <trkpt lat="38.5588131844997406005859375" lon="-7.91936284862458705902099609375">
        <ele>250.600006103515625</ele>
        <time>2019-04-24T13:58:53.000Z</time>
      </trkpt>
      <trkpt lat="38.55885987170040607452392578125" lon="-7.91942529380321502685546875">
        <ele>250.600006103515625</ele>
        <time>2019-04-24T13:58:57.000Z</time>
      </trkpt>
      <trkpt lat="38.558895997703075408935546875" lon="-7.91972863487899303436279296875">
        <ele>251</ele>
        <time>2019-04-24T13:59:04.000Z</time>
      </trkpt>
      <trkpt lat="38.55884310789406299591064453125" lon="-7.92000372894108295440673828125">
        <ele>251</ele>
        <time>2019-04-24T13:59:09.000Z</time>
      </trkpt>
      <trkpt lat="38.5589290224015712738037109375" lon="-7.92029558680951595306396484375">
        <ele>251.600006103515625</ele>
        <time>2019-04-24T13:59:15.000Z</time>
      </trkpt>
      <trkpt lat="38.5589578561484813690185546875" lon="-7.92033649049699306488037109375">
        <ele>251.600006103515625</ele>
        <time>2019-04-24T13:59:16.000Z</time>
      </trkpt>
      <trkpt lat="38.55915742926299571990966796875" lon="-7.920455597341060638427734375">
        <ele>251.600006103515625</ele>
        <time>2019-04-24T13:59:21.000Z</time>
      </trkpt>
      <trkpt lat="38.55967006646096706390380859375" lon="-7.9207109101116657257080078125">
        <ele>252.1999969482421875</ele>
        <time>2019-04-24T13:59:33.000Z</time>
      </trkpt>
      <trkpt lat="38.55987860821187496185302734375" lon="-7.92081694118678569793701171875">
        <ele>252.600006103515625</ele>
        <time>2019-04-24T13:59:38.000Z</time>
      </trkpt>
      <trkpt lat="38.560439608991146087646484375" lon="-7.9209583438932895660400390625">
        <ele>253.1999969482421875</ele>
        <time>2019-04-24T13:59:50.000Z</time>
      </trkpt>
      <trkpt lat="38.5605762340128421783447265625" lon="-7.9210109822452068328857421875">
        <ele>253.1999969482421875</ele>
        <time>2019-04-24T13:59:53.000Z</time>
      </trkpt>
      <trkpt lat="38.560656197369098663330078125" lon="-7.92106278240680694580078125">
        <ele>253.399993896484375</ele>
        <time>2019-04-24T13:59:55.000Z</time>
      </trkpt>
      <trkpt lat="38.56086566112935543060302734375" lon="-7.92127593420445919036865234375">
        <ele>253.399993896484375</ele>
        <time>2019-04-24T14:00:01.000Z</time>
      </trkpt>
      <trkpt lat="38.56112717650830745697021484375" lon="-7.9211715795099735260009765625">
        <ele>253.1999969482421875</ele>
        <time>2019-04-24T14:00:08.000Z</time>
      </trkpt>
      <trkpt lat="38.56151458807289600372314453125" lon="-7.9206153564155101776123046875">
        <ele>254.600006103515625</ele>
        <time>2019-04-24T14:00:19.000Z</time>
      </trkpt>
      <trkpt lat="38.56190954335033893585205078125" lon="-7.9200752265751361846923828125">
        <ele>256.399993896484375</ele>
        <time>2019-04-24T14:00:29.000Z</time>
      </trkpt>
      <trkpt lat="38.5623241961002349853515625" lon="-7.91956686414778232574462890625">
        <ele>258.399993896484375</ele>
        <time>2019-04-24T14:00:40.000Z</time>
      </trkpt>
      <trkpt lat="38.56274203397333621978759765625" lon="-7.919090688228607177734375">
        <ele>260.20001220703125</ele>
        <time>2019-04-24T14:00:52.000Z</time>
      </trkpt>
      <trkpt lat="38.5631960816681385040283203125" lon="-7.91862155310809612274169921875">
        <ele>261.79998779296875</ele>
        <time>2019-04-24T14:01:05.000Z</time>
      </trkpt>
      <trkpt lat="38.56360067613422870635986328125" lon="-7.91816038079559803009033203125">
        <ele>262.79998779296875</ele>
        <time>2019-04-24T14:01:16.000Z</time>
      </trkpt>
      <trkpt lat="38.56375020928680896759033203125" lon="-7.91789911687374114990234375">
        <ele>263</ele>
        <time>2019-04-24T14:01:23.000Z</time>
      </trkpt>
      <trkpt lat="38.564000912010669708251953125" lon="-7.917760647833347320556640625">
        <ele>263.79998779296875</ele>
        <time>2019-04-24T14:01:29.000Z</time>
      </trkpt>
      <trkpt lat="38.564043156802654266357421875" lon="-7.9177326522767543792724609375">
        <ele>264</ele>
        <time>2019-04-24T14:01:30.000Z</time>
      </trkpt>
      <trkpt lat="38.56423920951783657073974609375" lon="-7.91754649020731449127197265625">
        <ele>264.399993896484375</ele>
        <time>2019-04-24T14:01:35.000Z</time>
      </trkpt>
      <trkpt lat="38.5646444745361804962158203125" lon="-7.91707894764840602874755859375">
        <ele>266.79998779296875</ele>
        <time>2019-04-24T14:01:46.000Z</time>
      </trkpt>
      <trkpt lat="38.564676828682422637939453125" lon="-7.91703418828547000885009765625">
        <ele>267</ele>
        <time>2019-04-24T14:01:47.000Z</time>
      </trkpt>
      <trkpt lat="38.56475084088742733001708984375" lon="-7.91691868565976619720458984375">
        <ele>267.399993896484375</ele>
        <time>2019-04-24T14:01:52.000Z</time>
      </trkpt>
      <trkpt lat="38.56479384005069732666015625" lon="-7.91689152829349040985107421875">
        <ele>267.600006103515625</ele>
        <time>2019-04-24T14:04:49.000Z</time>
      </trkpt>
      <trkpt lat="38.5651812516152858734130859375" lon="-7.91641090996563434600830078125">
        <ele>268.79998779296875</ele>
        <time>2019-04-24T14:05:04.000Z</time>
      </trkpt>
      <trkpt lat="38.56556170620024204254150390625" lon="-7.91590497829020023345947265625">
        <ele>268.399993896484375</ele>
        <time>2019-04-24T14:05:16.000Z</time>
      </trkpt>
      <trkpt lat="38.56562809087336063385009765625" lon="-7.91582099162042140960693359375">
        <ele>268.399993896484375</ele>
        <time>2019-04-24T14:05:18.000Z</time>
      </trkpt>
      <trkpt lat="38.566035367548465728759765625" lon="-7.91531774215400218963623046875">
        <ele>268</ele>
        <time>2019-04-24T14:05:30.000Z</time>
      </trkpt>
      <trkpt lat="38.56647633947432041168212890625" lon="-7.91481130756437778472900390625">
        <ele>268.399993896484375</ele>
        <time>2019-04-24T14:05:42.000Z</time>
      </trkpt>
      <trkpt lat="38.566637523472309112548828125" lon="-7.91462254710495471954345703125">
        <ele>268.399993896484375</ele>
        <time>2019-04-24T14:05:46.000Z</time>
      </trkpt>
      <trkpt lat="38.56693021953105926513671875" lon="-7.914024330675601959228515625">
        <ele>268.600006103515625</ele>
        <time>2019-04-24T14:05:56.000Z</time>
      </trkpt>
      <trkpt lat="38.56705971993505954742431640625" lon="-7.91334967128932476043701171875">
        <ele>270.600006103515625</ele>
        <time>2019-04-24T14:06:11.000Z</time>
      </trkpt>
      <trkpt lat="38.56700289063155651092529296875" lon="-7.91321824304759502410888671875">
        <ele>271.20001220703125</ele>
        <time>2019-04-24T14:06:14.000Z</time>
      </trkpt>
      <trkpt lat="38.566693849861621856689453125" lon="-7.9129140637814998626708984375">
        <ele>272.600006103515625</ele>
        <time>2019-04-24T14:06:23.000Z</time>
      </trkpt>
      <trkpt lat="38.5662482678890228271484375" lon="-7.91245699860155582427978515625">
        <ele>270.79998779296875</ele>
        <time>2019-04-24T14:06:35.000Z</time>
      </trkpt>
      <trkpt lat="38.565885163843631744384765625" lon="-7.91211702860891819000244140625">
        <ele>269.399993896484375</ele>
        <time>2019-04-24T14:06:47.000Z</time>
      </trkpt>
      <trkpt lat="38.56586244888603687286376953125" lon="-7.91210018098354339599609375">
        <ele>269.399993896484375</ele>
        <time>2019-04-24T14:07:12.000Z</time>
      </trkpt>
      <trkpt lat="38.5653854347765445709228515625" lon="-7.9116460494697093963623046875">
        <ele>268.20001220703125</ele>
        <time>2019-04-24T14:07:25.000Z</time>
      </trkpt>
      <trkpt lat="38.56514797545969486236572265625" lon="-7.9112554527819156646728515625">
        <ele>266.20001220703125</ele>
        <time>2019-04-24T14:07:31.000Z</time>
      </trkpt>
      <trkpt lat="38.5651084966957569122314453125" lon="-7.91059219278395175933837890625">
        <ele>264.600006103515625</ele>
        <time>2019-04-24T14:07:38.000Z</time>
      </trkpt>
      <trkpt lat="38.5651970095932483673095703125" lon="-7.9098754562437534332275390625">
        <ele>264.399993896484375</ele>
        <time>2019-04-24T14:07:47.000Z</time>
      </trkpt>
      <trkpt lat="38.56524621136486530303955078125" lon="-7.90916047990322113037109375">
        <ele>265.399993896484375</ele>
        <time>2019-04-24T14:08:03.000Z</time>
      </trkpt>
      <trkpt lat="38.5653244145214557647705078125" lon="-7.90844106115400791168212890625">
        <ele>268.20001220703125</ele>
        <time>2019-04-24T14:08:17.000Z</time>
      </trkpt>
      <trkpt lat="38.5654055513441562652587890625" lon="-7.907755672931671142578125">
        <ele>269</ele>
        <time>2019-04-24T14:08:28.000Z</time>
      </trkpt>
      <trkpt lat="38.56544025242328643798828125" lon="-7.90744277648627758026123046875">
        <ele>268.79998779296875</ele>
        <time>2019-04-24T14:08:33.000Z</time>
      </trkpt>
      <trkpt lat="38.56551007367670536041259765625" lon="-7.90673132054507732391357421875">
        <ele>266.399993896484375</ele>
        <time>2019-04-24T14:08:44.000Z</time>
      </trkpt>
      <trkpt lat="38.56559238396584987640380859375" lon="-7.90604484267532825469970703125">
        <ele>267.20001220703125</ele>
        <time>2019-04-24T14:08:53.000Z</time>
      </trkpt>
      <trkpt lat="38.5656794719398021697998046875" lon="-7.9052825085818767547607421875">
        <ele>266</ele>
        <time>2019-04-24T14:09:02.000Z</time>
      </trkpt>
      <trkpt lat="38.56575029902160167694091796875" lon="-7.90459209121763706207275390625">
        <ele>264.399993896484375</ele>
        <time>2019-04-24T14:09:10.000Z</time>
      </trkpt>
      <trkpt lat="38.56576086021959781646728515625" lon="-7.90429604239761829376220703125">
        <ele>263.600006103515625</ele>
        <time>2019-04-24T14:09:14.000Z</time>
      </trkpt>
      <trkpt lat="38.565689362585544586181640625" lon="-7.9040030948817729949951171875">
        <ele>263.20001220703125</ele>
        <time>2019-04-24T14:09:19.000Z</time>
      </trkpt>
      <trkpt lat="38.56579522602260112762451171875" lon="-7.90381056256592273712158203125">
        <ele>263.399993896484375</ele>
        <time>2019-04-24T14:09:23.000Z</time>
      </trkpt>
      <trkpt lat="38.56593377888202667236328125" lon="-7.90352390147745609283447265625">
        <ele>263.79998779296875</ele>
        <time>2019-04-24T14:09:28.000Z</time>
      </trkpt>
      <trkpt lat="38.56596755795180797576904296875" lon="-7.9032976739108562469482421875">
        <ele>263.79998779296875</ele>
        <time>2019-04-24T14:09:32.000Z</time>
      </trkpt>
      <trkpt lat="38.56603142805397510528564453125" lon="-7.90260851383209228515625">
        <ele>264</ele>
        <time>2019-04-24T14:09:51.000Z</time>
      </trkpt>
      <trkpt lat="38.5660653747618198394775390625" lon="-7.9023099504411220550537109375">
        <ele>264.600006103515625</ele>
        <time>2019-04-24T14:09:59.000Z</time>
      </trkpt>
      <trkpt lat="38.56620476581156253814697265625" lon="-7.9020102135837078094482421875">
        <ele>266</ele>
        <time>2019-04-24T14:10:06.000Z</time>
      </trkpt>
      <trkpt lat="38.5666611604392528533935546875" lon="-7.90161534212529659271240234375">
        <ele>269.600006103515625</ele>
        <time>2019-04-24T14:10:25.000Z</time>
      </trkpt>
      <trkpt lat="38.5672049783170223236083984375" lon="-7.901430018246173858642578125">
        <ele>271.600006103515625</ele>
        <time>2019-04-24T14:10:46.000Z</time>
      </trkpt>
      <trkpt lat="38.567765392363071441650390625" lon="-7.90142339654266834259033203125">
        <ele>273.399993896484375</ele>
        <time>2019-04-24T14:11:05.000Z</time>
      </trkpt>
      <trkpt lat="38.567876033484935760498046875" lon="-7.90148810483515262603759765625">
        <ele>273.600006103515625</ele>
        <time>2019-04-24T14:11:08.000Z</time>
      </trkpt>
      <trkpt lat="38.5680507123470306396484375" lon="-7.90156588889658451080322265625">
        <ele>275.20001220703125</ele>
        <time>2019-04-24T14:11:12.000Z</time>
      </trkpt>
      <trkpt lat="38.568265624344348907470703125" lon="-7.9016253165900707244873046875">
        <ele>277.399993896484375</ele>
        <time>2019-04-24T14:11:20.000Z</time>
      </trkpt>
      <trkpt lat="38.56833594851195812225341796875" lon="-7.90165926329791545867919921875">
        <ele>278.20001220703125</ele>
        <time>2019-04-24T14:12:51.000Z</time>
      </trkpt>
      <trkpt lat="38.5688806883990764617919921875" lon="-7.90179739706218242645263671875">
        <ele>278</ele>
        <time>2019-04-24T14:13:08.000Z</time>
      </trkpt>
      <trkpt lat="38.56904941610991954803466796875" lon="-7.9018385522067546844482421875">
        <ele>277.20001220703125</ele>
        <time>2019-04-24T14:13:12.000Z</time>
      </trkpt>
      <trkpt lat="38.56959792785346508026123046875" lon="-7.90187031961977481842041015625">
        <ele>276.399993896484375</ele>
        <time>2019-04-24T14:13:27.000Z</time>
      </trkpt>
      <trkpt lat="38.57014073990285396575927734375" lon="-7.901731766760349273681640625">
        <ele>276</ele>
        <time>2019-04-24T14:13:41.000Z</time>
      </trkpt>
      <trkpt lat="38.57067651115357875823974609375" lon="-7.9015941359102725982666015625">
        <ele>275.399993896484375</ele>
        <time>2019-04-24T14:13:53.000Z</time>
      </trkpt>
      <trkpt lat="38.5711223445832729339599609375" lon="-7.90147460997104644775390625">
        <ele>274.79998779296875</ele>
        <time>2019-04-24T14:14:03.000Z</time>
      </trkpt>
      <trkpt lat="38.57154772616922855377197265625" lon="-7.9013396613299846649169921875">
        <ele>274.20001220703125</ele>
        <time>2019-04-24T14:14:13.000Z</time>
      </trkpt>
      <trkpt lat="38.57203622348606586456298828125" lon="-7.90120714344084262847900390625">
        <ele>273.399993896484375</ele>
        <time>2019-04-24T14:14:26.000Z</time>
      </trkpt>
      <trkpt lat="38.57229673303663730621337890625" lon="-7.9011539183557033538818359375">
        <ele>273.399993896484375</ele>
        <time>2019-04-24T14:14:36.000Z</time>
      </trkpt>
      <trkpt lat="38.57225499115884304046630859375" lon="-7.90114310570061206817626953125">
        <ele>273.20001220703125</ele>
        <time>2019-04-24T14:17:04.000Z</time>
      </trkpt>
      <trkpt lat="38.57218265533447265625" lon="-7.901159115135669708251953125">
        <ele>273.399993896484375</ele>
        <time>2019-04-24T14:17:08.000Z</time>
      </trkpt>
      <trkpt lat="38.57180513441562652587890625" lon="-7.90121250785887241363525390625">
        <ele>273.399993896484375</ele>
        <time>2019-04-24T14:17:22.000Z</time>
      </trkpt>
      <trkpt lat="38.5716745443642139434814453125" lon="-7.90103481151163578033447265625">
        <ele>273.399993896484375</ele>
        <time>2019-04-24T14:17:30.000Z</time>
      </trkpt>
      <trkpt lat="38.57161872088909149169921875" lon="-7.9003103636205196380615234375">
        <ele>270.600006103515625</ele>
        <time>2019-04-24T14:17:44.000Z</time>
      </trkpt>
      <trkpt lat="38.571694158017635345458984375" lon="-7.89959882386028766632080078125">
        <ele>268.79998779296875</ele>
        <time>2019-04-24T14:17:53.000Z</time>
      </trkpt>
      <trkpt lat="38.57177118770778179168701171875" lon="-7.89884562604129314422607421875">
        <ele>266.600006103515625</ele>
        <time>2019-04-24T14:18:02.000Z</time>
      </trkpt>
      <trkpt lat="38.5717654041945934295654296875" lon="-7.898773290216922760009765625">
        <ele>266.20001220703125</ele>
        <time>2019-04-24T14:18:03.000Z</time>
      </trkpt>
      <trkpt lat="38.57182349078357219696044921875" lon="-7.8984019719064235687255859375">
        <ele>265</ele>
        <time>2019-04-24T14:18:09.000Z</time>
      </trkpt>
      <trkpt lat="38.5719779692590236663818359375" lon="-7.89784692227840423583984375">
        <ele>263.600006103515625</ele>
        <time>2019-04-24T14:18:17.000Z</time>
      </trkpt>
      <trkpt lat="38.5720123350620269775390625" lon="-7.89761633612215518951416015625">
        <ele>263</ele>
        <time>2019-04-24T14:18:20.000Z</time>
      </trkpt>
      <trkpt lat="38.5721526481211185455322265625" lon="-7.8969217278063297271728515625">
        <ele>261.399993896484375</ele>
        <time>2019-04-24T14:18:30.000Z</time>
      </trkpt>
      <trkpt lat="38.57228801585733890533447265625" lon="-7.8961894847452640533447265625">
        <ele>260.20001220703125</ele>
        <time>2019-04-24T14:18:41.000Z</time>
      </trkpt>
      <trkpt lat="38.5725120641291141510009765625" lon="-7.89552278816699981689453125">
        <ele>257.79998779296875</ele>
        <time>2019-04-24T14:18:52.000Z</time>
      </trkpt>
      <trkpt lat="38.57288229279220104217529296875" lon="-7.894950471818447113037109375">
        <ele>255.600006103515625</ele>
        <time>2019-04-24T14:19:03.000Z</time>
      </trkpt>
      <trkpt lat="38.5731603205204010009765625" lon="-7.894526682794094085693359375">
        <ele>254.1999969482421875</ele>
        <time>2019-04-24T14:19:10.000Z</time>
      </trkpt>
      <trkpt lat="38.5734330676496028900146484375" lon="-7.8939109481871128082275390625">
        <ele>252.8000030517578125</ele>
        <time>2019-04-24T14:19:18.000Z</time>
      </trkpt>
      <trkpt lat="38.57364018447697162628173828125" lon="-7.893266715109348297119140625">
        <ele>252</ele>
        <time>2019-04-24T14:19:26.000Z</time>
      </trkpt>
      <trkpt lat="38.57368594966828823089599609375" lon="-7.89304484613239765167236328125">
        <ele>252</ele>
        <time>2019-04-24T14:19:29.000Z</time>
      </trkpt>
      <trkpt lat="38.57371780090034008026123046875" lon="-7.8928967379033565521240234375">
        <ele>252</ele>
        <time>2019-04-24T14:19:31.000Z</time>
      </trkpt>
      <trkpt lat="38.57391863130033016204833984375" lon="-7.892257533967494964599609375">
        <ele>251.600006103515625</ele>
        <time>2019-04-24T14:19:39.000Z</time>
      </trkpt>
      <trkpt lat="38.57402038760483264923095703125" lon="-7.891905494034290313720703125">
        <ele>251</ele>
        <time>2019-04-24T14:19:43.000Z</time>
      </trkpt>
      <trkpt lat="38.57408962212502956390380859375" lon="-7.89120200090110301971435546875">
        <ele>249.399993896484375</ele>
        <time>2019-04-24T14:19:51.000Z</time>
      </trkpt>
      <trkpt lat="38.5741441883146762847900390625" lon="-7.89053195156157016754150390625">
        <ele>249</ele>
        <time>2019-04-24T14:20:00.000Z</time>
      </trkpt>
      <trkpt lat="38.57419942505657672882080078125" lon="-7.89023347198963165283203125">
        <ele>249</ele>
        <time>2019-04-24T14:20:05.000Z</time>
      </trkpt>
      <trkpt lat="38.57426337897777557373046875" lon="-7.889488153159618377685546875">
        <ele>247</ele>
        <time>2019-04-24T14:20:17.000Z</time>
      </trkpt>
      <trkpt lat="38.5743386484682559967041015625" lon="-7.8887842409312725067138671875">
        <ele>244.399993896484375</ele>
        <time>2019-04-24T14:20:26.000Z</time>
      </trkpt>
      <trkpt lat="38.5743557475507259368896484375" lon="-7.888623140752315521240234375">
        <ele>243.8000030517578125</ele>
        <time>2019-04-24T14:20:28.000Z</time>
      </trkpt>
      <trkpt lat="38.57449614442884922027587890625" lon="-7.887949235737323760986328125">
        <ele>244.1999969482421875</ele>
        <time>2019-04-24T14:20:37.000Z</time>
      </trkpt>
      <trkpt lat="38.57462824322283267974853515625" lon="-7.88728228770196437835693359375">
        <ele>246.399993896484375</ele>
        <time>2019-04-24T14:20:55.000Z</time>
      </trkpt>
      <trkpt lat="38.57464098371565341949462890625" lon="-7.88712454028427600860595703125">
        <ele>247</ele>
        <time>2019-04-24T14:21:00.000Z</time>
      </trkpt>
      <trkpt lat="38.57464282773435115814208984375" lon="-7.88710065186023712158203125">
        <ele>247</ele>
        <time>2019-04-24T14:21:03.000Z</time>
      </trkpt>
      <trkpt lat="38.57465657405555248260498046875" lon="-7.88706352002918720245361328125">
        <ele>247.1999969482421875</ele>
        <time>2019-04-24T14:21:16.000Z</time>
      </trkpt>
      <trkpt lat="38.57426212169229984283447265625" lon="-7.88669873960316181182861328125">
        <ele>248</ele>
        <time>2019-04-24T14:21:32.000Z</time>
      </trkpt>
      <trkpt lat="38.57417662627995014190673828125" lon="-7.886649705469608306884765625">
        <ele>247.8000030517578125</ele>
        <time>2019-04-24T14:21:34.000Z</time>
      </trkpt>
      <trkpt lat="38.5740499757230281829833984375" lon="-7.88647594861686229705810546875">
        <ele>248</ele>
        <time>2019-04-24T14:21:38.000Z</time>
      </trkpt>
      <trkpt lat="38.5740288533270359039306640625" lon="-7.8864218853414058685302734375">
        <ele>248</ele>
        <time>2019-04-24T14:21:39.000Z</time>
      </trkpt>
      <trkpt lat="38.57392835430800914764404296875" lon="-7.88571151904761791229248046875">
        <ele>249.600006103515625</ele>
        <time>2019-04-24T14:21:51.000Z</time>
      </trkpt>
      <trkpt lat="38.5738833434879779815673828125" lon="-7.8850140608847141265869140625">
        <ele>252.399993896484375</ele>
        <time>2019-04-24T14:22:06.000Z</time>
      </trkpt>
      <trkpt lat="38.57388393022119998931884765625" lon="-7.88501632399857044219970703125">
        <ele>252.399993896484375</ele>
        <time>2019-04-24T14:22:08.000Z</time>
      </trkpt>
      <trkpt lat="38.5738850198686122894287109375" lon="-7.88498179055750370025634765625">
        <ele>252.399993896484375</ele>
        <time>2019-04-24T14:22:22.000Z</time>
      </trkpt>
      <trkpt lat="38.5738880373537540435791015625" lon="-7.88489545695483684539794921875">
        <ele>252.399993896484375</ele>
        <time>2019-04-24T14:22:25.000Z</time>
      </trkpt>
      <trkpt lat="38.57387387193739414215087890625" lon="-7.8846073709428310394287109375">
        <ele>252.600006103515625</ele>
        <time>2019-04-24T14:22:32.000Z</time>
      </trkpt>
      <trkpt lat="38.5737374983727931976318359375" lon="-7.88454316556453704833984375">
        <ele>252.600006103515625</ele>
        <time>2019-04-24T14:22:36.000Z</time>
      </trkpt>
      <trkpt lat="38.5732902400195598602294921875" lon="-7.88440511561930179595947265625">
        <ele>252.399993896484375</ele>
        <time>2019-04-24T14:22:49.000Z</time>
      </trkpt>
      <trkpt lat="38.57324170880019664764404296875" lon="-7.88434979505836963653564453125">
        <ele>252.600006103515625</ele>
        <time>2019-04-24T14:22:51.000Z</time>
      </trkpt>
      <trkpt lat="38.5727343522012233734130859375" lon="-7.88405290804803371429443359375">
        <ele>252.8000030517578125</ele>
        <time>2019-04-24T14:23:07.000Z</time>
      </trkpt>
      <trkpt lat="38.5725771076977252960205078125" lon="-7.88402080535888671875">
        <ele>252.399993896484375</ele>
        <time>2019-04-24T14:23:14.000Z</time>
      </trkpt>
      <trkpt lat="38.57255657203495502471923828125" lon="-7.8840290196239948272705078125">
        <ele>252.399993896484375</ele>
        <time>2019-04-24T14:23:39.000Z</time>
      </trkpt>
      <trkpt lat="38.57220880687236785888671875" lon="-7.8839666582643985748291015625">
        <ele>251</ele>
        <time>2019-04-24T14:23:54.000Z</time>
      </trkpt>
      <trkpt lat="38.57217703945934772491455078125" lon="-7.8839468769729137420654296875">
        <ele>250.8000030517578125</ele>
        <time>2019-04-24T14:25:09.000Z</time>
      </trkpt>
      <trkpt lat="38.5719471238553524017333984375" lon="-7.8838962502777576446533203125">
        <ele>250.8000030517578125</ele>
        <time>2019-04-24T14:25:16.000Z</time>
      </trkpt>
      <trkpt lat="38.57170186936855316162109375" lon="-7.883779071271419525146484375">
        <ele>251</ele>
        <time>2019-04-24T14:25:22.000Z</time>
      </trkpt>
      <trkpt lat="38.57119099237024784088134765625" lon="-7.8834657557308673858642578125">
        <ele>252.399993896484375</ele>
        <time>2019-04-24T14:25:36.000Z</time>
      </trkpt>
      <trkpt lat="38.570655472576618194580078125" lon="-7.8832786716520786285400390625">
        <ele>252.600006103515625</ele>
        <time>2019-04-24T14:25:51.000Z</time>
      </trkpt>
      <trkpt lat="38.5705049335956573486328125" lon="-7.883254028856754302978515625">
        <ele>252.1999969482421875</ele>
        <time>2019-04-24T14:25:55.000Z</time>
      </trkpt>
      <trkpt lat="38.5703113116323947906494140625" lon="-7.88319929502904415130615234375">
        <ele>252</ele>
        <time>2019-04-24T14:26:00.000Z</time>
      </trkpt>
      <trkpt lat="38.57014878652989864349365234375" lon="-7.8831874765455722808837890625">
        <ele>251.8000030517578125</ele>
        <time>2019-04-24T14:26:04.000Z</time>
      </trkpt>
      <trkpt lat="38.5701054520905017852783203125" lon="-7.88319074548780918121337890625">
        <ele>251.600006103515625</ele>
        <time>2019-04-24T14:26:05.000Z</time>
      </trkpt>
      <trkpt lat="38.5696226544678211212158203125" lon="-7.8831914998590946197509765625">
        <ele>251</ele>
        <time>2019-04-24T14:26:16.000Z</time>
      </trkpt>
      <trkpt lat="38.56909585185348987579345703125" lon="-7.883227206766605377197265625">
        <ele>250.600006103515625</ele>
        <time>2019-04-24T14:26:28.000Z</time>
      </trkpt>
      <trkpt lat="38.56872805394232273101806640625" lon="-7.8832783363759517669677734375">
        <ele>250.399993896484375</ele>
        <time>2019-04-24T14:26:36.000Z</time>
      </trkpt>
      <trkpt lat="38.5686568915843963623046875" lon="-7.88332669995725154876708984375">
        <ele>250.1999969482421875</ele>
        <time>2019-04-24T14:26:38.000Z</time>
      </trkpt>
      <trkpt lat="38.56834776699542999267578125" lon="-7.88357145152986049652099609375">
        <ele>250</ele>
        <time>2019-04-24T14:26:48.000Z</time>
      </trkpt>
      <trkpt lat="38.56776413507759571075439453125" lon="-7.883563153445720672607421875">
        <ele>249.399993896484375</ele>
        <time>2019-04-24T14:27:01.000Z</time>
      </trkpt>
      <trkpt lat="38.56743439100682735443115234375" lon="-7.8835827670991420745849609375">
        <ele>249.1999969482421875</ele>
        <time>2019-04-24T14:27:11.000Z</time>
      </trkpt>
      <trkpt lat="38.56739466078579425811767578125" lon="-7.88327439688146114349365234375">
        <ele>248.8000030517578125</ele>
        <time>2019-04-24T14:27:19.000Z</time>
      </trkpt>
      <trkpt lat="38.56735426001250743865966796875" lon="-7.88262764923274517059326171875">
        <ele>249.1999969482421875</ele>
        <time>2019-04-24T14:27:32.000Z</time>
      </trkpt>
      <trkpt lat="38.56735560111701488494873046875" lon="-7.8819208033382892608642578125">
        <ele>249.399993896484375</ele>
        <time>2019-04-24T14:27:47.000Z</time>
      </trkpt>
      <trkpt lat="38.56735576875507831573486328125" lon="-7.88119166158139705657958984375">
        <ele>250.1999969482421875</ele>
        <time>2019-04-24T14:28:02.000Z</time>
      </trkpt>
      <trkpt lat="38.56735727749764919281005859375" lon="-7.880461178719997406005859375">
        <ele>252</ele>
        <time>2019-04-24T14:28:15.000Z</time>
      </trkpt>
      <trkpt lat="38.567358367145061492919921875" lon="-7.88017409853637218475341796875">
        <ele>252.399993896484375</ele>
        <time>2019-04-24T14:28:20.000Z</time>
      </trkpt>
      <trkpt lat="38.567341603338718414306640625" lon="-7.87947471253573894500732421875">
        <ele>252.399993896484375</ele>
        <time>2019-04-24T14:28:31.000Z</time>
      </trkpt>
      <trkpt lat="38.567224256694316864013671875" lon="-7.87873056717216968536376953125">
        <ele>251</ele>
        <time>2019-04-24T14:28:42.000Z</time>
      </trkpt>
      <trkpt lat="38.5671017132699489593505859375" lon="-7.87802405655384063720703125">
        <ele>251.399993896484375</ele>
        <time>2019-04-24T14:28:52.000Z</time>
      </trkpt>
      <trkpt lat="38.5670851171016693115234375" lon="-7.87795641459524631500244140625">
        <ele>251.600006103515625</ele>
        <time>2019-04-24T14:28:53.000Z</time>
      </trkpt>
      <trkpt lat="38.5669126175343990325927734375" lon="-7.87729407660663127899169921875">
        <ele>253.8000030517578125</ele>
        <time>2019-04-24T14:29:03.000Z</time>
      </trkpt>
      <trkpt lat="38.56674841605126857757568359375" lon="-7.876604832708835601806640625">
        <ele>255.399993896484375</ele>
        <time>2019-04-24T14:29:16.000Z</time>
      </trkpt>
      <trkpt lat="38.566675074398517608642578125" lon="-7.87621230818331241607666015625">
        <ele>256.399993896484375</ele>
        <time>2019-04-24T14:29:24.000Z</time>
      </trkpt>
      <trkpt lat="38.56654574163258075714111328125" lon="-7.8755280934274196624755859375">
        <ele>257.600006103515625</ele>
        <time>2019-04-24T14:29:36.000Z</time>
      </trkpt>
      <trkpt lat="38.56642789207398891448974609375" lon="-7.87485343404114246368408203125">
        <ele>259.79998779296875</ele>
        <time>2019-04-24T14:29:47.000Z</time>
      </trkpt>
      <trkpt lat="38.5663409717381000518798828125" lon="-7.87441254593431949615478515625">
        <ele>260.20001220703125</ele>
        <time>2019-04-24T14:29:55.000Z</time>
      </trkpt>
      <trkpt lat="38.56631523929536342620849609375" lon="-7.87430106662213802337646484375">
        <ele>260.20001220703125</ele>
        <time>2019-04-24T14:29:57.000Z</time>
      </trkpt>
      <trkpt lat="38.56623494066298007965087890625" lon="-7.87398691289126873016357421875">
        <ele>260.20001220703125</ele>
        <time>2019-04-24T14:30:03.000Z</time>
      </trkpt>
      <trkpt lat="38.56596403755247592926025390625" lon="-7.87338123656809329986572265625">
        <ele>261.20001220703125</ele>
        <time>2019-04-24T14:30:15.000Z</time>
      </trkpt>
      <trkpt lat="38.5658152587711811065673828125" lon="-7.87303037010133266448974609375">
        <ele>262.79998779296875</ele>
        <time>2019-04-24T14:30:22.000Z</time>
      </trkpt>
      <trkpt lat="38.5656930506229400634765625" lon="-7.87231631577014923095703125">
        <ele>264</ele>
        <time>2019-04-24T14:30:36.000Z</time>
      </trkpt>
      <trkpt lat="38.5656935535371303558349609375" lon="-7.87225822918117046356201171875">
        <ele>264.20001220703125</ele>
        <time>2019-04-24T14:30:37.000Z</time>
      </trkpt>
      <trkpt lat="38.56569447554647922515869140625" lon="-7.8720345161855220794677734375">
        <ele>264.399993896484375</ele>
        <time>2019-04-24T14:30:41.000Z</time>
      </trkpt>
      <trkpt lat="38.5656781308352947235107421875" lon="-7.8718722425401210784912109375">
        <ele>264.399993896484375</ele>
        <time>2019-04-24T14:30:44.000Z</time>
      </trkpt>
      <trkpt lat="38.56567385606467723846435546875" lon="-7.87176956422626972198486328125">
        <ele>264.399993896484375</ele>
        <time>2019-04-24T14:30:46.000Z</time>
      </trkpt>
      <trkpt lat="38.56551535427570343017578125" lon="-7.87110663950443267822265625">
        <ele>265.79998779296875</ele>
        <time>2019-04-24T14:31:03.000Z</time>
      </trkpt>
      <trkpt lat="38.565276972949504852294921875" lon="-7.87047640420496463775634765625">
        <ele>265.79998779296875</ele>
        <time>2019-04-24T14:31:21.000Z</time>
      </trkpt>
      <trkpt lat="38.5650585405528545379638671875" lon="-7.8698384575545787811279296875">
        <ele>266.600006103515625</ele>
        <time>2019-04-24T14:31:34.000Z</time>
      </trkpt>
      <trkpt lat="38.56480079703032970428466796875" lon="-7.86918927915394306182861328125">
        <ele>268.79998779296875</ele>
        <time>2019-04-24T14:31:47.000Z</time>
      </trkpt>
      <trkpt lat="38.56466987170279026031494140625" lon="-7.86851252429187297821044921875">
        <ele>270.79998779296875</ele>
        <time>2019-04-24T14:32:04.000Z</time>
      </trkpt>
      <trkpt lat="38.564515896141529083251953125" lon="-7.867843396961688995361328125">
        <ele>271.79998779296875</ele>
        <time>2019-04-24T14:32:21.000Z</time>
      </trkpt>
      <trkpt lat="38.564409278333187103271484375" lon="-7.867144010961055755615234375">
        <ele>273</ele>
        <time>2019-04-24T14:32:40.000Z</time>
      </trkpt>
      <trkpt lat="38.56434725224971771240234375" lon="-7.86659206263720989227294921875">
        <ele>273.399993896484375</ele>
        <time>2019-04-24T14:32:53.000Z</time>
      </trkpt>
      <trkpt lat="38.56430643238127231597900390625" lon="-7.86641906015574932098388671875">
        <ele>272.600006103515625</ele>
        <time>2019-04-24T14:32:56.000Z</time>
      </trkpt>
      <trkpt lat="38.5642729885876178741455078125" lon="-7.86619476042687892913818359375">
        <ele>271.399993896484375</ele>
        <time>2019-04-24T14:32:59.000Z</time>
      </trkpt>
      <trkpt lat="38.56416058726608753204345703125" lon="-7.86544139496982097625732421875">
        <ele>270.20001220703125</ele>
        <time>2019-04-24T14:33:07.000Z</time>
      </trkpt>
      <trkpt lat="38.56404659338295459747314453125" lon="-7.864685766398906707763671875">
        <ele>268</ele>
        <time>2019-04-24T14:33:15.000Z</time>
      </trkpt>
      <trkpt lat="38.56394290924072265625" lon="-7.86395092494785785675048828125">
        <ele>266.600006103515625</ele>
        <time>2019-04-24T14:33:24.000Z</time>
      </trkpt>
      <trkpt lat="38.56392212212085723876953125" lon="-7.86377725191414356231689453125">
        <ele>266.399993896484375</ele>
        <time>2019-04-24T14:33:28.000Z</time>
      </trkpt>
      <trkpt lat="38.56388649903237819671630859375" lon="-7.863526381552219390869140625">
        <ele>266.399993896484375</ele>
        <time>2019-04-24T14:33:36.000Z</time>
      </trkpt>
      <trkpt lat="38.56387694366276264190673828125" lon="-7.86329177208244800567626953125">
        <ele>266.600006103515625</ele>
        <time>2019-04-24T14:33:45.000Z</time>
      </trkpt>
      <trkpt lat="38.56375071220099925994873046875" lon="-7.86260068416595458984375">
        <ele>267.20001220703125</ele>
        <time>2019-04-24T14:34:04.000Z</time>
      </trkpt>
      <trkpt lat="38.56364023871719837188720703125" lon="-7.8618984483182430267333984375">
        <ele>269.399993896484375</ele>
        <time>2019-04-24T14:34:24.000Z</time>
      </trkpt>
      <trkpt lat="38.563534878194332122802734375" lon="-7.8612126410007476806640625">
        <ele>271.20001220703125</ele>
        <time>2019-04-24T14:34:42.000Z</time>
      </trkpt>
      <trkpt lat="38.56343706138432025909423828125" lon="-7.86050319671630859375">
        <ele>271.20001220703125</ele>
        <time>2019-04-24T14:35:02.000Z</time>
      </trkpt>
      <trkpt lat="38.56333916075527667999267578125" lon="-7.85989173687994480133056640625">
        <ele>270.600006103515625</ele>
        <time>2019-04-24T14:35:12.000Z</time>
      </trkpt>
      <trkpt lat="38.5633057169616222381591796875" lon="-7.85957976244390010833740234375">
        <ele>270.79998779296875</ele>
        <time>2019-04-24T14:35:16.000Z</time>
      </trkpt>
      <trkpt lat="38.56329984962940216064453125" lon="-7.85950650461018085479736328125">
        <ele>271</ele>
        <time>2019-04-24T14:35:17.000Z</time>
      </trkpt>
      <trkpt lat="38.5632483847439289093017578125" lon="-7.85920458845794200897216796875">
        <ele>270.79998779296875</ele>
        <time>2019-04-24T14:35:22.000Z</time>
      </trkpt>
      <trkpt lat="38.563149981200695037841796875" lon="-7.8584695793688297271728515625">
        <ele>272</ele>
        <time>2019-04-24T14:35:39.000Z</time>
      </trkpt>
      <trkpt lat="38.5631152801215648651123046875" lon="-7.85820328630506992340087890625">
        <ele>272.600006103515625</ele>
        <time>2019-04-24T14:35:43.000Z</time>
      </trkpt>
      <trkpt lat="38.56307412497699260711669921875" lon="-7.85793757997453212738037109375">
        <ele>273.20001220703125</ele>
        <time>2019-04-24T14:35:47.000Z</time>
      </trkpt>
      <trkpt lat="38.5629523359239101409912109375" lon="-7.85726241767406463623046875">
        <ele>275</ele>
        <time>2019-04-24T14:36:04.000Z</time>
      </trkpt>
      <trkpt lat="38.562853597104549407958984375" lon="-7.85653822124004364013671875">
        <ele>276.600006103515625</ele>
        <time>2019-04-24T14:36:23.000Z</time>
      </trkpt>
      <trkpt lat="38.56280825100839138031005859375" lon="-7.85631484352052211761474609375">
        <ele>276.399993896484375</ele>
        <time>2019-04-24T14:36:27.000Z</time>
      </trkpt>
      <trkpt lat="38.5627763159573078155517578125" lon="-7.85610747523605823516845703125">
        <ele>276.20001220703125</ele>
        <time>2019-04-24T14:36:30.000Z</time>
      </trkpt>
      <trkpt lat="38.5627454705536365509033203125" lon="-7.8558775596320629119873046875">
        <ele>275.79998779296875</ele>
        <time>2019-04-24T14:36:33.000Z</time>
      </trkpt>
      <trkpt lat="38.5626827739179134368896484375" lon="-7.8555657528340816497802734375">
        <ele>274.79998779296875</ele>
        <time>2019-04-24T14:36:37.000Z</time>
      </trkpt>
      <trkpt lat="38.5625939257442951202392578125" lon="-7.8550435602664947509765625">
        <ele>273.399993896484375</ele>
        <time>2019-04-24T14:36:43.000Z</time>
      </trkpt>
      <trkpt lat="38.56255981139838695526123046875" lon="-7.85486309789121150970458984375">
        <ele>272.79998779296875</ele>
        <time>2019-04-24T14:36:45.000Z</time>
      </trkpt>
      <trkpt lat="38.56246442534029483795166015625" lon="-7.85416471771895885467529296875">
        <ele>270</ele>
        <time>2019-04-24T14:36:53.000Z</time>
      </trkpt>
      <trkpt lat="38.56243458576500415802001953125" lon="-7.85401015542447566986083984375">
        <ele>269.600006103515625</ele>
        <time>2019-04-24T14:36:55.000Z</time>
      </trkpt>
      <trkpt lat="38.5623994655907154083251953125" lon="-7.85386514849960803985595703125">
        <ele>269.399993896484375</ele>
        <time>2019-04-24T14:36:57.000Z</time>
      </trkpt>
      <trkpt lat="38.5623629204928874969482421875" lon="-7.853642441332340240478515625">
        <ele>268.79998779296875</ele>
        <time>2019-04-24T14:37:00.000Z</time>
      </trkpt>
      <trkpt lat="38.562334589660167694091796875" lon="-7.85341319628059864044189453125">
        <ele>267.79998779296875</ele>
        <time>2019-04-24T14:37:03.000Z</time>
      </trkpt>
      <trkpt lat="38.56222721748054027557373046875" lon="-7.85272135399281978607177734375">
        <ele>266.79998779296875</ele>
        <time>2019-04-24T14:37:12.000Z</time>
      </trkpt>
      <trkpt lat="38.5621345974504947662353515625" lon="-7.85214082337915897369384765625">
        <ele>265.399993896484375</ele>
        <time>2019-04-24T14:37:20.000Z</time>
      </trkpt>
      <trkpt lat="38.5620826296508312225341796875" lon="-7.851850055158138275146484375">
        <ele>263.79998779296875</ele>
        <time>2019-04-24T14:37:24.000Z</time>
      </trkpt>
      <trkpt lat="38.562012724578380584716796875" lon="-7.85140891559422016143798828125">
        <ele>262.399993896484375</ele>
        <time>2019-04-24T14:37:30.000Z</time>
      </trkpt>
      <trkpt lat="38.5619602538645267486572265625" lon="-7.85111102275550365447998046875">
        <ele>261.79998779296875</ele>
        <time>2019-04-24T14:37:34.000Z</time>
      </trkpt>
      <trkpt lat="38.5618740878999233245849609375" lon="-7.85064934752881526947021484375">
        <ele>261.20001220703125</ele>
        <time>2019-04-24T14:37:41.000Z</time>
      </trkpt>
      <trkpt lat="38.56184919364750385284423828125" lon="-7.85040325485169887542724609375">
        <ele>261</ele>
        <time>2019-04-24T14:37:45.000Z</time>
      </trkpt>
      <trkpt lat="38.56172648258507251739501953125" lon="-7.85017292015254497528076171875">
        <ele>260.79998779296875</ele>
        <time>2019-04-24T14:37:50.000Z</time>
      </trkpt>
      <trkpt lat="38.56168960221111774444580078125" lon="-7.8501446731388568878173828125">
        <ele>260.399993896484375</ele>
        <time>2019-04-24T14:37:51.000Z</time>
      </trkpt>
      <trkpt lat="38.56151886284351348876953125" lon="-7.8500792942941188812255859375">
        <ele>259.20001220703125</ele>
        <time>2019-04-24T14:37:55.000Z</time>
      </trkpt>
      <trkpt lat="38.56136807240545749664306640625" lon="-7.85006546415388584136962890625">
        <ele>258.20001220703125</ele>
        <time>2019-04-24T14:37:58.000Z</time>
      </trkpt>
      <trkpt lat="38.56116321869194507598876953125" lon="-7.849812917411327362060546875">
        <ele>257</ele>
        <time>2019-04-24T14:38:06.000Z</time>
      </trkpt>
      <trkpt lat="38.56117528863251209259033203125" lon="-7.84971325658261775970458984375">
        <ele>257.20001220703125</ele>
        <time>2019-04-24T14:38:08.000Z</time>
      </trkpt>
      <trkpt lat="38.56120931915938854217529296875" lon="-7.84955617971718311309814453125">
        <ele>257.600006103515625</ele>
        <time>2019-04-24T14:38:15.000Z</time>
      </trkpt>
      <trkpt lat="38.5614633746445178985595703125" lon="-7.84894446842372417449951171875">
        <ele>258.600006103515625</ele>
        <time>2019-04-24T14:38:40.000Z</time>
      </trkpt>
      <trkpt lat="38.5614922083914279937744140625" lon="-7.848902978003025054931640625">
        <ele>258.600006103515625</ele>
        <time>2019-04-24T14:38:42.000Z</time>
      </trkpt>
      <trkpt lat="38.561529926955699920654296875" lon="-7.84883734770119190216064453125">
        <ele>258.600006103515625</ele>
        <time>2019-04-24T14:38:47.000Z</time>
      </trkpt>
      <trkpt lat="38.5615347884595394134521484375" lon="-7.84883433021605014801025390625">
        <ele>258.600006103515625</ele>
        <time>2019-04-24T14:39:43.000Z</time>
      </trkpt>
      <trkpt lat="38.56154476292431354522705078125" lon="-7.8487459011375904083251953125">
        <ele>258.399993896484375</ele>
        <time>2019-04-24T14:39:47.000Z</time>
      </trkpt>
      <trkpt lat="38.56145985424518585205078125" lon="-7.8480488620698451995849609375">
        <ele>258</ele>
        <time>2019-04-24T14:40:05.000Z</time>
      </trkpt>
      <trkpt lat="38.56135348789393901824951171875" lon="-7.84735559485852718353271484375">
        <ele>256.600006103515625</ele>
        <time>2019-04-24T14:40:20.000Z</time>
      </trkpt>
      <trkpt lat="38.56132934801280498504638671875" lon="-7.84718745388090610504150390625">
        <ele>255.8000030517578125</ele>
        <time>2019-04-24T14:40:23.000Z</time>
      </trkpt>
      <trkpt lat="38.56129012070596218109130859375" lon="-7.8469538502395153045654296875">
        <ele>255.1999969482421875</ele>
        <time>2019-04-24T14:40:27.000Z</time>
      </trkpt>
      <trkpt lat="38.56123949401080608367919921875" lon="-7.84666366875171661376953125">
        <ele>254.399993896484375</ele>
        <time>2019-04-24T14:40:32.000Z</time>
      </trkpt>
      <trkpt lat="38.561132289469242095947265625" lon="-7.84597559832036495208740234375">
        <ele>252.399993896484375</ele>
        <time>2019-04-24T14:40:44.000Z</time>
      </trkpt>
      <trkpt lat="38.561122901737689971923828125" lon="-7.84591441042721271514892578125">
        <ele>252.1999969482421875</ele>
        <time>2019-04-24T14:40:45.000Z</time>
      </trkpt>
      <trkpt lat="38.56100966222584247589111328125" lon="-7.84534670412540435791015625">
        <ele>251.399993896484375</ele>
        <time>2019-04-24T14:40:54.000Z</time>
      </trkpt>
      <trkpt lat="38.56097948737442493438720703125" lon="-7.84507622011005878448486328125">
        <ele>251</ele>
        <time>2019-04-24T14:40:58.000Z</time>
      </trkpt>
      <trkpt lat="38.56093137525022029876708984375" lon="-7.84489131532609462738037109375">
        <ele>251</ele>
        <time>2019-04-24T14:41:01.000Z</time>
      </trkpt>
      <trkpt lat="38.560727275907993316650390625" lon="-7.84441421739757061004638671875">
        <ele>251</ele>
        <time>2019-04-24T14:41:17.000Z</time>
      </trkpt>
      <trkpt lat="38.5608437843620777130126953125" lon="-7.84425144083797931671142578125">
        <ele>250.399993896484375</ele>
        <time>2019-04-24T14:41:25.000Z</time>
      </trkpt>
      <trkpt lat="38.56125139631330966949462890625" lon="-7.84379730932414531707763671875">
        <ele>249</ele>
        <time>2019-04-24T14:41:45.000Z</time>
      </trkpt>
      <trkpt lat="38.561468906700611114501953125" lon="-7.8433211334049701690673828125">
        <ele>248</ele>
        <time>2019-04-24T14:41:59.000Z</time>
      </trkpt>
      <trkpt lat="38.5615114867687225341796875" lon="-7.84316279925405979156494140625">
        <ele>248</ele>
        <time>2019-04-24T14:42:04.000Z</time>
      </trkpt>
      <trkpt lat="38.56163344345986843109130859375" lon="-7.84247112460434436798095703125">
        <ele>247.8000030517578125</ele>
        <time>2019-04-24T14:42:21.000Z</time>
      </trkpt>
      <trkpt lat="38.56169697828590869903564453125" lon="-7.84217189066112041473388671875">
        <ele>247.600006103515625</ele>
        <time>2019-04-24T14:42:30.000Z</time>
      </trkpt>
      <trkpt lat="38.56193033047020435333251953125" lon="-7.84152212552726268768310546875">
        <ele>246.600006103515625</ele>
        <time>2019-04-24T14:42:50.000Z</time>
      </trkpt>
      <trkpt lat="38.56222964823246002197265625" lon="-7.84091359935700893402099609375">
        <ele>245.600006103515625</ele>
        <time>2019-04-24T14:43:05.000Z</time>
      </trkpt>
      <trkpt lat="38.56262234039604663848876953125" lon="-7.84040800295770168304443359375">
        <ele>246</ele>
        <time>2019-04-24T14:43:25.000Z</time>
      </trkpt>
      <trkpt lat="38.563082255423069000244140625" lon="-7.84001313149929046630859375">
        <ele>246.1999969482421875</ele>
        <time>2019-04-24T14:43:43.000Z</time>
      </trkpt>
      <trkpt lat="38.563407473266124725341796875" lon="-7.8398756682872772216796875">
        <ele>246.1999969482421875</ele>
        <time>2019-04-24T14:44:00.000Z</time>
      </trkpt>
      <trkpt lat="38.56339967809617519378662109375" lon="-7.839731164276599884033203125">
        <ele>246.8000030517578125</ele>
        <time>2019-04-24T14:44:05.000Z</time>
      </trkpt>
      <trkpt lat="38.5633640550076961517333984375" lon="-7.839041836559772491455078125">
        <ele>251.600006103515625</ele>
        <time>2019-04-24T14:44:34.000Z</time>
      </trkpt>
      <trkpt lat="38.56336715631186962127685546875" lon="-7.838962711393833160400390625">
        <ele>252</ele>
        <time>2019-04-24T14:44:38.000Z</time>
      </trkpt>
      <trkpt lat="38.563377298414707183837890625" lon="-7.8388783894479274749755859375">
        <ele>252.600006103515625</ele>
        <time>2019-04-24T14:44:42.000Z</time>
      </trkpt>
      <trkpt lat="38.5634059645235538482666015625" lon="-7.838506400585174560546875">
        <ele>255</ele>
        <time>2019-04-24T14:45:01.000Z</time>
      </trkpt>
      <trkpt lat="38.56340068392455577850341796875" lon="-7.83845887519419193267822265625">
        <ele>255.1999969482421875</ele>
        <time>2019-04-24T14:46:40.000Z</time>
      </trkpt>
      <trkpt lat="38.5635337047278881072998046875" lon="-7.838296182453632354736328125">
        <ele>255</ele>
        <time>2019-04-24T14:46:49.000Z</time>
      </trkpt>
      <trkpt lat="38.56382363475859165191650390625" lon="-7.8376925177872180938720703125">
        <ele>254.600006103515625</ele>
        <time>2019-04-24T14:47:09.000Z</time>
      </trkpt>
      <trkpt lat="38.56389840133488178253173828125" lon="-7.837583720684051513671875">
        <ele>254.399993896484375</ele>
        <time>2019-04-24T14:47:16.000Z</time>
      </trkpt>
      <trkpt lat="38.56390158645808696746826171875" lon="-7.83758179284632205963134765625">
        <ele>254.600006103515625</ele>
        <time>2019-04-24T14:48:09.000Z</time>
      </trkpt>
      <trkpt lat="38.56415941379964351654052734375" lon="-7.83729848451912403106689453125">
        <ele>254.8000030517578125</ele>
        <time>2019-04-24T14:48:21.000Z</time>
      </trkpt>
      <trkpt lat="38.56427458114922046661376953125" lon="-7.83706831745803356170654296875">
        <ele>255</ele>
        <time>2019-04-24T14:48:25.000Z</time>
      </trkpt>
      <trkpt lat="38.56469367630779743194580078125" lon="-7.8366477973759174346923828125">
        <ele>256.20001220703125</ele>
        <time>2019-04-24T14:48:39.000Z</time>
      </trkpt>
      <trkpt lat="38.56500246562063694000244140625" lon="-7.8360473178327083587646484375">
        <ele>253.399993896484375</ele>
        <time>2019-04-24T14:49:00.000Z</time>
      </trkpt>
      <trkpt lat="38.565018810331821441650390625" lon="-7.83599643968045711517333984375">
        <ele>253.1999969482421875</ele>
        <time>2019-04-24T14:49:01.000Z</time>
      </trkpt>
      <trkpt lat="38.5650810040533542633056640625" lon="-7.83585042692720890045166015625">
        <ele>252.600006103515625</ele>
        <time>2019-04-24T14:49:03.000Z</time>
      </trkpt>
      <trkpt lat="38.5652707703411579132080078125" lon="-7.8354421444237232208251953125">
        <ele>249.8000030517578125</ele>
        <time>2019-04-24T14:49:08.000Z</time>
      </trkpt>
      <trkpt lat="38.5653780587017536163330078125" lon="-7.8352084569633007049560546875">
        <ele>248</ele>
        <time>2019-04-24T14:49:12.000Z</time>
      </trkpt>
      <trkpt lat="38.5655410028994083404541015625" lon="-7.83473856747150421142578125">
        <ele>244</ele>
        <time>2019-04-24T14:49:26.000Z</time>
      </trkpt>
      <trkpt lat="38.565473444759845733642578125" lon="-7.8339910693466663360595703125">
        <ele>239</ele>
        <time>2019-04-24T14:49:34.000Z</time>
      </trkpt>
      <trkpt lat="38.56548174284398555755615234375" lon="-7.8337124548852443695068359375">
        <ele>237.600006103515625</ele>
        <time>2019-04-24T14:49:37.000Z</time>
      </trkpt>
      <trkpt lat="38.56550462543964385986328125" lon="-7.8334784321486949920654296875">
        <ele>236.399993896484375</ele>
        <time>2019-04-24T14:49:40.000Z</time>
      </trkpt>
      <trkpt lat="38.56550336815416812896728515625" lon="-7.83335261978209018707275390625">
        <ele>235.600006103515625</ele>
        <time>2019-04-24T14:49:42.000Z</time>
      </trkpt>
      <trkpt lat="38.5655535757541656494140625" lon="-7.833094038069248199462890625">
        <ele>235.1999969482421875</ele>
        <time>2019-04-24T14:49:46.000Z</time>
      </trkpt>
      <trkpt lat="38.56557830236852169036865234375" lon="-7.83301834948360919952392578125">
        <ele>235</ele>
        <time>2019-04-24T14:49:47.000Z</time>
      </trkpt>
      <trkpt lat="38.56572330929338932037353515625" lon="-7.83277116715908050537109375">
        <ele>234.8000030517578125</ele>
        <time>2019-04-24T14:49:51.000Z</time>
      </trkpt>
      <trkpt lat="38.565768487751483917236328125" lon="-7.83272213302552700042724609375">
        <ele>234.8000030517578125</ele>
        <time>2019-04-24T14:49:52.000Z</time>
      </trkpt>
      <trkpt lat="38.56583864428102970123291015625" lon="-7.832632362842559814453125">
        <ele>234.600006103515625</ele>
        <time>2019-04-24T14:49:54.000Z</time>
      </trkpt>
      <trkpt lat="38.56591139920055866241455078125" lon="-7.83246782608330249786376953125">
        <ele>234.399993896484375</ele>
        <time>2019-04-24T14:49:59.000Z</time>
      </trkpt>
      <trkpt lat="38.5661642812192440032958984375" lon="-7.83195921219885349273681640625">
        <ele>232.1999969482421875</ele>
        <time>2019-04-24T14:50:15.000Z</time>
      </trkpt>
      <trkpt lat="38.56641523540019989013671875" lon="-7.8315402008593082427978515625">
        <ele>229.399993896484375</ele>
        <time>2019-04-24T14:50:23.000Z</time>
      </trkpt>
      <trkpt lat="38.56651238165795803070068359375" lon="-7.831341885030269622802734375">
        <ele>228.399993896484375</ele>
        <time>2019-04-24T14:50:28.000Z</time>
      </trkpt>
      <trkpt lat="38.56654423289000988006591796875" lon="-7.83123887144029140472412109375">
        <ele>228</ele>
        <time>2019-04-24T14:50:30.000Z</time>
      </trkpt>
      <trkpt lat="38.5666175745427608489990234375" lon="-7.830993197858333587646484375">
        <ele>226.600006103515625</ele>
        <time>2019-04-24T14:50:34.000Z</time>
      </trkpt>
      <trkpt lat="38.56689535081386566162109375" lon="-7.83038022927939891815185546875">
        <ele>225.600006103515625</ele>
        <time>2019-04-24T14:50:43.000Z</time>
      </trkpt>
      <trkpt lat="38.5669241845607757568359375" lon="-7.83032096922397613525390625">
        <ele>225.600006103515625</ele>
        <time>2019-04-24T14:50:44.000Z</time>
      </trkpt>
      <trkpt lat="38.56696349568665027618408203125" lon="-7.83021544106304645538330078125">
        <ele>225.8000030517578125</ele>
        <time>2019-04-24T14:50:46.000Z</time>
      </trkpt>
      <trkpt lat="38.567021079361438751220703125" lon="-7.83000572584569454193115234375">
        <ele>226.1999969482421875</ele>
        <time>2019-04-24T14:50:52.000Z</time>
      </trkpt>
      <trkpt lat="38.5671828500926494598388671875" lon="-7.8293508477509021759033203125">
        <ele>229.399993896484375</ele>
        <time>2019-04-24T14:51:19.000Z</time>
      </trkpt>
      <trkpt lat="38.56719835661351680755615234375" lon="-7.82915228046476840972900390625">
        <ele>230.8000030517578125</ele>
        <time>2019-04-24T14:51:27.000Z</time>
      </trkpt>
      <trkpt lat="38.56732877902686595916748046875" lon="-7.82848172821104526519775390625">
        <ele>235</ele>
        <time>2019-04-24T14:51:48.000Z</time>
      </trkpt>
      <trkpt lat="38.56733699329197406768798828125" lon="-7.827979065477848052978515625">
        <ele>239.1999969482421875</ele>
        <time>2019-04-24T14:52:07.000Z</time>
      </trkpt>
      <trkpt lat="38.56736364774405956268310546875" lon="-7.8278370760381221771240234375">
        <ele>240</ele>
        <time>2019-04-24T14:52:12.000Z</time>
      </trkpt>
      <trkpt lat="38.56739424169063568115234375" lon="-7.827713191509246826171875">
        <ele>240.1999969482421875</ele>
        <time>2019-04-24T14:52:18.000Z</time>
      </trkpt>
      <trkpt lat="38.5675191320478916168212890625" lon="-7.827042303979396820068359375">
        <ele>241.600006103515625</ele>
        <time>2019-04-24T14:52:50.000Z</time>
      </trkpt>
      <trkpt lat="38.5674956627190113067626953125" lon="-7.82635607756674289703369140625">
        <ele>242.399993896484375</ele>
        <time>2019-04-24T14:53:18.000Z</time>
      </trkpt>
      <trkpt lat="38.56764745898544788360595703125" lon="-7.82592759467661380767822265625">
        <ele>242</ele>
        <time>2019-04-24T14:53:33.000Z</time>
      </trkpt>
      <trkpt lat="38.56766246259212493896484375" lon="-7.8259048797190189361572265625">
        <ele>242</ele>
        <time>2019-04-24T14:54:39.000Z</time>
      </trkpt>
      <trkpt lat="38.56804040260612964630126953125" lon="-7.825401127338409423828125">
        <ele>241.600006103515625</ele>
        <time>2019-04-24T14:54:57.000Z</time>
      </trkpt>
      <trkpt lat="38.56848849914968013763427734375" lon="-7.82500407658517360687255859375">
        <ele>242</ele>
        <time>2019-04-24T14:55:19.000Z</time>
      </trkpt>
      <trkpt lat="38.56855639256536960601806640625" lon="-7.82495093531906604766845703125">
        <ele>241.8000030517578125</ele>
        <time>2019-04-24T14:55:25.000Z</time>
      </trkpt>
      <trkpt lat="38.568557314574718475341796875" lon="-7.8249184973537921905517578125">
        <ele>241.8000030517578125</ele>
        <time>2019-04-24T14:56:35.000Z</time>
      </trkpt>
      <trkpt lat="38.56855429708957672119140625" lon="-7.82492495141923427581787109375">
        <ele>241.8000030517578125</ele>
        <time>2019-04-24T14:56:36.000Z</time>
      </trkpt>
      <trkpt lat="38.56857231818139553070068359375" lon="-7.8248772583901882171630859375">
        <ele>241.600006103515625</ele>
        <time>2019-04-24T14:56:39.000Z</time>
      </trkpt>
      <trkpt lat="38.56863074004650115966796875" lon="-7.82448573969304561614990234375">
        <ele>241.1999969482421875</ele>
        <time>2019-04-24T14:57:00.000Z</time>
      </trkpt>
      <trkpt lat="38.56904053129255771636962890625" lon="-7.82411324791610240936279296875">
        <ele>238.399993896484375</ele>
        <time>2019-04-24T14:57:21.000Z</time>
      </trkpt>
      <trkpt lat="38.56919257901608943939208984375" lon="-7.82391426153481006622314453125">
        <ele>236.399993896484375</ele>
        <time>2019-04-24T14:57:27.000Z</time>
      </trkpt>
      <trkpt lat="38.56950111687183380126953125" lon="-7.82364905811846256256103515625">
        <ele>234</ele>
        <time>2019-04-24T14:57:36.000Z</time>
      </trkpt>
      <trkpt lat="38.56961687095463275909423828125" lon="-7.8235653229057788848876953125">
        <ele>233.600006103515625</ele>
        <time>2019-04-24T14:57:40.000Z</time>
      </trkpt>
      <trkpt lat="38.57006161473691463470458984375" lon="-7.8231321461498737335205078125">
        <ele>231.600006103515625</ele>
        <time>2019-04-24T14:57:56.000Z</time>
      </trkpt>
      <trkpt lat="38.5701133310794830322265625" lon="-7.82285529188811779022216796875">
        <ele>230.8000030517578125</ele>
        <time>2019-04-24T14:58:02.000Z</time>
      </trkpt>
      <trkpt lat="38.5700813122093677520751953125" lon="-7.822574079036712646484375">
        <ele>229.600006103515625</ele>
        <time>2019-04-24T14:58:07.000Z</time>
      </trkpt>
      <trkpt lat="38.5700715892016887664794921875" lon="-7.8225145675241947174072265625">
        <ele>229.1999969482421875</ele>
        <time>2019-04-24T14:58:10.000Z</time>
      </trkpt>
      <trkpt lat="38.57006597332656383514404296875" lon="-7.822478525340557098388671875">
        <ele>229.1999969482421875</ele>
        <time>2019-04-24T14:58:14.000Z</time>
      </trkpt>
      <trkpt lat="38.56987184844911098480224609375" lon="-7.8221283294260501861572265625">
        <ele>227.1999969482421875</ele>
        <time>2019-04-24T14:58:26.000Z</time>
      </trkpt>
      <trkpt lat="38.5697980038821697235107421875" lon="-7.821905873715877532958984375">
        <ele>226.399993896484375</ele>
        <time>2019-04-24T14:58:30.000Z</time>
      </trkpt>
      <trkpt lat="38.56979255564510822296142578125" lon="-7.82184275798499584197998046875">
        <ele>226.1999969482421875</ele>
        <time>2019-04-24T14:58:31.000Z</time>
      </trkpt>
      <trkpt lat="38.56979406438767910003662109375" lon="-7.82170998863875865936279296875">
        <ele>226.1999969482421875</ele>
        <time>2019-04-24T14:58:33.000Z</time>
      </trkpt>
      <trkpt lat="38.57001601718366146087646484375" lon="-7.82133917324244976043701171875">
        <ele>225.8000030517578125</ele>
        <time>2019-04-24T14:58:40.000Z</time>
      </trkpt>
      <trkpt lat="38.5704695619642734527587890625" lon="-7.8209706209599971771240234375">
        <ele>224</ele>
        <time>2019-04-24T14:58:57.000Z</time>
      </trkpt>
      <trkpt lat="38.57061465270817279815673828125" lon="-7.82058010809123516082763671875">
        <ele>222.1999969482421875</ele>
        <time>2019-04-24T14:59:08.000Z</time>
      </trkpt>
      <trkpt lat="38.570548854768276214599609375" lon="-7.82007132656872272491455078125">
        <ele>220.1999969482421875</ele>
        <time>2019-04-24T14:59:19.000Z</time>
      </trkpt>
      <trkpt lat="38.5705949552357196807861328125" lon="-7.81973965466022491455078125">
        <ele>218.8000030517578125</ele>
        <time>2019-04-24T14:59:24.000Z</time>
      </trkpt>
      <trkpt lat="38.57086342759430408477783203125" lon="-7.81941737048327922821044921875">
        <ele>217</ele>
        <time>2019-04-24T14:59:30.000Z</time>
      </trkpt>
      <trkpt lat="38.5708923451602458953857421875" lon="-7.8193782269954681396484375">
        <ele>216.8000030517578125</ele>
        <time>2019-04-24T14:59:31.000Z</time>
      </trkpt>
      <trkpt lat="38.5711635835468769073486328125" lon="-7.81907823868095874786376953125">
        <ele>215.399993896484375</ele>
        <time>2019-04-24T14:59:40.000Z</time>
      </trkpt>
      <trkpt lat="38.57123105786740779876708984375" lon="-7.81900162808597087860107421875">
        <ele>215.1999969482421875</ele>
        <time>2019-04-24T14:59:42.000Z</time>
      </trkpt>
      <trkpt lat="38.57143993489444255828857421875" lon="-7.81875033862888813018798828125">
        <ele>214.600006103515625</ele>
        <time>2019-04-24T14:59:47.000Z</time>
      </trkpt>
      <trkpt lat="38.57148670591413974761962890625" lon="-7.818317748606204986572265625">
        <ele>214.8000030517578125</ele>
        <time>2019-04-24T14:59:57.000Z</time>
      </trkpt>
      <trkpt lat="38.57161377556622028350830078125" lon="-7.81812856905162334442138671875">
        <ele>214.399993896484375</ele>
        <time>2019-04-24T15:00:07.000Z</time>
      </trkpt>
      <trkpt lat="38.571884594857692718505859375" lon="-7.8175192885100841522216796875">
        <ele>213.8000030517578125</ele>
        <time>2019-04-24T15:00:27.000Z</time>
      </trkpt>
      <trkpt lat="38.5720591060817241668701171875" lon="-7.8168561123311519622802734375">
        <ele>214.600006103515625</ele>
        <time>2019-04-24T15:00:45.000Z</time>
      </trkpt>
      <trkpt lat="38.57228550128638744354248046875" lon="-7.81620710156857967376708984375">
        <ele>214.600006103515625</ele>
        <time>2019-04-24T15:00:59.000Z</time>
      </trkpt>
      <trkpt lat="38.5725465975701808929443359375" lon="-7.81559689901769161224365234375">
        <ele>213.1999969482421875</ele>
        <time>2019-04-24T15:01:13.000Z</time>
      </trkpt>
      <trkpt lat="38.57278321869671344757080078125" lon="-7.81496004201471805572509765625">
        <ele>211.8000030517578125</ele>
        <time>2019-04-24T15:01:31.000Z</time>
      </trkpt>
      <trkpt lat="38.5728570632636547088623046875" lon="-7.81482894904911518096923828125">
        <ele>211.8000030517578125</ele>
        <time>2019-04-24T15:01:36.000Z</time>
      </trkpt>
      <trkpt lat="38.57283334247767925262451171875" lon="-7.81469131819903850555419921875">
        <ele>212</ele>
        <time>2019-04-24T15:01:41.000Z</time>
      </trkpt>
      <trkpt lat="38.572799898684024810791015625" lon="-7.8140089474618434906005859375">
        <ele>212.8000030517578125</ele>
        <time>2019-04-24T15:01:59.000Z</time>
      </trkpt>
      <trkpt lat="38.57279528863728046417236328125" lon="-7.81344585120677947998046875">
        <ele>212.8000030517578125</ele>
        <time>2019-04-24T15:02:10.000Z</time>
      </trkpt>
      <trkpt lat="38.5727008245885372161865234375" lon="-7.81284746713936328887939453125">
        <ele>212.399993896484375</ele>
        <time>2019-04-24T15:02:22.000Z</time>
      </trkpt>
      <trkpt lat="38.57264206744730472564697265625" lon="-7.8126641549170017242431640625">
        <ele>212.399993896484375</ele>
        <time>2019-04-24T15:02:26.000Z</time>
      </trkpt>
      <trkpt lat="38.57237267307937145233154296875" lon="-7.8120291419327259063720703125">
        <ele>211.8000030517578125</ele>
        <time>2019-04-24T15:02:41.000Z</time>
      </trkpt>
      <trkpt lat="38.57230176217854022979736328125" lon="-7.811856977641582489013671875">
        <ele>211.600006103515625</ele>
        <time>2019-04-24T15:02:45.000Z</time>
      </trkpt>
      <trkpt lat="38.5721920430660247802734375" lon="-7.8115939535200595855712890625">
        <ele>212</ele>
        <time>2019-04-24T15:02:51.000Z</time>
      </trkpt>
      <trkpt lat="38.57211082242429256439208984375" lon="-7.8114742599427700042724609375">
        <ele>212.399993896484375</ele>
        <time>2019-04-24T15:02:56.000Z</time>
      </trkpt>
      <trkpt lat="38.571743778884410858154296875" lon="-7.8109720163047313690185546875">
        <ele>210.8000030517578125</ele>
        <time>2019-04-24T15:03:13.000Z</time>
      </trkpt>
      <trkpt lat="38.571696169674396514892578125" lon="-7.810916192829608917236328125">
        <ele>211.1999969482421875</ele>
        <time>2019-04-24T15:03:15.000Z</time>
      </trkpt>
      <trkpt lat="38.571626432240009307861328125" lon="-7.810771353542804718017578125">
        <ele>211.8000030517578125</ele>
        <time>2019-04-24T15:03:19.000Z</time>
      </trkpt>
      <trkpt lat="38.57154537923634052276611328125" lon="-7.81019811518490314483642578125">
        <ele>212.600006103515625</ele>
        <time>2019-04-24T15:03:33.000Z</time>
      </trkpt>
      <trkpt lat="38.57150615192949771881103515625" lon="-7.80954952351748943328857421875">
        <ele>213.399993896484375</ele>
        <time>2019-04-24T15:03:50.000Z</time>
      </trkpt>
      <trkpt lat="38.5714197345077991485595703125" lon="-7.8089536540210247039794921875">
        <ele>213.1999969482421875</ele>
        <time>2019-04-24T15:04:13.000Z</time>
      </trkpt>
      <trkpt lat="38.5714502446353435516357421875" lon="-7.80826156027615070343017578125">
        <ele>215.600006103515625</ele>
        <time>2019-04-24T15:04:39.000Z</time>
      </trkpt>
      <trkpt lat="38.57151369564235210418701171875" lon="-7.80787892639636993408203125">
        <ele>215.600006103515625</ele>
        <time>2019-04-24T15:04:47.000Z</time>
      </trkpt>
      <trkpt lat="38.57156264595687389373779296875" lon="-7.807676754891872406005859375">
        <ele>215.600006103515625</ele>
        <time>2019-04-24T15:04:51.000Z</time>
      </trkpt>
      <trkpt lat="38.57159793376922607421875" lon="-7.8069832362234592437744140625">
        <ele>216.1999969482421875</ele>
        <time>2019-04-24T15:05:11.000Z</time>
      </trkpt>
      <trkpt lat="38.57168518938124179840087890625" lon="-7.8067029453814029693603515625">
        <ele>215.600006103515625</ele>
        <time>2019-04-24T15:05:18.000Z</time>
      </trkpt>
      <trkpt lat="38.5717821680009365081787109375" lon="-7.80635702423751354217529296875">
        <ele>213.600006103515625</ele>
        <time>2019-04-24T15:05:23.000Z</time>
      </trkpt>
      <trkpt lat="38.571881242096424102783203125" lon="-7.80593700706958770751953125">
        <ele>211</ele>
        <time>2019-04-24T15:05:28.000Z</time>
      </trkpt>
      <trkpt lat="38.571859113872051239013671875" lon="-7.80563953332602977752685546875">
        <ele>211</ele>
        <time>2019-04-24T15:05:32.000Z</time>
      </trkpt>
      <trkpt lat="38.57175459153950214385986328125" lon="-7.80536863021552562713623046875">
        <ele>211.8000030517578125</ele>
        <time>2019-04-24T15:05:39.000Z</time>
      </trkpt>
      <trkpt lat="38.571902029216289520263671875" lon="-7.80474417842924594879150390625">
        <ele>210.8000030517578125</ele>
        <time>2019-04-24T15:05:58.000Z</time>
      </trkpt>
      <trkpt lat="38.57195307500660419464111328125" lon="-7.80406356789171695709228515625">
        <ele>210.399993896484375</ele>
        <time>2019-04-24T15:06:13.000Z</time>
      </trkpt>
      <trkpt lat="38.5719521529972553253173828125" lon="-7.8036013059318065643310546875">
        <ele>208.600006103515625</ele>
        <time>2019-04-24T15:06:21.000Z</time>
      </trkpt>
      <trkpt lat="38.57192491181194782257080078125" lon="-7.80334842391312122344970703125">
        <ele>207.8000030517578125</ele>
        <time>2019-04-24T15:06:25.000Z</time>
      </trkpt>
      <trkpt lat="38.57183254323899745941162109375" lon="-7.8031589090824127197265625">
        <ele>207.8000030517578125</ele>
        <time>2019-04-24T15:06:29.000Z</time>
      </trkpt>
      <trkpt lat="38.5715400986373424530029296875" lon="-7.80257628299295902252197265625">
        <ele>209</ele>
        <time>2019-04-24T15:06:47.000Z</time>
      </trkpt>
      <trkpt lat="38.57127816416323184967041015625" lon="-7.8019564412534236907958984375">
        <ele>207.8000030517578125</ele>
        <time>2019-04-24T15:07:11.000Z</time>
      </trkpt>
      <trkpt lat="38.57107289135456085205078125" lon="-7.8013220988214015960693359375">
        <ele>206.399993896484375</ele>
        <time>2019-04-24T15:07:32.000Z</time>
      </trkpt>
      <trkpt lat="38.5710153914988040924072265625" lon="-7.80109226703643798828125">
        <ele>206.1999969482421875</ele>
        <time>2019-04-24T15:07:45.000Z</time>
      </trkpt>
      <trkpt lat="38.57101597823202610015869140625" lon="-7.80106033198535442352294921875">
        <ele>206.1999969482421875</ele>
        <time>2019-04-24T15:08:23.000Z</time>
      </trkpt>
      <trkpt lat="38.57098412699997425079345703125" lon="-7.8008683025836944580078125">
        <ele>206.1999969482421875</ele>
        <time>2019-04-24T15:08:31.000Z</time>
      </trkpt>
      <trkpt lat="38.5709904134273529052734375" lon="-7.8008419834077358245849609375">
        <ele>206.1999969482421875</ele>
        <time>2019-04-24T15:08:32.000Z</time>
      </trkpt>
      <trkpt lat="38.57099267654120922088623046875" lon="-7.80079127289354801177978515625">
        <ele>206</ele>
        <time>2019-04-24T15:08:34.000Z</time>
      </trkpt>
      <trkpt lat="38.5708755813539028167724609375" lon="-7.80011527240276336669921875">
        <ele>206.600006103515625</ele>
        <time>2019-04-24T15:08:58.000Z</time>
      </trkpt>
      <trkpt lat="38.57081917114555835723876953125" lon="-7.79996766708791255950927734375">
        <ele>206.8000030517578125</ele>
        <time>2019-04-24T15:09:06.000Z</time>
      </trkpt>
      <trkpt lat="38.5707954503595829010009765625" lon="-7.79996247030794620513916015625">
        <ele>206.8000030517578125</ele>
        <time>2019-04-24T15:09:13.000Z</time>
      </trkpt>
      <trkpt lat="38.5707570612430572509765625" lon="-7.7998874522745609283447265625">
        <ele>206.8000030517578125</ele>
        <time>2019-04-24T15:09:18.000Z</time>
      </trkpt>
      <trkpt lat="38.57063057832419872283935546875" lon="-7.7992011420428752899169921875">
        <ele>205.8000030517578125</ele>
        <time>2019-04-24T15:09:44.000Z</time>
      </trkpt>
      <trkpt lat="38.57060358859598636627197265625" lon="-7.79902017675340175628662109375">
        <ele>205.8000030517578125</ele>
        <time>2019-04-24T15:09:51.000Z</time>
      </trkpt>
      <trkpt lat="38.57062370516359806060791015625" lon="-7.79910315759479999542236328125">
        <ele>205.8000030517578125</ele>
        <time>2019-04-24T15:10:00.000Z</time>
      </trkpt>
      <trkpt lat="38.57060643844306468963623046875" lon="-7.79904146678745746612548828125">
        <ele>205.8000030517578125</ele>
        <time>2019-04-24T15:11:13.000Z</time>
      </trkpt>
      <trkpt lat="38.570355065166950225830078125" lon="-7.7984162606298923492431640625">
        <ele>205.399993896484375</ele>
        <time>2019-04-24T15:11:31.000Z</time>
      </trkpt>
      <trkpt lat="38.57031558640301227569580078125" lon="-7.7983716689050197601318359375">
        <ele>205.600006103515625</ele>
        <time>2019-04-24T15:11:34.000Z</time>
      </trkpt>
      <trkpt lat="38.57019245624542236328125" lon="-7.79800915159285068511962890625">
        <ele>206</ele>
        <time>2019-04-24T15:11:49.000Z</time>
      </trkpt>
      <trkpt lat="38.57016303576529026031494140625" lon="-7.79794528149068355560302734375">
        <ele>206</ele>
        <time>2019-04-24T15:11:55.000Z</time>
      </trkpt>
      <trkpt lat="38.57000880874693393707275390625" lon="-7.79729786328971385955810546875">
        <ele>206.399993896484375</ele>
        <time>2019-04-24T15:12:15.000Z</time>
      </trkpt>
      <trkpt lat="38.5698845051229000091552734375" lon="-7.79659763909876346588134765625">
        <ele>206.600006103515625</ele>
        <time>2019-04-24T15:12:32.000Z</time>
      </trkpt>
      <trkpt lat="38.56978434138000011444091796875" lon="-7.79591551981866359710693359375">
        <ele>206.399993896484375</ele>
        <time>2019-04-24T15:12:48.000Z</time>
      </trkpt>
      <trkpt lat="38.56975324451923370361328125" lon="-7.7956254221498966217041015625">
        <ele>206.600006103515625</ele>
        <time>2019-04-24T15:12:54.000Z</time>
      </trkpt>
      <trkpt lat="38.56979121454060077667236328125" lon="-7.79543523676693439483642578125">
        <ele>206.399993896484375</ele>
        <time>2019-04-24T15:12:59.000Z</time>
      </trkpt>
      <trkpt lat="38.56984167359769344329833984375" lon="-7.7953511662781238555908203125">
        <ele>206</ele>
        <time>2019-04-24T15:13:06.000Z</time>
      </trkpt>
      <trkpt lat="38.569856844842433929443359375" lon="-7.795341946184635162353515625">
        <ele>205.8000030517578125</ele>
        <time>2019-04-24T15:13:09.000Z</time>
      </trkpt>
      <trkpt lat="38.56987972743809223175048828125" lon="-7.79531286098062992095947265625">
        <ele>205.8000030517578125</ele>
        <time>2019-04-24T15:13:18.000Z</time>
      </trkpt>
      <trkpt lat="38.56988274492323398590087890625" lon="-7.795300371944904327392578125">
        <ele>205.600006103515625</ele>
        <time>2019-04-24T15:13:20.000Z</time>
      </trkpt>
      <trkpt lat="38.569830358028411865234375" lon="-7.79530934058129787445068359375">
        <ele>205.8000030517578125</ele>
        <time>2019-04-24T15:13:44.000Z</time>
      </trkpt>
      <trkpt lat="38.56983765028417110443115234375" lon="-7.79526273719966411590576171875">
        <ele>205.8000030517578125</ele>
        <time>2019-04-24T15:13:48.000Z</time>
      </trkpt>
      <trkpt lat="38.5698325373232364654541015625" lon="-7.7953102625906467437744140625">
        <ele>205.8000030517578125</ele>
        <time>2019-04-24T15:13:54.000Z</time>
      </trkpt>
      <trkpt lat="38.56981820426881313323974609375" lon="-7.79537706635892391204833984375">
        <ele>206</ele>
        <time>2019-04-24T15:13:58.000Z</time>
      </trkpt>
      <trkpt lat="38.56980311684310436248779296875" lon="-7.79540539719164371490478515625">
        <ele>206.1999969482421875</ele>
        <time>2019-04-24T15:14:00.000Z</time>
      </trkpt>
      <trkpt lat="38.56980479322373867034912109375" lon="-7.79540388844907283782958984375">
        <ele>206.1999969482421875</ele>
        <time>2019-04-24T15:14:01.000Z</time>
      </trkpt>
      <trkpt lat="38.56982591561973094940185546875" lon="-7.79537019319832324981689453125">
        <ele>206</ele>
        <time>2019-04-24T15:14:12.000Z</time>
      </trkpt>
      <trkpt lat="38.570175357162952423095703125" lon="-7.79509493149816989898681640625">
        <ele>204</ele>
        <time>2019-04-24T15:14:32.000Z</time>
      </trkpt>
      <trkpt lat="38.57018482871353626251220703125" lon="-7.79507548548281192779541015625">
        <ele>204</ele>
        <time>2019-04-24T15:14:35.000Z</time>
      </trkpt>
      <trkpt lat="38.5702098906040191650390625" lon="-7.7950175665318965911865234375">
        <ele>204.1999969482421875</ele>
        <time>2019-04-24T15:14:59.000Z</time>
      </trkpt>
      <trkpt lat="38.570478446781635284423828125" lon="-7.79441365040838718414306640625">
        <ele>207</ele>
        <time>2019-04-24T15:15:17.000Z</time>
      </trkpt>
      <trkpt lat="38.57063912786543369293212890625" lon="-7.79389095492660999298095703125">
        <ele>208.1999969482421875</ele>
        <time>2019-04-24T15:15:37.000Z</time>
      </trkpt>
      <trkpt lat="38.57080542482435703277587890625" lon="-7.7933653257787227630615234375">
        <ele>209.600006103515625</ele>
        <time>2019-04-24T15:15:51.000Z</time>
      </trkpt>
      <trkpt lat="38.5708678700029850006103515625" lon="-7.793203890323638916015625">
        <ele>210</ele>
        <time>2019-04-24T15:15:57.000Z</time>
      </trkpt>
      <trkpt lat="38.5711588896811008453369140625" lon="-7.79261581599712371826171875">
        <ele>212.399993896484375</ele>
        <time>2019-04-24T15:16:17.000Z</time>
      </trkpt>
      <trkpt lat="38.571434319019317626953125" lon="-7.79201223514974117279052734375">
        <ele>215.1999969482421875</ele>
        <time>2019-04-24T15:16:39.000Z</time>
      </trkpt>
      <trkpt lat="38.5717030428349971771240234375" lon="-7.79138342477381229400634765625">
        <ele>217.600006103515625</ele>
        <time>2019-04-24T15:17:04.000Z</time>
      </trkpt>
      <trkpt lat="38.5719933919608592987060546875" lon="-7.79079568572342395782470703125">
        <ele>219.399993896484375</ele>
        <time>2019-04-24T15:17:19.000Z</time>
      </trkpt>
      <trkpt lat="38.57228047214448451995849609375" lon="-7.7902060188353061676025390625">
        <ele>220.600006103515625</ele>
        <time>2019-04-24T15:17:34.000Z</time>
      </trkpt>
      <trkpt lat="38.57255154289305210113525390625" lon="-7.7896001748740673065185546875">
        <ele>222</ele>
        <time>2019-04-24T15:17:53.000Z</time>
      </trkpt>
      <trkpt lat="38.57281029224395751953125" lon="-7.7890236675739288330078125">
        <ele>223.600006103515625</ele>
        <time>2019-04-24T15:18:11.000Z</time>
      </trkpt>
      <trkpt lat="38.5729438997805118560791015625" lon="-7.78884588740766048431396484375">
        <ele>224.1999969482421875</ele>
        <time>2019-04-24T15:18:15.000Z</time>
      </trkpt>
      <trkpt lat="38.573243804275989532470703125" lon="-7.7882560528814792633056640625">
        <ele>225.399993896484375</ele>
        <time>2019-04-24T15:18:36.000Z</time>
      </trkpt>
      <trkpt lat="38.5734575428068637847900390625" lon="-7.7876139990985393524169921875">
        <ele>226.600006103515625</ele>
        <time>2019-04-24T15:18:54.000Z</time>
      </trkpt>
      <trkpt lat="38.57376373372972011566162109375" lon="-7.78698912821710109710693359375">
        <ele>225</ele>
        <time>2019-04-24T15:19:07.000Z</time>
      </trkpt>
      <trkpt lat="38.57391846366226673126220703125" lon="-7.78670632280409336090087890625">
        <ele>224</ele>
        <time>2019-04-24T15:19:11.000Z</time>
      </trkpt>
      <trkpt lat="38.57410906814038753509521484375" lon="-7.7863265387713909149169921875">
        <ele>225.399993896484375</ele>
        <time>2019-04-24T15:19:16.000Z</time>
      </trkpt>
      <trkpt lat="38.57416723854839801788330078125" lon="-7.7862259559333324432373046875">
        <ele>225.8000030517578125</ele>
        <time>2019-04-24T15:19:18.000Z</time>
      </trkpt>
      <trkpt lat="38.5743661411106586456298828125" lon="-7.78586863540112972259521484375">
        <ele>227</ele>
        <time>2019-04-24T15:19:32.000Z</time>
      </trkpt>
      <trkpt lat="38.57462556101381778717041015625" lon="-7.78523764573037624359130859375">
        <ele>230</ele>
        <time>2019-04-24T15:19:55.000Z</time>
      </trkpt>
      <trkpt lat="38.5747081227600574493408203125" lon="-7.78505877591669559478759765625">
        <ele>231</ele>
        <time>2019-04-24T15:20:00.000Z</time>
      </trkpt>
      <trkpt lat="38.57475916855037212371826171875" lon="-7.78496389277279376983642578125">
        <ele>230.8000030517578125</ele>
        <time>2019-04-24T15:20:02.000Z</time>
      </trkpt>
      <trkpt lat="38.57482387684285640716552734375" lon="-7.78486180119216442108154296875">
        <ele>230.600006103515625</ele>
        <time>2019-04-24T15:20:04.000Z</time>
      </trkpt>
      <trkpt lat="38.575028143823146820068359375" lon="-7.7844389341771602630615234375">
        <ele>229.600006103515625</ele>
        <time>2019-04-24T15:20:11.000Z</time>
      </trkpt>
      <trkpt lat="38.57527297921478748321533203125" lon="-7.78387323953211307525634765625">
        <ele>227.8000030517578125</ele>
        <time>2019-04-24T15:20:23.000Z</time>
      </trkpt>
      <trkpt lat="38.57553617097437381744384765625" lon="-7.78326957486569881439208984375">
        <ele>225.399993896484375</ele>
        <time>2019-04-24T15:20:33.000Z</time>
      </trkpt>
      <trkpt lat="38.57559668831527233123779296875" lon="-7.783127836883068084716796875">
        <ele>224.8000030517578125</ele>
        <time>2019-04-24T15:20:35.000Z</time>
      </trkpt>
      <trkpt lat="38.5758396796882152557373046875" lon="-7.7825053967535495758056640625">
        <ele>222.1999969482421875</ele>
        <time>2019-04-24T15:20:43.000Z</time>
      </trkpt>
      <trkpt lat="38.5759597085416316986083984375" lon="-7.7821510098874568939208984375">
        <ele>220.8000030517578125</ele>
        <time>2019-04-24T15:20:48.000Z</time>
      </trkpt>
      <trkpt lat="38.575904555618762969970703125" lon="-7.78184247203171253204345703125">
        <ele>219.8000030517578125</ele>
        <time>2019-04-24T15:20:52.000Z</time>
      </trkpt>
      <trkpt lat="38.57589525170624256134033203125" lon="-7.78177239932119846343994140625">
        <ele>219.600006103515625</ele>
        <time>2019-04-24T15:20:53.000Z</time>
      </trkpt>
      <trkpt lat="38.57590648345649242401123046875" lon="-7.7815599180757999420166015625">
        <ele>219.399993896484375</ele>
        <time>2019-04-24T15:20:56.000Z</time>
      </trkpt>
      <trkpt lat="38.57593749649822711944580078125" lon="-7.7814201079308986663818359375">
        <ele>219.1999969482421875</ele>
        <time>2019-04-24T15:20:58.000Z</time>
      </trkpt>
      <trkpt lat="38.57611519284546375274658203125" lon="-7.78120511211454868316650390625">
        <ele>218.8000030517578125</ele>
        <time>2019-04-24T15:21:04.000Z</time>
      </trkpt>
      <trkpt lat="38.57612189836800098419189453125" lon="-7.7812015078961849212646484375">
        <ele>218.8000030517578125</ele>
        <time>2019-04-24T15:21:06.000Z</time>
      </trkpt>
      <trkpt lat="38.5761407576501369476318359375" lon="-7.78118365444242954254150390625">
        <ele>218.600006103515625</ele>
        <time>2019-04-24T15:21:53.000Z</time>
      </trkpt>
      <trkpt lat="38.57630965299904346466064453125" lon="-7.78089280240237712860107421875">
        <ele>218.1999969482421875</ele>
        <time>2019-04-24T15:22:02.000Z</time>
      </trkpt>
      <trkpt lat="38.576349131762981414794921875" lon="-7.780732624232769012451171875">
        <ele>217.1999969482421875</ele>
        <time>2019-04-24T15:22:05.000Z</time>
      </trkpt>
      <trkpt lat="38.57631862163543701171875" lon="-7.78047018684446811676025390625">
        <ele>215.600006103515625</ele>
        <time>2019-04-24T15:22:10.000Z</time>
      </trkpt>
      <trkpt lat="38.57626791112124919891357421875" lon="-7.77977298013865947723388671875">
        <ele>213</ele>
        <time>2019-04-24T15:22:26.000Z</time>
      </trkpt>
      <trkpt lat="38.57618476264178752899169921875" lon="-7.7796119637787342071533203125">
        <ele>212</ele>
        <time>2019-04-24T15:22:32.000Z</time>
      </trkpt>
      <trkpt lat="38.5762207210063934326171875" lon="-7.77940451167523860931396484375">
        <ele>210.1999969482421875</ele>
        <time>2019-04-24T15:22:36.000Z</time>
      </trkpt>
      <trkpt lat="38.57626774348318576812744140625" lon="-7.77898055501282215118408203125">
        <ele>209.8000030517578125</ele>
        <time>2019-04-24T15:22:46.000Z</time>
      </trkpt>
      <trkpt lat="38.57635206542909145355224609375" lon="-7.7789018489420413970947265625">
        <ele>210</ele>
        <time>2019-04-24T15:22:50.000Z</time>
      </trkpt>
      <trkpt lat="38.57678507454693317413330078125" lon="-7.778494320809841156005859375">
        <ele>211.399993896484375</ele>
        <time>2019-04-24T15:23:10.000Z</time>
      </trkpt>
      <trkpt lat="38.57716687023639678955078125" lon="-7.77797774411737918853759765625">
        <ele>215.8000030517578125</ele>
        <time>2019-04-24T15:23:33.000Z</time>
      </trkpt>
      <trkpt lat="38.577497117221355438232421875" lon="-7.77743627317249774932861328125">
        <ele>220</ele>
        <time>2019-04-24T15:23:59.000Z</time>
      </trkpt>
      <trkpt lat="38.5775231011211872100830078125" lon="-7.7774043381214141845703125">
        <ele>220.1999969482421875</ele>
        <time>2019-04-24T15:24:03.000Z</time>
      </trkpt>
      <trkpt lat="38.5775117017328739166259765625" lon="-7.77734708972275257110595703125">
        <ele>220.1999969482421875</ele>
        <time>2019-04-24T15:25:46.000Z</time>
      </trkpt>
      <trkpt lat="38.5777031444013118743896484375" lon="-7.77667586691677570343017578125">
        <ele>222</ele>
        <time>2019-04-24T15:26:10.000Z</time>
      </trkpt>
      <trkpt lat="38.5779507458209991455078125" lon="-7.7760074101388454437255859375">
        <ele>222.600006103515625</ele>
        <time>2019-04-24T15:26:26.000Z</time>
      </trkpt>
      <trkpt lat="38.578272275626659393310546875" lon="-7.775432579219341278076171875">
        <ele>224</ele>
        <time>2019-04-24T15:26:41.000Z</time>
      </trkpt>
      <trkpt lat="38.57866211794316768646240234375" lon="-7.77492723427712917327880859375">
        <ele>225.399993896484375</ele>
        <time>2019-04-24T15:26:59.000Z</time>
      </trkpt>
      <trkpt lat="38.57911356724798679351806640625" lon="-7.77449489571154117584228515625">
        <ele>227</ele>
        <time>2019-04-24T15:27:13.000Z</time>
      </trkpt>
      <trkpt lat="38.57920492999255657196044921875" lon="-7.77437151409685611724853515625">
        <ele>227.399993896484375</ele>
        <time>2019-04-24T15:27:16.000Z</time>
      </trkpt>
      <trkpt lat="38.5792601667344570159912109375" lon="-7.77430932037532329559326171875">
        <ele>227.600006103515625</ele>
        <time>2019-04-24T15:27:18.000Z</time>
      </trkpt>
      <trkpt lat="38.57940358109772205352783203125" lon="-7.774287275969982147216796875">
        <ele>227.399993896484375</ele>
        <time>2019-04-24T15:27:22.000Z</time>
      </trkpt>
      <trkpt lat="38.579525537788867950439453125" lon="-7.77426757849752902984619140625">
        <ele>226.8000030517578125</ele>
        <time>2019-04-24T15:27:25.000Z</time>
      </trkpt>
      <trkpt lat="38.58007497154176235198974609375" lon="-7.7741043828427791595458984375">
        <ele>223.8000030517578125</ele>
        <time>2019-04-24T15:27:33.000Z</time>
      </trkpt>
      <trkpt lat="38.5805405862629413604736328125" lon="-7.77389709837734699249267578125">
        <ele>220.399993896484375</ele>
        <time>2019-04-24T15:27:39.000Z</time>
      </trkpt>
      <trkpt lat="38.58068483881652355194091796875" lon="-7.77376667596399784088134765625">
        <ele>219.399993896484375</ele>
        <time>2019-04-24T15:27:42.000Z</time>
      </trkpt>
      <trkpt lat="38.58078793622553348541259765625" lon="-7.7735660970211029052734375">
        <ele>218.8000030517578125</ele>
        <time>2019-04-24T15:27:46.000Z</time>
      </trkpt>
      <trkpt lat="38.580812998116016387939453125" lon="-7.77351505123078823089599609375">
        <ele>218.600006103515625</ele>
        <time>2019-04-24T15:27:47.000Z</time>
      </trkpt>
      <trkpt lat="38.58099312521517276763916015625" lon="-7.77317575179040431976318359375">
        <ele>218</ele>
        <time>2019-04-24T15:27:54.000Z</time>
      </trkpt>
      <trkpt lat="38.5813298262655735015869140625" lon="-7.77300073765218257904052734375">
        <ele>217.600006103515625</ele>
        <time>2019-04-24T15:28:05.000Z</time>
      </trkpt>
      <trkpt lat="38.58176291920244693756103515625" lon="-7.77268742211163043975830078125">
        <ele>218.1999969482421875</ele>
        <time>2019-04-24T15:28:20.000Z</time>
      </trkpt>
      <trkpt lat="38.58201655559241771697998046875" lon="-7.77206079103052616119384765625">
        <ele>218.8000030517578125</ele>
        <time>2019-04-24T15:28:40.000Z</time>
      </trkpt>
      <trkpt lat="38.58234822750091552734375" lon="-7.77150406502187252044677734375">
        <ele>220</ele>
        <time>2019-04-24T15:28:56.000Z</time>
      </trkpt>
      <trkpt lat="38.5828197933733463287353515625" lon="-7.7711237780749797821044921875">
        <ele>221.1999969482421875</ele>
        <time>2019-04-24T15:29:16.000Z</time>
      </trkpt>
      <trkpt lat="38.582962118089199066162109375" lon="-7.7710335887968540191650390625">
        <ele>221.8000030517578125</ele>
        <time>2019-04-24T15:29:21.000Z</time>
      </trkpt>
      <trkpt lat="38.58342169784009456634521484375" lon="-7.770666293799877166748046875">
        <ele>223.399993896484375</ele>
        <time>2019-04-24T15:29:38.000Z</time>
      </trkpt>
      <trkpt lat="38.58390885405242443084716796875" lon="-7.7702912874519824981689453125">
        <ele>223.8000030517578125</ele>
        <time>2019-04-24T15:29:55.000Z</time>
      </trkpt>
      <trkpt lat="38.58440774492919445037841796875" lon="-7.7699778042733669281005859375">
        <ele>224.1999969482421875</ele>
        <time>2019-04-24T15:30:12.000Z</time>
      </trkpt>
      <trkpt lat="38.5849404148757457733154296875" lon="-7.769794575870037078857421875">
        <ele>226.600006103515625</ele>
        <time>2019-04-24T15:30:37.000Z</time>
      </trkpt>
      <trkpt lat="38.58546830713748931884765625" lon="-7.7696442045271396636962890625">
        <ele>230.1999969482421875</ele>
        <time>2019-04-24T15:31:06.000Z</time>
      </trkpt>
      <trkpt lat="38.5859710536897182464599609375" lon="-7.7693904004991054534912109375">
        <ele>234.600006103515625</ele>
        <time>2019-04-24T15:31:32.000Z</time>
      </trkpt>
      <trkpt lat="38.58624472282826900482177734375" lon="-7.76948922313749790191650390625">
        <ele>235.8000030517578125</ele>
        <time>2019-04-24T15:31:48.000Z</time>
      </trkpt>
      <trkpt lat="38.586192838847637176513671875" lon="-7.76945435442030429840087890625">
        <ele>235.600006103515625</ele>
        <time>2019-04-24T15:31:52.000Z</time>
      </trkpt>
      <trkpt lat="38.58605730347335338592529296875" lon="-7.76932678185403347015380859375">
        <ele>235.1999969482421875</ele>
        <time>2019-04-24T15:31:59.000Z</time>
      </trkpt>
      <trkpt lat="38.5865463875234127044677734375" lon="-7.769026793539524078369140625">
        <ele>235.399993896484375</ele>
        <time>2019-04-24T15:32:16.000Z</time>
      </trkpt>
      <trkpt lat="38.58664152212440967559814453125" lon="-7.76898044161498546600341796875">
        <ele>235.399993896484375</ele>
        <time>2019-04-24T15:32:18.000Z</time>
      </trkpt>
      <trkpt lat="38.58679331839084625244140625" lon="-7.7688921801745891571044921875">
        <ele>235.1999969482421875</ele>
        <time>2019-04-24T15:32:21.000Z</time>
      </trkpt>
      <trkpt lat="38.58709515072405338287353515625" lon="-7.76876720599830150604248046875">
        <ele>234.1999969482421875</ele>
        <time>2019-04-24T15:32:26.000Z</time>
      </trkpt>
      <trkpt lat="38.58760460279881954193115234375" lon="-7.7685193531215190887451171875">
        <ele>231.8000030517578125</ele>
        <time>2019-04-24T15:32:37.000Z</time>
      </trkpt>
      <trkpt lat="38.58769747428596019744873046875" lon="-7.76844735257327556610107421875">
        <ele>231.399993896484375</ele>
        <time>2019-04-24T15:32:42.000Z</time>
      </trkpt>
      <trkpt lat="38.5877808742225170135498046875" lon="-7.7683921158313751220703125">
        <ele>231.8000030517578125</ele>
        <time>2019-04-24T15:32:46.000Z</time>
      </trkpt>
      <trkpt lat="38.5881852172315120697021484375" lon="-7.767911665141582489013671875">
        <ele>235.1999969482421875</ele>
        <time>2019-04-24T15:33:12.000Z</time>
      </trkpt>
      <trkpt lat="38.5882864706218242645263671875" lon="-7.76781083084642887115478515625">
        <ele>236</ele>
        <time>2019-04-24T15:33:19.000Z</time>
      </trkpt>
      <trkpt lat="38.58835143037140369415283203125" lon="-7.767709158360958099365234375">
        <ele>236.600006103515625</ele>
        <time>2019-04-24T15:33:24.000Z</time>
      </trkpt>
      <trkpt lat="38.58845897018909454345703125" lon="-7.76759348809719085693359375">
        <ele>237.600006103515625</ele>
        <time>2019-04-24T15:33:33.000Z</time>
      </trkpt>
      <trkpt lat="38.5884809307754039764404296875" lon="-7.767586447298526763916015625">
        <ele>237.8000030517578125</ele>
        <time>2019-04-24T15:34:47.000Z</time>
      </trkpt>
      <trkpt lat="38.58904310502111911773681640625" lon="-7.76750992052257061004638671875">
        <ele>239.8000030517578125</ele>
        <time>2019-04-24T15:35:08.000Z</time>
      </trkpt>
      <trkpt lat="38.5893930494785308837890625" lon="-7.76746465824544429779052734375">
        <ele>240.8000030517578125</ele>
        <time>2019-04-24T15:35:17.000Z</time>
      </trkpt>
      <trkpt lat="38.589589186012744903564453125" lon="-7.76743314228951930999755859375">
        <ele>240.8000030517578125</ele>
        <time>2019-04-24T15:35:21.000Z</time>
      </trkpt>
      <trkpt lat="38.58979546464979648590087890625" lon="-7.7674132771790027618408203125">
        <ele>241</ele>
        <time>2019-04-24T15:35:29.000Z</time>
      </trkpt>
      <trkpt lat="38.5903537832200527191162109375" lon="-7.7673717029392719268798828125">
        <ele>242</ele>
        <time>2019-04-24T15:35:51.000Z</time>
      </trkpt>
      <trkpt lat="38.5909200645983219146728515625" lon="-7.76730322279036045074462890625">
        <ele>243.8000030517578125</ele>
        <time>2019-04-24T15:36:11.000Z</time>
      </trkpt>
      <trkpt lat="38.5914018563926219940185546875" lon="-7.76729643344879150390625">
        <ele>244.8000030517578125</ele>
        <time>2019-04-24T15:36:29.000Z</time>
      </trkpt>
      <trkpt lat="38.59195011667907238006591796875" lon="-7.7672060765326023101806640625">
        <ele>245</ele>
        <time>2019-04-24T15:36:53.000Z</time>
      </trkpt>
      <trkpt lat="38.59248639084398746490478515625" lon="-7.7671259455382823944091796875">
        <ele>247.1999969482421875</ele>
        <time>2019-04-24T15:37:19.000Z</time>
      </trkpt>
      <trkpt lat="38.59253458678722381591796875" lon="-7.7671152167022228240966796875">
        <ele>247.399993896484375</ele>
        <time>2019-04-24T15:37:21.000Z</time>
      </trkpt>
      <trkpt lat="38.592621423304080963134765625" lon="-7.76694414205849170684814453125">
        <ele>247.8000030517578125</ele>
        <time>2019-04-24T15:37:27.000Z</time>
      </trkpt>
      <trkpt lat="38.5928727127611637115478515625" lon="-7.766324467957019805908203125">
        <ele>248</ele>
        <time>2019-04-24T15:37:49.000Z</time>
      </trkpt>
      <trkpt lat="38.5931110940873622894287109375" lon="-7.76567302644252777099609375">
        <ele>248.399993896484375</ele>
        <time>2019-04-24T15:38:08.000Z</time>
      </trkpt>
      <trkpt lat="38.5933105833828449249267578125" lon="-7.7650190703570842742919921875">
        <ele>249.8000030517578125</ele>
        <time>2019-04-24T15:38:31.000Z</time>
      </trkpt>
      <trkpt lat="38.5933358967304229736328125" lon="-7.764332257211208343505859375">
        <ele>251.8000030517578125</ele>
        <time>2019-04-24T15:38:54.000Z</time>
      </trkpt>
      <trkpt lat="38.59327219426631927490234375" lon="-7.76364929974079132080078125">
        <ele>252.8000030517578125</ele>
        <time>2019-04-24T15:39:16.000Z</time>
      </trkpt>
      <trkpt lat="38.59325266443192958831787109375" lon="-7.76356539689004421234130859375">
        <ele>253</ele>
        <time>2019-04-24T15:39:20.000Z</time>
      </trkpt>
      <trkpt lat="38.59322567470371723175048828125" lon="-7.7635197155177593231201171875">
        <ele>253.399993896484375</ele>
        <time>2019-04-24T15:39:25.000Z</time>
      </trkpt>
      <trkpt lat="38.5932527482509613037109375" lon="-7.76329499669373035430908203125">
        <ele>254</ele>
        <time>2019-04-24T15:39:44.000Z</time>
      </trkpt>
      <trkpt lat="38.59324830584228038787841796875" lon="-7.76325459592044353485107421875">
        <ele>254.1999969482421875</ele>
        <time>2019-04-24T15:39:47.000Z</time>
      </trkpt>
      <trkpt lat="38.59335157088935375213623046875" lon="-7.762677334249019622802734375">
        <ele>254.8000030517578125</ele>
        <time>2019-04-24T15:40:09.000Z</time>
      </trkpt>
      <trkpt lat="38.5934128426015377044677734375" lon="-7.76259242556989192962646484375">
        <ele>255</ele>
        <time>2019-04-24T15:40:14.000Z</time>
      </trkpt>
      <trkpt lat="38.59372909180819988250732421875" lon="-7.76202228851616382598876953125">
        <ele>254.8000030517578125</ele>
        <time>2019-04-24T15:40:34.000Z</time>
      </trkpt>
      <trkpt lat="38.5940438322722911834716796875" lon="-7.76142700575292110443115234375">
        <ele>254.399993896484375</ele>
        <time>2019-04-24T15:40:54.000Z</time>
      </trkpt>
      <trkpt lat="38.594352118670940399169921875" lon="-7.76082535274326801300048828125">
        <ele>254</ele>
        <time>2019-04-24T15:41:14.000Z</time>
      </trkpt>
      <trkpt lat="38.59456594102084636688232421875" lon="-7.76015412993729114532470703125">
        <ele>254.1999969482421875</ele>
        <time>2019-04-24T15:41:30.000Z</time>
      </trkpt>
      <trkpt lat="38.5945400409400463104248046875" lon="-7.7594561688601970672607421875">
        <ele>255.8000030517578125</ele>
        <time>2019-04-24T15:41:48.000Z</time>
      </trkpt>
      <trkpt lat="38.5945417173206806182861328125" lon="-7.75875829160213470458984375">
        <ele>256.600006103515625</ele>
        <time>2019-04-24T15:42:05.000Z</time>
      </trkpt>
      <trkpt lat="38.59484195709228515625" lon="-7.7582870610058307647705078125">
        <ele>257.600006103515625</ele>
        <time>2019-04-24T15:42:22.000Z</time>
      </trkpt>
      <trkpt lat="38.5953561030328273773193359375" lon="-7.757996208965778350830078125">
        <ele>258.20001220703125</ele>
        <time>2019-04-24T15:42:37.000Z</time>
      </trkpt>
      <trkpt lat="38.59547319822013378143310546875" lon="-7.75794885121285915374755859375">
        <ele>257.79998779296875</ele>
        <time>2019-04-24T15:42:40.000Z</time>
      </trkpt>
      <trkpt lat="38.59585524536669254302978515625" lon="-7.75772974826395511627197265625">
        <ele>256.600006103515625</ele>
        <time>2019-04-24T15:42:49.000Z</time>
      </trkpt>
      <trkpt lat="38.596361093223094940185546875" lon="-7.7574606053531169891357421875">
        <ele>255.399993896484375</ele>
        <time>2019-04-24T15:42:59.000Z</time>
      </trkpt>
      <trkpt lat="38.59646058641374111175537109375" lon="-7.7573979087173938751220703125">
        <ele>255.1999969482421875</ele>
        <time>2019-04-24T15:43:01.000Z</time>
      </trkpt>
      <trkpt lat="38.59685017727315425872802734375" lon="-7.7571689151227474212646484375">
        <ele>254.1999969482421875</ele>
        <time>2019-04-24T15:43:10.000Z</time>
      </trkpt>
      <trkpt lat="38.597382344305515289306640625" lon="-7.7568752132356166839599609375">
        <ele>252.8000030517578125</ele>
        <time>2019-04-24T15:43:24.000Z</time>
      </trkpt>
      <trkpt lat="38.59788198955357074737548828125" lon="-7.75658746249973773956298828125">
        <ele>252</ele>
        <time>2019-04-24T15:43:35.000Z</time>
      </trkpt>
      <trkpt lat="38.59792641364037990570068359375" lon="-7.75656349025666713714599609375">
        <ele>252</ele>
        <time>2019-04-24T15:43:36.000Z</time>
      </trkpt>
      <trkpt lat="38.59825314022600650787353515625" lon="-7.75637422688305377960205078125">
        <ele>251.8000030517578125</ele>
        <time>2019-04-24T15:43:44.000Z</time>
      </trkpt>
      <trkpt lat="38.59840552322566509246826171875" lon="-7.75630180723965167999267578125">
        <ele>251.8000030517578125</ele>
        <time>2019-04-24T15:43:48.000Z</time>
      </trkpt>
      <trkpt lat="38.59874029643833637237548828125" lon="-7.75611271150410175323486328125">
        <ele>251.399993896484375</ele>
        <time>2019-04-24T15:43:56.000Z</time>
      </trkpt>
      <trkpt lat="38.59883434139192104339599609375" lon="-7.75607096962630748748779296875">
        <ele>251</ele>
        <time>2019-04-24T15:43:58.000Z</time>
      </trkpt>
      <trkpt lat="38.59900332055985927581787109375" lon="-7.755979187786579132080078125">
        <ele>250.600006103515625</ele>
        <time>2019-04-24T15:44:02.000Z</time>
      </trkpt>
      <trkpt lat="38.5995001159608364105224609375" lon="-7.75569411925971508026123046875">
        <ele>250.1999969482421875</ele>
        <time>2019-04-24T15:44:14.000Z</time>
      </trkpt>
      <trkpt lat="38.5995835997164249420166015625" lon="-7.75564533658325672149658203125">
        <ele>250.1999969482421875</ele>
        <time>2019-04-24T15:44:16.000Z</time>
      </trkpt>
      <trkpt lat="38.5998561792075634002685546875" lon="-7.75550074875354766845703125">
        <ele>250.600006103515625</ele>
        <time>2019-04-24T15:44:23.000Z</time>
      </trkpt>
      <trkpt lat="38.6001098155975341796875" lon="-7.7553386427462100982666015625">
        <ele>251</ele>
        <time>2019-04-24T15:44:30.000Z</time>
      </trkpt>
      <trkpt lat="38.6001938022673130035400390625" lon="-7.75530000217258930206298828125">
        <ele>251</ele>
        <time>2019-04-24T15:44:32.000Z</time>
      </trkpt>
      <trkpt lat="38.6007067747414112091064453125" lon="-7.75502197444438934326171875">
        <ele>251.600006103515625</ele>
        <time>2019-04-24T15:44:44.000Z</time>
      </trkpt>
      <trkpt lat="38.601213209331035614013671875" lon="-7.754740007221698760986328125">
        <ele>252.1999969482421875</ele>
        <time>2019-04-24T15:44:56.000Z</time>
      </trkpt>
      <trkpt lat="38.60166541300714015960693359375" lon="-7.7544461376965045928955078125">
        <ele>252.8000030517578125</ele>
        <time>2019-04-24T15:45:10.000Z</time>
      </trkpt>
      <trkpt lat="38.60159802250564098358154296875" lon="-7.75390089489519596099853515625">
        <ele>252.399993896484375</ele>
        <time>2019-04-24T15:45:22.000Z</time>
      </trkpt>
      <trkpt lat="38.6016800813376903533935546875" lon="-7.753730155527591705322265625">
        <ele>252.1999969482421875</ele>
        <time>2019-04-24T15:45:27.000Z</time>
      </trkpt>
      <trkpt lat="38.601700030267238616943359375" lon="-7.75368782691657543182373046875">
        <ele>252.1999969482421875</ele>
        <time>2019-04-24T15:45:29.000Z</time>
      </trkpt>
      <trkpt lat="38.60179047100245952606201171875" lon="-7.75367818772792816162109375">
        <ele>252.1999969482421875</ele>
        <time>2019-04-24T15:45:33.000Z</time>
      </trkpt>
      <trkpt lat="38.6023388989269733428955078125" lon="-7.753673493862152099609375">
        <ele>252.399993896484375</ele>
        <time>2019-04-24T15:45:53.000Z</time>
      </trkpt>
      <trkpt lat="38.60286712646484375" lon="-7.75365631096065044403076171875">
        <ele>251.8000030517578125</ele>
        <time>2019-04-24T15:46:11.000Z</time>
      </trkpt>
      <trkpt lat="38.60342125408351421356201171875" lon="-7.75362412445247173309326171875">
        <ele>251.399993896484375</ele>
        <time>2019-04-24T15:46:24.000Z</time>
      </trkpt>
      <trkpt lat="38.60365812666714191436767578125" lon="-7.7536104619503021240234375">
        <ele>251.399993896484375</ele>
        <time>2019-04-24T15:46:29.000Z</time>
      </trkpt>
      <trkpt lat="38.60421359539031982421875" lon="-7.75357265956699848175048828125">
        <ele>250.600006103515625</ele>
        <time>2019-04-24T15:46:45.000Z</time>
      </trkpt>
      <trkpt lat="38.60478314571082592010498046875" lon="-7.7535667084157466888427734375">
        <ele>250.1999969482421875</ele>
        <time>2019-04-24T15:47:01.000Z</time>
      </trkpt>
      <trkpt lat="38.60533031634986400604248046875" lon="-7.7535137347877025604248046875">
        <ele>249.600006103515625</ele>
        <time>2019-04-24T15:47:14.000Z</time>
      </trkpt>
      <trkpt lat="38.60558093525469303131103515625" lon="-7.75349034927785396575927734375">
        <ele>249.399993896484375</ele>
        <time>2019-04-24T15:47:20.000Z</time>
      </trkpt>
      <trkpt lat="38.60598376952111721038818359375" lon="-7.75342798791825771331787109375">
        <ele>249</ele>
        <time>2019-04-24T15:47:30.000Z</time>
      </trkpt>
      <trkpt lat="38.606477715075016021728515625" lon="-7.75336529128253459930419921875">
        <ele>249</ele>
        <time>2019-04-24T15:47:42.000Z</time>
      </trkpt>
      <trkpt lat="38.60692866146564483642578125" lon="-7.7533310092985630035400390625">
        <ele>249</ele>
        <time>2019-04-24T15:47:52.000Z</time>
      </trkpt>
      <trkpt lat="38.60747583210468292236328125" lon="-7.75337937287986278533935546875">
        <ele>249</ele>
        <time>2019-04-24T15:48:07.000Z</time>
      </trkpt>
      <trkpt lat="38.60771044157445430755615234375" lon="-7.75336160324513912200927734375">
        <ele>249</ele>
        <time>2019-04-24T15:48:14.000Z</time>
      </trkpt>
      <trkpt lat="38.6079406924545764923095703125" lon="-7.752905376255512237548828125">
        <ele>248.600006103515625</ele>
        <time>2019-04-24T15:48:26.000Z</time>
      </trkpt>
      <trkpt lat="38.6080050654709339141845703125" lon="-7.752595245838165283203125">
        <ele>248.600006103515625</ele>
        <time>2019-04-24T15:48:32.000Z</time>
      </trkpt>
      <trkpt lat="38.6081261001527309417724609375" lon="-7.75241277180612087249755859375">
        <ele>248.399993896484375</ele>
        <time>2019-04-24T15:48:37.000Z</time>
      </trkpt>
      <trkpt lat="38.608218133449554443359375" lon="-7.752318643033504486083984375">
        <ele>248</ele>
        <time>2019-04-24T15:48:40.000Z</time>
      </trkpt>
      <trkpt lat="38.6082893796265125274658203125" lon="-7.7522581256926059722900390625">
        <ele>248</ele>
        <time>2019-04-24T15:48:42.000Z</time>
      </trkpt>
      <trkpt lat="38.6086933873593807220458984375" lon="-7.75172688066959381103515625">
        <ele>246.8000030517578125</ele>
        <time>2019-04-24T15:48:55.000Z</time>
      </trkpt>
      <trkpt lat="38.609054982662200927734375" lon="-7.75116504170000553131103515625">
        <ele>247.600006103515625</ele>
        <time>2019-04-24T15:49:10.000Z</time>
      </trkpt>
      <trkpt lat="38.60944817773997783660888671875" lon="-7.75069984607398509979248046875">
        <ele>247.8000030517578125</ele>
        <time>2019-04-24T15:49:26.000Z</time>
      </trkpt>
      <trkpt lat="38.60985201783478260040283203125" lon="-7.750197015702724456787109375">
        <ele>247.1999969482421875</ele>
        <time>2019-04-24T15:49:46.000Z</time>
      </trkpt>
      <trkpt lat="38.61014622263610363006591796875" lon="-7.74984019808471202850341796875">
        <ele>246.8000030517578125</ele>
        <time>2019-04-24T15:49:58.000Z</time>
      </trkpt>
      <trkpt lat="38.6103084124624729156494140625" lon="-7.74975503794848918914794921875">
        <ele>246.399993896484375</ele>
        <time>2019-04-24T15:50:02.000Z</time>
      </trkpt>
      <trkpt lat="38.61085399053990840911865234375" lon="-7.74962025694549083709716796875">
        <ele>245.1999969482421875</ele>
        <time>2019-04-24T15:50:17.000Z</time>
      </trkpt>
      <trkpt lat="38.61141054891049861907958984375" lon="-7.74972687475383281707763671875">
        <ele>245.600006103515625</ele>
        <time>2019-04-24T15:50:33.000Z</time>
      </trkpt>
      <trkpt lat="38.6119504272937774658203125" lon="-7.7497274614870548248291015625">
        <ele>246</ele>
        <time>2019-04-24T15:50:49.000Z</time>
      </trkpt>
      <trkpt lat="38.61234999261796474456787109375" lon="-7.7499930001795291900634765625">
        <ele>247.8000030517578125</ele>
        <time>2019-04-24T15:51:11.000Z</time>
      </trkpt>
      <trkpt lat="38.61242325045168399810791015625" lon="-7.75031276978552341461181640625">
        <ele>248.399993896484375</ele>
        <time>2019-04-24T15:51:21.000Z</time>
      </trkpt>
      <trkpt lat="38.6125561036169528961181640625" lon="-7.75097946636378765106201171875">
        <ele>247.600006103515625</ele>
        <time>2019-04-24T15:51:41.000Z</time>
      </trkpt>
      <trkpt lat="38.61262910999357700347900390625" lon="-7.75136620737612247467041015625">
        <ele>246.8000030517578125</ele>
        <time>2019-04-24T15:51:49.000Z</time>
      </trkpt>
      <trkpt lat="38.612746708095073699951171875" lon="-7.7520784176886081695556640625">
        <ele>245.600006103515625</ele>
        <time>2019-04-24T15:52:04.000Z</time>
      </trkpt>
      <trkpt lat="38.613004870712757110595703125" lon="-7.75267931632697582244873046875">
        <ele>245.1999969482421875</ele>
        <time>2019-04-24T15:52:24.000Z</time>
      </trkpt>
      <trkpt lat="38.61334006302058696746826171875" lon="-7.75324174202978610992431640625">
        <ele>245.600006103515625</ele>
        <time>2019-04-24T15:52:42.000Z</time>
      </trkpt>
      <trkpt lat="38.6136625148355960845947265625" lon="-7.75384691543877124786376953125">
        <ele>245.8000030517578125</ele>
        <time>2019-04-24T15:52:58.000Z</time>
      </trkpt>
      <trkpt lat="38.61391983926296234130859375" lon="-7.7540260367095470428466796875">
        <ele>245.600006103515625</ele>
        <time>2019-04-24T15:53:09.000Z</time>
      </trkpt>
      <trkpt lat="38.61440288834273815155029296875" lon="-7.75371707975864410400390625">
        <ele>245</ele>
        <time>2019-04-24T15:53:25.000Z</time>
      </trkpt>
      <trkpt lat="38.61477806232869625091552734375" lon="-7.75357768870890140533447265625">
        <ele>245.600006103515625</ele>
        <time>2019-04-24T15:53:34.000Z</time>
      </trkpt>
      <trkpt lat="38.6153018474578857421875" lon="-7.7533424086868762969970703125">
        <ele>246</ele>
        <time>2019-04-24T15:53:45.000Z</time>
      </trkpt>
      <trkpt lat="38.6153509654104709625244140625" lon="-7.7533175982534885406494140625">
        <ele>246.1999969482421875</ele>
        <time>2019-04-24T15:53:46.000Z</time>
      </trkpt>
      <trkpt lat="38.615566380321979522705078125" lon="-7.75322028435766696929931640625">
        <ele>246.399993896484375</ele>
        <time>2019-04-24T15:53:51.000Z</time>
      </trkpt>
      <trkpt lat="38.61607742495834827423095703125" lon="-7.7529957331717014312744140625">
        <ele>247</ele>
        <time>2019-04-24T15:54:01.000Z</time>
      </trkpt>
      <trkpt lat="38.6164332367479801177978515625" lon="-7.75287696160376071929931640625">
        <ele>247.600006103515625</ele>
        <time>2019-04-24T15:54:09.000Z</time>
      </trkpt>
      <trkpt lat="38.6168105900287628173828125" lon="-7.75239835493266582489013671875">
        <ele>249.399993896484375</ele>
        <time>2019-04-24T15:54:26.000Z</time>
      </trkpt>
      <trkpt lat="38.61728626303374767303466796875" lon="-7.75201521813869476318359375">
        <ele>250.399993896484375</ele>
        <time>2019-04-24T15:54:43.000Z</time>
      </trkpt>
      <trkpt lat="38.61776403151452541351318359375" lon="-7.7516485936939716339111328125">
        <ele>251</ele>
        <time>2019-04-24T15:54:58.000Z</time>
      </trkpt>
      <trkpt lat="38.6182346753776073455810546875" lon="-7.7513072825968265533447265625">
        <ele>251.399993896484375</ele>
        <time>2019-04-24T15:55:12.000Z</time>
      </trkpt>
      <trkpt lat="38.6187121085822582244873046875" lon="-7.75097996927797794342041015625">
        <ele>251.8000030517578125</ele>
        <time>2019-04-24T15:55:25.000Z</time>
      </trkpt>
      <trkpt lat="38.6191898770630359649658203125" lon="-7.75065240450203418731689453125">
        <ele>251.8000030517578125</ele>
        <time>2019-04-24T15:55:37.000Z</time>
      </trkpt>
      <trkpt lat="38.61967644654214382171630859375" lon="-7.75032836012542247772216796875">
        <ele>252.1999969482421875</ele>
        <time>2019-04-24T15:55:50.000Z</time>
      </trkpt>
      <trkpt lat="38.6198362894356250762939453125" lon="-7.75018637068569660186767578125">
        <ele>252.399993896484375</ele>
        <time>2019-04-24T15:55:55.000Z</time>
      </trkpt>
      <trkpt lat="38.61994449980556964874267578125" lon="-7.75011244229972362518310546875">
        <ele>252.600006103515625</ele>
        <time>2019-04-24T15:55:58.000Z</time>
      </trkpt>
      <trkpt lat="38.6201392114162445068359375" lon="-7.7499702014029026031494140625">
        <ele>252.8000030517578125</ele>
        <time>2019-04-24T15:56:03.000Z</time>
      </trkpt>
      <trkpt lat="38.62054112367331981658935546875" lon="-7.74971379898488521575927734375">
        <ele>253</ele>
        <time>2019-04-24T15:56:13.000Z</time>
      </trkpt>
      <trkpt lat="38.6207311414182186126708984375" lon="-7.7495829574763774871826171875">
        <ele>252.8000030517578125</ele>
        <time>2019-04-24T15:56:18.000Z</time>
      </trkpt>
      <trkpt lat="38.621225170791149139404296875" lon="-7.7492513693869113922119140625">
        <ele>253.399993896484375</ele>
        <time>2019-04-24T15:56:32.000Z</time>
      </trkpt>
      <trkpt lat="38.62172909080982208251953125" lon="-7.74890712462365627288818359375">
        <ele>255.399993896484375</ele>
        <time>2019-04-24T15:56:47.000Z</time>
      </trkpt>
      <trkpt lat="38.62222689203917980194091796875" lon="-7.74858475662767887115478515625">
        <ele>257</ele>
        <time>2019-04-24T15:57:05.000Z</time>
      </trkpt>
      <trkpt lat="38.622730560600757598876953125" lon="-7.74825903587043285369873046875">
        <ele>257.79998779296875</ele>
        <time>2019-04-24T15:57:20.000Z</time>
      </trkpt>
      <trkpt lat="38.62326825968921184539794921875" lon="-7.74825484491884708404541015625">
        <ele>257.399993896484375</ele>
        <time>2019-04-24T15:57:36.000Z</time>
      </trkpt>
      <trkpt lat="38.62378609366714954376220703125" lon="-7.7485399134457111358642578125">
        <ele>257.79998779296875</ele>
        <time>2019-04-24T15:57:52.000Z</time>
      </trkpt>
      <trkpt lat="38.62431985326111316680908203125" lon="-7.74880821816623210906982421875">
        <ele>259</ele>
        <time>2019-04-24T15:58:08.000Z</time>
      </trkpt>
      <trkpt lat="38.62436410970985889434814453125" lon="-7.74882012046873569488525390625">
        <ele>259</ele>
        <time>2019-04-24T15:58:09.000Z</time>
      </trkpt>
      <trkpt lat="38.624676503241062164306640625" lon="-7.74894366972148418426513671875">
        <ele>259.79998779296875</ele>
        <time>2019-04-24T15:58:16.000Z</time>
      </trkpt>
      <trkpt lat="38.62520230002701282501220703125" lon="-7.74915841408073902130126953125">
        <ele>261</ele>
        <time>2019-04-24T15:58:28.000Z</time>
      </trkpt>
      <trkpt lat="38.62559004686772823333740234375" lon="-7.74931381456553936004638671875">
        <ele>260.399993896484375</ele>
        <time>2019-04-24T15:58:37.000Z</time>
      </trkpt>
      <trkpt lat="38.62567327916622161865234375" lon="-7.74935312569141387939453125">
        <ele>260.20001220703125</ele>
        <time>2019-04-24T15:58:39.000Z</time>
      </trkpt>
      <trkpt lat="38.62575709819793701171875" lon="-7.7493868209421634674072265625">
        <ele>260.20001220703125</ele>
        <time>2019-04-24T15:58:41.000Z</time>
      </trkpt>
      <trkpt lat="38.62583211623132228851318359375" lon="-7.74943334050476551055908203125">
        <ele>260</ele>
        <time>2019-04-24T15:58:43.000Z</time>
      </trkpt>
      <trkpt lat="38.6259676516056060791015625" lon="-7.74950223974883556365966796875">
        <ele>260.20001220703125</ele>
        <time>2019-04-24T15:58:47.000Z</time>
      </trkpt>
      <trkpt lat="38.62608910538256168365478515625" lon="-7.7495495975017547607421875">
        <ele>260.399993896484375</ele>
        <time>2019-04-24T15:58:54.000Z</time>
      </trkpt>
      <trkpt lat="38.62609916366636753082275390625" lon="-7.74955303408205509185791015625">
        <ele>260.600006103515625</ele>
        <time>2019-04-24T15:59:17.000Z</time>
      </trkpt>
      <trkpt lat="38.62661632709205150604248046875" lon="-7.74980952031910419464111328125">
        <ele>261.399993896484375</ele>
        <time>2019-04-24T15:59:35.000Z</time>
      </trkpt>
      <trkpt lat="38.6271536909043788909912109375" lon="-7.75007522664964199066162109375">
        <ele>261.600006103515625</ele>
        <time>2019-04-24T15:59:50.000Z</time>
      </trkpt>
      <trkpt lat="38.62765568308532238006591796875" lon="-7.75035920552909374237060546875">
        <ele>261</ele>
        <time>2019-04-24T16:00:02.000Z</time>
      </trkpt>
      <trkpt lat="38.6281843297183513641357421875" lon="-7.75070621632039546966552734375">
        <ele>260.399993896484375</ele>
        <time>2019-04-24T16:00:12.000Z</time>
      </trkpt>
      <trkpt lat="38.62850577570497989654541015625" lon="-7.7509575895965099334716796875">
        <ele>259.79998779296875</ele>
        <time>2019-04-24T16:00:18.000Z</time>
      </trkpt>
      <trkpt lat="38.62884373404085636138916015625" lon="-7.75112070143222808837890625">
        <ele>258.600006103515625</ele>
        <time>2019-04-24T16:00:25.000Z</time>
      </trkpt>
      <trkpt lat="38.628967702388763427734375" lon="-7.75122824124991893768310546875">
        <ele>258</ele>
        <time>2019-04-24T16:00:28.000Z</time>
      </trkpt>
      <trkpt lat="38.62910273484885692596435546875" lon="-7.7513186819851398468017578125">
        <ele>258</ele>
        <time>2019-04-24T16:00:31.000Z</time>
      </trkpt>
      <trkpt lat="38.62962861545383930206298828125" lon="-7.7516489289700984954833984375">
        <ele>258.20001220703125</ele>
        <time>2019-04-24T16:00:43.000Z</time>
      </trkpt>
      <trkpt lat="38.6299747042357921600341796875" lon="-7.75187683291733264923095703125">
        <ele>258.600006103515625</ele>
        <time>2019-04-24T16:00:51.000Z</time>
      </trkpt>
      <trkpt lat="38.630090542137622833251953125" lon="-7.751961238682270050048828125">
        <ele>258.79998779296875</ele>
        <time>2019-04-24T16:00:54.000Z</time>
      </trkpt>
      <trkpt lat="38.6302060447633266448974609375" lon="-7.75200943462550640106201171875">
        <ele>259</ele>
        <time>2019-04-24T16:00:57.000Z</time>
      </trkpt>
      <trkpt lat="38.63071256317198276519775390625" lon="-7.7523057349026203155517578125">
        <ele>259</ele>
        <time>2019-04-24T16:01:11.000Z</time>
      </trkpt>
      <trkpt lat="38.631006516516208648681640625" lon="-7.75256481952965259552001953125">
        <ele>259</ele>
        <time>2019-04-24T16:01:20.000Z</time>
      </trkpt>
      <trkpt lat="38.63110349513590335845947265625" lon="-7.752669341862201690673828125">
        <ele>258.79998779296875</ele>
        <time>2019-04-24T16:01:23.000Z</time>
      </trkpt>
      <trkpt lat="38.631355203688144683837890625" lon="-7.75288023054599761962890625">
        <ele>258.20001220703125</ele>
        <time>2019-04-24T16:01:30.000Z</time>
      </trkpt>
      <trkpt lat="38.63142661750316619873046875" lon="-7.7529430948197841644287109375">
        <ele>258</ele>
        <time>2019-04-24T16:01:32.000Z</time>
      </trkpt>
      <trkpt lat="38.6315310560166835784912109375" lon="-7.7530309371650218963623046875">
        <ele>258</ele>
        <time>2019-04-24T16:01:35.000Z</time>
      </trkpt>
      <trkpt lat="38.631691820919513702392578125" lon="-7.75322028435766696929931640625">
        <ele>258</ele>
        <time>2019-04-24T16:01:40.000Z</time>
      </trkpt>
      <trkpt lat="38.63171252422034740447998046875" lon="-7.75326537899672985076904296875">
        <ele>258</ele>
        <time>2019-04-24T16:01:41.000Z</time>
      </trkpt>
      <trkpt lat="38.63175342790782451629638671875" lon="-7.75335623882710933685302734375">
        <ele>258</ele>
        <time>2019-04-24T16:01:43.000Z</time>
      </trkpt>
      <trkpt lat="38.6318120174109935760498046875" lon="-7.75355488993227481842041015625">
        <ele>257.79998779296875</ele>
        <time>2019-04-24T16:01:47.000Z</time>
      </trkpt>
      <trkpt lat="38.63194839097559452056884765625" lon="-7.754072807729244232177734375">
        <ele>257</ele>
        <time>2019-04-24T16:01:57.000Z</time>
      </trkpt>
      <trkpt lat="38.63216229714453220367431640625" lon="-7.75465643964707851409912109375">
        <ele>255</ele>
        <time>2019-04-24T16:02:11.000Z</time>
      </trkpt>
      <trkpt lat="38.63226346671581268310546875" lon="-7.7546365745365619659423828125">
        <ele>255</ele>
        <time>2019-04-24T16:02:15.000Z</time>
      </trkpt>
      <trkpt lat="38.6327040195465087890625" lon="-7.7542386017739772796630859375">
        <ele>256</ele>
        <time>2019-04-24T16:02:31.000Z</time>
      </trkpt>
      <trkpt lat="38.63318790681660175323486328125" lon="-7.75386367924511432647705078125">
        <ele>257.20001220703125</ele>
        <time>2019-04-24T16:02:50.000Z</time>
      </trkpt>
      <trkpt lat="38.6335249431431293487548828125" lon="-7.75358305312693119049072265625">
        <ele>257.79998779296875</ele>
        <time>2019-04-24T16:02:58.000Z</time>
      </trkpt>
      <trkpt lat="38.63367992453277111053466796875" lon="-7.75346822105348110198974609375">
        <ele>258</ele>
        <time>2019-04-24T16:03:02.000Z</time>
      </trkpt>
      <trkpt lat="38.6337582953274250030517578125" lon="-7.7534245513379573822021484375">
        <ele>258</ele>
        <time>2019-04-24T16:03:04.000Z</time>
      </trkpt>
      <trkpt lat="38.6338960938155651092529296875" lon="-7.753315083682537078857421875">
        <ele>258.399993896484375</ele>
        <time>2019-04-24T16:03:08.000Z</time>
      </trkpt>
      <trkpt lat="38.63396759144961833953857421875" lon="-7.75326018221676349639892578125">
        <ele>258.79998779296875</ele>
        <time>2019-04-24T16:03:10.000Z</time>
      </trkpt>
      <trkpt lat="38.6340357363224029541015625" lon="-7.75320611894130706787109375">
        <ele>259.20001220703125</ele>
        <time>2019-04-24T16:03:12.000Z</time>
      </trkpt>
      <trkpt lat="38.63451182842254638671875" lon="-7.752870507538318634033203125">
        <ele>261</ele>
        <time>2019-04-24T16:03:29.000Z</time>
      </trkpt>
      <trkpt lat="38.63489337265491485595703125" lon="-7.75235175155103206634521484375">
        <ele>261.399993896484375</ele>
        <time>2019-04-24T16:03:48.000Z</time>
      </trkpt>
      <trkpt lat="38.63522973842918872833251953125" lon="-7.75172495283186435699462890625">
        <ele>261</ele>
        <time>2019-04-24T16:03:59.000Z</time>
      </trkpt>
      <trkpt lat="38.6355671100318431854248046875" lon="-7.751101590692996978759765625">
        <ele>261</ele>
        <time>2019-04-24T16:04:08.000Z</time>
      </trkpt>
      <trkpt lat="38.6358953453600406646728515625" lon="-7.75050119496881961822509765625">
        <ele>261</ele>
        <time>2019-04-24T16:04:16.000Z</time>
      </trkpt>
      <trkpt lat="38.6362235806882381439208984375" lon="-7.74984070099890232086181640625">
        <ele>260.600006103515625</ele>
        <time>2019-04-24T16:04:24.000Z</time>
      </trkpt>
      <trkpt lat="38.63651384599506855010986328125" lon="-7.74922094307839870452880859375">
        <ele>258.600006103515625</ele>
        <time>2019-04-24T16:04:31.000Z</time>
      </trkpt>
      <trkpt lat="38.63678340800106525421142578125" lon="-7.74862222373485565185546875">
        <ele>258.20001220703125</ele>
        <time>2019-04-24T16:04:38.000Z</time>
      </trkpt>
      <trkpt lat="38.637094460427761077880859375" lon="-7.7479670941829681396484375">
        <ele>257</ele>
        <time>2019-04-24T16:04:47.000Z</time>
      </trkpt>
      <trkpt lat="38.6374161578714847564697265625" lon="-7.74738145060837268829345703125">
        <ele>255.8000030517578125</ele>
        <time>2019-04-24T16:04:56.000Z</time>
      </trkpt>
      <trkpt lat="38.63776140846312046051025390625" lon="-7.7468417398631572723388671875">
        <ele>255.1999969482421875</ele>
        <time>2019-04-24T16:05:06.000Z</time>
      </trkpt>
      <trkpt lat="38.637833409011363983154296875" lon="-7.7467321045696735382080078125">
        <ele>255</ele>
        <time>2019-04-24T16:05:12.000Z</time>
      </trkpt>
      <trkpt lat="38.63783768378198146820068359375" lon="-7.74672632105648517608642578125">
        <ele>255</ele>
        <time>2019-04-24T16:05:41.000Z</time>
      </trkpt>
      <trkpt lat="38.63825040869414806365966796875" lon="-7.74625509046018123626708984375">
        <ele>256</ele>
        <time>2019-04-24T16:05:56.000Z</time>
      </trkpt>
      <trkpt lat="38.63835853524506092071533203125" lon="-7.7457453869283199310302734375">
        <ele>256.600006103515625</ele>
        <time>2019-04-24T16:06:04.000Z</time>
      </trkpt>
      <trkpt lat="38.63833255134522914886474609375" lon="-7.74543684907257556915283203125">
        <ele>256.600006103515625</ele>
        <time>2019-04-24T16:06:09.000Z</time>
      </trkpt>
      <trkpt lat="38.63843816332519054412841796875" lon="-7.74509855546057224273681640625">
        <ele>256.79998779296875</ele>
        <time>2019-04-24T16:06:14.000Z</time>
      </trkpt>
      <trkpt lat="38.6387143470346927642822265625" lon="-7.7444887720048427581787109375">
        <ele>257.20001220703125</ele>
        <time>2019-04-24T16:06:23.000Z</time>
      </trkpt>
      <trkpt lat="38.6389658041298389434814453125" lon="-7.74386188946664333343505859375">
        <ele>256.79998779296875</ele>
        <time>2019-04-24T16:06:31.000Z</time>
      </trkpt>
      <trkpt lat="38.63919152878224849700927734375" lon="-7.74320323951542377471923828125">
        <ele>255.399993896484375</ele>
        <time>2019-04-24T16:06:38.000Z</time>
      </trkpt>
      <trkpt lat="38.6394160799682140350341796875" lon="-7.7425438351929187774658203125">
        <ele>253.1999969482421875</ele>
        <time>2019-04-24T16:06:45.000Z</time>
      </trkpt>
      <trkpt lat="38.63967248238623142242431640625" lon="-7.74183933623135089874267578125">
        <ele>252</ele>
        <time>2019-04-24T16:06:53.000Z</time>
      </trkpt>
      <trkpt lat="38.63978027366101741790771484375" lon="-7.741540186107158660888671875">
        <ele>252</ele>
        <time>2019-04-24T16:06:57.000Z</time>
      </trkpt>
      <trkpt lat="38.63986476324498653411865234375" lon="-7.74126769043505191802978515625">
        <ele>252.1999969482421875</ele>
        <time>2019-04-24T16:07:01.000Z</time>
      </trkpt>
      <trkpt lat="38.6400852911174297332763671875" lon="-7.74065497331321239471435546875">
        <ele>252.1999969482421875</ele>
        <time>2019-04-24T16:07:12.000Z</time>
      </trkpt>
      <trkpt lat="38.64031068049371242523193359375" lon="-7.7400128357112407684326171875">
        <ele>252</ele>
        <time>2019-04-24T16:07:24.000Z</time>
      </trkpt>
      <trkpt lat="38.64049323834478855133056640625" lon="-7.73958628065884113311767578125">
        <ele>251</ele>
        <time>2019-04-24T16:07:31.000Z</time>
      </trkpt>
      <trkpt lat="38.64067059941589832305908203125" lon="-7.73919819854199886322021484375">
        <ele>250</ele>
        <time>2019-04-24T16:07:37.000Z</time>
      </trkpt>
      <trkpt lat="38.64079599268734455108642578125" lon="-7.73886359296739101409912109375">
        <ele>248.399993896484375</ele>
        <time>2019-04-24T16:07:41.000Z</time>
      </trkpt>
      <trkpt lat="38.6410840786993503570556640625" lon="-7.7382063679397106170654296875">
        <ele>245.399993896484375</ele>
        <time>2019-04-24T16:07:48.000Z</time>
      </trkpt>
      <trkpt lat="38.641379289329051971435546875" lon="-7.73754277266561985015869140625">
        <ele>242.600006103515625</ele>
        <time>2019-04-24T16:07:55.000Z</time>
      </trkpt>
      <trkpt lat="38.6416399665176868438720703125" lon="-7.73689853958785533905029296875">
        <ele>241.399993896484375</ele>
        <time>2019-04-24T16:08:02.000Z</time>
      </trkpt>
      <trkpt lat="38.64193056710064411163330078125" lon="-7.73623846471309661865234375">
        <ele>240.399993896484375</ele>
        <time>2019-04-24T16:08:10.000Z</time>
      </trkpt>
      <trkpt lat="38.642204068601131439208984375" lon="-7.7356257475912570953369140625">
        <ele>239.399993896484375</ele>
        <time>2019-04-24T16:08:18.000Z</time>
      </trkpt>
      <trkpt lat="38.64245317876338958740234375" lon="-7.7349857054650783538818359375">
        <ele>238.600006103515625</ele>
        <time>2019-04-24T16:08:26.000Z</time>
      </trkpt>
      <trkpt lat="38.6426779814064502716064453125" lon="-7.73432060144841670989990234375">
        <ele>238</ele>
        <time>2019-04-24T16:08:34.000Z</time>
      </trkpt>
      <trkpt lat="38.64269617013633251190185546875" lon="-7.73423242382705211639404296875">
        <ele>238</ele>
        <time>2019-04-24T16:08:35.000Z</time>
      </trkpt>
      <trkpt lat="38.6428965814411640167236328125" lon="-7.73353806696832180023193359375">
        <ele>237.1999969482421875</ele>
        <time>2019-04-24T16:08:43.000Z</time>
      </trkpt>
      <trkpt lat="38.643112666904926300048828125" lon="-7.732823677361011505126953125">
        <ele>235.8000030517578125</ele>
        <time>2019-04-24T16:08:51.000Z</time>
      </trkpt>
      <trkpt lat="38.64330871962010860443115234375" lon="-7.7321502752602100372314453125">
        <ele>236.1999969482421875</ele>
        <time>2019-04-24T16:08:59.000Z</time>
      </trkpt>
      <trkpt lat="38.64348406903445720672607421875" lon="-7.73149942047894001007080078125">
        <ele>237.8000030517578125</ele>
        <time>2019-04-24T16:09:08.000Z</time>
      </trkpt>
      <trkpt lat="38.64352849312126636505126953125" lon="-7.73077220655977725982666015625">
        <ele>239.8000030517578125</ele>
        <time>2019-04-24T16:09:23.000Z</time>
      </trkpt>
      <trkpt lat="38.64377073012292385101318359375" lon="-7.7301304042339324951171875">
        <ele>238</ele>
        <time>2019-04-24T16:09:38.000Z</time>
      </trkpt>
      <trkpt lat="38.6439966224133968353271484375" lon="-7.729915492236614227294921875">
        <ele>237</ele>
        <time>2019-04-24T16:09:45.000Z</time>
      </trkpt>
      <trkpt lat="38.644072227180004119873046875" lon="-7.72984835319221019744873046875">
        <ele>236.600006103515625</ele>
        <time>2019-04-24T16:09:47.000Z</time>
      </trkpt>
      <trkpt lat="38.6443890631198883056640625" lon="-7.72950435988605022430419921875">
        <ele>235</ele>
        <time>2019-04-24T16:09:56.000Z</time>
      </trkpt>
      <trkpt lat="38.64462979137897491455078125" lon="-7.72904788143932819366455078125">
        <ele>233.399993896484375</ele>
        <time>2019-04-24T16:10:07.000Z</time>
      </trkpt>
      <trkpt lat="38.64477940835058689117431640625" lon="-7.7288804948329925537109375">
        <ele>232.8000030517578125</ele>
        <time>2019-04-24T16:10:14.000Z</time>
      </trkpt>
      <trkpt lat="38.64464412443339824676513671875" lon="-7.728948891162872314453125">
        <ele>233</ele>
        <time>2019-04-24T16:10:23.000Z</time>
      </trkpt>
      <trkpt lat="38.64456198178231716156005859375" lon="-7.728899605572223663330078125">
        <ele>233</ele>
        <time>2019-04-24T16:10:28.000Z</time>
      </trkpt>
      <trkpt lat="38.64456248469650745391845703125" lon="-7.72889197804033756256103515625">
        <ele>232.8000030517578125</ele>
        <time>2019-04-24T16:10:30.000Z</time>
      </trkpt>
      <trkpt lat="38.644626438617706298828125" lon="-7.7289245836436748504638671875">
        <ele>233</ele>
        <time>2019-04-24T16:12:11.000Z</time>
      </trkpt>
      <trkpt lat="38.644783012568950653076171875" lon="-7.72864018566906452178955078125">
        <ele>232</ele>
        <time>2019-04-24T16:12:23.000Z</time>
      </trkpt>
      <trkpt lat="38.64484394900500774383544921875" lon="-7.72833935916423797607421875">
        <ele>230.8000030517578125</ele>
        <time>2019-04-24T16:12:33.000Z</time>
      </trkpt>
      <trkpt lat="38.64487479440867900848388671875" lon="-7.7282952703535556793212890625">
        <ele>230.600006103515625</ele>
        <time>2019-04-24T16:12:36.000Z</time>
      </trkpt>
      <trkpt lat="38.6448475532233715057373046875" lon="-7.72838990204036235809326171875">
        <ele>231</ele>
        <time>2019-04-24T16:12:41.000Z</time>
      </trkpt>
      <trkpt lat="38.6448056437075138092041015625" lon="-7.72843566723167896270751953125">
        <ele>231.1999969482421875</ele>
        <time>2019-04-24T16:12:44.000Z</time>
      </trkpt>
      <trkpt lat="38.6447791568934917449951171875" lon="-7.7284367568790912628173828125">
        <ele>231.1999969482421875</ele>
        <time>2019-04-24T16:12:48.000Z</time>
      </trkpt>
      <trkpt lat="38.6447913944721221923828125" lon="-7.72841370664536952972412109375">
        <ele>231.1999969482421875</ele>
        <time>2019-04-24T16:13:06.000Z</time>
      </trkpt>
      <trkpt lat="38.64483229815959930419921875" lon="-7.72831982932984828948974609375">
        <ele>230.8000030517578125</ele>
        <time>2019-04-24T16:13:10.000Z</time>
      </trkpt>
      <trkpt lat="38.64483674056828022003173828125" lon="-7.72829954512417316436767578125">
        <ele>230.600006103515625</ele>
        <time>2019-04-24T16:13:13.000Z</time>
      </trkpt>
      <trkpt lat="38.644877560436725616455078125" lon="-7.728298790752887725830078125">
        <ele>230.600006103515625</ele>
        <time>2019-04-24T16:13:42.000Z</time>
      </trkpt>
      <trkpt lat="38.644771277904510498046875" lon="-7.728963978588581085205078125">
        <ele>233.1999969482421875</ele>
        <time>2019-04-24T16:14:01.000Z</time>
      </trkpt>
      <trkpt lat="38.64443675614893436431884765625" lon="-7.72952363826334476470947265625">
        <ele>235.1999969482421875</ele>
        <time>2019-04-24T16:14:18.000Z</time>
      </trkpt>
      <trkpt lat="38.64415529184043407440185546875" lon="-7.729953713715076446533203125">
        <ele>237</ele>
        <time>2019-04-24T16:14:34.000Z</time>
      </trkpt>
      <trkpt lat="38.64416467957198619842529296875" lon="-7.72995530627667903900146484375">
        <ele>237</ele>
        <time>2019-04-24T16:14:37.000Z</time>
      </trkpt>
      <trkpt lat="38.64416576921939849853515625" lon="-7.72993259131908416748046875">
        <ele>236.8000030517578125</ele>
        <time>2019-04-24T16:14:47.000Z</time>
      </trkpt>
      <trkpt lat="38.6442125402390956878662109375" lon="-7.7299555577337741851806640625">
        <ele>236.8000030517578125</ele>
        <time>2019-04-24T16:14:53.000Z</time>
      </trkpt>
      <trkpt lat="38.64427431486546993255615234375" lon="-7.73005723021924495697021484375">
        <ele>237.1999969482421875</ele>
        <time>2019-04-24T16:15:54.000Z</time>
      </trkpt>
      <trkpt lat="38.64436291158199310302734375" lon="-7.7301268838346004486083984375">
        <ele>236.8000030517578125</ele>
        <time>2019-04-24T16:16:06.000Z</time>
      </trkpt>
      <trkpt lat="38.64416618831455707550048828125" lon="-7.7297963015735149383544921875">
        <ele>236.399993896484375</ele>
        <time>2019-04-25T07:42:03.000Z</time>
      </trkpt>
      <trkpt lat="38.6445602215826511383056640625" lon="-7.72927008569240570068359375">
        <ele>234.1999969482421875</ele>
        <time>2019-04-25T07:42:20.000Z</time>
      </trkpt>
      <trkpt lat="38.644675053656101226806640625" lon="-7.72911929525434970855712890625">
        <ele>233.600006103515625</ele>
        <time>2019-04-25T07:42:28.000Z</time>
      </trkpt>
      <trkpt lat="38.6446889676153659820556640625" lon="-7.729132287204265594482421875">
        <ele>233.8000030517578125</ele>
        <time>2019-04-25T07:42:32.000Z</time>
      </trkpt>
      <trkpt lat="38.6446279473602771759033203125" lon="-7.72907738573849201202392578125">
        <ele>233.600006103515625</ele>
        <time>2019-04-25T07:46:12.000Z</time>
      </trkpt>
      <trkpt lat="38.64481662400066852569580078125" lon="-7.72867195308208465576171875">
        <ele>232</ele>
        <time>2019-04-25T07:46:25.000Z</time>
      </trkpt>
      <trkpt lat="38.64491787739098072052001953125" lon="-7.7279945276677608489990234375">
        <ele>229.1999969482421875</ele>
        <time>2019-04-25T07:46:38.000Z</time>
      </trkpt>
      <trkpt lat="38.645131029188632965087890625" lon="-7.7272818982601165771484375">
        <ele>226.8000030517578125</ele>
        <time>2019-04-25T07:46:49.000Z</time>
      </trkpt>
      <trkpt lat="38.6453259922564029693603515625" lon="-7.72660237736999988555908203125">
        <ele>225.600006103515625</ele>
        <time>2019-04-25T07:46:59.000Z</time>
      </trkpt>
      <trkpt lat="38.645517267286777496337890625" lon="-7.72594540379941463470458984375">
        <ele>223.8000030517578125</ele>
        <time>2019-04-25T07:47:08.000Z</time>
      </trkpt>
      <trkpt lat="38.64572287537157535552978515625" lon="-7.72523227147758007049560546875">
        <ele>223.399993896484375</ele>
        <time>2019-04-25T07:47:17.000Z</time>
      </trkpt>
      <trkpt lat="38.64592052064836025238037109375" lon="-7.7245639823377132415771484375">
        <ele>222</ele>
        <time>2019-04-25T07:47:25.000Z</time>
      </trkpt>
      <trkpt lat="38.64614297635853290557861328125" lon="-7.72384129464626312255859375">
        <ele>221.1999969482421875</ele>
        <time>2019-04-25T07:47:34.000Z</time>
      </trkpt>
      <trkpt lat="38.64633710123598575592041015625" lon="-7.7231968939304351806640625">
        <ele>221.399993896484375</ele>
        <time>2019-04-25T07:47:42.000Z</time>
      </trkpt>
      <trkpt lat="38.6465504206717014312744140625" lon="-7.7224708534777164459228515625">
        <ele>221.600006103515625</ele>
        <time>2019-04-25T07:47:51.000Z</time>
      </trkpt>
      <trkpt lat="38.64676105789840221405029296875" lon="-7.72177255712449550628662109375">
        <ele>221.8000030517578125</ele>
        <time>2019-04-25T07:48:00.000Z</time>
      </trkpt>
      <trkpt lat="38.64695669151842594146728515625" lon="-7.7211126498878002166748046875">
        <ele>223</ele>
        <time>2019-04-25T07:48:09.000Z</time>
      </trkpt>
      <trkpt lat="38.64715198986232280731201171875" lon="-7.72043966688215732574462890625">
        <ele>225</ele>
        <time>2019-04-25T07:48:20.000Z</time>
      </trkpt>
      <trkpt lat="38.647508807480335235595703125" lon="-7.71990037523210048675537109375">
        <ele>227.600006103515625</ele>
        <time>2019-04-25T07:48:36.000Z</time>
      </trkpt>
      <trkpt lat="38.64783528260886669158935546875" lon="-7.719353623688220977783203125">
        <ele>229.1999969482421875</ele>
        <time>2019-04-25T07:48:52.000Z</time>
      </trkpt>
      <trkpt lat="38.64783025346696376800537109375" lon="-7.71916964091360569000244140625">
        <ele>229.399993896484375</ele>
        <time>2019-04-25T07:48:59.000Z</time>
      </trkpt>
      <trkpt lat="38.64783142693340778350830078125" lon="-7.719126641750335693359375">
        <ele>229.8000030517578125</ele>
        <time>2019-04-25T07:49:56.000Z</time>
      </trkpt>
      <trkpt lat="38.64787735976278781890869140625" lon="-7.7184237353503704071044921875">
        <ele>230.399993896484375</ele>
        <time>2019-04-25T07:50:15.000Z</time>
      </trkpt>
      <trkpt lat="38.6479166708886623382568359375" lon="-7.71835877560079097747802734375">
        <ele>230.600006103515625</ele>
        <time>2019-04-25T07:50:17.000Z</time>
      </trkpt>
      <trkpt lat="38.64797316491603851318359375" lon="-7.71865247748792171478271484375">
        <ele>231</ele>
        <time>2019-04-25T07:50:24.000Z</time>
      </trkpt>
      <trkpt lat="38.6479679681360721588134765625" lon="-7.71889169700443744659423828125">
        <ele>231</ele>
        <time>2019-04-25T07:50:28.000Z</time>
      </trkpt>
      <trkpt lat="38.647989593446254730224609375" lon="-7.7195935137569904327392578125">
        <ele>229.1999969482421875</ele>
        <time>2019-04-25T07:50:38.000Z</time>
      </trkpt>
      <trkpt lat="38.6480886675417423248291015625" lon="-7.72032567299902439117431640625">
        <ele>227.8000030517578125</ele>
        <time>2019-04-25T07:50:48.000Z</time>
      </trkpt>
      <trkpt lat="38.64825001917779445648193359375" lon="-7.72100946865975856781005859375">
        <ele>226.1999969482421875</ele>
        <time>2019-04-25T07:50:58.000Z</time>
      </trkpt>
      <trkpt lat="38.648467697203159332275390625" lon="-7.7216494269669055938720703125">
        <ele>225</ele>
        <time>2019-04-25T07:51:08.000Z</time>
      </trkpt>
      <trkpt lat="38.64873063750565052032470703125" lon="-7.72227228619158267974853515625">
        <ele>224.399993896484375</ele>
        <time>2019-04-25T07:51:18.000Z</time>
      </trkpt>
      <trkpt lat="38.64901780150830745697021484375" lon="-7.722921632230281829833984375">
        <ele>225</ele>
        <time>2019-04-25T07:51:29.000Z</time>
      </trkpt>
      <trkpt lat="38.64929406903684139251708984375" lon="-7.72354667074978351593017578125">
        <ele>225.1999969482421875</ele>
        <time>2019-04-25T07:51:40.000Z</time>
      </trkpt>
      <trkpt lat="38.64956614561378955841064453125" lon="-7.72418067790567874908447265625">
        <ele>226.8000030517578125</ele>
        <time>2019-04-25T07:51:51.000Z</time>
      </trkpt>
      <trkpt lat="38.64981852471828460693359375" lon="-7.72484955377876758575439453125">
        <ele>227.600006103515625</ele>
        <time>2019-04-25T07:52:02.000Z</time>
      </trkpt>
      <trkpt lat="38.65002480335533618927001953125" lon="-7.72554206661880016326904296875">
        <ele>228.399993896484375</ele>
        <time>2019-04-25T07:52:13.000Z</time>
      </trkpt>
      <trkpt lat="38.65013594739139080047607421875" lon="-7.726092003285884857177734375">
        <ele>228.600006103515625</ele>
        <time>2019-04-25T07:52:22.000Z</time>
      </trkpt>
      <trkpt lat="38.65023267455399036407470703125" lon="-7.72681829519569873809814453125">
        <ele>227.399993896484375</ele>
        <time>2019-04-25T07:52:34.000Z</time>
      </trkpt>
      <trkpt lat="38.65027575753629207611083984375" lon="-7.7275519631803035736083984375">
        <ele>229.1999969482421875</ele>
        <time>2019-04-25T07:52:46.000Z</time>
      </trkpt>
      <trkpt lat="38.65026175975799560546875" lon="-7.7282808534801006317138671875">
        <ele>230</ele>
        <time>2019-04-25T07:52:58.000Z</time>
      </trkpt>
      <trkpt lat="38.65024658851325511932373046875" lon="-7.7284620702266693115234375">
        <ele>230.1999969482421875</ele>
        <time>2019-04-25T07:53:01.000Z</time>
      </trkpt>
      <trkpt lat="38.65017450414597988128662109375" lon="-7.7291582711040973663330078125">
        <ele>231</ele>
        <time>2019-04-25T07:53:13.000Z</time>
      </trkpt>
      <trkpt lat="38.6501009948551654815673828125" lon="-7.72988791577517986297607421875">
        <ele>230</ele>
        <time>2019-04-25T07:53:27.000Z</time>
      </trkpt>
      <trkpt lat="38.65002027712762355804443359375" lon="-7.730623595416545867919921875">
        <ele>229.8000030517578125</ele>
        <time>2019-04-25T07:53:40.000Z</time>
      </trkpt>
      <trkpt lat="38.64994819276034832000732421875" lon="-7.7313352189958095550537109375">
        <ele>230.1999969482421875</ele>
        <time>2019-04-25T07:53:54.000Z</time>
      </trkpt>
      <trkpt lat="38.64989421330392360687255859375" lon="-7.732038795948028564453125">
        <ele>231.399993896484375</ele>
        <time>2019-04-25T07:54:09.000Z</time>
      </trkpt>
      <trkpt lat="38.649824224412441253662109375" lon="-7.7327396906912326812744140625">
        <ele>232.399993896484375</ele>
        <time>2019-04-25T07:54:23.000Z</time>
      </trkpt>
      <trkpt lat="38.6498103104531764984130859375" lon="-7.732901461422443389892578125">
        <ele>232.8000030517578125</ele>
        <time>2019-04-25T07:54:26.000Z</time>
      </trkpt>
      <trkpt lat="38.649824894964694976806640625" lon="-7.73317848332226276397705078125">
        <ele>233.600006103515625</ele>
        <time>2019-04-25T07:54:31.000Z</time>
      </trkpt>
      <trkpt lat="38.64990158937871456146240234375" lon="-7.73345877416431903839111328125">
        <ele>234</ele>
        <time>2019-04-25T07:54:36.000Z</time>
      </trkpt>
      <trkpt lat="38.6499682255089282989501953125" lon="-7.7336077205836772918701171875">
        <ele>234</ele>
        <time>2019-04-25T07:54:39.000Z</time>
      </trkpt>
      <trkpt lat="38.65007878281176090240478515625" lon="-7.733844928443431854248046875">
        <ele>234.8000030517578125</ele>
        <time>2019-04-25T07:54:44.000Z</time>
      </trkpt>
      <trkpt lat="38.65019671618938446044921875" lon="-7.734061516821384429931640625">
        <ele>235.600006103515625</ele>
        <time>2019-04-25T07:54:49.000Z</time>
      </trkpt>
      <trkpt lat="38.65032185800373554229736328125" lon="-7.7342180907726287841796875">
        <ele>236.1999969482421875</ele>
        <time>2019-04-25T07:54:56.000Z</time>
      </trkpt>
      <trkpt lat="38.650337196886539459228515625" lon="-7.73423007689416408538818359375">
        <ele>236</ele>
        <time>2019-04-25T07:55:56.000Z</time>
      </trkpt>
      <trkpt lat="38.6505023203790187835693359375" lon="-7.73441950790584087371826171875">
        <ele>235.600006103515625</ele>
        <time>2019-04-25T07:56:03.000Z</time>
      </trkpt>
      <trkpt lat="38.65094362758100032806396484375" lon="-7.7348284609615802764892578125">
        <ele>236</ele>
        <time>2019-04-25T07:56:14.000Z</time>
      </trkpt>
      <trkpt lat="38.65137848071753978729248046875" lon="-7.73524998687207698822021484375">
        <ele>237.399993896484375</ele>
        <time>2019-04-25T07:56:26.000Z</time>
      </trkpt>
      <trkpt lat="38.6518142558634281158447265625" lon="-7.73567251861095428466796875">
        <ele>239</ele>
        <time>2019-04-25T07:56:39.000Z</time>
      </trkpt>
      <trkpt lat="38.65209194831550121307373046875" lon="-7.73594870232045650482177734375">
        <ele>239.1999969482421875</ele>
        <time>2019-04-25T07:56:47.000Z</time>
      </trkpt>
      <trkpt lat="38.65253266878426074981689453125" lon="-7.73637550882995128631591796875">
        <ele>238.8000030517578125</ele>
        <time>2019-04-25T07:56:59.000Z</time>
      </trkpt>
      <trkpt lat="38.652969785034656524658203125" lon="-7.73678974248468875885009765625">
        <ele>238.8000030517578125</ele>
        <time>2019-04-25T07:57:10.000Z</time>
      </trkpt>
      <trkpt lat="38.65339952521026134490966796875" lon="-7.737210094928741455078125">
        <ele>239.399993896484375</ele>
        <time>2019-04-25T07:57:21.000Z</time>
      </trkpt>
      <trkpt lat="38.6538594402372837066650390625" lon="-7.737654335796833038330078125">
        <ele>240</ele>
        <time>2019-04-25T07:57:33.000Z</time>
      </trkpt>
      <trkpt lat="38.65430007688701152801513671875" lon="-7.738078795373439788818359375">
        <ele>240.399993896484375</ele>
        <time>2019-04-25T07:57:44.000Z</time>
      </trkpt>
      <trkpt lat="38.6547365225851535797119140625" lon="-7.7385101281106472015380859375">
        <ele>241.399993896484375</ele>
        <time>2019-04-25T07:57:55.000Z</time>
      </trkpt>
      <trkpt lat="38.65519325248897075653076171875" lon="-7.73894892074167728424072265625">
        <ele>242.399993896484375</ele>
        <time>2019-04-25T07:58:07.000Z</time>
      </trkpt>
      <trkpt lat="38.6556467972695827484130859375" lon="-7.7393898926675319671630859375">
        <ele>243</ele>
        <time>2019-04-25T07:58:20.000Z</time>
      </trkpt>
      <trkpt lat="38.65609548054635524749755859375" lon="-7.73982013575732707977294921875">
        <ele>245</ele>
        <time>2019-04-25T07:58:33.000Z</time>
      </trkpt>
      <trkpt lat="38.656555898487567901611328125" lon="-7.74026873521506786346435546875">
        <ele>245.600006103515625</ele>
        <time>2019-04-25T07:58:46.000Z</time>
      </trkpt>
      <trkpt lat="38.657025285065174102783203125" lon="-7.74070543237030506134033203125">
        <ele>246</ele>
        <time>2019-04-25T07:58:57.000Z</time>
      </trkpt>
      <trkpt lat="38.65749911405146121978759765625" lon="-7.7411470748484134674072265625">
        <ele>243.1999969482421875</ele>
        <time>2019-04-25T07:59:08.000Z</time>
      </trkpt>
      <trkpt lat="38.65795073099434375762939453125" lon="-7.7415631525218486785888671875">
        <ele>243</ele>
        <time>2019-04-25T07:59:19.000Z</time>
      </trkpt>
      <trkpt lat="38.658418692648410797119140625" lon="-7.7420003525912761688232421875">
        <ele>244</ele>
        <time>2019-04-25T07:59:31.000Z</time>
      </trkpt>
      <trkpt lat="38.658890426158905029296875" lon="-7.7424398995935916900634765625">
        <ele>244</ele>
        <time>2019-04-25T07:59:43.000Z</time>
      </trkpt>
      <trkpt lat="38.659355454146862030029296875" lon="-7.74286578409373760223388671875">
        <ele>245</ele>
        <time>2019-04-25T07:59:55.000Z</time>
      </trkpt>
      <trkpt lat="38.659813106060028076171875" lon="-7.74328940548002719879150390625">
        <ele>244.8000030517578125</ele>
        <time>2019-04-25T08:00:07.000Z</time>
      </trkpt>
      <trkpt lat="38.66025231778621673583984375" lon="-7.7436955086886882781982421875">
        <ele>245.8000030517578125</ele>
        <time>2019-04-25T08:00:18.000Z</time>
      </trkpt>
      <trkpt lat="38.66071365773677825927734375" lon="-7.7441276796162128448486328125">
        <ele>246.1999969482421875</ele>
        <time>2019-04-25T08:00:29.000Z</time>
      </trkpt>
      <trkpt lat="38.66116032935678958892822265625" lon="-7.7445393986999988555908203125">
        <ele>246.399993896484375</ele>
        <time>2019-04-25T08:00:40.000Z</time>
      </trkpt>
      <trkpt lat="38.66160239093005657196044921875" lon="-7.74494449608027935028076171875">
        <ele>246.399993896484375</ele>
        <time>2019-04-25T08:00:51.000Z</time>
      </trkpt>
      <trkpt lat="38.6620405130088329315185546875" lon="-7.745350264012813568115234375">
        <ele>246</ele>
        <time>2019-04-25T08:01:02.000Z</time>
      </trkpt>
      <trkpt lat="38.6624810658395290374755859375" lon="-7.745763994753360748291015625">
        <ele>245.399993896484375</ele>
        <time>2019-04-25T08:01:13.000Z</time>
      </trkpt>
      <trkpt lat="38.66295372135937213897705078125" lon="-7.74620764888823032379150390625">
        <ele>245.1999969482421875</ele>
        <time>2019-04-25T08:01:25.000Z</time>
      </trkpt>
      <trkpt lat="38.663418330252170562744140625" lon="-7.746641747653484344482421875">
        <ele>245.8000030517578125</ele>
        <time>2019-04-25T08:01:37.000Z</time>
      </trkpt>
      <trkpt lat="38.66384739987552165985107421875" lon="-7.7470325119793415069580078125">
        <ele>246.399993896484375</ele>
        <time>2019-04-25T08:01:48.000Z</time>
      </trkpt>
      <trkpt lat="38.66431393660604953765869140625" lon="-7.74746879003942012786865234375">
        <ele>246</ele>
        <time>2019-04-25T08:02:00.000Z</time>
      </trkpt>
      <trkpt lat="38.6647632904350757598876953125" lon="-7.74789140559732913970947265625">
        <ele>246.399993896484375</ele>
        <time>2019-04-25T08:02:12.000Z</time>
      </trkpt>
      <trkpt lat="38.66520426236093044281005859375" lon="-7.74829566478729248046875">
        <ele>246.8000030517578125</ele>
        <time>2019-04-25T08:02:27.000Z</time>
      </trkpt>
      <trkpt lat="38.66565353237092494964599609375" lon="-7.74872540496289730072021484375">
        <ele>247.8000030517578125</ele>
        <time>2019-04-25T08:02:42.000Z</time>
      </trkpt>
      <trkpt lat="38.666094839572906494140625" lon="-7.74915003217756748199462890625">
        <ele>245.8000030517578125</ele>
        <time>2019-04-25T08:02:57.000Z</time>
      </trkpt>
      <trkpt lat="38.66623272188007831573486328125" lon="-7.74925597943365573883056640625">
        <ele>245.399993896484375</ele>
        <time>2019-04-25T08:03:01.000Z</time>
      </trkpt>
      <trkpt lat="38.66634093225002288818359375" lon="-7.74935849010944366455078125">
        <ele>245</ele>
        <time>2019-04-25T08:03:04.000Z</time>
      </trkpt>
      <trkpt lat="38.66681576706469058990478515625" lon="-7.74980264715850353240966796875">
        <ele>243.8000030517578125</ele>
        <time>2019-04-25T08:03:16.000Z</time>
      </trkpt>
      <trkpt lat="38.667265959084033966064453125" lon="-7.750221155583858489990234375">
        <ele>243.8000030517578125</ele>
        <time>2019-04-25T08:03:27.000Z</time>
      </trkpt>
      <trkpt lat="38.66773894988000392913818359375" lon="-7.7506665699183940887451171875">
        <ele>242.8000030517578125</ele>
        <time>2019-04-25T08:03:39.000Z</time>
      </trkpt>
      <trkpt lat="38.66817883215844631195068359375" lon="-7.75107644498348236083984375">
        <ele>242</ele>
        <time>2019-04-25T08:03:50.000Z</time>
      </trkpt>
      <trkpt lat="38.66865634918212890625" lon="-7.7515238709747791290283203125">
        <ele>241.399993896484375</ele>
        <time>2019-04-25T08:04:01.000Z</time>
      </trkpt>
      <trkpt lat="38.66912716068327426910400390625" lon="-7.7519647590816020965576171875">
        <ele>239.8000030517578125</ele>
        <time>2019-04-25T08:04:12.000Z</time>
      </trkpt>
      <trkpt lat="38.6693998239934444427490234375" lon="-7.75222669355571269989013671875">
        <ele>239</ele>
        <time>2019-04-25T08:04:19.000Z</time>
      </trkpt>
      <trkpt lat="38.66985864937305450439453125" lon="-7.7526500634849071502685546875">
        <ele>239.1999969482421875</ele>
        <time>2019-04-25T08:04:31.000Z</time>
      </trkpt>
      <trkpt lat="38.67032174952328205108642578125" lon="-7.7530715055763721466064453125">
        <ele>240.399993896484375</ele>
        <time>2019-04-25T08:04:44.000Z</time>
      </trkpt>
      <trkpt lat="38.67076096124947071075439453125" lon="-7.75348297320306301116943359375">
        <ele>241.8000030517578125</ele>
        <time>2019-04-25T08:04:59.000Z</time>
      </trkpt>
      <trkpt lat="38.6712039448320865631103515625" lon="-7.7538845501840114593505859375">
        <ele>242.399993896484375</ele>
        <time>2019-04-25T08:05:16.000Z</time>
      </trkpt>
      <trkpt lat="38.67165849544107913970947265625" lon="-7.75430507026612758636474609375">
        <ele>244.399993896484375</ele>
        <time>2019-04-25T08:05:33.000Z</time>
      </trkpt>
      <trkpt lat="38.67211413569748401641845703125" lon="-7.75473841466009616851806640625">
        <ele>246</ele>
        <time>2019-04-25T08:05:49.000Z</time>
      </trkpt>
      <trkpt lat="38.6725509166717529296875" lon="-7.75514510460197925567626953125">
        <ele>248.399993896484375</ele>
        <time>2019-04-25T08:06:05.000Z</time>
      </trkpt>
      <trkpt lat="38.67299742065370082855224609375" lon="-7.7555465139448642730712890625">
        <ele>249.600006103515625</ele>
        <time>2019-04-25T08:06:22.000Z</time>
      </trkpt>
      <trkpt lat="38.673449791967868804931640625" lon="-7.75596871040761470794677734375">
        <ele>252.399993896484375</ele>
        <time>2019-04-25T08:06:40.000Z</time>
      </trkpt>
      <trkpt lat="38.67389646358788013458251953125" lon="-7.75639384053647518157958984375">
        <ele>254.1999969482421875</ele>
        <time>2019-04-25T08:06:59.000Z</time>
      </trkpt>
      <trkpt lat="38.67435361258685588836669921875" lon="-7.75682039558887481689453125">
        <ele>257</ele>
        <time>2019-04-25T08:07:18.000Z</time>
      </trkpt>
      <trkpt lat="38.67480330169200897216796875" lon="-7.757225744426250457763671875">
        <ele>258.399993896484375</ele>
        <time>2019-04-25T08:07:36.000Z</time>
      </trkpt>
      <trkpt lat="38.6752547509968280792236328125" lon="-7.75764877907931804656982421875">
        <ele>258.79998779296875</ele>
        <time>2019-04-25T08:07:52.000Z</time>
      </trkpt>
      <trkpt lat="38.67566957138478755950927734375" lon="-7.75809603743255138397216796875">
        <ele>259</ele>
        <time>2019-04-25T08:08:06.000Z</time>
      </trkpt>
      <trkpt lat="38.675725646317005157470703125" lon="-7.7581710554659366607666015625">
        <ele>259.20001220703125</ele>
        <time>2019-04-25T08:08:08.000Z</time>
      </trkpt>
      <trkpt lat="38.67598070763051509857177734375" lon="-7.75851345621049404144287109375">
        <ele>259.79998779296875</ele>
        <time>2019-04-25T08:08:17.000Z</time>
      </trkpt>
      <trkpt lat="38.67638303898274898529052734375" lon="-7.759043611586093902587890625">
        <ele>259.79998779296875</ele>
        <time>2019-04-25T08:08:29.000Z</time>
      </trkpt>
      <trkpt lat="38.67677564732730388641357421875" lon="-7.7595748566091060638427734375">
        <ele>260.20001220703125</ele>
        <time>2019-04-25T08:08:40.000Z</time>
      </trkpt>
      <trkpt lat="38.67717127315700054168701171875" lon="-7.76009495370090007781982421875">
        <ele>261.20001220703125</ele>
        <time>2019-04-25T08:08:51.000Z</time>
      </trkpt>
      <trkpt lat="38.677561283111572265625" lon="-7.76061077602207660675048828125">
        <ele>262.20001220703125</ele>
        <time>2019-04-25T08:09:02.000Z</time>
      </trkpt>
      <trkpt lat="38.67794693447649478912353515625" lon="-7.76113045401871204376220703125">
        <ele>262.399993896484375</ele>
        <time>2019-04-25T08:09:14.000Z</time>
      </trkpt>
      <trkpt lat="38.67833132855594158172607421875" lon="-7.7616383135318756103515625">
        <ele>263</ele>
        <time>2019-04-25T08:09:29.000Z</time>
      </trkpt>
      <trkpt lat="38.67870952002704143524169921875" lon="-7.76214265264570713043212890625">
        <ele>263.399993896484375</ele>
        <time>2019-04-25T08:09:44.000Z</time>
      </trkpt>
      <trkpt lat="38.679104559123516082763671875" lon="-7.76266761124134063720703125">
        <ele>264.20001220703125</ele>
        <time>2019-04-25T08:10:00.000Z</time>
      </trkpt>
      <trkpt lat="38.67948166094720363616943359375" lon="-7.76316172443330287933349609375">
        <ele>265.399993896484375</ele>
        <time>2019-04-25T08:10:15.000Z</time>
      </trkpt>
      <trkpt lat="38.67987938225269317626953125" lon="-7.76369632221758365631103515625">
        <ele>265.79998779296875</ele>
        <time>2019-04-25T08:10:30.000Z</time>
      </trkpt>
      <trkpt lat="38.68026151321828365325927734375" lon="-7.76420560665428638458251953125">
        <ele>268.79998779296875</ele>
        <time>2019-04-25T08:10:43.000Z</time>
      </trkpt>
      <trkpt lat="38.68065445683896541595458984375" lon="-7.7647344209253787994384765625">
        <ele>267.79998779296875</ele>
        <time>2019-04-25T08:10:56.000Z</time>
      </trkpt>
      <trkpt lat="38.681033737957477569580078125" lon="-7.765246219933032989501953125">
        <ele>268.79998779296875</ele>
        <time>2019-04-25T08:11:09.000Z</time>
      </trkpt>
      <trkpt lat="38.6814129352569580078125" lon="-7.76576028205454349517822265625">
        <ele>269.399993896484375</ele>
        <time>2019-04-25T08:11:22.000Z</time>
      </trkpt>
      <trkpt lat="38.6817978322505950927734375" lon="-7.7662689797580242156982421875">
        <ele>269.600006103515625</ele>
        <time>2019-04-25T08:11:35.000Z</time>
      </trkpt>
      <trkpt lat="38.6821947991847991943359375" lon="-7.7667983807623386383056640625">
        <ele>269.600006103515625</ele>
        <time>2019-04-25T08:11:48.000Z</time>
      </trkpt>
      <trkpt lat="38.6825875751674175262451171875" lon="-7.7673204056918621063232421875">
        <ele>270</ele>
        <time>2019-04-25T08:12:02.000Z</time>
      </trkpt>
      <trkpt lat="38.68296249769628047943115234375" lon="-7.7678216435015201568603515625">
        <ele>272.399993896484375</ele>
        <time>2019-04-25T08:12:19.000Z</time>
      </trkpt>
      <trkpt lat="38.683352172374725341796875" lon="-7.7683443389832973480224609375">
        <ele>274</ele>
        <time>2019-04-25T08:12:37.000Z</time>
      </trkpt>
      <trkpt lat="38.68359164334833621978759765625" lon="-7.76870300062000751495361328125">
        <ele>274.600006103515625</ele>
        <time>2019-04-25T08:12:49.000Z</time>
      </trkpt>
      <trkpt lat="38.68359466083347797393798828125" lon="-7.76874792762100696563720703125">
        <ele>274.600006103515625</ele>
        <time>2019-04-25T08:12:52.000Z</time>
      </trkpt>
      <trkpt lat="38.68364227004349231719970703125" lon="-7.768753878772258758544921875">
        <ele>274.79998779296875</ele>
        <time>2019-04-25T08:25:16.000Z</time>
      </trkpt>
      <trkpt lat="38.6837006919085979461669921875" lon="-7.7688318304717540740966796875">
        <ele>275</ele>
        <time>2019-04-25T08:25:20.000Z</time>
      </trkpt>
      <trkpt lat="38.68410008959472179412841796875" lon="-7.7693494968116283416748046875">
        <ele>275.600006103515625</ele>
        <time>2019-04-25T08:25:34.000Z</time>
      </trkpt>
      <trkpt lat="38.68451247923076152801513671875" lon="-7.76987998746335506439208984375">
        <ele>274.79998779296875</ele>
        <time>2019-04-25T08:25:45.000Z</time>
      </trkpt>
      <trkpt lat="38.6849050037562847137451171875" lon="-7.7703958936035633087158203125">
        <ele>273.20001220703125</ele>
        <time>2019-04-25T08:25:53.000Z</time>
      </trkpt>
      <trkpt lat="38.6853160522878170013427734375" lon="-7.77094893157482147216796875">
        <ele>270.399993896484375</ele>
        <time>2019-04-25T08:26:01.000Z</time>
      </trkpt>
      <trkpt lat="38.68571721017360687255859375" lon="-7.77148537337779998779296875">
        <ele>268.399993896484375</ele>
        <time>2019-04-25T08:26:09.000Z</time>
      </trkpt>
      <trkpt lat="38.6861203797161579132080078125" lon="-7.77201821096241474151611328125">
        <ele>267.600006103515625</ele>
        <time>2019-04-25T08:26:18.000Z</time>
      </trkpt>
      <trkpt lat="38.68653821758925914764404296875" lon="-7.772564627230167388916015625">
        <ele>269</ele>
        <time>2019-04-25T08:26:28.000Z</time>
      </trkpt>
      <trkpt lat="38.687010705471038818359375" lon="-7.77296989224851131439208984375">
        <ele>269.600006103515625</ele>
        <time>2019-04-25T08:26:38.000Z</time>
      </trkpt>
      <trkpt lat="38.687439523637294769287109375" lon="-7.77322235517203807830810546875">
        <ele>270.600006103515625</ele>
        <time>2019-04-25T08:26:48.000Z</time>
      </trkpt>
      <trkpt lat="38.6879352293908596038818359375" lon="-7.77351446449756622314453125">
        <ele>271.79998779296875</ele>
        <time>2019-04-25T08:27:01.000Z</time>
      </trkpt>
      <trkpt lat="38.68845817632973194122314453125" lon="-7.7738224156200885772705078125">
        <ele>273.79998779296875</ele>
        <time>2019-04-25T08:27:14.000Z</time>
      </trkpt>
      <trkpt lat="38.688985146582126617431640625" lon="-7.7741328813135623931884765625">
        <ele>275.399993896484375</ele>
        <time>2019-04-25T08:27:27.000Z</time>
      </trkpt>
      <trkpt lat="38.68950541131198406219482421875" lon="-7.77444058097898960113525390625">
        <ele>276.79998779296875</ele>
        <time>2019-04-25T08:27:42.000Z</time>
      </trkpt>
      <trkpt lat="38.69001838378608226776123046875" lon="-7.774741239845752716064453125">
        <ele>278.79998779296875</ele>
        <time>2019-04-25T08:28:00.000Z</time>
      </trkpt>
      <trkpt lat="38.6905205436050891876220703125" lon="-7.77502899058163166046142578125">
        <ele>280.399993896484375</ele>
        <time>2019-04-25T08:28:19.000Z</time>
      </trkpt>
      <trkpt lat="38.69102672673761844635009765625" lon="-7.77532805688679218292236328125">
        <ele>281.399993896484375</ele>
        <time>2019-04-25T08:28:33.000Z</time>
      </trkpt>
      <trkpt lat="38.69151505641639232635498046875" lon="-7.77563097886741161346435546875">
        <ele>278.600006103515625</ele>
        <time>2019-04-25T08:28:41.000Z</time>
      </trkpt>
      <trkpt lat="38.69201545603573322296142578125" lon="-7.775918729603290557861328125">
        <ele>275.399993896484375</ele>
        <time>2019-04-25T08:28:48.000Z</time>
      </trkpt>
      <trkpt lat="38.69256145320832729339599609375" lon="-7.7762384153902530670166015625">
        <ele>273.20001220703125</ele>
        <time>2019-04-25T08:28:56.000Z</time>
      </trkpt>
      <trkpt lat="38.69307023473083972930908203125" lon="-7.77653706260025501251220703125">
        <ele>272</ele>
        <time>2019-04-25T08:29:05.000Z</time>
      </trkpt>
      <trkpt lat="38.6935708858072757720947265625" lon="-7.7768285013735294342041015625">
        <ele>272.600006103515625</ele>
        <time>2019-04-25T08:29:14.000Z</time>
      </trkpt>
      <trkpt lat="38.694059215486049652099609375" lon="-7.7771282382309436798095703125">
        <ele>272.399993896484375</ele>
        <time>2019-04-25T08:29:23.000Z</time>
      </trkpt>
      <trkpt lat="38.6945663206279277801513671875" lon="-7.77743325568735599517822265625">
        <ele>271</ele>
        <time>2019-04-25T08:29:32.000Z</time>
      </trkpt>
      <trkpt lat="38.6950762756168842315673828125" lon="-7.77773416601121425628662109375">
        <ele>270.399993896484375</ele>
        <time>2019-04-25T08:29:41.000Z</time>
      </trkpt>
      <trkpt lat="38.6954973824322223663330078125" lon="-7.7779771573841571807861328125">
        <ele>271.399993896484375</ele>
        <time>2019-04-25T08:29:50.000Z</time>
      </trkpt>
      <trkpt lat="38.6959277093410491943359375" lon="-7.77825166471302509307861328125">
        <ele>272.600006103515625</ele>
        <time>2019-04-25T08:30:02.000Z</time>
      </trkpt>
      <trkpt lat="38.6962507478892803192138671875" lon="-7.77843296527862548828125">
        <ele>272</ele>
        <time>2019-04-25T08:30:09.000Z</time>
      </trkpt>
      <trkpt lat="38.6967994272708892822265625" lon="-7.7787482924759387969970703125">
        <ele>269.399993896484375</ele>
        <time>2019-04-25T08:30:18.000Z</time>
      </trkpt>
      <trkpt lat="38.69730795733630657196044921875" lon="-7.779043503105640411376953125">
        <ele>267.399993896484375</ele>
        <time>2019-04-25T08:30:27.000Z</time>
      </trkpt>
      <trkpt lat="38.697825707495212554931640625" lon="-7.77935229241847991943359375">
        <ele>266</ele>
        <time>2019-04-25T08:30:37.000Z</time>
      </trkpt>
      <trkpt lat="38.6983363330364227294921875" lon="-7.77965605258941650390625">
        <ele>265.399993896484375</ele>
        <time>2019-04-25T08:30:46.000Z</time>
      </trkpt>
      <trkpt lat="38.6988350562751293182373046875" lon="-7.779945395886898040771484375">
        <ele>265.20001220703125</ele>
        <time>2019-04-25T08:30:56.000Z</time>
      </trkpt>
      <trkpt lat="38.69933034293353557586669921875" lon="-7.7802422828972339630126953125">
        <ele>266</ele>
        <time>2019-04-25T08:31:07.000Z</time>
      </trkpt>
      <trkpt lat="38.6998410522937774658203125" lon="-7.78054319322109222412109375">
        <ele>267.399993896484375</ele>
        <time>2019-04-25T08:31:20.000Z</time>
      </trkpt>
      <trkpt lat="38.7003686092793941497802734375" lon="-7.780834548175334930419921875">
        <ele>269.600006103515625</ele>
        <time>2019-04-25T08:31:34.000Z</time>
      </trkpt>
      <trkpt lat="38.7009033747017383575439453125" lon="-7.78105013072490692138671875">
        <ele>272.600006103515625</ele>
        <time>2019-04-25T08:31:47.000Z</time>
      </trkpt>
      <trkpt lat="38.7014743499457836151123046875" lon="-7.78111458756029605865478515625">
        <ele>273.79998779296875</ele>
        <time>2019-04-25T08:32:04.000Z</time>
      </trkpt>
      <trkpt lat="38.7019588239490985870361328125" lon="-7.780986092984676361083984375">
        <ele>273.79998779296875</ele>
        <time>2019-04-25T08:32:16.000Z</time>
      </trkpt>
      <trkpt lat="38.702339194715023040771484375" lon="-7.7808863483369350433349609375">
        <ele>274.20001220703125</ele>
        <time>2019-04-25T08:32:25.000Z</time>
      </trkpt>
      <trkpt lat="38.70245981030166149139404296875" lon="-7.780859358608722686767578125">
        <ele>274.399993896484375</ele>
        <time>2019-04-25T08:32:28.000Z</time>
      </trkpt>
      <trkpt lat="38.702873289585113525390625" lon="-7.780366837978363037109375">
        <ele>274.20001220703125</ele>
        <time>2019-04-25T08:32:43.000Z</time>
      </trkpt>
      <trkpt lat="38.70324569754302501678466796875" lon="-7.779833413660526275634765625">
        <ele>274.600006103515625</ele>
        <time>2019-04-25T08:32:57.000Z</time>
      </trkpt>
      <trkpt lat="38.703340999782085418701171875" lon="-7.7797266282141208648681640625">
        <ele>274.600006103515625</ele>
        <time>2019-04-25T08:33:00.000Z</time>
      </trkpt>
      <trkpt lat="38.7035463564097881317138671875" lon="-7.779800891876220703125">
        <ele>276.20001220703125</ele>
        <time>2019-04-25T08:33:06.000Z</time>
      </trkpt>
      <trkpt lat="38.70404650457203388214111328125" lon="-7.7801269479095935821533203125">
        <ele>278.399993896484375</ele>
        <time>2019-04-25T08:33:21.000Z</time>
      </trkpt>
      <trkpt lat="38.704275749623775482177734375" lon="-7.78013817965984344482421875">
        <ele>279</ele>
        <time>2019-04-25T08:33:27.000Z</time>
      </trkpt>
      <trkpt lat="38.704828955233097076416015625" lon="-7.7801064960658550262451171875">
        <ele>278.600006103515625</ele>
        <time>2019-04-25T08:33:43.000Z</time>
      </trkpt>
      <trkpt lat="38.7049950845539569854736328125" lon="-7.78010406531393527984619140625">
        <ele>278.399993896484375</ele>
        <time>2019-04-25T08:33:47.000Z</time>
      </trkpt>
      <trkpt lat="38.70530127547681331634521484375" lon="-7.78009937144815921783447265625">
        <ele>278.399993896484375</ele>
        <time>2019-04-25T08:33:53.000Z</time>
      </trkpt>
      <trkpt lat="38.70554619468748569488525390625" lon="-7.780090905725955963134765625">
        <ele>278.600006103515625</ele>
        <time>2019-04-25T08:33:58.000Z</time>
      </trkpt>
      <trkpt lat="38.70611046440899372100830078125" lon="-7.78007858432829380035400390625">
        <ele>279.20001220703125</ele>
        <time>2019-04-25T08:34:11.000Z</time>
      </trkpt>
      <trkpt lat="38.70666501112282276153564453125" lon="-7.78004991821944713592529296875">
        <ele>280.600006103515625</ele>
        <time>2019-04-25T08:34:26.000Z</time>
      </trkpt>
      <trkpt lat="38.7068186514079570770263671875" lon="-7.78005293570458889007568359375">
        <ele>280.79998779296875</ele>
        <time>2019-04-25T08:34:30.000Z</time>
      </trkpt>
      <trkpt lat="38.7072102539241313934326171875" lon="-7.78001748025417327880859375">
        <ele>280.20001220703125</ele>
        <time>2019-04-25T08:34:39.000Z</time>
      </trkpt>
      <trkpt lat="38.7073083221912384033203125" lon="-7.78000465594232082366943359375">
        <ele>279.79998779296875</ele>
        <time>2019-04-25T08:34:43.000Z</time>
      </trkpt>
      <trkpt lat="38.70714579708874225616455078125" lon="-7.78006701730191707611083984375">
        <ele>280.399993896484375</ele>
        <time>2019-04-25T08:34:51.000Z</time>
      </trkpt>
      <trkpt lat="38.70714604854583740234375" lon="-7.7800672687590122222900390625">
        <ele>280.399993896484375</ele>
        <time>2019-04-25T08:34:53.000Z</time>
      </trkpt>
      <trkpt lat="38.7071676738560199737548828125" lon="-7.78001756407320499420166015625">
        <ele>280.20001220703125</ele>
        <time>2019-04-25T08:34:59.000Z</time>
      </trkpt>
      <trkpt lat="38.70723950676620006561279296875" lon="-7.78024169616401195526123046875">
        <ele>280.79998779296875</ele>
        <time>2019-04-25T08:35:19.000Z</time>
      </trkpt>
      <trkpt lat="38.707152418792247772216796875" lon="-7.78017682023346424102783203125">
        <ele>280.79998779296875</ele>
        <time>2019-04-25T08:35:31.000Z</time>
      </trkpt>
      <trkpt lat="38.70723045431077480316162109375" lon="-7.78027622960507869720458984375">
        <ele>281</ele>
        <time>2019-04-25T08:40:36.000Z</time>
      </trkpt>
      <trkpt lat="38.7072447873651981353759765625" lon="-7.7802912332117557525634765625">
        <ele>281</ele>
        <time>2019-04-25T08:40:39.000Z</time>
      </trkpt>
      <trkpt lat="38.7072692625224590301513671875" lon="-7.780259214341640472412109375">
        <ele>280.79998779296875</ele>
        <time>2019-04-25T08:40:43.000Z</time>
      </trkpt>
      <trkpt lat="38.70727940462529659271240234375" lon="-7.780043967068195343017578125">
        <ele>280</ele>
        <time>2019-04-25T08:40:51.000Z</time>
      </trkpt>
      <trkpt lat="38.70736171491444110870361328125" lon="-7.7799308113753795623779296875">
        <ele>279.600006103515625</ele>
        <time>2019-04-25T08:40:55.000Z</time>
      </trkpt>
      <trkpt lat="38.70739708654582500457763671875" lon="-7.779795862734317779541015625">
        <ele>279.20001220703125</ele>
        <time>2019-04-25T08:40:58.000Z</time>
      </trkpt>
      <trkpt lat="38.70736422948539257049560546875" lon="-7.779544405639171600341796875">
        <ele>278.600006103515625</ele>
        <time>2019-04-25T08:41:02.000Z</time>
      </trkpt>
      <trkpt lat="38.70727320201694965362548828125" lon="-7.77878710068762302398681640625">
        <ele>279.20001220703125</ele>
        <time>2019-04-25T08:41:12.000Z</time>
      </trkpt>
      <trkpt lat="38.7071931548416614532470703125" lon="-7.778057120740413665771484375">
        <ele>281.20001220703125</ele>
        <time>2019-04-25T08:41:21.000Z</time>
      </trkpt>
      <trkpt lat="38.70713473297655582427978515625" lon="-7.77745270170271396636962890625">
        <ele>282.20001220703125</ele>
        <time>2019-04-25T08:41:30.000Z</time>
      </trkpt>
      <trkpt lat="38.7070969305932521820068359375" lon="-7.77717836201190948486328125">
        <ele>281.79998779296875</ele>
        <time>2019-04-25T08:41:35.000Z</time>
      </trkpt>
      <trkpt lat="38.70694714598357677459716796875" lon="-7.77689681388437747955322265625">
        <ele>282</ele>
        <time>2019-04-25T08:41:41.000Z</time>
      </trkpt>
      <trkpt lat="38.70658001862466335296630859375" lon="-7.77630656026303768157958984375">
        <ele>282.79998779296875</ele>
        <time>2019-04-25T08:41:52.000Z</time>
      </trkpt>
      <trkpt lat="38.70632068254053592681884765625" lon="-7.775909341871738433837890625">
        <ele>283</ele>
        <time>2019-04-25T08:41:59.000Z</time>
      </trkpt>
      <trkpt lat="38.7060672976076602935791015625" lon="-7.775729633867740631103515625">
        <ele>283.399993896484375</ele>
        <time>2019-04-25T08:42:05.000Z</time>
      </trkpt>
      <trkpt lat="38.70570763014256954193115234375" lon="-7.77538723312318325042724609375">
        <ele>281.600006103515625</ele>
        <time>2019-04-25T08:42:15.000Z</time>
      </trkpt>
      <trkpt lat="38.70573445223271846771240234375" lon="-7.775099985301494598388671875">
        <ele>282.600006103515625</ele>
        <time>2019-04-25T08:42:22.000Z</time>
      </trkpt>
      <trkpt lat="38.70576110668480396270751953125" lon="-7.7750595845282077789306640625">
        <ele>282.600006103515625</ele>
        <time>2019-04-25T08:42:23.000Z</time>
      </trkpt>
      <trkpt lat="38.7058201991021633148193359375" lon="-7.77498389594256877899169921875">
        <ele>282.600006103515625</ele>
        <time>2019-04-25T08:42:25.000Z</time>
      </trkpt>
      <trkpt lat="38.705972917377948760986328125" lon="-7.7747155912220478057861328125">
        <ele>283</ele>
        <time>2019-04-25T08:42:31.000Z</time>
      </trkpt>
      <trkpt lat="38.70625094510614871978759765625" lon="-7.7740832604467868804931640625">
        <ele>283</ele>
        <time>2019-04-25T08:42:41.000Z</time>
      </trkpt>
      <trkpt lat="38.7065242789685726165771484375" lon="-7.77342083863914012908935546875">
        <ele>283</ele>
        <time>2019-04-25T08:42:51.000Z</time>
      </trkpt>
      <trkpt lat="38.70676073245704174041748046875" lon="-7.77280041016638278961181640625">
        <ele>283</ele>
        <time>2019-04-25T08:43:04.000Z</time>
      </trkpt>
      <trkpt lat="38.70674975216388702392578125" lon="-7.7723912894725799560546875">
        <ele>283</ele>
        <time>2019-04-25T08:43:11.000Z</time>
      </trkpt>
      <trkpt lat="38.706778250634670257568359375" lon="-7.7721507288515567779541015625">
        <ele>282.600006103515625</ele>
        <time>2019-04-25T08:43:15.000Z</time>
      </trkpt>
      <trkpt lat="38.7069249339401721954345703125" lon="-7.771835066378116607666015625">
        <ele>282.399993896484375</ele>
        <time>2019-04-25T08:43:21.000Z</time>
      </trkpt>
      <trkpt lat="38.70722207240760326385498046875" lon="-7.77135218493640422821044921875">
        <ele>282</ele>
        <time>2019-04-25T08:43:33.000Z</time>
      </trkpt>
      <trkpt lat="38.70731125585734844207763671875" lon="-7.771204076707363128662109375">
        <ele>282</ele>
        <time>2019-04-25T08:43:36.000Z</time>
      </trkpt>
      <trkpt lat="38.707446791231632232666015625" lon="-7.77094432152807712554931640625">
        <ele>282.20001220703125</ele>
        <time>2019-04-25T08:43:40.000Z</time>
      </trkpt>
      <trkpt lat="38.70753538794815540313720703125" lon="-7.77079327963292598724365234375">
        <ele>281.79998779296875</ele>
        <time>2019-04-25T08:43:42.000Z</time>
      </trkpt>
      <trkpt lat="38.7078653834760189056396484375" lon="-7.7702202089130878448486328125">
        <ele>279</ele>
        <time>2019-04-25T08:43:48.000Z</time>
      </trkpt>
      <trkpt lat="38.707932941615581512451171875" lon="-7.7701219730079174041748046875">
        <ele>278.399993896484375</ele>
        <time>2019-04-25T08:43:49.000Z</time>
      </trkpt>
      <trkpt lat="38.70828556828200817108154296875" lon="-7.76950992643833160400390625">
        <ele>279.399993896484375</ele>
        <time>2019-04-25T08:43:56.000Z</time>
      </trkpt>
      <trkpt lat="38.708616234362125396728515625" lon="-7.76895479299128055572509765625">
        <ele>280.399993896484375</ele>
        <time>2019-04-25T08:44:05.000Z</time>
      </trkpt>
      <trkpt lat="38.7087377719581127166748046875" lon="-7.76874591596424579620361328125">
        <ele>280.600006103515625</ele>
        <time>2019-04-25T08:44:09.000Z</time>
      </trkpt>
      <trkpt lat="38.7088199146091938018798828125" lon="-7.7685248851776123046875">
        <ele>281</ele>
        <time>2019-04-25T08:44:13.000Z</time>
      </trkpt>
      <trkpt lat="38.70892410166561603546142578125" lon="-7.76799975894391536712646484375">
        <ele>279.79998779296875</ele>
        <time>2019-04-25T08:44:21.000Z</time>
      </trkpt>
      <trkpt lat="38.7090356647968292236328125" lon="-7.7672275342047214508056640625">
        <ele>276.600006103515625</ele>
        <time>2019-04-25T08:44:30.000Z</time>
      </trkpt>
      <trkpt lat="38.70912945829331874847412109375" lon="-7.7665730752050876617431640625">
        <ele>274.20001220703125</ele>
        <time>2019-04-25T08:44:37.000Z</time>
      </trkpt>
      <trkpt lat="38.70926993899047374725341796875" lon="-7.765881903469562530517578125">
        <ele>272.399993896484375</ele>
        <time>2019-04-25T08:44:45.000Z</time>
      </trkpt>
      <trkpt lat="38.70932760648429393768310546875" lon="-7.765741758048534393310546875">
        <ele>271.79998779296875</ele>
        <time>2019-04-25T08:44:47.000Z</time>
      </trkpt>
      <trkpt lat="38.70965768583118915557861328125" lon="-7.7652825973927974700927734375">
        <ele>270.600006103515625</ele>
        <time>2019-04-25T08:44:55.000Z</time>
      </trkpt>
      <trkpt lat="38.70985264889895915985107421875" lon="-7.76500708423554897308349609375">
        <ele>270</ele>
        <time>2019-04-25T08:45:00.000Z</time>
      </trkpt>
      <trkpt lat="38.70995767414569854736328125" lon="-7.76477641426026821136474609375">
        <ele>270</ele>
        <time>2019-04-25T08:45:04.000Z</time>
      </trkpt>
      <trkpt lat="38.7099866755306720733642578125" lon="-7.7647230215370655059814453125">
        <ele>270</ele>
        <time>2019-04-25T08:45:05.000Z</time>
      </trkpt>
      <trkpt lat="38.7102552317082881927490234375" lon="-7.7643773518502712249755859375">
        <ele>270</ele>
        <time>2019-04-25T08:45:12.000Z</time>
      </trkpt>
      <trkpt lat="38.7103980593383312225341796875" lon="-7.76408138684928417205810546875">
        <ele>269.79998779296875</ele>
        <time>2019-04-25T08:45:17.000Z</time>
      </trkpt>
      <trkpt lat="38.71051515452563762664794921875" lon="-7.76395096443593502044677734375">
        <ele>269.600006103515625</ele>
        <time>2019-04-25T08:45:20.000Z</time>
      </trkpt>
      <trkpt lat="38.7106270529329776763916015625" lon="-7.7637089788913726806640625">
        <ele>269.399993896484375</ele>
        <time>2019-04-25T08:45:24.000Z</time>
      </trkpt>
      <trkpt lat="38.71066435240209102630615234375" lon="-7.76364569552242755889892578125">
        <ele>269.20001220703125</ele>
        <time>2019-04-25T08:45:25.000Z</time>
      </trkpt>
      <trkpt lat="38.7109284661710262298583984375" lon="-7.763272114098072052001953125">
        <ele>268.399993896484375</ele>
        <time>2019-04-25T08:45:31.000Z</time>
      </trkpt>
      <trkpt lat="38.71143666096031665802001953125" lon="-7.7629413641989231109619140625">
        <ele>268.79998779296875</ele>
        <time>2019-04-25T08:45:40.000Z</time>
      </trkpt>
      <trkpt lat="38.7118166126310825347900390625" lon="-7.76282854378223419189453125">
        <ele>268.399993896484375</ele>
        <time>2019-04-25T08:45:54.000Z</time>
      </trkpt>
      <trkpt lat="38.711898587644100189208984375" lon="-7.762813456356525421142578125">
        <ele>268.399993896484375</ele>
        <time>2019-04-25T08:46:01.000Z</time>
      </trkpt>
      <trkpt lat="38.7119252420961856842041015625" lon="-7.762819491326808929443359375">
        <ele>268.399993896484375</ele>
        <time>2019-04-25T08:46:04.000Z</time>
      </trkpt>
      <trkpt lat="38.7119002640247344970703125" lon="-7.76283566839993000030517578125">
        <ele>268.20001220703125</ele>
        <time>2019-04-25T08:46:07.000Z</time>
      </trkpt>
      <trkpt lat="38.7115500681102275848388671875" lon="-7.76289501227438449859619140625">
        <ele>269</ele>
        <time>2019-04-25T08:46:22.000Z</time>
      </trkpt>
      <trkpt lat="38.71152182109653949737548828125" lon="-7.762913368642330169677734375">
        <ele>269</ele>
        <time>2019-04-25T08:46:29.000Z</time>
      </trkpt>
      <trkpt lat="38.71145543642342090606689453125" lon="-7.76294597424566745758056640625">
        <ele>269</ele>
        <time>2019-04-25T08:46:37.000Z</time>
      </trkpt>
      <trkpt lat="38.71148653328418731689453125" lon="-7.762952260673046112060546875">
        <ele>269</ele>
        <time>2019-04-25T08:46:47.000Z</time>
      </trkpt>
      <trkpt lat="38.71149885468184947967529296875" lon="-7.76289517991244792938232421875">
        <ele>269</ele>
        <time>2019-04-25T08:46:52.000Z</time>
      </trkpt>
      <trkpt lat="38.71149323880672454833984375" lon="-7.76283751241862773895263671875">
        <ele>268.79998779296875</ele>
        <time>2019-04-25T08:47:50.000Z</time>
      </trkpt>
      <trkpt lat="38.71148921549320220947265625" lon="-7.76280415244400501251220703125">
        <ele>268.600006103515625</ele>
        <time>2019-04-25T08:47:52.000Z</time>
      </trkpt>
      <trkpt lat="38.711486868560314178466796875" lon="-7.76276811026036739349365234375">
        <ele>268.399993896484375</ele>
        <time>2019-04-25T08:47:54.000Z</time>
      </trkpt>
      <trkpt lat="38.71149801649153232574462890625" lon="-7.762659229338169097900390625">
        <ele>268</ele>
        <time>2019-04-25T08:48:01.000Z</time>
      </trkpt>
      <trkpt lat="38.71153204701840877532958984375" lon="-7.76250994764268398284912109375">
        <ele>267.79998779296875</ele>
        <time>2019-04-25T08:48:12.000Z</time>
      </trkpt>
      <trkpt lat="38.711512349545955657958984375" lon="-7.7624572254717350006103515625">
        <ele>267.600006103515625</ele>
        <time>2019-04-25T08:48:16.000Z</time>
      </trkpt>
      <trkpt lat="38.71147035621106624603271484375" lon="-7.7624391205608844757080078125">
        <ele>267.399993896484375</ele>
        <time>2019-04-25T08:48:20.000Z</time>
      </trkpt>
      <trkpt lat="38.71145862154662609100341796875" lon="-7.7623992227017879486083984375">
        <ele>267.399993896484375</ele>
        <time>2019-04-25T08:48:24.000Z</time>
      </trkpt>
      <trkpt lat="38.7114394269883632659912109375" lon="-7.762353122234344482421875">
        <ele>267.20001220703125</ele>
        <time>2019-04-25T08:48:30.000Z</time>
      </trkpt>
      <trkpt lat="38.71121789328753948211669921875" lon="-7.76177217252552509307861328125">
        <ele>263.600006103515625</ele>
        <time>2019-04-25T08:48:46.000Z</time>
      </trkpt>
      <trkpt lat="38.71110155247151851654052734375" lon="-7.76139230467379093170166015625">
        <ele>261.79998779296875</ele>
        <time>2019-04-25T08:48:53.000Z</time>
      </trkpt>
      <trkpt lat="38.7109951861202716827392578125" lon="-7.76117638684809207916259765625">
        <ele>261.399993896484375</ele>
        <time>2019-04-25T08:48:58.000Z</time>
      </trkpt>
      <trkpt lat="38.71094279922544956207275390625" lon="-7.76108820922672748565673828125">
        <ele>261.399993896484375</ele>
        <time>2019-04-25T08:49:00.000Z</time>
      </trkpt>
      <trkpt lat="38.71063317172229290008544921875" lon="-7.76060658507049083709716796875">
        <ele>259.79998779296875</ele>
        <time>2019-04-25T08:49:10.000Z</time>
      </trkpt>
      <trkpt lat="38.7105264700949192047119140625" lon="-7.76044028811156749725341796875">
        <ele>258.79998779296875</ele>
        <time>2019-04-25T08:49:14.000Z</time>
      </trkpt>
      <trkpt lat="38.7102032639086246490478515625" lon="-7.7598424069583415985107421875">
        <ele>254.600006103515625</ele>
        <time>2019-04-25T08:49:29.000Z</time>
      </trkpt>
      <trkpt lat="38.7101214565336704254150390625" lon="-7.75972279720008373260498046875">
        <ele>254.600006103515625</ele>
        <time>2019-04-25T08:49:32.000Z</time>
      </trkpt>
      <trkpt lat="38.7099913693964481353759765625" lon="-7.7595114894211292266845703125">
        <ele>254.399993896484375</ele>
        <time>2019-04-25T08:49:37.000Z</time>
      </trkpt>
      <trkpt lat="38.70991651900112628936767578125" lon="-7.759081833064556121826171875">
        <ele>254</ele>
        <time>2019-04-25T08:49:49.000Z</time>
      </trkpt>
      <trkpt lat="38.7098988331854343414306640625" lon="-7.7590514905750751495361328125">
        <ele>254.1999969482421875</ele>
        <time>2019-04-25T08:49:58.000Z</time>
      </trkpt>
      <trkpt lat="38.70982096530497074127197265625" lon="-7.75897781364619731903076171875">
        <ele>254.399993896484375</ele>
        <time>2019-04-25T08:50:09.000Z</time>
      </trkpt>
      <trkpt lat="38.70982683263719081878662109375" lon="-7.7589214034378528594970703125">
        <ele>254.600006103515625</ele>
        <time>2019-04-25T08:50:17.000Z</time>
      </trkpt>
      <trkpt lat="38.70990344323217868804931640625" lon="-7.75885929353535175323486328125">
        <ele>254.600006103515625</ele>
        <time>2019-04-25T08:50:23.000Z</time>
      </trkpt>
      <trkpt lat="38.71006018482148647308349609375" lon="-7.75846199132502079010009765625">
        <ele>255</ele>
        <time>2019-04-25T08:50:51.000Z</time>
      </trkpt>
      <trkpt lat="38.710057921707630157470703125" lon="-7.75838940404355525970458984375">
        <ele>254.8000030517578125</ele>
        <time>2019-04-25T08:50:56.000Z</time>
      </trkpt>
      <trkpt lat="38.710076026618480682373046875" lon="-7.75825026445090770721435546875">
        <ele>255.399993896484375</ele>
        <time>2019-04-25T08:51:07.000Z</time>
      </trkpt>
      <trkpt lat="38.71009572409093379974365234375" lon="-7.75817432440817356109619140625">
        <ele>255.600006103515625</ele>
        <time>2019-04-25T08:53:09.000Z</time>
      </trkpt>
      <trkpt lat="38.71018205769360065460205078125" lon="-7.75785363279283046722412109375">
        <ele>256.79998779296875</ele>
        <time>2019-04-25T08:53:23.000Z</time>
      </trkpt>
      <trkpt lat="38.71022363193333148956298828125" lon="-7.75772455148398876190185546875">
        <ele>257.399993896484375</ele>
        <time>2019-04-25T08:53:28.000Z</time>
      </trkpt>
      <trkpt lat="38.7102478556334972381591796875" lon="-7.75761592201888561248779296875">
        <ele>257.79998779296875</ele>
        <time>2019-04-25T08:53:32.000Z</time>
      </trkpt>
      <trkpt lat="38.7103226222097873687744140625" lon="-7.75691754184663295745849609375">
        <ele>262.600006103515625</ele>
        <time>2019-04-25T08:53:50.000Z</time>
      </trkpt>
      <trkpt lat="38.71062763966619968414306640625" lon="-7.75633818469941616058349609375">
        <ele>265</ele>
        <time>2019-04-25T08:54:12.000Z</time>
      </trkpt>
      <trkpt lat="38.7111417017877101898193359375" lon="-7.75613249279558658599853515625">
        <ele>266.399993896484375</ele>
        <time>2019-04-25T08:54:36.000Z</time>
      </trkpt>
      <trkpt lat="38.71161930263042449951171875" lon="-7.75580643676221370697021484375">
        <ele>269.600006103515625</ele>
        <time>2019-04-25T08:54:56.000Z</time>
      </trkpt>
      <trkpt lat="38.71172617189586162567138671875" lon="-7.7557922713458538055419921875">
        <ele>270.20001220703125</ele>
        <time>2019-04-25T08:54:59.000Z</time>
      </trkpt>
      <trkpt lat="38.712080977857112884521484375" lon="-7.755634523928165435791015625">
        <ele>271.79998779296875</ele>
        <time>2019-04-25T08:55:07.000Z</time>
      </trkpt>
      <trkpt lat="38.71263720095157623291015625" lon="-7.7556122280657291412353515625">
        <ele>273.20001220703125</ele>
        <time>2019-04-25T08:55:24.000Z</time>
      </trkpt>
      <trkpt lat="38.71312536299228668212890625" lon="-7.75574172846972942352294921875">
        <ele>274.79998779296875</ele>
        <time>2019-04-25T08:55:39.000Z</time>
      </trkpt>
      <trkpt lat="38.7133515067398548126220703125" lon="-7.75579738430678844451904296875">
        <ele>275</ele>
        <time>2019-04-25T08:55:48.000Z</time>
      </trkpt>
      <trkpt lat="38.71386305429041385650634765625" lon="-7.75547501631081104278564453125">
        <ele>277</ele>
        <time>2019-04-25T08:56:07.000Z</time>
      </trkpt>
      <trkpt lat="38.714093305170536041259765625" lon="-7.754831202328205108642578125">
        <ele>280</ele>
        <time>2019-04-25T08:56:24.000Z</time>
      </trkpt>
      <trkpt lat="38.7142901122570037841796875" lon="-7.7543871290981769561767578125">
        <ele>281.399993896484375</ele>
        <time>2019-04-25T08:56:39.000Z</time>
      </trkpt>
      <trkpt lat="38.714325316250324249267578125" lon="-7.75426014326512813568115234375">
        <ele>281.79998779296875</ele>
        <time>2019-04-25T08:56:43.000Z</time>
      </trkpt>
      <trkpt lat="38.7146295793354511260986328125" lon="-7.7536981366574764251708984375">
        <ele>283.20001220703125</ele>
        <time>2019-04-25T08:57:02.000Z</time>
      </trkpt>
      <trkpt lat="38.71493191458284854888916015625" lon="-7.7531184442341327667236328125">
        <ele>284.79998779296875</ele>
        <time>2019-04-25T08:57:23.000Z</time>
      </trkpt>
      <trkpt lat="38.7151549570262432098388671875" lon="-7.7525327168405055999755859375">
        <ele>287.399993896484375</ele>
        <time>2019-04-25T08:57:46.000Z</time>
      </trkpt>
      <trkpt lat="38.7153303064405918121337890625" lon="-7.75186903774738311767578125">
        <ele>290</ele>
        <time>2019-04-25T08:58:14.000Z</time>
      </trkpt>
      <trkpt lat="38.71542694978415966033935546875" lon="-7.75118817575275897979736328125">
        <ele>291.79998779296875</ele>
        <time>2019-04-25T08:58:37.000Z</time>
      </trkpt>
      <trkpt lat="38.7154204957187175750732421875" lon="-7.75113369338214397430419921875">
        <ele>292</ele>
        <time>2019-04-25T08:58:40.000Z</time>
      </trkpt>
      <trkpt lat="38.71541890315711498260498046875" lon="-7.75108273141086101531982421875">
        <ele>292</ele>
        <time>2019-04-25T08:58:45.000Z</time>
      </trkpt>
      <trkpt lat="38.7154372595250606536865234375" lon="-7.75109329260885715484619140625">
        <ele>292</ele>
        <time>2019-04-25T08:59:00.000Z</time>
      </trkpt>
      <trkpt lat="38.71552602387964725494384765625" lon="-7.75113922543823719024658203125">
        <ele>292</ele>
        <time>2019-04-25T08:59:04.000Z</time>
      </trkpt>
      <trkpt lat="38.71578569523990154266357421875" lon="-7.7513056062161922454833984375">
        <ele>291.600006103515625</ele>
        <time>2019-04-25T08:59:21.000Z</time>
      </trkpt>
      <trkpt lat="38.71581922285258769989013671875" lon="-7.751320190727710723876953125">
        <ele>291.399993896484375</ele>
        <time>2019-04-25T09:00:22.000Z</time>
      </trkpt>
      <trkpt lat="38.71628894470632076263427734375" lon="-7.75161431171000003814697265625">
        <ele>291.399993896484375</ele>
        <time>2019-04-25T09:00:49.000Z</time>
      </trkpt>
      <trkpt lat="38.716243766248226165771484375" lon="-7.751587741076946258544921875">
        <ele>291.20001220703125</ele>
        <time>2019-04-25T09:01:29.000Z</time>
      </trkpt>
      <trkpt lat="38.71618115343153476715087890625" lon="-7.7515527047216892242431640625">
        <ele>291.20001220703125</ele>
        <time>2019-04-25T09:01:33.000Z</time>
      </trkpt>
      <trkpt lat="38.715692572295665740966796875" lon="-7.75124316103756427764892578125">
        <ele>292</ele>
        <time>2019-04-25T09:02:09.000Z</time>
      </trkpt>
      <trkpt lat="38.715404905378818511962890625" lon="-7.75107166729867458343505859375">
        <ele>292</ele>
        <time>2019-04-25T09:02:33.000Z</time>
      </trkpt>
      <trkpt lat="38.7153195776045322418212890625" lon="-7.75095532648265361785888671875">
        <ele>292</ele>
        <time>2019-04-25T09:03:47.000Z</time>
      </trkpt>
      <trkpt lat="38.71519544161856174468994140625" lon="-7.750862538814544677734375">
        <ele>292</ele>
        <time>2019-04-25T09:04:01.000Z</time>
      </trkpt>
      <trkpt lat="38.715148083865642547607421875" lon="-7.75087184272706508636474609375">
        <ele>292.20001220703125</ele>
        <time>2019-04-25T09:04:05.000Z</time>
      </trkpt>
      <trkpt lat="38.7150402925908565521240234375" lon="-7.75090402923524379730224609375">
        <ele>292.600006103515625</ele>
        <time>2019-04-25T09:04:15.000Z</time>
      </trkpt>
      <trkpt lat="38.71499611996114253997802734375" lon="-7.75091283023357391357421875">
        <ele>292.79998779296875</ele>
        <time>2019-04-25T09:04:20.000Z</time>
      </trkpt>
      <trkpt lat="38.71502612717449665069580078125" lon="-7.75090704672038555145263671875">
        <ele>292.79998779296875</ele>
        <time>2019-04-25T09:04:42.000Z</time>
      </trkpt>
      <trkpt lat="38.7152904085814952850341796875" lon="-7.75076790712773799896240234375">
        <ele>292.20001220703125</ele>
        <time>2019-04-25T09:05:04.000Z</time>
      </trkpt>
      <trkpt lat="38.71537129394710063934326171875" lon="-7.75073178112506866455078125">
        <ele>292.399993896484375</ele>
        <time>2019-04-25T09:05:12.000Z</time>
      </trkpt>
      <trkpt lat="38.7153893150389194488525390625" lon="-7.7507182024419307708740234375">
        <ele>292.399993896484375</ele>
        <time>2019-04-25T09:05:32.000Z</time>
      </trkpt>
      <trkpt lat="38.71546919457614421844482421875" lon="-7.7506595291197299957275390625">
        <ele>292.600006103515625</ele>
        <time>2019-04-25T09:05:36.000Z</time>
      </trkpt>
      <trkpt lat="38.71586532332003116607666015625" lon="-7.75019492022693157196044921875">
        <ele>293.600006103515625</ele>
        <time>2019-04-25T09:05:53.000Z</time>
      </trkpt>
      <trkpt lat="38.71630512177944183349609375" lon="-7.74979527108371257781982421875">
        <ele>295</ele>
        <time>2019-04-25T09:06:06.000Z</time>
      </trkpt>
      <trkpt lat="38.716776855289936065673828125" lon="-7.749441973865032196044921875">
        <ele>296.600006103515625</ele>
        <time>2019-04-25T09:06:24.000Z</time>
      </trkpt>
      <trkpt lat="38.7171525321900844573974609375" lon="-7.7489221282303333282470703125">
        <ele>298</ele>
        <time>2019-04-25T09:06:43.000Z</time>
      </trkpt>
      <trkpt lat="38.71750985272228717803955078125" lon="-7.748359031975269317626953125">
        <ele>301.20001220703125</ele>
        <time>2019-04-25T09:07:00.000Z</time>
      </trkpt>
      <trkpt lat="38.71797974221408367156982421875" lon="-7.74806491099298000335693359375">
        <ele>302.79998779296875</ele>
        <time>2019-04-25T09:07:19.000Z</time>
      </trkpt>
      <trkpt lat="38.71851861476898193359375" lon="-7.74788327515125274658203125">
        <ele>307</ele>
        <time>2019-04-25T09:07:42.000Z</time>
      </trkpt>
      <trkpt lat="38.71897685341536998748779296875" lon="-7.74786022491753101348876953125">
        <ele>307.20001220703125</ele>
        <time>2019-04-25T09:08:04.000Z</time>
      </trkpt>
      <trkpt lat="38.71937566436827182769775390625" lon="-7.7474091947078704833984375">
        <ele>308.79998779296875</ele>
        <time>2019-04-25T09:08:26.000Z</time>
      </trkpt>
      <trkpt lat="38.7198696099221706390380859375" lon="-7.7471796981990337371826171875">
        <ele>306.79998779296875</ele>
        <time>2019-04-25T09:08:47.000Z</time>
      </trkpt>
      <trkpt lat="38.72007639147341251373291015625" lon="-7.74719587527215480804443359375">
        <ele>307.20001220703125</ele>
        <time>2019-04-25T09:08:56.000Z</time>
      </trkpt>
      <trkpt lat="38.720128946006298065185546875" lon="-7.7471382915973663330078125">
        <ele>307</ele>
        <time>2019-04-25T09:09:02.000Z</time>
      </trkpt>
      <trkpt lat="38.72023061849176883697509765625" lon="-7.74686579592525959014892578125">
        <ele>305.600006103515625</ele>
        <time>2019-04-25T09:12:24.000Z</time>
      </trkpt>
      <trkpt lat="38.72025324963033199310302734375" lon="-7.746824137866497039794921875">
        <ele>305.20001220703125</ele>
        <time>2019-04-25T09:12:29.000Z</time>
      </trkpt>
      <trkpt lat="38.720229528844356536865234375" lon="-7.74688549339771270751953125">
        <ele>305.600006103515625</ele>
        <time>2019-04-25T09:13:09.000Z</time>
      </trkpt>
      <trkpt lat="38.72020765207707881927490234375" lon="-7.74695917032659053802490234375">
        <ele>306.20001220703125</ele>
        <time>2019-04-25T09:13:16.000Z</time>
      </trkpt>
      <trkpt lat="38.720219470560550689697265625" lon="-7.746909968554973602294921875">
        <ele>305.79998779296875</ele>
        <time>2019-04-25T09:14:41.000Z</time>
      </trkpt>
      <trkpt lat="38.7203104980289936065673828125" lon="-7.74665541015565395355224609375">
        <ele>304.20001220703125</ele>
        <time>2019-04-25T09:14:47.000Z</time>
      </trkpt>
      <trkpt lat="38.720389120280742645263671875" lon="-7.74649263359606266021728515625">
        <ele>303.399993896484375</ele>
        <time>2019-04-25T09:14:51.000Z</time>
      </trkpt>
      <trkpt lat="38.72063026763498783111572265625" lon="-7.74613020010292530059814453125">
        <ele>301.399993896484375</ele>
        <time>2019-04-25T09:14:59.000Z</time>
      </trkpt>
      <trkpt lat="38.72096202336251735687255859375" lon="-7.74559400975704193115234375">
        <ele>298.600006103515625</ele>
        <time>2019-04-25T09:15:17.000Z</time>
      </trkpt>
      <trkpt lat="38.72108875773847103118896484375" lon="-7.74530625902116298675537109375">
        <ele>297.79998779296875</ele>
        <time>2019-04-25T09:15:30.000Z</time>
      </trkpt>
      <trkpt lat="38.72110300697386264801025390625" lon="-7.74527491070330142974853515625">
        <ele>297.79998779296875</ele>
        <time>2019-04-25T09:15:40.000Z</time>
      </trkpt>
      <trkpt lat="38.7212573178112506866455078125" lon="-7.74459430016577243804931640625">
        <ele>296.20001220703125</ele>
        <time>2019-04-25T09:15:55.000Z</time>
      </trkpt>
      <trkpt lat="38.721229992806911468505859375" lon="-7.74394713342189788818359375">
        <ele>294</ele>
        <time>2019-04-25T09:16:09.000Z</time>
      </trkpt>
      <trkpt lat="38.7212221138179302215576171875" lon="-7.743330895900726318359375">
        <ele>291</ele>
        <time>2019-04-25T09:16:21.000Z</time>
      </trkpt>
      <trkpt lat="38.72115815989673137664794921875" lon="-7.74284332059323787689208984375">
        <ele>289.20001220703125</ele>
        <time>2019-04-25T09:16:35.000Z</time>
      </trkpt>
      <trkpt lat="38.7211550585925579071044921875" lon="-7.74273670278489589691162109375">
        <ele>288.79998779296875</ele>
        <time>2019-04-25T09:17:38.000Z</time>
      </trkpt>
      <trkpt lat="38.72115614823997020721435546875" lon="-7.74271574802696704864501953125">
        <ele>288.79998779296875</ele>
        <time>2019-04-25T09:17:41.000Z</time>
      </trkpt>
      <trkpt lat="38.72115279547870159149169921875" lon="-7.74267576634883880615234375">
        <ele>288.600006103515625</ele>
        <time>2019-04-25T09:17:46.000Z</time>
      </trkpt>
      <trkpt lat="38.721072413027286529541015625" lon="-7.74212599731981754302978515625">
        <ele>285.79998779296875</ele>
        <time>2019-04-25T09:18:05.000Z</time>
      </trkpt>
      <trkpt lat="38.72111658565700054168701171875" lon="-7.74185794405639171600341796875">
        <ele>284.399993896484375</ele>
        <time>2019-04-25T09:18:15.000Z</time>
      </trkpt>
      <trkpt lat="38.72112262062728404998779296875" lon="-7.74182860739529132843017578125">
        <ele>284.20001220703125</ele>
        <time>2019-04-25T09:18:16.000Z</time>
      </trkpt>
      <trkpt lat="38.72128187678754329681396484375" lon="-7.7415701933205127716064453125">
        <ele>282</ele>
        <time>2019-04-25T09:18:24.000Z</time>
      </trkpt>
      <trkpt lat="38.72135639190673828125" lon="-7.7415083348751068115234375">
        <ele>281.20001220703125</ele>
        <time>2019-04-25T09:18:26.000Z</time>
      </trkpt>
      <trkpt lat="38.72189618647098541259765625" lon="-7.74134631268680095672607421875">
        <ele>277.79998779296875</ele>
        <time>2019-04-25T09:18:35.000Z</time>
      </trkpt>
      <trkpt lat="38.72218024916946887969970703125" lon="-7.7412186563014984130859375">
        <ele>276.79998779296875</ele>
        <time>2019-04-25T09:18:39.000Z</time>
      </trkpt>
      <trkpt lat="38.72246875427663326263427734375" lon="-7.74108521640300750732421875">
        <ele>275.600006103515625</ele>
        <time>2019-04-25T09:18:43.000Z</time>
      </trkpt>
      <trkpt lat="38.72292607091367244720458984375" lon="-7.7410163171589374542236328125">
        <ele>275.20001220703125</ele>
        <time>2019-04-25T09:18:51.000Z</time>
      </trkpt>
      <trkpt lat="38.72348112054169178009033203125" lon="-7.741031907498836517333984375">
        <ele>276.399993896484375</ele>
        <time>2019-04-25T09:19:06.000Z</time>
      </trkpt>
      <trkpt lat="38.72358120046555995941162109375" lon="-7.7410381101071834564208984375">
        <ele>276.600006103515625</ele>
        <time>2019-04-25T09:19:08.000Z</time>
      </trkpt>
      <trkpt lat="38.723868615925312042236328125" lon="-7.7411410398781299591064453125">
        <ele>276.79998779296875</ele>
        <time>2019-04-25T09:19:13.000Z</time>
      </trkpt>
      <trkpt lat="38.7242694385349750518798828125" lon="-7.7413593046367168426513671875">
        <ele>275.399993896484375</ele>
        <time>2019-04-25T09:19:21.000Z</time>
      </trkpt>
      <trkpt lat="38.72436373494565486907958984375" lon="-7.74140934459865093231201171875">
        <ele>274.600006103515625</ele>
        <time>2019-04-25T09:19:23.000Z</time>
      </trkpt>
      <trkpt lat="38.7244959175586700439453125" lon="-7.7414853684604167938232421875">
        <ele>275</ele>
        <time>2019-04-25T09:19:26.000Z</time>
      </trkpt>
      <trkpt lat="38.72484393417835235595703125" lon="-7.7416737936437129974365234375">
        <ele>274.20001220703125</ele>
        <time>2019-04-25T09:19:36.000Z</time>
      </trkpt>
      <trkpt lat="38.72535330243408679962158203125" lon="-7.7418840117752552032470703125">
        <ele>274.20001220703125</ele>
        <time>2019-04-25T09:19:51.000Z</time>
      </trkpt>
      <trkpt lat="38.72585252858698368072509765625" lon="-7.74213396012783050537109375">
        <ele>276.79998779296875</ele>
        <time>2019-04-25T09:20:07.000Z</time>
      </trkpt>
      <trkpt lat="38.72632023878395557403564453125" lon="-7.7423961460590362548828125">
        <ele>277.79998779296875</ele>
        <time>2019-04-25T09:20:23.000Z</time>
      </trkpt>
      <trkpt lat="38.726399280130863189697265625" lon="-7.7424181066453456878662109375">
        <ele>277.600006103515625</ele>
        <time>2019-04-25T09:20:25.000Z</time>
      </trkpt>
      <trkpt lat="38.72694100253283977508544921875" lon="-7.74239589460194110870361328125">
        <ele>275.600006103515625</ele>
        <time>2019-04-25T09:20:38.000Z</time>
      </trkpt>
      <trkpt lat="38.7274838984012603759765625" lon="-7.74229296483099460601806640625">
        <ele>273</ele>
        <time>2019-04-25T09:20:50.000Z</time>
      </trkpt>
      <trkpt lat="38.72789117507636547088623046875" lon="-7.74215265177190303802490234375">
        <ele>270.79998779296875</ele>
        <time>2019-04-25T09:20:58.000Z</time>
      </trkpt>
      <trkpt lat="38.72814573347568511962890625" lon="-7.7421140111982822418212890625">
        <ele>269.399993896484375</ele>
        <time>2019-04-25T09:21:03.000Z</time>
      </trkpt>
      <trkpt lat="38.728274144232273101806640625" lon="-7.74206849746406078338623046875">
        <ele>269</ele>
        <time>2019-04-25T09:21:06.000Z</time>
      </trkpt>
      <trkpt lat="38.72843599878251552581787109375" lon="-7.74213530123233795166015625">
        <ele>269.20001220703125</ele>
        <time>2019-04-25T09:21:10.000Z</time>
      </trkpt>
      <trkpt lat="38.72853155247867107391357421875" lon="-7.74216908030211925506591796875">
        <ele>269.20001220703125</ele>
        <time>2019-04-25T09:21:12.000Z</time>
      </trkpt>
      <trkpt lat="38.72861520387232303619384765625" lon="-7.7421783842146396636962890625">
        <ele>269.20001220703125</ele>
        <time>2019-04-25T09:21:14.000Z</time>
      </trkpt>
      <trkpt lat="38.72874160297214984893798828125" lon="-7.7421803958714008331298828125">
        <ele>269.20001220703125</ele>
        <time>2019-04-25T09:21:17.000Z</time>
      </trkpt>
      <trkpt lat="38.72900177724659442901611328125" lon="-7.7422816492617130279541015625">
        <ele>269.20001220703125</ele>
        <time>2019-04-25T09:21:25.000Z</time>
      </trkpt>
      <trkpt lat="38.7290905416011810302734375" lon="-7.74229799397289752960205078125">
        <ele>269</ele>
        <time>2019-04-25T09:21:31.000Z</time>
      </trkpt>
      <trkpt lat="38.7291379831731319427490234375" lon="-7.742303274571895599365234375">
        <ele>269</ele>
        <time>2019-04-25T09:22:41.000Z</time>
      </trkpt>
      <trkpt lat="38.72959546744823455810546875" lon="-7.7420613728463649749755859375">
        <ele>267.600006103515625</ele>
        <time>2019-04-25T09:22:57.000Z</time>
      </trkpt>
      <trkpt lat="38.7297101318836212158203125" lon="-7.741971351206302642822265625">
        <ele>267.20001220703125</ele>
        <time>2019-04-25T09:23:00.000Z</time>
      </trkpt>
      <trkpt lat="38.7299061007797718048095703125" lon="-7.7418726123869419097900390625">
        <ele>266.79998779296875</ele>
        <time>2019-04-25T09:23:06.000Z</time>
      </trkpt>
      <trkpt lat="38.73033215291798114776611328125" lon="-7.741712518036365509033203125">
        <ele>266.20001220703125</ele>
        <time>2019-04-25T09:23:17.000Z</time>
      </trkpt>
      <trkpt lat="38.7306752242147922515869140625" lon="-7.74167857132852077484130859375">
        <ele>266.600006103515625</ele>
        <time>2019-04-25T09:23:25.000Z</time>
      </trkpt>
      <trkpt lat="38.73085183091461658477783203125" lon="-7.74164043366909027099609375">
        <ele>266.79998779296875</ele>
        <time>2019-04-25T09:23:29.000Z</time>
      </trkpt>
      <trkpt lat="38.73111384920775890350341796875" lon="-7.7415564469993114471435546875">
        <ele>267.20001220703125</ele>
        <time>2019-04-25T09:23:35.000Z</time>
      </trkpt>
      <trkpt lat="38.73158968985080718994140625" lon="-7.7414830215275287628173828125">
        <ele>268</ele>
        <time>2019-04-25T09:23:46.000Z</time>
      </trkpt>
      <trkpt lat="38.73175623826682567596435546875" lon="-7.74149199016392230987548828125">
        <ele>268.399993896484375</ele>
        <time>2019-04-25T09:23:50.000Z</time>
      </trkpt>
      <trkpt lat="38.7322781793773174285888671875" lon="-7.741738669574260711669921875">
        <ele>268.79998779296875</ele>
        <time>2019-04-25T09:24:06.000Z</time>
      </trkpt>
      <trkpt lat="38.7327562831342220306396484375" lon="-7.74207050912082195281982421875">
        <ele>269.600006103515625</ele>
        <time>2019-04-25T09:24:21.000Z</time>
      </trkpt>
      <trkpt lat="38.7328240089118480682373046875" lon="-7.7418320439755916595458984375">
        <ele>268.399993896484375</ele>
        <time>2019-04-25T09:24:27.000Z</time>
      </trkpt>
      <trkpt lat="38.73280816711485385894775390625" lon="-7.74155795574188232421875">
        <ele>268.399993896484375</ele>
        <time>2019-04-25T09:24:32.000Z</time>
      </trkpt>
      <trkpt lat="38.7327479012310504913330078125" lon="-7.74122980423271656036376953125">
        <ele>268.600006103515625</ele>
        <time>2019-04-25T09:24:41.000Z</time>
      </trkpt>
      <trkpt lat="38.7327884696424007415771484375" lon="-7.7411199174821376800537109375">
        <ele>268.79998779296875</ele>
        <time>2019-04-25T09:24:46.000Z</time>
      </trkpt>
      <trkpt lat="38.73296138830482959747314453125" lon="-7.74096694774925708770751953125">
        <ele>269.20001220703125</ele>
        <time>2019-04-25T09:24:54.000Z</time>
      </trkpt>
      <trkpt lat="38.7335083074867725372314453125" lon="-7.7408855594694614410400390625">
        <ele>270</ele>
        <time>2019-04-25T09:25:08.000Z</time>
      </trkpt>
      <trkpt lat="38.7335461936891078948974609375" lon="-7.74086737073957920074462890625">
        <ele>270</ele>
        <time>2019-04-25T09:25:09.000Z</time>
      </trkpt>
      <trkpt lat="38.73374157585203647613525390625" lon="-7.74073342792689800262451171875">
        <ele>270.399993896484375</ele>
        <time>2019-04-25T09:25:14.000Z</time>
      </trkpt>
      <trkpt lat="38.73392681591212749481201171875" lon="-7.7405603416264057159423828125">
        <ele>270.79998779296875</ele>
        <time>2019-04-25T09:25:19.000Z</time>
      </trkpt>
      <trkpt lat="38.734161593019962310791015625" lon="-7.74028684012591838836669921875">
        <ele>271.399993896484375</ele>
        <time>2019-04-25T09:25:26.000Z</time>
      </trkpt>
      <trkpt lat="38.73422889970242977142333984375" lon="-7.7402079664170742034912109375">
        <ele>271.600006103515625</ele>
        <time>2019-04-25T09:25:28.000Z</time>
      </trkpt>
      <trkpt lat="38.73445873148739337921142578125" lon="-7.73983321152627468109130859375">
        <ele>272.399993896484375</ele>
        <time>2019-04-25T09:25:37.000Z</time>
      </trkpt>
      <trkpt lat="38.73474841006100177764892578125" lon="-7.73922870866954326629638671875">
        <ele>273.600006103515625</ele>
        <time>2019-04-25T09:25:53.000Z</time>
      </trkpt>
      <trkpt lat="38.73523405753076076507568359375" lon="-7.7388591505587100982666015625">
        <ele>274.399993896484375</ele>
        <time>2019-04-25T09:26:07.000Z</time>
      </trkpt>
      <trkpt lat="38.735397420823574066162109375" lon="-7.73878145031630992889404296875">
        <ele>274.399993896484375</ele>
        <time>2019-04-25T09:26:11.000Z</time>
      </trkpt>
      <trkpt lat="38.7356044538319110870361328125" lon="-7.73868891410529613494873046875">
        <ele>274.20001220703125</ele>
        <time>2019-04-25T09:26:16.000Z</time>
      </trkpt>
      <trkpt lat="38.735716603696346282958984375" lon="-7.7385325916111469268798828125">
        <ele>275</ele>
        <time>2019-04-25T09:26:20.000Z</time>
      </trkpt>
      <trkpt lat="38.7361801229417324066162109375" lon="-7.73818952031433582305908203125">
        <ele>275.600006103515625</ele>
        <time>2019-04-25T09:26:39.000Z</time>
      </trkpt>
      <trkpt lat="38.73673148453235626220703125" lon="-7.73804669268429279327392578125">
        <ele>275.20001220703125</ele>
        <time>2019-04-25T09:27:02.000Z</time>
      </trkpt>
      <trkpt lat="38.7372818402945995330810546875" lon="-7.737915180623531341552734375">
        <ele>274.79998779296875</ele>
        <time>2019-04-25T09:27:19.000Z</time>
      </trkpt>
      <trkpt lat="38.7378266640007495880126953125" lon="-7.73808239959180355072021484375">
        <ele>274</ele>
        <time>2019-04-25T09:27:37.000Z</time>
      </trkpt>
      <trkpt lat="38.73791274614632129669189453125" lon="-7.738107629120349884033203125">
        <ele>273.79998779296875</ele>
        <time>2019-04-25T09:27:39.000Z</time>
      </trkpt>
      <trkpt lat="38.73804015107452869415283203125" lon="-7.738111652433872222900390625">
        <ele>273.600006103515625</ele>
        <time>2019-04-25T09:27:42.000Z</time>
      </trkpt>
      <trkpt lat="38.73821675777435302734375" lon="-7.73801115341484546661376953125">
        <ele>273.79998779296875</ele>
        <time>2019-04-25T09:27:47.000Z</time>
      </trkpt>
      <trkpt lat="38.73871372081339359283447265625" lon="-7.73771259002387523651123046875">
        <ele>274.600006103515625</ele>
        <time>2019-04-25T09:28:01.000Z</time>
      </trkpt>
      <trkpt lat="38.73879536055028438568115234375" lon="-7.73770923726260662078857421875">
        <ele>274.600006103515625</ele>
        <time>2019-04-25T09:28:03.000Z</time>
      </trkpt>
      <trkpt lat="38.739088475704193115234375" lon="-7.737728096544742584228515625">
        <ele>274.600006103515625</ele>
        <time>2019-04-25T09:28:10.000Z</time>
      </trkpt>
      <trkpt lat="38.73921076767146587371826171875" lon="-7.73771007545292377471923828125">
        <ele>274.600006103515625</ele>
        <time>2019-04-25T09:28:13.000Z</time>
      </trkpt>
      <trkpt lat="38.73970949091017246246337890625" lon="-7.73737706243991851806640625">
        <ele>277</ele>
        <time>2019-04-25T09:28:30.000Z</time>
      </trkpt>
      <trkpt lat="38.74013043008744716644287109375" lon="-7.73698990233242511749267578125">
        <ele>280.399993896484375</ele>
        <time>2019-04-25T09:28:43.000Z</time>
      </trkpt>
      <trkpt lat="38.74049437232315540313720703125" lon="-7.73654817603528499603271484375">
        <ele>281</ele>
        <time>2019-04-25T09:28:55.000Z</time>
      </trkpt>
      <trkpt lat="38.7407284788787364959716796875" lon="-7.73595691658556461334228515625">
        <ele>282.20001220703125</ele>
        <time>2019-04-25T09:29:18.000Z</time>
      </trkpt>
      <trkpt lat="38.74099812470376491546630859375" lon="-7.7353555150330066680908203125">
        <ele>281.79998779296875</ele>
        <time>2019-04-25T09:29:43.000Z</time>
      </trkpt>
      <trkpt lat="38.74111480079591274261474609375" lon="-7.73492745123803615570068359375">
        <ele>281.79998779296875</ele>
        <time>2019-04-25T09:29:55.000Z</time>
      </trkpt>
      <trkpt lat="38.741296939551830291748046875" lon="-7.734863497316837310791015625">
        <ele>280.600006103515625</ele>
        <time>2019-04-25T09:30:00.000Z</time>
      </trkpt>
      <trkpt lat="38.74185475520789623260498046875" lon="-7.73483206517994403839111328125">
        <ele>277.399993896484375</ele>
        <time>2019-04-25T09:30:19.000Z</time>
      </trkpt>
      <trkpt lat="38.74189783819019794464111328125" lon="-7.73478864692151546478271484375">
        <ele>277.399993896484375</ele>
        <time>2019-04-25T09:30:21.000Z</time>
      </trkpt>
      <trkpt lat="38.741933964192867279052734375" lon="-7.73465286009013652801513671875">
        <ele>277.399993896484375</ele>
        <time>2019-04-25T09:30:25.000Z</time>
      </trkpt>
      <trkpt lat="38.7419002689421176910400390625" lon="-7.7342450805008411407470703125">
        <ele>278</ele>
        <time>2019-04-25T09:30:39.000Z</time>
      </trkpt>
      <trkpt lat="38.74188979156315326690673828125" lon="-7.7342149056494235992431640625">
        <ele>278</ele>
        <time>2019-04-25T09:36:11.000Z</time>
      </trkpt>
      <trkpt lat="38.74182743020355701446533203125" lon="-7.73407769389450550079345703125">
        <ele>279</ele>
        <time>2019-04-25T09:36:16.000Z</time>
      </trkpt>
      <trkpt lat="38.7416835129261016845703125" lon="-7.7334011904895305633544921875">
        <ele>282.600006103515625</ele>
        <time>2019-04-25T09:36:33.000Z</time>
      </trkpt>
      <trkpt lat="38.7420058809220790863037109375" lon="-7.7328821830451488494873046875">
        <ele>285</ele>
        <time>2019-04-25T09:36:49.000Z</time>
      </trkpt>
      <trkpt lat="38.74233755283057689666748046875" lon="-7.73239410482347011566162109375">
        <ele>287.79998779296875</ele>
        <time>2019-04-25T09:37:07.000Z</time>
      </trkpt>
      <trkpt lat="38.74257962219417095184326171875" lon="-7.7317880094051361083984375">
        <ele>291.399993896484375</ele>
        <time>2019-04-25T09:37:38.000Z</time>
      </trkpt>
      <trkpt lat="38.74272353947162628173828125" lon="-7.731103710830211639404296875">
        <ele>294.20001220703125</ele>
        <time>2019-04-25T09:38:07.000Z</time>
      </trkpt>
      <trkpt lat="38.74292110092937946319580078125" lon="-7.7304447256028652191162109375">
        <ele>296.79998779296875</ele>
        <time>2019-04-25T09:38:30.000Z</time>
      </trkpt>
      <trkpt lat="38.7431506812572479248046875" lon="-7.7298031747341156005859375">
        <ele>298.399993896484375</ele>
        <time>2019-04-25T09:38:54.000Z</time>
      </trkpt>
      <trkpt lat="38.74316065572202205657958984375" lon="-7.72935851477086544036865234375">
        <ele>299</ele>
        <time>2019-04-25T09:39:07.000Z</time>
      </trkpt>
      <trkpt lat="38.743046410381793975830078125" lon="-7.7291958220303058624267578125">
        <ele>299.399993896484375</ele>
        <time>2019-04-25T09:39:11.000Z</time>
      </trkpt>
      <trkpt lat="38.74276913702487945556640625" lon="-7.72881704382598400115966796875">
        <ele>299.399993896484375</ele>
        <time>2019-04-25T09:39:20.000Z</time>
      </trkpt>
      <trkpt lat="38.74262337572872638702392578125" lon="-7.72854882292449474334716796875">
        <ele>301</ele>
        <time>2019-04-25T09:39:25.000Z</time>
      </trkpt>
      <trkpt lat="38.7424477748572826385498046875" lon="-7.72827490232884883880615234375">
        <ele>301.600006103515625</ele>
        <time>2019-04-25T09:39:30.000Z</time>
      </trkpt>
      <trkpt lat="38.74214041046798229217529296875" lon="-7.72770124487578868865966796875">
        <ele>302.600006103515625</ele>
        <time>2019-04-25T09:39:51.000Z</time>
      </trkpt>
      <trkpt lat="38.742053993046283721923828125" lon="-7.7270564250648021697998046875">
        <ele>303.399993896484375</ele>
        <time>2019-04-25T09:40:15.000Z</time>
      </trkpt>
      <trkpt lat="38.74235297553241252899169921875" lon="-7.72647614590823650360107421875">
        <ele>301.79998779296875</ele>
        <time>2019-04-25T09:40:36.000Z</time>
      </trkpt>
      <trkpt lat="38.742589764297008514404296875" lon="-7.7262474037706851959228515625">
        <ele>300.600006103515625</ele>
        <time>2019-04-25T09:40:45.000Z</time>
      </trkpt>
      <trkpt lat="38.7431426346302032470703125" lon="-7.72652744315564632415771484375">
        <ele>296.79998779296875</ele>
        <time>2019-04-25T09:40:56.000Z</time>
      </trkpt>
      <trkpt lat="38.743566088378429412841796875" lon="-7.72673162631690502166748046875">
        <ele>293</ele>
        <time>2019-04-25T09:41:04.000Z</time>
      </trkpt>
      <trkpt lat="38.7437929026782512664794921875" lon="-7.7268339693546295166015625">
        <ele>292.600006103515625</ele>
        <time>2019-04-25T09:41:08.000Z</time>
      </trkpt>
      <trkpt lat="38.744039833545684814453125" lon="-7.72676062770187854766845703125">
        <ele>292.399993896484375</ele>
        <time>2019-04-25T09:41:12.000Z</time>
      </trkpt>
      <trkpt lat="38.74444040469825267791748046875" lon="-7.72656767629086971282958984375">
        <ele>292.20001220703125</ele>
        <time>2019-04-25T09:41:18.000Z</time>
      </trkpt>
      <trkpt lat="38.74488942325115203857421875" lon="-7.7262460626661777496337890625">
        <ele>291.79998779296875</ele>
        <time>2019-04-25T09:41:26.000Z</time>
      </trkpt>
      <trkpt lat="38.74511749483644962310791015625" lon="-7.72613835521042346954345703125">
        <ele>291.399993896484375</ele>
        <time>2019-04-25T09:41:31.000Z</time>
      </trkpt>
      <trkpt lat="38.74552519060671329498291015625" lon="-7.7256455831229686737060546875">
        <ele>291.79998779296875</ele>
        <time>2019-04-25T09:41:45.000Z</time>
      </trkpt>
      <trkpt lat="38.74568427912890911102294921875" lon="-7.72528138943016529083251953125">
        <ele>292.600006103515625</ele>
        <time>2019-04-25T09:41:54.000Z</time>
      </trkpt>
      <trkpt lat="38.74567103572189807891845703125" lon="-7.7253936231136322021484375">
        <ele>292</ele>
        <time>2019-04-25T09:41:59.000Z</time>
      </trkpt>
      <trkpt lat="38.74555955640971660614013671875" lon="-7.72561968304216861724853515625">
        <ele>291.79998779296875</ele>
        <time>2019-04-25T09:42:07.000Z</time>
      </trkpt>
      <trkpt lat="38.7455566227436065673828125" lon="-7.725592441856861114501953125">
        <ele>292</ele>
        <time>2019-04-25T09:42:12.000Z</time>
      </trkpt>
      <trkpt lat="38.74556441791355609893798828125" lon="-7.7255724929273128509521484375">
        <ele>292</ele>
        <time>2019-04-25T09:42:51.000Z</time>
      </trkpt>
      <trkpt lat="38.7455688603222370147705078125" lon="-7.72554625757038593292236328125">
        <ele>292</ele>
        <time>2019-04-25T09:42:54.000Z</time>
      </trkpt>
      <trkpt lat="38.745585121214389801025390625" lon="-7.72553586401045322418212890625">
        <ele>292</ele>
        <time>2019-04-25T09:44:38.000Z</time>
      </trkpt>
      <trkpt lat="38.74575384892523288726806640625" lon="-7.725001685321331024169921875">
        <ele>293.79998779296875</ele>
        <time>2019-04-25T09:44:51.000Z</time>
      </trkpt>
      <trkpt lat="38.74585443176329135894775390625" lon="-7.7247202210128307342529296875">
        <ele>293.79998779296875</ele>
        <time>2019-04-25T09:44:56.000Z</time>
      </trkpt>
      <trkpt lat="38.74588075093924999237060546875" lon="-7.72460061125457286834716796875">
        <ele>294</ele>
        <time>2019-04-25T09:44:58.000Z</time>
      </trkpt>
      <trkpt lat="38.74595987610518932342529296875" lon="-7.7243882976472377777099609375">
        <ele>294</ele>
        <time>2019-04-25T09:45:02.000Z</time>
      </trkpt>
      <trkpt lat="38.74607889913022518157958984375" lon="-7.724215127527713775634765625">
        <ele>293.79998779296875</ele>
        <time>2019-04-25T09:45:06.000Z</time>
      </trkpt>
      <trkpt lat="38.74653638340532779693603515625" lon="-7.72383316420018672943115234375">
        <ele>293.79998779296875</ele>
        <time>2019-04-25T09:45:17.000Z</time>
      </trkpt>
      <trkpt lat="38.74657385051250457763671875" lon="-7.72379410453140735626220703125">
        <ele>293.79998779296875</ele>
        <time>2019-04-25T09:45:18.000Z</time>
      </trkpt>
      <trkpt lat="38.746658004820346832275390625" lon="-7.7236305736005306243896484375">
        <ele>293.79998779296875</ele>
        <time>2019-04-25T09:45:22.000Z</time>
      </trkpt>
      <trkpt lat="38.74686763621866703033447265625" lon="-7.72310645319521427154541015625">
        <ele>295</ele>
        <time>2019-04-25T09:45:38.000Z</time>
      </trkpt>
      <trkpt lat="38.74737122096121311187744140625" lon="-7.722849547863006591796875">
        <ele>295.79998779296875</ele>
        <time>2019-04-25T09:45:48.000Z</time>
      </trkpt>
      <trkpt lat="38.74788603745400905609130859375" lon="-7.72263430058956146240234375">
        <ele>297.399993896484375</ele>
        <time>2019-04-25T09:46:02.000Z</time>
      </trkpt>
      <trkpt lat="38.74841518700122833251953125" lon="-7.72239558398723602294921875">
        <ele>299.79998779296875</ele>
        <time>2019-04-25T09:46:17.000Z</time>
      </trkpt>
      <trkpt lat="38.748949952423572540283203125" lon="-7.7221245132386684417724609375">
        <ele>299.600006103515625</ele>
        <time>2019-04-25T09:46:28.000Z</time>
      </trkpt>
      <trkpt lat="38.74945898540318012237548828125" lon="-7.7218852937221527099609375">
        <ele>298.600006103515625</ele>
        <time>2019-04-25T09:46:42.000Z</time>
      </trkpt>
      <trkpt lat="38.74994262121617794036865234375" lon="-7.72167272865772247314453125">
        <ele>299.79998779296875</ele>
        <time>2019-04-25T09:46:55.000Z</time>
      </trkpt>
      <trkpt lat="38.7504746206104755401611328125" lon="-7.7214321680366992950439453125">
        <ele>301.20001220703125</ele>
        <time>2019-04-25T09:47:07.000Z</time>
      </trkpt>
      <trkpt lat="38.75067838467657566070556640625" lon="-7.72130602039396762847900390625">
        <ele>302.20001220703125</ele>
        <time>2019-04-25T09:47:12.000Z</time>
      </trkpt>
      <trkpt lat="38.7508444301784038543701171875" lon="-7.72145505063235759735107421875">
        <ele>302.600006103515625</ele>
        <time>2019-04-25T09:47:18.000Z</time>
      </trkpt>
      <trkpt lat="38.75088374130427837371826171875" lon="-7.72152696736156940460205078125">
        <ele>302.600006103515625</ele>
        <time>2019-04-25T09:47:20.000Z</time>
      </trkpt>
      <trkpt lat="38.75109077431261539459228515625" lon="-7.7215553820133209228515625">
        <ele>303.600006103515625</ele>
        <time>2019-04-25T09:47:27.000Z</time>
      </trkpt>
      <trkpt lat="38.75156451947987079620361328125" lon="-7.72133016027510166168212890625">
        <ele>307</ele>
        <time>2019-04-25T09:47:47.000Z</time>
      </trkpt>
      <trkpt lat="38.75189912505447864532470703125" lon="-7.720794640481472015380859375">
        <ele>310.20001220703125</ele>
        <time>2019-04-25T09:48:09.000Z</time>
      </trkpt>
      <trkpt lat="38.75239558517932891845703125" lon="-7.720534801483154296875">
        <ele>315</ele>
        <time>2019-04-25T09:48:30.000Z</time>
      </trkpt>
      <trkpt lat="38.75260571949183940887451171875" lon="-7.72027957253158092498779296875">
        <ele>317</ele>
        <time>2019-04-25T09:48:37.000Z</time>
      </trkpt>
      <trkpt lat="38.75279850326478481292724609375" lon="-7.720209248363971710205078125">
        <ele>318.79998779296875</ele>
        <time>2019-04-25T09:48:42.000Z</time>
      </trkpt>
      <trkpt lat="38.75297117047011852264404296875" lon="-7.720192484557628631591796875">
        <ele>320.20001220703125</ele>
        <time>2019-04-25T09:48:46.000Z</time>
      </trkpt>
      <trkpt lat="38.75347861088812351226806640625" lon="-7.72043229080736637115478515625">
        <ele>323.20001220703125</ele>
        <time>2019-04-25T09:49:00.000Z</time>
      </trkpt>
      <trkpt lat="38.753536529839038848876953125" lon="-7.7204930596053600311279296875">
        <ele>323.399993896484375</ele>
        <time>2019-04-25T09:49:03.000Z</time>
      </trkpt>
      <trkpt lat="38.75403500162065029144287109375" lon="-7.720303125679492950439453125">
        <ele>325.79998779296875</ele>
        <time>2019-04-25T09:49:24.000Z</time>
      </trkpt>
      <trkpt lat="38.754185624420642852783203125" lon="-7.7201859466731548309326171875">
        <ele>326.79998779296875</ele>
        <time>2019-04-25T09:49:29.000Z</time>
      </trkpt>
      <trkpt lat="38.754715025424957275390625" lon="-7.7200270257890224456787109375">
        <ele>327</ele>
        <time>2019-04-25T09:49:47.000Z</time>
      </trkpt>
      <trkpt lat="38.75525926239788532257080078125" lon="-7.71985310129821300506591796875">
        <ele>327</ele>
        <time>2019-04-25T09:50:12.000Z</time>
      </trkpt>
      <trkpt lat="38.755701072514057159423828125" lon="-7.71937717683613300323486328125">
        <ele>329</ele>
        <time>2019-04-25T09:50:29.000Z</time>
      </trkpt>
      <trkpt lat="38.75579930841922760009765625" lon="-7.71925329230725765228271484375">
        <ele>329.600006103515625</ele>
        <time>2019-04-25T09:50:32.000Z</time>
      </trkpt>
      <trkpt lat="38.7560801021754741668701171875" lon="-7.719315402209758758544921875">
        <ele>327.399993896484375</ele>
        <time>2019-04-25T09:50:40.000Z</time>
      </trkpt>
      <trkpt lat="38.75641613267362117767333984375" lon="-7.71984069608151912689208984375">
        <ele>325.20001220703125</ele>
        <time>2019-04-25T09:51:01.000Z</time>
      </trkpt>
      <trkpt lat="38.7569642253220081329345703125" lon="-7.7197735570371150970458984375">
        <ele>328.20001220703125</ele>
        <time>2019-04-25T09:51:22.000Z</time>
      </trkpt>
      <trkpt lat="38.7570819072425365447998046875" lon="-7.71971949376165866851806640625">
        <ele>329.600006103515625</ele>
        <time>2019-04-25T09:51:29.000Z</time>
      </trkpt>
      <trkpt lat="38.75711032189428806304931640625" lon="-7.71971681155264377593994140625">
        <ele>329.79998779296875</ele>
        <time>2019-04-25T09:51:33.000Z</time>
      </trkpt>
      <trkpt lat="38.7576481886208057403564453125" lon="-7.719666771590709686279296875">
        <ele>333.20001220703125</ele>
        <time>2019-04-25T09:51:55.000Z</time>
      </trkpt>
      <trkpt lat="38.75817197374999523162841796875" lon="-7.71946283988654613494873046875">
        <ele>335.399993896484375</ele>
        <time>2019-04-25T09:52:13.000Z</time>
      </trkpt>
      <trkpt lat="38.75872132368385791778564453125" lon="-7.71945320069789886474609375">
        <ele>336.79998779296875</ele>
        <time>2019-04-25T09:52:31.000Z</time>
      </trkpt>
      <trkpt lat="38.759258352220058441162109375" lon="-7.71931766532361507415771484375">
        <ele>340.399993896484375</ele>
        <time>2019-04-25T09:52:55.000Z</time>
      </trkpt>
      <trkpt lat="38.75980962999165058135986328125" lon="-7.71913745440542697906494140625">
        <ele>341.600006103515625</ele>
        <time>2019-04-25T09:53:11.000Z</time>
      </trkpt>
      <trkpt lat="38.76034640707075595855712890625" lon="-7.71894500590860843658447265625">
        <ele>343</ele>
        <time>2019-04-25T09:53:25.000Z</time>
      </trkpt>
      <trkpt lat="38.760875053703784942626953125" lon="-7.7187578380107879638671875">
        <ele>346.20001220703125</ele>
        <time>2019-04-25T09:53:40.000Z</time>
      </trkpt>
      <trkpt lat="38.7613895349204540252685546875" lon="-7.7184871025383472442626953125">
        <ele>349.399993896484375</ele>
        <time>2019-04-25T09:53:59.000Z</time>
      </trkpt>
      <trkpt lat="38.76190007664263248443603515625" lon="-7.71819650195538997650146484375">
        <ele>352</ele>
        <time>2019-04-25T09:54:14.000Z</time>
      </trkpt>
      <trkpt lat="38.76240684650838375091552734375" lon="-7.71790514700114727020263671875">
        <ele>355.399993896484375</ele>
        <time>2019-04-25T09:54:37.000Z</time>
      </trkpt>
      <trkpt lat="38.76296306960284709930419921875" lon="-7.7178722061216831207275390625">
        <ele>359.20001220703125</ele>
        <time>2019-04-25T09:54:57.000Z</time>
      </trkpt>
      <trkpt lat="38.76322366297245025634765625" lon="-7.7179506607353687286376953125">
        <ele>360.600006103515625</ele>
        <time>2019-04-25T09:55:09.000Z</time>
      </trkpt>
      <trkpt lat="38.76370604149997234344482421875" lon="-7.71760809235274791717529296875">
        <ele>362</ele>
        <time>2019-04-25T09:55:26.000Z</time>
      </trkpt>
      <trkpt lat="38.76418012194335460662841796875" lon="-7.71723073907196521759033203125">
        <ele>362</ele>
        <time>2019-04-25T09:55:41.000Z</time>
      </trkpt>
      <trkpt lat="38.764627464115619659423828125" lon="-7.71684332750737667083740234375">
        <ele>361.79998779296875</ele>
        <time>2019-04-25T09:55:55.000Z</time>
      </trkpt>
      <trkpt lat="38.76501613296568393707275390625" lon="-7.71633555181324481964111328125">
        <ele>362.600006103515625</ele>
        <time>2019-04-25T09:56:10.000Z</time>
      </trkpt>
      <trkpt lat="38.76532517373561859130859375" lon="-7.71576608531177043914794921875">
        <ele>364.399993896484375</ele>
        <time>2019-04-25T09:56:27.000Z</time>
      </trkpt>
      <trkpt lat="38.765320479869842529296875" lon="-7.715773880481719970703125">
        <ele>364.20001220703125</ele>
        <time>2019-04-25T09:56:28.000Z</time>
      </trkpt>
      <trkpt lat="38.7653186358511447906494140625" lon="-7.71579198539257049560546875">
        <ele>364.399993896484375</ele>
        <time>2019-04-25T09:56:37.000Z</time>
      </trkpt>
      <trkpt lat="38.76520179212093353271484375" lon="-7.71563968621194362640380859375">
        <ele>365.600006103515625</ele>
        <time>2019-04-25T09:56:46.000Z</time>
      </trkpt>
      <trkpt lat="38.76522484235465526580810546875" lon="-7.714949436485767364501953125">
        <ele>370.399993896484375</ele>
        <time>2019-04-25T09:57:06.000Z</time>
      </trkpt>
      <trkpt lat="38.76522249542176723480224609375" lon="-7.71460569463670253753662109375">
        <ele>372.399993896484375</ele>
        <time>2019-04-25T09:57:17.000Z</time>
      </trkpt>
      <trkpt lat="38.7652190588414669036865234375" lon="-7.7146111428737640380859375">
        <ele>372.399993896484375</ele>
        <time>2019-04-25T09:57:18.000Z</time>
      </trkpt>
      <trkpt lat="38.76522417180240154266357421875" lon="-7.71459111012518405914306640625">
        <ele>372.399993896484375</ele>
        <time>2019-04-25T09:58:04.000Z</time>
      </trkpt>
      <trkpt lat="38.7652053125202655792236328125" lon="-7.7143028564751148223876953125">
        <ele>374.399993896484375</ele>
        <time>2019-04-25T09:58:16.000Z</time>
      </trkpt>
      <trkpt lat="38.7649689428508281707763671875" lon="-7.7136862836778163909912109375">
        <ele>374.79998779296875</ele>
        <time>2019-04-25T09:58:36.000Z</time>
      </trkpt>
      <trkpt lat="38.764746487140655517578125" lon="-7.7130554616451263427734375">
        <ele>377.20001220703125</ele>
        <time>2019-04-25T09:58:48.000Z</time>
      </trkpt>
      <trkpt lat="38.7646943517029285430908203125" lon="-7.712955884635448455810546875">
        <ele>377.600006103515625</ele>
        <time>2019-04-25T09:58:50.000Z</time>
      </trkpt>
      <trkpt lat="38.7642819620668888092041015625" lon="-7.71247987635433673858642578125">
        <ele>383.20001220703125</ele>
        <time>2019-04-25T09:59:08.000Z</time>
      </trkpt>
      <trkpt lat="38.76386311836540699005126953125" lon="-7.7120598591864109039306640625">
        <ele>388</ele>
        <time>2019-04-25T09:59:33.000Z</time>
      </trkpt>
      <trkpt lat="38.76332365907728672027587890625" lon="-7.7120228111743927001953125">
        <ele>385.79998779296875</ele>
        <time>2019-04-25T09:59:55.000Z</time>
      </trkpt>
      <trkpt lat="38.76278889365494251251220703125" lon="-7.71201887167990207672119140625">
        <ele>388</ele>
        <time>2019-04-25T10:00:14.000Z</time>
      </trkpt>
      <trkpt lat="38.7623309902846813201904296875" lon="-7.711625508964061737060546875">
        <ele>387.79998779296875</ele>
        <time>2019-04-25T10:00:40.000Z</time>
      </trkpt>
      <trkpt lat="38.7620361149311065673828125" lon="-7.7110386081039905548095703125">
        <ele>387.600006103515625</ele>
        <time>2019-04-25T10:00:59.000Z</time>
      </trkpt>
      <trkpt lat="38.76198842190206050872802734375" lon="-7.71076912991702556610107421875">
        <ele>388</ele>
        <time>2019-04-25T10:01:04.000Z</time>
      </trkpt>
      <trkpt lat="38.76197777688503265380859375" lon="-7.71046352572739124298095703125">
        <ele>388.79998779296875</ele>
        <time>2019-04-25T10:01:08.000Z</time>
      </trkpt>
      <trkpt lat="38.76204550266265869140625" lon="-7.70972424186766147613525390625">
        <ele>388.399993896484375</ele>
        <time>2019-04-25T10:01:15.000Z</time>
      </trkpt>
      <trkpt lat="38.76212102361023426055908203125" lon="-7.70903340540826320648193359375">
        <ele>386.20001220703125</ele>
        <time>2019-04-25T10:01:20.000Z</time>
      </trkpt>
      <trkpt lat="38.76212420873343944549560546875" lon="-7.70840920507907867431640625">
        <ele>378.79998779296875</ele>
        <time>2019-04-25T10:01:24.000Z</time>
      </trkpt>
      <trkpt lat="38.76183603890240192413330078125" lon="-7.70773152820765972137451171875">
        <ele>374.20001220703125</ele>
        <time>2019-04-25T10:01:29.000Z</time>
      </trkpt>
      <trkpt lat="38.761434294283390045166015625" lon="-7.70721855573356151580810546875">
        <ele>373.399993896484375</ele>
        <time>2019-04-25T10:01:35.000Z</time>
      </trkpt>
      <trkpt lat="38.76105568371713161468505859375" lon="-7.7066917531192302703857421875">
        <ele>380</ele>
        <time>2019-04-25T10:01:45.000Z</time>
      </trkpt>
      <trkpt lat="38.7605982832610607147216796875" lon="-7.70628514699637889862060546875">
        <ele>381.79998779296875</ele>
        <time>2019-04-25T10:02:02.000Z</time>
      </trkpt>
      <trkpt lat="38.760174326598644256591796875" lon="-7.70603603683412075042724609375">
        <ele>384.600006103515625</ele>
        <time>2019-04-25T10:02:14.000Z</time>
      </trkpt>
      <trkpt lat="38.76002521254122257232666015625" lon="-7.70584710873663425445556640625">
        <ele>383.600006103515625</ele>
        <time>2019-04-25T10:02:19.000Z</time>
      </trkpt>
      <trkpt lat="38.7598442472517490386962890625" lon="-7.70539264194667339324951171875">
        <ele>379.600006103515625</ele>
        <time>2019-04-25T10:02:27.000Z</time>
      </trkpt>
      <trkpt lat="38.7596249766647815704345703125" lon="-7.70473415963351726531982421875">
        <ele>373.600006103515625</ele>
        <time>2019-04-25T10:02:35.000Z</time>
      </trkpt>
      <trkpt lat="38.7594409100711345672607421875" lon="-7.70406913943588733673095703125">
        <ele>371.600006103515625</ele>
        <time>2019-04-25T10:02:41.000Z</time>
      </trkpt>
      <trkpt lat="38.75935415737330913543701171875" lon="-7.7033235691487789154052734375">
        <ele>374.20001220703125</ele>
        <time>2019-04-25T10:02:48.000Z</time>
      </trkpt>
      <trkpt lat="38.75932800583541393280029296875" lon="-7.70264069549739360809326171875">
        <ele>373.399993896484375</ele>
        <time>2019-04-25T10:03:02.000Z</time>
      </trkpt>
      <trkpt lat="38.75901049934327602386474609375" lon="-7.70221774466335773468017578125">
        <ele>375.399993896484375</ele>
        <time>2019-04-25T10:03:14.000Z</time>
      </trkpt>
      <trkpt lat="38.75881654210388660430908203125" lon="-7.7020414732396602630615234375">
        <ele>375.600006103515625</ele>
        <time>2019-04-25T10:03:19.000Z</time>
      </trkpt>
      <trkpt lat="38.75867069698870182037353515625" lon="-7.70199160091578960418701171875">
        <ele>375.79998779296875</ele>
        <time>2019-04-25T10:03:23.000Z</time>
      </trkpt>
      <trkpt lat="38.7581675313413143157958984375" lon="-7.70171298645436763763427734375">
        <ele>375</ele>
        <time>2019-04-25T10:03:33.000Z</time>
      </trkpt>
      <trkpt lat="38.75792789272964000701904296875" lon="-7.70149723626673221588134765625">
        <ele>374</ele>
        <time>2019-04-25T10:03:38.000Z</time>
      </trkpt>
      <trkpt lat="38.75754081644117832183837890625" lon="-7.70101645030081272125244140625">
        <ele>368.600006103515625</ele>
        <time>2019-04-25T10:04:01.000Z</time>
      </trkpt>
      <trkpt lat="38.7574336118996143341064453125" lon="-7.7009541727602481842041015625">
        <ele>368.20001220703125</ele>
        <time>2019-04-25T10:04:07.000Z</time>
      </trkpt>
      <trkpt lat="38.75741802155971527099609375" lon="-7.7009397558867931365966796875">
        <ele>368</ele>
        <time>2019-04-25T10:04:10.000Z</time>
      </trkpt>
      <trkpt lat="38.75738357193768024444580078125" lon="-7.70094193518161773681640625">
        <ele>368</ele>
        <time>2019-04-25T10:04:16.000Z</time>
      </trkpt>
      <trkpt lat="38.75720319338142871856689453125" lon="-7.70072878338396549224853515625">
        <ele>366.399993896484375</ele>
        <time>2019-04-25T10:04:35.000Z</time>
      </trkpt>
      <trkpt lat="38.75718994997441768646240234375" lon="-7.70072794519364833831787109375">
        <ele>366.399993896484375</ele>
        <time>2019-04-25T10:04:43.000Z</time>
      </trkpt>
      <trkpt lat="38.75691100023686885833740234375" lon="-7.70073565654456615447998046875">
        <ele>366.20001220703125</ele>
        <time>2019-04-25T10:04:52.000Z</time>
      </trkpt>
      <trkpt lat="38.75670782290399074554443359375" lon="-7.70092542283236980438232421875">
        <ele>367.600006103515625</ele>
        <time>2019-04-25T10:04:58.000Z</time>
      </trkpt>
      <trkpt lat="38.75660774298012256622314453125" lon="-7.70110286772251129150390625">
        <ele>369.20001220703125</ele>
        <time>2019-04-25T10:05:02.000Z</time>
      </trkpt>
      <trkpt lat="38.756564073264598846435546875" lon="-7.701208479702472686767578125">
        <ele>370.20001220703125</ele>
        <time>2019-04-25T10:05:04.000Z</time>
      </trkpt>
      <trkpt lat="38.75652157701551914215087890625" lon="-7.7013021893799304962158203125">
        <ele>370.79998779296875</ele>
        <time>2019-04-25T10:05:06.000Z</time>
      </trkpt>
      <trkpt lat="38.75607498921453952789306640625" lon="-7.70140252076089382171630859375">
        <ele>372.20001220703125</ele>
        <time>2019-04-25T10:05:16.000Z</time>
      </trkpt>
      <trkpt lat="38.7559855543076992034912109375" lon="-7.70133228041231632232666015625">
        <ele>372.399993896484375</ele>
        <time>2019-04-25T10:05:18.000Z</time>
      </trkpt>
      <trkpt lat="38.75586929731070995330810546875" lon="-7.70112658850848674774169921875">
        <ele>372.399993896484375</ele>
        <time>2019-04-25T10:05:22.000Z</time>
      </trkpt>
      <trkpt lat="38.75577986240386962890625" lon="-7.70084897987544536590576171875">
        <ele>370.79998779296875</ele>
        <time>2019-04-25T10:05:27.000Z</time>
      </trkpt>
      <trkpt lat="38.7557743303477764129638671875" lon="-7.70079198293387889862060546875">
        <ele>370.600006103515625</ele>
        <time>2019-04-25T10:05:28.000Z</time>
      </trkpt>
      <trkpt lat="38.75574004836380481719970703125" lon="-7.70057656802237033843994140625">
        <ele>370.600006103515625</ele>
        <time>2019-04-25T10:05:32.000Z</time>
      </trkpt>
      <trkpt lat="38.75567324459552764892578125" lon="-7.69988489337265491485595703125">
        <ele>366.600006103515625</ele>
        <time>2019-04-25T10:05:47.000Z</time>
      </trkpt>
      <trkpt lat="38.7556442432105541229248046875" lon="-7.69979051314294338226318359375">
        <ele>366.600006103515625</ele>
        <time>2019-04-25T10:05:49.000Z</time>
      </trkpt>
      <trkpt lat="38.75547216273844242095947265625" lon="-7.69965447485446929931640625">
        <ele>367</ele>
        <time>2019-04-25T10:05:54.000Z</time>
      </trkpt>
      <trkpt lat="38.7549830786883831024169921875" lon="-7.69943679682910442352294921875">
        <ele>368.20001220703125</ele>
        <time>2019-04-25T10:06:07.000Z</time>
      </trkpt>
      <trkpt lat="38.75484846532344818115234375" lon="-7.6994062028825283050537109375">
        <ele>368.399993896484375</ele>
        <time>2019-04-25T10:06:10.000Z</time>
      </trkpt>
      <trkpt lat="38.7545686773955821990966796875" lon="-7.69933403469622135162353515625">
        <ele>368.600006103515625</ele>
        <time>2019-04-25T10:06:16.000Z</time>
      </trkpt>
      <trkpt lat="38.754390813410282135009765625" lon="-7.69936747848987579345703125">
        <ele>369.20001220703125</ele>
        <time>2019-04-25T10:06:20.000Z</time>
      </trkpt>
      <trkpt lat="38.7539063394069671630859375" lon="-7.69935431890189647674560546875">
        <ele>368.399993896484375</ele>
        <time>2019-04-25T10:06:33.000Z</time>
      </trkpt>
      <trkpt lat="38.75376912765204906463623046875" lon="-7.6990866847336292266845703125">
        <ele>365.79998779296875</ele>
        <time>2019-04-25T10:06:38.000Z</time>
      </trkpt>
      <trkpt lat="38.753555305302143096923828125" lon="-7.69839526154100894927978515625">
        <ele>362.20001220703125</ele>
        <time>2019-04-25T10:06:47.000Z</time>
      </trkpt>
      <trkpt lat="38.75339764170348644256591796875" lon="-7.69775505177676677703857421875">
        <ele>362.399993896484375</ele>
        <time>2019-04-25T10:06:54.000Z</time>
      </trkpt>
      <trkpt lat="38.752892799675464630126953125" lon="-7.69756679423153400421142578125">
        <ele>360</ele>
        <time>2019-04-25T10:07:04.000Z</time>
      </trkpt>
      <trkpt lat="38.7528433464467525482177734375" lon="-7.6975286565721035003662109375">
        <ele>359.600006103515625</ele>
        <time>2019-04-25T10:07:05.000Z</time>
      </trkpt>
      <trkpt lat="38.75235593877732753753662109375" lon="-7.6971095614135265350341796875">
        <ele>360.600006103515625</ele>
        <time>2019-04-25T10:07:14.000Z</time>
      </trkpt>
      <trkpt lat="38.751868195831775665283203125" lon="-7.69671301357448101043701171875">
        <ele>358.79998779296875</ele>
        <time>2019-04-25T10:07:22.000Z</time>
      </trkpt>
      <trkpt lat="38.751714639365673065185546875" lon="-7.69643808715045452117919921875">
        <ele>358.79998779296875</ele>
        <time>2019-04-25T10:07:27.000Z</time>
      </trkpt>
      <trkpt lat="38.75163962133228778839111328125" lon="-7.696303389966487884521484375">
        <ele>358.79998779296875</ele>
        <time>2019-04-25T10:07:30.000Z</time>
      </trkpt>
      <trkpt lat="38.75145505182445049285888671875" lon="-7.6956269703805446624755859375">
        <ele>364</ele>
        <time>2019-04-25T10:07:48.000Z</time>
      </trkpt>
      <trkpt lat="38.751281797885894775390625" lon="-7.6949580945074558258056640625">
        <ele>367.20001220703125</ele>
        <time>2019-04-25T10:08:10.000Z</time>
      </trkpt>
      <trkpt lat="38.7511445023119449615478515625" lon="-7.6944994367659091949462890625">
        <ele>364.20001220703125</ele>
        <time>2019-04-25T10:08:20.000Z</time>
      </trkpt>
      <trkpt lat="38.75089044682681560516357421875" lon="-7.69385964609682559967041015625">
        <ele>358.399993896484375</ele>
        <time>2019-04-25T10:08:27.000Z</time>
      </trkpt>
      <trkpt lat="38.750608898699283599853515625" lon="-7.69326603971421718597412109375">
        <ele>352</ele>
        <time>2019-04-25T10:08:33.000Z</time>
      </trkpt>
      <trkpt lat="38.75058375298976898193359375" lon="-7.69318272359669208526611328125">
        <ele>351.399993896484375</ele>
        <time>2019-04-25T10:08:34.000Z</time>
      </trkpt>
      <trkpt lat="38.75056154094636440277099609375" lon="-7.6928659714758396148681640625">
        <ele>350.600006103515625</ele>
        <time>2019-04-25T10:08:38.000Z</time>
      </trkpt>
      <trkpt lat="38.75057704746723175048828125" lon="-7.692776955664157867431640625">
        <ele>350.600006103515625</ele>
        <time>2019-04-25T10:08:39.000Z</time>
      </trkpt>
      <trkpt lat="38.750799000263214111328125" lon="-7.69253010861575603485107421875">
        <ele>352.20001220703125</ele>
        <time>2019-04-25T10:08:44.000Z</time>
      </trkpt>
      <trkpt lat="38.7509440071880817413330078125" lon="-7.692398093640804290771484375">
        <ele>354.20001220703125</ele>
        <time>2019-04-25T10:08:48.000Z</time>
      </trkpt>
      <trkpt lat="38.75130526721477508544921875" lon="-7.69186894409358501434326171875">
        <ele>358.399993896484375</ele>
        <time>2019-04-25T10:09:02.000Z</time>
      </trkpt>
      <trkpt lat="38.75160274095833301544189453125" lon="-7.6912677101790904998779296875">
        <ele>362</ele>
        <time>2019-04-25T10:09:17.000Z</time>
      </trkpt>
      <trkpt lat="38.7516386993229389190673828125" lon="-7.690580897033214569091796875">
        <ele>368</ele>
        <time>2019-04-25T10:09:32.000Z</time>
      </trkpt>
      <trkpt lat="38.75117006711661815643310546875" lon="-7.690213434398174285888671875">
        <ele>367.20001220703125</ele>
        <time>2019-04-25T10:09:47.000Z</time>
      </trkpt>
      <trkpt lat="38.75092213042080402374267578125" lon="-7.6896650902926921844482421875">
        <ele>368.600006103515625</ele>
        <time>2019-04-25T10:10:02.000Z</time>
      </trkpt>
      <trkpt lat="38.7509988248348236083984375" lon="-7.68898255191743373870849609375">
        <ele>370.600006103515625</ele>
        <time>2019-04-25T10:10:20.000Z</time>
      </trkpt>
      <trkpt lat="38.75106261111795902252197265625" lon="-7.68859195522964000701904296875">
        <ele>373</ele>
        <time>2019-04-25T10:10:36.000Z</time>
      </trkpt>
      <trkpt lat="38.75104567967355251312255859375" lon="-7.6884005963802337646484375">
        <ele>373.79998779296875</ele>
        <time>2019-04-25T10:10:44.000Z</time>
      </trkpt>
      <trkpt lat="38.75085809268057346343994140625" lon="-7.68774806521832942962646484375">
        <ele>376.79998779296875</ele>
        <time>2019-04-25T10:11:04.000Z</time>
      </trkpt>
      <trkpt lat="38.75092028640210628509521484375" lon="-7.68755058757960796356201171875">
        <ele>375.399993896484375</ele>
        <time>2019-04-25T10:11:12.000Z</time>
      </trkpt>
      <trkpt lat="38.7510409019887447357177734375" lon="-7.68745989538729190826416015625">
        <ele>375.20001220703125</ele>
        <time>2019-04-25T10:11:21.000Z</time>
      </trkpt>
      <trkpt lat="38.75150643289089202880859375" lon="-7.6871149800717830657958984375">
        <ele>379.79998779296875</ele>
        <time>2019-04-25T10:11:50.000Z</time>
      </trkpt>
      <trkpt lat="38.7520185671746730804443359375" lon="-7.68686427734792232513427734375">
        <ele>386.79998779296875</ele>
        <time>2019-04-25T10:12:10.000Z</time>
      </trkpt>
      <trkpt lat="38.7522621452808380126953125" lon="-7.68628634512424468994140625">
        <ele>386</ele>
        <time>2019-04-25T10:12:29.000Z</time>
      </trkpt>
      <trkpt lat="38.75237823463976383209228515625" lon="-7.68618618138134479522705078125">
        <ele>386.399993896484375</ele>
        <time>2019-04-25T10:12:34.000Z</time>
      </trkpt>
      <trkpt lat="38.7524574436247348785400390625" lon="-7.68604989163577556610107421875">
        <ele>387.20001220703125</ele>
        <time>2019-04-25T10:12:39.000Z</time>
      </trkpt>
      <trkpt lat="38.75232107006013393402099609375" lon="-7.68593874759972095489501953125">
        <ele>388.399993896484375</ele>
        <time>2019-04-25T10:12:46.000Z</time>
      </trkpt>
      <trkpt lat="38.752100206911563873291015625" lon="-7.685331143438816070556640625">
        <ele>394.399993896484375</ele>
        <time>2019-04-25T10:13:15.000Z</time>
      </trkpt>
      <trkpt lat="38.7520588003098964691162109375" lon="-7.68524187617003917694091796875">
        <ele>394.20001220703125</ele>
        <time>2019-04-25T10:13:20.000Z</time>
      </trkpt>
      <trkpt lat="38.75195092521607875823974609375" lon="-7.685080356895923614501953125">
        <ele>393.600006103515625</ele>
        <time>2019-04-25T10:13:30.000Z</time>
      </trkpt>
      <trkpt lat="38.75188169069588184356689453125" lon="-7.68492856062948703765869140625">
        <ele>394</ele>
        <time>2019-04-25T10:13:39.000Z</time>
      </trkpt>
      <trkpt lat="38.751770965754985809326171875" lon="-7.684766538441181182861328125">
        <ele>396.79998779296875</ele>
        <time>2019-04-25T10:13:50.000Z</time>
      </trkpt>
      <trkpt lat="38.75175579451024532318115234375" lon="-7.6841358840465545654296875">
        <ele>402</ele>
        <time>2019-04-25T10:14:28.000Z</time>
      </trkpt>
      <trkpt lat="38.75189107842743396759033203125" lon="-7.68396145664155483245849609375">
        <ele>402.20001220703125</ele>
        <time>2019-04-25T10:14:42.000Z</time>
      </trkpt>
      <trkpt lat="38.7519176490604877471923828125" lon="-7.68393228761851787567138671875">
        <ele>402.79998779296875</ele>
        <time>2019-04-25T10:14:47.000Z</time>
      </trkpt>
      <trkpt lat="38.751961402595043182373046875" lon="-7.6839100755751132965087890625">
        <ele>403.79998779296875</ele>
        <time>2019-04-25T10:17:06.000Z</time>
      </trkpt>
      <trkpt lat="38.75199032016098499298095703125" lon="-7.68387327902019023895263671875">
        <ele>404.600006103515625</ele>
        <time>2019-04-25T10:17:08.000Z</time>
      </trkpt>
      <trkpt lat="38.7520276196300983428955078125" lon="-7.68378711305558681488037109375">
        <ele>405.79998779296875</ele>
        <time>2019-04-25T10:17:12.000Z</time>
      </trkpt>
      <trkpt lat="38.75186257995665073394775390625" lon="-7.683144472539424896240234375">
        <ele>410.399993896484375</ele>
        <time>2019-04-25T10:17:47.000Z</time>
      </trkpt>
      <trkpt lat="38.7519028969109058380126953125" lon="-7.68275924026966094970703125">
        <ele>415.79998779296875</ele>
        <time>2019-04-25T10:18:08.000Z</time>
      </trkpt>
      <trkpt lat="38.7523360736668109893798828125" lon="-7.68236420117318630218505859375">
        <ele>422.600006103515625</ele>
        <time>2019-04-25T10:18:39.000Z</time>
      </trkpt>
      <trkpt lat="38.75247261486947536468505859375" lon="-7.68171695061028003692626953125">
        <ele>429.399993896484375</ele>
        <time>2019-04-25T10:19:09.000Z</time>
      </trkpt>
      <trkpt lat="38.75255626626312732696533203125" lon="-7.68105360679328441619873046875">
        <ele>433.79998779296875</ele>
        <time>2019-04-25T10:19:40.000Z</time>
      </trkpt>
      <trkpt lat="38.75279045663774013519287109375" lon="-7.68075118772685527801513671875">
        <ele>435.600006103515625</ele>
        <time>2019-04-25T10:20:02.000Z</time>
      </trkpt>
      <trkpt lat="38.7531709112226963043212890625" lon="-7.680324800312519073486328125">
        <ele>441.79998779296875</ele>
        <time>2019-04-25T10:20:37.000Z</time>
      </trkpt>
      <trkpt lat="38.753303177654743194580078125" lon="-7.6802072860300540924072265625">
        <ele>443.79998779296875</ele>
        <time>2019-04-25T10:20:48.000Z</time>
      </trkpt>
      <trkpt lat="38.75355991534888744354248046875" lon="-7.679612003266811370849609375">
        <ele>450.600006103515625</ele>
        <time>2019-04-25T10:21:15.000Z</time>
      </trkpt>
      <trkpt lat="38.75389485619962215423583984375" lon="-7.67945651896297931671142578125">
        <ele>452.600006103515625</ele>
        <time>2019-04-25T10:21:38.000Z</time>
      </trkpt>
      <trkpt lat="38.75392888672649860382080078125" lon="-7.67945601604878902435302734375">
        <ele>452.79998779296875</ele>
        <time>2019-04-25T10:21:42.000Z</time>
      </trkpt>
      <trkpt lat="38.754120580852031707763671875" lon="-7.6794348098337650299072265625">
        <ele>453.399993896484375</ele>
        <time>2019-04-25T10:21:55.000Z</time>
      </trkpt>
      <trkpt lat="38.75464989803731441497802734375" lon="-7.6795075647532939910888671875">
        <ele>460.79998779296875</ele>
        <time>2019-04-25T10:22:35.000Z</time>
      </trkpt>
      <trkpt lat="38.75513671897351741790771484375" lon="-7.67982498742640018463134765625">
        <ele>464.79998779296875</ele>
        <time>2019-04-25T10:23:15.000Z</time>
      </trkpt>
      <trkpt lat="38.75534928403794765472412109375" lon="-7.67988097853958606719970703125">
        <ele>467.600006103515625</ele>
        <time>2019-04-25T10:23:33.000Z</time>
      </trkpt>
      <trkpt lat="38.75539169646799564361572265625" lon="-7.6799276657402515411376953125">
        <ele>467.399993896484375</ele>
        <time>2019-04-25T10:23:37.000Z</time>
      </trkpt>
      <trkpt lat="38.75541315414011478424072265625" lon="-7.6799390651285648345947265625">
        <ele>467.399993896484375</ele>
        <time>2019-04-25T10:23:38.000Z</time>
      </trkpt>
      <trkpt lat="38.75592981465160846710205078125" lon="-7.68015624023973941802978515625">
        <ele>469.399993896484375</ele>
        <time>2019-04-25T10:24:19.000Z</time>
      </trkpt>
      <trkpt lat="38.7562189064919948577880859375" lon="-7.68007610924541950225830078125">
        <ele>471</ele>
        <time>2019-04-25T10:24:44.000Z</time>
      </trkpt>
      <trkpt lat="38.756296522915363311767578125" lon="-7.68002749420702457427978515625">
        <ele>471.600006103515625</ele>
        <time>2019-04-25T10:24:51.000Z</time>
      </trkpt>
      <trkpt lat="38.7568304501473903656005859375" lon="-7.67988148145377635955810546875">
        <ele>476.399993896484375</ele>
        <time>2019-04-25T10:25:34.000Z</time>
      </trkpt>
      <trkpt lat="38.75730629079043865203857421875" lon="-7.67971166409552097320556640625">
        <ele>479.79998779296875</ele>
        <time>2019-04-25T10:26:16.000Z</time>
      </trkpt>
      <trkpt lat="38.7573293410241603851318359375" lon="-7.67970747314393520355224609375">
        <ele>480</ele>
        <time>2019-04-25T10:26:20.000Z</time>
      </trkpt>
      <trkpt lat="38.7573933787643909454345703125" lon="-7.67969406209886074066162109375">
        <ele>480.600006103515625</ele>
        <time>2019-04-25T10:27:56.000Z</time>
      </trkpt>
      <trkpt lat="38.75793878920376300811767578125" lon="-7.679644189774990081787109375">
        <ele>484.600006103515625</ele>
        <time>2019-04-25T10:28:46.000Z</time>
      </trkpt>
      <trkpt lat="38.7580880708992481231689453125" lon="-7.67956179566681385040283203125">
        <ele>486.600006103515625</ele>
        <time>2019-04-25T10:29:02.000Z</time>
      </trkpt>
      <trkpt lat="38.75823500566184520721435546875" lon="-7.67942885868251323699951171875">
        <ele>488.79998779296875</ele>
        <time>2019-04-25T10:30:15.000Z</time>
      </trkpt>
      <trkpt lat="38.75847841612994670867919921875" lon="-7.6787749864161014556884765625">
        <ele>494</ele>
        <time>2019-04-25T10:30:40.000Z</time>
      </trkpt>
      <trkpt lat="38.75880799256265163421630859375" lon="-7.6783128082752227783203125">
        <ele>493.399993896484375</ele>
        <time>2019-04-25T10:31:01.000Z</time>
      </trkpt>
      <trkpt lat="38.758990801870822906494140625" lon="-7.678373157978057861328125">
        <ele>492.79998779296875</ele>
        <time>2019-04-25T10:31:07.000Z</time>
      </trkpt>
      <trkpt lat="38.7594070471823215484619140625" lon="-7.6784514449536800384521484375">
        <ele>490.399993896484375</ele>
        <time>2019-04-25T10:31:14.000Z</time>
      </trkpt>
      <trkpt lat="38.75997014343738555908203125" lon="-7.67826662398874759674072265625">
        <ele>480.600006103515625</ele>
        <time>2019-04-25T10:31:26.000Z</time>
      </trkpt>
      <trkpt lat="38.7601049244403839111328125" lon="-7.6781862415373325347900390625">
        <ele>477.399993896484375</ele>
        <time>2019-04-25T10:31:29.000Z</time>
      </trkpt>
      <trkpt lat="38.76056483946740627288818359375" lon="-7.67777033150196075439453125">
        <ele>465.20001220703125</ele>
        <time>2019-04-25T10:31:38.000Z</time>
      </trkpt>
      <trkpt lat="38.76081193797290325164794921875" lon="-7.67738132737576961517333984375">
        <ele>454.79998779296875</ele>
        <time>2019-04-25T10:31:44.000Z</time>
      </trkpt>
      <trkpt lat="38.76118996180593967437744140625" lon="-7.67739306204020977020263671875">
        <ele>451</ele>
        <time>2019-04-25T10:31:52.000Z</time>
      </trkpt>
      <trkpt lat="38.76137888990342617034912109375" lon="-7.677466236054897308349609375">
        <ele>450.399993896484375</ele>
        <time>2019-04-25T10:31:55.000Z</time>
      </trkpt>
      <trkpt lat="38.7616295926272869110107421875" lon="-7.67753790132701396942138671875">
        <ele>449.20001220703125</ele>
        <time>2019-04-25T10:31:59.000Z</time>
      </trkpt>
      <trkpt lat="38.7618317641317844390869140625" lon="-7.677563466131687164306640625">
        <ele>447.399993896484375</ele>
        <time>2019-04-25T10:32:03.000Z</time>
      </trkpt>
      <trkpt lat="38.762104175984859466552734375" lon="-7.67764485441148281097412109375">
        <ele>446.79998779296875</ele>
        <time>2019-04-25T10:32:10.000Z</time>
      </trkpt>
      <trkpt lat="38.762252368032932281494140625" lon="-7.67739750444889068603515625">
        <ele>439.20001220703125</ele>
        <time>2019-04-25T10:32:16.000Z</time>
      </trkpt>
      <trkpt lat="38.7623135559260845184326171875" lon="-7.67726381309330463409423828125">
        <ele>435.79998779296875</ele>
        <time>2019-04-25T10:32:19.000Z</time>
      </trkpt>
      <trkpt lat="38.7626253627240657806396484375" lon="-7.67678101547062397003173828125">
        <ele>422.600006103515625</ele>
        <time>2019-04-25T10:32:29.000Z</time>
      </trkpt>
      <trkpt lat="38.762711696326732635498046875" lon="-7.67617064528167247772216796875">
        <ele>413</ele>
        <time>2019-04-25T10:32:40.000Z</time>
      </trkpt>
      <trkpt lat="38.76268764026463031768798828125" lon="-7.6760029233992099761962890625">
        <ele>411</ele>
        <time>2019-04-25T10:32:43.000Z</time>
      </trkpt>
      <trkpt lat="38.7627279572188854217529296875" lon="-7.67565867863595485687255859375">
        <ele>405.79998779296875</ele>
        <time>2019-04-25T10:32:50.000Z</time>
      </trkpt>
      <trkpt lat="38.7628085911273956298828125" lon="-7.67537386156618595123291015625">
        <ele>401.399993896484375</ele>
        <time>2019-04-25T10:32:56.000Z</time>
      </trkpt>
      <trkpt lat="38.76274949871003627777099609375" lon="-7.674861140549182891845703125">
        <ele>394</ele>
        <time>2019-04-25T10:33:04.000Z</time>
      </trkpt>
      <trkpt lat="38.762647323310375213623046875" lon="-7.6746467314660549163818359375">
        <ele>390.79998779296875</ele>
        <time>2019-04-25T10:33:07.000Z</time>
      </trkpt>
      <trkpt lat="38.7625197507441043853759765625" lon="-7.67446828074753284454345703125">
        <ele>388.20001220703125</ele>
        <time>2019-04-25T10:33:10.000Z</time>
      </trkpt>
      <trkpt lat="38.76237013377249240875244140625" lon="-7.67435252666473388671875">
        <ele>386.399993896484375</ele>
        <time>2019-04-25T10:33:14.000Z</time>
      </trkpt>
      <trkpt lat="38.7621532939374446868896484375" lon="-7.67426510341465473175048828125">
        <ele>385.20001220703125</ele>
        <time>2019-04-25T10:33:22.000Z</time>
      </trkpt>
      <trkpt lat="38.76200334168970584869384765625" lon="-7.67408765852451324462890625">
        <ele>383.600006103515625</ele>
        <time>2019-04-25T10:33:26.000Z</time>
      </trkpt>
      <trkpt lat="38.76189203001558780670166015625" lon="-7.673911638557910919189453125">
        <ele>382</ele>
        <time>2019-04-25T10:33:29.000Z</time>
      </trkpt>
      <trkpt lat="38.761835955083370208740234375" lon="-7.6737652905285358428955078125">
        <ele>381.20001220703125</ele>
        <time>2019-04-25T10:33:31.000Z</time>
      </trkpt>
      <trkpt lat="38.7619367055594921112060546875" lon="-7.67310622148215770721435546875">
        <ele>376.600006103515625</ele>
        <time>2019-04-25T10:33:39.000Z</time>
      </trkpt>
      <trkpt lat="38.76233442686498165130615234375" lon="-7.67255251295864582061767578125">
        <ele>374.79998779296875</ele>
        <time>2019-04-25T10:33:47.000Z</time>
      </trkpt>
      <trkpt lat="38.76242008991539478302001953125" lon="-7.672391496598720550537109375">
        <ele>373.600006103515625</ele>
        <time>2019-04-25T10:33:49.000Z</time>
      </trkpt>
      <trkpt lat="38.76252134330570697784423828125" lon="-7.67212025821208953857421875">
        <ele>371.399993896484375</ele>
        <time>2019-04-25T10:33:53.000Z</time>
      </trkpt>
      <trkpt lat="38.76257549040019512176513671875" lon="-7.672026045620441436767578125">
        <ele>370.600006103515625</ele>
        <time>2019-04-25T10:33:55.000Z</time>
      </trkpt>
      <trkpt lat="38.762637265026569366455078125" lon="-7.67194985412061214447021484375">
        <ele>370.20001220703125</ele>
        <time>2019-04-25T10:33:57.000Z</time>
      </trkpt>
      <trkpt lat="38.763113357126712799072265625" lon="-7.67166855745017528533935546875">
        <ele>369.79998779296875</ele>
        <time>2019-04-25T10:34:08.000Z</time>
      </trkpt>
      <trkpt lat="38.7635869346559047698974609375" lon="-7.67158708535134792327880859375">
        <ele>370.79998779296875</ele>
        <time>2019-04-25T10:34:15.000Z</time>
      </trkpt>
      <trkpt lat="38.76414273865520954132080078125" lon="-7.67142564989626407623291015625">
        <ele>365.20001220703125</ele>
        <time>2019-04-25T10:34:22.000Z</time>
      </trkpt>
      <trkpt lat="38.7642095424234867095947265625" lon="-7.67140402458608150482177734375">
        <ele>364.600006103515625</ele>
        <time>2019-04-25T10:34:23.000Z</time>
      </trkpt>
      <trkpt lat="38.764419592916965484619140625" lon="-7.67112155444920063018798828125">
        <ele>360.600006103515625</ele>
        <time>2019-04-25T10:34:28.000Z</time>
      </trkpt>
      <trkpt lat="38.76465302892029285430908203125" lon="-7.67072911374270915985107421875">
        <ele>358.399993896484375</ele>
        <time>2019-04-25T10:34:36.000Z</time>
      </trkpt>
      <trkpt lat="38.76477054320275783538818359375" lon="-7.670591063797473907470703125">
        <ele>357.79998779296875</ele>
        <time>2019-04-25T10:34:40.000Z</time>
      </trkpt>
      <trkpt lat="38.764915801584720611572265625" lon="-7.67049886286258697509765625">
        <ele>358.20001220703125</ele>
        <time>2019-04-25T10:34:44.000Z</time>
      </trkpt>
      <trkpt lat="38.7653273530304431915283203125" lon="-7.6703900657594203948974609375">
        <ele>360</ele>
        <time>2019-04-25T10:35:03.000Z</time>
      </trkpt>
      <trkpt lat="38.7653454579412937164306640625" lon="-7.67038193531334400177001953125">
        <ele>359.79998779296875</ele>
        <time>2019-04-25T10:36:23.000Z</time>
      </trkpt>
      <trkpt lat="38.76535476185381412506103515625" lon="-7.67038092948496341705322265625">
        <ele>359.79998779296875</ele>
        <time>2019-04-25T10:36:25.000Z</time>
      </trkpt>
      <trkpt lat="38.76536414958536624908447265625" lon="-7.67038512043654918670654296875">
        <ele>359.79998779296875</ele>
        <time>2019-04-25T10:36:27.000Z</time>
      </trkpt>
      <trkpt lat="38.76552558504045009613037109375" lon="-7.67054320313036441802978515625">
        <ele>361.600006103515625</ele>
        <time>2019-04-25T10:36:33.000Z</time>
      </trkpt>
      <trkpt lat="38.76573815010488033294677734375" lon="-7.670688293874263763427734375">
        <ele>362.79998779296875</ele>
        <time>2019-04-25T10:36:37.000Z</time>
      </trkpt>
      <trkpt lat="38.76592598855495452880859375" lon="-7.67077286727726459503173828125">
        <ele>363.20001220703125</ele>
        <time>2019-04-25T10:36:40.000Z</time>
      </trkpt>
      <trkpt lat="38.7662114761769771575927734375" lon="-7.671068497002124786376953125">
        <ele>365.399993896484375</ele>
        <time>2019-04-25T10:36:45.000Z</time>
      </trkpt>
      <trkpt lat="38.7664964608848094940185546875" lon="-7.671134211122989654541015625">
        <ele>363.600006103515625</ele>
        <time>2019-04-25T10:36:50.000Z</time>
      </trkpt>
      <trkpt lat="38.766590841114521026611328125" lon="-7.67112272791564464569091796875">
        <ele>362.600006103515625</ele>
        <time>2019-04-25T10:36:55.000Z</time>
      </trkpt>
      <trkpt lat="38.76658773981034755706787109375" lon="-7.67110780812799930572509765625">
        <ele>362.399993896484375</ele>
        <time>2019-04-25T10:36:58.000Z</time>
      </trkpt>
      <trkpt lat="38.7665368616580963134765625" lon="-7.67110227607190608978271484375">
        <ele>362.79998779296875</ele>
        <time>2019-04-25T10:37:02.000Z</time>
      </trkpt>
      <trkpt lat="38.76643887721002101898193359375" lon="-7.6711057126522064208984375">
        <ele>363.79998779296875</ele>
        <time>2019-04-25T10:37:07.000Z</time>
      </trkpt>
      <trkpt lat="38.76648564822971820831298828125" lon="-7.67086372710764408111572265625">
        <ele>359.79998779296875</ele>
        <time>2019-04-25T10:37:12.000Z</time>
      </trkpt>
      <trkpt lat="38.76651900820434093475341796875" lon="-7.67044463194906711578369140625">
        <ele>356</ele>
        <time>2019-04-25T10:37:17.000Z</time>
      </trkpt>
      <trkpt lat="38.7664693035185337066650390625" lon="-7.669689841568470001220703125">
        <ele>346</ele>
        <time>2019-04-25T10:37:25.000Z</time>
      </trkpt>
      <trkpt lat="38.766467459499835968017578125" lon="-7.66961147077381610870361328125">
        <ele>345</ele>
        <time>2019-04-25T10:37:26.000Z</time>
      </trkpt>
      <trkpt lat="38.7665195949375629425048828125" lon="-7.66935649327933788299560546875">
        <ele>341.20001220703125</ele>
        <time>2019-04-25T10:37:30.000Z</time>
      </trkpt>
      <trkpt lat="38.76670382916927337646484375" lon="-7.669132612645626068115234375">
        <ele>337.399993896484375</ele>
        <time>2019-04-25T10:37:35.000Z</time>
      </trkpt>
      <trkpt lat="38.76716106198728084564208984375" lon="-7.66872852109372615814208984375">
        <ele>331.20001220703125</ele>
        <time>2019-04-25T10:37:42.000Z</time>
      </trkpt>
      <trkpt lat="38.76735686324536800384521484375" lon="-7.66855602152645587921142578125">
        <ele>328.600006103515625</ele>
        <time>2019-04-25T10:37:45.000Z</time>
      </trkpt>
      <trkpt lat="38.7674622237682342529296875" lon="-7.66847019083797931671142578125">
        <ele>327.20001220703125</ele>
        <time>2019-04-25T10:37:47.000Z</time>
      </trkpt>
      <trkpt lat="38.76770571805536746978759765625" lon="-7.6678208447992801666259765625">
        <ele>320.399993896484375</ele>
        <time>2019-04-25T10:37:56.000Z</time>
      </trkpt>
      <trkpt lat="38.7679636292159557342529296875" lon="-7.66778823919594287872314453125">
        <ele>318.600006103515625</ele>
        <time>2019-04-25T10:38:00.000Z</time>
      </trkpt>
      <trkpt lat="38.76824182458221912384033203125" lon="-7.66782310791313648223876953125">
        <ele>317.399993896484375</ele>
        <time>2019-04-25T10:38:05.000Z</time>
      </trkpt>
      <trkpt lat="38.76843988895416259765625" lon="-7.6677316613495349884033203125">
        <ele>315.79998779296875</ele>
        <time>2019-04-25T10:38:09.000Z</time>
      </trkpt>
      <trkpt lat="38.76848892308771610260009765625" lon="-7.6677061803638935089111328125">
        <ele>315.399993896484375</ele>
        <time>2019-04-25T10:38:10.000Z</time>
      </trkpt>
      <trkpt lat="38.76883006654679775238037109375" lon="-7.66756796278059482574462890625">
        <ele>313.20001220703125</ele>
        <time>2019-04-25T10:38:15.000Z</time>
      </trkpt>
      <trkpt lat="38.7693466432392597198486328125" lon="-7.6673346944153308868408203125">
        <ele>311.20001220703125</ele>
        <time>2019-04-25T10:38:22.000Z</time>
      </trkpt>
      <trkpt lat="38.76976716332137584686279296875" lon="-7.66691853292286396026611328125">
        <ele>307.20001220703125</ele>
        <time>2019-04-25T10:38:32.000Z</time>
      </trkpt>
      <trkpt lat="38.769960366189479827880859375" lon="-7.66695088706910610198974609375">
        <ele>306.399993896484375</ele>
        <time>2019-04-25T10:38:35.000Z</time>
      </trkpt>
      <trkpt lat="38.770518600940704345703125" lon="-7.6671065390110015869140625">
        <ele>307.20001220703125</ele>
        <time>2019-04-25T10:38:43.000Z</time>
      </trkpt>
      <trkpt lat="38.77101623453199863433837890625" lon="-7.66739428974688053131103515625">
        <ele>302</ele>
        <time>2019-04-25T10:38:50.000Z</time>
      </trkpt>
      <trkpt lat="38.77108178101480007171630859375" lon="-7.667430751025676727294921875">
        <ele>301.399993896484375</ele>
        <time>2019-04-25T10:38:51.000Z</time>
      </trkpt>
      <trkpt lat="38.77145930193364620208740234375" lon="-7.66754248179495334625244140625">
        <ele>298.79998779296875</ele>
        <time>2019-04-25T10:38:58.000Z</time>
      </trkpt>
      <trkpt lat="38.772021643817424774169921875" lon="-7.6674701459705829620361328125">
        <ele>295.20001220703125</ele>
        <time>2019-04-25T10:39:07.000Z</time>
      </trkpt>
      <trkpt lat="38.77238768152892589569091796875" lon="-7.6676260493695735931396484375">
        <ele>292.20001220703125</ele>
        <time>2019-04-25T10:39:13.000Z</time>
      </trkpt>
      <trkpt lat="38.77271943725645542144775390625" lon="-7.66779896803200244903564453125">
        <ele>289.399993896484375</ele>
        <time>2019-04-25T10:39:18.000Z</time>
      </trkpt>
      <trkpt lat="38.77302219159901142120361328125" lon="-7.66823532991111278533935546875">
        <ele>290</ele>
        <time>2019-04-25T10:39:24.000Z</time>
      </trkpt>
      <trkpt lat="38.77328337170183658599853515625" lon="-7.6688618771731853485107421875">
        <ele>289.399993896484375</ele>
        <time>2019-04-25T10:39:32.000Z</time>
      </trkpt>
      <trkpt lat="38.7736532650887966156005859375" lon="-7.6694454252719879150390625">
        <ele>283.20001220703125</ele>
        <time>2019-04-25T10:39:41.000Z</time>
      </trkpt>
      <trkpt lat="38.7738755531609058380126953125" lon="-7.669707275927066802978515625">
        <ele>281.600006103515625</ele>
        <time>2019-04-25T10:39:52.000Z</time>
      </trkpt>
      <trkpt lat="38.7738835997879505157470703125" lon="-7.6697262190282344818115234375">
        <ele>281.600006103515625</ele>
        <time>2019-04-25T10:40:16.000Z</time>
      </trkpt>
      <trkpt lat="38.7739129364490509033203125" lon="-7.66987415961921215057373046875">
        <ele>281.399993896484375</ele>
        <time>2019-04-25T10:40:22.000Z</time>
      </trkpt>
      <trkpt lat="38.77403656952083110809326171875" lon="-7.6701215095818042755126953125">
        <ele>281</ele>
        <time>2019-04-25T10:40:29.000Z</time>
      </trkpt>
      <trkpt lat="38.7741226516664028167724609375" lon="-7.67029761336743831634521484375">
        <ele>281.399993896484375</ele>
        <time>2019-04-25T10:40:33.000Z</time>
      </trkpt>
      <trkpt lat="38.7742570973932743072509765625" lon="-7.67095341347157955169677734375">
        <ele>283.20001220703125</ele>
        <time>2019-04-25T10:40:49.000Z</time>
      </trkpt>
      <trkpt lat="38.77406506799161434173583984375" lon="-7.6716220378875732421875">
        <ele>284.399993896484375</ele>
        <time>2019-04-25T10:40:59.000Z</time>
      </trkpt>
      <trkpt lat="38.7740468792617321014404296875" lon="-7.67168766818940639495849609375">
        <ele>284.600006103515625</ele>
        <time>2019-04-25T10:41:00.000Z</time>
      </trkpt>
      <trkpt lat="38.7740374915301799774169921875" lon="-7.6719452440738677978515625">
        <ele>282.79998779296875</ele>
        <time>2019-04-25T10:41:04.000Z</time>
      </trkpt>
      <trkpt lat="38.77410379238426685333251953125" lon="-7.6723517663776874542236328125">
        <ele>282.399993896484375</ele>
        <time>2019-04-25T10:41:10.000Z</time>
      </trkpt>
      <trkpt lat="38.77413195557892322540283203125" lon="-7.67253105528652667999267578125">
        <ele>282.600006103515625</ele>
        <time>2019-04-25T10:41:13.000Z</time>
      </trkpt>
      <trkpt lat="38.77412893809378147125244140625" lon="-7.67270187847316265106201171875">
        <ele>282.600006103515625</ele>
        <time>2019-04-25T10:41:16.000Z</time>
      </trkpt>
      <trkpt lat="38.774044699966907501220703125" lon="-7.6731066405773162841796875">
        <ele>283.600006103515625</ele>
        <time>2019-04-25T10:41:25.000Z</time>
      </trkpt>
      <trkpt lat="38.77434351481497287750244140625" lon="-7.67310337163507938385009765625">
        <ele>284</ele>
        <time>2019-04-25T10:41:35.000Z</time>
      </trkpt>
      <trkpt lat="38.77479982562363147735595703125" lon="-7.67284319736063480377197265625">
        <ele>283.600006103515625</ele>
        <time>2019-04-25T10:41:50.000Z</time>
      </trkpt>
      <trkpt lat="38.77517131157219409942626953125" lon="-7.6727654971182346343994140625">
        <ele>283</ele>
        <time>2019-04-25T10:42:00.000Z</time>
      </trkpt>
      <trkpt lat="38.775373063981533050537109375" lon="-7.67274429090321063995361328125">
        <ele>283</ele>
        <time>2019-04-25T10:42:04.000Z</time>
      </trkpt>
      <trkpt lat="38.77565813250839710235595703125" lon="-7.67289340496063232421875">
        <ele>283</ele>
        <time>2019-04-25T10:42:10.000Z</time>
      </trkpt>
      <trkpt lat="38.7759540975093841552734375" lon="-7.6731173694133758544921875">
        <ele>283</ele>
        <time>2019-04-25T10:42:18.000Z</time>
      </trkpt>
      <trkpt lat="38.77650369890034198760986328125" lon="-7.67318149097263813018798828125">
        <ele>284.79998779296875</ele>
        <time>2019-04-25T10:42:33.000Z</time>
      </trkpt>
      <trkpt lat="38.77701231278479099273681640625" lon="-7.67284043133258819580078125">
        <ele>285.20001220703125</ele>
        <time>2019-04-25T10:42:44.000Z</time>
      </trkpt>
      <trkpt lat="38.77750466577708721160888671875" lon="-7.6724624074995517730712890625">
        <ele>281.79998779296875</ele>
        <time>2019-04-25T10:42:52.000Z</time>
      </trkpt>
      <trkpt lat="38.7776762433350086212158203125" lon="-7.67242334783077239990234375">
        <ele>280.79998779296875</ele>
        <time>2019-04-25T10:42:54.000Z</time>
      </trkpt>
      <trkpt lat="38.77795544452965259552001953125" lon="-7.67238655127584934234619140625">
        <ele>280.20001220703125</ele>
        <time>2019-04-25T10:42:57.000Z</time>
      </trkpt>
      <trkpt lat="38.77851619385182857513427734375" lon="-7.6725006289780139923095703125">
        <ele>279</ele>
        <time>2019-04-25T10:43:04.000Z</time>
      </trkpt>
      <trkpt lat="38.778768740594387054443359375" lon="-7.67257447354495525360107421875">
        <ele>279.20001220703125</ele>
        <time>2019-04-25T10:43:08.000Z</time>
      </trkpt>
      <trkpt lat="38.77894870005548000335693359375" lon="-7.67260028980672359466552734375">
        <ele>279.399993896484375</ele>
        <time>2019-04-25T10:43:11.000Z</time>
      </trkpt>
      <trkpt lat="38.77922027371823787689208984375" lon="-7.67275803722441196441650390625">
        <ele>279.600006103515625</ele>
        <time>2019-04-25T10:43:16.000Z</time>
      </trkpt>
      <trkpt lat="38.77933661453425884246826171875" lon="-7.6728545129299163818359375">
        <ele>280.20001220703125</ele>
        <time>2019-04-25T10:43:19.000Z</time>
      </trkpt>
      <trkpt lat="38.77990289591252803802490234375" lon="-7.67304235137999057769775390625">
        <ele>281.20001220703125</ele>
        <time>2019-04-25T10:43:31.000Z</time>
      </trkpt>
      <trkpt lat="38.78047588281333446502685546875" lon="-7.67325508408248424530029296875">
        <ele>281</ele>
        <time>2019-04-25T10:43:41.000Z</time>
      </trkpt>
      <trkpt lat="38.780789785087108612060546875" lon="-7.67314888536930084228515625">
        <ele>279.79998779296875</ele>
        <time>2019-04-25T10:43:46.000Z</time>
      </trkpt>
      <trkpt lat="38.781062699854373931884765625" lon="-7.672883681952953338623046875">
        <ele>278.20001220703125</ele>
        <time>2019-04-25T10:43:51.000Z</time>
      </trkpt>
      <trkpt lat="38.78150015138089656829833984375" lon="-7.6724885590374469757080078125">
        <ele>276.20001220703125</ele>
        <time>2019-04-25T10:43:59.000Z</time>
      </trkpt>
      <trkpt lat="38.78190080635249614715576171875" lon="-7.6726565323770046234130859375">
        <ele>275.79998779296875</ele>
        <time>2019-04-25T10:44:05.000Z</time>
      </trkpt>
      <trkpt lat="38.7822492420673370361328125" lon="-7.6728491485118865966796875">
        <ele>274.20001220703125</ele>
        <time>2019-04-25T10:44:10.000Z</time>
      </trkpt>
      <trkpt lat="38.78277420066297054290771484375" lon="-7.67308652400970458984375">
        <ele>272.79998779296875</ele>
        <time>2019-04-25T10:44:18.000Z</time>
      </trkpt>
      <trkpt lat="38.7831523083150386810302734375" lon="-7.6732995919883251190185546875">
        <ele>272.79998779296875</ele>
        <time>2019-04-25T10:44:26.000Z</time>
      </trkpt>
      <trkpt lat="38.78339588642120361328125" lon="-7.6733829081058502197265625">
        <ele>273</ele>
        <time>2019-04-25T10:44:32.000Z</time>
      </trkpt>
      <trkpt lat="38.78356746397912502288818359375" lon="-7.6733904518187046051025390625">
        <ele>272.79998779296875</ele>
        <time>2019-04-25T10:44:35.000Z</time>
      </trkpt>
      <trkpt lat="38.78412972204387187957763671875" lon="-7.67351768910884857177734375">
        <ele>269.79998779296875</ele>
        <time>2019-04-25T10:44:43.000Z</time>
      </trkpt>
      <trkpt lat="38.78444924019277095794677734375" lon="-7.67370955087244510650634765625">
        <ele>267.79998779296875</ele>
        <time>2019-04-25T10:44:48.000Z</time>
      </trkpt>
      <trkpt lat="38.78459910862147808074951171875" lon="-7.67385724000632762908935546875">
        <ele>266.79998779296875</ele>
        <time>2019-04-25T10:44:51.000Z</time>
      </trkpt>
      <trkpt lat="38.7847267650067806243896484375" lon="-7.6742055080831050872802734375">
        <ele>266.600006103515625</ele>
        <time>2019-04-25T10:44:56.000Z</time>
      </trkpt>
      <trkpt lat="38.78473606891930103302001953125" lon="-7.6742863096296787261962890625">
        <ele>266.20001220703125</ele>
        <time>2019-04-25T10:44:57.000Z</time>
      </trkpt>
      <trkpt lat="38.78469399176537990570068359375" lon="-7.67471873201429843902587890625">
        <ele>264.20001220703125</ele>
        <time>2019-04-25T10:45:02.000Z</time>
      </trkpt>
      <trkpt lat="38.78467219881713390350341796875" lon="-7.6748955063521862030029296875">
        <ele>264</ele>
        <time>2019-04-25T10:45:04.000Z</time>
      </trkpt>
      <trkpt lat="38.784617297351360321044921875" lon="-7.67556480132043361663818359375">
        <ele>263.20001220703125</ele>
        <time>2019-04-25T10:45:12.000Z</time>
      </trkpt>
      <trkpt lat="38.78466448746621608734130859375" lon="-7.6763006485998630523681640625">
        <ele>262.399993896484375</ele>
        <time>2019-04-25T10:45:21.000Z</time>
      </trkpt>
      <trkpt lat="38.78469784744083881378173828125" lon="-7.6769953407347202301025390625">
        <ele>262.399993896484375</ele>
        <time>2019-04-25T10:45:30.000Z</time>
      </trkpt>
      <trkpt lat="38.78470488823950290679931640625" lon="-7.677134312689304351806640625">
        <ele>262.600006103515625</ele>
        <time>2019-04-25T10:45:32.000Z</time>
      </trkpt>
      <trkpt lat="38.78475752659142017364501953125" lon="-7.67749984748661518096923828125">
        <ele>262.20001220703125</ele>
        <time>2019-04-25T10:45:37.000Z</time>
      </trkpt>
      <trkpt lat="38.784822486340999603271484375" lon="-7.6781875826418399810791015625">
        <ele>258.79998779296875</ele>
        <time>2019-04-25T10:45:47.000Z</time>
      </trkpt>
      <trkpt lat="38.7848950736224651336669921875" lon="-7.67844633199274539947509765625">
        <ele>257.600006103515625</ele>
        <time>2019-04-25T10:45:51.000Z</time>
      </trkpt>
      <trkpt lat="38.7849624641239643096923828125" lon="-7.678626291453838348388671875">
        <ele>257.600006103515625</ele>
        <time>2019-04-25T10:45:54.000Z</time>
      </trkpt>
      <trkpt lat="38.7850278429687023162841796875" lon="-7.67876501195132732391357421875">
        <ele>257.399993896484375</ele>
        <time>2019-04-25T10:45:59.000Z</time>
      </trkpt>
      <trkpt lat="38.78503798507153987884521484375" lon="-7.67877406440675258636474609375">
        <ele>257.399993896484375</ele>
        <time>2019-04-25T10:46:07.000Z</time>
      </trkpt>
      <trkpt lat="38.785281814634799957275390625" lon="-7.678966931998729705810546875">
        <ele>256.79998779296875</ele>
        <time>2019-04-25T10:46:17.000Z</time>
      </trkpt>
      <trkpt lat="38.7855974771082401275634765625" lon="-7.67931603826582431793212890625">
        <ele>257.79998779296875</ele>
        <time>2019-04-25T10:46:26.000Z</time>
      </trkpt>
      <trkpt lat="38.7857530452311038970947265625" lon="-7.67952441237866878509521484375">
        <ele>258.79998779296875</ele>
        <time>2019-04-25T10:46:31.000Z</time>
      </trkpt>
      <trkpt lat="38.7860514409840106964111328125" lon="-7.680130340158939361572265625">
        <ele>259.399993896484375</ele>
        <time>2019-04-25T10:46:43.000Z</time>
      </trkpt>
      <trkpt lat="38.78621044568717479705810546875" lon="-7.68047559075057506561279296875">
        <ele>260.600006103515625</ele>
        <time>2019-04-25T10:46:48.000Z</time>
      </trkpt>
      <trkpt lat="38.78629795275628566741943359375" lon="-7.6809422113001346588134765625">
        <ele>261.399993896484375</ele>
        <time>2019-04-25T10:46:54.000Z</time>
      </trkpt>
      <trkpt lat="38.78629728220403194427490234375" lon="-7.681171037256717681884765625">
        <ele>261.79998779296875</ele>
        <time>2019-04-25T10:46:57.000Z</time>
      </trkpt>
      <trkpt lat="38.78626978956162929534912109375" lon="-7.6814632304012775421142578125">
        <ele>262.20001220703125</ele>
        <time>2019-04-25T10:47:01.000Z</time>
      </trkpt>
      <trkpt lat="38.78631488420069217681884765625" lon="-7.68173505552113056182861328125">
        <ele>262.79998779296875</ele>
        <time>2019-04-25T10:47:05.000Z</time>
      </trkpt>
      <trkpt lat="38.78633885644376277923583984375" lon="-7.68179498612880706787109375">
        <ele>262.79998779296875</ele>
        <time>2019-04-25T10:47:06.000Z</time>
      </trkpt>
      <trkpt lat="38.78663440234959125518798828125" lon="-7.68228256143629550933837890625">
        <ele>263.399993896484375</ele>
        <time>2019-04-25T10:47:16.000Z</time>
      </trkpt>
      <trkpt lat="38.78670983947813510894775390625" lon="-7.6824844814836978912353515625">
        <ele>263.79998779296875</ele>
        <time>2019-04-25T10:47:20.000Z</time>
      </trkpt>
      <trkpt lat="38.78692810423672199249267578125" lon="-7.68311823718249797821044921875">
        <ele>265.399993896484375</ele>
        <time>2019-04-25T10:47:36.000Z</time>
      </trkpt>
      <trkpt lat="38.78701544366776943206787109375" lon="-7.6833504997193813323974609375">
        <ele>266</ele>
        <time>2019-04-25T10:47:46.000Z</time>
      </trkpt>
      <trkpt lat="38.7870291061699390411376953125" lon="-7.6833964325487613677978515625">
        <ele>266.20001220703125</ele>
        <time>2019-04-25T10:49:43.000Z</time>
      </trkpt>
      <trkpt lat="38.787218034267425537109375" lon="-7.68404460512101650238037109375">
        <ele>268.79998779296875</ele>
        <time>2019-04-25T10:50:01.000Z</time>
      </trkpt>
      <trkpt lat="38.78745339810848236083984375" lon="-7.68469453789293766021728515625">
        <ele>270.79998779296875</ele>
        <time>2019-04-25T10:50:19.000Z</time>
      </trkpt>
      <trkpt lat="38.78773075528442859649658203125" lon="-7.685294933617115020751953125">
        <ele>269.399993896484375</ele>
        <time>2019-04-25T10:50:30.000Z</time>
      </trkpt>
      <trkpt lat="38.7879048474133014678955078125" lon="-7.6855921559035778045654296875">
        <ele>268.79998779296875</ele>
        <time>2019-04-25T10:50:35.000Z</time>
      </trkpt>
      <trkpt lat="38.7882082723081111907958984375" lon="-7.686170004308223724365234375">
        <ele>268</ele>
        <time>2019-04-25T10:50:44.000Z</time>
      </trkpt>
      <trkpt lat="38.7885214202105998992919921875" lon="-7.686760090291500091552734375">
        <ele>266</ele>
        <time>2019-04-25T10:50:53.000Z</time>
      </trkpt>
      <trkpt lat="38.78874362446367740631103515625" lon="-7.687161080539226531982421875">
        <ele>266</ele>
        <time>2019-04-25T10:50:59.000Z</time>
      </trkpt>
      <trkpt lat="38.78896239213645458221435546875" lon="-7.68743433058261871337890625">
        <ele>265.20001220703125</ele>
        <time>2019-04-25T10:51:04.000Z</time>
      </trkpt>
      <trkpt lat="38.78924083895981311798095703125" lon="-7.688107900321483612060546875">
        <ele>264</ele>
        <time>2019-04-25T10:51:15.000Z</time>
      </trkpt>
      <trkpt lat="38.78926916979253292083740234375" lon="-7.68824058584868907928466796875">
        <ele>263.600006103515625</ele>
        <time>2019-04-25T10:51:17.000Z</time>
      </trkpt>
      <trkpt lat="38.78929205238819122314453125" lon="-7.68851802684366703033447265625">
        <ele>263.399993896484375</ele>
        <time>2019-04-25T10:51:21.000Z</time>
      </trkpt>
      <trkpt lat="38.78951140679419040679931640625" lon="-7.6891501061618328094482421875">
        <ele>262.600006103515625</ele>
        <time>2019-04-25T10:51:31.000Z</time>
      </trkpt>
      <trkpt lat="38.78959069959819316864013671875" lon="-7.68931497819721698760986328125">
        <ele>262.20001220703125</ele>
        <time>2019-04-25T10:51:34.000Z</time>
      </trkpt>
      <trkpt lat="38.78982639871537685394287109375" lon="-7.68965788185596466064453125">
        <ele>261.20001220703125</ele>
        <time>2019-04-25T10:51:41.000Z</time>
      </trkpt>
      <trkpt lat="38.79015094600617885589599609375" lon="-7.69022542051970958709716796875">
        <ele>262</ele>
        <time>2019-04-25T10:51:53.000Z</time>
      </trkpt>
      <trkpt lat="38.79037256352603435516357421875" lon="-7.69054326228797435760498046875">
        <ele>261</ele>
        <time>2019-04-25T10:52:05.000Z</time>
      </trkpt>
      <trkpt lat="38.7904006429016590118408203125" lon="-7.6905793882906436920166015625">
        <ele>260.79998779296875</ele>
        <time>2019-04-25T10:52:09.000Z</time>
      </trkpt>
      <trkpt lat="38.79042939282953739166259765625" lon="-7.6905653066933155059814453125">
        <ele>260.79998779296875</ele>
        <time>2019-04-25T10:55:26.000Z</time>
      </trkpt>
      <trkpt lat="38.79090297035872936248779296875" lon="-7.69021184183657169342041015625">
        <ele>260.20001220703125</ele>
        <time>2019-04-25T10:55:41.000Z</time>
      </trkpt>
      <trkpt lat="38.7913285195827484130859375" lon="-7.68970616161823272705078125">
        <ele>260.20001220703125</ele>
        <time>2019-04-25T10:55:52.000Z</time>
      </trkpt>
      <trkpt lat="38.79173948429524898529052734375" lon="-7.68920316360890865325927734375">
        <ele>260.399993896484375</ele>
        <time>2019-04-25T10:56:02.000Z</time>
      </trkpt>
      <trkpt lat="38.7921749241650104522705078125" lon="-7.68867510370910167694091796875">
        <ele>259.399993896484375</ele>
        <time>2019-04-25T10:56:12.000Z</time>
      </trkpt>
      <trkpt lat="38.7925832904875278472900390625" lon="-7.68807764165103435516357421875">
        <ele>257.20001220703125</ele>
        <time>2019-04-25T10:56:20.000Z</time>
      </trkpt>
      <trkpt lat="38.79296558909118175506591796875" lon="-7.687511779367923736572265625">
        <ele>254.600006103515625</ele>
        <time>2019-04-25T10:56:26.000Z</time>
      </trkpt>
      <trkpt lat="38.79335300065577030181884765625" lon="-7.6869389601051807403564453125">
        <ele>252.600006103515625</ele>
        <time>2019-04-25T10:56:32.000Z</time>
      </trkpt>
      <trkpt lat="38.79370923154056072235107421875" lon="-7.6864068768918514251708984375">
        <ele>251.600006103515625</ele>
        <time>2019-04-25T10:56:38.000Z</time>
      </trkpt>
      <trkpt lat="38.7941114790737628936767578125" lon="-7.685811929404735565185546875">
        <ele>251.1999969482421875</ele>
        <time>2019-04-25T10:56:45.000Z</time>
      </trkpt>
      <trkpt lat="38.79450316540896892547607421875" lon="-7.685229890048503875732421875">
        <ele>249.8000030517578125</ele>
        <time>2019-04-25T10:56:52.000Z</time>
      </trkpt>
      <trkpt lat="38.79485839046537876129150390625" lon="-7.684701494872570037841796875">
        <ele>248.8000030517578125</ele>
        <time>2019-04-25T10:56:58.000Z</time>
      </trkpt>
      <trkpt lat="38.795240186154842376708984375" lon="-7.68413110636174678802490234375">
        <ele>248.1999969482421875</ele>
        <time>2019-04-25T10:57:04.000Z</time>
      </trkpt>
      <trkpt lat="38.79562717862427234649658203125" lon="-7.683503217995166778564453125">
        <ele>249.1999969482421875</ele>
        <time>2019-04-25T10:57:11.000Z</time>
      </trkpt>
      <trkpt lat="38.79569121636450290679931640625" lon="-7.68331554718315601348876953125">
        <ele>249.600006103515625</ele>
        <time>2019-04-25T10:57:13.000Z</time>
      </trkpt>
      <trkpt lat="38.79573664627969264984130859375" lon="-7.68280726857483386993408203125">
        <ele>252</ele>
        <time>2019-04-25T10:57:19.000Z</time>
      </trkpt>
      <trkpt lat="38.79575592465698719024658203125" lon="-7.6823191903531551361083984375">
        <ele>251.8000030517578125</ele>
        <time>2019-04-25T10:57:26.000Z</time>
      </trkpt>
      <trkpt lat="38.79580873064696788787841796875" lon="-7.68152869306504726409912109375">
        <ele>248.600006103515625</ele>
        <time>2019-04-25T10:57:35.000Z</time>
      </trkpt>
      <trkpt lat="38.79587821662425994873046875" lon="-7.68075219355523586273193359375">
        <ele>244.600006103515625</ele>
        <time>2019-04-25T10:57:41.000Z</time>
      </trkpt>
      <trkpt lat="38.79595541395246982574462890625" lon="-7.68005833961069583892822265625">
        <ele>241.600006103515625</ele>
        <time>2019-04-25T10:57:46.000Z</time>
      </trkpt>
      <trkpt lat="38.796011991798877716064453125" lon="-7.67979749478399753570556640625">
        <ele>240</ele>
        <time>2019-04-25T10:57:48.000Z</time>
      </trkpt>
      <trkpt lat="38.7964510358870029449462890625" lon="-7.67930313013494014739990234375">
        <ele>234</ele>
        <time>2019-04-25T10:57:53.000Z</time>
      </trkpt>
      <trkpt lat="38.79700298421084880828857421875" lon="-7.67895561642944812774658203125">
        <ele>227.8000030517578125</ele>
        <time>2019-04-25T10:57:58.000Z</time>
      </trkpt>
      <trkpt lat="38.79757915623486042022705078125" lon="-7.6787132956087589263916015625">
        <ele>224</ele>
        <time>2019-04-25T10:58:03.000Z</time>
      </trkpt>
      <trkpt lat="38.79816018976271152496337890625" lon="-7.6784648559987545013427734375">
        <ele>224</ele>
        <time>2019-04-25T10:58:09.000Z</time>
      </trkpt>
      <trkpt lat="38.798585571348667144775390625" lon="-7.678435854613780975341796875">
        <ele>225</ele>
        <time>2019-04-25T10:58:14.000Z</time>
      </trkpt>
      <trkpt lat="38.7991042435169219970703125" lon="-7.67867817543447017669677734375">
        <ele>227</ele>
        <time>2019-04-25T10:58:21.000Z</time>
      </trkpt>
      <trkpt lat="38.79959131591022014617919921875" lon="-7.678963243961334228515625">
        <ele>227</ele>
        <time>2019-04-25T10:58:29.000Z</time>
      </trkpt>
      <trkpt lat="38.79981142468750476837158203125" lon="-7.67902015708386898040771484375">
        <ele>227.600006103515625</ele>
        <time>2019-04-25T10:58:33.000Z</time>
      </trkpt>
      <trkpt lat="38.80004595033824443817138671875" lon="-7.67899878323078155517578125">
        <ele>228.8000030517578125</ele>
        <time>2019-04-25T10:58:37.000Z</time>
      </trkpt>
      <trkpt lat="38.8005853258073329925537109375" lon="-7.67874372191727161407470703125">
        <ele>230.399993896484375</ele>
        <time>2019-04-25T10:58:46.000Z</time>
      </trkpt>
      <trkpt lat="38.80109569989144802093505859375" lon="-7.67844918183982372283935546875">
        <ele>231.8000030517578125</ele>
        <time>2019-04-25T10:58:55.000Z</time>
      </trkpt>
      <trkpt lat="38.80162945948541164398193359375" lon="-7.67812010832130908966064453125">
        <ele>232.600006103515625</ele>
        <time>2019-04-25T10:59:04.000Z</time>
      </trkpt>
      <trkpt lat="38.80209364928305149078369140625" lon="-7.67763764597475528717041015625">
        <ele>233.399993896484375</ele>
        <time>2019-04-25T10:59:13.000Z</time>
      </trkpt>
      <trkpt lat="38.802393637597560882568359375" lon="-7.67697849310934543609619140625">
        <ele>235.600006103515625</ele>
        <time>2019-04-25T10:59:22.000Z</time>
      </trkpt>
      <trkpt lat="38.8025748543441295623779296875" lon="-7.6762758381664752960205078125">
        <ele>239.8000030517578125</ele>
        <time>2019-04-25T10:59:31.000Z</time>
      </trkpt>
      <trkpt lat="38.802736289799213409423828125" lon="-7.67557754181325435638427734375">
        <ele>242.8000030517578125</ele>
        <time>2019-04-25T10:59:41.000Z</time>
      </trkpt>
      <trkpt lat="38.802899904549121856689453125" lon="-7.6748603023588657379150390625">
        <ele>243.600006103515625</ele>
        <time>2019-04-25T10:59:52.000Z</time>
      </trkpt>
      <trkpt lat="38.80306251347064971923828125" lon="-7.67415605485439300537109375">
        <ele>242.1999969482421875</ele>
        <time>2019-04-25T11:00:03.000Z</time>
      </trkpt>
      <trkpt lat="38.803240545094013214111328125" lon="-7.6735037751495838165283203125">
        <ele>243.1999969482421875</ele>
        <time>2019-04-25T11:00:14.000Z</time>
      </trkpt>
      <trkpt lat="38.80351622588932514190673828125" lon="-7.6729036308825016021728515625">
        <ele>243</ele>
        <time>2019-04-25T11:00:25.000Z</time>
      </trkpt>
      <trkpt lat="38.80382820032536983489990234375" lon="-7.67227289266884326934814453125">
        <ele>243.399993896484375</ele>
        <time>2019-04-25T11:00:37.000Z</time>
      </trkpt>
      <trkpt lat="38.80413648672401905059814453125" lon="-7.6716661266982555389404296875">
        <ele>245</ele>
        <time>2019-04-25T11:00:49.000Z</time>
      </trkpt>
      <trkpt lat="38.80431217141449451446533203125" lon="-7.67132506705820560455322265625">
        <ele>245.600006103515625</ele>
        <time>2019-04-25T11:00:56.000Z</time>
      </trkpt>
      <trkpt lat="38.8046200387179851531982421875" lon="-7.6707434467971324920654296875">
        <ele>247.399993896484375</ele>
        <time>2019-04-25T11:01:08.000Z</time>
      </trkpt>
      <trkpt lat="38.80493075586855411529541015625" lon="-7.6701520197093486785888671875">
        <ele>249</ele>
        <time>2019-04-25T11:01:21.000Z</time>
      </trkpt>
      <trkpt lat="38.8052325882017612457275390625" lon="-7.66957811079919338226318359375">
        <ele>250.1999969482421875</ele>
        <time>2019-04-25T11:01:34.000Z</time>
      </trkpt>
      <trkpt lat="38.80554565228521823883056640625" lon="-7.668999172747135162353515625">
        <ele>251.600006103515625</ele>
        <time>2019-04-25T11:01:47.000Z</time>
      </trkpt>
      <trkpt lat="38.80587003193795680999755859375" lon="-7.6684005372226238250732421875">
        <ele>252.1999969482421875</ele>
        <time>2019-04-25T11:02:01.000Z</time>
      </trkpt>
      <trkpt lat="38.80618519149720668792724609375" lon="-7.667808271944522857666015625">
        <ele>254.1999969482421875</ele>
        <time>2019-04-25T11:02:16.000Z</time>
      </trkpt>
      <trkpt lat="38.80648367106914520263671875" lon="-7.6672129891812801361083984375">
        <ele>257</ele>
        <time>2019-04-25T11:02:31.000Z</time>
      </trkpt>
      <trkpt lat="38.80672750063240528106689453125" lon="-7.66657068394124507904052734375">
        <ele>259.79998779296875</ele>
        <time>2019-04-25T11:02:47.000Z</time>
      </trkpt>
      <trkpt lat="38.8067614473402500152587890625" lon="-7.6664807461202144622802734375">
        <ele>260</ele>
        <time>2019-04-25T11:02:49.000Z</time>
      </trkpt>
      <trkpt lat="38.8069703243672847747802734375" lon="-7.66583559103310108184814453125">
        <ele>262.399993896484375</ele>
        <time>2019-04-25T11:03:05.000Z</time>
      </trkpt>
      <trkpt lat="38.80719135515391826629638671875" lon="-7.6651651225984096527099609375">
        <ele>265</ele>
        <time>2019-04-25T11:03:21.000Z</time>
      </trkpt>
      <trkpt lat="38.80741263739764690399169921875" lon="-7.6645052991807460784912109375">
        <ele>265.399993896484375</ele>
        <time>2019-04-25T11:03:40.000Z</time>
      </trkpt>
      <trkpt lat="38.8076190836727619171142578125" lon="-7.66384237445890903472900390625">
        <ele>266.399993896484375</ele>
        <time>2019-04-25T11:03:52.000Z</time>
      </trkpt>
      <trkpt lat="38.8078299723565578460693359375" lon="-7.66319763846695423126220703125">
        <ele>266</ele>
        <time>2019-04-25T11:04:03.000Z</time>
      </trkpt>
      <trkpt lat="38.8080609776079654693603515625" lon="-7.6624877750873565673828125">
        <ele>263.79998779296875</ele>
        <time>2019-04-25T11:04:14.000Z</time>
      </trkpt>
      <trkpt lat="38.8081686012446880340576171875" lon="-7.66214923001825809478759765625">
        <ele>262.600006103515625</ele>
        <time>2019-04-25T11:04:18.000Z</time>
      </trkpt>
      <trkpt lat="38.80839985795319080352783203125" lon="-7.66145235858857631683349609375">
        <ele>259.600006103515625</ele>
        <time>2019-04-25T11:04:25.000Z</time>
      </trkpt>
      <trkpt lat="38.80861409939825534820556640625" lon="-7.660782895982265472412109375">
        <ele>257.79998779296875</ele>
        <time>2019-04-25T11:04:31.000Z</time>
      </trkpt>
      <trkpt lat="38.808840997517108917236328125" lon="-7.660090215504169464111328125">
        <ele>257.399993896484375</ele>
        <time>2019-04-25T11:04:38.000Z</time>
      </trkpt>
      <trkpt lat="38.80906353704631328582763671875" lon="-7.65941890887916088104248046875">
        <ele>258.399993896484375</ele>
        <time>2019-04-25T11:04:46.000Z</time>
      </trkpt>
      <trkpt lat="38.80933209322392940521240234375" lon="-7.65879261307418346405029296875">
        <ele>259.600006103515625</ele>
        <time>2019-04-25T11:04:55.000Z</time>
      </trkpt>
      <trkpt lat="38.80974750034511089324951171875" lon="-7.658313922584056854248046875">
        <ele>259.399993896484375</ele>
        <time>2019-04-25T11:05:04.000Z</time>
      </trkpt>
      <trkpt lat="38.81011144258081912994384765625" lon="-7.65809289179742336273193359375">
        <ele>258.399993896484375</ele>
        <time>2019-04-25T11:05:10.000Z</time>
      </trkpt>
      <trkpt lat="38.8106100820004940032958984375" lon="-7.65781662426888942718505859375">
        <ele>260.399993896484375</ele>
        <time>2019-04-25T11:05:18.000Z</time>
      </trkpt>
      <trkpt lat="38.81112280301749706268310546875" lon="-7.65754773281514644622802734375">
        <ele>262.79998779296875</ele>
        <time>2019-04-25T11:05:27.000Z</time>
      </trkpt>
      <trkpt lat="38.81165773607790470123291015625" lon="-7.65725805424153804779052734375">
        <ele>263</ele>
        <time>2019-04-25T11:05:38.000Z</time>
      </trkpt>
      <trkpt lat="38.8121728040277957916259765625" lon="-7.65698857605457305908203125">
        <ele>263</ele>
        <time>2019-04-25T11:05:49.000Z</time>
      </trkpt>
      <trkpt lat="38.81269273348152637481689453125" lon="-7.65670920722186565399169921875">
        <ele>263</ele>
        <time>2019-04-25T11:06:00.000Z</time>
      </trkpt>
      <trkpt lat="38.8132389821112155914306640625" lon="-7.65641751699149608612060546875">
        <ele>264.79998779296875</ele>
        <time>2019-04-25T11:06:11.000Z</time>
      </trkpt>
      <trkpt lat="38.813757486641407012939453125" lon="-7.65614242292940616607666015625">
        <ele>266.20001220703125</ele>
        <time>2019-04-25T11:06:21.000Z</time>
      </trkpt>
      <trkpt lat="38.81427942775189876556396484375" lon="-7.655869089066982269287109375">
        <ele>266.79998779296875</ele>
        <time>2019-04-25T11:06:30.000Z</time>
      </trkpt>
      <trkpt lat="38.8148201443254947662353515625" lon="-7.65557999722659587860107421875">
        <ele>268.79998779296875</ele>
        <time>2019-04-25T11:06:39.000Z</time>
      </trkpt>
      <trkpt lat="38.8153596036136150360107421875" lon="-7.65529744327068328857421875">
        <ele>270.79998779296875</ele>
        <time>2019-04-25T11:06:49.000Z</time>
      </trkpt>
      <trkpt lat="38.81586964242160320281982421875" lon="-7.65502578578889369964599609375">
        <ele>273.399993896484375</ele>
        <time>2019-04-25T11:06:59.000Z</time>
      </trkpt>
      <trkpt lat="38.8163704611361026763916015625" lon="-7.6547551341354846954345703125">
        <ele>275</ele>
        <time>2019-04-25T11:07:10.000Z</time>
      </trkpt>
      <trkpt lat="38.816904388368129730224609375" lon="-7.65446729958057403564453125">
        <ele>276.600006103515625</ele>
        <time>2019-04-25T11:07:22.000Z</time>
      </trkpt>
      <trkpt lat="38.81743437610566616058349609375" lon="-7.6541905291378498077392578125">
        <ele>276.399993896484375</ele>
        <time>2019-04-25T11:07:34.000Z</time>
      </trkpt>
      <trkpt lat="38.8179574906826019287109375" lon="-7.65391903929412364959716796875">
        <ele>275.79998779296875</ele>
        <time>2019-04-25T11:07:46.000Z</time>
      </trkpt>
      <trkpt lat="38.8184837065637111663818359375" lon="-7.65363807789981365203857421875">
        <ele>275.399993896484375</ele>
        <time>2019-04-25T11:07:58.000Z</time>
      </trkpt>
      <trkpt lat="38.81899349391460418701171875" lon="-7.6533674262464046478271484375">
        <ele>276</ele>
        <time>2019-04-25T11:08:10.000Z</time>
      </trkpt>
      <trkpt lat="38.8190764747560024261474609375" lon="-7.65332912094891071319580078125">
        <ele>276.20001220703125</ele>
        <time>2019-04-25T11:08:12.000Z</time>
      </trkpt>
      <trkpt lat="38.819608055055141448974609375" lon="-7.653042711317539215087890625">
        <ele>278</ele>
        <time>2019-04-25T11:08:25.000Z</time>
      </trkpt>
      <trkpt lat="38.8201771862804889678955078125" lon="-7.65289376489818096160888671875">
        <ele>279.79998779296875</ele>
        <time>2019-04-25T11:08:38.000Z</time>
      </trkpt>
      <trkpt lat="38.82072075270116329193115234375" lon="-7.6529335789382457733154296875">
        <ele>280.600006103515625</ele>
        <time>2019-04-25T11:08:49.000Z</time>
      </trkpt>
      <trkpt lat="38.8212966732680797576904296875" lon="-7.65304849483072757720947265625">
        <ele>280.20001220703125</ele>
        <time>2019-04-25T11:09:00.000Z</time>
      </trkpt>
      <trkpt lat="38.82184761576354503631591796875" lon="-7.6531669311225414276123046875">
        <ele>277.399993896484375</ele>
        <time>2019-04-25T11:09:10.000Z</time>
      </trkpt>
      <trkpt lat="38.82190846838057041168212890625" lon="-7.653172127902507781982421875">
        <ele>277.20001220703125</ele>
        <time>2019-04-25T11:09:11.000Z</time>
      </trkpt>
      <trkpt lat="38.822495453059673309326171875" lon="-7.6532785780727863311767578125">
        <ele>275.600006103515625</ele>
        <time>2019-04-25T11:09:20.000Z</time>
      </trkpt>
      <trkpt lat="38.82303918711841106414794921875" lon="-7.65338326804339885711669921875">
        <ele>274.20001220703125</ele>
        <time>2019-04-25T11:09:28.000Z</time>
      </trkpt>
      <trkpt lat="38.8235835917294025421142578125" lon="-7.6534938253462314605712890625">
        <ele>273</ele>
        <time>2019-04-25T11:09:36.000Z</time>
      </trkpt>
      <trkpt lat="38.82418599911034107208251953125" lon="-7.653544954955577850341796875">
        <ele>273</ele>
        <time>2019-04-25T11:09:45.000Z</time>
      </trkpt>
      <trkpt lat="38.82472378201782703399658203125" lon="-7.65330246649682521820068359375">
        <ele>271.79998779296875</ele>
        <time>2019-04-25T11:09:53.000Z</time>
      </trkpt>
      <trkpt lat="38.82517908699810504913330078125" lon="-7.65281313098967075347900390625">
        <ele>270.79998779296875</ele>
        <time>2019-04-25T11:10:01.000Z</time>
      </trkpt>
      <trkpt lat="38.8255701027810573577880859375" lon="-7.65232563950121402740478515625">
        <ele>271.20001220703125</ele>
        <time>2019-04-25T11:10:09.000Z</time>
      </trkpt>
      <trkpt lat="38.82599674165248870849609375" lon="-7.65180193819105625152587890625">
        <ele>271.79998779296875</ele>
        <time>2019-04-25T11:10:19.000Z</time>
      </trkpt>
      <trkpt lat="38.8264297507703304290771484375" lon="-7.65128578059375286102294921875">
        <ele>272</ele>
        <time>2019-04-25T11:10:30.000Z</time>
      </trkpt>
      <trkpt lat="38.82684758864343166351318359375" lon="-7.650779597461223602294921875">
        <ele>272.20001220703125</ele>
        <time>2019-04-25T11:10:41.000Z</time>
      </trkpt>
      <trkpt lat="38.8271217606961727142333984375" lon="-7.65044339932501316070556640625">
        <ele>273.399993896484375</ele>
        <time>2019-04-25T11:10:49.000Z</time>
      </trkpt>
      <trkpt lat="38.82751562632620334625244140625" lon="-7.6499645411968231201171875">
        <ele>275.20001220703125</ele>
        <time>2019-04-25T11:11:01.000Z</time>
      </trkpt>
      <trkpt lat="38.8279146887362003326416015625" lon="-7.6494768820703029632568359375">
        <ele>276.600006103515625</ele>
        <time>2019-04-25T11:11:13.000Z</time>
      </trkpt>
      <trkpt lat="38.8283290900290012359619140625" lon="-7.6489732973277568817138671875">
        <ele>278.399993896484375</ele>
        <time>2019-04-25T11:11:26.000Z</time>
      </trkpt>
      <trkpt lat="38.828738294541835784912109375" lon="-7.64847817830741405487060546875">
        <ele>280.20001220703125</ele>
        <time>2019-04-25T11:11:39.000Z</time>
      </trkpt>
      <trkpt lat="38.82913836278021335601806640625" lon="-7.64799454249441623687744140625">
        <ele>281</ele>
        <time>2019-04-25T11:11:51.000Z</time>
      </trkpt>
      <trkpt lat="38.82953281514346599578857421875" lon="-7.6475168578326702117919921875">
        <ele>282</ele>
        <time>2019-04-25T11:12:03.000Z</time>
      </trkpt>
      <trkpt lat="38.8298649899661540985107421875" lon="-7.64715299941599369049072265625">
        <ele>283.600006103515625</ele>
        <time>2019-04-25T11:12:13.000Z</time>
      </trkpt>
      <trkpt lat="38.82999985478818416595458984375" lon="-7.64703431166708469390869140625">
        <ele>284.20001220703125</ele>
        <time>2019-04-25T11:12:17.000Z</time>
      </trkpt>
      <trkpt lat="38.83048768155276775360107421875" lon="-7.64670171774923801422119140625">
        <ele>286.399993896484375</ele>
        <time>2019-04-25T11:12:31.000Z</time>
      </trkpt>
      <trkpt lat="38.83100853301584720611572265625" lon="-7.6463896594941616058349609375">
        <ele>287.600006103515625</ele>
        <time>2019-04-25T11:12:43.000Z</time>
      </trkpt>
      <trkpt lat="38.83150809444487094879150390625" lon="-7.64609520323574542999267578125">
        <ele>288.399993896484375</ele>
        <time>2019-04-25T11:12:54.000Z</time>
      </trkpt>
      <trkpt lat="38.8320245034992694854736328125" lon="-7.6457885093986988067626953125">
        <ele>288.79998779296875</ele>
        <time>2019-04-25T11:13:04.000Z</time>
      </trkpt>
      <trkpt lat="38.83249212987720966339111328125" lon="-7.6453994214534759521484375">
        <ele>288.399993896484375</ele>
        <time>2019-04-25T11:13:13.000Z</time>
      </trkpt>
      <trkpt lat="38.83268776349723339080810546875" lon="-7.64503288082778453826904296875">
        <ele>289</ele>
        <time>2019-04-25T11:13:18.000Z</time>
      </trkpt>
      <trkpt lat="38.8328834809362888336181640625" lon="-7.64432695694267749786376953125">
        <ele>289.600006103515625</ele>
        <time>2019-04-25T11:13:27.000Z</time>
      </trkpt>
      <trkpt lat="38.83299102075397968292236328125" lon="-7.6439277268946170806884765625">
        <ele>289.79998779296875</ele>
        <time>2019-04-25T11:13:32.000Z</time>
      </trkpt>
      <trkpt lat="38.83318237960338592529296875" lon="-7.6432176120579242706298828125">
        <ele>289.79998779296875</ele>
        <time>2019-04-25T11:13:41.000Z</time>
      </trkpt>
      <trkpt lat="38.83334808982908725738525390625" lon="-7.64255569316446781158447265625">
        <ele>286.79998779296875</ele>
        <time>2019-04-25T11:13:49.000Z</time>
      </trkpt>
      <trkpt lat="38.83355788886547088623046875" lon="-7.6418711431324481964111328125">
        <ele>285.600006103515625</ele>
        <time>2019-04-25T11:14:00.000Z</time>
      </trkpt>
      <trkpt lat="38.833815716207027435302734375" lon="-7.64146395027637481689453125">
        <ele>287.20001220703125</ele>
        <time>2019-04-25T11:14:16.000Z</time>
      </trkpt>
      <trkpt lat="38.83384530432522296905517578125" lon="-7.641439139842987060546875">
        <ele>287.399993896484375</ele>
        <time>2019-04-25T11:15:14.000Z</time>
      </trkpt>
      <trkpt lat="38.8342785649001598358154296875" lon="-7.6409695856273174285888671875">
        <ele>289.399993896484375</ele>
        <time>2019-04-25T11:15:31.000Z</time>
      </trkpt>
      <trkpt lat="38.834427259862422943115234375" lon="-7.64080437831580638885498046875">
        <ele>290.20001220703125</ele>
        <time>2019-04-25T11:15:36.000Z</time>
      </trkpt>
      <trkpt lat="38.83454100228846073150634765625" lon="-7.64065149240195751190185546875">
        <ele>290.79998779296875</ele>
        <time>2019-04-25T11:15:40.000Z</time>
      </trkpt>
      <trkpt lat="38.83459581993520259857177734375" lon="-7.64032543636858463287353515625">
        <ele>291.399993896484375</ele>
        <time>2019-04-25T11:15:46.000Z</time>
      </trkpt>
      <trkpt lat="38.83461476303637027740478515625" lon="-7.6396214403212070465087890625">
        <ele>292.79998779296875</ele>
        <time>2019-04-25T11:15:59.000Z</time>
      </trkpt>
      <trkpt lat="38.8346812315285205841064453125" lon="-7.6389103196561336517333984375">
        <ele>294.399993896484375</ele>
        <time>2019-04-25T11:16:11.000Z</time>
      </trkpt>
      <trkpt lat="38.83478541858494281768798828125" lon="-7.638224177062511444091796875">
        <ele>295.600006103515625</ele>
        <time>2019-04-25T11:16:22.000Z</time>
      </trkpt>
      <trkpt lat="38.834974765777587890625" lon="-7.63752034865319728851318359375">
        <ele>296.600006103515625</ele>
        <time>2019-04-25T11:16:32.000Z</time>
      </trkpt>
      <trkpt lat="38.8351801224052906036376953125" lon="-7.63681040145456790924072265625">
        <ele>296.79998779296875</ele>
        <time>2019-04-25T11:16:42.000Z</time>
      </trkpt>
      <trkpt lat="38.83540132082998752593994140625" lon="-7.63615745119750499725341796875">
        <ele>298.79998779296875</ele>
        <time>2019-04-25T11:16:52.000Z</time>
      </trkpt>
      <trkpt lat="38.83564523421227931976318359375" lon="-7.63549259863793849945068359375">
        <ele>301</ele>
        <time>2019-04-25T11:17:03.000Z</time>
      </trkpt>
      <trkpt lat="38.83588009513914585113525390625" lon="-7.634812407195568084716796875">
        <ele>302.79998779296875</ele>
        <time>2019-04-25T11:17:14.000Z</time>
      </trkpt>
      <trkpt lat="38.8361128605902194976806640625" lon="-7.63412383385002613067626953125">
        <ele>303.79998779296875</ele>
        <time>2019-04-25T11:17:24.000Z</time>
      </trkpt>
      <trkpt lat="38.836347721517086029052734375" lon="-7.63345160521566867828369140625">
        <ele>301.20001220703125</ele>
        <time>2019-04-25T11:17:34.000Z</time>
      </trkpt>
      <trkpt lat="38.83659490384161472320556640625" lon="-7.63281927444040775299072265625">
        <ele>302</ele>
        <time>2019-04-25T11:17:44.000Z</time>
      </trkpt>
      <trkpt lat="38.83689028210937976837158203125" lon="-7.63219381682574748992919921875">
        <ele>303.399993896484375</ele>
        <time>2019-04-25T11:17:54.000Z</time>
      </trkpt>
      <trkpt lat="38.8372357003390789031982421875" lon="-7.63159467838704586029052734375">
        <ele>304.399993896484375</ele>
        <time>2019-04-25T11:18:04.000Z</time>
      </trkpt>
      <trkpt lat="38.8376247882843017578125" lon="-7.63102948665618896484375">
        <ele>304</ele>
        <time>2019-04-25T11:18:14.000Z</time>
      </trkpt>
      <trkpt lat="38.838052265346050262451171875" lon="-7.6305233873426914215087890625">
        <ele>304.79998779296875</ele>
        <time>2019-04-25T11:18:24.000Z</time>
      </trkpt>
      <trkpt lat="38.8385198079049587249755859375" lon="-7.630060203373432159423828125">
        <ele>306</ele>
        <time>2019-04-25T11:18:34.000Z</time>
      </trkpt>
      <trkpt lat="38.83899782784283161163330078125" lon="-7.62959643267095088958740234375">
        <ele>307</ele>
        <time>2019-04-25T11:18:44.000Z</time>
      </trkpt>
      <trkpt lat="38.83942580781877040863037109375" lon="-7.629161663353443145751953125">
        <ele>308</ele>
        <time>2019-04-25T11:18:53.000Z</time>
      </trkpt>
      <trkpt lat="38.83986770175397396087646484375" lon="-7.62875840999186038970947265625">
        <ele>308.600006103515625</ele>
        <time>2019-04-25T11:19:02.000Z</time>
      </trkpt>
      <trkpt lat="38.840339183807373046875" lon="-7.62832758016884326934814453125">
        <ele>309.399993896484375</ele>
        <time>2019-04-25T11:19:12.000Z</time>
      </trkpt>
      <trkpt lat="38.8408050499856472015380859375" lon="-7.62789943255484104156494140625">
        <ele>311</ele>
        <time>2019-04-25T11:19:23.000Z</time>
      </trkpt>
      <trkpt lat="38.841243423521518707275390625" lon="-7.6274864561855792999267578125">
        <ele>313.20001220703125</ele>
        <time>2019-04-25T11:19:35.000Z</time>
      </trkpt>
      <trkpt lat="38.84128072299063205718994140625" lon="-7.62745653279125690460205078125">
        <ele>313.399993896484375</ele>
        <time>2019-04-25T11:19:36.000Z</time>
      </trkpt>
      <trkpt lat="38.8415091298520565032958984375" lon="-7.627295516431331634521484375">
        <ele>314.79998779296875</ele>
        <time>2019-04-25T11:19:42.000Z</time>
      </trkpt>
      <trkpt lat="38.8416968844830989837646484375" lon="-7.62713081203401088714599609375">
        <ele>315.79998779296875</ele>
        <time>2019-04-25T11:19:47.000Z</time>
      </trkpt>
      <trkpt lat="38.841813392937183380126953125" lon="-7.62701757252216339111328125">
        <ele>316.600006103515625</ele>
        <time>2019-04-25T11:19:50.000Z</time>
      </trkpt>
      <trkpt lat="38.84226576425135135650634765625" lon="-7.62656754814088344573974609375">
        <ele>319.20001220703125</ele>
        <time>2019-04-25T11:20:04.000Z</time>
      </trkpt>
      <trkpt lat="38.84267630986869335174560546875" lon="-7.626086175441741943359375">
        <ele>320.399993896484375</ele>
        <time>2019-04-25T11:20:20.000Z</time>
      </trkpt>
      <trkpt lat="38.8430262543261051177978515625" lon="-7.62555568479001522064208984375">
        <ele>320.399993896484375</ele>
        <time>2019-04-25T11:20:34.000Z</time>
      </trkpt>
      <trkpt lat="38.84332909248769283294677734375" lon="-7.6249671913683414459228515625">
        <ele>320.20001220703125</ele>
        <time>2019-04-25T11:20:49.000Z</time>
      </trkpt>
      <trkpt lat="38.84334283880889415740966796875" lon="-7.62493609450757503509521484375">
        <ele>320.399993896484375</ele>
        <time>2019-04-25T11:20:52.000Z</time>
      </trkpt>
      <trkpt lat="38.84336940944194793701171875" lon="-7.62488882057368755340576171875">
        <ele>320.399993896484375</ele>
        <time>2019-04-25T11:25:05.000Z</time>
      </trkpt>
      <trkpt lat="38.84360603056848049163818359375" lon="-7.6242423243820667266845703125">
        <ele>322</ele>
        <time>2019-04-25T11:25:22.000Z</time>
      </trkpt>
      <trkpt lat="38.84379856288433074951171875" lon="-7.62356825172901153564453125">
        <ele>323.399993896484375</ele>
        <time>2019-04-25T11:25:37.000Z</time>
      </trkpt>
      <trkpt lat="38.84393258951604366302490234375" lon="-7.62285704724490642547607421875">
        <ele>325.600006103515625</ele>
        <time>2019-04-25T11:25:52.000Z</time>
      </trkpt>
      <trkpt lat="38.8440257124602794647216796875" lon="-7.622140310704708099365234375">
        <ele>327.79998779296875</ele>
        <time>2019-04-25T11:26:06.000Z</time>
      </trkpt>
      <trkpt lat="38.84410894475877285003662109375" lon="-7.62144134379923343658447265625">
        <ele>327.20001220703125</ele>
        <time>2019-04-25T11:26:19.000Z</time>
      </trkpt>
      <trkpt lat="38.8441923446953296661376953125" lon="-7.62070792727172374725341796875">
        <ele>329.20001220703125</ele>
        <time>2019-04-25T11:26:32.000Z</time>
      </trkpt>
      <trkpt lat="38.84425227530300617218017578125" lon="-7.62013477273285388946533203125">
        <ele>330.79998779296875</ele>
        <time>2019-04-25T11:26:43.000Z</time>
      </trkpt>
      <trkpt lat="38.8442935980856418609619140625" lon="-7.6197291724383831024169921875">
        <ele>331.399993896484375</ele>
        <time>2019-04-25T11:26:51.000Z</time>
      </trkpt>
      <trkpt lat="38.84438605047762393951416015625" lon="-7.6190043054521083831787109375">
        <ele>332</ele>
        <time>2019-04-25T11:27:04.000Z</time>
      </trkpt>
      <trkpt lat="38.84446148760616779327392578125" lon="-7.6182958669960498809814453125">
        <ele>332</ele>
        <time>2019-04-25T11:27:16.000Z</time>
      </trkpt>
      <trkpt lat="38.84454698301851749420166015625" lon="-7.6175535656511783599853515625">
        <ele>333</ele>
        <time>2019-04-25T11:27:27.000Z</time>
      </trkpt>
      <trkpt lat="38.844623006880283355712890625" lon="-7.6168508268892765045166015625">
        <ele>333.20001220703125</ele>
        <time>2019-04-25T11:27:38.000Z</time>
      </trkpt>
      <trkpt lat="38.84470271877944469451904296875" lon="-7.61614926159381866455078125">
        <ele>334.20001220703125</ele>
        <time>2019-04-25T11:27:49.000Z</time>
      </trkpt>
      <trkpt lat="38.844777233898639678955078125" lon="-7.61546001769602298736572265625">
        <ele>336.399993896484375</ele>
        <time>2019-04-25T11:28:00.000Z</time>
      </trkpt>
      <trkpt lat="38.84477647952735424041748046875" lon="-7.615220211446285247802734375">
        <ele>337.20001220703125</ele>
        <time>2019-04-25T11:28:04.000Z</time>
      </trkpt>
      <trkpt lat="38.844835571944713592529296875" lon="-7.614529542624950408935546875">
        <ele>340.20001220703125</ele>
        <time>2019-04-25T11:28:16.000Z</time>
      </trkpt>
      <trkpt lat="38.84486013092100620269775390625" lon="-7.61436668224632740020751953125">
        <ele>341</ele>
        <time>2019-04-25T11:28:19.000Z</time>
      </trkpt>
      <trkpt lat="38.84488326497375965118408203125" lon="-7.6142594777047634124755859375">
        <ele>341.399993896484375</ele>
        <time>2019-04-25T11:28:21.000Z</time>
      </trkpt>
      <trkpt lat="38.8449447043240070343017578125" lon="-7.6141143031418323516845703125">
        <ele>341.79998779296875</ele>
        <time>2019-04-25T11:28:24.000Z</time>
      </trkpt>
      <trkpt lat="38.8450201414525508880615234375" lon="-7.6134236343204975128173828125">
        <ele>343.600006103515625</ele>
        <time>2019-04-25T11:28:37.000Z</time>
      </trkpt>
      <trkpt lat="38.84510052390396595001220703125" lon="-7.6126866973936557769775390625">
        <ele>343.79998779296875</ele>
        <time>2019-04-25T11:28:51.000Z</time>
      </trkpt>
      <trkpt lat="38.84518182836472988128662109375" lon="-7.6119423843920230865478515625">
        <ele>343.79998779296875</ele>
        <time>2019-04-25T11:29:04.000Z</time>
      </trkpt>
      <trkpt lat="38.84521921165287494659423828125" lon="-7.61123889125883579254150390625">
        <ele>345.600006103515625</ele>
        <time>2019-04-25T11:29:15.000Z</time>
      </trkpt>
      <trkpt lat="38.84521552361547946929931640625" lon="-7.6111746020615100860595703125">
        <ele>345.79998779296875</ele>
        <time>2019-04-25T11:29:16.000Z</time>
      </trkpt>
      <trkpt lat="38.84517051279544830322265625" lon="-7.61044998653233051300048828125">
        <ele>348.399993896484375</ele>
        <time>2019-04-25T11:29:27.000Z</time>
      </trkpt>
      <trkpt lat="38.8450308702886104583740234375" lon="-7.60972897522151470184326171875">
        <ele>351.600006103515625</ele>
        <time>2019-04-25T11:29:38.000Z</time>
      </trkpt>
      <trkpt lat="38.8448682613670825958251953125" lon="-7.60906018316745758056640625">
        <ele>352</ele>
        <time>2019-04-25T11:29:49.000Z</time>
      </trkpt>
      <trkpt lat="38.84476306848227977752685546875" lon="-7.60877746157348155975341796875">
        <ele>351.399993896484375</ele>
        <time>2019-04-25T11:29:54.000Z</time>
      </trkpt>
      <trkpt lat="38.8445152156054973602294921875" lon="-7.6081557758152484893798828125">
        <ele>348.399993896484375</ele>
        <time>2019-04-25T11:30:09.000Z</time>
      </trkpt>
      <trkpt lat="38.844496943056583404541015625" lon="-7.60811881162226200103759765625">
        <ele>348.399993896484375</ele>
        <time>2019-04-25T11:30:12.000Z</time>
      </trkpt>
      <trkpt lat="38.84448093362152576446533203125" lon="-7.6080907322466373443603515625">
        <ele>348.399993896484375</ele>
        <time>2019-04-25T11:31:19.000Z</time>
      </trkpt>
      <trkpt lat="38.8442319072782993316650390625" lon="-7.60748882777988910675048828125">
        <ele>349</ele>
        <time>2019-04-25T11:31:36.000Z</time>
      </trkpt>
      <trkpt lat="38.8439113833010196685791015625" lon="-7.60690578259527683258056640625">
        <ele>350.79998779296875</ele>
        <time>2019-04-25T11:31:49.000Z</time>
      </trkpt>
      <trkpt lat="38.84377635084092617034912109375" lon="-7.6065959036350250244140625">
        <ele>352.20001220703125</ele>
        <time>2019-04-25T11:31:56.000Z</time>
      </trkpt>
      <trkpt lat="38.8439382053911685943603515625" lon="-7.60623958893120288848876953125">
        <ele>354</ele>
        <time>2019-04-25T11:32:04.000Z</time>
      </trkpt>
      <trkpt lat="38.84396460838615894317626953125" lon="-7.6062007807195186614990234375">
        <ele>354.20001220703125</ele>
        <time>2019-04-25T11:32:05.000Z</time>
      </trkpt>
      <trkpt lat="38.84433441795408725738525390625" lon="-7.60568185709416866302490234375">
        <ele>357.399993896484375</ele>
        <time>2019-04-25T11:32:20.000Z</time>
      </trkpt>
      <trkpt lat="38.844614289700984954833984375" lon="-7.60520962066948413848876953125">
        <ele>359.600006103515625</ele>
        <time>2019-04-25T11:32:32.000Z</time>
      </trkpt>
      <trkpt lat="38.84493372403085231781005859375" lon="-7.6046236418187618255615234375">
        <ele>360.399993896484375</ele>
        <time>2019-04-25T11:32:45.000Z</time>
      </trkpt>
      <trkpt lat="38.8451282680034637451171875" lon="-7.60404118336737155914306640625">
        <ele>361.399993896484375</ele>
        <time>2019-04-25T11:32:56.000Z</time>
      </trkpt>
      <trkpt lat="38.84515106678009033203125" lon="-7.6038565300405025482177734375">
        <ele>361.79998779296875</ele>
        <time>2019-04-25T11:33:02.000Z</time>
      </trkpt>
      <trkpt lat="38.845159448683261871337890625" lon="-7.60383012704551219940185546875">
        <ele>361.79998779296875</ele>
        <time>2019-04-25T11:34:25.000Z</time>
      </trkpt>
      <trkpt lat="38.84527939371764659881591796875" lon="-7.60338328778743743896484375">
        <ele>362.600006103515625</ele>
        <time>2019-04-25T11:34:37.000Z</time>
      </trkpt>
      <trkpt lat="38.84532473981380462646484375" lon="-7.603008113801479339599609375">
        <ele>364.20001220703125</ele>
        <time>2019-04-25T11:34:44.000Z</time>
      </trkpt>
      <trkpt lat="38.84538768790662288665771484375" lon="-7.6023233123123645782470703125">
        <ele>366.399993896484375</ele>
        <time>2019-04-25T11:34:57.000Z</time>
      </trkpt>
      <trkpt lat="38.8454006798565387725830078125" lon="-7.60226589627563953399658203125">
        <ele>366.399993896484375</ele>
        <time>2019-04-25T11:34:58.000Z</time>
      </trkpt>
      <trkpt lat="38.84553638286888599395751953125" lon="-7.60153851471841335296630859375">
        <ele>366</ele>
        <time>2019-04-25T11:35:10.000Z</time>
      </trkpt>
      <trkpt lat="38.84555817581713199615478515625" lon="-7.600841224193572998046875">
        <ele>365.600006103515625</ele>
        <time>2019-04-25T11:35:21.000Z</time>
      </trkpt>
      <trkpt lat="38.84558214806020259857177734375" lon="-7.600100934505462646484375">
        <ele>367.79998779296875</ele>
        <time>2019-04-25T11:35:33.000Z</time>
      </trkpt>
      <trkpt lat="38.8456159271299839019775390625" lon="-7.59936894290149211883544921875">
        <ele>369.20001220703125</ele>
        <time>2019-04-25T11:35:45.000Z</time>
      </trkpt>
      <trkpt lat="38.84563914500176906585693359375" lon="-7.59862429462373256683349609375">
        <ele>371.399993896484375</ele>
        <time>2019-04-25T11:35:57.000Z</time>
      </trkpt>
      <trkpt lat="38.84567166678607463836669921875" lon="-7.5979243218898773193359375">
        <ele>373.399993896484375</ele>
        <time>2019-04-25T11:36:09.000Z</time>
      </trkpt>
      <trkpt lat="38.84567099623382091522216796875" lon="-7.59775961749255657196044921875">
        <ele>373.79998779296875</ele>
        <time>2019-04-25T11:36:12.000Z</time>
      </trkpt>
      <trkpt lat="38.84569982998073101043701171875" lon="-7.5970504246652126312255859375">
        <ele>376.20001220703125</ele>
        <time>2019-04-25T11:36:26.000Z</time>
      </trkpt>
      <trkpt lat="38.84572581388056278228759765625" lon="-7.5963409803807735443115234375">
        <ele>377.79998779296875</ele>
        <time>2019-04-25T11:36:43.000Z</time>
      </trkpt>
      <trkpt lat="38.8457507081329822540283203125" lon="-7.59563463740050792694091796875">
        <ele>380.79998779296875</ele>
        <time>2019-04-25T11:37:01.000Z</time>
      </trkpt>
      <trkpt lat="38.8458859920501708984375" lon="-7.5949631631374359130859375">
        <ele>383.20001220703125</ele>
        <time>2019-04-25T11:37:20.000Z</time>
      </trkpt>
      <trkpt lat="38.84621095843613147735595703125" lon="-7.59439780376851558685302734375">
        <ele>385</ele>
        <time>2019-04-25T11:37:40.000Z</time>
      </trkpt>
      <trkpt lat="38.84638245217502117156982421875" lon="-7.59374669753015041351318359375">
        <ele>388.399993896484375</ele>
        <time>2019-04-25T11:37:59.000Z</time>
      </trkpt>
      <trkpt lat="38.8462512753903865814208984375" lon="-7.59307480417191982269287109375">
        <ele>391.20001220703125</ele>
        <time>2019-04-25T11:38:19.000Z</time>
      </trkpt>
      <trkpt lat="38.8460162468254566192626953125" lon="-7.59243124164640903472900390625">
        <ele>394.399993896484375</ele>
        <time>2019-04-25T11:38:41.000Z</time>
      </trkpt>
      <trkpt lat="38.8459813781082630157470703125" lon="-7.59237055666744709014892578125">
        <ele>394.600006103515625</ele>
        <time>2019-04-25T11:38:44.000Z</time>
      </trkpt>
      <trkpt lat="38.84597676806151866912841796875" lon="-7.59235815145075321197509765625">
        <ele>394.600006103515625</ele>
        <time>2019-04-25T11:38:47.000Z</time>
      </trkpt>
      <trkpt lat="38.845972158014774322509765625" lon="-7.5923211872577667236328125">
        <ele>394.79998779296875</ele>
        <time>2019-04-25T11:39:55.000Z</time>
      </trkpt>
      <trkpt lat="38.84595505893230438232421875" lon="-7.59226729162037372589111328125">
        <ele>395</ele>
        <time>2019-04-25T11:39:58.000Z</time>
      </trkpt>
      <trkpt lat="38.845909796655178070068359375" lon="-7.5921617634594440460205078125">
        <ele>395.600006103515625</ele>
        <time>2019-04-25T11:40:02.000Z</time>
      </trkpt>
      <trkpt lat="38.84567233733832836151123046875" lon="-7.59151627309620380401611328125">
        <ele>399</ele>
        <time>2019-04-25T11:40:23.000Z</time>
      </trkpt>
      <trkpt lat="38.84562372229993343353271484375" lon="-7.5913768820464611053466796875">
        <ele>399.79998779296875</ele>
        <time>2019-04-25T11:40:29.000Z</time>
      </trkpt>
      <trkpt lat="38.84559673257172107696533203125" lon="-7.5913021154701709747314453125">
        <ele>400.20001220703125</ele>
        <time>2019-04-25T11:41:24.000Z</time>
      </trkpt>
      <trkpt lat="38.8453710079193115234375" lon="-7.59066584520041942596435546875">
        <ele>403.20001220703125</ele>
        <time>2019-04-25T11:41:47.000Z</time>
      </trkpt>
      <trkpt lat="38.84513832628726959228515625" lon="-7.590024210512638092041015625">
        <ele>405.79998779296875</ele>
        <time>2019-04-25T11:42:11.000Z</time>
      </trkpt>
      <trkpt lat="38.84489952586591243743896484375" lon="-7.58940202184021472930908203125">
        <ele>410.399993896484375</ele>
        <time>2019-04-25T11:42:31.000Z</time>
      </trkpt>
      <trkpt lat="38.84481436572968959808349609375" lon="-7.589240334928035736083984375">
        <ele>410.79998779296875</ele>
        <time>2019-04-25T11:42:38.000Z</time>
      </trkpt>
      <trkpt lat="38.8448132760822772979736328125" lon="-7.58923354558646678924560546875">
        <ele>410.79998779296875</ele>
        <time>2019-04-25T11:42:40.000Z</time>
      </trkpt>
      <trkpt lat="38.8447921536862850189208984375" lon="-7.58918023668229579925537109375">
        <ele>411</ele>
        <time>2019-04-25T11:42:52.000Z</time>
      </trkpt>
      <trkpt lat="38.84449459612369537353515625" lon="-7.588577158749103546142578125">
        <ele>412.20001220703125</ele>
        <time>2019-04-25T11:43:13.000Z</time>
      </trkpt>
      <trkpt lat="38.84424121119081974029541015625" lon="-7.58829326368868350982666015625">
        <ele>413.20001220703125</ele>
        <time>2019-04-25T11:43:26.000Z</time>
      </trkpt>
      <trkpt lat="38.84401054121553897857666015625" lon="-7.58763863705098628997802734375">
        <ele>414.399993896484375</ele>
        <time>2019-04-25T11:43:46.000Z</time>
      </trkpt>
      <trkpt lat="38.84396159090101718902587890625" lon="-7.58761592209339141845703125">
        <ele>414.399993896484375</ele>
        <time>2019-04-25T11:43:49.000Z</time>
      </trkpt>
      <trkpt lat="38.84394633583724498748779296875" lon="-7.58761617355048656463623046875">
        <ele>414.399993896484375</ele>
        <time>2019-04-25T11:43:52.000Z</time>
      </trkpt>
      <trkpt lat="38.84391280822455883026123046875" lon="-7.5875554047524929046630859375">
        <ele>414.600006103515625</ele>
        <time>2019-04-25T11:45:34.000Z</time>
      </trkpt>
      <trkpt lat="38.84391716681420803070068359375" lon="-7.5873787142336368560791015625">
        <ele>414.79998779296875</ele>
        <time>2019-04-25T11:45:41.000Z</time>
      </trkpt>
      <trkpt lat="38.84384307079017162322998046875" lon="-7.58721585385501384735107421875">
        <ele>415.399993896484375</ele>
        <time>2019-04-25T11:45:47.000Z</time>
      </trkpt>
      <trkpt lat="38.84371139109134674072265625" lon="-7.58720043115317821502685546875">
        <ele>415.20001220703125</ele>
        <time>2019-04-25T11:45:53.000Z</time>
      </trkpt>
      <trkpt lat="38.8436377979815006256103515625" lon="-7.58719188161194324493408203125">
        <ele>415</ele>
        <time>2019-04-25T11:46:02.000Z</time>
      </trkpt>
      <trkpt lat="38.843584991991519927978515625" lon="-7.5871939770877361297607421875">
        <ele>415</ele>
        <time>2019-04-25T11:46:41.000Z</time>
      </trkpt>
      <trkpt lat="38.843124322593212127685546875" lon="-7.58704821579158306121826171875">
        <ele>416.399993896484375</ele>
        <time>2019-04-25T11:47:02.000Z</time>
      </trkpt>
      <trkpt lat="38.8425535149872303009033203125" lon="-7.58698292076587677001953125">
        <ele>416.79998779296875</ele>
        <time>2019-04-25T11:47:19.000Z</time>
      </trkpt>
      <trkpt lat="38.84198681451380252838134765625" lon="-7.586949057877063751220703125">
        <ele>416.600006103515625</ele>
        <time>2019-04-25T11:47:35.000Z</time>
      </trkpt>
      <trkpt lat="38.84182018227875232696533203125" lon="-7.58694562129676342010498046875">
        <ele>416.20001220703125</ele>
        <time>2019-04-25T11:47:44.000Z</time>
      </trkpt>
      <trkpt lat="38.8417887501418590545654296875" lon="-7.5866464711725711822509765625">
        <ele>415.600006103515625</ele>
        <time>2019-04-25T11:47:51.000Z</time>
      </trkpt>
      <trkpt lat="38.8418343476951122283935546875" lon="-7.58592906408011913299560546875">
        <ele>418.399993896484375</ele>
        <time>2019-04-25T11:48:06.000Z</time>
      </trkpt>
      <trkpt lat="38.841960243880748748779296875" lon="-7.58577047847211360931396484375">
        <ele>418.79998779296875</ele>
        <time>2019-04-25T11:48:17.000Z</time>
      </trkpt>
      <trkpt lat="38.841928057372570037841796875" lon="-7.58575706742703914642333984375">
        <ele>419</ele>
        <time>2019-04-25T11:48:24.000Z</time>
      </trkpt>
      <trkpt lat="38.84194373153150081634521484375" lon="-7.5857150740921497344970703125">
        <ele>418.79998779296875</ele>
        <time>2019-04-25T11:48:56.000Z</time>
      </trkpt>
      <trkpt lat="38.8420767523348331451416015625" lon="-7.585488595068454742431640625">
        <ele>418.600006103515625</ele>
        <time>2019-04-25T11:49:07.000Z</time>
      </trkpt>
      <trkpt lat="38.8420703820884227752685546875" lon="-7.58549286983907222747802734375">
        <ele>418.600006103515625</ele>
        <time>2019-04-25T11:49:08.000Z</time>
      </trkpt>
      <trkpt lat="38.8420737348496913909912109375" lon="-7.585429586470127105712890625">
        <ele>418.600006103515625</ele>
        <time>2019-04-25T11:59:57.000Z</time>
      </trkpt>
      <trkpt lat="38.84200072847306728363037109375" lon="-7.58501149713993072509765625">
        <ele>418.79998779296875</ele>
        <time>2019-04-25T12:00:18.000Z</time>
      </trkpt>
      <trkpt lat="38.8420019857585430145263671875" lon="-7.58493413217365741729736328125">
        <ele>419</ele>
        <time>2019-04-25T12:00:22.000Z</time>
      </trkpt>
      <trkpt lat="38.8420033268630504608154296875" lon="-7.58492189459502696990966796875">
        <ele>419</ele>
        <time>2019-04-25T12:00:24.000Z</time>
      </trkpt>
      <trkpt lat="38.8419895805418491363525390625" lon="-7.58489708416163921356201171875">
        <ele>419.20001220703125</ele>
        <time>2019-04-25T12:00:34.000Z</time>
      </trkpt>
      <trkpt lat="38.84190919809043407440185546875" lon="-7.584762386977672576904296875">
        <ele>419</ele>
        <time>2019-04-25T12:00:41.000Z</time>
      </trkpt>
      <trkpt lat="38.84148373268544673919677734375" lon="-7.58430599234998226165771484375">
        <ele>419</ele>
        <time>2019-04-25T12:01:02.000Z</time>
      </trkpt>
      <trkpt lat="38.841025829315185546875" lon="-7.58388119749724864959716796875">
        <ele>418.600006103515625</ele>
        <time>2019-04-25T12:01:18.000Z</time>
      </trkpt>
      <trkpt lat="38.8409881107509136199951171875" lon="-7.58385672233998775482177734375">
        <ele>418.600006103515625</ele>
        <time>2019-04-25T12:01:19.000Z</time>
      </trkpt>
      <trkpt lat="38.84062542580068111419677734375" lon="-7.58336126804351806640625">
        <ele>418.600006103515625</ele>
        <time>2019-04-25T12:01:38.000Z</time>
      </trkpt>
      <trkpt lat="38.8405787386000156402587890625" lon="-7.5832984037697315216064453125">
        <ele>418.600006103515625</ele>
        <time>2019-04-25T12:05:08.000Z</time>
      </trkpt>
      <trkpt lat="38.8405495695769786834716796875" lon="-7.5832581706345081329345703125">
        <ele>418.79998779296875</ele>
        <time>2019-04-25T12:05:11.000Z</time>
      </trkpt>
      <trkpt lat="38.8404573686420917510986328125" lon="-7.583132274448871612548828125">
        <ele>419.20001220703125</ele>
        <time>2019-04-25T12:05:17.000Z</time>
      </trkpt>
      <trkpt lat="38.8403038121759891510009765625" lon="-7.582900933921337127685546875">
        <ele>419</ele>
        <time>2019-04-25T12:05:28.000Z</time>
      </trkpt>
      <trkpt lat="38.84021286852657794952392578125" lon="-7.582811415195465087890625">
        <ele>419</ele>
        <time>2019-04-25T12:05:34.000Z</time>
      </trkpt>
      <trkpt lat="38.84015235118567943572998046875" lon="-7.58276891894638538360595703125">
        <ele>419.20001220703125</ele>
        <time>2019-04-25T12:05:39.000Z</time>
      </trkpt>
      <trkpt lat="38.84016819298267364501953125" lon="-7.582764141261577606201171875">
        <ele>419.20001220703125</ele>
        <time>2019-04-25T12:05:53.000Z</time>
      </trkpt>
      <trkpt lat="38.84031236171722412109375" lon="-7.5829289294779300689697265625">
        <ele>419.20001220703125</ele>
        <time>2019-04-25T12:06:03.000Z</time>
      </trkpt>
      <trkpt lat="38.840428031980991363525390625" lon="-7.5829949788749217987060546875">
        <ele>419.20001220703125</ele>
        <time>2019-04-25T12:06:09.000Z</time>
      </trkpt>
      <trkpt lat="38.8407182134687900543212890625" lon="-7.58345673792064189910888671875">
        <ele>418.600006103515625</ele>
        <time>2019-04-25T12:06:24.000Z</time>
      </trkpt>
      <trkpt lat="38.84063280187547206878662109375" lon="-7.583585567772388458251953125">
        <ele>418.79998779296875</ele>
        <time>2019-04-25T12:06:28.000Z</time>
      </trkpt>
      <trkpt lat="38.84022586047649383544921875" lon="-7.58404464460909366607666015625">
        <ele>419.79998779296875</ele>
        <time>2019-04-25T12:06:44.000Z</time>
      </trkpt>
      <trkpt lat="38.83979075588285923004150390625" lon="-7.58450631983578205108642578125">
        <ele>420.20001220703125</ele>
        <time>2019-04-25T12:06:59.000Z</time>
      </trkpt>
      <trkpt lat="38.8395873270928859710693359375" lon="-7.58476582355797290802001953125">
        <ele>420</ele>
        <time>2019-04-25T12:07:08.000Z</time>
      </trkpt>
      <trkpt lat="38.83958573453128337860107421875" lon="-7.58477906696498394012451171875">
        <ele>420</ele>
        <time>2019-04-25T12:07:10.000Z</time>
      </trkpt>
      <trkpt lat="38.83956075645983219146728515625" lon="-7.584806978702545166015625">
        <ele>420</ele>
        <time>2019-04-25T12:08:01.000Z</time>
      </trkpt>
      <trkpt lat="38.83941256441175937652587890625" lon="-7.58472927846014499664306640625">
        <ele>420.399993896484375</ele>
        <time>2019-04-25T12:08:09.000Z</time>
      </trkpt>
      <trkpt lat="38.83950300514698028564453125" lon="-7.58477948606014251708984375">
        <ele>420.20001220703125</ele>
        <time>2019-04-25T12:08:15.000Z</time>
      </trkpt>
      <trkpt lat="38.83974515832960605621337890625" lon="-7.58515407331287860870361328125">
        <ele>419.399993896484375</ele>
        <time>2019-04-25T12:08:25.000Z</time>
      </trkpt>
      <trkpt lat="38.84014497511088848114013671875" lon="-7.585659921169281005859375">
        <ele>415</ele>
        <time>2019-04-25T12:08:36.000Z</time>
      </trkpt>
      <trkpt lat="38.840530626475811004638671875" lon="-7.5861492566764354705810546875">
        <ele>411.600006103515625</ele>
        <time>2019-04-25T12:08:46.000Z</time>
      </trkpt>
      <trkpt lat="38.84071536362171173095703125" lon="-7.58641940541565418243408203125">
        <ele>410.600006103515625</ele>
        <time>2019-04-25T12:08:51.000Z</time>
      </trkpt>
      <trkpt lat="38.8408979214727878570556640625" lon="-7.58678837679326534271240234375">
        <ele>409.79998779296875</ele>
        <time>2019-04-25T12:08:58.000Z</time>
      </trkpt>
      <trkpt lat="38.84115926921367645263671875" lon="-7.5872437655925750732421875">
        <ele>413</ele>
        <time>2019-04-25T12:09:12.000Z</time>
      </trkpt>
      <trkpt lat="38.84121115319430828094482421875" lon="-7.58724820800125598907470703125">
        <ele>413.20001220703125</ele>
        <time>2019-04-25T12:09:17.000Z</time>
      </trkpt>
      <trkpt lat="38.84125323034822940826416015625" lon="-7.58728056214749813079833984375">
        <ele>413.600006103515625</ele>
        <time>2019-04-25T12:10:23.000Z</time>
      </trkpt>
      <trkpt lat="38.84137250483036041259765625" lon="-7.5872410833835601806640625">
        <ele>414.20001220703125</ele>
        <time>2019-04-25T12:10:28.000Z</time>
      </trkpt>
      <trkpt lat="38.841773159801959991455078125" lon="-7.5871570967137813568115234375">
        <ele>416.399993896484375</ele>
        <time>2019-04-25T12:10:43.000Z</time>
      </trkpt>
      <trkpt lat="38.841822780668735504150390625" lon="-7.58701133541762828826904296875">
        <ele>416.399993896484375</ele>
        <time>2019-04-25T12:10:51.000Z</time>
      </trkpt>
      <trkpt lat="38.84182982146739959716796875" lon="-7.5869814120233058929443359375">
        <ele>416.399993896484375</ele>
        <time>2019-04-25T12:11:00.000Z</time>
      </trkpt>
      <trkpt lat="38.84182085283100605010986328125" lon="-7.58627557195723056793212890625">
        <ele>417</ele>
        <time>2019-04-25T12:11:18.000Z</time>
      </trkpt>
      <trkpt lat="38.8418782688677310943603515625" lon="-7.5855620205402374267578125">
        <ele>419</ele>
        <time>2019-04-25T12:11:35.000Z</time>
      </trkpt>
      <trkpt lat="38.84189821779727935791015625" lon="-7.585260607302188873291015625">
        <ele>419</ele>
        <time>2019-04-25T12:11:41.000Z</time>
      </trkpt>
      <trkpt lat="38.841942138969898223876953125" lon="-7.58487378247082233428955078125">
        <ele>419</ele>
        <time>2019-04-25T12:11:48.000Z</time>
      </trkpt>
      <trkpt lat="38.84212712757289409637451171875" lon="-7.58462199009954929351806640625">
        <ele>419.20001220703125</ele>
        <time>2019-04-25T12:11:56.000Z</time>
      </trkpt>
      <trkpt lat="38.84225956164300441741943359375" lon="-7.58469499647617340087890625">
        <ele>419.20001220703125</ele>
        <time>2019-04-25T12:12:00.000Z</time>
      </trkpt>
      <trkpt lat="38.84276415221393108367919921875" lon="-7.5850542448461055755615234375">
        <ele>417</ele>
        <time>2019-04-25T12:12:14.000Z</time>
      </trkpt>
      <trkpt lat="38.8432770408689975738525390625" lon="-7.58542128838598728179931640625">
        <ele>416.20001220703125</ele>
        <time>2019-04-25T12:12:29.000Z</time>
      </trkpt>
      <trkpt lat="38.8437630236148834228515625" lon="-7.58576595224440097808837890625">
        <ele>416.20001220703125</ele>
        <time>2019-04-25T12:12:43.000Z</time>
      </trkpt>
      <trkpt lat="38.8438751734793186187744140625" lon="-7.58564726449549198150634765625">
        <ele>416.399993896484375</ele>
        <time>2019-04-25T12:12:47.000Z</time>
      </trkpt>
      <trkpt lat="38.8442324101924896240234375" lon="-7.58507327176630496978759765625">
        <ele>417</ele>
        <time>2019-04-25T12:13:00.000Z</time>
      </trkpt>
      <trkpt lat="38.84451806545257568359375" lon="-7.5846361555159091949462890625">
        <ele>417.600006103515625</ele>
        <time>2019-04-25T12:13:10.000Z</time>
      </trkpt>
      <trkpt lat="38.84487471543252468109130859375" lon="-7.584107257425785064697265625">
        <ele>418.79998779296875</ele>
        <time>2019-04-25T12:13:25.000Z</time>
      </trkpt>
      <trkpt lat="38.845213763415813446044921875" lon="-7.58352966047823429107666015625">
        <ele>421.399993896484375</ele>
        <time>2019-04-25T12:13:42.000Z</time>
      </trkpt>
      <trkpt lat="38.84567703120410442352294921875" lon="-7.58360090665519237518310546875">
        <ele>420.600006103515625</ele>
        <time>2019-04-25T12:14:01.000Z</time>
      </trkpt>
      <trkpt lat="38.84619821794331073760986328125" lon="-7.5839421339333057403564453125">
        <ele>420.20001220703125</ele>
        <time>2019-04-25T12:14:14.000Z</time>
      </trkpt>
      <trkpt lat="38.846416734158992767333984375" lon="-7.58408613502979278564453125">
        <ele>420.20001220703125</ele>
        <time>2019-04-25T12:14:19.000Z</time>
      </trkpt>
      <trkpt lat="38.84650231339037418365478515625" lon="-7.5841332413256168365478515625">
        <ele>420</ele>
        <time>2019-04-25T12:14:21.000Z</time>
      </trkpt>
      <trkpt lat="38.84676039218902587890625" lon="-7.5843116082251071929931640625">
        <ele>419.600006103515625</ele>
        <time>2019-04-25T12:14:27.000Z</time>
      </trkpt>
      <trkpt lat="38.84696298278868198394775390625" lon="-7.58444563485682010650634765625">
        <ele>419.79998779296875</ele>
        <time>2019-04-25T12:14:32.000Z</time>
      </trkpt>
      <trkpt lat="38.84718619287014007568359375" lon="-7.58458846248686313629150390625">
        <ele>419.79998779296875</ele>
        <time>2019-04-25T12:14:38.000Z</time>
      </trkpt>
      <trkpt lat="38.84726774878799915313720703125" lon="-7.58464135229587554931640625">
        <ele>419.79998779296875</ele>
        <time>2019-04-25T12:14:40.000Z</time>
      </trkpt>
      <trkpt lat="38.8474733568727970123291015625" lon="-7.58478443138301372528076171875">
        <ele>420</ele>
        <time>2019-04-25T12:14:45.000Z</time>
      </trkpt>
      <trkpt lat="38.84762397967278957366943359375" lon="-7.58488149382174015045166015625">
        <ele>420</ele>
        <time>2019-04-25T12:14:49.000Z</time>
      </trkpt>
      <trkpt lat="38.84811633266508579254150390625" lon="-7.58520084433257579803466796875">
        <ele>419.600006103515625</ele>
        <time>2019-04-25T12:15:01.000Z</time>
      </trkpt>
      <trkpt lat="38.84832805953919887542724609375" lon="-7.58534098975360393524169921875">
        <ele>419.20001220703125</ele>
        <time>2019-04-25T12:15:06.000Z</time>
      </trkpt>
      <trkpt lat="38.84857532568275928497314453125" lon="-7.5855082087218761444091796875">
        <ele>419</ele>
        <time>2019-04-25T12:15:12.000Z</time>
      </trkpt>
      <trkpt lat="38.8486853800714015960693359375" lon="-7.5855947099626064300537109375">
        <ele>419</ele>
        <time>2019-04-25T12:15:15.000Z</time>
      </trkpt>
      <trkpt lat="38.84880063124001026153564453125" lon="-7.585659585893154144287109375">
        <ele>419</ele>
        <time>2019-04-25T12:15:18.000Z</time>
      </trkpt>
      <trkpt lat="38.84924621321260929107666015625" lon="-7.585507370531558990478515625">
        <ele>418.600006103515625</ele>
        <time>2019-04-25T12:15:33.000Z</time>
      </trkpt>
      <trkpt lat="38.84925275109708309173583984375" lon="-7.58542648516595363616943359375">
        <ele>418.600006103515625</ele>
        <time>2019-04-25T12:15:35.000Z</time>
      </trkpt>
      <trkpt lat="38.8492603786289691925048828125" lon="-7.585391364991664886474609375">
        <ele>418.79998779296875</ele>
        <time>2019-04-25T12:15:38.000Z</time>
      </trkpt>
      <trkpt lat="38.84926917962729930877685546875" lon="-7.5853831507265567779541015625">
        <ele>418.79998779296875</ele>
        <time>2019-04-25T12:16:03.000Z</time>
      </trkpt>
      <trkpt lat="38.8493757136166095733642578125" lon="-7.58530343882739543914794921875">
        <ele>418.600006103515625</ele>
        <time>2019-04-25T12:16:10.000Z</time>
      </trkpt>
      <trkpt lat="38.84953388012945652008056640625" lon="-7.5854807160794734954833984375">
        <ele>418</ele>
        <time>2019-04-25T12:16:21.000Z</time>
      </trkpt>
      <trkpt lat="38.84953857399523258209228515625" lon="-7.58554919622838497161865234375">
        <ele>418</ele>
        <time>2019-04-25T12:16:25.000Z</time>
      </trkpt>
      <trkpt lat="38.8495349697768688201904296875" lon="-7.58555958978831768035888671875">
        <ele>418</ele>
        <time>2019-04-25T12:17:16.000Z</time>
      </trkpt>
      <trkpt lat="38.84947143495082855224609375" lon="-7.58568473160266876220703125">
        <ele>418</ele>
        <time>2019-04-25T12:17:21.000Z</time>
      </trkpt>
      <trkpt lat="38.84940974414348602294921875" lon="-7.58525633253157138824462890625">
        <ele>418.600006103515625</ele>
        <time>2019-04-25T12:17:34.000Z</time>
      </trkpt>
      <trkpt lat="38.849572353065013885498046875" lon="-7.58502432145178318023681640625">
        <ele>418.600006103515625</ele>
        <time>2019-04-25T12:17:39.000Z</time>
      </trkpt>
      <trkpt lat="38.849630691111087799072265625" lon="-7.58494980633258819580078125">
        <ele>418.600006103515625</ele>
        <time>2019-04-25T12:17:41.000Z</time>
      </trkpt>
      <trkpt lat="38.85007954202592372894287109375" lon="-7.58476431481540203094482421875">
        <ele>418.20001220703125</ele>
        <time>2019-04-25T12:17:57.000Z</time>
      </trkpt>
      <trkpt lat="38.85008926503360271453857421875" lon="-7.5847602076828479766845703125">
        <ele>418.20001220703125</ele>
        <time>2019-04-25T12:18:21.000Z</time>
      </trkpt>
      <trkpt lat="38.85038196109235286712646484375" lon="-7.58458376862108707427978515625">
        <ele>418.600006103515625</ele>
        <time>2019-04-25T12:18:32.000Z</time>
      </trkpt>
      <trkpt lat="38.8504730723798274993896484375" lon="-7.584469355642795562744140625">
        <ele>419</ele>
        <time>2019-04-25T12:18:35.000Z</time>
      </trkpt>
      <trkpt lat="38.85066124610602855682373046875" lon="-7.58443138562142848968505859375">
        <ele>419</ele>
        <time>2019-04-25T12:18:39.000Z</time>
      </trkpt>
      <trkpt lat="38.85076870210468769073486328125" lon="-7.58442518301308155059814453125">
        <ele>419.20001220703125</ele>
        <time>2019-04-25T12:18:41.000Z</time>
      </trkpt>
      <trkpt lat="38.8509250245988368988037109375" lon="-7.5843803398311138153076171875">
        <ele>419.20001220703125</ele>
        <time>2019-04-25T12:18:44.000Z</time>
      </trkpt>
      <trkpt lat="38.851456604897975921630859375" lon="-7.58414288051426410675048828125">
        <ele>421</ele>
        <time>2019-04-25T12:18:55.000Z</time>
      </trkpt>
      <trkpt lat="38.85201391763985157012939453125" lon="-7.5838848017156124114990234375">
        <ele>422.600006103515625</ele>
        <time>2019-04-25T12:19:07.000Z</time>
      </trkpt>
      <trkpt lat="38.85251649655401706695556640625" lon="-7.5836081989109516143798828125">
        <ele>422.600006103515625</ele>
        <time>2019-04-25T12:19:18.000Z</time>
      </trkpt>
      <trkpt lat="38.85282595641911029815673828125" lon="-7.5832808017730712890625">
        <ele>423.20001220703125</ele>
        <time>2019-04-25T12:19:27.000Z</time>
      </trkpt>
      <trkpt lat="38.8532122783362865447998046875" lon="-7.58275316096842288970947265625">
        <ele>425.20001220703125</ele>
        <time>2019-04-25T12:19:40.000Z</time>
      </trkpt>
      <trkpt lat="38.85336323641240596771240234375" lon="-7.58254520595073699951171875">
        <ele>425.79998779296875</ele>
        <time>2019-04-25T12:19:45.000Z</time>
      </trkpt>
      <trkpt lat="38.8534218259155750274658203125" lon="-7.58246901445090770721435546875">
        <ele>426.20001220703125</ele>
        <time>2019-04-25T12:19:47.000Z</time>
      </trkpt>
      <trkpt lat="38.85359692387282848358154296875" lon="-7.582205235958099365234375">
        <ele>427.399993896484375</ele>
        <time>2019-04-25T12:19:58.000Z</time>
      </trkpt>
      <trkpt lat="38.85360061191022396087646484375" lon="-7.582199871540069580078125">
        <ele>427.399993896484375</ele>
        <time>2019-04-25T12:20:34.000Z</time>
      </trkpt>
      <trkpt lat="38.85393253527581691741943359375" lon="-7.581654377281665802001953125">
        <ele>429.20001220703125</ele>
        <time>2019-04-25T12:20:53.000Z</time>
      </trkpt>
      <trkpt lat="38.85426320135593414306640625" lon="-7.58153577335178852081298828125">
        <ele>429</ele>
        <time>2019-04-25T12:21:08.000Z</time>
      </trkpt>
      <trkpt lat="38.854180388152599334716796875" lon="-7.581779100000858306884765625">
        <ele>428</ele>
        <time>2019-04-25T12:21:17.000Z</time>
      </trkpt>
      <trkpt lat="38.854152895510196685791015625" lon="-7.58178287185728549957275390625">
        <ele>428</ele>
        <time>2019-04-25T12:21:59.000Z</time>
      </trkpt>
      <trkpt lat="38.8541644625365734100341796875" lon="-7.58136637508869171142578125">
        <ele>430</ele>
        <time>2019-04-25T12:22:14.000Z</time>
      </trkpt>
      <trkpt lat="38.85430276393890380859375" lon="-7.58132471702992916107177734375">
        <ele>430</ele>
        <time>2019-04-25T12:22:17.000Z</time>
      </trkpt>
      <trkpt lat="38.85477357544004917144775390625" lon="-7.5809065438807010650634765625">
        <ele>430.79998779296875</ele>
        <time>2019-04-25T12:22:28.000Z</time>
      </trkpt>
      <trkpt lat="38.85522234253585338592529296875" lon="-7.58048149757087230682373046875">
        <ele>430.399993896484375</ele>
        <time>2019-04-25T12:22:38.000Z</time>
      </trkpt>
      <trkpt lat="38.85541261173784732818603515625" lon="-7.58024521172046661376953125">
        <ele>430</ele>
        <time>2019-04-25T12:22:43.000Z</time>
      </trkpt>
      <trkpt lat="38.8554747216403484344482421875" lon="-7.58034311234951019287109375">
        <ele>429.79998779296875</ele>
        <time>2019-04-25T12:22:50.000Z</time>
      </trkpt>
      <trkpt lat="38.855459801852703094482421875" lon="-7.58043958805501461029052734375">
        <ele>429.600006103515625</ele>
        <time>2019-04-25T12:22:55.000Z</time>
      </trkpt>
      <trkpt lat="38.85546147823333740234375" lon="-7.580452747642993927001953125">
        <ele>429.600006103515625</ele>
        <time>2019-04-25T12:23:29.000Z</time>
      </trkpt>
      <trkpt lat="38.8556691817939281463623046875" lon="-7.580948956310749053955078125">
        <ele>428.600006103515625</ele>
        <time>2019-04-25T12:23:41.000Z</time>
      </trkpt>
      <trkpt lat="38.8559317030012607574462890625" lon="-7.5814998149871826171875">
        <ele>427.20001220703125</ele>
        <time>2019-04-25T12:23:50.000Z</time>
      </trkpt>
      <trkpt lat="38.8559900410473346710205078125" lon="-7.58162378333508968353271484375">
        <ele>427</ele>
        <time>2019-04-25T12:23:52.000Z</time>
      </trkpt>
      <trkpt lat="38.856301344931125640869140625" lon="-7.5816458277404308319091796875">
        <ele>426.600006103515625</ele>
        <time>2019-04-25T12:23:58.000Z</time>
      </trkpt>
      <trkpt lat="38.8568812049925327301025390625" lon="-7.58151657879352569580078125">
        <ele>425.79998779296875</ele>
        <time>2019-04-25T12:24:07.000Z</time>
      </trkpt>
      <trkpt lat="38.85695211589336395263671875" lon="-7.5815157406032085418701171875">
        <ele>425.600006103515625</ele>
        <time>2019-04-25T12:24:08.000Z</time>
      </trkpt>
      <trkpt lat="38.85708966292440891265869140625" lon="-7.5815264694392681121826171875">
        <ele>425.399993896484375</ele>
        <time>2019-04-25T12:24:10.000Z</time>
      </trkpt>
      <trkpt lat="38.857631720602512359619140625" lon="-7.58156175725162029266357421875">
        <ele>424</ele>
        <time>2019-04-25T12:24:18.000Z</time>
      </trkpt>
      <trkpt lat="38.85814058594405651092529296875" lon="-7.58153627626597881317138671875">
        <ele>423.79998779296875</ele>
        <time>2019-04-25T12:24:26.000Z</time>
      </trkpt>
      <trkpt lat="38.85849849320948123931884765625" lon="-7.58148916997015476226806640625">
        <ele>423.600006103515625</ele>
        <time>2019-04-25T12:24:32.000Z</time>
      </trkpt>
      <trkpt lat="38.8587295822799205780029296875" lon="-7.58148782886564731597900390625">
        <ele>422.79998779296875</ele>
        <time>2019-04-25T12:24:36.000Z</time>
      </trkpt>
      <trkpt lat="38.85883712209761142730712890625" lon="-7.58147827349603176116943359375">
        <ele>422.600006103515625</ele>
        <time>2019-04-25T12:24:38.000Z</time>
      </trkpt>
      <trkpt lat="38.859008364379405975341796875" lon="-7.5814506970345973968505859375">
        <ele>422.399993896484375</ele>
        <time>2019-04-25T12:24:41.000Z</time>
      </trkpt>
      <trkpt lat="38.859122358262538909912109375" lon="-7.58145547471940517425537109375">
        <ele>422.399993896484375</ele>
        <time>2019-04-25T12:24:43.000Z</time>
      </trkpt>
      <trkpt lat="38.8596819341182708740234375" lon="-7.5814617611467838287353515625">
        <ele>422</ele>
        <time>2019-04-25T12:24:54.000Z</time>
      </trkpt>
      <trkpt lat="38.8598777353763580322265625" lon="-7.58146033622324466705322265625">
        <ele>421.600006103515625</ele>
        <time>2019-04-25T12:24:58.000Z</time>
      </trkpt>
      <trkpt lat="38.8604478724300861358642578125" lon="-7.58134013973176479339599609375">
        <ele>421.600006103515625</ele>
        <time>2019-04-25T12:25:12.000Z</time>
      </trkpt>
      <trkpt lat="38.8606326095759868621826171875" lon="-7.58132840506732463836669921875">
        <ele>422</ele>
        <time>2019-04-25T12:25:16.000Z</time>
      </trkpt>
      <trkpt lat="38.86067502200603485107421875" lon="-7.58131063543260097503662109375">
        <ele>422</ele>
        <time>2019-04-25T12:25:17.000Z</time>
      </trkpt>
      <trkpt lat="38.86076152324676513671875" lon="-7.58129169233143329620361328125">
        <ele>422.20001220703125</ele>
        <time>2019-04-25T12:25:19.000Z</time>
      </trkpt>
      <trkpt lat="38.86105614714324474334716796875" lon="-7.58124299347400665283203125">
        <ele>422.600006103515625</ele>
        <time>2019-04-25T12:25:26.000Z</time>
      </trkpt>
      <trkpt lat="38.8611915148794651031494140625" lon="-7.58121508173644542694091796875">
        <ele>422.399993896484375</ele>
        <time>2019-04-25T12:25:29.000Z</time>
      </trkpt>
      <trkpt lat="38.86171714402735233306884765625" lon="-7.58104073815047740936279296875">
        <ele>422</ele>
        <time>2019-04-25T12:25:46.000Z</time>
      </trkpt>
      <trkpt lat="38.8622519932687282562255859375" lon="-7.58089522831141948699951171875">
        <ele>420.79998779296875</ele>
        <time>2019-04-25T12:26:02.000Z</time>
      </trkpt>
      <trkpt lat="38.86256036348640918731689453125" lon="-7.58079296909272670745849609375">
        <ele>419.399993896484375</ele>
        <time>2019-04-25T12:26:09.000Z</time>
      </trkpt>
      <trkpt lat="38.86278114281594753265380859375" lon="-7.58073496632277965545654296875">
        <ele>418.79998779296875</ele>
        <time>2019-04-25T12:26:14.000Z</time>
      </trkpt>
      <trkpt lat="38.8628685660660266876220703125" lon="-7.5807104073464870452880859375">
        <ele>418.600006103515625</ele>
        <time>2019-04-25T12:26:16.000Z</time>
      </trkpt>
      <trkpt lat="38.86344012804329395294189453125" lon="-7.5805518217384815216064453125">
        <ele>417.79998779296875</ele>
        <time>2019-04-25T12:26:28.000Z</time>
      </trkpt>
      <trkpt lat="38.8640048168599605560302734375" lon="-7.58038845844566822052001953125">
        <ele>417.399993896484375</ele>
        <time>2019-04-25T12:26:38.000Z</time>
      </trkpt>
      <trkpt lat="38.86435098946094512939453125" lon="-7.5808612816035747528076171875">
        <ele>419</ele>
        <time>2019-04-25T12:26:52.000Z</time>
      </trkpt>
      <trkpt lat="38.86446724645793437957763671875" lon="-7.5811616890132427215576171875">
        <ele>419</ele>
        <time>2019-04-25T12:26:58.000Z</time>
      </trkpt>
      <trkpt lat="38.8645744509994983673095703125" lon="-7.58134491741657257080078125">
        <ele>418.79998779296875</ele>
        <time>2019-04-25T12:27:02.000Z</time>
      </trkpt>
      <trkpt lat="38.86480637826025485992431640625" lon="-7.58174314163625240325927734375">
        <ele>419.600006103515625</ele>
        <time>2019-04-25T12:27:13.000Z</time>
      </trkpt>
      <trkpt lat="38.86481207795441150665283203125" lon="-7.581783793866634368896484375">
        <ele>419.399993896484375</ele>
        <time>2019-04-25T12:27:19.000Z</time>
      </trkpt>
      <trkpt lat="38.86491148732602596282958984375" lon="-7.58220967836678028106689453125">
        <ele>419.399993896484375</ele>
        <time>2019-04-25T12:27:38.000Z</time>
      </trkpt>
      <trkpt lat="38.8649020157754421234130859375" lon="-7.58225309662520885467529296875">
        <ele>419.399993896484375</ele>
        <time>2019-04-25T12:28:10.000Z</time>
      </trkpt>
      <trkpt lat="38.8649278320372104644775390625" lon="-7.58286916650831699371337890625">
        <ele>419</ele>
        <time>2019-04-25T12:28:24.000Z</time>
      </trkpt>
      <trkpt lat="38.8650119863450527191162109375" lon="-7.5832283310592174530029296875">
        <ele>418.399993896484375</ele>
        <time>2019-04-25T12:28:31.000Z</time>
      </trkpt>
      <trkpt lat="38.8650723360478878021240234375" lon="-7.58343494497239589691162109375">
        <ele>418</ele>
        <time>2019-04-25T12:28:35.000Z</time>
      </trkpt>
      <trkpt lat="38.86516445316374301910400390625" lon="-7.58362119086086750030517578125">
        <ele>417.79998779296875</ele>
        <time>2019-04-25T12:28:39.000Z</time>
      </trkpt>
      <trkpt lat="38.86532136239111423492431640625" lon="-7.58402754552662372589111328125">
        <ele>417.20001220703125</ele>
        <time>2019-04-25T12:28:49.000Z</time>
      </trkpt>
      <trkpt lat="38.86538565158843994140625" lon="-7.58408621884882450103759765625">
        <ele>417.20001220703125</ele>
        <time>2019-04-25T12:28:51.000Z</time>
      </trkpt>
      <trkpt lat="38.86555605567991733551025390625" lon="-7.5843608938157558441162109375">
        <ele>417</ele>
        <time>2019-04-25T12:28:57.000Z</time>
      </trkpt>
      <trkpt lat="38.865608610212802886962890625" lon="-7.5844544358551502227783203125">
        <ele>417</ele>
        <time>2019-04-25T12:28:59.000Z</time>
      </trkpt>
      <trkpt lat="38.8657142221927642822265625" lon="-7.5847860239446163177490234375">
        <ele>416.600006103515625</ele>
        <time>2019-04-25T12:29:05.000Z</time>
      </trkpt>
      <trkpt lat="38.8658478297293186187744140625" lon="-7.58511031977832317352294921875">
        <ele>416.20001220703125</ele>
        <time>2019-04-25T12:29:12.000Z</time>
      </trkpt>
      <trkpt lat="38.865897618234157562255859375" lon="-7.58520671166479587554931640625">
        <ele>416.20001220703125</ele>
        <time>2019-04-25T12:29:14.000Z</time>
      </trkpt>
      <trkpt lat="38.865984790027141571044921875" lon="-7.5853340327739715576171875">
        <ele>416</ele>
        <time>2019-04-25T12:29:17.000Z</time>
      </trkpt>
      <trkpt lat="38.86603315360844135284423828125" lon="-7.58543193340301513671875">
        <ele>416</ele>
        <time>2019-04-25T12:29:19.000Z</time>
      </trkpt>
      <trkpt lat="38.866191320121288299560546875" lon="-7.58570459671318531036376953125">
        <ele>416</ele>
        <time>2019-04-25T12:29:25.000Z</time>
      </trkpt>
      <trkpt lat="38.86645778082311153411865234375" lon="-7.5862233527004718780517578125">
        <ele>413.600006103515625</ele>
        <time>2019-04-25T12:29:35.000Z</time>
      </trkpt>
      <trkpt lat="38.86653070338070392608642578125" lon="-7.58636978454887866973876953125">
        <ele>413.399993896484375</ele>
        <time>2019-04-25T12:29:38.000Z</time>
      </trkpt>
      <trkpt lat="38.86679112911224365234375" lon="-7.58683615364134311676025390625">
        <ele>413</ele>
        <time>2019-04-25T12:29:49.000Z</time>
      </trkpt>
      <trkpt lat="38.866820633411407470703125" lon="-7.5869646482169628143310546875">
        <ele>412.79998779296875</ele>
        <time>2019-04-25T12:29:51.000Z</time>
      </trkpt>
      <trkpt lat="38.86683404445648193359375" lon="-7.58714544586837291717529296875">
        <ele>412.600006103515625</ele>
        <time>2019-04-25T12:29:54.000Z</time>
      </trkpt>
      <trkpt lat="38.86698131449520587921142578125" lon="-7.5873559154570102691650390625">
        <ele>412.20001220703125</ele>
        <time>2019-04-25T12:29:59.000Z</time>
      </trkpt>
      <trkpt lat="38.867006041109561920166015625" lon="-7.58740662597119808197021484375">
        <ele>412.20001220703125</ele>
        <time>2019-04-25T12:30:00.000Z</time>
      </trkpt>
      <trkpt lat="38.8670705817639827728271484375" lon="-7.587569989264011383056640625">
        <ele>411.79998779296875</ele>
        <time>2019-04-25T12:30:03.000Z</time>
      </trkpt>
      <trkpt lat="38.86733360588550567626953125" lon="-7.58783728815615177154541015625">
        <ele>410.399993896484375</ele>
        <time>2019-04-25T12:30:10.000Z</time>
      </trkpt>
      <trkpt lat="38.8675620965659618377685546875" lon="-7.58797491900622844696044921875">
        <ele>410.399993896484375</ele>
        <time>2019-04-25T12:30:15.000Z</time>
      </trkpt>
      <trkpt lat="38.86765371076762676239013671875" lon="-7.58800241164863109588623046875">
        <ele>410.600006103515625</ele>
        <time>2019-04-25T12:30:17.000Z</time>
      </trkpt>
      <trkpt lat="38.8678447343409061431884765625" lon="-7.5880428962409496307373046875">
        <ele>410.399993896484375</ele>
        <time>2019-04-25T12:30:21.000Z</time>
      </trkpt>
      <trkpt lat="38.86798161081969738006591796875" lon="-7.58805236779153347015380859375">
        <ele>409.79998779296875</ele>
        <time>2019-04-25T12:30:24.000Z</time>
      </trkpt>
      <trkpt lat="38.86818663217127323150634765625" lon="-7.58817457593977451324462890625">
        <ele>409.20001220703125</ele>
        <time>2019-04-25T12:30:29.000Z</time>
      </trkpt>
      <trkpt lat="38.868225105106830596923828125" lon="-7.5881971232593059539794921875">
        <ele>409</ele>
        <time>2019-04-25T12:30:30.000Z</time>
      </trkpt>
      <trkpt lat="38.86829844675958156585693359375" lon="-7.58825504221022129058837890625">
        <ele>408.79998779296875</ele>
        <time>2019-04-25T12:30:32.000Z</time>
      </trkpt>
      <trkpt lat="38.8684125244617462158203125" lon="-7.5883912481367588043212890625">
        <ele>408.20001220703125</ele>
        <time>2019-04-25T12:30:36.000Z</time>
      </trkpt>
      <trkpt lat="38.868602626025676727294921875" lon="-7.58859266526997089385986328125">
        <ele>408.20001220703125</ele>
        <time>2019-04-25T12:30:42.000Z</time>
      </trkpt>
      <trkpt lat="38.86872022412717342376708984375" lon="-7.58873834274709224700927734375">
        <ele>408.20001220703125</ele>
        <time>2019-04-25T12:30:46.000Z</time>
      </trkpt>
      <trkpt lat="38.8688524067401885986328125" lon="-7.58888687007129192352294921875">
        <ele>408.20001220703125</ele>
        <time>2019-04-25T12:30:51.000Z</time>
      </trkpt>
      <trkpt lat="38.86901560239493846893310546875" lon="-7.58900706656277179718017578125">
        <ele>408</ele>
        <time>2019-04-25T12:30:56.000Z</time>
      </trkpt>
      <trkpt lat="38.8692505471408367156982421875" lon="-7.58937545120716094970703125">
        <ele>407</ele>
        <time>2019-04-25T12:31:05.000Z</time>
      </trkpt>
      <trkpt lat="38.869435787200927734375" lon="-7.5895249843597412109375">
        <ele>406.399993896484375</ele>
        <time>2019-04-25T12:31:10.000Z</time>
      </trkpt>
      <trkpt lat="38.869510553777217864990234375" lon="-7.5895744375884532928466796875">
        <ele>406.20001220703125</ele>
        <time>2019-04-25T12:31:12.000Z</time>
      </trkpt>
      <trkpt lat="38.86963225901126861572265625" lon="-7.58973025716841220855712890625">
        <ele>405.79998779296875</ele>
        <time>2019-04-25T12:31:16.000Z</time>
      </trkpt>
      <trkpt lat="38.869700320065021514892578125" lon="-7.58986235596239566802978515625">
        <ele>405.600006103515625</ele>
        <time>2019-04-25T12:31:20.000Z</time>
      </trkpt>
      <trkpt lat="38.8696615956723690032958984375" lon="-7.59006938897073268890380859375">
        <ele>405.600006103515625</ele>
        <time>2019-04-25T12:31:27.000Z</time>
      </trkpt>
      <trkpt lat="38.8697511143982410430908203125" lon="-7.59020316414535045623779296875">
        <ele>405.399993896484375</ele>
        <time>2019-04-25T12:31:31.000Z</time>
      </trkpt>
      <trkpt lat="38.87008597142994403839111328125" lon="-7.59080909192562103271484375">
        <ele>403.399993896484375</ele>
        <time>2019-04-25T12:31:42.000Z</time>
      </trkpt>
      <trkpt lat="38.87041739188134670257568359375" lon="-7.59137713350355625152587890625">
        <ele>400.600006103515625</ele>
        <time>2019-04-25T12:31:50.000Z</time>
      </trkpt>
      <trkpt lat="38.87082793749868869781494140625" lon="-7.59192363359034061431884765625">
        <ele>399.79998779296875</ele>
        <time>2019-04-25T12:31:58.000Z</time>
      </trkpt>
      <trkpt lat="38.87124669738113880157470703125" lon="-7.59246577508747577667236328125">
        <ele>399.20001220703125</ele>
        <time>2019-04-25T12:32:07.000Z</time>
      </trkpt>
      <trkpt lat="38.8713549077510833740234375" lon="-7.5928712077438831329345703125">
        <ele>398.20001220703125</ele>
        <time>2019-04-25T12:32:12.000Z</time>
      </trkpt>
      <trkpt lat="38.87145440094172954559326171875" lon="-7.593590877950191497802734375">
        <ele>397.600006103515625</ele>
        <time>2019-04-25T12:32:21.000Z</time>
      </trkpt>
      <trkpt lat="38.8714985735714435577392578125" lon="-7.59372725151479244232177734375">
        <ele>397.399993896484375</ele>
        <time>2019-04-25T12:32:23.000Z</time>
      </trkpt>
      <trkpt lat="38.87185572646558284759521484375" lon="-7.59392715990543365478515625">
        <ele>396.79998779296875</ele>
        <time>2019-04-25T12:32:29.000Z</time>
      </trkpt>
      <trkpt lat="38.87240759097039699554443359375" lon="-7.59404718875885009765625">
        <ele>396.20001220703125</ele>
        <time>2019-04-25T12:32:37.000Z</time>
      </trkpt>
      <trkpt lat="38.87299482710659503936767578125" lon="-7.5940932892262935638427734375">
        <ele>395.399993896484375</ele>
        <time>2019-04-25T12:32:46.000Z</time>
      </trkpt>
      <trkpt lat="38.87338927946984767913818359375" lon="-7.59399329312145709991455078125">
        <ele>394.79998779296875</ele>
        <time>2019-04-25T12:32:52.000Z</time>
      </trkpt>
      <trkpt lat="38.87386168353259563446044921875" lon="-7.59359699673950672149658203125">
        <ele>392.20001220703125</ele>
        <time>2019-04-25T12:32:59.000Z</time>
      </trkpt>
      <trkpt lat="38.874370716512203216552734375" lon="-7.5933214835822582244873046875">
        <ele>389</ele>
        <time>2019-04-25T12:33:05.000Z</time>
      </trkpt>
      <trkpt lat="38.87494043447077274322509765625" lon="-7.593060471117496490478515625">
        <ele>384.20001220703125</ele>
        <time>2019-04-25T12:33:11.000Z</time>
      </trkpt>
      <trkpt lat="38.87516590766608715057373046875" lon="-7.59300179779529571533203125">
        <ele>382</ele>
        <time>2019-04-25T12:33:14.000Z</time>
      </trkpt>
      <trkpt lat="38.87547654099762439727783203125" lon="-7.5931411050260066986083984375">
        <ele>380.20001220703125</ele>
        <time>2019-04-25T12:33:18.000Z</time>
      </trkpt>
      <trkpt lat="38.876006864011287689208984375" lon="-7.59345299564301967620849609375">
        <ele>376</ele>
        <time>2019-04-25T12:33:25.000Z</time>
      </trkpt>
      <trkpt lat="38.87653735466301441192626953125" lon="-7.59375952184200286865234375">
        <ele>372.20001220703125</ele>
        <time>2019-04-25T12:33:32.000Z</time>
      </trkpt>
      <trkpt lat="38.87706189416348934173583984375" lon="-7.5940711610019207000732421875">
        <ele>368.79998779296875</ele>
        <time>2019-04-25T12:33:39.000Z</time>
      </trkpt>
      <trkpt lat="38.8774969987571239471435546875" lon="-7.59453694336116313934326171875">
        <ele>366.20001220703125</ele>
        <time>2019-04-25T12:33:46.000Z</time>
      </trkpt>
      <trkpt lat="38.87775801122188568115234375" lon="-7.59510288946330547332763671875">
        <ele>365.20001220703125</ele>
        <time>2019-04-25T12:33:53.000Z</time>
      </trkpt>
      <trkpt lat="38.87790511362254619598388671875" lon="-7.59580872952938079833984375">
        <ele>366.399993896484375</ele>
        <time>2019-04-25T12:34:02.000Z</time>
      </trkpt>
      <trkpt lat="38.8780146650969982147216796875" lon="-7.5965039245784282684326171875">
        <ele>365.399993896484375</ele>
        <time>2019-04-25T12:34:11.000Z</time>
      </trkpt>
      <trkpt lat="38.8781273178756237030029296875" lon="-7.59718579240143299102783203125">
        <ele>364.79998779296875</ele>
        <time>2019-04-25T12:34:20.000Z</time>
      </trkpt>
      <trkpt lat="38.87816009111702442169189453125" lon="-7.59733566083014011383056640625">
        <ele>364.399993896484375</ele>
        <time>2019-04-25T12:34:22.000Z</time>
      </trkpt>
      <trkpt lat="38.87840685434639453887939453125" lon="-7.5979942269623279571533203125">
        <ele>362.600006103515625</ele>
        <time>2019-04-25T12:34:31.000Z</time>
      </trkpt>
      <trkpt lat="38.87877750210464000701904296875" lon="-7.59856469929218292236328125">
        <ele>361.399993896484375</ele>
        <time>2019-04-25T12:34:40.000Z</time>
      </trkpt>
      <trkpt lat="38.879226185381412506103515625" lon="-7.59893073700368404388427734375">
        <ele>360.79998779296875</ele>
        <time>2019-04-25T12:34:49.000Z</time>
      </trkpt>
      <trkpt lat="38.8797886110842227935791015625" lon="-7.59908747859299182891845703125">
        <ele>359.79998779296875</ele>
        <time>2019-04-25T12:34:58.000Z</time>
      </trkpt>
      <trkpt lat="38.88016261160373687744140625" lon="-7.5991851277649402618408203125">
        <ele>359.20001220703125</ele>
        <time>2019-04-25T12:35:07.000Z</time>
      </trkpt>
      <trkpt lat="38.8801954686641693115234375" lon="-7.59920415468513965606689453125">
        <ele>359</ele>
        <time>2019-04-25T12:36:50.000Z</time>
      </trkpt>
      <trkpt lat="38.8807407952845096588134765625" lon="-7.5993527658283710479736328125">
        <ele>356.600006103515625</ele>
        <time>2019-04-25T12:37:02.000Z</time>
      </trkpt>
      <trkpt lat="38.8812698610126972198486328125" lon="-7.59950037114322185516357421875">
        <ele>354.79998779296875</ele>
        <time>2019-04-25T12:37:09.000Z</time>
      </trkpt>
      <trkpt lat="38.88185416348278522491455078125" lon="-7.59966532699763774871826171875">
        <ele>353.600006103515625</ele>
        <time>2019-04-25T12:37:16.000Z</time>
      </trkpt>
      <trkpt lat="38.882420361042022705078125" lon="-7.59992047213017940521240234375">
        <ele>352</ele>
        <time>2019-04-25T12:37:23.000Z</time>
      </trkpt>
      <trkpt lat="38.8829298131167888641357421875" lon="-7.6003146730363368988037109375">
        <ele>349.399993896484375</ele>
        <time>2019-04-25T12:37:30.000Z</time>
      </trkpt>
      <trkpt lat="38.88343884609639644622802734375" lon="-7.60070870630443096160888671875">
        <ele>347.399993896484375</ele>
        <time>2019-04-25T12:37:37.000Z</time>
      </trkpt>
      <trkpt lat="38.883943855762481689453125" lon="-7.6010965369641780853271484375">
        <ele>345.399993896484375</ele>
        <time>2019-04-25T12:37:44.000Z</time>
      </trkpt>
      <trkpt lat="38.88442807830870151519775390625" lon="-7.60146894492208957672119140625">
        <ele>345.600006103515625</ele>
        <time>2019-04-25T12:37:51.000Z</time>
      </trkpt>
      <trkpt lat="38.88493384234607219696044921875" lon="-7.60186021216213703155517578125">
        <ele>344.79998779296875</ele>
        <time>2019-04-25T12:38:00.000Z</time>
      </trkpt>
      <trkpt lat="38.8851924240589141845703125" lon="-7.60203220881521701812744140625">
        <ele>345.600006103515625</ele>
        <time>2019-04-25T12:38:07.000Z</time>
      </trkpt>
      <trkpt lat="38.8852039910852909088134765625" lon="-7.60195442475378513336181640625">
        <ele>345.600006103515625</ele>
        <time>2019-04-25T12:38:14.000Z</time>
      </trkpt>
      <trkpt lat="38.885209858417510986328125" lon="-7.60202474892139434814453125">
        <ele>345.79998779296875</ele>
        <time>2019-04-25T12:47:21.000Z</time>
      </trkpt>
      <trkpt lat="38.8852794282138347625732421875" lon="-7.602121643722057342529296875">
        <ele>345.79998779296875</ele>
        <time>2019-04-25T12:47:26.000Z</time>
      </trkpt>
      <trkpt lat="38.8854500837624073028564453125" lon="-7.602283917367458343505859375">
        <ele>345.600006103515625</ele>
        <time>2019-04-25T12:47:32.000Z</time>
      </trkpt>
      <trkpt lat="38.88581461273133754730224609375" lon="-7.60270426981151103973388671875">
        <ele>343.600006103515625</ele>
        <time>2019-04-25T12:47:41.000Z</time>
      </trkpt>
      <trkpt lat="38.8860032893717288970947265625" lon="-7.6028037630021572113037109375">
        <ele>342.600006103515625</ele>
        <time>2019-04-25T12:47:45.000Z</time>
      </trkpt>
      <trkpt lat="38.88604930602014064788818359375" lon="-7.6028061099350452423095703125">
        <ele>342.600006103515625</ele>
        <time>2019-04-25T12:47:46.000Z</time>
      </trkpt>
      <trkpt lat="38.88627964071929454803466796875" lon="-7.6027189381420612335205078125">
        <ele>341</ele>
        <time>2019-04-25T12:47:50.000Z</time>
      </trkpt>
      <trkpt lat="38.886763192713260650634765625" lon="-7.6022877730429172515869140625">
        <ele>336.79998779296875</ele>
        <time>2019-04-25T12:47:57.000Z</time>
      </trkpt>
      <trkpt lat="38.8872806914150714874267578125" lon="-7.6018210686743259429931640625">
        <ele>332.399993896484375</ele>
        <time>2019-04-25T12:48:03.000Z</time>
      </trkpt>
      <trkpt lat="38.8877276144921779632568359375" lon="-7.601430974900722503662109375">
        <ele>331</ele>
        <time>2019-04-25T12:48:08.000Z</time>
      </trkpt>
      <trkpt lat="38.88824813067913055419921875" lon="-7.60108455084264278411865234375">
        <ele>330.20001220703125</ele>
        <time>2019-04-25T12:48:14.000Z</time>
      </trkpt>
      <trkpt lat="38.88883561827242374420166015625" lon="-7.6008957065641880035400390625">
        <ele>329.600006103515625</ele>
        <time>2019-04-25T12:48:21.000Z</time>
      </trkpt>
      <trkpt lat="38.8893889077007770538330078125" lon="-7.6008695550262928009033203125">
        <ele>329</ele>
        <time>2019-04-25T12:48:28.000Z</time>
      </trkpt>
      <trkpt lat="38.8899424485862255096435546875" lon="-7.6009228639304637908935546875">
        <ele>328.79998779296875</ele>
        <time>2019-04-25T12:48:35.000Z</time>
      </trkpt>
      <trkpt lat="38.890500180423259735107421875" lon="-7.60097273625433444976806640625">
        <ele>328.20001220703125</ele>
        <time>2019-04-25T12:48:42.000Z</time>
      </trkpt>
      <trkpt lat="38.89111096970736980438232421875" lon="-7.60103099048137664794921875">
        <ele>327</ele>
        <time>2019-04-25T12:48:50.000Z</time>
      </trkpt>
      <trkpt lat="38.89172033406794071197509765625" lon="-7.6010905019938945770263671875">
        <ele>324</ele>
        <time>2019-04-25T12:48:58.000Z</time>
      </trkpt>
      <trkpt lat="38.89232601039111614227294921875" lon="-7.601146660745143890380859375">
        <ele>324</ele>
        <time>2019-04-25T12:49:06.000Z</time>
      </trkpt>
      <trkpt lat="38.89287896454334259033203125" lon="-7.6011971198022365570068359375">
        <ele>323</ele>
        <time>2019-04-25T12:49:13.000Z</time>
      </trkpt>
      <trkpt lat="38.8934779353439807891845703125" lon="-7.6012194156646728515625">
        <ele>322.600006103515625</ele>
        <time>2019-04-25T12:49:21.000Z</time>
      </trkpt>
      <trkpt lat="38.8940571248531341552734375" lon="-7.601141966879367828369140625">
        <ele>321.20001220703125</ele>
        <time>2019-04-25T12:49:29.000Z</time>
      </trkpt>
      <trkpt lat="38.8946564309298992156982421875" lon="-7.60103501379489898681640625">
        <ele>319.600006103515625</ele>
        <time>2019-04-25T12:49:37.000Z</time>
      </trkpt>
      <trkpt lat="38.8952334411442279815673828125" lon="-7.600930742919445037841796875">
        <ele>318</ele>
        <time>2019-04-25T12:49:45.000Z</time>
      </trkpt>
      <trkpt lat="38.89579863287508487701416015625" lon="-7.60083175264298915863037109375">
        <ele>315.79998779296875</ele>
        <time>2019-04-25T12:49:53.000Z</time>
      </trkpt>
      <trkpt lat="38.8963616453111171722412109375" lon="-7.600728571414947509765625">
        <ele>313.79998779296875</ele>
        <time>2019-04-25T12:50:01.000Z</time>
      </trkpt>
      <trkpt lat="38.8969118334352970123291015625" lon="-7.60060745291411876678466796875">
        <ele>311.600006103515625</ele>
        <time>2019-04-25T12:50:09.000Z</time>
      </trkpt>
      <trkpt lat="38.89745623804628849029541015625" lon="-7.60040737688541412353515625">
        <ele>310.399993896484375</ele>
        <time>2019-04-25T12:50:16.000Z</time>
      </trkpt>
      <trkpt lat="38.89803425408899784088134765625" lon="-7.600168325006961822509765625">
        <ele>307.399993896484375</ele>
        <time>2019-04-25T12:50:23.000Z</time>
      </trkpt>
      <trkpt lat="38.89862425625324249267578125" lon="-7.59992650710046291351318359375">
        <ele>304.20001220703125</ele>
        <time>2019-04-25T12:50:30.000Z</time>
      </trkpt>
      <trkpt lat="38.89921878464519977569580078125" lon="-7.5996833480894565582275390625">
        <ele>304</ele>
        <time>2019-04-25T12:50:37.000Z</time>
      </trkpt>
      <trkpt lat="38.89979210682213306427001953125" lon="-7.599464915692806243896484375">
        <ele>302.20001220703125</ele>
        <time>2019-04-25T12:50:44.000Z</time>
      </trkpt>
      <trkpt lat="38.89994163997471332550048828125" lon="-7.59939484298229217529296875">
        <ele>301.79998779296875</ele>
        <time>2019-04-25T12:50:46.000Z</time>
      </trkpt>
      <trkpt lat="38.9003293029963970184326171875" lon="-7.59890844114124774932861328125">
        <ele>301</ele>
        <time>2019-04-25T12:50:53.000Z</time>
      </trkpt>
      <trkpt lat="38.9007304608821868896484375" lon="-7.598419524729251861572265625">
        <ele>300.20001220703125</ele>
        <time>2019-04-25T12:51:00.000Z</time>
      </trkpt>
      <trkpt lat="38.90080246143043041229248046875" lon="-7.597974278032779693603515625">
        <ele>300</ele>
        <time>2019-04-25T12:51:05.000Z</time>
      </trkpt>
      <trkpt lat="38.90079156495630741119384765625" lon="-7.59724262170493602752685546875">
        <ele>300.399993896484375</ele>
        <time>2019-04-25T12:51:14.000Z</time>
      </trkpt>
      <trkpt lat="38.9007685147225856781005859375" lon="-7.59675898589193820953369140625">
        <ele>301.20001220703125</ele>
        <time>2019-04-25T12:51:21.000Z</time>
      </trkpt>
      <trkpt lat="38.90075451694428920745849609375" lon="-7.59630418382585048675537109375">
        <ele>302</ele>
        <time>2019-04-25T12:51:28.000Z</time>
      </trkpt>
      <trkpt lat="38.90074848197400569915771484375" lon="-7.596180550754070281982421875">
        <ele>302.20001220703125</ele>
        <time>2019-04-25T12:51:30.000Z</time>
      </trkpt>
      <trkpt lat="38.9007232524454593658447265625" lon="-7.59570772759616374969482421875">
        <ele>302.79998779296875</ele>
        <time>2019-04-25T12:51:37.000Z</time>
      </trkpt>
      <trkpt lat="38.900590650737285614013671875" lon="-7.59509257972240447998046875">
        <ele>304.20001220703125</ele>
        <time>2019-04-25T12:51:47.000Z</time>
      </trkpt>
      <trkpt lat="38.90029393136501312255859375" lon="-7.594484724104404449462890625">
        <ele>307.79998779296875</ele>
        <time>2019-04-25T12:52:03.000Z</time>
      </trkpt>
      <trkpt lat="38.89993744902312755584716796875" lon="-7.5939206220209598541259765625">
        <ele>310.399993896484375</ele>
        <time>2019-04-25T12:52:21.000Z</time>
      </trkpt>
      <trkpt lat="38.89957585372030735015869140625" lon="-7.59337403811514377593994140625">
        <ele>312.600006103515625</ele>
        <time>2019-04-25T12:52:38.000Z</time>
      </trkpt>
      <trkpt lat="38.8991759531199932098388671875" lon="-7.59289425797760486602783203125">
        <ele>316.20001220703125</ele>
        <time>2019-04-25T12:52:56.000Z</time>
      </trkpt>
      <trkpt lat="38.89872358180582523345947265625" lon="-7.5925040803849697113037109375">
        <ele>317</ele>
        <time>2019-04-25T12:53:16.000Z</time>
      </trkpt>
      <trkpt lat="38.89850850217044353485107421875" lon="-7.5920085422694683074951171875">
        <ele>317.399993896484375</ele>
        <time>2019-04-25T12:53:30.000Z</time>
      </trkpt>
      <trkpt lat="38.89850481413304805755615234375" lon="-7.591434381902217864990234375">
        <ele>315.79998779296875</ele>
        <time>2019-04-25T12:53:38.000Z</time>
      </trkpt>
      <trkpt lat="38.898595087230205535888671875" lon="-7.591158784925937652587890625">
        <ele>313.79998779296875</ele>
        <time>2019-04-25T12:53:41.000Z</time>
      </trkpt>
      <trkpt lat="38.89877571724355220794677734375" lon="-7.590753771364688873291015625">
        <ele>311.399993896484375</ele>
        <time>2019-04-25T12:53:45.000Z</time>
      </trkpt>
      <trkpt lat="38.89908601529896259307861328125" lon="-7.59008816443383693695068359375">
        <ele>308.600006103515625</ele>
        <time>2019-04-25T12:53:51.000Z</time>
      </trkpt>
      <trkpt lat="38.89938239939510822296142578125" lon="-7.5893977470695972442626953125">
        <ele>303.399993896484375</ele>
        <time>2019-04-25T12:53:57.000Z</time>
      </trkpt>
      <trkpt lat="38.899507708847522735595703125" lon="-7.5891888700425624847412109375">
        <ele>301.600006103515625</ele>
        <time>2019-04-25T12:53:59.000Z</time>
      </trkpt>
      <trkpt lat="38.89988481067121028900146484375" lon="-7.58873582817614078521728515625">
        <ele>300.20001220703125</ele>
        <time>2019-04-25T12:54:05.000Z</time>
      </trkpt>
      <trkpt lat="38.900024034082889556884765625" lon="-7.58840993978083133697509765625">
        <ele>299</ele>
        <time>2019-04-25T12:54:10.000Z</time>
      </trkpt>
      <trkpt lat="38.90039895661175251007080078125" lon="-7.5879020802676677703857421875">
        <ele>301.399993896484375</ele>
        <time>2019-04-25T12:54:32.000Z</time>
      </trkpt>
      <trkpt lat="38.900467939674854278564453125" lon="-7.5876311771571636199951171875">
        <ele>302.399993896484375</ele>
        <time>2019-04-25T12:54:43.000Z</time>
      </trkpt>
      <trkpt lat="38.900502137839794158935546875" lon="-7.58695065043866634368896484375">
        <ele>307</ele>
        <time>2019-04-25T12:55:12.000Z</time>
      </trkpt>
      <trkpt lat="38.90087437815964221954345703125" lon="-7.58649836294353008270263671875">
        <ele>313.79998779296875</ele>
        <time>2019-04-25T12:55:38.000Z</time>
      </trkpt>
      <trkpt lat="38.9013961516320705413818359375" lon="-7.586656026542186737060546875">
        <ele>314.79998779296875</ele>
        <time>2019-04-25T12:56:05.000Z</time>
      </trkpt>
      <trkpt lat="38.9019101299345493316650390625" lon="-7.58647187612950801849365234375">
        <ele>316.600006103515625</ele>
        <time>2019-04-25T12:56:24.000Z</time>
      </trkpt>
      <trkpt lat="38.9019547216594219207763671875" lon="-7.586454190313816070556640625">
        <ele>316.399993896484375</ele>
        <time>2019-04-25T12:56:27.000Z</time>
      </trkpt>
      <trkpt lat="38.90195011161267757415771484375" lon="-7.586458884179592132568359375">
        <ele>316.399993896484375</ele>
        <time>2019-04-25T12:56:28.000Z</time>
      </trkpt>
      <trkpt lat="38.90201079659163951873779296875" lon="-7.5864215008914470672607421875">
        <ele>316.20001220703125</ele>
        <time>2019-04-25T12:58:56.000Z</time>
      </trkpt>
      <trkpt lat="38.90245352871716022491455078125" lon="-7.58599209599196910858154296875">
        <ele>315.20001220703125</ele>
        <time>2019-04-25T12:59:11.000Z</time>
      </trkpt>
      <trkpt lat="38.90248118899762630462646484375" lon="-7.58593627251684665679931640625">
        <ele>315.20001220703125</ele>
        <time>2019-04-25T12:59:12.000Z</time>
      </trkpt>
      <trkpt lat="38.90256333164870738983154296875" lon="-7.5857740826904773712158203125">
        <ele>315.20001220703125</ele>
        <time>2019-04-25T12:59:15.000Z</time>
      </trkpt>
      <trkpt lat="38.90267833136022090911865234375" lon="-7.58549236692488193511962890625">
        <ele>314.79998779296875</ele>
        <time>2019-04-25T12:59:20.000Z</time>
      </trkpt>
      <trkpt lat="38.90273281373083591461181640625" lon="-7.5853419117629528045654296875">
        <ele>314.600006103515625</ele>
        <time>2019-04-25T12:59:23.000Z</time>
      </trkpt>
      <trkpt lat="38.90309122391045093536376953125" lon="-7.58480287156999111175537109375">
        <ele>314</ele>
        <time>2019-04-25T12:59:40.000Z</time>
      </trkpt>
      <trkpt lat="38.90347964130342006683349609375" lon="-7.584268860518932342529296875">
        <ele>314.20001220703125</ele>
        <time>2019-04-25T12:59:57.000Z</time>
      </trkpt>
      <trkpt lat="38.903759680688381195068359375" lon="-7.58395713753998279571533203125">
        <ele>312.79998779296875</ele>
        <time>2019-04-25T13:00:06.000Z</time>
      </trkpt>
      <trkpt lat="38.90395556576550006866455078125" lon="-7.58382671512663364410400390625">
        <ele>311.20001220703125</ele>
        <time>2019-04-25T13:00:10.000Z</time>
      </trkpt>
      <trkpt lat="38.90442562289535999298095703125" lon="-7.58345522917807102203369140625">
        <ele>308</ele>
        <time>2019-04-25T13:00:19.000Z</time>
      </trkpt>
      <trkpt lat="38.9045323245227336883544921875" lon="-7.583368979394435882568359375">
        <ele>307.79998779296875</ele>
        <time>2019-04-25T13:00:21.000Z</time>
      </trkpt>
      <trkpt lat="38.904726617038249969482421875" lon="-7.5832231342792510986328125">
        <ele>309</ele>
        <time>2019-04-25T13:00:26.000Z</time>
      </trkpt>
      <trkpt lat="38.90520765446126461029052734375" lon="-7.58308910764753818511962890625">
        <ele>309.79998779296875</ele>
        <time>2019-04-25T13:00:44.000Z</time>
      </trkpt>
      <trkpt lat="38.90525811351835727691650390625" lon="-7.5830596871674060821533203125">
        <ele>309.79998779296875</ele>
        <time>2019-04-25T13:01:21.000Z</time>
      </trkpt>
      <trkpt lat="38.90555265359580516815185546875" lon="-7.582707814872264862060546875">
        <ele>310.399993896484375</ele>
        <time>2019-04-25T13:01:33.000Z</time>
      </trkpt>
      <trkpt lat="38.9056645520031452178955078125" lon="-7.5826089084148406982421875">
        <ele>310.399993896484375</ele>
        <time>2019-04-25T13:01:36.000Z</time>
      </trkpt>
      <trkpt lat="38.90580763109028339385986328125" lon="-7.58246616460382938385009765625">
        <ele>309.79998779296875</ele>
        <time>2019-04-25T13:01:40.000Z</time>
      </trkpt>
      <trkpt lat="38.90588440932333469390869140625" lon="-7.582282684743404388427734375">
        <ele>309.20001220703125</ele>
        <time>2019-04-25T13:01:44.000Z</time>
      </trkpt>
      <trkpt lat="38.90621650032699108123779296875" lon="-7.58191681466996669769287109375">
        <ele>306.600006103515625</ele>
        <time>2019-04-25T13:01:53.000Z</time>
      </trkpt>
      <trkpt lat="38.9062345214188098907470703125" lon="-7.5818493403494358062744140625">
        <ele>306.600006103515625</ele>
        <time>2019-04-25T13:01:54.000Z</time>
      </trkpt>
      <trkpt lat="38.906436860561370849609375" lon="-7.58121759630739688873291015625">
        <ele>305</ele>
        <time>2019-04-25T13:02:03.000Z</time>
      </trkpt>
      <trkpt lat="38.90648405067622661590576171875" lon="-7.5811060331761837005615234375">
        <ele>304.600006103515625</ele>
        <time>2019-04-25T13:02:05.000Z</time>
      </trkpt>
      <trkpt lat="38.90659016557037830352783203125" lon="-7.58083957247436046600341796875">
        <ele>304</ele>
        <time>2019-04-25T13:02:10.000Z</time>
      </trkpt>
      <trkpt lat="38.9068293012678623199462890625" lon="-7.58037052117288112640380859375">
        <ele>302.79998779296875</ele>
        <time>2019-04-25T13:02:19.000Z</time>
      </trkpt>
      <trkpt lat="38.90699970535933971405029296875" lon="-7.58007195778191089630126953125">
        <ele>302.600006103515625</ele>
        <time>2019-04-25T13:02:27.000Z</time>
      </trkpt>
      <trkpt lat="38.90701579861342906951904296875" lon="-7.58006726391613483428955078125">
        <ele>302.399993896484375</ele>
        <time>2019-04-25T13:02:30.000Z</time>
      </trkpt>
      <trkpt lat="38.9070291258394718170166015625" lon="-7.580014877021312713623046875">
        <ele>302.600006103515625</ele>
        <time>2019-04-25T13:03:08.000Z</time>
      </trkpt>
      <trkpt lat="38.9075689204037189483642578125" lon="-7.5801588781177997589111328125">
        <ele>300.20001220703125</ele>
        <time>2019-04-25T13:03:25.000Z</time>
      </trkpt>
      <trkpt lat="38.90814467333257198333740234375" lon="-7.58022417314350605010986328125">
        <ele>297.600006103515625</ele>
        <time>2019-04-25T13:03:38.000Z</time>
      </trkpt>
      <trkpt lat="38.90836193226277828216552734375" lon="-7.5802091695368289947509765625">
        <ele>296.79998779296875</ele>
        <time>2019-04-25T13:03:44.000Z</time>
      </trkpt>
      <trkpt lat="38.908449523150920867919921875" lon="-7.57989862002432346343994140625">
        <ele>297.20001220703125</ele>
        <time>2019-04-25T13:03:50.000Z</time>
      </trkpt>
      <trkpt lat="38.9084466733038425445556640625" lon="-7.57977423258125782012939453125">
        <ele>297.20001220703125</ele>
        <time>2019-04-25T13:03:52.000Z</time>
      </trkpt>
      <trkpt lat="38.9084158279001712799072265625" lon="-7.57954272441565990447998046875">
        <ele>297</ele>
        <time>2019-04-25T13:03:56.000Z</time>
      </trkpt>
      <trkpt lat="38.908423371613025665283203125" lon="-7.57948488928377628326416015625">
        <ele>296.79998779296875</ele>
        <time>2019-04-25T13:04:00.000Z</time>
      </trkpt>
      <trkpt lat="38.90843116678297519683837890625" lon="-7.57944398559629917144775390625">
        <ele>296.79998779296875</ele>
        <time>2019-04-25T13:04:20.000Z</time>
      </trkpt>
      <trkpt lat="38.90845321118831634521484375" lon="-7.5790362060070037841796875">
        <ele>296.79998779296875</ele>
        <time>2019-04-25T13:04:28.000Z</time>
      </trkpt>
      <trkpt lat="38.90845664776861667633056640625" lon="-7.5787564180791378021240234375">
        <ele>295.600006103515625</ele>
        <time>2019-04-25T13:04:32.000Z</time>
      </trkpt>
      <trkpt lat="38.908527977764606475830078125" lon="-7.5785507261753082275390625">
        <ele>294.20001220703125</ele>
        <time>2019-04-25T13:04:35.000Z</time>
      </trkpt>
      <trkpt lat="38.90863895416259765625" lon="-7.578247971832752227783203125">
        <ele>292.399993896484375</ele>
        <time>2019-04-25T13:04:39.000Z</time>
      </trkpt>
      <trkpt lat="38.9086689613759517669677734375" lon="-7.57810070179402828216552734375">
        <ele>291.79998779296875</ele>
        <time>2019-04-25T13:04:41.000Z</time>
      </trkpt>
      <trkpt lat="38.90880483202636241912841796875" lon="-7.57734867744147777557373046875">
        <ele>288.600006103515625</ele>
        <time>2019-04-25T13:04:50.000Z</time>
      </trkpt>
      <trkpt lat="38.9088486693799495697021484375" lon="-7.57716058753430843353271484375">
        <ele>288.20001220703125</ele>
        <time>2019-04-25T13:04:53.000Z</time>
      </trkpt>
      <trkpt lat="38.90893609263002872467041015625" lon="-7.57699378766119480133056640625">
        <ele>288</ele>
        <time>2019-04-25T13:05:00.000Z</time>
      </trkpt>
      <trkpt lat="38.90900432132184505462646484375" lon="-7.57694500498473644256591796875">
        <ele>287.79998779296875</ele>
        <time>2019-04-25T13:06:01.000Z</time>
      </trkpt>
      <trkpt lat="38.9090748131275177001953125" lon="-7.57678708992898464202880859375">
        <ele>287.600006103515625</ele>
        <time>2019-04-25T13:06:12.000Z</time>
      </trkpt>
      <trkpt lat="38.909099958837032318115234375" lon="-7.5767541490495204925537109375">
        <ele>287.399993896484375</ele>
        <time>2019-04-25T13:07:03.000Z</time>
      </trkpt>
      <trkpt lat="38.90930037014186382293701171875" lon="-7.57642976939678192138671875">
        <ele>288.600006103515625</ele>
        <time>2019-04-25T13:07:20.000Z</time>
      </trkpt>
      <trkpt lat="38.9093733765184879302978515625" lon="-7.57652121596038341522216796875">
        <ele>288</ele>
        <time>2019-04-25T13:08:02.000Z</time>
      </trkpt>
      <trkpt lat="38.90990554355084896087646484375" lon="-7.57653764449059963226318359375">
        <ele>291</ele>
        <time>2019-04-25T13:08:23.000Z</time>
      </trkpt>
      <trkpt lat="38.91044114716351032257080078125" lon="-7.57646857760846614837646484375">
        <ele>294.79998779296875</ele>
        <time>2019-04-25T13:08:46.000Z</time>
      </trkpt>
      <trkpt lat="38.9109780080616474151611328125" lon="-7.5763647258281707763671875">
        <ele>298.79998779296875</ele>
        <time>2019-04-25T13:09:09.000Z</time>
      </trkpt>
      <trkpt lat="38.91151051037013530731201171875" lon="-7.57624058984220027923583984375">
        <ele>303.79998779296875</ele>
        <time>2019-04-25T13:09:35.000Z</time>
      </trkpt>
      <trkpt lat="38.91202666796743869781494140625" lon="-7.57601377554237842559814453125">
        <ele>308</ele>
        <time>2019-04-25T13:10:02.000Z</time>
      </trkpt>
      <trkpt lat="38.9125682227313518524169921875" lon="-7.57582149468362331390380859375">
        <ele>312.79998779296875</ele>
        <time>2019-04-25T13:10:26.000Z</time>
      </trkpt>
      <trkpt lat="38.9129420556128025054931640625" lon="-7.5754556246101856231689453125">
        <ele>315.20001220703125</ele>
        <time>2019-04-25T13:10:42.000Z</time>
      </trkpt>
      <trkpt lat="38.9130873978137969970703125" lon="-7.57550440728664398193359375">
        <ele>314.79998779296875</ele>
        <time>2019-04-25T13:10:48.000Z</time>
      </trkpt>
      <trkpt lat="38.91359232366085052490234375" lon="-7.57557213306427001953125">
        <ele>313.20001220703125</ele>
        <time>2019-04-25T13:11:05.000Z</time>
      </trkpt>
      <trkpt lat="38.9136763103306293487548828125" lon="-7.57554472424089908599853515625">
        <ele>312.600006103515625</ele>
        <time>2019-04-25T13:11:09.000Z</time>
      </trkpt>
      <trkpt lat="38.91368812881410121917724609375" lon="-7.575542293488979339599609375">
        <ele>312.399993896484375</ele>
        <time>2019-04-25T13:11:12.000Z</time>
      </trkpt>
      <trkpt lat="38.91376457177102565765380859375" lon="-7.5754901580512523651123046875">
        <ele>312</ele>
        <time>2019-04-25T13:12:37.000Z</time>
      </trkpt>
      <trkpt lat="38.91430872492492198944091796875" lon="-7.575224451720714569091796875">
        <ele>309.600006103515625</ele>
        <time>2019-04-25T13:12:51.000Z</time>
      </trkpt>
      <trkpt lat="38.9148246310651302337646484375" lon="-7.5749698095023632049560546875">
        <ele>307.600006103515625</ele>
        <time>2019-04-25T13:13:01.000Z</time>
      </trkpt>
      <trkpt lat="38.9153029024600982666015625" lon="-7.57474458776414394378662109375">
        <ele>306</ele>
        <time>2019-04-25T13:13:10.000Z</time>
      </trkpt>
      <trkpt lat="38.9155032299458980560302734375" lon="-7.57464283145964145660400390625">
        <ele>305.20001220703125</ele>
        <time>2019-04-25T13:13:14.000Z</time>
      </trkpt>
      <trkpt lat="38.9158079959452152252197265625" lon="-7.574486173689365386962890625">
        <ele>304</ele>
        <time>2019-04-25T13:13:21.000Z</time>
      </trkpt>
      <trkpt lat="38.9163048751652240753173828125" lon="-7.5741923041641712188720703125">
        <ele>302.399993896484375</ele>
        <time>2019-04-25T13:13:36.000Z</time>
      </trkpt>
      <trkpt lat="38.91645030118525028228759765625" lon="-7.57410068996250629425048828125">
        <ele>301.79998779296875</ele>
        <time>2019-04-25T13:13:40.000Z</time>
      </trkpt>
      <trkpt lat="38.91669991426169872283935546875" lon="-7.57393539883196353912353515625">
        <ele>301</ele>
        <time>2019-04-25T13:13:46.000Z</time>
      </trkpt>
      <trkpt lat="38.9168424904346466064453125" lon="-7.57382425479590892791748046875">
        <ele>300.20001220703125</ele>
        <time>2019-04-25T13:13:50.000Z</time>
      </trkpt>
      <trkpt lat="38.91692622564733028411865234375" lon="-7.573803551495075225830078125">
        <ele>300</ele>
        <time>2019-04-25T13:13:52.000Z</time>
      </trkpt>
      <trkpt lat="38.91731866635382175445556640625" lon="-7.57366734556853771209716796875">
        <ele>298.79998779296875</ele>
        <time>2019-04-25T13:14:00.000Z</time>
      </trkpt>
      <trkpt lat="38.9178605563938617706298828125" lon="-7.57351219654083251953125">
        <ele>297</ele>
        <time>2019-04-25T13:14:09.000Z</time>
      </trkpt>
      <trkpt lat="38.91844670288264751434326171875" lon="-7.573371715843677520751953125">
        <ele>296.20001220703125</ele>
        <time>2019-04-25T13:14:19.000Z</time>
      </trkpt>
      <trkpt lat="38.918731771409511566162109375" lon="-7.57338688708841800689697265625">
        <ele>295.79998779296875</ele>
        <time>2019-04-25T13:14:24.000Z</time>
      </trkpt>
      <trkpt lat="38.91929562203586101531982421875" lon="-7.57349953986704349517822265625">
        <ele>295.20001220703125</ele>
        <time>2019-04-25T13:14:34.000Z</time>
      </trkpt>
      <trkpt lat="38.91945269890129566192626953125" lon="-7.57353440858423709869384765625">
        <ele>295</ele>
        <time>2019-04-25T13:14:37.000Z</time>
      </trkpt>
      <trkpt lat="38.91954976134002208709716796875" lon="-7.5735774077475070953369140625">
        <ele>294.600006103515625</ele>
        <time>2019-04-25T13:14:39.000Z</time>
      </trkpt>
      <trkpt lat="38.91979753039777278900146484375" lon="-7.57364018820226192474365234375">
        <ele>293.399993896484375</ele>
        <time>2019-04-25T13:14:44.000Z</time>
      </trkpt>
      <trkpt lat="38.92035509459674358367919921875" lon="-7.57383179850876331329345703125">
        <ele>292</ele>
        <time>2019-04-25T13:14:54.000Z</time>
      </trkpt>
      <trkpt lat="38.920933865010738372802734375" lon="-7.57398736663162708282470703125">
        <ele>290.399993896484375</ele>
        <time>2019-04-25T13:15:03.000Z</time>
      </trkpt>
      <trkpt lat="38.92130660824477672576904296875" lon="-7.57403296418488025665283203125">
        <ele>290.20001220703125</ele>
        <time>2019-04-25T13:15:09.000Z</time>
      </trkpt>
      <trkpt lat="38.9218137972056865692138671875" lon="-7.57375535555183887481689453125">
        <ele>290.600006103515625</ele>
        <time>2019-04-25T13:15:19.000Z</time>
      </trkpt>
      <trkpt lat="38.922325260937213897705078125" lon="-7.5735036469995975494384765625">
        <ele>292.399993896484375</ele>
        <time>2019-04-25T13:15:29.000Z</time>
      </trkpt>
      <trkpt lat="38.92285776324570178985595703125" lon="-7.57330323569476604461669921875">
        <ele>294.20001220703125</ele>
        <time>2019-04-25T13:15:43.000Z</time>
      </trkpt>
      <trkpt lat="38.92334743402898311614990234375" lon="-7.57297969423234462738037109375">
        <ele>296</ele>
        <time>2019-04-25T13:16:02.000Z</time>
      </trkpt>
      <trkpt lat="38.92385839484632015228271484375" lon="-7.57314716465771198272705078125">
        <ele>296.20001220703125</ele>
        <time>2019-04-25T13:16:17.000Z</time>
      </trkpt>
      <trkpt lat="38.92441176809370517730712890625" lon="-7.57324674166738986968994140625">
        <ele>296.399993896484375</ele>
        <time>2019-04-25T13:16:32.000Z</time>
      </trkpt>
      <trkpt lat="38.92494888044893741607666015625" lon="-7.5733041577041149139404296875">
        <ele>297.399993896484375</ele>
        <time>2019-04-25T13:16:47.000Z</time>
      </trkpt>
      <trkpt lat="38.92522296868264675140380859375" lon="-7.573249004781246185302734375">
        <ele>298.20001220703125</ele>
        <time>2019-04-25T13:16:55.000Z</time>
      </trkpt>
      <trkpt lat="38.925214000046253204345703125" lon="-7.57299344055354595184326171875">
        <ele>298.79998779296875</ele>
        <time>2019-04-25T13:17:00.000Z</time>
      </trkpt>
      <trkpt lat="38.925115764141082763671875" lon="-7.57228198461234569549560546875">
        <ele>300</ele>
        <time>2019-04-25T13:17:14.000Z</time>
      </trkpt>
      <trkpt lat="38.92501375637948513031005859375" lon="-7.57156147621572017669677734375">
        <ele>301</ele>
        <time>2019-04-25T13:17:29.000Z</time>
      </trkpt>
      <trkpt lat="38.9249566756188869476318359375" lon="-7.57084733806550502777099609375">
        <ele>304</ele>
        <time>2019-04-25T13:17:42.000Z</time>
      </trkpt>
      <trkpt lat="38.92494183965027332305908203125" lon="-7.57074457593262195587158203125">
        <ele>304</ele>
        <time>2019-04-25T13:17:44.000Z</time>
      </trkpt>
      <trkpt lat="38.92492524348199367523193359375" lon="-7.57063351571559906005859375">
        <ele>304.20001220703125</ele>
        <time>2019-04-25T13:17:46.000Z</time>
      </trkpt>
      <trkpt lat="38.92480957321822643280029296875" lon="-7.5699503906071186065673828125">
        <ele>304.20001220703125</ele>
        <time>2019-04-25T13:18:00.000Z</time>
      </trkpt>
      <trkpt lat="38.9248430170118808746337890625" lon="-7.5697338022291660308837890625">
        <ele>304.600006103515625</ele>
        <time>2019-04-25T13:18:04.000Z</time>
      </trkpt>
      <trkpt lat="38.92486120574176311492919921875" lon="-7.5696833431720733642578125">
        <ele>304.600006103515625</ele>
        <time>2019-04-25T13:18:05.000Z</time>
      </trkpt>
      <trkpt lat="38.924949802458286285400390625" lon="-7.569412104785442352294921875">
        <ele>305</ele>
        <time>2019-04-25T13:18:10.000Z</time>
      </trkpt>
      <trkpt lat="38.9253020100295543670654296875" lon="-7.56885546259582042694091796875">
        <ele>306.79998779296875</ele>
        <time>2019-04-25T13:18:27.000Z</time>
      </trkpt>
      <trkpt lat="38.9256929419934749603271484375" lon="-7.568363361060619354248046875">
        <ele>310</ele>
        <time>2019-04-25T13:18:49.000Z</time>
      </trkpt>
      <trkpt lat="38.92611153423786163330078125" lon="-7.5679105706512928009033203125">
        <ele>311.600006103515625</ele>
        <time>2019-04-25T13:19:08.000Z</time>
      </trkpt>
      <trkpt lat="38.9265405200421810150146484375" lon="-7.567457444965839385986328125">
        <ele>312.600006103515625</ele>
        <time>2019-04-25T13:19:24.000Z</time>
      </trkpt>
      <trkpt lat="38.92692835070192813873291015625" lon="-7.567034326493740081787109375">
        <ele>313.399993896484375</ele>
        <time>2019-04-25T13:19:37.000Z</time>
      </trkpt>
      <trkpt lat="38.92700881697237491607666015625" lon="-7.5668541155755519866943359375">
        <ele>313.399993896484375</ele>
        <time>2019-04-25T13:19:41.000Z</time>
      </trkpt>
      <trkpt lat="38.92714192159473896026611328125" lon="-7.566175349056720733642578125">
        <ele>312.79998779296875</ele>
        <time>2019-04-25T13:19:52.000Z</time>
      </trkpt>
      <trkpt lat="38.92717511393129825592041015625" lon="-7.5660246424376964569091796875">
        <ele>312.79998779296875</ele>
        <time>2019-04-25T13:19:54.000Z</time>
      </trkpt>
      <trkpt lat="38.92730905674397945404052734375" lon="-7.5653542578220367431640625">
        <ele>313.20001220703125</ele>
        <time>2019-04-25T13:20:05.000Z</time>
      </trkpt>
      <trkpt lat="38.9274601824581623077392578125" lon="-7.564674317836761474609375">
        <ele>313</ele>
        <time>2019-04-25T13:20:20.000Z</time>
      </trkpt>
      <trkpt lat="38.9276023395359516143798828125" lon="-7.56402765400707721710205078125">
        <ele>311.399993896484375</ele>
        <time>2019-04-25T13:20:35.000Z</time>
      </trkpt>
      <trkpt lat="38.927703090012073516845703125" lon="-7.563522644340991973876953125">
        <ele>311.20001220703125</ele>
        <time>2019-04-25T13:20:48.000Z</time>
      </trkpt>
      <trkpt lat="38.927711136639118194580078125" lon="-7.56348886527121067047119140625">
        <ele>311</ele>
        <time>2019-04-25T13:22:41.000Z</time>
      </trkpt>
      <trkpt lat="38.92772764898836612701416015625" lon="-7.563473694026470184326171875">
        <ele>311</ele>
        <time>2019-04-25T13:22:42.000Z</time>
      </trkpt>
      <trkpt lat="38.92782010138034820556640625" lon="-7.5634155236184597015380859375">
        <ele>310.600006103515625</ele>
        <time>2019-04-25T13:22:46.000Z</time>
      </trkpt>
      <trkpt lat="38.92796091735363006591796875" lon="-7.56344863213598728179931640625">
        <ele>310</ele>
        <time>2019-04-25T13:22:50.000Z</time>
      </trkpt>
      <trkpt lat="38.92800810746848583221435546875" lon="-7.5634591095149517059326171875">
        <ele>309.79998779296875</ele>
        <time>2019-04-25T13:22:51.000Z</time>
      </trkpt>
      <trkpt lat="38.92810282297432422637939453125" lon="-7.56349490024149417877197265625">
        <ele>309.20001220703125</ele>
        <time>2019-04-25T13:22:53.000Z</time>
      </trkpt>
      <trkpt lat="38.9284911565482616424560546875" lon="-7.563041187822818756103515625">
        <ele>307</ele>
        <time>2019-04-25T13:23:06.000Z</time>
      </trkpt>
      <trkpt lat="38.9285682700574398040771484375" lon="-7.56297740153968334197998046875">
        <ele>306.600006103515625</ele>
        <time>2019-04-25T13:23:08.000Z</time>
      </trkpt>
      <trkpt lat="38.92869726754724979400634765625" lon="-7.562887966632843017578125">
        <ele>306</ele>
        <time>2019-04-25T13:23:11.000Z</time>
      </trkpt>
      <trkpt lat="38.92896934412419795989990234375" lon="-7.56273197941482067108154296875">
        <ele>304.79998779296875</ele>
        <time>2019-04-25T13:23:16.000Z</time>
      </trkpt>
      <trkpt lat="38.929113261401653289794921875" lon="-7.562394104897975921630859375">
        <ele>304</ele>
        <time>2019-04-25T13:23:21.000Z</time>
      </trkpt>
      <trkpt lat="38.9292289316654205322265625" lon="-7.56191206164658069610595703125">
        <ele>303.600006103515625</ele>
        <time>2019-04-25T13:23:28.000Z</time>
      </trkpt>
      <trkpt lat="38.92938978038728237152099609375" lon="-7.56122608669102191925048828125">
        <ele>303</ele>
        <time>2019-04-25T13:23:41.000Z</time>
      </trkpt>
      <trkpt lat="38.92954207956790924072265625" lon="-7.5605378486216068267822265625">
        <ele>304.79998779296875</ele>
        <time>2019-04-25T13:23:59.000Z</time>
      </trkpt>
      <trkpt lat="38.9297004975378513336181640625" lon="-7.55986000411212444305419921875">
        <ele>307.600006103515625</ele>
        <time>2019-04-25T13:24:18.000Z</time>
      </trkpt>
      <trkpt lat="38.92984785139560699462890625" lon="-7.55918744020164012908935546875">
        <ele>309.600006103515625</ele>
        <time>2019-04-25T13:24:37.000Z</time>
      </trkpt>
      <trkpt lat="38.93000283278524875640869140625" lon="-7.5585054047405719757080078125">
        <ele>310.399993896484375</ele>
        <time>2019-04-25T13:24:57.000Z</time>
      </trkpt>
      <trkpt lat="38.930080197751522064208984375" lon="-7.5583885610103607177734375">
        <ele>310.79998779296875</ele>
        <time>2019-04-25T13:25:01.000Z</time>
      </trkpt>
      <trkpt lat="38.9301843009889125823974609375" lon="-7.5584417022764682769775390625">
        <ele>310.79998779296875</ele>
        <time>2019-04-25T13:25:05.000Z</time>
      </trkpt>
      <trkpt lat="38.93059610389173030853271484375" lon="-7.55892097949981689453125">
        <ele>311.399993896484375</ele>
        <time>2019-04-25T13:25:20.000Z</time>
      </trkpt>
      <trkpt lat="38.93109248019754886627197265625" lon="-7.55928467027842998504638671875">
        <ele>311.20001220703125</ele>
        <time>2019-04-25T13:25:35.000Z</time>
      </trkpt>
      <trkpt lat="38.9316189475357532501220703125" lon="-7.559475190937519073486328125">
        <ele>311.399993896484375</ele>
        <time>2019-04-25T13:25:50.000Z</time>
      </trkpt>
      <trkpt lat="38.9320816285908222198486328125" lon="-7.5594709999859333038330078125">
        <ele>309.20001220703125</ele>
        <time>2019-04-25T13:26:02.000Z</time>
      </trkpt>
      <trkpt lat="38.93261178396642208099365234375" lon="-7.55934736691415309906005859375">
        <ele>306.600006103515625</ele>
        <time>2019-04-25T13:26:12.000Z</time>
      </trkpt>
      <trkpt lat="38.9327461458742618560791015625" lon="-7.5593057088553905487060546875">
        <ele>306.20001220703125</ele>
        <time>2019-04-25T13:26:14.000Z</time>
      </trkpt>
      <trkpt lat="38.9329520054161548614501953125" lon="-7.55923211574554443359375">
        <ele>305.399993896484375</ele>
        <time>2019-04-25T13:26:17.000Z</time>
      </trkpt>
      <trkpt lat="38.93322148360311985015869140625" lon="-7.55926187150180339813232421875">
        <ele>304.399993896484375</ele>
        <time>2019-04-25T13:26:21.000Z</time>
      </trkpt>
      <trkpt lat="38.9337757788598537445068359375" lon="-7.55923789925873279571533203125">
        <ele>302.399993896484375</ele>
        <time>2019-04-25T13:26:29.000Z</time>
      </trkpt>
      <trkpt lat="38.934086747467517852783203125" lon="-7.5592879392206668853759765625">
        <ele>301.20001220703125</ele>
        <time>2019-04-25T13:26:34.000Z</time>
      </trkpt>
      <trkpt lat="38.93427022732794284820556640625" lon="-7.55933747626841068267822265625">
        <ele>300.600006103515625</ele>
        <time>2019-04-25T13:26:41.000Z</time>
      </trkpt>
      <trkpt lat="38.93429587595164775848388671875" lon="-7.55934854038059711456298828125">
        <ele>300.600006103515625</ele>
        <time>2019-04-25T13:26:58.000Z</time>
      </trkpt>
      <trkpt lat="38.9346287213265895843505859375" lon="-7.55944074131548404693603515625">
        <ele>299.20001220703125</ele>
        <time>2019-04-25T13:27:07.000Z</time>
      </trkpt>
      <trkpt lat="38.93501638434827327728271484375" lon="-7.55954383872449398040771484375">
        <ele>297.600006103515625</ele>
        <time>2019-04-25T13:27:15.000Z</time>
      </trkpt>
      <trkpt lat="38.9351162128150463104248046875" lon="-7.55957543849945068359375">
        <ele>297.20001220703125</ele>
        <time>2019-04-25T13:27:17.000Z</time>
      </trkpt>
      <trkpt lat="38.93569062463939189910888671875" lon="-7.5595687329769134521484375">
        <ele>294.399993896484375</ele>
        <time>2019-04-25T13:27:28.000Z</time>
      </trkpt>
      <trkpt lat="38.9359000883996486663818359375" lon="-7.5595719181001186370849609375">
        <ele>293.79998779296875</ele>
        <time>2019-04-25T13:27:32.000Z</time>
      </trkpt>
      <trkpt lat="38.93649159930646419525146484375" lon="-7.55963620729744434356689453125">
        <ele>293.399993896484375</ele>
        <time>2019-04-25T13:27:43.000Z</time>
      </trkpt>
      <trkpt lat="38.9366050064563751220703125" lon="-7.5596590898931026458740234375">
        <ele>293</ele>
        <time>2019-04-25T13:27:45.000Z</time>
      </trkpt>
      <trkpt lat="38.9370349980890750885009765625" lon="-7.5598812103271484375">
        <ele>291</ele>
        <time>2019-04-25T13:27:53.000Z</time>
      </trkpt>
      <trkpt lat="38.9375509880483150482177734375" lon="-7.55970158614218235015869140625">
        <ele>291</ele>
        <time>2019-04-25T13:28:08.000Z</time>
      </trkpt>
      <trkpt lat="38.937576971948146820068359375" lon="-7.5596745125949382781982421875">
        <ele>291</ele>
        <time>2019-04-25T13:28:09.000Z</time>
      </trkpt>
      <trkpt lat="38.9380270801484584808349609375" lon="-7.55930076353251934051513671875">
        <ele>290.399993896484375</ele>
        <time>2019-04-25T13:28:26.000Z</time>
      </trkpt>
      <trkpt lat="38.93781878985464572906494140625" lon="-7.5594797171652317047119140625">
        <ele>290.79998779296875</ele>
        <time>2019-04-25T13:28:35.000Z</time>
      </trkpt>
      <trkpt lat="38.93763455562293529510498046875" lon="-7.559618018567562103271484375">
        <ele>291</ele>
        <time>2019-04-25T13:28:39.000Z</time>
      </trkpt>
      <trkpt lat="38.93742836080491542816162109375" lon="-7.55979764275252819061279296875">
        <ele>291</ele>
        <time>2019-04-25T13:28:44.000Z</time>
      </trkpt>
      <trkpt lat="38.93731453455984592437744140625" lon="-7.55997165106236934661865234375">
        <ele>291</ele>
        <time>2019-04-25T13:28:50.000Z</time>
      </trkpt>
      <trkpt lat="38.9373753033578395843505859375" lon="-7.55986738018691539764404296875">
        <ele>291</ele>
        <time>2019-04-25T13:28:56.000Z</time>
      </trkpt>
      <trkpt lat="38.93751360476016998291015625" lon="-7.55970845930278301239013671875">
        <ele>291</ele>
        <time>2019-04-25T13:29:01.000Z</time>
      </trkpt>
      <trkpt lat="38.93789791502058506011962890625" lon="-7.559418864548206329345703125">
        <ele>290.600006103515625</ele>
        <time>2019-04-25T13:29:10.000Z</time>
      </trkpt>
      <trkpt lat="38.9380247332155704498291015625" lon="-7.55930964834988117218017578125">
        <ele>290.399993896484375</ele>
        <time>2019-04-25T13:29:13.000Z</time>
      </trkpt>
      <trkpt lat="38.9384797029197216033935546875" lon="-7.5588735379278659820556640625">
        <ele>289.20001220703125</ele>
        <time>2019-04-25T13:29:24.000Z</time>
      </trkpt>
      <trkpt lat="38.93860903568565845489501953125" lon="-7.5587685965001583099365234375">
        <ele>289</ele>
        <time>2019-04-25T13:29:27.000Z</time>
      </trkpt>
      <trkpt lat="38.93907724879682064056396484375" lon="-7.55832712166011333465576171875">
        <ele>287.79998779296875</ele>
        <time>2019-04-25T13:29:36.000Z</time>
      </trkpt>
      <trkpt lat="38.939243294298648834228515625" lon="-7.558162920176982879638671875">
        <ele>287.399993896484375</ele>
        <time>2019-04-25T13:29:39.000Z</time>
      </trkpt>
      <trkpt lat="38.93971578218042850494384765625" lon="-7.55773619748651981353759765625">
        <ele>287.399993896484375</ele>
        <time>2019-04-25T13:29:49.000Z</time>
      </trkpt>
      <trkpt lat="38.94017703831195831298828125" lon="-7.55731693468987941741943359375">
        <ele>288.600006103515625</ele>
        <time>2019-04-25T13:30:00.000Z</time>
      </trkpt>
      <trkpt lat="38.94039169885218143463134765625" lon="-7.55711358971893787384033203125">
        <ele>289.79998779296875</ele>
        <time>2019-04-25T13:30:06.000Z</time>
      </trkpt>
      <trkpt lat="38.94086896441876888275146484375" lon="-7.556745372712612152099609375">
        <ele>292.20001220703125</ele>
        <time>2019-04-25T13:30:24.000Z</time>
      </trkpt>
      <trkpt lat="38.94121563993394374847412109375" lon="-7.55631454288959503173828125">
        <ele>293</ele>
        <time>2019-04-25T13:30:44.000Z</time>
      </trkpt>
      <trkpt lat="38.94125386141240596771240234375" lon="-7.55629283376038074493408203125">
        <ele>293</ele>
        <time>2019-04-25T13:30:48.000Z</time>
      </trkpt>
      <trkpt lat="38.94127481617033481597900390625" lon="-7.55625679157674312591552734375">
        <ele>293</ele>
        <time>2019-04-25T13:33:04.000Z</time>
      </trkpt>
      <trkpt lat="38.941375650465488433837890625" lon="-7.5561229325830936431884765625">
        <ele>293</ele>
        <time>2019-04-25T13:33:10.000Z</time>
      </trkpt>
      <trkpt lat="38.9414757303893566131591796875" lon="-7.5560099445283412933349609375">
        <ele>292.79998779296875</ele>
        <time>2019-04-25T13:33:17.000Z</time>
      </trkpt>
      <trkpt lat="38.94144563935697078704833984375" lon="-7.55603735335171222686767578125">
        <ele>292.79998779296875</ele>
        <time>2019-04-25T13:33:29.000Z</time>
      </trkpt>
      <trkpt lat="38.941297866404056549072265625" lon="-7.55621102638542652130126953125">
        <ele>293</ele>
        <time>2019-04-25T13:33:46.000Z</time>
      </trkpt>
      <trkpt lat="38.9412785880267620086669921875" lon="-7.556231059134006500244140625">
        <ele>293</ele>
        <time>2019-04-25T13:33:50.000Z</time>
      </trkpt>
      <trkpt lat="38.9412179030478000640869140625" lon="-7.55631278268992900848388671875">
        <ele>293</ele>
        <time>2019-04-25T13:33:57.000Z</time>
      </trkpt>
      <trkpt lat="38.9411756582558155059814453125" lon="-7.55627523176372051239013671875">
        <ele>293.20001220703125</ele>
        <time>2019-04-25T13:34:01.000Z</time>
      </trkpt>
      <trkpt lat="38.941128551959991455078125" lon="-7.55621588788926601409912109375">
        <ele>293.399993896484375</ele>
        <time>2019-04-25T13:34:06.000Z</time>
      </trkpt>
      <trkpt lat="38.9411883987486362457275390625" lon="-7.55629551596939563751220703125">
        <ele>293.20001220703125</ele>
        <time>2019-04-25T13:34:13.000Z</time>
      </trkpt>
      <trkpt lat="38.94138176925480365753173828125" lon="-7.55649785511195659637451171875">
        <ele>293.20001220703125</ele>
        <time>2019-04-25T13:34:32.000Z</time>
      </trkpt>
      <trkpt lat="38.94140155054628849029541015625" lon="-7.5565168820321559906005859375">
        <ele>293.399993896484375</ele>
        <time>2019-04-25T13:34:35.000Z</time>
      </trkpt>
      <trkpt lat="38.9417992718517780303955078125" lon="-7.557003535330295562744140625">
        <ele>294.600006103515625</ele>
        <time>2019-04-25T13:34:53.000Z</time>
      </trkpt>
      <trkpt lat="38.9420456998050212860107421875" lon="-7.55763016641139984130859375">
        <ele>294</ele>
        <time>2019-04-25T13:35:09.000Z</time>
      </trkpt>
      <trkpt lat="38.942405283451080322265625" lon="-7.55813366733491420745849609375">
        <ele>293.79998779296875</ele>
        <time>2019-04-25T13:35:24.000Z</time>
      </trkpt>
      <trkpt lat="38.9429197646677494049072265625" lon="-7.55838596262037754058837890625">
        <ele>295</ele>
        <time>2019-04-25T13:35:39.000Z</time>
      </trkpt>
      <trkpt lat="38.94305546768009662628173828125" lon="-7.55851688794791698455810546875">
        <ele>294.600006103515625</ele>
        <time>2019-04-25T13:35:44.000Z</time>
      </trkpt>
      <trkpt lat="38.94314565695822238922119140625" lon="-7.55865049548447132110595703125">
        <ele>294</ele>
        <time>2019-04-25T13:35:47.000Z</time>
      </trkpt>
      <trkpt lat="38.9433908276259899139404296875" lon="-7.55879550240933895111083984375">
        <ele>294</ele>
        <time>2019-04-25T13:35:52.000Z</time>
      </trkpt>
      <trkpt lat="38.94391695968806743621826171875" lon="-7.55903908051550388336181640625">
        <ele>292.600006103515625</ele>
        <time>2019-04-25T13:36:07.000Z</time>
      </trkpt>
      <trkpt lat="38.9444650523364543914794921875" lon="-7.55914016626775264739990234375">
        <ele>292.600006103515625</ele>
        <time>2019-04-25T13:36:22.000Z</time>
      </trkpt>
      <trkpt lat="38.9449681341648101806640625" lon="-7.55940914154052734375">
        <ele>291.600006103515625</ele>
        <time>2019-04-25T13:36:39.000Z</time>
      </trkpt>
      <trkpt lat="38.9453039132058620452880859375" lon="-7.55963520146906375885009765625">
        <ele>292.79998779296875</ele>
        <time>2019-04-25T13:36:55.000Z</time>
      </trkpt>
      <trkpt lat="38.94531271420419216156005859375" lon="-7.559639476239681243896484375">
        <ele>292.79998779296875</ele>
        <time>2019-04-25T13:37:12.000Z</time>
      </trkpt>
      <trkpt lat="38.94570012576878070831298828125" lon="-7.55989621393382549285888671875">
        <ele>293.399993896484375</ele>
        <time>2019-04-25T13:37:23.000Z</time>
      </trkpt>
      <trkpt lat="38.945768773555755615234375" lon="-7.55995522253215312957763671875">
        <ele>293.600006103515625</ele>
        <time>2019-04-25T13:37:25.000Z</time>
      </trkpt>
      <trkpt lat="38.94615911878645420074462890625" lon="-7.560237944126129150390625">
        <ele>292.399993896484375</ele>
        <time>2019-04-25T13:37:36.000Z</time>
      </trkpt>
      <trkpt lat="38.946278393268585205078125" lon="-7.560336180031299591064453125">
        <ele>291.79998779296875</ele>
        <time>2019-04-25T13:37:39.000Z</time>
      </trkpt>
      <trkpt lat="38.94677602685987949371337890625" lon="-7.56064304150640964508056640625">
        <ele>291.600006103515625</ele>
        <time>2019-04-25T13:37:53.000Z</time>
      </trkpt>
      <trkpt lat="38.94726368598639965057373046875" lon="-7.560965158045291900634765625">
        <ele>291.79998779296875</ele>
        <time>2019-04-25T13:38:09.000Z</time>
      </trkpt>
      <trkpt lat="38.9477403648197650909423828125" lon="-7.5613197125494480133056640625">
        <ele>293.20001220703125</ele>
        <time>2019-04-25T13:38:26.000Z</time>
      </trkpt>
      <trkpt lat="38.94809936173260211944580078125" lon="-7.5615430064499378204345703125">
        <ele>292.399993896484375</ele>
        <time>2019-04-25T13:38:36.000Z</time>
      </trkpt>
      <trkpt lat="38.9485356397926807403564453125" lon="-7.56182455457746982574462890625">
        <ele>290.20001220703125</ele>
        <time>2019-04-25T13:38:46.000Z</time>
      </trkpt>
      <trkpt lat="38.94877661950886249542236328125" lon="-7.562008537352085113525390625">
        <ele>290</ele>
        <time>2019-04-25T13:38:51.000Z</time>
      </trkpt>
      <trkpt lat="38.94887049682438373565673828125" lon="-7.56210786290466785430908203125">
        <ele>289.79998779296875</ele>
        <time>2019-04-25T13:38:53.000Z</time>
      </trkpt>
      <trkpt lat="38.9491535536944866180419921875" lon="-7.56230416707694530487060546875">
        <ele>289</ele>
        <time>2019-04-25T13:38:58.000Z</time>
      </trkpt>
      <trkpt lat="38.949635513126850128173828125" lon="-7.56264648400247097015380859375">
        <ele>287.600006103515625</ele>
        <time>2019-04-25T13:39:07.000Z</time>
      </trkpt>
      <trkpt lat="38.94972209818661212921142578125" lon="-7.562697194516658782958984375">
        <ele>287.399993896484375</ele>
        <time>2019-04-25T13:39:09.000Z</time>
      </trkpt>
      <trkpt lat="38.9502066560089588165283203125" lon="-7.563037164509296417236328125">
        <ele>284.600006103515625</ele>
        <time>2019-04-25T13:39:22.000Z</time>
      </trkpt>
      <trkpt lat="38.95035392604768276214599609375" lon="-7.56315308623015880584716796875">
        <ele>284</ele>
        <time>2019-04-25T13:39:26.000Z</time>
      </trkpt>
      <trkpt lat="38.9507987536489963531494140625" lon="-7.56348811089992523193359375">
        <ele>283.20001220703125</ele>
        <time>2019-04-25T13:39:39.000Z</time>
      </trkpt>
      <trkpt lat="38.95097636617720127105712890625" lon="-7.56361526437103748321533203125">
        <ele>283.399993896484375</ele>
        <time>2019-04-25T13:39:45.000Z</time>
      </trkpt>
      <trkpt lat="38.9514243789017200469970703125" lon="-7.56389974616467952728271484375">
        <ele>283.79998779296875</ele>
        <time>2019-04-25T13:39:58.000Z</time>
      </trkpt>
      <trkpt lat="38.951669633388519287109375" lon="-7.564083896577358245849609375">
        <ele>284.399993896484375</ele>
        <time>2019-04-25T13:40:05.000Z</time>
      </trkpt>
      <trkpt lat="38.9518293924629688262939453125" lon="-7.5641983933746814727783203125">
        <ele>284.79998779296875</ele>
        <time>2019-04-25T13:40:09.000Z</time>
      </trkpt>
      <trkpt lat="38.9521911554038524627685546875" lon="-7.56444456987082958221435546875">
        <ele>284.399993896484375</ele>
        <time>2019-04-25T13:40:17.000Z</time>
      </trkpt>
      <trkpt lat="38.952568508684635162353515625" lon="-7.56466987542808055877685546875">
        <ele>284</ele>
        <time>2019-04-25T13:40:25.000Z</time>
      </trkpt>
      <trkpt lat="38.9527894556522369384765625" lon="-7.56483592092990875244140625">
        <ele>283.79998779296875</ele>
        <time>2019-04-25T13:40:30.000Z</time>
      </trkpt>
      <trkpt lat="38.953286670148372650146484375" lon="-7.5652441196143627166748046875">
        <ele>282.600006103515625</ele>
        <time>2019-04-25T13:40:40.000Z</time>
      </trkpt>
      <trkpt lat="38.9536895044147968292236328125" lon="-7.56552684120833873748779296875">
        <ele>282</ele>
        <time>2019-04-25T13:40:48.000Z</time>
      </trkpt>
      <trkpt lat="38.953981362283229827880859375" lon="-7.5657168589532375335693359375">
        <ele>282</ele>
        <time>2019-04-25T13:40:54.000Z</time>
      </trkpt>
      <trkpt lat="38.954182527959346771240234375" lon="-7.565890364348888397216796875">
        <ele>281.79998779296875</ele>
        <time>2019-04-25T13:40:59.000Z</time>
      </trkpt>
      <trkpt lat="38.95470664836466312408447265625" lon="-7.5661386363208293914794921875">
        <ele>279.79998779296875</ele>
        <time>2019-04-25T13:41:16.000Z</time>
      </trkpt>
      <trkpt lat="38.955258429050445556640625" lon="-7.56628020666539669036865234375">
        <ele>280</ele>
        <time>2019-04-25T13:41:30.000Z</time>
      </trkpt>
      <trkpt lat="38.95581901073455810546875" lon="-7.5664081983268260955810546875">
        <ele>279.79998779296875</ele>
        <time>2019-04-25T13:41:42.000Z</time>
      </trkpt>
      <trkpt lat="38.95637498237192630767822265625" lon="-7.5666405446827411651611328125">
        <ele>280.20001220703125</ele>
        <time>2019-04-25T13:41:54.000Z</time>
      </trkpt>
      <trkpt lat="38.95652166567742824554443359375" lon="-7.5666926801204681396484375">
        <ele>279.79998779296875</ele>
        <time>2019-04-25T13:41:57.000Z</time>
      </trkpt>
      <trkpt lat="38.95681687630712985992431640625" lon="-7.56676979362964630126953125">
        <ele>278.79998779296875</ele>
        <time>2019-04-25T13:42:03.000Z</time>
      </trkpt>
      <trkpt lat="38.95737242884933948516845703125" lon="-7.566888146102428436279296875">
        <ele>279</ele>
        <time>2019-04-25T13:42:14.000Z</time>
      </trkpt>
      <trkpt lat="38.9574147574603557586669921875" lon="-7.5669000484049320220947265625">
        <ele>279</ele>
        <time>2019-04-25T13:42:15.000Z</time>
      </trkpt>
      <trkpt lat="38.95799470134079456329345703125" lon="-7.5669231824576854705810546875">
        <ele>280.79998779296875</ele>
        <time>2019-04-25T13:42:30.000Z</time>
      </trkpt>
      <trkpt lat="38.9584998786449432373046875" lon="-7.56688940338790416717529296875">
        <ele>281</ele>
        <time>2019-04-25T13:42:39.000Z</time>
      </trkpt>
      <trkpt lat="38.95906842313706874847412109375" lon="-7.5668145529925823211669921875">
        <ele>281.600006103515625</ele>
        <time>2019-04-25T13:42:50.000Z</time>
      </trkpt>
      <trkpt lat="38.9591303654015064239501953125" lon="-7.56679527461528778076171875">
        <ele>281.600006103515625</ele>
        <time>2019-04-25T13:42:51.000Z</time>
      </trkpt>
      <trkpt lat="38.959256596863269805908203125" lon="-7.56674305535852909088134765625">
        <ele>281.79998779296875</ele>
        <time>2019-04-25T13:42:53.000Z</time>
      </trkpt>
      <trkpt lat="38.95975448191165924072265625" lon="-7.56646662019193172454833984375">
        <ele>282.399993896484375</ele>
        <time>2019-04-25T13:43:07.000Z</time>
      </trkpt>
      <trkpt lat="38.9602941088378429412841796875" lon="-7.56632848642766475677490234375">
        <ele>282.79998779296875</ele>
        <time>2019-04-25T13:43:19.000Z</time>
      </trkpt>
      <trkpt lat="38.960515223443508148193359375" lon="-7.5663042627274990081787109375">
        <ele>282</ele>
        <time>2019-04-25T13:43:23.000Z</time>
      </trkpt>
      <trkpt lat="38.96089735440909862518310546875" lon="-7.56651121191680431365966796875">
        <ele>280</ele>
        <time>2019-04-25T13:43:31.000Z</time>
      </trkpt>
      <trkpt lat="38.96131980232894420623779296875" lon="-7.56697389297187328338623046875">
        <ele>278.600006103515625</ele>
        <time>2019-04-25T13:43:42.000Z</time>
      </trkpt>
      <trkpt lat="38.9617542363703250885009765625" lon="-7.56746180355548858642578125">
        <ele>277.20001220703125</ele>
        <time>2019-04-25T13:43:52.000Z</time>
      </trkpt>
      <trkpt lat="38.9621666260063648223876953125" lon="-7.56792238913476467132568359375">
        <ele>276.600006103515625</ele>
        <time>2019-04-25T13:44:02.000Z</time>
      </trkpt>
      <trkpt lat="38.96258429624140262603759765625" lon="-7.56838314235210418701171875">
        <ele>275.79998779296875</ele>
        <time>2019-04-25T13:44:11.000Z</time>
      </trkpt>
      <trkpt lat="38.9630168862640857696533203125" lon="-7.5688533671200275421142578125">
        <ele>275.20001220703125</ele>
        <time>2019-04-25T13:44:20.000Z</time>
      </trkpt>
      <trkpt lat="38.96329876966774463653564453125" lon="-7.56916207261383533477783203125">
        <ele>275</ele>
        <time>2019-04-25T13:44:28.000Z</time>
      </trkpt>
      <trkpt lat="38.963709063827991485595703125" lon="-7.569623999297618865966796875">
        <ele>274.79998779296875</ele>
        <time>2019-04-25T13:44:41.000Z</time>
      </trkpt>
      <trkpt lat="38.964158333837985992431640625" lon="-7.57011911831796169281005859375">
        <ele>277</ele>
        <time>2019-04-25T13:44:53.000Z</time>
      </trkpt>
      <trkpt lat="38.96458807401359081268310546875" lon="-7.570593617856502532958984375">
        <ele>275</ele>
        <time>2019-04-25T13:45:03.000Z</time>
      </trkpt>
      <trkpt lat="38.96500515751540660858154296875" lon="-7.57106828503310680389404296875">
        <ele>274.20001220703125</ele>
        <time>2019-04-25T13:45:12.000Z</time>
      </trkpt>
      <trkpt lat="38.96544076502323150634765625" lon="-7.57154814898967742919921875">
        <ele>273.79998779296875</ele>
        <time>2019-04-25T13:45:21.000Z</time>
      </trkpt>
      <trkpt lat="38.96590671502053737640380859375" lon="-7.5720552541315555572509765625">
        <ele>272.600006103515625</ele>
        <time>2019-04-25T13:45:30.000Z</time>
      </trkpt>
      <trkpt lat="38.96631960757076740264892578125" lon="-7.5725175999104976654052734375">
        <ele>272.20001220703125</ele>
        <time>2019-04-25T13:45:38.000Z</time>
      </trkpt>
      <trkpt lat="38.96654139272868633270263671875" lon="-7.57277115248143672943115234375">
        <ele>271.600006103515625</ele>
        <time>2019-04-25T13:45:43.000Z</time>
      </trkpt>
      <trkpt lat="38.96677994169294834136962890625" lon="-7.57304021157324314117431640625">
        <ele>271.79998779296875</ele>
        <time>2019-04-25T13:45:49.000Z</time>
      </trkpt>
      <trkpt lat="38.96719551645219326019287109375" lon="-7.57349082268774509429931640625">
        <ele>271.20001220703125</ele>
        <time>2019-04-25T13:45:58.000Z</time>
      </trkpt>
      <trkpt lat="38.96764260716736316680908203125" lon="-7.57398954592645168304443359375">
        <ele>270.20001220703125</ele>
        <time>2019-04-25T13:46:07.000Z</time>
      </trkpt>
      <trkpt lat="38.96806270815432071685791015625" lon="-7.574460022151470184326171875">
        <ele>268.399993896484375</ele>
        <time>2019-04-25T13:46:15.000Z</time>
      </trkpt>
      <trkpt lat="38.968446515500545501708984375" lon="-7.57505890913307666778564453125">
        <ele>267.399993896484375</ele>
        <time>2019-04-25T13:46:24.000Z</time>
      </trkpt>
      <trkpt lat="38.968793191015720367431640625" lon="-7.57568654604256153106689453125">
        <ele>264.600006103515625</ele>
        <time>2019-04-25T13:46:33.000Z</time>
      </trkpt>
      <trkpt lat="38.9691417105495929718017578125" lon="-7.57629959844052791595458984375">
        <ele>262.20001220703125</ele>
        <time>2019-04-25T13:46:43.000Z</time>
      </trkpt>
      <trkpt lat="38.9694608934223651885986328125" lon="-7.57685967721045017242431640625">
        <ele>262.600006103515625</ele>
        <time>2019-04-25T13:46:54.000Z</time>
      </trkpt>
      <trkpt lat="38.9694867096841335296630859375" lon="-7.57702530361711978912353515625">
        <ele>263.20001220703125</ele>
        <time>2019-04-25T13:46:58.000Z</time>
      </trkpt>
      <trkpt lat="38.9693365059792995452880859375" lon="-7.5771708972752094268798828125">
        <ele>263.600006103515625</ele>
        <time>2019-04-25T13:47:04.000Z</time>
      </trkpt>
      <trkpt lat="38.96895437501370906829833984375" lon="-7.57766735740005970001220703125">
        <ele>263</ele>
        <time>2019-04-25T13:47:19.000Z</time>
      </trkpt>
      <trkpt lat="38.96872336976230144500732421875" lon="-7.57790992967784404754638671875">
        <ele>261.600006103515625</ele>
        <time>2019-04-25T13:47:27.000Z</time>
      </trkpt>
      <trkpt lat="38.96858992986381053924560546875" lon="-7.5781033001840114593505859375">
        <ele>260.600006103515625</ele>
        <time>2019-04-25T13:47:31.000Z</time>
      </trkpt>
      <trkpt lat="38.9682287536561489105224609375" lon="-7.57853119634091854095458984375">
        <ele>258.399993896484375</ele>
        <time>2019-04-25T13:47:40.000Z</time>
      </trkpt>
      <trkpt lat="38.9681767858564853668212890625" lon="-7.57869816385209560394287109375">
        <ele>257.399993896484375</ele>
        <time>2019-04-25T13:47:45.000Z</time>
      </trkpt>
      <trkpt lat="38.96835959516465663909912109375" lon="-7.5789683125913143157958984375">
        <ele>256</ele>
        <time>2019-04-25T13:47:50.000Z</time>
      </trkpt>
      <trkpt lat="38.9686941169202327728271484375" lon="-7.5795216858386993408203125">
        <ele>254.8000030517578125</ele>
        <time>2019-04-25T13:48:00.000Z</time>
      </trkpt>
      <trkpt lat="38.968988321721553802490234375" lon="-7.5800237618386745452880859375">
        <ele>254.399993896484375</ele>
        <time>2019-04-25T13:48:11.000Z</time>
      </trkpt>
      <trkpt lat="38.96931613795459270477294921875" lon="-7.5805192999541759490966796875">
        <ele>254.1999969482421875</ele>
        <time>2019-04-25T13:48:21.000Z</time>
      </trkpt>
      <trkpt lat="38.96944622509181499481201171875" lon="-7.58071267046034336090087890625">
        <ele>253.600006103515625</ele>
        <time>2019-04-25T13:48:25.000Z</time>
      </trkpt>
      <trkpt lat="38.96963900886476039886474609375" lon="-7.5810218788683414459228515625">
        <ele>253.399993896484375</ele>
        <time>2019-04-25T13:48:34.000Z</time>
      </trkpt>
      <trkpt lat="38.96924220956861972808837890625" lon="-7.5815707258880138397216796875">
        <ele>252.600006103515625</ele>
        <time>2019-04-25T13:48:46.000Z</time>
      </trkpt>
      <trkpt lat="38.96911270916461944580078125" lon="-7.581685222685337066650390625">
        <ele>252.8000030517578125</ele>
        <time>2019-04-25T13:48:49.000Z</time>
      </trkpt>
      <trkpt lat="38.968989662826061248779296875" lon="-7.58175663650035858154296875">
        <ele>253.1999969482421875</ele>
        <time>2019-04-25T13:48:52.000Z</time>
      </trkpt>
      <trkpt lat="38.9690530300140380859375" lon="-7.581977583467960357666015625">
        <ele>254</ele>
        <time>2019-04-25T13:48:58.000Z</time>
      </trkpt>
      <trkpt lat="38.969290740787982940673828125" lon="-7.58235602639615535736083984375">
        <ele>253.399993896484375</ele>
        <time>2019-04-25T13:49:08.000Z</time>
      </trkpt>
      <trkpt lat="38.96962559781968593597412109375" lon="-7.58291979320347309112548828125">
        <ele>252</ele>
        <time>2019-04-25T13:49:22.000Z</time>
      </trkpt>
      <trkpt lat="38.9699302799999713897705078125" lon="-7.58340292610228061676025390625">
        <ele>251.1999969482421875</ele>
        <time>2019-04-25T13:49:33.000Z</time>
      </trkpt>
      <trkpt lat="38.97029648534953594207763671875" lon="-7.583959065377712249755859375">
        <ele>251.399993896484375</ele>
        <time>2019-04-25T13:49:45.000Z</time>
      </trkpt>
      <trkpt lat="38.9705753512680530548095703125" lon="-7.5844279490411281585693359375">
        <ele>251.1999969482421875</ele>
        <time>2019-04-25T13:49:53.000Z</time>
      </trkpt>
      <trkpt lat="38.970792107284069061279296875" lon="-7.58496615104377269744873046875">
        <ele>251.8000030517578125</ele>
        <time>2019-04-25T13:50:02.000Z</time>
      </trkpt>
      <trkpt lat="38.970889337360858917236328125" lon="-7.58519279770553112030029296875">
        <ele>251.8000030517578125</ele>
        <time>2019-04-25T13:50:10.000Z</time>
      </trkpt>
      <trkpt lat="38.97092144005000591278076171875" lon="-7.58528918959200382232666015625">
        <ele>251.600006103515625</ele>
        <time>2019-04-25T13:50:51.000Z</time>
      </trkpt>
      <trkpt lat="38.970985226333141326904296875" lon="-7.58551650680601596832275390625">
        <ele>250.8000030517578125</ele>
        <time>2019-04-25T13:50:56.000Z</time>
      </trkpt>
      <trkpt lat="38.97110064513981342315673828125" lon="-7.58584239520132541656494140625">
        <ele>250</ele>
        <time>2019-04-25T13:51:02.000Z</time>
      </trkpt>
      <trkpt lat="38.97139468230307102203369140625" lon="-7.58646634407341480255126953125">
        <ele>250.600006103515625</ele>
        <time>2019-04-25T13:51:13.000Z</time>
      </trkpt>
      <trkpt lat="38.9718292839825153350830078125" lon="-7.58697764016687870025634765625">
        <ele>247.8000030517578125</ele>
        <time>2019-04-25T13:51:24.000Z</time>
      </trkpt>
      <trkpt lat="38.97225701250135898590087890625" lon="-7.58746529929339885711669921875">
        <ele>247</ele>
        <time>2019-04-25T13:51:34.000Z</time>
      </trkpt>
      <trkpt lat="38.9723948948085308074951171875" lon="-7.58760997094213962554931640625">
        <ele>246.1999969482421875</ele>
        <time>2019-04-25T13:51:38.000Z</time>
      </trkpt>
      <trkpt lat="38.97291046567261219024658203125" lon="-7.58799453265964984893798828125">
        <ele>245.399993896484375</ele>
        <time>2019-04-25T13:51:49.000Z</time>
      </trkpt>
      <trkpt lat="38.97295371629297733306884765625" lon="-7.58804532699286937713623046875">
        <ele>245.600006103515625</ele>
        <time>2019-04-25T13:51:50.000Z</time>
      </trkpt>
      <trkpt lat="38.9732937701046466827392578125" lon="-7.58861596696078777313232421875">
        <ele>246</ele>
        <time>2019-04-25T13:52:01.000Z</time>
      </trkpt>
      <trkpt lat="38.97365360520780086517333984375" lon="-7.58913195692002773284912109375">
        <ele>245</ele>
        <time>2019-04-25T13:52:14.000Z</time>
      </trkpt>
      <trkpt lat="38.97390958853065967559814453125" lon="-7.5895459391176700592041015625">
        <ele>245.1999969482421875</ele>
        <time>2019-04-25T13:52:23.000Z</time>
      </trkpt>
      <trkpt lat="38.974269591271877288818359375" lon="-7.590076513588428497314453125">
        <ele>244.8000030517578125</ele>
        <time>2019-04-25T13:52:34.000Z</time>
      </trkpt>
      <trkpt lat="38.9744783006608486175537109375" lon="-7.5903817825019359588623046875">
        <ele>244.8000030517578125</ele>
        <time>2019-04-25T13:52:40.000Z</time>
      </trkpt>
      <trkpt lat="38.9745456911623477935791015625" lon="-7.59046308696269989013671875">
        <ele>245</ele>
        <time>2019-04-25T13:52:42.000Z</time>
      </trkpt>
      <trkpt lat="38.9746690727770328521728515625" lon="-7.59061337448656558990478515625">
        <ele>245.399993896484375</ele>
        <time>2019-04-25T13:52:46.000Z</time>
      </trkpt>
      <trkpt lat="38.9750814624130725860595703125" lon="-7.5911197252571582794189453125">
        <ele>245</ele>
        <time>2019-04-25T13:53:00.000Z</time>
      </trkpt>
      <trkpt lat="38.9754267968237400054931640625" lon="-7.591524906456470489501953125">
        <ele>245.600006103515625</ele>
        <time>2019-04-25T13:53:12.000Z</time>
      </trkpt>
      <trkpt lat="38.9757453091442584991455078125" lon="-7.5921439938247203826904296875">
        <ele>244</ele>
        <time>2019-04-25T13:53:23.000Z</time>
      </trkpt>
      <trkpt lat="38.9758296310901641845703125" lon="-7.592306099832057952880859375">
        <ele>243.399993896484375</ele>
        <time>2019-04-25T13:53:26.000Z</time>
      </trkpt>
      <trkpt lat="38.975943289697170257568359375" lon="-7.59244096465408802032470703125">
        <ele>242.8000030517578125</ele>
        <time>2019-04-25T13:53:30.000Z</time>
      </trkpt>
      <trkpt lat="38.97625065408647060394287109375" lon="-7.59292208589613437652587890625">
        <ele>242.1999969482421875</ele>
        <time>2019-04-25T13:53:43.000Z</time>
      </trkpt>
      <trkpt lat="38.97653765045106410980224609375" lon="-7.5935764610767364501953125">
        <ele>242</ele>
        <time>2019-04-25T13:53:55.000Z</time>
      </trkpt>
      <trkpt lat="38.9768207073211669921875" lon="-7.59421977214515209197998046875">
        <ele>240.600006103515625</ele>
        <time>2019-04-25T13:54:05.000Z</time>
      </trkpt>
      <trkpt lat="38.977028913795948028564453125" lon="-7.59467792697250843048095703125">
        <ele>240</ele>
        <time>2019-04-25T13:54:12.000Z</time>
      </trkpt>
      <trkpt lat="38.9771940372884273529052734375" lon="-7.59496039710938930511474609375">
        <ele>240.1999969482421875</ele>
        <time>2019-04-25T13:54:17.000Z</time>
      </trkpt>
      <trkpt lat="38.977488912642002105712890625" lon="-7.59556205011904239654541015625">
        <ele>241</ele>
        <time>2019-04-25T13:54:28.000Z</time>
      </trkpt>
      <trkpt lat="38.97756476886570453643798828125" lon="-7.59576573036611080169677734375">
        <ele>240.399993896484375</ele>
        <time>2019-04-25T13:54:32.000Z</time>
      </trkpt>
      <trkpt lat="38.97765194065868854522705078125" lon="-7.5960459373891353607177734375">
        <ele>240.399993896484375</ele>
        <time>2019-04-25T13:54:37.000Z</time>
      </trkpt>
      <trkpt lat="38.9777259528636932373046875" lon="-7.59620863012969493865966796875">
        <ele>240</ele>
        <time>2019-04-25T13:54:40.000Z</time>
      </trkpt>
      <trkpt lat="38.9778122864663600921630859375" lon="-7.59636436589062213897705078125">
        <ele>240.1999969482421875</ele>
        <time>2019-04-25T13:54:43.000Z</time>
      </trkpt>
      <trkpt lat="38.97821637801826000213623046875" lon="-7.5968728959560394287109375">
        <ele>238</ele>
        <time>2019-04-25T13:54:55.000Z</time>
      </trkpt>
      <trkpt lat="38.978620804846286773681640625" lon="-7.59737404994666576385498046875">
        <ele>237.1999969482421875</ele>
        <time>2019-04-25T13:55:07.000Z</time>
      </trkpt>
      <trkpt lat="38.97903461940586566925048828125" lon="-7.59784997440874576568603515625">
        <ele>237.8000030517578125</ele>
        <time>2019-04-25T13:55:18.000Z</time>
      </trkpt>
      <trkpt lat="38.97929529659450054168701171875" lon="-7.59817334823310375213623046875">
        <ele>236.600006103515625</ele>
        <time>2019-04-25T13:55:25.000Z</time>
      </trkpt>
      <trkpt lat="38.9793874137103557586669921875" lon="-7.598319947719573974609375">
        <ele>236.1999969482421875</ele>
        <time>2019-04-25T13:55:28.000Z</time>
      </trkpt>
      <trkpt lat="38.97980256937444210052490234375" lon="-7.59880869649350643157958984375">
        <ele>237.1999969482421875</ele>
        <time>2019-04-25T13:55:39.000Z</time>
      </trkpt>
      <trkpt lat="38.98020456545054912567138671875" lon="-7.59928462095558643341064453125">
        <ele>237.399993896484375</ele>
        <time>2019-04-25T13:55:49.000Z</time>
      </trkpt>
      <trkpt lat="38.9806108362972736358642578125" lon="-7.59976507164537906646728515625">
        <ele>236.8000030517578125</ele>
        <time>2019-04-25T13:56:01.000Z</time>
      </trkpt>
      <trkpt lat="38.98101526312530040740966796875" lon="-7.6002429239451885223388671875">
        <ele>233.8000030517578125</ele>
        <time>2019-04-25T13:56:13.000Z</time>
      </trkpt>
      <trkpt lat="38.98127342574298381805419921875" lon="-7.60082169435918331146240234375">
        <ele>234.1999969482421875</ele>
        <time>2019-04-25T13:56:31.000Z</time>
      </trkpt>
      <trkpt lat="38.98130879737436771392822265625" lon="-7.60092546232044696807861328125">
        <ele>234.399993896484375</ele>
        <time>2019-04-25T13:56:37.000Z</time>
      </trkpt>
      <trkpt lat="38.9813256449997425079345703125" lon="-7.60106611065566539764404296875">
        <ele>235</ele>
        <time>2019-04-25T13:58:22.000Z</time>
      </trkpt>
      <trkpt lat="38.981515578925609588623046875" lon="-7.60173448361456394195556640625">
        <ele>235.600006103515625</ele>
        <time>2019-04-25T13:58:39.000Z</time>
      </trkpt>
      <trkpt lat="38.98188480176031589508056640625" lon="-7.60230009444057941436767578125">
        <ele>234</ele>
        <time>2019-04-25T13:58:53.000Z</time>
      </trkpt>
      <trkpt lat="38.982273973524570465087890625" lon="-7.6028678007423877716064453125">
        <ele>233.600006103515625</ele>
        <time>2019-04-25T13:59:05.000Z</time>
      </trkpt>
      <trkpt lat="38.98230004124343395233154296875" lon="-7.60291993618011474609375">
        <ele>233.600006103515625</ele>
        <time>2019-04-25T13:59:06.000Z</time>
      </trkpt>
      <trkpt lat="38.98234077729284763336181640625" lon="-7.60302110575139522552490234375">
        <ele>233.399993896484375</ele>
        <time>2019-04-25T13:59:08.000Z</time>
      </trkpt>
      <trkpt lat="38.98240347392857074737548828125" lon="-7.60321573354303836822509765625">
        <ele>232.8000030517578125</ele>
        <time>2019-04-25T13:59:12.000Z</time>
      </trkpt>
      <trkpt lat="38.9825807511806488037109375" lon="-7.60353826917707920074462890625">
        <ele>231.600006103515625</ele>
        <time>2019-04-25T13:59:20.000Z</time>
      </trkpt>
      <trkpt lat="38.98291359655559062957763671875" lon="-7.6038243435323238372802734375">
        <ele>231.1999969482421875</ele>
        <time>2019-04-25T13:59:34.000Z</time>
      </trkpt>
      <trkpt lat="38.98310570977628231048583984375" lon="-7.60441987775266170501708984375">
        <ele>231.8000030517578125</ele>
        <time>2019-04-25T13:59:54.000Z</time>
      </trkpt>
      <trkpt lat="38.98327737115323543548583984375" lon="-7.60477057658135890960693359375">
        <ele>231.399993896484375</ele>
        <time>2019-04-25T14:00:05.000Z</time>
      </trkpt>
      <trkpt lat="38.98328323848545551300048828125" lon="-7.60482220910489559173583984375">
        <ele>231.399993896484375</ele>
        <time>2019-04-25T14:00:50.000Z</time>
      </trkpt>
      <trkpt lat="38.983355574309825897216796875" lon="-7.60494424961507320404052734375">
        <ele>230.8000030517578125</ele>
        <time>2019-04-25T14:00:55.000Z</time>
      </trkpt>
      <trkpt lat="38.98371842689812183380126953125" lon="-7.6054812781512737274169921875">
        <ele>230.1999969482421875</ele>
        <time>2019-04-25T14:01:16.000Z</time>
      </trkpt>
      <trkpt lat="38.98416266776621341705322265625" lon="-7.60595058090984821319580078125">
        <ele>229.1999969482421875</ele>
        <time>2019-04-25T14:01:33.000Z</time>
      </trkpt>
      <trkpt lat="38.98453985340893268585205078125" lon="-7.60645416565239429473876953125">
        <ele>229.1999969482421875</ele>
        <time>2019-04-25T14:01:47.000Z</time>
      </trkpt>
      <trkpt lat="38.9849989302456378936767578125" lon="-7.6068190298974514007568359375">
        <ele>228</ele>
        <time>2019-04-25T14:02:06.000Z</time>
      </trkpt>
      <trkpt lat="38.98501225747168064117431640625" lon="-7.60682950727641582489013671875">
        <ele>228</ele>
        <time>2019-04-25T14:02:07.000Z</time>
      </trkpt>
      <trkpt lat="38.985014855861663818359375" lon="-7.60684610344469547271728515625">
        <ele>228</ele>
        <time>2019-04-25T14:02:10.000Z</time>
      </trkpt>
      <trkpt lat="38.98503036238253116607666015625" lon="-7.6068317703902721405029296875">
        <ele>227.8000030517578125</ele>
        <time>2019-04-25T14:02:38.000Z</time>
      </trkpt>
      <trkpt lat="38.985035307705402374267578125" lon="-7.60684358887374401092529296875">
        <ele>227.8000030517578125</ele>
        <time>2019-04-25T14:02:39.000Z</time>
      </trkpt>
      <trkpt lat="38.98504829965531826019287109375" lon="-7.60688566602766513824462890625">
        <ele>228</ele>
        <time>2019-04-25T14:03:57.000Z</time>
      </trkpt>
      <trkpt lat="38.9852027781307697296142578125" lon="-7.60701508261263370513916015625">
        <ele>227.600006103515625</ele>
        <time>2019-04-25T14:04:05.000Z</time>
      </trkpt>
      <trkpt lat="38.9855819754302501678466796875" lon="-7.60750827379524707794189453125">
        <ele>228</ele>
        <time>2019-04-25T14:04:21.000Z</time>
      </trkpt>
      <trkpt lat="38.98603769950568675994873046875" lon="-7.6078412868082523345947265625">
        <ele>228</ele>
        <time>2019-04-25T14:04:37.000Z</time>
      </trkpt>
      <trkpt lat="38.9861137233674526214599609375" lon="-7.60803214274346828460693359375">
        <ele>228.1999969482421875</ele>
        <time>2019-04-25T14:04:41.000Z</time>
      </trkpt>
      <trkpt lat="38.9863733947277069091796875" lon="-7.60844059288501739501953125">
        <ele>227.600006103515625</ele>
        <time>2019-04-25T14:04:51.000Z</time>
      </trkpt>
      <trkpt lat="38.98650205694139003753662109375" lon="-7.60858098976314067840576171875">
        <ele>227.1999969482421875</ele>
        <time>2019-04-25T14:04:55.000Z</time>
      </trkpt>
      <trkpt lat="38.98661236278712749481201171875" lon="-7.60864318348467350006103515625">
        <ele>227</ele>
        <time>2019-04-25T14:05:00.000Z</time>
      </trkpt>
      <trkpt lat="38.98659794591367244720458984375" lon="-7.60866262950003147125244140625">
        <ele>227</ele>
        <time>2019-04-25T14:05:04.000Z</time>
      </trkpt>
      <trkpt lat="38.9866062439978122711181640625" lon="-7.6086848415434360504150390625">
        <ele>227</ele>
        <time>2019-04-25T14:05:06.000Z</time>
      </trkpt>
      <trkpt lat="38.9866696111857891082763671875" lon="-7.60886061005294322967529296875">
        <ele>226.399993896484375</ele>
        <time>2019-04-25T14:05:12.000Z</time>
      </trkpt>
      <trkpt lat="38.9869009517133235931396484375" lon="-7.6094160787761211395263671875">
        <ele>225.8000030517578125</ele>
        <time>2019-04-25T14:05:24.000Z</time>
      </trkpt>
      <trkpt lat="38.98718970827758312225341796875" lon="-7.61003474704921245574951171875">
        <ele>227.399993896484375</ele>
        <time>2019-04-25T14:05:37.000Z</time>
      </trkpt>
      <trkpt lat="38.98742892779409885406494140625" lon="-7.6104829274117946624755859375">
        <ele>228.1999969482421875</ele>
        <time>2019-04-25T14:05:46.000Z</time>
      </trkpt>
      <trkpt lat="38.98758349008858203887939453125" lon="-7.6106941513717174530029296875">
        <ele>226.600006103515625</ele>
        <time>2019-04-25T14:05:51.000Z</time>
      </trkpt>
      <trkpt lat="38.9876228012144565582275390625" lon="-7.61088676750659942626953125">
        <ele>226.1999969482421875</ele>
        <time>2019-04-25T14:05:55.000Z</time>
      </trkpt>
      <trkpt lat="38.98764233104884624481201171875" lon="-7.6110374741256237030029296875">
        <ele>226.600006103515625</ele>
        <time>2019-04-25T14:05:58.000Z</time>
      </trkpt>
      <trkpt lat="38.98775783367455005645751953125" lon="-7.611456401646137237548828125">
        <ele>225</ele>
        <time>2019-04-25T14:06:06.000Z</time>
      </trkpt>
      <trkpt lat="38.9880013279616832733154296875" lon="-7.61180802248418331146240234375">
        <ele>225.1999969482421875</ele>
        <time>2019-04-25T14:06:14.000Z</time>
      </trkpt>
      <trkpt lat="38.9884586445987224578857421875" lon="-7.61217900551855564117431640625">
        <ele>224.1999969482421875</ele>
        <time>2019-04-25T14:06:25.000Z</time>
      </trkpt>
      <trkpt lat="38.98866198956966400146484375" lon="-7.61237271130084991455078125">
        <ele>223.1999969482421875</ele>
        <time>2019-04-25T14:06:30.000Z</time>
      </trkpt>
      <trkpt lat="38.98903355933725833892822265625" lon="-7.61289264075458049774169921875">
        <ele>224.8000030517578125</ele>
        <time>2019-04-25T14:06:41.000Z</time>
      </trkpt>
      <trkpt lat="38.989326842129230499267578125" lon="-7.61334375478327274322509765625">
        <ele>221.600006103515625</ele>
        <time>2019-04-25T14:06:50.000Z</time>
      </trkpt>
      <trkpt lat="38.9897652156651020050048828125" lon="-7.61379704810678958892822265625">
        <ele>222.399993896484375</ele>
        <time>2019-04-25T14:07:02.000Z</time>
      </trkpt>
      <trkpt lat="38.990077190101146697998046875" lon="-7.61413902975618839263916015625">
        <ele>222</ele>
        <time>2019-04-25T14:07:11.000Z</time>
      </trkpt>
      <trkpt lat="38.990241475403308868408203125" lon="-7.614269368350505828857421875">
        <ele>222</ele>
        <time>2019-04-25T14:07:15.000Z</time>
      </trkpt>
      <trkpt lat="38.99040634743869304656982421875" lon="-7.61447313241660594940185546875">
        <ele>222.8000030517578125</ele>
        <time>2019-04-25T14:07:20.000Z</time>
      </trkpt>
      <trkpt lat="38.99065596051514148712158203125" lon="-7.6148287765681743621826171875">
        <ele>223.1999969482421875</ele>
        <time>2019-04-25T14:07:29.000Z</time>
      </trkpt>
      <trkpt lat="38.9909380115568637847900390625" lon="-7.61521124280989170074462890625">
        <ele>222.8000030517578125</ele>
        <time>2019-04-25T14:07:38.000Z</time>
      </trkpt>
      <trkpt lat="38.99104253388941287994384765625" lon="-7.61531643569469451904296875">
        <ele>222</ele>
        <time>2019-04-25T14:07:41.000Z</time>
      </trkpt>
      <trkpt lat="38.9914033748209476470947265625" lon="-7.61556982062757015228271484375">
        <ele>222.600006103515625</ele>
        <time>2019-04-25T14:07:58.000Z</time>
      </trkpt>
      <trkpt lat="38.99141871370375156402587890625" lon="-7.6155844889581203460693359375">
        <ele>222.8000030517578125</ele>
        <time>2019-04-25T14:08:30.000Z</time>
      </trkpt>
      <trkpt lat="38.99191676639020442962646484375" lon="-7.6158978044986724853515625">
        <ele>227</ele>
        <time>2019-04-25T14:08:59.000Z</time>
      </trkpt>
      <trkpt lat="38.9923810400068759918212890625" lon="-7.616273649036884307861328125">
        <ele>232</ele>
        <time>2019-04-25T14:09:33.000Z</time>
      </trkpt>
      <trkpt lat="38.99268052540719509124755859375" lon="-7.61641748249530792236328125">
        <ele>234.600006103515625</ele>
        <time>2019-04-25T14:09:53.000Z</time>
      </trkpt>
      <trkpt lat="38.99274707771837711334228515625" lon="-7.6164468191564083099365234375">
        <ele>235.1999969482421875</ele>
        <time>2019-04-25T14:09:57.000Z</time>
      </trkpt>
      <trkpt lat="38.99325854144990444183349609375" lon="-7.61668830178678035736083984375">
        <ele>238.1999969482421875</ele>
        <time>2019-04-25T14:10:19.000Z</time>
      </trkpt>
      <trkpt lat="38.993726670742034912109375" lon="-7.61646316386759281158447265625">
        <ele>241.399993896484375</ele>
        <time>2019-04-25T14:10:41.000Z</time>
      </trkpt>
      <trkpt lat="38.994146771728992462158203125" lon="-7.6160042546689510345458984375">
        <ele>242.399993896484375</ele>
        <time>2019-04-25T14:11:02.000Z</time>
      </trkpt>
      <trkpt lat="38.99458841420710086822509765625" lon="-7.61556948535144329071044921875">
        <ele>242.8000030517578125</ele>
        <time>2019-04-25T14:11:16.000Z</time>
      </trkpt>
      <trkpt lat="38.9950769953429698944091796875" lon="-7.61522146873176097869873046875">
        <ele>243.8000030517578125</ele>
        <time>2019-04-25T14:11:31.000Z</time>
      </trkpt>
      <trkpt lat="38.9953787438571453094482421875" lon="-7.61498593725264072418212890625">
        <ele>244.399993896484375</ele>
        <time>2019-04-25T14:11:39.000Z</time>
      </trkpt>
      <trkpt lat="38.99586045183241367340087890625" lon="-7.61457371525466442108154296875">
        <ele>245.399993896484375</ele>
        <time>2019-04-25T14:11:51.000Z</time>
      </trkpt>
      <trkpt lat="38.9962675608694553375244140625" lon="-7.6141114532947540283203125">
        <ele>246.1999969482421875</ele>
        <time>2019-04-25T14:12:03.000Z</time>
      </trkpt>
      <trkpt lat="38.99644467048346996307373046875" lon="-7.61387499980628490447998046875">
        <ele>246</ele>
        <time>2019-04-25T14:12:09.000Z</time>
      </trkpt>
      <trkpt lat="38.996569812297821044921875" lon="-7.61370317079126834869384765625">
        <ele>246</ele>
        <time>2019-04-25T14:12:14.000Z</time>
      </trkpt>
      <trkpt lat="38.99697490967810153961181640625" lon="-7.6132415793836116790771484375">
        <ele>246</ele>
        <time>2019-04-25T14:12:26.000Z</time>
      </trkpt>
      <trkpt lat="38.9970132149755954742431640625" lon="-7.6131902821362018585205078125">
        <ele>246</ele>
        <time>2019-04-25T14:12:27.000Z</time>
      </trkpt>
      <trkpt lat="38.997443206608295440673828125" lon="-7.612719722092151641845703125">
        <ele>246.600006103515625</ele>
        <time>2019-04-25T14:12:39.000Z</time>
      </trkpt>
      <trkpt lat="38.99787940084934234619140625" lon="-7.61228579096496105194091796875">
        <ele>247.399993896484375</ele>
        <time>2019-04-25T14:12:51.000Z</time>
      </trkpt>
      <trkpt lat="38.99820989929139614105224609375" lon="-7.61194665916264057159423828125">
        <ele>248.1999969482421875</ele>
        <time>2019-04-25T14:13:00.000Z</time>
      </trkpt>
      <trkpt lat="38.99849991314113140106201171875" lon="-7.61145950295031070709228515625">
        <ele>249.1999969482421875</ele>
        <time>2019-04-25T14:13:10.000Z</time>
      </trkpt>
      <trkpt lat="38.99867073632776737213134765625" lon="-7.61122698895633220672607421875">
        <ele>249.600006103515625</ele>
        <time>2019-04-25T14:13:15.000Z</time>
      </trkpt>
      <trkpt lat="38.9989035017788410186767578125" lon="-7.6109207980334758758544921875">
        <ele>250</ele>
        <time>2019-04-25T14:13:22.000Z</time>
      </trkpt>
      <trkpt lat="38.99900131858885288238525390625" lon="-7.61072181165218353271484375">
        <ele>250.1999969482421875</ele>
        <time>2019-04-25T14:13:26.000Z</time>
      </trkpt>
      <trkpt lat="38.9990560524165630340576171875" lon="-7.6106190495193004608154296875">
        <ele>250.1999969482421875</ele>
        <time>2019-04-25T14:13:28.000Z</time>
      </trkpt>
      <trkpt lat="38.999187648296356201171875" lon="-7.610378153622150421142578125">
        <ele>250.600006103515625</ele>
        <time>2019-04-25T14:13:33.000Z</time>
      </trkpt>
      <trkpt lat="38.99943734519183635711669921875" lon="-7.60989292524755001068115234375">
        <ele>251</ele>
        <time>2019-04-25T14:13:43.000Z</time>
      </trkpt>
      <trkpt lat="38.99951160885393619537353515625" lon="-7.609743140637874603271484375">
        <ele>251.1999969482421875</ele>
        <time>2019-04-25T14:13:46.000Z</time>
      </trkpt>
      <trkpt lat="38.99984789080917835235595703125" lon="-7.6091602630913257598876953125">
        <ele>252</ele>
        <time>2019-04-25T14:13:58.000Z</time>
      </trkpt>
      <trkpt lat="39.00018249638378620147705078125" lon="-7.608575709164142608642578125">
        <ele>254.1999969482421875</ele>
        <time>2019-04-25T14:14:12.000Z</time>
      </trkpt>
      <trkpt lat="39.00041953660547733306884765625" lon="-7.60818980634212493896484375">
        <ele>255.1999969482421875</ele>
        <time>2019-04-25T14:14:22.000Z</time>
      </trkpt>
      <trkpt lat="39.000712819397449493408203125" lon="-7.60762210004031658172607421875">
        <ele>255.8000030517578125</ele>
        <time>2019-04-25T14:14:33.000Z</time>
      </trkpt>
      <trkpt lat="39.0007763542234897613525390625" lon="-7.60752604342997074127197265625">
        <ele>256</ele>
        <time>2019-04-25T14:14:35.000Z</time>
      </trkpt>
      <trkpt lat="39.00088942609727382659912109375" lon="-7.60741707868874073028564453125">
        <ele>255.8000030517578125</ele>
        <time>2019-04-25T14:14:38.000Z</time>
      </trkpt>
      <trkpt lat="39.0010170824825763702392578125" lon="-7.6073216088116168975830078125">
        <ele>255.600006103515625</ele>
        <time>2019-04-25T14:14:42.000Z</time>
      </trkpt>
      <trkpt lat="39.00114373303949832916259765625" lon="-7.60745513252913951873779296875">
        <ele>255.399993896484375</ele>
        <time>2019-04-25T14:14:47.000Z</time>
      </trkpt>
      <trkpt lat="39.001463837921619415283203125" lon="-7.60803767479956150054931640625">
        <ele>254.399993896484375</ele>
        <time>2019-04-25T14:14:59.000Z</time>
      </trkpt>
      <trkpt lat="39.001615047454833984375" lon="-7.6083086617290973663330078125">
        <ele>254.600006103515625</ele>
        <time>2019-04-25T14:15:04.000Z</time>
      </trkpt>
      <trkpt lat="39.001938588917255401611328125" lon="-7.60888558812439441680908203125">
        <ele>254</ele>
        <time>2019-04-25T14:15:14.000Z</time>
      </trkpt>
      <trkpt lat="39.0022708475589752197265625" lon="-7.6094791106879711151123046875">
        <ele>253.8000030517578125</ele>
        <time>2019-04-25T14:15:25.000Z</time>
      </trkpt>
      <trkpt lat="39.002612493932247161865234375" lon="-7.61009593494236469268798828125">
        <ele>253.399993896484375</ele>
        <time>2019-04-25T14:15:36.000Z</time>
      </trkpt>
      <trkpt lat="39.00294181890785694122314453125" lon="-7.61069859378039836883544921875">
        <ele>250.399993896484375</ele>
        <time>2019-04-25T14:15:47.000Z</time>
      </trkpt>
      <trkpt lat="39.0030170045793056488037109375" lon="-7.6108389906585216522216796875">
        <ele>250.600006103515625</ele>
        <time>2019-04-25T14:15:50.000Z</time>
      </trkpt>
      <trkpt lat="39.00335085578262805938720703125" lon="-7.611426226794719696044921875">
        <ele>250</ele>
        <time>2019-04-25T14:16:01.000Z</time>
      </trkpt>
      <trkpt lat="39.00370524264872074127197265625" lon="-7.6120461523532867431640625">
        <ele>249</ele>
        <time>2019-04-25T14:16:11.000Z</time>
      </trkpt>
      <trkpt lat="39.00397011078894138336181640625" lon="-7.612535990774631500244140625">
        <ele>248.399993896484375</ele>
        <time>2019-04-25T14:16:19.000Z</time>
      </trkpt>
      <trkpt lat="39.00406599976122379302978515625" lon="-7.61269046925008296966552734375">
        <ele>248.600006103515625</ele>
        <time>2019-04-25T14:16:22.000Z</time>
      </trkpt>
      <trkpt lat="39.0043924748897552490234375" lon="-7.61327259242534637451171875">
        <ele>248</ele>
        <time>2019-04-25T14:16:32.000Z</time>
      </trkpt>
      <trkpt lat="39.00473588146269321441650390625" lon="-7.61389411054551601409912109375">
        <ele>247.600006103515625</ele>
        <time>2019-04-25T14:16:42.000Z</time>
      </trkpt>
      <trkpt lat="39.00506026111543178558349609375" lon="-7.6144650019705295562744140625">
        <ele>246.1999969482421875</ele>
        <time>2019-04-25T14:16:51.000Z</time>
      </trkpt>
      <trkpt lat="39.00537617504596710205078125" lon="-7.61503589339554309844970703125">
        <ele>246.8000030517578125</ele>
        <time>2019-04-25T14:17:00.000Z</time>
      </trkpt>
      <trkpt lat="39.0057027339935302734375" lon="-7.6156237162649631500244140625">
        <ele>246</ele>
        <time>2019-04-25T14:17:09.000Z</time>
      </trkpt>
      <trkpt lat="39.00588101707398891448974609375" lon="-7.6159683801233768463134765625">
        <ele>245.600006103515625</ele>
        <time>2019-04-25T14:17:15.000Z</time>
      </trkpt>
      <trkpt lat="39.005942456424236297607421875" lon="-7.6160589046776294708251953125">
        <ele>245.1999969482421875</ele>
        <time>2019-04-25T14:17:17.000Z</time>
      </trkpt>
      <trkpt lat="39.00608922354876995086669921875" lon="-7.61630541644990444183349609375">
        <ele>244.399993896484375</ele>
        <time>2019-04-25T14:17:22.000Z</time>
      </trkpt>
      <trkpt lat="39.0065340511500835418701171875" lon="-7.6167888008058071136474609375">
        <ele>243.399993896484375</ele>
        <time>2019-04-25T14:17:33.000Z</time>
      </trkpt>
      <trkpt lat="39.00700150988996028900146484375" lon="-7.61716187931597232818603515625">
        <ele>242.8000030517578125</ele>
        <time>2019-04-25T14:17:43.000Z</time>
      </trkpt>
      <trkpt lat="39.00749067775905132293701171875" lon="-7.61756203137338161468505859375">
        <ele>242</ele>
        <time>2019-04-25T14:17:53.000Z</time>
      </trkpt>
      <trkpt lat="39.0077299810945987701416015625" lon="-7.61775766499340534210205078125">
        <ele>242.1999969482421875</ele>
        <time>2019-04-25T14:17:58.000Z</time>
      </trkpt>
      <trkpt lat="39.00819609872996807098388671875" lon="-7.6181402988731861114501953125">
        <ele>242.399993896484375</ele>
        <time>2019-04-25T14:18:08.000Z</time>
      </trkpt>
      <trkpt lat="39.008675627410411834716796875" lon="-7.618536762893199920654296875">
        <ele>240.8000030517578125</ele>
        <time>2019-04-25T14:18:19.000Z</time>
      </trkpt>
      <trkpt lat="39.00915247388184070587158203125" lon="-7.618938423693180084228515625">
        <ele>240.600006103515625</ele>
        <time>2019-04-25T14:18:30.000Z</time>
      </trkpt>
      <trkpt lat="39.00961968116462230682373046875" lon="-7.6193151064217090606689453125">
        <ele>239.600006103515625</ele>
        <time>2019-04-25T14:18:41.000Z</time>
      </trkpt>
      <trkpt lat="39.0100759081542491912841796875" lon="-7.61969187296926975250244140625">
        <ele>238.8000030517578125</ele>
        <time>2019-04-25T14:18:51.000Z</time>
      </trkpt>
      <trkpt lat="39.010415375232696533203125" lon="-7.61998079717159271240234375">
        <ele>238.399993896484375</ele>
        <time>2019-04-25T14:18:59.000Z</time>
      </trkpt>
      <trkpt lat="39.01072810404002666473388671875" lon="-7.6202505268156528472900390625">
        <ele>238.600006103515625</ele>
        <time>2019-04-25T14:19:07.000Z</time>
      </trkpt>
      <trkpt lat="39.01076967827975749969482421875" lon="-7.62028656899929046630859375">
        <ele>238.600006103515625</ele>
        <time>2019-04-25T14:19:08.000Z</time>
      </trkpt>
      <trkpt lat="39.011041335761547088623046875" lon="-7.6204972900450229644775390625">
        <ele>238</ele>
        <time>2019-04-25T14:19:14.000Z</time>
      </trkpt>
      <trkpt lat="39.011134542524814605712890625" lon="-7.6205747388303279876708984375">
        <ele>237.600006103515625</ele>
        <time>2019-04-25T14:19:16.000Z</time>
      </trkpt>
      <trkpt lat="39.01162480004131793975830078125" lon="-7.620979249477386474609375">
        <ele>236.600006103515625</ele>
        <time>2019-04-25T14:19:26.000Z</time>
      </trkpt>
      <trkpt lat="39.01211514137685298919677734375" lon="-7.62138233520090579986572265625">
        <ele>236.399993896484375</ele>
        <time>2019-04-25T14:19:36.000Z</time>
      </trkpt>
      <trkpt lat="39.01260246522724628448486328125" lon="-7.62178081087768077850341796875">
        <ele>236.8000030517578125</ele>
        <time>2019-04-25T14:19:47.000Z</time>
      </trkpt>
      <trkpt lat="39.0130793116986751556396484375" lon="-7.62217509560286998748779296875">
        <ele>236.8000030517578125</ele>
        <time>2019-04-25T14:19:59.000Z</time>
      </trkpt>
      <trkpt lat="39.01353201828896999359130859375" lon="-7.62256032787263393402099609375">
        <ele>237.8000030517578125</ele>
        <time>2019-04-25T14:20:11.000Z</time>
      </trkpt>
      <trkpt lat="39.01402856223285198211669921875" lon="-7.62296785600483417510986328125">
        <ele>238.600006103515625</ele>
        <time>2019-04-25T14:20:23.000Z</time>
      </trkpt>
      <trkpt lat="39.0145079232752323150634765625" lon="-7.62338007800281047821044921875">
        <ele>239</ele>
        <time>2019-04-25T14:20:34.000Z</time>
      </trkpt>
      <trkpt lat="39.01498787105083465576171875" lon="-7.623774446547031402587890625">
        <ele>237.399993896484375</ele>
        <time>2019-04-25T14:20:46.000Z</time>
      </trkpt>
      <trkpt lat="39.01546454988420009613037109375" lon="-7.624180130660533905029296875">
        <ele>236.600006103515625</ele>
        <time>2019-04-25T14:20:56.000Z</time>
      </trkpt>
      <trkpt lat="39.01592664420604705810546875" lon="-7.62455488555133342742919921875">
        <ele>237</ele>
        <time>2019-04-25T14:21:06.000Z</time>
      </trkpt>
      <trkpt lat="39.01639997027814388275146484375" lon="-7.624948918819427490234375">
        <ele>237.8000030517578125</ele>
        <time>2019-04-25T14:21:18.000Z</time>
      </trkpt>
      <trkpt lat="39.016761817038059234619140625" lon="-7.6252494938671588897705078125">
        <ele>238</ele>
        <time>2019-04-25T14:21:26.000Z</time>
      </trkpt>
      <trkpt lat="39.01724453084170818328857421875" lon="-7.62564159929752349853515625">
        <ele>238.8000030517578125</ele>
        <time>2019-04-25T14:21:38.000Z</time>
      </trkpt>
      <trkpt lat="39.017705284059047698974609375" lon="-7.62601199559867382049560546875">
        <ele>240.1999969482421875</ele>
        <time>2019-04-25T14:21:49.000Z</time>
      </trkpt>
      <trkpt lat="39.01796185411512851715087890625" lon="-7.626232020556926727294921875">
        <ele>240.1999969482421875</ele>
        <time>2019-04-25T14:21:55.000Z</time>
      </trkpt>
      <trkpt lat="39.01843107305467128753662109375" lon="-7.62660451233386993408203125">
        <ele>240</ele>
        <time>2019-04-25T14:22:06.000Z</time>
      </trkpt>
      <trkpt lat="39.01893164031207561492919921875" lon="-7.62700893916189670562744140625">
        <ele>238</ele>
        <time>2019-04-25T14:22:17.000Z</time>
      </trkpt>
      <trkpt lat="39.01943120174109935760498046875" lon="-7.62741629965603351593017578125">
        <ele>236.399993896484375</ele>
        <time>2019-04-25T14:22:27.000Z</time>
      </trkpt>
      <trkpt lat="39.01989505626261234283447265625" lon="-7.62778795324265956878662109375">
        <ele>236</ele>
        <time>2019-04-25T14:22:36.000Z</time>
      </trkpt>
      <trkpt lat="39.02038942091166973114013671875" lon="-7.6281955651938915252685546875">
        <ele>235.8000030517578125</ele>
        <time>2019-04-25T14:22:46.000Z</time>
      </trkpt>
      <trkpt lat="39.02090105228126049041748046875" lon="-7.628615163266658782958984375">
        <ele>234.8000030517578125</ele>
        <time>2019-04-25T14:22:55.000Z</time>
      </trkpt>
      <trkpt lat="39.02139239944517612457275390625" lon="-7.62901422567665576934814453125">
        <ele>233</ele>
        <time>2019-04-25T14:23:04.000Z</time>
      </trkpt>
      <trkpt lat="39.021436907351016998291015625" lon="-7.6290501840412616729736328125">
        <ele>233</ele>
        <time>2019-04-25T14:23:05.000Z</time>
      </trkpt>
      <trkpt lat="39.02164704166352748870849609375" lon="-7.62920600362122058868408203125">
        <ele>233</ele>
        <time>2019-04-25T14:23:10.000Z</time>
      </trkpt>
      <trkpt lat="39.02174058370292186737060546875" lon="-7.62927305884659290313720703125">
        <ele>232.8000030517578125</ele>
        <time>2019-04-25T14:23:15.000Z</time>
      </trkpt>
      <trkpt lat="39.02175650931894779205322265625" lon="-7.6292900741100311279296875">
        <ele>232.8000030517578125</ele>
        <time>2019-04-25T14:23:25.000Z</time>
      </trkpt>
      <trkpt lat="39.0222286619246006011962890625" lon="-7.629669271409511566162109375">
        <ele>234.600006103515625</ele>
        <time>2019-04-25T14:23:39.000Z</time>
      </trkpt>
      <trkpt lat="39.0225213579833507537841796875" lon="-7.62990840710699558258056640625">
        <ele>236</ele>
        <time>2019-04-25T14:23:46.000Z</time>
      </trkpt>
      <trkpt lat="39.02299250476062297821044921875" lon="-7.6302719302475452423095703125">
        <ele>237.600006103515625</ele>
        <time>2019-04-25T14:23:59.000Z</time>
      </trkpt>
      <trkpt lat="39.02350480668246746063232421875" lon="-7.6305911131203174591064453125">
        <ele>239</ele>
        <time>2019-04-25T14:24:13.000Z</time>
      </trkpt>
      <trkpt lat="39.02403068728744983673095703125" lon="-7.63090199790894985198974609375">
        <ele>241</ele>
        <time>2019-04-25T14:24:27.000Z</time>
      </trkpt>
      <trkpt lat="39.02455438859760761260986328125" lon="-7.63120374642312526702880859375">
        <ele>242.1999969482421875</ele>
        <time>2019-04-25T14:24:40.000Z</time>
      </trkpt>
      <trkpt lat="39.0250644274055957794189453125" lon="-7.63150331564247608184814453125">
        <ele>241.399993896484375</ele>
        <time>2019-04-25T14:24:52.000Z</time>
      </trkpt>
      <trkpt lat="39.02555921114981174468994140625" lon="-7.63178947381675243377685546875">
        <ele>241.8000030517578125</ele>
        <time>2019-04-25T14:25:03.000Z</time>
      </trkpt>
      <trkpt lat="39.0260990895330905914306640625" lon="-7.6321042142808437347412109375">
        <ele>242.600006103515625</ele>
        <time>2019-04-25T14:25:14.000Z</time>
      </trkpt>
      <trkpt lat="39.02661097235977649688720703125" lon="-7.63239833526313304901123046875">
        <ele>242</ele>
        <time>2019-04-25T14:25:24.000Z</time>
      </trkpt>
      <trkpt lat="39.02713693678379058837890625" lon="-7.63270461000502109527587890625">
        <ele>242</ele>
        <time>2019-04-25T14:25:34.000Z</time>
      </trkpt>
      <trkpt lat="39.0276427008211612701416015625" lon="-7.6329970546066761016845703125">
        <ele>242.1999969482421875</ele>
        <time>2019-04-25T14:25:44.000Z</time>
      </trkpt>
      <trkpt lat="39.02815039269626140594482421875" lon="-7.63329536654055118560791015625">
        <ele>243</ele>
        <time>2019-04-25T14:25:55.000Z</time>
      </trkpt>
      <trkpt lat="39.02864559553563594818115234375" lon="-7.6335857994854450225830078125">
        <ele>244.600006103515625</ele>
        <time>2019-04-25T14:26:06.000Z</time>
      </trkpt>
      <trkpt lat="39.02917449362576007843017578125" lon="-7.6338905654847621917724609375">
        <ele>245.399993896484375</ele>
        <time>2019-04-25T14:26:18.000Z</time>
      </trkpt>
      <trkpt lat="39.02946375310420989990234375" lon="-7.63406499288976192474365234375">
        <ele>245.399993896484375</ele>
        <time>2019-04-25T14:26:26.000Z</time>
      </trkpt>
      <trkpt lat="39.029987119138240814208984375" lon="-7.6343622989952564239501953125">
        <ele>245.600006103515625</ele>
        <time>2019-04-25T14:26:41.000Z</time>
      </trkpt>
      <trkpt lat="39.030494391918182373046875" lon="-7.6346543245017528533935546875">
        <ele>244.8000030517578125</ele>
        <time>2019-04-25T14:26:53.000Z</time>
      </trkpt>
      <trkpt lat="39.03099839575588703155517578125" lon="-7.63495548628270626068115234375">
        <ele>244.1999969482421875</ele>
        <time>2019-04-25T14:27:04.000Z</time>
      </trkpt>
      <trkpt lat="39.0315040759742259979248046875" lon="-7.63525539077818393707275390625">
        <ele>244.399993896484375</ele>
        <time>2019-04-25T14:27:14.000Z</time>
      </trkpt>
      <trkpt lat="39.03204915113747119903564453125" lon="-7.6355610787868499755859375">
        <ele>246.1999969482421875</ele>
        <time>2019-04-25T14:27:24.000Z</time>
      </trkpt>
      <trkpt lat="39.032546617090702056884765625" lon="-7.6358338259160518646240234375">
        <ele>246</ele>
        <time>2019-04-25T14:27:33.000Z</time>
      </trkpt>
      <trkpt lat="39.0330594219267368316650390625" lon="-7.63606793247163295745849609375">
        <ele>243.8000030517578125</ele>
        <time>2019-04-25T14:27:42.000Z</time>
      </trkpt>
      <trkpt lat="39.03361271135509014129638671875" lon="-7.636319808661937713623046875">
        <ele>242</ele>
        <time>2019-04-25T14:27:52.000Z</time>
      </trkpt>
      <trkpt lat="39.03396357782185077667236328125" lon="-7.636482417583465576171875">
        <ele>241.600006103515625</ele>
        <time>2019-04-25T14:27:59.000Z</time>
      </trkpt>
      <trkpt lat="39.03405276127159595489501953125" lon="-7.63653044588863849639892578125">
        <ele>241.399993896484375</ele>
        <time>2019-04-25T14:28:01.000Z</time>
      </trkpt>
      <trkpt lat="39.03419324196875095367431640625" lon="-7.63657629489898681640625">
        <ele>241.1999969482421875</ele>
        <time>2019-04-25T14:28:04.000Z</time>
      </trkpt>
      <trkpt lat="39.03440245427191257476806640625" lon="-7.63667159713804721832275390625">
        <ele>241</ele>
        <time>2019-04-25T14:28:09.000Z</time>
      </trkpt>
      <trkpt lat="39.0345617942512035369873046875" lon="-7.63674150221049785614013671875">
        <ele>240.8000030517578125</ele>
        <time>2019-04-25T14:28:13.000Z</time>
      </trkpt>
      <trkpt lat="39.03510821051895618438720703125" lon="-7.63698558323085308074951171875">
        <ele>239.8000030517578125</ele>
        <time>2019-04-25T14:28:26.000Z</time>
      </trkpt>
      <trkpt lat="39.03563551604747772216796875" lon="-7.6372158341109752655029296875">
        <ele>240.399993896484375</ele>
        <time>2019-04-25T14:28:41.000Z</time>
      </trkpt>
      <trkpt lat="39.03615511022508144378662109375" lon="-7.6374488510191440582275390625">
        <ele>243.600006103515625</ele>
        <time>2019-04-25T14:28:58.000Z</time>
      </trkpt>
      <trkpt lat="39.036669842898845672607421875" lon="-7.63768295757472515106201171875">
        <ele>244.1999969482421875</ele>
        <time>2019-04-25T14:29:13.000Z</time>
      </trkpt>
      <trkpt lat="39.0371839888393878936767578125" lon="-7.63791362755000591278076171875">
        <ele>246.8000030517578125</ele>
        <time>2019-04-25T14:29:27.000Z</time>
      </trkpt>
      <trkpt lat="39.03771288692951202392578125" lon="-7.63815083540976047515869140625">
        <ele>248.399993896484375</ele>
        <time>2019-04-25T14:29:41.000Z</time>
      </trkpt>
      <trkpt lat="39.038235582411289215087890625" lon="-7.6383852772414684295654296875">
        <ele>249.600006103515625</ele>
        <time>2019-04-25T14:29:55.000Z</time>
      </trkpt>
      <trkpt lat="39.03876389376819133758544921875" lon="-7.63862189836800098419189453125">
        <ele>250.1999969482421875</ele>
        <time>2019-04-25T14:30:08.000Z</time>
      </trkpt>
      <trkpt lat="39.0392818115651607513427734375" lon="-7.63885541819036006927490234375">
        <ele>249.8000030517578125</ele>
        <time>2019-04-25T14:30:21.000Z</time>
      </trkpt>
      <trkpt lat="39.03981230221688747406005859375" lon="-7.639091201126575469970703125">
        <ele>250</ele>
        <time>2019-04-25T14:30:32.000Z</time>
      </trkpt>
      <trkpt lat="39.0403501689434051513671875" lon="-7.6393337734043598175048828125">
        <ele>249.600006103515625</ele>
        <time>2019-04-25T14:30:44.000Z</time>
      </trkpt>
      <trkpt lat="39.0408978424966335296630859375" lon="-7.639572657644748687744140625">
        <ele>247.600006103515625</ele>
        <time>2019-04-25T14:30:58.000Z</time>
      </trkpt>
      <trkpt lat="39.04139949940145015716552734375" lon="-7.63983786106109619140625">
        <ele>247</ele>
        <time>2019-04-25T14:31:12.000Z</time>
      </trkpt>
      <trkpt lat="39.04179797507822513580322265625" lon="-7.6398098655045032501220703125">
        <ele>247</ele>
        <time>2019-04-25T14:31:23.000Z</time>
      </trkpt>
      <trkpt lat="39.0418902598321437835693359375" lon="-7.64004179276525974273681640625">
        <ele>247</ele>
        <time>2019-04-25T14:31:29.000Z</time>
      </trkpt>
      <trkpt lat="39.04187005944550037384033203125" lon="-7.64013223350048065185546875">
        <ele>247</ele>
        <time>2019-04-25T14:31:36.000Z</time>
      </trkpt>
      <trkpt lat="39.0418061055243015289306640625" lon="-7.64023507945239543914794921875">
        <ele>247</ele>
        <time>2019-04-25T14:32:27.000Z</time>
      </trkpt>
      <trkpt lat="39.0417481027543544769287109375" lon="-7.640301883220672607421875">
        <ele>247</ele>
        <time>2019-04-25T14:32:32.000Z</time>
      </trkpt>
      <trkpt lat="39.041716754436492919921875" lon="-7.6403090916574001312255859375">
        <ele>247.1999969482421875</ele>
        <time>2019-04-25T14:32:39.000Z</time>
      </trkpt>
      <trkpt lat="39.04171147383749485015869140625" lon="-7.640307247638702392578125">
        <ele>247.1999969482421875</ele>
        <time>2019-04-25T14:32:40.000Z</time>
      </trkpt>
      <trkpt lat="39.0417420677840709686279296875" lon="-7.64027950353920459747314453125">
        <ele>247.1999969482421875</ele>
        <time>2019-04-25T14:34:23.000Z</time>
      </trkpt>
      <trkpt lat="39.0417601726949214935302734375" lon="-7.64026609249413013458251953125">
        <ele>247.1999969482421875</ele>
        <time>2019-04-25T14:34:25.000Z</time>
      </trkpt>
      <trkpt lat="39.0417621843516826629638671875" lon="-7.64026558957993984222412109375">
        <ele>247</ele>
        <time>2019-04-25T14:34:27.000Z</time>
      </trkpt>
      <trkpt lat="39.0418044291436672210693359375" lon="-7.64028369449079036712646484375">
        <ele>247</ele>
        <time>2019-04-25T14:38:20.000Z</time>
      </trkpt>
      <trkpt lat="39.041850529611110687255859375" lon="-7.6403100974857807159423828125">
        <ele>246.8000030517578125</ele>
        <time>2019-04-25T14:38:26.000Z</time>
      </trkpt>
      <trkpt lat="39.04186167754232883453369140625" lon="-7.6403412781655788421630859375">
        <ele>246.8000030517578125</ele>
        <time>2019-04-25T14:39:03.000Z</time>
      </trkpt>
      <trkpt lat="39.041859917342662811279296875" lon="-7.64048268087208271026611328125">
        <ele>246.600006103515625</ele>
        <time>2019-04-25T14:39:08.000Z</time>
      </trkpt>
      <trkpt lat="39.04179445467889308929443359375" lon="-7.6405598782002925872802734375">
        <ele>246.600006103515625</ele>
        <time>2019-04-25T14:39:12.000Z</time>
      </trkpt>
      <trkpt lat="39.04178448021411895751953125" lon="-7.64067579992115497589111328125">
        <ele>246.600006103515625</ele>
        <time>2019-04-25T14:39:16.000Z</time>
      </trkpt>
      <trkpt lat="39.04179495759308338165283203125" lon="-7.64075358398258686065673828125">
        <ele>246.399993896484375</ele>
        <time>2019-04-25T14:39:19.000Z</time>
      </trkpt>
      <trkpt lat="39.04182697646319866180419921875" lon="-7.6408921368420124053955078125">
        <ele>246.1999969482421875</ele>
        <time>2019-04-25T14:39:29.000Z</time>
      </trkpt>
      <trkpt lat="39.0418084524571895599365234375" lon="-7.64090479351580142974853515625">
        <ele>246.1999969482421875</ele>
        <time>2019-04-25T14:39:50.000Z</time>
      </trkpt>
      <trkpt lat="39.04173963703215122222900390625" lon="-7.6408116705715656280517578125">
        <ele>246.399993896484375</ele>
        <time>2019-04-25T14:39:56.000Z</time>
      </trkpt>
      <trkpt lat="39.04161139391362667083740234375" lon="-7.6403469778597354888916015625">
        <ele>247.399993896484375</ele>
        <time>2019-04-25T14:40:07.000Z</time>
      </trkpt>
      <trkpt lat="39.0415942110121250152587890625" lon="-7.64024530537426471710205078125">
        <ele>247.1999969482421875</ele>
        <time>2019-04-25T14:40:09.000Z</time>
      </trkpt>
      <trkpt lat="39.0416445024311542510986328125" lon="-7.64005503617227077484130859375">
        <ele>247</ele>
        <time>2019-04-25T14:40:13.000Z</time>
      </trkpt>
      <trkpt lat="39.04172756709158420562744140625" lon="-7.6395289041101932525634765625">
        <ele>247</ele>
        <time>2019-04-25T14:40:27.000Z</time>
      </trkpt>
      <trkpt lat="39.041756652295589447021484375" lon="-7.63964717276394367218017578125">
        <ele>247</ele>
        <time>2019-04-25T14:40:31.000Z</time>
      </trkpt>
      <trkpt lat="39.04201271943747997283935546875" lon="-7.6402665115892887115478515625">
        <ele>246.600006103515625</ele>
        <time>2019-04-25T14:40:47.000Z</time>
      </trkpt>
      <trkpt lat="39.04223349876701831817626953125" lon="-7.64058644883334636688232421875">
        <ele>246</ele>
        <time>2019-04-25T14:40:55.000Z</time>
      </trkpt>
      <trkpt lat="39.04230306856334209442138671875" lon="-7.6406572759151458740234375">
        <ele>246</ele>
        <time>2019-04-25T14:40:57.000Z</time>
      </trkpt>
      <trkpt lat="39.0427626483142375946044921875" lon="-7.641023732721805572509765625">
        <ele>245.600006103515625</ele>
        <time>2019-04-25T14:41:08.000Z</time>
      </trkpt>
      <trkpt lat="39.04289633966982364654541015625" lon="-7.6410765387117862701416015625">
        <ele>245.399993896484375</ele>
        <time>2019-04-25T14:41:11.000Z</time>
      </trkpt>
      <trkpt lat="39.04308577068150043487548828125" lon="-7.6411211304366588592529296875">
        <ele>245</ele>
        <time>2019-04-25T14:41:15.000Z</time>
      </trkpt>
      <trkpt lat="39.04363998211920261383056640625" lon="-7.64121123589575290679931640625">
        <ele>244.399993896484375</ele>
        <time>2019-04-25T14:41:26.000Z</time>
      </trkpt>
      <trkpt lat="39.0437379665672779083251953125" lon="-7.6412205398082733154296875">
        <ele>244.1999969482421875</ele>
        <time>2019-04-25T14:41:28.000Z</time>
      </trkpt>
      <trkpt lat="39.04402680695056915283203125" lon="-7.64126018621027469635009765625">
        <ele>243.399993896484375</ele>
        <time>2019-04-25T14:41:34.000Z</time>
      </trkpt>
      <trkpt lat="39.04457263648509979248046875" lon="-7.64133662916719913482666015625">
        <ele>242.600006103515625</ele>
        <time>2019-04-25T14:41:45.000Z</time>
      </trkpt>
      <trkpt lat="39.04511486180126667022705078125" lon="-7.64142866246402263641357421875">
        <ele>242.8000030517578125</ele>
        <time>2019-04-25T14:41:55.000Z</time>
      </trkpt>
      <trkpt lat="39.04516867361962795257568359375" lon="-7.64143503271043300628662109375">
        <ele>243</ele>
        <time>2019-04-25T14:41:56.000Z</time>
      </trkpt>
      <trkpt lat="39.0457130782306194305419921875" lon="-7.64152421616017818450927734375">
        <ele>244</ele>
        <time>2019-04-25T14:42:06.000Z</time>
      </trkpt>
      <trkpt lat="39.045956991612911224365234375" lon="-7.64159831218421459197998046875">
        <ele>244.600006103515625</ele>
        <time>2019-04-25T14:42:11.000Z</time>
      </trkpt>
      <trkpt lat="39.04608565382659435272216796875" lon="-7.64163653366267681121826171875">
        <ele>244.8000030517578125</ele>
        <time>2019-04-25T14:42:14.000Z</time>
      </trkpt>
      <trkpt lat="39.04664590023458003997802734375" lon="-7.6418027468025684356689453125">
        <ele>244.600006103515625</ele>
        <time>2019-04-25T14:42:26.000Z</time>
      </trkpt>
      <trkpt lat="39.04721234925091266632080078125" lon="-7.64197868295013904571533203125">
        <ele>243.399993896484375</ele>
        <time>2019-04-25T14:42:36.000Z</time>
      </trkpt>
      <trkpt lat="39.04774778522551059722900390625" lon="-7.642139531672000885009765625">
        <ele>242</ele>
        <time>2019-04-25T14:42:46.000Z</time>
      </trkpt>
      <trkpt lat="39.048291184008121490478515625" lon="-7.64229820109903812408447265625">
        <ele>241.600006103515625</ele>
        <time>2019-04-25T14:42:57.000Z</time>
      </trkpt>
      <trkpt lat="39.0486031584441661834716796875" lon="-7.6423760689795017242431640625">
        <ele>241.1999969482421875</ele>
        <time>2019-04-25T14:43:03.000Z</time>
      </trkpt>
      <trkpt lat="39.04873408377170562744140625" lon="-7.64237481169402599334716796875">
        <ele>241.399993896484375</ele>
        <time>2019-04-25T14:43:06.000Z</time>
      </trkpt>
      <trkpt lat="39.0492478944361209869384765625" lon="-7.64255695044994354248046875">
        <ele>241.8000030517578125</ele>
        <time>2019-04-25T14:43:21.000Z</time>
      </trkpt>
      <trkpt lat="39.04928251169621944427490234375" lon="-7.64258704148232936859130859375">
        <ele>241.8000030517578125</ele>
        <time>2019-04-25T14:43:22.000Z</time>
      </trkpt>
      <trkpt lat="39.04940153472125530242919921875" lon="-7.64266197569668292999267578125">
        <ele>241.600006103515625</ele>
        <time>2019-04-25T14:43:25.000Z</time>
      </trkpt>
      <trkpt lat="39.0496565960347652435302734375" lon="-7.6428615488111972808837890625">
        <ele>241.399993896484375</ele>
        <time>2019-04-25T14:43:36.000Z</time>
      </trkpt>
      <trkpt lat="39.04967025853693485260009765625" lon="-7.642876468598842620849609375">
        <ele>241.399993896484375</ele>
        <time>2019-04-25T14:43:49.000Z</time>
      </trkpt>
      <trkpt lat="39.04987930320203304290771484375" lon="-7.64306162483990192413330078125">
        <ele>241.399993896484375</ele>
        <time>2019-04-25T14:44:02.000Z</time>
      </trkpt>
      <trkpt lat="39.04990243725478649139404296875" lon="-7.6431049592792987823486328125">
        <ele>241.399993896484375</ele>
        <time>2019-04-25T14:44:55.000Z</time>
      </trkpt>
      <trkpt lat="39.05037961900234222412109375" lon="-7.64349681325256824493408203125">
        <ele>242.1999969482421875</ele>
        <time>2019-04-25T14:45:16.000Z</time>
      </trkpt>
      <trkpt lat="39.0508464910089969635009765625" lon="-7.6438707299530506134033203125">
        <ele>242.8000030517578125</ele>
        <time>2019-04-25T14:45:32.000Z</time>
      </trkpt>
      <trkpt lat="39.05085143633186817169189453125" lon="-7.6438812911510467529296875">
        <ele>242.8000030517578125</ele>
        <time>2019-04-25T14:45:35.000Z</time>
      </trkpt>
      <trkpt lat="39.05087004415690898895263671875" lon="-7.6438998989760875701904296875">
        <ele>242.8000030517578125</ele>
        <time>2019-04-25T14:45:55.000Z</time>
      </trkpt>
      <trkpt lat="39.0513205714523792266845703125" lon="-7.64427985064685344696044921875">
        <ele>243.8000030517578125</ele>
        <time>2019-04-25T14:46:14.000Z</time>
      </trkpt>
      <trkpt lat="39.05180932022631168365478515625" lon="-7.6446532644331455230712890625">
        <ele>245</ele>
        <time>2019-04-25T14:46:30.000Z</time>
      </trkpt>
      <trkpt lat="39.05227133072912693023681640625" lon="-7.64504143036901950836181640625">
        <ele>245.8000030517578125</ele>
        <time>2019-04-25T14:46:45.000Z</time>
      </trkpt>
      <trkpt lat="39.05275329016149044036865234375" lon="-7.64540671370923519134521484375">
        <ele>246.600006103515625</ele>
        <time>2019-04-25T14:47:00.000Z</time>
      </trkpt>
      <trkpt lat="39.05324212275445461273193359375" lon="-7.6457864977419376373291015625">
        <ele>249.399993896484375</ele>
        <time>2019-04-25T14:47:16.000Z</time>
      </trkpt>
      <trkpt lat="39.053707234561443328857421875" lon="-7.64617198146879673004150390625">
        <ele>251.399993896484375</ele>
        <time>2019-04-25T14:47:33.000Z</time>
      </trkpt>
      <trkpt lat="39.0538643114268779754638671875" lon="-7.64627851545810699462890625">
        <ele>251.8000030517578125</ele>
        <time>2019-04-25T14:47:39.000Z</time>
      </trkpt>
      <trkpt lat="39.053926169872283935546875" lon="-7.6461656950414180755615234375">
        <ele>252.399993896484375</ele>
        <time>2019-04-25T14:47:43.000Z</time>
      </trkpt>
      <trkpt lat="39.05415608547627925872802734375" lon="-7.6457834802567958831787109375">
        <ele>254.399993896484375</ele>
        <time>2019-04-25T14:47:58.000Z</time>
      </trkpt>
      <trkpt lat="39.054400585591793060302734375" lon="-7.6455085538327693939208984375">
        <ele>254.1999969482421875</ele>
        <time>2019-04-25T14:48:12.000Z</time>
      </trkpt>
      <trkpt lat="39.0547563135623931884765625" lon="-7.64497454278171062469482421875">
        <ele>250.8000030517578125</ele>
        <time>2019-04-25T14:48:27.000Z</time>
      </trkpt>
      <trkpt lat="39.05506066046655178070068359375" lon="-7.6444311439990997314453125">
        <ele>244.8000030517578125</ele>
        <time>2019-04-25T14:48:36.000Z</time>
      </trkpt>
      <trkpt lat="39.0550969541072845458984375" lon="-7.6442915014922618865966796875">
        <ele>243.600006103515625</ele>
        <time>2019-04-25T14:48:38.000Z</time>
      </trkpt>
      <trkpt lat="39.05499075539410114288330078125" lon="-7.6438036747276782989501953125">
        <ele>241.8000030517578125</ele>
        <time>2019-04-25T14:48:49.000Z</time>
      </trkpt>
      <trkpt lat="39.05508446507155895233154296875" lon="-7.6439268887042999267578125">
        <ele>241.8000030517578125</ele>
        <time>2019-04-25T14:48:57.000Z</time>
      </trkpt>
      <trkpt lat="39.0550904162228107452392578125" lon="-7.6440346799790859222412109375">
        <ele>242.1999969482421875</ele>
        <time>2019-04-25T14:49:01.000Z</time>
      </trkpt>
      <trkpt lat="39.05507759191095829010009765625" lon="-7.64408606104552745819091796875">
        <ele>242.399993896484375</ele>
        <time>2019-04-25T14:49:06.000Z</time>
      </trkpt>
      <trkpt lat="39.0550900809466838836669921875" lon="-7.6441231928765773773193359375">
        <ele>242.600006103515625</ele>
        <time>2019-04-25T14:49:34.000Z</time>
      </trkpt>
      <trkpt lat="39.05516828410327434539794921875" lon="-7.64419988729059696197509765625">
        <ele>242.600006103515625</ele>
        <time>2019-04-25T14:49:38.000Z</time>
      </trkpt>
      <trkpt lat="39.0553244389593601226806640625" lon="-7.64423525892198085784912109375">
        <ele>242.1999969482421875</ele>
        <time>2019-04-25T14:49:42.000Z</time>
      </trkpt>
      <trkpt lat="39.0555034764111042022705078125" lon="-7.64408773742616176605224609375">
        <ele>241.1999969482421875</ele>
        <time>2019-04-25T14:49:46.000Z</time>
      </trkpt>
      <trkpt lat="39.05555435456335544586181640625" lon="-7.64405370689928531646728515625">
        <ele>241</ele>
        <time>2019-04-25T14:49:47.000Z</time>
      </trkpt>
      <trkpt lat="39.05609481967985630035400390625" lon="-7.64383007772266864776611328125">
        <ele>239</ele>
        <time>2019-04-25T14:49:56.000Z</time>
      </trkpt>
      <trkpt lat="39.05666562728583812713623046875" lon="-7.6435609348118305206298828125">
        <ele>238.399993896484375</ele>
        <time>2019-04-25T14:50:05.000Z</time>
      </trkpt>
      <trkpt lat="39.05722302384674549102783203125" lon="-7.64326329343020915985107421875">
        <ele>237.399993896484375</ele>
        <time>2019-04-25T14:50:14.000Z</time>
      </trkpt>
      <trkpt lat="39.0577523410320281982421875" lon="-7.64298920519649982452392578125">
        <ele>236.1999969482421875</ele>
        <time>2019-04-25T14:50:22.000Z</time>
      </trkpt>
      <trkpt lat="39.05825165100395679473876953125" lon="-7.6426744647324085235595703125">
        <ele>236</ele>
        <time>2019-04-25T14:50:30.000Z</time>
      </trkpt>
      <trkpt lat="39.0587580017745494842529296875" lon="-7.64232569374144077301025390625">
        <ele>236.399993896484375</ele>
        <time>2019-04-25T14:50:39.000Z</time>
      </trkpt>
      <trkpt lat="39.05885942280292510986328125" lon="-7.64227003790438175201416015625">
        <ele>236.600006103515625</ele>
        <time>2019-04-25T14:50:41.000Z</time>
      </trkpt>
      <trkpt lat="39.0590738318860530853271484375" lon="-7.6422282122075557708740234375">
        <ele>237.1999969482421875</ele>
        <time>2019-04-25T14:50:45.000Z</time>
      </trkpt>
      <trkpt lat="39.0596488304436206817626953125" lon="-7.64222762547433376312255859375">
        <ele>238.1999969482421875</ele>
        <time>2019-04-25T14:50:57.000Z</time>
      </trkpt>
      <trkpt lat="39.0602295286953449249267578125" lon="-7.64221421442925930023193359375">
        <ele>239</ele>
        <time>2019-04-25T14:51:09.000Z</time>
      </trkpt>
      <trkpt lat="39.060339666903018951416015625" lon="-7.6421923376619815826416015625">
        <ele>239</ele>
        <time>2019-04-25T14:51:11.000Z</time>
      </trkpt>
      <trkpt lat="39.06090460717678070068359375" lon="-7.6419635117053985595703125">
        <ele>239.600006103515625</ele>
        <time>2019-04-25T14:51:20.000Z</time>
      </trkpt>
      <trkpt lat="39.06122135929763317108154296875" lon="-7.64183199964463710784912109375">
        <ele>238.8000030517578125</ele>
        <time>2019-04-25T14:51:24.000Z</time>
      </trkpt>
      <trkpt lat="39.06177640892565250396728515625" lon="-7.6417569816112518310546875">
        <ele>235</ele>
        <time>2019-04-25T14:51:30.000Z</time>
      </trkpt>
      <trkpt lat="39.06234906055033206939697265625" lon="-7.641641981899738311767578125">
        <ele>232</ele>
        <time>2019-04-25T14:51:36.000Z</time>
      </trkpt>
      <trkpt lat="39.0627213008701801300048828125" lon="-7.6416357792913913726806640625">
        <ele>230.1999969482421875</ele>
        <time>2019-04-25T14:51:40.000Z</time>
      </trkpt>
      <trkpt lat="39.06326302327215671539306640625" lon="-7.64186200685799121856689453125">
        <ele>227.600006103515625</ele>
        <time>2019-04-25T14:51:46.000Z</time>
      </trkpt>
      <trkpt lat="39.06372033990919589996337890625" lon="-7.6420179940760135650634765625">
        <ele>225</ele>
        <time>2019-04-25T14:51:51.000Z</time>
      </trkpt>
      <trkpt lat="39.0643483959138393402099609375" lon="-7.64196225441992282867431640625">
        <ele>221.600006103515625</ele>
        <time>2019-04-25T14:51:58.000Z</time>
      </trkpt>
      <trkpt lat="39.06452558934688568115234375" lon="-7.64188329689204692840576171875">
        <ele>220.600006103515625</ele>
        <time>2019-04-25T14:52:00.000Z</time>
      </trkpt>
      <trkpt lat="39.06504618935286998748779296875" lon="-7.6415016688406467437744140625">
        <ele>217.8000030517578125</ele>
        <time>2019-04-25T14:52:07.000Z</time>
      </trkpt>
      <trkpt lat="39.065536446869373321533203125" lon="-7.64112104661762714385986328125">
        <ele>214.600006103515625</ele>
        <time>2019-04-25T14:52:14.000Z</time>
      </trkpt>
      <trkpt lat="39.0660779178142547607421875" lon="-7.6408163644373416900634765625">
        <ele>210.8000030517578125</ele>
        <time>2019-04-25T14:52:21.000Z</time>
      </trkpt>
      <trkpt lat="39.0666436962783336639404296875" lon="-7.6405987702310085296630859375">
        <ele>209.399993896484375</ele>
        <time>2019-04-25T14:52:29.000Z</time>
      </trkpt>
      <trkpt lat="39.06676900573074817657470703125" lon="-7.64051486738026142120361328125">
        <ele>209</ele>
        <time>2019-04-25T14:52:31.000Z</time>
      </trkpt>
      <trkpt lat="39.06698995269834995269775390625" lon="-7.640056125819683074951171875">
        <ele>205.399993896484375</ele>
        <time>2019-04-25T14:52:36.000Z</time>
      </trkpt>
      <trkpt lat="39.06729270704090595245361328125" lon="-7.63939454220235347747802734375">
        <ele>201.8000030517578125</ele>
        <time>2019-04-25T14:52:42.000Z</time>
      </trkpt>
      <trkpt lat="39.06760836951434612274169921875" lon="-7.63897611759603023529052734375">
        <ele>199.399993896484375</ele>
        <time>2019-04-25T14:52:46.000Z</time>
      </trkpt>
      <trkpt lat="39.0681383572518825531005859375" lon="-7.6386598683893680572509765625">
        <ele>194.8000030517578125</ele>
        <time>2019-04-25T14:52:51.000Z</time>
      </trkpt>
      <trkpt lat="39.06864252872765064239501953125" lon="-7.638376057147979736328125">
        <ele>190.1999969482421875</ele>
        <time>2019-04-25T14:52:56.000Z</time>
      </trkpt>
      <trkpt lat="39.06918500550091266632080078125" lon="-7.63808310963213443756103515625">
        <ele>189.600006103515625</ele>
        <time>2019-04-25T14:53:02.000Z</time>
      </trkpt>
      <trkpt lat="39.0692836605012416839599609375" lon="-7.638045139610767364501953125">
        <ele>189.600006103515625</ele>
        <time>2019-04-25T14:53:03.000Z</time>
      </trkpt>
      <trkpt lat="39.06985907815396785736083984375" lon="-7.6378629170358180999755859375">
        <ele>186.8000030517578125</ele>
        <time>2019-04-25T14:53:09.000Z</time>
      </trkpt>
      <trkpt lat="39.07040474005043506622314453125" lon="-7.63768413104116916656494140625">
        <ele>184</ele>
        <time>2019-04-25T14:53:15.000Z</time>
      </trkpt>
      <trkpt lat="39.0704973600804805755615234375" lon="-7.63766552321612834930419921875">
        <ele>183.600006103515625</ele>
        <time>2019-04-25T14:53:16.000Z</time>
      </trkpt>
      <trkpt lat="39.07110731117427349090576171875" lon="-7.63763451017439365386962890625">
        <ele>182</ele>
        <time>2019-04-25T14:53:23.000Z</time>
      </trkpt>
      <trkpt lat="39.07143269665539264678955078125" lon="-7.6376486755907535552978515625">
        <ele>181.1999969482421875</ele>
        <time>2019-04-25T14:53:27.000Z</time>
      </trkpt>
      <trkpt lat="39.07201507128775119781494140625" lon="-7.63779007829725742340087890625">
        <ele>180.600006103515625</ele>
        <time>2019-04-25T14:53:34.000Z</time>
      </trkpt>
      <trkpt lat="39.07210526056587696075439453125" lon="-7.63778571970760822296142578125">
        <ele>180</ele>
        <time>2019-04-25T14:53:35.000Z</time>
      </trkpt>
      <trkpt lat="39.07246115617454051971435546875" lon="-7.637592516839504241943359375">
        <ele>175.8000030517578125</ele>
        <time>2019-04-25T14:53:39.000Z</time>
      </trkpt>
      <trkpt lat="39.0728094242513179779052734375" lon="-7.63696513138711452484130859375">
        <ele>172.8000030517578125</ele>
        <time>2019-04-25T14:53:47.000Z</time>
      </trkpt>
      <trkpt lat="39.07315199263393878936767578125" lon="-7.63636372983455657958984375">
        <ele>172.399993896484375</ele>
        <time>2019-04-25T14:53:56.000Z</time>
      </trkpt>
      <trkpt lat="39.07349782995879650115966796875" lon="-7.63575579039752483367919921875">
        <ele>172</ele>
        <time>2019-04-25T14:54:04.000Z</time>
      </trkpt>
      <trkpt lat="39.073552228510379791259765625" lon="-7.63557960279285907745361328125">
        <ele>172.1999969482421875</ele>
        <time>2019-04-25T14:54:06.000Z</time>
      </trkpt>
      <trkpt lat="39.073411412537097930908203125" lon="-7.634849287569522857666015625">
        <ele>172.8000030517578125</ele>
        <time>2019-04-25T14:54:15.000Z</time>
      </trkpt>
      <trkpt lat="39.0732342191040515899658203125" lon="-7.6341356523334980010986328125">
        <ele>173.399993896484375</ele>
        <time>2019-04-25T14:54:26.000Z</time>
      </trkpt>
      <trkpt lat="39.07314059324562549591064453125" lon="-7.6334823668003082275390625">
        <ele>172.8000030517578125</ele>
        <time>2019-04-25T14:54:35.000Z</time>
      </trkpt>
      <trkpt lat="39.0731750428676605224609375" lon="-7.63324566185474395751953125">
        <ele>173</ele>
        <time>2019-04-25T14:54:38.000Z</time>
      </trkpt>
      <trkpt lat="39.07336170785129070281982421875" lon="-7.63255088590085506439208984375">
        <ele>174.399993896484375</ele>
        <time>2019-04-25T14:54:48.000Z</time>
      </trkpt>
      <trkpt lat="39.073478467762470245361328125" lon="-7.63223488815128803253173828125">
        <ele>175.1999969482421875</ele>
        <time>2019-04-25T14:54:54.000Z</time>
      </trkpt>
      <trkpt lat="39.07362238503992557525634765625" lon="-7.63201712630689144134521484375">
        <ele>176</ele>
        <time>2019-04-25T14:54:59.000Z</time>
      </trkpt>
      <trkpt lat="39.07394072972238063812255859375" lon="-7.631572969257831573486328125">
        <ele>178.1999969482421875</ele>
        <time>2019-04-25T14:55:09.000Z</time>
      </trkpt>
      <trkpt lat="39.0743101201951503753662109375" lon="-7.63105588965117931365966796875">
        <ele>183.8000030517578125</ele>
        <time>2019-04-25T14:55:25.000Z</time>
      </trkpt>
      <trkpt lat="39.074670039117336273193359375" lon="-7.63053931295871734619140625">
        <ele>186.8000030517578125</ele>
        <time>2019-04-25T14:55:43.000Z</time>
      </trkpt>
      <trkpt lat="39.07504387199878692626953125" lon="-7.63001762330532073974609375">
        <ele>188.399993896484375</ele>
        <time>2019-04-25T14:56:01.000Z</time>
      </trkpt>
      <trkpt lat="39.0754302777349948883056640625" lon="-7.629483528435230255126953125">
        <ele>189.600006103515625</ele>
        <time>2019-04-25T14:56:20.000Z</time>
      </trkpt>
      <trkpt lat="39.075775109231472015380859375" lon="-7.6289358548820018768310546875">
        <ele>191.1999969482421875</ele>
        <time>2019-04-25T14:56:36.000Z</time>
      </trkpt>
      <trkpt lat="39.07592003233730792999267578125" lon="-7.62840067036449909210205078125">
        <ele>190.399993896484375</ele>
        <time>2019-04-25T14:56:45.000Z</time>
      </trkpt>
      <trkpt lat="39.0759932063519954681396484375" lon="-7.6276393420994281768798828125">
        <ele>188</ele>
        <time>2019-04-25T14:56:53.000Z</time>
      </trkpt>
      <trkpt lat="39.0760622732341289520263671875" lon="-7.626889832317829132080078125">
        <ele>191</ele>
        <time>2019-04-25T14:57:02.000Z</time>
      </trkpt>
      <trkpt lat="39.07611466012895107269287109375" lon="-7.62619187124073505401611328125">
        <ele>192.600006103515625</ele>
        <time>2019-04-25T14:57:16.000Z</time>
      </trkpt>
      <trkpt lat="39.0760538913309574127197265625" lon="-7.62544403783977031707763671875">
        <ele>191.600006103515625</ele>
        <time>2019-04-25T14:57:29.000Z</time>
      </trkpt>
      <trkpt lat="39.075945429503917694091796875" lon="-7.62474867515265941619873046875">
        <ele>189.8000030517578125</ele>
        <time>2019-04-25T14:57:37.000Z</time>
      </trkpt>
      <trkpt lat="39.0758349560201168060302734375" lon="-7.62399338185787200927734375">
        <ele>187.600006103515625</ele>
        <time>2019-04-25T14:57:46.000Z</time>
      </trkpt>
      <trkpt lat="39.0757296793162822723388671875" lon="-7.62325401417911052703857421875">
        <ele>186.8000030517578125</ele>
        <time>2019-04-25T14:57:55.000Z</time>
      </trkpt>
      <trkpt lat="39.07561174593865871429443359375" lon="-7.62250316329300403594970703125">
        <ele>190</ele>
        <time>2019-04-25T14:58:04.000Z</time>
      </trkpt>
      <trkpt lat="39.075507558882236480712890625" lon="-7.6217411644756793975830078125">
        <ele>190.8000030517578125</ele>
        <time>2019-04-25T14:58:14.000Z</time>
      </trkpt>
      <trkpt lat="39.07540194690227508544921875" lon="-7.62104001827538013458251953125">
        <ele>187.1999969482421875</ele>
        <time>2019-04-25T14:58:21.000Z</time>
      </trkpt>
      <trkpt lat="39.0752975083887577056884765625" lon="-7.62035152874886989593505859375">
        <ele>183.8000030517578125</ele>
        <time>2019-04-25T14:58:27.000Z</time>
      </trkpt>
      <trkpt lat="39.075191058218479156494140625" lon="-7.61962431482970714569091796875">
        <ele>181.399993896484375</ele>
        <time>2019-04-25T14:58:33.000Z</time>
      </trkpt>
      <trkpt lat="39.07509089447557926177978515625" lon="-7.6189191453158855438232421875">
        <ele>180</ele>
        <time>2019-04-25T14:58:39.000Z</time>
      </trkpt>
      <trkpt lat="39.07497824169695377349853515625" lon="-7.61817726306617259979248046875">
        <ele>178.8000030517578125</ele>
        <time>2019-04-25T14:58:46.000Z</time>
      </trkpt>
      <trkpt lat="39.07487221062183380126953125" lon="-7.6174258254468441009521484375">
        <ele>179</ele>
        <time>2019-04-25T14:58:53.000Z</time>
      </trkpt>
      <trkpt lat="39.074765928089618682861328125" lon="-7.61665754020214080810546875">
        <ele>181.8000030517578125</ele>
        <time>2019-04-25T14:59:00.000Z</time>
      </trkpt>
      <trkpt lat="39.07474220730364322662353515625" lon="-7.61640080250799655914306640625">
        <ele>182</ele>
        <time>2019-04-25T14:59:03.000Z</time>
      </trkpt>
      <trkpt lat="39.07486894167959690093994140625" lon="-7.6159613393247127532958984375">
        <ele>182.600006103515625</ele>
        <time>2019-04-25T14:59:11.000Z</time>
      </trkpt>
      <trkpt lat="39.07492225058376789093017578125" lon="-7.61588011868298053741455078125">
        <ele>182.8000030517578125</ele>
        <time>2019-04-25T14:59:13.000Z</time>
      </trkpt>
      <trkpt lat="39.07514177262783050537109375" lon="-7.61569990776479244232177734375">
        <ele>183.399993896484375</ele>
        <time>2019-04-25T14:59:19.000Z</time>
      </trkpt>
      <trkpt lat="39.07567729242146015167236328125" lon="-7.61542984284460544586181640625">
        <ele>184</ele>
        <time>2019-04-25T14:59:31.000Z</time>
      </trkpt>
      <trkpt lat="39.0758916176855564117431640625" lon="-7.61533479206264019012451171875">
        <ele>183.8000030517578125</ele>
        <time>2019-04-25T14:59:36.000Z</time>
      </trkpt>
      <trkpt lat="39.07601072452962398529052734375" lon="-7.61534057557582855224609375">
        <ele>183.8000030517578125</ele>
        <time>2019-04-25T14:59:41.000Z</time>
      </trkpt>
      <trkpt lat="39.07603017054498195648193359375" lon="-7.61532582342624664306640625">
        <ele>183.8000030517578125</ele>
        <time>2019-04-25T15:00:30.000Z</time>
      </trkpt>
      <trkpt lat="39.0762074477970600128173828125" lon="-7.6151777990162372589111328125">
        <ele>184.399993896484375</ele>
        <time>2019-04-25T15:00:38.000Z</time>
      </trkpt>
      <trkpt lat="39.07673307694494724273681640625" lon="-7.61491234414279460906982421875">
        <ele>187.600006103515625</ele>
        <time>2019-04-25T15:00:54.000Z</time>
      </trkpt>
      <trkpt lat="39.07726298086345195770263671875" lon="-7.6146490685641765594482421875">
        <ele>190.600006103515625</ele>
        <time>2019-04-25T15:01:09.000Z</time>
      </trkpt>
      <trkpt lat="39.07745693810284137725830078125" lon="-7.6145545206964015960693359375">
        <ele>191.399993896484375</ele>
        <time>2019-04-25T15:01:14.000Z</time>
      </trkpt>
      <trkpt lat="39.07798868604004383087158203125" lon="-7.61429023928940296173095703125">
        <ele>192.600006103515625</ele>
        <time>2019-04-25T15:01:28.000Z</time>
      </trkpt>
      <trkpt lat="39.07851330935955047607421875" lon="-7.6140331663191318511962890625">
        <ele>192.399993896484375</ele>
        <time>2019-04-25T15:01:41.000Z</time>
      </trkpt>
      <trkpt lat="39.079050086438655853271484375" lon="-7.61376905255019664764404296875">
        <ele>195</ele>
        <time>2019-04-25T15:01:55.000Z</time>
      </trkpt>
      <trkpt lat="39.07924412749707698822021484375" lon="-7.61366746388375759124755859375">
        <ele>196.1999969482421875</ele>
        <time>2019-04-25T15:02:00.000Z</time>
      </trkpt>
      <trkpt lat="39.07971938140690326690673828125" lon="-7.6133041083812713623046875">
        <ele>198.1999969482421875</ele>
        <time>2019-04-25T15:02:15.000Z</time>
      </trkpt>
      <trkpt lat="39.0801640413701534271240234375" lon="-7.6128918863832950592041015625">
        <ele>199.1999969482421875</ele>
        <time>2019-04-25T15:02:33.000Z</time>
      </trkpt>
      <trkpt lat="39.08062445931136608123779296875" lon="-7.612471617758274078369140625">
        <ele>201.1999969482421875</ele>
        <time>2019-04-25T15:02:51.000Z</time>
      </trkpt>
      <trkpt lat="39.08108823001384735107421875" lon="-7.612037099897861480712890625">
        <ele>203.8000030517578125</ele>
        <time>2019-04-25T15:03:05.000Z</time>
      </trkpt>
      <trkpt lat="39.081535153090953826904296875" lon="-7.6116384565830230712890625">
        <ele>205</ele>
        <time>2019-04-25T15:03:18.000Z</time>
      </trkpt>
      <trkpt lat="39.081967659294605255126953125" lon="-7.61116613633930683135986328125">
        <ele>205.1999969482421875</ele>
        <time>2019-04-25T15:03:33.000Z</time>
      </trkpt>
      <trkpt lat="39.082343839108943939208984375" lon="-7.6106468774378299713134765625">
        <ele>206.1999969482421875</ele>
        <time>2019-04-25T15:03:47.000Z</time>
      </trkpt>
      <trkpt lat="39.0827290713787078857421875" lon="-7.610115297138690948486328125">
        <ele>207.600006103515625</ele>
        <time>2019-04-25T15:04:01.000Z</time>
      </trkpt>
      <trkpt lat="39.0831101126968860626220703125" lon="-7.60960073210299015045166015625">
        <ele>209.1999969482421875</ele>
        <time>2019-04-25T15:04:19.000Z</time>
      </trkpt>
      <trkpt lat="39.08348319120705127716064453125" lon="-7.60905004106462001800537109375">
        <ele>210.600006103515625</ele>
        <time>2019-04-25T15:04:33.000Z</time>
      </trkpt>
      <trkpt lat="39.08387102186679840087890625" lon="-7.6085208915174007415771484375">
        <ele>213.1999969482421875</ele>
        <time>2019-04-25T15:04:49.000Z</time>
      </trkpt>
      <trkpt lat="39.08425952307879924774169921875" lon="-7.607990317046642303466796875">
        <ele>216.1999969482421875</ele>
        <time>2019-04-25T15:05:07.000Z</time>
      </trkpt>
      <trkpt lat="39.08467006869614124298095703125" lon="-7.6075267978012561798095703125">
        <ele>218.1999969482421875</ele>
        <time>2019-04-25T15:05:24.000Z</time>
      </trkpt>
      <trkpt lat="39.0851013176143169403076171875" lon="-7.60703980922698974609375">
        <ele>217.399993896484375</ele>
        <time>2019-04-25T15:05:39.000Z</time>
      </trkpt>
      <trkpt lat="39.0855214186012744903564453125" lon="-7.6065645553171634674072265625">
        <ele>217</ele>
        <time>2019-04-25T15:05:59.000Z</time>
      </trkpt>
      <trkpt lat="39.0859455429017543792724609375" lon="-7.60609365999698638916015625">
        <ele>217.1999969482421875</ele>
        <time>2019-04-25T15:06:19.000Z</time>
      </trkpt>
      <trkpt lat="39.08638215623795986175537109375" lon="-7.60562653653323650360107421875">
        <ele>218.8000030517578125</ele>
        <time>2019-04-25T15:06:38.000Z</time>
      </trkpt>
      <trkpt lat="39.0867864154279232025146484375" lon="-7.605163268744945526123046875">
        <ele>221.1999969482421875</ele>
        <time>2019-04-25T15:06:55.000Z</time>
      </trkpt>
      <trkpt lat="39.08721431158483028411865234375" lon="-7.60468390770256519317626953125">
        <ele>224.600006103515625</ele>
        <time>2019-04-25T15:07:12.000Z</time>
      </trkpt>
      <trkpt lat="39.08764497376978397369384765625" lon="-7.60420496575534343719482421875">
        <ele>228.600006103515625</ele>
        <time>2019-04-25T15:07:29.000Z</time>
      </trkpt>
      <trkpt lat="39.0880772285163402557373046875" lon="-7.6037351600825786590576171875">
        <ele>227.399993896484375</ele>
        <time>2019-04-25T15:07:44.000Z</time>
      </trkpt>
      <trkpt lat="39.08852188847959041595458984375" lon="-7.60329670272767543792724609375">
        <ele>226.399993896484375</ele>
        <time>2019-04-25T15:07:59.000Z</time>
      </trkpt>
      <trkpt lat="39.08902832306921482086181640625" lon="-7.60300115682184696197509765625">
        <ele>226</ele>
        <time>2019-04-25T15:08:10.000Z</time>
      </trkpt>
      <trkpt lat="39.08954699523746967315673828125" lon="-7.6027088798582553863525390625">
        <ele>225.600006103515625</ele>
        <time>2019-04-25T15:08:21.000Z</time>
      </trkpt>
      <trkpt lat="39.090059213340282440185546875" lon="-7.60242213495075702667236328125">
        <ele>226.1999969482421875</ele>
        <time>2019-04-25T15:08:32.000Z</time>
      </trkpt>
      <trkpt lat="39.09056673757731914520263671875" lon="-7.60213949717581272125244140625">
        <ele>226.8000030517578125</ele>
        <time>2019-04-25T15:08:43.000Z</time>
      </trkpt>
      <trkpt lat="39.09061283804476261138916015625" lon="-7.60211460292339324951171875">
        <ele>226.8000030517578125</ele>
        <time>2019-04-25T15:08:44.000Z</time>
      </trkpt>
      <trkpt lat="39.091109968721866607666015625" lon="-7.6018421910703182220458984375">
        <ele>227.399993896484375</ele>
        <time>2019-04-25T15:08:57.000Z</time>
      </trkpt>
      <trkpt lat="39.09162637777626514434814453125" lon="-7.60154664516448974609375">
        <ele>230.8000030517578125</ele>
        <time>2019-04-25T15:09:15.000Z</time>
      </trkpt>
      <trkpt lat="39.09212342463433742523193359375" lon="-7.60127096436917781829833984375">
        <ele>234.399993896484375</ele>
        <time>2019-04-25T15:09:40.000Z</time>
      </trkpt>
      <trkpt lat="39.09263807348906993865966796875" lon="-7.60097743012011051177978515625">
        <ele>238</ele>
        <time>2019-04-25T15:10:02.000Z</time>
      </trkpt>
      <trkpt lat="39.0931455977261066436767578125" lon="-7.60070082731544971466064453125">
        <ele>240.8000030517578125</ele>
        <time>2019-04-25T15:10:18.000Z</time>
      </trkpt>
      <trkpt lat="39.0936652757227420806884765625" lon="-7.600410394370555877685546875">
        <ele>242.8000030517578125</ele>
        <time>2019-04-25T15:10:33.000Z</time>
      </trkpt>
      <trkpt lat="39.09418813884258270263671875" lon="-7.60013370774686336517333984375">
        <ele>241.600006103515625</ele>
        <time>2019-04-25T15:10:47.000Z</time>
      </trkpt>
      <trkpt lat="39.0942369215190410614013671875" lon="-7.60010018013417720794677734375">
        <ele>241.399993896484375</ele>
        <time>2019-04-25T15:10:48.000Z</time>
      </trkpt>
      <trkpt lat="39.09474561922252178192138671875" lon="-7.5998125970363616943359375">
        <ele>238</ele>
        <time>2019-04-25T15:10:56.000Z</time>
      </trkpt>
      <trkpt lat="39.09531894139945507049560546875" lon="-7.59949207305908203125">
        <ele>232.600006103515625</ele>
        <time>2019-04-25T15:11:03.000Z</time>
      </trkpt>
      <trkpt lat="39.09588857553899288177490234375" lon="-7.59918018244206905364990234375">
        <ele>226</ele>
        <time>2019-04-25T15:11:09.000Z</time>
      </trkpt>
      <trkpt lat="39.0964058227837085723876953125" lon="-7.59889838285744190216064453125">
        <ele>221.8000030517578125</ele>
        <time>2019-04-25T15:11:14.000Z</time>
      </trkpt>
      <trkpt lat="39.09691938199102878570556640625" lon="-7.59861968457698822021484375">
        <ele>218.8000030517578125</ele>
        <time>2019-04-25T15:11:19.000Z</time>
      </trkpt>
      <trkpt lat="39.0974780358374118804931640625" lon="-7.598305530846118927001953125">
        <ele>216</ele>
        <time>2019-04-25T15:11:25.000Z</time>
      </trkpt>
      <trkpt lat="39.09801053814589977264404296875" lon="-7.598007805645465850830078125">
        <ele>215.8000030517578125</ele>
        <time>2019-04-25T15:11:32.000Z</time>
      </trkpt>
      <trkpt lat="39.098535664379596710205078125" lon="-7.59771066717803478240966796875">
        <ele>217.399993896484375</ele>
        <time>2019-04-25T15:11:41.000Z</time>
      </trkpt>
      <trkpt lat="39.09906045533716678619384765625" lon="-7.5974245928227901458740234375">
        <ele>218.8000030517578125</ele>
        <time>2019-04-25T15:11:51.000Z</time>
      </trkpt>
      <trkpt lat="39.09956521354615688323974609375" lon="-7.59712661616504192352294921875">
        <ele>220.1999969482421875</ele>
        <time>2019-04-25T15:12:02.000Z</time>
      </trkpt>
      <trkpt lat="39.100086987018585205078125" lon="-7.5968358479440212249755859375">
        <ele>222.1999969482421875</ele>
        <time>2019-04-25T15:12:14.000Z</time>
      </trkpt>
      <trkpt lat="39.100267700850963592529296875" lon="-7.59674222208559513092041015625">
        <ele>223</ele>
        <time>2019-04-25T15:12:18.000Z</time>
      </trkpt>
      <trkpt lat="39.1007660888135433197021484375" lon="-7.59646126069128513336181640625">
        <ele>221.8000030517578125</ele>
        <time>2019-04-25T15:12:31.000Z</time>
      </trkpt>
      <trkpt lat="39.10126573406159877777099609375" lon="-7.596173174679279327392578125">
        <ele>221</ele>
        <time>2019-04-25T15:12:43.000Z</time>
      </trkpt>
      <trkpt lat="39.10176512785255908966064453125" lon="-7.59589062072336673736572265625">
        <ele>220.8000030517578125</ele>
        <time>2019-04-25T15:12:53.000Z</time>
      </trkpt>
      <trkpt lat="39.102292768657207489013671875" lon="-7.59559071622788906097412109375">
        <ele>222.399993896484375</ele>
        <time>2019-04-25T15:13:04.000Z</time>
      </trkpt>
      <trkpt lat="39.102806746959686279296875" lon="-7.59529533796012401580810546875">
        <ele>224.600006103515625</ele>
        <time>2019-04-25T15:13:17.000Z</time>
      </trkpt>
      <trkpt lat="39.1033115051686763763427734375" lon="-7.595015801489353179931640625">
        <ele>227.600006103515625</ele>
        <time>2019-04-25T15:13:35.000Z</time>
      </trkpt>
      <trkpt lat="39.1036846674978733062744140625" lon="-7.594808600842952728271484375">
        <ele>230.1999969482421875</ele>
        <time>2019-04-25T15:13:54.000Z</time>
      </trkpt>
      <trkpt lat="39.10376085899770259857177734375" lon="-7.59476576931774616241455078125">
        <ele>230.600006103515625</ele>
        <time>2019-04-25T15:13:58.000Z</time>
      </trkpt>
      <trkpt lat="39.104274921119213104248046875" lon="-7.594483382999897003173828125">
        <ele>234.1999969482421875</ele>
        <time>2019-04-25T15:14:25.000Z</time>
      </trkpt>
      <trkpt lat="39.10477037541568279266357421875" lon="-7.59419512934982776641845703125">
        <ele>236.8000030517578125</ele>
        <time>2019-04-25T15:14:48.000Z</time>
      </trkpt>
      <trkpt lat="39.105272702872753143310546875" lon="-7.5939036905765533447265625">
        <ele>237</ele>
        <time>2019-04-25T15:15:06.000Z</time>
      </trkpt>
      <trkpt lat="39.105823896825313568115234375" lon="-7.59358693845570087432861328125">
        <ele>233.8000030517578125</ele>
        <time>2019-04-25T15:15:16.000Z</time>
      </trkpt>
      <trkpt lat="39.10631532780826091766357421875" lon="-7.5932976789772510528564453125">
        <ele>231.8000030517578125</ele>
        <time>2019-04-25T15:15:23.000Z</time>
      </trkpt>
      <trkpt lat="39.1068533621728420257568359375" lon="-7.59297765791416168212890625">
        <ele>232</ele>
        <time>2019-04-25T15:15:31.000Z</time>
      </trkpt>
      <trkpt lat="39.1070132888853549957275390625" lon="-7.59287095628678798675537109375">
        <ele>232.1999969482421875</ele>
        <time>2019-04-25T15:15:34.000Z</time>
      </trkpt>
      <trkpt lat="39.10746029578149318695068359375" lon="-7.5924472510814666748046875">
        <ele>234</ele>
        <time>2019-04-25T15:15:49.000Z</time>
      </trkpt>
      <trkpt lat="39.10787670873105525970458984375" lon="-7.5919998250901699066162109375">
        <ele>234.1999969482421875</ele>
        <time>2019-04-25T15:16:06.000Z</time>
      </trkpt>
      <trkpt lat="39.1079064644873142242431640625" lon="-7.591963112354278564453125">
        <ele>234.1999969482421875</ele>
        <time>2019-04-25T15:16:07.000Z</time>
      </trkpt>
      <trkpt lat="39.10796656273305416107177734375" lon="-7.5918915309011936187744140625">
        <ele>234</ele>
        <time>2019-04-25T15:16:09.000Z</time>
      </trkpt>
      <trkpt lat="39.10840652883052825927734375" lon="-7.5914167799055576324462890625">
        <ele>234</ele>
        <time>2019-04-25T15:16:23.000Z</time>
      </trkpt>
      <trkpt lat="39.10884582437574863433837890625" lon="-7.59097672998905181884765625">
        <ele>234.600006103515625</ele>
        <time>2019-04-25T15:16:37.000Z</time>
      </trkpt>
      <trkpt lat="39.1092529334127902984619140625" lon="-7.590467445552349090576171875">
        <ele>235.399993896484375</ele>
        <time>2019-04-25T15:16:54.000Z</time>
      </trkpt>
      <trkpt lat="39.109737575054168701171875" lon="-7.59022914804518222808837890625">
        <ele>235.1999969482421875</ele>
        <time>2019-04-25T15:17:09.000Z</time>
      </trkpt>
      <trkpt lat="39.11031701602041721343994140625" lon="-7.590243481099605560302734375">
        <ele>234.1999969482421875</ele>
        <time>2019-04-25T15:17:23.000Z</time>
      </trkpt>
      <trkpt lat="39.110562689602375030517578125" lon="-7.59020517580211162567138671875">
        <ele>232.8000030517578125</ele>
        <time>2019-04-25T15:17:27.000Z</time>
      </trkpt>
      <trkpt lat="39.1110731475055217742919921875" lon="-7.58996394462883472442626953125">
        <ele>230</ele>
        <time>2019-04-25T15:17:34.000Z</time>
      </trkpt>
      <trkpt lat="39.11153876222670078277587890625" lon="-7.58961089886724948883056640625">
        <ele>227.399993896484375</ele>
        <time>2019-04-25T15:17:40.000Z</time>
      </trkpt>
      <trkpt lat="39.1120129264891147613525390625" lon="-7.5892462022602558135986328125">
        <ele>225</ele>
        <time>2019-04-25T15:17:47.000Z</time>
      </trkpt>
      <trkpt lat="39.11252246238291263580322265625" lon="-7.58885166607797145843505859375">
        <ele>227.600006103515625</ele>
        <time>2019-04-25T15:17:57.000Z</time>
      </trkpt>
      <trkpt lat="39.11301280371844768524169921875" lon="-7.58852326311171054840087890625">
        <ele>229.399993896484375</ele>
        <time>2019-04-25T15:18:08.000Z</time>
      </trkpt>
      <trkpt lat="39.11355477757751941680908203125" lon="-7.5882943533360958099365234375">
        <ele>229.1999969482421875</ele>
        <time>2019-04-25T15:18:20.000Z</time>
      </trkpt>
      <trkpt lat="39.11410949192941188812255859375" lon="-7.58807315491139888763427734375">
        <ele>228.1999969482421875</ele>
        <time>2019-04-25T15:18:30.000Z</time>
      </trkpt>
      <trkpt lat="39.11466252990067005157470703125" lon="-7.58788682520389556884765625">
        <ele>227.399993896484375</ele>
        <time>2019-04-25T15:18:41.000Z</time>
      </trkpt>
      <trkpt lat="39.11523367278277873992919921875" lon="-7.587719522416591644287109375">
        <ele>228</ele>
        <time>2019-04-25T15:18:54.000Z</time>
      </trkpt>
      <trkpt lat="39.11569316871464252471923828125" lon="-7.58759220130741596221923828125">
        <ele>227.600006103515625</ele>
        <time>2019-04-25T15:19:03.000Z</time>
      </trkpt>
      <trkpt lat="39.1162521578371524810791015625" lon="-7.587352059781551361083984375">
        <ele>226.600006103515625</ele>
        <time>2019-04-25T15:19:16.000Z</time>
      </trkpt>
      <trkpt lat="39.116588942706584930419921875" lon="-7.58710873313248157501220703125">
        <ele>225</ele>
        <time>2019-04-25T15:19:23.000Z</time>
      </trkpt>
      <trkpt lat="39.11677275784313678741455078125" lon="-7.58697512559592723846435546875">
        <ele>224.1999969482421875</ele>
        <time>2019-04-25T15:19:27.000Z</time>
      </trkpt>
      <trkpt lat="39.1169099695980548858642578125" lon="-7.586903460323810577392578125">
        <ele>223.600006103515625</ele>
        <time>2019-04-25T15:19:30.000Z</time>
      </trkpt>
      <trkpt lat="39.11730316467583179473876953125" lon="-7.5868251733481884002685546875">
        <ele>224</ele>
        <time>2019-04-25T15:19:39.000Z</time>
      </trkpt>
      <trkpt lat="39.11787606775760650634765625" lon="-7.5867765583097934722900390625">
        <ele>224.1999969482421875</ele>
        <time>2019-04-25T15:19:52.000Z</time>
      </trkpt>
      <trkpt lat="39.1184173710644245147705078125" lon="-7.586721740663051605224609375">
        <ele>223.1999969482421875</ele>
        <time>2019-04-25T15:20:04.000Z</time>
      </trkpt>
      <trkpt lat="39.11899278871715068817138671875" lon="-7.5866724550724029541015625">
        <ele>224</ele>
        <time>2019-04-25T15:20:17.000Z</time>
      </trkpt>
      <trkpt lat="39.1195569746196269989013671875" lon="-7.58661554194986820220947265625">
        <ele>225.1999969482421875</ele>
        <time>2019-04-25T15:20:31.000Z</time>
      </trkpt>
      <trkpt lat="39.1201289556920528411865234375" lon="-7.58655904792249202728271484375">
        <ele>226.600006103515625</ele>
        <time>2019-04-25T15:20:46.000Z</time>
      </trkpt>
      <trkpt lat="39.12067822180688381195068359375" lon="-7.586528621613979339599609375">
        <ele>228.600006103515625</ele>
        <time>2019-04-25T15:21:01.000Z</time>
      </trkpt>
      <trkpt lat="39.121233187615871429443359375" lon="-7.5865566171705722808837890625">
        <ele>230.600006103515625</ele>
        <time>2019-04-25T15:21:21.000Z</time>
      </trkpt>
      <trkpt lat="39.12174456752836704254150390625" lon="-7.58641135878860950469970703125">
        <ele>232.1999969482421875</ele>
        <time>2019-04-25T15:21:42.000Z</time>
      </trkpt>
      <trkpt lat="39.122265167534351348876953125" lon="-7.586583606898784637451171875">
        <ele>234.399993896484375</ele>
        <time>2019-04-25T15:22:05.000Z</time>
      </trkpt>
      <trkpt lat="39.12281946279108524322509765625" lon="-7.586540691554546356201171875">
        <ele>238</ele>
        <time>2019-04-25T15:22:33.000Z</time>
      </trkpt>
      <trkpt lat="39.122973270714282989501953125" lon="-7.5865569524466991424560546875">
        <ele>239.399993896484375</ele>
        <time>2019-04-25T15:22:42.000Z</time>
      </trkpt>
      <trkpt lat="39.123078547418117523193359375" lon="-7.5865636579692363739013671875">
        <ele>240.399993896484375</ele>
        <time>2019-04-25T15:22:50.000Z</time>
      </trkpt>
      <trkpt lat="39.12311400286853313446044921875" lon="-7.58655921556055545806884765625">
        <ele>240.8000030517578125</ele>
        <time>2019-04-25T15:22:52.000Z</time>
      </trkpt>
      <trkpt lat="39.12322380580008029937744140625" lon="-7.5865945033729076385498046875">
        <ele>242</ele>
        <time>2019-04-25T15:22:59.000Z</time>
      </trkpt>
      <trkpt lat="39.12375555373728275299072265625" lon="-7.58671897463500499725341796875">
        <ele>247.399993896484375</ele>
        <time>2019-04-25T15:23:32.000Z</time>
      </trkpt>
      <trkpt lat="39.12418521009385585784912109375" lon="-7.58682777173817157745361328125">
        <ele>251.1999969482421875</ele>
        <time>2019-04-25T15:24:01.000Z</time>
      </trkpt>
      <trkpt lat="39.12421069107949733734130859375" lon="-7.58687487803399562835693359375">
        <ele>251.399993896484375</ele>
        <time>2019-04-25T15:24:39.000Z</time>
      </trkpt>
      <trkpt lat="39.124339520931243896484375" lon="-7.58688879199326038360595703125">
        <ele>253</ele>
        <time>2019-04-25T15:24:46.000Z</time>
      </trkpt>
      <trkpt lat="39.12487939931452274322509765625" lon="-7.5870615430176258087158203125">
        <ele>260.20001220703125</ele>
        <time>2019-04-25T15:25:12.000Z</time>
      </trkpt>
      <trkpt lat="39.1254122368991374969482421875" lon="-7.58718006312847137451171875">
        <ele>265.600006103515625</ele>
        <time>2019-04-25T15:25:37.000Z</time>
      </trkpt>
      <trkpt lat="39.12595680914819240570068359375" lon="-7.58729271590709686279296875">
        <ele>268.399993896484375</ele>
        <time>2019-04-25T15:25:57.000Z</time>
      </trkpt>
      <trkpt lat="39.1259788535535335540771484375" lon="-7.5872868485748767852783203125">
        <ele>268.399993896484375</ele>
        <time>2019-04-25T15:26:00.000Z</time>
      </trkpt>
      <trkpt lat="39.1260234452784061431884765625" lon="-7.58733487688004970550537109375">
        <ele>268.399993896484375</ele>
        <time>2019-04-25T15:27:21.000Z</time>
      </trkpt>
      <trkpt lat="39.12658142857253551483154296875" lon="-7.58745364844799041748046875">
        <ele>268.20001220703125</ele>
        <time>2019-04-25T15:27:38.000Z</time>
      </trkpt>
      <trkpt lat="39.1271452791988849639892578125" lon="-7.58757510222494602203369140625">
        <ele>267.600006103515625</ele>
        <time>2019-04-25T15:27:51.000Z</time>
      </trkpt>
      <trkpt lat="39.1276971437036991119384765625" lon="-7.5877203606069087982177734375">
        <ele>267</ele>
        <time>2019-04-25T15:28:04.000Z</time>
      </trkpt>
      <trkpt lat="39.12804725579917430877685546875" lon="-7.58753134869039058685302734375">
        <ele>268</ele>
        <time>2019-04-25T15:28:14.000Z</time>
      </trkpt>
      <trkpt lat="39.12808564491569995880126953125" lon="-7.5874393992125988006591796875">
        <ele>267.79998779296875</ele>
        <time>2019-04-25T15:28:16.000Z</time>
      </trkpt>
      <trkpt lat="39.128196202218532562255859375" lon="-7.58728223852813243865966796875">
        <ele>267.20001220703125</ele>
        <time>2019-04-25T15:28:20.000Z</time>
      </trkpt>
      <trkpt lat="39.128515385091304779052734375" lon="-7.5871949829161167144775390625">
        <ele>266.79998779296875</ele>
        <time>2019-04-25T15:28:29.000Z</time>
      </trkpt>
      <trkpt lat="39.12860012613236904144287109375" lon="-7.58721652440726757049560546875">
        <ele>267</ele>
        <time>2019-04-25T15:28:32.000Z</time>
      </trkpt>
      <trkpt lat="39.12888561375439167022705078125" lon="-7.587561272084712982177734375">
        <ele>269</ele>
        <time>2019-04-25T15:28:51.000Z</time>
      </trkpt>
      <trkpt lat="39.129026345908641815185546875" lon="-7.58744099177420139312744140625">
        <ele>269.600006103515625</ele>
        <time>2019-04-25T15:28:59.000Z</time>
      </trkpt>
      <trkpt lat="39.12941769696772098541259765625" lon="-7.5869485549628734588623046875">
        <ele>271</ele>
        <time>2019-04-25T15:29:19.000Z</time>
      </trkpt>
      <trkpt lat="39.12962573580443859100341796875" lon="-7.58681318722665309906005859375">
        <ele>270.600006103515625</ele>
        <time>2019-04-25T15:29:26.000Z</time>
      </trkpt>
      <trkpt lat="39.13001096807420253753662109375" lon="-7.58732062764465808868408203125">
        <ele>271.399993896484375</ele>
        <time>2019-04-25T15:29:42.000Z</time>
      </trkpt>
      <trkpt lat="39.130384214222431182861328125" lon="-7.587821781635284423828125">
        <ele>273.600006103515625</ele>
        <time>2019-04-25T15:29:59.000Z</time>
      </trkpt>
      <trkpt lat="39.130775816738605499267578125" lon="-7.58831053040921688079833984375">
        <ele>275.600006103515625</ele>
        <time>2019-04-25T15:30:17.000Z</time>
      </trkpt>
      <trkpt lat="39.13116683252155780792236328125" lon="-7.58883900940418243408203125">
        <ele>276.399993896484375</ele>
        <time>2019-04-25T15:30:35.000Z</time>
      </trkpt>
      <trkpt lat="39.13140370510518550872802734375" lon="-7.58913849480450153350830078125">
        <ele>276.399993896484375</ele>
        <time>2019-04-25T15:30:47.000Z</time>
      </trkpt>
      <trkpt lat="39.13149858824908733367919921875" lon="-7.58906833827495574951171875">
        <ele>276.600006103515625</ele>
        <time>2019-04-25T15:30:51.000Z</time>
      </trkpt>
      <trkpt lat="39.13194484077394008636474609375" lon="-7.58864530362188816070556640625">
        <ele>277.600006103515625</ele>
        <time>2019-04-25T15:31:07.000Z</time>
      </trkpt>
      <trkpt lat="39.13224323652684688568115234375" lon="-7.58831857703626155853271484375">
        <ele>280.600006103515625</ele>
        <time>2019-04-25T15:31:23.000Z</time>
      </trkpt>
      <trkpt lat="39.13251028396189212799072265625" lon="-7.58805069141089916229248046875">
        <ele>285.399993896484375</ele>
        <time>2019-04-25T15:31:44.000Z</time>
      </trkpt>
      <trkpt lat="39.1326136328279972076416015625" lon="-7.5879480130970478057861328125">
        <ele>287.20001220703125</ele>
        <time>2019-04-25T15:31:53.000Z</time>
      </trkpt>
      <trkpt lat="39.13269317708909511566162109375" lon="-7.58786042220890522003173828125">
        <ele>288.600006103515625</ele>
        <time>2019-04-25T15:32:01.000Z</time>
      </trkpt>
      <trkpt lat="39.1327457316219806671142578125" lon="-7.587778531014919281005859375">
        <ele>290</ele>
        <time>2019-04-25T15:32:08.000Z</time>
      </trkpt>
      <trkpt lat="39.13281471468508243560791015625" lon="-7.58728760294616222381591796875">
        <ele>295.399993896484375</ele>
        <time>2019-04-25T15:32:36.000Z</time>
      </trkpt>
      <trkpt lat="39.13294731639325618743896484375" lon="-7.58713019080460071563720703125">
        <ele>299</ele>
        <time>2019-04-25T15:32:53.000Z</time>
      </trkpt>
      <trkpt lat="39.132906161248683929443359375" lon="-7.58706514723598957061767578125">
        <ele>298.600006103515625</ele>
        <time>2019-04-25T15:33:10.000Z</time>
      </trkpt>
      <trkpt lat="39.13289777934551239013671875" lon="-7.586916200816631317138671875">
        <ele>299.600006103515625</ele>
        <time>2019-04-25T15:33:17.000Z</time>
      </trkpt>
      <trkpt lat="39.13298226892948150634765625" lon="-7.58647254668176174163818359375">
        <ele>303.20001220703125</ele>
        <time>2019-04-25T15:33:40.000Z</time>
      </trkpt>
      <trkpt lat="39.1329670138657093048095703125" lon="-7.586305327713489532470703125">
        <ele>303</ele>
        <time>2019-04-25T15:33:50.000Z</time>
      </trkpt>
      <trkpt lat="39.1329670138657093048095703125" lon="-7.5863054953515529632568359375">
        <ele>303</ele>
        <time>2019-04-25T15:33:51.000Z</time>
      </trkpt>
      <trkpt lat="39.1329646669328212738037109375" lon="-7.5862830318510532379150390625">
        <ele>303</ele>
        <time>2019-04-25T15:35:59.000Z</time>
      </trkpt>
      <trkpt lat="39.13257935084402561187744140625" lon="-7.58573560975492000579833984375">
        <ele>295.20001220703125</ele>
        <time>2019-04-25T15:36:16.000Z</time>
      </trkpt>
      <trkpt lat="39.132468961179256439208984375" lon="-7.58555456064641475677490234375">
        <ele>292.600006103515625</ele>
        <time>2019-04-25T15:36:20.000Z</time>
      </trkpt>
      <trkpt lat="39.1322374530136585235595703125" lon="-7.58521559648215770721435546875">
        <ele>287.399993896484375</ele>
        <time>2019-04-25T15:36:27.000Z</time>
      </trkpt>
      <trkpt lat="39.131968729197978973388671875" lon="-7.5851809792220592498779296875">
        <ele>283</ele>
        <time>2019-04-25T15:36:35.000Z</time>
      </trkpt>
      <trkpt lat="39.13195624016225337982177734375" lon="-7.58519900031387805938720703125">
        <ele>283</ele>
        <time>2019-04-25T15:36:37.000Z</time>
      </trkpt>
      <trkpt lat="39.13195121102035045623779296875" lon="-7.58520838804543018341064453125">
        <ele>282.79998779296875</ele>
        <time>2019-04-25T15:37:02.000Z</time>
      </trkpt>
      <trkpt lat="39.131885580718517303466796875" lon="-7.58539505302906036376953125">
        <ele>282.600006103515625</ele>
        <time>2019-04-25T15:37:13.000Z</time>
      </trkpt>
      <trkpt lat="39.13183386437594890594482421875" lon="-7.5856386311352252960205078125">
        <ele>282.600006103515625</ele>
        <time>2019-04-25T15:37:23.000Z</time>
      </trkpt>
      <trkpt lat="39.1318441741168498992919921875" lon="-7.58572353981435298919677734375">
        <ele>283</ele>
        <time>2019-04-25T15:37:27.000Z</time>
      </trkpt>
      <trkpt lat="39.13184643723070621490478515625" lon="-7.58573343046009540557861328125">
        <ele>283.20001220703125</ele>
        <time>2019-04-25T15:37:29.000Z</time>
      </trkpt>
      <trkpt lat="39.13181961514055728912353515625" lon="-7.58570727892220020294189453125">
        <ele>282.600006103515625</ele>
        <time>2019-04-25T15:37:44.000Z</time>
      </trkpt>
      <trkpt lat="39.1318019293248653411865234375" lon="-7.5856114737689495086669921875">
        <ele>282</ele>
        <time>2019-04-25T15:37:47.000Z</time>
      </trkpt>
      <trkpt lat="39.13193310610949993133544921875" lon="-7.5849275104701519012451171875">
        <ele>281.20001220703125</ele>
        <time>2019-04-25T15:38:04.000Z</time>
      </trkpt>
      <trkpt lat="39.1319886781275272369384765625" lon="-7.5842019729316234588623046875">
        <ele>276</ele>
        <time>2019-04-25T15:38:14.000Z</time>
      </trkpt>
      <trkpt lat="39.13198591209948062896728515625" lon="-7.58346713148057460784912109375">
        <ele>271.20001220703125</ele>
        <time>2019-04-25T15:38:22.000Z</time>
      </trkpt>
      <trkpt lat="39.13198675028979778289794921875" lon="-7.5833842344582080841064453125">
        <ele>270.600006103515625</ele>
        <time>2019-04-25T15:38:23.000Z</time>
      </trkpt>
      <trkpt lat="39.1323903389275074005126953125" lon="-7.582912333309650421142578125">
        <ele>268</ele>
        <time>2019-04-25T15:38:32.000Z</time>
      </trkpt>
      <trkpt lat="39.13253970444202423095703125" lon="-7.58288844488561153411865234375">
        <ele>269.20001220703125</ele>
        <time>2019-04-25T15:38:34.000Z</time>
      </trkpt>
      <trkpt lat="39.13288864307105541229248046875" lon="-7.58296539075672626495361328125">
        <ele>273.399993896484375</ele>
        <time>2019-04-25T15:38:39.000Z</time>
      </trkpt>
      <trkpt lat="39.13302225060760974884033203125" lon="-7.58298684842884540557861328125">
        <ele>274.600006103515625</ele>
        <time>2019-04-25T15:38:41.000Z</time>
      </trkpt>
      <trkpt lat="39.13315736688673496246337890625" lon="-7.5824404321610927581787109375">
        <ele>268</ele>
        <time>2019-04-25T15:38:49.000Z</time>
      </trkpt>
      <trkpt lat="39.1327142156660556793212890625" lon="-7.58208076469600200653076171875">
        <ele>259.79998779296875</ele>
        <time>2019-04-25T15:38:57.000Z</time>
      </trkpt>
      <trkpt lat="39.133046306669712066650390625" lon="-7.58160777390003204345703125">
        <ele>256.20001220703125</ele>
        <time>2019-04-25T15:39:06.000Z</time>
      </trkpt>
      <trkpt lat="39.1331014595925807952880859375" lon="-7.58160769008100032806396484375">
        <ele>256.79998779296875</ele>
        <time>2019-04-25T15:39:07.000Z</time>
      </trkpt>
      <trkpt lat="39.1331966780126094818115234375" lon="-7.58161322213709354400634765625">
        <ele>257.79998779296875</ele>
        <time>2019-04-25T15:39:09.000Z</time>
      </trkpt>
      <trkpt lat="39.13330220617353916168212890625" lon="-7.5816096179187297821044921875">
        <ele>258.79998779296875</ele>
        <time>2019-04-25T15:39:11.000Z</time>
      </trkpt>
      <trkpt lat="39.13362792693078517913818359375" lon="-7.58143720217049121856689453125">
        <ele>258.600006103515625</ele>
        <time>2019-04-25T15:39:17.000Z</time>
      </trkpt>
      <trkpt lat="39.13388994522392749786376953125" lon="-7.58122279308736324310302734375">
        <ele>256.20001220703125</ele>
        <time>2019-04-25T15:39:22.000Z</time>
      </trkpt>
      <trkpt lat="39.13437039591372013092041015625" lon="-7.5807989202439785003662109375">
        <ele>252.399993896484375</ele>
        <time>2019-04-25T15:39:31.000Z</time>
      </trkpt>
      <trkpt lat="39.13453258574008941650390625" lon="-7.58065693080425262451171875">
        <ele>252.8000030517578125</ele>
        <time>2019-04-25T15:39:35.000Z</time>
      </trkpt>
      <trkpt lat="39.13458815775811672210693359375" lon="-7.58048233576118946075439453125">
        <ele>252.399993896484375</ele>
        <time>2019-04-25T15:39:39.000Z</time>
      </trkpt>
      <trkpt lat="39.1347929276525974273681640625" lon="-7.579846568405628204345703125">
        <ele>251.8000030517578125</ele>
        <time>2019-04-25T15:39:53.000Z</time>
      </trkpt>
      <trkpt lat="39.13501261733472347259521484375" lon="-7.5796127133071422576904296875">
        <ele>252.399993896484375</ele>
        <time>2019-04-25T15:40:06.000Z</time>
      </trkpt>
      <trkpt lat="39.13508587516844272613525390625" lon="-7.57956988178193569183349609375">
        <ele>252.600006103515625</ele>
        <time>2019-04-25T15:40:12.000Z</time>
      </trkpt>
      <trkpt lat="39.1351394355297088623046875" lon="-7.579484470188617706298828125">
        <ele>252.600006103515625</ele>
        <time>2019-04-25T15:40:17.000Z</time>
      </trkpt>
      <trkpt lat="39.13529424928128719329833984375" lon="-7.5793589092791080474853515625">
        <ele>253</ele>
        <time>2019-04-25T15:40:28.000Z</time>
      </trkpt>
      <trkpt lat="39.135325849056243896484375" lon="-7.57934826426208019256591796875">
        <ele>253.1999969482421875</ele>
        <time>2019-04-25T15:40:33.000Z</time>
      </trkpt>
      <trkpt lat="39.13529357872903347015380859375" lon="-7.579319179058074951171875">
        <ele>253</ele>
        <time>2019-04-25T15:41:36.000Z</time>
      </trkpt>
      <trkpt lat="39.13517036475241184234619140625" lon="-7.5793984718620777130126953125">
        <ele>252.8000030517578125</ele>
        <time>2019-04-25T15:41:43.000Z</time>
      </trkpt>
      <trkpt lat="39.1347027383744716644287109375" lon="-7.5797404535114765167236328125">
        <ele>251.600006103515625</ele>
        <time>2019-04-25T15:42:00.000Z</time>
      </trkpt>
      <trkpt lat="39.13470366038382053375244140625" lon="-7.57974087260663509368896484375">
        <ele>251.600006103515625</ele>
        <time>2019-04-25T15:42:01.000Z</time>
      </trkpt>
      <trkpt lat="39.13473031483590602874755859375" lon="-7.57974523119628429412841796875">
        <ele>251.600006103515625</ele>
        <time>2019-04-25T15:44:26.000Z</time>
      </trkpt>
      <trkpt lat="39.13480122573673725128173828125" lon="-7.57970399223268032073974609375">
        <ele>251.8000030517578125</ele>
        <time>2019-04-25T15:44:30.000Z</time>
      </trkpt>
      <trkpt lat="39.13495981134474277496337890625" lon="-7.57956267334520816802978515625">
        <ele>252.1999969482421875</ele>
        <time>2019-04-25T15:44:42.000Z</time>
      </trkpt>
      <trkpt lat="39.13508520461618900299072265625" lon="-7.5794519484043121337890625">
        <ele>252.600006103515625</ele>
        <time>2019-04-25T15:44:46.000Z</time>
      </trkpt>
      <trkpt lat="39.1353486478328704833984375" lon="-7.57929210551083087921142578125">
        <ele>253.1999969482421875</ele>
        <time>2019-04-25T15:44:57.000Z</time>
      </trkpt>
      <trkpt lat="39.13540086708962917327880859375" lon="-7.579435519874095916748046875">
        <ele>253.399993896484375</ele>
        <time>2019-04-25T15:45:17.000Z</time>
      </trkpt>
      <trkpt lat="39.1352160461246967315673828125" lon="-7.57942051626741886138916015625">
        <ele>252.8000030517578125</ele>
        <time>2019-04-25T15:53:06.000Z</time>
      </trkpt>
      <trkpt lat="39.13498445414006710052490234375" lon="-7.5795694626867771148681640625">
        <ele>252.399993896484375</ele>
        <time>2019-04-25T15:53:30.000Z</time>
      </trkpt>
      <trkpt lat="39.13511772640049457550048828125" lon="-7.579433508217334747314453125">
        <ele>252.600006103515625</ele>
        <time>2019-04-26T07:55:13.000Z</time>
      </trkpt>
      <trkpt lat="39.135162569582462310791015625" lon="-7.5794078595936298370361328125">
        <ele>252.8000030517578125</ele>
        <time>2019-04-26T07:55:16.000Z</time>
      </trkpt>
      <trkpt lat="39.135633297264575958251953125" lon="-7.579065375030040740966796875">
        <ele>253.600006103515625</ele>
        <time>2019-04-26T07:55:41.000Z</time>
      </trkpt>
      <trkpt lat="39.13609773851931095123291015625" lon="-7.578932940959930419921875">
        <ele>254.399993896484375</ele>
        <time>2019-04-26T07:56:01.000Z</time>
      </trkpt>
      <trkpt lat="39.1366567276418209075927734375" lon="-7.57896839641034603118896484375">
        <ele>255.1999969482421875</ele>
        <time>2019-04-26T07:56:18.000Z</time>
      </trkpt>
      <trkpt lat="39.13713374175131320953369140625" lon="-7.5787255726754665374755859375">
        <ele>255.600006103515625</ele>
        <time>2019-04-26T07:56:33.000Z</time>
      </trkpt>
      <trkpt lat="39.137322418391704559326171875" lon="-7.578530944883823394775390625">
        <ele>255.8000030517578125</ele>
        <time>2019-04-26T07:56:41.000Z</time>
      </trkpt>
      <trkpt lat="39.13739810697734355926513671875" lon="-7.57862155325710773468017578125">
        <ele>256.399993896484375</ele>
        <time>2019-04-26T07:56:52.000Z</time>
      </trkpt>
      <trkpt lat="39.137342534959316253662109375" lon="-7.57859171368181705474853515625">
        <ele>256</ele>
        <time>2019-04-26T07:56:56.000Z</time>
      </trkpt>
      <trkpt lat="39.13691841065883636474609375" lon="-7.57897711358964443206787109375">
        <ele>255.399993896484375</ele>
        <time>2019-04-26T07:57:21.000Z</time>
      </trkpt>
      <trkpt lat="39.13688630796968936920166015625" lon="-7.57898683659732341766357421875">
        <ele>255.399993896484375</ele>
        <time>2019-04-26T07:57:25.000Z</time>
      </trkpt>
      <trkpt lat="39.1368749924004077911376953125" lon="-7.5789874233305454254150390625">
        <ele>255.399993896484375</ele>
        <time>2019-04-26T07:57:52.000Z</time>
      </trkpt>
      <trkpt lat="39.1363222897052764892578125" lon="-7.57895163260400295257568359375">
        <ele>254.8000030517578125</ele>
        <time>2019-04-26T07:58:09.000Z</time>
      </trkpt>
      <trkpt lat="39.1358725167810916900634765625" lon="-7.57932278327643871307373046875">
        <ele>254.399993896484375</ele>
        <time>2019-04-26T07:58:25.000Z</time>
      </trkpt>
      <trkpt lat="39.1354765556752681732177734375" lon="-7.57984313182532787322998046875">
        <ele>253.8000030517578125</ele>
        <time>2019-04-26T07:58:38.000Z</time>
      </trkpt>
      <trkpt lat="39.13503206335008144378662109375" lon="-7.58026138879358768463134765625">
        <ele>253.1999969482421875</ele>
        <time>2019-04-26T07:58:48.000Z</time>
      </trkpt>
      <trkpt lat="39.1345542110502719879150390625" lon="-7.58068232797086238861083984375">
        <ele>252.8000030517578125</ele>
        <time>2019-04-26T07:58:58.000Z</time>
      </trkpt>
      <trkpt lat="39.13409630768001079559326171875" lon="-7.58108331821858882904052734375">
        <ele>255</ele>
        <time>2019-04-26T07:59:11.000Z</time>
      </trkpt>
      <trkpt lat="39.13363547064363956451416015625" lon="-7.58150610141456127166748046875">
        <ele>259.79998779296875</ele>
        <time>2019-04-26T07:59:26.000Z</time>
      </trkpt>
      <trkpt lat="39.13309416733682155609130859375" lon="-7.58167055435478687286376953125">
        <ele>258</ele>
        <time>2019-04-26T07:59:43.000Z</time>
      </trkpt>
      <trkpt lat="39.1327490843832492828369140625" lon="-7.58208026178181171417236328125">
        <ele>260.20001220703125</ele>
        <time>2019-04-26T08:00:01.000Z</time>
      </trkpt>
      <trkpt lat="39.13319206796586513519287109375" lon="-7.58242676965892314910888671875">
        <ele>268</ele>
        <time>2019-04-26T08:00:22.000Z</time>
      </trkpt>
      <trkpt lat="39.1331279464066028594970703125" lon="-7.5830218009650707244873046875">
        <ele>275.600006103515625</ele>
        <time>2019-04-26T08:00:44.000Z</time>
      </trkpt>
      <trkpt lat="39.1326008923351764678955078125" lon="-7.58294560946524143218994140625">
        <ele>270.600006103515625</ele>
        <time>2019-04-26T08:01:04.000Z</time>
      </trkpt>
      <trkpt lat="39.13208817131817340850830078125" lon="-7.58317292667925357818603515625">
        <ele>269</ele>
        <time>2019-04-26T08:01:25.000Z</time>
      </trkpt>
      <trkpt lat="39.132049195468425750732421875" lon="-7.583862841129302978515625">
        <ele>274.20001220703125</ele>
        <time>2019-04-26T08:01:45.000Z</time>
      </trkpt>
      <trkpt lat="39.13203737698495388031005859375" lon="-7.5845701061189174652099609375">
        <ele>279.79998779296875</ele>
        <time>2019-04-26T08:02:06.000Z</time>
      </trkpt>
      <trkpt lat="39.13191047497093677520751953125" lon="-7.585259266197681427001953125">
        <ele>282.399993896484375</ele>
        <time>2019-04-26T08:02:25.000Z</time>
      </trkpt>
      <trkpt lat="39.131799079477787017822265625" lon="-7.585937194526195526123046875">
        <ele>282.79998779296875</ele>
        <time>2019-04-26T08:02:44.000Z</time>
      </trkpt>
      <trkpt lat="39.131819866597652435302734375" lon="-7.58666197769343852996826171875">
        <ele>281.399993896484375</ele>
        <time>2019-04-26T08:03:02.000Z</time>
      </trkpt>
      <trkpt lat="39.1319048590958118438720703125" lon="-7.5869488902390003204345703125">
        <ele>282</ele>
        <time>2019-04-26T08:03:08.000Z</time>
      </trkpt>
      <trkpt lat="39.13209621794521808624267578125" lon="-7.58764316327869892120361328125">
        <ele>282.79998779296875</ele>
        <time>2019-04-26T08:03:19.000Z</time>
      </trkpt>
      <trkpt lat="39.13227156735956668853759765625" lon="-7.58832712657749652862548828125">
        <ele>280.600006103515625</ele>
        <time>2019-04-26T08:03:27.000Z</time>
      </trkpt>
      <trkpt lat="39.13247390650212764739990234375" lon="-7.5890193879604339599609375">
        <ele>281</ele>
        <time>2019-04-26T08:03:36.000Z</time>
      </trkpt>
      <trkpt lat="39.1326718032360076904296875" lon="-7.58970259688794612884521484375">
        <ele>283.600006103515625</ele>
        <time>2019-04-26T08:03:54.000Z</time>
      </trkpt>
      <trkpt lat="39.13278252817690372467041015625" lon="-7.5901578180491924285888671875">
        <ele>285.20001220703125</ele>
        <time>2019-04-26T08:04:07.000Z</time>
      </trkpt>
      <trkpt lat="39.13261187262833118438720703125" lon="-7.59030877612531185150146484375">
        <ele>284.20001220703125</ele>
        <time>2019-04-26T08:04:14.000Z</time>
      </trkpt>
      <trkpt lat="39.1324714757502079010009765625" lon="-7.590520083904266357421875">
        <ele>283.399993896484375</ele>
        <time>2019-04-26T08:04:21.000Z</time>
      </trkpt>
      <trkpt lat="39.1325296461582183837890625" lon="-7.59061873890459537506103515625">
        <ele>284</ele>
        <time>2019-04-26T08:04:25.000Z</time>
      </trkpt>
      <trkpt lat="39.132911860942840576171875" lon="-7.59110639803111553192138671875">
        <ele>286.399993896484375</ele>
        <time>2019-04-26T08:04:44.000Z</time>
      </trkpt>
      <trkpt lat="39.13328845985233783721923828125" lon="-7.59160378016531467437744140625">
        <ele>287.600006103515625</ele>
        <time>2019-04-26T08:05:03.000Z</time>
      </trkpt>
      <trkpt lat="39.133679978549480438232421875" lon="-7.59123464114964008331298828125">
        <ele>289.600006103515625</ele>
        <time>2019-04-26T08:05:22.000Z</time>
      </trkpt>
      <trkpt lat="39.133713506162166595458984375" lon="-7.59123824536800384521484375">
        <ele>289.600006103515625</ele>
        <time>2019-04-26T08:05:25.000Z</time>
      </trkpt>
      <trkpt lat="39.13388340733945369720458984375" lon="-7.59134746156632900238037109375">
        <ele>289.79998779296875</ele>
        <time>2019-04-26T08:05:30.000Z</time>
      </trkpt>
      <trkpt lat="39.13415330462157726287841796875" lon="-7.59169849567115306854248046875">
        <ele>287.600006103515625</ele>
        <time>2019-04-26T08:05:39.000Z</time>
      </trkpt>
      <trkpt lat="39.13458514027297496795654296875" lon="-7.59216017089784145355224609375">
        <ele>286.399993896484375</ele>
        <time>2019-04-26T08:05:52.000Z</time>
      </trkpt>
      <trkpt lat="39.1346122138202190399169921875" lon="-7.59219638071954250335693359375">
        <ele>286.399993896484375</ele>
        <time>2019-04-26T08:05:53.000Z</time>
      </trkpt>
      <trkpt lat="39.135038517415523529052734375" lon="-7.59266383945941925048828125">
        <ele>285</ele>
        <time>2019-04-26T08:06:12.000Z</time>
      </trkpt>
      <trkpt lat="39.13546959869563579559326171875" lon="-7.59315342642366886138916015625">
        <ele>286.399993896484375</ele>
        <time>2019-04-26T08:06:28.000Z</time>
      </trkpt>
      <trkpt lat="39.1357719339430332183837890625" lon="-7.5937533192336559295654296875">
        <ele>288.20001220703125</ele>
        <time>2019-04-26T08:06:41.000Z</time>
      </trkpt>
      <trkpt lat="39.13606789894402027130126953125" lon="-7.59435639716684818267822265625">
        <ele>287.399993896484375</ele>
        <time>2019-04-26T08:06:53.000Z</time>
      </trkpt>
      <trkpt lat="39.13637526333332061767578125" lon="-7.5949321500957012176513671875">
        <ele>285.79998779296875</ele>
        <time>2019-04-26T08:07:05.000Z</time>
      </trkpt>
      <trkpt lat="39.136398732662200927734375" lon="-7.59497280232608318328857421875">
        <ele>285.600006103515625</ele>
        <time>2019-04-26T08:07:06.000Z</time>
      </trkpt>
      <trkpt lat="39.136724956333637237548828125" lon="-7.5955453701317310333251953125">
        <ele>284.600006103515625</ele>
        <time>2019-04-26T08:07:18.000Z</time>
      </trkpt>
      <trkpt lat="39.1370116174221038818359375" lon="-7.59615045972168445587158203125">
        <ele>285.20001220703125</ele>
        <time>2019-04-26T08:07:29.000Z</time>
      </trkpt>
      <trkpt lat="39.13725310005247592926025390625" lon="-7.596780359745025634765625">
        <ele>285.79998779296875</ele>
        <time>2019-04-26T08:07:40.000Z</time>
      </trkpt>
      <trkpt lat="39.13750254549086093902587890625" lon="-7.5974349863827228546142578125">
        <ele>289</ele>
        <time>2019-04-26T08:07:54.000Z</time>
      </trkpt>
      <trkpt lat="39.13775534369051456451416015625" lon="-7.59808399714529514312744140625">
        <ele>291.399993896484375</ele>
        <time>2019-04-26T08:08:11.000Z</time>
      </trkpt>
      <trkpt lat="39.13802322931587696075439453125" lon="-7.598734684288501739501953125">
        <ele>293</ele>
        <time>2019-04-26T08:08:27.000Z</time>
      </trkpt>
      <trkpt lat="39.13815767504274845123291015625" lon="-7.59895437397062778472900390625">
        <ele>293.399993896484375</ele>
        <time>2019-04-26T08:08:32.000Z</time>
      </trkpt>
      <trkpt lat="39.1385780274868011474609375" lon="-7.59949182160198688507080078125">
        <ele>293.20001220703125</ele>
        <time>2019-04-26T08:08:43.000Z</time>
      </trkpt>
      <trkpt lat="39.1390029899775981903076171875" lon="-7.60002289898693561553955078125">
        <ele>291</ele>
        <time>2019-04-26T08:08:53.000Z</time>
      </trkpt>
      <trkpt lat="39.1394059918820858001708984375" lon="-7.6005260646343231201171875">
        <ele>288.20001220703125</ele>
        <time>2019-04-26T08:09:02.000Z</time>
      </trkpt>
      <trkpt lat="39.1397984325885772705078125" lon="-7.60101833380758762359619140625">
        <ele>286.79998779296875</ele>
        <time>2019-04-26T08:09:12.000Z</time>
      </trkpt>
      <trkpt lat="39.14021174423396587371826171875" lon="-7.601527869701385498046875">
        <ele>287.600006103515625</ele>
        <time>2019-04-26T08:09:23.000Z</time>
      </trkpt>
      <trkpt lat="39.14061315357685089111328125" lon="-7.60201812721788883209228515625">
        <ele>287.600006103515625</ele>
        <time>2019-04-26T08:09:33.000Z</time>
      </trkpt>
      <trkpt lat="39.1410002298653125762939453125" lon="-7.6025281660258769989013671875">
        <ele>287.20001220703125</ele>
        <time>2019-04-26T08:09:42.000Z</time>
      </trkpt>
      <trkpt lat="39.1413522697985172271728515625" lon="-7.60308229364454746246337890625">
        <ele>285.399993896484375</ele>
        <time>2019-04-26T08:09:51.000Z</time>
      </trkpt>
      <trkpt lat="39.14169835858047008514404296875" lon="-7.60362912900745868682861328125">
        <ele>283.399993896484375</ele>
        <time>2019-04-26T08:10:01.000Z</time>
      </trkpt>
      <trkpt lat="39.1420503146946430206298828125" lon="-7.60418702848255634307861328125">
        <ele>282.600006103515625</ele>
        <time>2019-04-26T08:10:11.000Z</time>
      </trkpt>
      <trkpt lat="39.14235432632267475128173828125" lon="-7.604604028165340423583984375">
        <ele>283</ele>
        <time>2019-04-26T08:10:19.000Z</time>
      </trkpt>
      <trkpt lat="39.1428355313837528228759765625" lon="-7.6050055213272571563720703125">
        <ele>284.79998779296875</ele>
        <time>2019-04-26T08:10:29.000Z</time>
      </trkpt>
      <trkpt lat="39.143308438360691070556640625" lon="-7.60538815520703792572021484375">
        <ele>282.20001220703125</ele>
        <time>2019-04-26T08:10:38.000Z</time>
      </trkpt>
      <trkpt lat="39.143771119415760040283203125" lon="-7.60576131753623485565185546875">
        <ele>279.79998779296875</ele>
        <time>2019-04-26T08:10:47.000Z</time>
      </trkpt>
      <trkpt lat="39.14425115101039409637451171875" lon="-7.6061380840837955474853515625">
        <ele>276.79998779296875</ele>
        <time>2019-04-26T08:10:56.000Z</time>
      </trkpt>
      <trkpt lat="39.1447546519339084625244140625" lon="-7.6065370626747608184814453125">
        <ele>276.20001220703125</ele>
        <time>2019-04-26T08:11:05.000Z</time>
      </trkpt>
      <trkpt lat="39.14524960331618785858154296875" lon="-7.606929503381252288818359375">
        <ele>276.600006103515625</ele>
        <time>2019-04-26T08:11:14.000Z</time>
      </trkpt>
      <trkpt lat="39.1457142122089862823486328125" lon="-7.607372738420963287353515625">
        <ele>274.600006103515625</ele>
        <time>2019-04-26T08:11:23.000Z</time>
      </trkpt>
      <trkpt lat="39.146117381751537322998046875" lon="-7.607868276536464691162109375">
        <ele>275.20001220703125</ele>
        <time>2019-04-26T08:11:32.000Z</time>
      </trkpt>
      <trkpt lat="39.14650655351579189300537109375" lon="-7.60844285599887371063232421875">
        <ele>275.600006103515625</ele>
        <time>2019-04-26T08:11:42.000Z</time>
      </trkpt>
      <trkpt lat="39.14686999283730983734130859375" lon="-7.60897275991737842559814453125">
        <ele>275.600006103515625</ele>
        <time>2019-04-26T08:11:52.000Z</time>
      </trkpt>
      <trkpt lat="39.14724717848002910614013671875" lon="-7.6095340959727764129638671875">
        <ele>275.20001220703125</ele>
        <time>2019-04-26T08:12:03.000Z</time>
      </trkpt>
      <trkpt lat="39.14763844572007656097412109375" lon="-7.610105238854885101318359375">
        <ele>275.20001220703125</ele>
        <time>2019-04-26T08:12:14.000Z</time>
      </trkpt>
      <trkpt lat="39.14800993166863918304443359375" lon="-7.610657773911952972412109375">
        <ele>273.79998779296875</ele>
        <time>2019-04-26T08:12:24.000Z</time>
      </trkpt>
      <trkpt lat="39.148385860025882720947265625" lon="-7.61120620183646678924560546875">
        <ele>272.600006103515625</ele>
        <time>2019-04-26T08:12:34.000Z</time>
      </trkpt>
      <trkpt lat="39.14874267764389514923095703125" lon="-7.61174105107784271240234375">
        <ele>272.399993896484375</ele>
        <time>2019-04-26T08:12:44.000Z</time>
      </trkpt>
      <trkpt lat="39.1491008363664150238037109375" lon="-7.61226416565477848052978515625">
        <ele>273.399993896484375</ele>
        <time>2019-04-26T08:12:54.000Z</time>
      </trkpt>
      <trkpt lat="39.1494776867330074310302734375" lon="-7.61282206512987613677978515625">
        <ele>274.399993896484375</ele>
        <time>2019-04-26T08:13:05.000Z</time>
      </trkpt>
      <trkpt lat="39.14984439499676227569580078125" lon="-7.613360099494457244873046875">
        <ele>275</ele>
        <time>2019-04-26T08:13:16.000Z</time>
      </trkpt>
      <trkpt lat="39.15008478797972202301025390625" lon="-7.61366310529410839080810546875">
        <ele>276</ele>
        <time>2019-04-26T08:13:23.000Z</time>
      </trkpt>
      <trkpt lat="39.150536991655826568603515625" lon="-7.614065520465373992919921875">
        <ele>277.399993896484375</ele>
        <time>2019-04-26T08:13:38.000Z</time>
      </trkpt>
      <trkpt lat="39.1510021872818470001220703125" lon="-7.614440023899078369140625">
        <ele>278.79998779296875</ele>
        <time>2019-04-26T08:13:55.000Z</time>
      </trkpt>
      <trkpt lat="39.15145740844309329986572265625" lon="-7.61481645517051219940185546875">
        <ele>280</ele>
        <time>2019-04-26T08:14:11.000Z</time>
      </trkpt>
      <trkpt lat="39.15192511864006519317626953125" lon="-7.61521124280989170074462890625">
        <ele>282.79998779296875</ele>
        <time>2019-04-26T08:14:25.000Z</time>
      </trkpt>
      <trkpt lat="39.15238126181066036224365234375" lon="-7.61558733880519866943359375">
        <ele>283.20001220703125</ele>
        <time>2019-04-26T08:14:37.000Z</time>
      </trkpt>
      <trkpt lat="39.152858443558216094970703125" lon="-7.61598472483456134796142578125">
        <ele>282.399993896484375</ele>
        <time>2019-04-26T08:14:48.000Z</time>
      </trkpt>
      <trkpt lat="39.1533544845879077911376953125" lon="-7.61639962904155254364013671875">
        <ele>280.600006103515625</ele>
        <time>2019-04-26T08:14:59.000Z</time>
      </trkpt>
      <trkpt lat="39.15381087921559810638427734375" lon="-7.61678921990096569061279296875">
        <ele>279</ele>
        <time>2019-04-26T08:15:09.000Z</time>
      </trkpt>
      <trkpt lat="39.15423609316349029541015625" lon="-7.61722357012331485748291015625">
        <ele>277</ele>
        <time>2019-04-26T08:15:18.000Z</time>
      </trkpt>
      <trkpt lat="39.1547100059688091278076171875" lon="-7.6177171804010868072509765625">
        <ele>274.399993896484375</ele>
        <time>2019-04-26T08:15:27.000Z</time>
      </trkpt>
      <trkpt lat="39.15518559515476226806640625" lon="-7.61818832717835903167724609375">
        <ele>270.79998779296875</ele>
        <time>2019-04-26T08:15:35.000Z</time>
      </trkpt>
      <trkpt lat="39.155641905963420867919921875" lon="-7.61855897493660449981689453125">
        <ele>267.20001220703125</ele>
        <time>2019-04-26T08:15:42.000Z</time>
      </trkpt>
      <trkpt lat="39.156167618930339813232421875" lon="-7.61891059577465057373046875">
        <ele>266.600006103515625</ele>
        <time>2019-04-26T08:15:50.000Z</time>
      </trkpt>
      <trkpt lat="39.15669190697371959686279296875" lon="-7.6192577742040157318115234375">
        <ele>265.399993896484375</ele>
        <time>2019-04-26T08:15:58.000Z</time>
      </trkpt>
      <trkpt lat="39.15717252530157566070556640625" lon="-7.61968600563704967498779296875">
        <ele>266.20001220703125</ele>
        <time>2019-04-26T08:16:06.000Z</time>
      </trkpt>
      <trkpt lat="39.15763855911791324615478515625" lon="-7.6202102936804294586181640625">
        <ele>262.79998779296875</ele>
        <time>2019-04-26T08:16:14.000Z</time>
      </trkpt>
      <trkpt lat="39.15805597789585590362548828125" lon="-7.6206947676837444305419921875">
        <ele>259.399993896484375</ele>
        <time>2019-04-26T08:16:21.000Z</time>
      </trkpt>
      <trkpt lat="39.15848429314792156219482421875" lon="-7.62118703685700893402099609375">
        <ele>255.399993896484375</ele>
        <time>2019-04-26T08:16:28.000Z</time>
      </trkpt>
      <trkpt lat="39.15893130004405975341796875" lon="-7.621682323515415191650390625">
        <ele>255</ele>
        <time>2019-04-26T08:16:37.000Z</time>
      </trkpt>
      <trkpt lat="39.15935575962066650390625" lon="-7.6221522130072116851806640625">
        <ele>255.1999969482421875</ele>
        <time>2019-04-26T08:16:48.000Z</time>
      </trkpt>
      <trkpt lat="39.1597817279398441314697265625" lon="-7.622641213238239288330078125">
        <ele>257.20001220703125</ele>
        <time>2019-04-26T08:17:02.000Z</time>
      </trkpt>
      <trkpt lat="39.1601971350610256195068359375" lon="-7.623117305338382720947265625">
        <ele>260</ele>
        <time>2019-04-26T08:17:18.000Z</time>
      </trkpt>
      <trkpt lat="39.1606192477047443389892578125" lon="-7.62358702719211578369140625">
        <ele>261.600006103515625</ele>
        <time>2019-04-26T08:17:33.000Z</time>
      </trkpt>
      <trkpt lat="39.16109408251941204071044921875" lon="-7.6239610277116298675537109375">
        <ele>261.600006103515625</ele>
        <time>2019-04-26T08:17:46.000Z</time>
      </trkpt>
      <trkpt lat="39.1616052947938442230224609375" lon="-7.62429236434400081634521484375">
        <ele>261.399993896484375</ele>
        <time>2019-04-26T08:17:59.000Z</time>
      </trkpt>
      <trkpt lat="39.162114076316356658935546875" lon="-7.62462462298572063446044921875">
        <ele>262.399993896484375</ele>
        <time>2019-04-26T08:18:12.000Z</time>
      </trkpt>
      <trkpt lat="39.162560664117336273193359375" lon="-7.62491329573094844818115234375">
        <ele>263.399993896484375</ele>
        <time>2019-04-26T08:18:24.000Z</time>
      </trkpt>
      <trkpt lat="39.162825532257556915283203125" lon="-7.62508043088018894195556640625">
        <ele>264</ele>
        <time>2019-04-26T08:18:31.000Z</time>
      </trkpt>
      <trkpt lat="39.1633329726755619049072265625" lon="-7.6253866218030452728271484375">
        <ele>265.20001220703125</ele>
        <time>2019-04-26T08:18:44.000Z</time>
      </trkpt>
      <trkpt lat="39.1638395749032497406005859375" lon="-7.62571611441671848297119140625">
        <ele>266</ele>
        <time>2019-04-26T08:18:58.000Z</time>
      </trkpt>
      <trkpt lat="39.16432832367718219757080078125" lon="-7.626048289239406585693359375">
        <ele>267.399993896484375</ele>
        <time>2019-04-26T08:19:12.000Z</time>
      </trkpt>
      <trkpt lat="39.164781868457794189453125" lon="-7.6264558173716068267822265625">
        <ele>267.20001220703125</ele>
        <time>2019-04-26T08:19:28.000Z</time>
      </trkpt>
      <trkpt lat="39.16511773131787776947021484375" lon="-7.62700407765805721282958984375">
        <ele>268.79998779296875</ele>
        <time>2019-04-26T08:19:42.000Z</time>
      </trkpt>
      <trkpt lat="39.16542601771652698516845703125" lon="-7.627575807273387908935546875">
        <ele>270.399993896484375</ele>
        <time>2019-04-26T08:19:57.000Z</time>
      </trkpt>
      <trkpt lat="39.16574503295123577117919921875" lon="-7.62815742753446102142333984375">
        <ele>270.79998779296875</ele>
        <time>2019-04-26T08:20:12.000Z</time>
      </trkpt>
      <trkpt lat="39.1660694964230060577392578125" lon="-7.62876109220087528228759765625">
        <ele>272.399993896484375</ele>
        <time>2019-04-26T08:20:27.000Z</time>
      </trkpt>
      <trkpt lat="39.1663973964750766754150390625" lon="-7.62936274521052837371826171875">
        <ele>274.20001220703125</ele>
        <time>2019-04-26T08:20:43.000Z</time>
      </trkpt>
      <trkpt lat="39.16672253049910068511962890625" lon="-7.62995551340281963348388671875">
        <ele>275</ele>
        <time>2019-04-26T08:20:59.000Z</time>
      </trkpt>
      <trkpt lat="39.16703735478222370147705078125" lon="-7.63053520582616329193115234375">
        <ele>276.399993896484375</ele>
        <time>2019-04-26T08:21:14.000Z</time>
      </trkpt>
      <trkpt lat="39.1673661768436431884765625" lon="-7.63113954104483127593994140625">
        <ele>276.20001220703125</ele>
        <time>2019-04-26T08:21:29.000Z</time>
      </trkpt>
      <trkpt lat="39.1676880419254302978515625" lon="-7.63173155486583709716796875">
        <ele>276.79998779296875</ele>
        <time>2019-04-26T08:21:43.000Z</time>
      </trkpt>
      <trkpt lat="39.1679991781711578369140625" lon="-7.63232507742941379547119140625">
        <ele>277</ele>
        <time>2019-04-26T08:21:57.000Z</time>
      </trkpt>
      <trkpt lat="39.168322384357452392578125" lon="-7.632912062108516693115234375">
        <ele>276</ele>
        <time>2019-04-26T08:22:10.000Z</time>
      </trkpt>
      <trkpt lat="39.1686363704502582550048828125" lon="-7.63348848558962345123291015625">
        <ele>275.79998779296875</ele>
        <time>2019-04-26T08:22:21.000Z</time>
      </trkpt>
      <trkpt lat="39.16895647533237934112548828125" lon="-7.634073793888092041015625">
        <ele>274.600006103515625</ele>
        <time>2019-04-26T08:22:32.000Z</time>
      </trkpt>
      <trkpt lat="39.16926979087293148040771484375" lon="-7.63467385433614253997802734375">
        <ele>272.79998779296875</ele>
        <time>2019-04-26T08:22:43.000Z</time>
      </trkpt>
      <trkpt lat="39.1696043126285076141357421875" lon="-7.6352353580296039581298828125">
        <ele>272.79998779296875</ele>
        <time>2019-04-26T08:22:55.000Z</time>
      </trkpt>
      <trkpt lat="39.169996418058872222900390625" lon="-7.635718323290348052978515625">
        <ele>274.399993896484375</ele>
        <time>2019-04-26T08:23:07.000Z</time>
      </trkpt>
      <trkpt lat="39.17042347602546215057373046875" lon="-7.63619869016110897064208984375">
        <ele>275.79998779296875</ele>
        <time>2019-04-26T08:23:20.000Z</time>
      </trkpt>
      <trkpt lat="39.17085128836333751678466796875" lon="-7.63667478226125240325927734375">
        <ele>277</ele>
        <time>2019-04-26T08:23:34.000Z</time>
      </trkpt>
      <trkpt lat="39.17128094471991062164306640625" lon="-7.63715020380914211273193359375">
        <ele>278.399993896484375</ele>
        <time>2019-04-26T08:23:52.000Z</time>
      </trkpt>
      <trkpt lat="39.17170406319200992584228515625" lon="-7.63762579299509525299072265625">
        <ele>279.79998779296875</ele>
        <time>2019-04-26T08:24:10.000Z</time>
      </trkpt>
      <trkpt lat="39.17212248779833316802978515625" lon="-7.6380982808768749237060546875">
        <ele>281.20001220703125</ele>
        <time>2019-04-26T08:24:27.000Z</time>
      </trkpt>
      <trkpt lat="39.1725373081862926483154296875" lon="-7.6385606266558170318603515625">
        <ele>282</ele>
        <time>2019-04-26T08:24:43.000Z</time>
      </trkpt>
      <trkpt lat="39.1729438304901123046875" lon="-7.63902205042541027069091796875">
        <ele>282.399993896484375</ele>
        <time>2019-04-26T08:24:57.000Z</time>
      </trkpt>
      <trkpt lat="39.173199646174907684326171875" lon="-7.63927535153925418853759765625">
        <ele>281</ele>
        <time>2019-04-26T08:25:04.000Z</time>
      </trkpt>
      <trkpt lat="39.17374103330075740814208984375" lon="-7.6395232044160366058349609375">
        <ele>280</ele>
        <time>2019-04-26T08:25:17.000Z</time>
      </trkpt>
      <trkpt lat="39.1739753074944019317626953125" lon="-7.63958598487079143524169921875">
        <ele>280.399993896484375</ele>
        <time>2019-04-26T08:25:23.000Z</time>
      </trkpt>
      <trkpt lat="39.1745142638683319091796875" lon="-7.6397501863539218902587890625">
        <ele>279.79998779296875</ele>
        <time>2019-04-26T08:25:35.000Z</time>
      </trkpt>
      <trkpt lat="39.1750498674809932708740234375" lon="-7.63991019688546657562255859375">
        <ele>279.20001220703125</ele>
        <time>2019-04-26T08:25:46.000Z</time>
      </trkpt>
      <trkpt lat="39.17558304034173488616943359375" lon="-7.640082947909832000732421875">
        <ele>278.399993896484375</ele>
        <time>2019-04-26T08:25:57.000Z</time>
      </trkpt>
      <trkpt lat="39.17562645860016345977783203125" lon="-7.64009309001266956329345703125">
        <ele>278.399993896484375</ele>
        <time>2019-04-26T08:25:58.000Z</time>
      </trkpt>
      <trkpt lat="39.17575403116643428802490234375" lon="-7.64012846164405345916748046875">
        <ele>278.20001220703125</ele>
        <time>2019-04-26T08:26:01.000Z</time>
      </trkpt>
      <trkpt lat="39.17631863616406917572021484375" lon="-7.6402993686497211456298828125">
        <ele>277.399993896484375</ele>
        <time>2019-04-26T08:26:14.000Z</time>
      </trkpt>
      <trkpt lat="39.17686513625085353851318359375" lon="-7.64046172611415386199951171875">
        <ele>277</ele>
        <time>2019-04-26T08:26:25.000Z</time>
      </trkpt>
      <trkpt lat="39.17740057222545146942138671875" lon="-7.640620730817317962646484375">
        <ele>276.79998779296875</ele>
        <time>2019-04-26T08:26:36.000Z</time>
      </trkpt>
      <trkpt lat="39.17797339148819446563720703125" lon="-7.64078895561397075653076171875">
        <ele>277.399993896484375</ele>
        <time>2019-04-26T08:26:48.000Z</time>
      </trkpt>
      <trkpt lat="39.178378991782665252685546875" lon="-7.64091719873249530792236328125">
        <ele>278.399993896484375</ele>
        <time>2019-04-26T08:26:57.000Z</time>
      </trkpt>
      <trkpt lat="39.17892180383205413818359375" lon="-7.64110126532614231109619140625">
        <ele>280</ele>
        <time>2019-04-26T08:27:12.000Z</time>
      </trkpt>
      <trkpt lat="39.1793310083448886871337890625" lon="-7.64155916869640350341796875">
        <ele>282.20001220703125</ele>
        <time>2019-04-26T08:27:28.000Z</time>
      </trkpt>
      <trkpt lat="39.17968464083969593048095703125" lon="-7.64212486334145069122314453125">
        <ele>283.20001220703125</ele>
        <time>2019-04-26T08:27:42.000Z</time>
      </trkpt>
      <trkpt lat="39.17982528917491436004638671875" lon="-7.64235176146030426025390625">
        <ele>282.399993896484375</ele>
        <time>2019-04-26T08:27:49.000Z</time>
      </trkpt>
      <trkpt lat="39.1797450743615627288818359375" lon="-7.64230960048735141754150390625">
        <ele>283</ele>
        <time>2019-04-26T08:27:54.000Z</time>
      </trkpt>
      <trkpt lat="39.17971733026206493377685546875" lon="-7.64222703874111175537109375">
        <ele>283.399993896484375</ele>
        <time>2019-04-26T08:27:57.000Z</time>
      </trkpt>
      <trkpt lat="39.1797544620931148529052734375" lon="-7.64222326688468456268310546875">
        <ele>283.20001220703125</ele>
        <time>2019-04-26T08:28:02.000Z</time>
      </trkpt>
      <trkpt lat="39.1797732375562191009521484375" lon="-7.6422593928873538970947265625">
        <ele>283</ele>
        <time>2019-04-26T08:28:06.000Z</time>
      </trkpt>
      <trkpt lat="39.1800342500209808349609375" lon="-7.6426744647324085235595703125">
        <ele>279.79998779296875</ele>
        <time>2019-04-26T08:28:18.000Z</time>
      </trkpt>
      <trkpt lat="39.1800904087722301483154296875" lon="-7.64270715415477752685546875">
        <ele>279.20001220703125</ele>
        <time>2019-04-26T08:28:23.000Z</time>
      </trkpt>
      <trkpt lat="39.180104993283748626708984375" lon="-7.6427230797708034515380859375">
        <ele>279.20001220703125</ele>
        <time>2019-04-26T08:29:01.000Z</time>
      </trkpt>
      <trkpt lat="39.18044219724833965301513671875" lon="-7.6433188654482364654541015625">
        <ele>278</ele>
        <time>2019-04-26T08:29:17.000Z</time>
      </trkpt>
      <trkpt lat="39.1807834245264530181884765625" lon="-7.643859498202800750732421875">
        <ele>277.20001220703125</ele>
        <time>2019-04-26T08:29:29.000Z</time>
      </trkpt>
      <trkpt lat="39.18112733401358127593994140625" lon="-7.6444132067263126373291015625">
        <ele>278</ele>
        <time>2019-04-26T08:29:41.000Z</time>
      </trkpt>
      <trkpt lat="39.181263037025928497314453125" lon="-7.6446331478655338287353515625">
        <ele>278.600006103515625</ele>
        <time>2019-04-26T08:29:46.000Z</time>
      </trkpt>
      <trkpt lat="39.1816145740449428558349609375" lon="-7.6451689191162586212158203125">
        <ele>279.20001220703125</ele>
        <time>2019-04-26T08:29:59.000Z</time>
      </trkpt>
      <trkpt lat="39.181963764131069183349609375" lon="-7.64572061598300933837890625">
        <ele>280.20001220703125</ele>
        <time>2019-04-26T08:30:13.000Z</time>
      </trkpt>
      <trkpt lat="39.18232711963355541229248046875" lon="-7.64629418961703777313232421875">
        <ele>283.20001220703125</ele>
        <time>2019-04-26T08:30:29.000Z</time>
      </trkpt>
      <trkpt lat="39.1826800815761089324951171875" lon="-7.64684186317026615142822265625">
        <ele>283.79998779296875</ele>
        <time>2019-04-26T08:30:44.000Z</time>
      </trkpt>
      <trkpt lat="39.18302432633936405181884765625" lon="-7.64739758335053920745849609375">
        <ele>283.600006103515625</ele>
        <time>2019-04-26T08:30:56.000Z</time>
      </trkpt>
      <trkpt lat="39.18338173069059848785400390625" lon="-7.64796084724366664886474609375">
        <ele>283.399993896484375</ele>
        <time>2019-04-26T08:31:06.000Z</time>
      </trkpt>
      <trkpt lat="39.1837395541369915008544921875" lon="-7.64852754771709442138671875">
        <ele>281.79998779296875</ele>
        <time>2019-04-26T08:31:16.000Z</time>
      </trkpt>
      <trkpt lat="39.18410651385784149169921875" lon="-7.64909776858985424041748046875">
        <ele>280.399993896484375</ele>
        <time>2019-04-26T08:31:26.000Z</time>
      </trkpt>
      <trkpt lat="39.18445696122944355010986328125" lon="-7.64964862726628780364990234375">
        <ele>278.399993896484375</ele>
        <time>2019-04-26T08:31:35.000Z</time>
      </trkpt>
      <trkpt lat="39.184821657836437225341796875" lon="-7.65022731386125087738037109375">
        <ele>277.600006103515625</ele>
        <time>2019-04-26T08:31:44.000Z</time>
      </trkpt>
      <trkpt lat="39.1851792298257350921630859375" lon="-7.6507837884128093719482421875">
        <ele>276.20001220703125</ele>
        <time>2019-04-26T08:31:52.000Z</time>
      </trkpt>
      <trkpt lat="39.1855466924607753753662109375" lon="-7.65135803259909152984619140625">
        <ele>274.20001220703125</ele>
        <time>2019-04-26T08:32:00.000Z</time>
      </trkpt>
      <trkpt lat="39.1858913563191890716552734375" lon="-7.651907466351985931396484375">
        <ele>273.20001220703125</ele>
        <time>2019-04-26T08:32:08.000Z</time>
      </trkpt>
      <trkpt lat="39.18626091443002223968505859375" lon="-7.65249528922140598297119140625">
        <ele>273</ele>
        <time>2019-04-26T08:32:17.000Z</time>
      </trkpt>
      <trkpt lat="39.18661429546773433685302734375" lon="-7.6530492492020130157470703125">
        <ele>271.600006103515625</ele>
        <time>2019-04-26T08:32:27.000Z</time>
      </trkpt>
      <trkpt lat="39.1869704425334930419921875" lon="-7.6536094956099987030029296875">
        <ele>272</ele>
        <time>2019-04-26T08:32:38.000Z</time>
      </trkpt>
      <trkpt lat="39.18732583522796630859375" lon="-7.65416446141898632049560546875">
        <ele>273</ele>
        <time>2019-04-26T08:32:51.000Z</time>
      </trkpt>
      <trkpt lat="39.187633283436298370361328125" lon="-7.65476561151444911956787109375">
        <ele>274.20001220703125</ele>
        <time>2019-04-26T08:33:06.000Z</time>
      </trkpt>
      <trkpt lat="39.18812471441924571990966796875" lon="-7.65500633977353572845458984375">
        <ele>276.600006103515625</ele>
        <time>2019-04-26T08:33:22.000Z</time>
      </trkpt>
      <trkpt lat="39.1886547021567821502685546875" lon="-7.6551640033721923828125">
        <ele>278.79998779296875</ele>
        <time>2019-04-26T08:33:36.000Z</time>
      </trkpt>
      <trkpt lat="39.18885134160518646240234375" lon="-7.65522100031375885009765625">
        <ele>278.79998779296875</ele>
        <time>2019-04-26T08:33:41.000Z</time>
      </trkpt>
      <trkpt lat="39.1894426010549068450927734375" lon="-7.6552570424973964691162109375">
        <ele>279</ele>
        <time>2019-04-26T08:33:53.000Z</time>
      </trkpt>
      <trkpt lat="39.19002606533467769622802734375" lon="-7.6553026400506496429443359375">
        <ele>279</ele>
        <time>2019-04-26T08:34:04.000Z</time>
      </trkpt>
      <trkpt lat="39.1906227730214595794677734375" lon="-7.65534211881458759307861328125">
        <ele>276.20001220703125</ele>
        <time>2019-04-26T08:34:14.000Z</time>
      </trkpt>
      <trkpt lat="39.19118754565715789794921875" lon="-7.6553747244179248809814453125">
        <ele>273.79998779296875</ele>
        <time>2019-04-26T08:34:23.000Z</time>
      </trkpt>
      <trkpt lat="39.19177536852657794952392578125" lon="-7.65540582127869129180908203125">
        <ele>270.600006103515625</ele>
        <time>2019-04-26T08:34:32.000Z</time>
      </trkpt>
      <trkpt lat="39.1923159174621105194091796875" lon="-7.65543851070106029510498046875">
        <ele>269.20001220703125</ele>
        <time>2019-04-26T08:34:40.000Z</time>
      </trkpt>
      <trkpt lat="39.19292025268077850341796875" lon="-7.65546063892543315887451171875">
        <ele>267.399993896484375</ele>
        <time>2019-04-26T08:34:49.000Z</time>
      </trkpt>
      <trkpt lat="39.19349416159093379974365234375" lon="-7.65548276714980602264404296875">
        <ele>265.399993896484375</ele>
        <time>2019-04-26T08:34:58.000Z</time>
      </trkpt>
      <trkpt lat="39.1939071379601955413818359375" lon="-7.65551445074379444122314453125">
        <ele>264.79998779296875</ele>
        <time>2019-04-26T08:35:05.000Z</time>
      </trkpt>
      <trkpt lat="39.19407972134649753570556640625" lon="-7.65510943718254566192626953125">
        <ele>263.600006103515625</ele>
        <time>2019-04-26T08:35:13.000Z</time>
      </trkpt>
      <trkpt lat="39.194176197052001953125" lon="-7.65444693155586719512939453125">
        <ele>263.399993896484375</ele>
        <time>2019-04-26T08:35:25.000Z</time>
      </trkpt>
      <trkpt lat="39.19423185288906097412109375" lon="-7.6541985757648944854736328125">
        <ele>263.600006103515625</ele>
        <time>2019-04-26T08:35:33.000Z</time>
      </trkpt>
      <trkpt lat="39.19420427642762660980224609375" lon="-7.65419145114719867706298828125">
        <ele>263.600006103515625</ele>
        <time>2019-04-26T08:37:08.000Z</time>
      </trkpt>
      <trkpt lat="39.1942055337131023406982421875" lon="-7.65432271175086498260498046875">
        <ele>263.399993896484375</ele>
        <time>2019-04-26T08:37:14.000Z</time>
      </trkpt>
      <trkpt lat="39.194185920059680938720703125" lon="-7.6544574089348316192626953125">
        <ele>263.399993896484375</ele>
        <time>2019-04-26T08:37:19.000Z</time>
      </trkpt>
      <trkpt lat="39.19409933499991893768310546875" lon="-7.6551997102797031402587890625">
        <ele>263.79998779296875</ele>
        <time>2019-04-26T08:37:31.000Z</time>
      </trkpt>
      <trkpt lat="39.19408206827938556671142578125" lon="-7.65539308078587055206298828125">
        <ele>264.399993896484375</ele>
        <time>2019-04-26T08:37:34.000Z</time>
      </trkpt>
      <trkpt lat="39.1941766999661922454833984375" lon="-7.65568208880722522735595703125">
        <ele>264</ele>
        <time>2019-04-26T08:37:40.000Z</time>
      </trkpt>
      <trkpt lat="39.19420595280826091766357421875" lon="-7.655721567571163177490234375">
        <ele>263.79998779296875</ele>
        <time>2019-04-26T08:37:41.000Z</time>
      </trkpt>
      <trkpt lat="39.1946817934513092041015625" lon="-7.6560942269861698150634765625">
        <ele>262.399993896484375</ele>
        <time>2019-04-26T08:37:53.000Z</time>
      </trkpt>
      <trkpt lat="39.19518378563225269317626953125" lon="-7.65639270655810832977294921875">
        <ele>260.79998779296875</ele>
        <time>2019-04-26T08:38:09.000Z</time>
      </trkpt>
      <trkpt lat="39.19572156853973865509033203125" lon="-7.65634023584425449371337890625">
        <ele>262.20001220703125</ele>
        <time>2019-04-26T08:38:29.000Z</time>
      </trkpt>
      <trkpt lat="39.19579650275409221649169921875" lon="-7.6562585122883319854736328125">
        <ele>262.399993896484375</ele>
        <time>2019-04-26T08:38:35.000Z</time>
      </trkpt>
      <trkpt lat="39.19581192545592784881591796875" lon="-7.65624769963324069976806640625">
        <ele>262.600006103515625</ele>
        <time>2019-04-26T08:38:44.000Z</time>
      </trkpt>
      <trkpt lat="39.195879064500331878662109375" lon="-7.65629933215677738189697265625">
        <ele>262.79998779296875</ele>
        <time>2019-04-26T08:38:50.000Z</time>
      </trkpt>
      <trkpt lat="39.195873700082302093505859375" lon="-7.6563128270208835601806640625">
        <ele>262.79998779296875</ele>
        <time>2019-04-26T08:38:54.000Z</time>
      </trkpt>
      <trkpt lat="39.19586339034140110015869140625" lon="-7.656329087913036346435546875">
        <ele>262.79998779296875</ele>
        <time>2019-04-26T08:38:55.000Z</time>
      </trkpt>
      <trkpt lat="39.19566457159817218780517578125" lon="-7.65641617588698863983154296875">
        <ele>261.79998779296875</ele>
        <time>2019-04-26T08:39:01.000Z</time>
      </trkpt>
      <trkpt lat="39.19524614699184894561767578125" lon="-7.65647099353373050689697265625">
        <ele>260.399993896484375</ele>
        <time>2019-04-26T08:39:09.000Z</time>
      </trkpt>
      <trkpt lat="39.1950397007167339324951171875" lon="-7.65647870488464832305908203125">
        <ele>261.20001220703125</ele>
        <time>2019-04-26T08:39:15.000Z</time>
      </trkpt>
      <trkpt lat="39.19501480646431446075439453125" lon="-7.6564888469874858856201171875">
        <ele>261.20001220703125</ele>
        <time>2019-04-26T08:39:19.000Z</time>
      </trkpt>
      <trkpt lat="39.19503827579319477081298828125" lon="-7.65644249506294727325439453125">
        <ele>261.20001220703125</ele>
        <time>2019-04-26T08:40:38.000Z</time>
      </trkpt>
      <trkpt lat="39.1951855458319187164306640625" lon="-7.65641056001186370849609375">
        <ele>260.600006103515625</ele>
        <time>2019-04-26T08:40:43.000Z</time>
      </trkpt>
      <trkpt lat="39.19526441954076290130615234375" lon="-7.65640578232705593109130859375">
        <ele>260.399993896484375</ele>
        <time>2019-04-26T08:40:45.000Z</time>
      </trkpt>
      <trkpt lat="39.1958212293684482574462890625" lon="-7.65633285976946353912353515625">
        <ele>262.600006103515625</ele>
        <time>2019-04-26T08:40:59.000Z</time>
      </trkpt>
      <trkpt lat="39.196371920406818389892578125" lon="-7.656416594982147216796875">
        <ele>265</ele>
        <time>2019-04-26T08:41:18.000Z</time>
      </trkpt>
      <trkpt lat="39.19688883237540721893310546875" lon="-7.656658329069614410400390625">
        <ele>268.600006103515625</ele>
        <time>2019-04-26T08:41:38.000Z</time>
      </trkpt>
      <trkpt lat="39.197392500936985015869140625" lon="-7.65698497183620929718017578125">
        <ele>271.20001220703125</ele>
        <time>2019-04-26T08:41:57.000Z</time>
      </trkpt>
      <trkpt lat="39.19789667241275310516357421875" lon="-7.657315470278263092041015625">
        <ele>274</ele>
        <time>2019-04-26T08:42:11.000Z</time>
      </trkpt>
      <trkpt lat="39.19835038483142852783203125" lon="-7.65770279802381992340087890625">
        <ele>273</ele>
        <time>2019-04-26T08:42:25.000Z</time>
      </trkpt>
      <trkpt lat="39.198875091969966888427734375" lon="-7.65784394927322864532470703125">
        <ele>272.600006103515625</ele>
        <time>2019-04-26T08:42:51.000Z</time>
      </trkpt>
      <trkpt lat="39.1991481743752956390380859375" lon="-7.65785182826220989227294921875">
        <ele>273.600006103515625</ele>
        <time>2019-04-26T08:43:02.000Z</time>
      </trkpt>
      <trkpt lat="39.19920525513589382171630859375" lon="-7.657963223755359649658203125">
        <ele>273.79998779296875</ele>
        <time>2019-04-26T08:43:07.000Z</time>
      </trkpt>
      <trkpt lat="39.19922671280801296234130859375" lon="-7.65804964117705821990966796875">
        <ele>274</ele>
        <time>2019-04-26T08:43:13.000Z</time>
      </trkpt>
      <trkpt lat="39.19929041527211666107177734375" lon="-7.6581876911222934722900390625">
        <ele>274.20001220703125</ele>
        <time>2019-04-26T08:45:01.000Z</time>
      </trkpt>
      <trkpt lat="39.1992779262363910675048828125" lon="-7.6582285948097705841064453125">
        <ele>274.20001220703125</ele>
        <time>2019-04-26T08:45:03.000Z</time>
      </trkpt>
      <trkpt lat="39.19939938001334667205810546875" lon="-7.6583855040371417999267578125">
        <ele>274.79998779296875</ele>
        <time>2019-04-26T08:45:11.000Z</time>
      </trkpt>
      <trkpt lat="39.19941564090549945831298828125" lon="-7.65838843770325183868408203125">
        <ele>274.79998779296875</ele>
        <time>2019-04-26T08:45:12.000Z</time>
      </trkpt>
      <trkpt lat="39.1994375176727771759033203125" lon="-7.6583922095596790313720703125">
        <ele>275</ele>
        <time>2019-04-26T08:45:16.000Z</time>
      </trkpt>
      <trkpt lat="39.19938437640666961669921875" lon="-7.65834904275834560394287109375">
        <ele>274.600006103515625</ele>
        <time>2019-04-26T08:53:16.000Z</time>
      </trkpt>
      <trkpt lat="39.1991039179265499114990234375" lon="-7.65826807357370853424072265625">
        <ele>273.399993896484375</ele>
        <time>2019-04-26T08:53:34.000Z</time>
      </trkpt>
      <trkpt lat="39.1991112940013408660888671875" lon="-7.65825768001377582550048828125">
        <ele>273.399993896484375</ele>
        <time>2019-04-26T08:53:48.000Z</time>
      </trkpt>
      <trkpt lat="39.19958529062569141387939453125" lon="-7.65798761509358882904052734375">
        <ele>275.399993896484375</ele>
        <time>2019-04-26T08:54:12.000Z</time>
      </trkpt>
      <trkpt lat="39.20014587230980396270751953125" lon="-7.65801359899342060089111328125">
        <ele>277.600006103515625</ele>
        <time>2019-04-26T08:54:33.000Z</time>
      </trkpt>
      <trkpt lat="39.2003089003264904022216796875" lon="-7.65795408748090267181396484375">
        <ele>278</ele>
        <time>2019-04-26T08:54:39.000Z</time>
      </trkpt>
      <trkpt lat="39.20027696527540683746337890625" lon="-7.65758134424686431884765625">
        <ele>277.20001220703125</ele>
        <time>2019-04-26T08:54:46.000Z</time>
      </trkpt>
      <trkpt lat="39.20024335384368896484375" lon="-7.65724346973001956939697265625">
        <ele>277</ele>
        <time>2019-04-26T08:54:51.000Z</time>
      </trkpt>
      <trkpt lat="39.20032851397991180419921875" lon="-7.65653955750167369842529296875">
        <ele>277.20001220703125</ele>
        <time>2019-04-26T08:55:04.000Z</time>
      </trkpt>
      <trkpt lat="39.200403280556201934814453125" lon="-7.6562927104532718658447265625">
        <ele>277.399993896484375</ele>
        <time>2019-04-26T08:55:11.000Z</time>
      </trkpt>
      <trkpt lat="39.2005150951445102691650390625" lon="-7.6562957279384136199951171875">
        <ele>277.79998779296875</ele>
        <time>2019-04-26T08:55:15.000Z</time>
      </trkpt>
      <trkpt lat="39.20105539262294769287109375" lon="-7.6564412377774715423583984375">
        <ele>278.600006103515625</ele>
        <time>2019-04-26T08:55:31.000Z</time>
      </trkpt>
      <trkpt lat="39.20160281471908092498779296875" lon="-7.65641483478248119354248046875">
        <ele>279.20001220703125</ele>
        <time>2019-04-26T08:55:47.000Z</time>
      </trkpt>
      <trkpt lat="39.2020701058208942413330078125" lon="-7.65603966079652309417724609375">
        <ele>280.79998779296875</ele>
        <time>2019-04-26T08:56:04.000Z</time>
      </trkpt>
      <trkpt lat="39.20257209800183773040771484375" lon="-7.6557643152773380279541015625">
        <ele>283</ele>
        <time>2019-04-26T08:56:21.000Z</time>
      </trkpt>
      <trkpt lat="39.20310317538678646087646484375" lon="-7.65550531446933746337890625">
        <ele>284.600006103515625</ele>
        <time>2019-04-26T08:56:39.000Z</time>
      </trkpt>
      <trkpt lat="39.203598797321319580078125" lon="-7.6551889814436435699462890625">
        <ele>286.20001220703125</ele>
        <time>2019-04-26T08:56:57.000Z</time>
      </trkpt>
      <trkpt lat="39.204114116728305816650390625" lon="-7.654946744441986083984375">
        <ele>286.600006103515625</ele>
        <time>2019-04-26T08:57:14.000Z</time>
      </trkpt>
      <trkpt lat="39.2043590359389781951904296875" lon="-7.6548111252486705780029296875">
        <ele>286.79998779296875</ele>
        <time>2019-04-26T08:57:23.000Z</time>
      </trkpt>
      <trkpt lat="39.2049117386341094970703125" lon="-7.65486720018088817596435546875">
        <ele>288.20001220703125</ele>
        <time>2019-04-26T08:57:44.000Z</time>
      </trkpt>
      <trkpt lat="39.20541800558567047119140625" lon="-7.6551289670169353485107421875">
        <ele>289.399993896484375</ele>
        <time>2019-04-26T08:58:05.000Z</time>
      </trkpt>
      <trkpt lat="39.20550425536930561065673828125" lon="-7.65520415268838405609130859375">
        <ele>289.600006103515625</ele>
        <time>2019-04-26T08:58:10.000Z</time>
      </trkpt>
      <trkpt lat="39.205499477684497833251953125" lon="-7.6551950164139270782470703125">
        <ele>289.600006103515625</ele>
        <time>2019-04-26T08:58:11.000Z</time>
      </trkpt>
      <trkpt lat="39.2055640183389186859130859375" lon="-7.6552285440266132354736328125">
        <ele>289.79998779296875</ele>
        <time>2019-04-26T08:58:17.000Z</time>
      </trkpt>
      <trkpt lat="39.20603348873555660247802734375" lon="-7.65531563200056552886962890625">
        <ele>291.399993896484375</ele>
        <time>2019-04-26T08:58:40.000Z</time>
      </trkpt>
      <trkpt lat="39.20603583566844463348388671875" lon="-7.6553147099912166595458984375">
        <ele>291.399993896484375</ele>
        <time>2019-04-26T08:58:42.000Z</time>
      </trkpt>
      <trkpt lat="39.20623113401234149932861328125" lon="-7.6553365029394626617431640625">
        <ele>291.79998779296875</ele>
        <time>2019-04-26T08:59:09.000Z</time>
      </trkpt>
      <trkpt lat="39.2067639715969562530517578125" lon="-7.65547287650406360626220703125">
        <ele>292.79998779296875</ele>
        <time>2019-04-26T08:59:32.000Z</time>
      </trkpt>
      <trkpt lat="39.207318685948848724365234375" lon="-7.65534698031842708587646484375">
        <ele>294.79998779296875</ele>
        <time>2019-04-26T08:59:53.000Z</time>
      </trkpt>
      <trkpt lat="39.20785403810441493988037109375" lon="-7.6554119400680065155029296875">
        <ele>295.600006103515625</ele>
        <time>2019-04-26T09:00:15.000Z</time>
      </trkpt>
      <trkpt lat="39.2083960957825183868408203125" lon="-7.65558988787233829498291015625">
        <ele>296.20001220703125</ele>
        <time>2019-04-26T09:00:36.000Z</time>
      </trkpt>
      <trkpt lat="39.20887361280620098114013671875" lon="-7.65591208823025226593017578125">
        <ele>297</ele>
        <time>2019-04-26T09:00:56.000Z</time>
      </trkpt>
      <trkpt lat="39.20913596637547016143798828125" lon="-7.65616857446730136871337890625">
        <ele>298.20001220703125</ele>
        <time>2019-04-26T09:01:08.000Z</time>
      </trkpt>
      <trkpt lat="39.2091484554111957550048828125" lon="-7.65640092082321643829345703125">
        <ele>297.600006103515625</ele>
        <time>2019-04-26T09:01:17.000Z</time>
      </trkpt>
      <trkpt lat="39.20917536132037639617919921875" lon="-7.65643260441720485687255859375">
        <ele>297.600006103515625</ele>
        <time>2019-04-26T09:01:21.000Z</time>
      </trkpt>
      <trkpt lat="39.20924794860184192657470703125" lon="-7.6564177684485912322998046875">
        <ele>297.600006103515625</ele>
        <time>2019-04-26T09:01:25.000Z</time>
      </trkpt>
      <trkpt lat="39.2098002322018146514892578125" lon="-7.65637099742889404296875">
        <ele>299.399993896484375</ele>
        <time>2019-04-26T09:01:45.000Z</time>
      </trkpt>
      <trkpt lat="39.2103593051433563232421875" lon="-7.65632363967597484588623046875">
        <ele>302.79998779296875</ele>
        <time>2019-04-26T09:02:02.000Z</time>
      </trkpt>
      <trkpt lat="39.2109022848308086395263671875" lon="-7.656282484531402587890625">
        <ele>305</ele>
        <time>2019-04-26T09:02:18.000Z</time>
      </trkpt>
      <trkpt lat="39.21144098974764347076416015625" lon="-7.656104452908039093017578125">
        <ele>305.399993896484375</ele>
        <time>2019-04-26T09:02:32.000Z</time>
      </trkpt>
      <trkpt lat="39.2117656208574771881103515625" lon="-7.65593857504427433013916015625">
        <ele>305.20001220703125</ele>
        <time>2019-04-26T09:02:40.000Z</time>
      </trkpt>
      <trkpt lat="39.21197240240871906280517578125" lon="-7.65581653453409671783447265625">
        <ele>305</ele>
        <time>2019-04-26T09:02:45.000Z</time>
      </trkpt>
      <trkpt lat="39.21251370571553707122802734375" lon="-7.65552501194179058074951171875">
        <ele>302</ele>
        <time>2019-04-26T09:02:56.000Z</time>
      </trkpt>
      <trkpt lat="39.21303413808345794677734375" lon="-7.65533306635916233062744140625">
        <ele>298.79998779296875</ele>
        <time>2019-04-26T09:03:05.000Z</time>
      </trkpt>
      <trkpt lat="39.21360519714653491973876953125" lon="-7.65536424703896045684814453125">
        <ele>297.399993896484375</ele>
        <time>2019-04-26T09:03:15.000Z</time>
      </trkpt>
      <trkpt lat="39.21416603028774261474609375" lon="-7.65538872219622135162353515625">
        <ele>295.600006103515625</ele>
        <time>2019-04-26T09:03:25.000Z</time>
      </trkpt>
      <trkpt lat="39.21428848989307880401611328125" lon="-7.6553827710449695587158203125">
        <ele>295.20001220703125</ele>
        <time>2019-04-26T09:03:27.000Z</time>
      </trkpt>
      <trkpt lat="39.2145167291164398193359375" lon="-7.65537732280790805816650390625">
        <ele>294.399993896484375</ele>
        <time>2019-04-26T09:03:31.000Z</time>
      </trkpt>
      <trkpt lat="39.21461454592645168304443359375" lon="-7.65540313906967639923095703125">
        <ele>294.20001220703125</ele>
        <time>2019-04-26T09:03:37.000Z</time>
      </trkpt>
      <trkpt lat="39.214580766856670379638671875" lon="-7.6553757302463054656982421875">
        <ele>294</ele>
        <time>2019-04-26T09:03:52.000Z</time>
      </trkpt>
      <trkpt lat="39.21471185982227325439453125" lon="-7.655193172395229339599609375">
        <ele>292.20001220703125</ele>
        <time>2019-04-26T09:03:59.000Z</time>
      </trkpt>
      <trkpt lat="39.2147546075284481048583984375" lon="-7.6551678590476512908935546875">
        <ele>292</ele>
        <time>2019-04-26T09:04:00.000Z</time>
      </trkpt>
      <trkpt lat="39.21529096551239490509033203125" lon="-7.65486217103898525238037109375">
        <ele>288.600006103515625</ele>
        <time>2019-04-26T09:04:10.000Z</time>
      </trkpt>
      <trkpt lat="39.215863533318042755126953125" lon="-7.6546247117221355438232421875">
        <ele>286.20001220703125</ele>
        <time>2019-04-26T09:04:18.000Z</time>
      </trkpt>
      <trkpt lat="39.21643073670566082000732421875" lon="-7.65440787188708782196044921875">
        <ele>283.20001220703125</ele>
        <time>2019-04-26T09:04:25.000Z</time>
      </trkpt>
      <trkpt lat="39.21701462008059024810791015625" lon="-7.65421307645738124847412109375">
        <ele>280</ele>
        <time>2019-04-26T09:04:32.000Z</time>
      </trkpt>
      <trkpt lat="39.21758810989558696746826171875" lon="-7.65398584306240081787109375">
        <ele>278</ele>
        <time>2019-04-26T09:04:39.000Z</time>
      </trkpt>
      <trkpt lat="39.21814483590424060821533203125" lon="-7.65378442592918872833251953125">
        <ele>275.399993896484375</ele>
        <time>2019-04-26T09:04:46.000Z</time>
      </trkpt>
      <trkpt lat="39.21869586221873760223388671875" lon="-7.65365836210548877716064453125">
        <ele>272</ele>
        <time>2019-04-26T09:04:53.000Z</time>
      </trkpt>
      <trkpt lat="39.21924269758164882659912109375" lon="-7.6536282710731029510498046875">
        <ele>271.399993896484375</ele>
        <time>2019-04-26T09:05:00.000Z</time>
      </trkpt>
      <trkpt lat="39.21983982436358928680419921875" lon="-7.65359499491751194000244140625">
        <ele>269.79998779296875</ele>
        <time>2019-04-26T09:05:08.000Z</time>
      </trkpt>
      <trkpt lat="39.22042320482432842254638671875" lon="-7.6534562744200229644775390625">
        <ele>267.399993896484375</ele>
        <time>2019-04-26T09:05:17.000Z</time>
      </trkpt>
      <trkpt lat="39.2209622450172901153564453125" lon="-7.653321661055088043212890625">
        <ele>266.20001220703125</ele>
        <time>2019-04-26T09:05:27.000Z</time>
      </trkpt>
      <trkpt lat="39.22106064856052398681640625" lon="-7.6533255167305469512939453125">
        <ele>266</ele>
        <time>2019-04-26T09:05:29.000Z</time>
      </trkpt>
      <trkpt lat="39.22159046865999698638916015625" lon="-7.6532993651926517486572265625">
        <ele>265.20001220703125</ele>
        <time>2019-04-26T09:05:39.000Z</time>
      </trkpt>
      <trkpt lat="39.22186891548335552215576171875" lon="-7.653224430978298187255859375">
        <ele>264.600006103515625</ele>
        <time>2019-04-26T09:05:44.000Z</time>
      </trkpt>
      <trkpt lat="39.22202356159687042236328125" lon="-7.65299770049750804901123046875">
        <ele>263.600006103515625</ele>
        <time>2019-04-26T09:05:48.000Z</time>
      </trkpt>
      <trkpt lat="39.22223637811839580535888671875" lon="-7.65296660363674163818359375">
        <ele>263.20001220703125</ele>
        <time>2019-04-26T09:05:52.000Z</time>
      </trkpt>
      <trkpt lat="39.22244207002222537994384765625" lon="-7.65323792584240436553955078125">
        <ele>263.600006103515625</ele>
        <time>2019-04-26T09:05:57.000Z</time>
      </trkpt>
      <trkpt lat="39.22249169088900089263916015625" lon="-7.65328469686210155487060546875">
        <ele>263.600006103515625</ele>
        <time>2019-04-26T09:05:58.000Z</time>
      </trkpt>
      <trkpt lat="39.2227382026612758636474609375" lon="-7.6533674262464046478271484375">
        <ele>263.20001220703125</ele>
        <time>2019-04-26T09:06:02.000Z</time>
      </trkpt>
      <trkpt lat="39.2232820205390453338623046875" lon="-7.6534648239612579345703125">
        <ele>261.399993896484375</ele>
        <time>2019-04-26T09:06:10.000Z</time>
      </trkpt>
      <trkpt lat="39.22349072992801666259765625" lon="-7.65348217450082302093505859375">
        <ele>260.600006103515625</ele>
        <time>2019-04-26T09:06:13.000Z</time>
      </trkpt>
      <trkpt lat="39.22379692085087299346923828125" lon="-7.65329408459365367889404296875">
        <ele>259.20001220703125</ele>
        <time>2019-04-26T09:06:18.000Z</time>
      </trkpt>
      <trkpt lat="39.22400747425854206085205078125" lon="-7.65341587364673614501953125">
        <ele>258.20001220703125</ele>
        <time>2019-04-26T09:06:22.000Z</time>
      </trkpt>
      <trkpt lat="39.22413689084351062774658203125" lon="-7.65351989306509494781494140625">
        <ele>257.79998779296875</ele>
        <time>2019-04-26T09:06:25.000Z</time>
      </trkpt>
      <trkpt lat="39.22468255273997783660888671875" lon="-7.6536457054316997528076171875">
        <ele>255.600006103515625</ele>
        <time>2019-04-26T09:06:34.000Z</time>
      </trkpt>
      <trkpt lat="39.22527649439871311187744140625" lon="-7.65382449142634868621826171875">
        <ele>252</ele>
        <time>2019-04-26T09:06:42.000Z</time>
      </trkpt>
      <trkpt lat="39.225355200469493865966796875" lon="-7.653835304081439971923828125">
        <ele>251.8000030517578125</ele>
        <time>2019-04-26T09:06:43.000Z</time>
      </trkpt>
      <trkpt lat="39.2255862057209014892578125" lon="-7.65380856581032276153564453125">
        <ele>251</ele>
        <time>2019-04-26T09:06:46.000Z</time>
      </trkpt>
      <trkpt lat="39.22616078518331050872802734375" lon="-7.65362684614956378936767578125">
        <ele>249.1999969482421875</ele>
        <time>2019-04-26T09:06:54.000Z</time>
      </trkpt>
      <trkpt lat="39.22673913650214672088623046875" lon="-7.65358057804405689239501953125">
        <ele>247</ele>
        <time>2019-04-26T09:07:03.000Z</time>
      </trkpt>
      <trkpt lat="39.226846508681774139404296875" lon="-7.6535390876233577728271484375">
        <ele>246.8000030517578125</ele>
        <time>2019-04-26T09:07:05.000Z</time>
      </trkpt>
      <trkpt lat="39.2270039208233356475830078125" lon="-7.65337966382503509521484375">
        <ele>246.1999969482421875</ele>
        <time>2019-04-26T09:07:09.000Z</time>
      </trkpt>
      <trkpt lat="39.2270283959805965423583984375" lon="-7.653324343264102935791015625">
        <ele>246.1999969482421875</ele>
        <time>2019-04-26T09:07:10.000Z</time>
      </trkpt>
      <trkpt lat="39.22711397521197795867919921875" lon="-7.6531712897121906280517578125">
        <ele>247.1999969482421875</ele>
        <time>2019-04-26T09:07:13.000Z</time>
      </trkpt>
      <trkpt lat="39.227282367646694183349609375" lon="-7.65306307934224605560302734375">
        <ele>248.1999969482421875</ele>
        <time>2019-04-26T09:07:17.000Z</time>
      </trkpt>
      <trkpt lat="39.22741689719259738922119140625" lon="-7.6530569605529308319091796875">
        <ele>248.399993896484375</ele>
        <time>2019-04-26T09:07:20.000Z</time>
      </trkpt>
      <trkpt lat="39.2279795743525028228759765625" lon="-7.6530911587178707122802734375">
        <ele>249.600006103515625</ele>
        <time>2019-04-26T09:07:35.000Z</time>
      </trkpt>
      <trkpt lat="39.22849631868302822113037109375" lon="-7.65283827669918537139892578125">
        <ele>253.1999969482421875</ele>
        <time>2019-04-26T09:07:51.000Z</time>
      </trkpt>
      <trkpt lat="39.22873252071440219879150390625" lon="-7.65224886126816272735595703125">
        <ele>257.600006103515625</ele>
        <time>2019-04-26T09:08:12.000Z</time>
      </trkpt>
      <trkpt lat="39.228711985051631927490234375" lon="-7.65154193155467510223388671875">
        <ele>261.79998779296875</ele>
        <time>2019-04-26T09:08:35.000Z</time>
      </trkpt>
      <trkpt lat="39.22903896309435367584228515625" lon="-7.651007585227489471435546875">
        <ele>264.399993896484375</ele>
        <time>2019-04-26T09:08:58.000Z</time>
      </trkpt>
      <trkpt lat="39.22951589338481426239013671875" lon="-7.650685049593448638916015625">
        <ele>267</ele>
        <time>2019-04-26T09:09:20.000Z</time>
      </trkpt>
      <trkpt lat="39.23005987890064716339111328125" lon="-7.65073123387992382049560546875">
        <ele>268.79998779296875</ele>
        <time>2019-04-26T09:09:42.000Z</time>
      </trkpt>
      <trkpt lat="39.23060621134936809539794921875" lon="-7.6508287154138088226318359375">
        <ele>271.399993896484375</ele>
        <time>2019-04-26T09:10:06.000Z</time>
      </trkpt>
      <trkpt lat="39.23114265315234661102294921875" lon="-7.65101286582648754119873046875">
        <ele>274</ele>
        <time>2019-04-26T09:10:28.000Z</time>
      </trkpt>
      <trkpt lat="39.23165311105549335479736328125" lon="-7.651299275457859039306640625">
        <ele>277</ele>
        <time>2019-04-26T09:10:50.000Z</time>
      </trkpt>
      <trkpt lat="39.23181898891925811767578125" lon="-7.651943676173686981201171875">
        <ele>275.600006103515625</ele>
        <time>2019-04-26T09:11:12.000Z</time>
      </trkpt>
      <trkpt lat="39.232081510126590728759765625" lon="-7.65253803692758083343505859375">
        <ele>279.20001220703125</ele>
        <time>2019-04-26T09:11:39.000Z</time>
      </trkpt>
      <trkpt lat="39.23260495997965335845947265625" lon="-7.65269880183041095733642578125">
        <ele>284</ele>
        <time>2019-04-26T09:12:06.000Z</time>
      </trkpt>
      <trkpt lat="39.23290503211319446563720703125" lon="-7.65257927589118480682373046875">
        <ele>287</ele>
        <time>2019-04-26T09:12:22.000Z</time>
      </trkpt>
      <trkpt lat="39.23339151777327060699462890625" lon="-7.65227325260639190673828125">
        <ele>290.399993896484375</ele>
        <time>2019-04-26T09:12:47.000Z</time>
      </trkpt>
      <trkpt lat="39.23394422046840190887451171875" lon="-7.65240208245813846588134765625">
        <ele>290.79998779296875</ele>
        <time>2019-04-26T09:13:10.000Z</time>
      </trkpt>
      <trkpt lat="39.23445434309542179107666015625" lon="-7.65265555121004581451416015625">
        <ele>289.600006103515625</ele>
        <time>2019-04-26T09:13:27.000Z</time>
      </trkpt>
      <trkpt lat="39.23489992506802082061767578125" lon="-7.65287540853023529052734375">
        <ele>290.399993896484375</ele>
        <time>2019-04-26T09:13:39.000Z</time>
      </trkpt>
      <trkpt lat="39.23518993891775608062744140625" lon="-7.652950845658779144287109375">
        <ele>291.600006103515625</ele>
        <time>2019-04-26T09:13:46.000Z</time>
      </trkpt>
      <trkpt lat="39.23573375679552555084228515625" lon="-7.65291027724742889404296875">
        <ele>294.399993896484375</ele>
        <time>2019-04-26T09:13:58.000Z</time>
      </trkpt>
      <trkpt lat="39.23628411255776882171630859375" lon="-7.65283123590052127838134765625">
        <ele>296.399993896484375</ele>
        <time>2019-04-26T09:14:09.000Z</time>
      </trkpt>
      <trkpt lat="39.2366638965904712677001953125" lon="-7.652807347476482391357421875">
        <ele>296.600006103515625</ele>
        <time>2019-04-26T09:14:17.000Z</time>
      </trkpt>
      <trkpt lat="39.23723311163485050201416015625" lon="-7.65290558338165283203125">
        <ele>294.600006103515625</ele>
        <time>2019-04-26T09:14:30.000Z</time>
      </trkpt>
      <trkpt lat="39.23728264868259429931640625" lon="-7.6529122889041900634765625">
        <ele>294.399993896484375</ele>
        <time>2019-04-26T09:14:31.000Z</time>
      </trkpt>
      <trkpt lat="39.2377324216067790985107421875" lon="-7.652943469583988189697265625">
        <ele>295.20001220703125</ele>
        <time>2019-04-26T09:14:40.000Z</time>
      </trkpt>
      <trkpt lat="39.2382789216935634613037109375" lon="-7.6528319902718067169189453125">
        <ele>295.20001220703125</ele>
        <time>2019-04-26T09:14:50.000Z</time>
      </trkpt>
      <trkpt lat="39.23881628550589084625244140625" lon="-7.652717493474483489990234375">
        <ele>294</ele>
        <time>2019-04-26T09:14:58.000Z</time>
      </trkpt>
      <trkpt lat="39.23935390077531337738037109375" lon="-7.65265119262039661407470703125">
        <ele>290.600006103515625</ele>
        <time>2019-04-26T09:15:05.000Z</time>
      </trkpt>
      <trkpt lat="39.239958487451076507568359375" lon="-7.65272009186446666717529296875">
        <ele>283.399993896484375</ele>
        <time>2019-04-26T09:15:12.000Z</time>
      </trkpt>
      <trkpt lat="39.24050532281398773193359375" lon="-7.6527739875018596649169921875">
        <ele>278.399993896484375</ele>
        <time>2019-04-26T09:15:18.000Z</time>
      </trkpt>
      <trkpt lat="39.24105693586170673370361328125" lon="-7.6528386957943439483642578125">
        <ele>273</ele>
        <time>2019-04-26T09:15:24.000Z</time>
      </trkpt>
      <trkpt lat="39.241235889494419097900390625" lon="-7.6528532803058624267578125">
        <ele>271.600006103515625</ele>
        <time>2019-04-26T09:15:27.000Z</time>
      </trkpt>
      <trkpt lat="39.24135130830109119415283203125" lon="-7.6531215012073516845703125">
        <ele>271</ele>
        <time>2019-04-26T09:15:33.000Z</time>
      </trkpt>
      <trkpt lat="39.24174693413078784942626953125" lon="-7.65361192636191844940185546875">
        <ele>268.79998779296875</ele>
        <time>2019-04-26T09:15:48.000Z</time>
      </trkpt>
      <trkpt lat="39.24192848615348339080810546875" lon="-7.6537194661796092987060546875">
        <ele>267.79998779296875</ele>
        <time>2019-04-26T09:15:53.000Z</time>
      </trkpt>
      <trkpt lat="39.24209461547434329986572265625" lon="-7.65379297547042369842529296875">
        <ele>266.399993896484375</ele>
        <time>2019-04-26T09:15:57.000Z</time>
      </trkpt>
      <trkpt lat="39.24231405369937419891357421875" lon="-7.6538666523993015289306640625">
        <ele>264.399993896484375</ele>
        <time>2019-04-26T09:16:02.000Z</time>
      </trkpt>
      <trkpt lat="39.2426019720733165740966796875" lon="-7.6539476215839385986328125">
        <ele>262.79998779296875</ele>
        <time>2019-04-26T09:16:08.000Z</time>
      </trkpt>
      <trkpt lat="39.2430366575717926025390625" lon="-7.65417971648275852203369140625">
        <ele>259.600006103515625</ele>
        <time>2019-04-26T09:16:17.000Z</time>
      </trkpt>
      <trkpt lat="39.2434076406061649322509765625" lon="-7.65450929291546344757080078125">
        <ele>255.600006103515625</ele>
        <time>2019-04-26T09:16:26.000Z</time>
      </trkpt>
      <trkpt lat="39.24344108439981937408447265625" lon="-7.6545573212206363677978515625">
        <ele>255.399993896484375</ele>
        <time>2019-04-26T09:16:27.000Z</time>
      </trkpt>
      <trkpt lat="39.24365163780748844146728515625" lon="-7.654898464679718017578125">
        <ele>254</ele>
        <time>2019-04-26T09:16:33.000Z</time>
      </trkpt>
      <trkpt lat="39.2438274063169956207275390625" lon="-7.6551775820553302764892578125">
        <ele>252.8000030517578125</ele>
        <time>2019-04-26T09:16:38.000Z</time>
      </trkpt>
      <trkpt lat="39.24389270134270191192626953125" lon="-7.65527942217886447906494140625">
        <ele>252.1999969482421875</ele>
        <time>2019-04-26T09:16:40.000Z</time>
      </trkpt>
      <trkpt lat="39.2442646063864231109619140625" lon="-7.6554853655397891998291015625">
        <ele>250.600006103515625</ele>
        <time>2019-04-26T09:16:53.000Z</time>
      </trkpt>
      <trkpt lat="39.24474296160042285919189453125" lon="-7.65581284649670124053955078125">
        <ele>249.8000030517578125</ele>
        <time>2019-04-26T09:17:07.000Z</time>
      </trkpt>
      <trkpt lat="39.244859218597412109375" lon="-7.6559163630008697509765625">
        <ele>249.8000030517578125</ele>
        <time>2019-04-26T09:17:10.000Z</time>
      </trkpt>
      <trkpt lat="39.24523280002176761627197265625" lon="-7.65649546869099140167236328125">
        <ele>249.1999969482421875</ele>
        <time>2019-04-26T09:17:22.000Z</time>
      </trkpt>
      <trkpt lat="39.24539792351424694061279296875" lon="-7.65671859495341777801513671875">
        <ele>248.600006103515625</ele>
        <time>2019-04-26T09:17:28.000Z</time>
      </trkpt>
      <trkpt lat="39.24566279165446758270263671875" lon="-7.6569411344826221466064453125">
        <ele>247.1999969482421875</ele>
        <time>2019-04-26T09:17:36.000Z</time>
      </trkpt>
      <trkpt lat="39.24576588906347751617431640625" lon="-7.65707843005657196044921875">
        <ele>246.600006103515625</ele>
        <time>2019-04-26T09:17:40.000Z</time>
      </trkpt>
      <trkpt lat="39.245830513536930084228515625" lon="-7.65713232569396495819091796875">
        <ele>246.8000030517578125</ele>
        <time>2019-04-26T09:17:42.000Z</time>
      </trkpt>
      <trkpt lat="39.24588927067816257476806640625" lon="-7.65718496404588222503662109375">
        <ele>247</ele>
        <time>2019-04-26T09:17:44.000Z</time>
      </trkpt>
      <trkpt lat="39.24626813270151615142822265625" lon="-7.6576814241707324981689453125">
        <ele>247.8000030517578125</ele>
        <time>2019-04-26T09:17:58.000Z</time>
      </trkpt>
      <trkpt lat="39.24650802277028560638427734375" lon="-7.65787915326654911041259765625">
        <ele>247.600006103515625</ele>
        <time>2019-04-26T09:18:06.000Z</time>
      </trkpt>
      <trkpt lat="39.24672134220600128173828125" lon="-7.6581179536879062652587890625">
        <ele>247.8000030517578125</ele>
        <time>2019-04-26T09:18:14.000Z</time>
      </trkpt>
      <trkpt lat="39.2469950951635837554931640625" lon="-7.65839883126318454742431640625">
        <ele>248</ele>
        <time>2019-04-26T09:18:23.000Z</time>
      </trkpt>
      <trkpt lat="39.2471680976450443267822265625" lon="-7.65853176824748516082763671875">
        <ele>247.8000030517578125</ele>
        <time>2019-04-26T09:18:29.000Z</time>
      </trkpt>
      <trkpt lat="39.24727932550013065338134765625" lon="-7.65863100998103618621826171875">
        <ele>247.600006103515625</ele>
        <time>2019-04-26T09:18:33.000Z</time>
      </trkpt>
      <trkpt lat="39.2475050501525402069091796875" lon="-7.65903501771390438079833984375">
        <ele>248.1999969482421875</ele>
        <time>2019-04-26T09:18:43.000Z</time>
      </trkpt>
      <trkpt lat="39.2476165294647216796875" lon="-7.65934984199702739715576171875">
        <ele>248.399993896484375</ele>
        <time>2019-04-26T09:18:49.000Z</time>
      </trkpt>
      <trkpt lat="39.24782247282564640045166015625" lon="-7.65998200513422489166259765625">
        <ele>247</ele>
        <time>2019-04-26T09:19:01.000Z</time>
      </trkpt>
      <trkpt lat="39.2478792183101177215576171875" lon="-7.66053990460932254791259765625">
        <ele>245.1999969482421875</ele>
        <time>2019-04-26T09:19:10.000Z</time>
      </trkpt>
      <trkpt lat="39.24790025688707828521728515625" lon="-7.6607833988964557647705078125">
        <ele>244.1999969482421875</ele>
        <time>2019-04-26T09:19:14.000Z</time>
      </trkpt>
      <trkpt lat="39.2479596845805644989013671875" lon="-7.661346495151519775390625">
        <ele>242.600006103515625</ele>
        <time>2019-04-26T09:19:23.000Z</time>
      </trkpt>
      <trkpt lat="39.2480196990072727203369140625" lon="-7.66164916567504405975341796875">
        <ele>241.600006103515625</ele>
        <time>2019-04-26T09:19:28.000Z</time>
      </trkpt>
      <trkpt lat="39.2481206171214580535888671875" lon="-7.66211335547268390655517578125">
        <ele>240.8000030517578125</ele>
        <time>2019-04-26T09:19:36.000Z</time>
      </trkpt>
      <trkpt lat="39.24816596321761608123779296875" lon="-7.66226255334913730621337890625">
        <ele>241</ele>
        <time>2019-04-26T09:19:39.000Z</time>
      </trkpt>
      <trkpt lat="39.24853987991809844970703125" lon="-7.662799246609210968017578125">
        <ele>242.399993896484375</ele>
        <time>2019-04-26T09:19:55.000Z</time>
      </trkpt>
      <trkpt lat="39.2489852942526340484619140625" lon="-7.66323150135576725006103515625">
        <ele>242.600006103515625</ele>
        <time>2019-04-26T09:20:13.000Z</time>
      </trkpt>
      <trkpt lat="39.24948778934776782989501953125" lon="-7.66346083022654056549072265625">
        <ele>245</ele>
        <time>2019-04-26T09:20:36.000Z</time>
      </trkpt>
      <trkpt lat="39.25005340017378330230712890625" lon="-7.66352486796677112579345703125">
        <ele>245.600006103515625</ele>
        <time>2019-04-26T09:20:57.000Z</time>
      </trkpt>
      <trkpt lat="39.2500920407474040985107421875" lon="-7.663548924028873443603515625">
        <ele>245.600006103515625</ele>
        <time>2019-04-26T09:20:58.000Z</time>
      </trkpt>
      <trkpt lat="39.25042404793202877044677734375" lon="-7.66411813907325267791748046875">
        <ele>246.8000030517578125</ele>
        <time>2019-04-26T09:21:14.000Z</time>
      </trkpt>
      <trkpt lat="39.2503937892615795135498046875" lon="-7.66482205130159854888916015625">
        <ele>245.1999969482421875</ele>
        <time>2019-04-26T09:21:32.000Z</time>
      </trkpt>
      <trkpt lat="39.2504390515387058258056640625" lon="-7.6651724986732006072998046875">
        <ele>245.1999969482421875</ele>
        <time>2019-04-26T09:21:39.000Z</time>
      </trkpt>
      <trkpt lat="39.25049747340381145477294921875" lon="-7.66537039540708065032958984375">
        <ele>245.600006103515625</ele>
        <time>2019-04-26T09:21:43.000Z</time>
      </trkpt>
      <trkpt lat="39.2507158219814300537109375" lon="-7.66599736176431179046630859375">
        <ele>246.399993896484375</ele>
        <time>2019-04-26T09:22:00.000Z</time>
      </trkpt>
      <trkpt lat="39.2508065141737461090087890625" lon="-7.66669942997395992279052734375">
        <ele>246.600006103515625</ele>
        <time>2019-04-26T09:22:19.000Z</time>
      </trkpt>
      <trkpt lat="39.2510780878365039825439453125" lon="-7.66730980016291141510009765625">
        <ele>248.600006103515625</ele>
        <time>2019-04-26T09:22:38.000Z</time>
      </trkpt>
      <trkpt lat="39.25158812664449214935302734375" lon="-7.667603082954883575439453125">
        <ele>250.399993896484375</ele>
        <time>2019-04-26T09:22:58.000Z</time>
      </trkpt>
      <trkpt lat="39.2516792379319667816162109375" lon="-7.66763962805271148681640625">
        <ele>250.399993896484375</ele>
        <time>2019-04-26T09:23:02.000Z</time>
      </trkpt>
      <trkpt lat="39.25190999172627925872802734375" lon="-7.66762353479862213134765625">
        <ele>251.399993896484375</ele>
        <time>2019-04-26T09:23:10.000Z</time>
      </trkpt>
      <trkpt lat="39.2524547316133975982666015625" lon="-7.6677353493869304656982421875">
        <ele>252.1999969482421875</ele>
        <time>2019-04-26T09:23:32.000Z</time>
      </trkpt>
      <trkpt lat="39.25296577624976634979248046875" lon="-7.668027542531490325927734375">
        <ele>255.399993896484375</ele>
        <time>2019-04-26T09:23:56.000Z</time>
      </trkpt>
      <trkpt lat="39.2534759826958179473876953125" lon="-7.6682738028466701507568359375">
        <ele>258</ele>
        <time>2019-04-26T09:24:13.000Z</time>
      </trkpt>
      <trkpt lat="39.25398317165672779083251953125" lon="-7.668584771454334259033203125">
        <ele>257.600006103515625</ele>
        <time>2019-04-26T09:24:30.000Z</time>
      </trkpt>
      <trkpt lat="39.2540788091719150543212890625" lon="-7.66864637844264507293701171875">
        <ele>257.20001220703125</ele>
        <time>2019-04-26T09:24:36.000Z</time>
      </trkpt>
      <trkpt lat="39.2543153464794158935546875" lon="-7.66881736926734447479248046875">
        <ele>258.399993896484375</ele>
        <time>2019-04-26T09:24:51.000Z</time>
      </trkpt>
      <trkpt lat="39.254270084202289581298828125" lon="-7.66883195377886295318603515625">
        <ele>258.600006103515625</ele>
        <time>2019-04-26T09:25:02.000Z</time>
      </trkpt>
      <trkpt lat="39.2543984949588775634765625" lon="-7.66892306506633758544921875">
        <ele>259.600006103515625</ele>
        <time>2019-04-26T09:25:12.000Z</time>
      </trkpt>
      <trkpt lat="39.254586584866046905517578125" lon="-7.6689651422202587127685546875">
        <ele>260</ele>
        <time>2019-04-26T09:25:20.000Z</time>
      </trkpt>
      <trkpt lat="39.25510014407336711883544921875" lon="-7.66892733983695507049560546875">
        <ele>259.79998779296875</ele>
        <time>2019-04-26T09:25:37.000Z</time>
      </trkpt>
      <trkpt lat="39.25564371049404144287109375" lon="-7.6691411621868610382080078125">
        <ele>262</ele>
        <time>2019-04-26T09:25:53.000Z</time>
      </trkpt>
      <trkpt lat="39.25594202242791652679443359375" lon="-7.66925239004194736480712890625">
        <ele>262.20001220703125</ele>
        <time>2019-04-26T09:26:01.000Z</time>
      </trkpt>
      <trkpt lat="39.25610178150236606597900390625" lon="-7.66928055323660373687744140625">
        <ele>262.600006103515625</ele>
        <time>2019-04-26T09:26:05.000Z</time>
      </trkpt>
      <trkpt lat="39.25663554109632968902587890625" lon="-7.6692735962569713592529296875">
        <ele>262</ele>
        <time>2019-04-26T09:26:22.000Z</time>
      </trkpt>
      <trkpt lat="39.25706922076642513275146484375" lon="-7.66882390715181827545166015625">
        <ele>258.79998779296875</ele>
        <time>2019-04-26T09:26:38.000Z</time>
      </trkpt>
      <trkpt lat="39.25740365870296955108642578125" lon="-7.66822745092213153839111328125">
        <ele>257.399993896484375</ele>
        <time>2019-04-26T09:26:52.000Z</time>
      </trkpt>
      <trkpt lat="39.257799200713634490966796875" lon="-7.66775823198258876800537109375">
        <ele>258.600006103515625</ele>
        <time>2019-04-26T09:27:04.000Z</time>
      </trkpt>
      <trkpt lat="39.258019141852855682373046875" lon="-7.6676119677722454071044921875">
        <ele>258.600006103515625</ele>
        <time>2019-04-26T09:27:09.000Z</time>
      </trkpt>
      <trkpt lat="39.25824972800910472869873046875" lon="-7.66752772964537143707275390625">
        <ele>259.20001220703125</ele>
        <time>2019-04-26T09:27:14.000Z</time>
      </trkpt>
      <trkpt lat="39.2587787099182605743408203125" lon="-7.6673397235572338104248046875">
        <ele>259</ele>
        <time>2019-04-26T09:27:29.000Z</time>
      </trkpt>
      <trkpt lat="39.25927064381539821624755859375" lon="-7.667546756565570831298828125">
        <ele>260.20001220703125</ele>
        <time>2019-04-26T09:27:39.000Z</time>
      </trkpt>
      <trkpt lat="39.25938539206981658935546875" lon="-7.66756980679929256439208984375">
        <ele>260.20001220703125</ele>
        <time>2019-04-26T09:27:41.000Z</time>
      </trkpt>
      <trkpt lat="39.25970398820936679840087890625" lon="-7.66773216426372528076171875">
        <ele>259</ele>
        <time>2019-04-26T09:27:48.000Z</time>
      </trkpt>
      <trkpt lat="39.26008754409849643707275390625" lon="-7.6677470840513706207275390625">
        <ele>257.399993896484375</ele>
        <time>2019-04-26T09:27:57.000Z</time>
      </trkpt>
      <trkpt lat="39.2606391571462154388427734375" lon="-7.66793123446404933929443359375">
        <ele>258</ele>
        <time>2019-04-26T09:28:10.000Z</time>
      </trkpt>
      <trkpt lat="39.26081928424537181854248046875" lon="-7.66803533770143985748291015625">
        <ele>258</ele>
        <time>2019-04-26T09:28:19.000Z</time>
      </trkpt>
      <trkpt lat="39.26104526035487651824951171875" lon="-7.66804774291813373565673828125">
        <ele>256.79998779296875</ele>
        <time>2019-04-26T09:28:29.000Z</time>
      </trkpt>
      <trkpt lat="39.26154314540326595306396484375" lon="-7.66775655560195446014404296875">
        <ele>259.600006103515625</ele>
        <time>2019-04-26T09:28:48.000Z</time>
      </trkpt>
      <trkpt lat="39.26201186142861843109130859375" lon="-7.667368389666080474853515625">
        <ele>262.399993896484375</ele>
        <time>2019-04-26T09:29:04.000Z</time>
      </trkpt>
      <trkpt lat="39.26223901100456714630126953125" lon="-7.66668786294758319854736328125">
        <ele>260</ele>
        <time>2019-04-26T09:29:18.000Z</time>
      </trkpt>
      <trkpt lat="39.26243145950138568878173828125" lon="-7.66599333845078945159912109375">
        <ele>255.8000030517578125</ele>
        <time>2019-04-26T09:29:33.000Z</time>
      </trkpt>
      <trkpt lat="39.2625468783080577850341796875" lon="-7.6656184159219264984130859375">
        <ele>254</ele>
        <time>2019-04-26T09:29:39.000Z</time>
      </trkpt>
      <trkpt lat="39.26262843422591686248779296875" lon="-7.665310464799404144287109375">
        <ele>252.8000030517578125</ele>
        <time>2019-04-26T09:29:46.000Z</time>
      </trkpt>
      <trkpt lat="39.262765981256961822509765625" lon="-7.664934955537319183349609375">
        <ele>252</ele>
        <time>2019-04-26T09:29:53.000Z</time>
      </trkpt>
      <trkpt lat="39.26302238367497920989990234375" lon="-7.66431779600679874420166015625">
        <ele>248.399993896484375</ele>
        <time>2019-04-26T09:30:04.000Z</time>
      </trkpt>
      <trkpt lat="39.2630735971033573150634765625" lon="-7.664206735789775848388671875">
        <ele>247.8000030517578125</ele>
        <time>2019-04-26T09:30:06.000Z</time>
      </trkpt>
      <trkpt lat="39.26338699646294116973876953125" lon="-7.66355730593204498291015625">
        <ele>244.399993896484375</ele>
        <time>2019-04-26T09:30:17.000Z</time>
      </trkpt>
      <trkpt lat="39.26366896368563175201416015625" lon="-7.66289211809635162353515625">
        <ele>239</ele>
        <time>2019-04-26T09:30:26.000Z</time>
      </trkpt>
      <trkpt lat="39.263901226222515106201171875" lon="-7.6626344583928585052490234375">
        <ele>236.1999969482421875</ele>
        <time>2019-04-26T09:30:33.000Z</time>
      </trkpt>
      <trkpt lat="39.2641491629183292388916015625" lon="-7.6625065505504608154296875">
        <ele>235</ele>
        <time>2019-04-26T09:30:39.000Z</time>
      </trkpt>
      <trkpt lat="39.26430816762149333953857421875" lon="-7.66244418919086456298828125">
        <ele>234.8000030517578125</ele>
        <time>2019-04-26T09:30:45.000Z</time>
      </trkpt>
      <trkpt lat="39.26432526670396327972412109375" lon="-7.662443853914737701416015625">
        <ele>234.8000030517578125</ele>
        <time>2019-04-26T09:31:02.000Z</time>
      </trkpt>
      <trkpt lat="39.26435695029795169830322265625" lon="-7.66243974678218364715576171875">
        <ele>234.8000030517578125</ele>
        <time>2019-04-26T09:31:04.000Z</time>
      </trkpt>
      <trkpt lat="39.2644502408802509307861328125" lon="-7.6624168641865253448486328125">
        <ele>234.8000030517578125</ele>
        <time>2019-04-26T09:31:08.000Z</time>
      </trkpt>
      <trkpt lat="39.26499967463314533233642578125" lon="-7.662206478416919708251953125">
        <ele>236.600006103515625</ele>
        <time>2019-04-26T09:31:24.000Z</time>
      </trkpt>
      <trkpt lat="39.26542446948587894439697265625" lon="-7.6617743074893951416015625">
        <ele>236.600006103515625</ele>
        <time>2019-04-26T09:31:38.000Z</time>
      </trkpt>
      <trkpt lat="39.26555447280406951904296875" lon="-7.66169509850442409515380859375">
        <ele>236</ele>
        <time>2019-04-26T09:31:41.000Z</time>
      </trkpt>
      <trkpt lat="39.2656615935266017913818359375" lon="-7.66166031360626220703125">
        <ele>235.8000030517578125</ele>
        <time>2019-04-26T09:31:43.000Z</time>
      </trkpt>
      <trkpt lat="39.26587575115263462066650390625" lon="-7.661267034709453582763671875">
        <ele>235.399993896484375</ele>
        <time>2019-04-26T09:31:52.000Z</time>
      </trkpt>
      <trkpt lat="39.265939034521579742431640625" lon="-7.66111875884234905242919921875">
        <ele>235.399993896484375</ele>
        <time>2019-04-26T09:31:54.000Z</time>
      </trkpt>
      <trkpt lat="39.26610524766147136688232421875" lon="-7.66081851907074451446533203125">
        <ele>235</ele>
        <time>2019-04-26T09:31:59.000Z</time>
      </trkpt>
      <trkpt lat="39.26617314107716083526611328125" lon="-7.66063772141933441162109375">
        <ele>233.600006103515625</ele>
        <time>2019-04-26T09:32:02.000Z</time>
      </trkpt>
      <trkpt lat="39.26623332314193248748779296875" lon="-7.6602935604751110076904296875">
        <ele>231.600006103515625</ele>
        <time>2019-04-26T09:32:08.000Z</time>
      </trkpt>
      <trkpt lat="39.26622904837131500244140625" lon="-7.6595888100564479827880859375">
        <ele>226.8000030517578125</ele>
        <time>2019-04-26T09:32:25.000Z</time>
      </trkpt>
      <trkpt lat="39.26616844721138477325439453125" lon="-7.65890845097601413726806640625">
        <ele>221.8000030517578125</ele>
        <time>2019-04-26T09:32:40.000Z</time>
      </trkpt>
      <trkpt lat="39.2660682834684848785400390625" lon="-7.65866487286984920501708984375">
        <ele>221.600006103515625</ele>
        <time>2019-04-26T09:32:44.000Z</time>
      </trkpt>
      <trkpt lat="39.2659874819219112396240234375" lon="-7.65845264308154582977294921875">
        <ele>221.1999969482421875</ele>
        <time>2019-04-26T09:32:47.000Z</time>
      </trkpt>
      <trkpt lat="39.26594330929219722747802734375" lon="-7.65776239335536956787109375">
        <ele>217.600006103515625</ele>
        <time>2019-04-26T09:33:03.000Z</time>
      </trkpt>
      <trkpt lat="39.26593936979770660400390625" lon="-7.65771000646054744720458984375">
        <ele>217.399993896484375</ele>
        <time>2019-04-26T09:33:04.000Z</time>
      </trkpt>
      <trkpt lat="39.26583434455096721649169921875" lon="-7.65701615251600742340087890625">
        <ele>212.1999969482421875</ele>
        <time>2019-04-26T09:33:18.000Z</time>
      </trkpt>
      <trkpt lat="39.2658094502985477447509765625" lon="-7.65669177286326885223388671875">
        <ele>211</ele>
        <time>2019-04-26T09:33:24.000Z</time>
      </trkpt>
      <trkpt lat="39.2658215202391147613525390625" lon="-7.65649027191102504730224609375">
        <ele>210</ele>
        <time>2019-04-26T09:33:30.000Z</time>
      </trkpt>
      <trkpt lat="39.2658205144107341766357421875" lon="-7.6564660482108592987060546875">
        <ele>210</ele>
        <time>2019-04-26T09:34:15.000Z</time>
      </trkpt>
      <trkpt lat="39.26585831679403781890869140625" lon="-7.6557894609868526458740234375">
        <ele>206.399993896484375</ele>
        <time>2019-04-26T09:34:37.000Z</time>
      </trkpt>
      <trkpt lat="39.26585446111857891082763671875" lon="-7.65576171688735485076904296875">
        <ele>206.399993896484375</ele>
        <time>2019-04-26T09:36:41.000Z</time>
      </trkpt>
      <trkpt lat="39.26568866707384586334228515625" lon="-7.65517733059823513031005859375">
        <ele>203.600006103515625</ele>
        <time>2019-04-26T09:37:04.000Z</time>
      </trkpt>
      <trkpt lat="39.26567207090556621551513671875" lon="-7.65515000559389591217041015625">
        <ele>203.600006103515625</ele>
        <time>2019-04-26T09:40:19.000Z</time>
      </trkpt>
      <trkpt lat="39.26546587608754634857177734375" lon="-7.654511220753192901611328125">
        <ele>199.1999969482421875</ele>
        <time>2019-04-26T09:40:38.000Z</time>
      </trkpt>
      <trkpt lat="39.26548465155065059661865234375" lon="-7.654446177184581756591796875">
        <ele>198.8000030517578125</ele>
        <time>2019-04-26T09:40:43.000Z</time>
      </trkpt>
      <trkpt lat="39.26547660492360591888427734375" lon="-7.654426060616970062255859375">
        <ele>198.600006103515625</ele>
        <time>2019-04-26T09:40:49.000Z</time>
      </trkpt>
      <trkpt lat="39.26544592715799808502197265625" lon="-7.6542668044567108154296875">
        <ele>197.600006103515625</ele>
        <time>2019-04-26T09:41:01.000Z</time>
      </trkpt>
      <trkpt lat="39.2654463462531566619873046875" lon="-7.6542378030717372894287109375">
        <ele>197.399993896484375</ele>
        <time>2019-04-26T09:41:06.000Z</time>
      </trkpt>
      <trkpt lat="39.2654074542224407196044921875" lon="-7.65402951277792453765869140625">
        <ele>197.399993896484375</ele>
        <time>2019-04-26T09:41:39.000Z</time>
      </trkpt>
      <trkpt lat="39.26541558466851711273193359375" lon="-7.65397846698760986328125">
        <ele>197.600006103515625</ele>
        <time>2019-04-26T09:41:46.000Z</time>
      </trkpt>
      <trkpt lat="39.2654061131179332733154296875" lon="-7.65396782197058200836181640625">
        <ele>197.600006103515625</ele>
        <time>2019-04-26T09:45:04.000Z</time>
      </trkpt>
      <trkpt lat="39.265412986278533935546875" lon="-7.65398039482533931732177734375">
        <ele>197.600006103515625</ele>
        <time>2019-04-26T09:45:05.000Z</time>
      </trkpt>
      <trkpt lat="39.26540619693696498870849609375" lon="-7.6539394073188304901123046875">
        <ele>197.8000030517578125</ele>
        <time>2019-04-26T09:45:24.000Z</time>
      </trkpt>
      <trkpt lat="39.265090115368366241455078125" lon="-7.65340757556259632110595703125">
        <ele>200.600006103515625</ele>
        <time>2019-04-26T09:46:09.000Z</time>
      </trkpt>
      <trkpt lat="39.26513898186385631561279296875" lon="-7.6533446274697780609130859375">
        <ele>200.8000030517578125</ele>
        <time>2019-04-26T09:46:14.000Z</time>
      </trkpt>
      <trkpt lat="39.26529890857636928558349609375" lon="-7.65322602353990077972412109375">
        <ele>201.399993896484375</ele>
        <time>2019-04-26T09:46:32.000Z</time>
      </trkpt>
      <trkpt lat="39.26532606594264507293701171875" lon="-7.65320456586778163909912109375">
        <ele>201.399993896484375</ele>
        <time>2019-04-26T09:47:12.000Z</time>
      </trkpt>
      <trkpt lat="39.26539010368287563323974609375" lon="-7.652532421052455902099609375">
        <ele>203.8000030517578125</ele>
        <time>2019-04-26T09:47:31.000Z</time>
      </trkpt>
      <trkpt lat="39.26535573787987232208251953125" lon="-7.65181803144514560699462890625">
        <ele>207</ele>
        <time>2019-04-26T09:47:53.000Z</time>
      </trkpt>
      <trkpt lat="39.26536998711526393890380859375" lon="-7.651139013469219207763671875">
        <ele>206.8000030517578125</ele>
        <time>2019-04-26T09:48:13.000Z</time>
      </trkpt>
      <trkpt lat="39.2654094658792018890380859375" lon="-7.65086517669260501861572265625">
        <ele>206.1999969482421875</ele>
        <time>2019-04-26T09:48:18.000Z</time>
      </trkpt>
      <trkpt lat="39.26549554802477359771728515625" lon="-7.6501481048762798309326171875">
        <ele>202.399993896484375</ele>
        <time>2019-04-26T09:48:28.000Z</time>
      </trkpt>
      <trkpt lat="39.26550845615565776824951171875" lon="-7.65006504021584987640380859375">
        <ele>202</ele>
        <time>2019-04-26T09:48:29.000Z</time>
      </trkpt>
      <trkpt lat="39.2656180076301097869873046875" lon="-7.649356015026569366455078125">
        <ele>200.1999969482421875</ele>
        <time>2019-04-26T09:48:37.000Z</time>
      </trkpt>
      <trkpt lat="39.26583199761807918548583984375" lon="-7.6487114466726779937744140625">
        <ele>200.600006103515625</ele>
        <time>2019-04-26T09:48:52.000Z</time>
      </trkpt>
      <trkpt lat="39.2661412060260772705078125" lon="-7.64811289496719837188720703125">
        <ele>202.600006103515625</ele>
        <time>2019-04-26T09:49:12.000Z</time>
      </trkpt>
      <trkpt lat="39.26626852713525295257568359375" lon="-7.6479359529912471771240234375">
        <ele>203</ele>
        <time>2019-04-26T09:49:20.000Z</time>
      </trkpt>
      <trkpt lat="39.2663935013115406036376953125" lon="-7.6479108072817325592041015625">
        <ele>202.399993896484375</ele>
        <time>2019-04-26T09:49:26.000Z</time>
      </trkpt>
      <trkpt lat="39.26666029728949069976806640625" lon="-7.64793771319091320037841796875">
        <ele>200.399993896484375</ele>
        <time>2019-04-26T09:49:34.000Z</time>
      </trkpt>
      <trkpt lat="39.2668171226978302001953125" lon="-7.6478563249111175537109375">
        <ele>200</ele>
        <time>2019-04-26T09:49:38.000Z</time>
      </trkpt>
      <trkpt lat="39.26699842326343059539794921875" lon="-7.6477015949785709381103515625">
        <ele>199.8000030517578125</ele>
        <time>2019-04-26T09:49:42.000Z</time>
      </trkpt>
      <trkpt lat="39.26721476018428802490234375" lon="-7.64753454364836215972900390625">
        <ele>199.1999969482421875</ele>
        <time>2019-04-26T09:49:46.000Z</time>
      </trkpt>
      <trkpt lat="39.26745615899562835693359375" lon="-7.64727587811648845672607421875">
        <ele>198.600006103515625</ele>
        <time>2019-04-26T09:49:51.000Z</time>
      </trkpt>
      <trkpt lat="39.26773167215287685394287109375" lon="-7.64693071134388446807861328125">
        <ele>198.399993896484375</ele>
        <time>2019-04-26T09:49:58.000Z</time>
      </trkpt>
      <trkpt lat="39.26790366880595684051513671875" lon="-7.6467832736670970916748046875">
        <ele>198</ele>
        <time>2019-04-26T09:50:02.000Z</time>
      </trkpt>
      <trkpt lat="39.26811791025102138519287109375" lon="-7.6466230116784572601318359375">
        <ele>197.600006103515625</ele>
        <time>2019-04-26T09:50:07.000Z</time>
      </trkpt>
      <trkpt lat="39.26827012561261653900146484375" lon="-7.64632469974458217620849609375">
        <ele>197.600006103515625</ele>
        <time>2019-04-26T09:50:13.000Z</time>
      </trkpt>
      <trkpt lat="39.26828772760927677154541015625" lon="-7.64580803923308849334716796875">
        <ele>200</ele>
        <time>2019-04-26T09:50:22.000Z</time>
      </trkpt>
      <trkpt lat="39.2684252746403217315673828125" lon="-7.64514033682644367218017578125">
        <ele>199.8000030517578125</ele>
        <time>2019-04-26T09:50:41.000Z</time>
      </trkpt>
      <trkpt lat="39.2685868777334690093994140625" lon="-7.64450666494667530059814453125">
        <ele>199</ele>
        <time>2019-04-26T09:50:56.000Z</time>
      </trkpt>
      <trkpt lat="39.26887798123061656951904296875" lon="-7.64390610158443450927734375">
        <ele>199.600006103515625</ele>
        <time>2019-04-26T09:51:15.000Z</time>
      </trkpt>
      <trkpt lat="39.2691974155604839324951171875" lon="-7.643338143825531005859375">
        <ele>200.1999969482421875</ele>
        <time>2019-04-26T09:51:43.000Z</time>
      </trkpt>
      <trkpt lat="39.26953612826764583587646484375" lon="-7.64278435148298740386962890625">
        <ele>204.1999969482421875</ele>
        <time>2019-04-26T09:52:03.000Z</time>
      </trkpt>
      <trkpt lat="39.26985531114041805267333984375" lon="-7.64221630990505218505859375">
        <ele>205.8000030517578125</ele>
        <time>2019-04-26T09:52:21.000Z</time>
      </trkpt>
      <trkpt lat="39.27019712515175342559814453125" lon="-7.64162882231175899505615234375">
        <ele>206.1999969482421875</ele>
        <time>2019-04-26T09:52:41.000Z</time>
      </trkpt>
      <trkpt lat="39.27020265720784664154052734375" lon="-7.641585655510425567626953125">
        <ele>206</ele>
        <time>2019-04-26T09:52:42.000Z</time>
      </trkpt>
      <trkpt lat="39.2702076025307178497314453125" lon="-7.6412565819919109344482421875">
        <ele>205.1999969482421875</ele>
        <time>2019-04-26T09:52:49.000Z</time>
      </trkpt>
      <trkpt lat="39.27023182623088359832763671875" lon="-7.6410929672420024871826171875">
        <ele>204.8000030517578125</ele>
        <time>2019-04-26T09:52:52.000Z</time>
      </trkpt>
      <trkpt lat="39.2702914215624332427978515625" lon="-7.64082013629376888275146484375">
        <ele>204</ele>
        <time>2019-04-26T09:52:57.000Z</time>
      </trkpt>
      <trkpt lat="39.270576573908329010009765625" lon="-7.64062735252082347869873046875">
        <ele>201.600006103515625</ele>
        <time>2019-04-26T09:53:06.000Z</time>
      </trkpt>
      <trkpt lat="39.27088133990764617919921875" lon="-7.64063288457691669464111328125">
        <ele>199</ele>
        <time>2019-04-26T09:53:11.000Z</time>
      </trkpt>
      <trkpt lat="39.27134267985820770263671875" lon="-7.6408767141401767730712890625">
        <ele>196.600006103515625</ele>
        <time>2019-04-26T09:53:28.000Z</time>
      </trkpt>
      <trkpt lat="39.27142155356705188751220703125" lon="-7.6409162767231464385986328125">
        <ele>196.399993896484375</ele>
        <time>2019-04-26T09:56:05.000Z</time>
      </trkpt>
      <trkpt lat="39.27151408977806568145751953125" lon="-7.64096380211412906646728515625">
        <ele>196.399993896484375</ele>
        <time>2019-04-26T09:56:11.000Z</time>
      </trkpt>
      <trkpt lat="39.2718769423663616180419921875" lon="-7.64102079905569553375244140625">
        <ele>195.600006103515625</ele>
        <time>2019-04-26T09:56:26.000Z</time>
      </trkpt>
      <trkpt lat="39.2720367014408111572265625" lon="-7.64099590480327606201171875">
        <ele>195.600006103515625</ele>
        <time>2019-04-26T09:56:36.000Z</time>
      </trkpt>
      <trkpt lat="39.27204583771526813507080078125" lon="-7.6409960724413394927978515625">
        <ele>195.8000030517578125</ele>
        <time>2019-04-26T09:56:52.000Z</time>
      </trkpt>
      <trkpt lat="39.27259166724979877471923828125" lon="-7.6409739442169666290283203125">
        <ele>197</ele>
        <time>2019-04-26T09:57:12.000Z</time>
      </trkpt>
      <trkpt lat="39.27310531027615070343017578125" lon="-7.641208469867706298828125">
        <ele>199.1999969482421875</ele>
        <time>2019-04-26T09:57:32.000Z</time>
      </trkpt>
      <trkpt lat="39.27365130744874477386474609375" lon="-7.64142715372145175933837890625">
        <ele>199.8000030517578125</ele>
        <time>2019-04-26T09:57:49.000Z</time>
      </trkpt>
      <trkpt lat="39.27418523468077182769775390625" lon="-7.6413896866142749786376953125">
        <ele>201.600006103515625</ele>
        <time>2019-04-26T09:58:10.000Z</time>
      </trkpt>
      <trkpt lat="39.274699799716472625732421875" lon="-7.64113512821495532989501953125">
        <ele>203.8000030517578125</ele>
        <time>2019-04-26T09:58:40.000Z</time>
      </trkpt>
      <trkpt lat="39.27522475831210613250732421875" lon="-7.64099900610744953155517578125">
        <ele>207.399993896484375</ele>
        <time>2019-04-26T09:59:04.000Z</time>
      </trkpt>
      <trkpt lat="39.27537227980792522430419921875" lon="-7.64098224230110645294189453125">
        <ele>208</ele>
        <time>2019-04-26T09:59:12.000Z</time>
      </trkpt>
      <trkpt lat="39.275830350816249847412109375" lon="-7.64075861312448978424072265625">
        <ele>209.600006103515625</ele>
        <time>2019-04-26T09:59:37.000Z</time>
      </trkpt>
      <trkpt lat="39.27635966800153255462646484375" lon="-7.6408006064593791961669921875">
        <ele>210.399993896484375</ele>
        <time>2019-04-26T09:59:49.000Z</time>
      </trkpt>
      <trkpt lat="39.276476763188838958740234375" lon="-7.640791051089763641357421875">
        <ele>210.1999969482421875</ele>
        <time>2019-04-26T09:59:53.000Z</time>
      </trkpt>
      <trkpt lat="39.27650593221187591552734375" lon="-7.640801109373569488525390625">
        <ele>210.1999969482421875</ele>
        <time>2019-04-26T09:59:56.000Z</time>
      </trkpt>
      <trkpt lat="39.2765030823647975921630859375" lon="-7.64079716987907886505126953125">
        <ele>210.1999969482421875</ele>
        <time>2019-04-26T09:59:57.000Z</time>
      </trkpt>
      <trkpt lat="39.27649595774710178375244140625" lon="-7.64084327034652233123779296875">
        <ele>210.399993896484375</ele>
        <time>2019-04-26T10:00:06.000Z</time>
      </trkpt>
      <trkpt lat="39.27660425193607807159423828125" lon="-7.6408817432820796966552734375">
        <ele>210.399993896484375</ele>
        <time>2019-04-26T10:00:13.000Z</time>
      </trkpt>
      <trkpt lat="39.277117811143398284912109375" lon="-7.64115289784967899322509765625">
        <ele>209.399993896484375</ele>
        <time>2019-04-26T10:00:33.000Z</time>
      </trkpt>
      <trkpt lat="39.27760295569896697998046875" lon="-7.64146671630442142486572265625">
        <ele>209.399993896484375</ele>
        <time>2019-04-26T10:00:49.000Z</time>
      </trkpt>
      <trkpt lat="39.2780383117496967315673828125" lon="-7.64174147509038448333740234375">
        <ele>209.1999969482421875</ele>
        <time>2019-04-26T10:01:05.000Z</time>
      </trkpt>
      <trkpt lat="39.27851415239274501800537109375" lon="-7.64210843481123447418212890625">
        <ele>208.600006103515625</ele>
        <time>2019-04-26T10:01:24.000Z</time>
      </trkpt>
      <trkpt lat="39.27903802134096622467041015625" lon="-7.64238922856748104095458984375">
        <ele>206.1999969482421875</ele>
        <time>2019-04-26T10:01:43.000Z</time>
      </trkpt>
      <trkpt lat="39.279247485101222991943359375" lon="-7.64239777810871601104736328125">
        <ele>205.600006103515625</ele>
        <time>2019-04-26T10:01:48.000Z</time>
      </trkpt>
      <trkpt lat="39.27954596467316150665283203125" lon="-7.6424032263457775115966796875">
        <ele>204.8000030517578125</ele>
        <time>2019-04-26T10:01:54.000Z</time>
      </trkpt>
      <trkpt lat="39.27969968877732753753662109375" lon="-7.6424206607043743133544921875">
        <ele>204</ele>
        <time>2019-04-26T10:01:58.000Z</time>
      </trkpt>
      <trkpt lat="39.28018148057162761688232421875" lon="-7.642576396465301513671875">
        <ele>201.1999969482421875</ele>
        <time>2019-04-26T10:02:14.000Z</time>
      </trkpt>
      <trkpt lat="39.28046897985041141510009765625" lon="-7.6431609503924846649169921875">
        <ele>203.399993896484375</ele>
        <time>2019-04-26T10:02:39.000Z</time>
      </trkpt>
      <trkpt lat="39.28048498928546905517578125" lon="-7.64316053129732608795166015625">
        <ele>203.399993896484375</ele>
        <time>2019-04-26T10:02:40.000Z</time>
      </trkpt>
      <trkpt lat="39.280744493007659912109375" lon="-7.64331811107695102691650390625">
        <ele>206.600006103515625</ele>
        <time>2019-04-26T10:03:00.000Z</time>
      </trkpt>
      <trkpt lat="39.28158209659159183502197265625" lon="-7.64468394219875335693359375">
        <ele>222.399993896484375</ele>
        <time>2019-04-26T10:06:04.000Z</time>
      </trkpt>
      <trkpt lat="39.2816053144633769989013671875" lon="-7.64472291804850101470947265625">
        <ele>222.8000030517578125</ele>
        <time>2019-04-26T10:06:08.000Z</time>
      </trkpt>
      <trkpt lat="39.28176574409008026123046875" lon="-7.64477538876235485076904296875">
        <ele>225.1999969482421875</ele>
        <time>2019-04-26T10:06:27.000Z</time>
      </trkpt>
      <trkpt lat="39.282109737396240234375" lon="-7.64467078261077404022216796875">
        <ele>231.399993896484375</ele>
        <time>2019-04-26T10:09:56.000Z</time>
      </trkpt>
      <trkpt lat="39.28219665773212909698486328125" lon="-7.64487479813396930694580078125">
        <ele>232.399993896484375</ele>
        <time>2019-04-26T10:10:06.000Z</time>
      </trkpt>
      <trkpt lat="39.28256780840456485748291015625" lon="-7.64539011754095554351806640625">
        <ele>234</ele>
        <time>2019-04-26T10:10:27.000Z</time>
      </trkpt>
      <trkpt lat="39.28303711116313934326171875" lon="-7.6455893553793430328369140625">
        <ele>238.399993896484375</ele>
        <time>2019-04-26T10:10:48.000Z</time>
      </trkpt>
      <trkpt lat="39.283571541309356689453125" lon="-7.6454512216150760650634765625">
        <ele>244.399993896484375</ele>
        <time>2019-04-26T10:11:16.000Z</time>
      </trkpt>
      <trkpt lat="39.2837364971637725830078125" lon="-7.64541375450789928436279296875">
        <ele>246.1999969482421875</ele>
        <time>2019-04-26T10:11:25.000Z</time>
      </trkpt>
      <trkpt lat="39.28382073529064655303955078125" lon="-7.64532507397234439849853515625">
        <ele>248</ele>
        <time>2019-04-26T10:11:32.000Z</time>
      </trkpt>
      <trkpt lat="39.2839014530181884765625" lon="-7.645274698734283447265625">
        <ele>249.1999969482421875</ele>
        <time>2019-04-26T10:11:38.000Z</time>
      </trkpt>
      <trkpt lat="39.28396272473037242889404296875" lon="-7.64524745754897594451904296875">
        <ele>250</ele>
        <time>2019-04-26T10:11:42.000Z</time>
      </trkpt>
      <trkpt lat="39.284011423587799072265625" lon="-7.645169757306575775146484375">
        <ele>251.1999969482421875</ele>
        <time>2019-04-26T10:11:47.000Z</time>
      </trkpt>
      <trkpt lat="39.28411192260682582855224609375" lon="-7.64502458274364471435546875">
        <ele>253.600006103515625</ele>
        <time>2019-04-26T10:11:58.000Z</time>
      </trkpt>
      <trkpt lat="39.28412348963320255279541015625" lon="-7.6450066454708576202392578125">
        <ele>253.8000030517578125</ele>
        <time>2019-04-26T10:12:01.000Z</time>
      </trkpt>
      <trkpt lat="39.2841517366468906402587890625" lon="-7.6449546776711940765380859375">
        <ele>254</ele>
        <time>2019-04-26T10:12:26.000Z</time>
      </trkpt>
      <trkpt lat="39.28419909439980983734130859375" lon="-7.6447984389960765838623046875">
        <ele>254.8000030517578125</ele>
        <time>2019-04-26T10:12:34.000Z</time>
      </trkpt>
      <trkpt lat="39.28425491787493228912353515625" lon="-7.64472241513431072235107421875">
        <ele>255.399993896484375</ele>
        <time>2019-04-26T10:12:39.000Z</time>
      </trkpt>
      <trkpt lat="39.28430370055139064788818359375" lon="-7.6446532644331455230712890625">
        <ele>256</ele>
        <time>2019-04-26T10:12:43.000Z</time>
      </trkpt>
      <trkpt lat="39.284368492662906646728515625" lon="-7.6443595625460147857666015625">
        <ele>256.79998779296875</ele>
        <time>2019-04-26T10:12:57.000Z</time>
      </trkpt>
      <trkpt lat="39.284448958933353424072265625" lon="-7.64433315955102443695068359375">
        <ele>257.600006103515625</ele>
        <time>2019-04-26T10:13:02.000Z</time>
      </trkpt>
      <trkpt lat="39.28484626114368438720703125" lon="-7.6448430307209491729736328125">
        <ele>260</ele>
        <time>2019-04-26T10:13:22.000Z</time>
      </trkpt>
      <trkpt lat="39.28522587753832340240478515625" lon="-7.64535055495798587799072265625">
        <ele>260</ele>
        <time>2019-04-26T10:13:42.000Z</time>
      </trkpt>
      <trkpt lat="39.28525219671428203582763671875" lon="-7.64545910060405731201171875">
        <ele>260.399993896484375</ele>
        <time>2019-04-26T10:13:46.000Z</time>
      </trkpt>
      <trkpt lat="39.28512177430093288421630859375" lon="-7.64560603536665439605712890625">
        <ele>258.600006103515625</ele>
        <time>2019-04-26T10:13:58.000Z</time>
      </trkpt>
      <trkpt lat="39.28510065190494060516357421875" lon="-7.6456041075289249420166015625">
        <ele>258.399993896484375</ele>
        <time>2019-04-26T10:14:02.000Z</time>
      </trkpt>
      <trkpt lat="39.2850814573466777801513671875" lon="-7.645614333450794219970703125">
        <ele>258.20001220703125</ele>
        <time>2019-04-26T10:14:05.000Z</time>
      </trkpt>
      <trkpt lat="39.28515781648457050323486328125" lon="-7.64553244225680828094482421875">
        <ele>259.20001220703125</ele>
        <time>2019-04-26T10:17:38.000Z</time>
      </trkpt>
      <trkpt lat="39.28522554226219654083251953125" lon="-7.64548122882843017578125">
        <ele>260</ele>
        <time>2019-04-26T10:17:43.000Z</time>
      </trkpt>
      <trkpt lat="39.285335429012775421142578125" lon="-7.64554451219737529754638671875">
        <ele>261.399993896484375</ele>
        <time>2019-04-26T10:17:49.000Z</time>
      </trkpt>
      <trkpt lat="39.2854690365493297576904296875" lon="-7.64559279195964336395263671875">
        <ele>262.399993896484375</ele>
        <time>2019-04-26T10:17:57.000Z</time>
      </trkpt>
      <trkpt lat="39.28547733463346958160400390625" lon="-7.6455762796103954315185546875">
        <ele>262.600006103515625</ele>
        <time>2019-04-26T10:17:59.000Z</time>
      </trkpt>
      <trkpt lat="39.28567632101476192474365234375" lon="-7.64556881971657276153564453125">
        <ele>263.79998779296875</ele>
        <time>2019-04-26T10:18:10.000Z</time>
      </trkpt>
      <trkpt lat="39.2861221544444561004638671875" lon="-7.64551140367984771728515625">
        <ele>265.600006103515625</ele>
        <time>2019-04-26T10:18:35.000Z</time>
      </trkpt>
      <trkpt lat="39.286178983747959136962890625" lon="-7.6455353759229183197021484375">
        <ele>265.79998779296875</ele>
        <time>2019-04-26T10:18:41.000Z</time>
      </trkpt>
      <trkpt lat="39.28625534288585186004638671875" lon="-7.64554048888385295867919921875">
        <ele>266</ele>
        <time>2019-04-26T10:18:47.000Z</time>
      </trkpt>
      <trkpt lat="39.28631183691322803497314453125" lon="-7.64551836065948009490966796875">
        <ele>266.20001220703125</ele>
        <time>2019-04-26T10:19:09.000Z</time>
      </trkpt>
      <trkpt lat="39.286575280129909515380859375" lon="-7.64549338258802890777587890625">
        <ele>267.399993896484375</ele>
        <time>2019-04-26T10:19:20.000Z</time>
      </trkpt>
      <trkpt lat="39.2866522260010242462158203125" lon="-7.64550243504345417022705078125">
        <ele>267.79998779296875</ele>
        <time>2019-04-26T10:19:24.000Z</time>
      </trkpt>
      <trkpt lat="39.287207610905170440673828125" lon="-7.64536782167851924896240234375">
        <ele>270.399993896484375</ele>
        <time>2019-04-26T10:19:55.000Z</time>
      </trkpt>
      <trkpt lat="39.28774799220263957977294921875" lon="-7.645264305174350738525390625">
        <ele>272</ele>
        <time>2019-04-26T10:20:20.000Z</time>
      </trkpt>
      <trkpt lat="39.287772886455059051513671875" lon="-7.6452934741973876953125">
        <ele>272</ele>
        <time>2019-04-26T10:20:23.000Z</time>
      </trkpt>
      <trkpt lat="39.28779979236423969268798828125" lon="-7.645406462252140045166015625">
        <ele>271.600006103515625</ele>
        <time>2019-04-26T10:20:29.000Z</time>
      </trkpt>
      <trkpt lat="39.2878344096243381500244140625" lon="-7.645437978208065032958984375">
        <ele>271.600006103515625</ele>
        <time>2019-04-26T10:20:33.000Z</time>
      </trkpt>
      <trkpt lat="39.2878940887749195098876953125" lon="-7.6454713381826877593994140625">
        <ele>271.399993896484375</ele>
        <time>2019-04-26T10:28:19.000Z</time>
      </trkpt>
      <trkpt lat="39.28839272819459438323974609375" lon="-7.64576713554561138153076171875">
        <ele>272.20001220703125</ele>
        <time>2019-04-26T10:28:42.000Z</time>
      </trkpt>
      <trkpt lat="39.28890687413513660430908203125" lon="-7.6460377871990203857421875">
        <ele>272.20001220703125</ele>
        <time>2019-04-26T10:29:01.000Z</time>
      </trkpt>
      <trkpt lat="39.2889549024403095245361328125" lon="-7.646034769713878631591796875">
        <ele>272.20001220703125</ele>
        <time>2019-04-26T10:29:03.000Z</time>
      </trkpt>
      <trkpt lat="39.2890829779207706451416015625" lon="-7.6460030861198902130126953125">
        <ele>272.20001220703125</ele>
        <time>2019-04-26T10:29:11.000Z</time>
      </trkpt>
      <trkpt lat="39.28908088244497776031494140625" lon="-7.6460168324410915374755859375">
        <ele>272</ele>
        <time>2019-04-26T10:29:45.000Z</time>
      </trkpt>
      <trkpt lat="39.2889870889484882354736328125" lon="-7.646144069731235504150390625">
        <ele>271.79998779296875</ele>
        <time>2019-04-26T10:29:53.000Z</time>
      </trkpt>
      <trkpt lat="39.288998655974864959716796875" lon="-7.64617659151554107666015625">
        <ele>271.79998779296875</ele>
        <time>2019-04-26T10:29:57.000Z</time>
      </trkpt>
      <trkpt lat="39.2892261408269405364990234375" lon="-7.646562159061431884765625">
        <ele>272.20001220703125</ele>
        <time>2019-04-26T10:30:11.000Z</time>
      </trkpt>
      <trkpt lat="39.28942454047501087188720703125" lon="-7.6465594768524169921875">
        <ele>272.79998779296875</ele>
        <time>2019-04-26T10:30:18.000Z</time>
      </trkpt>
      <trkpt lat="39.28998545743525028228759765625" lon="-7.64654497615993022918701171875">
        <ele>274</ele>
        <time>2019-04-26T10:30:37.000Z</time>
      </trkpt>
      <trkpt lat="39.29052776657044887542724609375" lon="-7.64653827063739299774169921875">
        <ele>274.79998779296875</ele>
        <time>2019-04-26T10:30:55.000Z</time>
      </trkpt>
      <trkpt lat="39.29108801297843456268310546875" lon="-7.64651664532721042633056640625">
        <ele>275.600006103515625</ele>
        <time>2019-04-26T10:31:13.000Z</time>
      </trkpt>
      <trkpt lat="39.291617833077907562255859375" lon="-7.64630860649049282073974609375">
        <ele>278.79998779296875</ele>
        <time>2019-04-26T10:31:31.000Z</time>
      </trkpt>
      <trkpt lat="39.292121417820453643798828125" lon="-7.64603200368583202362060546875">
        <ele>281.79998779296875</ele>
        <time>2019-04-26T10:31:49.000Z</time>
      </trkpt>
      <trkpt lat="39.292627014219760894775390625" lon="-7.64576160348951816558837890625">
        <ele>283</ele>
        <time>2019-04-26T10:32:07.000Z</time>
      </trkpt>
      <trkpt lat="39.29314442910254001617431640625" lon="-7.64548399485647678375244140625">
        <ele>285.20001220703125</ele>
        <time>2019-04-26T10:32:25.000Z</time>
      </trkpt>
      <trkpt lat="39.293644912540912628173828125" lon="-7.645218707621097564697265625">
        <ele>287</ele>
        <time>2019-04-26T10:32:43.000Z</time>
      </trkpt>
      <trkpt lat="39.2941878922283649444580078125" lon="-7.64501863159239292144775390625">
        <ele>286.600006103515625</ele>
        <time>2019-04-26T10:33:02.000Z</time>
      </trkpt>
      <trkpt lat="39.294735901057720184326171875" lon="-7.645070515573024749755859375">
        <ele>287</ele>
        <time>2019-04-26T10:33:21.000Z</time>
      </trkpt>
      <trkpt lat="39.29528449662029743194580078125" lon="-7.6451518200337886810302734375">
        <ele>289.20001220703125</ele>
        <time>2019-04-26T10:33:39.000Z</time>
      </trkpt>
      <trkpt lat="39.295824207365512847900390625" lon="-7.64523253776133060455322265625">
        <ele>290.79998779296875</ele>
        <time>2019-04-26T10:33:57.000Z</time>
      </trkpt>
      <trkpt lat="39.29637397639453411102294921875" lon="-7.6453109085559844970703125">
        <ele>292.399993896484375</ele>
        <time>2019-04-26T10:34:14.000Z</time>
      </trkpt>
      <trkpt lat="39.29691175930202007293701171875" lon="-7.64539363794028759002685546875">
        <ele>293.20001220703125</ele>
        <time>2019-04-26T10:34:31.000Z</time>
      </trkpt>
      <trkpt lat="39.2974668927490711212158203125" lon="-7.64547787606716156005859375">
        <ele>295.20001220703125</ele>
        <time>2019-04-26T10:34:48.000Z</time>
      </trkpt>
      <trkpt lat="39.2980127222836017608642578125" lon="-7.6455551572144031524658203125">
        <ele>296</ele>
        <time>2019-04-26T10:35:05.000Z</time>
      </trkpt>
      <trkpt lat="39.2985572107136249542236328125" lon="-7.6456332765519618988037109375">
        <ele>297.399993896484375</ele>
        <time>2019-04-26T10:35:20.000Z</time>
      </trkpt>
      <trkpt lat="39.29912441410124301910400390625" lon="-7.64570980332791805267333984375">
        <ele>298.399993896484375</ele>
        <time>2019-04-26T10:35:35.000Z</time>
      </trkpt>
      <trkpt lat="39.2996787093579769134521484375" lon="-7.6457995735108852386474609375">
        <ele>299.399993896484375</ele>
        <time>2019-04-26T10:35:49.000Z</time>
      </trkpt>
      <trkpt lat="39.3002523668110370635986328125" lon="-7.64584391377866268157958984375">
        <ele>300.79998779296875</ele>
        <time>2019-04-26T10:36:04.000Z</time>
      </trkpt>
      <trkpt lat="39.3008085899055004119873046875" lon="-7.6457647047936916351318359375">
        <ele>301.399993896484375</ele>
        <time>2019-04-26T10:36:22.000Z</time>
      </trkpt>
      <trkpt lat="39.3013668246567249298095703125" lon="-7.6457268185913562774658203125">
        <ele>302.399993896484375</ele>
        <time>2019-04-26T10:36:38.000Z</time>
      </trkpt>
      <trkpt lat="39.301923550665378570556640625" lon="-7.6456533931195735931396484375">
        <ele>303.600006103515625</ele>
        <time>2019-04-26T10:36:55.000Z</time>
      </trkpt>
      <trkpt lat="39.3024905025959014892578125" lon="-7.6455933786928653717041015625">
        <ele>306.20001220703125</ele>
        <time>2019-04-26T10:37:10.000Z</time>
      </trkpt>
      <trkpt lat="39.303047396242618560791015625" lon="-7.64555088244378566741943359375">
        <ele>308.20001220703125</ele>
        <time>2019-04-26T10:37:25.000Z</time>
      </trkpt>
      <trkpt lat="39.3036245740950107574462890625" lon="-7.64553763903677463531494140625">
        <ele>310.399993896484375</ele>
        <time>2019-04-26T10:37:42.000Z</time>
      </trkpt>
      <trkpt lat="39.30419345386326313018798828125" lon="-7.64557485468685626983642578125">
        <ele>307.600006103515625</ele>
        <time>2019-04-26T10:37:57.000Z</time>
      </trkpt>
      <trkpt lat="39.3042817153036594390869140625" lon="-7.6455910317599773406982421875">
        <ele>307.399993896484375</ele>
        <time>2019-04-26T10:38:00.000Z</time>
      </trkpt>
      <trkpt lat="39.30431717075407505035400390625" lon="-7.64584424905478954315185546875">
        <ele>307.600006103515625</ele>
        <time>2019-04-26T10:38:08.000Z</time>
      </trkpt>
      <trkpt lat="39.304705001413822174072265625" lon="-7.64632402919232845306396484375">
        <ele>306.79998779296875</ele>
        <time>2019-04-26T10:38:25.000Z</time>
      </trkpt>
      <trkpt lat="39.30489049293100833892822265625" lon="-7.6464915834367275238037109375">
        <ele>305.399993896484375</ele>
        <time>2019-04-26T10:38:30.000Z</time>
      </trkpt>
      <trkpt lat="39.3049784190952777862548828125" lon="-7.64655218459665775299072265625">
        <ele>304.600006103515625</ele>
        <time>2019-04-26T10:38:32.000Z</time>
      </trkpt>
      <trkpt lat="39.30505662225186824798583984375" lon="-7.64700028114020824432373046875">
        <ele>304</ele>
        <time>2019-04-26T10:38:47.000Z</time>
      </trkpt>
      <trkpt lat="39.30503197945654392242431640625" lon="-7.647064067423343658447265625">
        <ele>304.20001220703125</ele>
        <time>2019-04-26T10:38:49.000Z</time>
      </trkpt>
      <trkpt lat="39.3049583025276660919189453125" lon="-7.6473539136350154876708984375">
        <ele>304.79998779296875</ele>
        <time>2019-04-26T10:39:00.000Z</time>
      </trkpt>
      <trkpt lat="39.304955117404460906982421875" lon="-7.6473673246800899505615234375">
        <ele>305</ele>
        <time>2019-04-26T10:39:02.000Z</time>
      </trkpt>
      <trkpt lat="39.3049314804375171661376953125" lon="-7.647373862564563751220703125">
        <ele>305.20001220703125</ele>
        <time>2019-04-26T10:39:05.000Z</time>
      </trkpt>
      <trkpt lat="39.3047648482024669647216796875" lon="-7.647279314696788787841796875">
        <ele>306.600006103515625</ele>
        <time>2019-04-26T10:39:14.000Z</time>
      </trkpt>
      <trkpt lat="39.30480298586189746856689453125" lon="-7.647277973592281341552734375">
        <ele>306.20001220703125</ele>
        <time>2019-04-26T10:39:21.000Z</time>
      </trkpt>
      <trkpt lat="39.30480231530964374542236328125" lon="-7.6472888700664043426513671875">
        <ele>306.20001220703125</ele>
        <time>2019-04-26T10:40:30.000Z</time>
      </trkpt>
      <trkpt lat="39.30493223480880260467529296875" lon="-7.64734628610312938690185546875">
        <ele>305</ele>
        <time>2019-04-26T10:40:36.000Z</time>
      </trkpt>
      <trkpt lat="39.30497230030596256256103515625" lon="-7.64733262360095977783203125">
        <ele>304.79998779296875</ele>
        <time>2019-04-26T10:40:38.000Z</time>
      </trkpt>
      <trkpt lat="39.30514127947390079498291015625" lon="-7.64727805741131305694580078125">
        <ele>303.399993896484375</ele>
        <time>2019-04-26T10:40:46.000Z</time>
      </trkpt>
      <trkpt lat="39.30523465387523174285888671875" lon="-7.64754828996956348419189453125">
        <ele>302.399993896484375</ele>
        <time>2019-04-26T10:40:54.000Z</time>
      </trkpt>
      <trkpt lat="39.305436573922634124755859375" lon="-7.6479027606546878814697265625">
        <ele>300.600006103515625</ele>
        <time>2019-04-26T10:41:04.000Z</time>
      </trkpt>
      <trkpt lat="39.30578626692295074462890625" lon="-7.64808070845901966094970703125">
        <ele>299</ele>
        <time>2019-04-26T10:41:12.000Z</time>
      </trkpt>
      <trkpt lat="39.305901266634464263916015625" lon="-7.6480968855321407318115234375">
        <ele>298.399993896484375</ele>
        <time>2019-04-26T10:41:16.000Z</time>
      </trkpt>
      <trkpt lat="39.30645254440605640411376953125" lon="-7.64817710034549236297607421875">
        <ele>296.600006103515625</ele>
        <time>2019-04-26T10:41:39.000Z</time>
      </trkpt>
      <trkpt lat="39.30647232569754123687744140625" lon="-7.64819235540926456451416015625">
        <ele>296.600006103515625</ele>
        <time>2019-04-26T10:41:40.000Z</time>
      </trkpt>
      <trkpt lat="39.30651574395596981048583984375" lon="-7.64822890050709247589111328125">
        <ele>296.600006103515625</ele>
        <time>2019-04-26T10:41:44.000Z</time>
      </trkpt>
      <trkpt lat="39.30652781389653682708740234375" lon="-7.64823594130575656890869140625">
        <ele>296.79998779296875</ele>
        <time>2019-04-26T10:44:51.000Z</time>
      </trkpt>
      <trkpt lat="39.30661565624177455902099609375" lon="-7.64817240647971630096435546875">
        <ele>296.600006103515625</ele>
        <time>2019-04-26T10:45:05.000Z</time>
      </trkpt>
      <trkpt lat="39.30663577280938625335693359375" lon="-7.64816947281360626220703125">
        <ele>296.600006103515625</ele>
        <time>2019-04-26T10:45:07.000Z</time>
      </trkpt>
      <trkpt lat="39.30682335980236530303955078125" lon="-7.64817726798355579376220703125">
        <ele>296.600006103515625</ele>
        <time>2019-04-26T10:45:45.000Z</time>
      </trkpt>
      <trkpt lat="39.30621349252760410308837890625" lon="-7.64809512533247470855712890625">
        <ele>297.20001220703125</ele>
        <time>2019-04-26T10:48:50.000Z</time>
      </trkpt>
      <trkpt lat="39.30606898851692676544189453125" lon="-7.64810333959758281707763671875">
        <ele>297.79998779296875</ele>
        <time>2019-04-26T10:48:57.000Z</time>
      </trkpt>
      <trkpt lat="39.3058333732187747955322265625" lon="-7.64816653914749622344970703125">
        <ele>298.600006103515625</ele>
        <time>2019-04-26T10:49:08.000Z</time>
      </trkpt>
      <trkpt lat="39.3058405816555023193359375" lon="-7.64886391349136829376220703125">
        <ele>297</ele>
        <time>2019-04-26T10:49:26.000Z</time>
      </trkpt>
      <trkpt lat="39.3059825710952281951904296875" lon="-7.64926247298717498779296875">
        <ele>296.20001220703125</ele>
        <time>2019-04-26T10:49:35.000Z</time>
      </trkpt>
      <trkpt lat="39.30603546090424060821533203125" lon="-7.64942340552806854248046875">
        <ele>295.79998779296875</ele>
        <time>2019-04-26T10:49:38.000Z</time>
      </trkpt>
      <trkpt lat="39.30625121109187602996826171875" lon="-7.6500894315540790557861328125">
        <ele>294.399993896484375</ele>
        <time>2019-04-26T10:49:49.000Z</time>
      </trkpt>
      <trkpt lat="39.30640208534896373748779296875" lon="-7.65078487806022167205810546875">
        <ele>292</ele>
        <time>2019-04-26T10:50:00.000Z</time>
      </trkpt>
      <trkpt lat="39.30645924992859363555908203125" lon="-7.65101906843483448028564453125">
        <ele>292</ele>
        <time>2019-04-26T10:50:04.000Z</time>
      </trkpt>
      <trkpt lat="39.3065357767045497894287109375" lon="-7.6514040492475032806396484375">
        <ele>291.79998779296875</ele>
        <time>2019-04-26T10:50:10.000Z</time>
      </trkpt>
      <trkpt lat="39.30678161792457103729248046875" lon="-7.652066387236118316650390625">
        <ele>291.399993896484375</ele>
        <time>2019-04-26T10:50:20.000Z</time>
      </trkpt>
      <trkpt lat="39.3069324083626270294189453125" lon="-7.6524992287158966064453125">
        <ele>292</ele>
        <time>2019-04-26T10:50:27.000Z</time>
      </trkpt>
      <trkpt lat="39.3070675246417522430419921875" lon="-7.65321730636060237884521484375">
        <ele>293.79998779296875</ele>
        <time>2019-04-26T10:50:40.000Z</time>
      </trkpt>
      <trkpt lat="39.30707775056362152099609375" lon="-7.65341880731284618377685546875">
        <ele>294.20001220703125</ele>
        <time>2019-04-26T10:50:44.000Z</time>
      </trkpt>
      <trkpt lat="39.30717338807880878448486328125" lon="-7.65399900265038013458251953125">
        <ele>296.20001220703125</ele>
        <time>2019-04-26T10:50:54.000Z</time>
      </trkpt>
      <trkpt lat="39.3071751482784748077392578125" lon="-7.65430427156388759613037109375">
        <ele>296.20001220703125</ele>
        <time>2019-04-26T10:50:59.000Z</time>
      </trkpt>
      <trkpt lat="39.30718881078064441680908203125" lon="-7.6545618474483489990234375">
        <ele>295.79998779296875</ele>
        <time>2019-04-26T10:51:03.000Z</time>
      </trkpt>
      <trkpt lat="39.3072019703686237335205078125" lon="-7.65491246245801448822021484375">
        <ele>295.20001220703125</ele>
        <time>2019-04-26T10:51:08.000Z</time>
      </trkpt>
      <trkpt lat="39.30724983103573322296142578125" lon="-7.65533021651208400726318359375">
        <ele>294.20001220703125</ele>
        <time>2019-04-26T10:51:14.000Z</time>
      </trkpt>
      <trkpt lat="39.3072514235973358154296875" lon="-7.65539676882326602935791015625">
        <ele>294</ele>
        <time>2019-04-26T10:51:15.000Z</time>
      </trkpt>
      <trkpt lat="39.30744118988513946533203125" lon="-7.6559145189821720123291015625">
        <ele>293.399993896484375</ele>
        <time>2019-04-26T10:51:27.000Z</time>
      </trkpt>
      <trkpt lat="39.3075566925108432769775390625" lon="-7.65595324337482452392578125">
        <ele>293.20001220703125</ele>
        <time>2019-04-26T10:51:30.000Z</time>
      </trkpt>
      <trkpt lat="39.3076794035732746124267578125" lon="-7.65602541156113147735595703125">
        <ele>292.79998779296875</ele>
        <time>2019-04-26T10:51:33.000Z</time>
      </trkpt>
      <trkpt lat="39.30806656368076801300048828125" lon="-7.6562052033841609954833984375">
        <ele>291.79998779296875</ele>
        <time>2019-04-26T10:51:41.000Z</time>
      </trkpt>
      <trkpt lat="39.308419190347194671630859375" lon="-7.6563393138349056243896484375">
        <ele>291.399993896484375</ele>
        <time>2019-04-26T10:51:48.000Z</time>
      </trkpt>
      <trkpt lat="39.30878338403999805450439453125" lon="-7.65658414922654628753662109375">
        <ele>290.79998779296875</ele>
        <time>2019-04-26T10:51:56.000Z</time>
      </trkpt>
      <trkpt lat="39.30895035155117511749267578125" lon="-7.656694538891315460205078125">
        <ele>290.600006103515625</ele>
        <time>2019-04-26T10:52:02.000Z</time>
      </trkpt>
      <trkpt lat="39.30932007730007171630859375" lon="-7.6570739038288593292236328125">
        <ele>289.600006103515625</ele>
        <time>2019-04-26T10:52:13.000Z</time>
      </trkpt>
      <trkpt lat="39.30975166149437427520751953125" lon="-7.6575536839663982391357421875">
        <ele>288.79998779296875</ele>
        <time>2019-04-26T10:52:24.000Z</time>
      </trkpt>
      <trkpt lat="39.30997495539486408233642578125" lon="-7.65782031230628490447998046875">
        <ele>288</ele>
        <time>2019-04-26T10:52:30.000Z</time>
      </trkpt>
      <trkpt lat="39.310334287583827972412109375" lon="-7.65822532586753368377685546875">
        <ele>288</ele>
        <time>2019-04-26T10:52:40.000Z</time>
      </trkpt>
      <trkpt lat="39.3107558973133563995361328125" lon="-7.658722959458827972412109375">
        <ele>285.79998779296875</ele>
        <time>2019-04-26T10:52:51.000Z</time>
      </trkpt>
      <trkpt lat="39.3111820332705974578857421875" lon="-7.659105174243450164794921875">
        <ele>286.79998779296875</ele>
        <time>2019-04-26T10:53:04.000Z</time>
      </trkpt>
      <trkpt lat="39.3114705383777618408203125" lon="-7.6591779291629791259765625">
        <ele>285.399993896484375</ele>
        <time>2019-04-26T10:53:13.000Z</time>
      </trkpt>
      <trkpt lat="39.31173331104218959808349609375" lon="-7.65930675901472568511962890625">
        <ele>283.79998779296875</ele>
        <time>2019-04-26T10:53:19.000Z</time>
      </trkpt>
      <trkpt lat="39.31190815754234790802001953125" lon="-7.65938303433358669281005859375">
        <ele>282.79998779296875</ele>
        <time>2019-04-26T10:53:27.000Z</time>
      </trkpt>
      <trkpt lat="39.31196968071162700653076171875" lon="-7.65933944843709468841552734375">
        <ele>282.600006103515625</ele>
        <time>2019-04-26T10:53:33.000Z</time>
      </trkpt>
      <trkpt lat="39.31199817918241024017333984375" lon="-7.65934732742607593536376953125">
        <ele>282.399993896484375</ele>
        <time>2019-04-26T10:53:46.000Z</time>
      </trkpt>
      <trkpt lat="39.31201712228357791900634765625" lon="-7.659351937472820281982421875">
        <ele>282.20001220703125</ele>
        <time>2019-04-26T10:53:51.000Z</time>
      </trkpt>
      <trkpt lat="39.312073700129985809326171875" lon="-7.65939460135996341705322265625">
        <ele>281.79998779296875</ele>
        <time>2019-04-26T10:54:45.000Z</time>
      </trkpt>
      <trkpt lat="39.31211284361779689788818359375" lon="-7.65942863188683986663818359375">
        <ele>281.399993896484375</ele>
        <time>2019-04-26T10:54:48.000Z</time>
      </trkpt>
      <trkpt lat="39.31221845559775829315185546875" lon="-7.65939812175929546356201171875">
        <ele>280.79998779296875</ele>
        <time>2019-04-26T10:54:57.000Z</time>
      </trkpt>
      <trkpt lat="39.31225097738206386566162109375" lon="-7.65943382866680622100830078125">
        <ele>280.399993896484375</ele>
        <time>2019-04-26T10:55:24.000Z</time>
      </trkpt>
      <trkpt lat="39.31235491298139095306396484375" lon="-7.6595856249332427978515625">
        <ele>279.20001220703125</ele>
        <time>2019-04-26T10:55:38.000Z</time>
      </trkpt>
      <trkpt lat="39.31242163293063640594482421875" lon="-7.6596531830728054046630859375">
        <ele>278.600006103515625</ele>
        <time>2019-04-26T10:56:25.000Z</time>
      </trkpt>
      <trkpt lat="39.3124249018728733062744140625" lon="-7.65966433100402355194091796875">
        <ele>278.600006103515625</ele>
        <time>2019-04-26T10:56:26.000Z</time>
      </trkpt>
      <trkpt lat="39.31246739812195301055908203125" lon="-7.65974731184542179107666015625">
        <ele>278</ele>
        <time>2019-04-26T10:56:35.000Z</time>
      </trkpt>
      <trkpt lat="39.312566556036472320556640625" lon="-7.65978503040969371795654296875">
        <ele>277.20001220703125</ele>
        <time>2019-04-26T10:56:44.000Z</time>
      </trkpt>
      <trkpt lat="39.31262095458805561065673828125" lon="-7.6597738824784755706787109375">
        <ele>277</ele>
        <time>2019-04-26T10:56:49.000Z</time>
      </trkpt>
      <trkpt lat="39.31280049495398998260498046875" lon="-7.659835405647754669189453125">
        <ele>275.399993896484375</ele>
        <time>2019-04-26T10:57:07.000Z</time>
      </trkpt>
      <trkpt lat="39.31285346858203411102294921875" lon="-7.6598489843308925628662109375">
        <ele>275.600006103515625</ele>
        <time>2019-04-26T10:57:11.000Z</time>
      </trkpt>
      <trkpt lat="39.31322713382542133331298828125" lon="-7.66013254411518573760986328125">
        <ele>276.79998779296875</ele>
        <time>2019-04-26T10:57:28.000Z</time>
      </trkpt>
      <trkpt lat="39.3132570572197437286376953125" lon="-7.6601577736437320709228515625">
        <ele>276.79998779296875</ele>
        <time>2019-04-26T10:57:32.000Z</time>
      </trkpt>
      <trkpt lat="39.3132919259369373321533203125" lon="-7.66020747832953929901123046875">
        <ele>277</ele>
        <time>2019-04-26T10:57:36.000Z</time>
      </trkpt>
      <trkpt lat="39.31331967003643512725830078125" lon="-7.660231031477451324462890625">
        <ele>277</ele>
        <time>2019-04-26T10:57:39.000Z</time>
      </trkpt>
      <trkpt lat="39.3133687041699886322021484375" lon="-7.66026497818529605865478515625">
        <ele>277.20001220703125</ele>
        <time>2019-04-26T10:57:43.000Z</time>
      </trkpt>
      <trkpt lat="39.31342997588217258453369140625" lon="-7.6603012718260288238525390625">
        <ele>277.399993896484375</ele>
        <time>2019-04-26T10:57:48.000Z</time>
      </trkpt>
      <trkpt lat="39.31346115656197071075439453125" lon="-7.66032767482101917266845703125">
        <ele>277.600006103515625</ele>
        <time>2019-04-26T10:57:52.000Z</time>
      </trkpt>
      <trkpt lat="39.31353005580604076385498046875" lon="-7.6603555865585803985595703125">
        <ele>278</ele>
        <time>2019-04-26T10:58:00.000Z</time>
      </trkpt>
      <trkpt lat="39.31354857981204986572265625" lon="-7.66035868786275386810302734375">
        <ele>278</ele>
        <time>2019-04-26T10:58:20.000Z</time>
      </trkpt>
      <trkpt lat="39.31359283626079559326171875" lon="-7.6603974960744380950927734375">
        <ele>278.20001220703125</ele>
        <time>2019-04-26T10:58:26.000Z</time>
      </trkpt>
      <trkpt lat="39.31360230781137943267822265625" lon="-7.66040495596826076507568359375">
        <ele>278.399993896484375</ele>
        <time>2019-04-26T10:58:32.000Z</time>
      </trkpt>
      <trkpt lat="39.31403347291052341461181640625" lon="-7.6608403958380222320556640625">
        <ele>280.399993896484375</ele>
        <time>2019-04-26T10:58:48.000Z</time>
      </trkpt>
      <trkpt lat="39.3142166174948215484619140625" lon="-7.66102119348943233489990234375">
        <ele>282</ele>
        <time>2019-04-26T10:58:54.000Z</time>
      </trkpt>
      <trkpt lat="39.314753897488117218017578125" lon="-7.66122688539326190948486328125">
        <ele>283.600006103515625</ele>
        <time>2019-04-26T10:59:12.000Z</time>
      </trkpt>
      <trkpt lat="39.3152851425111293792724609375" lon="-7.6613436453044414520263671875">
        <ele>285.399993896484375</ele>
        <time>2019-04-26T10:59:33.000Z</time>
      </trkpt>
      <trkpt lat="39.3158373422920703887939453125" lon="-7.66146191395819187164306640625">
        <ele>285.20001220703125</ele>
        <time>2019-04-26T10:59:50.000Z</time>
      </trkpt>
      <trkpt lat="39.31639247573912143707275390625" lon="-7.661469541490077972412109375">
        <ele>285.20001220703125</ele>
        <time>2019-04-26T11:00:07.000Z</time>
      </trkpt>
      <trkpt lat="39.3169209547340869903564453125" lon="-7.66169409267604351043701171875">
        <ele>284</ele>
        <time>2019-04-26T11:00:20.000Z</time>
      </trkpt>
      <trkpt lat="39.31695976294577121734619140625" lon="-7.66170297749340534210205078125">
        <ele>284</ele>
        <time>2019-04-26T11:00:21.000Z</time>
      </trkpt>
      <trkpt lat="39.3173189274966716766357421875" lon="-7.66181848011910915374755859375">
        <ele>284.20001220703125</ele>
        <time>2019-04-26T11:00:29.000Z</time>
      </trkpt>
      <trkpt lat="39.31760265491902828216552734375" lon="-7.661814205348491668701171875">
        <ele>284.20001220703125</ele>
        <time>2019-04-26T11:00:35.000Z</time>
      </trkpt>
      <trkpt lat="39.31766417808830738067626953125" lon="-7.66151639632880687713623046875">
        <ele>284</ele>
        <time>2019-04-26T11:00:44.000Z</time>
      </trkpt>
      <trkpt lat="39.3175992183387279510498046875" lon="-7.66120777465403079986572265625">
        <ele>284</ele>
        <time>2019-04-26T11:00:50.000Z</time>
      </trkpt>
      <trkpt lat="39.31760047562420368194580078125" lon="-7.6607921160757541656494140625">
        <ele>284.399993896484375</ele>
        <time>2019-04-26T11:00:56.000Z</time>
      </trkpt>
      <trkpt lat="39.31760868988931179046630859375" lon="-7.6606523059308528900146484375">
        <ele>284.399993896484375</ele>
        <time>2019-04-26T11:00:58.000Z</time>
      </trkpt>
      <trkpt lat="39.3176798522472381591796875" lon="-7.65989701263606548309326171875">
        <ele>284.399993896484375</ele>
        <time>2019-04-26T11:01:09.000Z</time>
      </trkpt>
      <trkpt lat="39.31774347089231014251708984375" lon="-7.65947070904076099395751953125">
        <ele>284.20001220703125</ele>
        <time>2019-04-26T11:01:15.000Z</time>
      </trkpt>
      <trkpt lat="39.31783215142786502838134765625" lon="-7.65927105210721492767333984375">
        <ele>284</ele>
        <time>2019-04-26T11:01:18.000Z</time>
      </trkpt>
      <trkpt lat="39.3181470595300197601318359375" lon="-7.65898137353360652923583984375">
        <ele>283.399993896484375</ele>
        <time>2019-04-26T11:01:25.000Z</time>
      </trkpt>
      <trkpt lat="39.31818687357008457183837890625" lon="-7.65892957337200641632080078125">
        <ele>283.399993896484375</ele>
        <time>2019-04-26T11:01:26.000Z</time>
      </trkpt>
      <trkpt lat="39.31842676363885402679443359375" lon="-7.6583318598568439483642578125">
        <ele>283.20001220703125</ele>
        <time>2019-04-26T11:01:41.000Z</time>
      </trkpt>
      <trkpt lat="39.31841217912733554840087890625" lon="-7.65835625119507312774658203125">
        <ele>283.20001220703125</ele>
        <time>2019-04-26T11:03:11.000Z</time>
      </trkpt>
      <trkpt lat="39.31842005811631679534912109375" lon="-7.65834175050258636474609375">
        <ele>283.20001220703125</ele>
        <time>2019-04-26T11:03:14.000Z</time>
      </trkpt>
      <trkpt lat="39.31842844001948833465576171875" lon="-7.65831233002245426177978515625">
        <ele>283.20001220703125</ele>
        <time>2019-04-26T11:03:46.000Z</time>
      </trkpt>
      <trkpt lat="39.3185845948755741119384765625" lon="-7.657800614833831787109375">
        <ele>282.399993896484375</ele>
        <time>2019-04-26T11:03:59.000Z</time>
      </trkpt>
      <trkpt lat="39.31864284910261631011962890625" lon="-7.65755427069962024688720703125">
        <ele>282</ele>
        <time>2019-04-26T11:04:06.000Z</time>
      </trkpt>
      <trkpt lat="39.3186395801603794097900390625" lon="-7.65681783668696880340576171875">
        <ele>280.20001220703125</ele>
        <time>2019-04-26T11:04:22.000Z</time>
      </trkpt>
      <trkpt lat="39.31858032010495662689208984375" lon="-7.65609933994710445404052734375">
        <ele>279.399993896484375</ele>
        <time>2019-04-26T11:04:32.000Z</time>
      </trkpt>
      <trkpt lat="39.31857411749660968780517578125" lon="-7.6559594459831714630126953125">
        <ele>279.20001220703125</ele>
        <time>2019-04-26T11:04:34.000Z</time>
      </trkpt>
      <trkpt lat="39.31847873143851757049560546875" lon="-7.655238769948482513427734375">
        <ele>279.399993896484375</ele>
        <time>2019-04-26T11:04:45.000Z</time>
      </trkpt>
      <trkpt lat="39.31847973726689815521240234375" lon="-7.65517565421760082244873046875">
        <ele>279.399993896484375</ele>
        <time>2019-04-26T11:04:46.000Z</time>
      </trkpt>
      <trkpt lat="39.3184809945523738861083984375" lon="-7.6547387056052684783935546875">
        <ele>280.399993896484375</ele>
        <time>2019-04-26T11:04:53.000Z</time>
      </trkpt>
      <trkpt lat="39.31843045167624950408935546875" lon="-7.6540078036487102508544921875">
        <ele>282</ele>
        <time>2019-04-26T11:05:07.000Z</time>
      </trkpt>
      <trkpt lat="39.31822928600013256072998046875" lon="-7.65334705822169780731201171875">
        <ele>283.399993896484375</ele>
        <time>2019-04-26T11:05:23.000Z</time>
      </trkpt>
      <trkpt lat="39.31799761019647121429443359375" lon="-7.65268153510987758636474609375">
        <ele>282.600006103515625</ele>
        <time>2019-04-26T11:05:37.000Z</time>
      </trkpt>
      <trkpt lat="39.3178121186792850494384765625" lon="-7.6520454324781894683837890625">
        <ele>284.20001220703125</ele>
        <time>2019-04-26T11:05:57.000Z</time>
      </trkpt>
      <trkpt lat="39.3177842907607555389404296875" lon="-7.652022801339626312255859375">
        <ele>284.20001220703125</ele>
        <time>2019-04-26T11:06:53.000Z</time>
      </trkpt>
      <trkpt lat="39.31760919280350208282470703125" lon="-7.651776373386383056640625">
        <ele>284.79998779296875</ele>
        <time>2019-04-26T11:07:09.000Z</time>
      </trkpt>
      <trkpt lat="39.31763685308396816253662109375" lon="-7.65181534923613071441650390625">
        <ele>284.79998779296875</ele>
        <time>2019-04-26T11:07:19.000Z</time>
      </trkpt>
      <trkpt lat="39.3177048303186893463134765625" lon="-7.65190687961876392364501953125">
        <ele>284.600006103515625</ele>
        <time>2019-04-26T11:07:24.000Z</time>
      </trkpt>
      <trkpt lat="39.3178483285009860992431640625" lon="-7.65208641998469829559326171875">
        <ele>283.79998779296875</ele>
        <time>2019-04-26T11:07:34.000Z</time>
      </trkpt>
      <trkpt lat="39.3178474903106689453125" lon="-7.6520870067179203033447265625">
        <ele>283.79998779296875</ele>
        <time>2019-04-26T11:07:36.000Z</time>
      </trkpt>
      <trkpt lat="39.317888729274272918701171875" lon="-7.6521315984427928924560546875">
        <ele>283.600006103515625</ele>
        <time>2019-04-26T11:08:26.000Z</time>
      </trkpt>
      <trkpt lat="39.31828326545655727386474609375" lon="-7.6524283178150653839111328125">
        <ele>281.600006103515625</ele>
        <time>2019-04-26T11:08:40.000Z</time>
      </trkpt>
      <trkpt lat="39.31878936477005481719970703125" lon="-7.65274356119334697723388671875">
        <ele>280.600006103515625</ele>
        <time>2019-04-26T11:08:52.000Z</time>
      </trkpt>
      <trkpt lat="39.31927367113530635833740234375" lon="-7.65313616953790187835693359375">
        <ele>280.399993896484375</ele>
        <time>2019-04-26T11:09:04.000Z</time>
      </trkpt>
      <trkpt lat="39.31974657811224460601806640625" lon="-7.65358963049948215484619140625">
        <ele>279.600006103515625</ele>
        <time>2019-04-26T11:09:16.000Z</time>
      </trkpt>
      <trkpt lat="39.3200349994003772735595703125" lon="-7.65385500155389308929443359375">
        <ele>278.600006103515625</ele>
        <time>2019-04-26T11:09:23.000Z</time>
      </trkpt>
      <trkpt lat="39.320182688534259796142578125" lon="-7.653909064829349517822265625">
        <ele>278</ele>
        <time>2019-04-26T11:09:26.000Z</time>
      </trkpt>
      <trkpt lat="39.320369102060794830322265625" lon="-7.65387914143502712249755859375">
        <ele>277.600006103515625</ele>
        <time>2019-04-26T11:09:30.000Z</time>
      </trkpt>
      <trkpt lat="39.32090177200734615325927734375" lon="-7.65373111702501773834228515625">
        <ele>279</ele>
        <time>2019-04-26T11:09:44.000Z</time>
      </trkpt>
      <trkpt lat="39.32122279889881610870361328125" lon="-7.65369440428912639617919921875">
        <ele>280.20001220703125</ele>
        <time>2019-04-26T11:09:52.000Z</time>
      </trkpt>
      <trkpt lat="39.3214884214103221893310546875" lon="-7.6538592763245105743408203125">
        <ele>281.399993896484375</ele>
        <time>2019-04-26T11:09:59.000Z</time>
      </trkpt>
      <trkpt lat="39.32160601951181888580322265625" lon="-7.65392708592116832733154296875">
        <ele>281.600006103515625</ele>
        <time>2019-04-26T11:10:02.000Z</time>
      </trkpt>
      <trkpt lat="39.32171992957592010498046875" lon="-7.65401937067508697509765625">
        <ele>281.79998779296875</ele>
        <time>2019-04-26T11:10:05.000Z</time>
      </trkpt>
      <trkpt lat="39.321798719465732574462890625" lon="-7.65407511033117771148681640625">
        <ele>281.79998779296875</ele>
        <time>2019-04-26T11:10:07.000Z</time>
      </trkpt>
      <trkpt lat="39.32188547216355800628662109375" lon="-7.65420377254486083984375">
        <ele>281.600006103515625</ele>
        <time>2019-04-26T11:10:10.000Z</time>
      </trkpt>
      <trkpt lat="39.3219688721001148223876953125" lon="-7.654402591288089752197265625">
        <ele>280.79998779296875</ele>
        <time>2019-04-26T11:10:14.000Z</time>
      </trkpt>
      <trkpt lat="39.32241805829107761383056640625" lon="-7.65478975139558315277099609375">
        <ele>279.79998779296875</ele>
        <time>2019-04-26T11:10:28.000Z</time>
      </trkpt>
      <trkpt lat="39.3227923102676868438720703125" lon="-7.65489519573748111724853515625">
        <ele>280.600006103515625</ele>
        <time>2019-04-26T11:10:42.000Z</time>
      </trkpt>
      <trkpt lat="39.32290839962661266326904296875" lon="-7.65497331507503986358642578125">
        <ele>280.600006103515625</ele>
        <time>2019-04-26T11:10:47.000Z</time>
      </trkpt>
      <trkpt lat="39.32337895967066287994384765625" lon="-7.6553542725741863250732421875">
        <ele>280.399993896484375</ele>
        <time>2019-04-26T11:11:07.000Z</time>
      </trkpt>
      <trkpt lat="39.32379730045795440673828125" lon="-7.65582441352307796478271484375">
        <ele>278.600006103515625</ele>
        <time>2019-04-26T11:11:27.000Z</time>
      </trkpt>
      <trkpt lat="39.32410550303757190704345703125" lon="-7.6564204506576061248779296875">
        <ele>278</ele>
        <time>2019-04-26T11:11:47.000Z</time>
      </trkpt>
      <trkpt lat="39.3242692016065120697021484375" lon="-7.65688665211200714111328125">
        <ele>278.20001220703125</ele>
        <time>2019-04-26T11:12:05.000Z</time>
      </trkpt>
      <trkpt lat="39.32426928542554378509521484375" lon="-7.65688640065491199493408203125">
        <ele>278.20001220703125</ele>
        <time>2019-04-26T11:12:06.000Z</time>
      </trkpt>
      <trkpt lat="39.32431991212069988250732421875" lon="-7.6569146476686000823974609375">
        <ele>278.399993896484375</ele>
        <time>2019-04-26T11:12:42.000Z</time>
      </trkpt>
      <trkpt lat="39.32473666034638881683349609375" lon="-7.65649999491870403289794921875">
        <ele>280.79998779296875</ele>
        <time>2019-04-26T11:13:12.000Z</time>
      </trkpt>
      <trkpt lat="39.32475174777209758758544921875" lon="-7.6564858295023441314697265625">
        <ele>281</ele>
        <time>2019-04-26T11:13:17.000Z</time>
      </trkpt>
      <trkpt lat="39.32434715330600738525390625" lon="-7.6569183357059955596923828125">
        <ele>278.399993896484375</ele>
        <time>2019-04-26T11:13:38.000Z</time>
      </trkpt>
      <trkpt lat="39.324340112507343292236328125" lon="-7.65693468041718006134033203125">
        <ele>278.399993896484375</ele>
        <time>2019-04-26T11:13:39.000Z</time>
      </trkpt>
      <trkpt lat="39.324427284300327301025390625" lon="-7.6570829562842845916748046875">
        <ele>278.399993896484375</ele>
        <time>2019-04-26T11:13:47.000Z</time>
      </trkpt>
      <trkpt lat="39.32450582273304462432861328125" lon="-7.65719049610197544097900390625">
        <ele>278.600006103515625</ele>
        <time>2019-04-26T11:13:53.000Z</time>
      </trkpt>
      <trkpt lat="39.3245092593133449554443359375" lon="-7.6571986265480518341064453125">
        <ele>278.600006103515625</ele>
        <time>2019-04-26T11:13:55.000Z</time>
      </trkpt>
      <trkpt lat="39.3245209939777851104736328125" lon="-7.65721363015472888946533203125">
        <ele>278.600006103515625</ele>
        <time>2019-04-26T11:13:57.000Z</time>
      </trkpt>
      <trkpt lat="39.325034134089946746826171875" lon="-7.6574329845607280731201171875">
        <ele>279.79998779296875</ele>
        <time>2019-04-26T11:14:16.000Z</time>
      </trkpt>
      <trkpt lat="39.3255762755870819091796875" lon="-7.657376490533351898193359375">
        <ele>280.600006103515625</ele>
        <time>2019-04-26T11:14:33.000Z</time>
      </trkpt>
      <trkpt lat="39.32612671516835689544677734375" lon="-7.6574403606355190277099609375">
        <ele>278.79998779296875</ele>
        <time>2019-04-26T11:14:51.000Z</time>
      </trkpt>
      <trkpt lat="39.3263117037713527679443359375" lon="-7.657450251281261444091796875">
        <ele>278</ele>
        <time>2019-04-26T11:14:55.000Z</time>
      </trkpt>
      <trkpt lat="39.32663440704345703125" lon="-7.6574225910007953643798828125">
        <ele>277.600006103515625</ele>
        <time>2019-04-26T11:15:03.000Z</time>
      </trkpt>
      <trkpt lat="39.326818473637104034423828125" lon="-7.6574024744331836700439453125">
        <ele>277.399993896484375</ele>
        <time>2019-04-26T11:15:09.000Z</time>
      </trkpt>
      <trkpt lat="39.32740394957363605499267578125" lon="-7.65740968286991119384765625">
        <ele>275.600006103515625</ele>
        <time>2019-04-26T11:15:22.000Z</time>
      </trkpt>
      <trkpt lat="39.3275552429258823394775390625" lon="-7.6574215851724147796630859375">
        <ele>275</ele>
        <time>2019-04-26T11:15:25.000Z</time>
      </trkpt>
      <trkpt lat="39.32769949547946453094482421875" lon="-7.65745586715638637542724609375">
        <ele>274.399993896484375</ele>
        <time>2019-04-26T11:15:28.000Z</time>
      </trkpt>
      <trkpt lat="39.32820442132651805877685546875" lon="-7.6577451266348361968994140625">
        <ele>275.79998779296875</ele>
        <time>2019-04-26T11:15:41.000Z</time>
      </trkpt>
      <trkpt lat="39.32872192002832889556884765625" lon="-7.657966911792755126953125">
        <ele>274.79998779296875</ele>
        <time>2019-04-26T11:15:57.000Z</time>
      </trkpt>
      <trkpt lat="39.3289107643067836761474609375" lon="-7.65798694454133510589599609375">
        <ele>274.79998779296875</ele>
        <time>2019-04-26T11:16:02.000Z</time>
      </trkpt>
      <trkpt lat="39.32943396270275115966796875" lon="-7.65797252766788005828857421875">
        <ele>274.79998779296875</ele>
        <time>2019-04-26T11:16:20.000Z</time>
      </trkpt>
      <trkpt lat="39.329913742840290069580078125" lon="-7.65756634064018726348876953125">
        <ele>276.20001220703125</ele>
        <time>2019-04-26T11:16:37.000Z</time>
      </trkpt>
      <trkpt lat="39.33008481748402118682861328125" lon="-7.65729610808193683624267578125">
        <ele>277</ele>
        <time>2019-04-26T11:16:42.000Z</time>
      </trkpt>
      <trkpt lat="39.33015924878418445587158203125" lon="-7.65721245668828487396240234375">
        <ele>277.399993896484375</ele>
        <time>2019-04-26T11:16:44.000Z</time>
      </trkpt>
      <trkpt lat="39.33065394870936870574951171875" lon="-7.6568190939724445343017578125">
        <ele>276</ele>
        <time>2019-04-26T11:16:55.000Z</time>
      </trkpt>
      <trkpt lat="39.331119060516357421875" lon="-7.65640930272638797760009765625">
        <ele>274.399993896484375</ele>
        <time>2019-04-26T11:17:07.000Z</time>
      </trkpt>
      <trkpt lat="39.33138317428529262542724609375" lon="-7.65620059333741664886474609375">
        <ele>274.79998779296875</ele>
        <time>2019-04-26T11:17:14.000Z</time>
      </trkpt>
      <trkpt lat="39.33159674517810344696044921875" lon="-7.6559336297214031219482421875">
        <ele>275.600006103515625</ele>
        <time>2019-04-26T11:17:23.000Z</time>
      </trkpt>
      <trkpt lat="39.33166245929896831512451171875" lon="-7.6559695042669773101806640625">
        <ele>275.20001220703125</ele>
        <time>2019-04-26T11:17:30.000Z</time>
      </trkpt>
      <trkpt lat="39.33171275071799755096435546875" lon="-7.65592776238918304443359375">
        <ele>275.20001220703125</ele>
        <time>2019-04-26T11:17:36.000Z</time>
      </trkpt>
      <trkpt lat="39.33174409903585910797119140625" lon="-7.6558662392199039459228515625">
        <ele>275.600006103515625</ele>
        <time>2019-04-26T11:17:41.000Z</time>
      </trkpt>
      <trkpt lat="39.33229361660778522491455078125" lon="-7.65578619204461574554443359375">
        <ele>275.600006103515625</ele>
        <time>2019-04-26T11:18:03.000Z</time>
      </trkpt>
      <trkpt lat="39.332473240792751312255859375" lon="-7.65566666610538959503173828125">
        <ele>276</ele>
        <time>2019-04-26T11:18:12.000Z</time>
      </trkpt>
      <trkpt lat="39.3325106240808963775634765625" lon="-7.65556306578218936920166015625">
        <ele>276.399993896484375</ele>
        <time>2019-04-26T11:18:53.000Z</time>
      </trkpt>
      <trkpt lat="39.33298252522945404052734375" lon="-7.65519023872911930084228515625">
        <ele>276.79998779296875</ele>
        <time>2019-04-26T11:19:09.000Z</time>
      </trkpt>
      <trkpt lat="39.3334416858851909637451171875" lon="-7.65479846857488155364990234375">
        <ele>275.79998779296875</ele>
        <time>2019-04-26T11:19:23.000Z</time>
      </trkpt>
      <trkpt lat="39.33395750820636749267578125" lon="-7.654706351459026336669921875">
        <ele>274.399993896484375</ele>
        <time>2019-04-26T11:19:39.000Z</time>
      </trkpt>
      <trkpt lat="39.334512390196323394775390625" lon="-7.65479243360459804534912109375">
        <ele>273.79998779296875</ele>
        <time>2019-04-26T11:19:53.000Z</time>
      </trkpt>
      <trkpt lat="39.33505293913185596466064453125" lon="-7.65490441583096981048583984375">
        <ele>275</ele>
        <time>2019-04-26T11:20:07.000Z</time>
      </trkpt>
      <trkpt lat="39.335592649877071380615234375" lon="-7.65489620156586170196533203125">
        <ele>275</ele>
        <time>2019-04-26T11:20:21.000Z</time>
      </trkpt>
      <trkpt lat="39.33586858212947845458984375" lon="-7.65472051687538623809814453125">
        <ele>275</ele>
        <time>2019-04-26T11:20:39.000Z</time>
      </trkpt>
      <trkpt lat="39.33619455434381961822509765625" lon="-7.6550314016640186309814453125">
        <ele>275</ele>
        <time>2019-04-26T11:20:51.000Z</time>
      </trkpt>
      <trkpt lat="39.3363203667104244232177734375" lon="-7.65501254238188266754150390625">
        <ele>275</ele>
        <time>2019-04-26T11:21:00.000Z</time>
      </trkpt>
      <trkpt lat="39.33639228343963623046875" lon="-7.65496577136218547821044921875">
        <ele>274.79998779296875</ele>
        <time>2019-04-26T11:22:04.000Z</time>
      </trkpt>
      <trkpt lat="39.336411394178867340087890625" lon="-7.65496426261961460113525390625">
        <ele>274.79998779296875</ele>
        <time>2019-04-26T11:22:05.000Z</time>
      </trkpt>
      <trkpt lat="39.33646881021559238433837890625" lon="-7.654948420822620391845703125">
        <ele>274.79998779296875</ele>
        <time>2019-04-26T11:22:11.000Z</time>
      </trkpt>
      <trkpt lat="39.33650451712310314178466796875" lon="-7.654915563762187957763671875">
        <ele>274.79998779296875</ele>
        <time>2019-04-26T11:22:15.000Z</time>
      </trkpt>
      <trkpt lat="39.33660275302827358245849609375" lon="-7.654843144118785858154296875">
        <ele>274.600006103515625</ele>
        <time>2019-04-26T11:22:19.000Z</time>
      </trkpt>
      <trkpt lat="39.33712226338684558868408203125" lon="-7.654700316488742828369140625">
        <ele>275</ele>
        <time>2019-04-26T11:22:37.000Z</time>
      </trkpt>
      <trkpt lat="39.337297193706035614013671875" lon="-7.65466318465769290924072265625">
        <ele>275.600006103515625</ele>
        <time>2019-04-26T11:22:44.000Z</time>
      </trkpt>
      <trkpt lat="39.3378391675651073455810546875" lon="-7.65465564094483852386474609375">
        <ele>277.20001220703125</ele>
        <time>2019-04-26T11:23:03.000Z</time>
      </trkpt>
      <trkpt lat="39.3383766151964664459228515625" lon="-7.6546012423932552337646484375">
        <ele>280.20001220703125</ele>
        <time>2019-04-26T11:23:24.000Z</time>
      </trkpt>
      <trkpt lat="39.33878355659544467926025390625" lon="-7.654527314007282257080078125">
        <ele>282.20001220703125</ele>
        <time>2019-04-26T11:23:44.000Z</time>
      </trkpt>
      <trkpt lat="39.338899813592433929443359375" lon="-7.6545382104814052581787109375">
        <ele>282.79998779296875</ele>
        <time>2019-04-26T11:23:49.000Z</time>
      </trkpt>
      <trkpt lat="39.33941555209457874298095703125" lon="-7.654637955129146575927734375">
        <ele>285.20001220703125</ele>
        <time>2019-04-26T11:24:14.000Z</time>
      </trkpt>
      <trkpt lat="39.33994998224079608917236328125" lon="-7.65474733896553516387939453125">
        <ele>287.20001220703125</ele>
        <time>2019-04-26T11:24:37.000Z</time>
      </trkpt>
      <trkpt lat="39.34048005379736423492431640625" lon="-7.6548515260219573974609375">
        <ele>289</ele>
        <time>2019-04-26T11:24:57.000Z</time>
      </trkpt>
      <trkpt lat="39.34103711508214473724365234375" lon="-7.6549207605421543121337890625">
        <ele>291.20001220703125</ele>
        <time>2019-04-26T11:25:20.000Z</time>
      </trkpt>
      <trkpt lat="39.34159350581467151641845703125" lon="-7.654901482164859771728515625">
        <ele>295.20001220703125</ele>
        <time>2019-04-26T11:25:41.000Z</time>
      </trkpt>
      <trkpt lat="39.34165989048779010772705078125" lon="-7.654890082776546478271484375">
        <ele>295.600006103515625</ele>
        <time>2019-04-26T11:25:47.000Z</time>
      </trkpt>
      <trkpt lat="39.34171386994421482086181640625" lon="-7.6549341715872287750244140625">
        <ele>296</ele>
        <time>2019-04-26T11:28:35.000Z</time>
      </trkpt>
      <trkpt lat="39.3419751338660717010498046875" lon="-7.65493668615818023681640625">
        <ele>298</ele>
        <time>2019-04-26T11:28:43.000Z</time>
      </trkpt>
      <trkpt lat="39.34210446663200855255126953125" lon="-7.65492327511310577392578125">
        <ele>298.399993896484375</ele>
        <time>2019-04-26T11:28:46.000Z</time>
      </trkpt>
      <trkpt lat="39.342655241489410400390625" lon="-7.6549026556313037872314453125">
        <ele>299.20001220703125</ele>
        <time>2019-04-26T11:29:03.000Z</time>
      </trkpt>
      <trkpt lat="39.3432183377444744110107421875" lon="-7.654839120805263519287109375">
        <ele>300.20001220703125</ele>
        <time>2019-04-26T11:29:22.000Z</time>
      </trkpt>
      <trkpt lat="39.34369887225329875946044921875" lon="-7.6544983126223087310791015625">
        <ele>301.79998779296875</ele>
        <time>2019-04-26T11:29:40.000Z</time>
      </trkpt>
      <trkpt lat="39.3437356688082218170166015625" lon="-7.6544319279491901397705078125">
        <ele>301.79998779296875</ele>
        <time>2019-04-26T11:29:42.000Z</time>
      </trkpt>
      <trkpt lat="39.34421150945127010345458984375" lon="-7.65400889329612255096435546875">
        <ele>300.79998779296875</ele>
        <time>2019-04-26T11:29:59.000Z</time>
      </trkpt>
      <trkpt lat="39.34433162212371826171875" lon="-7.65392172150313854217529296875">
        <ele>300</ele>
        <time>2019-04-26T11:30:02.000Z</time>
      </trkpt>
      <trkpt lat="39.3444112502038478851318359375" lon="-7.6538562588393688201904296875">
        <ele>299.399993896484375</ele>
        <time>2019-04-26T11:30:04.000Z</time>
      </trkpt>
      <trkpt lat="39.34453555382788181304931640625" lon="-7.6537667401134967803955078125">
        <ele>298.600006103515625</ele>
        <time>2019-04-26T11:30:10.000Z</time>
      </trkpt>
      <trkpt lat="39.34456069953739643096923828125" lon="-7.6537251658737659454345703125">
        <ele>298.20001220703125</ele>
        <time>2019-04-26T11:32:11.000Z</time>
      </trkpt>
      <trkpt lat="39.34466480277478694915771484375" lon="-7.653638832271099090576171875">
        <ele>297.399993896484375</ele>
        <time>2019-04-26T11:32:16.000Z</time>
      </trkpt>
      <trkpt lat="39.34512580744922161102294921875" lon="-7.65319953672587871551513671875">
        <ele>295.600006103515625</ele>
        <time>2019-04-26T11:32:32.000Z</time>
      </trkpt>
      <trkpt lat="39.3455344252288341522216796875" lon="-7.652696035802364349365234375">
        <ele>297</ele>
        <time>2019-04-26T11:32:50.000Z</time>
      </trkpt>
      <trkpt lat="39.3459448032081127166748046875" lon="-7.65222304500639438629150390625">
        <ele>299</ele>
        <time>2019-04-26T11:33:11.000Z</time>
      </trkpt>
      <trkpt lat="39.34638326056301593780517578125" lon="-7.6517527364194393157958984375">
        <ele>300.79998779296875</ele>
        <time>2019-04-26T11:33:36.000Z</time>
      </trkpt>
      <trkpt lat="39.34657084755599498748779296875" lon="-7.65161435119807720184326171875">
        <ele>301.399993896484375</ele>
        <time>2019-04-26T11:33:41.000Z</time>
      </trkpt>
      <trkpt lat="39.34699530713260173797607421875" lon="-7.6511509157717227935791015625">
        <ele>301.79998779296875</ele>
        <time>2019-04-26T11:33:59.000Z</time>
      </trkpt>
      <trkpt lat="39.34741121716797351837158203125" lon="-7.65066266991198062896728515625">
        <ele>301.20001220703125</ele>
        <time>2019-04-26T11:34:22.000Z</time>
      </trkpt>
      <trkpt lat="39.34771724045276641845703125" lon="-7.65038338489830493927001953125">
        <ele>301.399993896484375</ele>
        <time>2019-04-26T11:34:34.000Z</time>
      </trkpt>
      <trkpt lat="39.34792108833789825439453125" lon="-7.6501082070171833038330078125">
        <ele>301</ele>
        <time>2019-04-26T11:34:40.000Z</time>
      </trkpt>
      <trkpt lat="39.3480322323739528656005859375" lon="-7.64992640353739261627197265625">
        <ele>300.399993896484375</ele>
        <time>2019-04-26T11:34:44.000Z</time>
      </trkpt>
      <trkpt lat="39.3482649140059947967529296875" lon="-7.64979698695242404937744140625">
        <ele>300</ele>
        <time>2019-04-26T11:34:51.000Z</time>
      </trkpt>
      <trkpt lat="39.34883027337491512298583984375" lon="-7.64982640743255615234375">
        <ele>300.600006103515625</ele>
        <time>2019-04-26T11:35:09.000Z</time>
      </trkpt>
      <trkpt lat="39.34935732744634151458740234375" lon="-7.6497129164636135101318359375">
        <ele>303.600006103515625</ele>
        <time>2019-04-26T11:35:27.000Z</time>
      </trkpt>
      <trkpt lat="39.34981883503496646881103515625" lon="-7.64937914907932281494140625">
        <ele>305.600006103515625</ele>
        <time>2019-04-26T11:35:43.000Z</time>
      </trkpt>
      <trkpt lat="39.35001446865499019622802734375" lon="-7.64905082993209362030029296875">
        <ele>306</ele>
        <time>2019-04-26T11:35:56.000Z</time>
      </trkpt>
      <trkpt lat="39.35001346282660961151123046875" lon="-7.64901101589202880859375">
        <ele>306</ele>
        <time>2019-04-26T11:36:52.000Z</time>
      </trkpt>
      <trkpt lat="39.35002435930073261260986328125" lon="-7.64899970032274723052978515625">
        <ele>306</ele>
        <time>2019-04-26T11:36:53.000Z</time>
      </trkpt>
      <trkpt lat="39.350181519985198974609375" lon="-7.64884698204696178436279296875">
        <ele>306.79998779296875</ele>
        <time>2019-04-26T11:37:02.000Z</time>
      </trkpt>
      <trkpt lat="39.35043524019420146942138671875" lon="-7.64820207841694355010986328125">
        <ele>305.79998779296875</ele>
        <time>2019-04-26T11:37:19.000Z</time>
      </trkpt>
      <trkpt lat="39.35060170479118824005126953125" lon="-7.6477839052677154541015625">
        <ele>302.79998779296875</ele>
        <time>2019-04-26T11:37:27.000Z</time>
      </trkpt>
      <trkpt lat="39.35076314024627208709716796875" lon="-7.64738635160028934478759765625">
        <ele>299.79998779296875</ele>
        <time>2019-04-26T11:37:38.000Z</time>
      </trkpt>
      <trkpt lat="39.35086171142756938934326171875" lon="-7.647393979132175445556640625">
        <ele>300</ele>
        <time>2019-04-26T11:37:42.000Z</time>
      </trkpt>
      <trkpt lat="39.351069666445255279541015625" lon="-7.64749716036021709442138671875">
        <ele>300.79998779296875</ele>
        <time>2019-04-26T11:37:48.000Z</time>
      </trkpt>
      <trkpt lat="39.3511489592492580413818359375" lon="-7.64781701378524303436279296875">
        <ele>302</ele>
        <time>2019-04-26T11:37:55.000Z</time>
      </trkpt>
      <trkpt lat="39.35116429813206195831298828125" lon="-7.64793184585869312286376953125">
        <ele>302.399993896484375</ele>
        <time>2019-04-26T11:37:58.000Z</time>
      </trkpt>
      <trkpt lat="39.3513916991651058197021484375" lon="-7.64775180257856845855712890625">
        <ele>300.600006103515625</ele>
        <time>2019-04-26T11:38:04.000Z</time>
      </trkpt>
      <trkpt lat="39.3514309264719486236572265625" lon="-7.647695727646350860595703125">
        <ele>300.20001220703125</ele>
        <time>2019-04-26T11:38:05.000Z</time>
      </trkpt>
      <trkpt lat="39.3517692200839519500732421875" lon="-7.6473780535161495208740234375">
        <ele>297.399993896484375</ele>
        <time>2019-04-26T11:38:14.000Z</time>
      </trkpt>
      <trkpt lat="39.35231362469494342803955078125" lon="-7.6472151093184947967529296875">
        <ele>296.79998779296875</ele>
        <time>2019-04-26T11:38:30.000Z</time>
      </trkpt>
      <trkpt lat="39.35254010371863842010498046875" lon="-7.64698754064738750457763671875">
        <ele>296.399993896484375</ele>
        <time>2019-04-26T11:38:38.000Z</time>
      </trkpt>
      <trkpt lat="39.3527361564338207244873046875" lon="-7.646718062460422515869140625">
        <ele>296</ele>
        <time>2019-04-26T11:38:44.000Z</time>
      </trkpt>
      <trkpt lat="39.35320076532661914825439453125" lon="-7.6462884061038494110107421875">
        <ele>294.600006103515625</ele>
        <time>2019-04-26T11:38:53.000Z</time>
      </trkpt>
      <trkpt lat="39.35368113219738006591796875" lon="-7.6459132321178913116455078125">
        <ele>293.399993896484375</ele>
        <time>2019-04-26T11:39:03.000Z</time>
      </trkpt>
      <trkpt lat="39.35393032617866992950439453125" lon="-7.6457566581666469573974609375">
        <ele>293.600006103515625</ele>
        <time>2019-04-26T11:39:09.000Z</time>
      </trkpt>
      <trkpt lat="39.35443089343607425689697265625" lon="-7.645484916865825653076171875">
        <ele>294.399993896484375</ele>
        <time>2019-04-26T11:39:21.000Z</time>
      </trkpt>
      <trkpt lat="39.3545543588697910308837890625" lon="-7.645433954894542694091796875">
        <ele>294.399993896484375</ele>
        <time>2019-04-26T11:39:24.000Z</time>
      </trkpt>
      <trkpt lat="39.35478175990283489227294921875" lon="-7.64548164792358875274658203125">
        <ele>294.600006103515625</ele>
        <time>2019-04-26T11:39:29.000Z</time>
      </trkpt>
      <trkpt lat="39.35494118370115756988525390625" lon="-7.6456104777753353118896484375">
        <ele>294.399993896484375</ele>
        <time>2019-04-26T11:39:33.000Z</time>
      </trkpt>
      <trkpt lat="39.35523991473019123077392578125" lon="-7.6458250544965267181396484375">
        <ele>294</ele>
        <time>2019-04-26T11:39:42.000Z</time>
      </trkpt>
      <trkpt lat="39.3554140068590641021728515625" lon="-7.64581994153559207916259765625">
        <ele>294.20001220703125</ele>
        <time>2019-04-26T11:39:46.000Z</time>
      </trkpt>
      <trkpt lat="39.35561441816389560699462890625" lon="-7.64578205533325672149658203125">
        <ele>294.600006103515625</ele>
        <time>2019-04-26T11:39:51.000Z</time>
      </trkpt>
      <trkpt lat="39.35571433044970035552978515625" lon="-7.645967043936252593994140625">
        <ele>295.20001220703125</ele>
        <time>2019-04-26T11:39:56.000Z</time>
      </trkpt>
      <trkpt lat="39.35584257356822490692138671875" lon="-7.6466558687388896942138671875">
        <ele>297</ele>
        <time>2019-04-26T11:40:21.000Z</time>
      </trkpt>
      <trkpt lat="39.3560761772096157073974609375" lon="-7.6473136804997920989990234375">
        <ele>299.79998779296875</ele>
        <time>2019-04-26T11:40:46.000Z</time>
      </trkpt>
      <trkpt lat="39.3562250398099422454833984375" lon="-7.6477233879268169403076171875">
        <ele>302.20001220703125</ele>
        <time>2019-04-26T11:41:01.000Z</time>
      </trkpt>
      <trkpt lat="39.35622395016252994537353515625" lon="-7.6477565802633762359619140625">
        <ele>302.399993896484375</ele>
        <time>2019-04-26T11:41:03.000Z</time>
      </trkpt>
      <trkpt lat="39.3562133051455020904541015625" lon="-7.6477314345538616180419921875">
        <ele>302.399993896484375</ele>
        <time>2019-04-26T11:41:08.000Z</time>
      </trkpt>
      <trkpt lat="39.3562267161905765533447265625" lon="-7.647707462310791015625">
        <ele>302.20001220703125</ele>
        <time>2019-04-26T11:41:12.000Z</time>
      </trkpt>
      <trkpt lat="39.35624356381595134735107421875" lon="-7.6476851664483547210693359375">
        <ele>302</ele>
        <time>2019-04-26T11:41:26.000Z</time>
      </trkpt>
      <trkpt lat="39.35627541504800319671630859375" lon="-7.64767653308808803558349609375">
        <ele>302</ele>
        <time>2019-04-26T11:41:28.000Z</time>
      </trkpt>
      <trkpt lat="39.35636677779257297515869140625" lon="-7.6476900279521942138671875">
        <ele>302.20001220703125</ele>
        <time>2019-04-26T11:41:33.000Z</time>
      </trkpt>
      <trkpt lat="39.35653910972177982330322265625" lon="-7.64775347895920276641845703125">
        <ele>302.79998779296875</ele>
        <time>2019-04-26T11:41:42.000Z</time>
      </trkpt>
      <trkpt lat="39.35680381022393703460693359375" lon="-7.64782212674617767333984375">
        <ele>303.79998779296875</ele>
        <time>2019-04-26T11:41:52.000Z</time>
      </trkpt>
      <trkpt lat="39.35713388957083225250244140625" lon="-7.6476938836276531219482421875">
        <ele>303</ele>
        <time>2019-04-26T11:42:09.000Z</time>
      </trkpt>
      <trkpt lat="39.3571685068309307098388671875" lon="-7.64768340624868869781494140625">
        <ele>303</ele>
        <time>2019-04-26T11:43:19.000Z</time>
      </trkpt>
      <trkpt lat="39.3572456203401088714599609375" lon="-7.6476462744176387786865234375">
        <ele>302.600006103515625</ele>
        <time>2019-04-26T11:43:23.000Z</time>
      </trkpt>
      <trkpt lat="39.357496909797191619873046875" lon="-7.64750939793884754180908203125">
        <ele>301.399993896484375</ele>
        <time>2019-04-26T11:43:32.000Z</time>
      </trkpt>
      <trkpt lat="39.3580251373350620269775390625" lon="-7.647329606115818023681640625">
        <ele>301.20001220703125</ele>
        <time>2019-04-26T11:43:48.000Z</time>
      </trkpt>
      <trkpt lat="39.358460493385791778564453125" lon="-7.6468986086547374725341796875">
        <ele>301.20001220703125</ele>
        <time>2019-04-26T11:44:12.000Z</time>
      </trkpt>
      <trkpt lat="39.3586024828255176544189453125" lon="-7.6467520929872989654541015625">
        <ele>301</ele>
        <time>2019-04-26T11:44:17.000Z</time>
      </trkpt>
      <trkpt lat="39.35866325162351131439208984375" lon="-7.6464293897151947021484375">
        <ele>300.79998779296875</ele>
        <time>2019-04-26T11:44:29.000Z</time>
      </trkpt>
      <trkpt lat="39.35875721275806427001953125" lon="-7.64580854214727878570556640625">
        <ele>301</ele>
        <time>2019-04-26T11:44:54.000Z</time>
      </trkpt>
      <trkpt lat="39.35869359411299228668212890625" lon="-7.645694799721240997314453125">
        <ele>301</ele>
        <time>2019-04-26T11:44:59.000Z</time>
      </trkpt>
      <trkpt lat="39.3586222641170024871826171875" lon="-7.64500320889055728912353515625">
        <ele>304</ele>
        <time>2019-04-26T11:45:29.000Z</time>
      </trkpt>
      <trkpt lat="39.3585914187133312225341796875" lon="-7.64475527219474315643310546875">
        <ele>305.399993896484375</ele>
        <time>2019-04-26T11:45:41.000Z</time>
      </trkpt>
      <trkpt lat="39.35865067876875400543212890625" lon="-7.644062675535678863525390625">
        <ele>309.600006103515625</ele>
        <time>2019-04-26T11:46:13.000Z</time>
      </trkpt>
      <trkpt lat="39.35865067876875400543212890625" lon="-7.64396938495337963104248046875">
        <ele>310.20001220703125</ele>
        <time>2019-04-26T11:46:20.000Z</time>
      </trkpt>
      <trkpt lat="39.35864749364554882049560546875" lon="-7.64393652789294719696044921875">
        <ele>310.20001220703125</ele>
        <time>2019-04-26T11:47:26.000Z</time>
      </trkpt>
      <trkpt lat="39.358534254133701324462890625" lon="-7.6432400755584239959716796875">
        <ele>313.399993896484375</ele>
        <time>2019-04-26T11:47:56.000Z</time>
      </trkpt>
      <trkpt lat="39.35847667045891284942626953125" lon="-7.64299658127129077911376953125">
        <ele>315.20001220703125</ele>
        <time>2019-04-26T11:48:05.000Z</time>
      </trkpt>
      <trkpt lat="39.3582695536315441131591796875" lon="-7.6423375122249126434326171875">
        <ele>318</ele>
        <time>2019-04-26T11:48:29.000Z</time>
      </trkpt>
      <trkpt lat="39.358273409307003021240234375" lon="-7.64163770712912082672119140625">
        <ele>319.79998779296875</ele>
        <time>2019-04-26T11:48:53.000Z</time>
      </trkpt>
      <trkpt lat="39.3584294803440570831298828125" lon="-7.6409414224326610565185546875">
        <ele>319.79998779296875</ele>
        <time>2019-04-26T11:49:13.000Z</time>
      </trkpt>
      <trkpt lat="39.35878646560013294219970703125" lon="-7.64039282687008380889892578125">
        <ele>323.399993896484375</ele>
        <time>2019-04-26T11:49:30.000Z</time>
      </trkpt>
      <trkpt lat="39.359184019267559051513671875" lon="-7.63991673476994037628173828125">
        <ele>327</ele>
        <time>2019-04-26T11:49:57.000Z</time>
      </trkpt>
      <trkpt lat="39.35964326374232769012451171875" lon="-7.6394755952060222625732421875">
        <ele>328.79998779296875</ele>
        <time>2019-04-26T11:50:18.000Z</time>
      </trkpt>
      <trkpt lat="39.3597145937383174896240234375" lon="-7.6393991522490978240966796875">
        <ele>329</ele>
        <time>2019-04-26T11:50:21.000Z</time>
      </trkpt>
      <trkpt lat="39.36010192148387432098388671875" lon="-7.63920955359935760498046875">
        <ele>331.399993896484375</ele>
        <time>2019-04-26T11:50:36.000Z</time>
      </trkpt>
      <trkpt lat="39.3602215312421321868896484375" lon="-7.639165632426738739013671875">
        <ele>332.20001220703125</ele>
        <time>2019-04-26T11:50:39.000Z</time>
      </trkpt>
      <trkpt lat="39.36077716760337352752685546875" lon="-7.63898751698434352874755859375">
        <ele>331.600006103515625</ele>
        <time>2019-04-26T11:50:50.000Z</time>
      </trkpt>
      <trkpt lat="39.3613363243639469146728515625" lon="-7.63880588114261627197265625">
        <ele>329.79998779296875</ele>
        <time>2019-04-26T11:50:59.000Z</time>
      </trkpt>
      <trkpt lat="39.36186186969280242919921875" lon="-7.6386333815753459930419921875">
        <ele>328.399993896484375</ele>
        <time>2019-04-26T11:51:09.000Z</time>
      </trkpt>
      <trkpt lat="39.36242580413818359375" lon="-7.63845828361809253692626953125">
        <ele>328.20001220703125</ele>
        <time>2019-04-26T11:51:23.000Z</time>
      </trkpt>
      <trkpt lat="39.362988732755184173583984375" lon="-7.63828226365149021148681640625">
        <ele>326.79998779296875</ele>
        <time>2019-04-26T11:51:33.000Z</time>
      </trkpt>
      <trkpt lat="39.36353623867034912109375" lon="-7.63810657896101474761962890625">
        <ele>322.79998779296875</ele>
        <time>2019-04-26T11:51:43.000Z</time>
      </trkpt>
      <trkpt lat="39.36397612094879150390625" lon="-7.63796098530292510986328125">
        <ele>321.600006103515625</ele>
        <time>2019-04-26T11:51:53.000Z</time>
      </trkpt>
      <trkpt lat="39.36452974565327167510986328125" lon="-7.63778521679341793060302734375">
        <ele>322.20001220703125</ele>
        <time>2019-04-26T11:52:06.000Z</time>
      </trkpt>
      <trkpt lat="39.36490139923989772796630859375" lon="-7.63767440803349018096923828125">
        <ele>321.600006103515625</ele>
        <time>2019-04-26T11:52:14.000Z</time>
      </trkpt>
      <trkpt lat="39.36544664204120635986328125" lon="-7.63748631812632083892822265625">
        <ele>321</ele>
        <time>2019-04-26T11:52:26.000Z</time>
      </trkpt>
      <trkpt lat="39.3660083971917629241943359375" lon="-7.63730862177908420562744140625">
        <ele>321.79998779296875</ele>
        <time>2019-04-26T11:52:38.000Z</time>
      </trkpt>
      <trkpt lat="39.3665401451289653778076171875" lon="-7.6371462643146514892578125">
        <ele>323.600006103515625</ele>
        <time>2019-04-26T11:52:50.000Z</time>
      </trkpt>
      <trkpt lat="39.36707868240773677825927734375" lon="-7.63696814887225627899169921875">
        <ele>326</ele>
        <time>2019-04-26T11:53:05.000Z</time>
      </trkpt>
      <trkpt lat="39.36716686002910137176513671875" lon="-7.63693830929696559906005859375">
        <ele>326.600006103515625</ele>
        <time>2019-04-26T11:53:07.000Z</time>
      </trkpt>
      <trkpt lat="39.36769056133925914764404296875" lon="-7.63675793074071407318115234375">
        <ele>330</ele>
        <time>2019-04-26T11:53:25.000Z</time>
      </trkpt>
      <trkpt lat="39.36822281219065189361572265625" lon="-7.63658576644957065582275390625">
        <ele>332</ele>
        <time>2019-04-26T11:53:46.000Z</time>
      </trkpt>
      <trkpt lat="39.3687482737004756927490234375" lon="-7.6364239118993282318115234375">
        <ele>333.600006103515625</ele>
        <time>2019-04-26T11:54:02.000Z</time>
      </trkpt>
      <trkpt lat="39.3692699633538722991943359375" lon="-7.63625107705593109130859375">
        <ele>335.399993896484375</ele>
        <time>2019-04-26T11:54:19.000Z</time>
      </trkpt>
      <trkpt lat="39.3698214925825595855712890625" lon="-7.6360668428242206573486328125">
        <ele>337.399993896484375</ele>
        <time>2019-04-26T11:54:38.000Z</time>
      </trkpt>
      <trkpt lat="39.37037654221057891845703125" lon="-7.6358883082866668701171875">
        <ele>339.600006103515625</ele>
        <time>2019-04-26T11:54:57.000Z</time>
      </trkpt>
      <trkpt lat="39.3709312565624713897705078125" lon="-7.63571438379585742950439453125">
        <ele>339.20001220703125</ele>
        <time>2019-04-26T11:55:11.000Z</time>
      </trkpt>
      <trkpt lat="39.37150432728230953216552734375" lon="-7.6355233602225780487060546875">
        <ele>337.79998779296875</ele>
        <time>2019-04-26T11:55:24.000Z</time>
      </trkpt>
      <trkpt lat="39.37204579822719097137451171875" lon="-7.6353553868830204010009765625">
        <ele>336</ele>
        <time>2019-04-26T11:55:34.000Z</time>
      </trkpt>
      <trkpt lat="39.3721513263881206512451171875" lon="-7.63531657867133617401123046875">
        <ele>335.399993896484375</ele>
        <time>2019-04-26T11:55:36.000Z</time>
      </trkpt>
      <trkpt lat="39.3726964853703975677490234375" lon="-7.63513200916349887847900390625">
        <ele>332.399993896484375</ele>
        <time>2019-04-26T11:55:46.000Z</time>
      </trkpt>
      <trkpt lat="39.373225383460521697998046875" lon="-7.634969316422939300537109375">
        <ele>330.399993896484375</ele>
        <time>2019-04-26T11:55:55.000Z</time>
      </trkpt>
      <trkpt lat="39.3737650103867053985595703125" lon="-7.63479019515216350555419921875">
        <ele>328</ele>
        <time>2019-04-26T11:56:05.000Z</time>
      </trkpt>
      <trkpt lat="39.374296925961971282958984375" lon="-7.63461853377521038055419921875">
        <ele>325.79998779296875</ele>
        <time>2019-04-26T11:56:15.000Z</time>
      </trkpt>
      <trkpt lat="39.37488290481269359588623046875" lon="-7.63443027622997760772705078125">
        <ele>326</ele>
        <time>2019-04-26T11:56:24.000Z</time>
      </trkpt>
      <trkpt lat="39.375450946390628814697265625" lon="-7.634251825511455535888671875">
        <ele>326.600006103515625</ele>
        <time>2019-04-26T11:56:33.000Z</time>
      </trkpt>
      <trkpt lat="39.3760110251605510711669921875" lon="-7.6340742968022823333740234375">
        <ele>325.79998779296875</ele>
        <time>2019-04-26T11:56:43.000Z</time>
      </trkpt>
      <trkpt lat="39.37655308283865451812744140625" lon="-7.6339009590446949005126953125">
        <ele>325</ele>
        <time>2019-04-26T11:56:55.000Z</time>
      </trkpt>
      <trkpt lat="39.3771241419017314910888671875" lon="-7.63370473869144916534423828125">
        <ele>324.600006103515625</ele>
        <time>2019-04-26T11:57:06.000Z</time>
      </trkpt>
      <trkpt lat="39.37766142189502716064453125" lon="-7.63353492133319377899169921875">
        <ele>324</ele>
        <time>2019-04-26T11:57:16.000Z</time>
      </trkpt>
      <trkpt lat="39.378214962780475616455078125" lon="-7.633357308804988861083984375">
        <ele>323</ele>
        <time>2019-04-26T11:57:26.000Z</time>
      </trkpt>
      <trkpt lat="39.37876389361917972564697265625" lon="-7.6331744156777858734130859375">
        <ele>322.399993896484375</ele>
        <time>2019-04-26T11:57:36.000Z</time>
      </trkpt>
      <trkpt lat="39.37929262407124042510986328125" lon="-7.63300702907145023345947265625">
        <ele>321.399993896484375</ele>
        <time>2019-04-26T11:57:45.000Z</time>
      </trkpt>
      <trkpt lat="39.3798482604324817657470703125" lon="-7.63282732106745243072509765625">
        <ele>318.600006103515625</ele>
        <time>2019-04-26T11:57:55.000Z</time>
      </trkpt>
      <trkpt lat="39.3804105184972286224365234375" lon="-7.632641494274139404296875">
        <ele>315.600006103515625</ele>
        <time>2019-04-26T11:58:06.000Z</time>
      </trkpt>
      <trkpt lat="39.3809801526367664337158203125" lon="-7.6324572600424289703369140625">
        <ele>316.79998779296875</ele>
        <time>2019-04-26T11:58:18.000Z</time>
      </trkpt>
      <trkpt lat="39.38153327442705631256103515625" lon="-7.6322819106280803680419921875">
        <ele>318.79998779296875</ele>
        <time>2019-04-26T11:58:29.000Z</time>
      </trkpt>
      <trkpt lat="39.38208212144672870635986328125" lon="-7.63210563920438289642333984375">
        <ele>320.79998779296875</ele>
        <time>2019-04-26T11:58:40.000Z</time>
      </trkpt>
      <trkpt lat="39.382637925446033477783203125" lon="-7.63192408718168735504150390625">
        <ele>322.79998779296875</ele>
        <time>2019-04-26T11:58:52.000Z</time>
      </trkpt>
      <trkpt lat="39.3831943161785602569580078125" lon="-7.6317464746534824371337890625">
        <ele>322.79998779296875</ele>
        <time>2019-04-26T11:59:03.000Z</time>
      </trkpt>
      <trkpt lat="39.3837668001651763916015625" lon="-7.6315701194107532501220703125">
        <ele>322.20001220703125</ele>
        <time>2019-04-26T11:59:14.000Z</time>
      </trkpt>
      <trkpt lat="39.38432243652641773223876953125" lon="-7.63138529844582080841064453125">
        <ele>322.79998779296875</ele>
        <time>2019-04-26T11:59:27.000Z</time>
      </trkpt>
      <trkpt lat="39.38488922081887722015380859375" lon="-7.6311905868351459503173828125">
        <ele>322.20001220703125</ele>
        <time>2019-04-26T11:59:38.000Z</time>
      </trkpt>
      <trkpt lat="39.38544058240950107574462890625" lon="-7.6310185901820659637451171875">
        <ele>321.79998779296875</ele>
        <time>2019-04-26T11:59:48.000Z</time>
      </trkpt>
      <trkpt lat="39.38598641194403171539306640625" lon="-7.6308543048799037933349609375">
        <ele>322.79998779296875</ele>
        <time>2019-04-26T11:59:58.000Z</time>
      </trkpt>
      <trkpt lat="39.386549927294254302978515625" lon="-7.63068188913166522979736328125">
        <ele>321.79998779296875</ele>
        <time>2019-04-26T12:00:10.000Z</time>
      </trkpt>
      <trkpt lat="39.38708025030791759490966796875" lon="-7.63051726855337619781494140625">
        <ele>320.399993896484375</ele>
        <time>2019-04-26T12:00:20.000Z</time>
      </trkpt>
      <trkpt lat="39.38762046396732330322265625" lon="-7.6303430087864398956298828125">
        <ele>318.600006103515625</ele>
        <time>2019-04-26T12:00:28.000Z</time>
      </trkpt>
      <trkpt lat="39.38820376060903072357177734375" lon="-7.6301565952599048614501953125">
        <ele>315</ele>
        <time>2019-04-26T12:00:36.000Z</time>
      </trkpt>
      <trkpt lat="39.3887384422123432159423828125" lon="-7.62997630052268505096435546875">
        <ele>311.79998779296875</ele>
        <time>2019-04-26T12:00:43.000Z</time>
      </trkpt>
      <trkpt lat="39.3893241696059703826904296875" lon="-7.629773207008838653564453125">
        <ele>309.79998779296875</ele>
        <time>2019-04-26T12:00:51.000Z</time>
      </trkpt>
      <trkpt lat="39.38988785259425640106201171875" lon="-7.62958721257746219635009765625">
        <ele>308</ele>
        <time>2019-04-26T12:01:01.000Z</time>
      </trkpt>
      <trkpt lat="39.390441142022609710693359375" lon="-7.62941136024892330169677734375">
        <ele>306.79998779296875</ele>
        <time>2019-04-26T12:01:12.000Z</time>
      </trkpt>
      <trkpt lat="39.39098135568201541900634765625" lon="-7.62924120761454105377197265625">
        <ele>307</ele>
        <time>2019-04-26T12:01:23.000Z</time>
      </trkpt>
      <trkpt lat="39.39153523184359073638916015625" lon="-7.629055716097354888916015625">
        <ele>308.600006103515625</ele>
        <time>2019-04-26T12:01:35.000Z</time>
      </trkpt>
      <trkpt lat="39.39178283326327800750732421875" lon="-7.62897969223558902740478515625">
        <ele>309.600006103515625</ele>
        <time>2019-04-26T12:01:41.000Z</time>
      </trkpt>
      <trkpt lat="39.39232313074171543121337890625" lon="-7.6288087852299213409423828125">
        <ele>311</ele>
        <time>2019-04-26T12:01:54.000Z</time>
      </trkpt>
      <trkpt lat="39.3928512744605541229248046875" lon="-7.6286314241588115692138671875">
        <ele>310.79998779296875</ele>
        <time>2019-04-26T12:02:07.000Z</time>
      </trkpt>
      <trkpt lat="39.39340154640376567840576171875" lon="-7.6284590922296047210693359375">
        <ele>313</ele>
        <time>2019-04-26T12:02:21.000Z</time>
      </trkpt>
      <trkpt lat="39.3939449451863765716552734375" lon="-7.62828382663428783416748046875">
        <ele>315.399993896484375</ele>
        <time>2019-04-26T12:02:37.000Z</time>
      </trkpt>
      <trkpt lat="39.39449219964444637298583984375" lon="-7.62810328043997287750244140625">
        <ele>318</ele>
        <time>2019-04-26T12:02:58.000Z</time>
      </trkpt>
      <trkpt lat="39.39503752626478672027587890625" lon="-7.62792893685400485992431640625">
        <ele>321</ele>
        <time>2019-04-26T12:03:18.000Z</time>
      </trkpt>
      <trkpt lat="39.3955908156931400299072265625" lon="-7.627753503620624542236328125">
        <ele>323.20001220703125</ele>
        <time>2019-04-26T12:03:39.000Z</time>
      </trkpt>
      <trkpt lat="39.396138153970241546630859375" lon="-7.62757572345435619354248046875">
        <ele>325</ele>
        <time>2019-04-26T12:03:57.000Z</time>
      </trkpt>
      <trkpt lat="39.3966657109558582305908203125" lon="-7.62740506790578365325927734375">
        <ele>325.399993896484375</ele>
        <time>2019-04-26T12:04:16.000Z</time>
      </trkpt>
      <trkpt lat="39.3972011469304561614990234375" lon="-7.62723256833851337432861328125">
        <ele>326.20001220703125</ele>
        <time>2019-04-26T12:04:35.000Z</time>
      </trkpt>
      <trkpt lat="39.3977479822933673858642578125" lon="-7.6270569674670696258544921875">
        <ele>327.600006103515625</ele>
        <time>2019-04-26T12:04:51.000Z</time>
      </trkpt>
      <trkpt lat="39.39830177463591098785400390625" lon="-7.626875750720500946044921875">
        <ele>327.399993896484375</ele>
        <time>2019-04-26T12:05:04.000Z</time>
      </trkpt>
      <trkpt lat="39.398857913911342620849609375" lon="-7.6266965456306934356689453125">
        <ele>327.600006103515625</ele>
        <time>2019-04-26T12:05:18.000Z</time>
      </trkpt>
      <trkpt lat="39.399404413998126983642578125" lon="-7.62651625089347362518310546875">
        <ele>328.600006103515625</ele>
        <time>2019-04-26T12:05:32.000Z</time>
      </trkpt>
      <trkpt lat="39.39995736815035343170166015625" lon="-7.62633972801268100738525390625">
        <ele>330.79998779296875</ele>
        <time>2019-04-26T12:05:47.000Z</time>
      </trkpt>
      <trkpt lat="39.4005093164741992950439453125" lon="-7.62616404332220554351806640625">
        <ele>333</ele>
        <time>2019-04-26T12:06:02.000Z</time>
      </trkpt>
      <trkpt lat="39.401067383587360382080078125" lon="-7.6259790547192096710205078125">
        <ele>334.79998779296875</ele>
        <time>2019-04-26T12:06:17.000Z</time>
      </trkpt>
      <trkpt lat="39.4016244448721408843994140625" lon="-7.6258094049990177154541015625">
        <ele>335.600006103515625</ele>
        <time>2019-04-26T12:06:31.000Z</time>
      </trkpt>
      <trkpt lat="39.402155689895153045654296875" lon="-7.62564050965011119842529296875">
        <ele>336.399993896484375</ele>
        <time>2019-04-26T12:06:44.000Z</time>
      </trkpt>
      <trkpt lat="39.40270998515188694000244140625" lon="-7.62546583078801631927490234375">
        <ele>336.399993896484375</ele>
        <time>2019-04-26T12:06:58.000Z</time>
      </trkpt>
      <trkpt lat="39.4028844125568866729736328125" lon="-7.62540045194327831268310546875">
        <ele>336.600006103515625</ele>
        <time>2019-04-26T12:07:02.000Z</time>
      </trkpt>
      <trkpt lat="39.4034610874950885772705078125" lon="-7.625201381742954254150390625">
        <ele>336.79998779296875</ele>
        <time>2019-04-26T12:07:13.000Z</time>
      </trkpt>
      <trkpt lat="39.40402242355048656463623046875" lon="-7.6250235177576541900634765625">
        <ele>335.600006103515625</ele>
        <time>2019-04-26T12:07:23.000Z</time>
      </trkpt>
      <trkpt lat="39.40447504632174968719482421875" lon="-7.6248941011726856231689453125">
        <ele>333.79998779296875</ele>
        <time>2019-04-26T12:07:32.000Z</time>
      </trkpt>
      <trkpt lat="39.40505960024893283843994140625" lon="-7.624703831970691680908203125">
        <ele>332.20001220703125</ele>
        <time>2019-04-26T12:07:42.000Z</time>
      </trkpt>
      <trkpt lat="39.40559000708162784576416015625" lon="-7.62453208677470684051513671875">
        <ele>330.600006103515625</ele>
        <time>2019-04-26T12:07:50.000Z</time>
      </trkpt>
      <trkpt lat="39.4061795063316822052001953125" lon="-7.62434131465852260589599609375">
        <ele>328.20001220703125</ele>
        <time>2019-04-26T12:07:58.000Z</time>
      </trkpt>
      <trkpt lat="39.40673463977873325347900390625" lon="-7.6241601817309856414794921875">
        <ele>327.600006103515625</ele>
        <time>2019-04-26T12:08:06.000Z</time>
      </trkpt>
      <trkpt lat="39.40726102329790592193603515625" lon="-7.62399631552398204803466796875">
        <ele>327.79998779296875</ele>
        <time>2019-04-26T12:08:17.000Z</time>
      </trkpt>
      <trkpt lat="39.407827220857143402099609375" lon="-7.623812668025493621826171875">
        <ele>328.20001220703125</ele>
        <time>2019-04-26T12:08:30.000Z</time>
      </trkpt>
      <trkpt lat="39.4083738885819911956787109375" lon="-7.62363891117274761199951171875">
        <ele>324.600006103515625</ele>
        <time>2019-04-26T12:08:41.000Z</time>
      </trkpt>
      <trkpt lat="39.40892147831618785858154296875" lon="-7.6234601251780986785888671875">
        <ele>324</ele>
        <time>2019-04-26T12:08:53.000Z</time>
      </trkpt>
      <trkpt lat="39.409030862152576446533203125" lon="-7.62341746129095554351806640625">
        <ele>324.399993896484375</ele>
        <time>2019-04-26T12:08:58.000Z</time>
      </trkpt>
      <trkpt lat="39.40905994735658168792724609375" lon="-7.6234071515500545501708984375">
        <ele>324.399993896484375</ele>
        <time>2019-04-26T12:09:59.000Z</time>
      </trkpt>
      <trkpt lat="39.40958163700997829437255859375" lon="-7.6231764815747737884521484375">
        <ele>326.399993896484375</ele>
        <time>2019-04-26T12:10:18.000Z</time>
      </trkpt>
      <trkpt lat="39.4100402109324932098388671875" lon="-7.6228422112762928009033203125">
        <ele>330.79998779296875</ele>
        <time>2019-04-26T12:10:32.000Z</time>
      </trkpt>
      <trkpt lat="39.41055427305400371551513671875" lon="-7.62282720766961574554443359375">
        <ele>332</ele>
        <time>2019-04-26T12:10:43.000Z</time>
      </trkpt>
      <trkpt lat="39.4107409380376338958740234375" lon="-7.62275109998881816864013671875">
        <ele>331.600006103515625</ele>
        <time>2019-04-26T12:10:47.000Z</time>
      </trkpt>
      <trkpt lat="39.41088192164897918701171875" lon="-7.62258849106729030609130859375">
        <ele>331.79998779296875</ele>
        <time>2019-04-26T12:10:51.000Z</time>
      </trkpt>
      <trkpt lat="39.41120688803493976593017578125" lon="-7.62255446054041385650634765625">
        <ele>330.79998779296875</ele>
        <time>2019-04-26T12:10:58.000Z</time>
      </trkpt>
      <trkpt lat="39.41130713559687137603759765625" lon="-7.62257357127964496612548828125">
        <ele>330.79998779296875</ele>
        <time>2019-04-26T12:11:00.000Z</time>
      </trkpt>
      <trkpt lat="39.4118771888315677642822265625" lon="-7.622476257383823394775390625">
        <ele>330.20001220703125</ele>
        <time>2019-04-26T12:11:11.000Z</time>
      </trkpt>
      <trkpt lat="39.41245059482753276824951171875" lon="-7.62232496403157711029052734375">
        <ele>328.79998779296875</ele>
        <time>2019-04-26T12:11:22.000Z</time>
      </trkpt>
      <trkpt lat="39.4127465598285198211669921875" lon="-7.62222756631672382354736328125">
        <ele>328</ele>
        <time>2019-04-26T12:11:28.000Z</time>
      </trkpt>
      <trkpt lat="39.41328652203083038330078125" lon="-7.6220509596168994903564453125">
        <ele>328.600006103515625</ele>
        <time>2019-04-26T12:11:39.000Z</time>
      </trkpt>
      <trkpt lat="39.41383796744048595428466796875" lon="-7.6218739338219165802001953125">
        <ele>329.20001220703125</ele>
        <time>2019-04-26T12:11:52.000Z</time>
      </trkpt>
      <trkpt lat="39.4143951125442981719970703125" lon="-7.62170151807367801666259765625">
        <ele>330</ele>
        <time>2019-04-26T12:12:07.000Z</time>
      </trkpt>
      <trkpt lat="39.41493063233792781829833984375" lon="-7.62152868323028087615966796875">
        <ele>329.600006103515625</ele>
        <time>2019-04-26T12:12:21.000Z</time>
      </trkpt>
      <trkpt lat="39.4149530120193958282470703125" lon="-7.6215078122913837432861328125">
        <ele>329.600006103515625</ele>
        <time>2019-04-26T12:12:22.000Z</time>
      </trkpt>
      <trkpt lat="39.41501679830253124237060546875" lon="-7.62140915729105472564697265625">
        <ele>329.399993896484375</ele>
        <time>2019-04-26T12:12:26.000Z</time>
      </trkpt>
      <trkpt lat="39.41506214439868927001953125" lon="-7.6213239133358001708984375">
        <ele>329.20001220703125</ele>
        <time>2019-04-26T12:12:32.000Z</time>
      </trkpt>
      <trkpt lat="39.41504462622106075286865234375" lon="-7.62125090695917606353759765625">
        <ele>329</ele>
        <time>2019-04-26T12:32:27.000Z</time>
      </trkpt>
      <trkpt lat="39.4155816547572612762451171875" lon="-7.62126767076551914215087890625">
        <ele>328.399993896484375</ele>
        <time>2019-04-26T12:32:50.000Z</time>
      </trkpt>
      <trkpt lat="39.4161204434931278228759765625" lon="-7.6211227476596832275390625">
        <ele>326.20001220703125</ele>
        <time>2019-04-26T12:33:02.000Z</time>
      </trkpt>
      <trkpt lat="39.41668496467173099517822265625" lon="-7.6209341548383235931396484375">
        <ele>324</ele>
        <time>2019-04-26T12:33:11.000Z</time>
      </trkpt>
      <trkpt lat="39.41721302457153797149658203125" lon="-7.620773054659366607666015625">
        <ele>322.20001220703125</ele>
        <time>2019-04-26T12:33:18.000Z</time>
      </trkpt>
      <trkpt lat="39.4177676551043987274169921875" lon="-7.6205992139875888824462890625">
        <ele>320.399993896484375</ele>
        <time>2019-04-26T12:33:25.000Z</time>
      </trkpt>
      <trkpt lat="39.41824768669903278350830078125" lon="-7.620461247861385345458984375">
        <ele>320</ele>
        <time>2019-04-26T12:33:32.000Z</time>
      </trkpt>
      <trkpt lat="39.418771304190158843994140625" lon="-7.62027273885905742645263671875">
        <ele>320</ele>
        <time>2019-04-26T12:33:43.000Z</time>
      </trkpt>
      <trkpt lat="39.4193266890943050384521484375" lon="-7.62010677717626094818115234375">
        <ele>321.600006103515625</ele>
        <time>2019-04-26T12:33:57.000Z</time>
      </trkpt>
      <trkpt lat="39.41986271180212497711181640625" lon="-7.61994517408311367034912109375">
        <ele>323.399993896484375</ele>
        <time>2019-04-26T12:34:11.000Z</time>
      </trkpt>
      <trkpt lat="39.42042731679975986480712890625" lon="-7.619766891002655029296875">
        <ele>325</ele>
        <time>2019-04-26T12:34:25.000Z</time>
      </trkpt>
      <trkpt lat="39.42063166759908199310302734375" lon="-7.6197070442140102386474609375">
        <ele>324.20001220703125</ele>
        <time>2019-04-26T12:34:30.000Z</time>
      </trkpt>
      <trkpt lat="39.42081020213663578033447265625" lon="-7.61965046636760234832763671875">
        <ele>324</ele>
        <time>2019-04-26T12:34:34.000Z</time>
      </trkpt>
      <trkpt lat="39.4211572967469692230224609375" lon="-7.6196202076971530914306640625">
        <ele>323.600006103515625</ele>
        <time>2019-04-26T12:34:41.000Z</time>
      </trkpt>
      <trkpt lat="39.4217078201472759246826171875" lon="-7.619726322591304779052734375">
        <ele>322.399993896484375</ele>
        <time>2019-04-26T12:34:51.000Z</time>
      </trkpt>
      <trkpt lat="39.42224183119833469390869140625" lon="-7.61988532729446887969970703125">
        <ele>320.399993896484375</ele>
        <time>2019-04-26T12:35:00.000Z</time>
      </trkpt>
      <trkpt lat="39.42278967238962650299072265625" lon="-7.62005782686173915863037109375">
        <ele>318.20001220703125</ele>
        <time>2019-04-26T12:35:10.000Z</time>
      </trkpt>
      <trkpt lat="39.423331059515476226806640625" lon="-7.62022496201097965240478515625">
        <ele>317.79998779296875</ele>
        <time>2019-04-26T12:35:20.000Z</time>
      </trkpt>
      <trkpt lat="39.4238623045384883880615234375" lon="-7.62038455344736576080322265625">
        <ele>318.20001220703125</ele>
        <time>2019-04-26T12:35:30.000Z</time>
      </trkpt>
      <trkpt lat="39.42439547739923000335693359375" lon="-7.62054682709276676177978515625">
        <ele>316.79998779296875</ele>
        <time>2019-04-26T12:35:39.000Z</time>
      </trkpt>
      <trkpt lat="39.4249252974987030029296875" lon="-7.620712704956531524658203125">
        <ele>316</ele>
        <time>2019-04-26T12:35:47.000Z</time>
      </trkpt>
      <trkpt lat="39.42548596300184726715087890625" lon="-7.62088595889508724212646484375">
        <ele>315.600006103515625</ele>
        <time>2019-04-26T12:35:55.000Z</time>
      </trkpt>
      <trkpt lat="39.42602894268929958343505859375" lon="-7.6210461370646953582763671875">
        <ele>314.600006103515625</ele>
        <time>2019-04-26T12:36:03.000Z</time>
      </trkpt>
      <trkpt lat="39.42659405060112476348876953125" lon="-7.6212208159267902374267578125">
        <ele>314.399993896484375</ele>
        <time>2019-04-26T12:36:12.000Z</time>
      </trkpt>
      <trkpt lat="39.4271429814398288726806640625" lon="-7.62138736434280872344970703125">
        <ele>315.399993896484375</ele>
        <time>2019-04-26T12:36:21.000Z</time>
      </trkpt>
      <trkpt lat="39.42769610323011875152587890625" lon="-7.6215554215013980865478515625">
        <ele>315.600006103515625</ele>
        <time>2019-04-26T12:36:30.000Z</time>
      </trkpt>
      <trkpt lat="39.42822634242475032806396484375" lon="-7.62172264046967029571533203125">
        <ele>314</ele>
        <time>2019-04-26T12:36:38.000Z</time>
      </trkpt>
      <trkpt lat="39.4288180209696292877197265625" lon="-7.62190151028335094451904296875">
        <ele>311.399993896484375</ele>
        <time>2019-04-26T12:36:46.000Z</time>
      </trkpt>
      <trkpt lat="39.42936678417026996612548828125" lon="-7.62206889688968658447265625">
        <ele>309</ele>
        <time>2019-04-26T12:36:53.000Z</time>
      </trkpt>
      <trkpt lat="39.42995703779160976409912109375" lon="-7.62225254438817501068115234375">
        <ele>307.600006103515625</ele>
        <time>2019-04-26T12:37:01.000Z</time>
      </trkpt>
      <trkpt lat="39.43048627115786075592041015625" lon="-7.62240744195878505706787109375">
        <ele>306.20001220703125</ele>
        <time>2019-04-26T12:37:09.000Z</time>
      </trkpt>
      <trkpt lat="39.4310331903398036956787109375" lon="-7.62257893569767475128173828125">
        <ele>303.600006103515625</ele>
        <time>2019-04-26T12:37:17.000Z</time>
      </trkpt>
      <trkpt lat="39.43158748559653759002685546875" lon="-7.62274791486561298370361328125">
        <ele>302.20001220703125</ele>
        <time>2019-04-26T12:37:25.000Z</time>
      </trkpt>
      <trkpt lat="39.4321516714990139007568359375" lon="-7.62292376719415187835693359375">
        <ele>301.79998779296875</ele>
        <time>2019-04-26T12:37:33.000Z</time>
      </trkpt>
      <trkpt lat="39.43269766867160797119140625" lon="-7.6230879686772823333740234375">
        <ele>300.399993896484375</ele>
        <time>2019-04-26T12:37:41.000Z</time>
      </trkpt>
      <trkpt lat="39.43326721899211406707763671875" lon="-7.62326424010097980499267578125">
        <ele>300.399993896484375</ele>
        <time>2019-04-26T12:37:50.000Z</time>
      </trkpt>
      <trkpt lat="39.4338143058121204376220703125" lon="-7.62343154288828372955322265625">
        <ele>301.20001220703125</ele>
        <time>2019-04-26T12:37:59.000Z</time>
      </trkpt>
      <trkpt lat="39.43437765352427959442138671875" lon="-7.62360655702650547027587890625">
        <ele>301.600006103515625</ele>
        <time>2019-04-26T12:38:10.000Z</time>
      </trkpt>
      <trkpt lat="39.4349468685686588287353515625" lon="-7.62377654202282428741455078125">
        <ele>301.600006103515625</ele>
        <time>2019-04-26T12:38:21.000Z</time>
      </trkpt>
      <trkpt lat="39.43552413024008274078369140625" lon="-7.623958177864551544189453125">
        <ele>302</ele>
        <time>2019-04-26T12:38:32.000Z</time>
      </trkpt>
      <trkpt lat="39.4360495917499065399169921875" lon="-7.624120451509952545166015625">
        <ele>302.79998779296875</ele>
        <time>2019-04-26T12:38:42.000Z</time>
      </trkpt>
      <trkpt lat="39.4366277754306793212890625" lon="-7.6242958009243011474609375">
        <ele>301.600006103515625</ele>
        <time>2019-04-26T12:38:53.000Z</time>
      </trkpt>
      <trkpt lat="39.4372073002159595489501953125" lon="-7.62447324581444263458251953125">
        <ele>300.600006103515625</ele>
        <time>2019-04-26T12:39:04.000Z</time>
      </trkpt>
      <trkpt lat="39.43776561878621578216552734375" lon="-7.62463954277336597442626953125">
        <ele>301</ele>
        <time>2019-04-26T12:39:14.000Z</time>
      </trkpt>
      <trkpt lat="39.43833692930638790130615234375" lon="-7.62482109479606151580810546875">
        <ele>302.399993896484375</ele>
        <time>2019-04-26T12:39:24.000Z</time>
      </trkpt>
      <trkpt lat="39.43887588568031787872314453125" lon="-7.62498890049755573272705078125">
        <ele>303.399993896484375</ele>
        <time>2019-04-26T12:39:34.000Z</time>
      </trkpt>
      <trkpt lat="39.43942490033805370330810546875" lon="-7.62514849193394184112548828125">
        <ele>301.79998779296875</ele>
        <time>2019-04-26T12:39:45.000Z</time>
      </trkpt>
      <trkpt lat="39.43999461829662322998046875" lon="-7.6253262721002101898193359375">
        <ele>300.600006103515625</ele>
        <time>2019-04-26T12:39:56.000Z</time>
      </trkpt>
      <trkpt lat="39.44052728824317455291748046875" lon="-7.6255006156861782073974609375">
        <ele>302.20001220703125</ele>
        <time>2019-04-26T12:40:07.000Z</time>
      </trkpt>
      <trkpt lat="39.44057221524417400360107421875" lon="-7.6255120150744915008544921875">
        <ele>302.20001220703125</ele>
        <time>2019-04-26T12:40:08.000Z</time>
      </trkpt>
      <trkpt lat="39.44113321602344512939453125" lon="-7.62567521072924137115478515625">
        <ele>301</ele>
        <time>2019-04-26T12:40:20.000Z</time>
      </trkpt>
      <trkpt lat="39.44165951572358608245849609375" lon="-7.62583882547914981842041015625">
        <ele>301.600006103515625</ele>
        <time>2019-04-26T12:40:31.000Z</time>
      </trkpt>
      <trkpt lat="39.44222277961671352386474609375" lon="-7.62600830756127834320068359375">
        <ele>302.399993896484375</ele>
        <time>2019-04-26T12:40:43.000Z</time>
      </trkpt>
      <trkpt lat="39.44279191084206104278564453125" lon="-7.6261818967759609222412109375">
        <ele>302.600006103515625</ele>
        <time>2019-04-26T12:40:55.000Z</time>
      </trkpt>
      <trkpt lat="39.4433378241956233978271484375" lon="-7.6263495348393917083740234375">
        <ele>302.20001220703125</ele>
        <time>2019-04-26T12:41:06.000Z</time>
      </trkpt>
      <trkpt lat="39.44389455020427703857421875" lon="-7.626519687473773956298828125">
        <ele>303.20001220703125</ele>
        <time>2019-04-26T12:41:18.000Z</time>
      </trkpt>
      <trkpt lat="39.44443141110241413116455078125" lon="-7.6266856491565704345703125">
        <ele>304.79998779296875</ele>
        <time>2019-04-26T12:41:29.000Z</time>
      </trkpt>
      <trkpt lat="39.44499559700489044189453125" lon="-7.62686334550380706787109375">
        <ele>305</ele>
        <time>2019-04-26T12:41:41.000Z</time>
      </trkpt>
      <trkpt lat="39.44554586894810199737548828125" lon="-7.6270324923098087310791015625">
        <ele>304</ele>
        <time>2019-04-26T12:41:53.000Z</time>
      </trkpt>
      <trkpt lat="39.44610963575541973114013671875" lon="-7.62719870544970035552978515625">
        <ele>304.399993896484375</ele>
        <time>2019-04-26T12:42:07.000Z</time>
      </trkpt>
      <trkpt lat="39.4466439820826053619384765625" lon="-7.62736081145703792572021484375">
        <ele>305.20001220703125</ele>
        <time>2019-04-26T12:42:19.000Z</time>
      </trkpt>
      <trkpt lat="39.44719173945486545562744140625" lon="-7.62752811424434185028076171875">
        <ele>305</ele>
        <time>2019-04-26T12:42:31.000Z</time>
      </trkpt>
      <trkpt lat="39.4477376528084278106689453125" lon="-7.62770463712513446807861328125">
        <ele>305.20001220703125</ele>
        <time>2019-04-26T12:42:43.000Z</time>
      </trkpt>
      <trkpt lat="39.44829203188419342041015625" lon="-7.62786858715116977691650390625">
        <ele>306.600006103515625</ele>
        <time>2019-04-26T12:42:55.000Z</time>
      </trkpt>
      <trkpt lat="39.44885470904409885406494140625" lon="-7.62804142199456691741943359375">
        <ele>306.600006103515625</ele>
        <time>2019-04-26T12:43:07.000Z</time>
      </trkpt>
      <trkpt lat="39.44941244088113307952880859375" lon="-7.62820973061025142669677734375">
        <ele>307</ele>
        <time>2019-04-26T12:43:20.000Z</time>
      </trkpt>
      <trkpt lat="39.44995827041566371917724609375" lon="-7.62837736867368221282958984375">
        <ele>308.600006103515625</ele>
        <time>2019-04-26T12:43:36.000Z</time>
      </trkpt>
      <trkpt lat="39.4505201093852519989013671875" lon="-7.62854349799454212188720703125">
        <ele>310.399993896484375</ele>
        <time>2019-04-26T12:43:52.000Z</time>
      </trkpt>
      <trkpt lat="39.451059401035308837890625" lon="-7.628713063895702362060546875">
        <ele>312.20001220703125</ele>
        <time>2019-04-26T12:44:08.000Z</time>
      </trkpt>
      <trkpt lat="39.4515970163047313690185546875" lon="-7.62888514436781406402587890625">
        <ele>312.79998779296875</ele>
        <time>2019-04-26T12:44:22.000Z</time>
      </trkpt>
      <trkpt lat="39.45215801708400249481201171875" lon="-7.629058063030242919921875">
        <ele>313.600006103515625</ele>
        <time>2019-04-26T12:44:36.000Z</time>
      </trkpt>
      <trkpt lat="39.45269244723021984100341796875" lon="-7.629217319190502166748046875">
        <ele>315.399993896484375</ele>
        <time>2019-04-26T12:44:51.000Z</time>
      </trkpt>
      <trkpt lat="39.45322872139513492584228515625" lon="-7.629386298358440399169921875">
        <ele>316.20001220703125</ele>
        <time>2019-04-26T12:45:06.000Z</time>
      </trkpt>
      <trkpt lat="39.453774131834506988525390625" lon="-7.62955402024090290069580078125">
        <ele>317.399993896484375</ele>
        <time>2019-04-26T12:45:21.000Z</time>
      </trkpt>
      <trkpt lat="39.45430797524750232696533203125" lon="-7.629728615283966064453125">
        <ele>318.20001220703125</ele>
        <time>2019-04-26T12:45:42.000Z</time>
      </trkpt>
      <trkpt lat="39.45484005846083164215087890625" lon="-7.629894912242889404296875">
        <ele>317.79998779296875</ele>
        <time>2019-04-26T12:46:02.000Z</time>
      </trkpt>
      <trkpt lat="39.45541606284677982330322265625" lon="-7.63005861081182956695556640625">
        <ele>317.399993896484375</ele>
        <time>2019-04-26T12:46:16.000Z</time>
      </trkpt>
      <trkpt lat="39.4559975154697895050048828125" lon="-7.63023429550230503082275390625">
        <ele>320.399993896484375</ele>
        <time>2019-04-26T12:46:26.000Z</time>
      </trkpt>
      <trkpt lat="39.45658542215824127197265625" lon="-7.63041417114436626434326171875">
        <ele>319</ele>
        <time>2019-04-26T12:46:36.000Z</time>
      </trkpt>
      <trkpt lat="39.4571656174957752227783203125" lon="-7.630591280758380889892578125">
        <ele>318.399993896484375</ele>
        <time>2019-04-26T12:46:45.000Z</time>
      </trkpt>
      <trkpt lat="39.4577550329267978668212890625" lon="-7.6307748444378376007080078125">
        <ele>317.20001220703125</ele>
        <time>2019-04-26T12:46:54.000Z</time>
      </trkpt>
      <trkpt lat="39.4582901336252689361572265625" lon="-7.6309384591877460479736328125">
        <ele>315.79998779296875</ele>
        <time>2019-04-26T12:47:02.000Z</time>
      </trkpt>
      <trkpt lat="39.4588181935250759124755859375" lon="-7.6311000622808933258056640625">
        <ele>314.20001220703125</ele>
        <time>2019-04-26T12:47:10.000Z</time>
      </trkpt>
      <trkpt lat="39.4593713991343975067138671875" lon="-7.63127281330525875091552734375">
        <ele>313.20001220703125</ele>
        <time>2019-04-26T12:47:20.000Z</time>
      </trkpt>
      <trkpt lat="39.4599477387964725494384765625" lon="-7.63144849799573421478271484375">
        <ele>312.20001220703125</ele>
        <time>2019-04-26T12:47:31.000Z</time>
      </trkpt>
      <trkpt lat="39.46051091887056827545166015625" lon="-7.6316207461059093475341796875">
        <ele>313.20001220703125</ele>
        <time>2019-04-26T12:47:41.000Z</time>
      </trkpt>
      <trkpt lat="39.461042582988739013671875" lon="-7.63178813271224498748779296875">
        <ele>313.600006103515625</ele>
        <time>2019-04-26T12:47:50.000Z</time>
      </trkpt>
      <trkpt lat="39.46161431260406970977783203125" lon="-7.631960548460483551025390625">
        <ele>312.600006103515625</ele>
        <time>2019-04-26T12:48:00.000Z</time>
      </trkpt>
      <trkpt lat="39.46216450072824954986572265625" lon="-7.6321337185800075531005859375">
        <ele>312.20001220703125</ele>
        <time>2019-04-26T12:48:10.000Z</time>
      </trkpt>
      <trkpt lat="39.46274670772254467010498046875" lon="-7.6323156058788299560546875">
        <ele>312.20001220703125</ele>
        <time>2019-04-26T12:48:20.000Z</time>
      </trkpt>
      <trkpt lat="39.46330779232084751129150390625" lon="-7.6324807293713092803955078125">
        <ele>311.20001220703125</ele>
        <time>2019-04-26T12:48:29.000Z</time>
      </trkpt>
      <trkpt lat="39.4638644345104694366455078125" lon="-7.63265280984342098236083984375">
        <ele>309.600006103515625</ele>
        <time>2019-04-26T12:48:38.000Z</time>
      </trkpt>
      <trkpt lat="39.4644246809184551239013671875" lon="-7.6328274048864841461181640625">
        <ele>307.600006103515625</ele>
        <time>2019-04-26T12:48:47.000Z</time>
      </trkpt>
      <trkpt lat="39.46500093676149845123291015625" lon="-7.633000910282135009765625">
        <ele>307</ele>
        <time>2019-04-26T12:48:56.000Z</time>
      </trkpt>
      <trkpt lat="39.46553469635546207427978515625" lon="-7.6331636868417263031005859375">
        <ele>306.20001220703125</ele>
        <time>2019-04-26T12:49:05.000Z</time>
      </trkpt>
      <trkpt lat="39.4660678692162036895751953125" lon="-7.6333279721438884735107421875">
        <ele>306</ele>
        <time>2019-04-26T12:49:14.000Z</time>
      </trkpt>
      <trkpt lat="39.466607160866260528564453125" lon="-7.6334942691028118133544921875">
        <ele>306.79998779296875</ele>
        <time>2019-04-26T12:49:23.000Z</time>
      </trkpt>
      <trkpt lat="39.46714770980179309844970703125" lon="-7.63365193270146846771240234375">
        <ele>307</ele>
        <time>2019-04-26T12:49:33.000Z</time>
      </trkpt>
      <trkpt lat="39.4676771946251392364501953125" lon="-7.633817307651042938232421875">
        <ele>308</ele>
        <time>2019-04-26T12:49:44.000Z</time>
      </trkpt>
      <trkpt lat="39.46823098696768283843994140625" lon="-7.6339871250092983245849609375">
        <ele>309.399993896484375</ele>
        <time>2019-04-26T12:49:57.000Z</time>
      </trkpt>
      <trkpt lat="39.4687859527766704559326171875" lon="-7.634152583777904510498046875">
        <ele>311.20001220703125</ele>
        <time>2019-04-26T12:50:10.000Z</time>
      </trkpt>
      <trkpt lat="39.46933262050151824951171875" lon="-7.6343274302780628204345703125">
        <ele>311.20001220703125</ele>
        <time>2019-04-26T12:50:20.000Z</time>
      </trkpt>
      <trkpt lat="39.469864703714847564697265625" lon="-7.63449699617922306060791015625">
        <ele>310.399993896484375</ele>
        <time>2019-04-26T12:50:28.000Z</time>
      </trkpt>
      <trkpt lat="39.47045437060296535491943359375" lon="-7.63467234559357166290283203125">
        <ele>309.79998779296875</ele>
        <time>2019-04-26T12:50:37.000Z</time>
      </trkpt>
      <trkpt lat="39.47101646102964878082275390625" lon="-7.63484953902661800384521484375">
        <ele>309.399993896484375</ele>
        <time>2019-04-26T12:50:46.000Z</time>
      </trkpt>
      <trkpt lat="39.47157285176217555999755859375" lon="-7.63501700945198535919189453125">
        <ele>308.600006103515625</ele>
        <time>2019-04-26T12:50:55.000Z</time>
      </trkpt>
      <trkpt lat="39.47211809456348419189453125" lon="-7.6351827196776866912841796875">
        <ele>307</ele>
        <time>2019-04-26T12:51:04.000Z</time>
      </trkpt>
      <trkpt lat="39.472688399255275726318359375" lon="-7.63536536134779453277587890625">
        <ele>307</ele>
        <time>2019-04-26T12:51:14.000Z</time>
      </trkpt>
      <trkpt lat="39.47324453853070735931396484375" lon="-7.63552746735513210296630859375">
        <ele>305.399993896484375</ele>
        <time>2019-04-26T12:51:25.000Z</time>
      </trkpt>
      <trkpt lat="39.4733420200645923614501953125" lon="-7.63556250371038913726806640625">
        <ele>305.79998779296875</ele>
        <time>2019-04-26T12:51:27.000Z</time>
      </trkpt>
      <trkpt lat="39.47343078441917896270751953125" lon="-7.63559586368501186370849609375">
        <ele>306.20001220703125</ele>
        <time>2019-04-26T12:51:29.000Z</time>
      </trkpt>
      <trkpt lat="39.47395943105220794677734375" lon="-7.6357543654739856719970703125">
        <ele>306.79998779296875</ele>
        <time>2019-04-26T12:51:40.000Z</time>
      </trkpt>
      <trkpt lat="39.47453065775334835052490234375" lon="-7.6359209977090358734130859375">
        <ele>307.600006103515625</ele>
        <time>2019-04-26T12:51:52.000Z</time>
      </trkpt>
      <trkpt lat="39.47506290860474109649658203125" lon="-7.63605058193206787109375">
        <ele>303.399993896484375</ele>
        <time>2019-04-26T12:52:02.000Z</time>
      </trkpt>
      <trkpt lat="39.47562701068818569183349609375" lon="-7.63614001683890819549560546875">
        <ele>301.20001220703125</ele>
        <time>2019-04-26T12:52:12.000Z</time>
      </trkpt>
      <trkpt lat="39.4762093015015125274658203125" lon="-7.63618293218314647674560546875">
        <ele>299.399993896484375</ele>
        <time>2019-04-26T12:52:22.000Z</time>
      </trkpt>
      <trkpt lat="39.4767504371702671051025390625" lon="-7.63617865741252899169921875">
        <ele>297.399993896484375</ele>
        <time>2019-04-26T12:52:31.000Z</time>
      </trkpt>
      <trkpt lat="39.4773106835782527923583984375" lon="-7.6361546851694583892822265625">
        <ele>295.600006103515625</ele>
        <time>2019-04-26T12:52:40.000Z</time>
      </trkpt>
      <trkpt lat="39.47790621779859066009521484375" lon="-7.6361292041838169097900390625">
        <ele>293</ele>
        <time>2019-04-26T12:52:50.000Z</time>
      </trkpt>
      <trkpt lat="39.47846042923629283905029296875" lon="-7.6361174695193767547607421875">
        <ele>288.399993896484375</ele>
        <time>2019-04-26T12:53:00.000Z</time>
      </trkpt>
      <trkpt lat="39.47851139120757579803466796875" lon="-7.636112608015537261962890625">
        <ele>287.79998779296875</ele>
        <time>2019-04-26T12:53:01.000Z</time>
      </trkpt>
      <trkpt lat="39.478860162198543548583984375" lon="-7.63610447756946086883544921875">
        <ele>287</ele>
        <time>2019-04-26T12:53:08.000Z</time>
      </trkpt>
      <trkpt lat="39.47926827706396579742431640625" lon="-7.63610414229333400726318359375">
        <ele>288</ele>
        <time>2019-04-26T12:53:16.000Z</time>
      </trkpt>
      <trkpt lat="39.479812346398830413818359375" lon="-7.636086456477642059326171875">
        <ele>289.600006103515625</ele>
        <time>2019-04-26T12:53:29.000Z</time>
      </trkpt>
      <trkpt lat="39.48039815761148929595947265625" lon="-7.63606960885226726531982421875">
        <ele>291.600006103515625</ele>
        <time>2019-04-26T12:53:42.000Z</time>
      </trkpt>
      <trkpt lat="39.4809648580849170684814453125" lon="-7.63605150394141674041748046875">
        <ele>290.399993896484375</ele>
        <time>2019-04-26T12:53:54.000Z</time>
      </trkpt>
      <trkpt lat="39.48128211311995983123779296875" lon="-7.63605401851236820220947265625">
        <ele>291</ele>
        <time>2019-04-26T12:54:01.000Z</time>
      </trkpt>
      <trkpt lat="39.4818392582237720489501953125" lon="-7.6360453851521015167236328125">
        <ele>293</ele>
        <time>2019-04-26T12:54:14.000Z</time>
      </trkpt>
      <trkpt lat="39.48238332755863666534423828125" lon="-7.6360197365283966064453125">
        <ele>294.399993896484375</ele>
        <time>2019-04-26T12:54:24.000Z</time>
      </trkpt>
      <trkpt lat="39.48292496614158153533935546875" lon="-7.63599953614175319671630859375">
        <ele>294.79998779296875</ele>
        <time>2019-04-26T12:54:33.000Z</time>
      </trkpt>
      <trkpt lat="39.4834847934544086456298828125" lon="-7.63597489334642887115478515625">
        <ele>295</ele>
        <time>2019-04-26T12:54:43.000Z</time>
      </trkpt>
      <trkpt lat="39.4840519130229949951171875" lon="-7.63594706542789936065673828125">
        <ele>295</ele>
        <time>2019-04-26T12:54:53.000Z</time>
      </trkpt>
      <trkpt lat="39.484594054520130157470703125" lon="-7.6359392702579498291015625">
        <ele>295</ele>
        <time>2019-04-26T12:55:05.000Z</time>
      </trkpt>
      <trkpt lat="39.48515824042260646820068359375" lon="-7.6359808444976806640625">
        <ele>295.600006103515625</ele>
        <time>2019-04-26T12:55:21.000Z</time>
      </trkpt>
      <trkpt lat="39.4856996275484561920166015625" lon="-7.63603247702121734619140625">
        <ele>298.600006103515625</ele>
        <time>2019-04-26T12:55:38.000Z</time>
      </trkpt>
      <trkpt lat="39.4862692616879940032958984375" lon="-7.63607966713607311248779296875">
        <ele>301.20001220703125</ele>
        <time>2019-04-26T12:55:57.000Z</time>
      </trkpt>
      <trkpt lat="39.48681886307895183563232421875" lon="-7.63612275011837482452392578125">
        <ele>305.20001220703125</ele>
        <time>2019-04-26T12:56:14.000Z</time>
      </trkpt>
      <trkpt lat="39.48738531209528446197509765625" lon="-7.6361825130879878997802734375">
        <ele>307.399993896484375</ele>
        <time>2019-04-26T12:56:32.000Z</time>
      </trkpt>
      <trkpt lat="39.48792167007923126220703125" lon="-7.63647411949932575225830078125">
        <ele>307.20001220703125</ele>
        <time>2019-04-26T12:56:47.000Z</time>
      </trkpt>
      <trkpt lat="39.48839583434164524078369140625" lon="-7.63681677170097827911376953125">
        <ele>305</ele>
        <time>2019-04-26T12:56:58.000Z</time>
      </trkpt>
      <trkpt lat="39.48889086954295635223388671875" lon="-7.63717174530029296875">
        <ele>304.399993896484375</ele>
        <time>2019-04-26T12:57:07.000Z</time>
      </trkpt>
      <trkpt lat="39.48936696164309978485107421875" lon="-7.6375085301697254180908203125">
        <ele>303.20001220703125</ele>
        <time>2019-04-26T12:57:14.000Z</time>
      </trkpt>
      <trkpt lat="39.489874653518199920654296875" lon="-7.637871466577053070068359375">
        <ele>300</ele>
        <time>2019-04-26T12:57:21.000Z</time>
      </trkpt>
      <trkpt lat="39.49038393795490264892578125" lon="-7.63823465444147586822509765625">
        <ele>299.399993896484375</ele>
        <time>2019-04-26T12:57:29.000Z</time>
      </trkpt>
      <trkpt lat="39.490887857973575592041015625" lon="-7.6385881192982196807861328125">
        <ele>299.20001220703125</ele>
        <time>2019-04-26T12:57:39.000Z</time>
      </trkpt>
      <trkpt lat="39.4913721643388271331787109375" lon="-7.63894141651690006256103515625">
        <ele>299.20001220703125</ele>
        <time>2019-04-26T12:57:50.000Z</time>
      </trkpt>
      <trkpt lat="39.49188505299389362335205078125" lon="-7.6393052749335765838623046875">
        <ele>302.20001220703125</ele>
        <time>2019-04-26T12:58:02.000Z</time>
      </trkpt>
      <trkpt lat="39.49239450506865978240966796875" lon="-7.63966779224574565887451171875">
        <ele>304.399993896484375</ele>
        <time>2019-04-26T12:58:14.000Z</time>
      </trkpt>
      <trkpt lat="39.49286707676947116851806640625" lon="-7.6400076784193515777587890625">
        <ele>305.20001220703125</ele>
        <time>2019-04-26T12:58:25.000Z</time>
      </trkpt>
      <trkpt lat="39.49337803758680820465087890625" lon="-7.64037438668310642242431640625">
        <ele>304.600006103515625</ele>
        <time>2019-04-26T12:58:37.000Z</time>
      </trkpt>
      <trkpt lat="39.493894614279270172119140625" lon="-7.64074419625103473663330078125">
        <ele>306</ele>
        <time>2019-04-26T12:58:48.000Z</time>
      </trkpt>
      <trkpt lat="39.49438738636672496795654296875" lon="-7.6410808973014354705810546875">
        <ele>305.600006103515625</ele>
        <time>2019-04-26T12:58:58.000Z</time>
      </trkpt>
      <trkpt lat="39.4948660768568515777587890625" lon="-7.64141173101961612701416015625">
        <ele>304</ele>
        <time>2019-04-26T12:59:17.000Z</time>
      </trkpt>
      <trkpt lat="39.4953733496367931365966796875" lon="-7.64168657362461090087890625">
        <ele>304.79998779296875</ele>
        <time>2019-04-26T12:59:25.000Z</time>
      </trkpt>
      <trkpt lat="39.495911300182342529296875" lon="-7.64196912758052349090576171875">
        <ele>303</ele>
        <time>2019-04-26T12:59:32.000Z</time>
      </trkpt>
      <trkpt lat="39.4964697025716304779052734375" lon="-7.6422721333801746368408203125">
        <ele>300</ele>
        <time>2019-04-26T12:59:39.000Z</time>
      </trkpt>
      <trkpt lat="39.49704118072986602783203125" lon="-7.64256977476179599761962890625">
        <ele>295</ele>
        <time>2019-04-26T12:59:46.000Z</time>
      </trkpt>
      <trkpt lat="39.49757368303835391998291015625" lon="-7.642846293747425079345703125">
        <ele>294.399993896484375</ele>
        <time>2019-04-26T12:59:53.000Z</time>
      </trkpt>
      <trkpt lat="39.49808363802731037139892578125" lon="-7.64311350882053375244140625">
        <ele>292.600006103515625</ele>
        <time>2019-04-26T13:00:01.000Z</time>
      </trkpt>
      <trkpt lat="39.49864690192043781280517578125" lon="-7.6432729326188564300537109375">
        <ele>290</ele>
        <time>2019-04-26T13:00:09.000Z</time>
      </trkpt>
      <trkpt lat="39.499244280159473419189453125" lon="-7.6433054544031620025634765625">
        <ele>287</ele>
        <time>2019-04-26T13:00:17.000Z</time>
      </trkpt>
      <trkpt lat="39.499802179634571075439453125" lon="-7.64332766644656658172607421875">
        <ele>284.600006103515625</ele>
        <time>2019-04-26T13:00:25.000Z</time>
      </trkpt>
      <trkpt lat="39.50037474744021892547607421875" lon="-7.64334694482386112213134765625">
        <ele>282.20001220703125</ele>
        <time>2019-04-26T13:00:35.000Z</time>
      </trkpt>
      <trkpt lat="39.5009178109467029571533203125" lon="-7.643369324505329132080078125">
        <ele>286.20001220703125</ele>
        <time>2019-04-26T13:00:47.000Z</time>
      </trkpt>
      <trkpt lat="39.501500017940998077392578125" lon="-7.64338550157845020294189453125">
        <ele>288.79998779296875</ele>
        <time>2019-04-26T13:01:01.000Z</time>
      </trkpt>
      <trkpt lat="39.502065964043140411376953125" lon="-7.64341819100081920623779296875">
        <ele>290.399993896484375</ele>
        <time>2019-04-26T13:01:18.000Z</time>
      </trkpt>
      <trkpt lat="39.502617828547954559326171875" lon="-7.64343813993036746978759765625">
        <ele>293.79998779296875</ele>
        <time>2019-04-26T13:01:39.000Z</time>
      </trkpt>
      <trkpt lat="39.50316223315894603729248046875" lon="-7.643460519611835479736328125">
        <ele>297.79998779296875</ele>
        <time>2019-04-26T13:02:00.000Z</time>
      </trkpt>
      <trkpt lat="39.5037113316357135772705078125" lon="-7.643482647836208343505859375">
        <ele>301.79998779296875</ele>
        <time>2019-04-26T13:02:21.000Z</time>
      </trkpt>
      <trkpt lat="39.504263699054718017578125" lon="-7.64351307414472103118896484375">
        <ele>303.600006103515625</ele>
        <time>2019-04-26T13:02:41.000Z</time>
      </trkpt>
      <trkpt lat="39.50480927713215351104736328125" lon="-7.64352698810398578643798828125">
        <ele>306</ele>
        <time>2019-04-26T13:02:59.000Z</time>
      </trkpt>
      <trkpt lat="39.50535661540925502777099609375" lon="-7.6435525529086589813232421875">
        <ele>308.600006103515625</ele>
        <time>2019-04-26T13:03:16.000Z</time>
      </trkpt>
      <trkpt lat="39.50591770000755786895751953125" lon="-7.64365204609930515289306640625">
        <ele>309.600006103515625</ele>
        <time>2019-04-26T13:03:35.000Z</time>
      </trkpt>
      <trkpt lat="39.50643771328032016754150390625" lon="-7.64397022314369678497314453125">
        <ele>308.79998779296875</ele>
        <time>2019-04-26T13:03:52.000Z</time>
      </trkpt>
      <trkpt lat="39.506921432912349700927734375" lon="-7.64429577626287937164306640625">
        <ele>306.600006103515625</ele>
        <time>2019-04-26T13:04:03.000Z</time>
      </trkpt>
      <trkpt lat="39.50723399408161640167236328125" lon="-7.644505910575389862060546875">
        <ele>305.399993896484375</ele>
        <time>2019-04-26T13:04:10.000Z</time>
      </trkpt>
      <trkpt lat="39.5077225752174854278564453125" lon="-7.64483280479907989501953125">
        <ele>305.20001220703125</ele>
        <time>2019-04-26T13:04:27.000Z</time>
      </trkpt>
      <trkpt lat="39.508195482194423675537109375" lon="-7.64517436735332012176513671875">
        <ele>306.79998779296875</ele>
        <time>2019-04-26T13:04:43.000Z</time>
      </trkpt>
      <trkpt lat="39.5086905173957347869873046875" lon="-7.64551064930856227874755859375">
        <ele>309</ele>
        <time>2019-04-26T13:04:59.000Z</time>
      </trkpt>
      <trkpt lat="39.5091934315860271453857421875" lon="-7.64587928541004657745361328125">
        <ele>309.399993896484375</ele>
        <time>2019-04-26T13:05:15.000Z</time>
      </trkpt>
      <trkpt lat="39.50968285091221332550048828125" lon="-7.6462424732744693756103515625">
        <ele>308.20001220703125</ele>
        <time>2019-04-26T13:05:28.000Z</time>
      </trkpt>
      <trkpt lat="39.51019330881536006927490234375" lon="-7.6465982012450695037841796875">
        <ele>307.79998779296875</ele>
        <time>2019-04-26T13:05:42.000Z</time>
      </trkpt>
      <trkpt lat="39.51070510782301425933837890625" lon="-7.64694747515022754669189453125">
        <ele>307.20001220703125</ele>
        <time>2019-04-26T13:05:52.000Z</time>
      </trkpt>
      <trkpt lat="39.5112248696386814117431640625" lon="-7.64729582704603672027587890625">
        <ele>305</ele>
        <time>2019-04-26T13:06:01.000Z</time>
      </trkpt>
      <trkpt lat="39.51171898283064365386962890625" lon="-7.64764216728508472442626953125">
        <ele>303.79998779296875</ele>
        <time>2019-04-26T13:06:12.000Z</time>
      </trkpt>
      <trkpt lat="39.512215442955493927001953125" lon="-7.647963948547840118408203125">
        <ele>304</ele>
        <time>2019-04-26T13:06:24.000Z</time>
      </trkpt>
      <trkpt lat="39.5127057842910289764404296875" lon="-7.6482967101037502288818359375">
        <ele>306.399993896484375</ele>
        <time>2019-04-26T13:06:37.000Z</time>
      </trkpt>
      <trkpt lat="39.5132123865187168121337890625" lon="-7.6486353389918804168701171875">
        <ele>307</ele>
        <time>2019-04-26T13:06:51.000Z</time>
      </trkpt>
      <trkpt lat="39.51373969204723834991455078125" lon="-7.6488666795194149017333984375">
        <ele>307</ele>
        <time>2019-04-26T13:07:09.000Z</time>
      </trkpt>
      <trkpt lat="39.51427638530731201171875" lon="-7.64894521795213222503662109375">
        <ele>307</ele>
        <time>2019-04-26T13:07:24.000Z</time>
      </trkpt>
      <trkpt lat="39.5148364640772342681884765625" lon="-7.64896499924361705780029296875">
        <ele>307</ele>
        <time>2019-04-26T13:07:41.000Z</time>
      </trkpt>
      <trkpt lat="39.51538170687854290008544921875" lon="-7.649010010063648223876953125">
        <ele>306.79998779296875</ele>
        <time>2019-04-26T13:07:56.000Z</time>
      </trkpt>
      <trkpt lat="39.51579091139137744903564453125" lon="-7.64948685653507709503173828125">
        <ele>305</ele>
        <time>2019-04-26T13:08:12.000Z</time>
      </trkpt>
      <trkpt lat="39.5162905566394329071044921875" lon="-7.649514265358448028564453125">
        <ele>304.79998779296875</ele>
        <time>2019-04-26T13:08:32.000Z</time>
      </trkpt>
      <trkpt lat="39.5164052210748195648193359375" lon="-7.64950093813240528106689453125">
        <ele>305.20001220703125</ele>
        <time>2019-04-26T13:08:43.000Z</time>
      </trkpt>
      <trkpt lat="39.5163891278207302093505859375" lon="-7.64954536221921443939208984375">
        <ele>305.20001220703125</ele>
        <time>2019-04-26T13:08:45.000Z</time>
      </trkpt>
      <trkpt lat="39.5163220725953578948974609375" lon="-7.64967394061386585235595703125">
        <ele>305.20001220703125</ele>
        <time>2019-04-26T13:08:50.000Z</time>
      </trkpt>
      <trkpt lat="39.5163016207516193389892578125" lon="-7.64988181181252002716064453125">
        <ele>305.399993896484375</ele>
        <time>2019-04-26T13:08:55.000Z</time>
      </trkpt>
      <trkpt lat="39.51630589552223682403564453125" lon="-7.64999882318079471588134765625">
        <ele>305.20001220703125</ele>
        <time>2019-04-26T13:08:58.000Z</time>
      </trkpt>
      <trkpt lat="39.51625786721706390380859375" lon="-7.65016646124422550201416015625">
        <ele>304.79998779296875</ele>
        <time>2019-04-26T13:09:05.000Z</time>
      </trkpt>
      <trkpt lat="39.516231715679168701171875" lon="-7.650231756269931793212890625">
        <ele>304.600006103515625</ele>
        <time>2019-04-26T13:09:17.000Z</time>
      </trkpt>
      <trkpt lat="39.51616667211055755615234375" lon="-7.65036041848361492156982421875">
        <ele>304.20001220703125</ele>
        <time>2019-04-26T13:09:23.000Z</time>
      </trkpt>
      <trkpt lat="39.51614345423877239227294921875" lon="-7.65041724778711795806884765625">
        <ele>304</ele>
        <time>2019-04-26T13:09:27.000Z</time>
      </trkpt>
      <trkpt lat="39.51616667211055755615234375" lon="-7.65039076097309589385986328125">
        <ele>304.20001220703125</ele>
        <time>2019-04-26T13:13:21.000Z</time>
      </trkpt>
      <trkpt lat="39.516242109239101409912109375" lon="-7.65038824640214443206787109375">
        <ele>304.20001220703125</ele>
        <time>2019-04-26T13:13:26.000Z</time>
      </trkpt>
      <trkpt lat="39.5162627287209033966064453125" lon="-7.65037081204354763031005859375">
        <ele>304.20001220703125</ele>
        <time>2019-04-26T13:13:29.000Z</time>
      </trkpt>
      <trkpt lat="39.51626901514828205108642578125" lon="-7.65034683980047702789306640625">
        <ele>304.399993896484375</ele>
        <time>2019-04-26T13:13:48.000Z</time>
      </trkpt>
      <trkpt lat="39.51627253554761409759521484375" lon="-7.6503351889550685882568359375">
        <ele>304.399993896484375</ele>
        <time>2019-04-26T13:13:50.000Z</time>
      </trkpt>
      <trkpt lat="39.516279995441436767578125" lon="-7.65031926333904266357421875">
        <ele>304.399993896484375</ele>
        <time>2019-04-26T13:13:54.000Z</time>
      </trkpt>
      <trkpt lat="39.516309164464473724365234375" lon="-7.650290429592132568359375">
        <ele>304.600006103515625</ele>
        <time>2019-04-26T13:13:56.000Z</time>
      </trkpt>
      <trkpt lat="39.51654444448649883270263671875" lon="-7.6501886732876300811767578125">
        <ele>305</ele>
        <time>2019-04-26T13:14:05.000Z</time>
      </trkpt>
      <trkpt lat="39.51674678362905979156494140625" lon="-7.6495127566158771514892578125">
        <ele>306.399993896484375</ele>
        <time>2019-04-26T13:14:21.000Z</time>
      </trkpt>
      <trkpt lat="39.51696102507412433624267578125" lon="-7.64884279109537601470947265625">
        <ele>307.20001220703125</ele>
        <time>2019-04-26T13:14:38.000Z</time>
      </trkpt>
      <trkpt lat="39.51699891127645969390869140625" lon="-7.64881462790071964263916015625">
        <ele>307.399993896484375</ele>
        <time>2019-04-26T13:14:40.000Z</time>
      </trkpt>
      <trkpt lat="39.517138302326202392578125" lon="-7.64890984632074832916259765625">
        <ele>306.79998779296875</ele>
        <time>2019-04-26T13:14:48.000Z</time>
      </trkpt>
      <trkpt lat="39.51715799979865550994873046875" lon="-7.64893063344061374664306640625">
        <ele>306.79998779296875</ele>
        <time>2019-04-26T13:14:51.000Z</time>
      </trkpt>
      <trkpt lat="39.5172333531081676483154296875" lon="-7.6490056514739990234375">
        <ele>306.600006103515625</ele>
        <time>2019-04-26T13:16:19.000Z</time>
      </trkpt>
      <trkpt lat="39.51725254766643047332763671875" lon="-7.64900975860655307769775390625">
        <ele>306.79998779296875</ele>
        <time>2019-04-26T13:16:21.000Z</time>
      </trkpt>
      <trkpt lat="39.51726528815925121307373046875" lon="-7.64903473667800426483154296875">
        <ele>306.79998779296875</ele>
        <time>2019-04-26T13:16:23.000Z</time>
      </trkpt>
      <trkpt lat="39.5172625221312046051025390625" lon="-7.6490866206586360931396484375">
        <ele>307.20001220703125</ele>
        <time>2019-04-26T13:16:26.000Z</time>
      </trkpt>
      <trkpt lat="39.51726461760699748992919921875" lon="-7.6491007022559642791748046875">
        <ele>307.20001220703125</ele>
        <time>2019-04-26T13:16:28.000Z</time>
      </trkpt>
      <trkpt lat="39.5172960497438907623291015625" lon="-7.6491845212876796722412109375">
        <ele>307.600006103515625</ele>
        <time>2019-04-26T13:17:01.000Z</time>
      </trkpt>
      <trkpt lat="39.51739705167710781097412109375" lon="-7.64923238195478916168212890625">
        <ele>307.79998779296875</ele>
        <time>2019-04-26T13:17:05.000Z</time>
      </trkpt>
      <trkpt lat="39.51744181104004383087158203125" lon="-7.64928124845027923583984375">
        <ele>308</ele>
        <time>2019-04-26T13:17:08.000Z</time>
      </trkpt>
      <trkpt lat="39.51756183989346027374267578125" lon="-7.64937671832740306854248046875">
        <ele>308.20001220703125</ele>
        <time>2019-04-26T13:17:14.000Z</time>
      </trkpt>
      <trkpt lat="39.51811756007373332977294921875" lon="-7.64928166754543781280517578125">
        <ele>308</ele>
        <time>2019-04-26T13:17:32.000Z</time>
      </trkpt>
      <trkpt lat="39.51825032941997051239013671875" lon="-7.6491972617805004119873046875">
        <ele>307.600006103515625</ele>
        <time>2019-04-26T13:17:37.000Z</time>
      </trkpt>
      <trkpt lat="39.5182559452950954437255859375" lon="-7.6490946672856807708740234375">
        <ele>307.20001220703125</ele>
        <time>2019-04-26T13:17:43.000Z</time>
      </trkpt>
      <trkpt lat="39.5182581245899200439453125" lon="-7.64907295815646648406982421875">
        <ele>307.20001220703125</ele>
        <time>2019-04-26T13:18:20.000Z</time>
      </trkpt>
      <trkpt lat="39.5182795822620391845703125" lon="-7.6490323059260845184326171875">
        <ele>307</ele>
        <time>2019-04-26T13:18:24.000Z</time>
      </trkpt>
      <trkpt lat="39.518292658030986785888671875" lon="-7.64903021045029163360595703125">
        <ele>307</ele>
        <time>2019-04-26T13:18:41.000Z</time>
      </trkpt>
      <trkpt lat="39.5184088312089443206787109375" lon="-7.64892040751874446868896484375">
        <ele>306.20001220703125</ele>
        <time>2019-04-26T13:18:50.000Z</time>
      </trkpt>
      <trkpt lat="39.51840438880026340484619140625" lon="-7.64888151548802852630615234375">
        <ele>306.20001220703125</ele>
        <time>2019-04-26T13:18:53.000Z</time>
      </trkpt>
      <trkpt lat="39.5184222422540187835693359375" lon="-7.64818095602095127105712890625">
        <ele>303.600006103515625</ele>
        <time>2019-04-26T13:19:08.000Z</time>
      </trkpt>
      <trkpt lat="39.5184031315147876739501953125" lon="-7.64802807010710239410400390625">
        <ele>303.20001220703125</ele>
        <time>2019-04-26T13:19:12.000Z</time>
      </trkpt>
      <trkpt lat="39.518254436552524566650390625" lon="-7.6473334617912769317626953125">
        <ele>299.399993896484375</ele>
        <time>2019-04-26T13:19:27.000Z</time>
      </trkpt>
      <trkpt lat="39.51832107268273830413818359375" lon="-7.64727973379194736480712890625">
        <ele>299.20001220703125</ele>
        <time>2019-04-26T13:19:33.000Z</time>
      </trkpt>
      <trkpt lat="39.51835443265736103057861328125" lon="-7.64741317369043827056884765625">
        <ele>300</ele>
        <time>2019-04-26T13:19:42.000Z</time>
      </trkpt>
      <trkpt lat="39.5183618925511837005615234375" lon="-7.6473529078066349029541015625">
        <ele>299.600006103515625</ele>
        <time>2019-04-26T13:20:42.000Z</time>
      </trkpt>
      <trkpt lat="39.51829257421195507049560546875" lon="-7.64690212905406951904296875">
        <ele>296.79998779296875</ele>
        <time>2019-04-26T13:20:56.000Z</time>
      </trkpt>
      <trkpt lat="39.5184007845818996429443359375" lon="-7.6468446291983127593994140625">
        <ele>296.600006103515625</ele>
        <time>2019-04-26T13:21:04.000Z</time>
      </trkpt>
      <trkpt lat="39.51841142959892749786376953125" lon="-7.646860219538211822509765625">
        <ele>296.79998779296875</ele>
        <time>2019-04-26T13:21:06.000Z</time>
      </trkpt>
      <trkpt lat="39.51841025613248348236083984375" lon="-7.64685946516692638397216796875">
        <ele>296.79998779296875</ele>
        <time>2019-04-26T13:21:07.000Z</time>
      </trkpt>
      <trkpt lat="39.5183967612683773040771484375" lon="-7.64692232944071292877197265625">
        <ele>297</ele>
        <time>2019-04-26T13:21:26.000Z</time>
      </trkpt>
      <trkpt lat="39.518365748226642608642578125" lon="-7.647014446556568145751953125">
        <ele>297.600006103515625</ele>
        <time>2019-04-26T13:21:33.000Z</time>
      </trkpt>
      <trkpt lat="39.518354348838329315185546875" lon="-7.64697496779263019561767578125">
        <ele>297.399993896484375</ele>
        <time>2019-04-26T13:22:02.000Z</time>
      </trkpt>
      <trkpt lat="39.518363736569881439208984375" lon="-7.64673491008579730987548828125">
        <ele>295.79998779296875</ele>
        <time>2019-04-26T13:22:12.000Z</time>
      </trkpt>
      <trkpt lat="39.51836231164634227752685546875" lon="-7.64674379490315914154052734375">
        <ele>296</ele>
        <time>2019-04-26T13:22:13.000Z</time>
      </trkpt>
      <trkpt lat="39.5183694362640380859375" lon="-7.64670431613922119140625">
        <ele>295.79998779296875</ele>
        <time>2019-04-26T13:22:27.000Z</time>
      </trkpt>
      <trkpt lat="39.51865601353347301483154296875" lon="-7.64607810415327548980712890625">
        <ele>292.399993896484375</ele>
        <time>2019-04-26T13:22:39.000Z</time>
      </trkpt>
      <trkpt lat="39.51905063353478908538818359375" lon="-7.64553152024745941162109375">
        <ele>288.20001220703125</ele>
        <time>2019-04-26T13:22:47.000Z</time>
      </trkpt>
      <trkpt lat="39.51914216391742229461669921875" lon="-7.64535457827150821685791015625">
        <ele>287</ele>
        <time>2019-04-26T13:22:49.000Z</time>
      </trkpt>
      <trkpt lat="39.5193348638713359832763671875" lon="-7.6446723751723766326904296875">
        <ele>284</ele>
        <time>2019-04-26T13:22:55.000Z</time>
      </trkpt>
      <trkpt lat="39.51953276060521602630615234375" lon="-7.64400961808860301971435546875">
        <ele>282.79998779296875</ele>
        <time>2019-04-26T13:23:03.000Z</time>
      </trkpt>
      <trkpt lat="39.519549272954463958740234375" lon="-7.64399821870028972625732421875">
        <ele>282.79998779296875</ele>
        <time>2019-04-26T13:23:04.000Z</time>
      </trkpt>
      <trkpt lat="39.51959579251706600189208984375" lon="-7.6439845561981201171875">
        <ele>282.79998779296875</ele>
        <time>2019-04-26T13:23:08.000Z</time>
      </trkpt>
      <trkpt lat="39.51959076337516307830810546875" lon="-7.643979527056217193603515625">
        <ele>283</ele>
        <time>2019-04-26T13:23:09.000Z</time>
      </trkpt>
      <trkpt lat="39.51959411613643169403076171875" lon="-7.64402814209461212158203125">
        <ele>282.600006103515625</ele>
        <time>2019-04-26T13:23:55.000Z</time>
      </trkpt>
      <trkpt lat="39.51954198069870471954345703125" lon="-7.6440608315169811248779296875">
        <ele>282.600006103515625</ele>
        <time>2019-04-26T13:23:59.000Z</time>
      </trkpt>
      <trkpt lat="39.51950870454311370849609375" lon="-7.64408438466489315032958984375">
        <ele>282.600006103515625</ele>
        <time>2019-04-26T13:24:03.000Z</time>
      </trkpt>
      <trkpt lat="39.5196352712810039520263671875" lon="-7.6440128870308399200439453125">
        <ele>282.600006103515625</ele>
        <time>2019-04-26T13:24:11.000Z</time>
      </trkpt>
      <trkpt lat="39.52017984353005886077880859375" lon="-7.64380753040313720703125">
        <ele>282.600006103515625</ele>
        <time>2019-04-26T13:24:28.000Z</time>
      </trkpt>
      <trkpt lat="39.52074646018445491790771484375" lon="-7.64356872998178005218505859375">
        <ele>280.20001220703125</ele>
        <time>2019-04-26T13:24:39.000Z</time>
      </trkpt>
      <trkpt lat="39.52125691808760166168212890625" lon="-7.6432080566883087158203125">
        <ele>278.399993896484375</ele>
        <time>2019-04-26T13:24:49.000Z</time>
      </trkpt>
      <trkpt lat="39.52139832079410552978515625" lon="-7.6431059651076793670654296875">
        <ele>278.20001220703125</ele>
        <time>2019-04-26T13:24:52.000Z</time>
      </trkpt>
      <trkpt lat="39.5218712277710437774658203125" lon="-7.64264387078583240509033203125">
        <ele>278</ele>
        <time>2019-04-26T13:25:02.000Z</time>
      </trkpt>
      <trkpt lat="39.52233131043612957000732421875" lon="-7.6422369293868541717529296875">
        <ele>274.600006103515625</ele>
        <time>2019-04-26T13:25:09.000Z</time>
      </trkpt>
      <trkpt lat="39.52288468368351459503173828125" lon="-7.6419552974402904510498046875">
        <ele>268</ele>
        <time>2019-04-26T13:25:15.000Z</time>
      </trkpt>
      <trkpt lat="39.5234869234263896942138671875" lon="-7.64165162108838558197021484375">
        <ele>259.79998779296875</ele>
        <time>2019-04-26T13:25:21.000Z</time>
      </trkpt>
      <trkpt lat="39.52402931638062000274658203125" lon="-7.6413846574723720550537109375">
        <ele>254.1999969482421875</ele>
        <time>2019-04-26T13:25:26.000Z</time>
      </trkpt>
      <trkpt lat="39.524366520345211029052734375" lon="-7.6412538997828960418701171875">
        <ele>251.8000030517578125</ele>
        <time>2019-04-26T13:25:29.000Z</time>
      </trkpt>
      <trkpt lat="39.52491478063166141510009765625" lon="-7.641170583665370941162109375">
        <ele>248.8000030517578125</ele>
        <time>2019-04-26T13:25:34.000Z</time>
      </trkpt>
      <trkpt lat="39.52530018053948879241943359375" lon="-7.64107234776020050048828125">
        <ele>246.600006103515625</ele>
        <time>2019-04-26T13:25:38.000Z</time>
      </trkpt>
      <trkpt lat="39.52556647360324859619140625" lon="-7.640842683613300323486328125">
        <ele>247.600006103515625</ele>
        <time>2019-04-26T13:25:42.000Z</time>
      </trkpt>
      <trkpt lat="39.52599420212209224700927734375" lon="-7.64034890569746494293212890625">
        <ele>250.8000030517578125</ele>
        <time>2019-04-26T13:25:52.000Z</time>
      </trkpt>
      <trkpt lat="39.52632763423025608062744140625" lon="-7.63978949747979640960693359375">
        <ele>252</ele>
        <time>2019-04-26T13:26:03.000Z</time>
      </trkpt>
      <trkpt lat="39.526465348899364471435546875" lon="-7.63961146585643291473388671875">
        <ele>252</ele>
        <time>2019-04-26T13:26:07.000Z</time>
      </trkpt>
      <trkpt lat="39.5266063325107097625732421875" lon="-7.6395119726657867431640625">
        <ele>252</ele>
        <time>2019-04-26T13:26:10.000Z</time>
      </trkpt>
      <trkpt lat="39.52716431580483913421630859375" lon="-7.63927903957664966583251953125">
        <ele>252.1999969482421875</ele>
        <time>2019-04-26T13:26:20.000Z</time>
      </trkpt>
      <trkpt lat="39.5276959799230098724365234375" lon="-7.6390632055699825286865234375">
        <ele>251.600006103515625</ele>
        <time>2019-04-26T13:26:28.000Z</time>
      </trkpt>
      <trkpt lat="39.528287909924983978271484375" lon="-7.6388311944901943206787109375">
        <ele>247.600006103515625</ele>
        <time>2019-04-26T13:26:35.000Z</time>
      </trkpt>
      <trkpt lat="39.52885326929390430450439453125" lon="-7.638611085712909698486328125">
        <ele>243.600006103515625</ele>
        <time>2019-04-26T13:26:41.000Z</time>
      </trkpt>
      <trkpt lat="39.52940605580806732177734375" lon="-7.6383879594504833221435546875">
        <ele>241.399993896484375</ele>
        <time>2019-04-26T13:26:48.000Z</time>
      </trkpt>
      <trkpt lat="39.529922045767307281494140625" lon="-7.638178579509258270263671875">
        <ele>244.1999969482421875</ele>
        <time>2019-04-26T13:27:00.000Z</time>
      </trkpt>
      <trkpt lat="39.5304747484624385833740234375" lon="-7.63795972801744937896728515625">
        <ele>248.399993896484375</ele>
        <time>2019-04-26T13:27:13.000Z</time>
      </trkpt>
      <trkpt lat="39.53100976534187793731689453125" lon="-7.63774850405752658843994140625">
        <ele>252.399993896484375</ele>
        <time>2019-04-26T13:27:29.000Z</time>
      </trkpt>
      <trkpt lat="39.53151703812181949615478515625" lon="-7.637478522956371307373046875">
        <ele>254.8000030517578125</ele>
        <time>2019-04-26T13:27:50.000Z</time>
      </trkpt>
      <trkpt lat="39.53203302808105945587158203125" lon="-7.637198902666568756103515625">
        <ele>255.399993896484375</ele>
        <time>2019-04-26T13:28:10.000Z</time>
      </trkpt>
      <trkpt lat="39.53253393061459064483642578125" lon="-7.63691986910998821258544921875">
        <ele>259</ele>
        <time>2019-04-26T13:28:29.000Z</time>
      </trkpt>
      <trkpt lat="39.53303231857717037200927734375" lon="-7.63663974590599536895751953125">
        <ele>261</ele>
        <time>2019-04-26T13:28:47.000Z</time>
      </trkpt>
      <trkpt lat="39.5335716940462589263916015625" lon="-7.6364306174218654632568359375">
        <ele>260.600006103515625</ele>
        <time>2019-04-26T13:29:03.000Z</time>
      </trkpt>
      <trkpt lat="39.53410536982119083404541015625" lon="-7.636227272450923919677734375">
        <ele>261.79998779296875</ele>
        <time>2019-04-26T13:29:18.000Z</time>
      </trkpt>
      <trkpt lat="39.53463745303452014923095703125" lon="-7.63602367602288722991943359375">
        <ele>262.399993896484375</ele>
        <time>2019-04-26T13:29:33.000Z</time>
      </trkpt>
      <trkpt lat="39.5351444743573665618896484375" lon="-7.63575478456914424896240234375">
        <ele>264.79998779296875</ele>
        <time>2019-04-26T13:29:47.000Z</time>
      </trkpt>
      <trkpt lat="39.53557354398071765899658203125" lon="-7.63527198694646358489990234375">
        <ele>265.79998779296875</ele>
        <time>2019-04-26T13:30:03.000Z</time>
      </trkpt>
      <trkpt lat="39.536012001335620880126953125" lon="-7.63479136861860752105712890625">
        <ele>266.399993896484375</ele>
        <time>2019-04-26T13:30:19.000Z</time>
      </trkpt>
      <trkpt lat="39.53651198185980319976806640625" lon="-7.63448542915284633636474609375">
        <ele>267.600006103515625</ele>
        <time>2019-04-26T13:30:35.000Z</time>
      </trkpt>
      <trkpt lat="39.53707692213356494903564453125" lon="-7.63435450382530689239501953125">
        <ele>269.600006103515625</ele>
        <time>2019-04-26T13:30:49.000Z</time>
      </trkpt>
      <trkpt lat="39.5376117713749408721923828125" lon="-7.634237743914127349853515625">
        <ele>270.600006103515625</ele>
        <time>2019-04-26T13:30:59.000Z</time>
      </trkpt>
      <trkpt lat="39.538175873458385467529296875" lon="-7.6340920664370059967041015625">
        <ele>272.20001220703125</ele>
        <time>2019-04-26T13:31:09.000Z</time>
      </trkpt>
      <trkpt lat="39.5384160988032817840576171875" lon="-7.6339438743889331817626953125">
        <ele>273.79998779296875</ele>
        <time>2019-04-26T13:31:14.000Z</time>
      </trkpt>
      <trkpt lat="39.5385275781154632568359375" lon="-7.63382258825004100799560546875">
        <ele>274.79998779296875</ele>
        <time>2019-04-26T13:31:17.000Z</time>
      </trkpt>
      <trkpt lat="39.5389290712773799896240234375" lon="-7.6333226077258586883544921875">
        <ele>277.20001220703125</ele>
        <time>2019-04-26T13:31:31.000Z</time>
      </trkpt>
      <trkpt lat="39.5393241941928863525390625" lon="-7.63283436186611652374267578125">
        <ele>276.20001220703125</ele>
        <time>2019-04-26T13:31:53.000Z</time>
      </trkpt>
      <trkpt lat="39.53976499848067760467529296875" lon="-7.6324041187763214111328125">
        <ele>276.20001220703125</ele>
        <time>2019-04-26T13:32:17.000Z</time>
      </trkpt>
      <trkpt lat="39.5402329601347446441650390625" lon="-7.6320029608905315399169921875">
        <ele>276.20001220703125</ele>
        <time>2019-04-26T13:32:31.000Z</time>
      </trkpt>
      <trkpt lat="39.54058173112571239471435546875" lon="-7.631705738604068756103515625">
        <ele>275.20001220703125</ele>
        <time>2019-04-26T13:32:40.000Z</time>
      </trkpt>
      <trkpt lat="39.54101038165390491485595703125" lon="-7.6312670297920703887939453125">
        <ele>275.20001220703125</ele>
        <time>2019-04-26T13:32:51.000Z</time>
      </trkpt>
      <trkpt lat="39.54123183153569698333740234375" lon="-7.63108153827488422393798828125">
        <ele>275</ele>
        <time>2019-04-26T13:32:56.000Z</time>
      </trkpt>
      <trkpt lat="39.5413980446755886077880859375" lon="-7.63096787966787815093994140625">
        <ele>274.79998779296875</ele>
        <time>2019-04-26T13:33:00.000Z</time>
      </trkpt>
      <trkpt lat="39.5414604060351848602294921875" lon="-7.630920521914958953857421875">
        <ele>274.79998779296875</ele>
        <time>2019-04-26T13:33:03.000Z</time>
      </trkpt>
      <trkpt lat="39.54146099276840686798095703125" lon="-7.6309227012097835540771484375">
        <ele>274.79998779296875</ele>
        <time>2019-04-26T13:33:05.000Z</time>
      </trkpt>
      <trkpt lat="39.5414537005126476287841796875" lon="-7.63089763931930065155029296875">
        <ele>274.79998779296875</ele>
        <time>2019-04-26T13:34:24.000Z</time>
      </trkpt>
      <trkpt lat="39.54136476851999759674072265625" lon="-7.630989588797092437744140625">
        <ele>274.79998779296875</ele>
        <time>2019-04-26T13:34:31.000Z</time>
      </trkpt>
      <trkpt lat="39.5414453186094760894775390625" lon="-7.63112747110426425933837890625">
        <ele>274</ele>
        <time>2019-04-26T13:34:38.000Z</time>
      </trkpt>
      <trkpt lat="39.5414547063410282135009765625" lon="-7.6311174966394901275634765625">
        <ele>274</ele>
        <time>2019-04-26T13:34:41.000Z</time>
      </trkpt>
      <trkpt lat="39.5414480008184909820556640625" lon="-7.6310455799102783203125">
        <ele>274.399993896484375</ele>
        <time>2019-04-26T13:34:52.000Z</time>
      </trkpt>
      <trkpt lat="39.5414392836391925811767578125" lon="-7.6310226134955883026123046875">
        <ele>274.399993896484375</ele>
        <time>2019-04-26T13:34:56.000Z</time>
      </trkpt>
      <trkpt lat="39.54147406853735446929931640625" lon="-7.63089931569993495941162109375">
        <ele>274.79998779296875</ele>
        <time>2019-04-26T13:35:54.000Z</time>
      </trkpt>
      <trkpt lat="39.541531987488269805908203125" lon="-7.6307627744972705841064453125">
        <ele>274.79998779296875</ele>
        <time>2019-04-26T13:36:00.000Z</time>
      </trkpt>
      <trkpt lat="39.5420048944652080535888671875" lon="-7.63036237098276615142822265625">
        <ele>273</ele>
        <time>2019-04-26T13:36:18.000Z</time>
      </trkpt>
      <trkpt lat="39.54230337403714656829833984375" lon="-7.63012826442718505859375">
        <ele>273</ele>
        <time>2019-04-26T13:36:31.000Z</time>
      </trkpt>
      <trkpt lat="39.542765133082866668701171875" lon="-7.62973641045391559600830078125">
        <ele>272.600006103515625</ele>
        <time>2019-04-26T13:36:51.000Z</time>
      </trkpt>
      <trkpt lat="39.543285481631755828857421875" lon="-7.6295370049774646759033203125">
        <ele>275.600006103515625</ele>
        <time>2019-04-26T13:37:11.000Z</time>
      </trkpt>
      <trkpt lat="39.5437469892203807830810546875" lon="-7.6297800801694393157958984375">
        <ele>278</ele>
        <time>2019-04-26T13:37:35.000Z</time>
      </trkpt>
      <trkpt lat="39.54401873052120208740234375" lon="-7.63008995912969112396240234375">
        <ele>279.600006103515625</ele>
        <time>2019-04-26T13:37:55.000Z</time>
      </trkpt>
      <trkpt lat="39.54410078935325145721435546875" lon="-7.63010772876441478729248046875">
        <ele>280</ele>
        <time>2019-04-26T13:38:01.000Z</time>
      </trkpt>
      <trkpt lat="39.54415342770516872406005859375" lon="-7.63009347952902317047119140625">
        <ele>280.20001220703125</ele>
        <time>2019-04-26T13:38:05.000Z</time>
      </trkpt>
      <trkpt lat="39.544267170131206512451171875" lon="-7.63005559332668781280517578125">
        <ele>280.79998779296875</ele>
        <time>2019-04-26T13:38:13.000Z</time>
      </trkpt>
      <trkpt lat="39.54431704245507717132568359375" lon="-7.63003195635974407196044921875">
        <ele>281</ele>
        <time>2019-04-26T13:38:17.000Z</time>
      </trkpt>
      <trkpt lat="39.544335901737213134765625" lon="-7.6300385780632495880126953125">
        <ele>281.20001220703125</ele>
        <time>2019-04-26T13:38:21.000Z</time>
      </trkpt>
      <trkpt lat="39.54440237022936344146728515625" lon="-7.6300142705440521240234375">
        <ele>281.399993896484375</ele>
        <time>2019-04-26T13:41:12.000Z</time>
      </trkpt>
      <trkpt lat="39.54447143711149692535400390625" lon="-7.63001619838178157806396484375">
        <ele>281.79998779296875</ele>
        <time>2019-04-26T13:41:18.000Z</time>
      </trkpt>
      <trkpt lat="39.54474971629679203033447265625" lon="-7.62996892444789409637451171875">
        <ele>285.399993896484375</ele>
        <time>2019-04-26T13:41:41.000Z</time>
      </trkpt>
      <trkpt lat="39.54479523003101348876953125" lon="-7.62999884784221649169921875">
        <ele>286.399993896484375</ele>
        <time>2019-04-26T13:41:45.000Z</time>
      </trkpt>
      <trkpt lat="39.5449097268283367156982421875" lon="-7.63011946342885494232177734375">
        <ele>288.600006103515625</ele>
        <time>2019-04-26T13:41:59.000Z</time>
      </trkpt>
      <trkpt lat="39.54492741264402866363525390625" lon="-7.63013656251132488250732421875">
        <ele>288.79998779296875</ele>
        <time>2019-04-26T13:42:03.000Z</time>
      </trkpt>
      <trkpt lat="39.544992037117481231689453125" lon="-7.6301713474094867706298828125">
        <ele>290</ele>
        <time>2019-04-26T13:42:08.000Z</time>
      </trkpt>
      <trkpt lat="39.5450059510767459869384765625" lon="-7.6301837526261806488037109375">
        <ele>290.20001220703125</ele>
        <time>2019-04-26T13:42:09.000Z</time>
      </trkpt>
      <trkpt lat="39.54551875591278076171875" lon="-7.63042003847658634185791015625">
        <ele>295.600006103515625</ele>
        <time>2019-04-26T13:42:37.000Z</time>
      </trkpt>
      <trkpt lat="39.54603114165365695953369140625" lon="-7.6306460984051227569580078125">
        <ele>297.600006103515625</ele>
        <time>2019-04-26T13:43:06.000Z</time>
      </trkpt>
      <trkpt lat="39.54654914326965808868408203125" lon="-7.63087014667689800262451171875">
        <ele>300.600006103515625</ele>
        <time>2019-04-26T13:43:31.000Z</time>
      </trkpt>
      <trkpt lat="39.5465485565364360809326171875" lon="-7.630869559943675994873046875">
        <ele>300.600006103515625</ele>
        <time>2019-04-26T13:43:32.000Z</time>
      </trkpt>
      <trkpt lat="39.54660446383059024810791015625" lon="-7.6309181749820709228515625">
        <ele>301.20001220703125</ele>
        <time>2019-04-26T13:43:39.000Z</time>
      </trkpt>
      <trkpt lat="39.54694359563291072845458984375" lon="-7.63117709197103977203369140625">
        <ele>305.600006103515625</ele>
        <time>2019-04-26T13:44:13.000Z</time>
      </trkpt>
      <trkpt lat="39.5469820685684680938720703125" lon="-7.63119586743414402008056640625">
        <ele>306.20001220703125</ele>
        <time>2019-04-26T13:44:18.000Z</time>
      </trkpt>
      <trkpt lat="39.5475205220282077789306640625" lon="-7.63136082328855991363525390625">
        <ele>307.79998779296875</ele>
        <time>2019-04-26T13:44:37.000Z</time>
      </trkpt>
      <trkpt lat="39.54773300327360630035400390625" lon="-7.631473727524280548095703125">
        <ele>307.20001220703125</ele>
        <time>2019-04-26T13:44:42.000Z</time>
      </trkpt>
      <trkpt lat="39.548218064010143280029296875" lon="-7.6318970136344432830810546875">
        <ele>301.399993896484375</ele>
        <time>2019-04-26T13:44:53.000Z</time>
      </trkpt>
      <trkpt lat="39.5486913062632083892822265625" lon="-7.63233102858066558837890625">
        <ele>297.600006103515625</ele>
        <time>2019-04-26T13:45:02.000Z</time>
      </trkpt>
      <trkpt lat="39.54901275224983692169189453125" lon="-7.6328981481492519378662109375">
        <ele>293.600006103515625</ele>
        <time>2019-04-26T13:45:17.000Z</time>
      </trkpt>
      <trkpt lat="39.54928700812160968780517578125" lon="-7.633524946868419647216796875">
        <ele>295.399993896484375</ele>
        <time>2019-04-26T13:45:35.000Z</time>
      </trkpt>
      <trkpt lat="39.54976980574429035186767578125" lon="-7.63385930098593235015869140625">
        <ele>297</ele>
        <time>2019-04-26T13:45:51.000Z</time>
      </trkpt>
      <trkpt lat="39.5499740727245807647705078125" lon="-7.63396491296589374542236328125">
        <ele>297</ele>
        <time>2019-04-26T13:45:56.000Z</time>
      </trkpt>
      <trkpt lat="39.55013358034193515777587890625" lon="-7.63403289020061492919921875">
        <ele>297.20001220703125</ele>
        <time>2019-04-26T13:46:00.000Z</time>
      </trkpt>
      <trkpt lat="39.55065610818564891815185546875" lon="-7.63433220796287059783935546875">
        <ele>294.20001220703125</ele>
        <time>2019-04-26T13:46:11.000Z</time>
      </trkpt>
      <trkpt lat="39.5511488802731037139892578125" lon="-7.63463496230542659759521484375">
        <ele>295</ele>
        <time>2019-04-26T13:46:20.000Z</time>
      </trkpt>
      <trkpt lat="39.55169387161731719970703125" lon="-7.634760774672031402587890625">
        <ele>292.399993896484375</ele>
        <time>2019-04-26T13:46:35.000Z</time>
      </trkpt>
      <trkpt lat="39.55192110501229763031005859375" lon="-7.6349030993878841400146484375">
        <ele>294.399993896484375</ele>
        <time>2019-04-26T13:46:40.000Z</time>
      </trkpt>
      <trkpt lat="39.552284963428974151611328125" lon="-7.63503377325832843780517578125">
        <ele>292</ele>
        <time>2019-04-26T13:46:47.000Z</time>
      </trkpt>
      <trkpt lat="39.55271202139556407928466796875" lon="-7.6351076178252696990966796875">
        <ele>285.600006103515625</ele>
        <time>2019-04-26T13:46:59.000Z</time>
      </trkpt>
      <trkpt lat="39.553133882582187652587890625" lon="-7.63559385202825069427490234375">
        <ele>285.79998779296875</ele>
        <time>2019-04-26T13:47:10.000Z</time>
      </trkpt>
      <trkpt lat="39.5531907118856906890869140625" lon="-7.63568110764026641845703125">
        <ele>285.20001220703125</ele>
        <time>2019-04-26T13:47:12.000Z</time>
      </trkpt>
      <trkpt lat="39.5535387285053730010986328125" lon="-7.6356132142245769500732421875">
        <ele>278.20001220703125</ele>
        <time>2019-04-26T13:47:20.000Z</time>
      </trkpt>
      <trkpt lat="39.55359262414276599884033203125" lon="-7.63557189144194126129150390625">
        <ele>276.79998779296875</ele>
        <time>2019-04-26T13:47:21.000Z</time>
      </trkpt>
      <trkpt lat="39.55389596521854400634765625" lon="-7.63530266471207141876220703125">
        <ele>274</ele>
        <time>2019-04-26T13:47:27.000Z</time>
      </trkpt>
      <trkpt lat="39.55426401458680629730224609375" lon="-7.635010220110416412353515625">
        <ele>272.600006103515625</ele>
        <time>2019-04-26T13:47:36.000Z</time>
      </trkpt>
      <trkpt lat="39.5545921660959720611572265625" lon="-7.63475951738655567169189453125">
        <ele>270.600006103515625</ele>
        <time>2019-04-26T13:47:48.000Z</time>
      </trkpt>
      <trkpt lat="39.5547326467931270599365234375" lon="-7.63471676968038082122802734375">
        <ele>269.20001220703125</ele>
        <time>2019-04-26T13:47:51.000Z</time>
      </trkpt>
      <trkpt lat="39.5548380911350250244140625" lon="-7.6346751116216182708740234375">
        <ele>268.20001220703125</ele>
        <time>2019-04-26T13:47:53.000Z</time>
      </trkpt>
      <trkpt lat="39.55540093593299388885498046875" lon="-7.634556256234645843505859375">
        <ele>258.600006103515625</ele>
        <time>2019-04-26T13:48:02.000Z</time>
      </trkpt>
      <trkpt lat="39.5556995831429958343505859375" lon="-7.6344747841358184814453125">
        <ele>254</ele>
        <time>2019-04-26T13:48:07.000Z</time>
      </trkpt>
      <trkpt lat="39.55596168525516986846923828125" lon="-7.634384930133819580078125">
        <ele>249.8000030517578125</ele>
        <time>2019-04-26T13:48:11.000Z</time>
      </trkpt>
      <trkpt lat="39.55633635632693767547607421875" lon="-7.63409717939794063568115234375">
        <ele>246.399993896484375</ele>
        <time>2019-04-26T13:48:17.000Z</time>
      </trkpt>
      <trkpt lat="39.55644465051591396331787109375" lon="-7.63403783552348613739013671875">
        <ele>246</ele>
        <time>2019-04-26T13:48:19.000Z</time>
      </trkpt>
      <trkpt lat="39.55652796663343906402587890625" lon="-7.633998356759548187255859375">
        <ele>245.8000030517578125</ele>
        <time>2019-04-26T13:48:21.000Z</time>
      </trkpt>
      <trkpt lat="39.55668814480304718017578125" lon="-7.63389802537858486175537109375">
        <ele>245</ele>
        <time>2019-04-26T13:48:25.000Z</time>
      </trkpt>
      <trkpt lat="39.5567738078534603118896484375" lon="-7.63384488411247730255126953125">
        <ele>244.399993896484375</ele>
        <time>2019-04-26T13:48:27.000Z</time>
      </trkpt>
      <trkpt lat="39.55686525441706180572509765625" lon="-7.6337452232837677001953125">
        <ele>243</ele>
        <time>2019-04-26T13:48:32.000Z</time>
      </trkpt>
      <trkpt lat="39.55686424858868122100830078125" lon="-7.63374589383602142333984375">
        <ele>243</ele>
        <time>2019-04-26T13:48:33.000Z</time>
      </trkpt>
      <trkpt lat="39.5568797551095485687255859375" lon="-7.63373340480029582977294921875">
        <ele>242.8000030517578125</ele>
        <time>2019-04-26T13:49:30.000Z</time>
      </trkpt>
      <trkpt lat="39.55720606260001659393310546875" lon="-7.63314197771251201629638671875">
        <ele>234.8000030517578125</ele>
        <time>2019-04-26T13:49:46.000Z</time>
      </trkpt>
      <trkpt lat="39.55727831460535526275634765625" lon="-7.6329531334340572357177734375">
        <ele>231.1999969482421875</ele>
        <time>2019-04-26T13:49:50.000Z</time>
      </trkpt>
      <trkpt lat="39.55736012198030948638916015625" lon="-7.63266001828014850616455078125">
        <ele>224.600006103515625</ele>
        <time>2019-04-26T13:49:55.000Z</time>
      </trkpt>
      <trkpt lat="39.55757620744407176971435546875" lon="-7.6320103369653224945068359375">
        <ele>216.399993896484375</ele>
        <time>2019-04-26T13:50:10.000Z</time>
      </trkpt>
      <trkpt lat="39.55760956741869449615478515625" lon="-7.63188175857067108154296875">
        <ele>214.1999969482421875</ele>
        <time>2019-04-26T13:50:13.000Z</time>
      </trkpt>
      <trkpt lat="39.55782674252986907958984375" lon="-7.63173046521842479705810546875">
        <ele>218.399993896484375</ele>
        <time>2019-04-26T13:50:23.000Z</time>
      </trkpt>
      <trkpt lat="39.5579512976109981536865234375" lon="-7.6318638212978839874267578125">
        <ele>221.1999969482421875</ele>
        <time>2019-04-26T13:50:28.000Z</time>
      </trkpt>
      <trkpt lat="39.558165036141872406005859375" lon="-7.63223472051322460174560546875">
        <ele>227.600006103515625</ele>
        <time>2019-04-26T13:50:35.000Z</time>
      </trkpt>
      <trkpt lat="39.55853207968175411224365234375" lon="-7.6327523030340671539306640625">
        <ele>230.8000030517578125</ele>
        <time>2019-04-26T13:50:52.000Z</time>
      </trkpt>
      <trkpt lat="39.55907665193080902099609375" lon="-7.63281206600368022918701171875">
        <ele>216.1999969482421875</ele>
        <time>2019-04-26T13:51:08.000Z</time>
      </trkpt>
      <trkpt lat="39.5594010315835475921630859375" lon="-7.63229523785412311553955078125">
        <ele>201.600006103515625</ele>
        <time>2019-04-26T13:51:27.000Z</time>
      </trkpt>
      <trkpt lat="39.55991961993277072906494140625" lon="-7.6319929026067256927490234375">
        <ele>187.399993896484375</ele>
        <time>2019-04-26T13:51:50.000Z</time>
      </trkpt>
      <trkpt lat="39.5603237114846706390380859375" lon="-7.63189072720706462860107421875">
        <ele>178.399993896484375</ele>
        <time>2019-04-26T13:52:07.000Z</time>
      </trkpt>
      <trkpt lat="39.56037727184593677520751953125" lon="-7.6319468021392822265625">
        <ele>178</ele>
        <time>2019-04-26T13:52:11.000Z</time>
      </trkpt>
      <trkpt lat="39.56039085052907466888427734375" lon="-7.6319593749940395355224609375">
        <ele>178</ele>
        <time>2019-04-26T13:52:12.000Z</time>
      </trkpt>
      <trkpt lat="39.56046896986663341522216796875" lon="-7.632000446319580078125">
        <ele>177.399993896484375</ele>
        <time>2019-04-26T13:52:17.000Z</time>
      </trkpt>
      <trkpt lat="39.56058614887297153472900390625" lon="-7.63190413825213909149169921875">
        <ele>175.1999969482421875</ele>
        <time>2019-04-26T13:52:26.000Z</time>
      </trkpt>
      <trkpt lat="39.5606033317744731903076171875" lon="-7.631845884025096893310546875">
        <ele>174.399993896484375</ele>
        <time>2019-04-26T13:52:30.000Z</time>
      </trkpt>
      <trkpt lat="39.5611028932034969329833984375" lon="-7.6315989531576633453369140625">
        <ele>166</ele>
        <time>2019-04-26T13:52:49.000Z</time>
      </trkpt>
      <trkpt lat="39.56142500974237918853759765625" lon="-7.63161295093595981597900390625">
        <ele>163.600006103515625</ele>
        <time>2019-04-26T13:53:01.000Z</time>
      </trkpt>
      <trkpt lat="39.56142785958945751190185546875" lon="-7.63162250630557537078857421875">
        <ele>163.600006103515625</ele>
        <time>2019-04-26T13:53:04.000Z</time>
      </trkpt>
      <trkpt lat="39.56145132891833782196044921875" lon="-7.6316479034721851348876953125">
        <ele>163.600006103515625</ele>
        <time>2019-04-26T13:53:08.000Z</time>
      </trkpt>
      <trkpt lat="39.561544954776763916015625" lon="-7.631691992282867431640625">
        <ele>163.399993896484375</ele>
        <time>2019-04-26T13:53:13.000Z</time>
      </trkpt>
      <trkpt lat="39.56205524504184722900390625" lon="-7.63178427703678607940673828125">
        <ele>159.399993896484375</ele>
        <time>2019-04-26T13:53:31.000Z</time>
      </trkpt>
      <trkpt lat="39.5621298439800739288330078125" lon="-7.63140608556568622589111328125">
        <ele>157.399993896484375</ele>
        <time>2019-04-26T13:53:41.000Z</time>
      </trkpt>
      <trkpt lat="39.5621036924421787261962890625" lon="-7.63135830871760845184326171875">
        <ele>157</ele>
        <time>2019-04-26T13:53:45.000Z</time>
      </trkpt>
      <trkpt lat="39.56209405325353145599365234375" lon="-7.6313166506588459014892578125">
        <ele>156.600006103515625</ele>
        <time>2019-04-26T13:53:56.000Z</time>
      </trkpt>
      <trkpt lat="39.56206052564084529876708984375" lon="-7.631167955696582794189453125">
        <ele>155.600006103515625</ele>
        <time>2019-04-26T13:54:08.000Z</time>
      </trkpt>
      <trkpt lat="39.562058262526988983154296875" lon="-7.63116024434566497802734375">
        <ele>155.399993896484375</ele>
        <time>2019-04-26T13:54:10.000Z</time>
      </trkpt>
      <trkpt lat="39.5619605295360088348388671875" lon="-7.6312194205820560455322265625">
        <ele>156.399993896484375</ele>
        <time>2019-04-26T13:54:36.000Z</time>
      </trkpt>
      <trkpt lat="39.561971761286258697509765625" lon="-7.631238363683223724365234375">
        <ele>156.600006103515625</ele>
        <time>2019-04-26T13:54:38.000Z</time>
      </trkpt>
      <trkpt lat="39.56206371076405048370361328125" lon="-7.63135512359440326690673828125">
        <ele>157</ele>
        <time>2019-04-26T13:54:51.000Z</time>
      </trkpt>
      <trkpt lat="39.56205717287957668304443359375" lon="-7.63137507252395153045654296875">
        <ele>157.1999969482421875</ele>
        <time>2019-04-26T13:54:53.000Z</time>
      </trkpt>
      <trkpt lat="39.56185332499444484710693359375" lon="-7.63119000010192394256591796875">
        <ele>157</ele>
        <time>2019-04-26T13:55:17.000Z</time>
      </trkpt>
      <trkpt lat="39.56188450567424297332763671875" lon="-7.6311590708792209625244140625">
        <ele>156.399993896484375</ele>
        <time>2019-04-26T13:55:23.000Z</time>
      </trkpt>
      <trkpt lat="39.561957679688930511474609375" lon="-7.63110416941344738006591796875">
        <ele>155.399993896484375</ele>
        <time>2019-04-26T13:55:45.000Z</time>
      </trkpt>
      <trkpt lat="39.5620882697403430938720703125" lon="-7.63100601732730865478515625">
        <ele>154</ele>
        <time>2019-04-26T13:55:59.000Z</time>
      </trkpt>
      <trkpt lat="39.5622733421623706817626953125" lon="-7.63085539452731609344482421875">
        <ele>152.399993896484375</ele>
        <time>2019-04-26T13:57:42.000Z</time>
      </trkpt>
      <trkpt lat="39.562712721526622772216796875" lon="-7.6304586790502071380615234375">
        <ele>154.1999969482421875</ele>
        <time>2019-04-26T13:58:04.000Z</time>
      </trkpt>
      <trkpt lat="39.56278505735099315643310546875" lon="-7.6304181106388568878173828125">
        <ele>154.1999969482421875</ele>
        <time>2019-04-26T13:58:08.000Z</time>
      </trkpt>
      <trkpt lat="39.56317783333361148834228515625" lon="-7.63027503155171871185302734375">
        <ele>160</ele>
        <time>2019-04-26T13:58:29.000Z</time>
      </trkpt>
      <trkpt lat="39.56360966898500919342041015625" lon="-7.63015047647058963775634765625">
        <ele>167.399993896484375</ele>
        <time>2019-04-26T13:59:24.000Z</time>
      </trkpt>
      <trkpt lat="39.56406732089817523956298828125" lon="-7.629770524799823760986328125">
        <ele>174.399993896484375</ele>
        <time>2019-04-26T13:59:56.000Z</time>
      </trkpt>
      <trkpt lat="39.56462807022035121917724609375" lon="-7.62969047762453556060791015625">
        <ele>179.8000030517578125</ele>
        <time>2019-04-26T14:00:21.000Z</time>
      </trkpt>
      <trkpt lat="39.56511086784303188323974609375" lon="-7.62937649153172969818115234375">
        <ele>182.600006103515625</ele>
        <time>2019-04-26T14:00:41.000Z</time>
      </trkpt>
      <trkpt lat="39.5654360018670558929443359375" lon="-7.62880199588835239410400390625">
        <ele>183.1999969482421875</ele>
        <time>2019-04-26T14:00:57.000Z</time>
      </trkpt>
      <trkpt lat="39.565553851425647735595703125" lon="-7.628532014787197113037109375">
        <ele>182.1999969482421875</ele>
        <time>2019-04-26T14:01:03.000Z</time>
      </trkpt>
      <trkpt lat="39.5656261034309864044189453125" lon="-7.62834954075515270233154296875">
        <ele>181.600006103515625</ele>
        <time>2019-04-26T14:01:06.000Z</time>
      </trkpt>
      <trkpt lat="39.56581033766269683837890625" lon="-7.6279595308005809783935546875">
        <ele>178.600006103515625</ele>
        <time>2019-04-26T14:01:12.000Z</time>
      </trkpt>
      <trkpt lat="39.56590153276920318603515625" lon="-7.62770229019224643707275390625">
        <ele>176.1999969482421875</ele>
        <time>2019-04-26T14:01:20.000Z</time>
      </trkpt>
      <trkpt lat="39.5659395866096019744873046875" lon="-7.62739031575620174407958984375">
        <ele>173.8000030517578125</ele>
        <time>2019-04-26T14:01:27.000Z</time>
      </trkpt>
      <trkpt lat="39.56588409841060638427734375" lon="-7.62715377844870090484619140625">
        <ele>173.600006103515625</ele>
        <time>2019-04-26T14:01:32.000Z</time>
      </trkpt>
      <trkpt lat="39.5660713501274585723876953125" lon="-7.62663778848946094512939453125">
        <ele>173</ele>
        <time>2019-04-26T14:01:51.000Z</time>
      </trkpt>
      <trkpt lat="39.56656529568135738372802734375" lon="-7.62630737386643886566162109375">
        <ele>173.600006103515625</ele>
        <time>2019-04-26T14:02:14.000Z</time>
      </trkpt>
      <trkpt lat="39.56703602336347103118896484375" lon="-7.6259686611592769622802734375">
        <ele>175</ele>
        <time>2019-04-26T14:02:35.000Z</time>
      </trkpt>
      <trkpt lat="39.56739292480051517486572265625" lon="-7.62570706196129322052001953125">
        <ele>176</ele>
        <time>2019-04-26T14:02:51.000Z</time>
      </trkpt>
      <trkpt lat="39.56749686039984226226806640625" lon="-7.62557345442473888397216796875">
        <ele>175.8000030517578125</ele>
        <time>2019-04-26T14:02:58.000Z</time>
      </trkpt>
      <trkpt lat="39.5675455592572689056396484375" lon="-7.6254841871559619903564453125">
        <ele>175.399993896484375</ele>
        <time>2019-04-26T14:03:01.000Z</time>
      </trkpt>
      <trkpt lat="39.56802316009998321533203125" lon="-7.62515620328485965728759765625">
        <ele>176.1999969482421875</ele>
        <time>2019-04-26T14:03:20.000Z</time>
      </trkpt>
      <trkpt lat="39.56849497742950916290283203125" lon="-7.6248215138912200927734375">
        <ele>178.1999969482421875</ele>
        <time>2019-04-26T14:03:43.000Z</time>
      </trkpt>
      <trkpt lat="39.56897760741412639617919921875" lon="-7.62447416782379150390625">
        <ele>181</ele>
        <time>2019-04-26T14:04:05.000Z</time>
      </trkpt>
      <trkpt lat="39.56948068924248218536376953125" lon="-7.6241588406264781951904296875">
        <ele>183.600006103515625</ele>
        <time>2019-04-26T14:04:26.000Z</time>
      </trkpt>
      <trkpt lat="39.569724686443805694580078125" lon="-7.62403629720211029052734375">
        <ele>184.1999969482421875</ele>
        <time>2019-04-26T14:04:38.000Z</time>
      </trkpt>
      <trkpt lat="39.56984781660139560699462890625" lon="-7.62397603131830692291259765625">
        <ele>184.600006103515625</ele>
        <time>2019-04-26T14:04:45.000Z</time>
      </trkpt>
      <trkpt lat="39.57035064697265625" lon="-7.62369439937174320220947265625">
        <ele>185.8000030517578125</ele>
        <time>2019-04-26T14:05:04.000Z</time>
      </trkpt>
      <trkpt lat="39.570856578648090362548828125" lon="-7.62342483736574649810791015625">
        <ele>186.399993896484375</ele>
        <time>2019-04-26T14:05:21.000Z</time>
      </trkpt>
      <trkpt lat="39.57137701101601123809814453125" lon="-7.62314437888562679290771484375">
        <ele>187.600006103515625</ele>
        <time>2019-04-26T14:05:38.000Z</time>
      </trkpt>
      <trkpt lat="39.57190004177391529083251953125" lon="-7.6228723861277103424072265625">
        <ele>190</ele>
        <time>2019-04-26T14:05:55.000Z</time>
      </trkpt>
      <trkpt lat="39.5720015466213226318359375" lon="-7.62280843220651149749755859375">
        <ele>190.399993896484375</ele>
        <time>2019-04-26T14:06:01.000Z</time>
      </trkpt>
      <trkpt lat="39.57201805897057056427001953125" lon="-7.62280256487429141998291015625">
        <ele>190.399993896484375</ele>
        <time>2019-04-26T14:06:39.000Z</time>
      </trkpt>
      <trkpt lat="39.5725267566740512847900390625" lon="-7.62255395762622356414794921875">
        <ele>189.8000030517578125</ele>
        <time>2019-04-26T14:06:59.000Z</time>
      </trkpt>
      <trkpt lat="39.5730865001678466796875" lon="-7.622411213815212249755859375">
        <ele>192.1999969482421875</ele>
        <time>2019-04-26T14:07:15.000Z</time>
      </trkpt>
      <trkpt lat="39.57335539162158966064453125" lon="-7.622381038963794708251953125">
        <ele>193.399993896484375</ele>
        <time>2019-04-26T14:07:22.000Z</time>
      </trkpt>
      <trkpt lat="39.57348070107400417327880859375" lon="-7.62235480360686779022216796875">
        <ele>193.8000030517578125</ele>
        <time>2019-04-26T14:07:25.000Z</time>
      </trkpt>
      <trkpt lat="39.5740348286926746368408203125" lon="-7.622258663177490234375">
        <ele>194.399993896484375</ele>
        <time>2019-04-26T14:07:41.000Z</time>
      </trkpt>
      <trkpt lat="39.57457269541919231414794921875" lon="-7.62208230793476104736328125">
        <ele>194.8000030517578125</ele>
        <time>2019-04-26T14:07:58.000Z</time>
      </trkpt>
      <trkpt lat="39.57512422464787960052490234375" lon="-7.62199471704661846160888671875">
        <ele>194.399993896484375</ele>
        <time>2019-04-26T14:08:16.000Z</time>
      </trkpt>
      <trkpt lat="39.57568832673132419586181640625" lon="-7.6220006681978702545166015625">
        <ele>198.399993896484375</ele>
        <time>2019-04-26T14:08:36.000Z</time>
      </trkpt>
      <trkpt lat="39.5759100280702114105224609375" lon="-7.62206487357616424560546875">
        <ele>200</ele>
        <time>2019-04-26T14:08:46.000Z</time>
      </trkpt>
      <trkpt lat="39.57641847431659698486328125" lon="-7.62228204868733882904052734375">
        <ele>202.1999969482421875</ele>
        <time>2019-04-26T14:09:05.000Z</time>
      </trkpt>
      <trkpt lat="39.57696019671857357025146484375" lon="-7.62230618856847286224365234375">
        <ele>201.600006103515625</ele>
        <time>2019-04-26T14:09:27.000Z</time>
      </trkpt>
      <trkpt lat="39.577385075390338897705078125" lon="-7.62272846885025501251220703125">
        <ele>206</ele>
        <time>2019-04-26T14:09:50.000Z</time>
      </trkpt>
      <trkpt lat="39.57789930514991283416748046875" lon="-7.6229627430438995361328125">
        <ele>208.399993896484375</ele>
        <time>2019-04-26T14:10:16.000Z</time>
      </trkpt>
      <trkpt lat="39.57833667285740375518798828125" lon="-7.6229826919734477996826171875">
        <ele>209.399993896484375</ele>
        <time>2019-04-26T14:10:41.000Z</time>
      </trkpt>
      <trkpt lat="39.57841160707175731658935546875" lon="-7.6229833625257015228271484375">
        <ele>209.399993896484375</ele>
        <time>2019-04-26T14:10:50.000Z</time>
      </trkpt>
      <trkpt lat="39.57893614657223224639892578125" lon="-7.6231992803514003753662109375">
        <ele>212.1999969482421875</ele>
        <time>2019-04-26T14:11:20.000Z</time>
      </trkpt>
      <trkpt lat="39.57946202717721462249755859375" lon="-7.62332618236541748046875">
        <ele>213.8000030517578125</ele>
        <time>2019-04-26T14:11:47.000Z</time>
      </trkpt>
      <trkpt lat="39.579564370214939117431640625" lon="-7.6233112625777721405029296875">
        <ele>214.600006103515625</ele>
        <time>2019-04-26T14:11:53.000Z</time>
      </trkpt>
      <trkpt lat="39.5796785317361354827880859375" lon="-7.62342936359345912933349609375">
        <ele>214.8000030517578125</ele>
        <time>2019-04-26T14:12:02.000Z</time>
      </trkpt>
      <trkpt lat="39.57988581620156764984130859375" lon="-7.62367160059511661529541015625">
        <ele>217.1999969482421875</ele>
        <time>2019-04-26T14:12:18.000Z</time>
      </trkpt>
      <trkpt lat="39.57992034964263439178466796875" lon="-7.62370429001748561859130859375">
        <ele>217.399993896484375</ele>
        <time>2019-04-26T14:13:12.000Z</time>
      </trkpt>
      <trkpt lat="39.57994599826633930206298828125" lon="-7.6237192936241626739501953125">
        <ele>217.600006103515625</ele>
        <time>2019-04-26T14:13:14.000Z</time>
      </trkpt>
      <trkpt lat="39.58032418973743915557861328125" lon="-7.62421600520610809326171875">
        <ele>212</ele>
        <time>2019-04-26T14:13:36.000Z</time>
      </trkpt>
      <trkpt lat="39.5806142874062061309814453125" lon="-7.62477968819439411163330078125">
        <ele>223.8000030517578125</ele>
        <time>2019-04-26T14:13:56.000Z</time>
      </trkpt>
      <trkpt lat="39.5810317061841487884521484375" lon="-7.62522610835731029510498046875">
        <ele>221.8000030517578125</ele>
        <time>2019-04-26T14:14:21.000Z</time>
      </trkpt>
      <trkpt lat="39.581446610391139984130859375" lon="-7.6256860233843326568603515625">
        <ele>225</ele>
        <time>2019-04-26T14:14:47.000Z</time>
      </trkpt>
      <trkpt lat="39.581784568727016448974609375" lon="-7.6262171007692813873291015625">
        <ele>227.399993896484375</ele>
        <time>2019-04-26T14:15:10.000Z</time>
      </trkpt>
      <trkpt lat="39.58212629891932010650634765625" lon="-7.62678028084337711334228515625">
        <ele>229.1999969482421875</ele>
        <time>2019-04-26T14:15:32.000Z</time>
      </trkpt>
      <trkpt lat="39.58247029222548007965087890625" lon="-7.62731370516121387481689453125">
        <ele>234.399993896484375</ele>
        <time>2019-04-26T14:15:57.000Z</time>
      </trkpt>
      <trkpt lat="39.5826552808284759521484375" lon="-7.62797889299690723419189453125">
        <ele>238</ele>
        <time>2019-04-26T14:16:19.000Z</time>
      </trkpt>
      <trkpt lat="39.5829689316451549530029296875" lon="-7.62853612191975116729736328125">
        <ele>241</ele>
        <time>2019-04-26T14:16:46.000Z</time>
      </trkpt>
      <trkpt lat="39.58317336626350879669189453125" lon="-7.62918521650135517120361328125">
        <ele>246.1999969482421875</ele>
        <time>2019-04-26T14:17:12.000Z</time>
      </trkpt>
      <trkpt lat="39.5832079835236072540283203125" lon="-7.62929736636579036712646484375">
        <ele>247</ele>
        <time>2019-04-26T14:17:21.000Z</time>
      </trkpt>
      <trkpt lat="39.58323874510824680328369140625" lon="-7.62937883846461772918701171875">
        <ele>247.399993896484375</ele>
        <time>2019-04-26T14:17:29.000Z</time>
      </trkpt>
      <trkpt lat="39.58326623775064945220947265625" lon="-7.62944824062287807464599609375">
        <ele>247.8000030517578125</ele>
        <time>2019-04-26T14:17:34.000Z</time>
      </trkpt>
      <trkpt lat="39.58341208286583423614501953125" lon="-7.63002709485590457916259765625">
        <ele>250.399993896484375</ele>
        <time>2019-04-26T14:18:16.000Z</time>
      </trkpt>
      <trkpt lat="39.58343136124312877655029296875" lon="-7.6301032863557338714599609375">
        <ele>250.8000030517578125</ele>
        <time>2019-04-26T14:18:24.000Z</time>
      </trkpt>
      <trkpt lat="39.5834956504404544830322265625" lon="-7.63048709370195865631103515625">
        <ele>251.600006103515625</ele>
        <time>2019-04-26T14:18:35.000Z</time>
      </trkpt>
      <trkpt lat="39.5835109055042266845703125" lon="-7.630599997937679290771484375">
        <ele>251.600006103515625</ele>
        <time>2019-04-26T14:18:37.000Z</time>
      </trkpt>
      <trkpt lat="39.58349925465881824493408203125" lon="-7.63131321407854557037353515625">
        <ele>253.600006103515625</ele>
        <time>2019-04-26T14:18:50.000Z</time>
      </trkpt>
      <trkpt lat="39.5835908688604831695556640625" lon="-7.631785534322261810302734375">
        <ele>253</ele>
        <time>2019-04-26T14:19:07.000Z</time>
      </trkpt>
      <trkpt lat="39.58357485942542552947998046875" lon="-7.6320566050708293914794921875">
        <ele>255.399993896484375</ele>
        <time>2019-04-26T14:19:19.000Z</time>
      </trkpt>
      <trkpt lat="39.58355759270489215850830078125" lon="-7.63217671774327754974365234375">
        <ele>256.79998779296875</ele>
        <time>2019-04-26T14:19:24.000Z</time>
      </trkpt>
      <trkpt lat="39.58365800790488719940185546875" lon="-7.6328652910888195037841796875">
        <ele>258.79998779296875</ele>
        <time>2019-04-26T14:19:52.000Z</time>
      </trkpt>
      <trkpt lat="39.583821706473827362060546875" lon="-7.63334481976926326751708984375">
        <ele>258.600006103515625</ele>
        <time>2019-04-26T14:20:13.000Z</time>
      </trkpt>
      <trkpt lat="39.58383989520370960235595703125" lon="-7.6333762519061565399169921875">
        <ele>258.79998779296875</ele>
        <time>2019-04-26T14:20:18.000Z</time>
      </trkpt>
      <trkpt lat="39.58394818939268589019775390625" lon="-7.6335137151181697845458984375">
        <ele>259</ele>
        <time>2019-04-26T14:20:31.000Z</time>
      </trkpt>
      <trkpt lat="39.58398632705211639404296875" lon="-7.63355419971048831939697265625">
        <ele>258.79998779296875</ele>
        <time>2019-04-26T14:20:36.000Z</time>
      </trkpt>
      <trkpt lat="39.5842332579195499420166015625" lon="-7.63379945419728755950927734375">
        <ele>259.20001220703125</ele>
        <time>2019-04-26T14:21:05.000Z</time>
      </trkpt>
      <trkpt lat="39.58439544774591922760009765625" lon="-7.63401151634752750396728515625">
        <ele>261.79998779296875</ele>
        <time>2019-04-26T14:21:28.000Z</time>
      </trkpt>
      <trkpt lat="39.5843992196023464202880859375" lon="-7.63404688797891139984130859375">
        <ele>262.399993896484375</ele>
        <time>2019-04-26T14:22:02.000Z</time>
      </trkpt>
      <trkpt lat="39.58443450741469860076904296875" lon="-7.6340652443468570709228515625">
        <ele>262.399993896484375</ele>
        <time>2019-04-26T14:22:04.000Z</time>
      </trkpt>
      <trkpt lat="39.58465562202036380767822265625" lon="-7.634331621229648590087890625">
        <ele>267.20001220703125</ele>
        <time>2019-04-26T14:22:22.000Z</time>
      </trkpt>
      <trkpt lat="39.5847130380570888519287109375" lon="-7.63435743749141693115234375">
        <ele>267.399993896484375</ele>
        <time>2019-04-26T14:22:26.000Z</time>
      </trkpt>
      <trkpt lat="39.58480197004973888397216796875" lon="-7.63438400812447071075439453125">
        <ele>267.399993896484375</ele>
        <time>2019-04-26T14:22:31.000Z</time>
      </trkpt>
      <trkpt lat="39.58498410880565643310546875" lon="-7.6344923861324787139892578125">
        <ele>269.20001220703125</ele>
        <time>2019-04-26T14:22:40.000Z</time>
      </trkpt>
      <trkpt lat="39.58500732667744159698486328125" lon="-7.63451644219458103179931640625">
        <ele>269.600006103515625</ele>
        <time>2019-04-26T14:22:43.000Z</time>
      </trkpt>
      <trkpt lat="39.58522617816925048828125" lon="-7.6347907818853855133056640625">
        <ele>271.399993896484375</ele>
        <time>2019-04-26T14:22:59.000Z</time>
      </trkpt>
      <trkpt lat="39.58572951145470142364501953125" lon="-7.6349440030753612518310546875">
        <ele>267.600006103515625</ele>
        <time>2019-04-26T14:23:20.000Z</time>
      </trkpt>
      <trkpt lat="39.5859114825725555419921875" lon="-7.63501080684363842010498046875">
        <ele>267</ele>
        <time>2019-04-26T14:23:25.000Z</time>
      </trkpt>
      <trkpt lat="39.58624868653714656829833984375" lon="-7.63494014739990234375">
        <ele>261.399993896484375</ele>
        <time>2019-04-26T14:23:31.000Z</time>
      </trkpt>
      <trkpt lat="39.58657038398087024688720703125" lon="-7.635127566754817962646484375">
        <ele>260.399993896484375</ele>
        <time>2019-04-26T14:23:42.000Z</time>
      </trkpt>
      <trkpt lat="39.5866251178085803985595703125" lon="-7.6352115534245967864990234375">
        <ele>261.20001220703125</ele>
        <time>2019-04-26T14:23:44.000Z</time>
      </trkpt>
      <trkpt lat="39.58706055767834186553955078125" lon="-7.6356517709791660308837890625">
        <ele>261.600006103515625</ele>
        <time>2019-04-26T14:23:58.000Z</time>
      </trkpt>
      <trkpt lat="39.58750966005027294158935546875" lon="-7.63604664243757724761962890625">
        <ele>259</ele>
        <time>2019-04-26T14:24:21.000Z</time>
      </trkpt>
      <trkpt lat="39.587861113250255584716796875" lon="-7.63660110533237457275390625">
        <ele>265.600006103515625</ele>
        <time>2019-04-26T14:24:41.000Z</time>
      </trkpt>
      <trkpt lat="39.588325805962085723876953125" lon="-7.63692975975573062896728515625">
        <ele>263.20001220703125</ele>
        <time>2019-04-26T14:24:59.000Z</time>
      </trkpt>
      <trkpt lat="39.58874188363552093505859375" lon="-7.63739763759076595306396484375">
        <ele>265.20001220703125</ele>
        <time>2019-04-26T14:25:22.000Z</time>
      </trkpt>
      <trkpt lat="39.58919827826321125030517578125" lon="-7.63769946992397308349609375">
        <ele>265.20001220703125</ele>
        <time>2019-04-26T14:25:45.000Z</time>
      </trkpt>
      <trkpt lat="39.589330963790416717529296875" lon="-7.63771514408290386199951171875">
        <ele>263.600006103515625</ele>
        <time>2019-04-26T14:25:48.000Z</time>
      </trkpt>
      <trkpt lat="39.58961703814566135406494140625" lon="-7.6377408765256404876708984375">
        <ele>259</ele>
        <time>2019-04-26T14:25:54.000Z</time>
      </trkpt>
      <trkpt lat="39.5897629670798778533935546875" lon="-7.6378109492361545562744140625">
        <ele>258.600006103515625</ele>
        <time>2019-04-26T14:25:58.000Z</time>
      </trkpt>
      <trkpt lat="39.5900603570044040679931640625" lon="-7.6383698545396327972412109375">
        <ele>263.79998779296875</ele>
        <time>2019-04-26T14:26:13.000Z</time>
      </trkpt>
      <trkpt lat="39.59035246632993221282958984375" lon="-7.63895549811422824859619140625">
        <ele>267.600006103515625</ele>
        <time>2019-04-26T14:26:28.000Z</time>
      </trkpt>
      <trkpt lat="39.59069478325545787811279296875" lon="-7.6395198516547679901123046875">
        <ele>268.399993896484375</ele>
        <time>2019-04-26T14:26:49.000Z</time>
      </trkpt>
      <trkpt lat="39.59099468775093555450439453125" lon="-7.6401478238403797149658203125">
        <ele>266.79998779296875</ele>
        <time>2019-04-26T14:27:09.000Z</time>
      </trkpt>
      <trkpt lat="39.591016061604022979736328125" lon="-7.64035779051482677459716796875">
        <ele>268.399993896484375</ele>
        <time>2019-04-26T14:27:13.000Z</time>
      </trkpt>
      <trkpt lat="39.5912981964647769927978515625" lon="-7.64055761508643627166748046875">
        <ele>264.600006103515625</ele>
        <time>2019-04-26T14:27:20.000Z</time>
      </trkpt>
      <trkpt lat="39.591789208352565765380859375" lon="-7.6408284343779087066650390625">
        <ele>255.1999969482421875</ele>
        <time>2019-04-26T14:27:28.000Z</time>
      </trkpt>
      <trkpt lat="39.59192030131816864013671875" lon="-7.64089657925069332122802734375">
        <ele>252.8000030517578125</ele>
        <time>2019-04-26T14:27:30.000Z</time>
      </trkpt>
      <trkpt lat="39.592041335999965667724609375" lon="-7.64095793478190898895263671875">
        <ele>251.1999969482421875</ele>
        <time>2019-04-26T14:27:34.000Z</time>
      </trkpt>
      <trkpt lat="39.592255242168903350830078125" lon="-7.64143922366201877593994140625">
        <ele>255.8000030517578125</ele>
        <time>2019-04-26T14:27:57.000Z</time>
      </trkpt>
      <trkpt lat="39.592517428100109100341796875" lon="-7.64151357114315032958984375">
        <ele>253.1999969482421875</ele>
        <time>2019-04-26T14:28:07.000Z</time>
      </trkpt>
      <trkpt lat="39.59291883744299411773681640625" lon="-7.64105550013482570648193359375">
        <ele>242.600006103515625</ele>
        <time>2019-04-26T14:28:29.000Z</time>
      </trkpt>
      <trkpt lat="39.59313274361193180084228515625" lon="-7.64127728529274463653564453125">
        <ele>243</ele>
        <time>2019-04-26T14:28:38.000Z</time>
      </trkpt>
      <trkpt lat="39.59326316602528095245361328125" lon="-7.64158842153847217559814453125">
        <ele>246.8000030517578125</ele>
        <time>2019-04-26T14:28:44.000Z</time>
      </trkpt>
      <trkpt lat="39.59344119764864444732666015625" lon="-7.64159194193780422210693359375">
        <ele>245.8000030517578125</ele>
        <time>2019-04-26T14:28:51.000Z</time>
      </trkpt>
      <trkpt lat="39.5939438603818416595458984375" lon="-7.6415667124092578887939453125">
        <ele>243</ele>
        <time>2019-04-26T14:29:09.000Z</time>
      </trkpt>
      <trkpt lat="39.5941564254462718963623046875" lon="-7.64200902543962001800537109375">
        <ele>246.399993896484375</ele>
        <time>2019-04-26T14:29:22.000Z</time>
      </trkpt>
      <trkpt lat="39.5942328684031963348388671875" lon="-7.64216937124729156494140625">
        <ele>247.8000030517578125</ele>
        <time>2019-04-26T14:29:25.000Z</time>
      </trkpt>
      <trkpt lat="39.59438466466963291168212890625" lon="-7.64236257411539554595947265625">
        <ele>248.399993896484375</ele>
        <time>2019-04-26T14:29:35.000Z</time>
      </trkpt>
      <trkpt lat="39.59443529136478900909423828125" lon="-7.64238688163459300994873046875">
        <ele>248.1999969482421875</ele>
        <time>2019-04-26T14:29:39.000Z</time>
      </trkpt>
      <trkpt lat="39.594861008226871490478515625" lon="-7.64281553216278553009033203125">
        <ele>248.1999969482421875</ele>
        <time>2019-04-26T14:29:58.000Z</time>
      </trkpt>
      <trkpt lat="39.59531270898878574371337890625" lon="-7.6431824080646038055419921875">
        <ele>246.600006103515625</ele>
        <time>2019-04-26T14:30:14.000Z</time>
      </trkpt>
      <trkpt lat="39.59537490271031856536865234375" lon="-7.6432511396706104278564453125">
        <ele>247.1999969482421875</ele>
        <time>2019-04-26T14:30:21.000Z</time>
      </trkpt>
      <trkpt lat="39.59556768648326396942138671875" lon="-7.6434757746756076812744140625">
        <ele>248.1999969482421875</ele>
        <time>2019-04-26T14:30:30.000Z</time>
      </trkpt>
      <trkpt lat="39.59572727791965007781982421875" lon="-7.64344819821417331695556640625">
        <ele>245</ele>
        <time>2019-04-26T14:30:34.000Z</time>
      </trkpt>
      <trkpt lat="39.5962753705680370330810546875" lon="-7.6435451768338680267333984375">
        <ele>239.8000030517578125</ele>
        <time>2019-04-26T14:30:50.000Z</time>
      </trkpt>
      <trkpt lat="39.59647427313029766082763671875" lon="-7.64370300807058811187744140625">
        <ele>242.399993896484375</ele>
        <time>2019-04-26T14:30:56.000Z</time>
      </trkpt>
      <trkpt lat="39.59654367528855800628662109375" lon="-7.64377475716173648834228515625">
        <ele>243.8000030517578125</ele>
        <time>2019-04-26T14:30:58.000Z</time>
      </trkpt>
      <trkpt lat="39.59669991396367549896240234375" lon="-7.64398388564586639404296875">
        <ele>244.399993896484375</ele>
        <time>2019-04-26T14:31:03.000Z</time>
      </trkpt>
      <trkpt lat="39.5968517102301120758056640625" lon="-7.64395463280379772186279296875">
        <ele>241.8000030517578125</ele>
        <time>2019-04-26T14:31:07.000Z</time>
      </trkpt>
      <trkpt lat="39.597168378531932830810546875" lon="-7.64407650567591190338134765625">
        <ele>242.1999969482421875</ele>
        <time>2019-04-26T14:31:24.000Z</time>
      </trkpt>
      <trkpt lat="39.59772988222539424896240234375" lon="-7.64410684816539287567138671875">
        <ele>244.1999969482421875</ele>
        <time>2019-04-26T14:31:45.000Z</time>
      </trkpt>
      <trkpt lat="39.597885198891162872314453125" lon="-7.6442192494869232177734375">
        <ele>245</ele>
        <time>2019-04-26T14:31:54.000Z</time>
      </trkpt>
      <trkpt lat="39.59792786277830600738525390625" lon="-7.6443263702094554901123046875">
        <ele>245.8000030517578125</ele>
        <time>2019-04-26T14:31:58.000Z</time>
      </trkpt>
      <trkpt lat="39.598205722868442535400390625" lon="-7.64486499130725860595703125">
        <ele>247.1999969482421875</ele>
        <time>2019-04-26T14:32:14.000Z</time>
      </trkpt>
      <trkpt lat="39.5983125083148479461669921875" lon="-7.645055763423442840576171875">
        <ele>245.399993896484375</ele>
        <time>2019-04-26T14:32:18.000Z</time>
      </trkpt>
      <trkpt lat="39.5983993448317050933837890625" lon="-7.6451736129820346832275390625">
        <ele>245</ele>
        <time>2019-04-26T14:32:22.000Z</time>
      </trkpt>
      <trkpt lat="39.5984174497425556182861328125" lon="-7.64519565738737583160400390625">
        <ele>245</ele>
        <time>2019-04-26T14:32:25.000Z</time>
      </trkpt>
      <trkpt lat="39.5984482951462268829345703125" lon="-7.64523304067552089691162109375">
        <ele>244.8000030517578125</ele>
        <time>2019-04-26T14:32:55.000Z</time>
      </trkpt>
      <trkpt lat="39.5985468663275241851806640625" lon="-7.645382322371006011962890625">
        <ele>244</ele>
        <time>2019-04-26T14:33:00.000Z</time>
      </trkpt>
      <trkpt lat="39.5986627042293548583984375" lon="-7.6458797045052051544189453125">
        <ele>245.600006103515625</ele>
        <time>2019-04-26T14:33:15.000Z</time>
      </trkpt>
      <trkpt lat="39.59914810024201869964599609375" lon="-7.6462029106914997100830078125">
        <ele>240.8000030517578125</ele>
        <time>2019-04-26T14:33:28.000Z</time>
      </trkpt>
      <trkpt lat="39.5996479131281375885009765625" lon="-7.64649217016994953155517578125">
        <ele>237.1999969482421875</ele>
        <time>2019-04-26T14:33:42.000Z</time>
      </trkpt>
      <trkpt lat="39.6000841073691844940185546875" lon="-7.64637507498264312744140625">
        <ele>232.1999969482421875</ele>
        <time>2019-04-26T14:33:54.000Z</time>
      </trkpt>
      <trkpt lat="39.60030145011842250823974609375" lon="-7.64648412354290485382080078125">
        <ele>231</ele>
        <time>2019-04-26T14:33:59.000Z</time>
      </trkpt>
      <trkpt lat="39.60038141347467899322509765625" lon="-7.64679911546409130096435546875">
        <ele>232</ele>
        <time>2019-04-26T14:34:08.000Z</time>
      </trkpt>
      <trkpt lat="39.5999100990593433380126953125" lon="-7.646974213421344757080078125">
        <ele>237.1999969482421875</ele>
        <time>2019-04-26T14:34:18.000Z</time>
      </trkpt>
      <trkpt lat="39.599796943366527557373046875" lon="-7.6471286080777645111083984375">
        <ele>238.8000030517578125</ele>
        <time>2019-04-26T14:34:22.000Z</time>
      </trkpt>
      <trkpt lat="39.6002048067748546600341796875" lon="-7.647619955241680145263671875">
        <ele>236.399993896484375</ele>
        <time>2019-04-26T14:34:38.000Z</time>
      </trkpt>
      <trkpt lat="39.60043338127434253692626953125" lon="-7.64802237041294574737548828125">
        <ele>237.1999969482421875</ele>
        <time>2019-04-26T14:34:49.000Z</time>
      </trkpt>
      <trkpt lat="39.60062281228601932525634765625" lon="-7.6483929343521595001220703125">
        <ele>237.1999969482421875</ele>
        <time>2019-04-26T14:34:56.000Z</time>
      </trkpt>
      <trkpt lat="39.600799418985843658447265625" lon="-7.64900808222591876983642578125">
        <ele>240</ele>
        <time>2019-04-26T14:35:13.000Z</time>
      </trkpt>
      <trkpt lat="39.60091064684092998504638671875" lon="-7.64942499808967113494873046875">
        <ele>241.8000030517578125</ele>
        <time>2019-04-26T14:35:27.000Z</time>
      </trkpt>
      <trkpt lat="39.60111600346863269805908203125" lon="-7.649997733533382415771484375">
        <ele>246.600006103515625</ele>
        <time>2019-04-26T14:35:53.000Z</time>
      </trkpt>
      <trkpt lat="39.60165940225124359130859375" lon="-7.6500773616135120391845703125">
        <ele>240.600006103515625</ele>
        <time>2019-04-26T14:36:11.000Z</time>
      </trkpt>
      <trkpt lat="39.6020127832889556884765625" lon="-7.65031968243420124053955078125">
        <ele>240.8000030517578125</ele>
        <time>2019-04-26T14:36:23.000Z</time>
      </trkpt>
      <trkpt lat="39.60224538110196590423583984375" lon="-7.65063836239278316497802734375">
        <ele>244</ele>
        <time>2019-04-26T14:36:35.000Z</time>
      </trkpt>
      <trkpt lat="39.6022992767393589019775390625" lon="-7.650748752057552337646484375">
        <ele>244.8000030517578125</ele>
        <time>2019-04-26T14:36:37.000Z</time>
      </trkpt>
      <trkpt lat="39.60271418094635009765625" lon="-7.6509376801550388336181640625">
        <ele>241.600006103515625</ele>
        <time>2019-04-26T14:36:48.000Z</time>
      </trkpt>
      <trkpt lat="39.60317862220108509063720703125" lon="-7.65136624686419963836669921875">
        <ele>243.399993896484375</ele>
        <time>2019-04-26T14:37:02.000Z</time>
      </trkpt>
      <trkpt lat="39.603474251925945281982421875" lon="-7.65170152299106121063232421875">
        <ele>244.600006103515625</ele>
        <time>2019-04-26T14:37:13.000Z</time>
      </trkpt>
      <trkpt lat="39.6039156429469585418701171875" lon="-7.651981897652149200439453125">
        <ele>244.399993896484375</ele>
        <time>2019-04-26T14:37:24.000Z</time>
      </trkpt>
      <trkpt lat="39.604411013424396514892578125" lon="-7.652280293405055999755859375">
        <ele>243.8000030517578125</ele>
        <time>2019-04-26T14:37:39.000Z</time>
      </trkpt>
      <trkpt lat="39.60478551685810089111328125" lon="-7.65273098833858966827392578125">
        <ele>247</ele>
        <time>2019-04-26T14:37:56.000Z</time>
      </trkpt>
      <trkpt lat="39.60496363230049610137939453125" lon="-7.65337505377829074859619140625">
        <ele>255.399993896484375</ele>
        <time>2019-04-26T14:38:15.000Z</time>
      </trkpt>
      <trkpt lat="39.60518642328679561614990234375" lon="-7.65351721085608005523681640625">
        <ele>254.600006103515625</ele>
        <time>2019-04-26T14:38:21.000Z</time>
      </trkpt>
      <trkpt lat="39.60536730475723743438720703125" lon="-7.653589211404323577880859375">
        <ele>252.399993896484375</ele>
        <time>2019-04-26T14:38:25.000Z</time>
      </trkpt>
      <trkpt lat="39.60571867413818836212158203125" lon="-7.6536460407078266143798828125">
        <ele>246.399993896484375</ele>
        <time>2019-04-26T14:38:32.000Z</time>
      </trkpt>
      <trkpt lat="39.60591279901564121246337890625" lon="-7.65379414893686771392822265625">
        <ele>246</ele>
        <time>2019-04-26T14:38:36.000Z</time>
      </trkpt>
      <trkpt lat="39.60608228109776973724365234375" lon="-7.65391401015222072601318359375">
        <ele>245.8000030517578125</ele>
        <time>2019-04-26T14:38:39.000Z</time>
      </trkpt>
      <trkpt lat="39.60633139126002788543701171875" lon="-7.65390009619295597076416015625">
        <ele>243</ele>
        <time>2019-04-26T14:38:43.000Z</time>
      </trkpt>
      <trkpt lat="39.60642493329942226409912109375" lon="-7.6538596116006374359130859375">
        <ele>241.600006103515625</ele>
        <time>2019-04-26T14:38:45.000Z</time>
      </trkpt>
      <trkpt lat="39.60660883225500583648681640625" lon="-7.6536257565021514892578125">
        <ele>235</ele>
        <time>2019-04-26T14:38:53.000Z</time>
      </trkpt>
      <trkpt lat="39.60714410059154033660888671875" lon="-7.65381476841866970062255859375">
        <ele>234.600006103515625</ele>
        <time>2019-04-26T14:39:12.000Z</time>
      </trkpt>
      <trkpt lat="39.6076636947691440582275390625" lon="-7.6537590287625789642333984375">
        <ele>227.1999969482421875</ele>
        <time>2019-04-26T14:39:26.000Z</time>
      </trkpt>
      <trkpt lat="39.60822570137679576873779296875" lon="-7.65390445478260517120361328125">
        <ele>220.600006103515625</ele>
        <time>2019-04-26T14:39:36.000Z</time>
      </trkpt>
      <trkpt lat="39.6083825267851352691650390625" lon="-7.65396413393318653106689453125">
        <ele>219.8000030517578125</ele>
        <time>2019-04-26T14:39:39.000Z</time>
      </trkpt>
      <trkpt lat="39.608472883701324462890625" lon="-7.65403890050947666168212890625">
        <ele>220</ele>
        <time>2019-04-26T14:39:41.000Z</time>
      </trkpt>
      <trkpt lat="39.60872526280581951141357421875" lon="-7.654279880225658416748046875">
        <ele>221.8000030517578125</ele>
        <time>2019-04-26T14:39:49.000Z</time>
      </trkpt>
      <trkpt lat="39.6088539250195026397705078125" lon="-7.654200755059719085693359375">
        <ele>220</ele>
        <time>2019-04-26T14:39:53.000Z</time>
      </trkpt>
      <trkpt lat="39.6093494631350040435791015625" lon="-7.65423101373016834259033203125">
        <ele>220</ele>
        <time>2019-04-26T14:40:15.000Z</time>
      </trkpt>
      <trkpt lat="39.60966847836971282958984375" lon="-7.654810287058353424072265625">
        <ele>227.399993896484375</ele>
        <time>2019-04-26T14:40:35.000Z</time>
      </trkpt>
      <trkpt lat="39.610081203281879425048828125" lon="-7.655313871800899505615234375">
        <ele>231</ele>
        <time>2019-04-26T14:40:52.000Z</time>
      </trkpt>
      <trkpt lat="39.61046031676232814788818359375" lon="-7.65582910738885402679443359375">
        <ele>233.399993896484375</ele>
        <time>2019-04-26T14:41:08.000Z</time>
      </trkpt>
      <trkpt lat="39.6109031327068805694580078125" lon="-7.65619221143424510955810546875">
        <ele>235.399993896484375</ele>
        <time>2019-04-26T14:41:24.000Z</time>
      </trkpt>
      <trkpt lat="39.6113882772624492645263671875" lon="-7.65651508234441280364990234375">
        <ele>234</ele>
        <time>2019-04-26T14:41:40.000Z</time>
      </trkpt>
      <trkpt lat="39.6115471981465816497802734375" lon="-7.6566834747791290283203125">
        <ele>233.8000030517578125</ele>
        <time>2019-04-26T14:41:45.000Z</time>
      </trkpt>
      <trkpt lat="39.611686170101165771484375" lon="-7.65670669265091419219970703125">
        <ele>231.8000030517578125</ele>
        <time>2019-04-26T14:41:49.000Z</time>
      </trkpt>
      <trkpt lat="39.61210886947810649871826171875" lon="-7.65712243504822254180908203125">
        <ele>231.1999969482421875</ele>
        <time>2019-04-26T14:42:06.000Z</time>
      </trkpt>
      <trkpt lat="39.612304084002971649169921875" lon="-7.6572733931243419647216796875">
        <ele>231.1999969482421875</ele>
        <time>2019-04-26T14:42:12.000Z</time>
      </trkpt>
      <trkpt lat="39.6124018169939517974853515625" lon="-7.65729946084320545196533203125">
        <ele>230.399993896484375</ele>
        <time>2019-04-26T14:42:14.000Z</time>
      </trkpt>
      <trkpt lat="39.61259610950946807861328125" lon="-7.6572187431156635284423828125">
        <ele>226.600006103515625</ele>
        <time>2019-04-26T14:42:18.000Z</time>
      </trkpt>
      <trkpt lat="39.612813703715801239013671875" lon="-7.65715361572802066802978515625">
        <ele>222.8000030517578125</ele>
        <time>2019-04-26T14:42:23.000Z</time>
      </trkpt>
      <trkpt lat="39.61294253356754779815673828125" lon="-7.65715126879513263702392578125">
        <ele>221.8000030517578125</ele>
        <time>2019-04-26T14:42:26.000Z</time>
      </trkpt>
      <trkpt lat="39.61322818882763385772705078125" lon="-7.65717842616140842437744140625">
        <ele>220.8000030517578125</ele>
        <time>2019-04-26T14:42:36.000Z</time>
      </trkpt>
      <trkpt lat="39.61326389573514461517333984375" lon="-7.65715059824287891387939453125">
        <ele>220.1999969482421875</ele>
        <time>2019-04-26T14:42:41.000Z</time>
      </trkpt>
      <trkpt lat="39.61344896815717220306396484375" lon="-7.65699033625423908233642578125">
        <ele>216.8000030517578125</ele>
        <time>2019-04-26T14:42:55.000Z</time>
      </trkpt>
      <trkpt lat="39.61346992291510105133056640625" lon="-7.656988911330699920654296875">
        <ele>216.8000030517578125</ele>
        <time>2019-04-26T14:43:26.000Z</time>
      </trkpt>
      <trkpt lat="39.61363387294113636016845703125" lon="-7.65695546753704547882080078125">
        <ele>215.600006103515625</ele>
        <time>2019-04-26T14:43:31.000Z</time>
      </trkpt>
      <trkpt lat="39.61396512575447559356689453125" lon="-7.6569758355617523193359375">
        <ele>214.399993896484375</ele>
        <time>2019-04-26T14:43:37.000Z</time>
      </trkpt>
      <trkpt lat="39.61401768028736114501953125" lon="-7.65697994269430637359619140625">
        <ele>214.1999969482421875</ele>
        <time>2019-04-26T14:43:38.000Z</time>
      </trkpt>
      <trkpt lat="39.6141710691154003143310546875" lon="-7.6570464111864566802978515625">
        <ele>214.600006103515625</ele>
        <time>2019-04-26T14:43:44.000Z</time>
      </trkpt>
      <trkpt lat="39.61468965746462345123291015625" lon="-7.65714523382484912872314453125">
        <ele>217.600006103515625</ele>
        <time>2019-04-26T14:44:00.000Z</time>
      </trkpt>
      <trkpt lat="39.61524655111134052276611328125" lon="-7.6569743268191814422607421875">
        <ele>213.399993896484375</ele>
        <time>2019-04-26T14:44:20.000Z</time>
      </trkpt>
      <trkpt lat="39.615729264914989471435546875" lon="-7.6572214253246784210205078125">
        <ele>219</ele>
        <time>2019-04-26T14:44:39.000Z</time>
      </trkpt>
      <trkpt lat="39.61599304340779781341552734375" lon="-7.65786029398441314697265625">
        <ele>227.399993896484375</ele>
        <time>2019-04-26T14:44:57.000Z</time>
      </trkpt>
      <trkpt lat="39.6162326820194721221923828125" lon="-7.6581843383610248565673828125">
        <ele>228.8000030517578125</ele>
        <time>2019-04-26T14:45:06.000Z</time>
      </trkpt>
      <trkpt lat="39.61640744470059871673583984375" lon="-7.6582017727196216583251953125">
        <ele>226</ele>
        <time>2019-04-26T14:45:10.000Z</time>
      </trkpt>
      <trkpt lat="39.61653669364750385284423828125" lon="-7.6582255773246288299560546875">
        <ele>223.8000030517578125</ele>
        <time>2019-04-26T14:45:13.000Z</time>
      </trkpt>
      <trkpt lat="39.6168878115713596343994140625" lon="-7.658390365540981292724609375">
        <ele>220.399993896484375</ele>
        <time>2019-04-26T14:45:21.000Z</time>
      </trkpt>
      <trkpt lat="39.61741461418569087982177734375" lon="-7.6585380546748638153076171875">
        <ele>221.600006103515625</ele>
        <time>2019-04-26T14:45:34.000Z</time>
      </trkpt>
      <trkpt lat="39.617913253605365753173828125" lon="-7.65827628783881664276123046875">
        <ele>213.399993896484375</ele>
        <time>2019-04-26T14:45:51.000Z</time>
      </trkpt>
      <trkpt lat="39.6184099651873111724853515625" lon="-7.65815039165318012237548828125">
        <ele>214.600006103515625</ele>
        <time>2019-04-26T14:46:09.000Z</time>
      </trkpt>
      <trkpt lat="39.6188706345856189727783203125" lon="-7.65853327699005603790283203125">
        <ele>225.399993896484375</ele>
        <time>2019-04-26T14:46:28.000Z</time>
      </trkpt>
      <trkpt lat="39.6193940006196498870849609375" lon="-7.65878590755164623260498046875">
        <ele>228.8000030517578125</ele>
        <time>2019-04-26T14:46:50.000Z</time>
      </trkpt>
      <trkpt lat="39.61968745104968547821044921875" lon="-7.65887022949755191802978515625">
        <ele>229.1999969482421875</ele>
        <time>2019-04-26T14:47:06.000Z</time>
      </trkpt>
      <trkpt lat="39.619681835174560546875" lon="-7.65886637382209300994873046875">
        <ele>229</ele>
        <time>2019-04-26T14:47:07.000Z</time>
      </trkpt>
      <trkpt lat="39.61971980519592761993408203125" lon="-7.65889688394963741302490234375">
        <ele>229.8000030517578125</ele>
        <time>2019-04-26T14:50:16.000Z</time>
      </trkpt>
      <trkpt lat="39.62019774131476879119873046875" lon="-7.6592195034027099609375">
        <ele>234.600006103515625</ele>
        <time>2019-04-26T14:50:37.000Z</time>
      </trkpt>
      <trkpt lat="39.62066411040723323822021484375" lon="-7.6595566235482692718505859375">
        <ele>239</ele>
        <time>2019-04-26T14:51:00.000Z</time>
      </trkpt>
      <trkpt lat="39.620952196419239044189453125" lon="-7.6601614616811275482177734375">
        <ele>250.399993896484375</ele>
        <time>2019-04-26T14:51:23.000Z</time>
      </trkpt>
      <trkpt lat="39.62144731543958187103271484375" lon="-7.66048609279096126556396484375">
        <ele>248</ele>
        <time>2019-04-26T14:51:43.000Z</time>
      </trkpt>
      <trkpt lat="39.62188770063221454620361328125" lon="-7.66091591678559780120849609375">
        <ele>248.1999969482421875</ele>
        <time>2019-04-26T14:51:59.000Z</time>
      </trkpt>
      <trkpt lat="39.62239178828895092010498046875" lon="-7.66118397004902362823486328125">
        <ele>248.1999969482421875</ele>
        <time>2019-04-26T14:52:19.000Z</time>
      </trkpt>
      <trkpt lat="39.62261172942817211151123046875" lon="-7.66125387512147426605224609375">
        <ele>248.600006103515625</ele>
        <time>2019-04-26T14:52:33.000Z</time>
      </trkpt>
      <trkpt lat="39.6226461790502071380615234375" lon="-7.6612725667655467987060546875">
        <ele>249.399993896484375</ele>
        <time>2019-04-26T14:52:37.000Z</time>
      </trkpt>
      <trkpt lat="39.62266503833234310150146484375" lon="-7.6612727344036102294921875">
        <ele>249.1999969482421875</ele>
        <time>2019-04-26T14:52:38.000Z</time>
      </trkpt>
      <trkpt lat="39.62270895950496196746826171875" lon="-7.66128480434417724609375">
        <ele>249.600006103515625</ele>
        <time>2019-04-26T14:52:43.000Z</time>
      </trkpt>
      <trkpt lat="39.622758328914642333984375" lon="-7.66131204552948474884033203125">
        <ele>250.600006103515625</ele>
        <time>2019-04-26T14:55:34.000Z</time>
      </trkpt>
      <trkpt lat="39.622878693044185638427734375" lon="-7.66137910075485706329345703125">
        <ele>253</ele>
        <time>2019-04-26T14:55:40.000Z</time>
      </trkpt>
      <trkpt lat="39.6233878098428249359130859375" lon="-7.66161697916686534881591796875">
        <ele>257.20001220703125</ele>
        <time>2019-04-26T14:56:04.000Z</time>
      </trkpt>
      <trkpt lat="39.62375384755432605743408203125" lon="-7.66181613318622112274169921875">
        <ele>259.20001220703125</ele>
        <time>2019-04-26T14:56:24.000Z</time>
      </trkpt>
      <trkpt lat="39.62376574985682964324951171875" lon="-7.66183339990675449371337890625">
        <ele>259.600006103515625</ele>
        <time>2019-04-26T14:58:00.000Z</time>
      </trkpt>
      <trkpt lat="39.624244272708892822265625" lon="-7.66214638017117977142333984375">
        <ele>262</ele>
        <time>2019-04-26T14:58:21.000Z</time>
      </trkpt>
      <trkpt lat="39.62467099539935588836669921875" lon="-7.66261174343526363372802734375">
        <ele>266.20001220703125</ele>
        <time>2019-04-26T14:58:44.000Z</time>
      </trkpt>
      <trkpt lat="39.62495396845042705535888671875" lon="-7.66320191323757171630859375">
        <ele>269.20001220703125</ele>
        <time>2019-04-26T14:59:03.000Z</time>
      </trkpt>
      <trkpt lat="39.62519318796694278717041015625" lon="-7.66374908387660980224609375">
        <ele>268</ele>
        <time>2019-04-26T14:59:26.000Z</time>
      </trkpt>
      <trkpt lat="39.6252408809959888458251953125" lon="-7.66377766616642475128173828125">
        <ele>267.79998779296875</ele>
        <time>2019-04-26T14:59:30.000Z</time>
      </trkpt>
      <trkpt lat="39.62524482049047946929931640625" lon="-7.66377548687160015106201171875">
        <ele>267.600006103515625</ele>
        <time>2019-04-26T14:59:32.000Z</time>
      </trkpt>
      <trkpt lat="39.62528740055859088897705078125" lon="-7.663719914853572845458984375">
        <ele>266.79998779296875</ele>
        <time>2019-04-26T15:03:14.000Z</time>
      </trkpt>
      <trkpt lat="39.62572761811316013336181640625" lon="-7.66327709890902042388916015625">
        <ele>260.600006103515625</ele>
        <time>2019-04-26T15:03:27.000Z</time>
      </trkpt>
      <trkpt lat="39.62616196833550930023193359375" lon="-7.66293528489768505096435546875">
        <ele>249.399993896484375</ele>
        <time>2019-04-26T15:03:34.000Z</time>
      </trkpt>
      <trkpt lat="39.62671182118356227874755859375" lon="-7.662856578826904296875">
        <ele>246.399993896484375</ele>
        <time>2019-04-26T15:03:41.000Z</time>
      </trkpt>
      <trkpt lat="39.6273387037217617034912109375" lon="-7.66282481141388416290283203125">
        <ele>248.1999969482421875</ele>
        <time>2019-04-26T15:03:48.000Z</time>
      </trkpt>
      <trkpt lat="39.62789568118751049041748046875" lon="-7.662795223295688629150390625">
        <ele>247</ele>
        <time>2019-04-26T15:03:54.000Z</time>
      </trkpt>
      <trkpt lat="39.6284638904035091400146484375" lon="-7.66292757354676723480224609375">
        <ele>247.8000030517578125</ele>
        <time>2019-04-26T15:04:00.000Z</time>
      </trkpt>
      <trkpt lat="39.62876957841217517852783203125" lon="-7.66297652386128902435302734375">
        <ele>248.8000030517578125</ele>
        <time>2019-04-26T15:04:03.000Z</time>
      </trkpt>
      <trkpt lat="39.6291672997176647186279296875" lon="-7.66298004426062107086181640625">
        <ele>244.399993896484375</ele>
        <time>2019-04-26T15:04:07.000Z</time>
      </trkpt>
      <trkpt lat="39.629633165895938873291015625" lon="-7.663178108632564544677734375">
        <ele>244.600006103515625</ele>
        <time>2019-04-26T15:04:12.000Z</time>
      </trkpt>
      <trkpt lat="39.630207158625125885009765625" lon="-7.66342277638614177703857421875">
        <ele>239</ele>
        <time>2019-04-26T15:04:18.000Z</time>
      </trkpt>
      <trkpt lat="39.63083219714462757110595703125" lon="-7.6634927652776241302490234375">
        <ele>232</ele>
        <time>2019-04-26T15:04:24.000Z</time>
      </trkpt>
      <trkpt lat="39.631233774125576019287109375" lon="-7.66360399313271045684814453125">
        <ele>229</ele>
        <time>2019-04-26T15:04:28.000Z</time>
      </trkpt>
      <trkpt lat="39.6317879855632781982421875" lon="-7.6639598049223423004150390625">
        <ele>227.600006103515625</ele>
        <time>2019-04-26T15:04:34.000Z</time>
      </trkpt>
      <trkpt lat="39.632335491478443145751953125" lon="-7.66435920260846614837646484375">
        <ele>224.600006103515625</ele>
        <time>2019-04-26T15:04:40.000Z</time>
      </trkpt>
      <trkpt lat="39.632857851684093475341796875" lon="-7.6648400723934173583984375">
        <ele>222.399993896484375</ele>
        <time>2019-04-26T15:04:46.000Z</time>
      </trkpt>
      <trkpt lat="39.63335867039859294891357421875" lon="-7.665103264153003692626953125">
        <ele>217</ele>
        <time>2019-04-26T15:04:51.000Z</time>
      </trkpt>
      <trkpt lat="39.6337652765214443206787109375" lon="-7.665257491171360015869140625">
        <ele>211.600006103515625</ele>
        <time>2019-04-26T15:04:55.000Z</time>
      </trkpt>
      <trkpt lat="39.63429006747901439666748046875" lon="-7.6656796038150787353515625">
        <ele>212.399993896484375</ele>
        <time>2019-04-26T15:05:01.000Z</time>
      </trkpt>
      <trkpt lat="39.63484846986830234527587890625" lon="-7.6660961844027042388916015625">
        <ele>208.8000030517578125</ele>
        <time>2019-04-26T15:05:07.000Z</time>
      </trkpt>
      <trkpt lat="39.63523822836577892303466796875" lon="-7.666340768337249755859375">
        <ele>204.600006103515625</ele>
        <time>2019-04-26T15:05:11.000Z</time>
      </trkpt>
      <trkpt lat="39.63579528965055942535400390625" lon="-7.66641897149384021759033203125">
        <ele>193</ele>
        <time>2019-04-26T15:05:16.000Z</time>
      </trkpt>
      <trkpt lat="39.63590324856340885162353515625" lon="-7.66644872725009918212890625">
        <ele>191.8000030517578125</ele>
        <time>2019-04-26T15:05:17.000Z</time>
      </trkpt>
      <trkpt lat="39.63640205562114715576171875" lon="-7.66677788458764553070068359375">
        <ele>192.1999969482421875</ele>
        <time>2019-04-26T15:05:22.000Z</time>
      </trkpt>
      <trkpt lat="39.6368739567697048187255859375" lon="-7.6671922020614147186279296875">
        <ele>193.8000030517578125</ele>
        <time>2019-04-26T15:05:27.000Z</time>
      </trkpt>
      <trkpt lat="39.63706447742879390716552734375" lon="-7.6673340238630771636962890625">
        <ele>192.8000030517578125</ele>
        <time>2019-04-26T15:05:29.000Z</time>
      </trkpt>
      <trkpt lat="39.637479297816753387451171875" lon="-7.6673893444240093231201171875">
        <ele>184</ele>
        <time>2019-04-26T15:05:33.000Z</time>
      </trkpt>
      <trkpt lat="39.63779001496732234954833984375" lon="-7.6674118079245090484619140625">
        <ele>177.399993896484375</ele>
        <time>2019-04-26T15:05:36.000Z</time>
      </trkpt>
      <trkpt lat="39.63836417533457279205322265625" lon="-7.6676376163959503173828125">
        <ele>175.600006103515625</ele>
        <time>2019-04-26T15:05:42.000Z</time>
      </trkpt>
      <trkpt lat="39.63887446559965610504150390625" lon="-7.66801916062831878662109375">
        <ele>176.1999969482421875</ele>
        <time>2019-04-26T15:05:48.000Z</time>
      </trkpt>
      <trkpt lat="39.63937452994287014007568359375" lon="-7.66834094189107418060302734375">
        <ele>172.600006103515625</ele>
        <time>2019-04-26T15:05:54.000Z</time>
      </trkpt>
      <trkpt lat="39.63988892734050750732421875" lon="-7.66860346309840679168701171875">
        <ele>169</ele>
        <time>2019-04-26T15:06:00.000Z</time>
      </trkpt>
      <trkpt lat="39.64044640772044658660888671875" lon="-7.6688461191952228546142578125">
        <ele>164.399993896484375</ele>
        <time>2019-04-26T15:06:06.000Z</time>
      </trkpt>
      <trkpt lat="39.64098117314279079437255859375" lon="-7.669002525508403778076171875">
        <ele>158.8000030517578125</ele>
        <time>2019-04-26T15:06:12.000Z</time>
      </trkpt>
      <trkpt lat="39.6415634639561176300048828125" lon="-7.66917410306632518768310546875">
        <ele>153</ele>
        <time>2019-04-26T15:06:19.000Z</time>
      </trkpt>
      <trkpt lat="39.64215782471001148223876953125" lon="-7.66936018131673336029052734375">
        <ele>150</ele>
        <time>2019-04-26T15:06:26.000Z</time>
      </trkpt>
      <trkpt lat="39.64270533062517642974853515625" lon="-7.66955078579485416412353515625">
        <ele>147.1999969482421875</ele>
        <time>2019-04-26T15:06:36.000Z</time>
      </trkpt>
      <trkpt lat="39.64274279773235321044921875" lon="-7.669572494924068450927734375">
        <ele>147</ele>
        <time>2019-04-26T15:06:40.000Z</time>
      </trkpt>
      <trkpt lat="39.64276283048093318939208984375" lon="-7.66959185712039470672607421875">
        <ele>147</ele>
        <time>2019-04-26T15:08:24.000Z</time>
      </trkpt>
      <trkpt lat="39.64299492537975311279296875" lon="-7.66986317932605743408203125">
        <ele>150</ele>
        <time>2019-04-26T15:08:32.000Z</time>
      </trkpt>
      <trkpt lat="39.64336766861379146575927734375" lon="-7.67005923204123973846435546875">
        <ele>145</ele>
        <time>2019-04-26T15:08:38.000Z</time>
      </trkpt>
      <trkpt lat="39.64362398721277713775634765625" lon="-7.67031068913638591766357421875">
        <ele>145.600006103515625</ele>
        <time>2019-04-26T15:08:42.000Z</time>
      </trkpt>
      <trkpt lat="39.643695987761020660400390625" lon="-7.67036869190633296966552734375">
        <ele>145.1999969482421875</ele>
        <time>2019-04-26T15:08:43.000Z</time>
      </trkpt>
      <trkpt lat="39.64423838071525096893310546875" lon="-7.6703612320125102996826171875">
        <ele>134</ele>
        <time>2019-04-26T15:08:49.000Z</time>
      </trkpt>
      <trkpt lat="39.6443318389356136322021484375" lon="-7.67034756951034069061279296875">
        <ele>131.8000030517578125</ele>
        <time>2019-04-26T15:08:50.000Z</time>
      </trkpt>
      <trkpt lat="39.6448039077222347259521484375" lon="-7.67047799192368984222412109375">
        <ele>128.8000030517578125</ele>
        <time>2019-04-26T15:08:55.000Z</time>
      </trkpt>
      <trkpt lat="39.6448944322764873504638671875" lon="-7.6705317199230194091796875">
        <ele>129.1999969482421875</ele>
        <time>2019-04-26T15:08:56.000Z</time>
      </trkpt>
      <trkpt lat="39.64518503285944461822509765625" lon="-7.67090111039578914642333984375">
        <ele>133.1999969482421875</ele>
        <time>2019-04-26T15:09:00.000Z</time>
      </trkpt>
      <trkpt lat="39.6453323028981685638427734375" lon="-7.67108626663684844970703125">
        <ele>133.399993896484375</ele>
        <time>2019-04-26T15:09:02.000Z</time>
      </trkpt>
      <trkpt lat="39.64583412744104862213134765625" lon="-7.6715777814388275146484375">
        <ele>128.399993896484375</ele>
        <time>2019-04-26T15:09:08.000Z</time>
      </trkpt>
      <trkpt lat="39.6460534818470478057861328125" lon="-7.67204507254064083099365234375">
        <ele>128.399993896484375</ele>
        <time>2019-04-26T15:09:12.000Z</time>
      </trkpt>
      <trkpt lat="39.6463294140994548797607421875" lon="-7.6727794110774993896484375">
        <ele>123</ele>
        <time>2019-04-26T15:09:18.000Z</time>
      </trkpt>
      <trkpt lat="39.64653946459293365478515625" lon="-7.67354459501802921295166015625">
        <ele>118</ele>
        <time>2019-04-26T15:09:24.000Z</time>
      </trkpt>
      <trkpt lat="39.6465463377535343170166015625" lon="-7.67367702908813953399658203125">
        <ele>117.40000152587890625</ele>
        <time>2019-04-26T15:09:25.000Z</time>
      </trkpt>
      <trkpt lat="39.646331258118152618408203125" lon="-7.67428622581064701080322265625">
        <ele>120.1999969482421875</ele>
        <time>2019-04-26T15:09:30.000Z</time>
      </trkpt>
      <trkpt lat="39.64628658257424831390380859375" lon="-7.67440927214920520782470703125">
        <ele>120.59999847412109375</ele>
        <time>2019-04-26T15:09:31.000Z</time>
      </trkpt>
      <trkpt lat="39.64615456759929656982421875" lon="-7.67517671920359134674072265625">
        <ele>117</ele>
        <time>2019-04-26T15:09:37.000Z</time>
      </trkpt>
      <trkpt lat="39.6460903622210025787353515625" lon="-7.6755647175014019012451171875">
        <ele>115.40000152587890625</ele>
        <time>2019-04-26T15:09:41.000Z</time>
      </trkpt>
      <trkpt lat="39.646324552595615386962890625" lon="-7.67603703774511814117431640625">
        <ele>99</ele>
        <time>2019-04-26T15:09:49.000Z</time>
      </trkpt>
      <trkpt lat="39.64668338187038898468017578125" lon="-7.67624893225729465484619140625">
        <ele>83.1999969482421875</ele>
        <time>2019-04-26T15:10:04.000Z</time>
      </trkpt>
      <trkpt lat="39.64670249260962009429931640625" lon="-7.67626938410103321075439453125">
        <ele>82.8000030517578125</ele>
        <time>2019-04-26T15:11:46.000Z</time>
      </trkpt>
      <trkpt lat="39.64685152284801006317138671875" lon="-7.6763911731541156768798828125">
        <ele>80.1999969482421875</ele>
        <time>2019-04-26T15:11:54.000Z</time>
      </trkpt>
      <trkpt lat="39.6473325602710247039794921875" lon="-7.6767314784228801727294921875">
        <ele>75.1999969482421875</ele>
        <time>2019-04-26T15:12:12.000Z</time>
      </trkpt>
      <trkpt lat="39.647824577987194061279296875" lon="-7.67696432769298553466796875">
        <ele>79</ele>
        <time>2019-04-26T15:12:27.000Z</time>
      </trkpt>
      <trkpt lat="39.64821760542690753936767578125" lon="-7.67649653367698192596435546875">
        <ele>84.59999847412109375</ele>
        <time>2019-04-26T15:12:49.000Z</time>
      </trkpt>
      <trkpt lat="39.64827887713909149169921875" lon="-7.67644473351538181304931640625">
        <ele>86.1999969482421875</ele>
        <time>2019-04-26T15:16:53.000Z</time>
      </trkpt>
      <trkpt lat="39.648667462170124053955078125" lon="-7.6759363710880279541015625">
        <ele>91</ele>
        <time>2019-04-26T15:17:14.000Z</time>
      </trkpt>
      <trkpt lat="39.649037607014179229736328125" lon="-7.67541208304464817047119140625">
        <ele>93</ele>
        <time>2019-04-26T15:17:28.000Z</time>
      </trkpt>
      <trkpt lat="39.6494317241013050079345703125" lon="-7.67487714998424053192138671875">
        <ele>95.40000152587890625</ele>
        <time>2019-04-26T15:17:42.000Z</time>
      </trkpt>
      <trkpt lat="39.649801366031169891357421875" lon="-7.6743513531982898712158203125">
        <ele>93</ele>
        <time>2019-04-26T15:17:53.000Z</time>
      </trkpt>
      <trkpt lat="39.6502192877233028411865234375" lon="-7.6738548092544078826904296875">
        <ele>91</ele>
        <time>2019-04-26T15:18:02.000Z</time>
      </trkpt>
      <trkpt lat="39.6503148414194583892822265625" lon="-7.673775851726531982421875">
        <ele>91.1999969482421875</ele>
        <time>2019-04-26T15:18:04.000Z</time>
      </trkpt>
      <trkpt lat="39.65085488744080066680908203125" lon="-7.673542834818363189697265625">
        <ele>94.59999847412109375</ele>
        <time>2019-04-26T15:18:18.000Z</time>
      </trkpt>
      <trkpt lat="39.65137322433292865753173828125" lon="-7.6733290962874889373779296875">
        <ele>97</ele>
        <time>2019-04-26T15:18:37.000Z</time>
      </trkpt>
      <trkpt lat="39.65193782933056354522705078125" lon="-7.67307604663074016571044921875">
        <ele>97.40000152587890625</ele>
        <time>2019-04-26T15:18:48.000Z</time>
      </trkpt>
      <trkpt lat="39.65240905992686748504638671875" lon="-7.6727058179676532745361328125">
        <ele>95.59999847412109375</ele>
        <time>2019-04-26T15:18:57.000Z</time>
      </trkpt>
      <trkpt lat="39.65254283510148525238037109375" lon="-7.6725931651890277862548828125">
        <ele>95</ele>
        <time>2019-04-26T15:19:00.000Z</time>
      </trkpt>
      <trkpt lat="39.65269119478762149810791015625" lon="-7.67234179191291332244873046875">
        <ele>94.1999969482421875</ele>
        <time>2019-04-26T15:19:05.000Z</time>
      </trkpt>
      <trkpt lat="39.65272924862802028656005859375" lon="-7.67222620546817779541015625">
        <ele>94</ele>
        <time>2019-04-26T15:19:07.000Z</time>
      </trkpt>
      <trkpt lat="39.65273528359830379486083984375" lon="-7.67196896485984325408935546875">
        <ele>92.40000152587890625</ele>
        <time>2019-04-26T15:19:15.000Z</time>
      </trkpt>
      <trkpt lat="39.65274274349212646484375" lon="-7.67194189131259918212890625">
        <ele>92.40000152587890625</ele>
        <time>2019-04-26T15:19:24.000Z</time>
      </trkpt>
      <trkpt lat="39.652827568352222442626953125" lon="-7.6712436787784099578857421875">
        <ele>92.1999969482421875</ele>
        <time>2019-04-26T15:19:43.000Z</time>
      </trkpt>
      <trkpt lat="39.652911722660064697265625" lon="-7.670549489557743072509765625">
        <ele>91</ele>
        <time>2019-04-26T15:19:56.000Z</time>
      </trkpt>
      <trkpt lat="39.65299512259662151336669921875" lon="-7.670037187635898590087890625">
        <ele>87.8000030517578125</ele>
        <time>2019-04-26T15:20:03.000Z</time>
      </trkpt>
      <trkpt lat="39.653467945754528045654296875" lon="-7.6696786098182201385498046875">
        <ele>89</ele>
        <time>2019-04-26T15:20:12.000Z</time>
      </trkpt>
      <trkpt lat="39.65399072505533695220947265625" lon="-7.66951239667832851409912109375">
        <ele>90.59999847412109375</ele>
        <time>2019-04-26T15:20:21.000Z</time>
      </trkpt>
      <trkpt lat="39.6543399989604949951171875" lon="-7.66891996376216411590576171875">
        <ele>89.40000152587890625</ele>
        <time>2019-04-26T15:20:32.000Z</time>
      </trkpt>
      <trkpt lat="39.65466463007032871246337890625" lon="-7.668340019881725311279296875">
        <ele>94.40000152587890625</ele>
        <time>2019-04-26T15:20:51.000Z</time>
      </trkpt>
      <trkpt lat="39.65500074438750743865966796875" lon="-7.6677454076707363128662109375">
        <ele>99.1999969482421875</ele>
        <time>2019-04-26T15:21:07.000Z</time>
      </trkpt>
      <trkpt lat="39.65531975962221622467041015625" lon="-7.6671683974564075469970703125">
        <ele>103.59999847412109375</ele>
        <time>2019-04-26T15:21:26.000Z</time>
      </trkpt>
      <trkpt lat="39.65548756532371044158935546875" lon="-7.66682582907378673553466796875">
        <ele>105.8000030517578125</ele>
        <time>2019-04-26T15:21:39.000Z</time>
      </trkpt>
      <trkpt lat="39.65528505854308605194091796875" lon="-7.66673664562404155731201171875">
        <ele>106.8000030517578125</ele>
        <time>2019-04-26T15:21:48.000Z</time>
      </trkpt>
      <trkpt lat="39.654744677245616912841796875" lon="-7.6668934710323810577392578125">
        <ele>106</ele>
        <time>2019-04-26T15:22:11.000Z</time>
      </trkpt>
      <trkpt lat="39.6546838246285915374755859375" lon="-7.66694770194590091705322265625">
        <ele>105.59999847412109375</ele>
        <time>2019-04-26T15:22:19.000Z</time>
      </trkpt>
      <trkpt lat="39.65476420708000659942626953125" lon="-7.66691501252353191375732421875">
        <ele>105.8000030517578125</ele>
        <time>2019-04-26T15:22:26.000Z</time>
      </trkpt>
      <trkpt lat="39.65473839081823825836181640625" lon="-7.66692574135959148406982421875">
        <ele>105.8000030517578125</ele>
        <time>2019-04-26T15:22:45.000Z</time>
      </trkpt>
      <trkpt lat="39.65469799004495143890380859375" lon="-7.666952647268772125244140625">
        <ele>105.59999847412109375</ele>
        <time>2019-04-26T15:22:51.000Z</time>
      </trkpt>
      <trkpt lat="39.6546511352062225341796875" lon="-7.66693311743438243865966796875">
        <ele>105.8000030517578125</ele>
        <time>2019-04-26T15:27:47.000Z</time>
      </trkpt>
      <trkpt lat="39.654603190720081329345703125" lon="-7.66695499420166015625">
        <ele>105.8000030517578125</ele>
        <time>2019-04-26T15:27:49.000Z</time>
      </trkpt>
      <trkpt lat="39.65446245856583118438720703125" lon="-7.6670165173709392547607421875">
        <ele>105</ele>
        <time>2019-04-26T15:27:53.000Z</time>
      </trkpt>
      <trkpt lat="39.65395686216652393341064453125" lon="-7.66713797114789485931396484375">
        <ele>102.59999847412109375</ele>
        <time>2019-04-26T15:28:04.000Z</time>
      </trkpt>
      <trkpt lat="39.65378754772245883941650390625" lon="-7.6670580916106700897216796875">
        <ele>103.59999847412109375</ele>
        <time>2019-04-26T15:28:09.000Z</time>
      </trkpt>
      <trkpt lat="39.653772376477718353271484375" lon="-7.667026408016681671142578125">
        <ele>104</ele>
        <time>2019-04-26T15:28:10.000Z</time>
      </trkpt>
      <trkpt lat="39.6540260128676891326904296875" lon="-7.666713260114192962646484375">
        <ele>107.8000030517578125</ele>
        <time>2019-04-26T15:28:18.000Z</time>
      </trkpt>
      <trkpt lat="39.6545554138720035552978515625" lon="-7.66649927012622356414794921875">
        <ele>110.59999847412109375</ele>
        <time>2019-04-26T15:28:28.000Z</time>
      </trkpt>
      <trkpt lat="39.65461635030806064605712890625" lon="-7.66646540723741054534912109375">
        <ele>110.40000152587890625</ele>
        <time>2019-04-26T15:28:29.000Z</time>
      </trkpt>
      <trkpt lat="39.65512680821120738983154296875" lon="-7.66620942391455173492431640625">
        <ele>109.59999847412109375</ele>
        <time>2019-04-26T15:28:37.000Z</time>
      </trkpt>
      <trkpt lat="39.65517215430736541748046875" lon="-7.666167430579662322998046875">
        <ele>109.8000030517578125</ele>
        <time>2019-04-26T15:28:38.000Z</time>
      </trkpt>
      <trkpt lat="39.655255973339080810546875" lon="-7.66610213555395603179931640625">
        <ele>110</ele>
        <time>2019-04-26T15:28:40.000Z</time>
      </trkpt>
      <trkpt lat="39.65543978847563266754150390625" lon="-7.666025944054126739501953125">
        <ele>109.8000030517578125</ele>
        <time>2019-04-26T15:28:47.000Z</time>
      </trkpt>
      <trkpt lat="39.65543911792337894439697265625" lon="-7.666021250188350677490234375">
        <ele>109.8000030517578125</ele>
        <time>2019-04-26T15:28:49.000Z</time>
      </trkpt>
      <trkpt lat="39.65538547374308109283447265625" lon="-7.6658236049115657806396484375">
        <ele>111</ele>
        <time>2019-04-26T15:31:39.000Z</time>
      </trkpt>
      <trkpt lat="39.655336439609527587890625" lon="-7.6657887361943721771240234375">
        <ele>111.8000030517578125</ele>
        <time>2019-04-26T15:31:45.000Z</time>
      </trkpt>
      <trkpt lat="39.6552760899066925048828125" lon="-7.66580826602876186370849609375">
        <ele>112.40000152587890625</ele>
        <time>2019-04-26T15:31:52.000Z</time>
      </trkpt>
      <trkpt lat="39.6553164906799793243408203125" lon="-7.66571992076933383941650390625">
        <ele>112.59999847412109375</ele>
        <time>2019-04-27T07:07:00.000Z</time>
      </trkpt>
      <trkpt lat="39.655351527035236358642578125" lon="-7.66576183028519153594970703125">
        <ele>112</ele>
        <time>2019-04-27T07:07:03.000Z</time>
      </trkpt>
      <trkpt lat="39.655446745455265045166015625" lon="-7.6659798435866832733154296875">
        <ele>110</ele>
        <time>2019-04-27T07:07:13.000Z</time>
      </trkpt>
      <trkpt lat="39.6554683707654476165771484375" lon="-7.66600591130554676055908203125">
        <ele>109.59999847412109375</ele>
        <time>2019-04-27T07:07:33.000Z</time>
      </trkpt>
      <trkpt lat="39.65558362193405628204345703125" lon="-7.66596458852291107177734375">
        <ele>109.1999969482421875</ele>
        <time>2019-04-27T07:07:37.000Z</time>
      </trkpt>
      <trkpt lat="39.655763246119022369384765625" lon="-7.66589510254561901092529296875">
        <ele>108.40000152587890625</ele>
        <time>2019-04-27T07:07:41.000Z</time>
      </trkpt>
      <trkpt lat="39.65592929162085056304931640625" lon="-7.66595251858234405517578125">
        <ele>107.1999969482421875</ele>
        <time>2019-04-27T07:07:46.000Z</time>
      </trkpt>
      <trkpt lat="39.6559385955333709716796875" lon="-7.6660284586250782012939453125">
        <ele>106.8000030517578125</ele>
        <time>2019-04-27T07:07:48.000Z</time>
      </trkpt>
      <trkpt lat="39.65586793608963489532470703125" lon="-7.66620975919067859649658203125">
        <ele>106.40000152587890625</ele>
        <time>2019-04-27T07:07:52.000Z</time>
      </trkpt>
      <trkpt lat="39.65584614314138889312744140625" lon="-7.66626499593257904052734375">
        <ele>106.40000152587890625</ele>
        <time>2019-04-27T07:07:53.000Z</time>
      </trkpt>
      <trkpt lat="39.65569376014173030853271484375" lon="-7.66658409498631954193115234375">
        <ele>106.40000152587890625</ele>
        <time>2019-04-27T07:07:58.000Z</time>
      </trkpt>
      <trkpt lat="39.6553604118525981903076171875" lon="-7.6672059483826160430908203125">
        <ele>103.40000152587890625</ele>
        <time>2019-04-27T07:08:19.000Z</time>
      </trkpt>
      <trkpt lat="39.65503024868667125701904296875" lon="-7.667788825929164886474609375">
        <ele>98.8000030517578125</ele>
        <time>2019-04-27T07:08:29.000Z</time>
      </trkpt>
      <trkpt lat="39.6546900272369384765625" lon="-7.66840682365000247955322265625">
        <ele>94</ele>
        <time>2019-04-27T07:08:36.000Z</time>
      </trkpt>
      <trkpt lat="39.654320217669010162353515625" lon="-7.669072262942790985107421875">
        <ele>88.1999969482421875</ele>
        <time>2019-04-27T07:08:43.000Z</time>
      </trkpt>
      <trkpt lat="39.6540424413979053497314453125" lon="-7.6695485226809978485107421875">
        <ele>91.40000152587890625</ele>
        <time>2019-04-27T07:08:49.000Z</time>
      </trkpt>
      <trkpt lat="39.6538288705050945281982421875" lon="-7.6697134785354137420654296875">
        <ele>93</ele>
        <time>2019-04-27T07:08:53.000Z</time>
      </trkpt>
      <trkpt lat="39.65331464074552059173583984375" lon="-7.6697563938796520233154296875">
        <ele>88.1999969482421875</ele>
        <time>2019-04-27T07:09:02.000Z</time>
      </trkpt>
      <trkpt lat="39.65316225774586200714111328125" lon="-7.66981028951704502105712890625">
        <ele>86.8000030517578125</ele>
        <time>2019-04-27T07:09:05.000Z</time>
      </trkpt>
      <trkpt lat="39.65303904376924037933349609375" lon="-7.66990550793707370758056640625">
        <ele>86.59999847412109375</ele>
        <time>2019-04-27T07:09:08.000Z</time>
      </trkpt>
      <trkpt lat="39.65295354835689067840576171875" lon="-7.6702066697180271148681640625">
        <ele>88.8000030517578125</ele>
        <time>2019-04-27T07:09:13.000Z</time>
      </trkpt>
      <trkpt lat="39.652949273586273193359375" lon="-7.67026542685925960540771484375">
        <ele>89.1999969482421875</ele>
        <time>2019-04-27T07:09:14.000Z</time>
      </trkpt>
      <trkpt lat="39.65294231660664081573486328125" lon="-7.67038780264556407928466796875">
        <ele>90.1999969482421875</ele>
        <time>2019-04-27T07:09:16.000Z</time>
      </trkpt>
      <trkpt lat="39.652872495353221893310546875" lon="-7.67108224332332611083984375">
        <ele>93</ele>
        <time>2019-04-27T07:09:28.000Z</time>
      </trkpt>
      <trkpt lat="39.65278926305472850799560546875" lon="-7.6717838086187839508056640625">
        <ele>91.8000030517578125</ele>
        <time>2019-04-27T07:09:38.000Z</time>
      </trkpt>
      <trkpt lat="39.65272128582000732421875" lon="-7.672353945672512054443359375">
        <ele>94.59999847412109375</ele>
        <time>2019-04-27T07:09:45.000Z</time>
      </trkpt>
      <trkpt lat="39.65248684398829936981201171875" lon="-7.672404907643795013427734375">
        <ele>92.59999847412109375</ele>
        <time>2019-04-27T07:09:50.000Z</time>
      </trkpt>
      <trkpt lat="39.65186230838298797607421875" lon="-7.67238822765648365020751953125">
        <ele>87</ele>
        <time>2019-04-27T07:09:57.000Z</time>
      </trkpt>
      <trkpt lat="39.651295356452465057373046875" lon="-7.672518901526927947998046875">
        <ele>83.59999847412109375</ele>
        <time>2019-04-27T07:10:03.000Z</time>
      </trkpt>
      <trkpt lat="39.6511902473866939544677734375" lon="-7.67250783741474151611328125">
        <ele>83</ele>
        <time>2019-04-27T07:10:04.000Z</time>
      </trkpt>
      <trkpt lat="39.6506507880985736846923828125" lon="-7.672386467456817626953125">
        <ele>79.59999847412109375</ele>
        <time>2019-04-27T07:10:10.000Z</time>
      </trkpt>
      <trkpt lat="39.65043528936803340911865234375" lon="-7.67235117964446544647216796875">
        <ele>78</ele>
        <time>2019-04-27T07:10:13.000Z</time>
      </trkpt>
      <trkpt lat="39.65025675483047962188720703125" lon="-7.67208002507686614990234375">
        <ele>76.1999969482421875</ele>
        <time>2019-04-27T07:10:20.000Z</time>
      </trkpt>
      <trkpt lat="39.650294892489910125732421875" lon="-7.67216191627085208892822265625">
        <ele>76.59999847412109375</ele>
        <time>2019-04-27T07:15:36.000Z</time>
      </trkpt>
      <trkpt lat="39.650294221937656402587890625" lon="-7.67218303866684436798095703125">
        <ele>76.59999847412109375</ele>
        <time>2019-04-27T07:15:38.000Z</time>
      </trkpt>
      <trkpt lat="39.6502912044525146484375" lon="-7.67218387685716152191162109375">
        <ele>76.59999847412109375</ele>
        <time>2019-04-27T07:15:40.000Z</time>
      </trkpt>
      <trkpt lat="39.650282151997089385986328125" lon="-7.67214783467352390289306640625">
        <ele>76.59999847412109375</ele>
        <time>2019-04-27T07:17:58.000Z</time>
      </trkpt>
      <trkpt lat="39.65044048614799976348876953125" lon="-7.6721946895122528076171875">
        <ele>77.40000152587890625</ele>
        <time>2019-04-27T07:18:12.000Z</time>
      </trkpt>
      <trkpt lat="39.65086461044847965240478515625" lon="-7.67239652574062347412109375">
        <ele>80.8000030517578125</ele>
        <time>2019-04-27T07:18:24.000Z</time>
      </trkpt>
      <trkpt lat="39.65127180330455303192138671875" lon="-7.67253072001039981842041015625">
        <ele>83.59999847412109375</ele>
        <time>2019-04-27T07:18:31.000Z</time>
      </trkpt>
      <trkpt lat="39.65182266198098659515380859375" lon="-7.67246165312826633453369140625">
        <ele>87.1999969482421875</ele>
        <time>2019-04-27T07:18:41.000Z</time>
      </trkpt>
      <trkpt lat="39.65238659642636775970458984375" lon="-7.67235654406249523162841796875">
        <ele>91.40000152587890625</ele>
        <time>2019-04-27T07:18:50.000Z</time>
      </trkpt>
      <trkpt lat="39.6525053679943084716796875" lon="-7.67236760817468166351318359375">
        <ele>92.59999847412109375</ele>
        <time>2019-04-27T07:18:52.000Z</time>
      </trkpt>
      <trkpt lat="39.6526741795241832733154296875" lon="-7.67241018824279308319091796875">
        <ele>94.59999847412109375</ele>
        <time>2019-04-27T07:19:01.000Z</time>
      </trkpt>
      <trkpt lat="39.65267443098127841949462890625" lon="-7.672391831874847412109375">
        <ele>94.40000152587890625</ele>
        <time>2019-04-27T07:19:27.000Z</time>
      </trkpt>
      <trkpt lat="39.65279169380664825439453125" lon="-7.67230541445314884185791015625">
        <ele>95</ele>
        <time>2019-04-27T07:19:32.000Z</time>
      </trkpt>
      <trkpt lat="39.65340633876621723175048828125" lon="-7.6723386906087398529052734375">
        <ele>101.40000152587890625</ele>
        <time>2019-04-27T07:19:41.000Z</time>
      </trkpt>
      <trkpt lat="39.6539267711341381072998046875" lon="-7.67226970754563808441162109375">
        <ele>104.40000152587890625</ele>
        <time>2019-04-27T07:19:48.000Z</time>
      </trkpt>
      <trkpt lat="39.65414059348404407501220703125" lon="-7.671968042850494384765625">
        <ele>106</ele>
        <time>2019-04-27T07:19:54.000Z</time>
      </trkpt>
      <trkpt lat="39.6542778052389621734619140625" lon="-7.67158473841845989227294921875">
        <ele>107</ele>
        <time>2019-04-27T07:20:14.000Z</time>
      </trkpt>
      <trkpt lat="39.65431384742259979248046875" lon="-7.67169135622680187225341796875">
        <ele>107.1999969482421875</ele>
        <time>2019-04-27T07:28:13.000Z</time>
      </trkpt>
      <trkpt lat="39.65395174920558929443359375" lon="-7.67208580859005451202392578125">
        <ele>105</ele>
        <time>2019-04-27T07:28:28.000Z</time>
      </trkpt>
      <trkpt lat="39.6538328938186168670654296875" lon="-7.6722461543977260589599609375">
        <ele>104.1999969482421875</ele>
        <time>2019-04-27T07:28:31.000Z</time>
      </trkpt>
      <trkpt lat="39.6533851325511932373046875" lon="-7.6724039018154144287109375">
        <ele>101</ele>
        <time>2019-04-27T07:28:38.000Z</time>
      </trkpt>
      <trkpt lat="39.652806110680103302001953125" lon="-7.6724285446107387542724609375">
        <ele>95.8000030517578125</ele>
        <time>2019-04-27T07:28:46.000Z</time>
      </trkpt>
      <trkpt lat="39.652336724102497100830078125" lon="-7.67241890542209148406982421875">
        <ele>91.40000152587890625</ele>
        <time>2019-04-27T07:29:05.000Z</time>
      </trkpt>
      <trkpt lat="39.65175770223140716552734375" lon="-7.6724557019770145416259765625">
        <ele>86.59999847412109375</ele>
        <time>2019-04-27T07:29:12.000Z</time>
      </trkpt>
      <trkpt lat="39.651428796350955963134765625" lon="-7.672576569020748138427734375">
        <ele>85.40000152587890625</ele>
        <time>2019-04-27T07:29:18.000Z</time>
      </trkpt>
      <trkpt lat="39.65134271420538425445556640625" lon="-7.6725914888083934783935546875">
        <ele>85</ele>
        <time>2019-04-27T07:29:25.000Z</time>
      </trkpt>
      <trkpt lat="39.651347659528255462646484375" lon="-7.67259878106415271759033203125">
        <ele>85.1999969482421875</ele>
        <time>2019-04-27T07:30:33.000Z</time>
      </trkpt>
      <trkpt lat="39.6508066914975643157958984375" lon="-7.672445811331272125244140625">
        <ele>80.59999847412109375</ele>
        <time>2019-04-27T07:30:50.000Z</time>
      </trkpt>
      <trkpt lat="39.65041114948689937591552734375" lon="-7.672444470226764678955078125">
        <ele>78.1999969482421875</ele>
        <time>2019-04-27T07:31:23.000Z</time>
      </trkpt>
      <trkpt lat="39.650340490043163299560546875" lon="-7.67234380356967449188232421875">
        <ele>77.40000152587890625</ele>
        <time>2019-04-27T07:31:54.000Z</time>
      </trkpt>
      <trkpt lat="39.65026530437171459197998046875" lon="-7.67206938005983829498291015625">
        <ele>76.1999969482421875</ele>
        <time>2019-04-27T07:32:12.000Z</time>
      </trkpt>
      <trkpt lat="39.65031844563782215118408203125" lon="-7.67223567701876163482666015625">
        <ele>76.8000030517578125</ele>
        <time>2019-04-27T07:47:19.000Z</time>
      </trkpt>
      <trkpt lat="39.65043243952095508575439453125" lon="-7.6723403669893741607666015625">
        <ele>78</ele>
        <time>2019-04-27T07:47:26.000Z</time>
      </trkpt>
      <trkpt lat="39.6503567509353160858154296875" lon="-7.6721559651196002960205078125">
        <ele>76.59999847412109375</ele>
        <time>2019-04-27T07:47:39.000Z</time>
      </trkpt>
      <trkpt lat="39.6503341197967529296875" lon="-7.672016322612762451171875">
        <ele>76.1999969482421875</ele>
        <time>2019-04-27T07:47:45.000Z</time>
      </trkpt>
      <trkpt lat="39.650412909686565399169921875" lon="-7.67202864401042461395263671875">
        <ele>76.59999847412109375</ele>
        <time>2019-04-27T07:47:54.000Z</time>
      </trkpt>
      <trkpt lat="39.65034325607120990753173828125" lon="-7.67218085937201976776123046875">
        <ele>76.8000030517578125</ele>
        <time>2019-04-27T07:48:04.000Z</time>
      </trkpt>
      <trkpt lat="39.65034409426152706146240234375" lon="-7.6721576415002346038818359375">
        <ele>76.59999847412109375</ele>
        <time>2019-04-27T07:48:12.000Z</time>
      </trkpt>
      <trkpt lat="39.650391452014446258544921875" lon="-7.671925462782382965087890625">
        <ele>76.1999969482421875</ele>
        <time>2019-04-27T07:48:36.000Z</time>
      </trkpt>
      <trkpt lat="39.6503916196525096893310546875" lon="-7.6719232834875583648681640625">
        <ele>76.1999969482421875</ele>
        <time>2019-04-27T07:48:37.000Z</time>
      </trkpt>
      <trkpt lat="39.65041986666619777679443359375" lon="-7.6719353534281253814697265625">
        <ele>76.40000152587890625</ele>
        <time>2019-04-27T07:48:55.000Z</time>
      </trkpt>
      <trkpt lat="39.65039505623281002044677734375" lon="-7.6719497703015804290771484375">
        <ele>76.1999969482421875</ele>
        <time>2019-04-27T07:49:01.000Z</time>
      </trkpt>
      <trkpt lat="39.650400839745998382568359375" lon="-7.67184306867420673370361328125">
        <ele>75.8000030517578125</ele>
        <time>2019-04-27T07:49:26.000Z</time>
      </trkpt>
      <trkpt lat="39.650308303534984588623046875" lon="-7.67114351503551006317138671875">
        <ele>73.1999969482421875</ele>
        <time>2019-04-27T07:49:49.000Z</time>
      </trkpt>
      <trkpt lat="39.65022607706487178802490234375" lon="-7.670448906719684600830078125">
        <ele>74.8000030517578125</ele>
        <time>2019-04-27T07:50:12.000Z</time>
      </trkpt>
      <trkpt lat="39.65025700628757476806640625" lon="-7.66974725760519504547119140625">
        <ele>78.40000152587890625</ele>
        <time>2019-04-27T07:50:31.000Z</time>
      </trkpt>
      <trkpt lat="39.6501173637807369232177734375" lon="-7.669076956808567047119140625">
        <ele>82</ele>
        <time>2019-04-27T07:50:57.000Z</time>
      </trkpt>
      <trkpt lat="39.65023781172931194305419921875" lon="-7.66880865208804607391357421875">
        <ele>83.59999847412109375</ele>
        <time>2019-04-27T07:51:09.000Z</time>
      </trkpt>
      <trkpt lat="39.650292880833148956298828125" lon="-7.66867521218955516815185546875">
        <ele>84.40000152587890625</ele>
        <time>2019-04-27T07:51:16.000Z</time>
      </trkpt>
      <trkpt lat="39.65036421082913875579833984375" lon="-7.6685343123972415924072265625">
        <ele>85.40000152587890625</ele>
        <time>2019-04-27T07:51:23.000Z</time>
      </trkpt>
      <trkpt lat="39.65038885362446308135986328125" lon="-7.66849257051944732666015625">
        <ele>85.59999847412109375</ele>
        <time>2019-04-27T07:51:25.000Z</time>
      </trkpt>
      <trkpt lat="39.65091574005782604217529296875" lon="-7.6682328991591930389404296875">
        <ele>87.59999847412109375</ele>
        <time>2019-04-27T07:51:50.000Z</time>
      </trkpt>
      <trkpt lat="39.651392586529254913330078125" lon="-7.66791522502899169921875">
        <ele>91</ele>
        <time>2019-04-27T07:52:12.000Z</time>
      </trkpt>
      <trkpt lat="39.6516774035990238189697265625" lon="-7.66780466772615909576416015625">
        <ele>94</ele>
        <time>2019-04-27T07:52:24.000Z</time>
      </trkpt>
      <trkpt lat="39.65179014019668102264404296875" lon="-7.66775990836322307586669921875">
        <ele>95.1999969482421875</ele>
        <time>2019-04-27T07:52:29.000Z</time>
      </trkpt>
      <trkpt lat="39.65220294892787933349609375" lon="-7.66756712459027767181396484375">
        <ele>98.40000152587890625</ele>
        <time>2019-04-27T07:52:50.000Z</time>
      </trkpt>
      <trkpt lat="39.65234703384339809417724609375" lon="-7.66752563416957855224609375">
        <ele>99.1999969482421875</ele>
        <time>2019-04-27T07:52:58.000Z</time>
      </trkpt>
      <trkpt lat="39.6525295078754425048828125" lon="-7.6674376241862773895263671875">
        <ele>100.1999969482421875</ele>
        <time>2019-04-27T07:53:08.000Z</time>
      </trkpt>
      <trkpt lat="39.6530496887862682342529296875" lon="-7.667195387184619903564453125">
        <ele>103.1999969482421875</ele>
        <time>2019-04-27T07:53:30.000Z</time>
      </trkpt>
      <trkpt lat="39.6532646007835865020751953125" lon="-7.66710846684873104095458984375">
        <ele>104.40000152587890625</ele>
        <time>2019-04-27T07:53:42.000Z</time>
      </trkpt>
      <trkpt lat="39.6532858908176422119140625" lon="-7.66709757037460803985595703125">
        <ele>104.59999847412109375</ele>
        <time>2019-04-27T07:53:44.000Z</time>
      </trkpt>
      <trkpt lat="39.6536287106573581695556640625" lon="-7.6669796369969844818115234375">
        <ele>104.8000030517578125</ele>
        <time>2019-04-27T07:53:59.000Z</time>
      </trkpt>
      <trkpt lat="39.6536399424076080322265625" lon="-7.666986174881458282470703125">
        <ele>104.59999847412109375</ele>
        <time>2019-04-27T07:54:01.000Z</time>
      </trkpt>
      <trkpt lat="39.6536743082106113433837890625" lon="-7.66698106192052364349365234375">
        <ele>104.59999847412109375</ele>
        <time>2019-04-27T07:54:08.000Z</time>
      </trkpt>
      <trkpt lat="39.65375083498656749725341796875" lon="-7.666953988373279571533203125">
        <ele>104.8000030517578125</ele>
        <time>2019-04-27T07:54:12.000Z</time>
      </trkpt>
      <trkpt lat="39.654246456921100616455078125" lon="-7.666664980351924896240234375">
        <ele>108.40000152587890625</ele>
        <time>2019-04-27T07:54:36.000Z</time>
      </trkpt>
      <trkpt lat="39.65477812103927135467529296875" lon="-7.66641830094158649444580078125">
        <ele>109.1999969482421875</ele>
        <time>2019-04-27T07:54:57.000Z</time>
      </trkpt>
      <trkpt lat="39.6552772633731365203857421875" lon="-7.6661672629415988922119140625">
        <ele>109.59999847412109375</ele>
        <time>2019-04-27T07:55:11.000Z</time>
      </trkpt>
      <trkpt lat="39.65543542988598346710205078125" lon="-7.6660760678350925445556640625">
        <ele>109.59999847412109375</ele>
        <time>2019-04-27T07:55:18.000Z</time>
      </trkpt>
      <trkpt lat="39.6554596535861492156982421875" lon="-7.66606408171355724334716796875">
        <ele>109.40000152587890625</ele>
        <time>2019-04-27T07:55:23.000Z</time>
      </trkpt>
      <trkpt lat="39.65600506402552127838134765625" lon="-7.66586140729486942291259765625">
        <ele>107.1999969482421875</ele>
        <time>2019-04-27T07:55:41.000Z</time>
      </trkpt>
      <trkpt lat="39.65628552250564098358154296875" lon="-7.66538179479539394378662109375">
        <ele>106.8000030517578125</ele>
        <time>2019-04-27T07:55:54.000Z</time>
      </trkpt>
      <trkpt lat="39.6563303656876087188720703125" lon="-7.66528590582311153411865234375">
        <ele>106.8000030517578125</ele>
        <time>2019-04-27T07:55:56.000Z</time>
      </trkpt>
      <trkpt lat="39.6565700881183147430419921875" lon="-7.66464787535369396209716796875">
        <ele>104.8000030517578125</ele>
        <time>2019-04-27T07:56:11.000Z</time>
      </trkpt>
      <trkpt lat="39.656579978764057159423828125" lon="-7.664591968059539794921875">
        <ele>104.8000030517578125</ele>
        <time>2019-04-27T07:56:12.000Z</time>
      </trkpt>
      <trkpt lat="39.6566123329102993011474609375" lon="-7.66425576992332935333251953125">
        <ele>104.8000030517578125</ele>
        <time>2019-04-27T07:56:17.000Z</time>
      </trkpt>
      <trkpt lat="39.6566037833690643310546875" lon="-7.663524448871612548828125">
        <ele>103.40000152587890625</ele>
        <time>2019-04-27T07:56:25.000Z</time>
      </trkpt>
      <trkpt lat="39.6565881930291652679443359375" lon="-7.6627477817237377166748046875">
        <ele>101.1999969482421875</ele>
        <time>2019-04-27T07:56:33.000Z</time>
      </trkpt>
      <trkpt lat="39.65657872147858142852783203125" lon="-7.66266304068267345428466796875">
        <ele>100.8000030517578125</ele>
        <time>2019-04-27T07:56:34.000Z</time>
      </trkpt>
      <trkpt lat="39.65653178282082080841064453125" lon="-7.66242549754679203033447265625">
        <ele>100.40000152587890625</ele>
        <time>2019-04-27T07:56:37.000Z</time>
      </trkpt>
      <trkpt lat="39.6564929746091365814208984375" lon="-7.66231678426265716552734375">
        <ele>100.59999847412109375</ele>
        <time>2019-04-27T07:56:39.000Z</time>
      </trkpt>
      <trkpt lat="39.65642332099378108978271484375" lon="-7.66215342096984386444091796875">
        <ele>100</ele>
        <time>2019-04-27T07:56:43.000Z</time>
      </trkpt>
      <trkpt lat="39.65650328435003757476806640625" lon="-7.66184412874281406402587890625">
        <ele>97.8000030517578125</ele>
        <time>2019-04-27T07:56:51.000Z</time>
      </trkpt>
      <trkpt lat="39.6565259993076324462890625" lon="-7.6615307293832302093505859375">
        <ele>95.8000030517578125</ele>
        <time>2019-04-27T07:56:57.000Z</time>
      </trkpt>
      <trkpt lat="39.65641074813902378082275390625" lon="-7.6608058623969554901123046875">
        <ele>94.1999969482421875</ele>
        <time>2019-04-27T07:57:09.000Z</time>
      </trkpt>
      <trkpt lat="39.65629541315138339996337890625" lon="-7.66008711419999599456787109375">
        <ele>93</ele>
        <time>2019-04-27T07:57:20.000Z</time>
      </trkpt>
      <trkpt lat="39.65630731545388698577880859375" lon="-7.659367024898529052734375">
        <ele>89</ele>
        <time>2019-04-27T07:57:29.000Z</time>
      </trkpt>
      <trkpt lat="39.65632357634603977203369140625" lon="-7.6592796854674816131591796875">
        <ele>88.59999847412109375</ele>
        <time>2019-04-27T07:57:30.000Z</time>
      </trkpt>
      <trkpt lat="39.65635207481682300567626953125" lon="-7.65909570269286632537841796875">
        <ele>87.40000152587890625</ele>
        <time>2019-04-27T07:57:32.000Z</time>
      </trkpt>
      <trkpt lat="39.656463302671909332275390625" lon="-7.65839179046452045440673828125">
        <ele>81</ele>
        <time>2019-04-27T07:57:40.000Z</time>
      </trkpt>
      <trkpt lat="39.65656497515738010406494140625" lon="-7.657704390585422515869140625">
        <ele>84.1999969482421875</ele>
        <time>2019-04-27T07:57:49.000Z</time>
      </trkpt>
      <trkpt lat="39.65665818192064762115478515625" lon="-7.65695680864155292510986328125">
        <ele>87.40000152587890625</ele>
        <time>2019-04-27T07:58:00.000Z</time>
      </trkpt>
      <trkpt lat="39.65677469037473201751708984375" lon="-7.6563554070889949798583984375">
        <ele>89.1999969482421875</ele>
        <time>2019-04-27T07:58:10.000Z</time>
      </trkpt>
      <trkpt lat="39.65708331204950809478759765625" lon="-7.655724249780178070068359375">
        <ele>91.1999969482421875</ele>
        <time>2019-04-27T07:58:22.000Z</time>
      </trkpt>
      <trkpt lat="39.6573923528194427490234375" lon="-7.65539777465164661407470703125">
        <ele>90.1999969482421875</ele>
        <time>2019-04-27T07:58:30.000Z</time>
      </trkpt>
      <trkpt lat="39.657659232616424560546875" lon="-7.65540783293545246124267578125">
        <ele>88</ele>
        <time>2019-04-27T07:58:35.000Z</time>
      </trkpt>
      <trkpt lat="39.65783852152526378631591796875" lon="-7.6553965173661708831787109375">
        <ele>86.8000030517578125</ele>
        <time>2019-04-27T07:58:38.000Z</time>
      </trkpt>
      <trkpt lat="39.65838887728750705718994140625" lon="-7.6552848704159259796142578125">
        <ele>84.59999847412109375</ele>
        <time>2019-04-27T07:58:58.000Z</time>
      </trkpt>
      <trkpt lat="39.658941328525543212890625" lon="-7.65521907247602939605712890625">
        <ele>84</ele>
        <time>2019-04-27T07:59:15.000Z</time>
      </trkpt>
      <trkpt lat="39.65949344448745250701904296875" lon="-7.65514296479523181915283203125">
        <ele>84.8000030517578125</ele>
        <time>2019-04-27T07:59:34.000Z</time>
      </trkpt>
      <trkpt lat="39.6600542776286602020263671875" lon="-7.65505336225032806396484375">
        <ele>83.59999847412109375</ele>
        <time>2019-04-27T07:59:51.000Z</time>
      </trkpt>
      <trkpt lat="39.6606001071631908416748046875" lon="-7.6549831219017505645751953125">
        <ele>83.1999969482421875</ele>
        <time>2019-04-27T08:00:07.000Z</time>
      </trkpt>
      <trkpt lat="39.66116948984563350677490234375" lon="-7.6549107022583484649658203125">
        <ele>83.1999969482421875</ele>
        <time>2019-04-27T08:00:24.000Z</time>
      </trkpt>
      <trkpt lat="39.66172738932073116302490234375" lon="-7.65482394956052303314208984375">
        <ele>83.40000152587890625</ele>
        <time>2019-04-27T08:00:40.000Z</time>
      </trkpt>
      <trkpt lat="39.66227556578814983367919921875" lon="-7.65475152991712093353271484375">
        <ele>84</ele>
        <time>2019-04-27T08:00:56.000Z</time>
      </trkpt>
      <trkpt lat="39.66284302063286304473876953125" lon="-7.65466972254216670989990234375">
        <ele>84.1999969482421875</ele>
        <time>2019-04-27T08:01:12.000Z</time>
      </trkpt>
      <trkpt lat="39.66339035890996456146240234375" lon="-7.65458221547305583953857421875">
        <ele>85.40000152587890625</ele>
        <time>2019-04-27T08:01:26.000Z</time>
      </trkpt>
      <trkpt lat="39.66356755234301090240478515625" lon="-7.6545831374824047088623046875">
        <ele>85.8000030517578125</ele>
        <time>2019-04-27T08:01:30.000Z</time>
      </trkpt>
      <trkpt lat="39.66412327252328395843505859375" lon="-7.65467961318790912628173828125">
        <ele>86.8000030517578125</ele>
        <time>2019-04-27T08:01:43.000Z</time>
      </trkpt>
      <trkpt lat="39.66460439376533031463623046875" lon="-7.65473493374884128570556640625">
        <ele>86.8000030517578125</ele>
        <time>2019-04-27T08:01:54.000Z</time>
      </trkpt>
      <trkpt lat="39.6647303737699985504150390625" lon="-7.65475027263164520263671875">
        <ele>86.59999847412109375</ele>
        <time>2019-04-27T08:01:57.000Z</time>
      </trkpt>
      <trkpt lat="39.66485534794628620147705078125" lon="-7.65476410277187824249267578125">
        <ele>86.40000152587890625</ele>
        <time>2019-04-27T08:02:00.000Z</time>
      </trkpt>
      <trkpt lat="39.665425904095172882080078125" lon="-7.6548339240252971649169921875">
        <ele>86.40000152587890625</ele>
        <time>2019-04-27T08:02:14.000Z</time>
      </trkpt>
      <trkpt lat="39.66554970480501651763916015625" lon="-7.654844485223293304443359375">
        <ele>86.40000152587890625</ele>
        <time>2019-04-27T08:02:17.000Z</time>
      </trkpt>
      <trkpt lat="39.66612336225807666778564453125" lon="-7.65488681383430957794189453125">
        <ele>87</ele>
        <time>2019-04-27T08:02:31.000Z</time>
      </trkpt>
      <trkpt lat="39.66670238412916660308837890625" lon="-7.654895447194576263427734375">
        <ele>86.8000030517578125</ele>
        <time>2019-04-27T08:02:44.000Z</time>
      </trkpt>
      <trkpt lat="39.66729045845568180084228515625" lon="-7.6549137197434902191162109375">
        <ele>86.1999969482421875</ele>
        <time>2019-04-27T08:02:56.000Z</time>
      </trkpt>
      <trkpt lat="39.66769362799823284149169921875" lon="-7.6549381949007511138916015625">
        <ele>86.1999969482421875</ele>
        <time>2019-04-27T08:03:05.000Z</time>
      </trkpt>
      <trkpt lat="39.66825353913009166717529296875" lon="-7.65494733117520809173583984375">
        <ele>86.8000030517578125</ele>
        <time>2019-04-27T08:03:18.000Z</time>
      </trkpt>
      <trkpt lat="39.668564088642597198486328125" lon="-7.6549562998116016387939453125">
        <ele>87.1999969482421875</ele>
        <time>2019-04-27T08:03:25.000Z</time>
      </trkpt>
      <trkpt lat="39.66874304227530956268310546875" lon="-7.654953785240650177001953125">
        <ele>87.40000152587890625</ele>
        <time>2019-04-27T08:03:29.000Z</time>
      </trkpt>
      <trkpt lat="39.66883557848632335662841796875" lon="-7.65496208332479000091552734375">
        <ele>87.59999847412109375</ele>
        <time>2019-04-27T08:03:31.000Z</time>
      </trkpt>
      <trkpt lat="39.6689749695360660552978515625" lon="-7.65496074222028255462646484375">
        <ele>88</ele>
        <time>2019-04-27T08:03:34.000Z</time>
      </trkpt>
      <trkpt lat="39.669156856834888458251953125" lon="-7.65496308915317058563232421875">
        <ele>88.40000152587890625</ele>
        <time>2019-04-27T08:03:38.000Z</time>
      </trkpt>
      <trkpt lat="39.66973847709596157073974609375" lon="-7.65495814383029937744140625">
        <ele>89</ele>
        <time>2019-04-27T08:03:51.000Z</time>
      </trkpt>
      <trkpt lat="39.6702952869236469268798828125" lon="-7.65490173362195491790771484375">
        <ele>88.59999847412109375</ele>
        <time>2019-04-27T08:04:04.000Z</time>
      </trkpt>
      <trkpt lat="39.670555628836154937744140625" lon="-7.65487977303564548492431640625">
        <ele>88.59999847412109375</ele>
        <time>2019-04-27T08:04:10.000Z</time>
      </trkpt>
      <trkpt lat="39.67097564600408077239990234375" lon="-7.654803581535816192626953125">
        <ele>88.1999969482421875</ele>
        <time>2019-04-27T08:04:20.000Z</time>
      </trkpt>
      <trkpt lat="39.67150420881807804107666015625" lon="-7.65461440198123455047607421875">
        <ele>89</ele>
        <time>2019-04-27T08:04:33.000Z</time>
      </trkpt>
      <trkpt lat="39.6715415082871913909912109375" lon="-7.65459747053682804107666015625">
        <ele>89</ele>
        <time>2019-04-27T08:04:34.000Z</time>
      </trkpt>
      <trkpt lat="39.67207602225244045257568359375" lon="-7.654414661228656768798828125">
        <ele>91</ele>
        <time>2019-04-27T08:04:48.000Z</time>
      </trkpt>
      <trkpt lat="39.67263065278530120849609375" lon="-7.6543258130550384521484375">
        <ele>92</ele>
        <time>2019-04-27T08:05:02.000Z</time>
      </trkpt>
      <trkpt lat="39.673188887536525726318359375" lon="-7.6542103104293346405029296875">
        <ele>92.1999969482421875</ele>
        <time>2019-04-27T08:05:15.000Z</time>
      </trkpt>
      <trkpt lat="39.67373907566070556640625" lon="-7.65410612337291240692138671875">
        <ele>91.59999847412109375</ele>
        <time>2019-04-27T08:05:28.000Z</time>
      </trkpt>
      <trkpt lat="39.67424659989774227142333984375" lon="-7.65430234372615814208984375">
        <ele>90.1999969482421875</ele>
        <time>2019-04-27T08:05:46.000Z</time>
      </trkpt>
      <trkpt lat="39.67481506057083606719970703125" lon="-7.65433846972882747650146484375">
        <ele>91</ele>
        <time>2019-04-27T08:06:03.000Z</time>
      </trkpt>
      <trkpt lat="39.67535485513508319854736328125" lon="-7.65424962155520915985107421875">
        <ele>93</ele>
        <time>2019-04-27T08:06:19.000Z</time>
      </trkpt>
      <trkpt lat="39.67591024003922939300537109375" lon="-7.65425205230712890625">
        <ele>93.59999847412109375</ele>
        <time>2019-04-27T08:06:38.000Z</time>
      </trkpt>
      <trkpt lat="39.6764548122882843017578125" lon="-7.65431148000061511993408203125">
        <ele>94.8000030517578125</ele>
        <time>2019-04-27T08:06:56.000Z</time>
      </trkpt>
      <trkpt lat="39.676973819732666015625" lon="-7.65461188741028308868408203125">
        <ele>95</ele>
        <time>2019-04-27T08:07:11.000Z</time>
      </trkpt>
      <trkpt lat="39.677519313991069793701171875" lon="-7.65480634756386280059814453125">
        <ele>96.1999969482421875</ele>
        <time>2019-04-27T08:07:27.000Z</time>
      </trkpt>
      <trkpt lat="39.6780679933726787567138671875" lon="-7.6550106145441532135009765625">
        <ele>97.59999847412109375</ele>
        <time>2019-04-27T08:07:42.000Z</time>
      </trkpt>
      <trkpt lat="39.6785977296531200408935546875" lon="-7.65520046465098857879638671875">
        <ele>97.8000030517578125</ele>
        <time>2019-04-27T08:07:57.000Z</time>
      </trkpt>
      <trkpt lat="39.67915646731853485107421875" lon="-7.65529015101492404937744140625">
        <ele>98.8000030517578125</ele>
        <time>2019-04-27T08:08:11.000Z</time>
      </trkpt>
      <trkpt lat="39.67969584278762340545654296875" lon="-7.65524472109973430633544921875">
        <ele>101</ele>
        <time>2019-04-27T08:08:26.000Z</time>
      </trkpt>
      <trkpt lat="39.67974060215055942535400390625" lon="-7.65524446964263916015625">
        <ele>101.1999969482421875</ele>
        <time>2019-04-27T08:08:27.000Z</time>
      </trkpt>
      <trkpt lat="39.6802838332951068878173828125" lon="-7.655185796320438385009765625">
        <ele>104.40000152587890625</ele>
        <time>2019-04-27T08:08:42.000Z</time>
      </trkpt>
      <trkpt lat="39.6808276511728763580322265625" lon="-7.6553039811551570892333984375">
        <ele>105.40000152587890625</ele>
        <time>2019-04-27T08:08:57.000Z</time>
      </trkpt>
      <trkpt lat="39.681350849568843841552734375" lon="-7.65550623647868633270263671875">
        <ele>104.8000030517578125</ele>
        <time>2019-04-27T08:09:11.000Z</time>
      </trkpt>
      <trkpt lat="39.68189768493175506591796875" lon="-7.6556888781487941741943359375">
        <ele>105.59999847412109375</ele>
        <time>2019-04-27T08:09:25.000Z</time>
      </trkpt>
      <trkpt lat="39.682372771203517913818359375" lon="-7.655724585056304931640625">
        <ele>107.1999969482421875</ele>
        <time>2019-04-27T08:09:37.000Z</time>
      </trkpt>
      <trkpt lat="39.68245550058782100677490234375" lon="-7.6557321287691593170166015625">
        <ele>107.59999847412109375</ele>
        <time>2019-04-27T08:09:39.000Z</time>
      </trkpt>
      <trkpt lat="39.68300518579781055450439453125" lon="-7.655716873705387115478515625">
        <ele>109.1999969482421875</ele>
        <time>2019-04-27T08:09:51.000Z</time>
      </trkpt>
      <trkpt lat="39.68352654017508029937744140625" lon="-7.655454687774181365966796875">
        <ele>108.1999969482421875</ele>
        <time>2019-04-27T08:10:05.000Z</time>
      </trkpt>
      <trkpt lat="39.68401956371963024139404296875" lon="-7.65511614270508289337158203125">
        <ele>109.8000030517578125</ele>
        <time>2019-04-27T08:10:22.000Z</time>
      </trkpt>
      <trkpt lat="39.68448760919272899627685546875" lon="-7.654751278460025787353515625">
        <ele>112.59999847412109375</ele>
        <time>2019-04-27T08:10:38.000Z</time>
      </trkpt>
      <trkpt lat="39.68488893471658229827880859375" lon="-7.65429136343300342559814453125">
        <ele>117.1999969482421875</ele>
        <time>2019-04-27T08:11:01.000Z</time>
      </trkpt>
      <trkpt lat="39.68537575565278530120849609375" lon="-7.6541298441588878631591796875">
        <ele>120.1999969482421875</ele>
        <time>2019-04-27T08:11:27.000Z</time>
      </trkpt>
      <trkpt lat="39.68571421690285205841064453125" lon="-7.65374100767076015472412109375">
        <ele>124.40000152587890625</ele>
        <time>2019-04-27T08:11:51.000Z</time>
      </trkpt>
      <trkpt lat="39.6859127841889858245849609375" lon="-7.65354470349848270416259765625">
        <ele>126.59999847412109375</ele>
        <time>2019-04-27T08:12:01.000Z</time>
      </trkpt>
      <trkpt lat="39.68633380718529224395751953125" lon="-7.65311270020902156829833984375">
        <ele>130.1999969482421875</ele>
        <time>2019-04-27T08:12:20.000Z</time>
      </trkpt>
      <trkpt lat="39.68648015521466732025146484375" lon="-7.65296467579901218414306640625">
        <ele>131.1999969482421875</ele>
        <time>2019-04-27T08:12:29.000Z</time>
      </trkpt>
      <trkpt lat="39.686643518507480621337890625" lon="-7.65298160724341869354248046875">
        <ele>132.8000030517578125</ele>
        <time>2019-04-27T08:12:36.000Z</time>
      </trkpt>
      <trkpt lat="39.68719814904034137725830078125" lon="-7.65296459197998046875">
        <ele>136.600006103515625</ele>
        <time>2019-04-27T08:12:57.000Z</time>
      </trkpt>
      <trkpt lat="39.687428064644336700439453125" lon="-7.6528725586831569671630859375">
        <ele>137.8000030517578125</ele>
        <time>2019-04-27T08:13:11.000Z</time>
      </trkpt>
      <trkpt lat="39.687473662197589874267578125" lon="-7.6528457365930080413818359375">
        <ele>138</ele>
        <time>2019-04-27T08:13:18.000Z</time>
      </trkpt>
      <trkpt lat="39.6876622550189495086669921875" lon="-7.6527350954711437225341796875">
        <ele>138.8000030517578125</ele>
        <time>2019-04-27T08:13:27.000Z</time>
      </trkpt>
      <trkpt lat="39.68814932741224765777587890625" lon="-7.65275429002940654754638671875">
        <ele>136</ele>
        <time>2019-04-27T08:13:52.000Z</time>
      </trkpt>
      <trkpt lat="39.68819827772676944732666015625" lon="-7.652765773236751556396484375">
        <ele>136</ele>
        <time>2019-04-27T08:14:46.000Z</time>
      </trkpt>
      <trkpt lat="39.68873840756714344024658203125" lon="-7.652726881206035614013671875">
        <ele>139.399993896484375</ele>
        <time>2019-04-27T08:15:11.000Z</time>
      </trkpt>
      <trkpt lat="39.68875315971672534942626953125" lon="-7.6527267135679721832275390625">
        <ele>139.600006103515625</ele>
        <time>2019-04-27T08:15:14.000Z</time>
      </trkpt>
      <trkpt lat="39.6887690015137195587158203125" lon="-7.6527196727693080902099609375">
        <ele>140</ele>
        <time>2019-04-27T08:16:10.000Z</time>
      </trkpt>
      <trkpt lat="39.6887659840285778045654296875" lon="-7.65266351401805877685546875">
        <ele>141.600006103515625</ele>
        <time>2019-04-27T08:16:14.000Z</time>
      </trkpt>
      <trkpt lat="39.6892967261373996734619140625" lon="-7.65246980823576450347900390625">
        <ele>151.600006103515625</ele>
        <time>2019-04-27T08:16:40.000Z</time>
      </trkpt>
      <trkpt lat="39.68962890096008777618408203125" lon="-7.6521577499806880950927734375">
        <ele>157.399993896484375</ele>
        <time>2019-04-27T08:17:03.000Z</time>
      </trkpt>
      <trkpt lat="39.6896566450595855712890625" lon="-7.652122043073177337646484375">
        <ele>158.1999969482421875</ele>
        <time>2019-04-27T08:17:07.000Z</time>
      </trkpt>
      <trkpt lat="39.6901194937527179718017578125" lon="-7.65177209861576557159423828125">
        <ele>170.600006103515625</ele>
        <time>2019-04-27T08:17:55.000Z</time>
      </trkpt>
      <trkpt lat="39.69020071439445018768310546875" lon="-7.65174577943980693817138671875">
        <ele>172.8000030517578125</ele>
        <time>2019-04-27T08:18:05.000Z</time>
      </trkpt>
      <trkpt lat="39.69024882651865482330322265625" lon="-7.6517369784414768218994140625">
        <ele>174</ele>
        <time>2019-04-27T08:18:13.000Z</time>
      </trkpt>
      <trkpt lat="39.6906934864819049835205078125" lon="-7.652045600116252899169921875">
        <ele>181.1999969482421875</ele>
        <time>2019-04-27T08:18:38.000Z</time>
      </trkpt>
      <trkpt lat="39.691142924129962921142578125" lon="-7.652239389717578887939453125">
        <ele>183.399993896484375</ele>
        <time>2019-04-27T08:19:08.000Z</time>
      </trkpt>
      <trkpt lat="39.69114837236702442169189453125" lon="-7.65222488902509212493896484375">
        <ele>183.600006103515625</ele>
        <time>2019-04-27T08:19:09.000Z</time>
      </trkpt>
      <trkpt lat="39.69140418805181980133056640625" lon="-7.6516065560281276702880859375">
        <ele>194</ele>
        <time>2019-04-27T08:19:42.000Z</time>
      </trkpt>
      <trkpt lat="39.6916186809539794921875" lon="-7.6511259377002716064453125">
        <ele>198.8000030517578125</ele>
        <time>2019-04-27T08:20:13.000Z</time>
      </trkpt>
      <trkpt lat="39.691624380648136138916015625" lon="-7.6510872133076190948486328125">
        <ele>199</ele>
        <time>2019-04-27T08:22:01.000Z</time>
      </trkpt>
      <trkpt lat="39.69164944253861904144287109375" lon="-7.6503921858966350555419921875">
        <ele>205.8000030517578125</ele>
        <time>2019-04-27T08:22:35.000Z</time>
      </trkpt>
      <trkpt lat="39.6918766759335994720458984375" lon="-7.64979220926761627197265625">
        <ele>215.399993896484375</ele>
        <time>2019-04-27T08:23:06.000Z</time>
      </trkpt>
      <trkpt lat="39.69194783829152584075927734375" lon="-7.64916121959686279296875">
        <ele>225.1999969482421875</ele>
        <time>2019-04-27T08:23:39.000Z</time>
      </trkpt>
      <trkpt lat="39.691959656774997711181640625" lon="-7.6490192301571369171142578125">
        <ele>224.1999969482421875</ele>
        <time>2019-04-27T08:23:46.000Z</time>
      </trkpt>
      <trkpt lat="39.69195504672825336456298828125" lon="-7.648904062807559967041015625">
        <ele>223.1999969482421875</ele>
        <time>2019-04-27T08:23:52.000Z</time>
      </trkpt>
      <trkpt lat="39.6919561363756656646728515625" lon="-7.64886257238686084747314453125">
        <ele>222.8000030517578125</ele>
        <time>2019-04-27T08:23:55.000Z</time>
      </trkpt>
      <trkpt lat="39.691954962909221649169921875" lon="-7.6488660089671611785888671875">
        <ele>222.8000030517578125</ele>
        <time>2019-04-27T08:23:56.000Z</time>
      </trkpt>
      <trkpt lat="39.69201363623142242431640625" lon="-7.64883734285831451416015625">
        <ele>223.600006103515625</ele>
        <time>2019-04-27T08:27:41.000Z</time>
      </trkpt>
      <trkpt lat="39.692116566002368927001953125" lon="-7.6488019712269306182861328125">
        <ele>225.1999969482421875</ele>
        <time>2019-04-27T08:27:48.000Z</time>
      </trkpt>
      <trkpt lat="39.692638255655765533447265625" lon="-7.648622095584869384765625">
        <ele>232</ele>
        <time>2019-04-27T08:28:24.000Z</time>
      </trkpt>
      <trkpt lat="39.6926729567348957061767578125" lon="-7.648578844964504241943359375">
        <ele>232.1999969482421875</ele>
        <time>2019-04-27T08:28:26.000Z</time>
      </trkpt>
      <trkpt lat="39.69282659702003002166748046875" lon="-7.64846258796751499176025390625">
        <ele>233.399993896484375</ele>
        <time>2019-04-27T08:28:34.000Z</time>
      </trkpt>
      <trkpt lat="39.69294662587344646453857421875" lon="-7.64840927906334400177001953125">
        <ele>234.8000030517578125</ele>
        <time>2019-04-27T08:28:41.000Z</time>
      </trkpt>
      <trkpt lat="39.6934742666780948638916015625" lon="-7.64831674285233020782470703125">
        <ele>241.1999969482421875</ele>
        <time>2019-04-27T08:29:13.000Z</time>
      </trkpt>
      <trkpt lat="39.69351726584136486053466796875" lon="-7.64829746447503566741943359375">
        <ele>241.600006103515625</ele>
        <time>2019-04-27T08:29:16.000Z</time>
      </trkpt>
      <trkpt lat="39.693585745990276336669921875" lon="-7.64826527796685695648193359375">
        <ele>242.399993896484375</ele>
        <time>2019-04-27T08:29:24.000Z</time>
      </trkpt>
      <trkpt lat="39.69362438656389713287353515625" lon="-7.6482514478266239166259765625">
        <ele>242.8000030517578125</ele>
        <time>2019-04-27T08:29:37.000Z</time>
      </trkpt>
      <trkpt lat="39.69418220221996307373046875" lon="-7.64823711477220058441162109375">
        <ele>247.399993896484375</ele>
        <time>2019-04-27T08:29:58.000Z</time>
      </trkpt>
      <trkpt lat="39.69471872784197330474853515625" lon="-7.64836166985332965850830078125">
        <ele>252</ele>
        <time>2019-04-27T08:30:27.000Z</time>
      </trkpt>
      <trkpt lat="39.695212505757808685302734375" lon="-7.648220099508762359619140625">
        <ele>257.600006103515625</ele>
        <time>2019-04-27T08:30:54.000Z</time>
      </trkpt>
      <trkpt lat="39.6956029348075389862060546875" lon="-7.64785372652113437652587890625">
        <ele>261</ele>
        <time>2019-04-27T08:31:20.000Z</time>
      </trkpt>
      <trkpt lat="39.6956203691661357879638671875" lon="-7.64780695550143718719482421875">
        <ele>261.20001220703125</ele>
        <time>2019-04-27T08:31:24.000Z</time>
      </trkpt>
      <trkpt lat="39.69564174301922321319580078125" lon="-7.6477944664657115936279296875">
        <ele>261.399993896484375</ele>
        <time>2019-04-27T08:31:27.000Z</time>
      </trkpt>
      <trkpt lat="39.6956552378833293914794921875" lon="-7.64775180257856845855712890625">
        <ele>261.399993896484375</ele>
        <time>2019-04-27T08:34:33.000Z</time>
      </trkpt>
      <trkpt lat="39.6957682259380817413330078125" lon="-7.6476097293198108673095703125">
        <ele>262.20001220703125</ele>
        <time>2019-04-27T08:34:38.000Z</time>
      </trkpt>
      <trkpt lat="39.69625077210366725921630859375" lon="-7.6472754590213298797607421875">
        <ele>263.79998779296875</ele>
        <time>2019-04-27T08:34:53.000Z</time>
      </trkpt>
      <trkpt lat="39.69676382839679718017578125" lon="-7.64695602469146251678466796875">
        <ele>266</ele>
        <time>2019-04-27T08:35:13.000Z</time>
      </trkpt>
      <trkpt lat="39.697122909128665924072265625" lon="-7.64647859148681163787841796875">
        <ele>267.600006103515625</ele>
        <time>2019-04-27T08:35:34.000Z</time>
      </trkpt>
      <trkpt lat="39.69699181616306304931640625" lon="-7.6458002440631389617919921875">
        <ele>268.600006103515625</ele>
        <time>2019-04-27T08:35:56.000Z</time>
      </trkpt>
      <trkpt lat="39.69723648391664028167724609375" lon="-7.64518911950290203094482421875">
        <ele>270.79998779296875</ele>
        <time>2019-04-27T08:36:15.000Z</time>
      </trkpt>
      <trkpt lat="39.69770737923681735992431640625" lon="-7.6447970978915691375732421875">
        <ele>275.399993896484375</ele>
        <time>2019-04-27T08:36:39.000Z</time>
      </trkpt>
      <trkpt lat="39.69779773615300655364990234375" lon="-7.64414037577807903289794921875">
        <ele>278.600006103515625</ele>
        <time>2019-04-27T08:36:59.000Z</time>
      </trkpt>
      <trkpt lat="39.697495400905609130859375" lon="-7.6435347832739353179931640625">
        <ele>279</ele>
        <time>2019-04-27T08:37:19.000Z</time>
      </trkpt>
      <trkpt lat="39.6973601169884204864501953125" lon="-7.642838917672634124755859375">
        <ele>280.20001220703125</ele>
        <time>2019-04-27T08:37:35.000Z</time>
      </trkpt>
      <trkpt lat="39.6974573470652103424072265625" lon="-7.64213793911039829254150390625">
        <ele>279.20001220703125</ele>
        <time>2019-04-27T08:37:50.000Z</time>
      </trkpt>
      <trkpt lat="39.69748207367956638336181640625" lon="-7.6417977176606655120849609375">
        <ele>274.79998779296875</ele>
        <time>2019-04-27T08:37:55.000Z</time>
      </trkpt>
      <trkpt lat="39.6975847519934177398681640625" lon="-7.6415006630122661590576171875">
        <ele>272.20001220703125</ele>
        <time>2019-04-27T08:37:59.000Z</time>
      </trkpt>
      <trkpt lat="39.69779589213430881500244140625" lon="-7.64121643267571926116943359375">
        <ele>271.20001220703125</ele>
        <time>2019-04-27T08:38:04.000Z</time>
      </trkpt>
      <trkpt lat="39.6978414058685302734375" lon="-7.64117519371211528778076171875">
        <ele>271.20001220703125</ele>
        <time>2019-04-27T08:38:05.000Z</time>
      </trkpt>
      <trkpt lat="39.6983040869235992431640625" lon="-7.64075157232582569122314453125">
        <ele>272.600006103515625</ele>
        <time>2019-04-27T08:38:21.000Z</time>
      </trkpt>
      <trkpt lat="39.6988024748861789703369140625" lon="-7.64051184989511966705322265625">
        <ele>276.399993896484375</ele>
        <time>2019-04-27T08:38:38.000Z</time>
      </trkpt>
      <trkpt lat="39.69933874905109405517578125" lon="-7.64035913161933422088623046875">
        <ele>280.600006103515625</ele>
        <time>2019-04-27T08:39:01.000Z</time>
      </trkpt>
      <trkpt lat="39.69965281896293163299560546875" lon="-7.63977491296827793121337890625">
        <ele>279.79998779296875</ele>
        <time>2019-04-27T08:39:22.000Z</time>
      </trkpt>
      <trkpt lat="39.70005565322935581207275390625" lon="-7.63931072317063808441162109375">
        <ele>279.20001220703125</ele>
        <time>2019-04-27T08:39:34.000Z</time>
      </trkpt>
      <trkpt lat="39.70009001903235912322998046875" lon="-7.6392714120447635650634765625">
        <ele>279.20001220703125</ele>
        <time>2019-04-27T08:39:35.000Z</time>
      </trkpt>
      <trkpt lat="39.69996697269380092620849609375" lon="-7.6389777101576328277587890625">
        <ele>276.20001220703125</ele>
        <time>2019-04-27T08:39:47.000Z</time>
      </trkpt>
      <trkpt lat="39.69985096715390682220458984375" lon="-7.63892683200538158416748046875">
        <ele>274.79998779296875</ele>
        <time>2019-04-27T08:39:50.000Z</time>
      </trkpt>
      <trkpt lat="39.699761867523193359375" lon="-7.63870823197066783905029296875">
        <ele>275.600006103515625</ele>
        <time>2019-04-27T08:39:54.000Z</time>
      </trkpt>
      <trkpt lat="39.69973294995725154876708984375" lon="-7.6385596208274364471435546875">
        <ele>276.600006103515625</ele>
        <time>2019-04-27T08:39:56.000Z</time>
      </trkpt>
      <trkpt lat="39.6997793018817901611328125" lon="-7.63831109739840030670166015625">
        <ele>277.600006103515625</ele>
        <time>2019-04-27T08:40:00.000Z</time>
      </trkpt>
      <trkpt lat="39.69988734461367130279541015625" lon="-7.63761154375970363616943359375">
        <ele>276.20001220703125</ele>
        <time>2019-04-27T08:40:15.000Z</time>
      </trkpt>
      <trkpt lat="39.6997241489589214324951171875" lon="-7.6372101344168186187744140625">
        <ele>275.79998779296875</ele>
        <time>2019-04-27T08:40:26.000Z</time>
      </trkpt>
      <trkpt lat="39.69917739741504192352294921875" lon="-7.63711533509194850921630859375">
        <ele>275.20001220703125</ele>
        <time>2019-04-27T08:40:36.000Z</time>
      </trkpt>
      <trkpt lat="39.69913230277597904205322265625" lon="-7.63710242696106433868408203125">
        <ele>275</ele>
        <time>2019-04-27T08:40:37.000Z</time>
      </trkpt>
      <trkpt lat="39.699078910052776336669921875" lon="-7.63686974532902240753173828125">
        <ele>274.600006103515625</ele>
        <time>2019-04-27T08:40:45.000Z</time>
      </trkpt>
      <trkpt lat="39.6994066424667835235595703125" lon="-7.6362633146345615386962890625">
        <ele>272.20001220703125</ele>
        <time>2019-04-27T08:41:01.000Z</time>
      </trkpt>
      <trkpt lat="39.699815176427364349365234375" lon="-7.63581253588199615478515625">
        <ele>271.79998779296875</ele>
        <time>2019-04-27T08:41:17.000Z</time>
      </trkpt>
      <trkpt lat="39.70017752610146999359130859375" lon="-7.63526863418519496917724609375">
        <ele>278.79998779296875</ele>
        <time>2019-04-27T08:41:34.000Z</time>
      </trkpt>
      <trkpt lat="39.700399897992610931396484375" lon="-7.63477544300258159637451171875">
        <ele>283.79998779296875</ele>
        <time>2019-04-27T08:41:52.000Z</time>
      </trkpt>
      <trkpt lat="39.7005982138216495513916015625" lon="-7.6350935362279415130615234375">
        <ele>283.600006103515625</ele>
        <time>2019-04-27T08:42:06.000Z</time>
      </trkpt>
      <trkpt lat="39.70110037364065647125244140625" lon="-7.6351250521838665008544921875">
        <ele>288</ele>
        <time>2019-04-27T08:42:29.000Z</time>
      </trkpt>
      <trkpt lat="39.70153547823429107666015625" lon="-7.63470704667270183563232421875">
        <ele>291.79998779296875</ele>
        <time>2019-04-27T08:42:49.000Z</time>
      </trkpt>
      <trkpt lat="39.70191274769604206085205078125" lon="-7.6342925615608692169189453125">
        <ele>294.399993896484375</ele>
        <time>2019-04-27T08:43:08.000Z</time>
      </trkpt>
      <trkpt lat="39.701976366341114044189453125" lon="-7.6342392526566982269287109375">
        <ele>294.600006103515625</ele>
        <time>2019-04-27T08:43:12.000Z</time>
      </trkpt>
      <trkpt lat="39.70198248513042926788330078125" lon="-7.63423296622931957244873046875">
        <ele>294.79998779296875</ele>
        <time>2019-04-27T08:43:14.000Z</time>
      </trkpt>
      <trkpt lat="39.70200084149837493896484375" lon="-7.63417865149676799774169921875">
        <ele>295</ele>
        <time>2019-04-27T08:43:21.000Z</time>
      </trkpt>
      <trkpt lat="39.70200209878385066986083984375" lon="-7.633907832205295562744140625">
        <ele>293.600006103515625</ele>
        <time>2019-04-27T08:43:29.000Z</time>
      </trkpt>
      <trkpt lat="39.70224534161388874053955078125" lon="-7.63326887972652912139892578125">
        <ele>292</ele>
        <time>2019-04-27T08:43:46.000Z</time>
      </trkpt>
      <trkpt lat="39.70268472097814083099365234375" lon="-7.632885910570621490478515625">
        <ele>293.79998779296875</ele>
        <time>2019-04-27T08:44:05.000Z</time>
      </trkpt>
      <trkpt lat="39.70318931154906749725341796875" lon="-7.6326334476470947265625">
        <ele>297.79998779296875</ele>
        <time>2019-04-27T08:44:26.000Z</time>
      </trkpt>
      <trkpt lat="39.70339785329997539520263671875" lon="-7.63244711793959140777587890625">
        <ele>299.600006103515625</ele>
        <time>2019-04-27T08:44:36.000Z</time>
      </trkpt>
      <trkpt lat="39.703433811664581298828125" lon="-7.63232340104877948760986328125">
        <ele>299.600006103515625</ele>
        <time>2019-04-27T08:44:40.000Z</time>
      </trkpt>
      <trkpt lat="39.70368501730263233184814453125" lon="-7.63177170418202877044677734375">
        <ele>301</ele>
        <time>2019-04-27T08:44:59.000Z</time>
      </trkpt>
      <trkpt lat="39.70421760343015193939208984375" lon="-7.63193431310355663299560546875">
        <ele>302.20001220703125</ele>
        <time>2019-04-27T08:45:16.000Z</time>
      </trkpt>
      <trkpt lat="39.70472202636301517486572265625" lon="-7.631780840456485748291015625">
        <ele>303</ele>
        <time>2019-04-27T08:45:36.000Z</time>
      </trkpt>
      <trkpt lat="39.70522619783878326416015625" lon="-7.63205350376665592193603515625">
        <ele>305.79998779296875</ele>
        <time>2019-04-27T08:45:56.000Z</time>
      </trkpt>
      <trkpt lat="39.7057212330400943756103515625" lon="-7.6317952573299407958984375">
        <ele>306.20001220703125</ele>
        <time>2019-04-27T08:46:12.000Z</time>
      </trkpt>
      <trkpt lat="39.7062514722347259521484375" lon="-7.631637342274188995361328125">
        <ele>305.600006103515625</ele>
        <time>2019-04-27T08:46:28.000Z</time>
      </trkpt>
      <trkpt lat="39.70655389130115509033203125" lon="-7.631588391959667205810546875">
        <ele>305.20001220703125</ele>
        <time>2019-04-27T08:46:36.000Z</time>
      </trkpt>
      <trkpt lat="39.70675103366374969482421875" lon="-7.63156928122043609619140625">
        <ele>305.20001220703125</ele>
        <time>2019-04-27T08:46:41.000Z</time>
      </trkpt>
      <trkpt lat="39.70691590569913387298583984375" lon="-7.63154287822544574737548828125">
        <ele>305</ele>
        <time>2019-04-27T08:46:45.000Z</time>
      </trkpt>
      <trkpt lat="39.70730960369110107421875" lon="-7.631538100540637969970703125">
        <ele>306.399993896484375</ele>
        <time>2019-04-27T08:46:54.000Z</time>
      </trkpt>
      <trkpt lat="39.707725681364536285400390625" lon="-7.631450593471527099609375">
        <ele>307.600006103515625</ele>
        <time>2019-04-27T08:47:05.000Z</time>
      </trkpt>
      <trkpt lat="39.70826639793813228607177734375" lon="-7.63137842528522014617919921875">
        <ele>307.79998779296875</ele>
        <time>2019-04-27T08:47:20.000Z</time>
      </trkpt>
      <trkpt lat="39.7087544761598110198974609375" lon="-7.63169643469154834747314453125">
        <ele>308.20001220703125</ele>
        <time>2019-04-27T08:47:35.000Z</time>
      </trkpt>
      <trkpt lat="39.70889034681022167205810546875" lon="-7.631726525723934173583984375">
        <ele>309</ele>
        <time>2019-04-27T08:47:38.000Z</time>
      </trkpt>
      <trkpt lat="39.709046669304370880126953125" lon="-7.63172158040106296539306640625">
        <ele>309.79998779296875</ele>
        <time>2019-04-27T08:47:41.000Z</time>
      </trkpt>
      <trkpt lat="39.70936778001487255096435546875" lon="-7.6317977719008922576904296875">
        <ele>311.399993896484375</ele>
        <time>2019-04-27T08:47:51.000Z</time>
      </trkpt>
      <trkpt lat="39.7094977833330631256103515625" lon="-7.63169090263545513153076171875">
        <ele>312.79998779296875</ele>
        <time>2019-04-27T08:48:01.000Z</time>
      </trkpt>
      <trkpt lat="39.710022322833538055419921875" lon="-7.6317719556391239166259765625">
        <ele>311.79998779296875</ele>
        <time>2019-04-27T08:48:20.000Z</time>
      </trkpt>
      <trkpt lat="39.7103041224181652069091796875" lon="-7.63210572302341461181640625">
        <ele>311.20001220703125</ele>
        <time>2019-04-27T08:48:29.000Z</time>
      </trkpt>
      <trkpt lat="39.71042742021381855010986328125" lon="-7.6321635581552982330322265625">
        <ele>310.79998779296875</ele>
        <time>2019-04-27T08:48:32.000Z</time>
      </trkpt>
      <trkpt lat="39.71084274351596832275390625" lon="-7.632179819047451019287109375">
        <ele>309.399993896484375</ele>
        <time>2019-04-27T08:48:49.000Z</time>
      </trkpt>
      <trkpt lat="39.71085422672331333160400390625" lon="-7.63217235915362834930419921875">
        <ele>309.399993896484375</ele>
        <time>2019-04-27T08:49:04.000Z</time>
      </trkpt>
      <trkpt lat="39.71088557504117488861083984375" lon="-7.63213581405580043792724609375">
        <ele>309.20001220703125</ele>
        <time>2019-04-27T08:49:06.000Z</time>
      </trkpt>
      <trkpt lat="39.7109855711460113525390625" lon="-7.632089294493198394775390625">
        <ele>309</ele>
        <time>2019-04-27T08:49:13.000Z</time>
      </trkpt>
      <trkpt lat="39.71102354116737842559814453125" lon="-7.63208560645580291748046875">
        <ele>309</ele>
        <time>2019-04-27T08:49:18.000Z</time>
      </trkpt>
      <trkpt lat="39.71105757169425487518310546875" lon="-7.63206356205046176910400390625">
        <ele>308.79998779296875</ele>
        <time>2019-04-27T08:49:30.000Z</time>
      </trkpt>
      <trkpt lat="39.71130483783781528472900390625" lon="-7.6318960078060626983642578125">
        <ele>308.20001220703125</ele>
        <time>2019-04-27T08:49:39.000Z</time>
      </trkpt>
      <trkpt lat="39.71156165935099124908447265625" lon="-7.63160540722310543060302734375">
        <ele>307.79998779296875</ele>
        <time>2019-04-27T08:49:45.000Z</time>
      </trkpt>
      <trkpt lat="39.71174891106784343719482421875" lon="-7.6314058341085910797119140625">
        <ele>308.399993896484375</ele>
        <time>2019-04-27T08:49:49.000Z</time>
      </trkpt>
      <trkpt lat="39.711842872202396392822265625" lon="-7.631339617073535919189453125">
        <ele>308.399993896484375</ele>
        <time>2019-04-27T08:49:51.000Z</time>
      </trkpt>
      <trkpt lat="39.71193146891891956329345703125" lon="-7.63128253631293773651123046875">
        <ele>308.600006103515625</ele>
        <time>2019-04-27T08:49:53.000Z</time>
      </trkpt>
      <trkpt lat="39.71233748830854892730712890625" lon="-7.63135604560375213623046875">
        <ele>308.20001220703125</ele>
        <time>2019-04-27T08:50:06.000Z</time>
      </trkpt>
      <trkpt lat="39.71286688931286334991455078125" lon="-7.631354369223117828369140625">
        <ele>307.600006103515625</ele>
        <time>2019-04-27T08:50:28.000Z</time>
      </trkpt>
      <trkpt lat="39.712903015315532684326171875" lon="-7.6313233561813831329345703125">
        <ele>307.79998779296875</ele>
        <time>2019-04-27T08:50:30.000Z</time>
      </trkpt>
      <trkpt lat="39.713033773005008697509765625" lon="-7.6311641000211238861083984375">
        <ele>308.399993896484375</ele>
        <time>2019-04-27T08:50:37.000Z</time>
      </trkpt>
      <trkpt lat="39.71344071440398693084716796875" lon="-7.63112001121044158935546875">
        <ele>308</ele>
        <time>2019-04-27T08:50:48.000Z</time>
      </trkpt>
      <trkpt lat="39.71360315568745136260986328125" lon="-7.63113074004650115966796875">
        <ele>309.399993896484375</ele>
        <time>2019-04-27T08:50:51.000Z</time>
      </trkpt>
      <trkpt lat="39.7137175686657428741455078125" lon="-7.63112965039908885955810546875">
        <ele>310.399993896484375</ele>
        <time>2019-04-27T08:50:53.000Z</time>
      </trkpt>
      <trkpt lat="39.713916219770908355712890625" lon="-7.63121095485985279083251953125">
        <ele>310.399993896484375</ele>
        <time>2019-04-27T08:50:57.000Z</time>
      </trkpt>
      <trkpt lat="39.7141299583017826080322265625" lon="-7.63128773309290409088134765625">
        <ele>310.399993896484375</ele>
        <time>2019-04-27T08:51:03.000Z</time>
      </trkpt>
      <trkpt lat="39.71469037234783172607421875" lon="-7.63116368092596530914306640625">
        <ele>308.79998779296875</ele>
        <time>2019-04-27T08:51:21.000Z</time>
      </trkpt>
      <trkpt lat="39.71514861099421977996826171875" lon="-7.63073000125586986541748046875">
        <ele>308.600006103515625</ele>
        <time>2019-04-27T08:51:37.000Z</time>
      </trkpt>
      <trkpt lat="39.71551238559186458587646484375" lon="-7.6302246563136577606201171875">
        <ele>305.600006103515625</ele>
        <time>2019-04-27T08:51:52.000Z</time>
      </trkpt>
      <trkpt lat="39.7155193425714969635009765625" lon="-7.630107812583446502685546875">
        <ele>304.79998779296875</ele>
        <time>2019-04-27T08:51:54.000Z</time>
      </trkpt>
      <trkpt lat="39.71552261151373386383056640625" lon="-7.62996674515306949615478515625">
        <ele>304</ele>
        <time>2019-04-27T08:51:56.000Z</time>
      </trkpt>
      <trkpt lat="39.71571790985763072967529296875" lon="-7.6297177188098430633544921875">
        <ele>303</ele>
        <time>2019-04-27T08:52:01.000Z</time>
      </trkpt>
      <trkpt lat="39.715788066387176513671875" lon="-7.6296349056065082550048828125">
        <ele>302.600006103515625</ele>
        <time>2019-04-27T08:52:03.000Z</time>
      </trkpt>
      <trkpt lat="39.7158650122582912445068359375" lon="-7.62916459701955318450927734375">
        <ele>300.20001220703125</ele>
        <time>2019-04-27T08:52:10.000Z</time>
      </trkpt>
      <trkpt lat="39.71586442552506923675537109375" lon="-7.62869252823293209075927734375">
        <ele>299</ele>
        <time>2019-04-27T08:52:16.000Z</time>
      </trkpt>
      <trkpt lat="39.71593894064426422119140625" lon="-7.6285834796726703643798828125">
        <ele>299</ele>
        <time>2019-04-27T08:52:21.000Z</time>
      </trkpt>
      <trkpt lat="39.7159474901854991912841796875" lon="-7.6285864971578121185302734375">
        <ele>299</ele>
        <time>2019-04-27T08:52:22.000Z</time>
      </trkpt>
      <trkpt lat="39.7159605659544467926025390625" lon="-7.62858808971941471099853515625">
        <ele>299</ele>
        <time>2019-04-27T08:52:25.000Z</time>
      </trkpt>
      <trkpt lat="39.71597624011337757110595703125" lon="-7.628614492714405059814453125">
        <ele>299</ele>
        <time>2019-04-27T08:52:31.000Z</time>
      </trkpt>
      <trkpt lat="39.71609492786228656768798828125" lon="-7.628682553768157958984375">
        <ele>299.600006103515625</ele>
        <time>2019-04-27T08:52:35.000Z</time>
      </trkpt>
      <trkpt lat="39.7166146896779537200927734375" lon="-7.62888095341622829437255859375">
        <ele>298.20001220703125</ele>
        <time>2019-04-27T08:52:46.000Z</time>
      </trkpt>
      <trkpt lat="39.71681007184088230133056640625" lon="-7.6289784349501132965087890625">
        <ele>296</ele>
        <time>2019-04-27T08:52:50.000Z</time>
      </trkpt>
      <trkpt lat="39.7169814817607402801513671875" lon="-7.62921622954308986663818359375">
        <ele>293.600006103515625</ele>
        <time>2019-04-27T08:52:54.000Z</time>
      </trkpt>
      <trkpt lat="39.7171786241233348846435546875" lon="-7.6294793374836444854736328125">
        <ele>291.79998779296875</ele>
        <time>2019-04-27T08:52:58.000Z</time>
      </trkpt>
      <trkpt lat="39.71740468405187129974365234375" lon="-7.62951873242855072021484375">
        <ele>290.79998779296875</ele>
        <time>2019-04-27T08:53:02.000Z</time>
      </trkpt>
      <trkpt lat="39.71741641871631145477294921875" lon="-7.63015500269830226898193359375">
        <ele>294.20001220703125</ele>
        <time>2019-04-27T08:53:20.000Z</time>
      </trkpt>
      <trkpt lat="39.71782847307622432708740234375" lon="-7.63062556274235248565673828125">
        <ele>296</ele>
        <time>2019-04-27T08:53:50.000Z</time>
      </trkpt>
      <trkpt lat="39.7181016393005847930908203125" lon="-7.6312083564698696136474609375">
        <ele>296.20001220703125</ele>
        <time>2019-04-27T08:54:16.000Z</time>
      </trkpt>
      <trkpt lat="39.718333818018436431884765625" lon="-7.6318393461406230926513671875">
        <ele>299.20001220703125</ele>
        <time>2019-04-27T08:54:41.000Z</time>
      </trkpt>
      <trkpt lat="39.71846432425081729888916015625" lon="-7.6325182802975177764892578125">
        <ele>309.79998779296875</ele>
        <time>2019-04-27T08:55:14.000Z</time>
      </trkpt>
      <trkpt lat="39.71823357045650482177734375" lon="-7.633140385150909423828125">
        <ele>311.399993896484375</ele>
        <time>2019-04-27T08:55:43.000Z</time>
      </trkpt>
      <trkpt lat="39.71855568699538707733154296875" lon="-7.633689232170581817626953125">
        <ele>317.79998779296875</ele>
        <time>2019-04-27T08:56:10.000Z</time>
      </trkpt>
      <trkpt lat="39.719005040824413299560546875" lon="-7.634094916284084320068359375">
        <ele>321.399993896484375</ele>
        <time>2019-04-27T08:56:34.000Z</time>
      </trkpt>
      <trkpt lat="39.719083495438098907470703125" lon="-7.63413372449576854705810546875">
        <ele>321.399993896484375</ele>
        <time>2019-04-27T08:56:36.000Z</time>
      </trkpt>
      <trkpt lat="39.719454981386661529541015625" lon="-7.634207904338836669921875">
        <ele>321.79998779296875</ele>
        <time>2019-04-27T08:56:43.000Z</time>
      </trkpt>
      <trkpt lat="39.719703756272792816162109375" lon="-7.63421603478491306304931640625">
        <ele>321.20001220703125</ele>
        <time>2019-04-27T08:56:48.000Z</time>
      </trkpt>
      <trkpt lat="39.7201635874807834625244140625" lon="-7.63461065478622913360595703125">
        <ele>319</ele>
        <time>2019-04-27T08:57:07.000Z</time>
      </trkpt>
      <trkpt lat="39.72069441340863704681396484375" lon="-7.63473403640091419219970703125">
        <ele>320.79998779296875</ele>
        <time>2019-04-27T08:57:25.000Z</time>
      </trkpt>
      <trkpt lat="39.7212321124970912933349609375" lon="-7.63460797257721424102783203125">
        <ele>321.600006103515625</ele>
        <time>2019-04-27T08:57:43.000Z</time>
      </trkpt>
      <trkpt lat="39.72157903946936130523681640625" lon="-7.6345235668122768402099609375">
        <ele>322.600006103515625</ele>
        <time>2019-04-27T08:57:51.000Z</time>
      </trkpt>
      <trkpt lat="39.72167828120291233062744140625" lon="-7.63453203253448009490966796875">
        <ele>323</ele>
        <time>2019-04-27T08:57:53.000Z</time>
      </trkpt>
      <trkpt lat="39.72221103496849536895751953125" lon="-7.6345259137451648712158203125">
        <ele>322.20001220703125</ele>
        <time>2019-04-27T08:58:08.000Z</time>
      </trkpt>
      <trkpt lat="39.72273624502122402191162109375" lon="-7.6346016861498355865478515625">
        <ele>321.20001220703125</ele>
        <time>2019-04-27T08:58:24.000Z</time>
      </trkpt>
      <trkpt lat="39.723293222486972808837890625" lon="-7.6345587708055973052978515625">
        <ele>321</ele>
        <time>2019-04-27T08:58:40.000Z</time>
      </trkpt>
      <trkpt lat="39.72382756881415843963623046875" lon="-7.6347552426159381866455078125">
        <ele>321.79998779296875</ele>
        <time>2019-04-27T08:58:56.000Z</time>
      </trkpt>
      <trkpt lat="39.72427063621580600738525390625" lon="-7.63512060977518558502197265625">
        <ele>323.20001220703125</ele>
        <time>2019-04-27T08:59:14.000Z</time>
      </trkpt>
      <trkpt lat="39.724598117172718048095703125" lon="-7.63538606464862823486328125">
        <ele>322</ele>
        <time>2019-04-27T08:59:25.000Z</time>
      </trkpt>
      <trkpt lat="39.7248333133757114410400390625" lon="-7.635264694690704345703125">
        <ele>321.79998779296875</ele>
        <time>2019-04-27T08:59:30.000Z</time>
      </trkpt>
      <trkpt lat="39.72497069276869297027587890625" lon="-7.6351629383862018585205078125">
        <ele>322</ele>
        <time>2019-04-27T08:59:33.000Z</time>
      </trkpt>
      <trkpt lat="39.7254713438451290130615234375" lon="-7.63475314714014530181884765625">
        <ele>320.600006103515625</ele>
        <time>2019-04-27T08:59:44.000Z</time>
      </trkpt>
      <trkpt lat="39.725679047405719757080078125" lon="-7.63455918990075588226318359375">
        <ele>320.600006103515625</ele>
        <time>2019-04-27T08:59:49.000Z</time>
      </trkpt>
      <trkpt lat="39.72577854059636592864990234375" lon="-7.63449959456920623779296875">
        <ele>320.79998779296875</ele>
        <time>2019-04-27T08:59:51.000Z</time>
      </trkpt>
      <trkpt lat="39.72634498961269855499267578125" lon="-7.6344695873558521270751953125">
        <ele>320.399993896484375</ele>
        <time>2019-04-27T09:00:04.000Z</time>
      </trkpt>
      <trkpt lat="39.72688562236726284027099609375" lon="-7.63443144969642162322998046875">
        <ele>321</ele>
        <time>2019-04-27T09:00:19.000Z</time>
      </trkpt>
      <trkpt lat="39.72736355848610401153564453125" lon="-7.634108327329158782958984375">
        <ele>323</ele>
        <time>2019-04-27T09:00:36.000Z</time>
      </trkpt>
      <trkpt lat="39.72789346240460872650146484375" lon="-7.6339341513812541961669921875">
        <ele>325</ele>
        <time>2019-04-27T09:00:54.000Z</time>
      </trkpt>
      <trkpt lat="39.72843811847269535064697265625" lon="-7.6337554492056369781494140625">
        <ele>326.20001220703125</ele>
        <time>2019-04-27T09:01:12.000Z</time>
      </trkpt>
      <trkpt lat="39.72895704209804534912109375" lon="-7.633518911898136138916015625">
        <ele>328.600006103515625</ele>
        <time>2019-04-27T09:01:33.000Z</time>
      </trkpt>
      <trkpt lat="39.7295000217854976654052734375" lon="-7.63366852886974811553955078125">
        <ele>330.399993896484375</ele>
        <time>2019-04-27T09:01:54.000Z</time>
      </trkpt>
      <trkpt lat="39.7300512157380580902099609375" lon="-7.63364288024604320526123046875">
        <ele>333.600006103515625</ele>
        <time>2019-04-27T09:02:18.000Z</time>
      </trkpt>
      <trkpt lat="39.7305621765553951263427734375" lon="-7.6334010623395442962646484375">
        <ele>337.600006103515625</ele>
        <time>2019-04-27T09:02:42.000Z</time>
      </trkpt>
      <trkpt lat="39.73109685815870761871337890625" lon="-7.63330475427210330963134765625">
        <ele>339.600006103515625</ele>
        <time>2019-04-27T09:03:02.000Z</time>
      </trkpt>
      <trkpt lat="39.73164587281644344329833984375" lon="-7.6334017328917980194091796875">
        <ele>340.79998779296875</ele>
        <time>2019-04-27T09:03:23.000Z</time>
      </trkpt>
      <trkpt lat="39.732192791998386383056640625" lon="-7.63350156135857105255126953125">
        <ele>342.399993896484375</ele>
        <time>2019-04-27T09:03:42.000Z</time>
      </trkpt>
      <trkpt lat="39.73273585550487041473388671875" lon="-7.6334466598927974700927734375">
        <ele>342.20001220703125</ele>
        <time>2019-04-27T09:04:02.000Z</time>
      </trkpt>
      <trkpt lat="39.73325737752020359039306640625" lon="-7.6332656107842922210693359375">
        <ele>341.399993896484375</ele>
        <time>2019-04-27T09:04:19.000Z</time>
      </trkpt>
      <trkpt lat="39.73375978879630565643310546875" lon="-7.63301406987011432647705078125">
        <ele>340.79998779296875</ele>
        <time>2019-04-27T09:04:40.000Z</time>
      </trkpt>
      <trkpt lat="39.7342327795922756195068359375" lon="-7.63261173851788043975830078125">
        <ele>342</ele>
        <time>2019-04-27T09:04:58.000Z</time>
      </trkpt>
      <trkpt lat="39.734754301607608795166015625" lon="-7.6324130035936832427978515625">
        <ele>343.600006103515625</ele>
        <time>2019-04-27T09:05:15.000Z</time>
      </trkpt>
      <trkpt lat="39.73511480726301670074462890625" lon="-7.63187312521040439605712890625">
        <ele>343.399993896484375</ele>
        <time>2019-04-27T09:05:31.000Z</time>
      </trkpt>
      <trkpt lat="39.73547321744263172149658203125" lon="-7.63135361485183238983154296875">
        <ele>343.20001220703125</ele>
        <time>2019-04-27T09:05:48.000Z</time>
      </trkpt>
      <trkpt lat="39.73591871559619903564453125" lon="-7.63091289438307285308837890625">
        <ele>343.20001220703125</ele>
        <time>2019-04-27T09:06:06.000Z</time>
      </trkpt>
      <trkpt lat="39.7363389842212200164794921875" lon="-7.63046530075371265411376953125">
        <ele>343.79998779296875</ele>
        <time>2019-04-27T09:06:23.000Z</time>
      </trkpt>
      <trkpt lat="39.7367087937891483306884765625" lon="-7.629926763474941253662109375">
        <ele>344.600006103515625</ele>
        <time>2019-04-27T09:06:40.000Z</time>
      </trkpt>
      <trkpt lat="39.73702336661517620086669921875" lon="-7.62953708879649639129638671875">
        <ele>346.600006103515625</ele>
        <time>2019-04-27T09:06:55.000Z</time>
      </trkpt>
      <trkpt lat="39.73715923726558685302734375" lon="-7.629369199275970458984375">
        <ele>347</ele>
        <time>2019-04-27T09:07:03.000Z</time>
      </trkpt>
      <trkpt lat="39.7376103512942790985107421875" lon="-7.6289573125541210174560546875">
        <ele>348.79998779296875</ele>
        <time>2019-04-27T09:07:21.000Z</time>
      </trkpt>
      <trkpt lat="39.738088287413120269775390625" lon="-7.628605104982852935791015625">
        <ele>351.600006103515625</ele>
        <time>2019-04-27T09:07:41.000Z</time>
      </trkpt>
      <trkpt lat="39.73837955854833126068115234375" lon="-7.62842179276049137115478515625">
        <ele>353.399993896484375</ele>
        <time>2019-04-27T09:07:56.000Z</time>
      </trkpt>
      <trkpt lat="39.73850193433463573455810546875" lon="-7.6283293403685092926025390625">
        <ele>354.20001220703125</ele>
        <time>2019-04-27T09:08:03.000Z</time>
      </trkpt>
      <trkpt lat="39.7390181757509708404541015625" lon="-7.628116272389888763427734375">
        <ele>353.600006103515625</ele>
        <time>2019-04-27T09:08:18.000Z</time>
      </trkpt>
      <trkpt lat="39.739556796848773956298828125" lon="-7.62793748639523983001708984375">
        <ele>352</ele>
        <time>2019-04-27T09:08:29.000Z</time>
      </trkpt>
      <trkpt lat="39.7398459725081920623779296875" lon="-7.62779315002262592315673828125">
        <ele>351.600006103515625</ele>
        <time>2019-04-27T09:08:35.000Z</time>
      </trkpt>
      <trkpt lat="39.73993054591119289398193359375" lon="-7.62774503789842128753662109375">
        <ele>351.600006103515625</ele>
        <time>2019-04-27T09:08:37.000Z</time>
      </trkpt>
      <trkpt lat="39.74009533412754535675048828125" lon="-7.6276561059057712554931640625">
        <ele>351.399993896484375</ele>
        <time>2019-04-27T09:08:41.000Z</time>
      </trkpt>
      <trkpt lat="39.7404363937675952911376953125" lon="-7.62744094245135784149169921875">
        <ele>350.79998779296875</ele>
        <time>2019-04-27T09:08:53.000Z</time>
      </trkpt>
      <trkpt lat="39.74040806293487548828125" lon="-7.6273158006370067596435546875">
        <ele>350.20001220703125</ele>
        <time>2019-04-27T09:09:01.000Z</time>
      </trkpt>
      <trkpt lat="39.74045357666909694671630859375" lon="-7.627330720424652099609375">
        <ele>350.399993896484375</ele>
        <time>2019-04-27T09:09:18.000Z</time>
      </trkpt>
      <trkpt lat="39.74058852531015872955322265625" lon="-7.62733197771012783050537109375">
        <ele>350.399993896484375</ele>
        <time>2019-04-27T09:09:24.000Z</time>
      </trkpt>
      <trkpt lat="39.7409550659358501434326171875" lon="-7.6269030757248401641845703125">
        <ele>348.79998779296875</ele>
        <time>2019-04-27T09:09:44.000Z</time>
      </trkpt>
      <trkpt lat="39.74106964655220508575439453125" lon="-7.6268608309328556060791015625">
        <ele>348.600006103515625</ele>
        <time>2019-04-27T09:09:49.000Z</time>
      </trkpt>
      <trkpt lat="39.74160374142229557037353515625" lon="-7.6267602480947971343994140625">
        <ele>351.20001220703125</ele>
        <time>2019-04-27T09:10:10.000Z</time>
      </trkpt>
      <trkpt lat="39.742145799100399017333984375" lon="-7.62668229639530181884765625">
        <ele>354</ele>
        <time>2019-04-27T09:10:31.000Z</time>
      </trkpt>
      <trkpt lat="39.74269372411072254180908203125" lon="-7.6264088787138462066650390625">
        <ele>353.20001220703125</ele>
        <time>2019-04-27T09:10:48.000Z</time>
      </trkpt>
      <trkpt lat="39.743027575314044952392578125" lon="-7.62624249793589115142822265625">
        <ele>352.79998779296875</ele>
        <time>2019-04-27T09:10:55.000Z</time>
      </trkpt>
      <trkpt lat="39.7433222830295562744140625" lon="-7.62604183517396450042724609375">
        <ele>352.79998779296875</ele>
        <time>2019-04-27T09:11:02.000Z</time>
      </trkpt>
      <trkpt lat="39.7437787614762783050537109375" lon="-7.62563548050820827484130859375">
        <ele>353</ele>
        <time>2019-04-27T09:11:19.000Z</time>
      </trkpt>
      <trkpt lat="39.744239933788776397705078125" lon="-7.6252421177923679351806640625">
        <ele>356</ele>
        <time>2019-04-27T09:11:43.000Z</time>
      </trkpt>
      <trkpt lat="39.7445750422775745391845703125" lon="-7.6249400340020656585693359375">
        <ele>357.399993896484375</ele>
        <time>2019-04-27T09:12:03.000Z</time>
      </trkpt>
      <trkpt lat="39.74467855878174304962158203125" lon="-7.62495688162744045257568359375">
        <ele>357.600006103515625</ele>
        <time>2019-04-27T09:12:08.000Z</time>
      </trkpt>
      <trkpt lat="39.74521122872829437255859375" lon="-7.62494497932493686676025390625">
        <ele>358.20001220703125</ele>
        <time>2019-04-27T09:12:30.000Z</time>
      </trkpt>
      <trkpt lat="39.74560693837702274322509765625" lon="-7.62466385029256343841552734375">
        <ele>356.79998779296875</ele>
        <time>2019-04-27T09:12:44.000Z</time>
      </trkpt>
      <trkpt lat="39.7458138875663280487060546875" lon="-7.6246283948421478271484375">
        <ele>357.20001220703125</ele>
        <time>2019-04-27T09:12:53.000Z</time>
      </trkpt>
      <trkpt lat="39.746376313269138336181640625" lon="-7.62460014782845973968505859375">
        <ele>358.20001220703125</ele>
        <time>2019-04-27T09:13:10.000Z</time>
      </trkpt>
      <trkpt lat="39.74661511369049549102783203125" lon="-7.62459562160074710845947265625">
        <ele>359.79998779296875</ele>
        <time>2019-04-27T09:13:22.000Z</time>
      </trkpt>
      <trkpt lat="39.7464857809245586395263671875" lon="-7.62461674399673938751220703125">
        <ele>359</ele>
        <time>2019-04-27T09:13:28.000Z</time>
      </trkpt>
      <trkpt lat="39.746304564177989959716796875" lon="-7.6246295683085918426513671875">
        <ele>357.79998779296875</ele>
        <time>2019-04-27T09:13:33.000Z</time>
      </trkpt>
      <trkpt lat="39.7462888062000274658203125" lon="-7.62466728687286376953125">
        <ele>357.79998779296875</ele>
        <time>2019-04-27T09:13:36.000Z</time>
      </trkpt>
      <trkpt lat="39.746302552521228790283203125" lon="-7.62467793188989162445068359375">
        <ele>358</ele>
        <time>2019-04-27T09:13:38.000Z</time>
      </trkpt>
      <trkpt lat="39.7464616410434246063232421875" lon="-7.62466200627386569976806640625">
        <ele>359.20001220703125</ele>
        <time>2019-04-27T09:13:46.000Z</time>
      </trkpt>
      <trkpt lat="39.74647329188883304595947265625" lon="-7.62461121194064617156982421875">
        <ele>359</ele>
        <time>2019-04-27T09:14:11.000Z</time>
      </trkpt>
      <trkpt lat="39.74649542011320590972900390625" lon="-7.6245782710611820220947265625">
        <ele>359</ele>
        <time>2019-04-27T09:14:16.000Z</time>
      </trkpt>
      <trkpt lat="39.74649542011320590972900390625" lon="-7.62457801960408687591552734375">
        <ele>359</ele>
        <time>2019-04-27T09:14:17.000Z</time>
      </trkpt>
      <trkpt lat="39.7465099208056926727294921875" lon="-7.6246356032788753509521484375">
        <ele>359.399993896484375</ele>
        <time>2019-04-27T09:17:16.000Z</time>
      </trkpt>
      <trkpt lat="39.74659784696996212005615234375" lon="-7.62461808510124683380126953125">
        <ele>359.79998779296875</ele>
        <time>2019-04-27T09:17:21.000Z</time>
      </trkpt>
      <trkpt lat="39.7471539862453937530517578125" lon="-7.6245692186057567596435546875">
        <ele>359.79998779296875</ele>
        <time>2019-04-27T09:17:46.000Z</time>
      </trkpt>
      <trkpt lat="39.74772051908075809478759765625" lon="-7.62453460134565830230712890625">
        <ele>361.600006103515625</ele>
        <time>2019-04-27T09:18:02.000Z</time>
      </trkpt>
      <trkpt lat="39.74826131947338581085205078125" lon="-7.624493949115276336669921875">
        <ele>360.79998779296875</ele>
        <time>2019-04-27T09:18:21.000Z</time>
      </trkpt>
      <trkpt lat="39.74881209433078765869140625" lon="-7.6244701445102691650390625">
        <ele>359.79998779296875</ele>
        <time>2019-04-27T09:18:41.000Z</time>
      </trkpt>
      <trkpt lat="39.74936270155012607574462890625" lon="-7.62442429549992084503173828125">
        <ele>360.600006103515625</ele>
        <time>2019-04-27T09:19:01.000Z</time>
      </trkpt>
      <trkpt lat="39.7499285638332366943359375" lon="-7.62436796911060810089111328125">
        <ele>362</ele>
        <time>2019-04-27T09:19:22.000Z</time>
      </trkpt>
      <trkpt lat="39.75047095678746700286865234375" lon="-7.624335698783397674560546875">
        <ele>363.600006103515625</ele>
        <time>2019-04-27T09:19:41.000Z</time>
      </trkpt>
      <trkpt lat="39.7510395012795925140380859375" lon="-7.62428440153598785400390625">
        <ele>368.399993896484375</ele>
        <time>2019-04-27T09:19:59.000Z</time>
      </trkpt>
      <trkpt lat="39.75157988257706165313720703125" lon="-7.62415775097906589508056640625">
        <ele>370</ele>
        <time>2019-04-27T09:20:15.000Z</time>
      </trkpt>
      <trkpt lat="39.7516222111880779266357421875" lon="-7.6241380535066127777099609375">
        <ele>369.79998779296875</ele>
        <time>2019-04-27T09:20:16.000Z</time>
      </trkpt>
      <trkpt lat="39.75213509984314441680908203125" lon="-7.62396999634802341461181640625">
        <ele>369.20001220703125</ele>
        <time>2019-04-27T09:20:33.000Z</time>
      </trkpt>
      <trkpt lat="39.75260281004011631011962890625" lon="-7.6236076466739177703857421875">
        <ele>367.20001220703125</ele>
        <time>2019-04-27T09:20:51.000Z</time>
      </trkpt>
      <trkpt lat="39.752753935754299163818359375" lon="-7.62334118597209453582763671875">
        <ele>366.20001220703125</ele>
        <time>2019-04-27T09:20:56.000Z</time>
      </trkpt>
      <trkpt lat="39.75302073173224925994873046875" lon="-7.62315678410232067108154296875">
        <ele>363.20001220703125</ele>
        <time>2019-04-27T09:21:00.000Z</time>
      </trkpt>
      <trkpt lat="39.7534638829529285430908203125" lon="-7.62292393483221530914306640625">
        <ele>359.20001220703125</ele>
        <time>2019-04-27T09:21:05.000Z</time>
      </trkpt>
      <trkpt lat="39.75396503694355487823486328125" lon="-7.622572146356105804443359375">
        <ele>354</ele>
        <time>2019-04-27T09:21:12.000Z</time>
      </trkpt>
      <trkpt lat="39.75401113741099834442138671875" lon="-7.62237693183124065399169921875">
        <ele>352.399993896484375</ele>
        <time>2019-04-27T09:21:14.000Z</time>
      </trkpt>
      <trkpt lat="39.75416268222033977508544921875" lon="-7.621648125350475311279296875">
        <ele>346.399993896484375</ele>
        <time>2019-04-27T09:21:20.000Z</time>
      </trkpt>
      <trkpt lat="39.75435446016490459442138671875" lon="-7.620859555900096893310546875">
        <ele>343.79998779296875</ele>
        <time>2019-04-27T09:21:26.000Z</time>
      </trkpt>
      <trkpt lat="39.75441145710647106170654296875" lon="-7.62056878767907619476318359375">
        <ele>344.600006103515625</ele>
        <time>2019-04-27T09:21:29.000Z</time>
      </trkpt>
      <trkpt lat="39.75456668995320796966552734375" lon="-7.620505504310131072998046875">
        <ele>344.79998779296875</ele>
        <time>2019-04-27T09:21:35.000Z</time>
      </trkpt>
      <trkpt lat="39.75511570461094379425048828125" lon="-7.62054112739861011505126953125">
        <ele>345.79998779296875</ele>
        <time>2019-04-27T09:21:54.000Z</time>
      </trkpt>
      <trkpt lat="39.75563588552176952362060546875" lon="-7.62033023871481418609619140625">
        <ele>348.399993896484375</ele>
        <time>2019-04-27T09:22:17.000Z</time>
      </trkpt>
      <trkpt lat="39.7560991533100605010986328125" lon="-7.62003150768578052520751953125">
        <ele>352.20001220703125</ele>
        <time>2019-04-27T09:22:43.000Z</time>
      </trkpt>
      <trkpt lat="39.75616310723125934600830078125" lon="-7.6198612712323665618896484375">
        <ele>352.600006103515625</ele>
        <time>2019-04-27T09:22:52.000Z</time>
      </trkpt>
      <trkpt lat="39.7562205232679843902587890625" lon="-7.61982732452452182769775390625">
        <ele>352.79998779296875</ele>
        <time>2019-04-27T09:22:56.000Z</time>
      </trkpt>
      <trkpt lat="39.75671379826962947845458984375" lon="-7.61949121020734310150146484375">
        <ele>354.79998779296875</ele>
        <time>2019-04-27T09:23:20.000Z</time>
      </trkpt>
      <trkpt lat="39.756814800202846527099609375" lon="-7.61944326572120189666748046875">
        <ele>355.20001220703125</ele>
        <time>2019-04-27T09:23:25.000Z</time>
      </trkpt>
      <trkpt lat="39.75692150183022022247314453125" lon="-7.61937436647713184356689453125">
        <ele>355.399993896484375</ele>
        <time>2019-04-27T09:23:31.000Z</time>
      </trkpt>
      <trkpt lat="39.757416956126689910888671875" lon="-7.61908384971320629119873046875">
        <ele>359.20001220703125</ele>
        <time>2019-04-27T09:23:57.000Z</time>
      </trkpt>
      <trkpt lat="39.75795038044452667236328125" lon="-7.619024924933910369873046875">
        <ele>364</ele>
        <time>2019-04-27T09:24:22.000Z</time>
      </trkpt>
      <trkpt lat="39.758421443402767181396484375" lon="-7.61873013339936733245849609375">
        <ele>369.20001220703125</ele>
        <time>2019-04-27T09:24:51.000Z</time>
      </trkpt>
      <trkpt lat="39.75857801735401153564453125" lon="-7.6180564798414707183837890625">
        <ele>371.600006103515625</ele>
        <time>2019-04-27T09:25:18.000Z</time>
      </trkpt>
      <trkpt lat="39.75893567316234111785888671875" lon="-7.61753872968256473541259765625">
        <ele>373.20001220703125</ele>
        <time>2019-04-27T09:25:39.000Z</time>
      </trkpt>
      <trkpt lat="39.75940824486315250396728515625" lon="-7.6171549223363399505615234375">
        <ele>374.79998779296875</ele>
        <time>2019-04-27T09:25:59.000Z</time>
      </trkpt>
      <trkpt lat="39.75980688817799091339111328125" lon="-7.6166607253253459930419921875">
        <ele>378</ele>
        <time>2019-04-27T09:26:23.000Z</time>
      </trkpt>
      <trkpt lat="39.7599940560758113861083984375" lon="-7.61617532931268215179443359375">
        <ele>380.399993896484375</ele>
        <time>2019-04-27T09:26:45.000Z</time>
      </trkpt>
      <trkpt lat="39.7599900327622890472412109375" lon="-7.616118080914020538330078125">
        <ele>380.399993896484375</ele>
        <time>2019-04-27T09:28:22.000Z</time>
      </trkpt>
      <trkpt lat="39.7603756003081798553466796875" lon="-7.615679539740085601806640625">
        <ele>383.79998779296875</ele>
        <time>2019-04-27T09:28:50.000Z</time>
      </trkpt>
      <trkpt lat="39.760833084583282470703125" lon="-7.6153058744966983795166015625">
        <ele>386</ele>
        <time>2019-04-27T09:29:08.000Z</time>
      </trkpt>
      <trkpt lat="39.76130305789411067962646484375" lon="-7.61491670273244380950927734375">
        <ele>388.20001220703125</ele>
        <time>2019-04-27T09:29:29.000Z</time>
      </trkpt>
      <trkpt lat="39.7614568658173084259033203125" lon="-7.6147469691932201385498046875">
        <ele>388.600006103515625</ele>
        <time>2019-04-27T09:29:37.000Z</time>
      </trkpt>
      <trkpt lat="39.76152735762298107147216796875" lon="-7.61491066776216030120849609375">
        <ele>388.20001220703125</ele>
        <time>2019-04-27T09:29:43.000Z</time>
      </trkpt>
      <trkpt lat="39.76153590716421604156494140625" lon="-7.6156079582870006561279296875">
        <ele>385.399993896484375</ele>
        <time>2019-04-27T09:29:58.000Z</time>
      </trkpt>
      <trkpt lat="39.7615792416036128997802734375" lon="-7.6162084378302097320556640625">
        <ele>380.20001220703125</ele>
        <time>2019-04-27T09:30:12.000Z</time>
      </trkpt>
      <trkpt lat="39.76147639565169811248779296875" lon="-7.6165708713233470916748046875">
        <ele>378.20001220703125</ele>
        <time>2019-04-27T09:30:17.000Z</time>
      </trkpt>
      <trkpt lat="39.7613234259188175201416015625" lon="-7.617084346711635589599609375">
        <ele>375.399993896484375</ele>
        <time>2019-04-27T09:30:23.000Z</time>
      </trkpt>
      <trkpt lat="39.7613351605832576751708984375" lon="-7.61746899224817752838134765625">
        <ele>373.399993896484375</ele>
        <time>2019-04-27T09:30:27.000Z</time>
      </trkpt>
      <trkpt lat="39.761355109512805938720703125" lon="-7.6177208684384822845458984375">
        <ele>372.79998779296875</ele>
        <time>2019-04-27T09:30:30.000Z</time>
      </trkpt>
      <trkpt lat="39.76157697848975658416748046875" lon="-7.61782807298004627227783203125">
        <ele>373.20001220703125</ele>
        <time>2019-04-27T09:30:39.000Z</time>
      </trkpt>
      <trkpt lat="39.76187621243298053741455078125" lon="-7.61721409857273101806640625">
        <ele>375.399993896484375</ele>
        <time>2019-04-27T09:31:00.000Z</time>
      </trkpt>
      <trkpt lat="39.76225398480892181396484375" lon="-7.61672065593302249908447265625">
        <ele>377.399993896484375</ele>
        <time>2019-04-27T09:31:19.000Z</time>
      </trkpt>
      <trkpt lat="39.76227284409105777740478515625" lon="-7.61672451160848140716552734375">
        <ele>377.399993896484375</ele>
        <time>2019-04-27T09:31:20.000Z</time>
      </trkpt>
      <trkpt lat="39.76231877692043781280517578125" lon="-7.6167505793273448944091796875">
        <ele>377.600006103515625</ele>
        <time>2019-04-27T09:31:23.000Z</time>
      </trkpt>
      <trkpt lat="39.76234459318220615386962890625" lon="-7.61680665425956249237060546875">
        <ele>377.399993896484375</ele>
        <time>2019-04-27T09:31:26.000Z</time>
      </trkpt>
      <trkpt lat="39.7623312659561634063720703125" lon="-7.61694378219544887542724609375">
        <ele>377</ele>
        <time>2019-04-27T09:31:31.000Z</time>
      </trkpt>
      <trkpt lat="39.7620328702032566070556640625" lon="-7.61752464808523654937744140625">
        <ele>375</ele>
        <time>2019-04-27T09:31:53.000Z</time>
      </trkpt>
      <trkpt lat="39.762025661766529083251953125" lon="-7.61766470968723297119140625">
        <ele>375</ele>
        <time>2019-04-27T09:31:58.000Z</time>
      </trkpt>
      <trkpt lat="39.7622782923281192779541015625" lon="-7.6179488562047481536865234375">
        <ele>377</ele>
        <time>2019-04-27T09:32:17.000Z</time>
      </trkpt>
      <trkpt lat="39.762316010892391204833984375" lon="-7.61798858642578125">
        <ele>377.20001220703125</ele>
        <time>2019-04-27T09:32:22.000Z</time>
      </trkpt>
      <trkpt lat="39.7623305954039096832275390625" lon="-7.61799990199506282806396484375">
        <ele>377.399993896484375</ele>
        <time>2019-04-27T09:32:24.000Z</time>
      </trkpt>
      <trkpt lat="39.76276452653110027313232421875" lon="-7.61831774376332759857177734375">
        <ele>381.79998779296875</ele>
        <time>2019-04-27T09:32:43.000Z</time>
      </trkpt>
      <trkpt lat="39.762931577861309051513671875" lon="-7.61832880787551403045654296875">
        <ele>383.20001220703125</ele>
        <time>2019-04-27T09:32:47.000Z</time>
      </trkpt>
      <trkpt lat="39.7629521973431110382080078125" lon="-7.618312127888202667236328125">
        <ele>383.399993896484375</ele>
        <time>2019-04-27T09:32:48.000Z</time>
      </trkpt>
      <trkpt lat="39.763096533715724945068359375" lon="-7.61824406683444976806640625">
        <ele>384</ele>
        <time>2019-04-27T09:32:54.000Z</time>
      </trkpt>
      <trkpt lat="39.7634960152208805084228515625" lon="-7.6177577488124370574951171875">
        <ele>385.20001220703125</ele>
        <time>2019-04-27T09:33:14.000Z</time>
      </trkpt>
      <trkpt lat="39.7635667584836483001708984375" lon="-7.61753856204450130462646484375">
        <ele>385.399993896484375</ele>
        <time>2019-04-27T09:33:19.000Z</time>
      </trkpt>
      <trkpt lat="39.76369424723088741302490234375" lon="-7.61725408025085926055908203125">
        <ele>385</ele>
        <time>2019-04-27T09:33:25.000Z</time>
      </trkpt>
      <trkpt lat="39.76398342289030551910400390625" lon="-7.61662996374070644378662109375">
        <ele>384</ele>
        <time>2019-04-27T09:33:39.000Z</time>
      </trkpt>
      <trkpt lat="39.76436831988394260406494140625" lon="-7.616104669868946075439453125">
        <ele>386</ele>
        <time>2019-04-27T09:33:53.000Z</time>
      </trkpt>
      <trkpt lat="39.76461826823651790618896484375" lon="-7.61548030190169811248779296875">
        <ele>386.20001220703125</ele>
        <time>2019-04-27T09:34:10.000Z</time>
      </trkpt>
      <trkpt lat="39.76505379192531108856201171875" lon="-7.615105211734771728515625">
        <ele>385.79998779296875</ele>
        <time>2019-04-27T09:34:32.000Z</time>
      </trkpt>
      <trkpt lat="39.7655710391700267791748046875" lon="-7.61480069719254970550537109375">
        <ele>387.399993896484375</ele>
        <time>2019-04-27T09:34:49.000Z</time>
      </trkpt>
      <trkpt lat="39.7660585306584835052490234375" lon="-7.614505402743816375732421875">
        <ele>390.399993896484375</ele>
        <time>2019-04-27T09:35:06.000Z</time>
      </trkpt>
      <trkpt lat="39.7662161104381084442138671875" lon="-7.61423659510910511016845703125">
        <ele>391.79998779296875</ele>
        <time>2019-04-27T09:35:14.000Z</time>
      </trkpt>
      <trkpt lat="39.76616255007684230804443359375" lon="-7.6136110536754131317138671875">
        <ele>392.600006103515625</ele>
        <time>2019-04-27T09:35:31.000Z</time>
      </trkpt>
      <trkpt lat="39.76611108519136905670166015625" lon="-7.6134665496647357940673828125">
        <ele>392.600006103515625</ele>
        <time>2019-04-27T09:35:36.000Z</time>
      </trkpt>
      <trkpt lat="39.76588779129087924957275390625" lon="-7.61330016888678073883056640625">
        <ele>393</ele>
        <time>2019-04-27T09:35:44.000Z</time>
      </trkpt>
      <trkpt lat="39.76549769751727581024169921875" lon="-7.6129958219826221466064453125">
        <ele>393.20001220703125</ele>
        <time>2019-04-27T09:35:53.000Z</time>
      </trkpt>
      <trkpt lat="39.7650624252855777740478515625" lon="-7.6125009544193744659423828125">
        <ele>393.20001220703125</ele>
        <time>2019-04-27T09:36:08.000Z</time>
      </trkpt>
      <trkpt lat="39.7650027461349964141845703125" lon="-7.6124258525669574737548828125">
        <ele>392.79998779296875</ele>
        <time>2019-04-27T09:36:10.000Z</time>
      </trkpt>
      <trkpt lat="39.76491339504718780517578125" lon="-7.61230758391320705413818359375">
        <ele>392.20001220703125</ele>
        <time>2019-04-27T09:36:13.000Z</time>
      </trkpt>
      <trkpt lat="39.76445917971432209014892578125" lon="-7.6119269616901874542236328125">
        <ele>391.79998779296875</ele>
        <time>2019-04-27T09:36:25.000Z</time>
      </trkpt>
      <trkpt lat="39.7644203715026378631591796875" lon="-7.61189150623977184295654296875">
        <ele>391.79998779296875</ele>
        <time>2019-04-27T09:36:26.000Z</time>
      </trkpt>
      <trkpt lat="39.7642356343567371368408203125" lon="-7.61174331419169902801513671875">
        <ele>391.600006103515625</ele>
        <time>2019-04-27T09:36:31.000Z</time>
      </trkpt>
      <trkpt lat="39.764141254127025604248046875" lon="-7.61163585819303989410400390625">
        <ele>391.399993896484375</ele>
        <time>2019-04-27T09:36:34.000Z</time>
      </trkpt>
      <trkpt lat="39.76409289054572582244873046875" lon="-7.611547596752643585205078125">
        <ele>391.20001220703125</ele>
        <time>2019-04-27T09:36:36.000Z</time>
      </trkpt>
      <trkpt lat="39.76405383087694644927978515625" lon="-7.611201591789722442626953125">
        <ele>390.399993896484375</ele>
        <time>2019-04-27T09:36:41.000Z</time>
      </trkpt>
      <trkpt lat="39.764007814228534698486328125" lon="-7.61082046665251255035400390625">
        <ele>389.79998779296875</ele>
        <time>2019-04-27T09:36:45.000Z</time>
      </trkpt>
      <trkpt lat="39.76412675343453884124755859375" lon="-7.610464990139007568359375">
        <ele>387.20001220703125</ele>
        <time>2019-04-27T09:36:50.000Z</time>
      </trkpt>
      <trkpt lat="39.7641689144074916839599609375" lon="-7.610364742577075958251953125">
        <ele>386.600006103515625</ele>
        <time>2019-04-27T09:36:52.000Z</time>
      </trkpt>
      <trkpt lat="39.7641514800488948822021484375" lon="-7.6100665144622325897216796875">
        <ele>384.79998779296875</ele>
        <time>2019-04-27T09:36:58.000Z</time>
      </trkpt>
      <trkpt lat="39.76409733295440673828125" lon="-7.6098324917256832122802734375">
        <ele>383.399993896484375</ele>
        <time>2019-04-27T09:37:02.000Z</time>
      </trkpt>
      <trkpt lat="39.7641632147133350372314453125" lon="-7.60913771577179431915283203125">
        <ele>380.20001220703125</ele>
        <time>2019-04-27T09:37:09.000Z</time>
      </trkpt>
      <trkpt lat="39.76422398351132869720458984375" lon="-7.60839424096047878265380859375">
        <ele>381.600006103515625</ele>
        <time>2019-04-27T09:37:20.000Z</time>
      </trkpt>
      <trkpt lat="39.76426589302718639373779296875" lon="-7.6076833717525005340576171875">
        <ele>382.79998779296875</ele>
        <time>2019-04-27T09:37:33.000Z</time>
      </trkpt>
      <trkpt lat="39.7643174417316913604736328125" lon="-7.606930173933506011962890625">
        <ele>382.20001220703125</ele>
        <time>2019-04-27T09:37:46.000Z</time>
      </trkpt>
      <trkpt lat="39.76432020775973796844482421875" lon="-7.60631117038428783416748046875">
        <ele>383.600006103515625</ele>
        <time>2019-04-27T09:37:57.000Z</time>
      </trkpt>
      <trkpt lat="39.76429690606892108917236328125" lon="-7.60613280348479747772216796875">
        <ele>383.79998779296875</ele>
        <time>2019-04-27T09:38:00.000Z</time>
      </trkpt>
      <trkpt lat="39.76427913643419742584228515625" lon="-7.60599710047245025634765625">
        <ele>384.20001220703125</ele>
        <time>2019-04-27T09:38:02.000Z</time>
      </trkpt>
      <trkpt lat="39.76422431878745555877685546875" lon="-7.60527114383876323699951171875">
        <ele>388</ele>
        <time>2019-04-27T09:38:19.000Z</time>
      </trkpt>
      <trkpt lat="39.76421107538044452667236328125" lon="-7.60506226681172847747802734375">
        <ele>389.399993896484375</ele>
        <time>2019-04-27T09:38:27.000Z</time>
      </trkpt>
      <trkpt lat="39.76446873508393764495849609375" lon="-7.6044206321239471435546875">
        <ele>392</ele>
        <time>2019-04-27T09:38:52.000Z</time>
      </trkpt>
      <trkpt lat="39.76468297652900218963623046875" lon="-7.603810094296932220458984375">
        <ele>393.399993896484375</ele>
        <time>2019-04-27T09:39:13.000Z</time>
      </trkpt>
      <trkpt lat="39.76470954716205596923828125" lon="-7.60371261276304721832275390625">
        <ele>393.600006103515625</ele>
        <time>2019-04-27T09:39:17.000Z</time>
      </trkpt>
      <trkpt lat="39.76473444141447544097900390625" lon="-7.603337354958057403564453125">
        <ele>394</ele>
        <time>2019-04-27T09:39:30.000Z</time>
      </trkpt>
      <trkpt lat="39.76464257575571537017822265625" lon="-7.60326527059078216552734375">
        <ele>394.399993896484375</ele>
        <time>2019-04-27T09:39:35.000Z</time>
      </trkpt>
      <trkpt lat="39.7641665674746036529541015625" lon="-7.60301808826625347137451171875">
        <ele>392.20001220703125</ele>
        <time>2019-04-27T09:39:48.000Z</time>
      </trkpt>
      <trkpt lat="39.76403388194739818572998046875" lon="-7.60270066559314727783203125">
        <ele>391.79998779296875</ele>
        <time>2019-04-27T09:39:58.000Z</time>
      </trkpt>
      <trkpt lat="39.76424393244087696075439453125" lon="-7.602035142481327056884765625">
        <ele>393.20001220703125</ele>
        <time>2019-04-27T09:40:16.000Z</time>
      </trkpt>
      <trkpt lat="39.76454584859311580657958984375" lon="-7.60141546837985515594482421875">
        <ele>394</ele>
        <time>2019-04-27T09:40:35.000Z</time>
      </trkpt>
      <trkpt lat="39.764709211885929107666015625" lon="-7.6012346707284450531005859375">
        <ele>394</ele>
        <time>2019-04-27T09:40:40.000Z</time>
      </trkpt>
      <trkpt lat="39.76486184634268283843994140625" lon="-7.60101263411343097686767578125">
        <ele>393.79998779296875</ele>
        <time>2019-04-27T09:40:44.000Z</time>
      </trkpt>
      <trkpt lat="39.76524733006954193115234375" lon="-7.60055347345769405364990234375">
        <ele>394.600006103515625</ele>
        <time>2019-04-27T09:41:03.000Z</time>
      </trkpt>
      <trkpt lat="39.76567069999873638153076171875" lon="-7.60013286955654621124267578125">
        <ele>396.399993896484375</ele>
        <time>2019-04-27T09:41:27.000Z</time>
      </trkpt>
      <trkpt lat="39.76602508686482906341552734375" lon="-7.59966415353119373321533203125">
        <ele>398.600006103515625</ele>
        <time>2019-04-27T09:41:54.000Z</time>
      </trkpt>
      <trkpt lat="39.766158945858478546142578125" lon="-7.59939559735357761383056640625">
        <ele>399.399993896484375</ele>
        <time>2019-04-27T09:42:05.000Z</time>
      </trkpt>
      <trkpt lat="39.76615517400205135345458984375" lon="-7.59925863705575466156005859375">
        <ele>399.600006103515625</ele>
        <time>2019-04-27T09:42:09.000Z</time>
      </trkpt>
      <trkpt lat="39.76642020978033542633056640625" lon="-7.5986429862678050994873046875">
        <ele>400.79998779296875</ele>
        <time>2019-04-27T09:42:26.000Z</time>
      </trkpt>
      <trkpt lat="39.7666368819773197174072265625" lon="-7.5979543291032314300537109375">
        <ele>401.79998779296875</ele>
        <time>2019-04-27T09:42:36.000Z</time>
      </trkpt>
      <trkpt lat="39.76682287640869617462158203125" lon="-7.5974115170538425445556640625">
        <ele>401.600006103515625</ele>
        <time>2019-04-27T09:42:48.000Z</time>
      </trkpt>
      <trkpt lat="39.7670345194637775421142578125" lon="-7.596978843212127685546875">
        <ele>400.399993896484375</ele>
        <time>2019-04-27T09:42:54.000Z</time>
      </trkpt>
      <trkpt lat="39.7671813704073429107666015625" lon="-7.5962893478572368621826171875">
        <ele>399.79998779296875</ele>
        <time>2019-04-27T09:43:08.000Z</time>
      </trkpt>
      <trkpt lat="39.76735646836459636688232421875" lon="-7.59601567871868610382080078125">
        <ele>398.79998779296875</ele>
        <time>2019-04-27T09:43:20.000Z</time>
      </trkpt>
      <trkpt lat="39.767396114766597747802734375" lon="-7.595927417278289794921875">
        <ele>398.399993896484375</ele>
        <time>2019-04-27T09:44:47.000Z</time>
      </trkpt>
      <trkpt lat="39.76772828958928585052490234375" lon="-7.59558736346662044525146484375">
        <ele>398</ele>
        <time>2019-04-27T09:45:10.000Z</time>
      </trkpt>
      <trkpt lat="39.767754860222339630126953125" lon="-7.59555366821587085723876953125">
        <ele>398</ele>
        <time>2019-04-27T09:47:08.000Z</time>
      </trkpt>
      <trkpt lat="39.7678173892199993133544921875" lon="-7.59547286666929721832275390625">
        <ele>398</ele>
        <time>2019-04-27T09:47:15.000Z</time>
      </trkpt>
      <trkpt lat="39.767852760851383209228515625" lon="-7.5954360701143741607666015625">
        <ele>398.20001220703125</ele>
        <time>2019-04-27T09:47:21.000Z</time>
      </trkpt>
      <trkpt lat="39.76792459376156330108642578125" lon="-7.595375888049602508544921875">
        <ele>398.20001220703125</ele>
        <time>2019-04-27T09:47:26.000Z</time>
      </trkpt>
      <trkpt lat="39.76799433119595050811767578125" lon="-7.59530221112072467803955078125">
        <ele>398.600006103515625</ele>
        <time>2019-04-27T09:47:33.000Z</time>
      </trkpt>
      <trkpt lat="39.76803573779761791229248046875" lon="-7.59528662078082561492919921875">
        <ele>398.600006103515625</ele>
        <time>2019-04-27T09:48:16.000Z</time>
      </trkpt>
      <trkpt lat="39.76819574832916259765625" lon="-7.59526968933641910552978515625">
        <ele>398.79998779296875</ele>
        <time>2019-04-27T09:48:24.000Z</time>
      </trkpt>
      <trkpt lat="39.76860788650810718536376953125" lon="-7.59482259862124919891357421875">
        <ele>401.600006103515625</ele>
        <time>2019-04-27T09:48:46.000Z</time>
      </trkpt>
      <trkpt lat="39.76864191703498363494873046875" lon="-7.59448514319956302642822265625">
        <ele>404.399993896484375</ele>
        <time>2019-04-27T09:48:57.000Z</time>
      </trkpt>
      <trkpt lat="39.76864409632980823516845703125" lon="-7.59440350346267223358154296875">
        <ele>405.20001220703125</ele>
        <time>2019-04-27T09:49:01.000Z</time>
      </trkpt>
      <trkpt lat="39.76903167553246021270751953125" lon="-7.59386152960360050201416015625">
        <ele>404</ele>
        <time>2019-04-27T09:49:14.000Z</time>
      </trkpt>
      <trkpt lat="39.76928782649338245391845703125" lon="-7.5935538299381732940673828125">
        <ele>401.399993896484375</ele>
        <time>2019-04-27T09:49:25.000Z</time>
      </trkpt>
      <trkpt lat="39.76936896331608295440673828125" lon="-7.59352155961096286773681640625">
        <ele>400.600006103515625</ele>
        <time>2019-04-27T09:49:33.000Z</time>
      </trkpt>
      <trkpt lat="39.76937265135347843170166015625" lon="-7.593513429164886474609375">
        <ele>400.600006103515625</ele>
        <time>2019-04-27T09:52:48.000Z</time>
      </trkpt>
      <trkpt lat="39.76944725029170513153076171875" lon="-7.59340547025203704833984375">
        <ele>399.79998779296875</ele>
        <time>2019-04-27T09:52:51.000Z</time>
      </trkpt>
      <trkpt lat="39.7699463926255702972412109375" lon="-7.592952512204647064208984375">
        <ele>391.79998779296875</ele>
        <time>2019-04-27T09:53:00.000Z</time>
      </trkpt>
      <trkpt lat="39.77018921636044979095458984375" lon="-7.592688985168933868408203125">
        <ele>387.399993896484375</ele>
        <time>2019-04-27T09:53:03.000Z</time>
      </trkpt>
      <trkpt lat="39.7703644819557666778564453125" lon="-7.59227030910551548004150390625">
        <ele>386.600006103515625</ele>
        <time>2019-04-27T09:53:07.000Z</time>
      </trkpt>
      <trkpt lat="39.7706145979464054107666015625" lon="-7.591646611690521240234375">
        <ele>389.399993896484375</ele>
        <time>2019-04-27T09:53:31.000Z</time>
      </trkpt>
      <trkpt lat="39.7709337808191776275634765625" lon="-7.591203711926937103271484375">
        <ele>388.79998779296875</ele>
        <time>2019-04-27T09:53:41.000Z</time>
      </trkpt>
      <trkpt lat="39.7710095532238483428955078125" lon="-7.5911026261746883392333984375">
        <ele>388.600006103515625</ele>
        <time>2019-04-27T09:53:43.000Z</time>
      </trkpt>
      <trkpt lat="39.7712187655270099639892578125" lon="-7.59053374640643596649169921875">
        <ele>391</ele>
        <time>2019-04-27T09:54:07.000Z</time>
      </trkpt>
      <trkpt lat="39.77125120349228382110595703125" lon="-7.5904203392565250396728515625">
        <ele>392.20001220703125</ele>
        <time>2019-04-27T09:54:14.000Z</time>
      </trkpt>
      <trkpt lat="39.771408028900623321533203125" lon="-7.59011615999042987823486328125">
        <ele>395.79998779296875</ele>
        <time>2019-04-27T09:54:37.000Z</time>
      </trkpt>
      <trkpt lat="39.77145790122449398040771484375" lon="-7.59008648805320262908935546875">
        <ele>396.20001220703125</ele>
        <time>2019-04-27T09:54:41.000Z</time>
      </trkpt>
      <trkpt lat="39.77147868834435939788818359375" lon="-7.59007123298943042755126953125">
        <ele>396.399993896484375</ele>
        <time>2019-04-27T09:54:43.000Z</time>
      </trkpt>
      <trkpt lat="39.77154859341681003570556640625" lon="-7.59002798236906528472900390625">
        <ele>397</ele>
        <time>2019-04-27T09:54:49.000Z</time>
      </trkpt>
      <trkpt lat="39.77174364030361175537109375" lon="-7.5899259746074676513671875">
        <ele>398.79998779296875</ele>
        <time>2019-04-27T09:55:06.000Z</time>
      </trkpt>
      <trkpt lat="39.77180843241512775421142578125" lon="-7.58987375535070896148681640625">
        <ele>399.600006103515625</ele>
        <time>2019-04-27T09:55:12.000Z</time>
      </trkpt>
      <trkpt lat="39.77185771800577640533447265625" lon="-7.589836455881595611572265625">
        <ele>400.20001220703125</ele>
        <time>2019-04-27T09:55:18.000Z</time>
      </trkpt>
      <trkpt lat="39.77187716402113437652587890625" lon="-7.589838467538356781005859375">
        <ele>400.20001220703125</ele>
        <time>2019-04-27T09:55:41.000Z</time>
      </trkpt>
      <trkpt lat="39.7718732245266437530517578125" lon="-7.5898382999002933502197265625">
        <ele>400.20001220703125</ele>
        <time>2019-04-27T09:55:42.000Z</time>
      </trkpt>
      <trkpt lat="39.77190549485385417938232421875" lon="-7.58981524966657161712646484375">
        <ele>400.600006103515625</ele>
        <time>2019-04-27T09:57:02.000Z</time>
      </trkpt>
      <trkpt lat="39.77192058227956295013427734375" lon="-7.589728496968746185302734375">
        <ele>401.600006103515625</ele>
        <time>2019-04-27T09:57:06.000Z</time>
      </trkpt>
      <trkpt lat="39.77192644961178302764892578125" lon="-7.589711062610149383544921875">
        <ele>401.79998779296875</ele>
        <time>2019-04-27T09:57:07.000Z</time>
      </trkpt>
      <trkpt lat="39.77199836634099483489990234375" lon="-7.58957318030297756195068359375">
        <ele>403.600006103515625</ele>
        <time>2019-04-27T09:57:12.000Z</time>
      </trkpt>
      <trkpt lat="39.77203239686787128448486328125" lon="-7.58953847922384738922119140625">
        <ele>404</ele>
        <time>2019-04-27T09:57:13.000Z</time>
      </trkpt>
      <trkpt lat="39.7721736319363117218017578125" lon="-7.58935458026826381683349609375">
        <ele>404.79998779296875</ele>
        <time>2019-04-27T09:57:17.000Z</time>
      </trkpt>
      <trkpt lat="39.77240220643579959869384765625" lon="-7.58910446427762508392333984375">
        <ele>403.79998779296875</ele>
        <time>2019-04-27T09:57:23.000Z</time>
      </trkpt>
      <trkpt lat="39.77281811647117137908935546875" lon="-7.58868553675711154937744140625">
        <ele>397.79998779296875</ele>
        <time>2019-04-27T09:57:31.000Z</time>
      </trkpt>
      <trkpt lat="39.7729192860424518585205078125" lon="-7.5885910727083683013916015625">
        <ele>396.20001220703125</ele>
        <time>2019-04-27T09:57:33.000Z</time>
      </trkpt>
      <trkpt lat="39.77319211699068546295166015625" lon="-7.5883837044239044189453125">
        <ele>391.20001220703125</ele>
        <time>2019-04-27T09:57:44.000Z</time>
      </trkpt>
      <trkpt lat="39.773188345134258270263671875" lon="-7.5883848778903484344482421875">
        <ele>391.399993896484375</ele>
        <time>2019-04-27T09:57:45.000Z</time>
      </trkpt>
      <trkpt lat="39.77319697849452495574951171875" lon="-7.58838043548166751861572265625">
        <ele>391.20001220703125</ele>
        <time>2019-04-27T09:58:03.000Z</time>
      </trkpt>
      <trkpt lat="39.77341842837631702423095703125" lon="-7.5881994701921939849853515625">
        <ele>387.79998779296875</ele>
        <time>2019-04-27T09:58:10.000Z</time>
      </trkpt>
      <trkpt lat="39.7736444883048534393310546875" lon="-7.5881196744740009307861328125">
        <ele>384.399993896484375</ele>
        <time>2019-04-27T09:58:14.000Z</time>
      </trkpt>
      <trkpt lat="39.773874320089817047119140625" lon="-7.588064856827259063720703125">
        <ele>382.600006103515625</ele>
        <time>2019-04-27T09:58:17.000Z</time>
      </trkpt>
      <trkpt lat="39.7740964405238628387451171875" lon="-7.58780367672443389892578125">
        <ele>381.79998779296875</ele>
        <time>2019-04-27T09:58:23.000Z</time>
      </trkpt>
      <trkpt lat="39.77448343299329280853271484375" lon="-7.5873148441314697265625">
        <ele>382.600006103515625</ele>
        <time>2019-04-27T09:58:50.000Z</time>
      </trkpt>
      <trkpt lat="39.7749852575361728668212890625" lon="-7.5869824178516864776611328125">
        <ele>384.20001220703125</ele>
        <time>2019-04-27T09:59:13.000Z</time>
      </trkpt>
      <trkpt lat="39.77551725693047046661376953125" lon="-7.586698941886425018310546875">
        <ele>384.399993896484375</ele>
        <time>2019-04-27T09:59:28.000Z</time>
      </trkpt>
      <trkpt lat="39.77590818889439105987548828125" lon="-7.58635134436190128326416015625">
        <ele>383.20001220703125</ele>
        <time>2019-04-27T09:59:39.000Z</time>
      </trkpt>
      <trkpt lat="39.776083789765834808349609375" lon="-7.586279846727848052978515625">
        <ele>382.20001220703125</ele>
        <time>2019-04-27T09:59:43.000Z</time>
      </trkpt>
      <trkpt lat="39.77660506032407283782958984375" lon="-7.5860868953168392181396484375">
        <ele>376.20001220703125</ele>
        <time>2019-04-27T09:59:50.000Z</time>
      </trkpt>
      <trkpt lat="39.77707344107329845428466796875" lon="-7.5856389664113521575927734375">
        <ele>372</ele>
        <time>2019-04-27T09:59:57.000Z</time>
      </trkpt>
      <trkpt lat="39.77725599892437458038330078125" lon="-7.5854367949068546295166015625">
        <ele>373.20001220703125</ele>
        <time>2019-04-27T10:00:01.000Z</time>
      </trkpt>
      <trkpt lat="39.777375943958759307861328125" lon="-7.58527292869985103607177734375">
        <ele>374.20001220703125</ele>
        <time>2019-04-27T10:00:04.000Z</time>
      </trkpt>
      <trkpt lat="39.7775454260408878326416015625" lon="-7.5850904546678066253662109375">
        <ele>375.20001220703125</ele>
        <time>2019-04-27T10:00:08.000Z</time>
      </trkpt>
      <trkpt lat="39.7779454104602336883544921875" lon="-7.5846009515225887298583984375">
        <ele>378.79998779296875</ele>
        <time>2019-04-27T10:00:25.000Z</time>
      </trkpt>
      <trkpt lat="39.77833785116672515869140625" lon="-7.5841131247580051422119140625">
        <ele>381.399993896484375</ele>
        <time>2019-04-27T10:00:50.000Z</time>
      </trkpt>
      <trkpt lat="39.77861487306654453277587890625" lon="-7.58369830437004566192626953125">
        <ele>384.20001220703125</ele>
        <time>2019-04-27T10:01:09.000Z</time>
      </trkpt>
      <trkpt lat="39.7789696790277957916259765625" lon="-7.58317125029861927032470703125">
        <ele>387.600006103515625</ele>
        <time>2019-04-27T10:01:34.000Z</time>
      </trkpt>
      <trkpt lat="39.7793673165142536163330078125" lon="-7.5826768018305301666259765625">
        <ele>389.399993896484375</ele>
        <time>2019-04-27T10:01:55.000Z</time>
      </trkpt>
      <trkpt lat="39.7796744294464588165283203125" lon="-7.5820974446833133697509765625">
        <ele>389.79998779296875</ele>
        <time>2019-04-27T10:02:12.000Z</time>
      </trkpt>
      <trkpt lat="39.78001263923943042755126953125" lon="-7.5814882479608058929443359375">
        <ele>388.399993896484375</ele>
        <time>2019-04-27T10:02:30.000Z</time>
      </trkpt>
      <trkpt lat="39.7800724022090435028076171875" lon="-7.5813574902713298797607421875">
        <ele>387.79998779296875</ele>
        <time>2019-04-27T10:02:33.000Z</time>
      </trkpt>
      <trkpt lat="39.78035227395594120025634765625" lon="-7.58081140927970409393310546875">
        <ele>385.20001220703125</ele>
        <time>2019-04-27T10:02:46.000Z</time>
      </trkpt>
      <trkpt lat="39.7806336544454097747802734375" lon="-7.5802752189338207244873046875">
        <ele>384</ele>
        <time>2019-04-27T10:02:56.000Z</time>
      </trkpt>
      <trkpt lat="39.78076667524874210357666015625" lon="-7.58003155700862407684326171875">
        <ele>383.600006103515625</ele>
        <time>2019-04-27T10:03:01.000Z</time>
      </trkpt>
      <trkpt lat="39.78108418174088001251220703125" lon="-7.579383552074432373046875">
        <ele>382.399993896484375</ele>
        <time>2019-04-27T10:03:09.000Z</time>
      </trkpt>
      <trkpt lat="39.78141794912517070770263671875" lon="-7.57874761708080768585205078125">
        <ele>381</ele>
        <time>2019-04-27T10:03:18.000Z</time>
      </trkpt>
      <trkpt lat="39.78159178979694843292236328125" lon="-7.578438408672809600830078125">
        <ele>380.20001220703125</ele>
        <time>2019-04-27T10:03:24.000Z</time>
      </trkpt>
      <trkpt lat="39.781725816428661346435546875" lon="-7.57819332182407379150390625">
        <ele>379.600006103515625</ele>
        <time>2019-04-27T10:03:29.000Z</time>
      </trkpt>
      <trkpt lat="39.78186218999326229095458984375" lon="-7.57794932462275028228759765625">
        <ele>379.20001220703125</ele>
        <time>2019-04-27T10:03:34.000Z</time>
      </trkpt>
      <trkpt lat="39.7819445841014385223388671875" lon="-7.5778139568865299224853515625">
        <ele>379</ele>
        <time>2019-04-27T10:03:37.000Z</time>
      </trkpt>
      <trkpt lat="39.78223853744566440582275390625" lon="-7.57720199413597583770751953125">
        <ele>380.20001220703125</ele>
        <time>2019-04-27T10:03:51.000Z</time>
      </trkpt>
      <trkpt lat="39.78252888657152652740478515625" lon="-7.5766642950475215911865234375">
        <ele>382.399993896484375</ele>
        <time>2019-04-27T10:04:21.000Z</time>
      </trkpt>
      <trkpt lat="39.782579429447650909423828125" lon="-7.57656882517039775848388671875">
        <ele>382.600006103515625</ele>
        <time>2019-04-27T10:20:07.000Z</time>
      </trkpt>
      <trkpt lat="39.78276642970740795135498046875" lon="-7.57622416131198406219482421875">
        <ele>382.79998779296875</ele>
        <time>2019-04-27T10:20:25.000Z</time>
      </trkpt>
      <trkpt lat="39.7828642465174198150634765625" lon="-7.57603791542351245880126953125">
        <ele>383</ele>
        <time>2019-04-27T10:20:41.000Z</time>
      </trkpt>
      <trkpt lat="39.78288687765598297119140625" lon="-7.57600153796374797821044921875">
        <ele>383</ele>
        <time>2019-04-27T10:21:07.000Z</time>
      </trkpt>
      <trkpt lat="39.7829802520573139190673828125" lon="-7.57581613026559352874755859375">
        <ele>383.79998779296875</ele>
        <time>2019-04-27T10:21:21.000Z</time>
      </trkpt>
      <trkpt lat="39.78325224481523036956787109375" lon="-7.5752008147537708282470703125">
        <ele>385.79998779296875</ele>
        <time>2019-04-27T10:21:52.000Z</time>
      </trkpt>
      <trkpt lat="39.78359489701688289642333984375" lon="-7.57464467547833919525146484375">
        <ele>387.20001220703125</ele>
        <time>2019-04-27T10:22:17.000Z</time>
      </trkpt>
      <trkpt lat="39.78388055227696895599365234375" lon="-7.5741433538496494293212890625">
        <ele>389.20001220703125</ele>
        <time>2019-04-27T10:22:39.000Z</time>
      </trkpt>
      <trkpt lat="39.7838865034282207489013671875" lon="-7.57412977516651153564453125">
        <ele>389</ele>
        <time>2019-04-27T10:22:41.000Z</time>
      </trkpt>
      <trkpt lat="39.7838942147791385650634765625" lon="-7.5741011090576648712158203125">
        <ele>389</ele>
        <time>2019-04-27T10:23:35.000Z</time>
      </trkpt>
      <trkpt lat="39.78419403545558452606201171875" lon="-7.5735190697014331817626953125">
        <ele>389</ele>
        <time>2019-04-27T10:23:55.000Z</time>
      </trkpt>
      <trkpt lat="39.784551523625850677490234375" lon="-7.5729350186884403228759765625">
        <ele>386.600006103515625</ele>
        <time>2019-04-27T10:24:07.000Z</time>
      </trkpt>
      <trkpt lat="39.78492401540279388427734375" lon="-7.5724093057215213775634765625">
        <ele>383.600006103515625</ele>
        <time>2019-04-27T10:24:17.000Z</time>
      </trkpt>
      <trkpt lat="39.78533883579075336456298828125" lon="-7.57185970433056354522705078125">
        <ele>381.399993896484375</ele>
        <time>2019-04-27T10:24:26.000Z</time>
      </trkpt>
      <trkpt lat="39.7856904566287994384765625" lon="-7.5714007951319217681884765625">
        <ele>379.600006103515625</ele>
        <time>2019-04-27T10:24:38.000Z</time>
      </trkpt>
      <trkpt lat="39.78547118604183197021484375" lon="-7.57133868522942066192626953125">
        <ele>380.79998779296875</ele>
        <time>2019-04-27T10:24:47.000Z</time>
      </trkpt>
      <trkpt lat="39.7849369235336780548095703125" lon="-7.5712291337549686431884765625">
        <ele>383.600006103515625</ele>
        <time>2019-04-27T10:25:02.000Z</time>
      </trkpt>
      <trkpt lat="39.78440559469163417816162109375" lon="-7.570977844297885894775390625">
        <ele>386.399993896484375</ele>
        <time>2019-04-27T10:25:21.000Z</time>
      </trkpt>
      <trkpt lat="39.78410954587161540985107421875" lon="-7.5708428956568241119384765625">
        <ele>386.600006103515625</ele>
        <time>2019-04-27T10:25:35.000Z</time>
      </trkpt>
      <trkpt lat="39.78407233022153377532958984375" lon="-7.570708282291889190673828125">
        <ele>386.79998779296875</ele>
        <time>2019-04-27T10:25:39.000Z</time>
      </trkpt>
      <trkpt lat="39.7842787764966487884521484375" lon="-7.57003697566688060760498046875">
        <ele>387</ele>
        <time>2019-04-27T10:25:56.000Z</time>
      </trkpt>
      <trkpt lat="39.7844698838889598846435546875" lon="-7.5693626515567302703857421875">
        <ele>386.20001220703125</ele>
        <time>2019-04-27T10:26:14.000Z</time>
      </trkpt>
      <trkpt lat="39.78476283140480518341064453125" lon="-7.56873409263789653778076171875">
        <ele>385.600006103515625</ele>
        <time>2019-04-27T10:26:29.000Z</time>
      </trkpt>
      <trkpt lat="39.7850864566862583160400390625" lon="-7.5681727565824985504150390625">
        <ele>385.399993896484375</ele>
        <time>2019-04-27T10:26:41.000Z</time>
      </trkpt>
      <trkpt lat="39.78542835451662540435791015625" lon="-7.5676207244396209716796875">
        <ele>384.600006103515625</ele>
        <time>2019-04-27T10:26:51.000Z</time>
      </trkpt>
      <trkpt lat="39.785761535167694091796875" lon="-7.56704865954816341400146484375">
        <ele>382.399993896484375</ele>
        <time>2019-04-27T10:26:59.000Z</time>
      </trkpt>
      <trkpt lat="39.786107875406742095947265625" lon="-7.566480450332164764404296875">
        <ele>380.600006103515625</ele>
        <time>2019-04-27T10:27:08.000Z</time>
      </trkpt>
      <trkpt lat="39.7862153314054012298583984375" lon="-7.56630300544202327728271484375">
        <ele>380.20001220703125</ele>
        <time>2019-04-27T10:27:11.000Z</time>
      </trkpt>
      <trkpt lat="39.7865556366741657257080078125" lon="-7.56572482176125049591064453125">
        <ele>378.20001220703125</ele>
        <time>2019-04-27T10:27:21.000Z</time>
      </trkpt>
      <trkpt lat="39.78676375932991504669189453125" lon="-7.56538099609315395355224609375">
        <ele>378.600006103515625</ele>
        <time>2019-04-27T10:27:28.000Z</time>
      </trkpt>
      <trkpt lat="39.78681555949151515960693359375" lon="-7.5652940757572650909423828125">
        <ele>378.600006103515625</ele>
        <time>2019-04-27T10:27:30.000Z</time>
      </trkpt>
      <trkpt lat="39.787037260830402374267578125" lon="-7.56492183543741703033447265625">
        <ele>378.600006103515625</ele>
        <time>2019-04-27T10:27:39.000Z</time>
      </trkpt>
      <trkpt lat="39.7873958386480808258056640625" lon="-7.56431959569454193115234375">
        <ele>377.79998779296875</ele>
        <time>2019-04-27T10:27:50.000Z</time>
      </trkpt>
      <trkpt lat="39.78772566653788089752197265625" lon="-7.563763372600078582763671875">
        <ele>377</ele>
        <time>2019-04-27T10:27:59.000Z</time>
      </trkpt>
      <trkpt lat="39.7880368866026401519775390625" lon="-7.56314302794635295867919921875">
        <ele>375.79998779296875</ele>
        <time>2019-04-27T10:28:08.000Z</time>
      </trkpt>
      <trkpt lat="39.788299240171909332275390625" lon="-7.5625057518482208251953125">
        <ele>375</ele>
        <time>2019-04-27T10:28:17.000Z</time>
      </trkpt>
      <trkpt lat="39.7885904274880886077880859375" lon="-7.5618390552699565887451171875">
        <ele>375.79998779296875</ele>
        <time>2019-04-27T10:28:27.000Z</time>
      </trkpt>
      <trkpt lat="39.78887625038623809814453125" lon="-7.56114746443927288055419921875">
        <ele>375</ele>
        <time>2019-04-27T10:28:36.000Z</time>
      </trkpt>
      <trkpt lat="39.78911236859858036041259765625" lon="-7.56061219610273838043212890625">
        <ele>374.20001220703125</ele>
        <time>2019-04-27T10:28:43.000Z</time>
      </trkpt>
      <trkpt lat="39.78938058950006961822509765625" lon="-7.55995455197989940643310546875">
        <ele>374.399993896484375</ele>
        <time>2019-04-27T10:28:53.000Z</time>
      </trkpt>
      <trkpt lat="39.7894825972616672515869140625" lon="-7.55970460362732410430908203125">
        <ele>375.79998779296875</ele>
        <time>2019-04-27T10:28:57.000Z</time>
      </trkpt>
      <trkpt lat="39.78972994722425937652587890625" lon="-7.5590555928647518157958984375">
        <ele>379.399993896484375</ele>
        <time>2019-04-27T10:29:08.000Z</time>
      </trkpt>
      <trkpt lat="39.789950139820575714111328125" lon="-7.558397948741912841796875">
        <ele>380</ele>
        <time>2019-04-27T10:29:20.000Z</time>
      </trkpt>
      <trkpt lat="39.790151305496692657470703125" lon="-7.5576859898865222930908203125">
        <ele>378.79998779296875</ele>
        <time>2019-04-27T10:29:33.000Z</time>
      </trkpt>
      <trkpt lat="39.7902349568903446197509765625" lon="-7.55731861107051372528076171875">
        <ele>378</ele>
        <time>2019-04-27T10:29:39.000Z</time>
      </trkpt>
      <trkpt lat="39.79034115560352802276611328125" lon="-7.5568328797817230224609375">
        <ele>378</ele>
        <time>2019-04-27T10:29:47.000Z</time>
      </trkpt>
      <trkpt lat="39.7904968075454235076904296875" lon="-7.55613340996205806732177734375">
        <ele>382.399993896484375</ele>
        <time>2019-04-27T10:30:01.000Z</time>
      </trkpt>
      <trkpt lat="39.7906517051160335540771484375" lon="-7.5554409809410572052001953125">
        <ele>385.600006103515625</ele>
        <time>2019-04-27T10:30:16.000Z</time>
      </trkpt>
      <trkpt lat="39.79080065153539180755615234375" lon="-7.5547407567501068115234375">
        <ele>387.399993896484375</ele>
        <time>2019-04-27T10:30:30.000Z</time>
      </trkpt>
      <trkpt lat="39.790823198854923248291015625" lon="-7.55463682115077972412109375">
        <ele>387.600006103515625</ele>
        <time>2019-04-27T10:30:32.000Z</time>
      </trkpt>
      <trkpt lat="39.7909755818545818328857421875" lon="-7.5539372675120830535888671875">
        <ele>387.600006103515625</ele>
        <time>2019-04-27T10:30:44.000Z</time>
      </trkpt>
      <trkpt lat="39.79110877029597759246826171875" lon="-7.55321927368640899658203125">
        <ele>387.399993896484375</ele>
        <time>2019-04-27T10:30:56.000Z</time>
      </trkpt>
      <trkpt lat="39.79126132093369960784912109375" lon="-7.55249910056591033935546875">
        <ele>387.79998779296875</ele>
        <time>2019-04-27T10:31:08.000Z</time>
      </trkpt>
      <trkpt lat="39.7914104349911212921142578125" lon="-7.55177297629415988922119140625">
        <ele>388.399993896484375</ele>
        <time>2019-04-27T10:31:20.000Z</time>
      </trkpt>
      <trkpt lat="39.79141856543719768524169921875" lon="-7.55171748809516429901123046875">
        <ele>388.399993896484375</ele>
        <time>2019-04-27T10:31:21.000Z</time>
      </trkpt>
      <trkpt lat="39.7915430366992950439453125" lon="-7.55112572573125362396240234375">
        <ele>388.79998779296875</ele>
        <time>2019-04-27T10:31:32.000Z</time>
      </trkpt>
      <trkpt lat="39.791628532111644744873046875" lon="-7.55069774575531482696533203125">
        <ele>388.399993896484375</ele>
        <time>2019-04-27T10:31:40.000Z</time>
      </trkpt>
      <trkpt lat="39.791737161576747894287109375" lon="-7.54999919794499874114990234375">
        <ele>388.600006103515625</ele>
        <time>2019-04-27T10:31:51.000Z</time>
      </trkpt>
      <trkpt lat="39.79181620292365550994873046875" lon="-7.54925287328660488128662109375">
        <ele>385</ele>
        <time>2019-04-27T10:32:02.000Z</time>
      </trkpt>
      <trkpt lat="39.79188526980578899383544921875" lon="-7.54853102378547191619873046875">
        <ele>382.399993896484375</ele>
        <time>2019-04-27T10:32:11.000Z</time>
      </trkpt>
      <trkpt lat="39.79196003638207912445068359375" lon="-7.54775695502758026123046875">
        <ele>380.79998779296875</ele>
        <time>2019-04-27T10:32:20.000Z</time>
      </trkpt>
      <trkpt lat="39.79201032780110836029052734375" lon="-7.54729519598186016082763671875">
        <ele>381</ele>
        <time>2019-04-27T10:32:26.000Z</time>
      </trkpt>
      <trkpt lat="39.79209330864250659942626953125" lon="-7.54653730429708957672119140625">
        <ele>382</ele>
        <time>2019-04-27T10:32:37.000Z</time>
      </trkpt>
      <trkpt lat="39.7921148501336574554443359375" lon="-7.546329014003276824951171875">
        <ele>382.20001220703125</ele>
        <time>2019-04-27T10:32:40.000Z</time>
      </trkpt>
      <trkpt lat="39.7921825759112834930419921875" lon="-7.54562987945973873138427734375">
        <ele>383</ele>
        <time>2019-04-27T10:32:51.000Z</time>
      </trkpt>
      <trkpt lat="39.79224384762346744537353515625" lon="-7.545195110142230987548828125">
        <ele>382.600006103515625</ele>
        <time>2019-04-27T10:32:58.000Z</time>
      </trkpt>
      <trkpt lat="39.79230134747922420501708984375" lon="-7.54500794224441051483154296875">
        <ele>382.600006103515625</ele>
        <time>2019-04-27T10:33:01.000Z</time>
      </trkpt>
      <trkpt lat="39.7925014235079288482666015625" lon="-7.5446397252380847930908203125">
        <ele>383.600006103515625</ele>
        <time>2019-04-27T10:33:08.000Z</time>
      </trkpt>
      <trkpt lat="39.79279571212828159332275390625" lon="-7.54439036361873149871826171875">
        <ele>384.600006103515625</ele>
        <time>2019-04-27T10:33:16.000Z</time>
      </trkpt>
      <trkpt lat="39.7933154739439487457275390625" lon="-7.54413488321006298065185546875">
        <ele>385.600006103515625</ele>
        <time>2019-04-27T10:33:28.000Z</time>
      </trkpt>
      <trkpt lat="39.79385183192789554595947265625" lon="-7.5438980944454669952392578125">
        <ele>385.600006103515625</ele>
        <time>2019-04-27T10:33:39.000Z</time>
      </trkpt>
      <trkpt lat="39.79441232979297637939453125" lon="-7.54365124739706516265869140625">
        <ele>384.20001220703125</ele>
        <time>2019-04-27T10:33:50.000Z</time>
      </trkpt>
      <trkpt lat="39.794652052223682403564453125" lon="-7.54352468065917491912841796875">
        <ele>383.600006103515625</ele>
        <time>2019-04-27T10:33:54.000Z</time>
      </trkpt>
      <trkpt lat="39.79485087096691131591796875" lon="-7.5431450642645359039306640625">
        <ele>383.79998779296875</ele>
        <time>2019-04-27T10:33:59.000Z</time>
      </trkpt>
      <trkpt lat="39.795061759650707244873046875" lon="-7.54249974153935909271240234375">
        <ele>382.79998779296875</ele>
        <time>2019-04-27T10:34:07.000Z</time>
      </trkpt>
      <trkpt lat="39.79516762308776378631591796875" lon="-7.5422606058418750762939453125">
        <ele>382</ele>
        <time>2019-04-27T10:34:11.000Z</time>
      </trkpt>
      <trkpt lat="39.7954230196774005889892578125" lon="-7.54164227284491062164306640625">
        <ele>380.20001220703125</ele>
        <time>2019-04-27T10:34:22.000Z</time>
      </trkpt>
      <trkpt lat="39.79574446566402912139892578125" lon="-7.540977336466312408447265625">
        <ele>379.600006103515625</ele>
        <time>2019-04-27T10:34:31.000Z</time>
      </trkpt>
      <trkpt lat="39.7960228286683559417724609375" lon="-7.5403411500155925750732421875">
        <ele>382</ele>
        <time>2019-04-27T10:34:40.000Z</time>
      </trkpt>
      <trkpt lat="39.7962746210396289825439453125" lon="-7.53970689140260219573974609375">
        <ele>385.20001220703125</ele>
        <time>2019-04-27T10:34:50.000Z</time>
      </trkpt>
      <trkpt lat="39.7964278422296047210693359375" lon="-7.53933473490178585052490234375">
        <ele>386.399993896484375</ele>
        <time>2019-04-27T10:34:56.000Z</time>
      </trkpt>
      <trkpt lat="39.7966969013214111328125" lon="-7.5387090258300304412841796875">
        <ele>387.399993896484375</ele>
        <time>2019-04-27T10:35:06.000Z</time>
      </trkpt>
      <trkpt lat="39.79681701399385929107666015625" lon="-7.53839327953755855560302734375">
        <ele>387</ele>
        <time>2019-04-27T10:35:11.000Z</time>
      </trkpt>
      <trkpt lat="39.796921201050281524658203125" lon="-7.53815422765910625457763671875">
        <ele>387.399993896484375</ele>
        <time>2019-04-27T10:35:15.000Z</time>
      </trkpt>
      <trkpt lat="39.79713569395244121551513671875" lon="-7.5375456176698207855224609375">
        <ele>388.399993896484375</ele>
        <time>2019-04-27T10:35:26.000Z</time>
      </trkpt>
      <trkpt lat="39.79733333922922611236572265625" lon="-7.53688395023345947265625">
        <ele>386.79998779296875</ele>
        <time>2019-04-27T10:35:38.000Z</time>
      </trkpt>
      <trkpt lat="39.79754791595041751861572265625" lon="-7.53619504161179065704345703125">
        <ele>385.20001220703125</ele>
        <time>2019-04-27T10:35:49.000Z</time>
      </trkpt>
      <trkpt lat="39.797562919557094573974609375" lon="-7.53612563945353031158447265625">
        <ele>385</ele>
        <time>2019-04-27T10:35:50.000Z</time>
      </trkpt>
      <trkpt lat="39.79767314158380031585693359375" lon="-7.53544033505022525787353515625">
        <ele>383</ele>
        <time>2019-04-27T10:35:59.000Z</time>
      </trkpt>
      <trkpt lat="39.797753356397151947021484375" lon="-7.534951753914356231689453125">
        <ele>381.20001220703125</ele>
        <time>2019-04-27T10:36:05.000Z</time>
      </trkpt>
      <trkpt lat="39.79777087457478046417236328125" lon="-7.53479115664958953857421875">
        <ele>380.600006103515625</ele>
        <time>2019-04-27T10:36:07.000Z</time>
      </trkpt>
      <trkpt lat="39.79778914712369441986083984375" lon="-7.53455151803791522979736328125">
        <ele>380</ele>
        <time>2019-04-27T10:36:10.000Z</time>
      </trkpt>
      <trkpt lat="39.79775838553905487060546875" lon="-7.5339618511497974395751953125">
        <ele>378.600006103515625</ele>
        <time>2019-04-27T10:36:17.000Z</time>
      </trkpt>
      <trkpt lat="39.797783195972442626953125" lon="-7.5337492860853672027587890625">
        <ele>378.399993896484375</ele>
        <time>2019-04-27T10:36:20.000Z</time>
      </trkpt>
      <trkpt lat="39.79779216460883617401123046875" lon="-7.533569745719432830810546875">
        <ele>378.20001220703125</ele>
        <time>2019-04-27T10:36:23.000Z</time>
      </trkpt>
      <trkpt lat="39.79787095449864864349365234375" lon="-7.533343769609928131103515625">
        <ele>378</ele>
        <time>2019-04-27T10:36:27.000Z</time>
      </trkpt>
      <trkpt lat="39.79790481738746166229248046875" lon="-7.533225081861019134521484375">
        <ele>378</ele>
        <time>2019-04-27T10:36:29.000Z</time>
      </trkpt>
      <trkpt lat="39.79803062975406646728515625" lon="-7.53281428478658199310302734375">
        <ele>378</ele>
        <time>2019-04-27T10:36:35.000Z</time>
      </trkpt>
      <trkpt lat="39.798069186508655548095703125" lon="-7.532513625919818878173828125">
        <ele>378</ele>
        <time>2019-04-27T10:36:39.000Z</time>
      </trkpt>
      <trkpt lat="39.79814236052334308624267578125" lon="-7.53178037703037261962890625">
        <ele>375.20001220703125</ele>
        <time>2019-04-27T10:36:49.000Z</time>
      </trkpt>
      <trkpt lat="39.7982906363904476165771484375" lon="-7.5310707651078701019287109375">
        <ele>373.600006103515625</ele>
        <time>2019-04-27T10:37:05.000Z</time>
      </trkpt>
      <trkpt lat="39.798628427088260650634765625" lon="-7.53049886785447597503662109375">
        <ele>377.600006103515625</ele>
        <time>2019-04-27T10:37:22.000Z</time>
      </trkpt>
      <trkpt lat="39.7990661300718784332275390625" lon="-7.5300872325897216796875">
        <ele>379.399993896484375</ele>
        <time>2019-04-27T10:37:34.000Z</time>
      </trkpt>
      <trkpt lat="39.79951615445315837860107421875" lon="-7.52964911051094532012939453125">
        <ele>378.600006103515625</ele>
        <time>2019-04-27T10:37:45.000Z</time>
      </trkpt>
      <trkpt lat="39.79979418218135833740234375" lon="-7.52938088960945606231689453125">
        <ele>377.20001220703125</ele>
        <time>2019-04-27T10:37:52.000Z</time>
      </trkpt>
      <trkpt lat="39.80025820434093475341796875" lon="-7.5289035402238368988037109375">
        <ele>374.399993896484375</ele>
        <time>2019-04-27T10:38:03.000Z</time>
      </trkpt>
      <trkpt lat="39.80029600672423839569091796875" lon="-7.52885232679545879364013671875">
        <ele>374.20001220703125</ele>
        <time>2019-04-27T10:38:04.000Z</time>
      </trkpt>
      <trkpt lat="39.80065810494124889373779296875" lon="-7.5282665155827999114990234375">
        <ele>373.399993896484375</ele>
        <time>2019-04-27T10:38:15.000Z</time>
      </trkpt>
      <trkpt lat="39.8007465340197086334228515625" lon="-7.5281189940869808197021484375">
        <ele>373.600006103515625</ele>
        <time>2019-04-27T10:38:18.000Z</time>
      </trkpt>
      <trkpt lat="39.8010968975722789764404296875" lon="-7.5275780260562896728515625">
        <ele>374.600006103515625</ele>
        <time>2019-04-27T10:38:29.000Z</time>
      </trkpt>
      <trkpt lat="39.80146846733987331390380859375" lon="-7.52699674107134342193603515625">
        <ele>376</ele>
        <time>2019-04-27T10:38:42.000Z</time>
      </trkpt>
      <trkpt lat="39.80181363411247730255126953125" lon="-7.52644621767103672027587890625">
        <ele>377.600006103515625</ele>
        <time>2019-04-27T10:38:55.000Z</time>
      </trkpt>
      <trkpt lat="39.8021511733531951904296875" lon="-7.52587725408375263214111328125">
        <ele>380.399993896484375</ele>
        <time>2019-04-27T10:39:07.000Z</time>
      </trkpt>
      <trkpt lat="39.8024232499301433563232421875" lon="-7.52522966824471950531005859375">
        <ele>382.399993896484375</ele>
        <time>2019-04-27T10:39:21.000Z</time>
      </trkpt>
      <trkpt lat="39.8025214858353137969970703125" lon="-7.52495356835424900054931640625">
        <ele>383.399993896484375</ele>
        <time>2019-04-27T10:39:27.000Z</time>
      </trkpt>
      <trkpt lat="39.802776463329792022705078125" lon="-7.524260468780994415283203125">
        <ele>382.399993896484375</ele>
        <time>2019-04-27T10:39:39.000Z</time>
      </trkpt>
      <trkpt lat="39.803007133305072784423828125" lon="-7.52362310886383056640625">
        <ele>380.399993896484375</ele>
        <time>2019-04-27T10:39:48.000Z</time>
      </trkpt>
      <trkpt lat="39.80321860872209072113037109375" lon="-7.52305112779140472412109375">
        <ele>378.600006103515625</ele>
        <time>2019-04-27T10:39:56.000Z</time>
      </trkpt>
      <trkpt lat="39.80344911105930805206298828125" lon="-7.5223557651042938232421875">
        <ele>377.20001220703125</ele>
        <time>2019-04-27T10:40:05.000Z</time>
      </trkpt>
      <trkpt lat="39.8035259731113910675048828125" lon="-7.52207790501415729522705078125">
        <ele>376.79998779296875</ele>
        <time>2019-04-27T10:40:08.000Z</time>
      </trkpt>
      <trkpt lat="39.80376158840954303741455078125" lon="-7.52187573350965976715087890625">
        <ele>375.600006103515625</ele>
        <time>2019-04-27T10:40:12.000Z</time>
      </trkpt>
      <trkpt lat="39.8038919270038604736328125" lon="-7.5217812694609165191650390625">
        <ele>375.20001220703125</ele>
        <time>2019-04-27T10:40:14.000Z</time>
      </trkpt>
      <trkpt lat="39.8040942661464214324951171875" lon="-7.52133929170668125152587890625">
        <ele>374.600006103515625</ele>
        <time>2019-04-27T10:40:20.000Z</time>
      </trkpt>
      <trkpt lat="39.80414480902254581451416015625" lon="-7.52113468945026397705078125">
        <ele>374.399993896484375</ele>
        <time>2019-04-27T10:40:23.000Z</time>
      </trkpt>
      <trkpt lat="39.80419568717479705810546875" lon="-7.52068399451673030853271484375">
        <ele>375</ele>
        <time>2019-04-27T10:40:31.000Z</time>
      </trkpt>
      <trkpt lat="39.8042635805904865264892578125" lon="-7.5204686634242534637451171875">
        <ele>375.79998779296875</ele>
        <time>2019-04-27T10:40:35.000Z</time>
      </trkpt>
      <trkpt lat="39.80449181981384754180908203125" lon="-7.52032374031841754913330078125">
        <ele>375.600006103515625</ele>
        <time>2019-04-27T10:40:42.000Z</time>
      </trkpt>
      <trkpt lat="39.8045338131487369537353515625" lon="-7.52032759599387645721435546875">
        <ele>375.600006103515625</ele>
        <time>2019-04-27T10:40:43.000Z</time>
      </trkpt>
      <trkpt lat="39.80510093271732330322265625" lon="-7.5204850919544696807861328125">
        <ele>375.600006103515625</ele>
        <time>2019-04-27T10:40:56.000Z</time>
      </trkpt>
      <trkpt lat="39.80566553771495819091796875" lon="-7.52065331675112247467041015625">
        <ele>374.79998779296875</ele>
        <time>2019-04-27T10:41:08.000Z</time>
      </trkpt>
      <trkpt lat="39.80609192512929439544677734375" lon="-7.520762197673320770263671875">
        <ele>374.20001220703125</ele>
        <time>2019-04-27T10:41:17.000Z</time>
      </trkpt>
      <trkpt lat="39.80619150213897228240966796875" lon="-7.52059062011539936065673828125">
        <ele>374.399993896484375</ele>
        <time>2019-04-27T10:41:22.000Z</time>
      </trkpt>
      <trkpt lat="39.80619954876601696014404296875" lon="-7.52053848467767238616943359375">
        <ele>374.399993896484375</ele>
        <time>2019-04-27T10:41:23.000Z</time>
      </trkpt>
      <trkpt lat="39.806339107453823089599609375" lon="-7.5198172219097614288330078125">
        <ele>374.600006103515625</ele>
        <time>2019-04-27T10:41:34.000Z</time>
      </trkpt>
      <trkpt lat="39.806461147964000701904296875" lon="-7.51911875791847705841064453125">
        <ele>373.399993896484375</ele>
        <time>2019-04-27T10:41:42.000Z</time>
      </trkpt>
      <trkpt lat="39.80660992674529552459716796875" lon="-7.51841199584305286407470703125">
        <ele>370.79998779296875</ele>
        <time>2019-04-27T10:41:50.000Z</time>
      </trkpt>
      <trkpt lat="39.80673397891223430633544921875" lon="-7.51769148744642734527587890625">
        <ele>368</ele>
        <time>2019-04-27T10:42:02.000Z</time>
      </trkpt>
      <trkpt lat="39.80671369470655918121337890625" lon="-7.51755285076797008514404296875">
        <ele>367.79998779296875</ele>
        <time>2019-04-27T10:42:06.000Z</time>
      </trkpt>
      <trkpt lat="39.8066738806664943695068359375" lon="-7.51760347746312618255615234375">
        <ele>368</ele>
        <time>2019-04-27T10:42:10.000Z</time>
      </trkpt>
      <trkpt lat="39.80668972246348857879638671875" lon="-7.51765578053891658782958984375">
        <ele>368.20001220703125</ele>
        <time>2019-04-27T10:42:12.000Z</time>
      </trkpt>
      <trkpt lat="39.80678862892091274261474609375" lon="-7.51778167672455310821533203125">
        <ele>368</ele>
        <time>2019-04-27T10:42:18.000Z</time>
      </trkpt>
      <trkpt lat="39.806818552315235137939453125" lon="-7.51778134144842624664306640625">
        <ele>367.79998779296875</ele>
        <time>2019-04-27T10:42:22.000Z</time>
      </trkpt>
      <trkpt lat="39.80688116513192653656005859375" lon="-7.5177126936614513397216796875">
        <ele>367.399993896484375</ele>
        <time>2019-04-27T10:42:46.000Z</time>
      </trkpt>
      <trkpt lat="39.80689876712858676910400390625" lon="-7.5176707841455936431884765625">
        <ele>367.20001220703125</ele>
        <time>2019-04-27T10:42:50.000Z</time>
      </trkpt>
      <trkpt lat="39.8068887926638126373291015625" lon="-7.517639100551605224609375">
        <ele>367.20001220703125</ele>
        <time>2019-04-27T10:42:54.000Z</time>
      </trkpt>
      <trkpt lat="39.8066644929349422454833984375" lon="-7.51721732318401336669921875">
        <ele>366.20001220703125</ele>
        <time>2019-04-27T10:43:10.000Z</time>
      </trkpt>
      <trkpt lat="39.80666105635464191436767578125" lon="-7.5171993859112262725830078125">
        <ele>366</ele>
        <time>2019-04-27T10:43:13.000Z</time>
      </trkpt>
      <trkpt lat="39.80663917958736419677734375" lon="-7.517120428383350372314453125">
        <ele>365.600006103515625</ele>
        <time>2019-04-27T10:43:33.000Z</time>
      </trkpt>
      <trkpt lat="39.80640440247952938079833984375" lon="-7.51665581949055194854736328125">
        <ele>365</ele>
        <time>2019-04-27T10:43:48.000Z</time>
      </trkpt>
      <trkpt lat="39.806467853486537933349609375" lon="-7.51650117337703704833984375">
        <ele>365.600006103515625</ele>
        <time>2019-04-27T10:44:03.000Z</time>
      </trkpt>
      <trkpt lat="39.80647464282810688018798828125" lon="-7.51649849116802215576171875">
        <ele>365.399993896484375</ele>
        <time>2019-04-27T10:44:05.000Z</time>
      </trkpt>
      <trkpt lat="39.80646508745849132537841796875" lon="-7.51630394719541072845458984375">
        <ele>365.79998779296875</ele>
        <time>2019-04-27T10:44:14.000Z</time>
      </trkpt>
      <trkpt lat="39.8062105290591716766357421875" lon="-7.51566491089761257171630859375">
        <ele>364.600006103515625</ele>
        <time>2019-04-27T10:44:30.000Z</time>
      </trkpt>
      <trkpt lat="39.8059627600014209747314453125" lon="-7.51502864062786102294921875">
        <ele>367.600006103515625</ele>
        <time>2019-04-27T10:44:47.000Z</time>
      </trkpt>
      <trkpt lat="39.805893190205097198486328125" lon="-7.5143026001751422882080078125">
        <ele>372.20001220703125</ele>
        <time>2019-04-27T10:45:06.000Z</time>
      </trkpt>
      <trkpt lat="39.8060886561870574951171875" lon="-7.51364168711006641387939453125">
        <ele>371</ele>
        <time>2019-04-27T10:45:21.000Z</time>
      </trkpt>
      <trkpt lat="39.80613165535032749176025390625" lon="-7.51355300657451152801513671875">
        <ele>370.600006103515625</ele>
        <time>2019-04-27T10:45:23.000Z</time>
      </trkpt>
      <trkpt lat="39.8065022192895412445068359375" lon="-7.51301388256251811981201171875">
        <ele>366.79998779296875</ele>
        <time>2019-04-27T10:45:41.000Z</time>
      </trkpt>
      <trkpt lat="39.80664865113794803619384765625" lon="-7.512961328029632568359375">
        <ele>365.600006103515625</ele>
        <time>2019-04-27T10:45:45.000Z</time>
      </trkpt>
      <trkpt lat="39.80694654397666454315185546875" lon="-7.51299762167036533355712890625">
        <ele>364</ele>
        <time>2019-04-27T10:45:57.000Z</time>
      </trkpt>
      <trkpt lat="39.80696640908718109130859375" lon="-7.5129796005785465240478515625">
        <ele>363.79998779296875</ele>
        <time>2019-04-27T10:46:04.000Z</time>
      </trkpt>
      <trkpt lat="39.8070462048053741455078125" lon="-7.512793354690074920654296875">
        <ele>362.399993896484375</ele>
        <time>2019-04-27T10:46:10.000Z</time>
      </trkpt>
      <trkpt lat="39.80702600441873073577880859375" lon="-7.51264289952814579010009765625">
        <ele>361.79998779296875</ele>
        <time>2019-04-27T10:46:14.000Z</time>
      </trkpt>
      <trkpt lat="39.80710982345044612884521484375" lon="-7.51239831559360027313232421875">
        <ele>361.399993896484375</ele>
        <time>2019-04-27T10:46:20.000Z</time>
      </trkpt>
      <trkpt lat="39.80715676210820674896240234375" lon="-7.512291111052036285400390625">
        <ele>361.600006103515625</ele>
        <time>2019-04-27T10:46:24.000Z</time>
      </trkpt>
      <trkpt lat="39.807538725435733795166015625" lon="-7.511800266802310943603515625">
        <ele>363</ele>
        <time>2019-04-27T10:46:39.000Z</time>
      </trkpt>
      <trkpt lat="39.80765732936561107635498046875" lon="-7.51164444722235202789306640625">
        <ele>363.399993896484375</ele>
        <time>2019-04-27T10:46:44.000Z</time>
      </trkpt>
      <trkpt lat="39.80769605375826358795166015625" lon="-7.511482425034046173095703125">
        <ele>364.20001220703125</ele>
        <time>2019-04-27T10:46:48.000Z</time>
      </trkpt>
      <trkpt lat="39.80811397545039653778076171875" lon="-7.51100306399166584014892578125">
        <ele>366.79998779296875</ele>
        <time>2019-04-27T10:47:04.000Z</time>
      </trkpt>
      <trkpt lat="39.80852879583835601806640625" lon="-7.5105424784123897552490234375">
        <ele>370.20001220703125</ele>
        <time>2019-04-27T10:47:21.000Z</time>
      </trkpt>
      <trkpt lat="39.80894462205469608306884765625" lon="-7.51009429804980754852294921875">
        <ele>373.399993896484375</ele>
        <time>2019-04-27T10:47:38.000Z</time>
      </trkpt>
      <trkpt lat="39.80937075801193714141845703125" lon="-7.50962206162512302398681640625">
        <ele>375.79998779296875</ele>
        <time>2019-04-27T10:47:56.000Z</time>
      </trkpt>
      <trkpt lat="39.80981466360390186309814453125" lon="-7.50913943164050579071044921875">
        <ele>377.79998779296875</ele>
        <time>2019-04-27T10:48:13.000Z</time>
      </trkpt>
      <trkpt lat="39.81023694388568401336669921875" lon="-7.50864389352500438690185546875">
        <ele>378.399993896484375</ele>
        <time>2019-04-27T10:48:29.000Z</time>
      </trkpt>
      <trkpt lat="39.81065788306295871734619140625" lon="-7.508191354572772979736328125">
        <ele>379.399993896484375</ele>
        <time>2019-04-27T10:48:45.000Z</time>
      </trkpt>
      <trkpt lat="39.81086458079516887664794921875" lon="-7.507958002388477325439453125">
        <ele>379.600006103515625</ele>
        <time>2019-04-27T10:48:52.000Z</time>
      </trkpt>
      <trkpt lat="39.8112607933580875396728515625" lon="-7.50744603574275970458984375">
        <ele>380.20001220703125</ele>
        <time>2019-04-27T10:49:07.000Z</time>
      </trkpt>
      <trkpt lat="39.8113405890762805938720703125" lon="-7.50733313150703907012939453125">
        <ele>380.399993896484375</ele>
        <time>2019-04-27T10:49:11.000Z</time>
      </trkpt>
      <trkpt lat="39.81171919964253902435302734375" lon="-7.5069369189441204071044921875">
        <ele>382.20001220703125</ele>
        <time>2019-04-27T10:49:29.000Z</time>
      </trkpt>
      <trkpt lat="39.8117412440478801727294921875" lon="-7.5069580413401126861572265625">
        <ele>382.399993896484375</ele>
        <time>2019-04-27T10:49:32.000Z</time>
      </trkpt>
      <trkpt lat="39.81172473169863224029541015625" lon="-7.507078908383846282958984375">
        <ele>382</ele>
        <time>2019-04-27T10:49:37.000Z</time>
      </trkpt>
      <trkpt lat="39.81170645914971828460693359375" lon="-7.50712911598384380340576171875">
        <ele>381.79998779296875</ele>
        <time>2019-04-27T10:49:38.000Z</time>
      </trkpt>
      <trkpt lat="39.81188717298209667205810546875" lon="-7.507140599191188812255859375">
        <ele>381.79998779296875</ele>
        <time>2019-04-27T10:49:46.000Z</time>
      </trkpt>
      <trkpt lat="39.81191768310964107513427734375" lon="-7.5071042217314243316650390625">
        <ele>382</ele>
        <time>2019-04-27T10:49:47.000Z</time>
      </trkpt>
      <trkpt lat="39.81208364479243755340576171875" lon="-7.50693297944962978363037109375">
        <ele>382.600006103515625</ele>
        <time>2019-04-27T10:49:53.000Z</time>
      </trkpt>
      <trkpt lat="39.8121247999370098114013671875" lon="-7.50697254203259944915771484375">
        <ele>382.20001220703125</ele>
        <time>2019-04-27T10:49:56.000Z</time>
      </trkpt>
      <trkpt lat="39.81208716519176959991455078125" lon="-7.5070046447217464447021484375">
        <ele>382.20001220703125</ele>
        <time>2019-04-27T10:50:01.000Z</time>
      </trkpt>
      <trkpt lat="39.8120403103530406951904296875" lon="-7.50698846764862537384033203125">
        <ele>382.399993896484375</ele>
        <time>2019-04-27T10:51:40.000Z</time>
      </trkpt>
      <trkpt lat="39.811718277633190155029296875" lon="-7.50728367827832698822021484375">
        <ele>381</ele>
        <time>2019-04-27T10:51:53.000Z</time>
      </trkpt>
      <trkpt lat="39.81164753437042236328125" lon="-7.5072436966001987457275390625">
        <ele>381.20001220703125</ele>
        <time>2019-04-27T10:51:58.000Z</time>
      </trkpt>
      <trkpt lat="39.81164208613336086273193359375" lon="-7.507208995521068572998046875">
        <ele>381.399993896484375</ele>
        <time>2019-04-27T10:52:01.000Z</time>
      </trkpt>
      <trkpt lat="39.811714924871921539306640625" lon="-7.5070307962596416473388671875">
        <ele>382.20001220703125</ele>
        <time>2019-04-27T10:52:06.000Z</time>
      </trkpt>
      <trkpt lat="39.81175172142684459686279296875" lon="-7.506967596709728240966796875">
        <ele>382.600006103515625</ele>
        <time>2019-04-27T10:52:08.000Z</time>
      </trkpt>
      <trkpt lat="39.81164778582751750946044921875" lon="-7.50700254924595355987548828125">
        <ele>381.79998779296875</ele>
        <time>2019-04-27T10:52:17.000Z</time>
      </trkpt>
      <trkpt lat="39.81163085438311100006103515625" lon="-7.507036663591861724853515625">
        <ele>381.79998779296875</ele>
        <time>2019-04-27T10:57:59.000Z</time>
      </trkpt>
      <trkpt lat="39.81156178750097751617431640625" lon="-7.5071250088512897491455078125">
        <ele>381.600006103515625</ele>
        <time>2019-04-27T10:58:06.000Z</time>
      </trkpt>
      <trkpt lat="39.81159028597176074981689453125" lon="-7.50708335079252719879150390625">
        <ele>381.600006103515625</ele>
        <time>2019-04-27T10:58:14.000Z</time>
      </trkpt>
      <trkpt lat="39.8116175271570682525634765625" lon="-7.50705133192241191864013671875">
        <ele>381.79998779296875</ele>
        <time>2019-04-27T10:58:20.000Z</time>
      </trkpt>
      <trkpt lat="39.8116631247103214263916015625" lon="-7.50699249096214771270751953125">
        <ele>382</ele>
        <time>2019-04-27T11:00:48.000Z</time>
      </trkpt>
      <trkpt lat="39.811706878244876861572265625" lon="-7.50694303773343563079833984375">
        <ele>382.20001220703125</ele>
        <time>2019-04-27T11:00:52.000Z</time>
      </trkpt>
      <trkpt lat="39.81180871836841106414794921875" lon="-7.50689484179019927978515625">
        <ele>382.79998779296875</ele>
        <time>2019-04-27T11:00:58.000Z</time>
      </trkpt>
      <trkpt lat="39.8122438229620456695556640625" lon="-7.50644699670374393463134765625">
        <ele>384.20001220703125</ele>
        <time>2019-04-27T11:01:21.000Z</time>
      </trkpt>
      <trkpt lat="39.812755286693572998046875" lon="-7.50616435892879962921142578125">
        <ele>383.79998779296875</ele>
        <time>2019-04-27T11:01:41.000Z</time>
      </trkpt>
      <trkpt lat="39.8131859488785266876220703125" lon="-7.505782730877399444580078125">
        <ele>385.79998779296875</ele>
        <time>2019-04-27T11:01:59.000Z</time>
      </trkpt>
      <trkpt lat="39.81318670324981212615966796875" lon="-7.50578499399125576019287109375">
        <ele>385.79998779296875</ele>
        <time>2019-04-27T11:02:01.000Z</time>
      </trkpt>
      <trkpt lat="39.81318502686917781829833984375" lon="-7.5057530589401721954345703125">
        <ele>386</ele>
        <time>2019-04-27T11:02:03.000Z</time>
      </trkpt>
      <trkpt lat="39.81311109848320484161376953125" lon="-7.50556689687073230743408203125">
        <ele>386.20001220703125</ele>
        <time>2019-04-27T11:02:10.000Z</time>
      </trkpt>
      <trkpt lat="39.81323129497468471527099609375" lon="-7.5052568502724170684814453125">
        <ele>387.399993896484375</ele>
        <time>2019-04-27T11:02:19.000Z</time>
      </trkpt>
      <trkpt lat="39.81344838626682758331298828125" lon="-7.5050251744687557220458984375">
        <ele>388.600006103515625</ele>
        <time>2019-04-27T11:02:30.000Z</time>
      </trkpt>
      <trkpt lat="39.81346850283443927764892578125" lon="-7.505000196397304534912109375">
        <ele>388.600006103515625</ele>
        <time>2019-04-27T11:02:47.000Z</time>
      </trkpt>
      <trkpt lat="39.81385792605578899383544921875" lon="-7.50449962913990020751953125">
        <ele>388.399993896484375</ele>
        <time>2019-04-27T11:02:59.000Z</time>
      </trkpt>
      <trkpt lat="39.81389111839234828948974609375" lon="-7.50449426472187042236328125">
        <ele>388.399993896484375</ele>
        <time>2019-04-27T11:03:00.000Z</time>
      </trkpt>
      <trkpt lat="39.813945181667804718017578125" lon="-7.504485212266445159912109375">
        <ele>388.399993896484375</ele>
        <time>2019-04-27T11:03:04.000Z</time>
      </trkpt>
      <trkpt lat="39.81396789662539958953857421875" lon="-7.50446501187980175018310546875">
        <ele>388.399993896484375</ele>
        <time>2019-04-27T11:03:06.000Z</time>
      </trkpt>
      <trkpt lat="39.81398734264075756072998046875" lon="-7.504438273608684539794921875">
        <ele>388.399993896484375</ele>
        <time>2019-04-27T11:03:10.000Z</time>
      </trkpt>
      <trkpt lat="39.81399036012589931488037109375" lon="-7.5044193305075168609619140625">
        <ele>388.399993896484375</ele>
        <time>2019-04-27T11:03:25.000Z</time>
      </trkpt>
      <trkpt lat="39.814124219119548797607421875" lon="-7.504170723259449005126953125">
        <ele>388</ele>
        <time>2019-04-27T11:03:30.000Z</time>
      </trkpt>
      <trkpt lat="39.81455437839031219482421875" lon="-7.5036233849823474884033203125">
        <ele>386.600006103515625</ele>
        <time>2019-04-27T11:03:38.000Z</time>
      </trkpt>
      <trkpt lat="39.81497540138661861419677734375" lon="-7.50310295261442661285400390625">
        <ele>385.79998779296875</ele>
        <time>2019-04-27T11:03:45.000Z</time>
      </trkpt>
      <trkpt lat="39.8153789900243282318115234375" lon="-7.50259199179708957672119140625">
        <ele>385.79998779296875</ele>
        <time>2019-04-27T11:03:52.000Z</time>
      </trkpt>
      <trkpt lat="39.81580101884901523590087890625" lon="-7.5020563043653964996337890625">
        <ele>392.20001220703125</ele>
        <time>2019-04-27T11:04:00.000Z</time>
      </trkpt>
      <trkpt lat="39.81593982316553592681884765625" lon="-7.5018541328608989715576171875">
        <ele>394.79998779296875</ele>
        <time>2019-04-27T11:04:03.000Z</time>
      </trkpt>
      <trkpt lat="39.816264621913433074951171875" lon="-7.5012311898171901702880859375">
        <ele>400.79998779296875</ele>
        <time>2019-04-27T11:04:12.000Z</time>
      </trkpt>
      <trkpt lat="39.8165883310139179229736328125" lon="-7.50063649378716945648193359375">
        <ele>399</ele>
        <time>2019-04-27T11:04:23.000Z</time>
      </trkpt>
      <trkpt lat="39.81675990857183933258056640625" lon="-7.50017381273210048675537109375">
        <ele>395.79998779296875</ele>
        <time>2019-04-27T11:04:37.000Z</time>
      </trkpt>
      <trkpt lat="39.81677952222526073455810546875" lon="-7.500121928751468658447265625">
        <ele>395.399993896484375</ele>
        <time>2019-04-27T11:04:49.000Z</time>
      </trkpt>
      <trkpt lat="39.81680500321090221405029296875" lon="-7.5001070089638233184814453125">
        <ele>395</ele>
        <time>2019-04-27T11:04:50.000Z</time>
      </trkpt>
      <trkpt lat="39.8169916681945323944091796875" lon="-7.49987357296049594879150390625">
        <ele>392.20001220703125</ele>
        <time>2019-04-27T11:04:56.000Z</time>
      </trkpt>
      <trkpt lat="39.81731680221855640411376953125" lon="-7.49928784556686878204345703125">
        <ele>390</ele>
        <time>2019-04-27T11:05:05.000Z</time>
      </trkpt>
      <trkpt lat="39.81766900978982448577880859375" lon="-7.49871720559895038604736328125">
        <ele>392</ele>
        <time>2019-04-27T11:05:15.000Z</time>
      </trkpt>
      <trkpt lat="39.81803513132035732269287109375" lon="-7.4981848709285259246826171875">
        <ele>394.20001220703125</ele>
        <time>2019-04-27T11:05:26.000Z</time>
      </trkpt>
      <trkpt lat="39.81810738332569599151611328125" lon="-7.49810465611517429351806640625">
        <ele>394.399993896484375</ele>
        <time>2019-04-27T11:05:28.000Z</time>
      </trkpt>
      <trkpt lat="39.818521700799465179443359375" lon="-7.4975656159222126007080078125">
        <ele>395.79998779296875</ele>
        <time>2019-04-27T11:05:41.000Z</time>
      </trkpt>
      <trkpt lat="39.8189439810812473297119140625" lon="-7.497046776115894317626953125">
        <ele>397.79998779296875</ele>
        <time>2019-04-27T11:05:51.000Z</time>
      </trkpt>
      <trkpt lat="39.819065518677234649658203125" lon="-7.4969108216464519500732421875">
        <ele>398.20001220703125</ele>
        <time>2019-04-27T11:05:54.000Z</time>
      </trkpt>
      <trkpt lat="39.81927447952330112457275390625" lon="-7.4967079795897006988525390625">
        <ele>398.600006103515625</ele>
        <time>2019-04-27T11:05:59.000Z</time>
      </trkpt>
      <trkpt lat="39.8197177983820438385009765625" lon="-7.49631092883646488189697265625">
        <ele>398.20001220703125</ele>
        <time>2019-04-27T11:06:14.000Z</time>
      </trkpt>
      <trkpt lat="39.8197169601917266845703125" lon="-7.4963133595883846282958984375">
        <ele>398.20001220703125</ele>
        <time>2019-04-27T11:06:16.000Z</time>
      </trkpt>
      <trkpt lat="39.81973364017903804779052734375" lon="-7.49630589969456195831298828125">
        <ele>398</ele>
        <time>2019-04-27T11:06:41.000Z</time>
      </trkpt>
      <trkpt lat="39.8197573609650135040283203125" lon="-7.4963090009987354278564453125">
        <ele>398</ele>
        <time>2019-04-27T11:06:42.000Z</time>
      </trkpt>
      <trkpt lat="39.81987244449555873870849609375" lon="-7.49634303152561187744140625">
        <ele>397.399993896484375</ele>
        <time>2019-04-27T11:06:51.000Z</time>
      </trkpt>
      <trkpt lat="39.81990714557468891143798828125" lon="-7.496353425085544586181640625">
        <ele>397.399993896484375</ele>
        <time>2019-04-27T11:07:00.000Z</time>
      </trkpt>
      <trkpt lat="39.820129014551639556884765625" lon="-7.49654696322977542877197265625">
        <ele>397.20001220703125</ele>
        <time>2019-04-27T11:07:12.000Z</time>
      </trkpt>
      <trkpt lat="39.82050460763275623321533203125" lon="-7.4964568577706813812255859375">
        <ele>397.79998779296875</ele>
        <time>2019-04-27T11:07:29.000Z</time>
      </trkpt>
      <trkpt lat="39.8210297338664531707763671875" lon="-7.49624638818204402923583984375">
        <ele>401.20001220703125</ele>
        <time>2019-04-27T11:07:55.000Z</time>
      </trkpt>
      <trkpt lat="39.8215504176914691925048828125" lon="-7.4959743954241275787353515625">
        <ele>404.600006103515625</ele>
        <time>2019-04-27T11:08:19.000Z</time>
      </trkpt>
      <trkpt lat="39.82185669243335723876953125" lon="-7.49576342292129993438720703125">
        <ele>406.600006103515625</ele>
        <time>2019-04-27T11:08:37.000Z</time>
      </trkpt>
      <trkpt lat="39.8219604603946208953857421875" lon="-7.49567910097539424896240234375">
        <ele>407.600006103515625</ele>
        <time>2019-04-27T11:08:43.000Z</time>
      </trkpt>
      <trkpt lat="39.8223943077027797698974609375" lon="-7.495265789330005645751953125">
        <ele>411.600006103515625</ele>
        <time>2019-04-27T11:09:10.000Z</time>
      </trkpt>
      <trkpt lat="39.82246748171746730804443359375" lon="-7.49520820565521717071533203125">
        <ele>412.20001220703125</ele>
        <time>2019-04-27T11:09:16.000Z</time>
      </trkpt>
      <trkpt lat="39.82262372039258480072021484375" lon="-7.49495498836040496826171875">
        <ele>413.600006103515625</ele>
        <time>2019-04-27T11:09:30.000Z</time>
      </trkpt>
      <trkpt lat="39.822642914950847625732421875" lon="-7.49492456205189228057861328125">
        <ele>413.79998779296875</ele>
        <time>2019-04-27T11:09:32.000Z</time>
      </trkpt>
      <trkpt lat="39.82282253913581371307373046875" lon="-7.49483856372535228729248046875">
        <ele>415</ele>
        <time>2019-04-27T11:09:45.000Z</time>
      </trkpt>
      <trkpt lat="39.82285338453948497772216796875" lon="-7.4948094785213470458984375">
        <ele>415.20001220703125</ele>
        <time>2019-04-27T11:09:47.000Z</time>
      </trkpt>
      <trkpt lat="39.82293359935283660888671875" lon="-7.49477402307093143463134765625">
        <ele>415.79998779296875</ele>
        <time>2019-04-27T11:09:51.000Z</time>
      </trkpt>
      <trkpt lat="39.82344816438853740692138671875" lon="-7.4945454485714435577392578125">
        <ele>418.600006103515625</ele>
        <time>2019-04-27T11:10:15.000Z</time>
      </trkpt>
      <trkpt lat="39.8235288821160793304443359375" lon="-7.49448585323989391326904296875">
        <ele>419</ele>
        <time>2019-04-27T11:10:19.000Z</time>
      </trkpt>
      <trkpt lat="39.8239969275891780853271484375" lon="-7.49409173615276813507080078125">
        <ele>420.600006103515625</ele>
        <time>2019-04-27T11:10:41.000Z</time>
      </trkpt>
      <trkpt lat="39.82453890144824981689453125" lon="-7.4938195757567882537841796875">
        <ele>422.20001220703125</ele>
        <time>2019-04-27T11:10:55.000Z</time>
      </trkpt>
      <trkpt lat="39.825061261653900146484375" lon="-7.49354171566665172576904296875">
        <ele>420.399993896484375</ele>
        <time>2019-04-27T11:11:05.000Z</time>
      </trkpt>
      <trkpt lat="39.8255418799817562103271484375" lon="-7.49326729215681552886962890625">
        <ele>418.79998779296875</ele>
        <time>2019-04-27T11:11:24.000Z</time>
      </trkpt>
      <trkpt lat="39.8258302174508571624755859375" lon="-7.492996640503406524658203125">
        <ele>418</ele>
        <time>2019-04-27T11:11:34.000Z</time>
      </trkpt>
      <trkpt lat="39.826143197715282440185546875" lon="-7.49292933382093906402587890625">
        <ele>418</ele>
        <time>2019-04-27T11:11:40.000Z</time>
      </trkpt>
      <trkpt lat="39.82646179385483264923095703125" lon="-7.49295900575816631317138671875">
        <ele>418.399993896484375</ele>
        <time>2019-04-27T11:11:51.000Z</time>
      </trkpt>
      <trkpt lat="39.82649867422878742218017578125" lon="-7.4929042719304561614990234375">
        <ele>418.20001220703125</ele>
        <time>2019-04-27T11:12:16.000Z</time>
      </trkpt>
      <trkpt lat="39.8265109956264495849609375" lon="-7.4928586743772029876708984375">
        <ele>418</ele>
        <time>2019-04-27T11:12:18.000Z</time>
      </trkpt>
      <trkpt lat="39.82651309110224246978759765625" lon="-7.492749206721782684326171875">
        <ele>417.600006103515625</ele>
        <time>2019-04-27T11:12:22.000Z</time>
      </trkpt>
      <trkpt lat="39.8265383206307888031005859375" lon="-7.49254091642796993255615234375">
        <ele>416.600006103515625</ele>
        <time>2019-04-27T11:12:28.000Z</time>
      </trkpt>
      <trkpt lat="39.8265544138848781585693359375" lon="-7.49231913127005100250244140625">
        <ele>414.600006103515625</ele>
        <time>2019-04-27T11:12:33.000Z</time>
      </trkpt>
      <trkpt lat="39.8265862651169300079345703125" lon="-7.4920815043151378631591796875">
        <ele>412.600006103515625</ele>
        <time>2019-04-27T11:12:38.000Z</time>
      </trkpt>
      <trkpt lat="39.82670880854129791259765625" lon="-7.49198301695287227630615234375">
        <ele>411.79998779296875</ele>
        <time>2019-04-27T11:12:46.000Z</time>
      </trkpt>
      <trkpt lat="39.82670822180807590484619140625" lon="-7.4919413588941097259521484375">
        <ele>411.399993896484375</ele>
        <time>2019-04-27T11:12:49.000Z</time>
      </trkpt>
      <trkpt lat="39.8267029412090778350830078125" lon="-7.4918826855719089508056640625">
        <ele>411</ele>
        <time>2019-04-27T11:12:54.000Z</time>
      </trkpt>
      <trkpt lat="39.8267200402915477752685546875" lon="-7.49188628979027271270751953125">
        <ele>411</ele>
        <time>2019-04-27T11:13:11.000Z</time>
      </trkpt>
      <trkpt lat="39.8267951421439647674560546875" lon="-7.4919621460139751434326171875">
        <ele>411.600006103515625</ele>
        <time>2019-04-27T11:13:17.000Z</time>
      </trkpt>
      <trkpt lat="39.8269433341920375823974609375" lon="-7.49207303859293460845947265625">
        <ele>412.79998779296875</ele>
        <time>2019-04-27T11:13:24.000Z</time>
      </trkpt>
      <trkpt lat="39.82717995531857013702392578125" lon="-7.49271274544298648834228515625">
        <ele>416</ele>
        <time>2019-04-27T11:13:39.000Z</time>
      </trkpt>
      <trkpt lat="39.8275163210928440093994140625" lon="-7.4932070262730121612548828125">
        <ele>414</ele>
        <time>2019-04-27T11:13:56.000Z</time>
      </trkpt>
      <trkpt lat="39.82765638269484043121337890625" lon="-7.49328388832509517669677734375">
        <ele>413.20001220703125</ele>
        <time>2019-04-27T11:14:02.000Z</time>
      </trkpt>
      <trkpt lat="39.827671051025390625" lon="-7.49328388832509517669677734375">
        <ele>413.20001220703125</ele>
        <time>2019-04-27T11:14:04.000Z</time>
      </trkpt>
      <trkpt lat="39.82769611291587352752685546875" lon="-7.49330149032175540924072265625">
        <ele>413</ele>
        <time>2019-04-27T11:14:09.000Z</time>
      </trkpt>
      <trkpt lat="39.8280477337539196014404296875" lon="-7.49357541091740131378173828125">
        <ele>410.600006103515625</ele>
        <time>2019-04-27T11:14:23.000Z</time>
      </trkpt>
      <trkpt lat="39.82806692831218242645263671875" lon="-7.49369242228567600250244140625">
        <ele>410.600006103515625</ele>
        <time>2019-04-27T11:14:28.000Z</time>
      </trkpt>
      <trkpt lat="39.8280802555382251739501953125" lon="-7.49370750971138477325439453125">
        <ele>410.399993896484375</ele>
        <time>2019-04-27T11:14:31.000Z</time>
      </trkpt>
      <trkpt lat="39.82814068906009197235107421875" lon="-7.49369795434176921844482421875">
        <ele>409.79998779296875</ele>
        <time>2019-04-27T11:14:55.000Z</time>
      </trkpt>
      <trkpt lat="39.8281714506447315216064453125" lon="-7.493718825280666351318359375">
        <ele>409.399993896484375</ele>
        <time>2019-04-27T11:14:57.000Z</time>
      </trkpt>
      <trkpt lat="39.8282398469746112823486328125" lon="-7.49377909116446971893310546875">
        <ele>408.79998779296875</ele>
        <time>2019-04-27T11:15:03.000Z</time>
      </trkpt>
      <trkpt lat="39.82825971208512783050537109375" lon="-7.4937702901661396026611328125">
        <ele>408.600006103515625</ele>
        <time>2019-04-27T11:15:26.000Z</time>
      </trkpt>
      <trkpt lat="39.82826851308345794677734375" lon="-7.49367917887866497039794921875">
        <ele>408.399993896484375</ele>
        <time>2019-04-27T11:15:30.000Z</time>
      </trkpt>
      <trkpt lat="39.8282851092517375946044921875" lon="-7.49365017749369144439697265625">
        <ele>408</ele>
        <time>2019-04-27T11:15:34.000Z</time>
      </trkpt>
      <trkpt lat="39.82829843647778034210205078125" lon="-7.49362997710704803466796875">
        <ele>408</ele>
        <time>2019-04-27T11:15:38.000Z</time>
      </trkpt>
      <trkpt lat="39.82830581255257129669189453125" lon="-7.49369627796113491058349609375">
        <ele>408</ele>
        <time>2019-04-27T11:16:14.000Z</time>
      </trkpt>
      <trkpt lat="39.82838761992752552032470703125" lon="-7.4937555380165576934814453125">
        <ele>407.20001220703125</ele>
        <time>2019-04-27T11:16:18.000Z</time>
      </trkpt>
      <trkpt lat="39.82865232042968273162841796875" lon="-7.49407312832772731781005859375">
        <ele>404.600006103515625</ele>
        <time>2019-04-27T11:16:36.000Z</time>
      </trkpt>
      <trkpt lat="39.82865475118160247802734375" lon="-7.49408234842121601104736328125">
        <ele>404.600006103515625</ele>
        <time>2019-04-27T11:16:38.000Z</time>
      </trkpt>
      <trkpt lat="39.828652404248714447021484375" lon="-7.49410363845527172088623046875">
        <ele>404.600006103515625</ele>
        <time>2019-04-27T11:16:50.000Z</time>
      </trkpt>
      <trkpt lat="39.8286894522607326507568359375" lon="-7.4942775629460811614990234375">
        <ele>405</ele>
        <time>2019-04-27T11:16:57.000Z</time>
      </trkpt>
      <trkpt lat="39.82872591353952884674072265625" lon="-7.4943724460899829864501953125">
        <ele>405</ele>
        <time>2019-04-27T11:17:01.000Z</time>
      </trkpt>
      <trkpt lat="39.8287263326346874237060546875" lon="-7.49444746412336826324462890625">
        <ele>405.399993896484375</ele>
        <time>2019-04-27T11:17:04.000Z</time>
      </trkpt>
      <trkpt lat="39.8287104070186614990234375" lon="-7.49448669143021106719970703125">
        <ele>405.600006103515625</ele>
        <time>2019-04-27T11:17:06.000Z</time>
      </trkpt>
      <trkpt lat="39.82868702150881290435791015625" lon="-7.49451552517712116241455078125">
        <ele>406.20001220703125</ele>
        <time>2019-04-27T11:17:10.000Z</time>
      </trkpt>
      <trkpt lat="39.8286552540957927703857421875" lon="-7.49450169503688812255859375">
        <ele>406.399993896484375</ele>
        <time>2019-04-27T11:17:21.000Z</time>
      </trkpt>
      <trkpt lat="39.82863186858594417572021484375" lon="-7.49448199756443500518798828125">
        <ele>406.79998779296875</ele>
        <time>2019-04-27T11:17:24.000Z</time>
      </trkpt>
      <trkpt lat="39.82861191965639591217041015625" lon="-7.494480572640895843505859375">
        <ele>407</ele>
        <time>2019-04-27T11:17:34.000Z</time>
      </trkpt>
      <trkpt lat="39.828652404248714447021484375" lon="-7.49449054710566997528076171875">
        <ele>406.399993896484375</ele>
        <time>2019-04-27T11:17:37.000Z</time>
      </trkpt>
      <trkpt lat="39.8289915360510349273681640625" lon="-7.4945910461246967315673828125">
        <ele>405.79998779296875</ele>
        <time>2019-04-27T11:17:49.000Z</time>
      </trkpt>
      <trkpt lat="39.8290971480309963226318359375" lon="-7.4948656372725963592529296875">
        <ele>405.399993896484375</ele>
        <time>2019-04-27T11:17:55.000Z</time>
      </trkpt>
      <trkpt lat="39.8291132412850856781005859375" lon="-7.4948988296091556549072265625">
        <ele>405.20001220703125</ele>
        <time>2019-04-27T11:17:56.000Z</time>
      </trkpt>
      <trkpt lat="39.82926227152347564697265625" lon="-7.49495406635105609893798828125">
        <ele>404.20001220703125</ele>
        <time>2019-04-27T11:18:03.000Z</time>
      </trkpt>
      <trkpt lat="39.82927509583532810211181640625" lon="-7.49496647156774997711181640625">
        <ele>404</ele>
        <time>2019-04-27T11:18:07.000Z</time>
      </trkpt>
      <trkpt lat="39.82979510910809040069580078125" lon="-7.49531700275838375091552734375">
        <ele>398.600006103515625</ele>
        <time>2019-04-27T11:18:23.000Z</time>
      </trkpt>
      <trkpt lat="39.8303306289017200469970703125" lon="-7.4956330843269824981689453125">
        <ele>393.600006103515625</ele>
        <time>2019-04-27T11:18:31.000Z</time>
      </trkpt>
      <trkpt lat="39.83084619976580142974853515625" lon="-7.49594832770526409149169921875">
        <ele>389.600006103515625</ele>
        <time>2019-04-27T11:18:38.000Z</time>
      </trkpt>
      <trkpt lat="39.83139052055776119232177734375" lon="-7.4962674267590045928955078125">
        <ele>388.20001220703125</ele>
        <time>2019-04-27T11:18:46.000Z</time>
      </trkpt>
      <trkpt lat="39.83188211917877197265625" lon="-7.49658652581274509429931640625">
        <ele>388.20001220703125</ele>
        <time>2019-04-27T11:18:54.000Z</time>
      </trkpt>
      <trkpt lat="39.83214137144386768341064453125" lon="-7.49673455022275447845458984375">
        <ele>387.600006103515625</ele>
        <time>2019-04-27T11:18:58.000Z</time>
      </trkpt>
      <trkpt lat="39.83264923095703125" lon="-7.49704836867749691009521484375">
        <ele>385.20001220703125</ele>
        <time>2019-04-27T11:19:06.000Z</time>
      </trkpt>
      <trkpt lat="39.83305835165083408355712890625" lon="-7.497246265411376953125">
        <ele>381.79998779296875</ele>
        <time>2019-04-27T11:19:13.000Z</time>
      </trkpt>
      <trkpt lat="39.83321207575500011444091796875" lon="-7.4972417391836643218994140625">
        <ele>380.600006103515625</ele>
        <time>2019-04-27T11:19:16.000Z</time>
      </trkpt>
      <trkpt lat="39.83345129527151584625244140625" lon="-7.49748053960502147674560546875">
        <ele>379</ele>
        <time>2019-04-27T11:19:22.000Z</time>
      </trkpt>
      <trkpt lat="39.83348532579839229583740234375" lon="-7.49753602780401706695556640625">
        <ele>378.79998779296875</ele>
        <time>2019-04-27T11:19:23.000Z</time>
      </trkpt>
      <trkpt lat="39.833616502583026885986328125" lon="-7.4976836331188678741455078125">
        <ele>377.600006103515625</ele>
        <time>2019-04-27T11:19:26.000Z</time>
      </trkpt>
      <trkpt lat="39.8337759263813495635986328125" lon="-7.49781028367578983306884765625">
        <ele>375.399993896484375</ele>
        <time>2019-04-27T11:19:29.000Z</time>
      </trkpt>
      <trkpt lat="39.833978600800037384033203125" lon="-7.49800021760165691375732421875">
        <ele>373.399993896484375</ele>
        <time>2019-04-27T11:19:33.000Z</time>
      </trkpt>
      <trkpt lat="39.83409427106380462646484375" lon="-7.49808688648045063018798828125">
        <ele>372.600006103515625</ele>
        <time>2019-04-27T11:19:35.000Z</time>
      </trkpt>
      <trkpt lat="39.8343908227980136871337890625" lon="-7.498371787369251251220703125">
        <ele>370.79998779296875</ele>
        <time>2019-04-27T11:19:41.000Z</time>
      </trkpt>
      <trkpt lat="39.83489130623638629913330078125" lon="-7.49881208874285221099853515625">
        <ele>369.600006103515625</ele>
        <time>2019-04-27T11:19:49.000Z</time>
      </trkpt>
      <trkpt lat="39.835347868502140045166015625" lon="-7.49922883696854114532470703125">
        <ele>367.79998779296875</ele>
        <time>2019-04-27T11:19:55.000Z</time>
      </trkpt>
      <trkpt lat="39.83584231697022914886474609375" lon="-7.4996776878833770751953125">
        <ele>365</ele>
        <time>2019-04-27T11:20:01.000Z</time>
      </trkpt>
      <trkpt lat="39.83635378070175647735595703125" lon="-7.500166855752468109130859375">
        <ele>361.79998779296875</ele>
        <time>2019-04-27T11:20:07.000Z</time>
      </trkpt>
      <trkpt lat="39.8368071578443050384521484375" lon="-7.50056625343859195709228515625">
        <ele>357.79998779296875</ele>
        <time>2019-04-27T11:20:12.000Z</time>
      </trkpt>
      <trkpt lat="39.8372842557728290557861328125" lon="-7.50094058923423290252685546875">
        <ele>353.600006103515625</ele>
        <time>2019-04-27T11:20:17.000Z</time>
      </trkpt>
      <trkpt lat="39.837761186063289642333984375" lon="-7.50127871520817279815673828125">
        <ele>351.399993896484375</ele>
        <time>2019-04-27T11:20:22.000Z</time>
      </trkpt>
      <trkpt lat="39.83834733255207538604736328125" lon="-7.50157442875206470489501953125">
        <ele>349.79998779296875</ele>
        <time>2019-04-27T11:20:28.000Z</time>
      </trkpt>
      <trkpt lat="39.838912524282932281494140625" lon="-7.50182890333235263824462890625">
        <ele>348.20001220703125</ele>
        <time>2019-04-27T11:20:34.000Z</time>
      </trkpt>
      <trkpt lat="39.83950973488390445709228515625" lon="-7.502098046243190765380859375">
        <ele>348.79998779296875</ele>
        <time>2019-04-27T11:20:40.000Z</time>
      </trkpt>
      <trkpt lat="39.84010350890457630157470703125" lon="-7.50231170095503330230712890625">
        <ele>345.399993896484375</ele>
        <time>2019-04-27T11:20:46.000Z</time>
      </trkpt>
      <trkpt lat="39.8406665213406085968017578125" lon="-7.50235746614634990692138671875">
        <ele>341.600006103515625</ele>
        <time>2019-04-27T11:20:52.000Z</time>
      </trkpt>
      <trkpt lat="39.84083407558500766754150390625" lon="-7.50234455801546573638916015625">
        <ele>341.20001220703125</ele>
        <time>2019-04-27T11:20:54.000Z</time>
      </trkpt>
      <trkpt lat="39.841067679226398468017578125" lon="-7.50228286720812320709228515625">
        <ele>340.600006103515625</ele>
        <time>2019-04-27T11:20:57.000Z</time>
      </trkpt>
      <trkpt lat="39.84138795174658298492431640625" lon="-7.5025852024555206298828125">
        <ele>339.600006103515625</ele>
        <time>2019-04-27T11:21:03.000Z</time>
      </trkpt>
      <trkpt lat="39.8414624668657779693603515625" lon="-7.50275225378572940826416015625">
        <ele>339</ele>
        <time>2019-04-27T11:21:05.000Z</time>
      </trkpt>
      <trkpt lat="39.841625578701496124267578125" lon="-7.50298082828521728515625">
        <ele>338.20001220703125</ele>
        <time>2019-04-27T11:21:08.000Z</time>
      </trkpt>
      <trkpt lat="39.84191567637026309967041015625" lon="-7.5031908787786960601806640625">
        <ele>337.600006103515625</ele>
        <time>2019-04-27T11:21:12.000Z</time>
      </trkpt>
      <trkpt lat="39.84245329163968563079833984375" lon="-7.50343571417033672332763671875">
        <ele>336.79998779296875</ele>
        <time>2019-04-27T11:21:19.000Z</time>
      </trkpt>
      <trkpt lat="39.84296559356153011322021484375" lon="-7.5036619417369365692138671875">
        <ele>335.79998779296875</ele>
        <time>2019-04-27T11:21:26.000Z</time>
      </trkpt>
      <trkpt lat="39.84303466044366359710693359375" lon="-7.50369823537766933441162109375">
        <ele>335.20001220703125</ele>
        <time>2019-04-27T11:21:27.000Z</time>
      </trkpt>
      <trkpt lat="39.84323783777654170989990234375" lon="-7.50382639467716217041015625">
        <ele>333.79998779296875</ele>
        <time>2019-04-27T11:21:30.000Z</time>
      </trkpt>
      <trkpt lat="39.84349809587001800537109375" lon="-7.5041775964200496673583984375">
        <ele>333.600006103515625</ele>
        <time>2019-04-27T11:21:35.000Z</time>
      </trkpt>
      <trkpt lat="39.84383580274879932403564453125" lon="-7.504807412624359130859375">
        <ele>330.600006103515625</ele>
        <time>2019-04-27T11:21:42.000Z</time>
      </trkpt>
      <trkpt lat="39.844180382788181304931640625" lon="-7.5053993426263332366943359375">
        <ele>328.20001220703125</ele>
        <time>2019-04-27T11:21:48.000Z</time>
      </trkpt>
      <trkpt lat="39.8445406369864940643310546875" lon="-7.5060474313795566558837890625">
        <ele>328.399993896484375</ele>
        <time>2019-04-27T11:21:55.000Z</time>
      </trkpt>
      <trkpt lat="39.844917990267276763916015625" lon="-7.506684623658657073974609375">
        <ele>328.20001220703125</ele>
        <time>2019-04-27T11:22:02.000Z</time>
      </trkpt>
      <trkpt lat="39.8452530987560749053955078125" lon="-7.50727512873709201812744140625">
        <ele>326</ele>
        <time>2019-04-27T11:22:08.000Z</time>
      </trkpt>
      <trkpt lat="39.8456138558685779571533203125" lon="-7.5078743509948253631591796875">
        <ele>324.20001220703125</ele>
        <time>2019-04-27T11:22:14.000Z</time>
      </trkpt>
      <trkpt lat="39.846017025411128997802734375" lon="-7.50847022049129009246826171875">
        <ele>320.600006103515625</ele>
        <time>2019-04-27T11:22:20.000Z</time>
      </trkpt>
      <trkpt lat="39.8464567400515079498291015625" lon="-7.5090305507183074951171875">
        <ele>320.600006103515625</ele>
        <time>2019-04-27T11:22:26.000Z</time>
      </trkpt>
      <trkpt lat="39.84689452685415744781494140625" lon="-7.50955693423748016357421875">
        <ele>321.20001220703125</ele>
        <time>2019-04-27T11:22:32.000Z</time>
      </trkpt>
      <trkpt lat="39.84739844687283039093017578125" lon="-7.50998483039438724517822265625">
        <ele>320.20001220703125</ele>
        <time>2019-04-27T11:22:39.000Z</time>
      </trkpt>
      <trkpt lat="39.847625009715557098388671875" lon="-7.510131932795047760009765625">
        <ele>320.399993896484375</ele>
        <time>2019-04-27T11:22:42.000Z</time>
      </trkpt>
      <trkpt lat="39.8479011096060276031494140625" lon="-7.51025992445647716522216796875">
        <ele>319.79998779296875</ele>
        <time>2019-04-27T11:22:46.000Z</time>
      </trkpt>
      <trkpt lat="39.8484782874584197998046875" lon="-7.51041146926581859588623046875">
        <ele>318.20001220703125</ele>
        <time>2019-04-27T11:22:54.000Z</time>
      </trkpt>
      <trkpt lat="39.84900509007275104522705078125" lon="-7.51057256944477558135986328125">
        <ele>316</ele>
        <time>2019-04-27T11:23:01.000Z</time>
      </trkpt>
      <trkpt lat="39.84919686801731586456298828125" lon="-7.5106953643262386322021484375">
        <ele>315.79998779296875</ele>
        <time>2019-04-27T11:23:04.000Z</time>
      </trkpt>
      <trkpt lat="39.849611856043338775634765625" lon="-7.511150501668453216552734375">
        <ele>314.79998779296875</ele>
        <time>2019-04-27T11:23:13.000Z</time>
      </trkpt>
      <trkpt lat="39.84970145858824253082275390625" lon="-7.51124630682170391082763671875">
        <ele>315</ele>
        <time>2019-04-27T11:23:15.000Z</time>
      </trkpt>
      <trkpt lat="39.84988133423030376434326171875" lon="-7.51141193322837352752685546875">
        <ele>315.600006103515625</ele>
        <time>2019-04-27T11:23:19.000Z</time>
      </trkpt>
      <trkpt lat="39.85019045881927013397216796875" lon="-7.51129458658397197723388671875">
        <ele>317</ele>
        <time>2019-04-27T11:23:25.000Z</time>
      </trkpt>
      <trkpt lat="39.85022985376417636871337890625" lon="-7.51125209033489227294921875">
        <ele>317.20001220703125</ele>
        <time>2019-04-27T11:23:26.000Z</time>
      </trkpt>
      <trkpt lat="39.85044962726533412933349609375" lon="-7.5110058300197124481201171875">
        <ele>318</ele>
        <time>2019-04-27T11:23:32.000Z</time>
      </trkpt>
      <trkpt lat="39.850569404661655426025390625" lon="-7.51086719334125518798828125">
        <ele>318.20001220703125</ele>
        <time>2019-04-27T11:23:36.000Z</time>
      </trkpt>
      <trkpt lat="39.85096109099686145782470703125" lon="-7.5104640237987041473388671875">
        <ele>317</ele>
        <time>2019-04-27T11:23:47.000Z</time>
      </trkpt>
      <trkpt lat="39.85142134130001068115234375" lon="-7.5100583396852016448974609375">
        <ele>317.20001220703125</ele>
        <time>2019-04-27T11:23:59.000Z</time>
      </trkpt>
      <trkpt lat="39.85176826827228069305419921875" lon="-7.50974871218204498291015625">
        <ele>318.399993896484375</ele>
        <time>2019-04-27T11:24:07.000Z</time>
      </trkpt>
      <trkpt lat="39.85223681665956974029541015625" lon="-7.5093361549079418182373046875">
        <ele>319.399993896484375</ele>
        <time>2019-04-27T11:24:17.000Z</time>
      </trkpt>
      <trkpt lat="39.85247972421348094940185546875" lon="-7.50914731062948703765869140625">
        <ele>320</ele>
        <time>2019-04-27T11:24:22.000Z</time>
      </trkpt>
      <trkpt lat="39.85278851352632045745849609375" lon="-7.50904195010662078857421875">
        <ele>321.600006103515625</ele>
        <time>2019-04-27T11:24:28.000Z</time>
      </trkpt>
      <trkpt lat="39.85336787067353725433349609375" lon="-7.50904119573533535003662109375">
        <ele>322.600006103515625</ele>
        <time>2019-04-27T11:24:41.000Z</time>
      </trkpt>
      <trkpt lat="39.85391336493194103240966796875" lon="-7.50906080938875675201416015625">
        <ele>323</ele>
        <time>2019-04-27T11:24:56.000Z</time>
      </trkpt>
      <trkpt lat="39.8544832505285739898681640625" lon="-7.5090722925961017608642578125">
        <ele>324.399993896484375</ele>
        <time>2019-04-27T11:25:11.000Z</time>
      </trkpt>
      <trkpt lat="39.854562543332576751708984375" lon="-7.5090776570141315460205078125">
        <ele>324.600006103515625</ele>
        <time>2019-04-27T11:25:13.000Z</time>
      </trkpt>
      <trkpt lat="39.85512681305408477783203125" lon="-7.50907539390027523040771484375">
        <ele>326</ele>
        <time>2019-04-27T11:25:32.000Z</time>
      </trkpt>
      <trkpt lat="39.85567725263535976409912109375" lon="-7.509093582630157470703125">
        <ele>328.79998779296875</ele>
        <time>2019-04-27T11:25:54.000Z</time>
      </trkpt>
      <trkpt lat="39.85621176660060882568359375" lon="-7.50916667282581329345703125">
        <ele>332.79998779296875</ele>
        <time>2019-04-27T11:26:14.000Z</time>
      </trkpt>
      <trkpt lat="39.85660898499190807342529296875" lon="-7.50967034138739109039306640625">
        <ele>338.399993896484375</ele>
        <time>2019-04-27T11:26:32.000Z</time>
      </trkpt>
      <trkpt lat="39.856984578073024749755859375" lon="-7.51021717675030231475830078125">
        <ele>341.600006103515625</ele>
        <time>2019-04-27T11:26:51.000Z</time>
      </trkpt>
      <trkpt lat="39.85735438764095306396484375" lon="-7.5107513554394245147705078125">
        <ele>344.399993896484375</ele>
        <time>2019-04-27T11:27:09.000Z</time>
      </trkpt>
      <trkpt lat="39.857724867761135101318359375" lon="-7.5112710334360599517822265625">
        <ele>343.79998779296875</ele>
        <time>2019-04-27T11:27:25.000Z</time>
      </trkpt>
      <trkpt lat="39.8578391969203948974609375" lon="-7.51141260378062725067138671875">
        <ele>344.20001220703125</ele>
        <time>2019-04-27T11:27:29.000Z</time>
      </trkpt>
      <trkpt lat="39.8583577014505863189697265625" lon="-7.5117395818233489990234375">
        <ele>345.399993896484375</ele>
        <time>2019-04-27T11:27:42.000Z</time>
      </trkpt>
      <trkpt lat="39.85881761647760868072509765625" lon="-7.51188165508210659027099609375">
        <ele>346.79998779296875</ele>
        <time>2019-04-27T11:27:52.000Z</time>
      </trkpt>
      <trkpt lat="39.85937266610562801361083984375" lon="-7.5118550844490528106689453125">
        <ele>348.79998779296875</ele>
        <time>2019-04-27T11:28:04.000Z</time>
      </trkpt>
      <trkpt lat="39.85991195775568485260009765625" lon="-7.511773444712162017822265625">
        <ele>351</ele>
        <time>2019-04-27T11:28:17.000Z</time>
      </trkpt>
      <trkpt lat="39.86047019250690937042236328125" lon="-7.5116747058928012847900390625">
        <ele>353.399993896484375</ele>
        <time>2019-04-27T11:28:33.000Z</time>
      </trkpt>
      <trkpt lat="39.861011914908885955810546875" lon="-7.51160211861133575439453125">
        <ele>357</ele>
        <time>2019-04-27T11:28:50.000Z</time>
      </trkpt>
      <trkpt lat="39.86156503669917583465576171875" lon="-7.51152106560766696929931640625">
        <ele>360.20001220703125</ele>
        <time>2019-04-27T11:29:08.000Z</time>
      </trkpt>
      <trkpt lat="39.86211664974689483642578125" lon="-7.5114235840737819671630859375">
        <ele>362.600006103515625</ele>
        <time>2019-04-27T11:29:26.000Z</time>
      </trkpt>
      <trkpt lat="39.8626572825014591217041015625" lon="-7.51134102232754230499267578125">
        <ele>362.600006103515625</ele>
        <time>2019-04-27T11:29:42.000Z</time>
      </trkpt>
      <trkpt lat="39.863202273845672607421875" lon="-7.51125016249716281890869140625">
        <ele>362.20001220703125</ele>
        <time>2019-04-27T11:29:59.000Z</time>
      </trkpt>
      <trkpt lat="39.86376863904297351837158203125" lon="-7.5111516751348972320556640625">
        <ele>363.20001220703125</ele>
        <time>2019-04-27T11:30:16.000Z</time>
      </trkpt>
      <trkpt lat="39.86430206336081027984619140625" lon="-7.511015720665454864501953125">
        <ele>364.20001220703125</ele>
        <time>2019-04-27T11:30:32.000Z</time>
      </trkpt>
      <trkpt lat="39.864831380546092987060546875" lon="-7.51085537485778331756591796875">
        <ele>364.600006103515625</ele>
        <time>2019-04-27T11:30:49.000Z</time>
      </trkpt>
      <trkpt lat="39.8650243319571018218994140625" lon="-7.51082033850252628326416015625">
        <ele>364.399993896484375</ele>
        <time>2019-04-27T11:30:54.000Z</time>
      </trkpt>
      <trkpt lat="39.86557896248996257781982421875" lon="-7.51069008372724056243896484375">
        <ele>364.399993896484375</ele>
        <time>2019-04-27T11:31:09.000Z</time>
      </trkpt>
      <trkpt lat="39.86607684753835201263427734375" lon="-7.51053770072758197784423828125">
        <ele>365.600006103515625</ele>
        <time>2019-04-27T11:31:22.000Z</time>
      </trkpt>
      <trkpt lat="39.86644363962113857269287109375" lon="-7.5104361958801746368408203125">
        <ele>366</ele>
        <time>2019-04-27T11:31:31.000Z</time>
      </trkpt>
      <trkpt lat="39.86661563627421855926513671875" lon="-7.51041113398969173431396484375">
        <ele>366</ele>
        <time>2019-04-27T11:31:35.000Z</time>
      </trkpt>
      <trkpt lat="39.8669075779616832733154296875" lon="-7.51033586449921131134033203125">
        <ele>366</ele>
        <time>2019-04-27T11:31:42.000Z</time>
      </trkpt>
      <trkpt lat="39.86698628403246402740478515625" lon="-7.51031524501740932464599609375">
        <ele>366</ele>
        <time>2019-04-27T11:31:44.000Z</time>
      </trkpt>
      <trkpt lat="39.86735257320106029510498046875" lon="-7.51022019423544406890869140625">
        <ele>366.399993896484375</ele>
        <time>2019-04-27T11:31:53.000Z</time>
      </trkpt>
      <trkpt lat="39.8679080419242382049560546875" lon="-7.5100757740437984466552734375">
        <ele>367</ele>
        <time>2019-04-27T11:32:08.000Z</time>
      </trkpt>
      <trkpt lat="39.86846954561769962310791015625" lon="-7.509909979999065399169921875">
        <ele>369.79998779296875</ele>
        <time>2019-04-27T11:32:22.000Z</time>
      </trkpt>
      <trkpt lat="39.868916384875774383544921875" lon="-7.50980436801910400390625">
        <ele>371</ele>
        <time>2019-04-27T11:32:31.000Z</time>
      </trkpt>
      <trkpt lat="39.86929214559495449066162109375" lon="-7.50971258617937564849853515625">
        <ele>370.399993896484375</ele>
        <time>2019-04-27T11:32:39.000Z</time>
      </trkpt>
      <trkpt lat="39.8696223087608814239501953125" lon="-7.50970336608588695526123046875">
        <ele>369.399993896484375</ele>
        <time>2019-04-27T11:32:46.000Z</time>
      </trkpt>
      <trkpt lat="39.86985323019325733184814453125" lon="-7.50974527560174465179443359375">
        <ele>368.399993896484375</ele>
        <time>2019-04-27T11:32:51.000Z</time>
      </trkpt>
      <trkpt lat="39.87039336003363132476806640625" lon="-7.5098809786140918731689453125">
        <ele>369.600006103515625</ele>
        <time>2019-04-27T11:33:02.000Z</time>
      </trkpt>
      <trkpt lat="39.87094706855714321136474609375" lon="-7.51001131720840930938720703125">
        <ele>366.600006103515625</ele>
        <time>2019-04-27T11:33:11.000Z</time>
      </trkpt>
      <trkpt lat="39.8714887909591197967529296875" lon="-7.5101436674594879150390625">
        <ele>363</ele>
        <time>2019-04-27T11:33:18.000Z</time>
      </trkpt>
      <trkpt lat="39.87207979895174503326416015625" lon="-7.510295212268829345703125">
        <ele>359.600006103515625</ele>
        <time>2019-04-27T11:33:25.000Z</time>
      </trkpt>
      <trkpt lat="39.8726954497396945953369140625" lon="-7.51045002602040767669677734375">
        <ele>358.399993896484375</ele>
        <time>2019-04-27T11:33:32.000Z</time>
      </trkpt>
      <trkpt lat="39.8732852004468441009521484375" lon="-7.51059855334460735321044921875">
        <ele>356.20001220703125</ele>
        <time>2019-04-27T11:33:39.000Z</time>
      </trkpt>
      <trkpt lat="39.8738367296755313873291015625" lon="-7.51074003987014293670654296875">
        <ele>353.399993896484375</ele>
        <time>2019-04-27T11:33:46.000Z</time>
      </trkpt>
      <trkpt lat="39.87441231496632099151611328125" lon="-7.510882280766963958740234375">
        <ele>351.20001220703125</ele>
        <time>2019-04-27T11:33:54.000Z</time>
      </trkpt>
      <trkpt lat="39.87500307150185108184814453125" lon="-7.511019743978977203369140625">
        <ele>348.79998779296875</ele>
        <time>2019-04-27T11:34:03.000Z</time>
      </trkpt>
      <trkpt lat="39.87556097097694873809814453125" lon="-7.51116064377129077911376953125">
        <ele>348</ele>
        <time>2019-04-27T11:34:13.000Z</time>
      </trkpt>
      <trkpt lat="39.875644706189632415771484375" lon="-7.51120205037295818328857421875">
        <ele>348.20001220703125</ele>
        <time>2019-04-27T11:34:15.000Z</time>
      </trkpt>
      <trkpt lat="39.87572751939296722412109375" lon="-7.51122434623539447784423828125">
        <ele>348.399993896484375</ele>
        <time>2019-04-27T11:34:20.000Z</time>
      </trkpt>
      <trkpt lat="39.875743947923183441162109375" lon="-7.51122753135859966278076171875">
        <ele>348.399993896484375</ele>
        <time>2019-04-27T11:34:48.000Z</time>
      </trkpt>
      <trkpt lat="39.8762735165655612945556640625" lon="-7.5113699398934841156005859375">
        <ele>348.79998779296875</ele>
        <time>2019-04-27T11:35:13.000Z</time>
      </trkpt>
      <trkpt lat="39.87682797946035861968994140625" lon="-7.51150933094322681427001953125">
        <ele>349.399993896484375</ele>
        <time>2019-04-27T11:35:27.000Z</time>
      </trkpt>
      <trkpt lat="39.8773795925080776214599609375" lon="-7.51164662651717662811279296875">
        <ele>349.79998779296875</ele>
        <time>2019-04-27T11:35:39.000Z</time>
      </trkpt>
      <trkpt lat="39.8776209913194179534912109375" lon="-7.51171502284705638885498046875">
        <ele>350.399993896484375</ele>
        <time>2019-04-27T11:35:44.000Z</time>
      </trkpt>
      <trkpt lat="39.8781721852719783782958984375" lon="-7.5118517316877841949462890625">
        <ele>352.20001220703125</ele>
        <time>2019-04-27T11:35:55.000Z</time>
      </trkpt>
      <trkpt lat="39.87874106504023075103759765625" lon="-7.51199179328978061676025390625">
        <ele>353.399993896484375</ele>
        <time>2019-04-27T11:36:06.000Z</time>
      </trkpt>
      <trkpt lat="39.87933299504220485687255859375" lon="-7.51213713549077510833740234375">
        <ele>351.600006103515625</ele>
        <time>2019-04-27T11:36:15.000Z</time>
      </trkpt>
      <trkpt lat="39.87994470633566379547119140625" lon="-7.51228784210979938507080078125">
        <ele>349</ele>
        <time>2019-04-27T11:36:22.000Z</time>
      </trkpt>
      <trkpt lat="39.88054987974464893341064453125" lon="-7.5124388001859188079833984375">
        <ele>347.600006103515625</ele>
        <time>2019-04-27T11:36:28.000Z</time>
      </trkpt>
      <trkpt lat="39.88114750944077968597412109375" lon="-7.51259495504200458526611328125">
        <ele>344.79998779296875</ele>
        <time>2019-04-27T11:36:34.000Z</time>
      </trkpt>
      <trkpt lat="39.88169048912823200225830078125" lon="-7.51282629556953907012939453125">
        <ele>342.399993896484375</ele>
        <time>2019-04-27T11:36:40.000Z</time>
      </trkpt>
      <trkpt lat="39.88218736834824085235595703125" lon="-7.51307624392211437225341796875">
        <ele>338.79998779296875</ele>
        <time>2019-04-27T11:36:51.000Z</time>
      </trkpt>
      <trkpt lat="39.882204718887805938720703125" lon="-7.5131006352603435516357421875">
        <ele>338.79998779296875</ele>
        <time>2019-04-27T11:37:32.000Z</time>
      </trkpt>
      <trkpt lat="39.882321059703826904296875" lon="-7.51317934133112430572509765625">
        <ele>338.399993896484375</ele>
        <time>2019-04-27T11:37:36.000Z</time>
      </trkpt>
      <trkpt lat="39.882519207894802093505859375" lon="-7.513262070715427398681640625">
        <ele>337</ele>
        <time>2019-04-27T11:37:40.000Z</time>
      </trkpt>
      <trkpt lat="39.88299907185137271881103515625" lon="-7.513529956340789794921875">
        <ele>334</ele>
        <time>2019-04-27T11:37:49.000Z</time>
      </trkpt>
      <trkpt lat="39.88315162248909473419189453125" lon="-7.513604722917079925537109375">
        <ele>332.79998779296875</ele>
        <time>2019-04-27T11:37:52.000Z</time>
      </trkpt>
      <trkpt lat="39.88325019367039203643798828125" lon="-7.5136588700115680694580078125">
        <ele>332.20001220703125</ele>
        <time>2019-04-27T11:37:54.000Z</time>
      </trkpt>
      <trkpt lat="39.88336108624935150146484375" lon="-7.5137165375053882598876953125">
        <ele>331.399993896484375</ele>
        <time>2019-04-27T11:37:56.000Z</time>
      </trkpt>
      <trkpt lat="39.88347751088440418243408203125" lon="-7.5137879513204097747802734375">
        <ele>331</ele>
        <time>2019-04-27T11:37:58.000Z</time>
      </trkpt>
      <trkpt lat="39.8838158883154392242431640625" lon="-7.5139592774212360382080078125">
        <ele>329.600006103515625</ele>
        <time>2019-04-27T11:38:03.000Z</time>
      </trkpt>
      <trkpt lat="39.88438074477016925811767578125" lon="-7.5141986645758152008056640625">
        <ele>327.79998779296875</ele>
        <time>2019-04-27T11:38:11.000Z</time>
      </trkpt>
      <trkpt lat="39.88491869531571865081787109375" lon="-7.51431575976312160491943359375">
        <ele>326</ele>
        <time>2019-04-27T11:38:18.000Z</time>
      </trkpt>
      <trkpt lat="39.8854981362819671630859375" lon="-7.51439119689166545867919921875">
        <ele>323.20001220703125</ele>
        <time>2019-04-27T11:38:25.000Z</time>
      </trkpt>
      <trkpt lat="39.88605670630931854248046875" lon="-7.51446227543056011199951171875">
        <ele>323</ele>
        <time>2019-04-27T11:38:32.000Z</time>
      </trkpt>
      <trkpt lat="39.88664855249226093292236328125" lon="-7.51454223878681659698486328125">
        <ele>322.79998779296875</ele>
        <time>2019-04-27T11:38:39.000Z</time>
      </trkpt>
      <trkpt lat="39.887191615998744964599609375" lon="-7.514615245163440704345703125">
        <ele>320.399993896484375</ele>
        <time>2019-04-27T11:38:46.000Z</time>
      </trkpt>
      <trkpt lat="39.88774138502776622772216796875" lon="-7.51476310193538665771484375">
        <ele>319.79998779296875</ele>
        <time>2019-04-27T11:38:55.000Z</time>
      </trkpt>
      <trkpt lat="39.88778212107717990875244140625" lon="-7.514770813286304473876953125">
        <ele>319.79998779296875</ele>
        <time>2019-04-27T11:38:56.000Z</time>
      </trkpt>
      <trkpt lat="39.88786124624311923980712890625" lon="-7.51475698314607143402099609375">
        <ele>319.600006103515625</ele>
        <time>2019-04-27T11:39:01.000Z</time>
      </trkpt>
      <trkpt lat="39.88786577247083187103271484375" lon="-7.51480073668062686920166015625">
        <ele>319.79998779296875</ele>
        <time>2019-04-27T11:44:59.000Z</time>
      </trkpt>
      <trkpt lat="39.88822686485946178436279296875" lon="-7.51494993455708026885986328125">
        <ele>319</ele>
        <time>2019-04-27T11:45:09.000Z</time>
      </trkpt>
      <trkpt lat="39.88876498304307460784912109375" lon="-7.51514825038611888885498046875">
        <ele>316.20001220703125</ele>
        <time>2019-04-27T11:45:19.000Z</time>
      </trkpt>
      <trkpt lat="39.88880462944507598876953125" lon="-7.51516317017376422882080078125">
        <ele>315.79998779296875</ele>
        <time>2019-04-27T11:45:20.000Z</time>
      </trkpt>
      <trkpt lat="39.8889690823853015899658203125" lon="-7.5152256153523921966552734375">
        <ele>314.79998779296875</ele>
        <time>2019-04-27T11:45:24.000Z</time>
      </trkpt>
      <trkpt lat="39.8891434259712696075439453125" lon="-7.5152789242565631866455078125">
        <ele>313.600006103515625</ele>
        <time>2019-04-27T11:45:28.000Z</time>
      </trkpt>
      <trkpt lat="39.88933009095489978790283203125" lon="-7.515364252030849456787109375">
        <ele>312.79998779296875</ele>
        <time>2019-04-27T11:45:32.000Z</time>
      </trkpt>
      <trkpt lat="39.88961406983435153961181640625" lon="-7.5155545212328433990478515625">
        <ele>311.79998779296875</ele>
        <time>2019-04-27T11:45:38.000Z</time>
      </trkpt>
      <trkpt lat="39.889911375939846038818359375" lon="-7.51589742489159107208251953125">
        <ele>312.600006103515625</ele>
        <time>2019-04-27T11:45:45.000Z</time>
      </trkpt>
      <trkpt lat="39.89021438173949718475341796875" lon="-7.5165328569710254669189453125">
        <ele>313.600006103515625</ele>
        <time>2019-04-27T11:45:55.000Z</time>
      </trkpt>
      <trkpt lat="39.8902300558984279632568359375" lon="-7.5166039355099201202392578125">
        <ele>313.600006103515625</ele>
        <time>2019-04-27T11:45:56.000Z</time>
      </trkpt>
      <trkpt lat="39.89021220244467258453369140625" lon="-7.517064101994037628173828125">
        <ele>316.20001220703125</ele>
        <time>2019-04-27T11:46:02.000Z</time>
      </trkpt>
      <trkpt lat="39.8901365138590335845947265625" lon="-7.517666257917881011962890625">
        <ele>320.600006103515625</ele>
        <time>2019-04-27T11:46:10.000Z</time>
      </trkpt>
      <trkpt lat="39.8904677666723728179931640625" lon="-7.517982088029384613037109375">
        <ele>315.20001220703125</ele>
        <time>2019-04-27T11:46:17.000Z</time>
      </trkpt>
      <trkpt lat="39.8907954990863800048828125" lon="-7.51802173443138599395751953125">
        <ele>313.399993896484375</ele>
        <time>2019-04-27T11:46:22.000Z</time>
      </trkpt>
      <trkpt lat="39.8910127580165863037109375" lon="-7.51771244220435619354248046875">
        <ele>311.600006103515625</ele>
        <time>2019-04-27T11:46:28.000Z</time>
      </trkpt>
      <trkpt lat="39.8910248279571533203125" lon="-7.51765041612088680267333984375">
        <ele>311.399993896484375</ele>
        <time>2019-04-27T11:46:29.000Z</time>
      </trkpt>
      <trkpt lat="39.89141902886331081390380859375" lon="-7.5174419581890106201171875">
        <ele>311</ele>
        <time>2019-04-27T11:46:48.000Z</time>
      </trkpt>
      <trkpt lat="39.89190886728465557098388671875" lon="-7.51781017519533634185791015625">
        <ele>317.399993896484375</ele>
        <time>2019-04-27T11:47:07.000Z</time>
      </trkpt>
      <trkpt lat="39.89240725524723529815673828125" lon="-7.518165148794651031494140625">
        <ele>320.600006103515625</ele>
        <time>2019-04-27T11:47:24.000Z</time>
      </trkpt>
      <trkpt lat="39.89289843477308750152587890625" lon="-7.5185175240039825439453125">
        <ele>322.399993896484375</ele>
        <time>2019-04-27T11:47:39.000Z</time>
      </trkpt>
      <trkpt lat="39.89338290877640247344970703125" lon="-7.518871240317821502685546875">
        <ele>325.399993896484375</ele>
        <time>2019-04-27T11:47:53.000Z</time>
      </trkpt>
      <trkpt lat="39.89385833032429218292236328125" lon="-7.51920727081596851348876953125">
        <ele>325.20001220703125</ele>
        <time>2019-04-27T11:48:07.000Z</time>
      </trkpt>
      <trkpt lat="39.89439024589955806732177734375" lon="-7.519238702952861785888671875">
        <ele>324.79998779296875</ele>
        <time>2019-04-27T11:48:22.000Z</time>
      </trkpt>
      <trkpt lat="39.89445109851658344268798828125" lon="-7.51921615563333034515380859375">
        <ele>324.600006103515625</ele>
        <time>2019-04-27T11:48:24.000Z</time>
      </trkpt>
      <trkpt lat="39.8949453793466091156005859375" lon="-7.51890669576823711395263671875">
        <ele>325.600006103515625</ele>
        <time>2019-04-27T11:48:42.000Z</time>
      </trkpt>
      <trkpt lat="39.89539372734725475311279296875" lon="-7.518698237836360931396484375">
        <ele>327.79998779296875</ele>
        <time>2019-04-27T11:48:59.000Z</time>
      </trkpt>
      <trkpt lat="39.895877949893474578857421875" lon="-7.51837670803070068359375">
        <ele>329.399993896484375</ele>
        <time>2019-04-27T11:49:17.000Z</time>
      </trkpt>
      <trkpt lat="39.8963847197592258453369140625" lon="-7.5180928967893123626708984375">
        <ele>332.20001220703125</ele>
        <time>2019-04-27T11:49:34.000Z</time>
      </trkpt>
      <trkpt lat="39.89688771776854991912841796875" lon="-7.51780028454959392547607421875">
        <ele>335.399993896484375</ele>
        <time>2019-04-27T11:49:55.000Z</time>
      </trkpt>
      <trkpt lat="39.89739197306334972381591796875" lon="-7.517496608197689056396484375">
        <ele>340.600006103515625</ele>
        <time>2019-04-27T11:50:21.000Z</time>
      </trkpt>
      <trkpt lat="39.89790645428001880645751953125" lon="-7.5172134675085544586181640625">
        <ele>346</ele>
        <time>2019-04-27T11:50:44.000Z</time>
      </trkpt>
      <trkpt lat="39.8979715816676616668701171875" lon="-7.5171829573810100555419921875">
        <ele>346.399993896484375</ele>
        <time>2019-04-27T11:50:47.000Z</time>
      </trkpt>
      <trkpt lat="39.89833426661789417266845703125" lon="-7.51698799431324005126953125">
        <ele>348</ele>
        <time>2019-04-27T11:51:03.000Z</time>
      </trkpt>
      <trkpt lat="39.8989170603454113006591796875" lon="-7.51688431017100811004638671875">
        <ele>349.79998779296875</ele>
        <time>2019-04-27T11:51:20.000Z</time>
      </trkpt>
      <trkpt lat="39.899464733898639678955078125" lon="-7.5167511217296123504638671875">
        <ele>347.600006103515625</ele>
        <time>2019-04-27T11:51:28.000Z</time>
      </trkpt>
      <trkpt lat="39.90003042854368686676025390625" lon="-7.5164869241416454315185546875">
        <ele>343.399993896484375</ele>
        <time>2019-04-27T11:51:35.000Z</time>
      </trkpt>
      <trkpt lat="39.90056502632796764373779296875" lon="-7.51624896191060543060302734375">
        <ele>339</ele>
        <time>2019-04-27T11:51:41.000Z</time>
      </trkpt>
      <trkpt lat="39.90109878592193126678466796875" lon="-7.51599281094968318939208984375">
        <ele>335</ele>
        <time>2019-04-27T11:51:47.000Z</time>
      </trkpt>
      <trkpt lat="39.90154378116130828857421875" lon="-7.51579114235937595367431640625">
        <ele>333.600006103515625</ele>
        <time>2019-04-27T11:51:53.000Z</time>
      </trkpt>
      <trkpt lat="39.90175140090286731719970703125" lon="-7.5156931579113006591796875">
        <ele>333.79998779296875</ele>
        <time>2019-04-27T11:51:57.000Z</time>
      </trkpt>
      <trkpt lat="39.90226672030985355377197265625" lon="-7.51545351929962635040283203125">
        <ele>335</ele>
        <time>2019-04-27T11:52:07.000Z</time>
      </trkpt>
      <trkpt lat="39.9024133197963237762451171875" lon="-7.51539350487291812896728515625">
        <ele>336</ele>
        <time>2019-04-27T11:52:10.000Z</time>
      </trkpt>
      <trkpt lat="39.90293509326875209808349609375" lon="-7.51514255069196224212646484375">
        <ele>338</ele>
        <time>2019-04-27T11:52:21.000Z</time>
      </trkpt>
      <trkpt lat="39.9034593813121318817138671875" lon="-7.5149027444422245025634765625">
        <ele>342.600006103515625</ele>
        <time>2019-04-27T11:52:41.000Z</time>
      </trkpt>
      <trkpt lat="39.9039726890623569488525390625" lon="-7.51466930843889713287353515625">
        <ele>346.399993896484375</ele>
        <time>2019-04-27T11:53:01.000Z</time>
      </trkpt>
      <trkpt lat="39.90450250916182994842529296875" lon="-7.51442556269466876983642578125">
        <ele>350</ele>
        <time>2019-04-27T11:53:21.000Z</time>
      </trkpt>
      <trkpt lat="39.90503291599452495574951171875" lon="-7.51423579640686511993408203125">
        <ele>353.600006103515625</ele>
        <time>2019-04-27T11:53:43.000Z</time>
      </trkpt>
      <trkpt lat="39.90535251796245574951171875" lon="-7.51419338397681713104248046875">
        <ele>355.79998779296875</ele>
        <time>2019-04-27T11:53:56.000Z</time>
      </trkpt>
      <trkpt lat="39.9056530930101871490478515625" lon="-7.51439052633941173553466796875">
        <ele>357.79998779296875</ele>
        <time>2019-04-27T11:54:07.000Z</time>
      </trkpt>
      <trkpt lat="39.90573381073772907257080078125" lon="-7.514386586844921112060546875">
        <ele>358</ele>
        <time>2019-04-27T11:54:13.000Z</time>
      </trkpt>
      <trkpt lat="39.90571872331202030181884765625" lon="-7.5144471041858196258544921875">
        <ele>358.20001220703125</ele>
        <time>2019-04-27T11:54:57.000Z</time>
      </trkpt>
      <trkpt lat="39.90553063340485095977783203125" lon="-7.51433839090168476104736328125">
        <ele>357</ele>
        <time>2019-04-27T11:55:03.000Z</time>
      </trkpt>
      <trkpt lat="39.90551688708364963531494140625" lon="-7.51412834040820598602294921875">
        <ele>356</ele>
        <time>2019-04-27T11:55:16.000Z</time>
      </trkpt>
      <trkpt lat="39.9057566933333873748779296875" lon="-7.51410185359418392181396484375">
        <ele>356.600006103515625</ele>
        <time>2019-04-27T11:55:27.000Z</time>
      </trkpt>
      <trkpt lat="39.9059273488819599151611328125" lon="-7.5140856765210628509521484375">
        <ele>357</ele>
        <time>2019-04-27T11:57:43.000Z</time>
      </trkpt>
      <trkpt lat="39.9064698256552219390869140625" lon="-7.51401476562023162841796875">
        <ele>357.399993896484375</ele>
        <time>2019-04-27T11:58:07.000Z</time>
      </trkpt>
      <trkpt lat="39.90701959468424320220947265625" lon="-7.5138922221958637237548828125">
        <ele>355.79998779296875</ele>
        <time>2019-04-27T11:58:27.000Z</time>
      </trkpt>
      <trkpt lat="39.90755151025950908660888671875" lon="-7.51372198574244976043701171875">
        <ele>357</ele>
        <time>2019-04-27T11:58:49.000Z</time>
      </trkpt>
      <trkpt lat="39.90757732652127742767333984375" lon="-7.513724751770496368408203125">
        <ele>357</ele>
        <time>2019-04-27T11:58:50.000Z</time>
      </trkpt>
      <trkpt lat="39.9076791666448116302490234375" lon="-7.51368560828268527984619140625">
        <ele>357.20001220703125</ele>
        <time>2019-04-27T11:58:57.000Z</time>
      </trkpt>
      <trkpt lat="39.9076955951750278472900390625" lon="-7.51365400850772857666015625">
        <ele>357</ele>
        <time>2019-04-27T11:59:18.000Z</time>
      </trkpt>
      <trkpt lat="39.908163808286190032958984375" lon="-7.5132337398827075958251953125">
        <ele>356.600006103515625</ele>
        <time>2019-04-27T11:59:38.000Z</time>
      </trkpt>
      <trkpt lat="39.908589608967304229736328125" lon="-7.51278824172914028167724609375">
        <ele>357.600006103515625</ele>
        <time>2019-04-27T11:59:54.000Z</time>
      </trkpt>
      <trkpt lat="39.90883813239634037017822265625" lon="-7.5126587413251399993896484375">
        <ele>358.79998779296875</ele>
        <time>2019-04-27T12:00:05.000Z</time>
      </trkpt>
      <trkpt lat="39.90934490226209163665771484375" lon="-7.512928806245326995849609375">
        <ele>361</ele>
        <time>2019-04-27T12:00:23.000Z</time>
      </trkpt>
      <trkpt lat="39.90986935794353485107421875" lon="-7.5130526907742023468017578125">
        <ele>361</ele>
        <time>2019-04-27T12:00:41.000Z</time>
      </trkpt>
      <trkpt lat="39.91031653247773647308349609375" lon="-7.513099126517772674560546875">
        <ele>360</ele>
        <time>2019-04-27T12:00:52.000Z</time>
      </trkpt>
      <trkpt lat="39.91053211502730846405029296875" lon="-7.513140030205249786376953125">
        <ele>358</ele>
        <time>2019-04-27T12:00:56.000Z</time>
      </trkpt>
      <trkpt lat="39.911128319799900054931640625" lon="-7.51311748288571834564208984375">
        <ele>355.600006103515625</ele>
        <time>2019-04-27T12:01:05.000Z</time>
      </trkpt>
      <trkpt lat="39.91170491091907024383544921875" lon="-7.5131425447762012481689453125">
        <ele>350.79998779296875</ele>
        <time>2019-04-27T12:01:12.000Z</time>
      </trkpt>
      <trkpt lat="39.9121108464896678924560546875" lon="-7.51315117813646793365478515625">
        <ele>347.399993896484375</ele>
        <time>2019-04-27T12:01:19.000Z</time>
      </trkpt>
      <trkpt lat="39.91229818202555179595947265625" lon="-7.51317414455115795135498046875">
        <ele>347.600006103515625</ele>
        <time>2019-04-27T12:01:23.000Z</time>
      </trkpt>
      <trkpt lat="39.91270847618579864501953125" lon="-7.5131911598145961761474609375">
        <ele>349</ele>
        <time>2019-04-27T12:01:32.000Z</time>
      </trkpt>
      <trkpt lat="39.91283948533236980438232421875" lon="-7.5132022239267826080322265625">
        <ele>349.399993896484375</ele>
        <time>2019-04-27T12:01:35.000Z</time>
      </trkpt>
      <trkpt lat="39.9131136573851108551025390625" lon="-7.51320783980190753936767578125">
        <ele>348.600006103515625</ele>
        <time>2019-04-27T12:01:41.000Z</time>
      </trkpt>
      <trkpt lat="39.913213066756725311279296875" lon="-7.51321236602962017059326171875">
        <ele>348.399993896484375</ele>
        <time>2019-04-27T12:01:43.000Z</time>
      </trkpt>
      <trkpt lat="39.9135454930365085601806640625" lon="-7.5132106058299541473388671875">
        <ele>347.600006103515625</ele>
        <time>2019-04-27T12:01:49.000Z</time>
      </trkpt>
      <trkpt lat="39.91415510885417461395263671875" lon="-7.513233236968517303466796875">
        <ele>346.20001220703125</ele>
        <time>2019-04-27T12:01:58.000Z</time>
      </trkpt>
      <trkpt lat="39.91471937857568264007568359375" lon="-7.51327254809439182281494140625">
        <ele>345.20001220703125</ele>
        <time>2019-04-27T12:02:04.000Z</time>
      </trkpt>
      <trkpt lat="39.91533159278333187103271484375" lon="-7.51328009180724620819091796875">
        <ele>342.20001220703125</ele>
        <time>2019-04-27T12:02:10.000Z</time>
      </trkpt>
      <trkpt lat="39.91577466018497943878173828125" lon="-7.5132764875888824462890625">
        <ele>338.399993896484375</ele>
        <time>2019-04-27T12:02:14.000Z</time>
      </trkpt>
      <trkpt lat="39.9160976149141788482666015625" lon="-7.51319468021392822265625">
        <ele>335.399993896484375</ele>
        <time>2019-04-27T12:02:17.000Z</time>
      </trkpt>
      <trkpt lat="39.91660279221832752227783203125" lon="-7.51287482678890228271484375">
        <ele>335.79998779296875</ele>
        <time>2019-04-27T12:02:23.000Z</time>
      </trkpt>
      <trkpt lat="39.91699489764869213104248046875" lon="-7.51235841773450374603271484375">
        <ele>338</ele>
        <time>2019-04-27T12:02:33.000Z</time>
      </trkpt>
      <trkpt lat="39.91717460565268993377685546875" lon="-7.5119677372276782989501953125">
        <ele>339.600006103515625</ele>
        <time>2019-04-27T12:02:42.000Z</time>
      </trkpt>
      <trkpt lat="39.91733235307037830352783203125" lon="-7.51152835786342620849609375">
        <ele>341.399993896484375</ele>
        <time>2019-04-27T12:02:52.000Z</time>
      </trkpt>
      <trkpt lat="39.91755899973213672637939453125" lon="-7.510874234139919281005859375">
        <ele>344.20001220703125</ele>
        <time>2019-04-27T12:03:06.000Z</time>
      </trkpt>
      <trkpt lat="39.9177964590489864349365234375" lon="-7.51021851785480976104736328125">
        <ele>345.399993896484375</ele>
        <time>2019-04-27T12:03:20.000Z</time>
      </trkpt>
      <trkpt lat="39.91802402772009372711181640625" lon="-7.509567998349666595458984375">
        <ele>346.600006103515625</ele>
        <time>2019-04-27T12:03:41.000Z</time>
      </trkpt>
      <trkpt lat="39.918256290256977081298828125" lon="-7.50889233313500881195068359375">
        <ele>348.79998779296875</ele>
        <time>2019-04-27T12:03:57.000Z</time>
      </trkpt>
      <trkpt lat="39.9184740521013736724853515625" lon="-7.50819730572402477264404296875">
        <ele>352.399993896484375</ele>
        <time>2019-04-27T12:04:14.000Z</time>
      </trkpt>
      <trkpt lat="39.91854907013475894927978515625" lon="-7.50799094326794147491455078125">
        <ele>353.399993896484375</ele>
        <time>2019-04-27T12:04:18.000Z</time>
      </trkpt>
      <trkpt lat="39.918785355985164642333984375" lon="-7.50731863081455230712890625">
        <ele>356.600006103515625</ele>
        <time>2019-04-27T12:04:31.000Z</time>
      </trkpt>
      <trkpt lat="39.91902105510234832763671875" lon="-7.50664799474179744720458984375">
        <ele>358.399993896484375</ele>
        <time>2019-04-27T12:04:46.000Z</time>
      </trkpt>
      <trkpt lat="39.91925667040050029754638671875" lon="-7.50596101395785808563232421875">
        <ele>359.79998779296875</ele>
        <time>2019-04-27T12:04:59.000Z</time>
      </trkpt>
      <trkpt lat="39.91945959627628326416015625" lon="-7.505369670689105987548828125">
        <ele>361.20001220703125</ele>
        <time>2019-04-27T12:05:10.000Z</time>
      </trkpt>
      <trkpt lat="39.91958909668028354644775390625" lon="-7.5049648247659206390380859375">
        <ele>362</ele>
        <time>2019-04-27T12:05:18.000Z</time>
      </trkpt>
      <trkpt lat="39.9198225326836109161376953125" lon="-7.50429452396929264068603515625">
        <ele>361.20001220703125</ele>
        <time>2019-04-27T12:05:32.000Z</time>
      </trkpt>
      <trkpt lat="39.92006518878042697906494140625" lon="-7.50363587401807308197021484375">
        <ele>360.399993896484375</ele>
        <time>2019-04-27T12:05:43.000Z</time>
      </trkpt>
      <trkpt lat="39.9201772548258304595947265625" lon="-7.50346823595464229583740234375">
        <ele>360</ele>
        <time>2019-04-27T12:05:46.000Z</time>
      </trkpt>
      <trkpt lat="39.92062794975936412811279296875" lon="-7.5030711852014064788818359375">
        <ele>360</ele>
        <time>2019-04-27T12:05:55.000Z</time>
      </trkpt>
      <trkpt lat="39.92110135965049266815185546875" lon="-7.5026765652000904083251953125">
        <ele>360</ele>
        <time>2019-04-27T12:06:04.000Z</time>
      </trkpt>
      <trkpt lat="39.92153319530189037322998046875" lon="-7.50222385860979557037353515625">
        <ele>359.79998779296875</ele>
        <time>2019-04-27T12:06:13.000Z</time>
      </trkpt>
      <trkpt lat="39.921863861382007598876953125" lon="-7.5016174279153347015380859375">
        <ele>358</ele>
        <time>2019-04-27T12:06:22.000Z</time>
      </trkpt>
      <trkpt lat="39.92213920690119266510009765625" lon="-7.50099238939583301544189453125">
        <ele>355.600006103515625</ele>
        <time>2019-04-27T12:06:30.000Z</time>
      </trkpt>
      <trkpt lat="39.92244900204241275787353515625" lon="-7.500316388905048370361328125">
        <ele>352.399993896484375</ele>
        <time>2019-04-27T12:06:37.000Z</time>
      </trkpt>
      <trkpt lat="39.92274538613855838775634765625" lon="-7.49967207200825214385986328125">
        <ele>348.79998779296875</ele>
        <time>2019-04-27T12:06:43.000Z</time>
      </trkpt>
      <trkpt lat="39.92295376025140285491943359375" lon="-7.4992319382727146148681640625">
        <ele>346.399993896484375</ele>
        <time>2019-04-27T12:06:47.000Z</time>
      </trkpt>
      <trkpt lat="39.9234431795775890350341796875" lon="-7.49881527386605739593505859375">
        <ele>344.79998779296875</ele>
        <time>2019-04-27T12:06:53.000Z</time>
      </trkpt>
      <trkpt lat="39.9237050302326679229736328125" lon="-7.49875509180128574371337890625">
        <ele>344.600006103515625</ele>
        <time>2019-04-27T12:06:56.000Z</time>
      </trkpt>
      <trkpt lat="39.924018681049346923828125" lon="-7.49869826249778270721435546875">
        <ele>344.399993896484375</ele>
        <time>2019-04-27T12:07:00.000Z</time>
      </trkpt>
      <trkpt lat="39.9245656840503215789794921875" lon="-7.4985898844897747039794921875">
        <ele>344</ele>
        <time>2019-04-27T12:07:08.000Z</time>
      </trkpt>
      <trkpt lat="39.9248915724456310272216796875" lon="-7.498504556715488433837890625">
        <ele>344.399993896484375</ele>
        <time>2019-04-27T12:07:13.000Z</time>
      </trkpt>
      <trkpt lat="39.92528946138918399810791015625" lon="-7.49807012267410755157470703125">
        <ele>344</ele>
        <time>2019-04-27T12:07:21.000Z</time>
      </trkpt>
      <trkpt lat="39.92535182274878025054931640625" lon="-7.49791338108479976654052734375">
        <ele>343.79998779296875</ele>
        <time>2019-04-27T12:07:23.000Z</time>
      </trkpt>
      <trkpt lat="39.9254705943167209625244140625" lon="-7.4971770308911800384521484375">
        <ele>344.20001220703125</ele>
        <time>2019-04-27T12:07:32.000Z</time>
      </trkpt>
      <trkpt lat="39.92557159624993801116943359375" lon="-7.49645828269422054290771484375">
        <ele>346</ele>
        <time>2019-04-27T12:07:41.000Z</time>
      </trkpt>
      <trkpt lat="39.925625324249267578125" lon="-7.49623549170792102813720703125">
        <ele>346.20001220703125</ele>
        <time>2019-04-27T12:07:44.000Z</time>
      </trkpt>
      <trkpt lat="39.9257072992622852325439453125" lon="-7.49602896161377429962158203125">
        <ele>346.399993896484375</ele>
        <time>2019-04-27T12:07:47.000Z</time>
      </trkpt>
      <trkpt lat="39.92600259371101856231689453125" lon="-7.4956914223730564117431640625">
        <ele>346.20001220703125</ele>
        <time>2019-04-27T12:07:54.000Z</time>
      </trkpt>
      <trkpt lat="39.9260482750833034515380859375" lon="-7.4956555478274822235107421875">
        <ele>346</ele>
        <time>2019-04-27T12:07:55.000Z</time>
      </trkpt>
      <trkpt lat="39.9262071959674358367919921875" lon="-7.49552604742348194122314453125">
        <ele>345.600006103515625</ele>
        <time>2019-04-27T12:07:59.000Z</time>
      </trkpt>
      <trkpt lat="39.92628724314272403717041015625" lon="-7.49547273851931095123291015625">
        <ele>345.600006103515625</ele>
        <time>2019-04-27T12:08:01.000Z</time>
      </trkpt>
      <trkpt lat="39.9265267141163349151611328125" lon="-7.49526252038776874542236328125">
        <ele>345.399993896484375</ele>
        <time>2019-04-27T12:08:07.000Z</time>
      </trkpt>
      <trkpt lat="39.92665017955005168914794921875" lon="-7.495059929788112640380859375">
        <ele>345</ele>
        <time>2019-04-27T12:08:11.000Z</time>
      </trkpt>
      <trkpt lat="39.92674137465655803680419921875" lon="-7.494750805199146270751953125">
        <ele>344.79998779296875</ele>
        <time>2019-04-27T12:08:16.000Z</time>
      </trkpt>
      <trkpt lat="39.9267550371587276458740234375" lon="-7.494580484926700592041015625">
        <ele>344.399993896484375</ele>
        <time>2019-04-27T12:08:19.000Z</time>
      </trkpt>
      <trkpt lat="39.9267718009650707244873046875" lon="-7.4942980147898197174072265625">
        <ele>344.399993896484375</ele>
        <time>2019-04-27T12:08:24.000Z</time>
      </trkpt>
      <trkpt lat="39.92676819674670696258544921875" lon="-7.4941810034215450286865234375">
        <ele>344.399993896484375</ele>
        <time>2019-04-27T12:08:26.000Z</time>
      </trkpt>
      <trkpt lat="39.9268401972949504852294921875" lon="-7.49341665767133235931396484375">
        <ele>342.399993896484375</ele>
        <time>2019-04-27T12:08:37.000Z</time>
      </trkpt>
      <trkpt lat="39.92686090059578418731689453125" lon="-7.49334289692342281341552734375">
        <ele>342</ele>
        <time>2019-04-27T12:08:38.000Z</time>
      </trkpt>
      <trkpt lat="39.92703306488692760467529296875" lon="-7.49301549978554248809814453125">
        <ele>341.600006103515625</ele>
        <time>2019-04-27T12:08:43.000Z</time>
      </trkpt>
      <trkpt lat="39.92746557109057903289794921875" lon="-7.49258668161928653717041015625">
        <ele>339.600006103515625</ele>
        <time>2019-04-27T12:08:51.000Z</time>
      </trkpt>
      <trkpt lat="39.927976615726947784423828125" lon="-7.49219876714050769805908203125">
        <ele>338</ele>
        <time>2019-04-27T12:08:59.000Z</time>
      </trkpt>
      <trkpt lat="39.92848715744912624359130859375" lon="-7.49179408885538578033447265625">
        <ele>338.600006103515625</ele>
        <time>2019-04-27T12:09:08.000Z</time>
      </trkpt>
      <trkpt lat="39.928542561829090118408203125" lon="-7.4917415343225002288818359375">
        <ele>338.79998779296875</ele>
        <time>2019-04-27T12:09:09.000Z</time>
      </trkpt>
      <trkpt lat="39.9290007166564464569091796875" lon="-7.4912812002003192901611328125">
        <ele>338.79998779296875</ele>
        <time>2019-04-27T12:09:18.000Z</time>
      </trkpt>
      <trkpt lat="39.92891899310052394866943359375" lon="-7.4908505380153656005859375">
        <ele>337.399993896484375</ele>
        <time>2019-04-27T12:09:26.000Z</time>
      </trkpt>
      <trkpt lat="39.92837483994662761688232421875" lon="-7.49057569541037082672119140625">
        <ele>337</ele>
        <time>2019-04-27T12:09:34.000Z</time>
      </trkpt>
      <trkpt lat="39.92779850028455257415771484375" lon="-7.49034150503575801849365234375">
        <ele>338.399993896484375</ele>
        <time>2019-04-27T12:09:41.000Z</time>
      </trkpt>
      <trkpt lat="39.927251078188419342041015625" lon="-7.4901157803833484649658203125">
        <ele>338.79998779296875</ele>
        <time>2019-04-27T12:09:48.000Z</time>
      </trkpt>
      <trkpt lat="39.9267345853149890899658203125" lon="-7.489907741546630859375">
        <ele>338.20001220703125</ele>
        <time>2019-04-27T12:09:55.000Z</time>
      </trkpt>
      <trkpt lat="39.9261894263327121734619140625" lon="-7.48968176543712615966796875">
        <ele>337.399993896484375</ele>
        <time>2019-04-27T12:10:03.000Z</time>
      </trkpt>
      <trkpt lat="39.9256321974098682403564453125" lon="-7.48945872299373149871826171875">
        <ele>334</ele>
        <time>2019-04-27T12:10:11.000Z</time>
      </trkpt>
      <trkpt lat="39.92526800371706485748291015625" lon="-7.48932176269590854644775390625">
        <ele>331.79998779296875</ele>
        <time>2019-04-27T12:10:16.000Z</time>
      </trkpt>
      <trkpt lat="39.9249026365578174591064453125" lon="-7.489060498774051666259765625">
        <ele>331.600006103515625</ele>
        <time>2019-04-27T12:10:22.000Z</time>
      </trkpt>
      <trkpt lat="39.92475025355815887451171875" lon="-7.48886813409626483917236328125">
        <ele>332</ele>
        <time>2019-04-27T12:10:25.000Z</time>
      </trkpt>
      <trkpt lat="39.924389831721782684326171875" lon="-7.488316185772418975830078125">
        <ele>333.20001220703125</ele>
        <time>2019-04-27T12:10:33.000Z</time>
      </trkpt>
      <trkpt lat="39.9240168370306491851806640625" lon="-7.4877356551587581634521484375">
        <ele>334.79998779296875</ele>
        <time>2019-04-27T12:10:42.000Z</time>
      </trkpt>
      <trkpt lat="39.92363856174051761627197265625" lon="-7.48715973459184169769287109375">
        <ele>337.600006103515625</ele>
        <time>2019-04-27T12:10:52.000Z</time>
      </trkpt>
      <trkpt lat="39.9232929758727550506591796875" lon="-7.48661541379988193511962890625">
        <ele>340.79998779296875</ele>
        <time>2019-04-27T12:11:03.000Z</time>
      </trkpt>
      <trkpt lat="39.92291721515357494354248046875" lon="-7.48604058288037776947021484375">
        <ele>343.20001220703125</ele>
        <time>2019-04-27T12:11:15.000Z</time>
      </trkpt>
      <trkpt lat="39.92261412553489208221435546875" lon="-7.48556683771312236785888671875">
        <ele>341.600006103515625</ele>
        <time>2019-04-27T12:11:25.000Z</time>
      </trkpt>
      <trkpt lat="39.92225571535527706146240234375" lon="-7.485010363161563873291015625">
        <ele>340.20001220703125</ele>
        <time>2019-04-27T12:11:37.000Z</time>
      </trkpt>
      <trkpt lat="39.92190132848918437957763671875" lon="-7.4844093807041645050048828125">
        <ele>338</ele>
        <time>2019-04-27T12:11:49.000Z</time>
      </trkpt>
      <trkpt lat="39.921877942979335784912109375" lon="-7.484347857534885406494140625">
        <ele>337.79998779296875</ele>
        <time>2019-04-27T12:11:50.000Z</time>
      </trkpt>
      <trkpt lat="39.92173570208251476287841796875" lon="-7.48382071964442729949951171875">
        <ele>336.79998779296875</ele>
        <time>2019-04-27T12:11:59.000Z</time>
      </trkpt>
      <trkpt lat="39.9216836504638195037841796875" lon="-7.48308093287050724029541015625">
        <ele>333.79998779296875</ele>
        <time>2019-04-27T12:12:10.000Z</time>
      </trkpt>
      <trkpt lat="39.92165205068886280059814453125" lon="-7.4823693931102752685546875">
        <ele>331.20001220703125</ele>
        <time>2019-04-27T12:12:19.000Z</time>
      </trkpt>
      <trkpt lat="39.92163226939737796783447265625" lon="-7.48194635845720767974853515625">
        <ele>330.600006103515625</ele>
        <time>2019-04-27T12:12:24.000Z</time>
      </trkpt>
      <trkpt lat="39.92157108150422573089599609375" lon="-7.48153430409729480743408203125">
        <ele>330.79998779296875</ele>
        <time>2019-04-27T12:12:29.000Z</time>
      </trkpt>
      <trkpt lat="39.9212655611336231231689453125" lon="-7.48090985231101512908935546875">
        <ele>329.20001220703125</ele>
        <time>2019-04-27T12:12:39.000Z</time>
      </trkpt>
      <trkpt lat="39.9209059774875640869140625" lon="-7.4803750030696392059326171875">
        <ele>329.79998779296875</ele>
        <time>2019-04-27T12:12:48.000Z</time>
      </trkpt>
      <trkpt lat="39.9205329827964305877685546875" lon="-7.47979857958853244781494140625">
        <ele>329.600006103515625</ele>
        <time>2019-04-27T12:12:59.000Z</time>
      </trkpt>
      <trkpt lat="39.92047422565519809722900390625" lon="-7.4797054566442966461181640625">
        <ele>330</ele>
        <time>2019-04-27T12:13:01.000Z</time>
      </trkpt>
      <trkpt lat="39.9200967885553836822509765625" lon="-7.479142360389232635498046875">
        <ele>333.399993896484375</ele>
        <time>2019-04-27T12:13:15.000Z</time>
      </trkpt>
      <trkpt lat="39.91979965008795261383056640625" lon="-7.478709854185581207275390625">
        <ele>336.20001220703125</ele>
        <time>2019-04-27T12:13:26.000Z</time>
      </trkpt>
      <trkpt lat="39.91944752633571624755859375" lon="-7.47815958224236965179443359375">
        <ele>338.79998779296875</ele>
        <time>2019-04-27T12:13:40.000Z</time>
      </trkpt>
      <trkpt lat="39.919099174439907073974609375" lon="-7.47759841382503509521484375">
        <ele>341.600006103515625</ele>
        <time>2019-04-27T12:13:54.000Z</time>
      </trkpt>
      <trkpt lat="39.91874403320252895355224609375" lon="-7.477036155760288238525390625">
        <ele>344.600006103515625</ele>
        <time>2019-04-27T12:14:08.000Z</time>
      </trkpt>
      <trkpt lat="39.9183862097561359405517578125" lon="-7.47647314332425594329833984375">
        <ele>348.20001220703125</ele>
        <time>2019-04-27T12:14:25.000Z</time>
      </trkpt>
      <trkpt lat="39.9181186594069004058837890625" lon="-7.475829161703586578369140625">
        <ele>351.399993896484375</ele>
        <time>2019-04-27T12:14:49.000Z</time>
      </trkpt>
      <trkpt lat="39.91801346652209758758544921875" lon="-7.475122399628162384033203125">
        <ele>354.79998779296875</ele>
        <time>2019-04-27T12:15:09.000Z</time>
      </trkpt>
      <trkpt lat="39.9179352633655071258544921875" lon="-7.47442242689430713653564453125">
        <ele>356.600006103515625</ele>
        <time>2019-04-27T12:15:29.000Z</time>
      </trkpt>
      <trkpt lat="39.91785571910440921783447265625" lon="-7.47372454963624477386474609375">
        <ele>357.20001220703125</ele>
        <time>2019-04-27T12:15:48.000Z</time>
      </trkpt>
      <trkpt lat="39.91775731556117534637451171875" lon="-7.47302734293043613433837890625">
        <ele>357.79998779296875</ele>
        <time>2019-04-27T12:16:06.000Z</time>
      </trkpt>
      <trkpt lat="39.91766612045466899871826171875" lon="-7.47232862748205661773681640625">
        <ele>359.20001220703125</ele>
        <time>2019-04-27T12:16:22.000Z</time>
      </trkpt>
      <trkpt lat="39.917573668062686920166015625" lon="-7.47162303887307643890380859375">
        <ele>361.399993896484375</ele>
        <time>2019-04-27T12:16:38.000Z</time>
      </trkpt>
      <trkpt lat="39.91737945936620235443115234375" lon="-7.4709899537265300750732421875">
        <ele>361.20001220703125</ele>
        <time>2019-04-27T12:16:54.000Z</time>
      </trkpt>
      <trkpt lat="39.9173411540687084197998046875" lon="-7.470912672579288482666015625">
        <ele>360.79998779296875</ele>
        <time>2019-04-27T12:16:59.000Z</time>
      </trkpt>
      <trkpt lat="39.9173371307551860809326171875" lon="-7.47087151743471622467041015625">
        <ele>360.79998779296875</ele>
        <time>2019-04-27T12:17:16.000Z</time>
      </trkpt>
      <trkpt lat="39.9173384718596935272216796875" lon="-7.4708296917378902435302734375">
        <ele>360.600006103515625</ele>
        <time>2019-04-27T12:17:18.000Z</time>
      </trkpt>
      <trkpt lat="39.91740100085735321044921875" lon="-7.47030087746679782867431640625">
        <ele>360.79998779296875</ele>
        <time>2019-04-27T12:17:31.000Z</time>
      </trkpt>
      <trkpt lat="39.91711995564401149749755859375" lon="-7.46969352476298809051513671875">
        <ele>362</ele>
        <time>2019-04-27T12:17:47.000Z</time>
      </trkpt>
      <trkpt lat="39.91707368753850460052490234375" lon="-7.469643987715244293212890625">
        <ele>362</ele>
        <time>2019-04-27T12:17:52.000Z</time>
      </trkpt>
      <trkpt lat="39.9170823208987712860107421875" lon="-7.46959797106683254241943359375">
        <ele>362</ele>
        <time>2019-04-27T12:18:18.000Z</time>
      </trkpt>
      <trkpt lat="39.91711509414017200469970703125" lon="-7.46956746093928813934326171875">
        <ele>362</ele>
        <time>2019-04-27T12:18:20.000Z</time>
      </trkpt>
      <trkpt lat="39.91723093204200267791748046875" lon="-7.4696986377239227294921875">
        <ele>362.20001220703125</ele>
        <time>2019-04-27T12:18:27.000Z</time>
      </trkpt>
      <trkpt lat="39.91740309633314609527587890625" lon="-7.47009384445846080780029296875">
        <ele>361.399993896484375</ele>
        <time>2019-04-27T12:18:36.000Z</time>
      </trkpt>
      <trkpt lat="39.91756000556051731109619140625" lon="-7.47077462263405323028564453125">
        <ele>361.20001220703125</ele>
        <time>2019-04-27T12:18:52.000Z</time>
      </trkpt>
      <trkpt lat="39.91757743991911411285400390625" lon="-7.47091476805508136749267578125">
        <ele>361.399993896484375</ele>
        <time>2019-04-27T12:18:55.000Z</time>
      </trkpt>
      <trkpt lat="39.9172630347311496734619140625" lon="-7.470971681177616119384765625">
        <ele>360.79998779296875</ele>
        <time>2019-04-27T12:19:02.000Z</time>
      </trkpt>
      <trkpt lat="39.91668242029845714569091796875" lon="-7.471076287329196929931640625">
        <ele>359.79998779296875</ele>
        <time>2019-04-27T12:19:12.000Z</time>
      </trkpt>
      <trkpt lat="39.916091747581958770751953125" lon="-7.4712073802947998046875">
        <ele>359.20001220703125</ele>
        <time>2019-04-27T12:19:21.000Z</time>
      </trkpt>
      <trkpt lat="39.91584397852420806884765625" lon="-7.471278794109821319580078125">
        <ele>358.600006103515625</ele>
        <time>2019-04-27T12:19:25.000Z</time>
      </trkpt>
      <trkpt lat="39.91568396799266338348388671875" lon="-7.4713919498026371002197265625">
        <ele>358.399993896484375</ele>
        <time>2019-04-27T12:19:28.000Z</time>
      </trkpt>
      <trkpt lat="39.91549931466579437255859375" lon="-7.47144400142133235931396484375">
        <ele>358.20001220703125</ele>
        <time>2019-04-27T12:19:33.000Z</time>
      </trkpt>
      <trkpt lat="39.9154076166450977325439453125" lon="-7.4714945442974567413330078125">
        <ele>358</ele>
        <time>2019-04-27T12:19:38.000Z</time>
      </trkpt>
      <trkpt lat="39.9154223687946796417236328125" lon="-7.47154056094586849212646484375">
        <ele>358</ele>
        <time>2019-04-27T12:19:43.000Z</time>
      </trkpt>
      <trkpt lat="39.915434606373310089111328125" lon="-7.47149781323969364166259765625">
        <ele>358</ele>
        <time>2019-04-27T13:18:32.000Z</time>
      </trkpt>
      <trkpt lat="39.9153251387178897857666015625" lon="-7.47145640663802623748779296875">
        <ele>357.79998779296875</ele>
        <time>2019-04-27T13:18:39.000Z</time>
      </trkpt>
      <trkpt lat="39.91525867022573947906494140625" lon="-7.47144500724971294403076171875">
        <ele>357.600006103515625</ele>
        <time>2019-04-27T13:18:45.000Z</time>
      </trkpt>
      <trkpt lat="39.91524140350520610809326171875" lon="-7.4714496172964572906494140625">
        <ele>357.600006103515625</ele>
        <time>2019-04-27T13:19:05.000Z</time>
      </trkpt>
      <trkpt lat="39.91523989476263523101806640625" lon="-7.47147266753017902374267578125">
        <ele>357.600006103515625</ele>
        <time>2019-04-27T13:19:07.000Z</time>
      </trkpt>
      <trkpt lat="39.915293119847774505615234375" lon="-7.47146093286573886871337890625">
        <ele>357.79998779296875</ele>
        <time>2019-04-27T13:19:15.000Z</time>
      </trkpt>
      <trkpt lat="39.91527811624109745025634765625" lon="-7.4714955501258373260498046875">
        <ele>357.79998779296875</ele>
        <time>2019-04-27T13:20:28.000Z</time>
      </trkpt>
      <trkpt lat="39.91517334245145320892333984375" lon="-7.4714948795735836029052734375">
        <ele>357.399993896484375</ele>
        <time>2019-04-27T13:20:37.000Z</time>
      </trkpt>
      <trkpt lat="39.91519530303776264190673828125" lon="-7.4714673869311809539794921875">
        <ele>357.600006103515625</ele>
        <time>2019-04-27T13:21:34.000Z</time>
      </trkpt>
      <trkpt lat="39.9152493663132190704345703125" lon="-7.47146177105605602264404296875">
        <ele>357.600006103515625</ele>
        <time>2019-04-27T13:21:38.000Z</time>
      </trkpt>
      <trkpt lat="39.9153080396354198455810546875" lon="-7.47142723761498928070068359375">
        <ele>357.79998779296875</ele>
        <time>2019-04-27T13:21:42.000Z</time>
      </trkpt>
      <trkpt lat="39.91539831273257732391357421875" lon="-7.47137677855789661407470703125">
        <ele>358</ele>
        <time>2019-04-27T13:21:49.000Z</time>
      </trkpt>
      <trkpt lat="39.91541071794927120208740234375" lon="-7.47136906720697879791259765625">
        <ele>358</ele>
        <time>2019-04-27T13:21:52.000Z</time>
      </trkpt>
      <trkpt lat="39.91542697884142398834228515625" lon="-7.47135289013385772705078125">
        <ele>358</ele>
        <time>2019-04-27T13:22:02.000Z</time>
      </trkpt>
      <trkpt lat="39.91544223390519618988037109375" lon="-7.4713198654353618621826171875">
        <ele>358</ele>
        <time>2019-04-27T13:22:04.000Z</time>
      </trkpt>
      <trkpt lat="39.9155497737228870391845703125" lon="-7.4712310172617435455322265625">
        <ele>358.20001220703125</ele>
        <time>2019-04-27T13:22:10.000Z</time>
      </trkpt>
      <trkpt lat="39.91591908037662506103515625" lon="-7.4711579270660877227783203125">
        <ele>358.600006103515625</ele>
        <time>2019-04-27T13:22:25.000Z</time>
      </trkpt>
      <trkpt lat="39.9160141311585903167724609375" lon="-7.471121884882450103759765625">
        <ele>358.79998779296875</ele>
        <time>2019-04-27T13:22:29.000Z</time>
      </trkpt>
      <trkpt lat="39.9165488965809345245361328125" lon="-7.47100831009447574615478515625">
        <ele>359.600006103515625</ele>
        <time>2019-04-27T13:22:57.000Z</time>
      </trkpt>
      <trkpt lat="39.91709866560995578765869140625" lon="-7.47092750854790210723876953125">
        <ele>360.399993896484375</ele>
        <time>2019-04-27T13:23:22.000Z</time>
      </trkpt>
      <trkpt lat="39.91763703525066375732421875" lon="-7.47077546082437038421630859375">
        <ele>361.20001220703125</ele>
        <time>2019-04-27T13:23:41.000Z</time>
      </trkpt>
      <trkpt lat="39.9177334271371364593505859375" lon="-7.47077043168246746063232421875">
        <ele>361.600006103515625</ele>
        <time>2019-04-27T13:23:44.000Z</time>
      </trkpt>
      <trkpt lat="39.91785437799990177154541015625" lon="-7.47074612416326999664306640625">
        <ele>361.79998779296875</ele>
        <time>2019-04-27T13:23:48.000Z</time>
      </trkpt>
      <trkpt lat="39.91789394058287143707275390625" lon="-7.4707366526126861572265625">
        <ele>361.79998779296875</ele>
        <time>2019-04-27T13:23:52.000Z</time>
      </trkpt>
      <trkpt lat="39.9178987182676792144775390625" lon="-7.47078384272754192352294921875">
        <ele>362</ele>
        <time>2019-04-27T13:24:20.000Z</time>
      </trkpt>
      <trkpt lat="39.9176610074937343597412109375" lon="-7.47095986269414424896240234375">
        <ele>361.79998779296875</ele>
        <time>2019-04-27T13:24:31.000Z</time>
      </trkpt>
      <trkpt lat="39.9175879172980785369873046875" lon="-7.47126060537993907928466796875">
        <ele>361.79998779296875</ele>
        <time>2019-04-27T13:24:36.000Z</time>
      </trkpt>
      <trkpt lat="39.917682968080043792724609375" lon="-7.47201397083699703216552734375">
        <ele>360.20001220703125</ele>
        <time>2019-04-27T13:24:46.000Z</time>
      </trkpt>
      <trkpt lat="39.91777726449072360992431640625" lon="-7.472754679620265960693359375">
        <ele>358.20001220703125</ele>
        <time>2019-04-27T13:24:55.000Z</time>
      </trkpt>
      <trkpt lat="39.91787181235849857330322265625" lon="-7.47345197014510631561279296875">
        <ele>357</ele>
        <time>2019-04-27T13:25:03.000Z</time>
      </trkpt>
      <trkpt lat="39.91798195056617259979248046875" lon="-7.47421354986727237701416015625">
        <ele>356.600006103515625</ele>
        <time>2019-04-27T13:25:12.000Z</time>
      </trkpt>
      <trkpt lat="39.91809426806867122650146484375" lon="-7.4749180488288402557373046875">
        <ele>355.20001220703125</ele>
        <time>2019-04-27T13:25:21.000Z</time>
      </trkpt>
      <trkpt lat="39.91822980344295501708984375" lon="-7.47569136321544647216796875">
        <ele>351.600006103515625</ele>
        <time>2019-04-27T13:25:29.000Z</time>
      </trkpt>
      <trkpt lat="39.91849140264093875885009765625" lon="-7.47637264430522918701171875">
        <ele>348.20001220703125</ele>
        <time>2019-04-27T13:25:35.000Z</time>
      </trkpt>
      <trkpt lat="39.918894656002521514892578125" lon="-7.47701369225978851318359375">
        <ele>344.399993896484375</ele>
        <time>2019-04-27T13:25:41.000Z</time>
      </trkpt>
      <trkpt lat="39.919255077838897705078125" lon="-7.47757829725742340087890625">
        <ele>341.399993896484375</ele>
        <time>2019-04-27T13:25:47.000Z</time>
      </trkpt>
      <trkpt lat="39.91962916217744350433349609375" lon="-7.47815807349979877471923828125">
        <ele>338.79998779296875</ele>
        <time>2019-04-27T13:25:55.000Z</time>
      </trkpt>
      <trkpt lat="39.91998304612934589385986328125" lon="-7.4787227623164653778076171875">
        <ele>336.20001220703125</ele>
        <time>2019-04-27T13:26:04.000Z</time>
      </trkpt>
      <trkpt lat="39.92032335139811038970947265625" lon="-7.47931301593780517578125">
        <ele>332.20001220703125</ele>
        <time>2019-04-27T13:26:13.000Z</time>
      </trkpt>
      <trkpt lat="39.920706488192081451416015625" lon="-7.4799233861267566680908203125">
        <ele>330.399993896484375</ele>
        <time>2019-04-27T13:26:21.000Z</time>
      </trkpt>
      <trkpt lat="39.92109465412795543670654296875" lon="-7.48053601942956447601318359375">
        <ele>330</ele>
        <time>2019-04-27T13:26:28.000Z</time>
      </trkpt>
      <trkpt lat="39.921438060700893402099609375" lon="-7.481079585850238800048828125">
        <ele>330.20001220703125</ele>
        <time>2019-04-27T13:26:35.000Z</time>
      </trkpt>
      <trkpt lat="39.92161366157233715057373046875" lon="-7.48145677149295806884765625">
        <ele>331</ele>
        <time>2019-04-27T13:26:40.000Z</time>
      </trkpt>
      <trkpt lat="39.92171659134328365325927734375" lon="-7.48216931708157062530517578125">
        <ele>331.20001220703125</ele>
        <time>2019-04-27T13:26:49.000Z</time>
      </trkpt>
      <trkpt lat="39.92175464518368244171142578125" lon="-7.48292000032961368560791015625">
        <ele>334</ele>
        <time>2019-04-27T13:26:59.000Z</time>
      </trkpt>
      <trkpt lat="39.921787418425083160400390625" lon="-7.48363950289785861968994140625">
        <ele>336.399993896484375</ele>
        <time>2019-04-27T13:27:08.000Z</time>
      </trkpt>
      <trkpt lat="39.9219508655369281768798828125" lon="-7.48434408567845821380615234375">
        <ele>338</ele>
        <time>2019-04-27T13:27:19.000Z</time>
      </trkpt>
      <trkpt lat="39.92207936011254787445068359375" lon="-7.48460794799029827117919921875">
        <ele>339.20001220703125</ele>
        <time>2019-04-27T13:27:24.000Z</time>
      </trkpt>
      <trkpt lat="39.92243592627346515655517578125" lon="-7.48516551218926906585693359375">
        <ele>340.600006103515625</ele>
        <time>2019-04-27T13:27:36.000Z</time>
      </trkpt>
      <trkpt lat="39.92281395010650157928466796875" lon="-7.48575442470610141754150390625">
        <ele>342.600006103515625</ele>
        <time>2019-04-27T13:27:49.000Z</time>
      </trkpt>
      <trkpt lat="39.923171438276767730712890625" lon="-7.48631022870540618896484375">
        <ele>342.20001220703125</ele>
        <time>2019-04-27T13:27:59.000Z</time>
      </trkpt>
      <trkpt lat="39.923538900911808013916015625" lon="-7.4868753366172313690185546875">
        <ele>339.20001220703125</ele>
        <time>2019-04-27T13:28:09.000Z</time>
      </trkpt>
      <trkpt lat="39.92391600273549556732177734375" lon="-7.48746366240084171295166015625">
        <ele>335.600006103515625</ele>
        <time>2019-04-27T13:28:18.000Z</time>
      </trkpt>
      <trkpt lat="39.9242967925965785980224609375" lon="-7.488056682050228118896484375">
        <ele>333.600006103515625</ele>
        <time>2019-04-27T13:28:27.000Z</time>
      </trkpt>
      <trkpt lat="39.924660734832286834716796875" lon="-7.48861634172499179840087890625">
        <ele>332.399993896484375</ele>
        <time>2019-04-27T13:28:36.000Z</time>
      </trkpt>
      <trkpt lat="39.92494680918753147125244140625" lon="-7.48903124593198299407958984375">
        <ele>331.79998779296875</ele>
        <time>2019-04-27T13:28:43.000Z</time>
      </trkpt>
      <trkpt lat="39.92508728988468647003173828125" lon="-7.48915932141244411468505859375">
        <ele>331.600006103515625</ele>
        <time>2019-04-27T13:28:46.000Z</time>
      </trkpt>
      <trkpt lat="39.92559825070202350616455078125" lon="-7.4893887341022491455078125">
        <ele>333.79998779296875</ele>
        <time>2019-04-27T13:28:56.000Z</time>
      </trkpt>
      <trkpt lat="39.92613133974373340606689453125" lon="-7.48959652148187160491943359375">
        <ele>337</ele>
        <time>2019-04-27T13:29:07.000Z</time>
      </trkpt>
      <trkpt lat="39.92668404243886470794677734375" lon="-7.48982484452426433563232421875">
        <ele>338</ele>
        <time>2019-04-27T13:29:18.000Z</time>
      </trkpt>
      <trkpt lat="39.9272091686725616455078125" lon="-7.49005551449954509735107421875">
        <ele>338.79998779296875</ele>
        <time>2019-04-27T13:29:27.000Z</time>
      </trkpt>
      <trkpt lat="39.92773915641009807586669921875" lon="-7.4902609549462795257568359375">
        <ele>338.399993896484375</ele>
        <time>2019-04-27T13:29:36.000Z</time>
      </trkpt>
      <trkpt lat="39.928027577698230743408203125" lon="-7.4903729371726512908935546875">
        <ele>337.79998779296875</ele>
        <time>2019-04-27T13:29:41.000Z</time>
      </trkpt>
      <trkpt lat="39.928284399211406707763671875" lon="-7.4904842488467693328857421875">
        <ele>336.79998779296875</ele>
        <time>2019-04-27T13:29:46.000Z</time>
      </trkpt>
      <trkpt lat="39.9286496825516223907470703125" lon="-7.49062615446746349334716796875">
        <ele>336.399993896484375</ele>
        <time>2019-04-27T13:29:54.000Z</time>
      </trkpt>
      <trkpt lat="39.9291485734283924102783203125" lon="-7.49099194072186946868896484375">
        <ele>338.399993896484375</ele>
        <time>2019-04-27T13:30:09.000Z</time>
      </trkpt>
      <trkpt lat="39.92920934222638607025146484375" lon="-7.491066120564937591552734375">
        <ele>338.600006103515625</ele>
        <time>2019-04-27T13:30:11.000Z</time>
      </trkpt>
      <trkpt lat="39.92964386008679866790771484375" lon="-7.4915182404220104217529296875">
        <ele>341</ele>
        <time>2019-04-27T13:30:23.000Z</time>
      </trkpt>
      <trkpt lat="39.93008843623101711273193359375" lon="-7.49198687262833118438720703125">
        <ele>342</ele>
        <time>2019-04-27T13:30:36.000Z</time>
      </trkpt>
      <trkpt lat="39.93052965961396694183349609375" lon="-7.4924503080546855926513671875">
        <ele>343.79998779296875</ele>
        <time>2019-04-27T13:30:47.000Z</time>
      </trkpt>
      <trkpt lat="39.93097876198589801788330078125" lon="-7.4929237179458141326904296875">
        <ele>343.600006103515625</ele>
        <time>2019-04-27T13:30:58.000Z</time>
      </trkpt>
      <trkpt lat="39.9314153753221035003662109375" lon="-7.49338581226766109466552734375">
        <ele>344.20001220703125</ele>
        <time>2019-04-27T13:31:09.000Z</time>
      </trkpt>
      <trkpt lat="39.931863136589527130126953125" lon="-7.4938665144145488739013671875">
        <ele>344.399993896484375</ele>
        <time>2019-04-27T13:31:20.000Z</time>
      </trkpt>
      <trkpt lat="39.93228097446262836456298828125" lon="-7.4943298660218715667724609375">
        <ele>344.79998779296875</ele>
        <time>2019-04-27T13:31:31.000Z</time>
      </trkpt>
      <trkpt lat="39.932719431817531585693359375" lon="-7.49479313381016254425048828125">
        <ele>344.20001220703125</ele>
        <time>2019-04-27T13:31:43.000Z</time>
      </trkpt>
      <trkpt lat="39.933150596916675567626953125" lon="-7.49523284845054149627685546875">
        <ele>345.20001220703125</ele>
        <time>2019-04-27T13:31:56.000Z</time>
      </trkpt>
      <trkpt lat="39.93358804844319820404052734375" lon="-7.49568513594567775726318359375">
        <ele>348</ele>
        <time>2019-04-27T13:32:11.000Z</time>
      </trkpt>
      <trkpt lat="39.9340124242007732391357421875" lon="-7.4961396865546703338623046875">
        <ele>349.600006103515625</ele>
        <time>2019-04-27T13:32:24.000Z</time>
      </trkpt>
      <trkpt lat="39.93443395011126995086669921875" lon="-7.4965805746614933013916015625">
        <ele>350.600006103515625</ele>
        <time>2019-04-27T13:32:36.000Z</time>
      </trkpt>
      <trkpt lat="39.93486343882977962493896484375" lon="-7.49702825210988521575927734375">
        <ele>353</ele>
        <time>2019-04-27T13:32:51.000Z</time>
      </trkpt>
      <trkpt lat="39.93527499027550220489501953125" lon="-7.49754340387880802154541015625">
        <ele>355.79998779296875</ele>
        <time>2019-04-27T13:33:07.000Z</time>
      </trkpt>
      <trkpt lat="39.9355748109519481658935546875" lon="-7.49815796501934528350830078125">
        <ele>358.399993896484375</ele>
        <time>2019-04-27T13:33:23.000Z</time>
      </trkpt>
      <trkpt lat="39.93587546981871128082275390625" lon="-7.4987923912703990936279296875">
        <ele>363.79998779296875</ele>
        <time>2019-04-27T13:33:40.000Z</time>
      </trkpt>
      <trkpt lat="39.936260618269443511962890625" lon="-7.49928868375718593597412109375">
        <ele>366.399993896484375</ele>
        <time>2019-04-27T13:33:56.000Z</time>
      </trkpt>
      <trkpt lat="39.93668742477893829345703125" lon="-7.4997740797698497772216796875">
        <ele>368.399993896484375</ele>
        <time>2019-04-27T13:34:12.000Z</time>
      </trkpt>
      <trkpt lat="39.9371174164116382598876953125" lon="-7.50024874694645404815673828125">
        <ele>368.20001220703125</ele>
        <time>2019-04-27T13:34:25.000Z</time>
      </trkpt>
      <trkpt lat="39.9375754036009311676025390625" lon="-7.5007559359073638916015625">
        <ele>367.20001220703125</ele>
        <time>2019-04-27T13:34:35.000Z</time>
      </trkpt>
      <trkpt lat="39.93802023120224475860595703125" lon="-7.50121794641017913818359375">
        <ele>367.79998779296875</ele>
        <time>2019-04-27T13:34:45.000Z</time>
      </trkpt>
      <trkpt lat="39.93845826946198940277099609375" lon="-7.50168171711266040802001953125">
        <ele>369.600006103515625</ele>
        <time>2019-04-27T13:34:58.000Z</time>
      </trkpt>
      <trkpt lat="39.938867054879665374755859375" lon="-7.50222486443817615509033203125">
        <ele>370.20001220703125</ele>
        <time>2019-04-27T13:35:09.000Z</time>
      </trkpt>
      <trkpt lat="39.93906696327030658721923828125" lon="-7.50272710807621479034423828125">
        <ele>369</ele>
        <time>2019-04-27T13:35:16.000Z</time>
      </trkpt>
      <trkpt lat="39.93897140957415103912353515625" lon="-7.50326053239405155181884765625">
        <ele>366.600006103515625</ele>
        <time>2019-04-27T13:35:23.000Z</time>
      </trkpt>
      <trkpt lat="39.9389624409377574920654296875" lon="-7.50330445356667041778564453125">
        <ele>366.399993896484375</ele>
        <time>2019-04-27T13:35:24.000Z</time>
      </trkpt>
      <trkpt lat="39.93914893828332424163818359375" lon="-7.50338642857968807220458984375">
        <ele>367.20001220703125</ele>
        <time>2019-04-27T13:35:30.000Z</time>
      </trkpt>
      <trkpt lat="39.939693845808506011962890625" lon="-7.5032780505716800689697265625">
        <ele>370.399993896484375</ele>
        <time>2019-04-27T13:35:45.000Z</time>
      </trkpt>
      <trkpt lat="39.939881600439548492431640625" lon="-7.50314033590257167816162109375">
        <ele>371.20001220703125</ele>
        <time>2019-04-27T13:35:52.000Z</time>
      </trkpt>
      <trkpt lat="39.9398881383240222930908203125" lon="-7.50314217992126941680908203125">
        <ele>371.20001220703125</ele>
        <time>2019-04-27T13:35:54.000Z</time>
      </trkpt>
      <trkpt lat="39.93990649469196796417236328125" lon="-7.5031754560768604278564453125">
        <ele>371.20001220703125</ele>
        <time>2019-04-27T13:35:58.000Z</time>
      </trkpt>
      <trkpt lat="39.94042583741247653961181640625" lon="-7.50344929285347461700439453125">
        <ele>370.20001220703125</ele>
        <time>2019-04-27T13:36:20.000Z</time>
      </trkpt>
      <trkpt lat="39.9407328665256500244140625" lon="-7.50349245965480804443359375">
        <ele>369.600006103515625</ele>
        <time>2019-04-27T13:36:29.000Z</time>
      </trkpt>
      <trkpt lat="39.94084753096103668212890625" lon="-7.5036421604454517364501953125">
        <ele>368.600006103515625</ele>
        <time>2019-04-27T13:36:33.000Z</time>
      </trkpt>
      <trkpt lat="39.940867312252521514892578125" lon="-7.50367459841072559356689453125">
        <ele>368.399993896484375</ele>
        <time>2019-04-27T13:36:35.000Z</time>
      </trkpt>
      <trkpt lat="39.94139780290424823760986328125" lon="-7.5036994926631450653076171875">
        <ele>368.600006103515625</ele>
        <time>2019-04-27T13:36:56.000Z</time>
      </trkpt>
      <trkpt lat="39.9414062686264514923095703125" lon="-7.50370896421372890472412109375">
        <ele>368.600006103515625</ele>
        <time>2019-04-27T13:37:12.000Z</time>
      </trkpt>
      <trkpt lat="39.94162126444280147552490234375" lon="-7.5040129758417606353759765625">
        <ele>366.79998779296875</ele>
        <time>2019-04-27T13:37:23.000Z</time>
      </trkpt>
      <trkpt lat="39.9415946938097476959228515625" lon="-7.504021190106868743896484375">
        <ele>366.79998779296875</ele>
        <time>2019-04-27T13:37:26.000Z</time>
      </trkpt>
      <trkpt lat="39.94158119894564151763916015625" lon="-7.50401825644075870513916015625">
        <ele>366.79998779296875</ele>
        <time>2019-04-27T13:37:28.000Z</time>
      </trkpt>
      <trkpt lat="39.94155471213161945343017578125" lon="-7.50401088036596775054931640625">
        <ele>367</ele>
        <time>2019-04-27T13:37:43.000Z</time>
      </trkpt>
      <trkpt lat="39.94162746705114841461181640625" lon="-7.50397332943975925445556640625">
        <ele>367</ele>
        <time>2019-04-27T13:37:48.000Z</time>
      </trkpt>
      <trkpt lat="39.94201353751122951507568359375" lon="-7.504012472927570343017578125">
        <ele>365.399993896484375</ele>
        <time>2019-04-27T13:37:58.000Z</time>
      </trkpt>
      <trkpt lat="39.9422323890030384063720703125" lon="-7.50400987453758716583251953125">
        <ele>364.79998779296875</ele>
        <time>2019-04-27T13:38:03.000Z</time>
      </trkpt>
      <trkpt lat="39.942280836403369903564453125" lon="-7.50402546487748622894287109375">
        <ele>364.600006103515625</ele>
        <time>2019-04-27T13:38:04.000Z</time>
      </trkpt>
      <trkpt lat="39.94241737760603427886962890625" lon="-7.504099644720554351806640625">
        <ele>364.399993896484375</ele>
        <time>2019-04-27T13:38:07.000Z</time>
      </trkpt>
      <trkpt lat="39.94293521158397197723388671875" lon="-7.50433777458965778350830078125">
        <ele>362.600006103515625</ele>
        <time>2019-04-27T13:38:17.000Z</time>
      </trkpt>
      <trkpt lat="39.94351490400731563568115234375" lon="-7.50457162968814373016357421875">
        <ele>360</ele>
        <time>2019-04-27T13:38:26.000Z</time>
      </trkpt>
      <trkpt lat="39.94393567554652690887451171875" lon="-7.50460012815892696380615234375">
        <ele>359.399993896484375</ele>
        <time>2019-04-27T13:38:32.000Z</time>
      </trkpt>
      <trkpt lat="39.9445022083818912506103515625" lon="-7.50443701632320880889892578125">
        <ele>359.79998779296875</ele>
        <time>2019-04-27T13:38:42.000Z</time>
      </trkpt>
      <trkpt lat="39.9450202099978923797607421875" lon="-7.50419980846345424652099609375">
        <ele>360.399993896484375</ele>
        <time>2019-04-27T13:38:58.000Z</time>
      </trkpt>
      <trkpt lat="39.94555413722991943359375" lon="-7.50403434969484806060791015625">
        <ele>360.79998779296875</ele>
        <time>2019-04-27T13:39:15.000Z</time>
      </trkpt>
      <trkpt lat="39.946104995906352996826171875" lon="-7.5038969703018665313720703125">
        <ele>363.399993896484375</ele>
        <time>2019-04-27T13:39:29.000Z</time>
      </trkpt>
      <trkpt lat="39.94665761478245258331298828125" lon="-7.50369639135897159576416015625">
        <ele>364.399993896484375</ele>
        <time>2019-04-27T13:39:46.000Z</time>
      </trkpt>
      <trkpt lat="39.94720361195504665374755859375" lon="-7.50361852347850799560546875">
        <ele>363.600006103515625</ele>
        <time>2019-04-27T13:39:57.000Z</time>
      </trkpt>
      <trkpt lat="39.9477495253086090087890625" lon="-7.50364274717867374420166015625">
        <ele>361.399993896484375</ele>
        <time>2019-04-27T13:40:07.000Z</time>
      </trkpt>
      <trkpt lat="39.94780777953565120697021484375" lon="-7.50366336666047573089599609375">
        <ele>361.20001220703125</ele>
        <time>2019-04-27T13:40:08.000Z</time>
      </trkpt>
      <trkpt lat="39.948142133653163909912109375" lon="-7.50356085598468780517578125">
        <ele>360.399993896484375</ele>
        <time>2019-04-27T13:40:14.000Z</time>
      </trkpt>
      <trkpt lat="39.94866575114428997039794921875" lon="-7.503367401659488677978515625">
        <ele>359.20001220703125</ele>
        <time>2019-04-27T13:40:24.000Z</time>
      </trkpt>
      <trkpt lat="39.9487162940204143524169921875" lon="-7.5033511407673358917236328125">
        <ele>359</ele>
        <time>2019-04-27T13:40:25.000Z</time>
      </trkpt>
      <trkpt lat="39.9489493109285831451416015625" lon="-7.50326036475598812103271484375">
        <ele>358.20001220703125</ele>
        <time>2019-04-27T13:40:29.000Z</time>
      </trkpt>
      <trkpt lat="39.949176795780658721923828125" lon="-7.503124661743640899658203125">
        <ele>357.399993896484375</ele>
        <time>2019-04-27T13:40:33.000Z</time>
      </trkpt>
      <trkpt lat="39.9497425742447376251220703125" lon="-7.5029752962291240692138671875">
        <ele>355.399993896484375</ele>
        <time>2019-04-27T13:40:43.000Z</time>
      </trkpt>
      <trkpt lat="39.9503071792423725128173828125" lon="-7.5028019584715366363525390625">
        <ele>354</ele>
        <time>2019-04-27T13:40:55.000Z</time>
      </trkpt>
      <trkpt lat="39.950826354324817657470703125" lon="-7.503042183816432952880859375">
        <ele>351.600006103515625</ele>
        <time>2019-04-27T13:41:07.000Z</time>
      </trkpt>
      <trkpt lat="39.951067082583904266357421875" lon="-7.503181993961334228515625">
        <ele>350.79998779296875</ele>
        <time>2019-04-27T13:41:12.000Z</time>
      </trkpt>
      <trkpt lat="39.95125726796686649322509765625" lon="-7.5032495521008968353271484375">
        <ele>350.399993896484375</ele>
        <time>2019-04-27T13:41:16.000Z</time>
      </trkpt>
      <trkpt lat="39.95178231038153171539306640625" lon="-7.5034319423139095306396484375">
        <ele>350.20001220703125</ele>
        <time>2019-04-27T13:41:27.000Z</time>
      </trkpt>
      <trkpt lat="39.95233316905796527862548828125" lon="-7.50361290760338306427001953125">
        <ele>350.399993896484375</ele>
        <time>2019-04-27T13:41:38.000Z</time>
      </trkpt>
      <trkpt lat="39.952550344169139862060546875" lon="-7.50370435416698455810546875">
        <ele>350.20001220703125</ele>
        <time>2019-04-27T13:41:42.000Z</time>
      </trkpt>
      <trkpt lat="39.9528365023434162139892578125" lon="-7.5039838068187236785888671875">
        <ele>349.600006103515625</ele>
        <time>2019-04-27T13:41:49.000Z</time>
      </trkpt>
      <trkpt lat="39.95340018533170223236083984375" lon="-7.50409302301704883575439453125">
        <ele>350.79998779296875</ele>
        <time>2019-04-27T13:42:04.000Z</time>
      </trkpt>
      <trkpt lat="39.95395892299711704254150390625" lon="-7.50409989617764949798583984375">
        <ele>353.399993896484375</ele>
        <time>2019-04-27T13:42:23.000Z</time>
      </trkpt>
      <trkpt lat="39.9545140564441680908203125" lon="-7.50405379571020603179931640625">
        <ele>356.20001220703125</ele>
        <time>2019-04-27T13:42:46.000Z</time>
      </trkpt>
      <trkpt lat="39.95504848659038543701171875" lon="-7.50398891977965831756591796875">
        <ele>361.399993896484375</ele>
        <time>2019-04-27T13:43:13.000Z</time>
      </trkpt>
      <trkpt lat="39.95557151734828948974609375" lon="-7.50380032695829868316650390625">
        <ele>366.79998779296875</ele>
        <time>2019-04-27T13:43:44.000Z</time>
      </trkpt>
      <trkpt lat="39.95563882403075695037841796875" lon="-7.503785826265811920166015625">
        <ele>367.399993896484375</ele>
        <time>2019-04-27T13:43:48.000Z</time>
      </trkpt>
      <trkpt lat="39.9559168517589569091796875" lon="-7.50382714904844760894775390625">
        <ele>369.600006103515625</ele>
        <time>2019-04-27T13:44:02.000Z</time>
      </trkpt>
      <trkpt lat="39.9562009982764720916748046875" lon="-7.50409788452088832855224609375">
        <ele>371.79998779296875</ele>
        <time>2019-04-27T13:44:14.000Z</time>
      </trkpt>
      <trkpt lat="39.95668790303170680999755859375" lon="-7.50447414815425872802734375">
        <ele>368.399993896484375</ele>
        <time>2019-04-27T13:44:29.000Z</time>
      </trkpt>
      <trkpt lat="39.956731237471103668212890625" lon="-7.50449560582637786865234375">
        <ele>368</ele>
        <time>2019-04-27T13:44:30.000Z</time>
      </trkpt>
      <trkpt lat="39.95698747225105762481689453125" lon="-7.50452536158263683319091796875">
        <ele>368</ele>
        <time>2019-04-27T13:44:35.000Z</time>
      </trkpt>
      <trkpt lat="39.95714119635522365570068359375" lon="-7.50449359416961669921875">
        <ele>368</ele>
        <time>2019-04-27T13:44:38.000Z</time>
      </trkpt>
      <trkpt lat="39.95740950107574462890625" lon="-7.50434808433055877685546875">
        <ele>367.600006103515625</ele>
        <time>2019-04-27T13:44:44.000Z</time>
      </trkpt>
      <trkpt lat="39.9579967372119426727294921875" lon="-7.504261918365955352783203125">
        <ele>366.399993896484375</ele>
        <time>2019-04-27T13:44:56.000Z</time>
      </trkpt>
      <trkpt lat="39.9585472606122493743896484375" lon="-7.50423115678131580352783203125">
        <ele>364.399993896484375</ele>
        <time>2019-04-27T13:45:06.000Z</time>
      </trkpt>
      <trkpt lat="39.9588342569768428802490234375" lon="-7.50424708239734172821044921875">
        <ele>363.600006103515625</ele>
        <time>2019-04-27T13:45:11.000Z</time>
      </trkpt>
      <trkpt lat="39.959410093724727630615234375" lon="-7.5042040832340717315673828125">
        <ele>364.600006103515625</ele>
        <time>2019-04-27T13:45:19.000Z</time>
      </trkpt>
      <trkpt lat="39.9599564261734485626220703125" lon="-7.50416837632656097412109375">
        <ele>365</ele>
        <time>2019-04-27T13:45:28.000Z</time>
      </trkpt>
      <trkpt lat="39.9604771099984645843505859375" lon="-7.5039885006844997406005859375">
        <ele>365.600006103515625</ele>
        <time>2019-04-27T13:45:39.000Z</time>
      </trkpt>
      <trkpt lat="39.9609733186662197113037109375" lon="-7.50363386236131191253662109375">
        <ele>364.20001220703125</ele>
        <time>2019-04-27T13:45:48.000Z</time>
      </trkpt>
      <trkpt lat="39.9610283039510250091552734375" lon="-7.50359572470188140869140625">
        <ele>364</ele>
        <time>2019-04-27T13:45:49.000Z</time>
      </trkpt>
      <trkpt lat="39.96132929809391498565673828125" lon="-7.5032837502658367156982421875">
        <ele>363.79998779296875</ele>
        <time>2019-04-27T13:45:55.000Z</time>
      </trkpt>
      <trkpt lat="39.96180086396634578704833984375" lon="-7.50297806225717067718505859375">
        <ele>362.600006103515625</ele>
        <time>2019-04-27T13:46:07.000Z</time>
      </trkpt>
      <trkpt lat="39.96214267797768115997314453125" lon="-7.5028606317937374114990234375">
        <ele>360.79998779296875</ele>
        <time>2019-04-27T13:46:16.000Z</time>
      </trkpt>
      <trkpt lat="39.96226069517433643341064453125" lon="-7.5026946701109409332275390625">
        <ele>361</ele>
        <time>2019-04-27T13:46:20.000Z</time>
      </trkpt>
      <trkpt lat="39.9624478630721569061279296875" lon="-7.5026152096688747406005859375">
        <ele>360</ele>
        <time>2019-04-27T13:46:24.000Z</time>
      </trkpt>
      <trkpt lat="39.96301825158298015594482421875" lon="-7.50256969593465328216552734375">
        <ele>357.399993896484375</ele>
        <time>2019-04-27T13:46:40.000Z</time>
      </trkpt>
      <trkpt lat="39.96354966424405574798583984375" lon="-7.50264354050159454345703125">
        <ele>360.399993896484375</ele>
        <time>2019-04-27T13:46:58.000Z</time>
      </trkpt>
      <trkpt lat="39.96384437195956707000732421875" lon="-7.50264982692897319793701171875">
        <ele>361.79998779296875</ele>
        <time>2019-04-27T13:47:05.000Z</time>
      </trkpt>
      <trkpt lat="39.9642352201044559478759765625" lon="-7.50277899205684661865234375">
        <ele>362.79998779296875</ele>
        <time>2019-04-27T13:47:13.000Z</time>
      </trkpt>
      <trkpt lat="39.96432281099259853363037109375" lon="-7.50298359431326389312744140625">
        <ele>361.79998779296875</ele>
        <time>2019-04-27T13:47:17.000Z</time>
      </trkpt>
      <trkpt lat="39.9643579311668872833251953125" lon="-7.50307403504848480224609375">
        <ele>361.20001220703125</ele>
        <time>2019-04-27T13:47:19.000Z</time>
      </trkpt>
      <trkpt lat="39.96466378681361675262451171875" lon="-7.5029776431620121002197265625">
        <ele>362.20001220703125</ele>
        <time>2019-04-27T13:47:27.000Z</time>
      </trkpt>
      <trkpt lat="39.9651785194873809814453125" lon="-7.5027399323880672454833984375">
        <ele>363.600006103515625</ele>
        <time>2019-04-27T13:47:39.000Z</time>
      </trkpt>
      <trkpt lat="39.96569610200822353363037109375" lon="-7.50251454301178455352783203125">
        <ele>363.600006103515625</ele>
        <time>2019-04-27T13:47:50.000Z</time>
      </trkpt>
      <trkpt lat="39.96609575115144252777099609375" lon="-7.50233106315135955810546875">
        <ele>362.600006103515625</ele>
        <time>2019-04-27T13:47:58.000Z</time>
      </trkpt>
      <trkpt lat="39.96664912439882755279541015625" lon="-7.50208287499845027923583984375">
        <ele>362</ele>
        <time>2019-04-27T13:48:10.000Z</time>
      </trkpt>
      <trkpt lat="39.96684174053370952606201171875" lon="-7.50199050642549991607666015625">
        <ele>362.20001220703125</ele>
        <time>2019-04-27T13:48:14.000Z</time>
      </trkpt>
      <trkpt lat="39.9673207662999629974365234375" lon="-7.50207751058042049407958984375">
        <ele>362.20001220703125</ele>
        <time>2019-04-27T13:48:29.000Z</time>
      </trkpt>
      <trkpt lat="39.96770842932164669036865234375" lon="-7.502625100314617156982421875">
        <ele>362</ele>
        <time>2019-04-27T13:48:45.000Z</time>
      </trkpt>
      <trkpt lat="39.9681348167359828948974609375" lon="-7.50314888544380664825439453125">
        <ele>364</ele>
        <time>2019-04-27T13:48:57.000Z</time>
      </trkpt>
      <trkpt lat="39.9683446995913982391357421875" lon="-7.50336128287017345428466796875">
        <ele>364.399993896484375</ele>
        <time>2019-04-27T13:49:02.000Z</time>
      </trkpt>
      <trkpt lat="39.96837127022445201873779296875" lon="-7.50365749932825565338134765625">
        <ele>363.399993896484375</ele>
        <time>2019-04-27T13:49:08.000Z</time>
      </trkpt>
      <trkpt lat="39.9683235771954059600830078125" lon="-7.5040367804467678070068359375">
        <ele>363</ele>
        <time>2019-04-27T13:49:16.000Z</time>
      </trkpt>
      <trkpt lat="39.9684814922511577606201171875" lon="-7.50412219204008579254150390625">
        <ele>364.20001220703125</ele>
        <time>2019-04-27T13:49:21.000Z</time>
      </trkpt>
      <trkpt lat="39.96865541674196720123291015625" lon="-7.50428664498031139373779296875">
        <ele>365.20001220703125</ele>
        <time>2019-04-27T13:49:26.000Z</time>
      </trkpt>
      <trkpt lat="39.9689550697803497314453125" lon="-7.50446920283138751983642578125">
        <ele>364.399993896484375</ele>
        <time>2019-04-27T13:49:32.000Z</time>
      </trkpt>
      <trkpt lat="39.969481788575649261474609375" lon="-7.5048221647739410400390625">
        <ele>361.600006103515625</ele>
        <time>2019-04-27T13:49:40.000Z</time>
      </trkpt>
      <trkpt lat="39.969770126044750213623046875" lon="-7.5049846060574054718017578125">
        <ele>360.399993896484375</ele>
        <time>2019-04-27T13:49:45.000Z</time>
      </trkpt>
      <trkpt lat="39.96993751265108585357666015625" lon="-7.50502408482134342193603515625">
        <ele>360.399993896484375</ele>
        <time>2019-04-27T13:49:48.000Z</time>
      </trkpt>
      <trkpt lat="39.97011445462703704833984375" lon="-7.50526179559528827667236328125">
        <ele>361</ele>
        <time>2019-04-27T13:49:54.000Z</time>
      </trkpt>
      <trkpt lat="39.9702359922230243682861328125" lon="-7.5054781325161457061767578125">
        <ele>362.399993896484375</ele>
        <time>2019-04-27T13:49:58.000Z</time>
      </trkpt>
      <trkpt lat="39.97041293419897556304931640625" lon="-7.50561081804335117340087890625">
        <ele>364</ele>
        <time>2019-04-27T13:50:02.000Z</time>
      </trkpt>
      <trkpt lat="39.970908053219318389892578125" lon="-7.50593335367739200592041015625">
        <ele>366</ele>
        <time>2019-04-27T13:50:19.000Z</time>
      </trkpt>
      <trkpt lat="39.9713797867298126220703125" lon="-7.5063069351017475128173828125">
        <ele>367.600006103515625</ele>
        <time>2019-04-27T13:50:38.000Z</time>
      </trkpt>
      <trkpt lat="39.9717782624065876007080078125" lon="-7.5065979547798633575439453125">
        <ele>369.600006103515625</ele>
        <time>2019-04-27T13:50:59.000Z</time>
      </trkpt>
      <trkpt lat="39.9720424599945545196533203125" lon="-7.50669577158987522125244140625">
        <ele>370.79998779296875</ele>
        <time>2019-04-27T13:51:11.000Z</time>
      </trkpt>
      <trkpt lat="39.97258082963526248931884765625" lon="-7.50679534859955310821533203125">
        <ele>373</ele>
        <time>2019-04-27T13:51:33.000Z</time>
      </trkpt>
      <trkpt lat="39.9727941490709781646728515625" lon="-7.50678244046866893768310546875">
        <ele>374</ele>
        <time>2019-04-27T13:51:37.000Z</time>
      </trkpt>
      <trkpt lat="39.97334961779415607452392578125" lon="-7.50695343129336833953857421875">
        <ele>373.79998779296875</ele>
        <time>2019-04-27T13:51:49.000Z</time>
      </trkpt>
      <trkpt lat="39.97390030883252620697021484375" lon="-7.5071243382990360260009765625">
        <ele>373</ele>
        <time>2019-04-27T13:52:01.000Z</time>
      </trkpt>
      <trkpt lat="39.97400927357375621795654296875" lon="-7.5071489810943603515625">
        <ele>373.20001220703125</ele>
        <time>2019-04-27T13:52:03.000Z</time>
      </trkpt>
      <trkpt lat="39.9742014706134796142578125" lon="-7.50714353285729885101318359375">
        <ele>373.600006103515625</ele>
        <time>2019-04-27T13:52:07.000Z</time>
      </trkpt>
      <trkpt lat="39.97450816445052623748779296875" lon="-7.507060468196868896484375">
        <ele>374.399993896484375</ele>
        <time>2019-04-27T13:52:15.000Z</time>
      </trkpt>
      <trkpt lat="39.97505382634699344635009765625" lon="-7.5069483183324337005615234375">
        <ele>375.79998779296875</ele>
        <time>2019-04-27T13:52:30.000Z</time>
      </trkpt>
      <trkpt lat="39.97560082934796810150146484375" lon="-7.50695385038852691650390625">
        <ele>378.600006103515625</ele>
        <time>2019-04-27T13:52:46.000Z</time>
      </trkpt>
      <trkpt lat="39.9761435575783252716064453125" lon="-7.5069526769220829010009765625">
        <ele>381</ele>
        <time>2019-04-27T13:53:02.000Z</time>
      </trkpt>
      <trkpt lat="39.97670992277562618255615234375" lon="-7.5069033913314342498779296875">
        <ele>384</ele>
        <time>2019-04-27T13:53:18.000Z</time>
      </trkpt>
      <trkpt lat="39.9772777967154979705810546875" lon="-7.50677187927067279815673828125">
        <ele>386.79998779296875</ele>
        <time>2019-04-27T13:53:35.000Z</time>
      </trkpt>
      <trkpt lat="39.97782136313617229461669921875" lon="-7.50680255703628063201904296875">
        <ele>388.79998779296875</ele>
        <time>2019-04-27T13:53:47.000Z</time>
      </trkpt>
      <trkpt lat="39.97790685854852199554443359375" lon="-7.5067989528179168701171875">
        <ele>389.20001220703125</ele>
        <time>2019-04-27T13:53:49.000Z</time>
      </trkpt>
      <trkpt lat="39.97815127484500408172607421875" lon="-7.5070200674235820770263671875">
        <ele>388.79998779296875</ele>
        <time>2019-04-27T13:53:55.000Z</time>
      </trkpt>
      <trkpt lat="39.9782437272369861602783203125" lon="-7.50718879513442516326904296875">
        <ele>388.79998779296875</ele>
        <time>2019-04-27T13:53:58.000Z</time>
      </trkpt>
      <trkpt lat="39.978587217628955841064453125" lon="-7.50734335742890834808349609375">
        <ele>388.79998779296875</ele>
        <time>2019-04-27T13:54:06.000Z</time>
      </trkpt>
      <trkpt lat="39.9787858687341213226318359375" lon="-7.5073640607297420501708984375">
        <ele>388.600006103515625</ele>
        <time>2019-04-27T13:54:10.000Z</time>
      </trkpt>
      <trkpt lat="39.97930328361690044403076171875" lon="-7.50763689167797565460205078125">
        <ele>388.399993896484375</ele>
        <time>2019-04-27T13:54:28.000Z</time>
      </trkpt>
      <trkpt lat="39.97982346452772617340087890625" lon="-7.50788885168731212615966796875">
        <ele>394.20001220703125</ele>
        <time>2019-04-27T13:54:48.000Z</time>
      </trkpt>
      <trkpt lat="39.98020165599882602691650390625" lon="-7.5084030814468860626220703125">
        <ele>398.79998779296875</ele>
        <time>2019-04-27T13:55:05.000Z</time>
      </trkpt>
      <trkpt lat="39.98026116751134395599365234375" lon="-7.50848379917442798614501953125">
        <ele>399.399993896484375</ele>
        <time>2019-04-27T13:55:07.000Z</time>
      </trkpt>
      <trkpt lat="39.98074513860046863555908203125" lon="-7.5088052451610565185546875">
        <ele>401.20001220703125</ele>
        <time>2019-04-27T13:55:22.000Z</time>
      </trkpt>
      <trkpt lat="39.9812035448849201202392578125" lon="-7.5092161260545253753662109375">
        <ele>407.20001220703125</ele>
        <time>2019-04-27T13:55:37.000Z</time>
      </trkpt>
      <trkpt lat="39.9816231429576873779296875" lon="-7.5096555054187774658203125">
        <ele>407</ele>
        <time>2019-04-27T13:55:52.000Z</time>
      </trkpt>
      <trkpt lat="39.98186999000608921051025390625" lon="-7.510188929736614227294921875">
        <ele>403.600006103515625</ele>
        <time>2019-04-27T13:56:07.000Z</time>
      </trkpt>
      <trkpt lat="39.98237122781574726104736328125" lon="-7.51037794165313243865966796875">
        <ele>401.20001220703125</ele>
        <time>2019-04-27T13:56:26.000Z</time>
      </trkpt>
      <trkpt lat="39.98289694078266620635986328125" lon="-7.51059067435562610626220703125">
        <ele>401.600006103515625</ele>
        <time>2019-04-27T13:56:45.000Z</time>
      </trkpt>
      <trkpt lat="39.98343489132821559906005859375" lon="-7.51075713895261287689208984375">
        <ele>403.79998779296875</ele>
        <time>2019-04-27T13:57:07.000Z</time>
      </trkpt>
      <trkpt lat="39.98399245552718639373779296875" lon="-7.510709278285503387451171875">
        <ele>405.20001220703125</ele>
        <time>2019-04-27T13:57:25.000Z</time>
      </trkpt>
      <trkpt lat="39.98453426174819469451904296875" lon="-7.510856129229068756103515625">
        <ele>406.79998779296875</ele>
        <time>2019-04-27T13:57:42.000Z</time>
      </trkpt>
      <trkpt lat="39.98508964665234088897705078125" lon="-7.510857470333576202392578125">
        <ele>406.399993896484375</ele>
        <time>2019-04-27T13:57:57.000Z</time>
      </trkpt>
      <trkpt lat="39.98544805683195590972900390625" lon="-7.51086694188416004180908203125">
        <ele>406</ele>
        <time>2019-04-27T13:58:05.000Z</time>
      </trkpt>
      <trkpt lat="39.9856115877628326416015625" lon="-7.51089862547814846038818359375">
        <ele>405.79998779296875</ele>
        <time>2019-04-27T13:58:09.000Z</time>
      </trkpt>
      <trkpt lat="39.985871426761150360107421875" lon="-7.51096014864742755889892578125">
        <ele>405.600006103515625</ele>
        <time>2019-04-27T13:58:15.000Z</time>
      </trkpt>
      <trkpt lat="39.9864217825233936309814453125" lon="-7.51105955801904201507568359375">
        <ele>405.79998779296875</ele>
        <time>2019-04-27T13:58:27.000Z</time>
      </trkpt>
      <trkpt lat="39.98658464290201663970947265625" lon="-7.5110537745058536529541015625">
        <ele>406</ele>
        <time>2019-04-27T13:58:31.000Z</time>
      </trkpt>
      <trkpt lat="39.98710985295474529266357421875" lon="-7.5108985416591167449951171875">
        <ele>406.20001220703125</ele>
        <time>2019-04-27T13:58:44.000Z</time>
      </trkpt>
      <trkpt lat="39.98739232309162616729736328125" lon="-7.51081497408449649810791015625">
        <ele>407</ele>
        <time>2019-04-27T13:58:50.000Z</time>
      </trkpt>
      <trkpt lat="39.98752743937075138092041015625" lon="-7.51077960245311260223388671875">
        <ele>407.399993896484375</ele>
        <time>2019-04-27T13:58:53.000Z</time>
      </trkpt>
      <trkpt lat="39.9880706705152988433837890625" lon="-7.510756216943264007568359375">
        <ele>409.399993896484375</ele>
        <time>2019-04-27T13:59:09.000Z</time>
      </trkpt>
      <trkpt lat="39.9886111356317996978759765625" lon="-7.5108640082180500030517578125">
        <ele>411.600006103515625</ele>
        <time>2019-04-27T13:59:25.000Z</time>
      </trkpt>
      <trkpt lat="39.98915755189955234527587890625" lon="-7.51071824692189693450927734375">
        <ele>411.399993896484375</ele>
        <time>2019-04-27T13:59:40.000Z</time>
      </trkpt>
      <trkpt lat="39.989292919635772705078125" lon="-7.5106826238334178924560546875">
        <ele>411.20001220703125</ele>
        <time>2019-04-27T13:59:43.000Z</time>
      </trkpt>
      <trkpt lat="39.98943306505680084228515625" lon="-7.51062336377799510955810546875">
        <ele>411</ele>
        <time>2019-04-27T13:59:46.000Z</time>
      </trkpt>
      <trkpt lat="39.98957228846848011016845703125" lon="-7.510559745132923126220703125">
        <ele>410.600006103515625</ele>
        <time>2019-04-27T13:59:49.000Z</time>
      </trkpt>
      <trkpt lat="39.98983405530452728271484375" lon="-7.51048187725245952606201171875">
        <ele>411.20001220703125</ele>
        <time>2019-04-27T13:59:55.000Z</time>
      </trkpt>
      <trkpt lat="39.990380890667438507080078125" lon="-7.51050098799169063568115234375">
        <ele>412.20001220703125</ele>
        <time>2019-04-27T14:00:10.000Z</time>
      </trkpt>
      <trkpt lat="39.9909196794033050537109375" lon="-7.51056368462741374969482421875">
        <ele>412.600006103515625</ele>
        <time>2019-04-27T14:00:26.000Z</time>
      </trkpt>
      <trkpt lat="39.99143810011446475982666015625" lon="-7.51081581227481365203857421875">
        <ele>413.20001220703125</ele>
        <time>2019-04-27T14:00:41.000Z</time>
      </trkpt>
      <trkpt lat="39.9919390864670276641845703125" lon="-7.511096186935901641845703125">
        <ele>414</ele>
        <time>2019-04-27T14:00:56.000Z</time>
      </trkpt>
      <trkpt lat="39.99246270395815372467041015625" lon="-7.51136449165642261505126953125">
        <ele>416</ele>
        <time>2019-04-27T14:01:12.000Z</time>
      </trkpt>
      <trkpt lat="39.99297550879418849945068359375" lon="-7.51164595596492290496826171875">
        <ele>417</ele>
        <time>2019-04-27T14:01:32.000Z</time>
      </trkpt>
      <trkpt lat="39.9930064380168914794921875" lon="-7.5116643123328685760498046875">
        <ele>417.20001220703125</ele>
        <time>2019-04-27T14:01:37.000Z</time>
      </trkpt>
      <trkpt lat="39.99301373027265071868896484375" lon="-7.5116733647882938385009765625">
        <ele>417.20001220703125</ele>
        <time>2019-04-27T14:01:47.000Z</time>
      </trkpt>
      <trkpt lat="39.99333224259316921234130859375" lon="-7.51192909665405750274658203125">
        <ele>416.79998779296875</ele>
        <time>2019-04-27T14:01:55.000Z</time>
      </trkpt>
      <trkpt lat="39.99361454509198665618896484375" lon="-7.5121206231415271759033203125">
        <ele>416.79998779296875</ele>
        <time>2019-04-27T14:02:00.000Z</time>
      </trkpt>
      <trkpt lat="39.99413489364087581634521484375" lon="-7.5124870799481868743896484375">
        <ele>416.399993896484375</ele>
        <time>2019-04-27T14:02:09.000Z</time>
      </trkpt>
      <trkpt lat="39.99423363246023654937744140625" lon="-7.5125764310359954833984375">
        <ele>416.399993896484375</ele>
        <time>2019-04-27T14:02:11.000Z</time>
      </trkpt>
      <trkpt lat="39.9944065511226654052734375" lon="-7.512643150985240936279296875">
        <ele>416.399993896484375</ele>
        <time>2019-04-27T14:02:22.000Z</time>
      </trkpt>
      <trkpt lat="39.99441526830196380615234375" lon="-7.51261473633348941802978515625">
        <ele>416.600006103515625</ele>
        <time>2019-04-27T14:02:25.000Z</time>
      </trkpt>
      <trkpt lat="39.9944104067981243133544921875" lon="-7.5125712342560291290283203125">
        <ele>416.600006103515625</ele>
        <time>2019-04-27T14:03:02.000Z</time>
      </trkpt>
      <trkpt lat="39.994394481182098388671875" lon="-7.5125227868556976318359375">
        <ele>416.79998779296875</ele>
        <time>2019-04-27T14:03:06.000Z</time>
      </trkpt>
      <trkpt lat="39.99438417144119739532470703125" lon="-7.5124786980450153350830078125">
        <ele>416.79998779296875</ele>
        <time>2019-04-27T14:03:34.000Z</time>
      </trkpt>
      <trkpt lat="39.99432415701448917388916015625" lon="-7.51206471584737300872802734375">
        <ele>417.79998779296875</ele>
        <time>2019-04-27T14:03:43.000Z</time>
      </trkpt>
      <trkpt lat="39.99441484920680522918701171875" lon="-7.51194016076624393463134765625">
        <ele>418.20001220703125</ele>
        <time>2019-04-27T14:03:47.000Z</time>
      </trkpt>
      <trkpt lat="39.99457083642482757568359375" lon="-7.5118108280003070831298828125">
        <ele>418.600006103515625</ele>
        <time>2019-04-27T14:03:55.000Z</time>
      </trkpt>
      <trkpt lat="39.99456421472132205963134765625" lon="-7.5118111632764339447021484375">
        <ele>418.600006103515625</ele>
        <time>2019-04-27T14:03:56.000Z</time>
      </trkpt>
      <trkpt lat="39.9946145899593830108642578125" lon="-7.51176062040030956268310546875">
        <ele>418.600006103515625</ele>
        <time>2019-04-27T14:06:54.000Z</time>
      </trkpt>
      <trkpt lat="39.99467284418642520904541015625" lon="-7.51167210750281810760498046875">
        <ele>418.600006103515625</ele>
        <time>2019-04-27T14:06:58.000Z</time>
      </trkpt>
      <trkpt lat="39.99500292353332042694091796875" lon="-7.51106173731386661529541015625">
        <ele>419.79998779296875</ele>
        <time>2019-04-27T14:07:12.000Z</time>
      </trkpt>
      <trkpt lat="39.99502153135836124420166015625" lon="-7.5110018067061901092529296875">
        <ele>419.79998779296875</ele>
        <time>2019-04-27T14:07:13.000Z</time>
      </trkpt>
      <trkpt lat="39.9951403029263019561767578125" lon="-7.510807849466800689697265625">
        <ele>420</ele>
        <time>2019-04-27T14:07:17.000Z</time>
      </trkpt>
      <trkpt lat="39.99528103508055210113525390625" lon="-7.5106531195342540740966796875">
        <ele>419.79998779296875</ele>
        <time>2019-04-27T14:07:21.000Z</time>
      </trkpt>
      <trkpt lat="39.995410703122615814208984375" lon="-7.51053099520504474639892578125">
        <ele>419.600006103515625</ele>
        <time>2019-04-27T14:07:25.000Z</time>
      </trkpt>
      <trkpt lat="39.9956606514751911163330078125" lon="-7.510257996618747711181640625">
        <ele>418.79998779296875</ele>
        <time>2019-04-27T14:07:34.000Z</time>
      </trkpt>
      <trkpt lat="39.99572678469121456146240234375" lon="-7.51002967357635498046875">
        <ele>418.20001220703125</ele>
        <time>2019-04-27T14:07:38.000Z</time>
      </trkpt>
      <trkpt lat="39.9957940913736820220947265625" lon="-7.509902603924274444580078125">
        <ele>417.600006103515625</ele>
        <time>2019-04-27T14:07:40.000Z</time>
      </trkpt>
      <trkpt lat="39.996203966438770294189453125" lon="-7.50938921235501766204833984375">
        <ele>413.399993896484375</ele>
        <time>2019-04-27T14:07:48.000Z</time>
      </trkpt>
      <trkpt lat="39.99661694280803203582763671875" lon="-7.50890071503818035125732421875">
        <ele>409.79998779296875</ele>
        <time>2019-04-27T14:07:55.000Z</time>
      </trkpt>
      <trkpt lat="39.9970704875886440277099609375" lon="-7.5083739124238491058349609375">
        <ele>406.20001220703125</ele>
        <time>2019-04-27T14:08:02.000Z</time>
      </trkpt>
      <trkpt lat="39.99749670736491680145263671875" lon="-7.5078699924051761627197265625">
        <ele>403.79998779296875</ele>
        <time>2019-04-27T14:08:09.000Z</time>
      </trkpt>
      <trkpt lat="39.997913874685764312744140625" lon="-7.5073868595063686370849609375">
        <ele>401.399993896484375</ele>
        <time>2019-04-27T14:08:17.000Z</time>
      </trkpt>
      <trkpt lat="39.99796391464769840240478515625" lon="-7.5073198042809963226318359375">
        <ele>401</ele>
        <time>2019-04-27T14:08:18.000Z</time>
      </trkpt>
      <trkpt lat="39.9982513301074504852294921875" lon="-7.50669208355247974395751953125">
        <ele>398</ele>
        <time>2019-04-27T14:08:26.000Z</time>
      </trkpt>
      <trkpt lat="39.9985225684940814971923828125" lon="-7.50601968728005886077880859375">
        <ele>395.399993896484375</ele>
        <time>2019-04-27T14:08:34.000Z</time>
      </trkpt>
      <trkpt lat="39.99859272502362728118896484375" lon="-7.50583159737288951873779296875">
        <ele>394.600006103515625</ele>
        <time>2019-04-27T14:08:36.000Z</time>
      </trkpt>
      <trkpt lat="39.9986405856907367706298828125" lon="-7.50509231351315975189208984375">
        <ele>391.20001220703125</ele>
        <time>2019-04-27T14:08:43.000Z</time>
      </trkpt>
      <trkpt lat="39.99865223653614521026611328125" lon="-7.50477815978229045867919921875">
        <ele>391</ele>
        <time>2019-04-27T14:08:46.000Z</time>
      </trkpt>
      <trkpt lat="39.9990784563124179840087890625" lon="-7.50437834300100803375244140625">
        <ele>389.399993896484375</ele>
        <time>2019-04-27T14:08:54.000Z</time>
      </trkpt>
      <trkpt lat="39.9992631934583187103271484375" lon="-7.5041936896741390228271484375">
        <ele>388.600006103515625</ele>
        <time>2019-04-27T14:08:58.000Z</time>
      </trkpt>
      <trkpt lat="39.9995081126689910888671875" lon="-7.503886409103870391845703125">
        <ele>387.399993896484375</ele>
        <time>2019-04-27T14:09:08.000Z</time>
      </trkpt>
      <trkpt lat="39.9995371140539646148681640625" lon="-7.50384542159736156463623046875">
        <ele>387.20001220703125</ele>
        <time>2019-04-27T14:10:00.000Z</time>
      </trkpt>
      <trkpt lat="39.99987012706696987152099609375" lon="-7.5033407472074031829833984375">
        <ele>388.600006103515625</ele>
        <time>2019-04-27T14:10:19.000Z</time>
      </trkpt>
      <trkpt lat="39.99986895360052585601806640625" lon="-7.50329690985381603240966796875">
        <ele>391.399993896484375</ele>
        <time>2019-04-27T14:10:28.000Z</time>
      </trkpt>
      <trkpt lat="40.0001446343958377838134765625" lon="-7.50267027877271175384521484375">
        <ele>393.399993896484375</ele>
        <time>2019-04-27T14:10:48.000Z</time>
      </trkpt>
      <trkpt lat="40.00042618252336978912353515625" lon="-7.5020273029804229736328125">
        <ele>394.600006103515625</ele>
        <time>2019-04-27T14:11:06.000Z</time>
      </trkpt>
      <trkpt lat="40.00066347420215606689453125" lon="-7.50136689282953739166259765625">
        <ele>396.79998779296875</ele>
        <time>2019-04-27T14:11:24.000Z</time>
      </trkpt>
      <trkpt lat="40.0009348802268505096435546875" lon="-7.50075048767030239105224609375">
        <ele>399.79998779296875</ele>
        <time>2019-04-27T14:11:48.000Z</time>
      </trkpt>
      <trkpt lat="40.00144391320645809173583984375" lon="-7.50044890679419040679931640625">
        <ele>401.399993896484375</ele>
        <time>2019-04-27T14:12:10.000Z</time>
      </trkpt>
      <trkpt lat="40.00198177993297576904296875" lon="-7.5003514252603054046630859375">
        <ele>402.600006103515625</ele>
        <time>2019-04-27T14:12:31.000Z</time>
      </trkpt>
      <trkpt lat="40.0025445409119129180908203125" lon="-7.50033088959753513336181640625">
        <ele>402.20001220703125</ele>
        <time>2019-04-27T14:12:49.000Z</time>
      </trkpt>
      <trkpt lat="40.00311794690787792205810546875" lon="-7.50042258761823177337646484375">
        <ele>402.20001220703125</ele>
        <time>2019-04-27T14:13:04.000Z</time>
      </trkpt>
      <trkpt lat="40.003655143082141876220703125" lon="-7.500559128820896148681640625">
        <ele>402</ele>
        <time>2019-04-27T14:13:17.000Z</time>
      </trkpt>
      <trkpt lat="40.00406912527978420257568359375" lon="-7.50063858926296234130859375">
        <ele>402.600006103515625</ele>
        <time>2019-04-27T14:13:28.000Z</time>
      </trkpt>
      <trkpt lat="40.0046483986079692840576171875" lon="-7.50062777660787105560302734375">
        <ele>403.399993896484375</ele>
        <time>2019-04-27T14:13:40.000Z</time>
      </trkpt>
      <trkpt lat="40.00503539107739925384521484375" lon="-7.50053859315812587738037109375">
        <ele>404.600006103515625</ele>
        <time>2019-04-27T14:13:47.000Z</time>
      </trkpt>
      <trkpt lat="40.00556093640625476837158203125" lon="-7.50033005140721797943115234375">
        <ele>405.399993896484375</ele>
        <time>2019-04-27T14:13:59.000Z</time>
      </trkpt>
      <trkpt lat="40.0060867331922054290771484375" lon="-7.50010273419320583343505859375">
        <ele>405.20001220703125</ele>
        <time>2019-04-27T14:14:20.000Z</time>
      </trkpt>
      <trkpt lat="40.00629669986665248870849609375" lon="-7.50007842667400836944580078125">
        <ele>404.79998779296875</ele>
        <time>2019-04-27T14:14:26.000Z</time>
      </trkpt>
      <trkpt lat="40.0068665854632854461669921875" lon="-7.4999816156923770904541015625">
        <ele>403.399993896484375</ele>
        <time>2019-04-27T14:14:37.000Z</time>
      </trkpt>
      <trkpt lat="40.00740529038012027740478515625" lon="-7.4998448230326175689697265625">
        <ele>402.20001220703125</ele>
        <time>2019-04-27T14:14:47.000Z</time>
      </trkpt>
      <trkpt lat="40.00744652934372425079345703125" lon="-7.499832250177860260009765625">
        <ele>402.20001220703125</ele>
        <time>2019-04-27T14:14:48.000Z</time>
      </trkpt>
      <trkpt lat="40.00765725038945674896240234375" lon="-7.4997871555387973785400390625">
        <ele>401.79998779296875</ele>
        <time>2019-04-27T14:14:53.000Z</time>
      </trkpt>
      <trkpt lat="40.00775330699980258941650390625" lon="-7.49976511113345623016357421875">
        <ele>401.600006103515625</ele>
        <time>2019-04-27T14:14:55.000Z</time>
      </trkpt>
      <trkpt lat="40.0083297304809093475341796875" lon="-7.49967911280691623687744140625">
        <ele>402</ele>
        <time>2019-04-27T14:15:05.000Z</time>
      </trkpt>
      <trkpt lat="40.00880892388522624969482421875" lon="-7.499647177755832672119140625">
        <ele>402</ele>
        <time>2019-04-27T14:15:14.000Z</time>
      </trkpt>
      <trkpt lat="40.00925634987652301788330078125" lon="-7.4996637739241123199462890625">
        <ele>402</ele>
        <time>2019-04-27T14:15:23.000Z</time>
      </trkpt>
      <trkpt lat="40.00952524133026599884033203125" lon="-7.49948129989206790924072265625">
        <ele>402</ele>
        <time>2019-04-27T14:15:29.000Z</time>
      </trkpt>
      <trkpt lat="40.00995238311588764190673828125" lon="-7.49901157803833484649658203125">
        <ele>402.600006103515625</ele>
        <time>2019-04-27T14:15:40.000Z</time>
      </trkpt>
      <trkpt lat="40.0103397108614444732666015625" lon="-7.49844814650714397430419921875">
        <ele>403.79998779296875</ele>
        <time>2019-04-27T14:15:52.000Z</time>
      </trkpt>
      <trkpt lat="40.01059108413755893707275390625" lon="-7.49817405827343463897705078125">
        <ele>404.20001220703125</ele>
        <time>2019-04-27T14:15:58.000Z</time>
      </trkpt>
      <trkpt lat="40.01113356091082096099853515625" lon="-7.49787683598697185516357421875">
        <ele>404</ele>
        <time>2019-04-27T14:16:08.000Z</time>
      </trkpt>
      <trkpt lat="40.0116543285548686981201171875" lon="-7.49763811938464641571044921875">
        <ele>405</ele>
        <time>2019-04-27T14:16:17.000Z</time>
      </trkpt>
      <trkpt lat="40.01221264712512493133544921875" lon="-7.49739571474492549896240234375">
        <ele>405.79998779296875</ele>
        <time>2019-04-27T14:16:26.000Z</time>
      </trkpt>
      <trkpt lat="40.012754537165164947509765625" lon="-7.49718884937465190887451171875">
        <ele>405.20001220703125</ele>
        <time>2019-04-27T14:16:36.000Z</time>
      </trkpt>
      <trkpt lat="40.01317924819886684417724609375" lon="-7.49700277112424373626708984375">
        <ele>405.20001220703125</ele>
        <time>2019-04-27T14:16:45.000Z</time>
      </trkpt>
      <trkpt lat="40.01325619406998157501220703125" lon="-7.49696790240705013275146484375">
        <ele>405.20001220703125</ele>
        <time>2019-04-27T14:16:47.000Z</time>
      </trkpt>
      <trkpt lat="40.0137813203036785125732421875" lon="-7.49672734178602695465087890625">
        <ele>405</ele>
        <time>2019-04-27T14:17:01.000Z</time>
      </trkpt>
      <trkpt lat="40.0141688995063304901123046875" lon="-7.49650103040039539337158203125">
        <ele>405.399993896484375</ele>
        <time>2019-04-27T14:17:11.000Z</time>
      </trkpt>
      <trkpt lat="40.01456745900213718414306640625" lon="-7.49628041870892047882080078125">
        <ele>406</ele>
        <time>2019-04-27T14:17:21.000Z</time>
      </trkpt>
      <trkpt lat="40.01501857303082942962646484375" lon="-7.496031224727630615234375">
        <ele>406</ele>
        <time>2019-04-27T14:17:32.000Z</time>
      </trkpt>
      <trkpt lat="40.0155408494174480438232421875" lon="-7.4957360140979290008544921875">
        <ele>406.20001220703125</ele>
        <time>2019-04-27T14:17:47.000Z</time>
      </trkpt>
      <trkpt lat="40.01574981026351451873779296875" lon="-7.49562017619609832763671875">
        <ele>406.600006103515625</ele>
        <time>2019-04-27T14:17:52.000Z</time>
      </trkpt>
      <trkpt lat="40.01621064729988574981689453125" lon="-7.4952399730682373046875">
        <ele>407.20001220703125</ele>
        <time>2019-04-27T14:18:13.000Z</time>
      </trkpt>
      <trkpt lat="40.016534440219402313232421875" lon="-7.494667656719684600830078125">
        <ele>406.20001220703125</ele>
        <time>2019-04-27T14:18:34.000Z</time>
      </trkpt>
      <trkpt lat="40.016702748835086822509765625" lon="-7.49418024905025959014892578125">
        <ele>405.399993896484375</ele>
        <time>2019-04-27T14:18:48.000Z</time>
      </trkpt>
      <trkpt lat="40.01684348098933696746826171875" lon="-7.49376333318650722503662109375">
        <ele>404.399993896484375</ele>
        <time>2019-04-27T14:18:57.000Z</time>
      </trkpt>
      <trkpt lat="40.01711924560368061065673828125" lon="-7.49313871376216411590576171875">
        <ele>402.399993896484375</ele>
        <time>2019-04-27T14:19:09.000Z</time>
      </trkpt>
      <trkpt lat="40.0172133743762969970703125" lon="-7.49291785061359405517578125">
        <ele>401.79998779296875</ele>
        <time>2019-04-27T14:19:13.000Z</time>
      </trkpt>
      <trkpt lat="40.0172792561352252960205078125" lon="-7.4928067065775394439697265625">
        <ele>401.600006103515625</ele>
        <time>2019-04-27T14:19:15.000Z</time>
      </trkpt>
      <trkpt lat="40.0177677534520626068115234375" lon="-7.4926209636032581329345703125">
        <ele>400.399993896484375</ele>
        <time>2019-04-27T14:19:23.000Z</time>
      </trkpt>
      <trkpt lat="40.01831375062465667724609375" lon="-7.49266161583364009857177734375">
        <ele>401.20001220703125</ele>
        <time>2019-04-27T14:19:31.000Z</time>
      </trkpt>
      <trkpt lat="40.0185844860970973968505859375" lon="-7.49268910847604274749755859375">
        <ele>401.79998779296875</ele>
        <time>2019-04-27T14:19:36.000Z</time>
      </trkpt>
      <trkpt lat="40.01876863650977611541748046875" lon="-7.49275155365467071533203125">
        <ele>402.600006103515625</ele>
        <time>2019-04-27T14:19:40.000Z</time>
      </trkpt>
      <trkpt lat="40.019283704459667205810546875" lon="-7.49288658611476421356201171875">
        <ele>404.79998779296875</ele>
        <time>2019-04-27T14:19:52.000Z</time>
      </trkpt>
      <trkpt lat="40.019409097731113433837890625" lon="-7.49266731552779674530029296875">
        <ele>404.79998779296875</ele>
        <time>2019-04-27T14:19:59.000Z</time>
      </trkpt>
      <trkpt lat="40.0195044837892055511474609375" lon="-7.49214193783700466156005859375">
        <ele>403</ele>
        <time>2019-04-27T14:20:07.000Z</time>
      </trkpt>
      <trkpt lat="40.0195614807307720184326171875" lon="-7.49174765311181545257568359375">
        <ele>401.399993896484375</ele>
        <time>2019-04-27T14:20:11.000Z</time>
      </trkpt>
      <trkpt lat="40.0195656716823577880859375" lon="-7.49165511690080165863037109375">
        <ele>401</ele>
        <time>2019-04-27T14:20:12.000Z</time>
      </trkpt>
      <trkpt lat="40.019795335829257965087890625" lon="-7.4913096986711025238037109375">
        <ele>401.20001220703125</ele>
        <time>2019-04-27T14:20:21.000Z</time>
      </trkpt>
      <trkpt lat="40.0202415883541107177734375" lon="-7.49087425880134105682373046875">
        <ele>401.79998779296875</ele>
        <time>2019-04-27T14:20:37.000Z</time>
      </trkpt>
      <trkpt lat="40.02060729078948497772216796875" lon="-7.49055339954793453216552734375">
        <ele>402.399993896484375</ele>
        <time>2019-04-27T14:20:50.000Z</time>
      </trkpt>
      <trkpt lat="40.02107801847159862518310546875" lon="-7.490207813680171966552734375">
        <ele>402.79998779296875</ele>
        <time>2019-04-27T14:21:05.000Z</time>
      </trkpt>
      <trkpt lat="40.02115555107593536376953125" lon="-7.4900899641215801239013671875">
        <ele>402.79998779296875</ele>
        <time>2019-04-27T14:21:08.000Z</time>
      </trkpt>
      <trkpt lat="40.0212742388248443603515625" lon="-7.489947974681854248046875">
        <ele>403</ele>
        <time>2019-04-27T14:21:12.000Z</time>
      </trkpt>
      <trkpt lat="40.02150348387658596038818359375" lon="-7.48981855809688568115234375">
        <ele>403.600006103515625</ele>
        <time>2019-04-27T14:21:18.000Z</time>
      </trkpt>
      <trkpt lat="40.02197630703449249267578125" lon="-7.48939552344381809234619140625">
        <ele>404.600006103515625</ele>
        <time>2019-04-27T14:21:35.000Z</time>
      </trkpt>
      <trkpt lat="40.0223912112414836883544921875" lon="-7.48888892121613025665283203125">
        <ele>405.399993896484375</ele>
        <time>2019-04-27T14:21:52.000Z</time>
      </trkpt>
      <trkpt lat="40.02276948653161525726318359375" lon="-7.4883636273443698883056640625">
        <ele>405.79998779296875</ele>
        <time>2019-04-27T14:22:10.000Z</time>
      </trkpt>
      <trkpt lat="40.023056566715240478515625" lon="-7.48775619082152843475341796875">
        <ele>406</ele>
        <time>2019-04-27T14:22:27.000Z</time>
      </trkpt>
      <trkpt lat="40.02311314456164836883544921875" lon="-7.48784135095775127410888671875">
        <ele>406.399993896484375</ele>
        <time>2019-04-27T14:22:31.000Z</time>
      </trkpt>
      <trkpt lat="40.02353592775762081146240234375" lon="-7.4883032776415348052978515625">
        <ele>407.600006103515625</ele>
        <time>2019-04-27T14:22:50.000Z</time>
      </trkpt>
      <trkpt lat="40.02395150251686573028564453125" lon="-7.48876755125820636749267578125">
        <ele>410.20001220703125</ele>
        <time>2019-04-27T14:23:09.000Z</time>
      </trkpt>
      <trkpt lat="40.02423162572085857391357421875" lon="-7.48938512988388538360595703125">
        <ele>413</ele>
        <time>2019-04-27T14:23:30.000Z</time>
      </trkpt>
      <trkpt lat="40.0246419198811054229736328125" lon="-7.48984026722609996795654296875">
        <ele>416</ele>
        <time>2019-04-27T14:23:50.000Z</time>
      </trkpt>
      <trkpt lat="40.02515179105103015899658203125" lon="-7.4901251681149005889892578125">
        <ele>417.20001220703125</ele>
        <time>2019-04-27T14:24:13.000Z</time>
      </trkpt>
      <trkpt lat="40.02559485845267772674560546875" lon="-7.49028048478066921234130859375">
        <ele>418.600006103515625</ele>
        <time>2019-04-27T14:24:35.000Z</time>
      </trkpt>
      <trkpt lat="40.0256340019404888153076171875" lon="-7.49028484337031841278076171875">
        <ele>418.79998779296875</ele>
        <time>2019-04-27T14:24:38.000Z</time>
      </trkpt>
      <trkpt lat="40.025682114064693450927734375" lon="-7.49029708094894886016845703125">
        <ele>419</ele>
        <time>2019-04-27T14:25:12.000Z</time>
      </trkpt>
      <trkpt lat="40.02619164995849132537841796875" lon="-7.49054686166346073150634765625">
        <ele>421.399993896484375</ele>
        <time>2019-04-27T14:25:27.000Z</time>
      </trkpt>
      <trkpt lat="40.02658811397850513458251953125" lon="-7.49098741449415683746337890625">
        <ele>424.399993896484375</ele>
        <time>2019-04-27T14:25:48.000Z</time>
      </trkpt>
      <trkpt lat="40.0266076438128948211669921875" lon="-7.49097383581101894378662109375">
        <ele>424.600006103515625</ele>
        <time>2019-04-27T14:25:49.000Z</time>
      </trkpt>
      <trkpt lat="40.02671719528734683990478515625" lon="-7.49074702151119709014892578125">
        <ele>425.20001220703125</ele>
        <time>2019-04-27T14:25:57.000Z</time>
      </trkpt>
      <trkpt lat="40.026975609362125396728515625" lon="-7.49011435545980930328369140625">
        <ele>426.399993896484375</ele>
        <time>2019-04-27T14:26:13.000Z</time>
      </trkpt>
      <trkpt lat="40.02741825766861438751220703125" lon="-7.4897213280200958251953125">
        <ele>430.600006103515625</ele>
        <time>2019-04-27T14:26:29.000Z</time>
      </trkpt>
      <trkpt lat="40.02791262231767177581787109375" lon="-7.4894277937710285186767578125">
        <ele>435.600006103515625</ele>
        <time>2019-04-27T14:26:54.000Z</time>
      </trkpt>
      <trkpt lat="40.02833716571331024169921875" lon="-7.4889550544321537017822265625">
        <ele>439.20001220703125</ele>
        <time>2019-04-27T14:27:23.000Z</time>
      </trkpt>
      <trkpt lat="40.0286830030381679534912109375" lon="-7.4884135834872722625732421875">
        <ele>443.20001220703125</ele>
        <time>2019-04-27T14:27:53.000Z</time>
      </trkpt>
      <trkpt lat="40.02901735715568065643310546875" lon="-7.487839758396148681640625">
        <ele>447.600006103515625</ele>
        <time>2019-04-27T14:28:18.000Z</time>
      </trkpt>
      <trkpt lat="40.02938582561910152435302734375" lon="-7.487327121198177337646484375">
        <ele>451.399993896484375</ele>
        <time>2019-04-27T14:28:41.000Z</time>
      </trkpt>
      <trkpt lat="40.029731579124927520751953125" lon="-7.486746422946453094482421875">
        <ele>455.600006103515625</ele>
        <time>2019-04-27T14:29:01.000Z</time>
      </trkpt>
      <trkpt lat="40.0299939326941967010498046875" lon="-7.48613454401493072509765625">
        <ele>455.600006103515625</ele>
        <time>2019-04-27T14:29:23.000Z</time>
      </trkpt>
      <trkpt lat="40.03015159629285335540771484375" lon="-7.48573464341461658477783203125">
        <ele>454.79998779296875</ele>
        <time>2019-04-27T14:29:34.000Z</time>
      </trkpt>
      <trkpt lat="40.03013684414327144622802734375" lon="-7.485059313476085662841796875">
        <ele>450.20001220703125</ele>
        <time>2019-04-27T14:29:46.000Z</time>
      </trkpt>
      <trkpt lat="40.030243210494518280029296875" lon="-7.4848495982587337493896484375">
        <ele>449.600006103515625</ele>
        <time>2019-04-27T14:29:50.000Z</time>
      </trkpt>
      <trkpt lat="40.03027665428817272186279296875" lon="-7.4848050065338611602783203125">
        <ele>449.600006103515625</ele>
        <time>2019-04-27T14:29:51.000Z</time>
      </trkpt>
      <trkpt lat="40.03055426292121410369873046875" lon="-7.48448322527110576629638671875">
        <ele>449</ele>
        <time>2019-04-27T14:29:59.000Z</time>
      </trkpt>
      <trkpt lat="40.0306165404617786407470703125" lon="-7.48441030271351337432861328125">
        <ele>448.399993896484375</ele>
        <time>2019-04-27T14:30:01.000Z</time>
      </trkpt>
      <trkpt lat="40.0310482084751129150390625" lon="-7.48409866355359554290771484375">
        <ele>446.600006103515625</ele>
        <time>2019-04-27T14:30:18.000Z</time>
      </trkpt>
      <trkpt lat="40.0310627929866313934326171875" lon="-7.48408860526978969573974609375">
        <ele>446.600006103515625</ele>
        <time>2019-04-27T14:30:21.000Z</time>
      </trkpt>
      <trkpt lat="40.0313539803028106689453125" lon="-7.48369230888783931732177734375">
        <ele>444.20001220703125</ele>
        <time>2019-04-27T14:30:35.000Z</time>
      </trkpt>
      <trkpt lat="40.0316056050360202789306640625" lon="-7.48372583650052547454833984375">
        <ele>444.79998779296875</ele>
        <time>2019-04-27T14:30:40.000Z</time>
      </trkpt>
      <trkpt lat="40.03174499608576297760009765625" lon="-7.48378585092723369598388671875">
        <ele>445</ele>
        <time>2019-04-27T14:30:43.000Z</time>
      </trkpt>
      <trkpt lat="40.0318919308483600616455078125" lon="-7.48374335467815399169921875">
        <ele>444.79998779296875</ele>
        <time>2019-04-27T14:30:47.000Z</time>
      </trkpt>
      <trkpt lat="40.03197834827005863189697265625" lon="-7.4836882017552852630615234375">
        <ele>444.399993896484375</ele>
        <time>2019-04-27T14:30:50.000Z</time>
      </trkpt>
      <trkpt lat="40.0319754146039485931396484375" lon="-7.48350002802908420562744140625">
        <ele>443.79998779296875</ele>
        <time>2019-04-27T14:30:54.000Z</time>
      </trkpt>
      <trkpt lat="40.03191548399627208709716796875" lon="-7.48323985375463962554931640625">
        <ele>442.399993896484375</ele>
        <time>2019-04-27T14:30:58.000Z</time>
      </trkpt>
      <trkpt lat="40.03188380040228366851806640625" lon="-7.48300448991358280181884765625">
        <ele>441.20001220703125</ele>
        <time>2019-04-27T14:31:02.000Z</time>
      </trkpt>
      <trkpt lat="40.03195303492248058319091796875" lon="-7.4825992248952388763427734375">
        <ele>439.20001220703125</ele>
        <time>2019-04-27T14:31:08.000Z</time>
      </trkpt>
      <trkpt lat="40.03201254643499851226806640625" lon="-7.48238473199307918548583984375">
        <ele>437.79998779296875</ele>
        <time>2019-04-27T14:31:11.000Z</time>
      </trkpt>
      <trkpt lat="40.03188044764101505279541015625" lon="-7.48205683194100856781005859375">
        <ele>434.600006103515625</ele>
        <time>2019-04-27T14:31:17.000Z</time>
      </trkpt>
      <trkpt lat="40.0318617559969425201416015625" lon="-7.48192481696605682373046875">
        <ele>433.399993896484375</ele>
        <time>2019-04-27T14:31:21.000Z</time>
      </trkpt>
      <trkpt lat="40.0319418869912624359130859375" lon="-7.48192624188959598541259765625">
        <ele>433.600006103515625</ele>
        <time>2019-04-27T14:31:25.000Z</time>
      </trkpt>
      <trkpt lat="40.03198488615453243255615234375" lon="-7.48193093575537204742431640625">
        <ele>433.79998779296875</ele>
        <time>2019-04-27T14:31:29.000Z</time>
      </trkpt>
      <trkpt lat="40.03201573155820369720458984375" lon="-7.4819397367537021636962890625">
        <ele>434</ele>
        <time>2019-04-27T14:31:31.000Z</time>
      </trkpt>
      <trkpt lat="40.032088570296764373779296875" lon="-7.4819474481046199798583984375">
        <ele>434.399993896484375</ele>
        <time>2019-04-27T14:31:35.000Z</time>
      </trkpt>
      <trkpt lat="40.032284371554851531982421875" lon="-7.48200184665620326995849609375">
        <ele>435.79998779296875</ele>
        <time>2019-04-27T14:31:48.000Z</time>
      </trkpt>
      <trkpt lat="40.03242108039557933807373046875" lon="-7.48210628516972064971923828125">
        <ele>437.399993896484375</ele>
        <time>2019-04-27T14:31:54.000Z</time>
      </trkpt>
      <trkpt lat="40.03282860852777957916259765625" lon="-7.48256452381610870361328125">
        <ele>438.399993896484375</ele>
        <time>2019-04-27T14:32:22.000Z</time>
      </trkpt>
      <trkpt lat="40.03284621052443981170654296875" lon="-7.4825838021934032440185546875">
        <ele>438.399993896484375</ele>
        <time>2019-04-27T14:32:23.000Z</time>
      </trkpt>
      <trkpt lat="40.0329150259494781494140625" lon="-7.482686229050159454345703125">
        <ele>438.79998779296875</ele>
        <time>2019-04-27T14:32:27.000Z</time>
      </trkpt>
      <trkpt lat="40.0332578457891941070556640625" lon="-7.48290692456066608428955078125">
        <ele>439.79998779296875</ele>
        <time>2019-04-27T14:32:42.000Z</time>
      </trkpt>
      <trkpt lat="40.03334409557282924652099609375" lon="-7.48295872472226619720458984375">
        <ele>440.20001220703125</ele>
        <time>2019-04-27T14:32:49.000Z</time>
      </trkpt>
      <trkpt lat="40.0333728455007076263427734375" lon="-7.48296224512159824371337890625">
        <ele>440.20001220703125</ele>
        <time>2019-04-27T14:32:50.000Z</time>
      </trkpt>
      <trkpt lat="40.0334680639207363128662109375" lon="-7.4830313958227634429931640625">
        <ele>440.20001220703125</ele>
        <time>2019-04-27T14:32:57.000Z</time>
      </trkpt>
      <trkpt lat="40.03347367979586124420166015625" lon="-7.4830142967402935028076171875">
        <ele>440.20001220703125</ele>
        <time>2019-04-27T14:33:37.000Z</time>
      </trkpt>
      <trkpt lat="40.0334445945918560028076171875" lon="-7.482790164649486541748046875">
        <ele>439.600006103515625</ele>
        <time>2019-04-27T14:33:49.000Z</time>
      </trkpt>
      <trkpt lat="40.03360125236213207244873046875" lon="-7.482517249882221221923828125">
        <ele>438.79998779296875</ele>
        <time>2019-04-27T14:34:02.000Z</time>
      </trkpt>
      <trkpt lat="40.0336016714572906494140625" lon="-7.48251180164515972137451171875">
        <ele>438.79998779296875</ele>
        <time>2019-04-27T14:34:04.000Z</time>
      </trkpt>
      <trkpt lat="40.03353889100253582000732421875" lon="-7.4824456684291362762451171875">
        <ele>438.600006103515625</ele>
        <time>2019-04-27T14:36:38.000Z</time>
      </trkpt>
      <trkpt lat="40.03340763039886951446533203125" lon="-7.48223737813532352447509765625">
        <ele>438.20001220703125</ele>
        <time>2019-04-27T14:36:46.000Z</time>
      </trkpt>
      <trkpt lat="40.0335015915334224700927734375" lon="-7.48191484250128269195556640625">
        <ele>438</ele>
        <time>2019-04-27T14:36:52.000Z</time>
      </trkpt>
      <trkpt lat="40.03367098979651927947998046875" lon="-7.48126440681517124176025390625">
        <ele>435.399993896484375</ele>
        <time>2019-04-27T14:37:04.000Z</time>
      </trkpt>
      <trkpt lat="40.03366713412106037139892578125" lon="-7.48128502629697322845458984375">
        <ele>435.600006103515625</ele>
        <time>2019-04-27T14:37:09.000Z</time>
      </trkpt>
      <trkpt lat="40.03366361372172832489013671875" lon="-7.4812765605747699737548828125">
        <ele>435.399993896484375</ele>
        <time>2019-04-27T14:37:10.000Z</time>
      </trkpt>
      <trkpt lat="40.0336968898773193359375" lon="-7.48125954531133174896240234375">
        <ele>435.399993896484375</ele>
        <time>2019-04-27T14:37:22.000Z</time>
      </trkpt>
      <trkpt lat="40.0338737480342388153076171875" lon="-7.4811390973627567291259765625">
        <ele>435.600006103515625</ele>
        <time>2019-04-27T14:37:28.000Z</time>
      </trkpt>
      <trkpt lat="40.03433634527027606964111328125" lon="-7.480860650539398193359375">
        <ele>436.600006103515625</ele>
        <time>2019-04-27T14:37:40.000Z</time>
      </trkpt>
      <trkpt lat="40.03445989452302455902099609375" lon="-7.48063467442989349365234375">
        <ele>438</ele>
        <time>2019-04-27T14:37:45.000Z</time>
      </trkpt>
      <trkpt lat="40.03461294807493686676025390625" lon="-7.48023569583892822265625">
        <ele>440.399993896484375</ele>
        <time>2019-04-27T14:37:54.000Z</time>
      </trkpt>
      <trkpt lat="40.034712441265583038330078125" lon="-7.48011424206197261810302734375">
        <ele>441.79998779296875</ele>
        <time>2019-04-27T14:37:57.000Z</time>
      </trkpt>
      <trkpt lat="40.0348621420562267303466796875" lon="-7.4799334444105625152587890625">
        <ele>443.399993896484375</ele>
        <time>2019-04-27T14:38:02.000Z</time>
      </trkpt>
      <trkpt lat="40.03510035574436187744140625" lon="-7.479586265981197357177734375">
        <ele>445</ele>
        <time>2019-04-27T14:38:15.000Z</time>
      </trkpt>
      <trkpt lat="40.03520722500979900360107421875" lon="-7.47938719578087329864501953125">
        <ele>445.399993896484375</ele>
        <time>2019-04-27T14:38:26.000Z</time>
      </trkpt>
      <trkpt lat="40.0352607853710651397705078125" lon="-7.47932801954448223114013671875">
        <ele>445.79998779296875</ele>
        <time>2019-04-27T14:38:31.000Z</time>
      </trkpt>
      <trkpt lat="40.0353090651333332061767578125" lon="-7.4793245829641819000244140625">
        <ele>446.20001220703125</ele>
        <time>2019-04-27T14:38:34.000Z</time>
      </trkpt>
      <trkpt lat="40.0354210473597049713134765625" lon="-7.47928041033446788787841796875">
        <ele>447.20001220703125</ele>
        <time>2019-04-27T14:38:41.000Z</time>
      </trkpt>
      <trkpt lat="40.0355769507586956024169921875" lon="-7.47924973256886005401611328125">
        <ele>448.20001220703125</ele>
        <time>2019-04-27T14:38:50.000Z</time>
      </trkpt>
      <trkpt lat="40.03556982614099979400634765625" lon="-7.47928627766668796539306640625">
        <ele>448.20001220703125</ele>
        <time>2019-04-27T14:38:55.000Z</time>
      </trkpt>
      <trkpt lat="40.0355816446244716644287109375" lon="-7.4793115071952342987060546875">
        <ele>448.399993896484375</ele>
        <time>2019-04-27T14:38:58.000Z</time>
      </trkpt>
      <trkpt lat="40.03586587496101856231689453125" lon="-7.4793255887925624847412109375">
        <ele>450</ele>
        <time>2019-04-27T14:39:08.000Z</time>
      </trkpt>
      <trkpt lat="40.0363547913730144500732421875" lon="-7.479022331535816192626953125">
        <ele>451.79998779296875</ele>
        <time>2019-04-27T14:39:31.000Z</time>
      </trkpt>
      <trkpt lat="40.0366169773042201995849609375" lon="-7.478444315493106842041015625">
        <ele>451.20001220703125</ele>
        <time>2019-04-27T14:39:52.000Z</time>
      </trkpt>
      <trkpt lat="40.0366122834384441375732421875" lon="-7.4782865680754184722900390625">
        <ele>450.79998779296875</ele>
        <time>2019-04-27T14:39:59.000Z</time>
      </trkpt>
      <trkpt lat="40.03664656542241573333740234375" lon="-7.47829310595989227294921875">
        <ele>450.79998779296875</ele>
        <time>2019-04-27T14:40:12.000Z</time>
      </trkpt>
      <trkpt lat="40.03666567616164684295654296875" lon="-7.478416152298450469970703125">
        <ele>451.20001220703125</ele>
        <time>2019-04-27T14:40:16.000Z</time>
      </trkpt>
      <trkpt lat="40.03667959012091159820556640625" lon="-7.47854255139827728271484375">
        <ele>451.20001220703125</ele>
        <time>2019-04-27T14:40:19.000Z</time>
      </trkpt>
      <trkpt lat="40.0365995429456233978271484375" lon="-7.4787660129368305206298828125">
        <ele>451.600006103515625</ele>
        <time>2019-04-27T14:40:27.000Z</time>
      </trkpt>
      <trkpt lat="40.03660214133560657501220703125" lon="-7.47873743064701557159423828125">
        <ele>451.399993896484375</ele>
        <time>2019-04-27T14:40:29.000Z</time>
      </trkpt>
      <trkpt lat="40.03677807748317718505859375" lon="-7.4787671864032745361328125">
        <ele>451.600006103515625</ele>
        <time>2019-04-27T14:40:39.000Z</time>
      </trkpt>
      <trkpt lat="40.0368511676788330078125" lon="-7.4789527617394924163818359375">
        <ele>452.20001220703125</ele>
        <time>2019-04-27T14:40:47.000Z</time>
      </trkpt>
      <trkpt lat="40.0368255190551280975341796875" lon="-7.4789380095899105072021484375">
        <ele>452.20001220703125</ele>
        <time>2019-04-27T14:40:52.000Z</time>
      </trkpt>
      <trkpt lat="40.03677514381706714630126953125" lon="-7.4789289571344852447509765625">
        <ele>452</ele>
        <time>2019-04-27T14:49:30.000Z</time>
      </trkpt>
      <trkpt lat="40.03684513270854949951171875" lon="-7.4789415299892425537109375">
        <ele>452.20001220703125</ele>
        <time>2019-04-27T14:49:34.000Z</time>
      </trkpt>
      <trkpt lat="40.036956779658794403076171875" lon="-7.47923724353313446044921875">
        <ele>452.79998779296875</ele>
        <time>2019-04-27T14:49:50.000Z</time>
      </trkpt>
      <trkpt lat="40.037283338606357574462890625" lon="-7.4798036925494670867919921875">
        <ele>457.79998779296875</ele>
        <time>2019-04-27T14:50:17.000Z</time>
      </trkpt>
      <trkpt lat="40.0373643077909946441650390625" lon="-7.479891367256641387939453125">
        <ele>458.600006103515625</ele>
        <time>2019-04-27T14:50:23.000Z</time>
      </trkpt>
      <trkpt lat="40.0373988412320613861083984375" lon="-7.479942999780178070068359375">
        <ele>459.20001220703125</ele>
        <time>2019-04-27T14:50:26.000Z</time>
      </trkpt>
      <trkpt lat="40.03742180764675140380859375" lon="-7.4799693189561367034912109375">
        <ele>459.399993896484375</ele>
        <time>2019-04-27T14:50:28.000Z</time>
      </trkpt>
      <trkpt lat="40.03746078349649906158447265625" lon="-7.48001382686197757720947265625">
        <ele>459.79998779296875</ele>
        <time>2019-04-27T14:50:31.000Z</time>
      </trkpt>
      <trkpt lat="40.03792296163737773895263671875" lon="-7.48038388788700103759765625">
        <ele>462.399993896484375</ele>
        <time>2019-04-27T14:50:55.000Z</time>
      </trkpt>
      <trkpt lat="40.03838228993117809295654296875" lon="-7.480753026902675628662109375">
        <ele>464.79998779296875</ele>
        <time>2019-04-27T14:51:15.000Z</time>
      </trkpt>
      <trkpt lat="40.0389273650944232940673828125" lon="-7.48077859170734882354736328125">
        <ele>466.20001220703125</ele>
        <time>2019-04-27T14:51:37.000Z</time>
      </trkpt>
      <trkpt lat="40.03929558210074901580810546875" lon="-7.4813067354261875152587890625">
        <ele>467</ele>
        <time>2019-04-27T14:52:01.000Z</time>
      </trkpt>
      <trkpt lat="40.03965700976550579071044921875" lon="-7.481823898851871490478515625">
        <ele>469</ele>
        <time>2019-04-27T14:52:22.000Z</time>
      </trkpt>
      <trkpt lat="40.03995926119387149810791015625" lon="-7.48233921825885772705078125">
        <ele>468.79998779296875</ele>
        <time>2019-04-27T14:52:39.000Z</time>
      </trkpt>
      <trkpt lat="40.039917938411235809326171875" lon="-7.4830427952110767364501953125">
        <ele>470.79998779296875</ele>
        <time>2019-04-27T14:52:55.000Z</time>
      </trkpt>
      <trkpt lat="40.0398745201528072357177734375" lon="-7.48375701718032360076904296875">
        <ele>473</ele>
        <time>2019-04-27T14:53:10.000Z</time>
      </trkpt>
      <trkpt lat="40.03985348157584667205810546875" lon="-7.48421944677829742431640625">
        <ele>474.399993896484375</ele>
        <time>2019-04-27T14:53:20.000Z</time>
      </trkpt>
      <trkpt lat="40.03986638970673084259033203125" lon="-7.48437979258596897125244140625">
        <ele>474</ele>
        <time>2019-04-27T14:53:23.000Z</time>
      </trkpt>
      <trkpt lat="40.04005783237516880035400390625" lon="-7.48504648916423320770263671875">
        <ele>473.600006103515625</ele>
        <time>2019-04-27T14:53:37.000Z</time>
      </trkpt>
      <trkpt lat="40.04025698639452457427978515625" lon="-7.4857367388904094696044921875">
        <ele>473.600006103515625</ele>
        <time>2019-04-27T14:53:53.000Z</time>
      </trkpt>
      <trkpt lat="40.0404243730008602142333984375" lon="-7.486423552036285400390625">
        <ele>475.20001220703125</ele>
        <time>2019-04-27T14:54:07.000Z</time>
      </trkpt>
      <trkpt lat="40.0404361076653003692626953125" lon="-7.4865477718412876129150390625">
        <ele>475.600006103515625</ele>
        <time>2019-04-27T14:54:13.000Z</time>
      </trkpt>
      <trkpt lat="40.04051866941154003143310546875" lon="-7.48644006438553333282470703125">
        <ele>475.399993896484375</ele>
        <time>2019-04-27T14:54:26.000Z</time>
      </trkpt>
      <trkpt lat="40.04051975905895233154296875" lon="-7.486446015536785125732421875">
        <ele>475.399993896484375</ele>
        <time>2019-04-27T14:55:03.000Z</time>
      </trkpt>
      <trkpt lat="40.0405190885066986083984375" lon="-7.48646437190473079681396484375">
        <ele>475.399993896484375</ele>
        <time>2019-04-27T14:55:04.000Z</time>
      </trkpt>
      <trkpt lat="40.04021926783025264739990234375" lon="-7.48660602606832981109619140625">
        <ele>475.79998779296875</ele>
        <time>2019-04-27T14:55:17.000Z</time>
      </trkpt>
      <trkpt lat="40.04014768637716770172119140625" lon="-7.48663402162492275238037109375">
        <ele>475.79998779296875</ele>
        <time>2019-04-27T14:55:24.000Z</time>
      </trkpt>
      <trkpt lat="40.04018121398985385894775390625" lon="-7.486595548689365386962890625">
        <ele>475.79998779296875</ele>
        <time>2019-04-27T14:56:06.000Z</time>
      </trkpt>
      <trkpt lat="40.04034449346363544464111328125" lon="-7.4865578301250934600830078125">
        <ele>475.600006103515625</ele>
        <time>2019-04-27T14:56:14.000Z</time>
      </trkpt>
      <trkpt lat="40.040731318295001983642578125" lon="-7.48650074936449527740478515625">
        <ele>476.20001220703125</ele>
        <time>2019-04-27T14:56:27.000Z</time>
      </trkpt>
      <trkpt lat="40.0410912372171878814697265625" lon="-7.48668565414845943450927734375">
        <ele>478.399993896484375</ele>
        <time>2019-04-27T14:56:38.000Z</time>
      </trkpt>
      <trkpt lat="40.0410919077694416046142578125" lon="-7.486686408519744873046875">
        <ele>478.399993896484375</ele>
        <time>2019-04-27T14:56:50.000Z</time>
      </trkpt>
      <trkpt lat="40.041098110377788543701171875" lon="-7.4866998195648193359375">
        <ele>478.600006103515625</ele>
        <time>2019-04-27T14:56:51.000Z</time>
      </trkpt>
      <trkpt lat="40.041185952723026275634765625" lon="-7.486774586141109466552734375">
        <ele>479</ele>
        <time>2019-04-27T14:56:55.000Z</time>
      </trkpt>
      <trkpt lat="40.0416622124612331390380859375" lon="-7.4871110357344150543212890625">
        <ele>481.600006103515625</ele>
        <time>2019-04-27T14:57:13.000Z</time>
      </trkpt>
      <trkpt lat="40.0422144122421741485595703125" lon="-7.4870543740689754486083984375">
        <ele>484</ele>
        <time>2019-04-27T14:57:33.000Z</time>
      </trkpt>
      <trkpt lat="40.0427434779703617095947265625" lon="-7.48685337603092193603515625">
        <ele>485.79998779296875</ele>
        <time>2019-04-27T14:57:54.000Z</time>
      </trkpt>
      <trkpt lat="40.04324597306549549102783203125" lon="-7.48667643405497074127197265625">
        <ele>484.79998779296875</ele>
        <time>2019-04-27T14:58:15.000Z</time>
      </trkpt>
      <trkpt lat="40.04372323863208293914794921875" lon="-7.48701833188533782958984375">
        <ele>483.600006103515625</ele>
        <time>2019-04-27T14:58:33.000Z</time>
      </trkpt>
      <trkpt lat="40.04424459300935268402099609375" lon="-7.487309016287326812744140625">
        <ele>483.79998779296875</ele>
        <time>2019-04-27T14:58:51.000Z</time>
      </trkpt>
      <trkpt lat="40.04444391466677188873291015625" lon="-7.48746383003890514373779296875">
        <ele>484</ele>
        <time>2019-04-27T14:58:56.000Z</time>
      </trkpt>
      <trkpt lat="40.0449009798467159271240234375" lon="-7.4878684245049953460693359375">
        <ele>483</ele>
        <time>2019-04-27T14:59:11.000Z</time>
      </trkpt>
      <trkpt lat="40.04534932784736156463623046875" lon="-7.48824854381382465362548828125">
        <ele>484.600006103515625</ele>
        <time>2019-04-27T14:59:27.000Z</time>
      </trkpt>
      <trkpt lat="40.0453604757785797119140625" lon="-7.48811091296374797821044921875">
        <ele>483.600006103515625</ele>
        <time>2019-04-27T14:59:31.000Z</time>
      </trkpt>
      <trkpt lat="40.0453945063054561614990234375" lon="-7.48771579004824161529541015625">
        <ele>481.399993896484375</ele>
        <time>2019-04-27T14:59:39.000Z</time>
      </trkpt>
      <trkpt lat="40.0456285290420055389404296875" lon="-7.48744346201419830322265625">
        <ele>479.600006103515625</ele>
        <time>2019-04-27T14:59:45.000Z</time>
      </trkpt>
      <trkpt lat="40.04574445076286792755126953125" lon="-7.48731278814375400543212890625">
        <ele>478.399993896484375</ele>
        <time>2019-04-27T14:59:49.000Z</time>
      </trkpt>
      <trkpt lat="40.04576490260660648345947265625" lon="-7.48728227801620960235595703125">
        <ele>478.20001220703125</ele>
        <time>2019-04-27T14:59:52.000Z</time>
      </trkpt>
      <trkpt lat="40.04576926119625568389892578125" lon="-7.48727540485560894012451171875">
        <ele>478.20001220703125</ele>
        <time>2019-04-27T15:00:01.000Z</time>
      </trkpt>
      <trkpt lat="40.04588694311678409576416015625" lon="-7.4871034920215606689453125">
        <ele>476.600006103515625</ele>
        <time>2019-04-27T15:00:06.000Z</time>
      </trkpt>
      <trkpt lat="40.04628022201359272003173828125" lon="-7.48691448010504245758056640625">
        <ele>475</ele>
        <time>2019-04-27T15:00:13.000Z</time>
      </trkpt>
      <trkpt lat="40.04681029357016086578369140625" lon="-7.4867908470332622528076171875">
        <ele>472.79998779296875</ele>
        <time>2019-04-27T15:00:20.000Z</time>
      </trkpt>
      <trkpt lat="40.04725939594209194183349609375" lon="-7.48631953261792659759521484375">
        <ele>469</ele>
        <time>2019-04-27T15:00:27.000Z</time>
      </trkpt>
      <trkpt lat="40.04770162515342235565185546875" lon="-7.485772110521793365478515625">
        <ele>465.20001220703125</ele>
        <time>2019-04-27T15:00:34.000Z</time>
      </trkpt>
      <trkpt lat="40.04801812581717967987060546875" lon="-7.48541411943733692169189453125">
        <ele>463.20001220703125</ele>
        <time>2019-04-27T15:00:39.000Z</time>
      </trkpt>
      <trkpt lat="40.0485179387032985687255859375" lon="-7.485031150281429290771484375">
        <ele>461.79998779296875</ele>
        <time>2019-04-27T15:00:46.000Z</time>
      </trkpt>
      <trkpt lat="40.048966370522975921630859375" lon="-7.4845565669238567352294921875">
        <ele>465</ele>
        <time>2019-04-27T15:00:56.000Z</time>
      </trkpt>
      <trkpt lat="40.04947138018906116485595703125" lon="-7.48423813842236995697021484375">
        <ele>470.600006103515625</ele>
        <time>2019-04-27T15:01:14.000Z</time>
      </trkpt>
      <trkpt lat="40.049982257187366485595703125" lon="-7.4840338714420795440673828125">
        <ele>476.600006103515625</ele>
        <time>2019-04-27T15:01:36.000Z</time>
      </trkpt>
      <trkpt lat="40.05050805397331714630126953125" lon="-7.48396203853189945220947265625">
        <ele>482.399993896484375</ele>
        <time>2019-04-27T15:02:01.000Z</time>
      </trkpt>
      <trkpt lat="40.050674937665462493896484375" lon="-7.48333834111690521240234375">
        <ele>489</ele>
        <time>2019-04-27T15:02:26.000Z</time>
      </trkpt>
      <trkpt lat="40.050484836101531982421875" lon="-7.48265915550291538238525390625">
        <ele>490.600006103515625</ele>
        <time>2019-04-27T15:02:50.000Z</time>
      </trkpt>
      <trkpt lat="40.05030588246881961822509765625" lon="-7.4819752760231494903564453125">
        <ele>492.20001220703125</ele>
        <time>2019-04-27T15:03:13.000Z</time>
      </trkpt>
      <trkpt lat="40.05023765377700328826904296875" lon="-7.48128703795373439788818359375">
        <ele>494.399993896484375</ele>
        <time>2019-04-27T15:03:36.000Z</time>
      </trkpt>
      <trkpt lat="40.05067837424576282501220703125" lon="-7.4808350019156932830810546875">
        <ele>502.20001220703125</ele>
        <time>2019-04-27T15:04:00.000Z</time>
      </trkpt>
      <trkpt lat="40.0507892668247222900390625" lon="-7.4801453389227390289306640625">
        <ele>504</ele>
        <time>2019-04-27T15:04:19.000Z</time>
      </trkpt>
      <trkpt lat="40.0509597547352313995361328125" lon="-7.47944511473178863525390625">
        <ele>503.79998779296875</ele>
        <time>2019-04-27T15:04:34.000Z</time>
      </trkpt>
      <trkpt lat="40.05103535950183868408203125" lon="-7.47913456521928310394287109375">
        <ele>504</ele>
        <time>2019-04-27T15:04:40.000Z</time>
      </trkpt>
      <trkpt lat="40.05129109136760234832763671875" lon="-7.4784793518483638763427734375">
        <ele>504.20001220703125</ele>
        <time>2019-04-27T15:04:55.000Z</time>
      </trkpt>
      <trkpt lat="40.05154254846274852752685546875" lon="-7.4778248928487300872802734375">
        <ele>504.399993896484375</ele>
        <time>2019-04-27T15:05:10.000Z</time>
      </trkpt>
      <trkpt lat="40.051889978349208831787109375" lon="-7.4772830866277217864990234375">
        <ele>505.79998779296875</ele>
        <time>2019-04-27T15:05:26.000Z</time>
      </trkpt>
      <trkpt lat="40.0523793138563632965087890625" lon="-7.47695577330887317657470703125">
        <ele>505.79998779296875</ele>
        <time>2019-04-27T15:05:43.000Z</time>
      </trkpt>
      <trkpt lat="40.0528788752853870391845703125" lon="-7.476699538528919219970703125">
        <ele>504.20001220703125</ele>
        <time>2019-04-27T15:06:01.000Z</time>
      </trkpt>
      <trkpt lat="40.053015165030956268310546875" lon="-7.476250268518924713134765625">
        <ele>502</ele>
        <time>2019-04-27T15:06:18.000Z</time>
      </trkpt>
      <trkpt lat="40.05303385667502880096435546875" lon="-7.4761850573122501373291015625">
        <ele>501.600006103515625</ele>
        <time>2019-04-27T15:06:59.000Z</time>
      </trkpt>
      <trkpt lat="40.0531147420406341552734375" lon="-7.4756898544728755950927734375">
        <ele>499.20001220703125</ele>
        <time>2019-04-27T15:07:12.000Z</time>
      </trkpt>
      <trkpt lat="40.05317718721926212310791015625" lon="-7.47551458887755870819091796875">
        <ele>498.20001220703125</ele>
        <time>2019-04-27T15:07:15.000Z</time>
      </trkpt>
      <trkpt lat="40.053681693971157073974609375" lon="-7.4753554165363311767578125">
        <ele>494.20001220703125</ele>
        <time>2019-04-27T15:07:24.000Z</time>
      </trkpt>
      <trkpt lat="40.053858719766139984130859375" lon="-7.475527413189411163330078125">
        <ele>494.600006103515625</ele>
        <time>2019-04-27T15:07:27.000Z</time>
      </trkpt>
      <trkpt lat="40.0540610589087009429931640625" lon="-7.4757056124508380889892578125">
        <ele>496</ele>
        <time>2019-04-27T15:07:30.000Z</time>
      </trkpt>
      <trkpt lat="40.054520554840564727783203125" lon="-7.47545222751796245574951171875">
        <ele>495.600006103515625</ele>
        <time>2019-04-27T15:07:37.000Z</time>
      </trkpt>
      <trkpt lat="40.05455450154840946197509765625" lon="-7.475359104573726654052734375">
        <ele>495</ele>
        <time>2019-04-27T15:07:38.000Z</time>
      </trkpt>
      <trkpt lat="40.05461149848997592926025390625" lon="-7.475159950554370880126953125">
        <ele>494</ele>
        <time>2019-04-27T15:07:40.000Z</time>
      </trkpt>
      <trkpt lat="40.0547399930655956268310546875" lon="-7.474404238164424896240234375">
        <ele>494.20001220703125</ele>
        <time>2019-04-27T15:07:48.000Z</time>
      </trkpt>
      <trkpt lat="40.05480998195707798004150390625" lon="-7.4740439839661121368408203125">
        <ele>494</ele>
        <time>2019-04-27T15:07:53.000Z</time>
      </trkpt>
      <trkpt lat="40.05482842214405536651611328125" lon="-7.4739122204482555389404296875">
        <ele>493.399993896484375</ele>
        <time>2019-04-27T15:07:55.000Z</time>
      </trkpt>
      <trkpt lat="40.0549976527690887451171875" lon="-7.47315793298184871673583984375">
        <ele>490.600006103515625</ele>
        <time>2019-04-27T15:08:06.000Z</time>
      </trkpt>
      <trkpt lat="40.05514676682651042938232421875" lon="-7.4724256061017513275146484375">
        <ele>484.600006103515625</ele>
        <time>2019-04-27T15:08:13.000Z</time>
      </trkpt>
      <trkpt lat="40.05520485341548919677734375" lon="-7.47169093228876590728759765625">
        <ele>481</ele>
        <time>2019-04-27T15:08:19.000Z</time>
      </trkpt>
      <trkpt lat="40.05525506101548671722412109375" lon="-7.470885179936885833740234375">
        <ele>475.399993896484375</ele>
        <time>2019-04-27T15:08:25.000Z</time>
      </trkpt>
      <trkpt lat="40.0552821345627307891845703125" lon="-7.47014162130653858184814453125">
        <ele>470</ele>
        <time>2019-04-27T15:08:30.000Z</time>
      </trkpt>
      <trkpt lat="40.05530275404453277587890625" lon="-7.46942496858537197113037109375">
        <ele>466.600006103515625</ele>
        <time>2019-04-27T15:08:36.000Z</time>
      </trkpt>
      <trkpt lat="40.055376850068569183349609375" lon="-7.46904459781944751739501953125">
        <ele>465.20001220703125</ele>
        <time>2019-04-27T15:08:45.000Z</time>
      </trkpt>
      <trkpt lat="40.05532848648726940155029296875" lon="-7.469088099896907806396484375">
        <ele>465.399993896484375</ele>
        <time>2019-04-27T15:08:53.000Z</time>
      </trkpt>
      <trkpt lat="40.0553247146308422088623046875" lon="-7.46912154369056224822998046875">
        <ele>465.600006103515625</ele>
        <time>2019-04-27T15:10:23.000Z</time>
      </trkpt>
      <trkpt lat="40.0553227029740810394287109375" lon="-7.46919631026685237884521484375">
        <ele>466</ele>
        <time>2019-04-27T15:10:27.000Z</time>
      </trkpt>
      <trkpt lat="40.05529646761715412139892578125" lon="-7.46929136104881763458251953125">
        <ele>466</ele>
        <time>2019-04-27T15:10:32.000Z</time>
      </trkpt>
      <trkpt lat="40.055254139006137847900390625" lon="-7.469997704029083251953125">
        <ele>468.399993896484375</ele>
        <time>2019-04-27T15:10:56.000Z</time>
      </trkpt>
      <trkpt lat="40.0552291609346866607666015625" lon="-7.47071410529315471649169921875">
        <ele>474.20001220703125</ele>
        <time>2019-04-27T15:11:22.000Z</time>
      </trkpt>
      <trkpt lat="40.05518347956240177154541015625" lon="-7.47142455540597438812255859375">
        <ele>479</ele>
        <time>2019-04-27T15:11:45.000Z</time>
      </trkpt>
      <trkpt lat="40.05516621284186840057373046875" lon="-7.47177307493984699249267578125">
        <ele>481.399993896484375</ele>
        <time>2019-04-27T15:11:58.000Z</time>
      </trkpt>
      <trkpt lat="40.0551580823957920074462890625" lon="-7.47198186814785003662109375">
        <ele>482.600006103515625</ele>
        <time>2019-04-27T15:12:07.000Z</time>
      </trkpt>
      <trkpt lat="40.055137462913990020751953125" lon="-7.47212679125368595123291015625">
        <ele>483.20001220703125</ele>
        <time>2019-04-27T15:12:14.000Z</time>
      </trkpt>
      <trkpt lat="40.05512581206858158111572265625" lon="-7.4723728001117706298828125">
        <ele>484.399993896484375</ele>
        <time>2019-04-27T15:12:24.000Z</time>
      </trkpt>
      <trkpt lat="40.0551222078502178192138671875" lon="-7.47249090112745761871337890625">
        <ele>485</ele>
        <time>2019-04-27T15:12:29.000Z</time>
      </trkpt>
      <trkpt lat="40.05509362556040287017822265625" lon="-7.47267027385532855987548828125">
        <ele>486.399993896484375</ele>
        <time>2019-04-27T15:12:35.000Z</time>
      </trkpt>
      <trkpt lat="40.05496605299413204193115234375" lon="-7.4733717553317546844482421875">
        <ele>492.20001220703125</ele>
        <time>2019-04-27T15:13:02.000Z</time>
      </trkpt>
      <trkpt lat="40.05479506216943264007568359375" lon="-7.47405630536377429962158203125">
        <ele>494</ele>
        <time>2019-04-27T15:13:27.000Z</time>
      </trkpt>
      <trkpt lat="40.0546665675938129425048828125" lon="-7.4747557751834392547607421875">
        <ele>493.600006103515625</ele>
        <time>2019-04-27T15:13:46.000Z</time>
      </trkpt>
      <trkpt lat="40.05452357232570648193359375" lon="-7.47545490972697734832763671875">
        <ele>495.600006103515625</ele>
        <time>2019-04-27T15:14:05.000Z</time>
      </trkpt>
      <trkpt lat="40.05409383215010166168212890625" lon="-7.4757642857730388641357421875">
        <ele>496.399993896484375</ele>
        <time>2019-04-27T15:14:25.000Z</time>
      </trkpt>
      <trkpt lat="40.0536592304706573486328125" lon="-7.47533991001546382904052734375">
        <ele>494.20001220703125</ele>
        <time>2019-04-27T15:14:47.000Z</time>
      </trkpt>
      <trkpt lat="40.05315371789038181304931640625" lon="-7.47549346648156642913818359375">
        <ele>498.600006103515625</ele>
        <time>2019-04-27T15:15:13.000Z</time>
      </trkpt>
      <trkpt lat="40.0531013309955596923828125" lon="-7.475678287446498870849609375">
        <ele>499.20001220703125</ele>
        <time>2019-04-27T15:15:20.000Z</time>
      </trkpt>
      <trkpt lat="40.0530233792960643768310546875" lon="-7.47638412751257419586181640625">
        <ele>502.399993896484375</ele>
        <time>2019-04-27T15:15:41.000Z</time>
      </trkpt>
      <trkpt lat="40.05285951308906078338623046875" lon="-7.476790063083171844482421875">
        <ele>505</ele>
        <time>2019-04-27T15:15:53.000Z</time>
      </trkpt>
      <trkpt lat="40.0528674758970737457275390625" lon="-7.47682250104844570159912109375">
        <ele>505.20001220703125</ele>
        <time>2019-04-27T15:15:57.000Z</time>
      </trkpt>
      <trkpt lat="40.05288348533213138580322265625" lon="-7.4768294580280780792236328125">
        <ele>505.399993896484375</ele>
        <time>2019-04-27T15:16:08.000Z</time>
      </trkpt>
      <trkpt lat="40.05295825190842151641845703125" lon="-7.476830296218395233154296875">
        <ele>505.600006103515625</ele>
        <time>2019-04-27T15:16:14.000Z</time>
      </trkpt>
      <trkpt lat="40.05299312062561511993408203125" lon="-7.4768197350203990936279296875">
        <ele>505.600006103515625</ele>
        <time>2019-04-27T15:16:19.000Z</time>
      </trkpt>
      <trkpt lat="40.05311532877385616302490234375" lon="-7.47677522711455821990966796875">
        <ele>505</ele>
        <time>2019-04-27T15:16:23.000Z</time>
      </trkpt>
      <trkpt lat="40.0533643551170825958251953125" lon="-7.47672359459102153778076171875">
        <ele>504.600006103515625</ele>
        <time>2019-04-27T15:16:29.000Z</time>
      </trkpt>
      <trkpt lat="40.05366954021155834197998046875" lon="-7.4766849540174007415771484375">
        <ele>504.20001220703125</ele>
        <time>2019-04-27T15:16:35.000Z</time>
      </trkpt>
      <trkpt lat="40.0542069040238857269287109375" lon="-7.476835660636425018310546875">
        <ele>508.399993896484375</ele>
        <time>2019-04-27T15:16:52.000Z</time>
      </trkpt>
      <trkpt lat="40.05445928312838077545166015625" lon="-7.47704797424376010894775390625">
        <ele>512.20001220703125</ele>
        <time>2019-04-27T15:17:10.000Z</time>
      </trkpt>
      <trkpt lat="40.05454326979815959930419921875" lon="-7.47700204141438007354736328125">
        <ele>511.79998779296875</ele>
        <time>2019-04-27T15:17:16.000Z</time>
      </trkpt>
      <trkpt lat="40.0548315234482288360595703125" lon="-7.47693582437932491302490234375">
        <ele>510.399993896484375</ele>
        <time>2019-04-27T15:17:26.000Z</time>
      </trkpt>
      <trkpt lat="40.05527785979211330413818359375" lon="-7.4770309589803218841552734375">
        <ele>509.399993896484375</ele>
        <time>2019-04-27T15:17:35.000Z</time>
      </trkpt>
      <trkpt lat="40.05581329576671123504638671875" lon="-7.47713950462639331817626953125">
        <ele>509.399993896484375</ele>
        <time>2019-04-27T15:17:55.000Z</time>
      </trkpt>
      <trkpt lat="40.05595830269157886505126953125" lon="-7.47711502946913242340087890625">
        <ele>508.79998779296875</ele>
        <time>2019-04-27T15:17:59.000Z</time>
      </trkpt>
      <trkpt lat="40.05649860017001628875732421875" lon="-7.4772197194397449493408203125">
        <ele>507.79998779296875</ele>
        <time>2019-04-27T15:18:14.000Z</time>
      </trkpt>
      <trkpt lat="40.05692473612725734710693359375" lon="-7.477261126041412353515625">
        <ele>506.399993896484375</ele>
        <time>2019-04-27T15:18:29.000Z</time>
      </trkpt>
      <trkpt lat="40.057371743023395538330078125" lon="-7.47730462811887264251708984375">
        <ele>505</ele>
        <time>2019-04-27T15:18:36.000Z</time>
      </trkpt>
      <trkpt lat="40.05776493810117244720458984375" lon="-7.4772985093295574188232421875">
        <ele>505.399993896484375</ele>
        <time>2019-04-27T15:18:41.000Z</time>
      </trkpt>
      <trkpt lat="40.058148913085460662841796875" lon="-7.47736732475459575653076171875">
        <ele>506</ele>
        <time>2019-04-27T15:18:47.000Z</time>
      </trkpt>
      <trkpt lat="40.05844403989613056182861328125" lon="-7.47741476632654666900634765625">
        <ele>506.79998779296875</ele>
        <time>2019-04-27T15:18:53.000Z</time>
      </trkpt>
      <trkpt lat="40.0589845888316631317138671875" lon="-7.477574609220027923583984375">
        <ele>509</ele>
        <time>2019-04-27T15:19:07.000Z</time>
      </trkpt>
      <trkpt lat="40.05951742641627788543701171875" lon="-7.47771902941167354583740234375">
        <ele>510.79998779296875</ele>
        <time>2019-04-27T15:19:35.000Z</time>
      </trkpt>
      <trkpt lat="40.0595542229712009429931640625" lon="-7.47775129973888397216796875">
        <ele>511</ele>
        <time>2019-04-27T15:19:39.000Z</time>
      </trkpt>
      <trkpt lat="40.05955413915216922760009765625" lon="-7.47775121591985225677490234375">
        <ele>511</ele>
        <time>2019-04-27T15:19:40.000Z</time>
      </trkpt>
      <trkpt lat="40.05957073532044887542724609375" lon="-7.4777521379292011260986328125">
        <ele>511.20001220703125</ele>
        <time>2019-04-27T15:20:35.000Z</time>
      </trkpt>
      <trkpt lat="40.05968841724097728729248046875" lon="-7.47775255702435970306396484375">
        <ele>510.600006103515625</ele>
        <time>2019-04-27T15:20:40.000Z</time>
      </trkpt>
      <trkpt lat="40.06029727868735790252685546875" lon="-7.47774467803537845611572265625">
        <ele>506.79998779296875</ele>
        <time>2019-04-27T15:20:50.000Z</time>
      </trkpt>
      <trkpt lat="40.0603753142058849334716796875" lon="-7.47773897834122180938720703125">
        <ele>506.20001220703125</ele>
        <time>2019-04-27T15:20:51.000Z</time>
      </trkpt>
      <trkpt lat="40.06078694947063922882080078125" lon="-7.47788163833320140838623046875">
        <ele>505</ele>
        <time>2019-04-27T15:20:56.000Z</time>
      </trkpt>
      <trkpt lat="40.0609226524829864501953125" lon="-7.477954141795635223388671875">
        <ele>504.79998779296875</ele>
        <time>2019-04-27T15:20:58.000Z</time>
      </trkpt>
      <trkpt lat="40.06124761886894702911376953125" lon="-7.4779509566724300384521484375">
        <ele>502.79998779296875</ele>
        <time>2019-04-27T15:21:03.000Z</time>
      </trkpt>
      <trkpt lat="40.06181624718010425567626953125" lon="-7.4780398048460483551025390625">
        <ele>508</ele>
        <time>2019-04-27T15:21:10.000Z</time>
      </trkpt>
      <trkpt lat="40.062389485538005828857421875" lon="-7.478062100708484649658203125">
        <ele>510.79998779296875</ele>
        <time>2019-04-27T15:21:25.000Z</time>
      </trkpt>
      <trkpt lat="40.06293271668255329132080078125" lon="-7.4781990610063076019287109375">
        <ele>513.4000244140625</ele>
        <time>2019-04-27T15:21:47.000Z</time>
      </trkpt>
      <trkpt lat="40.06347117014229297637939453125" lon="-7.4783750809729099273681640625">
        <ele>514.79998779296875</ele>
        <time>2019-04-27T15:22:15.000Z</time>
      </trkpt>
      <trkpt lat="40.06400861777365207672119140625" lon="-7.4784749932587146759033203125">
        <ele>517.20001220703125</ele>
        <time>2019-04-27T15:22:37.000Z</time>
      </trkpt>
      <trkpt lat="40.064528882503509521484375" lon="-7.47868873178958892822265625">
        <ele>519.4000244140625</ele>
        <time>2019-04-27T15:22:57.000Z</time>
      </trkpt>
      <trkpt lat="40.06505819968879222869873046875" lon="-7.4789185635745525360107421875">
        <ele>518.79998779296875</ele>
        <time>2019-04-27T15:23:19.000Z</time>
      </trkpt>
      <trkpt lat="40.06545759737491607666015625" lon="-7.47904303483664989471435546875">
        <ele>517.5999755859375</ele>
        <time>2019-04-27T15:23:31.000Z</time>
      </trkpt>
      <trkpt lat="40.06574803031980991363525390625" lon="-7.47912433929741382598876953125">
        <ele>517.5999755859375</ele>
        <time>2019-04-27T15:23:35.000Z</time>
      </trkpt>
      <trkpt lat="40.06626234389841556549072265625" lon="-7.47937160544097423553466796875">
        <ele>518.79998779296875</ele>
        <time>2019-04-27T15:23:43.000Z</time>
      </trkpt>
      <trkpt lat="40.0663194246590137481689453125" lon="-7.47940228320658206939697265625">
        <ele>519.20001220703125</ele>
        <time>2019-04-27T15:23:44.000Z</time>
      </trkpt>
      <trkpt lat="40.06679073907434940338134765625" lon="-7.47976505197584629058837890625">
        <ele>522.79998779296875</ele>
        <time>2019-04-27T15:24:01.000Z</time>
      </trkpt>
      <trkpt lat="40.0672920607030391693115234375" lon="-7.48010770417749881744384765625">
        <ele>524.20001220703125</ele>
        <time>2019-04-27T15:24:23.000Z</time>
      </trkpt>
      <trkpt lat="40.06771325133740901947021484375" lon="-7.480559237301349639892578125">
        <ele>526.79998779296875</ele>
        <time>2019-04-27T15:24:39.000Z</time>
      </trkpt>
      <trkpt lat="40.06797560490667819976806640625" lon="-7.481174133718013763427734375">
        <ele>528.4000244140625</ele>
        <time>2019-04-27T15:25:00.000Z</time>
      </trkpt>
      <trkpt lat="40.0683592446148395538330078125" lon="-7.48170512728393077850341796875">
        <ele>530</ele>
        <time>2019-04-27T15:25:18.000Z</time>
      </trkpt>
      <trkpt lat="40.06880507804453372955322265625" lon="-7.482109554111957550048828125">
        <ele>533.79998779296875</ele>
        <time>2019-04-27T15:25:39.000Z</time>
      </trkpt>
      <trkpt lat="40.06911939941346645355224609375" lon="-7.482657395303249359130859375">
        <ele>536.20001220703125</ele>
        <time>2019-04-27T15:26:04.000Z</time>
      </trkpt>
      <trkpt lat="40.0691716186702251434326171875" lon="-7.4829004704952239990234375">
        <ele>536.5999755859375</ele>
        <time>2019-04-27T15:26:09.000Z</time>
      </trkpt>
      <trkpt lat="40.0692245922982692718505859375" lon="-7.483051680028438568115234375">
        <ele>537.20001220703125</ele>
        <time>2019-04-27T15:26:12.000Z</time>
      </trkpt>
      <trkpt lat="40.06924630142748355865478515625" lon="-7.483186461031436920166015625">
        <ele>538</ele>
        <time>2019-04-27T15:26:14.000Z</time>
      </trkpt>
      <trkpt lat="40.06925133056938648223876953125" lon="-7.4833267740905284881591796875">
        <ele>539</ele>
        <time>2019-04-27T15:26:16.000Z</time>
      </trkpt>
      <trkpt lat="40.06931520067155361175537109375" lon="-7.483567334711551666259765625">
        <ele>539.79998779296875</ele>
        <time>2019-04-27T15:26:20.000Z</time>
      </trkpt>
      <trkpt lat="40.069503374397754669189453125" lon="-7.48375383205711841583251953125">
        <ele>540</ele>
        <time>2019-04-27T15:26:26.000Z</time>
      </trkpt>
      <trkpt lat="40.06999648176133632659912109375" lon="-7.4840489588677883148193359375">
        <ele>542.4000244140625</ele>
        <time>2019-04-27T15:26:44.000Z</time>
      </trkpt>
      <trkpt lat="40.07049671374261379241943359375" lon="-7.48428273014724254608154296875">
        <ele>544.5999755859375</ele>
        <time>2019-04-27T15:27:07.000Z</time>
      </trkpt>
      <trkpt lat="40.07093307562172412872314453125" lon="-7.48449328355491161346435546875">
        <ele>546.20001220703125</ele>
        <time>2019-04-27T15:27:30.000Z</time>
      </trkpt>
      <trkpt lat="40.07110909558832645416259765625" lon="-7.4851516820490360260009765625">
        <ele>549.4000244140625</ele>
        <time>2019-04-27T15:27:54.000Z</time>
      </trkpt>
      <trkpt lat="40.07121152244508266448974609375" lon="-7.48530448414385318756103515625">
        <ele>549.79998779296875</ele>
        <time>2019-04-27T15:28:01.000Z</time>
      </trkpt>
      <trkpt lat="40.07129542529582977294921875" lon="-7.48541847802698612213134765625">
        <ele>549.79998779296875</ele>
        <time>2019-04-27T15:28:06.000Z</time>
      </trkpt>
      <trkpt lat="40.071626342833042144775390625" lon="-7.4859881959855556488037109375">
        <ele>550.79998779296875</ele>
        <time>2019-04-27T15:28:26.000Z</time>
      </trkpt>
      <trkpt lat="40.07190101779997348785400390625" lon="-7.48663075268268585205078125">
        <ele>554.4000244140625</ele>
        <time>2019-04-27T15:28:46.000Z</time>
      </trkpt>
      <trkpt lat="40.07214778102934360504150390625" lon="-7.48725260607898235321044921875">
        <ele>554</ele>
        <time>2019-04-27T15:29:06.000Z</time>
      </trkpt>
      <trkpt lat="40.0721602700650691986083984375" lon="-7.487968839704990386962890625">
        <ele>554.4000244140625</ele>
        <time>2019-04-27T15:29:24.000Z</time>
      </trkpt>
      <trkpt lat="40.0722523033618927001953125" lon="-7.48868130147457122802734375">
        <ele>555.79998779296875</ele>
        <time>2019-04-27T15:29:41.000Z</time>
      </trkpt>
      <trkpt lat="40.07213386707007884979248046875" lon="-7.48935093171894550323486328125">
        <ele>559.79998779296875</ele>
        <time>2019-04-27T15:29:59.000Z</time>
      </trkpt>
      <trkpt lat="40.07213286124169826507568359375" lon="-7.49003070406615734100341796875">
        <ele>564</ele>
        <time>2019-04-27T15:30:19.000Z</time>
      </trkpt>
      <trkpt lat="40.07240896113216876983642578125" lon="-7.49066152609884738922119140625">
        <ele>567</ele>
        <time>2019-04-27T15:30:37.000Z</time>
      </trkpt>
      <trkpt lat="40.07270492613315582275390625" lon="-7.49126552604138851165771484375">
        <ele>572.79998779296875</ele>
        <time>2019-04-27T15:30:59.000Z</time>
      </trkpt>
      <trkpt lat="40.07299728691577911376953125" lon="-7.4918608926236629486083984375">
        <ele>578.20001220703125</ele>
        <time>2019-04-27T15:31:26.000Z</time>
      </trkpt>
      <trkpt lat="40.073078088462352752685546875" lon="-7.49210782349109649658203125">
        <ele>580.79998779296875</ele>
        <time>2019-04-27T15:31:38.000Z</time>
      </trkpt>
      <trkpt lat="40.0731483288109302520751953125" lon="-7.49236120842397212982177734375">
        <ele>583.5999755859375</ele>
        <time>2019-04-27T15:31:50.000Z</time>
      </trkpt>
      <trkpt lat="40.07330649532377719879150390625" lon="-7.4924861826002597808837890625">
        <ele>584.79998779296875</ele>
        <time>2019-04-27T15:32:01.000Z</time>
      </trkpt>
      <trkpt lat="40.07360614836215972900390625" lon="-7.4925850890576839447021484375">
        <ele>586.4000244140625</ele>
        <time>2019-04-27T15:32:19.000Z</time>
      </trkpt>
      <trkpt lat="40.07400303147733211517333984375" lon="-7.4927064590156078338623046875">
        <ele>587.79998779296875</ele>
        <time>2019-04-27T15:32:39.000Z</time>
      </trkpt>
      <trkpt lat="40.0741273351013660430908203125" lon="-7.4926883541047573089599609375">
        <ele>587.5999755859375</ele>
        <time>2019-04-27T15:32:46.000Z</time>
      </trkpt>
      <trkpt lat="40.07426999509334564208984375" lon="-7.49265859834849834442138671875">
        <ele>587.20001220703125</ele>
        <time>2019-04-27T15:32:53.000Z</time>
      </trkpt>
      <trkpt lat="40.074318945407867431640625" lon="-7.49262071214616298675537109375">
        <ele>586.5999755859375</ele>
        <time>2019-04-27T15:32:58.000Z</time>
      </trkpt>
      <trkpt lat="40.07432087324559688568115234375" lon="-7.49260009266436100006103515625">
        <ele>586.4000244140625</ele>
        <time>2019-04-27T15:34:01.000Z</time>
      </trkpt>
      <trkpt lat="40.0743097253143787384033203125" lon="-7.49256505630910396575927734375">
        <ele>585.79998779296875</ele>
        <time>2019-04-27T15:34:05.000Z</time>
      </trkpt>
      <trkpt lat="40.07432900369167327880859375" lon="-7.4925512261688709259033203125">
        <ele>585.5999755859375</ele>
        <time>2019-04-27T15:36:32.000Z</time>
      </trkpt>
      <trkpt lat="40.07437904365360736846923828125" lon="-7.492574863135814666748046875">
        <ele>586</ele>
        <time>2019-04-27T15:36:35.000Z</time>
      </trkpt>
      <trkpt lat="40.0744019262492656707763671875" lon="-7.49260864220559597015380859375">
        <ele>586.4000244140625</ele>
        <time>2019-04-27T15:36:37.000Z</time>
      </trkpt>
      <trkpt lat="40.074551291763782501220703125" lon="-7.492842413485050201416015625">
        <ele>590</ele>
        <time>2019-04-27T15:36:52.000Z</time>
      </trkpt>
      <trkpt lat="40.07494465447962284088134765625" lon="-7.493333257734775543212890625">
        <ele>596.5999755859375</ele>
        <time>2019-04-27T15:37:20.000Z</time>
      </trkpt>
      <trkpt lat="40.0751660205423831939697265625" lon="-7.49384832568466663360595703125">
        <ele>600.5999755859375</ele>
        <time>2019-04-27T15:37:48.000Z</time>
      </trkpt>
      <trkpt lat="40.0752062536776065826416015625" lon="-7.49389191158115863800048828125">
        <ele>600.79998779296875</ele>
        <time>2019-04-27T15:37:52.000Z</time>
      </trkpt>
      <trkpt lat="40.07535360753536224365234375" lon="-7.4942011199891567230224609375">
        <ele>602.5999755859375</ele>
        <time>2019-04-27T15:38:10.000Z</time>
      </trkpt>
      <trkpt lat="40.0753886438906192779541015625" lon="-7.49428401701152324676513671875">
        <ele>603.4000244140625</ele>
        <time>2019-04-27T15:38:15.000Z</time>
      </trkpt>
      <trkpt lat="40.0754513405263423919677734375" lon="-7.49488147906959056854248046875">
        <ele>609.79998779296875</ele>
        <time>2019-04-27T15:38:46.000Z</time>
      </trkpt>
      <trkpt lat="40.07539828307926654815673828125" lon="-7.494942247867584228515625">
        <ele>610.5999755859375</ele>
        <time>2019-04-27T15:38:52.000Z</time>
      </trkpt>
      <trkpt lat="40.07539107464253902435302734375" lon="-7.49495230615139007568359375">
        <ele>610.5999755859375</ele>
        <time>2019-04-27T15:38:53.000Z</time>
      </trkpt>
      <trkpt lat="40.07529384456574916839599609375" lon="-7.49499899335205554962158203125">
        <ele>611.4000244140625</ele>
        <time>2019-04-27T15:39:02.000Z</time>
      </trkpt>
      <trkpt lat="40.07530088536441326141357421875" lon="-7.4949689023196697235107421875">
        <ele>611.20001220703125</ele>
        <time>2019-04-27T15:39:15.000Z</time>
      </trkpt>
      <trkpt lat="40.075410269200801849365234375" lon="-7.494925819337368011474609375">
        <ele>610.20001220703125</ele>
        <time>2019-04-27T15:39:22.000Z</time>
      </trkpt>
      <trkpt lat="40.0754387676715850830078125" lon="-7.4949239753186702728271484375">
        <ele>610.20001220703125</ele>
        <time>2019-04-27T15:39:27.000Z</time>
      </trkpt>
      <trkpt lat="40.07551076821982860565185546875" lon="-7.49497242271900177001953125">
        <ele>610.79998779296875</ele>
        <time>2019-04-27T15:39:35.000Z</time>
      </trkpt>
      <trkpt lat="40.07554312236607074737548828125" lon="-7.4949970655143260955810546875">
        <ele>611.20001220703125</ele>
        <time>2019-04-27T15:39:38.000Z</time>
      </trkpt>
      <trkpt lat="40.0755405239760875701904296875" lon="-7.49499530531466007232666015625">
        <ele>611.20001220703125</ele>
        <time>2019-04-27T15:39:40.000Z</time>
      </trkpt>
      <trkpt lat="40.07554136216640472412109375" lon="-7.49504911713302135467529296875">
        <ele>611.79998779296875</ele>
        <time>2019-04-27T15:40:03.000Z</time>
      </trkpt>
      <trkpt lat="40.0756023824214935302734375" lon="-7.4952508695423603057861328125">
        <ele>614.4000244140625</ele>
        <time>2019-04-27T15:40:11.000Z</time>
      </trkpt>
      <trkpt lat="40.07574898190796375274658203125" lon="-7.49534524977207183837890625">
        <ele>616</ele>
        <time>2019-04-27T15:40:18.000Z</time>
      </trkpt>
      <trkpt lat="40.0762509740889072418212890625" lon="-7.4952828884124755859375">
        <ele>615.79998779296875</ele>
        <time>2019-04-27T15:40:39.000Z</time>
      </trkpt>
      <trkpt lat="40.07645322941243648529052734375" lon="-7.4955068528652191162109375">
        <ele>620</ele>
        <time>2019-04-27T15:40:46.000Z</time>
      </trkpt>
      <trkpt lat="40.076475106179714202880859375" lon="-7.49552763998508453369140625">
        <ele>620.4000244140625</ele>
        <time>2019-04-27T15:40:48.000Z</time>
      </trkpt>
      <trkpt lat="40.0765626132488250732421875" lon="-7.49535405077040195465087890625">
        <ele>619.5999755859375</ele>
        <time>2019-04-27T15:40:56.000Z</time>
      </trkpt>
      <trkpt lat="40.076772160828113555908203125" lon="-7.49511399306356906890869140625">
        <ele>619.5999755859375</ele>
        <time>2019-04-27T15:41:08.000Z</time>
      </trkpt>
      <trkpt lat="40.076850950717926025390625" lon="-7.49520468525588512420654296875">
        <ele>621.4000244140625</ele>
        <time>2019-04-27T15:41:15.000Z</time>
      </trkpt>
      <trkpt lat="40.07689076475799083709716796875" lon="-7.49535773880779743194580078125">
        <ele>623.4000244140625</ele>
        <time>2019-04-27T15:41:23.000Z</time>
      </trkpt>
      <trkpt lat="40.07687844336032867431640625" lon="-7.49544105492532253265380859375">
        <ele>624.20001220703125</ele>
        <time>2019-04-27T15:41:29.000Z</time>
      </trkpt>
      <trkpt lat="40.076965279877185821533203125" lon="-7.49545949511229991912841796875">
        <ele>625.4000244140625</ele>
        <time>2019-04-27T15:58:46.000Z</time>
      </trkpt>
      <trkpt lat="40.07695547305047512054443359375" lon="-7.4953128956258296966552734375">
        <ele>623.79998779296875</ele>
        <time>2019-04-27T15:58:52.000Z</time>
      </trkpt>
      <trkpt lat="40.07718077860772609710693359375" lon="-7.49504308216273784637451171875">
        <ele>622.5999755859375</ele>
        <time>2019-04-27T15:59:12.000Z</time>
      </trkpt>
      <trkpt lat="40.0772373564541339874267578125" lon="-7.494984827935695648193359375">
        <ele>622</ele>
        <time>2019-04-27T15:59:16.000Z</time>
      </trkpt>
      <trkpt lat="40.077415220439434051513671875" lon="-7.49487561173737049102783203125">
        <ele>620.20001220703125</ele>
        <time>2019-04-27T15:59:27.000Z</time>
      </trkpt>
      <trkpt lat="40.07747389376163482666015625" lon="-7.49484811909496784210205078125">
        <ele>619.5999755859375</ele>
        <time>2019-04-27T15:59:31.000Z</time>
      </trkpt>
      <trkpt lat="40.07772677578032016754150390625" lon="-7.4948751926422119140625">
        <ele>620.79998779296875</ele>
        <time>2019-04-27T15:59:47.000Z</time>
      </trkpt>
      <trkpt lat="40.07783138193190097808837890625" lon="-7.49490679241716861724853515625">
        <ele>621.79998779296875</ele>
        <time>2019-04-27T15:59:54.000Z</time>
      </trkpt>
      <trkpt lat="40.07793263532221317291259765625" lon="-7.49497284181416034698486328125">
        <ele>623.4000244140625</ele>
        <time>2019-04-27T16:00:01.000Z</time>
      </trkpt>
      <trkpt lat="40.07844409905374050140380859375" lon="-7.49522698111832141876220703125">
        <ele>609.20001220703125</ele>
        <time>2019-04-27T16:00:23.000Z</time>
      </trkpt>
      <trkpt lat="40.0786850787699222564697265625" lon="-7.4958533607423305511474609375">
        <ele>611.4000244140625</ele>
        <time>2019-04-27T16:00:45.000Z</time>
      </trkpt>
      <trkpt lat="40.078694634139537811279296875" lon="-7.49598554335534572601318359375">
        <ele>613.4000244140625</ele>
        <time>2019-04-27T16:00:52.000Z</time>
      </trkpt>
      <trkpt lat="40.078693293035030364990234375" lon="-7.49597162939608097076416015625">
        <ele>613.20001220703125</ele>
        <time>2019-04-27T16:00:54.000Z</time>
      </trkpt>
      <trkpt lat="40.07869505323469638824462890625" lon="-7.49596207402646541595458984375">
        <ele>612.79998779296875</ele>
        <time>2019-04-27T16:00:56.000Z</time>
      </trkpt>
      <trkpt lat="40.07872791029512882232666015625" lon="-7.4959266185760498046875">
        <ele>611.5999755859375</ele>
        <time>2019-04-27T16:01:12.000Z</time>
      </trkpt>
      <trkpt lat="40.078939385712146759033203125" lon="-7.49614161439239978790283203125">
        <ele>612</ele>
        <time>2019-04-27T16:01:19.000Z</time>
      </trkpt>
      <trkpt lat="40.079067461192607879638671875" lon="-7.4962986074388027191162109375">
        <ele>612.5999755859375</ele>
        <time>2019-04-27T16:01:23.000Z</time>
      </trkpt>
      <trkpt lat="40.0792406313121318817138671875" lon="-7.496473453938961029052734375">
        <ele>609.20001220703125</ele>
        <time>2019-04-27T16:01:27.000Z</time>
      </trkpt>
      <trkpt lat="40.07941807620227336883544921875" lon="-7.49678165651857852935791015625">
        <ele>607</ele>
        <time>2019-04-27T16:01:32.000Z</time>
      </trkpt>
      <trkpt lat="40.0795822776854038238525390625" lon="-7.49721650965511798858642578125">
        <ele>611.4000244140625</ele>
        <time>2019-04-27T16:01:38.000Z</time>
      </trkpt>
      <trkpt lat="40.079796351492404937744140625" lon="-7.49725456349551677703857421875">
        <ele>614.20001220703125</ele>
        <time>2019-04-27T16:01:42.000Z</time>
      </trkpt>
      <trkpt lat="40.0798563659191131591796875" lon="-7.49725741334259510040283203125">
        <ele>614.5999755859375</ele>
        <time>2019-04-27T16:01:43.000Z</time>
      </trkpt>
      <trkpt lat="40.08016289211809635162353515625" lon="-7.49779972247779369354248046875">
        <ele>620.5999755859375</ele>
        <time>2019-04-27T16:01:55.000Z</time>
      </trkpt>
      <trkpt lat="40.08038735948503017425537109375" lon="-7.49820875935256481170654296875">
        <ele>618.20001220703125</ele>
        <time>2019-04-27T16:02:04.000Z</time>
      </trkpt>
      <trkpt lat="40.08041820488870143890380859375" lon="-7.498445548117160797119140625">
        <ele>621.20001220703125</ele>
        <time>2019-04-27T16:02:09.000Z</time>
      </trkpt>
      <trkpt lat="40.08060461841523647308349609375" lon="-7.4984561093151569366455078125">
        <ele>624.4000244140625</ele>
        <time>2019-04-27T16:02:15.000Z</time>
      </trkpt>
      <trkpt lat="40.08077837526798248291015625" lon="-7.4984366632997989654541015625">
        <ele>627</ele>
        <time>2019-04-27T16:02:19.000Z</time>
      </trkpt>
      <trkpt lat="40.08090938441455364227294921875" lon="-7.4985308758914470672607421875">
        <ele>631.79998779296875</ele>
        <time>2019-04-27T16:02:24.000Z</time>
      </trkpt>
      <trkpt lat="40.080942325294017791748046875" lon="-7.49851905740797519683837890625">
        <ele>632.20001220703125</ele>
        <time>2019-04-27T16:02:28.000Z</time>
      </trkpt>
      <trkpt lat="40.0809760205447673797607421875" lon="-7.4984921514987945556640625">
        <ele>632</ele>
        <time>2019-04-27T16:02:54.000Z</time>
      </trkpt>
      <trkpt lat="40.0810199417173862457275390625" lon="-7.4984467215836048126220703125">
        <ele>631.5999755859375</ele>
        <time>2019-04-27T16:02:57.000Z</time>
      </trkpt>
      <trkpt lat="40.08101298473775386810302734375" lon="-7.49823222868144512176513671875">
        <ele>627.79998779296875</ele>
        <time>2019-04-27T16:03:08.000Z</time>
      </trkpt>
      <trkpt lat="40.08089714683592319488525390625" lon="-7.4979314021766185760498046875">
        <ele>623.5999755859375</ele>
        <time>2019-04-27T16:03:25.000Z</time>
      </trkpt>
      <trkpt lat="40.08088021539151668548583984375" lon="-7.497863508760929107666015625">
        <ele>622.79998779296875</ele>
        <time>2019-04-27T16:03:31.000Z</time>
      </trkpt>
      <trkpt lat="40.0814779289066791534423828125" lon="-7.49800155870616436004638671875">
        <ele>634.79998779296875</ele>
        <time>2019-04-27T16:04:55.000Z</time>
      </trkpt>
      <trkpt lat="40.08152293972671031951904296875" lon="-7.49802905134856700897216796875">
        <ele>635.79998779296875</ele>
        <time>2019-04-27T16:04:59.000Z</time>
      </trkpt>
      <trkpt lat="40.0815392844378948211669921875" lon="-7.49804615043103694915771484375">
        <ele>636.20001220703125</ele>
        <time>2019-04-27T16:05:01.000Z</time>
      </trkpt>
      <trkpt lat="40.0815627537667751312255859375" lon="-7.4981768243014812469482421875">
        <ele>638.20001220703125</ele>
        <time>2019-04-27T16:05:12.000Z</time>
      </trkpt>
      <trkpt lat="40.08157423697412014007568359375" lon="-7.4984115175902843475341796875">
        <ele>640.20001220703125</ele>
        <time>2019-04-27T16:05:31.000Z</time>
      </trkpt>
      <trkpt lat="40.08184514008462429046630859375" lon="-7.49852559529244899749755859375">
        <ele>646.79998779296875</ele>
        <time>2019-04-27T16:06:04.000Z</time>
      </trkpt>
      <trkpt lat="40.0818680226802825927734375" lon="-7.49851671047508716583251953125">
        <ele>647.20001220703125</ele>
        <time>2019-04-27T16:07:21.000Z</time>
      </trkpt>
      <trkpt lat="40.08233631961047649383544921875" lon="-7.4987494759261608123779296875">
        <ele>659.20001220703125</ele>
        <time>2019-04-27T16:07:53.000Z</time>
      </trkpt>
      <trkpt lat="40.08267712779343128204345703125" lon="-7.49928147532045841217041015625">
        <ele>671.5999755859375</ele>
        <time>2019-04-27T16:08:43.000Z</time>
      </trkpt>
      <trkpt lat="40.08287946693599224090576171875" lon="-7.4994572438299655914306640625">
        <ele>679</ele>
        <time>2019-04-27T16:09:05.000Z</time>
      </trkpt>
      <trkpt lat="40.08312136866152286529541015625" lon="-7.49936127103865146636962890625">
        <ele>683.79998779296875</ele>
        <time>2019-04-27T16:09:37.000Z</time>
      </trkpt>
      <trkpt lat="40.0831097178161144256591796875" lon="-7.49931852333247661590576171875">
        <ele>683.20001220703125</ele>
        <time>2019-04-27T16:09:43.000Z</time>
      </trkpt>
      <trkpt lat="40.08342169225215911865234375" lon="-7.49886204488575458526611328125">
        <ele>682.5999755859375</ele>
        <time>2019-04-27T16:10:13.000Z</time>
      </trkpt>
      <trkpt lat="40.08389954455196857452392578125" lon="-7.4985395930707454681396484375">
        <ele>683.79998779296875</ele>
        <time>2019-04-27T16:10:43.000Z</time>
      </trkpt>
      <trkpt lat="40.0844048894941806793212890625" lon="-7.49873883090913295745849609375">
        <ele>685.79998779296875</ele>
        <time>2019-04-27T16:11:15.000Z</time>
      </trkpt>
      <trkpt lat="40.0846208073198795318603515625" lon="-7.4989590235054492950439453125">
        <ele>685.5999755859375</ele>
        <time>2019-04-27T16:11:32.000Z</time>
      </trkpt>
      <trkpt lat="40.0846345536410808563232421875" lon="-7.49964374117553234100341796875">
        <ele>690.20001220703125</ele>
        <time>2019-04-27T16:12:08.000Z</time>
      </trkpt>
      <trkpt lat="40.0846251659095287322998046875" lon="-7.4997874908149242401123046875">
        <ele>691</ele>
        <time>2019-04-27T16:12:16.000Z</time>
      </trkpt>
      <trkpt lat="40.084716193377971649169921875" lon="-7.5004912354052066802978515625">
        <ele>698.79998779296875</ele>
        <time>2019-04-27T16:12:52.000Z</time>
      </trkpt>
      <trkpt lat="40.084734298288822174072265625" lon="-7.50081268139183521270751953125">
        <ele>702.20001220703125</ele>
        <time>2019-04-27T16:13:08.000Z</time>
      </trkpt>
      <trkpt lat="40.08475047536194324493408203125" lon="-7.50094410963356494903564453125">
        <ele>703.79998779296875</ele>
        <time>2019-04-27T16:13:16.000Z</time>
      </trkpt>
      <trkpt lat="40.08475005626678466796875" lon="-7.5010461173951625823974609375">
        <ele>705</ele>
        <time>2019-04-27T16:13:22.000Z</time>
      </trkpt>
      <trkpt lat="40.08477025665342807769775390625" lon="-7.50111727975308895111083984375">
        <ele>706</ele>
        <time>2019-04-27T16:13:26.000Z</time>
      </trkpt>
      <trkpt lat="40.08475751616060733795166015625" lon="-7.50124133192002773284912109375">
        <ele>707.4000244140625</ele>
        <time>2019-04-27T16:13:32.000Z</time>
      </trkpt>
      <trkpt lat="40.0849163532257080078125" lon="-7.501766122877597808837890625">
        <ele>715.79998779296875</ele>
        <time>2019-04-27T16:14:07.000Z</time>
      </trkpt>
      <trkpt lat="40.08546545170247554779052734375" lon="-7.50172262080013751983642578125">
        <ele>724</ele>
        <time>2019-04-27T16:14:39.000Z</time>
      </trkpt>
      <trkpt lat="40.08595461957156658172607421875" lon="-7.5014906935393810272216796875">
        <ele>734.5999755859375</ele>
        <time>2019-04-27T16:15:10.000Z</time>
      </trkpt>
      <trkpt lat="40.0862467288970947265625" lon="-7.5012601912021636962890625">
        <ele>739.20001220703125</ele>
        <time>2019-04-27T16:15:33.000Z</time>
      </trkpt>
      <trkpt lat="40.08626089431345462799072265625" lon="-7.50124250538647174835205078125">
        <ele>739.20001220703125</ele>
        <time>2019-04-27T16:15:37.000Z</time>
      </trkpt>
      <trkpt lat="40.08632644079625606536865234375" lon="-7.50120327807962894439697265625">
        <ele>738.79998779296875</ele>
        <time>2019-04-27T16:15:43.000Z</time>
      </trkpt>
      <trkpt lat="40.08682231418788433074951171875" lon="-7.50096179544925689697265625">
        <ele>736.4000244140625</ele>
        <time>2019-04-27T16:16:32.000Z</time>
      </trkpt>
      <trkpt lat="40.08700805716216564178466796875" lon="-7.5009089894592761993408203125">
        <ele>736</ele>
        <time>2019-04-27T16:16:49.000Z</time>
      </trkpt>
      <trkpt lat="40.08705197833478450775146484375" lon="-7.50091041438281536102294921875">
        <ele>736.4000244140625</ele>
        <time>2019-04-27T16:16:54.000Z</time>
      </trkpt>
      <trkpt lat="40.0870656408369541168212890625" lon="-7.5009146891534328460693359375">
        <ele>736.5999755859375</ele>
        <time>2019-04-27T16:16:58.000Z</time>
      </trkpt>
      <trkpt lat="40.0871357135474681854248046875" lon="-7.50093053095042705535888671875">
        <ele>737.79998779296875</ele>
        <time>2019-04-27T16:17:21.000Z</time>
      </trkpt>
      <trkpt lat="40.0873003341257572174072265625" lon="-7.5009673275053501129150390625">
        <ele>740.79998779296875</ele>
        <time>2019-04-27T16:17:33.000Z</time>
      </trkpt>
      <trkpt lat="40.0873625278472900390625" lon="-7.50102507881820201873779296875">
        <ele>743</ele>
        <time>2019-04-27T16:19:45.000Z</time>
      </trkpt>
      <trkpt lat="40.0876406393945217132568359375" lon="-7.5015096366405487060546875">
        <ele>756.5999755859375</ele>
        <time>2019-04-27T16:20:16.000Z</time>
      </trkpt>
      <trkpt lat="40.08769176900386810302734375" lon="-7.5015284121036529541015625">
        <ele>757.4000244140625</ele>
        <time>2019-04-27T16:20:20.000Z</time>
      </trkpt>
      <trkpt lat="40.08770492859184741973876953125" lon="-7.5015225447714328765869140625">
        <ele>757.4000244140625</ele>
        <time>2019-04-27T16:20:21.000Z</time>
      </trkpt>
      <trkpt lat="40.08775656111538410186767578125" lon="-7.50149697996675968170166015625">
        <ele>757.20001220703125</ele>
        <time>2019-04-27T16:20:25.000Z</time>
      </trkpt>
      <trkpt lat="40.08780777454376220703125" lon="-7.50147082842886447906494140625">
        <ele>757.20001220703125</ele>
        <time>2019-04-27T16:20:29.000Z</time>
      </trkpt>
      <trkpt lat="40.08785270154476165771484375" lon="-7.5014343671500682830810546875">
        <ele>756.79998779296875</ele>
        <time>2019-04-27T16:20:34.000Z</time>
      </trkpt>
      <trkpt lat="40.0878991372883319854736328125" lon="-7.501414753496646881103515625">
        <ele>756.79998779296875</ele>
        <time>2019-04-27T16:20:38.000Z</time>
      </trkpt>
      <trkpt lat="40.08790911175310611724853515625" lon="-7.5014095567166805267333984375">
        <ele>756.79998779296875</ele>
        <time>2019-04-27T16:20:41.000Z</time>
      </trkpt>
      <trkpt lat="40.08792386390268802642822265625" lon="-7.50138147734105587005615234375">
        <ele>756.4000244140625</ele>
        <time>2019-04-27T16:21:44.000Z</time>
      </trkpt>
      <trkpt lat="40.08824623189866542816162109375" lon="-7.50080488622188568115234375">
        <ele>751.20001220703125</ele>
        <time>2019-04-27T16:22:02.000Z</time>
      </trkpt>
      <trkpt lat="40.088231228291988372802734375" lon="-7.50076456926763057708740234375">
        <ele>750.4000244140625</ele>
        <time>2019-04-27T16:22:03.000Z</time>
      </trkpt>
      <trkpt lat="40.0882927514612674713134765625" lon="-7.500316388905048370361328125">
        <ele>746.20001220703125</ele>
        <time>2019-04-27T16:22:17.000Z</time>
      </trkpt>
      <trkpt lat="40.08832921274006366729736328125" lon="-7.50027917325496673583984375">
        <ele>746.4000244140625</ele>
        <time>2019-04-27T16:22:18.000Z</time>
      </trkpt>
      <trkpt lat="40.08855275809764862060546875" lon="-7.50016526319086551666259765625">
        <ele>748</ele>
        <time>2019-04-27T16:22:22.000Z</time>
      </trkpt>
      <trkpt lat="40.08879625238478183746337890625" lon="-7.500065602362155914306640625">
        <ele>750.5999755859375</ele>
        <time>2019-04-27T16:22:26.000Z</time>
      </trkpt>
      <trkpt lat="40.08890454657375812530517578125" lon="-7.49986200593411922454833984375">
        <ele>749.5999755859375</ele>
        <time>2019-04-27T16:22:30.000Z</time>
      </trkpt>
      <trkpt lat="40.088935978710651397705078125" lon="-7.4998176656663417816162109375">
        <ele>749.79998779296875</ele>
        <time>2019-04-27T16:22:31.000Z</time>
      </trkpt>
      <trkpt lat="40.0891735218465328216552734375" lon="-7.4994937889277935028076171875">
        <ele>750.5999755859375</ele>
        <time>2019-04-27T16:22:37.000Z</time>
      </trkpt>
      <trkpt lat="40.08922087959945201873779296875" lon="-7.4992885999381542205810546875">
        <ele>750.20001220703125</ele>
        <time>2019-04-27T16:22:43.000Z</time>
      </trkpt>
      <trkpt lat="40.08923395536839962005615234375" lon="-7.49893764965236186981201171875">
        <ele>751</ele>
        <time>2019-04-27T16:23:10.000Z</time>
      </trkpt>
      <trkpt lat="40.089246444404125213623046875" lon="-7.498919628560543060302734375">
        <ele>751.20001220703125</ele>
        <time>2019-04-27T16:23:12.000Z</time>
      </trkpt>
      <trkpt lat="40.089265219867229461669921875" lon="-7.49891216866672039031982421875">
        <ele>751.4000244140625</ele>
        <time>2019-04-27T16:23:14.000Z</time>
      </trkpt>
      <trkpt lat="40.0892821513116359710693359375" lon="-7.49903462827205657958984375">
        <ele>751</ele>
        <time>2019-04-27T16:23:22.000Z</time>
      </trkpt>
      <trkpt lat="40.08973351679742336273193359375" lon="-7.498917616903781890869140625">
        <ele>755.79998779296875</ele>
        <time>2019-04-27T16:24:11.000Z</time>
      </trkpt>
      <trkpt lat="40.08996183983981609344482421875" lon="-7.49880504794418811798095703125">
        <ele>759</ele>
        <time>2019-04-27T16:24:38.000Z</time>
      </trkpt>
      <trkpt lat="40.0899952836334705352783203125" lon="-7.49878509901463985443115234375">
        <ele>759.5999755859375</ele>
        <time>2019-04-27T16:24:50.000Z</time>
      </trkpt>
      <trkpt lat="40.09005420841276645660400390625" lon="-7.49875358305871486663818359375">
        <ele>760.4000244140625</ele>
        <time>2019-04-27T16:24:56.000Z</time>
      </trkpt>
      <trkpt lat="40.0900780968368053436279296875" lon="-7.4987280182540416717529296875">
        <ele>760.79998779296875</ele>
        <time>2019-04-27T16:25:38.000Z</time>
      </trkpt>
      <trkpt lat="40.09049358777701854705810546875" lon="-7.49847781844437122344970703125">
        <ele>767</ele>
        <time>2019-04-27T16:26:05.000Z</time>
      </trkpt>
      <trkpt lat="40.090536586940288543701171875" lon="-7.4984212405979633331298828125">
        <ele>768.20001220703125</ele>
        <time>2019-04-27T16:26:19.000Z</time>
      </trkpt>
      <trkpt lat="40.090764574706554412841796875" lon="-7.4981416203081607818603515625">
        <ele>775.5999755859375</ele>
        <time>2019-04-27T16:26:52.000Z</time>
      </trkpt>
      <trkpt lat="40.0908431969583034515380859375" lon="-7.49814589507877826690673828125">
        <ele>776.79998779296875</ele>
        <time>2019-04-27T16:27:00.000Z</time>
      </trkpt>
      <trkpt lat="40.09137217886745929718017578125" lon="-7.49801530502736568450927734375">
        <ele>787.4000244140625</ele>
        <time>2019-04-27T16:27:53.000Z</time>
      </trkpt>
      <trkpt lat="40.0916012562811374664306640625" lon="-7.4980356730520725250244140625">
        <ele>790</ele>
        <time>2019-04-27T16:28:14.000Z</time>
      </trkpt>
      <trkpt lat="40.09164400398731231689453125" lon="-7.49805972911417484283447265625">
        <ele>790.20001220703125</ele>
        <time>2019-04-27T16:28:18.000Z</time>
      </trkpt>
      <trkpt lat="40.0917135737836360931396484375" lon="-7.49804162420332431793212890625">
        <ele>791.4000244140625</ele>
        <time>2019-04-27T16:28:27.000Z</time>
      </trkpt>
      <trkpt lat="40.09180954657495021820068359375" lon="-7.4980128742754459381103515625">
        <ele>793.20001220703125</ele>
        <time>2019-04-27T16:28:44.000Z</time>
      </trkpt>
      <trkpt lat="40.092051364481449127197265625" lon="-7.497916482388973236083984375">
        <ele>797.79998779296875</ele>
        <time>2019-04-27T16:29:05.000Z</time>
      </trkpt>
      <trkpt lat="40.09209654293954372406005859375" lon="-7.4977915920317173004150390625">
        <ele>800.4000244140625</ele>
        <time>2019-04-27T16:29:15.000Z</time>
      </trkpt>
      <trkpt lat="40.0920706428587436676025390625" lon="-7.49766577966511249542236328125">
        <ele>802</ele>
        <time>2019-04-27T16:29:25.000Z</time>
      </trkpt>
      <trkpt lat="40.0919211097061634063720703125" lon="-7.49740443192422389984130859375">
        <ele>803.5999755859375</ele>
        <time>2019-04-27T16:29:53.000Z</time>
      </trkpt>
      <trkpt lat="40.0919408909976482391357421875" lon="-7.4973577447235584259033203125">
        <ele>804.4000244140625</ele>
        <time>2019-04-27T16:31:11.000Z</time>
      </trkpt>
      <trkpt lat="40.09201037697494029998779296875" lon="-7.49728381633758544921875">
        <ele>806.20001220703125</ele>
        <time>2019-04-27T16:31:17.000Z</time>
      </trkpt>
      <trkpt lat="40.0924971140921115875244140625" lon="-7.4973181821405887603759765625">
        <ele>814.79998779296875</ele>
        <time>2019-04-27T16:31:51.000Z</time>
      </trkpt>
      <trkpt lat="40.09273222647607326507568359375" lon="-7.4970571696758270263671875">
        <ele>822.79998779296875</ele>
        <time>2019-04-27T16:32:14.000Z</time>
      </trkpt>
      <trkpt lat="40.0929557718336582183837890625" lon="-7.49712481163442134857177734375">
        <ele>825.79998779296875</ele>
        <time>2019-04-27T16:32:31.000Z</time>
      </trkpt>
      <trkpt lat="40.0932253338396549224853515625" lon="-7.497135289013385772705078125">
        <ele>830.5999755859375</ele>
        <time>2019-04-27T16:33:22.000Z</time>
      </trkpt>
      <trkpt lat="40.093214772641658782958984375" lon="-7.497075609862804412841796875">
        <ele>831.20001220703125</ele>
        <time>2019-04-27T16:33:26.000Z</time>
      </trkpt>
      <trkpt lat="40.0932011939585208892822265625" lon="-7.49681786634027957916259765625">
        <ele>834.5999755859375</ele>
        <time>2019-04-27T16:33:48.000Z</time>
      </trkpt>
      <trkpt lat="40.09319591335952281951904296875" lon="-7.49681954272091388702392578125">
        <ele>834.5999755859375</ele>
        <time>2019-04-27T16:33:49.000Z</time>
      </trkpt>
      <trkpt lat="40.09352155029773712158203125" lon="-7.4968239851295948028564453125">
        <ele>840.4000244140625</ele>
        <time>2019-04-27T16:34:21.000Z</time>
      </trkpt>
      <trkpt lat="40.09356672875583171844482421875" lon="-7.4968474544584751129150390625">
        <ele>840.79998779296875</ele>
        <time>2019-04-27T16:34:25.000Z</time>
      </trkpt>
      <trkpt lat="40.09358148090541362762451171875" lon="-7.49686262570321559906005859375">
        <ele>840.79998779296875</ele>
        <time>2019-04-27T16:34:27.000Z</time>
      </trkpt>
      <trkpt lat="40.0936246477067470550537109375" lon="-7.49683110974729061126708984375">
        <ele>842</ele>
        <time>2019-04-27T16:34:33.000Z</time>
      </trkpt>
      <trkpt lat="40.09349531494081020355224609375" lon="-7.49653958715498447418212890625">
        <ele>844.4000244140625</ele>
        <time>2019-04-27T16:35:08.000Z</time>
      </trkpt>
      <trkpt lat="40.0934902019798755645751953125" lon="-7.49648091383278369903564453125">
        <ele>845.4000244140625</ele>
        <time>2019-04-27T16:35:18.000Z</time>
      </trkpt>
      <trkpt lat="40.09347888641059398651123046875" lon="-7.496364153921604156494140625">
        <ele>847.20001220703125</ele>
        <time>2019-04-27T16:35:24.000Z</time>
      </trkpt>
      <trkpt lat="40.0934819877147674560546875" lon="-7.49634345062077045440673828125">
        <ele>847.5999755859375</ele>
        <time>2019-04-27T16:35:25.000Z</time>
      </trkpt>
      <trkpt lat="40.09350738488137722015380859375" lon="-7.49623834155499935150146484375">
        <ele>850</ele>
        <time>2019-04-27T16:35:31.000Z</time>
      </trkpt>
      <trkpt lat="40.09345139376819133758544921875" lon="-7.495811283588409423828125">
        <ele>855</ele>
        <time>2019-04-27T16:35:53.000Z</time>
      </trkpt>
      <trkpt lat="40.09302693419158458709716796875" lon="-7.49544306658208370208740234375">
        <ele>852.20001220703125</ele>
        <time>2019-04-27T16:36:26.000Z</time>
      </trkpt>
      <trkpt lat="40.092775560915470123291015625" lon="-7.49510058201849460601806640625">
        <ele>855.20001220703125</ele>
        <time>2019-04-27T16:36:46.000Z</time>
      </trkpt>
      <trkpt lat="40.092734992504119873046875" lon="-7.49503788538277149200439453125">
        <ele>855.20001220703125</ele>
        <time>2019-04-27T16:36:50.000Z</time>
      </trkpt>
      <trkpt lat="40.0926607288420200347900390625" lon="-7.4949554912745952606201171875">
        <ele>854.4000244140625</ele>
        <time>2019-04-27T16:36:56.000Z</time>
      </trkpt>
      <trkpt lat="40.0926624052226543426513671875" lon="-7.49483906663954257965087890625">
        <ele>855</ele>
        <time>2019-04-27T16:37:03.000Z</time>
      </trkpt>
      <trkpt lat="40.09270372800529003143310546875" lon="-7.49477050267159938812255859375">
        <ele>856.20001220703125</ele>
        <time>2019-04-27T16:37:10.000Z</time>
      </trkpt>
      <trkpt lat="40.092735998332500457763671875" lon="-7.4947316944599151611328125">
        <ele>857</ele>
        <time>2019-04-27T16:37:18.000Z</time>
      </trkpt>
      <trkpt lat="40.09275586344301700592041015625" lon="-7.49470956623554229736328125">
        <ele>857.5999755859375</ele>
        <time>2019-04-27T16:37:22.000Z</time>
      </trkpt>
      <trkpt lat="40.0927884690463542938232421875" lon="-7.49468383379280567169189453125">
        <ele>858.4000244140625</ele>
        <time>2019-04-27T16:38:25.000Z</time>
      </trkpt>
      <trkpt lat="40.0928471423685550689697265625" lon="-7.4946014396846294403076171875">
        <ele>860</ele>
        <time>2019-04-27T16:38:31.000Z</time>
      </trkpt>
      <trkpt lat="40.09286046959459781646728515625" lon="-7.49459062702953815460205078125">
        <ele>860.4000244140625</ele>
        <time>2019-04-27T16:38:32.000Z</time>
      </trkpt>
      <trkpt lat="40.0928924046456813812255859375" lon="-7.49451150186359882354736328125">
        <ele>861.4000244140625</ele>
        <time>2019-04-27T16:38:36.000Z</time>
      </trkpt>
      <trkpt lat="40.09291025809943675994873046875" lon="-7.4944304488599300384521484375">
        <ele>862.20001220703125</ele>
        <time>2019-04-27T16:38:40.000Z</time>
      </trkpt>
      <trkpt lat="40.09295099414885044097900390625" lon="-7.494239173829555511474609375">
        <ele>864</ele>
        <time>2019-04-27T16:38:53.000Z</time>
      </trkpt>
      <trkpt lat="40.09280045516788959503173828125" lon="-7.4935607425868511199951171875">
        <ele>864.20001220703125</ele>
        <time>2019-04-27T16:39:21.000Z</time>
      </trkpt>
      <trkpt lat="40.0928424485027790069580078125" lon="-7.4934732355177402496337890625">
        <ele>865.79998779296875</ele>
        <time>2019-04-27T16:39:25.000Z</time>
      </trkpt>
      <trkpt lat="40.09298770688474178314208984375" lon="-7.4935661070048809051513671875">
        <ele>868.79998779296875</ele>
        <time>2019-04-27T16:39:35.000Z</time>
      </trkpt>
      <trkpt lat="40.09314511902630329132080078125" lon="-7.493674568831920623779296875">
        <ele>871.79998779296875</ele>
        <time>2019-04-27T16:39:47.000Z</time>
      </trkpt>
      <trkpt lat="40.0934928841888904571533203125" lon="-7.4936888180673122406005859375">
        <ele>879.4000244140625</ele>
        <time>2019-04-27T16:40:12.000Z</time>
      </trkpt>
      <trkpt lat="40.0935570895671844482421875" lon="-7.49369510449469089508056640625">
        <ele>880.5999755859375</ele>
        <time>2019-04-27T16:40:17.000Z</time>
      </trkpt>
      <trkpt lat="40.09394533932209014892578125" lon="-7.49374019913375377655029296875">
        <ele>889</ele>
        <time>2019-04-27T16:40:44.000Z</time>
      </trkpt>
      <trkpt lat="40.09402052499353885650634765625" lon="-7.49378378503024578094482421875">
        <ele>890.5999755859375</ele>
        <time>2019-04-27T16:40:52.000Z</time>
      </trkpt>
      <trkpt lat="40.0940782763063907623291015625" lon="-7.49379694461822509765625">
        <ele>892.20001220703125</ele>
        <time>2019-04-27T16:40:58.000Z</time>
      </trkpt>
      <trkpt lat="40.09459150023758411407470703125" lon="-7.49399081803858280181884765625">
        <ele>895</ele>
        <time>2019-04-27T16:41:52.000Z</time>
      </trkpt>
      <trkpt lat="40.09469233453273773193359375" lon="-7.494036667048931121826171875">
        <ele>895.5999755859375</ele>
        <time>2019-04-27T16:42:04.000Z</time>
      </trkpt>
      <trkpt lat="40.09509324096143245697021484375" lon="-7.49423682689666748046875">
        <ele>900</ele>
        <time>2019-04-27T16:42:48.000Z</time>
      </trkpt>
      <trkpt lat="40.09547042660415172576904296875" lon="-7.49438912607729434967041015625">
        <ele>907</ele>
        <time>2019-04-27T16:43:41.000Z</time>
      </trkpt>
      <trkpt lat="40.09599865414202213287353515625" lon="-7.49454251490533351898193359375">
        <ele>913</ele>
        <time>2019-04-27T16:44:41.000Z</time>
      </trkpt>
      <trkpt lat="40.0962569005787372589111328125" lon="-7.4944626353681087493896484375">
        <ele>914.5999755859375</ele>
        <time>2019-04-27T16:45:11.000Z</time>
      </trkpt>
      <trkpt lat="40.09638338349759578704833984375" lon="-7.494066171348094940185546875">
        <ele>922.20001220703125</ele>
        <time>2019-04-27T16:46:01.000Z</time>
      </trkpt>
      <trkpt lat="40.09597099386155605316162109375" lon="-7.49324717558920383453369140625">
        <ele>933.4000244140625</ele>
        <time>2019-04-27T16:49:56.000Z</time>
      </trkpt>
      <trkpt lat="40.0959199480712413787841796875" lon="-7.49315028078854084014892578125">
        <ele>934.4000244140625</ele>
        <time>2019-04-27T16:50:01.000Z</time>
      </trkpt>
      <trkpt lat="40.095832608640193939208984375" lon="-7.4930082075297832489013671875">
        <ele>936</ele>
        <time>2019-04-27T16:50:05.000Z</time>
      </trkpt>
      <trkpt lat="40.0954936444759368896484375" lon="-7.492462210357189178466796875">
        <ele>942.20001220703125</ele>
        <time>2019-04-27T16:50:33.000Z</time>
      </trkpt>
      <trkpt lat="40.0953731127083301544189453125" lon="-7.49177581630647182464599609375">
        <ele>945</ele>
        <time>2019-04-27T16:51:11.000Z</time>
      </trkpt>
      <trkpt lat="40.09528434835374355316162109375" lon="-7.4910756759345531463623046875">
        <ele>943</ele>
        <time>2019-04-27T16:51:46.000Z</time>
      </trkpt>
      <trkpt lat="40.095283091068267822265625" lon="-7.4910525418817996978759765625">
        <ele>943</ele>
        <time>2019-04-27T16:51:49.000Z</time>
      </trkpt>
      <trkpt lat="40.09529222734272480010986328125" lon="-7.491017170250415802001953125">
        <ele>943.20001220703125</ele>
        <time>2019-04-27T16:52:17.000Z</time>
      </trkpt>
      <trkpt lat="40.095411837100982666015625" lon="-7.4909231252968311309814453125">
        <ele>945.5999755859375</ele>
        <time>2019-04-27T16:52:23.000Z</time>
      </trkpt>
      <trkpt lat="40.0956567563116550445556640625" lon="-7.49069354496896266937255859375">
        <ele>951.4000244140625</ele>
        <time>2019-04-27T16:52:41.000Z</time>
      </trkpt>
      <trkpt lat="40.09554603137075901031494140625" lon="-7.49043068848550319671630859375">
        <ele>947.79998779296875</ele>
        <time>2019-04-27T16:52:51.000Z</time>
      </trkpt>
      <trkpt lat="40.09564644657075405120849609375" lon="-7.4901938997209072113037109375">
        <ele>949.79998779296875</ele>
        <time>2019-04-27T16:52:56.000Z</time>
      </trkpt>
      <trkpt lat="40.0959611870348453521728515625" lon="-7.4896279536187648773193359375">
        <ele>957.79998779296875</ele>
        <time>2019-04-27T16:53:24.000Z</time>
      </trkpt>
      <trkpt lat="40.09614567272365093231201171875" lon="-7.4891776777803897857666015625">
        <ele>963</ele>
        <time>2019-04-27T16:53:52.000Z</time>
      </trkpt>
      <trkpt lat="40.09614818729460239410400390625" lon="-7.4891632609069347381591796875">
        <ele>963.20001220703125</ele>
        <time>2019-04-27T16:53:55.000Z</time>
      </trkpt>
      <trkpt lat="40.096169225871562957763671875" lon="-7.48913333751261234283447265625">
        <ele>963.5999755859375</ele>
        <time>2019-04-27T16:54:19.000Z</time>
      </trkpt>
      <trkpt lat="40.09618590585887432098388671875" lon="-7.48901280574500560760498046875">
        <ele>964</ele>
        <time>2019-04-27T16:54:26.000Z</time>
      </trkpt>
      <trkpt lat="40.0963105447590351104736328125" lon="-7.4883331172168254852294921875">
        <ele>967.20001220703125</ele>
        <time>2019-04-27T16:54:55.000Z</time>
      </trkpt>
      <trkpt lat="40.0963331758975982666015625" lon="-7.48825575225055217742919921875">
        <ele>966.79998779296875</ele>
        <time>2019-04-27T16:54:59.000Z</time>
      </trkpt>
      <trkpt lat="40.0963487662374973297119140625" lon="-7.48782726936042308807373046875">
        <ele>962.5999755859375</ele>
        <time>2019-04-27T16:55:11.000Z</time>
      </trkpt>
      <trkpt lat="40.09643702767789363861083984375" lon="-7.48759475536644458770751953125">
        <ele>962.20001220703125</ele>
        <time>2019-04-27T16:55:24.000Z</time>
      </trkpt>
      <trkpt lat="40.09668932296335697174072265625" lon="-7.48760900460183620452880859375">
        <ele>968.4000244140625</ele>
        <time>2019-04-27T16:55:53.000Z</time>
      </trkpt>
      <trkpt lat="40.09684723801910877227783203125" lon="-7.4876364134252071380615234375">
        <ele>972.4000244140625</ele>
        <time>2019-04-27T16:56:05.000Z</time>
      </trkpt>
      <trkpt lat="40.09722299873828887939453125" lon="-7.4872716329991817474365234375">
        <ele>975.4000244140625</ele>
        <time>2019-04-27T16:56:47.000Z</time>
      </trkpt>
      <trkpt lat="40.09727521799504756927490234375" lon="-7.4872313998639583587646484375">
        <ele>975.20001220703125</ele>
        <time>2019-04-27T16:56:55.000Z</time>
      </trkpt>
      <trkpt lat="40.09748057462275028228759765625" lon="-7.487072311341762542724609375">
        <ele>975</ele>
        <time>2019-04-27T16:57:02.000Z</time>
      </trkpt>
      <trkpt lat="40.09750806726515293121337890625" lon="-7.48702906072139739990234375">
        <ele>974.79998779296875</ele>
        <time>2019-04-27T16:57:03.000Z</time>
      </trkpt>
      <trkpt lat="40.097903273999691009521484375" lon="-7.48650007881224155426025390625">
        <ele>971</ele>
        <time>2019-04-27T16:57:20.000Z</time>
      </trkpt>
      <trkpt lat="40.09841658174991607666015625" lon="-7.48608550988137722015380859375">
        <ele>971.20001220703125</ele>
        <time>2019-04-27T16:57:29.000Z</time>
      </trkpt>
      <trkpt lat="40.09856653399765491485595703125" lon="-7.48597771860659122467041015625">
        <ele>971.5999755859375</ele>
        <time>2019-04-27T16:57:32.000Z</time>
      </trkpt>
      <trkpt lat="40.098685137927532196044921875" lon="-7.48584084212779998779296875">
        <ele>971</ele>
        <time>2019-04-27T16:57:36.000Z</time>
      </trkpt>
      <trkpt lat="40.09884037077426910400390625" lon="-7.48516282998025417327880859375">
        <ele>970.79998779296875</ele>
        <time>2019-04-27T16:58:02.000Z</time>
      </trkpt>
      <trkpt lat="40.09903273545205593109130859375" lon="-7.48484230600297451019287109375">
        <ele>969.20001220703125</ele>
        <time>2019-04-27T16:58:14.000Z</time>
      </trkpt>
      <trkpt lat="40.09939366020262241363525390625" lon="-7.4852930009365081787109375">
        <ele>974.4000244140625</ele>
        <time>2019-04-27T16:58:39.000Z</time>
      </trkpt>
      <trkpt lat="40.09950497187674045562744140625" lon="-7.485383860766887664794921875">
        <ele>976.5999755859375</ele>
        <time>2019-04-27T16:58:48.000Z</time>
      </trkpt>
      <trkpt lat="40.09955492801964282989501953125" lon="-7.48570346273481845855712890625">
        <ele>980.20001220703125</ele>
        <time>2019-04-27T16:59:03.000Z</time>
      </trkpt>
      <trkpt lat="40.09948787279427051544189453125" lon="-7.4859027005732059478759765625">
        <ele>981.5999755859375</ele>
        <time>2019-04-27T16:59:13.000Z</time>
      </trkpt>
      <trkpt lat="40.09948133490979671478271484375" lon="-7.48606472276151180267333984375">
        <ele>983.5999755859375</ele>
        <time>2019-04-27T16:59:21.000Z</time>
      </trkpt>
      <trkpt lat="40.09949348866939544677734375" lon="-7.48607981018722057342529296875">
        <ele>984</ele>
        <time>2019-04-27T16:59:22.000Z</time>
      </trkpt>
      <trkpt lat="40.09964813478291034698486328125" lon="-7.486063130199909210205078125">
        <ele>985.79998779296875</ele>
        <time>2019-04-27T16:59:32.000Z</time>
      </trkpt>
      <trkpt lat="40.09990462101995944976806640625" lon="-7.48593094758689403533935546875">
        <ele>986</ele>
        <time>2019-04-27T16:59:50.000Z</time>
      </trkpt>
      <trkpt lat="40.09996346198022365570068359375" lon="-7.48591125011444091796875">
        <ele>986.20001220703125</ele>
        <time>2019-04-27T16:59:54.000Z</time>
      </trkpt>
      <trkpt lat="40.1001937128603458404541015625" lon="-7.48588769696652889251708984375">
        <ele>987.79998779296875</ele>
        <time>2019-04-27T17:00:09.000Z</time>
      </trkpt>
      <trkpt lat="40.1002148352563381195068359375" lon="-7.48589876107871532440185546875">
        <ele>988.20001220703125</ele>
        <time>2019-04-27T17:00:11.000Z</time>
      </trkpt>
      <trkpt lat="40.100285075604915618896484375" lon="-7.48590395785868167877197265625">
        <ele>988.79998779296875</ele>
        <time>2019-04-27T17:00:15.000Z</time>
      </trkpt>
      <trkpt lat="40.10033729486167430877685546875" lon="-7.4859402514994144439697265625">
        <ele>989.79998779296875</ele>
        <time>2019-04-27T17:00:18.000Z</time>
      </trkpt>
      <trkpt lat="40.100749097764492034912109375" lon="-7.48585031367838382720947265625">
        <ele>995.4000244140625</ele>
        <time>2019-04-27T17:00:38.000Z</time>
      </trkpt>
      <trkpt lat="40.101022012531757354736328125" lon="-7.4856411851942539215087890625">
        <ele>996.5999755859375</ele>
        <time>2019-04-27T17:00:55.000Z</time>
      </trkpt>
      <trkpt lat="40.10108278132975101470947265625" lon="-7.48562157154083251953125">
        <ele>997.4000244140625</ele>
        <time>2019-04-27T17:02:04.000Z</time>
      </trkpt>
      <trkpt lat="40.10157681070268154144287109375" lon="-7.48535427264869213104248046875">
        <ele>1000.4000244140625</ele>
        <time>2019-04-27T17:02:31.000Z</time>
      </trkpt>
      <trkpt lat="40.10177202522754669189453125" lon="-7.48515344224870204925537109375">
        <ele>999.20001220703125</ele>
        <time>2019-04-27T17:02:47.000Z</time>
      </trkpt>
      <trkpt lat="40.10191552340984344482421875" lon="-7.48506928794085979461669921875">
        <ele>999.79998779296875</ele>
        <time>2019-04-27T17:02:59.000Z</time>
      </trkpt>
      <trkpt lat="40.10225892998278141021728515625" lon="-7.485047914087772369384765625">
        <ele>1003</ele>
        <time>2019-04-27T17:03:19.000Z</time>
      </trkpt>
      <trkpt lat="40.10236973874270915985107421875" lon="-7.48495445586740970611572265625">
        <ele>1002.20001220703125</ele>
        <time>2019-04-27T17:03:25.000Z</time>
      </trkpt>
      <trkpt lat="40.102907605469226837158203125" lon="-7.48478882946074008941650390625">
        <ele>1003.79998779296875</ele>
        <time>2019-04-27T17:03:45.000Z</time>
      </trkpt>
      <trkpt lat="40.103429295122623443603515625" lon="-7.48463250696659088134765625">
        <ele>999.4000244140625</ele>
        <time>2019-04-27T17:04:04.000Z</time>
      </trkpt>
      <trkpt lat="40.10379231534898281097412109375" lon="-7.48505403287708759307861328125">
        <ele>994.4000244140625</ele>
        <time>2019-04-27T17:04:28.000Z</time>
      </trkpt>
      <trkpt lat="40.10379348881542682647705078125" lon="-7.4850435554981231689453125">
        <ele>994.4000244140625</ele>
        <time>2019-04-27T17:04:29.000Z</time>
      </trkpt>
      <trkpt lat="40.10381192900240421295166015625" lon="-7.48506157658994197845458984375">
        <ele>993.79998779296875</ele>
        <time>2019-04-27T17:07:17.000Z</time>
      </trkpt>
      <trkpt lat="40.10386154986917972564697265625" lon="-7.48505688272416591644287109375">
        <ele>992.79998779296875</ele>
        <time>2019-04-27T17:07:21.000Z</time>
      </trkpt>
      <trkpt lat="40.10381142608821392059326171875" lon="-7.4850837886333465576171875">
        <ele>993.79998779296875</ele>
        <time>2019-04-27T17:09:44.000Z</time>
      </trkpt>
      <trkpt lat="40.10404159314930438995361328125" lon="-7.485305406153202056884765625">
        <ele>988.4000244140625</ele>
        <time>2019-04-27T17:09:52.000Z</time>
      </trkpt>
      <trkpt lat="40.104180984199047088623046875" lon="-7.48554353602230548858642578125">
        <ele>983.5999755859375</ele>
        <time>2019-04-27T17:09:57.000Z</time>
      </trkpt>
      <trkpt lat="40.1042002625763416290283203125" lon="-7.48560371808707714080810546875">
        <ele>982.20001220703125</ele>
        <time>2019-04-27T17:09:58.000Z</time>
      </trkpt>
      <trkpt lat="40.10412759147584438323974609375" lon="-7.48623370192945003509521484375">
        <ele>978.79998779296875</ele>
        <time>2019-04-27T17:10:07.000Z</time>
      </trkpt>
      <trkpt lat="40.10396447964012622833251953125" lon="-7.48673426918685436248779296875">
        <ele>979.79998779296875</ele>
        <time>2019-04-27T17:10:14.000Z</time>
      </trkpt>
      <trkpt lat="40.103922821581363677978515625" lon="-7.48726299963891506195068359375">
        <ele>978</ele>
        <time>2019-04-27T17:10:28.000Z</time>
      </trkpt>
      <trkpt lat="40.10392458178102970123291015625" lon="-7.487322427332401275634765625">
        <ele>977.5999755859375</ele>
        <time>2019-04-27T17:10:33.000Z</time>
      </trkpt>
      <trkpt lat="40.10392307303845882415771484375" lon="-7.48735737986862659454345703125">
        <ele>977.4000244140625</ele>
        <time>2019-04-27T17:11:02.000Z</time>
      </trkpt>
      <trkpt lat="40.103924833238124847412109375" lon="-7.48745092190802097320556640625">
        <ele>976.20001220703125</ele>
        <time>2019-04-27T17:11:07.000Z</time>
      </trkpt>
      <trkpt lat="40.104026757180690765380859375" lon="-7.4881708435714244842529296875">
        <ele>973.20001220703125</ele>
        <time>2019-04-27T17:11:24.000Z</time>
      </trkpt>
      <trkpt lat="40.10407746769487857818603515625" lon="-7.4888900108635425567626953125">
        <ele>972.5999755859375</ele>
        <time>2019-04-27T17:11:36.000Z</time>
      </trkpt>
      <trkpt lat="40.104246027767658233642578125" lon="-7.4896061606705188751220703125">
        <ele>970</ele>
        <time>2019-04-27T17:11:47.000Z</time>
      </trkpt>
      <trkpt lat="40.10438944213092327117919921875" lon="-7.49035365879535675048828125">
        <ele>970</ele>
        <time>2019-04-27T17:11:57.000Z</time>
      </trkpt>
      <trkpt lat="40.1046813838183879852294921875" lon="-7.49103225767612457275390625">
        <ele>969</ele>
        <time>2019-04-27T17:12:07.000Z</time>
      </trkpt>
      <trkpt lat="40.1049734093248844146728515625" lon="-7.4914220161736011505126953125">
        <ele>965.20001220703125</ele>
        <time>2019-04-27T17:12:14.000Z</time>
      </trkpt>
      <trkpt lat="40.10521774180233478546142578125" lon="-7.49206314794719219207763671875">
        <ele>971.5999755859375</ele>
        <time>2019-04-27T17:12:23.000Z</time>
      </trkpt>
      <trkpt lat="40.10529586113989353179931640625" lon="-7.49226473271846771240234375">
        <ele>972.79998779296875</ele>
        <time>2019-04-27T17:12:26.000Z</time>
      </trkpt>
      <trkpt lat="40.10559190995991230010986328125" lon="-7.49277032911777496337890625">
        <ele>970.79998779296875</ele>
        <time>2019-04-27T17:12:35.000Z</time>
      </trkpt>
      <trkpt lat="40.1058045588433742523193359375" lon="-7.492680139839649200439453125">
        <ele>963</ele>
        <time>2019-04-27T17:12:41.000Z</time>
      </trkpt>
      <trkpt lat="40.10585677810013294219970703125" lon="-7.49261484481394290924072265625">
        <ele>960.5999755859375</ele>
        <time>2019-04-27T17:12:46.000Z</time>
      </trkpt>
      <trkpt lat="40.10586063377559185028076171875" lon="-7.492590285837650299072265625">
        <ele>960.20001220703125</ele>
        <time>2019-04-27T17:13:17.000Z</time>
      </trkpt>
      <trkpt lat="40.1057780720293521881103515625" lon="-7.4922213144600391387939453125">
        <ele>960.20001220703125</ele>
        <time>2019-04-27T17:13:27.000Z</time>
      </trkpt>
      <trkpt lat="40.1056181453168392181396484375" lon="-7.4921782314777374267578125">
        <ele>963.79998779296875</ele>
        <time>2019-04-27T17:13:31.000Z</time>
      </trkpt>
      <trkpt lat="40.1055708713829517364501953125" lon="-7.49216004274785518646240234375">
        <ele>964.5999755859375</ele>
        <time>2019-04-27T17:13:32.000Z</time>
      </trkpt>
      <trkpt lat="40.10538537986576557159423828125" lon="-7.4916821904480457305908203125">
        <ele>961.5999755859375</ele>
        <time>2019-04-27T17:13:39.000Z</time>
      </trkpt>
      <trkpt lat="40.10526065714657306671142578125" lon="-7.49122202396392822265625">
        <ele>951</ele>
        <time>2019-04-27T17:13:44.000Z</time>
      </trkpt>
      <trkpt lat="40.1050066016614437103271484375" lon="-7.490687258541584014892578125">
        <ele>949</ele>
        <time>2019-04-27T17:13:50.000Z</time>
      </trkpt>
      <trkpt lat="40.10491716675460338592529296875" lon="-7.49017470516264438629150390625">
        <ele>944.4000244140625</ele>
        <time>2019-04-27T17:13:55.000Z</time>
      </trkpt>
      <trkpt lat="40.10492119006812572479248046875" lon="-7.48976357281208038330078125">
        <ele>941.4000244140625</ele>
        <time>2019-04-27T17:13:59.000Z</time>
      </trkpt>
      <trkpt lat="40.10493778623640537261962890625" lon="-7.488979361951351165771484375">
        <ele>936.4000244140625</ele>
        <time>2019-04-27T17:14:06.000Z</time>
      </trkpt>
      <trkpt lat="40.10494532994925975799560546875" lon="-7.4882519803941249847412109375">
        <ele>935.5999755859375</ele>
        <time>2019-04-27T17:14:13.000Z</time>
      </trkpt>
      <trkpt lat="40.10515806265175342559814453125" lon="-7.48750389553606510162353515625">
        <ele>929</ele>
        <time>2019-04-27T17:14:20.000Z</time>
      </trkpt>
      <trkpt lat="40.10543080978095531463623046875" lon="-7.486810125410556793212890625">
        <ele>924</ele>
        <time>2019-04-27T17:14:27.000Z</time>
      </trkpt>
      <trkpt lat="40.10574630461633205413818359375" lon="-7.486134208738803863525390625">
        <ele>919.4000244140625</ele>
        <time>2019-04-27T17:14:35.000Z</time>
      </trkpt>
      <trkpt lat="40.10592517443001270294189453125" lon="-7.48578719794750213623046875">
        <ele>917.20001220703125</ele>
        <time>2019-04-27T17:14:41.000Z</time>
      </trkpt>
      <trkpt lat="40.1059822551906108856201171875" lon="-7.48564101755619049072265625">
        <ele>917.79998779296875</ele>
        <time>2019-04-27T17:14:47.000Z</time>
      </trkpt>
      <trkpt lat="40.10601536370813846588134765625" lon="-7.48560455627739429473876953125">
        <ele>917</ele>
        <time>2019-04-27T17:15:09.000Z</time>
      </trkpt>
      <trkpt lat="40.10614394210278987884521484375" lon="-7.48527623713016510009765625">
        <ele>918.4000244140625</ele>
        <time>2019-04-27T17:15:16.000Z</time>
      </trkpt>
      <trkpt lat="40.10619926266372203826904296875" lon="-7.48514992184937000274658203125">
        <ele>918.79998779296875</ele>
        <time>2019-04-27T17:15:18.000Z</time>
      </trkpt>
      <trkpt lat="40.10626497678458690643310546875" lon="-7.48503223992884159088134765625">
        <ele>918.4000244140625</ele>
        <time>2019-04-27T17:15:20.000Z</time>
      </trkpt>
      <trkpt lat="40.10672547854483127593994140625" lon="-7.48449630104005336761474609375">
        <ele>919.5999755859375</ele>
        <time>2019-04-27T17:15:29.000Z</time>
      </trkpt>
      <trkpt lat="40.10716754011809825897216796875" lon="-7.4840511381626129150390625">
        <ele>919.79998779296875</ele>
        <time>2019-04-27T17:15:36.000Z</time>
      </trkpt>
      <trkpt lat="40.1073203422129154205322265625" lon="-7.48389179818332195281982421875">
        <ele>920.4000244140625</ele>
        <time>2019-04-27T17:15:39.000Z</time>
      </trkpt>
      <trkpt lat="40.10743626393377780914306640625" lon="-7.4837636388838291168212890625">
        <ele>921.20001220703125</ele>
        <time>2019-04-27T17:15:42.000Z</time>
      </trkpt>
      <trkpt lat="40.10759585537016391754150390625" lon="-7.48374561779201030731201171875">
        <ele>921.4000244140625</ele>
        <time>2019-04-27T17:15:47.000Z</time>
      </trkpt>
      <trkpt lat="40.1078023016452789306640625" lon="-7.48380915261805057525634765625">
        <ele>922.4000244140625</ele>
        <time>2019-04-27T17:15:58.000Z</time>
      </trkpt>
      <trkpt lat="40.107810012996196746826171875" lon="-7.48384796082973480224609375">
        <ele>922.4000244140625</ele>
        <time>2019-04-27T17:16:17.000Z</time>
      </trkpt>
      <trkpt lat="40.10771605186164379119873046875" lon="-7.48390001244843006134033203125">
        <ele>922</ele>
        <time>2019-04-27T17:16:22.000Z</time>
      </trkpt>
      <trkpt lat="40.107546150684356689453125" lon="-7.48383949510753154754638671875">
        <ele>921.20001220703125</ele>
        <time>2019-04-27T17:16:29.000Z</time>
      </trkpt>
      <trkpt lat="40.107449591159820556640625" lon="-7.48378534801304340362548828125">
        <ele>921</ele>
        <time>2019-04-27T17:16:34.000Z</time>
      </trkpt>
      <trkpt lat="40.107439197599887847900390625" lon="-7.48365224339067935943603515625">
        <ele>922</ele>
        <time>2019-04-27T17:16:38.000Z</time>
      </trkpt>
      <trkpt lat="40.107418410480022430419921875" lon="-7.48331026174128055572509765625">
        <ele>924.5999755859375</ele>
        <time>2019-04-27T17:16:51.000Z</time>
      </trkpt>
      <trkpt lat="40.10740307159721851348876953125" lon="-7.4832791648805141448974609375">
        <ele>924</ele>
        <time>2019-04-27T17:17:01.000Z</time>
      </trkpt>
      <trkpt lat="40.10732511989772319793701171875" lon="-7.48314497061073780059814453125">
        <ele>921.79998779296875</ele>
        <time>2019-04-27T17:17:05.000Z</time>
      </trkpt>
      <trkpt lat="40.10725923813879489898681640625" lon="-7.4828325770795345306396484375">
        <ele>917.20001220703125</ele>
        <time>2019-04-27T17:17:11.000Z</time>
      </trkpt>
      <trkpt lat="40.107271559536457061767578125" lon="-7.4826833792030811309814453125">
        <ele>914.79998779296875</ele>
        <time>2019-04-27T17:17:14.000Z</time>
      </trkpt>
      <trkpt lat="40.107332579791545867919921875" lon="-7.48245857656002044677734375">
        <ele>910.79998779296875</ele>
        <time>2019-04-27T17:17:18.000Z</time>
      </trkpt>
      <trkpt lat="40.1073409616947174072265625" lon="-7.48239847831428050994873046875">
        <ele>909.5999755859375</ele>
        <time>2019-04-27T17:17:19.000Z</time>
      </trkpt>
      <trkpt lat="40.1073329150676727294921875" lon="-7.4819394014775753021240234375">
        <ele>901.79998779296875</ele>
        <time>2019-04-27T17:17:27.000Z</time>
      </trkpt>
      <trkpt lat="40.10727533139288425445556640625" lon="-7.48160605318844318389892578125">
        <ele>896.79998779296875</ele>
        <time>2019-04-27T17:17:32.000Z</time>
      </trkpt>
      <trkpt lat="40.10718447156250476837158203125" lon="-7.4813608825206756591796875">
        <ele>894.5999755859375</ele>
        <time>2019-04-27T17:17:36.000Z</time>
      </trkpt>
      <trkpt lat="40.10714289732277393341064453125" lon="-7.48123414814472198486328125">
        <ele>894</ele>
        <time>2019-04-27T17:17:38.000Z</time>
      </trkpt>
      <trkpt lat="40.106877945363521575927734375" lon="-7.48058463446795940399169921875">
        <ele>892.4000244140625</ele>
        <time>2019-04-27T17:17:47.000Z</time>
      </trkpt>
      <trkpt lat="40.1068259775638580322265625" lon="-7.48043216764926910400390625">
        <ele>891.20001220703125</ele>
        <time>2019-04-27T17:17:50.000Z</time>
      </trkpt>
      <trkpt lat="40.10660327039659023284912109375" lon="-7.47998499311506748199462890625">
        <ele>888.4000244140625</ele>
        <time>2019-04-27T17:17:59.000Z</time>
      </trkpt>
      <trkpt lat="40.106597654521465301513671875" lon="-7.47979539446532726287841796875">
        <ele>884.79998779296875</ele>
        <time>2019-04-27T17:18:02.000Z</time>
      </trkpt>
      <trkpt lat="40.106575526297092437744140625" lon="-7.47942374087870121002197265625">
        <ele>878.20001220703125</ele>
        <time>2019-04-27T17:18:08.000Z</time>
      </trkpt>
      <trkpt lat="40.10654610581696033477783203125" lon="-7.47921905480325222015380859375">
        <ele>875</ele>
        <time>2019-04-27T17:18:13.000Z</time>
      </trkpt>
      <trkpt lat="40.1065121591091156005859375" lon="-7.4791214056313037872314453125">
        <ele>874</ele>
        <time>2019-04-27T17:18:15.000Z</time>
      </trkpt>
      <trkpt lat="40.1064663939177989959716796875" lon="-7.47903062961995601654052734375">
        <ele>873.4000244140625</ele>
        <time>2019-04-27T17:18:17.000Z</time>
      </trkpt>
      <trkpt lat="40.10642825625836849212646484375" lon="-7.4788022227585315704345703125">
        <ele>869.5999755859375</ele>
        <time>2019-04-27T17:18:22.000Z</time>
      </trkpt>
      <trkpt lat="40.1064191199839115142822265625" lon="-7.47874732129275798797607421875">
        <ele>868.5999755859375</ele>
        <time>2019-04-27T17:18:23.000Z</time>
      </trkpt>
      <trkpt lat="40.106348209083080291748046875" lon="-7.4785138852894306182861328125">
        <ele>865.20001220703125</ele>
        <time>2019-04-27T17:18:28.000Z</time>
      </trkpt>
      <trkpt lat="40.1062789745628833770751953125" lon="-7.478231079876422882080078125">
        <ele>860.5999755859375</ele>
        <time>2019-04-27T17:18:34.000Z</time>
      </trkpt>
      <trkpt lat="40.10623463429510593414306640625" lon="-7.4780056066811084747314453125">
        <ele>857.20001220703125</ele>
        <time>2019-04-27T17:18:38.000Z</time>
      </trkpt>
      <trkpt lat="40.10610840283334255218505859375" lon="-7.47767527587711811065673828125">
        <ele>854.20001220703125</ele>
        <time>2019-04-27T17:18:43.000Z</time>
      </trkpt>
      <trkpt lat="40.10604972951114177703857421875" lon="-7.4775586836040019989013671875">
        <ele>853.20001220703125</ele>
        <time>2019-04-27T17:18:45.000Z</time>
      </trkpt>
      <trkpt lat="40.10597328655421733856201171875" lon="-7.4773643910884857177734375">
        <ele>852.20001220703125</ele>
        <time>2019-04-27T17:18:48.000Z</time>
      </trkpt>
      <trkpt lat="40.1059413515031337738037109375" lon="-7.4772066436707973480224609375">
        <ele>851</ele>
        <time>2019-04-27T17:18:51.000Z</time>
      </trkpt>
      <trkpt lat="40.10588678531348705291748046875" lon="-7.476969100534915924072265625">
        <ele>849</ele>
        <time>2019-04-27T17:18:56.000Z</time>
      </trkpt>
      <trkpt lat="40.10584470815956592559814453125" lon="-7.47687865979969501495361328125">
        <ele>848</ele>
        <time>2019-04-27T17:18:58.000Z</time>
      </trkpt>
      <trkpt lat="40.10568427853286266326904296875" lon="-7.4765528552234172821044921875">
        <ele>846.4000244140625</ele>
        <time>2019-04-27T17:19:05.000Z</time>
      </trkpt>
      <trkpt lat="40.10560951195657253265380859375" lon="-7.47631925158202648162841796875">
        <ele>845.4000244140625</ele>
        <time>2019-04-27T17:19:09.000Z</time>
      </trkpt>
      <trkpt lat="40.10582794435322284698486328125" lon="-7.47596335597336292266845703125">
        <ele>836.5999755859375</ele>
        <time>2019-04-27T17:19:21.000Z</time>
      </trkpt>
      <trkpt lat="40.10596674866974353790283203125" lon="-7.47604633681476116180419921875">
        <ele>835.20001220703125</ele>
        <time>2019-04-27T17:19:26.000Z</time>
      </trkpt>
      <trkpt lat="40.1062581874430179595947265625" lon="-7.47618891298770904541015625">
        <ele>830.20001220703125</ele>
        <time>2019-04-27T17:19:36.000Z</time>
      </trkpt>
      <trkpt lat="40.10659237392246723175048828125" lon="-7.47578549198806285858154296875">
        <ele>818.5999755859375</ele>
        <time>2019-04-27T17:19:56.000Z</time>
      </trkpt>
      <trkpt lat="40.10660125873982906341552734375" lon="-7.475769482553005218505859375">
        <ele>818.4000244140625</ele>
        <time>2019-04-27T17:20:02.000Z</time>
      </trkpt>
      <trkpt lat="40.10663487017154693603515625" lon="-7.4756932072341442108154296875">
        <ele>817.20001220703125</ele>
        <time>2019-04-27T17:20:06.000Z</time>
      </trkpt>
      <trkpt lat="40.1066950522363185882568359375" lon="-7.4755490384995937347412109375">
        <ele>814.79998779296875</ele>
        <time>2019-04-27T17:20:16.000Z</time>
      </trkpt>
      <trkpt lat="40.10672866366803646087646484375" lon="-7.4754917062819004058837890625">
        <ele>813.79998779296875</ele>
        <time>2019-04-27T17:20:21.000Z</time>
      </trkpt>
      <trkpt lat="40.1067321002483367919921875" lon="-7.47547703795135021209716796875">
        <ele>813.5999755859375</ele>
        <time>2019-04-27T17:20:23.000Z</time>
      </trkpt>
      <trkpt lat="40.1067440025508403778076171875" lon="-7.47546069324016571044921875">
        <ele>813.20001220703125</ele>
        <time>2019-04-27T17:20:30.000Z</time>
      </trkpt>
      <trkpt lat="40.10679253377020359039306640625" lon="-7.475353740155696868896484375">
        <ele>811.5999755859375</ele>
        <time>2019-04-27T17:20:33.000Z</time>
      </trkpt>
      <trkpt lat="40.10684818960726261138916015625" lon="-7.475182749330997467041015625">
        <ele>808.79998779296875</ele>
        <time>2019-04-27T17:20:36.000Z</time>
      </trkpt>
      <trkpt lat="40.10694458149373531341552734375" lon="-7.474817298352718353271484375">
        <ele>807.20001220703125</ele>
        <time>2019-04-27T17:20:42.000Z</time>
      </trkpt>
      <trkpt lat="40.10704281739890575408935546875" lon="-7.474589981138706207275390625">
        <ele>808.79998779296875</ele>
        <time>2019-04-27T17:20:49.000Z</time>
      </trkpt>
      <trkpt lat="40.1070725731551647186279296875" lon="-7.47458118014037609100341796875">
        <ele>808.4000244140625</ele>
        <time>2019-04-27T17:21:01.000Z</time>
      </trkpt>
      <trkpt lat="40.10762049816548824310302734375" lon="-7.47482894919812679290771484375">
        <ele>803.4000244140625</ele>
        <time>2019-04-27T17:21:13.000Z</time>
      </trkpt>
      <trkpt lat="40.108141265809535980224609375" lon="-7.47512851841747760772705078125">
        <ele>792</ele>
        <time>2019-04-27T17:21:23.000Z</time>
      </trkpt>
      <trkpt lat="40.10829876177012920379638671875" lon="-7.47518702410161495208740234375">
        <ele>788.79998779296875</ele>
        <time>2019-04-27T17:21:27.000Z</time>
      </trkpt>
      <trkpt lat="40.10861626826226711273193359375" lon="-7.47533035464584827423095703125">
        <ele>783</ele>
        <time>2019-04-27T17:21:36.000Z</time>
      </trkpt>
      <trkpt lat="40.10858626104891300201416015625" lon="-7.4756177701056003570556640625">
        <ele>782</ele>
        <time>2019-04-27T17:21:46.000Z</time>
      </trkpt>
      <trkpt lat="40.1087003387510776519775390625" lon="-7.4757518805563449859619140625">
        <ele>780.20001220703125</ele>
        <time>2019-04-27T17:21:56.000Z</time>
      </trkpt>
      <trkpt lat="40.1088143326342105865478515625" lon="-7.47575950808823108673095703125">
        <ele>778.20001220703125</ele>
        <time>2019-04-27T17:22:02.000Z</time>
      </trkpt>
      <trkpt lat="40.1091526262462139129638671875" lon="-7.47582773678004741668701171875">
        <ele>768.79998779296875</ele>
        <time>2019-04-27T17:22:22.000Z</time>
      </trkpt>
      <trkpt lat="40.1091549731791019439697265625" lon="-7.47582840733230113983154296875">
        <ele>768.79998779296875</ele>
        <time>2019-04-27T17:22:26.000Z</time>
      </trkpt>
      <trkpt lat="40.10916628874838352203369140625" lon="-7.475834526121616363525390625">
        <ele>768.5999755859375</ele>
        <time>2019-04-27T17:22:28.000Z</time>
      </trkpt>
      <trkpt lat="40.10927709750831127166748046875" lon="-7.47584181837737560272216796875">
        <ele>765.79998779296875</ele>
        <time>2019-04-27T17:22:37.000Z</time>
      </trkpt>
      <trkpt lat="40.109334178268909454345703125" lon="-7.47585992328822612762451171875">
        <ele>764.79998779296875</ele>
        <time>2019-04-27T17:22:42.000Z</time>
      </trkpt>
      <trkpt lat="40.109398551285266876220703125" lon="-7.47586612589657306671142578125">
        <ele>763.20001220703125</ele>
        <time>2019-04-27T17:22:47.000Z</time>
      </trkpt>
      <trkpt lat="40.10947423987090587615966796875" lon="-7.4758997373282909393310546875">
        <ele>762</ele>
        <time>2019-04-27T17:22:54.000Z</time>
      </trkpt>
      <trkpt lat="40.1095214299857616424560546875" lon="-7.4759339354932308197021484375">
        <ele>762</ele>
        <time>2019-04-27T17:23:04.000Z</time>
      </trkpt>
      <trkpt lat="40.10978772304952144622802734375" lon="-7.47607198543846607208251953125">
        <ele>764.20001220703125</ele>
        <time>2019-04-27T17:23:21.000Z</time>
      </trkpt>
      <trkpt lat="40.10982192121446132659912109375" lon="-7.47607148252427577972412109375">
        <ele>764</ele>
        <time>2019-04-27T17:23:32.000Z</time>
      </trkpt>
      <trkpt lat="40.1099173910915851593017578125" lon="-7.47610501013696193695068359375">
        <ele>764.20001220703125</ele>
        <time>2019-04-27T17:23:36.000Z</time>
      </trkpt>
      <trkpt lat="40.109917223453521728515625" lon="-7.476104758679866790771484375">
        <ele>764.20001220703125</ele>
        <time>2019-04-27T17:23:37.000Z</time>
      </trkpt>
      <trkpt lat="40.10994873940944671630859375" lon="-7.47611138038337230682373046875">
        <ele>764.20001220703125</ele>
        <time>2019-04-27T17:23:52.000Z</time>
      </trkpt>
      <trkpt lat="40.11004756204783916473388671875" lon="-7.4760559760034084320068359375">
        <ele>761.20001220703125</ele>
        <time>2019-04-27T17:23:55.000Z</time>
      </trkpt>
      <trkpt lat="40.11059272103011608123779296875" lon="-7.4760677106678485870361328125">
        <ele>757.20001220703125</ele>
        <time>2019-04-27T17:24:04.000Z</time>
      </trkpt>
      <trkpt lat="40.11114458553493022918701171875" lon="-7.47599168680608272552490234375">
        <ele>745</ele>
        <time>2019-04-27T17:24:11.000Z</time>
      </trkpt>
      <trkpt lat="40.11134005151689052581787109375" lon="-7.47598028741776943206787109375">
        <ele>740.79998779296875</ele>
        <time>2019-04-27T17:24:14.000Z</time>
      </trkpt>
      <trkpt lat="40.11190247721970081329345703125" lon="-7.47616820968687534332275390625">
        <ele>736.79998779296875</ele>
        <time>2019-04-27T17:24:22.000Z</time>
      </trkpt>
      <trkpt lat="40.11230732314288616180419921875" lon="-7.476376332342624664306640625">
        <ele>736.4000244140625</ele>
        <time>2019-04-27T17:24:28.000Z</time>
      </trkpt>
      <trkpt lat="40.11274502612650394439697265625" lon="-7.476488314568996429443359375">
        <ele>727</ele>
        <time>2019-04-27T17:24:35.000Z</time>
      </trkpt>
      <trkpt lat="40.11298659257590770721435546875" lon="-7.47673583216965198516845703125">
        <ele>724.5999755859375</ele>
        <time>2019-04-27T17:24:40.000Z</time>
      </trkpt>
      <trkpt lat="40.11331248097121715545654296875" lon="-7.47730345465242862701416015625">
        <ele>717.5999755859375</ele>
        <time>2019-04-27T17:24:47.000Z</time>
      </trkpt>
      <trkpt lat="40.11360098607838153839111328125" lon="-7.4779449217021465301513671875">
        <ele>716.5999755859375</ele>
        <time>2019-04-27T17:24:54.000Z</time>
      </trkpt>
      <trkpt lat="40.1137261278927326202392578125" lon="-7.4782731570303440093994140625">
        <ele>718.20001220703125</ele>
        <time>2019-04-27T17:24:58.000Z</time>
      </trkpt>
      <trkpt lat="40.1139427162706851959228515625" lon="-7.47850893996655941009521484375">
        <ele>715.5999755859375</ele>
        <time>2019-04-27T17:25:03.000Z</time>
      </trkpt>
      <trkpt lat="40.11438243091106414794921875" lon="-7.47892132960259914398193359375">
        <ele>707</ele>
        <time>2019-04-27T17:25:17.000Z</time>
      </trkpt>
      <trkpt lat="40.1147742010653018951416015625" lon="-7.47949314303696155548095703125">
        <ele>702</ele>
        <time>2019-04-27T17:25:28.000Z</time>
      </trkpt>
      <trkpt lat="40.114944018423557281494140625" lon="-7.4798006750643253326416015625">
        <ele>701.4000244140625</ele>
        <time>2019-04-27T17:25:33.000Z</time>
      </trkpt>
      <trkpt lat="40.115203857421875" lon="-7.48042621649801731109619140625">
        <ele>700.5999755859375</ele>
        <time>2019-04-27T17:25:46.000Z</time>
      </trkpt>
      <trkpt lat="40.11525020934641361236572265625" lon="-7.4805094487965106964111328125">
        <ele>700.5999755859375</ele>
        <time>2019-04-27T17:25:48.000Z</time>
      </trkpt>
      <trkpt lat="40.1153441704809665679931640625" lon="-7.480635680258274078369140625">
        <ele>700.20001220703125</ele>
        <time>2019-04-27T17:25:51.000Z</time>
      </trkpt>
      <trkpt lat="40.11559210717678070068359375" lon="-7.4809979461133480072021484375">
        <ele>698.4000244140625</ele>
        <time>2019-04-27T17:25:58.000Z</time>
      </trkpt>
      <trkpt lat="40.11564130894839763641357421875" lon="-7.48111755587160587310791015625">
        <ele>697.79998779296875</ele>
        <time>2019-04-27T17:26:00.000Z</time>
      </trkpt>
      <trkpt lat="40.11575664393603801727294921875" lon="-7.4816483817994594573974609375">
        <ele>699.5999755859375</ele>
        <time>2019-04-27T17:26:08.000Z</time>
      </trkpt>
      <trkpt lat="40.11579821817576885223388671875" lon="-7.4817439354956150054931640625">
        <ele>699.79998779296875</ele>
        <time>2019-04-27T17:26:12.000Z</time>
      </trkpt>
      <trkpt lat="40.1158236153423786163330078125" lon="-7.48174435459077358245849609375">
        <ele>699.4000244140625</ele>
        <time>2019-04-27T17:26:39.000Z</time>
      </trkpt>
      <trkpt lat="40.1158940233290195465087890625" lon="-7.481711246073246002197265625">
        <ele>698.20001220703125</ele>
        <time>2019-04-27T17:26:43.000Z</time>
      </trkpt>
      <trkpt lat="40.11593953706324100494384765625" lon="-7.4816725216805934906005859375">
        <ele>697.4000244140625</ele>
        <time>2019-04-27T17:26:48.000Z</time>
      </trkpt>
      <trkpt lat="40.11595152318477630615234375" lon="-7.48165919445455074310302734375">
        <ele>697.20001220703125</ele>
        <time>2019-04-27T17:26:54.000Z</time>
      </trkpt>
      <trkpt lat="40.11596216820180416107177734375" lon="-7.481652237474918365478515625">
        <ele>697</ele>
        <time>2019-04-27T17:26:56.000Z</time>
      </trkpt>
      <trkpt lat="40.11613852344453334808349609375" lon="-7.4816956557333469390869140625">
        <ele>695</ele>
        <time>2019-04-27T17:27:01.000Z</time>
      </trkpt>
      <trkpt lat="40.11666658334434032440185546875" lon="-7.4818911217153072357177734375">
        <ele>687.79998779296875</ele>
        <time>2019-04-27T17:27:21.000Z</time>
      </trkpt>
      <trkpt lat="40.11699448339641094207763671875" lon="-7.4817087315022945404052734375">
        <ele>681</ele>
        <time>2019-04-27T17:27:32.000Z</time>
      </trkpt>
      <trkpt lat="40.11705282144248485565185546875" lon="-7.48166975565254688262939453125">
        <ele>679.79998779296875</ele>
        <time>2019-04-27T17:27:37.000Z</time>
      </trkpt>
      <trkpt lat="40.11707712896168231964111328125" lon="-7.48169146478176116943359375">
        <ele>679.5999755859375</ele>
        <time>2019-04-27T17:27:39.000Z</time>
      </trkpt>
      <trkpt lat="40.11710110120475292205810546875" lon="-7.48187653720378875732421875">
        <ele>678.5999755859375</ele>
        <time>2019-04-27T17:27:45.000Z</time>
      </trkpt>
      <trkpt lat="40.11721593327820301055908203125" lon="-7.4821077100932598114013671875">
        <ele>675.20001220703125</ele>
        <time>2019-04-27T17:27:54.000Z</time>
      </trkpt>
      <trkpt lat="40.1172656379640102386474609375" lon="-7.48216697014868259429931640625">
        <ele>673.79998779296875</ele>
        <time>2019-04-27T17:28:12.000Z</time>
      </trkpt>
      <trkpt lat="40.117370076477527618408203125" lon="-7.48287457041442394256591796875">
        <ele>670.20001220703125</ele>
        <time>2019-04-27T17:28:32.000Z</time>
      </trkpt>
      <trkpt lat="40.11735968291759490966796875" lon="-7.48298563063144683837890625">
        <ele>670</ele>
        <time>2019-04-27T17:28:34.000Z</time>
      </trkpt>
      <trkpt lat="40.117320455610752105712890625" lon="-7.48346448875963687896728515625">
        <ele>668.79998779296875</ele>
        <time>2019-04-27T17:28:39.000Z</time>
      </trkpt>
      <trkpt lat="40.11747342534363269805908203125" lon="-7.484077624976634979248046875">
        <ele>662</ele>
        <time>2019-04-27T17:28:45.000Z</time>
      </trkpt>
      <trkpt lat="40.11782228015363216400146484375" lon="-7.48475060798227787017822265625">
        <ele>652.20001220703125</ele>
        <time>2019-04-27T17:28:52.000Z</time>
      </trkpt>
      <trkpt lat="40.11804364621639251708984375" lon="-7.4851744808256626129150390625">
        <ele>645.4000244140625</ele>
        <time>2019-04-27T17:28:58.000Z</time>
      </trkpt>
      <trkpt lat="40.1180870644748210906982421875" lon="-7.48523189686238765716552734375">
        <ele>644.79998779296875</ele>
        <time>2019-04-27T17:29:02.000Z</time>
      </trkpt>
      <trkpt lat="40.11809921823441982269287109375" lon="-7.485234327614307403564453125">
        <ele>644.5999755859375</ele>
        <time>2019-04-27T17:29:06.000Z</time>
      </trkpt>
      <trkpt lat="40.1184575445950031280517578125" lon="-7.4846343509852886199951171875">
        <ele>642.5999755859375</ele>
        <time>2019-04-27T17:29:17.000Z</time>
      </trkpt>
      <trkpt lat="40.11896607466042041778564453125" lon="-7.48442321084439754486083984375">
        <ele>639.79998779296875</ele>
        <time>2019-04-27T17:29:23.000Z</time>
      </trkpt>
      <trkpt lat="40.11955968104302883148193359375" lon="-7.484361268579959869384765625">
        <ele>639</ele>
        <time>2019-04-27T17:29:29.000Z</time>
      </trkpt>
      <trkpt lat="40.11966194026172161102294921875" lon="-7.4843718297779560089111328125">
        <ele>639.20001220703125</ele>
        <time>2019-04-27T17:29:30.000Z</time>
      </trkpt>
      <trkpt lat="40.12006460689008235931396484375" lon="-7.4845330975949764251708984375">
        <ele>641.4000244140625</ele>
        <time>2019-04-27T17:29:34.000Z</time>
      </trkpt>
      <trkpt lat="40.1204893179237842559814453125" lon="-7.48502184636890888214111328125">
        <ele>636.5999755859375</ele>
        <time>2019-04-27T17:29:39.000Z</time>
      </trkpt>
      <trkpt lat="40.1206408627331256866455078125" lon="-7.4852661788463592529296875">
        <ele>635.5999755859375</ele>
        <time>2019-04-27T17:29:41.000Z</time>
      </trkpt>
      <trkpt lat="40.12081679888069629669189453125" lon="-7.4858735315501689910888671875">
        <ele>629.79998779296875</ele>
        <time>2019-04-27T17:29:45.000Z</time>
      </trkpt>
      <trkpt lat="40.12095652520656585693359375" lon="-7.4866689741611480712890625">
        <ele>622</ele>
        <time>2019-04-27T17:29:50.000Z</time>
      </trkpt>
      <trkpt lat="40.12111754156649112701416015625" lon="-7.4873631633818149566650390625">
        <ele>616.5999755859375</ele>
        <time>2019-04-27T17:29:55.000Z</time>
      </trkpt>
      <trkpt lat="40.1211585290729999542236328125" lon="-7.48747690580785274505615234375">
        <ele>615.79998779296875</ele>
        <time>2019-04-27T17:29:56.000Z</time>
      </trkpt>
      <trkpt lat="40.1214599423110485076904296875" lon="-7.487785108387470245361328125">
        <ele>614.20001220703125</ele>
        <time>2019-04-27T17:30:00.000Z</time>
      </trkpt>
      <trkpt lat="40.12162062339484691619873046875" lon="-7.48792567290365695953369140625">
        <ele>613.20001220703125</ele>
        <time>2019-04-27T17:30:02.000Z</time>
      </trkpt>
      <trkpt lat="40.1218616031110286712646484375" lon="-7.48857828788459300994873046875">
        <ele>608</ele>
        <time>2019-04-27T17:30:08.000Z</time>
      </trkpt>
      <trkpt lat="40.1219320110976696014404296875" lon="-7.488954551517963409423828125">
        <ele>602</ele>
        <time>2019-04-27T17:30:11.000Z</time>
      </trkpt>
      <trkpt lat="40.12238538824021816253662109375" lon="-7.4894960224628448486328125">
        <ele>588</ele>
        <time>2019-04-27T17:30:17.000Z</time>
      </trkpt>
      <trkpt lat="40.12300866656005382537841796875" lon="-7.4893189966678619384765625">
        <ele>582.4000244140625</ele>
        <time>2019-04-27T17:30:23.000Z</time>
      </trkpt>
      <trkpt lat="40.12320178560912609100341796875" lon="-7.4891703017055988311767578125">
        <ele>578.4000244140625</ele>
        <time>2019-04-27T17:30:25.000Z</time>
      </trkpt>
      <trkpt lat="40.1236945576965808868408203125" lon="-7.48876252211630344390869140625">
        <ele>573</ele>
        <time>2019-04-27T17:30:30.000Z</time>
      </trkpt>
      <trkpt lat="40.1241931132972240447998046875" lon="-7.48835549689829349517822265625">
        <ele>569.79998779296875</ele>
        <time>2019-04-27T17:30:35.000Z</time>
      </trkpt>
      <trkpt lat="40.12475428171455860137939453125" lon="-7.488159276545047760009765625">
        <ele>560</ele>
        <time>2019-04-27T17:30:40.000Z</time>
      </trkpt>
      <trkpt lat="40.12511922977864742279052734375" lon="-7.4878392554819583892822265625">
        <ele>559.79998779296875</ele>
        <time>2019-04-27T17:30:44.000Z</time>
      </trkpt>
      <trkpt lat="40.12567260302603244781494140625" lon="-7.487681843340396881103515625">
        <ele>554.20001220703125</ele>
        <time>2019-04-27T17:30:49.000Z</time>
      </trkpt>
      <trkpt lat="40.1260123215615749359130859375" lon="-7.48752216808497905731201171875">
        <ele>551.5999755859375</ele>
        <time>2019-04-27T17:30:52.000Z</time>
      </trkpt>
      <trkpt lat="40.1265702210366725921630859375" lon="-7.4871938489377498626708984375">
        <ele>547.4000244140625</ele>
        <time>2019-04-27T17:30:57.000Z</time>
      </trkpt>
      <trkpt lat="40.12691748328506946563720703125" lon="-7.4870114587247371673583984375">
        <ele>545</ele>
        <time>2019-04-27T17:31:00.000Z</time>
      </trkpt>
      <trkpt lat="40.1273148693144321441650390625" lon="-7.48697365634143352508544921875">
        <ele>541</ele>
        <time>2019-04-27T17:31:04.000Z</time>
      </trkpt>
      <trkpt lat="40.12795331887900829315185546875" lon="-7.4870151467621326446533203125">
        <ele>535.79998779296875</ele>
        <time>2019-04-27T17:31:09.000Z</time>
      </trkpt>
      <trkpt lat="40.12858246453106403350830078125" lon="-7.4870578944683074951171875">
        <ele>532</ele>
        <time>2019-04-27T17:31:14.000Z</time>
      </trkpt>
      <trkpt lat="40.12918948195874691009521484375" lon="-7.48708672821521759033203125">
        <ele>530.4000244140625</ele>
        <time>2019-04-27T17:31:19.000Z</time>
      </trkpt>
      <trkpt lat="40.12980421073734760284423828125" lon="-7.4870469979941844940185546875">
        <ele>528.4000244140625</ele>
        <time>2019-04-27T17:31:25.000Z</time>
      </trkpt>
      <trkpt lat="40.13007762841880321502685546875" lon="-7.4869524501264095306396484375">
        <ele>529.20001220703125</ele>
        <time>2019-04-27T17:31:28.000Z</time>
      </trkpt>
      <trkpt lat="40.13038306497037410736083984375" lon="-7.486681044101715087890625">
        <ele>530.79998779296875</ele>
        <time>2019-04-27T17:31:32.000Z</time>
      </trkpt>
      <trkpt lat="40.13086871244013309478759765625" lon="-7.48616882599890232086181640625">
        <ele>527.79998779296875</ele>
        <time>2019-04-27T17:31:39.000Z</time>
      </trkpt>
      <trkpt lat="40.1313279569149017333984375" lon="-7.4857042171061038970947265625">
        <ele>524.4000244140625</ele>
        <time>2019-04-27T17:31:48.000Z</time>
      </trkpt>
      <trkpt lat="40.13143935240805149078369140625" lon="-7.4856110103428363800048828125">
        <ele>523.5999755859375</ele>
        <time>2019-04-27T17:31:55.000Z</time>
      </trkpt>
      <trkpt lat="40.13146433047950267791748046875" lon="-7.48560572974383831024169921875">
        <ele>523.5999755859375</ele>
        <time>2019-04-27T17:32:02.000Z</time>
      </trkpt>
      <trkpt lat="40.131551586091518402099609375" lon="-7.485642023384571075439453125">
        <ele>523</ele>
        <time>2019-04-27T17:32:06.000Z</time>
      </trkpt>
      <trkpt lat="40.131652168929576873779296875" lon="-7.48580521903932094573974609375">
        <ele>522.20001220703125</ele>
        <time>2019-04-27T17:32:11.000Z</time>
      </trkpt>
      <trkpt lat="40.13177362270653247833251953125" lon="-7.48618039302527904510498046875">
        <ele>520.5999755859375</ele>
        <time>2019-04-27T17:32:18.000Z</time>
      </trkpt>
      <trkpt lat="40.13181746006011962890625" lon="-7.48661306686699390411376953125">
        <ele>518</ele>
        <time>2019-04-27T17:32:29.000Z</time>
      </trkpt>
      <trkpt lat="40.13165895827114582061767578125" lon="-7.48655028641223907470703125">
        <ele>519.79998779296875</ele>
        <time>2019-04-27T17:32:38.000Z</time>
      </trkpt>
      <trkpt lat="40.1316744647920131683349609375" lon="-7.48663385398685932159423828125">
        <ele>519.20001220703125</ele>
        <time>2019-04-27T17:38:03.000Z</time>
      </trkpt>
      <trkpt lat="40.13175333850085735321044921875" lon="-7.48675203882157802581787109375">
        <ele>518</ele>
        <time>2019-04-27T17:38:12.000Z</time>
      </trkpt>
      <trkpt lat="40.13177965767681598663330078125" lon="-7.4867895059287548065185546875">
        <ele>517.5999755859375</ele>
        <time>2019-04-27T17:38:16.000Z</time>
      </trkpt>
      <trkpt lat="40.13184889219701290130615234375" lon="-7.487014643847942352294921875">
        <ele>516</ele>
        <time>2019-04-27T17:38:23.000Z</time>
      </trkpt>
      <trkpt lat="40.13186632655560970306396484375" lon="-7.48724631965160369873046875">
        <ele>514.79998779296875</ele>
        <time>2019-04-27T17:38:27.000Z</time>
      </trkpt>
      <trkpt lat="40.1318804919719696044921875" lon="-7.487705312669277191162109375">
        <ele>513</ele>
        <time>2019-04-27T17:38:34.000Z</time>
      </trkpt>
      <trkpt lat="40.131830535829067230224609375" lon="-7.48803396709263324737548828125">
        <ele>512.5999755859375</ele>
        <time>2019-04-27T17:38:39.000Z</time>
      </trkpt>
      <trkpt lat="40.131635405123233795166015625" lon="-7.4885852448642253875732421875">
        <ele>513.20001220703125</ele>
        <time>2019-04-27T17:38:48.000Z</time>
      </trkpt>
      <trkpt lat="40.13158704154193401336669921875" lon="-7.48929728753864765167236328125">
        <ele>512.79998779296875</ele>
        <time>2019-04-27T17:38:59.000Z</time>
      </trkpt>
      <trkpt lat="40.13153624720871448516845703125" lon="-7.49002533964812755584716796875">
        <ele>513.20001220703125</ele>
        <time>2019-04-27T17:39:08.000Z</time>
      </trkpt>
      <trkpt lat="40.13154161162674427032470703125" lon="-7.4901094101369380950927734375">
        <ele>513.4000244140625</ele>
        <time>2019-04-27T17:39:09.000Z</time>
      </trkpt>
      <trkpt lat="40.13172098435461521148681640625" lon="-7.49054141342639923095703125">
        <ele>512.5999755859375</ele>
        <time>2019-04-27T17:39:15.000Z</time>
      </trkpt>
      <trkpt lat="40.13214091770350933074951171875" lon="-7.49105363152921199798583984375">
        <ele>509.600006103515625</ele>
        <time>2019-04-27T17:39:25.000Z</time>
      </trkpt>
      <trkpt lat="40.132339484989643096923828125" lon="-7.491359151899814605712890625">
        <ele>509.20001220703125</ele>
        <time>2019-04-27T17:39:31.000Z</time>
      </trkpt>
      <trkpt lat="40.1324003376066684722900390625" lon="-7.4916369281709194183349609375">
        <ele>509.20001220703125</ele>
        <time>2019-04-27T17:39:36.000Z</time>
      </trkpt>
      <trkpt lat="40.1324127428233623504638671875" lon="-7.4923847615718841552734375">
        <ele>507.600006103515625</ele>
        <time>2019-04-27T17:39:47.000Z</time>
      </trkpt>
      <trkpt lat="40.13243260793387889862060546875" lon="-7.493163608014583587646484375">
        <ele>506.20001220703125</ele>
        <time>2019-04-27T17:39:57.000Z</time>
      </trkpt>
      <trkpt lat="40.1324489526450634002685546875" lon="-7.4932435713708400726318359375">
        <ele>506.20001220703125</ele>
        <time>2019-04-27T17:39:58.000Z</time>
      </trkpt>
      <trkpt lat="40.13266612775623798370361328125" lon="-7.49366174452006816864013671875">
        <ele>505.399993896484375</ele>
        <time>2019-04-27T17:40:04.000Z</time>
      </trkpt>
      <trkpt lat="40.13308891095221042633056640625" lon="-7.49420556239783763885498046875">
        <ele>503</ele>
        <time>2019-04-27T17:40:13.000Z</time>
      </trkpt>
      <trkpt lat="40.13326375745236873626708984375" lon="-7.494396753609180450439453125">
        <ele>502.399993896484375</ele>
        <time>2019-04-27T17:40:17.000Z</time>
      </trkpt>
      <trkpt lat="40.133497528731822967529296875" lon="-7.49440572224557399749755859375">
        <ele>500.399993896484375</ele>
        <time>2019-04-27T17:40:26.000Z</time>
      </trkpt>
      <trkpt lat="40.1335231773555278778076171875" lon="-7.49439842998981475830078125">
        <ele>500.20001220703125</ele>
        <time>2019-04-27T17:40:35.000Z</time>
      </trkpt>
      <trkpt lat="40.1336936652660369873046875" lon="-7.49451778829097747802734375">
        <ele>499</ele>
        <time>2019-04-27T17:40:41.000Z</time>
      </trkpt>
      <trkpt lat="40.1337226666510105133056640625" lon="-7.49474267475306987762451171875">
        <ele>499.600006103515625</ele>
        <time>2019-04-27T17:40:45.000Z</time>
      </trkpt>
      <trkpt lat="40.13372249901294708251953125" lon="-7.494912408292293548583984375">
        <ele>500.20001220703125</ele>
        <time>2019-04-27T17:40:48.000Z</time>
      </trkpt>
      <trkpt lat="40.13372912071645259857177734375" lon="-7.49502874910831451416015625">
        <ele>500.600006103515625</ele>
        <time>2019-04-27T17:40:50.000Z</time>
      </trkpt>
      <trkpt lat="40.13380967080593109130859375" lon="-7.49524340964853763580322265625">
        <ele>501.20001220703125</ele>
        <time>2019-04-27T17:40:54.000Z</time>
      </trkpt>
      <trkpt lat="40.13413363136351108551025390625" lon="-7.4958741478621959686279296875">
        <ele>503.20001220703125</ele>
        <time>2019-04-27T17:41:06.000Z</time>
      </trkpt>
      <trkpt lat="40.134289450943470001220703125" lon="-7.49617447145283222198486328125">
        <ele>504.20001220703125</ele>
        <time>2019-04-27T17:41:12.000Z</time>
      </trkpt>
      <trkpt lat="40.13433161191642284393310546875" lon="-7.49627823941409587860107421875">
        <ele>503.79998779296875</ele>
        <time>2019-04-27T17:41:14.000Z</time>
      </trkpt>
      <trkpt lat="40.13437829911708831787109375" lon="-7.4965059757232666015625">
        <ele>503.600006103515625</ele>
        <time>2019-04-27T17:41:18.000Z</time>
      </trkpt>
      <trkpt lat="40.1343829929828643798828125" lon="-7.49674511142075061798095703125">
        <ele>503.600006103515625</ele>
        <time>2019-04-27T17:41:22.000Z</time>
      </trkpt>
      <trkpt lat="40.13440570794045925140380859375" lon="-7.49730820767581462860107421875">
        <ele>504</ele>
        <time>2019-04-27T17:41:32.000Z</time>
      </trkpt>
      <trkpt lat="40.13443672098219394683837890625" lon="-7.49741314910352230072021484375">
        <ele>503.79998779296875</ele>
        <time>2019-04-27T17:41:34.000Z</time>
      </trkpt>
      <trkpt lat="40.134620703756809234619140625" lon="-7.49768572859466075897216796875">
        <ele>501.79998779296875</ele>
        <time>2019-04-27T17:41:39.000Z</time>
      </trkpt>
      <trkpt lat="40.13473645783960819244384765625" lon="-7.497865520417690277099609375">
        <ele>501</ele>
        <time>2019-04-27T17:41:42.000Z</time>
      </trkpt>
      <trkpt lat="40.13497316278517246246337890625" lon="-7.4979314021766185760498046875">
        <ele>499.399993896484375</ele>
        <time>2019-04-27T17:41:47.000Z</time>
      </trkpt>
      <trkpt lat="40.13506301678717136383056640625" lon="-7.497894354164600372314453125">
        <ele>498.79998779296875</ele>
        <time>2019-04-27T17:41:49.000Z</time>
      </trkpt>
      <trkpt lat="40.1353333331644535064697265625" lon="-7.4975587427616119384765625">
        <ele>496.79998779296875</ele>
        <time>2019-04-27T17:42:03.000Z</time>
      </trkpt>
      <trkpt lat="40.1352971233427524566650390625" lon="-7.4976819567382335662841796875">
        <ele>497.20001220703125</ele>
        <time>2019-04-27T17:42:08.000Z</time>
      </trkpt>
      <trkpt lat="40.13516418635845184326171875" lon="-7.497838698327541351318359375">
        <ele>498.20001220703125</ele>
        <time>2019-04-27T17:42:16.000Z</time>
      </trkpt>
      <trkpt lat="40.13515572063624858856201171875" lon="-7.49785671941936016082763671875">
        <ele>498.399993896484375</ele>
        <time>2019-04-27T17:42:19.000Z</time>
      </trkpt>
      <trkpt lat="40.13512386940419673919677734375" lon="-7.497882954776287078857421875">
        <ele>498.600006103515625</ele>
        <time>2019-04-27T17:43:08.000Z</time>
      </trkpt>
      <trkpt lat="40.1350983045995235443115234375" lon="-7.49792419373989105224609375">
        <ele>498.79998779296875</ele>
        <time>2019-04-27T17:43:11.000Z</time>
      </trkpt>
      <trkpt lat="40.13476143591105937957763671875" lon="-7.49804179184138774871826171875">
        <ele>500.79998779296875</ele>
        <time>2019-04-27T17:43:28.000Z</time>
      </trkpt>
      <trkpt lat="40.13476294465363025665283203125" lon="-7.4979414604604244232177734375">
        <ele>500.79998779296875</ele>
        <time>2019-04-27T17:43:30.000Z</time>
      </trkpt>
      <trkpt lat="40.1346699893474578857421875" lon="-7.4977771751582622528076171875">
        <ele>501.600006103515625</ele>
        <time>2019-04-27T17:43:34.000Z</time>
      </trkpt>
      <trkpt lat="40.13448231853544712066650390625" lon="-7.4973718263208866119384765625">
        <ele>503.20001220703125</ele>
        <time>2019-04-27T17:43:49.000Z</time>
      </trkpt>
      <trkpt lat="40.13440654613077640533447265625" lon="-7.49713235534727573394775390625">
        <ele>503.79998779296875</ele>
        <time>2019-04-27T17:44:03.000Z</time>
      </trkpt>
      <trkpt lat="40.13437670655548572540283203125" lon="-7.4971733428537845611572265625">
        <ele>504</ele>
        <time>2019-04-27T17:44:09.000Z</time>
      </trkpt>
      <trkpt lat="40.1344579271972179412841796875" lon="-7.49740174971520900726318359375">
        <ele>503.399993896484375</ele>
        <time>2019-04-27T17:44:18.000Z</time>
      </trkpt>
      <trkpt lat="40.1345290057361125946044921875" lon="-7.49743997119367122650146484375">
        <ele>502.79998779296875</ele>
        <time>2019-04-27T17:44:24.000Z</time>
      </trkpt>
      <trkpt lat="40.13454861938953399658203125" lon="-7.49747383408248424530029296875">
        <ele>502.600006103515625</ele>
        <time>2019-04-27T17:45:14.000Z</time>
      </trkpt>
      <trkpt lat="40.1348257251083850860595703125" lon="-7.49784884043037891387939453125">
        <ele>500.399993896484375</ele>
        <time>2019-04-27T17:45:28.000Z</time>
      </trkpt>
      <trkpt lat="40.13506301678717136383056640625" lon="-7.4978378601372241973876953125">
        <ele>498.79998779296875</ele>
        <time>2019-04-27T17:45:34.000Z</time>
      </trkpt>
      <trkpt lat="40.13521380722522735595703125" lon="-7.49772948212921619415283203125">
        <ele>497.600006103515625</ele>
        <time>2019-04-27T17:45:41.000Z</time>
      </trkpt>
      <trkpt lat="40.13522076420485973358154296875" lon="-7.497728727757930755615234375">
        <ele>497.600006103515625</ele>
        <time>2019-04-27T17:45:43.000Z</time>
      </trkpt>
      <trkpt lat="40.13514549471437931060791015625" lon="-7.49794824980199337005615234375">
        <ele>498.600006103515625</ele>
        <time>2019-04-27T17:51:27.000Z</time>
      </trkpt>
      <trkpt lat="40.13514935038983821868896484375" lon="-7.49806140549480915069580078125">
        <ele>499</ele>
        <time>2019-04-27T17:51:35.000Z</time>
      </trkpt>
      <trkpt lat="40.13513610698282718658447265625" lon="-7.4981245212256908416748046875">
        <ele>499.399993896484375</ele>
        <time>2019-04-27T17:51:39.000Z</time>
      </trkpt>
      <trkpt lat="40.13516125269234180450439453125" lon="-7.498199455440044403076171875">
        <ele>499.600006103515625</ele>
        <time>2019-04-27T17:51:44.000Z</time>
      </trkpt>
      <trkpt lat="40.13529234565794467926025390625" lon="-7.49834588728845119476318359375">
        <ele>499.600006103515625</ele>
        <time>2019-04-27T17:51:57.000Z</time>
      </trkpt>
      <trkpt lat="40.13533182442188262939453125" lon="-7.4983950890600681304931640625">
        <ele>499.600006103515625</ele>
        <time>2019-04-27T17:52:01.000Z</time>
      </trkpt>
      <trkpt lat="40.13544891960918903350830078125" lon="-7.498768754303455352783203125">
        <ele>502.20001220703125</ele>
        <time>2019-04-27T17:52:25.000Z</time>
      </trkpt>
      <trkpt lat="40.13567221350967884063720703125" lon="-7.498949803411960601806640625">
        <ele>503.20001220703125</ele>
        <time>2019-04-27T17:53:32.000Z</time>
      </trkpt>
      <trkpt lat="40.1356853730976581573486328125" lon="-7.4990197084844112396240234375">
        <ele>503.600006103515625</ele>
        <time>2019-04-27T17:53:37.000Z</time>
      </trkpt>
      <trkpt lat="40.1356870494782924652099609375" lon="-7.49910662882030010223388671875">
        <ele>504.20001220703125</ele>
        <time>2019-04-27T17:53:49.000Z</time>
      </trkpt>
      <trkpt lat="40.13569836504757404327392578125" lon="-7.4990607798099517822265625">
        <ele>504</ele>
        <time>2019-04-27T17:54:03.000Z</time>
      </trkpt>
      <trkpt lat="40.13599525205790996551513671875" lon="-7.4986825883388519287109375">
        <ele>500.79998779296875</ele>
        <time>2019-04-27T17:54:20.000Z</time>
      </trkpt>
      <trkpt lat="40.13614059425890445709228515625" lon="-7.49859751202166080474853515625">
        <ele>500</ele>
        <time>2019-04-27T17:54:28.000Z</time>
      </trkpt>
      <trkpt lat="40.13645927421748638153076171875" lon="-7.4984956718981266021728515625">
        <ele>499.600006103515625</ele>
        <time>2019-04-27T17:54:41.000Z</time>
      </trkpt>
      <trkpt lat="40.13676538132131099700927734375" lon="-7.498277910053730010986328125">
        <ele>499</ele>
        <time>2019-04-27T17:54:55.000Z</time>
      </trkpt>
      <trkpt lat="40.1368504576385021209716796875" lon="-7.4981862120330333709716796875">
        <ele>498.600006103515625</ele>
        <time>2019-04-27T17:55:00.000Z</time>
      </trkpt>
      <trkpt lat="40.13710551895201206207275390625" lon="-7.49798898585140705108642578125">
        <ele>498.399993896484375</ele>
        <time>2019-04-27T17:55:13.000Z</time>
      </trkpt>
      <trkpt lat="40.13725605793297290802001953125" lon="-7.4981325678527355194091796875">
        <ele>499.20001220703125</ele>
        <time>2019-04-27T17:55:24.000Z</time>
      </trkpt>
      <trkpt lat="40.1373392902314662933349609375" lon="-7.49825368635356426239013671875">
        <ele>500</ele>
        <time>2019-04-27T17:55:32.000Z</time>
      </trkpt>
      <trkpt lat="40.13712756335735321044921875" lon="-7.49850396998226642608642578125">
        <ele>501</ele>
        <time>2019-04-28T08:19:14.000Z</time>
      </trkpt>
      <trkpt lat="40.137125886976718902587890625" lon="-7.498503215610980987548828125">
        <ele>501</ele>
        <time>2019-04-28T08:19:15.000Z</time>
      </trkpt>
      <trkpt lat="40.13710116036236286163330078125" lon="-7.498489134013652801513671875">
        <ele>501</ele>
        <time>2019-04-28T08:19:19.000Z</time>
      </trkpt>
      <trkpt lat="40.1366150937974452972412109375" lon="-7.49836918897926807403564453125">
        <ele>499</ele>
        <time>2019-04-28T08:19:46.000Z</time>
      </trkpt>
      <trkpt lat="40.13641602359712123870849609375" lon="-7.4985188059508800506591796875">
        <ele>499.600006103515625</ele>
        <time>2019-04-28T08:19:57.000Z</time>
      </trkpt>
      <trkpt lat="40.13642884790897369384765625" lon="-7.49847027473151683807373046875">
        <ele>499.399993896484375</ele>
        <time>2019-04-28T08:20:04.000Z</time>
      </trkpt>
      <trkpt lat="40.1366010122001171112060546875" lon="-7.4985345639288425445556640625">
        <ele>500.20001220703125</ele>
        <time>2019-04-28T08:20:12.000Z</time>
      </trkpt>
      <trkpt lat="40.136881135404109954833984375" lon="-7.49896447174251079559326171875">
        <ele>503.600006103515625</ele>
        <time>2019-04-28T08:20:26.000Z</time>
      </trkpt>
      <trkpt lat="40.1372046768665313720703125" lon="-7.4994408152997493743896484375">
        <ele>505.600006103515625</ele>
        <time>2019-04-28T08:20:41.000Z</time>
      </trkpt>
      <trkpt lat="40.1371268928050994873046875" lon="-7.49956528656184673309326171875">
        <ele>506</ele>
        <time>2019-04-28T08:20:49.000Z</time>
      </trkpt>
      <trkpt lat="40.1371864043176174163818359375" lon="-7.4994894303381443023681640625">
        <ele>505.600006103515625</ele>
        <time>2019-04-28T08:22:31.000Z</time>
      </trkpt>
      <trkpt lat="40.1372516155242919921875" lon="-7.49940787442028522491455078125">
        <ele>505.399993896484375</ele>
        <time>2019-04-28T08:22:35.000Z</time>
      </trkpt>
      <trkpt lat="40.137319676578044891357421875" lon="-7.49935272149741649627685546875">
        <ele>505.20001220703125</ele>
        <time>2019-04-28T08:22:38.000Z</time>
      </trkpt>
      <trkpt lat="40.1374234445393085479736328125" lon="-7.49926538206636905670166015625">
        <ele>504.79998779296875</ele>
        <time>2019-04-28T08:22:42.000Z</time>
      </trkpt>
      <trkpt lat="40.1378780789673328399658203125" lon="-7.49884075485169887542724609375">
        <ele>503.20001220703125</ele>
        <time>2019-04-28T08:22:58.000Z</time>
      </trkpt>
      <trkpt lat="40.13829709030687808990478515625" lon="-7.49838913790881633758544921875">
        <ele>499.600006103515625</ele>
        <time>2019-04-28T08:23:14.000Z</time>
      </trkpt>
      <trkpt lat="40.1386683247983455657958984375" lon="-7.4978398717939853668212890625">
        <ele>495.600006103515625</ele>
        <time>2019-04-28T08:23:28.000Z</time>
      </trkpt>
      <trkpt lat="40.13902061618864536285400390625" lon="-7.49731122516095638275146484375">
        <ele>492.399993896484375</ele>
        <time>2019-04-28T08:23:42.000Z</time>
      </trkpt>
      <trkpt lat="40.13916604220867156982421875" lon="-7.49712950550019741058349609375">
        <ele>491.20001220703125</ele>
        <time>2019-04-28T08:23:49.000Z</time>
      </trkpt>
      <trkpt lat="40.13911952264606952667236328125" lon="-7.496906630694866180419921875">
        <ele>490.600006103515625</ele>
        <time>2019-04-28T08:23:54.000Z</time>
      </trkpt>
      <trkpt lat="40.13922127895057201385498046875" lon="-7.49640564434230327606201171875">
        <ele>488.20001220703125</ele>
        <time>2019-04-28T08:24:09.000Z</time>
      </trkpt>
      <trkpt lat="40.13908616267144680023193359375" lon="-7.49635468237102031707763671875">
        <ele>488.399993896484375</ele>
        <time>2019-04-28T08:24:16.000Z</time>
      </trkpt>
      <trkpt lat="40.138737894594669342041015625" lon="-7.4962302111089229583740234375">
        <ele>488.399993896484375</ele>
        <time>2019-04-28T08:24:28.000Z</time>
      </trkpt>
      <trkpt lat="40.13852499425411224365234375" lon="-7.49596877954900264739990234375">
        <ele>486.79998779296875</ele>
        <time>2019-04-28T08:24:39.000Z</time>
      </trkpt>
      <trkpt lat="40.13845257461071014404296875" lon="-7.49550995416939258575439453125">
        <ele>484.399993896484375</ele>
        <time>2019-04-28T08:24:50.000Z</time>
      </trkpt>
      <trkpt lat="40.1382089965045452117919921875" lon="-7.4955043382942676544189453125">
        <ele>485</ele>
        <time>2019-04-28T08:24:57.000Z</time>
      </trkpt>
      <trkpt lat="40.1377902366220951080322265625" lon="-7.4952072836458683013916015625">
        <ele>485.79998779296875</ele>
        <time>2019-04-28T08:25:14.000Z</time>
      </trkpt>
      <trkpt lat="40.13779652304947376251220703125" lon="-7.49519093893468379974365234375">
        <ele>485.79998779296875</ele>
        <time>2019-04-28T08:25:15.000Z</time>
      </trkpt>
      <trkpt lat="40.137841366231441497802734375" lon="-7.49529361724853515625">
        <ele>486</ele>
        <time>2019-04-28T08:25:20.000Z</time>
      </trkpt>
      <trkpt lat="40.13789467513561248779296875" lon="-7.4954077787697315216064453125">
        <ele>486</ele>
        <time>2019-04-28T08:25:25.000Z</time>
      </trkpt>
      <trkpt lat="40.1381221599876880645751953125" lon="-7.49543912708759307861328125">
        <ele>485.20001220703125</ele>
        <time>2019-04-28T08:25:32.000Z</time>
      </trkpt>
      <trkpt lat="40.13858308084309101104736328125" lon="-7.49571363441646099090576171875">
        <ele>485.600006103515625</ele>
        <time>2019-04-28T08:25:46.000Z</time>
      </trkpt>
      <trkpt lat="40.1385845057666301727294921875" lon="-7.4957645125687122344970703125">
        <ele>485.79998779296875</ele>
        <time>2019-04-28T08:25:47.000Z</time>
      </trkpt>
      <trkpt lat="40.13861124403774738311767578125" lon="-7.49616868793964385986328125">
        <ele>487.79998779296875</ele>
        <time>2019-04-28T08:25:57.000Z</time>
      </trkpt>
      <trkpt lat="40.1388299278914928436279296875" lon="-7.49616340734064579010009765625">
        <ele>487.79998779296875</ele>
        <time>2019-04-28T08:26:06.000Z</time>
      </trkpt>
      <trkpt lat="40.13907241635024547576904296875" lon="-7.49632827937602996826171875">
        <ele>488.20001220703125</ele>
        <time>2019-04-28T08:26:14.000Z</time>
      </trkpt>
      <trkpt lat="40.13955269940197467803955078125" lon="-7.49668291769921779632568359375">
        <ele>488.20001220703125</ele>
        <time>2019-04-28T08:26:29.000Z</time>
      </trkpt>
      <trkpt lat="40.14009349979460239410400390625" lon="-7.496792636811733245849609375">
        <ele>487.79998779296875</ele>
        <time>2019-04-28T08:26:42.000Z</time>
      </trkpt>
      <trkpt lat="40.14063547365367412567138671875" lon="-7.49701165594160556793212890625">
        <ele>488</ele>
        <time>2019-04-28T08:26:57.000Z</time>
      </trkpt>
      <trkpt lat="40.14111441560089588165283203125" lon="-7.4972729198634624481201171875">
        <ele>489</ele>
        <time>2019-04-28T08:27:13.000Z</time>
      </trkpt>
      <trkpt lat="40.14166091568768024444580078125" lon="-7.497245930135250091552734375">
        <ele>489</ele>
        <time>2019-04-28T08:27:29.000Z</time>
      </trkpt>
      <trkpt lat="40.14221563003957271575927734375" lon="-7.4971823953092098236083984375">
        <ele>488.20001220703125</ele>
        <time>2019-04-28T08:27:43.000Z</time>
      </trkpt>
      <trkpt lat="40.14269591309130191802978515625" lon="-7.4972705729305744171142578125">
        <ele>486.79998779296875</ele>
        <time>2019-04-28T08:28:09.000Z</time>
      </trkpt>
      <trkpt lat="40.14270446263253688812255859375" lon="-7.497245259582996368408203125">
        <ele>486.79998779296875</ele>
        <time>2019-04-28T08:28:13.000Z</time>
      </trkpt>
      <trkpt lat="40.14275291003286838531494140625" lon="-7.49736227095127105712890625">
        <ele>486.600006103515625</ele>
        <time>2019-04-28T08:29:22.000Z</time>
      </trkpt>
      <trkpt lat="40.14313361607491970062255859375" lon="-7.4975847266614437103271484375">
        <ele>485.20001220703125</ele>
        <time>2019-04-28T08:29:39.000Z</time>
      </trkpt>
      <trkpt lat="40.1431868411600589752197265625" lon="-7.49767634086310863494873046875">
        <ele>484.600006103515625</ele>
        <time>2019-04-28T08:47:32.000Z</time>
      </trkpt>
      <trkpt lat="40.14341390691697597503662109375" lon="-7.49781430698931217193603515625">
        <ele>483.600006103515625</ele>
        <time>2019-04-28T08:47:40.000Z</time>
      </trkpt>
      <trkpt lat="40.14393241144716739654541015625" lon="-7.4981067515909671783447265625">
        <ele>481</ele>
        <time>2019-04-28T08:47:51.000Z</time>
      </trkpt>
      <trkpt lat="40.14445728622376918792724609375" lon="-7.4984323047101497650146484375">
        <ele>477.600006103515625</ele>
        <time>2019-04-28T08:48:00.000Z</time>
      </trkpt>
      <trkpt lat="40.1448597013950347900390625" lon="-7.498671524226665496826171875">
        <ele>478.20001220703125</ele>
        <time>2019-04-28T08:48:07.000Z</time>
      </trkpt>
      <trkpt lat="40.14513772912323474884033203125" lon="-7.49881410039961338043212890625">
        <ele>478.20001220703125</ele>
        <time>2019-04-28T08:48:12.000Z</time>
      </trkpt>
      <trkpt lat="40.1456501148641109466552734375" lon="-7.499121129512786865234375">
        <ele>479.600006103515625</ele>
        <time>2019-04-28T08:48:21.000Z</time>
      </trkpt>
      <trkpt lat="40.1462249457836151123046875" lon="-7.49923101626336574554443359375">
        <ele>480.399993896484375</ele>
        <time>2019-04-28T08:48:30.000Z</time>
      </trkpt>
      <trkpt lat="40.1467820070683956146240234375" lon="-7.499200589954853057861328125">
        <ele>480.79998779296875</ele>
        <time>2019-04-28T08:48:39.000Z</time>
      </trkpt>
      <trkpt lat="40.14736932702362537384033203125" lon="-7.49907947145402431488037109375">
        <ele>480.399993896484375</ele>
        <time>2019-04-28T08:48:49.000Z</time>
      </trkpt>
      <trkpt lat="40.147911719977855682373046875" lon="-7.49895642511546611785888671875">
        <ele>479.79998779296875</ele>
        <time>2019-04-28T08:48:58.000Z</time>
      </trkpt>
      <trkpt lat="40.14847976155579090118408203125" lon="-7.4988386593759059906005859375">
        <ele>476.600006103515625</ele>
        <time>2019-04-28T08:49:07.000Z</time>
      </trkpt>
      <trkpt lat="40.14905132353305816650390625" lon="-7.49872793443500995635986328125">
        <ele>474.399993896484375</ele>
        <time>2019-04-28T08:49:16.000Z</time>
      </trkpt>
      <trkpt lat="40.14964920468628406524658203125" lon="-7.4986093305051326751708984375">
        <ele>472.20001220703125</ele>
        <time>2019-04-28T08:49:25.000Z</time>
      </trkpt>
      <trkpt lat="40.1501843892037868499755859375" lon="-7.49849877320230007171630859375">
        <ele>470.399993896484375</ele>
        <time>2019-04-28T08:49:33.000Z</time>
      </trkpt>
      <trkpt lat="40.15037231147289276123046875" lon="-7.49842618592083454132080078125">
        <ele>469.600006103515625</ele>
        <time>2019-04-28T08:49:36.000Z</time>
      </trkpt>
      <trkpt lat="40.15085334889590740203857421875" lon="-7.49800491146743297576904296875">
        <ele>468</ele>
        <time>2019-04-28T08:49:45.000Z</time>
      </trkpt>
      <trkpt lat="40.15135265886783599853515625" lon="-7.49757709912955760955810546875">
        <ele>466.79998779296875</ele>
        <time>2019-04-28T08:49:55.000Z</time>
      </trkpt>
      <trkpt lat="40.15190846286714076995849609375" lon="-7.4973570741713047027587890625">
        <ele>465.399993896484375</ele>
        <time>2019-04-28T08:50:04.000Z</time>
      </trkpt>
      <trkpt lat="40.1524964533746242523193359375" lon="-7.4971602670848369598388671875">
        <ele>464</ele>
        <time>2019-04-28T08:50:13.000Z</time>
      </trkpt>
      <trkpt lat="40.15309475362300872802734375" lon="-7.49713872559368610382080078125">
        <ele>462.20001220703125</ele>
        <time>2019-04-28T08:50:22.000Z</time>
      </trkpt>
      <trkpt lat="40.15322190709412097930908203125" lon="-7.497136294841766357421875">
        <ele>462.600006103515625</ele>
        <time>2019-04-28T08:50:24.000Z</time>
      </trkpt>
      <trkpt lat="40.1535267569124698638916015625" lon="-7.4971213750541210174560546875">
        <ele>462.600006103515625</ele>
        <time>2019-04-28T08:50:29.000Z</time>
      </trkpt>
      <trkpt lat="40.1540678925812244415283203125" lon="-7.49712229706346988677978515625">
        <ele>461.600006103515625</ele>
        <time>2019-04-28T08:50:38.000Z</time>
      </trkpt>
      <trkpt lat="40.15466141514480113983154296875" lon="-7.49710838310420513153076171875">
        <ele>463.20001220703125</ele>
        <time>2019-04-28T08:50:48.000Z</time>
      </trkpt>
      <trkpt lat="40.15486677177250385284423828125" lon="-7.49689028598368167877197265625">
        <ele>463.600006103515625</ele>
        <time>2019-04-28T08:50:53.000Z</time>
      </trkpt>
      <trkpt lat="40.1549018919467926025390625" lon="-7.4968430958688259124755859375">
        <ele>463.79998779296875</ele>
        <time>2019-04-28T08:50:54.000Z</time>
      </trkpt>
      <trkpt lat="40.1553781516849994659423828125" lon="-7.4970596842467784881591796875">
        <ele>463.600006103515625</ele>
        <time>2019-04-28T08:51:05.000Z</time>
      </trkpt>
      <trkpt lat="40.1554328016936779022216796875" lon="-7.49705725349485874176025390625">
        <ele>463.600006103515625</ele>
        <time>2019-04-28T08:51:06.000Z</time>
      </trkpt>
      <trkpt lat="40.1560212112963199615478515625" lon="-7.49701567925512790679931640625">
        <ele>462.399993896484375</ele>
        <time>2019-04-28T08:51:17.000Z</time>
      </trkpt>
      <trkpt lat="40.156587660312652587890625" lon="-7.49696169979870319366455078125">
        <ele>460.399993896484375</ele>
        <time>2019-04-28T08:51:26.000Z</time>
      </trkpt>
      <trkpt lat="40.15713709406554698944091796875" lon="-7.49691057018935680389404296875">
        <ele>459</ele>
        <time>2019-04-28T08:51:34.000Z</time>
      </trkpt>
      <trkpt lat="40.15766951255500316619873046875" lon="-7.49699070118367671966552734375">
        <ele>457.79998779296875</ele>
        <time>2019-04-28T08:51:42.000Z</time>
      </trkpt>
      <trkpt lat="40.15820008702576160430908203125" lon="-7.497262023389339447021484375">
        <ele>456.79998779296875</ele>
        <time>2019-04-28T08:51:51.000Z</time>
      </trkpt>
      <trkpt lat="40.15874214470386505126953125" lon="-7.49754323624074459075927734375">
        <ele>455</ele>
        <time>2019-04-28T08:52:00.000Z</time>
      </trkpt>
      <trkpt lat="40.15928923152387142181396484375" lon="-7.49782486818730831146240234375">
        <ele>451.399993896484375</ele>
        <time>2019-04-28T08:52:08.000Z</time>
      </trkpt>
      <trkpt lat="40.15943909995257854461669921875" lon="-7.49787935055792331695556640625">
        <ele>450.399993896484375</ele>
        <time>2019-04-28T08:52:10.000Z</time>
      </trkpt>
      <trkpt lat="40.15987806022167205810546875" lon="-7.4977932684123516082763671875">
        <ele>448</ele>
        <time>2019-04-28T08:52:16.000Z</time>
      </trkpt>
      <trkpt lat="40.15994536690413951873779296875" lon="-7.497772984206676483154296875">
        <ele>447.79998779296875</ele>
        <time>2019-04-28T08:52:17.000Z</time>
      </trkpt>
      <trkpt lat="40.16020989976823329925537109375" lon="-7.49779184348881244659423828125">
        <ele>446.399993896484375</ele>
        <time>2019-04-28T08:52:21.000Z</time>
      </trkpt>
      <trkpt lat="40.1606315933167934417724609375" lon="-7.49766133725643157958984375">
        <ele>444.399993896484375</ele>
        <time>2019-04-28T08:52:33.000Z</time>
      </trkpt>
      <trkpt lat="40.16066352836787700653076171875" lon="-7.49764398671686649322509765625">
        <ele>444.20001220703125</ele>
        <time>2019-04-28T08:53:35.000Z</time>
      </trkpt>
      <trkpt lat="40.16109603457152843475341796875" lon="-7.4974194355309009552001953125">
        <ele>442.399993896484375</ele>
        <time>2019-04-28T08:53:47.000Z</time>
      </trkpt>
      <trkpt lat="40.1615727134048938751220703125" lon="-7.49698986299335956573486328125">
        <ele>439.399993896484375</ele>
        <time>2019-04-28T08:53:55.000Z</time>
      </trkpt>
      <trkpt lat="40.16201619990170001983642578125" lon="-7.4965547583997249603271484375">
        <ele>437</ele>
        <time>2019-04-28T08:54:01.000Z</time>
      </trkpt>
      <trkpt lat="40.16260846517980098724365234375" lon="-7.4965014494955539703369140625">
        <ele>435.399993896484375</ele>
        <time>2019-04-28T08:54:07.000Z</time>
      </trkpt>
      <trkpt lat="40.16304214484989643096923828125" lon="-7.49696840532124042510986328125">
        <ele>435.399993896484375</ele>
        <time>2019-04-28T08:54:13.000Z</time>
      </trkpt>
      <trkpt lat="40.16311272047460079193115234375" lon="-7.49716370366513729095458984375">
        <ele>435.79998779296875</ele>
        <time>2019-04-28T08:54:15.000Z</time>
      </trkpt>
      <trkpt lat="40.16315144486725330352783203125" lon="-7.49725573696196079254150390625">
        <ele>436</ele>
        <time>2019-04-28T08:54:16.000Z</time>
      </trkpt>
      <trkpt lat="40.163634158670902252197265625" lon="-7.49733318574726581573486328125">
        <ele>436.600006103515625</ele>
        <time>2019-04-28T08:54:24.000Z</time>
      </trkpt>
      <trkpt lat="40.16414268873631954193115234375" lon="-7.49705842696130275726318359375">
        <ele>437.399993896484375</ele>
        <time>2019-04-28T08:54:32.000Z</time>
      </trkpt>
      <trkpt lat="40.1647055335342884063720703125" lon="-7.4967793934047222137451171875">
        <ele>437.79998779296875</ele>
        <time>2019-04-28T08:54:41.000Z</time>
      </trkpt>
      <trkpt lat="40.16524893231689929962158203125" lon="-7.49650421552360057830810546875">
        <ele>436.79998779296875</ele>
        <time>2019-04-28T08:54:50.000Z</time>
      </trkpt>
      <trkpt lat="40.16578202135860919952392578125" lon="-7.496233396232128143310546875">
        <ele>435.600006103515625</ele>
        <time>2019-04-28T08:54:59.000Z</time>
      </trkpt>
      <trkpt lat="40.16631075181066989898681640625" lon="-7.495959140360355377197265625">
        <ele>434.600006103515625</ele>
        <time>2019-04-28T08:55:08.000Z</time>
      </trkpt>
      <trkpt lat="40.166845433413982391357421875" lon="-7.49568714760243892669677734375">
        <ele>433.20001220703125</ele>
        <time>2019-04-28T08:55:17.000Z</time>
      </trkpt>
      <trkpt lat="40.1673941127955913543701171875" lon="-7.4954218603670597076416015625">
        <ele>430.79998779296875</ele>
        <time>2019-04-28T08:55:26.000Z</time>
      </trkpt>
      <trkpt lat="40.167952515184879302978515625" lon="-7.4952354468405246734619140625">
        <ele>428.20001220703125</ele>
        <time>2019-04-28T08:55:34.000Z</time>
      </trkpt>
      <trkpt lat="40.1685152761638164520263671875" lon="-7.495093457400798797607421875">
        <ele>428.20001220703125</ele>
        <time>2019-04-28T08:55:42.000Z</time>
      </trkpt>
      <trkpt lat="40.16904643736779689788818359375" lon="-7.4949588440358638763427734375">
        <ele>427.79998779296875</ele>
        <time>2019-04-28T08:55:50.000Z</time>
      </trkpt>
      <trkpt lat="40.169528312981128692626953125" lon="-7.49463739804923534393310546875">
        <ele>427.600006103515625</ele>
        <time>2019-04-28T08:55:58.000Z</time>
      </trkpt>
      <trkpt lat="40.1699489168822765350341796875" lon="-7.4944009445607662200927734375">
        <ele>427.399993896484375</ele>
        <time>2019-04-28T08:56:07.000Z</time>
      </trkpt>
      <trkpt lat="40.1703804172575473785400390625" lon="-7.49454796314239501953125">
        <ele>427</ele>
        <time>2019-04-28T08:56:15.000Z</time>
      </trkpt>
      <trkpt lat="40.170926414430141448974609375" lon="-7.4944334663450717926025390625">
        <ele>427.600006103515625</ele>
        <time>2019-04-28T08:56:24.000Z</time>
      </trkpt>
      <trkpt lat="40.1714967191219329833984375" lon="-7.49428686685860157012939453125">
        <ele>427.600006103515625</ele>
        <time>2019-04-28T08:56:34.000Z</time>
      </trkpt>
      <trkpt lat="40.1720732264220714569091796875" lon="-7.49413649551570415496826171875">
        <ele>427</ele>
        <time>2019-04-28T08:56:44.000Z</time>
      </trkpt>
      <trkpt lat="40.17264327965676784515380859375" lon="-7.49399299733340740203857421875">
        <ele>426.20001220703125</ele>
        <time>2019-04-28T08:56:53.000Z</time>
      </trkpt>
      <trkpt lat="40.1731772907078266143798828125" lon="-7.49386240728199481964111328125">
        <ele>425.20001220703125</ele>
        <time>2019-04-28T08:57:01.000Z</time>
      </trkpt>
      <trkpt lat="40.17370761372148990631103515625" lon="-7.49372544698417186737060546875">
        <ele>425</ele>
        <time>2019-04-28T08:57:10.000Z</time>
      </trkpt>
      <trkpt lat="40.17426408827304840087890625" lon="-7.4935805238783359527587890625">
        <ele>425</ele>
        <time>2019-04-28T08:57:20.000Z</time>
      </trkpt>
      <trkpt lat="40.17482894472777843475341796875" lon="-7.4934335052967071533203125">
        <ele>425.399993896484375</ele>
        <time>2019-04-28T08:57:30.000Z</time>
      </trkpt>
      <trkpt lat="40.175388269126415252685546875" lon="-7.493220604956150054931640625">
        <ele>425.600006103515625</ele>
        <time>2019-04-28T08:57:40.000Z</time>
      </trkpt>
      <trkpt lat="40.17548792995512485504150390625" lon="-7.49314575456082820892333984375">
        <ele>425.399993896484375</ele>
        <time>2019-04-28T08:57:42.000Z</time>
      </trkpt>
      <trkpt lat="40.175920687615871429443359375" lon="-7.49284568242728710174560546875">
        <ele>423.20001220703125</ele>
        <time>2019-04-28T08:57:52.000Z</time>
      </trkpt>
      <trkpt lat="40.1760080270469188690185546875" lon="-7.49292564578354358673095703125">
        <ele>422.79998779296875</ele>
        <time>2019-04-28T08:57:54.000Z</time>
      </trkpt>
      <trkpt lat="40.176103077828884124755859375" lon="-7.49299236573278903961181640625">
        <ele>422.399993896484375</ele>
        <time>2019-04-28T08:57:56.000Z</time>
      </trkpt>
      <trkpt lat="40.1764036528766155242919921875" lon="-7.49301466159522533416748046875">
        <ele>421.399993896484375</ele>
        <time>2019-04-28T08:58:01.000Z</time>
      </trkpt>
      <trkpt lat="40.1769535057246685028076171875" lon="-7.49289832077920436859130859375">
        <ele>420.600006103515625</ele>
        <time>2019-04-28T08:58:09.000Z</time>
      </trkpt>
      <trkpt lat="40.1775016821920871734619140625" lon="-7.4927530623972415924072265625">
        <ele>419</ele>
        <time>2019-04-28T08:58:17.000Z</time>
      </trkpt>
      <trkpt lat="40.1780565641820430755615234375" lon="-7.49256103299558162689208984375">
        <ele>416.79998779296875</ele>
        <time>2019-04-28T08:58:25.000Z</time>
      </trkpt>
      <trkpt lat="40.17857263796031475067138671875" lon="-7.49229314737021923065185546875">
        <ele>416.399993896484375</ele>
        <time>2019-04-28T08:58:33.000Z</time>
      </trkpt>
      <trkpt lat="40.17907018773257732391357421875" lon="-7.49198368750512599945068359375">
        <ele>414.600006103515625</ele>
        <time>2019-04-28T08:58:41.000Z</time>
      </trkpt>
      <trkpt lat="40.17930907197296619415283203125" lon="-7.49182091094553470611572265625">
        <ele>413</ele>
        <time>2019-04-28T08:58:45.000Z</time>
      </trkpt>
      <trkpt lat="40.1794003508985042572021484375" lon="-7.4917274527251720428466796875">
        <ele>412.399993896484375</ele>
        <time>2019-04-28T08:58:47.000Z</time>
      </trkpt>
      <trkpt lat="40.1795703358948230743408203125" lon="-7.49134766869246959686279296875">
        <ele>412</ele>
        <time>2019-04-28T08:58:55.000Z</time>
      </trkpt>
      <trkpt lat="40.17991223372519016265869140625" lon="-7.4912563897669315338134765625">
        <ele>410.600006103515625</ele>
        <time>2019-04-28T08:59:02.000Z</time>
      </trkpt>
      <trkpt lat="40.18002220429480075836181640625" lon="-7.49128011055290699005126953125">
        <ele>410</ele>
        <time>2019-04-28T08:59:04.000Z</time>
      </trkpt>
      <trkpt lat="40.180196128785610198974609375" lon="-7.49122931621968746185302734375">
        <ele>409.20001220703125</ele>
        <time>2019-04-28T08:59:07.000Z</time>
      </trkpt>
      <trkpt lat="40.18068470992147922515869140625" lon="-7.49092723242938518524169921875">
        <ele>408.79998779296875</ele>
        <time>2019-04-28T08:59:15.000Z</time>
      </trkpt>
      <trkpt lat="40.1812333054840564727783203125" lon="-7.49067359603941440582275390625">
        <ele>410.79998779296875</ele>
        <time>2019-04-28T08:59:24.000Z</time>
      </trkpt>
      <trkpt lat="40.1817922107875347137451171875" lon="-7.49052456580102443695068359375">
        <ele>410</ele>
        <time>2019-04-28T08:59:33.000Z</time>
      </trkpt>
      <trkpt lat="40.1823407225310802459716796875" lon="-7.4904557503759860992431640625">
        <ele>408.79998779296875</ele>
        <time>2019-04-28T08:59:41.000Z</time>
      </trkpt>
      <trkpt lat="40.1828842051327228546142578125" lon="-7.490377128124237060546875">
        <ele>408.20001220703125</ele>
        <time>2019-04-28T08:59:49.000Z</time>
      </trkpt>
      <trkpt lat="40.18342676572501659393310546875" lon="-7.49031133018434047698974609375">
        <ele>406.79998779296875</ele>
        <time>2019-04-28T08:59:57.000Z</time>
      </trkpt>
      <trkpt lat="40.184024311602115631103515625" lon="-7.4902381561696529388427734375">
        <ele>406.399993896484375</ele>
        <time>2019-04-28T09:00:06.000Z</time>
      </trkpt>
      <trkpt lat="40.1846180856227874755859375" lon="-7.49025936238467693328857421875">
        <ele>406.79998779296875</ele>
        <time>2019-04-28T09:00:15.000Z</time>
      </trkpt>
      <trkpt lat="40.18520054407417774200439453125" lon="-7.49029993079602718353271484375">
        <ele>403.20001220703125</ele>
        <time>2019-04-28T09:00:24.000Z</time>
      </trkpt>
      <trkpt lat="40.18579490482807159423828125" lon="-7.49034418724477291107177734375">
        <ele>401.399993896484375</ele>
        <time>2019-04-28T09:00:33.000Z</time>
      </trkpt>
      <trkpt lat="40.1863948814570903778076171875" lon="-7.49039213173091411590576171875">
        <ele>401.20001220703125</ele>
        <time>2019-04-28T09:00:42.000Z</time>
      </trkpt>
      <trkpt lat="40.18694615922868251800537109375" lon="-7.4904275871813297271728515625">
        <ele>400.79998779296875</ele>
        <time>2019-04-28T09:00:51.000Z</time>
      </trkpt>
      <trkpt lat="40.18748662434518337249755859375" lon="-7.49047025106847286224365234375">
        <ele>402.20001220703125</ele>
        <time>2019-04-28T09:01:00.000Z</time>
      </trkpt>
      <trkpt lat="40.1880353875458240509033203125" lon="-7.49050780199468135833740234375">
        <ele>402</ele>
        <time>2019-04-28T09:01:09.000Z</time>
      </trkpt>
      <trkpt lat="40.188610553741455078125" lon="-7.490577287971973419189453125">
        <ele>403</ele>
        <time>2019-04-28T09:01:19.000Z</time>
      </trkpt>
      <trkpt lat="40.18916283734142780303955078125" lon="-7.49078339897096157073974609375">
        <ele>404</ele>
        <time>2019-04-28T09:01:29.000Z</time>
      </trkpt>
      <trkpt lat="40.18953532911837100982666015625" lon="-7.490989007055759429931640625">
        <ele>404.79998779296875</ele>
        <time>2019-04-28T09:01:36.000Z</time>
      </trkpt>
      <trkpt lat="40.18964010290801525115966796875" lon="-7.4910329282283782958984375">
        <ele>405</ele>
        <time>2019-04-28T09:01:38.000Z</time>
      </trkpt>
      <trkpt lat="40.18973448313772678375244140625" lon="-7.4910716526210308074951171875">
        <ele>405.20001220703125</ele>
        <time>2019-04-28T09:01:40.000Z</time>
      </trkpt>
      <trkpt lat="40.18986322917044162750244140625" lon="-7.4912667833268642425537109375">
        <ele>405.20001220703125</ele>
        <time>2019-04-28T09:01:44.000Z</time>
      </trkpt>
      <trkpt lat="40.1899310387670993804931640625" lon="-7.4913868121802806854248046875">
        <ele>405.399993896484375</ele>
        <time>2019-04-28T09:01:46.000Z</time>
      </trkpt>
      <trkpt lat="40.1900963298976421356201171875" lon="-7.49159577302634716033935546875">
        <ele>405.600006103515625</ele>
        <time>2019-04-28T09:01:50.000Z</time>
      </trkpt>
      <trkpt lat="40.19052154384553432464599609375" lon="-7.4920603819191455841064453125">
        <ele>405.79998779296875</ele>
        <time>2019-04-28T09:02:00.000Z</time>
      </trkpt>
      <trkpt lat="40.19097751937806606292724609375" lon="-7.492556087672710418701171875">
        <ele>408.20001220703125</ele>
        <time>2019-04-28T09:02:11.000Z</time>
      </trkpt>
      <trkpt lat="40.19130508415400981903076171875" lon="-7.4929079599678516387939453125">
        <ele>408.600006103515625</ele>
        <time>2019-04-28T09:02:19.000Z</time>
      </trkpt>
      <trkpt lat="40.1917492412030696868896484375" lon="-7.493393607437610626220703125">
        <ele>408.79998779296875</ele>
        <time>2019-04-28T09:02:30.000Z</time>
      </trkpt>
      <trkpt lat="40.19223463721573352813720703125" lon="-7.49382753856480121612548828125">
        <ele>409</ele>
        <time>2019-04-28T09:02:41.000Z</time>
      </trkpt>
      <trkpt lat="40.1927540637552738189697265625" lon="-7.49415569007396697998046875">
        <ele>409.600006103515625</ele>
        <time>2019-04-28T09:02:52.000Z</time>
      </trkpt>
      <trkpt lat="40.19327516667544841766357421875" lon="-7.494396083056926727294921875">
        <ele>409.20001220703125</ele>
        <time>2019-04-28T09:03:03.000Z</time>
      </trkpt>
      <trkpt lat="40.19381345249712467193603515625" lon="-7.4946235679090023040771484375">
        <ele>410.399993896484375</ele>
        <time>2019-04-28T09:03:13.000Z</time>
      </trkpt>
      <trkpt lat="40.19436724483966827392578125" lon="-7.4948669783771038055419921875">
        <ele>406.600006103515625</ele>
        <time>2019-04-28T09:03:23.000Z</time>
      </trkpt>
      <trkpt lat="40.19493327476084232330322265625" lon="-7.49511164613068103790283203125">
        <ele>404.600006103515625</ele>
        <time>2019-04-28T09:03:33.000Z</time>
      </trkpt>
      <trkpt lat="40.195471309125423431396484375" lon="-7.49534097500145435333251953125">
        <ele>403</ele>
        <time>2019-04-28T09:03:43.000Z</time>
      </trkpt>
      <trkpt lat="40.196018479764461517333984375" lon="-7.4955744110047817230224609375">
        <ele>403.600006103515625</ele>
        <time>2019-04-28T09:03:54.000Z</time>
      </trkpt>
      <trkpt lat="40.19655852578580379486083984375" lon="-7.49575202353298664093017578125">
        <ele>404</ele>
        <time>2019-04-28T09:04:04.000Z</time>
      </trkpt>
      <trkpt lat="40.1967247389256954193115234375" lon="-7.49577163718640804290771484375">
        <ele>404.600006103515625</ele>
        <time>2019-04-28T09:04:07.000Z</time>
      </trkpt>
      <trkpt lat="40.1972249709069728851318359375" lon="-7.4961058236658573150634765625">
        <ele>406.20001220703125</ele>
        <time>2019-04-28T09:04:17.000Z</time>
      </trkpt>
      <trkpt lat="40.197754204273223876953125" lon="-7.49633171595633029937744140625">
        <ele>407.399993896484375</ele>
        <time>2019-04-28T09:04:27.000Z</time>
      </trkpt>
      <trkpt lat="40.19827346317470073699951171875" lon="-7.4965641461312770843505859375">
        <ele>409.79998779296875</ele>
        <time>2019-04-28T09:04:38.000Z</time>
      </trkpt>
      <trkpt lat="40.19878928549587726593017578125" lon="-7.49678484164178371429443359375">
        <ele>412.20001220703125</ele>
        <time>2019-04-28T09:04:50.000Z</time>
      </trkpt>
      <trkpt lat="40.1993053592741489410400390625" lon="-7.49700687825679779052734375">
        <ele>413.20001220703125</ele>
        <time>2019-04-28T09:05:03.000Z</time>
      </trkpt>
      <trkpt lat="40.1998505182564258575439453125" lon="-7.49724500812590122222900390625">
        <ele>415.600006103515625</ele>
        <time>2019-04-28T09:05:19.000Z</time>
      </trkpt>
      <trkpt lat="40.2003752253949642181396484375" lon="-7.4974653683602809906005859375">
        <ele>418.600006103515625</ele>
        <time>2019-04-28T09:05:35.000Z</time>
      </trkpt>
      <trkpt lat="40.20090756006538867950439453125" lon="-7.49769394285976886749267578125">
        <ele>421.399993896484375</ele>
        <time>2019-04-28T09:05:52.000Z</time>
      </trkpt>
      <trkpt lat="40.20144215784966945648193359375" lon="-7.4979464896023273468017578125">
        <ele>423.399993896484375</ele>
        <time>2019-04-28T09:06:09.000Z</time>
      </trkpt>
      <trkpt lat="40.2017413079738616943359375" lon="-7.49790935777127742767333984375">
        <ele>424.20001220703125</ele>
        <time>2019-04-28T09:06:17.000Z</time>
      </trkpt>
      <trkpt lat="40.20194775424897670745849609375" lon="-7.49808956868946552276611328125">
        <ele>426</ele>
        <time>2019-04-28T09:06:25.000Z</time>
      </trkpt>
      <trkpt lat="40.2024546079337596893310546875" lon="-7.4983823485672473907470703125">
        <ele>428.600006103515625</ele>
        <time>2019-04-28T09:06:46.000Z</time>
      </trkpt>
      <trkpt lat="40.2030111663043498992919921875" lon="-7.4984259344637393951416015625">
        <ele>430</ele>
        <time>2019-04-28T09:07:04.000Z</time>
      </trkpt>
      <trkpt lat="40.2035757713019847869873046875" lon="-7.49843406490981578826904296875">
        <ele>433.399993896484375</ele>
        <time>2019-04-28T09:07:22.000Z</time>
      </trkpt>
      <trkpt lat="40.20410676486790180206298828125" lon="-7.498568259179592132568359375">
        <ele>438.600006103515625</ele>
        <time>2019-04-28T09:07:40.000Z</time>
      </trkpt>
      <trkpt lat="40.2046382613480091094970703125" lon="-7.49877981841564178466796875">
        <ele>441.20001220703125</ele>
        <time>2019-04-28T09:07:57.000Z</time>
      </trkpt>
      <trkpt lat="40.20517118275165557861328125" lon="-7.49900302849709987640380859375">
        <ele>442.600006103515625</ele>
        <time>2019-04-28T09:08:17.000Z</time>
      </trkpt>
      <trkpt lat="40.205704271793365478515625" lon="-7.49920704402029514312744140625">
        <ele>443</ele>
        <time>2019-04-28T09:08:36.000Z</time>
      </trkpt>
      <trkpt lat="40.20624004304409027099609375" lon="-7.49942396767437458038330078125">
        <ele>445.79998779296875</ele>
        <time>2019-04-28T09:08:57.000Z</time>
      </trkpt>
      <trkpt lat="40.2067773230373859405517578125" lon="-7.49954760074615478515625">
        <ele>449.20001220703125</ele>
        <time>2019-04-28T09:09:17.000Z</time>
      </trkpt>
      <trkpt lat="40.20731426775455474853515625" lon="-7.4994616024196147918701171875">
        <ele>453.20001220703125</ele>
        <time>2019-04-28T09:09:36.000Z</time>
      </trkpt>
      <trkpt lat="40.20783352665603160858154296875" lon="-7.49918617308139801025390625">
        <ele>456.79998779296875</ele>
        <time>2019-04-28T09:09:57.000Z</time>
      </trkpt>
      <trkpt lat="40.2083205990493297576904296875" lon="-7.4988738633692264556884765625">
        <ele>459.79998779296875</ele>
        <time>2019-04-28T09:10:17.000Z</time>
      </trkpt>
      <trkpt lat="40.20881806500256061553955078125" lon="-7.49856398440897464752197265625">
        <ele>463.399993896484375</ele>
        <time>2019-04-28T09:10:38.000Z</time>
      </trkpt>
      <trkpt lat="40.2093066461384296417236328125" lon="-7.49825100414454936981201171875">
        <ele>464.399993896484375</ele>
        <time>2019-04-28T09:10:58.000Z</time>
      </trkpt>
      <trkpt lat="40.20980712957680225372314453125" lon="-7.4979112856090068817138671875">
        <ele>466.79998779296875</ele>
        <time>2019-04-28T09:11:18.000Z</time>
      </trkpt>
      <trkpt lat="40.2103000693023204803466796875" lon="-7.4975625984370708465576171875">
        <ele>469</ele>
        <time>2019-04-28T09:11:37.000Z</time>
      </trkpt>
      <trkpt lat="40.21081446669995784759521484375" lon="-7.4973205290734767913818359375">
        <ele>471.399993896484375</ele>
        <time>2019-04-28T09:11:55.000Z</time>
      </trkpt>
      <trkpt lat="40.211334228515625" lon="-7.49704635702073574066162109375">
        <ele>473</ele>
        <time>2019-04-28T09:12:12.000Z</time>
      </trkpt>
      <trkpt lat="40.2118668146431446075439453125" lon="-7.49683949165046215057373046875">
        <ele>474.600006103515625</ele>
        <time>2019-04-28T09:12:31.000Z</time>
      </trkpt>
      <trkpt lat="40.2124200202524662017822265625" lon="-7.49669012613594532012939453125">
        <ele>472.79998779296875</ele>
        <time>2019-04-28T09:12:46.000Z</time>
      </trkpt>
      <trkpt lat="40.21266301162540912628173828125" lon="-7.4966375716030597686767578125">
        <ele>471.399993896484375</ele>
        <time>2019-04-28T09:12:52.000Z</time>
      </trkpt>
      <trkpt lat="40.21320699714124202728271484375" lon="-7.496586777269840240478515625">
        <ele>468.79998779296875</ele>
        <time>2019-04-28T09:13:04.000Z</time>
      </trkpt>
      <trkpt lat="40.213309340178966522216796875" lon="-7.49659541063010692596435546875">
        <ele>468.20001220703125</ele>
        <time>2019-04-28T09:13:06.000Z</time>
      </trkpt>
      <trkpt lat="40.2138982526957988739013671875" lon="-7.496574707329273223876953125">
        <ele>465.399993896484375</ele>
        <time>2019-04-28T09:13:16.000Z</time>
      </trkpt>
      <trkpt lat="40.21451071836054325103759765625" lon="-7.496575377881526947021484375">
        <ele>463.20001220703125</ele>
        <time>2019-04-28T09:13:25.000Z</time>
      </trkpt>
      <trkpt lat="40.215121842920780181884765625" lon="-7.4965663254261016845703125">
        <ele>458.20001220703125</ele>
        <time>2019-04-28T09:13:33.000Z</time>
      </trkpt>
      <trkpt lat="40.215690135955810546875" lon="-7.49650186859071254730224609375">
        <ele>454</ele>
        <time>2019-04-28T09:13:40.000Z</time>
      </trkpt>
      <trkpt lat="40.21626806817948818206787109375" lon="-7.4963727034628391265869140625">
        <ele>449.20001220703125</ele>
        <time>2019-04-28T09:13:47.000Z</time>
      </trkpt>
      <trkpt lat="40.21678975783288478851318359375" lon="-7.496187128126621246337890625">
        <ele>446.20001220703125</ele>
        <time>2019-04-28T09:13:53.000Z</time>
      </trkpt>
      <trkpt lat="40.21733659319579601287841796875" lon="-7.4959458969533443450927734375">
        <ele>446</ele>
        <time>2019-04-28T09:13:59.000Z</time>
      </trkpt>
      <trkpt lat="40.21789113990962505340576171875" lon="-7.49567977152764797210693359375">
        <ele>444.600006103515625</ele>
        <time>2019-04-28T09:14:05.000Z</time>
      </trkpt>
      <trkpt lat="40.21840922534465789794921875" lon="-7.49545329250395298004150390625">
        <ele>441.399993896484375</ele>
        <time>2019-04-28T09:14:11.000Z</time>
      </trkpt>
      <trkpt lat="40.21854333579540252685546875" lon="-7.49535069800913333892822265625">
        <ele>440.79998779296875</ele>
        <time>2019-04-28T09:14:13.000Z</time>
      </trkpt>
      <trkpt lat="40.2188170887529850006103515625" lon="-7.49488533474504947662353515625">
        <ele>439</ele>
        <time>2019-04-28T09:14:19.000Z</time>
      </trkpt>
      <trkpt lat="40.2192371897399425506591796875" lon="-7.4942849390208721160888671875">
        <ele>435.399993896484375</ele>
        <time>2019-04-28T09:14:27.000Z</time>
      </trkpt>
      <trkpt lat="40.219666175544261932373046875" lon="-7.49376886524260044097900390625">
        <ele>431.20001220703125</ele>
        <time>2019-04-28T09:14:34.000Z</time>
      </trkpt>
      <trkpt lat="40.220234133303165435791015625" lon="-7.493465356528759002685546875">
        <ele>427.399993896484375</ele>
        <time>2019-04-28T09:14:41.000Z</time>
      </trkpt>
      <trkpt lat="40.2208106406033039093017578125" lon="-7.49329981394112110137939453125">
        <ele>424.20001220703125</ele>
        <time>2019-04-28T09:14:47.000Z</time>
      </trkpt>
      <trkpt lat="40.22140148095786571502685546875" lon="-7.49312899075448513031005859375">
        <ele>420.79998779296875</ele>
        <time>2019-04-28T09:14:53.000Z</time>
      </trkpt>
      <trkpt lat="40.2219884656369686126708984375" lon="-7.49294626526534557342529296875">
        <ele>417.20001220703125</ele>
        <time>2019-04-28T09:14:59.000Z</time>
      </trkpt>
      <trkpt lat="40.22256530821323394775390625" lon="-7.4927577562630176544189453125">
        <ele>413.79998779296875</ele>
        <time>2019-04-28T09:15:05.000Z</time>
      </trkpt>
      <trkpt lat="40.2231273986399173736572265625" lon="-7.49257310293614864349365234375">
        <ele>410.20001220703125</ele>
        <time>2019-04-28T09:15:11.000Z</time>
      </trkpt>
      <trkpt lat="40.223684124648571014404296875" lon="-7.49240211211144924163818359375">
        <ele>406.79998779296875</ele>
        <time>2019-04-28T09:15:17.000Z</time>
      </trkpt>
      <trkpt lat="40.22423540242016315460205078125" lon="-7.49223078601062297821044921875">
        <ele>406.600006103515625</ele>
        <time>2019-04-28T09:15:23.000Z</time>
      </trkpt>
      <trkpt lat="40.224780477583408355712890625" lon="-7.49205677770078182220458984375">
        <ele>407.399993896484375</ele>
        <time>2019-04-28T09:15:30.000Z</time>
      </trkpt>
      <trkpt lat="40.22534533403813838958740234375" lon="-7.49187991954386234283447265625">
        <ele>408.79998779296875</ele>
        <time>2019-04-28T09:15:40.000Z</time>
      </trkpt>
      <trkpt lat="40.22588747553527355194091796875" lon="-7.4916644208133220672607421875">
        <ele>409.600006103515625</ele>
        <time>2019-04-28T09:15:52.000Z</time>
      </trkpt>
      <trkpt lat="40.2263889648020267486572265625" lon="-7.49128866009414196014404296875">
        <ele>411.600006103515625</ele>
        <time>2019-04-28T09:16:04.000Z</time>
      </trkpt>
      <trkpt lat="40.226781405508518218994140625" lon="-7.49100082553923130035400390625">
        <ele>413.600006103515625</ele>
        <time>2019-04-28T09:16:13.000Z</time>
      </trkpt>
      <trkpt lat="40.2273108065128326416015625" lon="-7.49086034484207630157470703125">
        <ele>414.20001220703125</ele>
        <time>2019-04-28T09:16:24.000Z</time>
      </trkpt>
      <trkpt lat="40.22788203321397304534912109375" lon="-7.4907834827899932861328125">
        <ele>413.79998779296875</ele>
        <time>2019-04-28T09:16:36.000Z</time>
      </trkpt>
      <trkpt lat="40.2281749807298183441162109375" lon="-7.49073495157063007354736328125">
        <ele>412.79998779296875</ele>
        <time>2019-04-28T09:16:42.000Z</time>
      </trkpt>
      <trkpt lat="40.22866071201860904693603515625" lon="-7.4904259108006954193115234375">
        <ele>413.600006103515625</ele>
        <time>2019-04-28T09:16:53.000Z</time>
      </trkpt>
      <trkpt lat="40.2291454374790191650390625" lon="-7.4900557659566402435302734375">
        <ele>416</ele>
        <time>2019-04-28T09:17:05.000Z</time>
      </trkpt>
      <trkpt lat="40.22965748794376850128173828125" lon="-7.48979433439671993255615234375">
        <ele>417.20001220703125</ele>
        <time>2019-04-28T09:17:16.000Z</time>
      </trkpt>
      <trkpt lat="40.2301834523677825927734375" lon="-7.48952795751392841339111328125">
        <ele>418.20001220703125</ele>
        <time>2019-04-28T09:17:28.000Z</time>
      </trkpt>
      <trkpt lat="40.2307328023016452789306640625" lon="-7.48925261199474334716796875">
        <ele>418.399993896484375</ele>
        <time>2019-04-28T09:17:40.000Z</time>
      </trkpt>
      <trkpt lat="40.2312394045293331146240234375" lon="-7.4890003167092800140380859375">
        <ele>417.399993896484375</ele>
        <time>2019-04-28T09:17:51.000Z</time>
      </trkpt>
      <trkpt lat="40.23177467286586761474609375" lon="-7.48873586766421794891357421875">
        <ele>416</ele>
        <time>2019-04-28T09:18:03.000Z</time>
      </trkpt>
      <trkpt lat="40.23198950104415416717529296875" lon="-7.4886305071413516998291015625">
        <ele>415</ele>
        <time>2019-04-28T09:18:08.000Z</time>
      </trkpt>
      <trkpt lat="40.23227691650390625" lon="-7.4884940497577190399169921875">
        <ele>414.600006103515625</ele>
        <time>2019-04-28T09:18:15.000Z</time>
      </trkpt>
      <trkpt lat="40.23282400332391262054443359375" lon="-7.488214261829853057861328125">
        <ele>415</ele>
        <time>2019-04-28T09:18:27.000Z</time>
      </trkpt>
      <trkpt lat="40.233342759311199188232421875" lon="-7.48799733817577362060546875">
        <ele>415.20001220703125</ele>
        <time>2019-04-28T09:18:38.000Z</time>
      </trkpt>
      <trkpt lat="40.23339246399700641632080078125" lon="-7.4879901297390460968017578125">
        <ele>415.20001220703125</ele>
        <time>2019-04-28T09:18:39.000Z</time>
      </trkpt>
      <trkpt lat="40.23397701792418956756591796875" lon="-7.48802281916141510009765625">
        <ele>415</ele>
        <time>2019-04-28T09:18:51.000Z</time>
      </trkpt>
      <trkpt lat="40.234543718397617340087890625" lon="-7.48809750191867351531982421875">
        <ele>416.600006103515625</ele>
        <time>2019-04-28T09:19:04.000Z</time>
      </trkpt>
      <trkpt lat="40.2351229079067707061767578125" lon="-7.488186769187450408935546875">
        <ele>415.600006103515625</ele>
        <time>2019-04-28T09:19:17.000Z</time>
      </trkpt>
      <trkpt lat="40.23539104498922824859619140625" lon="-7.4882368929684162139892578125">
        <ele>414.79998779296875</ele>
        <time>2019-04-28T09:19:23.000Z</time>
      </trkpt>
      <trkpt lat="40.23573118261992931365966796875" lon="-7.48841467313468456268310546875">
        <ele>412.399993896484375</ele>
        <time>2019-04-28T09:19:31.000Z</time>
      </trkpt>
      <trkpt lat="40.23593050427734851837158203125" lon="-7.4886055290699005126953125">
        <ele>410.79998779296875</ele>
        <time>2019-04-28T09:19:36.000Z</time>
      </trkpt>
      <trkpt lat="40.236111469566822052001953125" lon="-7.48841400258243083953857421875">
        <ele>410.600006103515625</ele>
        <time>2019-04-28T09:19:44.000Z</time>
      </trkpt>
      <trkpt lat="40.236069895327091217041015625" lon="-7.48770355246961116790771484375">
        <ele>413.399993896484375</ele>
        <time>2019-04-28T09:19:59.000Z</time>
      </trkpt>
      <trkpt lat="40.23605681955814361572265625" lon="-7.4869732372462749481201171875">
        <ele>415.399993896484375</ele>
        <time>2019-04-28T09:20:19.000Z</time>
      </trkpt>
      <trkpt lat="40.2360378764569759368896484375" lon="-7.4862604402005672454833984375">
        <ele>417</ele>
        <time>2019-04-28T09:20:36.000Z</time>
      </trkpt>
      <trkpt lat="40.23601029999554157257080078125" lon="-7.485511600971221923828125">
        <ele>415.600006103515625</ele>
        <time>2019-04-28T09:20:50.000Z</time>
      </trkpt>
      <trkpt lat="40.235994122922420501708984375" lon="-7.4847996421158313751220703125">
        <ele>415.600006103515625</ele>
        <time>2019-04-28T09:21:02.000Z</time>
      </trkpt>
      <trkpt lat="40.23598398081958293914794921875" lon="-7.48408759944140911102294921875">
        <ele>416.20001220703125</ele>
        <time>2019-04-28T09:21:14.000Z</time>
      </trkpt>
      <trkpt lat="40.23596202023327350616455078125" lon="-7.48335284180939197540283203125">
        <ele>416.20001220703125</ele>
        <time>2019-04-28T09:21:26.000Z</time>
      </trkpt>
      <trkpt lat="40.23593838326632976531982421875" lon="-7.48263803310692310333251953125">
        <ele>416.600006103515625</ele>
        <time>2019-04-28T09:21:37.000Z</time>
      </trkpt>
      <trkpt lat="40.23591600358486175537109375" lon="-7.48187326826155185699462890625">
        <ele>416.79998779296875</ele>
        <time>2019-04-28T09:21:48.000Z</time>
      </trkpt>
      <trkpt lat="40.23590133525431156158447265625" lon="-7.48113490641117095947265625">
        <ele>416.20001220703125</ele>
        <time>2019-04-28T09:21:58.000Z</time>
      </trkpt>
      <trkpt lat="40.2358595095574855804443359375" lon="-7.48036452569067478179931640625">
        <ele>416</ele>
        <time>2019-04-28T09:22:08.000Z</time>
      </trkpt>
      <trkpt lat="40.23584333248436450958251953125" lon="-7.48028808273375034332275390625">
        <ele>415.79998779296875</ele>
        <time>2019-04-28T09:22:09.000Z</time>
      </trkpt>
      <trkpt lat="40.23556555621325969696044921875" lon="-7.47963714413344860076904296875">
        <ele>415.79998779296875</ele>
        <time>2019-04-28T09:22:19.000Z</time>
      </trkpt>
      <trkpt lat="40.2355398237705230712890625" lon="-7.47957654297351837158203125">
        <ele>415.79998779296875</ele>
        <time>2019-04-28T09:22:20.000Z</time>
      </trkpt>
      <trkpt lat="40.23549464531242847442626953125" lon="-7.4794583581387996673583984375">
        <ele>416</ele>
        <time>2019-04-28T09:22:22.000Z</time>
      </trkpt>
      <trkpt lat="40.2352523244917392730712890625" lon="-7.4788290448486804962158203125">
        <ele>416.600006103515625</ele>
        <time>2019-04-28T09:22:33.000Z</time>
      </trkpt>
      <trkpt lat="40.2352409251034259796142578125" lon="-7.47876676730811595916748046875">
        <ele>416.79998779296875</ele>
        <time>2019-04-28T09:22:34.000Z</time>
      </trkpt>
      <trkpt lat="40.23522022180259227752685546875" lon="-7.478587813675403594970703125">
        <ele>417</ele>
        <time>2019-04-28T09:22:37.000Z</time>
      </trkpt>
      <trkpt lat="40.235260538756847381591796875" lon="-7.47815539129078388214111328125">
        <ele>417.20001220703125</ele>
        <time>2019-04-28T09:22:44.000Z</time>
      </trkpt>
      <trkpt lat="40.23550503887236118316650390625" lon="-7.477518618106842041015625">
        <ele>416.79998779296875</ele>
        <time>2019-04-28T09:22:55.000Z</time>
      </trkpt>
      <trkpt lat="40.23578097112476825714111328125" lon="-7.47685384936630725860595703125">
        <ele>417.399993896484375</ele>
        <time>2019-04-28T09:23:06.000Z</time>
      </trkpt>
      <trkpt lat="40.2358330227434635162353515625" lon="-7.47666508890688419342041015625">
        <ele>417.600006103515625</ele>
        <time>2019-04-28T09:23:09.000Z</time>
      </trkpt>
      <trkpt lat="40.23582640103995800018310546875" lon="-7.475959248840808868408203125">
        <ele>417.20001220703125</ele>
        <time>2019-04-28T09:23:20.000Z</time>
      </trkpt>
      <trkpt lat="40.23575649596750736236572265625" lon="-7.47522692196071147918701171875">
        <ele>417.600006103515625</ele>
        <time>2019-04-28T09:23:32.000Z</time>
      </trkpt>
      <trkpt lat="40.2356811426579952239990234375" lon="-7.47447942383587360382080078125">
        <ele>418.399993896484375</ele>
        <time>2019-04-28T09:23:44.000Z</time>
      </trkpt>
      <trkpt lat="40.23566261865198612213134765625" lon="-7.47427909635007381439208984375">
        <ele>418.600006103515625</ele>
        <time>2019-04-28T09:23:47.000Z</time>
      </trkpt>
      <trkpt lat="40.2356637082993984222412109375" lon="-7.47408279217779636383056640625">
        <ele>418.79998779296875</ele>
        <time>2019-04-28T09:23:50.000Z</time>
      </trkpt>
      <trkpt lat="40.23584182374179363250732421875" lon="-7.47337921522557735443115234375">
        <ele>418.600006103515625</ele>
        <time>2019-04-28T09:24:02.000Z</time>
      </trkpt>
      <trkpt lat="40.2360735833644866943359375" lon="-7.472677566111087799072265625">
        <ele>421</ele>
        <time>2019-04-28T09:24:14.000Z</time>
      </trkpt>
      <trkpt lat="40.2362745814025402069091796875" lon="-7.47200391255319118499755859375">
        <ele>423.20001220703125</ele>
        <time>2019-04-28T09:24:27.000Z</time>
      </trkpt>
      <trkpt lat="40.23647499270737171173095703125" lon="-7.47135397978127002716064453125">
        <ele>426</ele>
        <time>2019-04-28T09:24:40.000Z</time>
      </trkpt>
      <trkpt lat="40.23647901602089405059814453125" lon="-7.47124350629746913909912109375">
        <ele>426</ele>
        <time>2019-04-28T09:24:42.000Z</time>
      </trkpt>
      <trkpt lat="40.2364013157784938812255859375" lon="-7.47091024182736873626708984375">
        <ele>425.79998779296875</ele>
        <time>2019-04-28T09:24:48.000Z</time>
      </trkpt>
      <trkpt lat="40.2361200191080570220947265625" lon="-7.47030540369451045989990234375">
        <ele>425</ele>
        <time>2019-04-28T09:25:00.000Z</time>
      </trkpt>
      <trkpt lat="40.236069224774837493896484375" lon="-7.4701457284390926361083984375">
        <ele>425.20001220703125</ele>
        <time>2019-04-28T09:25:03.000Z</time>
      </trkpt>
      <trkpt lat="40.2360341884195804595947265625" lon="-7.46958523057401180267333984375">
        <ele>427.600006103515625</ele>
        <time>2019-04-28T09:25:13.000Z</time>
      </trkpt>
      <trkpt lat="40.236138962209224700927734375" lon="-7.4688696675002574920654296875">
        <ele>429</ele>
        <time>2019-04-28T09:25:26.000Z</time>
      </trkpt>
      <trkpt lat="40.23624616675078868865966796875" lon="-7.4681260250508785247802734375">
        <ele>428.79998779296875</ele>
        <time>2019-04-28T09:25:39.000Z</time>
      </trkpt>
      <trkpt lat="40.23635052144527435302734375" lon="-7.46738313697278499603271484375">
        <ele>429.600006103515625</ele>
        <time>2019-04-28T09:25:52.000Z</time>
      </trkpt>
      <trkpt lat="40.236507095396518707275390625" lon="-7.46666313149034976959228515625">
        <ele>432</ele>
        <time>2019-04-28T09:26:06.000Z</time>
      </trkpt>
      <trkpt lat="40.2368110232055187225341796875" lon="-7.4660463072359561920166015625">
        <ele>433.399993896484375</ele>
        <time>2019-04-28T09:26:20.000Z</time>
      </trkpt>
      <trkpt lat="40.23702442646026611328125" lon="-7.46535588987171649932861328125">
        <ele>434.399993896484375</ele>
        <time>2019-04-28T09:26:33.000Z</time>
      </trkpt>
      <trkpt lat="40.23718468844890594482421875" lon="-7.464621551334857940673828125">
        <ele>434.79998779296875</ele>
        <time>2019-04-28T09:26:46.000Z</time>
      </trkpt>
      <trkpt lat="40.2371898852288722991943359375" lon="-7.46449179947376251220703125">
        <ele>434.79998779296875</ele>
        <time>2019-04-28T09:26:48.000Z</time>
      </trkpt>
      <trkpt lat="40.2371754683554172515869140625" lon="-7.46437151916325092315673828125">
        <ele>434.600006103515625</ele>
        <time>2019-04-28T09:26:50.000Z</time>
      </trkpt>
      <trkpt lat="40.23708905093371868133544921875" lon="-7.46402819640934467315673828125">
        <ele>434</ele>
        <time>2019-04-28T09:26:56.000Z</time>
      </trkpt>
      <trkpt lat="40.2368809282779693603515625" lon="-7.4633203446865081787109375">
        <ele>434.20001220703125</ele>
        <time>2019-04-28T09:27:08.000Z</time>
      </trkpt>
      <trkpt lat="40.236684121191501617431640625" lon="-7.462656497955322265625">
        <ele>433.79998779296875</ele>
        <time>2019-04-28T09:27:22.000Z</time>
      </trkpt>
      <trkpt lat="40.23650147952139377593994140625" lon="-7.4619908072054386138916015625">
        <ele>433.399993896484375</ele>
        <time>2019-04-28T09:27:38.000Z</time>
      </trkpt>
      <trkpt lat="40.236380361020565032958984375" lon="-7.4612716399133205413818359375">
        <ele>434.20001220703125</ele>
        <time>2019-04-28T09:27:54.000Z</time>
      </trkpt>
      <trkpt lat="40.23624314926564693450927734375" lon="-7.46054434217512607574462890625">
        <ele>434.600006103515625</ele>
        <time>2019-04-28T09:28:08.000Z</time>
      </trkpt>
      <trkpt lat="40.2361153252422809600830078125" lon="-7.45983389206230640411376953125">
        <ele>437</ele>
        <time>2019-04-28T09:28:22.000Z</time>
      </trkpt>
      <trkpt lat="40.23597677238285541534423828125" lon="-7.4591159820556640625">
        <ele>439.600006103515625</ele>
        <time>2019-04-28T09:28:36.000Z</time>
      </trkpt>
      <trkpt lat="40.23581315763294696807861328125" lon="-7.4584092199802398681640625">
        <ele>440.600006103515625</ele>
        <time>2019-04-28T09:28:52.000Z</time>
      </trkpt>
      <trkpt lat="40.23575641214847564697265625" lon="-7.45770287699997425079345703125">
        <ele>444</ele>
        <time>2019-04-28T09:29:13.000Z</time>
      </trkpt>
      <trkpt lat="40.2358068712055683135986328125" lon="-7.45697700418531894683837890625">
        <ele>446.600006103515625</ele>
        <time>2019-04-28T09:29:36.000Z</time>
      </trkpt>
      <trkpt lat="40.2358621917665004730224609375" lon="-7.45626772753894329071044921875">
        <ele>449.399993896484375</ele>
        <time>2019-04-28T09:29:57.000Z</time>
      </trkpt>
      <trkpt lat="40.2358789555728435516357421875" lon="-7.45556381531059741973876953125">
        <ele>454.399993896484375</ele>
        <time>2019-04-28T09:30:18.000Z</time>
      </trkpt>
      <trkpt lat="40.235699079930782318115234375" lon="-7.45488345623016357421875">
        <ele>458</ele>
        <time>2019-04-28T09:30:39.000Z</time>
      </trkpt>
      <trkpt lat="40.2355624549090862274169921875" lon="-7.4541761912405490875244140625">
        <ele>461.20001220703125</ele>
        <time>2019-04-28T09:31:01.000Z</time>
      </trkpt>
      <trkpt lat="40.2357267402112483978271484375" lon="-7.45350890792906284332275390625">
        <ele>461.399993896484375</ele>
        <time>2019-04-28T09:31:20.000Z</time>
      </trkpt>
      <trkpt lat="40.23576982319355010986328125" lon="-7.45278487913310527801513671875">
        <ele>463.20001220703125</ele>
        <time>2019-04-28T09:31:36.000Z</time>
      </trkpt>
      <trkpt lat="40.23575331084430217742919921875" lon="-7.4520706571638584136962890625">
        <ele>465.20001220703125</ele>
        <time>2019-04-28T09:31:50.000Z</time>
      </trkpt>
      <trkpt lat="40.23577711544930934906005859375" lon="-7.451340593397617340087890625">
        <ele>466</ele>
        <time>2019-04-28T09:32:08.000Z</time>
      </trkpt>
      <trkpt lat="40.23583930917084217071533203125" lon="-7.45063508860766887664794921875">
        <ele>467.399993896484375</ele>
        <time>2019-04-28T09:32:21.000Z</time>
      </trkpt>
      <trkpt lat="40.23574727587401866912841796875" lon="-7.45025337673723697662353515625">
        <ele>467.399993896484375</ele>
        <time>2019-04-28T09:32:26.000Z</time>
      </trkpt>
      <trkpt lat="40.2354330383241176605224609375" lon="-7.44960880838334560394287109375">
        <ele>467.20001220703125</ele>
        <time>2019-04-28T09:32:35.000Z</time>
      </trkpt>
      <trkpt lat="40.235032550990581512451171875" lon="-7.4490407668054103851318359375">
        <ele>465</ele>
        <time>2019-04-28T09:32:43.000Z</time>
      </trkpt>
      <trkpt lat="40.2346622385084629058837890625" lon="-7.4485190771520137786865234375">
        <ele>464.399993896484375</ele>
        <time>2019-04-28T09:32:53.000Z</time>
      </trkpt>
      <trkpt lat="40.23424171842634677886962890625" lon="-7.4480693042278289794921875">
        <ele>467.600006103515625</ele>
        <time>2019-04-28T09:33:12.000Z</time>
      </trkpt>
      <trkpt lat="40.2341911755502223968505859375" lon="-7.44798774830996990203857421875">
        <ele>468.20001220703125</ele>
        <time>2019-04-28T09:33:16.000Z</time>
      </trkpt>
      <trkpt lat="40.2340332604944705963134765625" lon="-7.44774676859378814697265625">
        <ele>470.20001220703125</ele>
        <time>2019-04-28T09:33:28.000Z</time>
      </trkpt>
      <trkpt lat="40.234020017087459564208984375" lon="-7.44770645163953304290771484375">
        <ele>470.600006103515625</ele>
        <time>2019-04-28T09:33:33.000Z</time>
      </trkpt>
      <trkpt lat="40.23406125605106353759765625" lon="-7.44771600700914859771728515625">
        <ele>470.399993896484375</ele>
        <time>2019-04-28T09:37:50.000Z</time>
      </trkpt>
      <trkpt lat="40.23412805981934070587158203125" lon="-7.44764945469796657562255859375">
        <ele>470.399993896484375</ele>
        <time>2019-04-28T09:37:54.000Z</time>
      </trkpt>
      <trkpt lat="40.23450826294720172882080078125" lon="-7.44713698513805866241455078125">
        <ele>471.600006103515625</ele>
        <time>2019-04-28T09:38:19.000Z</time>
      </trkpt>
      <trkpt lat="40.23474295623600482940673828125" lon="-7.44647498242557048797607421875">
        <ele>474.79998779296875</ele>
        <time>2019-04-28T09:38:39.000Z</time>
      </trkpt>
      <trkpt lat="40.2348667569458484649658203125" lon="-7.4457889236509799957275390625">
        <ele>480.20001220703125</ele>
        <time>2019-04-28T09:39:01.000Z</time>
      </trkpt>
      <trkpt lat="40.23516875691711902618408203125" lon="-7.44518483988940715789794921875">
        <ele>483</ele>
        <time>2019-04-28T09:39:28.000Z</time>
      </trkpt>
      <trkpt lat="40.23556035943329334259033203125" lon="-7.4446714483201503753662109375">
        <ele>484</ele>
        <time>2019-04-28T09:39:50.000Z</time>
      </trkpt>
      <trkpt lat="40.2359852381050586700439453125" lon="-7.4441873095929622650146484375">
        <ele>484.600006103515625</ele>
        <time>2019-04-28T09:40:10.000Z</time>
      </trkpt>
      <trkpt lat="40.23618212901055812835693359375" lon="-7.44397382251918315887451171875">
        <ele>483.399993896484375</ele>
        <time>2019-04-28T09:40:15.000Z</time>
      </trkpt>
      <trkpt lat="40.23659351281821727752685546875" lon="-7.4435150809586048126220703125">
        <ele>482</ele>
        <time>2019-04-28T09:40:26.000Z</time>
      </trkpt>
      <trkpt lat="40.23673784919083118438720703125" lon="-7.44331567548215389251708984375">
        <ele>481.79998779296875</ele>
        <time>2019-04-28T09:40:31.000Z</time>
      </trkpt>
      <trkpt lat="40.23704345338046550750732421875" lon="-7.44279348291456699371337890625">
        <ele>477.79998779296875</ele>
        <time>2019-04-28T09:40:41.000Z</time>
      </trkpt>
      <trkpt lat="40.23738945834338665008544921875" lon="-7.4422395229339599609375">
        <ele>475</ele>
        <time>2019-04-28T09:40:50.000Z</time>
      </trkpt>
      <trkpt lat="40.23742566816508769989013671875" lon="-7.44216752238571643829345703125">
        <ele>474.79998779296875</ele>
        <time>2019-04-28T09:40:51.000Z</time>
      </trkpt>
      <trkpt lat="40.237676538527011871337890625" lon="-7.44153955020010471343994140625">
        <ele>472.20001220703125</ele>
        <time>2019-04-28T09:40:58.000Z</time>
      </trkpt>
      <trkpt lat="40.23793327622115612030029296875" lon="-7.44086966849863529205322265625">
        <ele>468.20001220703125</ele>
        <time>2019-04-28T09:41:04.000Z</time>
      </trkpt>
      <trkpt lat="40.23811935447156429290771484375" lon="-7.44017715565860271453857421875">
        <ele>465</ele>
        <time>2019-04-28T09:41:10.000Z</time>
      </trkpt>
      <trkpt lat="40.23826427757740020751953125" lon="-7.4394056014716625213623046875">
        <ele>461.600006103515625</ele>
        <time>2019-04-28T09:41:17.000Z</time>
      </trkpt>
      <trkpt lat="40.238442309200763702392578125" lon="-7.4386673234403133392333984375">
        <ele>457.600006103515625</ele>
        <time>2019-04-28T09:41:24.000Z</time>
      </trkpt>
      <trkpt lat="40.2386218495666980743408203125" lon="-7.43793281726539134979248046875">
        <ele>455.399993896484375</ele>
        <time>2019-04-28T09:41:32.000Z</time>
      </trkpt>
      <trkpt lat="40.2388082630932331085205078125" lon="-7.43719671852886676788330078125">
        <ele>454</ele>
        <time>2019-04-28T09:41:41.000Z</time>
      </trkpt>
      <trkpt lat="40.2389634959399700164794921875" lon="-7.43651962839066982269287109375">
        <ele>454.399993896484375</ele>
        <time>2019-04-28T09:41:50.000Z</time>
      </trkpt>
      <trkpt lat="40.2390023879706859588623046875" lon="-7.43581437505781650543212890625">
        <ele>454.79998779296875</ele>
        <time>2019-04-28T09:42:02.000Z</time>
      </trkpt>
      <trkpt lat="40.23903247900307178497314453125" lon="-7.4350936152040958404541015625">
        <ele>458.600006103515625</ele>
        <time>2019-04-28T09:42:17.000Z</time>
      </trkpt>
      <trkpt lat="40.239182598888874053955078125" lon="-7.4344032816588878631591796875">
        <ele>461.20001220703125</ele>
        <time>2019-04-28T09:42:36.000Z</time>
      </trkpt>
      <trkpt lat="40.23941955529153347015380859375" lon="-7.43372862227261066436767578125">
        <ele>464.600006103515625</ele>
        <time>2019-04-28T09:42:56.000Z</time>
      </trkpt>
      <trkpt lat="40.2396275103092193603515625" lon="-7.4331242032349109649658203125">
        <ele>467.600006103515625</ele>
        <time>2019-04-28T09:43:16.000Z</time>
      </trkpt>
      <trkpt lat="40.23964854888617992401123046875" lon="-7.43308120407164096832275390625">
        <ele>468</ele>
        <time>2019-04-28T09:45:06.000Z</time>
      </trkpt>
      <trkpt lat="40.2397916279733180999755859375" lon="-7.43262388743460178375244140625">
        <ele>470.79998779296875</ele>
        <time>2019-04-28T09:45:21.000Z</time>
      </trkpt>
      <trkpt lat="40.2398090623319149017333984375" lon="-7.43258968926966190338134765625">
        <ele>471.20001220703125</ele>
        <time>2019-04-28T09:46:13.000Z</time>
      </trkpt>
      <trkpt lat="40.23998516611754894256591796875" lon="-7.4319088272750377655029296875">
        <ele>474.20001220703125</ele>
        <time>2019-04-28T09:46:32.000Z</time>
      </trkpt>
      <trkpt lat="40.2401513792574405670166015625" lon="-7.43122930638492107391357421875">
        <ele>475</ele>
        <time>2019-04-28T09:46:49.000Z</time>
      </trkpt>
      <trkpt lat="40.2402821369469165802001953125" lon="-7.4305184371769428253173828125">
        <ele>476.600006103515625</ele>
        <time>2019-04-28T09:47:07.000Z</time>
      </trkpt>
      <trkpt lat="40.24026160128414630889892578125" lon="-7.42979784496128559112548828125">
        <ele>477.399993896484375</ele>
        <time>2019-04-28T09:47:24.000Z</time>
      </trkpt>
      <trkpt lat="40.240276269614696502685546875" lon="-7.42906442843377590179443359375">
        <ele>479</ele>
        <time>2019-04-28T09:47:42.000Z</time>
      </trkpt>
      <trkpt lat="40.24041599594056606292724609375" lon="-7.42834827862679958343505859375">
        <ele>479.79998779296875</ele>
        <time>2019-04-28T09:48:00.000Z</time>
      </trkpt>
      <trkpt lat="40.2405421435832977294921875" lon="-7.42763346992433071136474609375">
        <ele>482</ele>
        <time>2019-04-28T09:48:18.000Z</time>
      </trkpt>
      <trkpt lat="40.24058883078396320343017578125" lon="-7.4269034899771213531494140625">
        <ele>487.600006103515625</ele>
        <time>2019-04-28T09:48:38.000Z</time>
      </trkpt>
      <trkpt lat="40.2406024932861328125" lon="-7.42619396187365055084228515625">
        <ele>492</ele>
        <time>2019-04-28T09:49:02.000Z</time>
      </trkpt>
      <trkpt lat="40.240621604025363922119140625" lon="-7.425472028553485870361328125">
        <ele>493.600006103515625</ele>
        <time>2019-04-28T09:49:23.000Z</time>
      </trkpt>
      <trkpt lat="40.24063535034656524658203125" lon="-7.42474087513983249664306640625">
        <ele>494.399993896484375</ele>
        <time>2019-04-28T09:49:44.000Z</time>
      </trkpt>
      <trkpt lat="40.24074423126876354217529296875" lon="-7.4240274913609027862548828125">
        <ele>496.20001220703125</ele>
        <time>2019-04-28T09:50:04.000Z</time>
      </trkpt>
      <trkpt lat="40.2409054152667522430419921875" lon="-7.42330924607813358306884765625">
        <ele>496</ele>
        <time>2019-04-28T09:50:15.000Z</time>
      </trkpt>
      <trkpt lat="40.24106844328343868255615234375" lon="-7.42257155478000640869140625">
        <ele>493.20001220703125</ele>
        <time>2019-04-28T09:50:24.000Z</time>
      </trkpt>
      <trkpt lat="40.24129508994519710540771484375" lon="-7.4218931235373020172119140625">
        <ele>489.399993896484375</ele>
        <time>2019-04-28T09:50:32.000Z</time>
      </trkpt>
      <trkpt lat="40.24165450595319271087646484375" lon="-7.4212928116321563720703125">
        <ele>487.600006103515625</ele>
        <time>2019-04-28T09:50:39.000Z</time>
      </trkpt>
      <trkpt lat="40.24173882789909839630126953125" lon="-7.421082593500614166259765625">
        <ele>486.79998779296875</ele>
        <time>2019-04-28T09:50:41.000Z</time>
      </trkpt>
      <trkpt lat="40.24181091226637363433837890625" lon="-7.42059879004955291748046875">
        <ele>484.20001220703125</ele>
        <time>2019-04-28T09:50:45.000Z</time>
      </trkpt>
      <trkpt lat="40.2419006824493408203125" lon="-7.41987266577780246734619140625">
        <ele>481</ele>
        <time>2019-04-28T09:50:51.000Z</time>
      </trkpt>
      <trkpt lat="40.24193379096686840057373046875" lon="-7.4197590909898281097412109375">
        <ele>480.20001220703125</ele>
        <time>2019-04-28T09:50:52.000Z</time>
      </trkpt>
      <trkpt lat="40.2422096394002437591552734375" lon="-7.419142015278339385986328125">
        <ele>476.20001220703125</ele>
        <time>2019-04-28T09:50:58.000Z</time>
      </trkpt>
      <trkpt lat="40.242522619664669036865234375" lon="-7.41847984492778778076171875">
        <ele>473.399993896484375</ele>
        <time>2019-04-28T09:51:05.000Z</time>
      </trkpt>
      <trkpt lat="40.242837779223918914794921875" lon="-7.417812980711460113525390625">
        <ele>473</ele>
        <time>2019-04-28T09:51:13.000Z</time>
      </trkpt>
      <trkpt lat="40.24314380250871181488037109375" lon="-7.4171653948724269866943359375">
        <ele>471.20001220703125</ele>
        <time>2019-04-28T09:51:21.000Z</time>
      </trkpt>
      <trkpt lat="40.243246145546436309814453125" lon="-7.41690748371183872222900390625">
        <ele>469.79998779296875</ele>
        <time>2019-04-28T09:51:24.000Z</time>
      </trkpt>
      <trkpt lat="40.243469439446926116943359375" lon="-7.4161676131188869476318359375">
        <ele>466</ele>
        <time>2019-04-28T09:51:32.000Z</time>
      </trkpt>
      <trkpt lat="40.24368770420551300048828125" lon="-7.41550703532993793487548828125">
        <ele>463</ele>
        <time>2019-04-28T09:51:39.000Z</time>
      </trkpt>
      <trkpt lat="40.2439986728131771087646484375" lon="-7.41483564488589763641357421875">
        <ele>460.20001220703125</ele>
        <time>2019-04-28T09:51:46.000Z</time>
      </trkpt>
      <trkpt lat="40.24438834749162197113037109375" lon="-7.4142546951770782470703125">
        <ele>458.600006103515625</ele>
        <time>2019-04-28T09:51:53.000Z</time>
      </trkpt>
      <trkpt lat="40.244805850088596343994140625" lon="-7.4137289822101593017578125">
        <ele>459.399993896484375</ele>
        <time>2019-04-28T09:52:01.000Z</time>
      </trkpt>
      <trkpt lat="40.2452130429446697235107421875" lon="-7.41324794478714466094970703125">
        <ele>460.399993896484375</ele>
        <time>2019-04-28T09:52:16.000Z</time>
      </trkpt>
      <trkpt lat="40.2456183917820453643798828125" lon="-7.41274922154843807220458984375">
        <ele>460.600006103515625</ele>
        <time>2019-04-28T09:52:36.000Z</time>
      </trkpt>
      <trkpt lat="40.2460398338735103607177734375" lon="-7.4122210778295993804931640625">
        <ele>459.600006103515625</ele>
        <time>2019-04-28T09:52:49.000Z</time>
      </trkpt>
      <trkpt lat="40.24645976722240447998046875" lon="-7.41169209592044353485107421875">
        <ele>458.20001220703125</ele>
        <time>2019-04-28T09:52:59.000Z</time>
      </trkpt>
      <trkpt lat="40.2468696422874927520751953125" lon="-7.41117417812347412109375">
        <ele>458</ele>
        <time>2019-04-28T09:53:09.000Z</time>
      </trkpt>
      <trkpt lat="40.24729519151151180267333984375" lon="-7.41064989008009433746337890625">
        <ele>457.600006103515625</ele>
        <time>2019-04-28T09:53:19.000Z</time>
      </trkpt>
      <trkpt lat="40.2476960979402065277099609375" lon="-7.410148568451404571533203125">
        <ele>456.79998779296875</ele>
        <time>2019-04-28T09:53:29.000Z</time>
      </trkpt>
      <trkpt lat="40.24807722307741641998291015625" lon="-7.409589327871799468994140625">
        <ele>456.600006103515625</ele>
        <time>2019-04-28T09:53:40.000Z</time>
      </trkpt>
      <trkpt lat="40.2481047995388507843017578125" lon="-7.40953342057764530181884765625">
        <ele>456.79998779296875</ele>
        <time>2019-04-28T09:53:41.000Z</time>
      </trkpt>
      <trkpt lat="40.24830487556755542755126953125" lon="-7.4091348610818386077880859375">
        <ele>457.20001220703125</ele>
        <time>2019-04-28T09:53:48.000Z</time>
      </trkpt>
      <trkpt lat="40.248604528605937957763671875" lon="-7.4085011892020702362060546875">
        <ele>455.600006103515625</ele>
        <time>2019-04-28T09:53:58.000Z</time>
      </trkpt>
      <trkpt lat="40.24899286217987537384033203125" lon="-7.407932393252849578857421875">
        <ele>455.20001220703125</ele>
        <time>2019-04-28T09:54:08.000Z</time>
      </trkpt>
      <trkpt lat="40.24933819659054279327392578125" lon="-7.40736820735037326812744140625">
        <ele>455.20001220703125</ele>
        <time>2019-04-28T09:54:17.000Z</time>
      </trkpt>
      <trkpt lat="40.24959267117083072662353515625" lon="-7.4067232199013233184814453125">
        <ele>455</ele>
        <time>2019-04-28T09:54:26.000Z</time>
      </trkpt>
      <trkpt lat="40.24984915740787982940673828125" lon="-7.4060801602900028228759765625">
        <ele>454.79998779296875</ele>
        <time>2019-04-28T09:54:35.000Z</time>
      </trkpt>
      <trkpt lat="40.25012190453708171844482421875" lon="-7.40539896301925182342529296875">
        <ele>454</ele>
        <time>2019-04-28T09:54:44.000Z</time>
      </trkpt>
      <trkpt lat="40.2503169514238834381103515625" lon="-7.4046331085264682769775390625">
        <ele>451.79998779296875</ele>
        <time>2019-04-28T09:54:52.000Z</time>
      </trkpt>
      <trkpt lat="40.2504638023674488067626953125" lon="-7.40385769866406917572021484375">
        <ele>449.20001220703125</ele>
        <time>2019-04-28T09:54:59.000Z</time>
      </trkpt>
      <trkpt lat="40.250606797635555267333984375" lon="-7.403104417026042938232421875">
        <ele>447.79998779296875</ele>
        <time>2019-04-28T09:55:06.000Z</time>
      </trkpt>
      <trkpt lat="40.2507735975086688995361328125" lon="-7.402336634695529937744140625">
        <ele>447.600006103515625</ele>
        <time>2019-04-28T09:55:14.000Z</time>
      </trkpt>
      <trkpt lat="40.2510542236268520355224609375" lon="-7.40167052485048770904541015625">
        <ele>444.600006103515625</ele>
        <time>2019-04-28T09:55:22.000Z</time>
      </trkpt>
      <trkpt lat="40.25133795104920864105224609375" lon="-7.40103199146687984466552734375">
        <ele>443.20001220703125</ele>
        <time>2019-04-28T09:55:31.000Z</time>
      </trkpt>
      <trkpt lat="40.2516087703406810760498046875" lon="-7.4004149995744228363037109375">
        <ele>442.79998779296875</ele>
        <time>2019-04-28T09:55:41.000Z</time>
      </trkpt>
      <trkpt lat="40.2516684494912624359130859375" lon="-7.400265298783779144287109375">
        <ele>443</ele>
        <time>2019-04-28T09:55:44.000Z</time>
      </trkpt>
      <trkpt lat="40.25172620080411434173583984375" lon="-7.40008391439914703369140625">
        <ele>443.20001220703125</ele>
        <time>2019-04-28T09:55:50.000Z</time>
      </trkpt>
      <trkpt lat="40.25172787718474864959716796875" lon="-7.40009061992168426513671875">
        <ele>443.20001220703125</ele>
        <time>2019-04-28T09:55:52.000Z</time>
      </trkpt>
      <trkpt lat="40.25174640119075775146484375" lon="-7.400093637406826019287109375">
        <ele>443</ele>
        <time>2019-04-28T09:56:13.000Z</time>
      </trkpt>
      <trkpt lat="40.2518052421510219573974609375" lon="-7.40001124329864978790283203125">
        <ele>443</ele>
        <time>2019-04-28T09:56:17.000Z</time>
      </trkpt>
      <trkpt lat="40.251835249364376068115234375" lon="-7.399971596896648406982421875">
        <ele>443</ele>
        <time>2019-04-28T09:56:21.000Z</time>
      </trkpt>
      <trkpt lat="40.25180406868457794189453125" lon="-7.39994754083454608917236328125">
        <ele>443.20001220703125</ele>
        <time>2019-04-28T10:05:41.000Z</time>
      </trkpt>
      <trkpt lat="40.2518394403159618377685546875" lon="-7.39977822639048099517822265625">
        <ele>443.79998779296875</ele>
        <time>2019-04-28T10:05:47.000Z</time>
      </trkpt>
      <trkpt lat="40.25204773060977458953857421875" lon="-7.39909954369068145751953125">
        <ele>445.20001220703125</ele>
        <time>2019-04-28T10:06:03.000Z</time>
      </trkpt>
      <trkpt lat="40.2522580325603485107421875" lon="-7.39844701252877712249755859375">
        <ele>446.600006103515625</ele>
        <time>2019-04-28T10:06:16.000Z</time>
      </trkpt>
      <trkpt lat="40.25246783159673213958740234375" lon="-7.39775416441261768341064453125">
        <ele>448.399993896484375</ele>
        <time>2019-04-28T10:06:28.000Z</time>
      </trkpt>
      <trkpt lat="40.25268743745982646942138671875" lon="-7.397068776190280914306640625">
        <ele>451.600006103515625</ele>
        <time>2019-04-28T10:06:40.000Z</time>
      </trkpt>
      <trkpt lat="40.25290771387517452239990234375" lon="-7.3964077793061733245849609375">
        <ele>454.600006103515625</ele>
        <time>2019-04-28T10:06:56.000Z</time>
      </trkpt>
      <trkpt lat="40.25334659032523632049560546875" lon="-7.3959513008594512939453125">
        <ele>456.79998779296875</ele>
        <time>2019-04-28T10:07:16.000Z</time>
      </trkpt>
      <trkpt lat="40.25379435159265995025634765625" lon="-7.3955166153609752655029296875">
        <ele>459.399993896484375</ele>
        <time>2019-04-28T10:07:36.000Z</time>
      </trkpt>
      <trkpt lat="40.2542406879365444183349609375" lon="-7.395095340907573699951171875">
        <ele>461</ele>
        <time>2019-04-28T10:07:53.000Z</time>
      </trkpt>
      <trkpt lat="40.25468618609011173248291015625" lon="-7.39466593600809574127197265625">
        <ele>462.79998779296875</ele>
        <time>2019-04-28T10:08:07.000Z</time>
      </trkpt>
      <trkpt lat="40.25513344444334506988525390625" lon="-7.39422756247222423553466796875">
        <ele>464.399993896484375</ele>
        <time>2019-04-28T10:08:22.000Z</time>
      </trkpt>
      <trkpt lat="40.25558321736752986907958984375" lon="-7.39380092360079288482666015625">
        <ele>467.399993896484375</ele>
        <time>2019-04-28T10:08:41.000Z</time>
      </trkpt>
      <trkpt lat="40.25603466667234897613525390625" lon="-7.3933678306639194488525390625">
        <ele>471</ele>
        <time>2019-04-28T10:09:02.000Z</time>
      </trkpt>
      <trkpt lat="40.25646432302892208099365234375" lon="-7.39293272607028484344482421875">
        <ele>474.20001220703125</ele>
        <time>2019-04-28T10:09:22.000Z</time>
      </trkpt>
      <trkpt lat="40.25692172348499298095703125" lon="-7.39250575192272663116455078125">
        <ele>477.399993896484375</ele>
        <time>2019-04-28T10:09:48.000Z</time>
      </trkpt>
      <trkpt lat="40.25725088082253932952880859375" lon="-7.39193092100322246551513671875">
        <ele>481.20001220703125</ele>
        <time>2019-04-28T10:10:13.000Z</time>
      </trkpt>
      <trkpt lat="40.2574650384485721588134765625" lon="-7.39126858301460742950439453125">
        <ele>485</ele>
        <time>2019-04-28T10:10:39.000Z</time>
      </trkpt>
      <trkpt lat="40.25768606923520565032958984375" lon="-7.3906132020056247711181640625">
        <ele>488</ele>
        <time>2019-04-28T10:11:04.000Z</time>
      </trkpt>
      <trkpt lat="40.257844738662242889404296875" lon="-7.39008505828678607940673828125">
        <ele>490</ele>
        <time>2019-04-28T10:11:25.000Z</time>
      </trkpt>
      <trkpt lat="40.25787265039980411529541015625" lon="-7.3898719064891338348388671875">
        <ele>490.600006103515625</ele>
        <time>2019-04-28T10:11:33.000Z</time>
      </trkpt>
      <trkpt lat="40.257626138627529144287109375" lon="-7.3892620392143726348876953125">
        <ele>493.600006103515625</ele>
        <time>2019-04-28T10:11:59.000Z</time>
      </trkpt>
      <trkpt lat="40.25760409422218799591064453125" lon="-7.3891785554587841033935546875">
        <ele>494</ele>
        <time>2019-04-28T10:12:02.000Z</time>
      </trkpt>
      <trkpt lat="40.25754290632903575897216796875" lon="-7.3884674347937107086181640625">
        <ele>497.600006103515625</ele>
        <time>2019-04-28T10:12:23.000Z</time>
      </trkpt>
      <trkpt lat="40.2574626915156841278076171875" lon="-7.3880495131015777587890625">
        <ele>499.20001220703125</ele>
        <time>2019-04-28T10:12:36.000Z</time>
      </trkpt>
      <trkpt lat="40.2574355341494083404541015625" lon="-7.38798983395099639892578125">
        <ele>499.399993896484375</ele>
        <time>2019-04-28T10:16:07.000Z</time>
      </trkpt>
      <trkpt lat="40.25722472928464412689208984375" lon="-7.3873078823089599609375">
        <ele>502.20001220703125</ele>
        <time>2019-04-28T10:16:30.000Z</time>
      </trkpt>
      <trkpt lat="40.257210396230220794677734375" lon="-7.38728265278041362762451171875">
        <ele>502.399993896484375</ele>
        <time>2019-04-28T10:16:31.000Z</time>
      </trkpt>
      <trkpt lat="40.25705742649734020233154296875" lon="-7.3872584290802478790283203125">
        <ele>503.20001220703125</ele>
        <time>2019-04-28T10:16:38.000Z</time>
      </trkpt>
      <trkpt lat="40.2565953321754932403564453125" lon="-7.38706774078309535980224609375">
        <ele>504.79998779296875</ele>
        <time>2019-04-28T10:16:53.000Z</time>
      </trkpt>
      <trkpt lat="40.2565012872219085693359375" lon="-7.38692206330597400665283203125">
        <ele>506.20001220703125</ele>
        <time>2019-04-28T10:16:59.000Z</time>
      </trkpt>
      <trkpt lat="40.25648561306297779083251953125" lon="-7.3869010247290134429931640625">
        <ele>506.399993896484375</ele>
        <time>2019-04-28T10:17:00.000Z</time>
      </trkpt>
      <trkpt lat="40.25631194002926349639892578125" lon="-7.38667245022952556610107421875">
        <ele>508.79998779296875</ele>
        <time>2019-04-28T10:17:14.000Z</time>
      </trkpt>
      <trkpt lat="40.25630573742091655731201171875" lon="-7.3867209814488887786865234375">
        <ele>508.600006103515625</ele>
        <time>2019-04-28T10:17:32.000Z</time>
      </trkpt>
      <trkpt lat="40.2563582919538021087646484375" lon="-7.3867421038448810577392578125">
        <ele>508</ele>
        <time>2019-04-28T10:17:35.000Z</time>
      </trkpt>
      <trkpt lat="40.256380252540111541748046875" lon="-7.386768423020839691162109375">
        <ele>507.79998779296875</ele>
        <time>2019-04-28T10:17:39.000Z</time>
      </trkpt>
      <trkpt lat="40.25640581734478473663330078125" lon="-7.3868108354508876800537109375">
        <ele>507.399993896484375</ele>
        <time>2019-04-28T10:20:36.000Z</time>
      </trkpt>
      <trkpt lat="40.2566027082502841949462890625" lon="-7.38706690259277820587158203125">
        <ele>504.79998779296875</ele>
        <time>2019-04-28T10:20:43.000Z</time>
      </trkpt>
      <trkpt lat="40.25693035684525966644287109375" lon="-7.38718743436038494110107421875">
        <ele>503.399993896484375</ele>
        <time>2019-04-28T10:20:50.000Z</time>
      </trkpt>
      <trkpt lat="40.2571612782776355743408203125" lon="-7.3872684873640537261962890625">
        <ele>502.79998779296875</ele>
        <time>2019-04-28T10:20:56.000Z</time>
      </trkpt>
      <trkpt lat="40.2572373859584331512451171875" lon="-7.387116439640522003173828125">
        <ele>502.20001220703125</ele>
        <time>2019-04-28T10:21:00.000Z</time>
      </trkpt>
      <trkpt lat="40.2572518028318881988525390625" lon="-7.3870653100311756134033203125">
        <ele>502</ele>
        <time>2019-04-28T10:21:01.000Z</time>
      </trkpt>
      <trkpt lat="40.25734660215675830841064453125" lon="-7.38689012825489044189453125">
        <ele>501.399993896484375</ele>
        <time>2019-04-28T10:21:05.000Z</time>
      </trkpt>
      <trkpt lat="40.257441736757755279541015625" lon="-7.386715449392795562744140625">
        <ele>500.79998779296875</ele>
        <time>2019-04-28T10:21:09.000Z</time>
      </trkpt>
      <trkpt lat="40.257545672357082366943359375" lon="-7.386489473283290863037109375">
        <ele>501</ele>
        <time>2019-04-28T10:21:14.000Z</time>
      </trkpt>
      <trkpt lat="40.25763493962585926055908203125" lon="-7.3861074261367321014404296875">
        <ele>502.399993896484375</ele>
        <time>2019-04-28T10:21:25.000Z</time>
      </trkpt>
      <trkpt lat="40.257640220224857330322265625" lon="-7.38609912805259227752685546875">
        <ele>502.399993896484375</ele>
        <time>2019-04-28T10:21:56.000Z</time>
      </trkpt>
      <trkpt lat="40.25783627294003963470458984375" lon="-7.3859880678355693817138671875">
        <ele>501.79998779296875</ele>
        <time>2019-04-28T10:22:04.000Z</time>
      </trkpt>
      <trkpt lat="40.25820457376539707183837890625" lon="-7.38575647585093975067138671875">
        <ele>502.20001220703125</ele>
        <time>2019-04-28T10:22:15.000Z</time>
      </trkpt>
      <trkpt lat="40.25843448936939239501953125" lon="-7.3856340162456035614013671875">
        <ele>502.79998779296875</ele>
        <time>2019-04-28T10:22:21.000Z</time>
      </trkpt>
      <trkpt lat="40.25900781154632568359375" lon="-7.385571487247943878173828125">
        <ele>502.20001220703125</ele>
        <time>2019-04-28T10:22:33.000Z</time>
      </trkpt>
      <trkpt lat="40.25957300327718257904052734375" lon="-7.38553619943559169769287109375">
        <ele>501.79998779296875</ele>
        <time>2019-04-28T10:22:46.000Z</time>
      </trkpt>
      <trkpt lat="40.26011983864009380340576171875" lon="-7.38538532517850399017333984375">
        <ele>500.79998779296875</ele>
        <time>2019-04-28T10:22:56.000Z</time>
      </trkpt>
      <trkpt lat="40.26040432043373584747314453125" lon="-7.38531391136348247528076171875">
        <ele>500.20001220703125</ele>
        <time>2019-04-28T10:23:00.000Z</time>
      </trkpt>
      <trkpt lat="40.26095568202435970306396484375" lon="-7.385287173092365264892578125">
        <ele>500.20001220703125</ele>
        <time>2019-04-28T10:23:08.000Z</time>
      </trkpt>
      <trkpt lat="40.261544845998287200927734375" lon="-7.38527770154178142547607421875">
        <ele>499.20001220703125</ele>
        <time>2019-04-28T10:23:18.000Z</time>
      </trkpt>
      <trkpt lat="40.26210584677755832672119140625" lon="-7.38526311703026294708251953125">
        <ele>499.20001220703125</ele>
        <time>2019-04-28T10:23:28.000Z</time>
      </trkpt>
      <trkpt lat="40.2626822702586650848388671875" lon="-7.38529563881456851959228515625">
        <ele>494.79998779296875</ele>
        <time>2019-04-28T10:23:38.000Z</time>
      </trkpt>
      <trkpt lat="40.2629830129444599151611328125" lon="-7.38542941398918628692626953125">
        <ele>494.399993896484375</ele>
        <time>2019-04-28T10:23:43.000Z</time>
      </trkpt>
      <trkpt lat="40.26349372230470180511474609375" lon="-7.3858197592198848724365234375">
        <ele>489.79998779296875</ele>
        <time>2019-04-28T10:23:51.000Z</time>
      </trkpt>
      <trkpt lat="40.26391918770968914031982421875" lon="-7.38605017773807048797607421875">
        <ele>486</ele>
        <time>2019-04-28T10:23:56.000Z</time>
      </trkpt>
      <trkpt lat="40.26445277966558933258056640625" lon="-7.38618227653205394744873046875">
        <ele>481.79998779296875</ele>
        <time>2019-04-28T10:24:01.000Z</time>
      </trkpt>
      <trkpt lat="40.2650235034525394439697265625" lon="-7.38632577471435070037841796875">
        <ele>479.20001220703125</ele>
        <time>2019-04-28T10:24:06.000Z</time>
      </trkpt>
      <trkpt lat="40.2655911259353160858154296875" lon="-7.38646566867828369140625">
        <ele>476.79998779296875</ele>
        <time>2019-04-28T10:24:11.000Z</time>
      </trkpt>
      <trkpt lat="40.26622085832059383392333984375" lon="-7.3866183869540691375732421875">
        <ele>474.399993896484375</ele>
        <time>2019-04-28T10:24:17.000Z</time>
      </trkpt>
      <trkpt lat="40.26681228540837764739990234375" lon="-7.38676808774471282958984375">
        <ele>472</ele>
        <time>2019-04-28T10:24:23.000Z</time>
      </trkpt>
      <trkpt lat="40.26736314408481121063232421875" lon="-7.38690965808928012847900390625">
        <ele>469.600006103515625</ele>
        <time>2019-04-28T10:24:29.000Z</time>
      </trkpt>
      <trkpt lat="40.26798021979629993438720703125" lon="-7.3870669864118099212646484375">
        <ele>466.600006103515625</ele>
        <time>2019-04-28T10:24:36.000Z</time>
      </trkpt>
      <trkpt lat="40.2685390412807464599609375" lon="-7.38720688037574291229248046875">
        <ele>467.399993896484375</ele>
        <time>2019-04-28T10:24:43.000Z</time>
      </trkpt>
      <trkpt lat="40.26907690800726413726806640625" lon="-7.387340404093265533447265625">
        <ele>468.600006103515625</ele>
        <time>2019-04-28T10:24:51.000Z</time>
      </trkpt>
      <trkpt lat="40.26961988769471645355224609375" lon="-7.3874760232865810394287109375">
        <ele>471</ele>
        <time>2019-04-28T10:25:00.000Z</time>
      </trkpt>
      <trkpt lat="40.2701528929173946380615234375" lon="-7.38760636188089847564697265625">
        <ele>473.399993896484375</ele>
        <time>2019-04-28T10:25:10.000Z</time>
      </trkpt>
      <trkpt lat="40.27068413794040679931640625" lon="-7.387748770415782928466796875">
        <ele>474.79998779296875</ele>
        <time>2019-04-28T10:25:22.000Z</time>
      </trkpt>
      <trkpt lat="40.27106258086860179901123046875" lon="-7.3878429830074310302734375">
        <ele>475.600006103515625</ele>
        <time>2019-04-28T10:25:31.000Z</time>
      </trkpt>
      <trkpt lat="40.2714572846889495849609375" lon="-7.3879547975957393646240234375">
        <ele>475.20001220703125</ele>
        <time>2019-04-28T10:25:40.000Z</time>
      </trkpt>
      <trkpt lat="40.2720217220485210418701171875" lon="-7.3880852200090885162353515625">
        <ele>476.20001220703125</ele>
        <time>2019-04-28T10:25:52.000Z</time>
      </trkpt>
      <trkpt lat="40.27222766540944576263427734375" lon="-7.38813006319105625152587890625">
        <ele>476</ele>
        <time>2019-04-28T10:25:59.000Z</time>
      </trkpt>
      <trkpt lat="40.27225817553699016571044921875" lon="-7.38814699463546276092529296875">
        <ele>476</ele>
        <time>2019-04-28T10:28:58.000Z</time>
      </trkpt>
      <trkpt lat="40.27240217663347721099853515625" lon="-7.38819058053195476531982421875">
        <ele>475.79998779296875</ele>
        <time>2019-04-28T10:29:04.000Z</time>
      </trkpt>
      <trkpt lat="40.2725886739790439605712890625" lon="-7.388227544724941253662109375">
        <ele>475.79998779296875</ele>
        <time>2019-04-28T10:29:09.000Z</time>
      </trkpt>
      <trkpt lat="40.273167192935943603515625" lon="-7.388380430638790130615234375">
        <ele>474</ele>
        <time>2019-04-28T10:29:20.000Z</time>
      </trkpt>
      <trkpt lat="40.27370522730052471160888671875" lon="-7.388537339866161346435546875">
        <ele>469.600006103515625</ele>
        <time>2019-04-28T10:29:27.000Z</time>
      </trkpt>
      <trkpt lat="40.27429833076894283294677734375" lon="-7.388715706765651702880859375">
        <ele>466.20001220703125</ele>
        <time>2019-04-28T10:29:33.000Z</time>
      </trkpt>
      <trkpt lat="40.274911634624004364013671875" lon="-7.38891142420470714569091796875">
        <ele>461.600006103515625</ele>
        <time>2019-04-28T10:29:39.000Z</time>
      </trkpt>
      <trkpt lat="40.27550415135920047760009765625" lon="-7.38910253159701824188232421875">
        <ele>458.79998779296875</ele>
        <time>2019-04-28T10:29:45.000Z</time>
      </trkpt>
      <trkpt lat="40.276066996157169342041015625" lon="-7.3892891965806484222412109375">
        <ele>458.20001220703125</ele>
        <time>2019-04-28T10:29:51.000Z</time>
      </trkpt>
      <trkpt lat="40.2765948884189128875732421875" lon="-7.38946010358631610870361328125">
        <ele>457.79998779296875</ele>
        <time>2019-04-28T10:29:57.000Z</time>
      </trkpt>
      <trkpt lat="40.2771239541471004486083984375" lon="-7.389637045562267303466796875">
        <ele>458.20001220703125</ele>
        <time>2019-04-28T10:30:04.000Z</time>
      </trkpt>
      <trkpt lat="40.277544893324375152587890625" lon="-7.38976285792887210845947265625">
        <ele>458.20001220703125</ele>
        <time>2019-04-28T10:30:11.000Z</time>
      </trkpt>
      <trkpt lat="40.27809214778244495391845703125" lon="-7.38994440995156764984130859375">
        <ele>458.79998779296875</ele>
        <time>2019-04-28T10:30:23.000Z</time>
      </trkpt>
      <trkpt lat="40.2786675654351711273193359375" lon="-7.39009025506675243377685546875">
        <ele>459.600006103515625</ele>
        <time>2019-04-28T10:30:34.000Z</time>
      </trkpt>
      <trkpt lat="40.27886076830327510833740234375" lon="-7.39005320705473423004150390625">
        <ele>459.20001220703125</ele>
        <time>2019-04-28T10:30:37.000Z</time>
      </trkpt>
      <trkpt lat="40.2794091962277889251708984375" lon="-7.389714159071445465087890625">
        <ele>455.600006103515625</ele>
        <time>2019-04-28T10:30:45.000Z</time>
      </trkpt>
      <trkpt lat="40.2799322269856929779052734375" lon="-7.3893351294100284576416015625">
        <ele>451</ele>
        <time>2019-04-28T10:30:53.000Z</time>
      </trkpt>
      <trkpt lat="40.28040588833391666412353515625" lon="-7.38899155519902706146240234375">
        <ele>447.399993896484375</ele>
        <time>2019-04-28T10:30:59.000Z</time>
      </trkpt>
      <trkpt lat="40.28091140091419219970703125" lon="-7.38863364793360233306884765625">
        <ele>443.79998779296875</ele>
        <time>2019-04-28T10:31:05.000Z</time>
      </trkpt>
      <trkpt lat="40.28149989433586597442626953125" lon="-7.38830558024346828460693359375">
        <ele>438.79998779296875</ele>
        <time>2019-04-28T10:31:11.000Z</time>
      </trkpt>
      <trkpt lat="40.2821135334670543670654296875" lon="-7.38820332102477550506591796875">
        <ele>432.399993896484375</ele>
        <time>2019-04-28T10:31:16.000Z</time>
      </trkpt>
      <trkpt lat="40.2827361412346363067626953125" lon="-7.38816929049789905548095703125">
        <ele>431.20001220703125</ele>
        <time>2019-04-28T10:31:21.000Z</time>
      </trkpt>
      <trkpt lat="40.2833413146436214447021484375" lon="-7.388161160051822662353515625">
        <ele>432.79998779296875</ele>
        <time>2019-04-28T10:31:27.000Z</time>
      </trkpt>
      <trkpt lat="40.283907763659954071044921875" lon="-7.388082034885883331298828125">
        <ele>435.20001220703125</ele>
        <time>2019-04-28T10:31:35.000Z</time>
      </trkpt>
      <trkpt lat="40.28443708084523677825927734375" lon="-7.38787181675434112548828125">
        <ele>439.20001220703125</ele>
        <time>2019-04-28T10:31:47.000Z</time>
      </trkpt>
      <trkpt lat="40.28455627150833606719970703125" lon="-7.3878287337720394134521484375">
        <ele>440</ele>
        <time>2019-04-28T10:31:50.000Z</time>
      </trkpt>
      <trkpt lat="40.2847571857273578643798828125" lon="-7.3877418972551822662353515625">
        <ele>440.79998779296875</ele>
        <time>2019-04-28T10:31:55.000Z</time>
      </trkpt>
      <trkpt lat="40.28529220260679721832275390625" lon="-7.3875578306615352630615234375">
        <ele>441.79998779296875</ele>
        <time>2019-04-28T10:32:13.000Z</time>
      </trkpt>
      <trkpt lat="40.285826884210109710693359375" lon="-7.38751416094601154327392578125">
        <ele>445.20001220703125</ele>
        <time>2019-04-28T10:32:30.000Z</time>
      </trkpt>
      <trkpt lat="40.2863869629800319671630859375" lon="-7.3875638656318187713623046875">
        <ele>449.399993896484375</ele>
        <time>2019-04-28T10:32:50.000Z</time>
      </trkpt>
      <trkpt lat="40.286911167204380035400390625" lon="-7.38776327110826969146728515625">
        <ele>450.20001220703125</ele>
        <time>2019-04-28T10:33:12.000Z</time>
      </trkpt>
      <trkpt lat="40.287370495498180389404296875" lon="-7.38817716948688030242919921875">
        <ele>454.600006103515625</ele>
        <time>2019-04-28T10:33:34.000Z</time>
      </trkpt>
      <trkpt lat="40.28781867586076259613037109375" lon="-7.3886136151850223541259765625">
        <ele>456</ele>
        <time>2019-04-28T10:33:53.000Z</time>
      </trkpt>
      <trkpt lat="40.28827046044170856475830078125" lon="-7.38906414248049259185791015625">
        <ele>459.600006103515625</ele>
        <time>2019-04-28T10:34:11.000Z</time>
      </trkpt>
      <trkpt lat="40.28873247094452381134033203125" lon="-7.38949497230350971221923828125">
        <ele>461</ele>
        <time>2019-04-28T10:34:27.000Z</time>
      </trkpt>
      <trkpt lat="40.28927142731845378875732421875" lon="-7.3896398954093456268310546875">
        <ele>463.79998779296875</ele>
        <time>2019-04-28T10:34:43.000Z</time>
      </trkpt>
      <trkpt lat="40.28982144780457019805908203125" lon="-7.38972849212586879730224609375">
        <ele>467</ele>
        <time>2019-04-28T10:35:00.000Z</time>
      </trkpt>
      <trkpt lat="40.29027608223259449005126953125" lon="-7.39010534249246120452880859375">
        <ele>466.399993896484375</ele>
        <time>2019-04-28T10:35:16.000Z</time>
      </trkpt>
      <trkpt lat="40.29066667892038822174072265625" lon="-7.3905991204082965850830078125">
        <ele>464.600006103515625</ele>
        <time>2019-04-28T10:35:32.000Z</time>
      </trkpt>
      <trkpt lat="40.2910952456295490264892578125" lon="-7.391075380146503448486328125">
        <ele>462.20001220703125</ele>
        <time>2019-04-28T10:35:45.000Z</time>
      </trkpt>
      <trkpt lat="40.29156379401683807373046875" lon="-7.391483075916767120361328125">
        <ele>461.79998779296875</ele>
        <time>2019-04-28T10:36:01.000Z</time>
      </trkpt>
      <trkpt lat="40.2920752577483654022216796875" lon="-7.39184173755347728729248046875">
        <ele>464.399993896484375</ele>
        <time>2019-04-28T10:36:17.000Z</time>
      </trkpt>
      <trkpt lat="40.29212010093033313751220703125" lon="-7.39185950718820095062255859375">
        <ele>464.600006103515625</ele>
        <time>2019-04-28T10:36:18.000Z</time>
      </trkpt>
      <trkpt lat="40.2923116274178028106689453125" lon="-7.39192656241357326507568359375">
        <ele>465.399993896484375</ele>
        <time>2019-04-28T10:36:22.000Z</time>
      </trkpt>
      <trkpt lat="40.29258697293698787689208984375" lon="-7.391902506351470947265625">
        <ele>467.20001220703125</ele>
        <time>2019-04-28T10:36:28.000Z</time>
      </trkpt>
      <trkpt lat="40.29309944249689579010009765625" lon="-7.39162079058587551116943359375">
        <ele>471.399993896484375</ele>
        <time>2019-04-28T10:36:47.000Z</time>
      </trkpt>
      <trkpt lat="40.2935702539980411529541015625" lon="-7.391289956867694854736328125">
        <ele>473.79998779296875</ele>
        <time>2019-04-28T10:37:11.000Z</time>
      </trkpt>
      <trkpt lat="40.294087417423725128173828125" lon="-7.3910701833665370941162109375">
        <ele>477.20001220703125</ele>
        <time>2019-04-28T10:37:32.000Z</time>
      </trkpt>
      <trkpt lat="40.29462729580700397491455078125" lon="-7.3911281861364841461181640625">
        <ele>479.79998779296875</ele>
        <time>2019-04-28T10:37:52.000Z</time>
      </trkpt>
      <trkpt lat="40.2949764020740985870361328125" lon="-7.3907667584717273712158203125">
        <ele>481.79998779296875</ele>
        <time>2019-04-28T10:38:15.000Z</time>
      </trkpt>
      <trkpt lat="40.29491278342902660369873046875" lon="-7.39052745513617992401123046875">
        <ele>483.399993896484375</ele>
        <time>2019-04-28T10:38:26.000Z</time>
      </trkpt>
      <trkpt lat="40.294902808964252471923828125" lon="-7.3904797621071338653564453125">
        <ele>483.399993896484375</ele>
        <time>2019-04-28T10:39:29.000Z</time>
      </trkpt>
      <trkpt lat="40.294715054333209991455078125" lon="-7.389950864017009735107421875">
        <ele>484.399993896484375</ele>
        <time>2019-04-28T10:39:41.000Z</time>
      </trkpt>
      <trkpt lat="40.29445798136293888092041015625" lon="-7.38938919268548488616943359375">
        <ele>484.600006103515625</ele>
        <time>2019-04-28T10:39:52.000Z</time>
      </trkpt>
      <trkpt lat="40.29463333077728748321533203125" lon="-7.3887871205806732177734375">
        <ele>486.600006103515625</ele>
        <time>2019-04-28T10:40:05.000Z</time>
      </trkpt>
      <trkpt lat="40.29506969265639781951904296875" lon="-7.38832779228687286376953125">
        <ele>489.20001220703125</ele>
        <time>2019-04-28T10:40:22.000Z</time>
      </trkpt>
      <trkpt lat="40.29553807340562343597412109375" lon="-7.38791096024215221405029296875">
        <ele>489.399993896484375</ele>
        <time>2019-04-28T10:40:36.000Z</time>
      </trkpt>
      <trkpt lat="40.29569900594651699066162109375" lon="-7.38780199550092220306396484375">
        <ele>488</ele>
        <time>2019-04-28T10:40:40.000Z</time>
      </trkpt>
      <trkpt lat="40.296066887676715850830078125" lon="-7.387811802327632904052734375">
        <ele>486.79998779296875</ele>
        <time>2019-04-28T10:40:47.000Z</time>
      </trkpt>
      <trkpt lat="40.29665035195648670196533203125" lon="-7.3878612555563449859619140625">
        <ele>484.600006103515625</ele>
        <time>2019-04-28T10:40:56.000Z</time>
      </trkpt>
      <trkpt lat="40.2969867177307605743408203125" lon="-7.38746303133666515350341796875">
        <ele>480.79998779296875</ele>
        <time>2019-04-28T10:41:02.000Z</time>
      </trkpt>
      <trkpt lat="40.2973367460072040557861328125" lon="-7.3869013600051403045654296875">
        <ele>479.20001220703125</ele>
        <time>2019-04-28T10:41:10.000Z</time>
      </trkpt>
      <trkpt lat="40.29768015258014202117919921875" lon="-7.3863355815410614013671875">
        <ele>478.399993896484375</ele>
        <time>2019-04-28T10:41:20.000Z</time>
      </trkpt>
      <trkpt lat="40.29786673374474048614501953125" lon="-7.3860165663063526153564453125">
        <ele>478.600006103515625</ele>
        <time>2019-04-28T10:41:26.000Z</time>
      </trkpt>
      <trkpt lat="40.29809237457811832427978515625" lon="-7.38534643314778804779052734375">
        <ele>478.79998779296875</ele>
        <time>2019-04-28T10:41:36.000Z</time>
      </trkpt>
      <trkpt lat="40.2983061969280242919921875" lon="-7.38468241877853870391845703125">
        <ele>478.600006103515625</ele>
        <time>2019-04-28T10:41:45.000Z</time>
      </trkpt>
      <trkpt lat="40.2985370345413684844970703125" lon="-7.3839562945067882537841796875">
        <ele>476.600006103515625</ele>
        <time>2019-04-28T10:41:54.000Z</time>
      </trkpt>
      <trkpt lat="40.298691093921661376953125" lon="-7.38343150354921817779541015625">
        <ele>475</ele>
        <time>2019-04-28T10:42:01.000Z</time>
      </trkpt>
      <trkpt lat="40.29869201593101024627685546875" lon="-7.383184991776943206787109375">
        <ele>474.600006103515625</ele>
        <time>2019-04-28T10:42:05.000Z</time>
      </trkpt>
      <trkpt lat="40.29850057326257228851318359375" lon="-7.38247395493090152740478515625">
        <ele>474.79998779296875</ele>
        <time>2019-04-28T10:42:18.000Z</time>
      </trkpt>
      <trkpt lat="40.29848028905689716339111328125" lon="-7.3823452927172183990478515625">
        <ele>474.79998779296875</ele>
        <time>2019-04-28T10:42:20.000Z</time>
      </trkpt>
      <trkpt lat="40.29852102510631084442138671875" lon="-7.3820683546364307403564453125">
        <ele>474.600006103515625</ele>
        <time>2019-04-28T10:42:24.000Z</time>
      </trkpt>
      <trkpt lat="40.2985537983477115631103515625" lon="-7.3820029757916927337646484375">
        <ele>474.600006103515625</ele>
        <time>2019-04-28T10:42:25.000Z</time>
      </trkpt>
      <trkpt lat="40.29876728542149066925048828125" lon="-7.38181966356933116912841796875">
        <ele>474</ele>
        <time>2019-04-28T10:42:29.000Z</time>
      </trkpt>
      <trkpt lat="40.29935569502413272857666015625" lon="-7.38166661001741886138916015625">
        <ele>473.399993896484375</ele>
        <time>2019-04-28T10:42:37.000Z</time>
      </trkpt>
      <trkpt lat="40.299887359142303466796875" lon="-7.3814876563847064971923828125">
        <ele>473.399993896484375</ele>
        <time>2019-04-28T10:42:45.000Z</time>
      </trkpt>
      <trkpt lat="40.29994033277034759521484375" lon="-7.38145169802010059356689453125">
        <ele>473.600006103515625</ele>
        <time>2019-04-28T10:42:46.000Z</time>
      </trkpt>
      <trkpt lat="40.3000424243509769439697265625" lon="-7.3813750036060810089111328125">
        <ele>473.79998779296875</ele>
        <time>2019-04-28T10:42:48.000Z</time>
      </trkpt>
      <trkpt lat="40.3001664765179157257080078125" lon="-7.3812206089496612548828125">
        <ele>474.399993896484375</ele>
        <time>2019-04-28T10:42:51.000Z</time>
      </trkpt>
      <trkpt lat="40.30045657418668270111083984375" lon="-7.38058157265186309814453125">
        <ele>474.79998779296875</ele>
        <time>2019-04-28T10:43:01.000Z</time>
      </trkpt>
      <trkpt lat="40.30074491165578365325927734375" lon="-7.3799406923353672027587890625">
        <ele>469.79998779296875</ele>
        <time>2019-04-28T10:43:10.000Z</time>
      </trkpt>
      <trkpt lat="40.3010140545666217803955078125" lon="-7.3793117143213748931884765625">
        <ele>468.20001220703125</ele>
        <time>2019-04-28T10:43:18.000Z</time>
      </trkpt>
      <trkpt lat="40.3012859635055065155029296875" lon="-7.37868256866931915283203125">
        <ele>467.600006103515625</ele>
        <time>2019-04-28T10:43:26.000Z</time>
      </trkpt>
      <trkpt lat="40.30153934843838214874267578125" lon="-7.37804420292377471923828125">
        <ele>466.399993896484375</ele>
        <time>2019-04-28T10:43:34.000Z</time>
      </trkpt>
      <trkpt lat="40.30173816718161106109619140625" lon="-7.3773072659969329833984375">
        <ele>463.600006103515625</ele>
        <time>2019-04-28T10:43:41.000Z</time>
      </trkpt>
      <trkpt lat="40.301908738911151885986328125" lon="-7.37662372179329395294189453125">
        <ele>458.79998779296875</ele>
        <time>2019-04-28T10:43:47.000Z</time>
      </trkpt>
      <trkpt lat="40.30191603116691112518310546875" lon="-7.37650729715824127197265625">
        <ele>458.399993896484375</ele>
        <time>2019-04-28T10:43:48.000Z</time>
      </trkpt>
      <trkpt lat="40.30191519297659397125244140625" lon="-7.37615785561501979827880859375">
        <ele>456.600006103515625</ele>
        <time>2019-04-28T10:43:51.000Z</time>
      </trkpt>
      <trkpt lat="40.301853753626346588134765625" lon="-7.37538236193358898162841796875">
        <ele>454.20001220703125</ele>
        <time>2019-04-28T10:43:58.000Z</time>
      </trkpt>
      <trkpt lat="40.3018519096076488494873046875" lon="-7.37462304532527923583984375">
        <ele>451.79998779296875</ele>
        <time>2019-04-28T10:44:05.000Z</time>
      </trkpt>
      <trkpt lat="40.3018871136009693145751953125" lon="-7.3744555748999118804931640625">
        <ele>451.399993896484375</ele>
        <time>2019-04-28T10:44:07.000Z</time>
      </trkpt>
      <trkpt lat="40.3021841682493686676025390625" lon="-7.37386372871696949005126953125">
        <ele>449.399993896484375</ele>
        <time>2019-04-28T10:44:14.000Z</time>
      </trkpt>
      <trkpt lat="40.30258289538323879241943359375" lon="-7.373303063213825225830078125">
        <ele>445.79998779296875</ele>
        <time>2019-04-28T10:44:20.000Z</time>
      </trkpt>
      <trkpt lat="40.30284189619123935699462890625" lon="-7.37289209850132465362548828125">
        <ele>444</ele>
        <time>2019-04-28T10:44:26.000Z</time>
      </trkpt>
      <trkpt lat="40.3029532916843891143798828125" lon="-7.37259437330067157745361328125">
        <ele>443.20001220703125</ele>
        <time>2019-04-28T10:44:30.000Z</time>
      </trkpt>
      <trkpt lat="40.30300953425467014312744140625" lon="-7.3723654635250568389892578125">
        <ele>442.79998779296875</ele>
        <time>2019-04-28T10:44:33.000Z</time>
      </trkpt>
      <trkpt lat="40.303340367972850799560546875" lon="-7.37238097004592418670654296875">
        <ele>443.399993896484375</ele>
        <time>2019-04-28T10:44:41.000Z</time>
      </trkpt>
      <trkpt lat="40.30336392112076282501220703125" lon="-7.3724336922168731689453125">
        <ele>443.399993896484375</ele>
        <time>2019-04-28T10:44:42.000Z</time>
      </trkpt>
      <trkpt lat="40.30332083813846111297607421875" lon="-7.372662685811519622802734375">
        <ele>443.399993896484375</ele>
        <time>2019-04-28T10:44:51.000Z</time>
      </trkpt>
      <trkpt lat="40.303298793733119964599609375" lon="-7.37267802469432353973388671875">
        <ele>443.399993896484375</ele>
        <time>2019-04-28T10:44:53.000Z</time>
      </trkpt>
      <trkpt lat="40.30321656726300716400146484375" lon="-7.37271406687796115875244140625">
        <ele>443.20001220703125</ele>
        <time>2019-04-28T10:44:59.000Z</time>
      </trkpt>
      <trkpt lat="40.303208269178867340087890625" lon="-7.37266796641051769256591796875">
        <ele>443.20001220703125</ele>
        <time>2019-04-28T10:46:13.000Z</time>
      </trkpt>
      <trkpt lat="40.30298355035483837127685546875" lon="-7.3725166730582714080810546875">
        <ele>443</ele>
        <time>2019-04-28T10:46:21.000Z</time>
      </trkpt>
      <trkpt lat="40.30292437411844730377197265625" lon="-7.3724767751991748809814453125">
        <ele>443.20001220703125</ele>
        <time>2019-04-28T10:46:26.000Z</time>
      </trkpt>
      <trkpt lat="40.30293057672679424285888671875" lon="-7.37245523370802402496337890625">
        <ele>443</ele>
        <time>2019-04-28T10:47:33.000Z</time>
      </trkpt>
      <trkpt lat="40.30292940326035022735595703125" lon="-7.3721773736178874969482421875">
        <ele>442</ele>
        <time>2019-04-28T10:47:39.000Z</time>
      </trkpt>
      <trkpt lat="40.3028739988803863525390625" lon="-7.37200294621288776397705078125">
        <ele>441.600006103515625</ele>
        <time>2019-04-28T10:47:42.000Z</time>
      </trkpt>
      <trkpt lat="40.3025325201451778411865234375" lon="-7.3714032210409641265869140625">
        <ele>440</ele>
        <time>2019-04-28T10:47:52.000Z</time>
      </trkpt>
      <trkpt lat="40.3021704219281673431396484375" lon="-7.370809614658355712890625">
        <ele>440</ele>
        <time>2019-04-28T10:48:02.000Z</time>
      </trkpt>
      <trkpt lat="40.30181125737726688385009765625" lon="-7.37022346816956996917724609375">
        <ele>439.79998779296875</ele>
        <time>2019-04-28T10:48:12.000Z</time>
      </trkpt>
      <trkpt lat="40.3015702776610851287841796875" lon="-7.36972692422568798065185546875">
        <ele>441</ele>
        <time>2019-04-28T10:48:22.000Z</time>
      </trkpt>
      <trkpt lat="40.30181461013853549957275390625" lon="-7.36960186623036861419677734375">
        <ele>440.79998779296875</ele>
        <time>2019-04-28T10:48:28.000Z</time>
      </trkpt>
      <trkpt lat="40.30216665007174015045166015625" lon="-7.3694770596921443939208984375">
        <ele>440.600006103515625</ele>
        <time>2019-04-28T10:48:36.000Z</time>
      </trkpt>
      <trkpt lat="40.3022341243922710418701171875" lon="-7.3694529198110103607177734375">
        <ele>440.79998779296875</ele>
        <time>2019-04-28T10:48:41.000Z</time>
      </trkpt>
      <trkpt lat="40.30225776135921478271484375" lon="-7.3694430291652679443359375">
        <ele>441</ele>
        <time>2019-04-28T10:49:11.000Z</time>
      </trkpt>
      <trkpt lat="40.30280199833214282989501953125" lon="-7.369259633123874664306640625">
        <ele>442.399993896484375</ele>
        <time>2019-04-28T10:49:27.000Z</time>
      </trkpt>
      <trkpt lat="40.3033532761037349700927734375" lon="-7.3690596409142017364501953125">
        <ele>443.79998779296875</ele>
        <time>2019-04-28T10:49:40.000Z</time>
      </trkpt>
      <trkpt lat="40.3038779832422733306884765625" lon="-7.36886995844542980194091796875">
        <ele>444.20001220703125</ele>
        <time>2019-04-28T10:49:50.000Z</time>
      </trkpt>
      <trkpt lat="40.30441484414041042327880859375" lon="-7.36866854131221771240234375">
        <ele>443.20001220703125</ele>
        <time>2019-04-28T10:50:00.000Z</time>
      </trkpt>
      <trkpt lat="40.3049636073410511016845703125" lon="-7.36842169426381587982177734375">
        <ele>442.79998779296875</ele>
        <time>2019-04-28T10:50:10.000Z</time>
      </trkpt>
      <trkpt lat="40.305452607572078704833984375" lon="-7.3680846579372882843017578125">
        <ele>442.79998779296875</ele>
        <time>2019-04-28T10:50:19.000Z</time>
      </trkpt>
      <trkpt lat="40.30593716539442539215087890625" lon="-7.36773521639406681060791015625">
        <ele>444.600006103515625</ele>
        <time>2019-04-28T10:50:28.000Z</time>
      </trkpt>
      <trkpt lat="40.306420214474201202392578125" lon="-7.3673835955560207366943359375">
        <ele>446.600006103515625</ele>
        <time>2019-04-28T10:50:37.000Z</time>
      </trkpt>
      <trkpt lat="40.306902341544628143310546875" lon="-7.3670318908989429473876953125">
        <ele>448.79998779296875</ele>
        <time>2019-04-28T10:50:47.000Z</time>
      </trkpt>
      <trkpt lat="40.30740492045879364013671875" lon="-7.36667373217642307281494140625">
        <ele>450.600006103515625</ele>
        <time>2019-04-28T10:50:58.000Z</time>
      </trkpt>
      <trkpt lat="40.30789903365075588226318359375" lon="-7.36631515435874462127685546875">
        <ele>450.20001220703125</ele>
        <time>2019-04-28T10:51:09.000Z</time>
      </trkpt>
      <trkpt lat="40.308187119662761688232421875" lon="-7.36613460816442966461181640625">
        <ele>450.79998779296875</ele>
        <time>2019-04-28T10:51:17.000Z</time>
      </trkpt>
      <trkpt lat="40.3081815876066684722900390625" lon="-7.366197220981121063232421875">
        <ele>451.20001220703125</ele>
        <time>2019-04-28T10:51:22.000Z</time>
      </trkpt>
      <trkpt lat="40.30816306360065937042236328125" lon="-7.3661377094686031341552734375">
        <ele>450.79998779296875</ele>
        <time>2019-04-28T10:52:04.000Z</time>
      </trkpt>
      <trkpt lat="40.30828334391117095947265625" lon="-7.36605062149465084075927734375">
        <ele>451</ele>
        <time>2019-04-28T10:52:09.000Z</time>
      </trkpt>
      <trkpt lat="40.30876622535288333892822265625" lon="-7.36568600870668888092041015625">
        <ele>452.20001220703125</ele>
        <time>2019-04-28T10:52:23.000Z</time>
      </trkpt>
      <trkpt lat="40.30924047343432903289794921875" lon="-7.36533396877348423004150390625">
        <ele>451.79998779296875</ele>
        <time>2019-04-28T10:52:33.000Z</time>
      </trkpt>
      <trkpt lat="40.3097630850970745086669921875" lon="-7.36495946533977985382080078125">
        <ele>450.600006103515625</ele>
        <time>2019-04-28T10:52:42.000Z</time>
      </trkpt>
      <trkpt lat="40.31028904952108860015869140625" lon="-7.36457817256450653076171875">
        <ele>449</ele>
        <time>2019-04-28T10:52:50.000Z</time>
      </trkpt>
      <trkpt lat="40.31079732812941074371337890625" lon="-7.3642038367688655853271484375">
        <ele>448.399993896484375</ele>
        <time>2019-04-28T10:52:57.000Z</time>
      </trkpt>
      <trkpt lat="40.311288423836231231689453125" lon="-7.363842241466045379638671875">
        <ele>448.20001220703125</ele>
        <time>2019-04-28T10:53:04.000Z</time>
      </trkpt>
      <trkpt lat="40.31179762445390224456787109375" lon="-7.3634729348123073577880859375">
        <ele>449.20001220703125</ele>
        <time>2019-04-28T10:53:12.000Z</time>
      </trkpt>
      <trkpt lat="40.3122853673994541168212890625" lon="-7.3631081543862819671630859375">
        <ele>449.600006103515625</ele>
        <time>2019-04-28T10:53:20.000Z</time>
      </trkpt>
      <trkpt lat="40.31279884278774261474609375" lon="-7.36273507587611675262451171875">
        <ele>449.20001220703125</ele>
        <time>2019-04-28T10:53:28.000Z</time>
      </trkpt>
      <trkpt lat="40.31332296319305896759033203125" lon="-7.3623512685298919677734375">
        <ele>448.79998779296875</ele>
        <time>2019-04-28T10:53:37.000Z</time>
      </trkpt>
      <trkpt lat="40.31381598673760890960693359375" lon="-7.36198908649384975433349609375">
        <ele>448.600006103515625</ele>
        <time>2019-04-28T10:53:46.000Z</time>
      </trkpt>
      <trkpt lat="40.3143144585192203521728515625" lon="-7.361634783446788787841796875">
        <ele>450.20001220703125</ele>
        <time>2019-04-28T10:53:55.000Z</time>
      </trkpt>
      <trkpt lat="40.31480521894991397857666015625" lon="-7.36128081567585468292236328125">
        <ele>451.399993896484375</ele>
        <time>2019-04-28T10:54:04.000Z</time>
      </trkpt>
      <trkpt lat="40.315296314656734466552734375" lon="-7.36091687344014644622802734375">
        <ele>452.600006103515625</ele>
        <time>2019-04-28T10:54:14.000Z</time>
      </trkpt>
      <trkpt lat="40.31580601818859577178955078125" lon="-7.36054144799709320068359375">
        <ele>453.399993896484375</ele>
        <time>2019-04-28T10:54:24.000Z</time>
      </trkpt>
      <trkpt lat="40.31631832011044025421142578125" lon="-7.3601617477834224700927734375">
        <ele>454.20001220703125</ele>
        <time>2019-04-28T10:54:34.000Z</time>
      </trkpt>
      <trkpt lat="40.31682643108069896697998046875" lon="-7.359868548810482025146484375">
        <ele>455.79998779296875</ele>
        <time>2019-04-28T10:54:44.000Z</time>
      </trkpt>
      <trkpt lat="40.3173798881471157073974609375" lon="-7.35962941311299800872802734375">
        <ele>457.399993896484375</ele>
        <time>2019-04-28T10:54:55.000Z</time>
      </trkpt>
      <trkpt lat="40.31792798079550266265869140625" lon="-7.3593807220458984375">
        <ele>458.79998779296875</ele>
        <time>2019-04-28T10:55:06.000Z</time>
      </trkpt>
      <trkpt lat="40.318478085100650787353515625" lon="-7.35913823358714580535888671875">
        <ele>460.20001220703125</ele>
        <time>2019-04-28T10:55:18.000Z</time>
      </trkpt>
      <trkpt lat="40.31902198679745197296142578125" lon="-7.35889147035777568817138671875">
        <ele>460.399993896484375</ele>
        <time>2019-04-28T10:55:29.000Z</time>
      </trkpt>
      <trkpt lat="40.3195689059793949127197265625" lon="-7.35865325666964054107666015625">
        <ele>459.79998779296875</ele>
        <time>2019-04-28T10:55:40.000Z</time>
      </trkpt>
      <trkpt lat="40.31988515518605709075927734375" lon="-7.3585148714482784271240234375">
        <ele>459.20001220703125</ele>
        <time>2019-04-28T10:55:47.000Z</time>
      </trkpt>
      <trkpt lat="40.32044045627117156982421875" lon="-7.35826182179152965545654296875">
        <ele>458</ele>
        <time>2019-04-28T10:55:59.000Z</time>
      </trkpt>
      <trkpt lat="40.32096206210553646087646484375" lon="-7.35802285373210906982421875">
        <ele>460</ele>
        <time>2019-04-28T10:56:09.000Z</time>
      </trkpt>
      <trkpt lat="40.3215135075151920318603515625" lon="-7.3577775992453098297119140625">
        <ele>462</ele>
        <time>2019-04-28T10:56:20.000Z</time>
      </trkpt>
      <trkpt lat="40.322048775851726531982421875" lon="-7.3575362004339694976806640625">
        <ele>463.79998779296875</ele>
        <time>2019-04-28T10:56:31.000Z</time>
      </trkpt>
      <trkpt lat="40.32258613966405391693115234375" lon="-7.35729656182229518890380859375">
        <ele>464.20001220703125</ele>
        <time>2019-04-28T10:56:42.000Z</time>
      </trkpt>
      <trkpt lat="40.3231184743344783782958984375" lon="-7.35705985687673091888427734375">
        <ele>464.600006103515625</ele>
        <time>2019-04-28T10:56:53.000Z</time>
      </trkpt>
      <trkpt lat="40.32363924197852611541748046875" lon="-7.35683488659560680389404296875">
        <ele>465.79998779296875</ele>
        <time>2019-04-28T10:57:03.000Z</time>
      </trkpt>
      <trkpt lat="40.324174426496028900146484375" lon="-7.3565964214503765106201171875">
        <ele>467.600006103515625</ele>
        <time>2019-04-28T10:57:14.000Z</time>
      </trkpt>
      <trkpt lat="40.324717573821544647216796875" lon="-7.35634789802134037017822265625">
        <ele>469</ele>
        <time>2019-04-28T10:57:28.000Z</time>
      </trkpt>
      <trkpt lat="40.32475369982421398162841796875" lon="-7.35632367432117462158203125">
        <ele>469</ele>
        <time>2019-04-28T10:57:29.000Z</time>
      </trkpt>
      <trkpt lat="40.32486165873706340789794921875" lon="-7.35626676119863986968994140625">
        <ele>469</ele>
        <time>2019-04-28T10:57:34.000Z</time>
      </trkpt>
      <trkpt lat="40.32485377974808216094970703125" lon="-7.35626709647476673126220703125">
        <ele>469</ele>
        <time>2019-04-28T10:57:35.000Z</time>
      </trkpt>
      <trkpt lat="40.32492502592504024505615234375" lon="-7.356267012655735015869140625">
        <ele>469</ele>
        <time>2019-04-28T10:59:01.000Z</time>
      </trkpt>
      <trkpt lat="40.325467251241207122802734375" lon="-7.356010191142559051513671875">
        <ele>469</ele>
        <time>2019-04-28T10:59:16.000Z</time>
      </trkpt>
      <trkpt lat="40.32601970247924327850341796875" lon="-7.35575973987579345703125">
        <ele>469.20001220703125</ele>
        <time>2019-04-28T10:59:30.000Z</time>
      </trkpt>
      <trkpt lat="40.32657408155500888824462890625" lon="-7.35549026168882846832275390625">
        <ele>470.600006103515625</ele>
        <time>2019-04-28T10:59:42.000Z</time>
      </trkpt>
      <trkpt lat="40.3270764090120792388916015625" lon="-7.355092205107212066650390625">
        <ele>472</ele>
        <time>2019-04-28T10:59:53.000Z</time>
      </trkpt>
      <trkpt lat="40.327536575496196746826171875" lon="-7.35470571555197238922119140625">
        <ele>472</ele>
        <time>2019-04-28T11:00:04.000Z</time>
      </trkpt>
      <trkpt lat="40.3280007652938365936279296875" lon="-7.354316376149654388427734375">
        <ele>472</ele>
        <time>2019-04-28T11:00:15.000Z</time>
      </trkpt>
      <trkpt lat="40.32846101559698581695556640625" lon="-7.35393038950860500335693359375">
        <ele>470.79998779296875</ele>
        <time>2019-04-28T11:00:26.000Z</time>
      </trkpt>
      <trkpt lat="40.3289016522467136383056640625" lon="-7.35351347364485263824462890625">
        <ele>470</ele>
        <time>2019-04-28T11:00:36.000Z</time>
      </trkpt>
      <trkpt lat="40.32931731082499027252197265625" lon="-7.3530217073857784271240234375">
        <ele>469.399993896484375</ele>
        <time>2019-04-28T11:00:46.000Z</time>
      </trkpt>
      <trkpt lat="40.32976356334984302520751953125" lon="-7.3525680787861347198486328125">
        <ele>468.20001220703125</ele>
        <time>2019-04-28T11:00:56.000Z</time>
      </trkpt>
      <trkpt lat="40.3300472907721996307373046875" lon="-7.35243958421051502227783203125">
        <ele>467.79998779296875</ele>
        <time>2019-04-28T11:01:01.000Z</time>
      </trkpt>
      <trkpt lat="40.33060627989470958709716796875" lon="-7.3524279333651065826416015625">
        <ele>468</ele>
        <time>2019-04-28T11:01:11.000Z</time>
      </trkpt>
      <trkpt lat="40.33101774752140045166015625" lon="-7.3525030352175235748291015625">
        <ele>468.600006103515625</ele>
        <time>2019-04-28T11:01:19.000Z</time>
      </trkpt>
      <trkpt lat="40.3315831907093524932861328125" lon="-7.35254134051501750946044921875">
        <ele>469.600006103515625</ele>
        <time>2019-04-28T11:01:33.000Z</time>
      </trkpt>
      <trkpt lat="40.3320401720702648162841796875" lon="-7.35255139879882335662841796875">
        <ele>470.79998779296875</ele>
        <time>2019-04-28T11:01:47.000Z</time>
      </trkpt>
      <trkpt lat="40.33184931613504886627197265625" lon="-7.35259347595274448394775390625">
        <ele>470.399993896484375</ele>
        <time>2019-04-28T11:01:53.000Z</time>
      </trkpt>
      <trkpt lat="40.33176331780850887298583984375" lon="-7.35265600495040416717529296875">
        <ele>470</ele>
        <time>2019-04-28T11:01:56.000Z</time>
      </trkpt>
      <trkpt lat="40.33179433085024356842041015625" lon="-7.352808974683284759521484375">
        <ele>470.20001220703125</ele>
        <time>2019-04-28T11:02:01.000Z</time>
      </trkpt>
      <trkpt lat="40.3320928104221820831298828125" lon="-7.35344340093433856964111328125">
        <ele>473.399993896484375</ele>
        <time>2019-04-28T11:02:20.000Z</time>
      </trkpt>
      <trkpt lat="40.33222138881683349609375" lon="-7.3537174053490161895751953125">
        <ele>475.20001220703125</ele>
        <time>2019-04-28T11:02:33.000Z</time>
      </trkpt>
      <trkpt lat="40.33228165470063686370849609375" lon="-7.3539018072187900543212890625">
        <ele>476.399993896484375</ele>
        <time>2019-04-28T11:02:51.000Z</time>
      </trkpt>
      <trkpt lat="40.332371257245540618896484375" lon="-7.35416675917804241180419921875">
        <ele>476.79998779296875</ele>
        <time>2019-04-28T11:03:03.000Z</time>
      </trkpt>
      <trkpt lat="40.3319228254258632659912109375" lon="-7.35451720654964447021484375">
        <ele>478</ele>
        <time>2019-04-28T11:03:27.000Z</time>
      </trkpt>
      <trkpt lat="40.33166474662721157073974609375" lon="-7.354671768844127655029296875">
        <ele>477.79998779296875</ele>
        <time>2019-04-28T11:03:37.000Z</time>
      </trkpt>
      <trkpt lat="40.33152694813907146453857421875" lon="-7.3545555956661701202392578125">
        <ele>476.79998779296875</ele>
        <time>2019-04-28T11:03:45.000Z</time>
      </trkpt>
      <trkpt lat="40.33166592009365558624267578125" lon="-7.354660369455814361572265625">
        <ele>477.79998779296875</ele>
        <time>2019-04-28T11:13:45.000Z</time>
      </trkpt>
      <trkpt lat="40.33176281489431858062744140625" lon="-7.35462793149054050445556640625">
        <ele>478</ele>
        <time>2019-04-28T11:13:51.000Z</time>
      </trkpt>
      <trkpt lat="40.3322567604482173919677734375" lon="-7.3543395102024078369140625">
        <ele>477.79998779296875</ele>
        <time>2019-04-28T11:14:15.000Z</time>
      </trkpt>
      <trkpt lat="40.33220219425857067108154296875" lon="-7.35367893241345882415771484375">
        <ele>475</ele>
        <time>2019-04-28T11:14:32.000Z</time>
      </trkpt>
      <trkpt lat="40.33214787952601909637451171875" lon="-7.353562004864215850830078125">
        <ele>474.20001220703125</ele>
        <time>2019-04-28T11:14:34.000Z</time>
      </trkpt>
      <trkpt lat="40.331841520965099334716796875" lon="-7.3529053665697574615478515625">
        <ele>470.600006103515625</ele>
        <time>2019-04-28T11:14:43.000Z</time>
      </trkpt>
      <trkpt lat="40.3317987732589244842529296875" lon="-7.3527974076569080352783203125">
        <ele>470.20001220703125</ele>
        <time>2019-04-28T11:14:45.000Z</time>
      </trkpt>
      <trkpt lat="40.3321910463273525238037109375" lon="-7.3525087349116802215576171875">
        <ele>471.20001220703125</ele>
        <time>2019-04-28T11:15:05.000Z</time>
      </trkpt>
      <trkpt lat="40.33273293636739253997802734375" lon="-7.35245835967361927032470703125">
        <ele>472.399993896484375</ele>
        <time>2019-04-28T11:15:19.000Z</time>
      </trkpt>
      <trkpt lat="40.33328865654766559600830078125" lon="-7.35237102024257183074951171875">
        <ele>474.600006103515625</ele>
        <time>2019-04-28T11:15:33.000Z</time>
      </trkpt>
      <trkpt lat="40.33376910723745822906494140625" lon="-7.35199316404759883880615234375">
        <ele>475.79998779296875</ele>
        <time>2019-04-28T11:15:47.000Z</time>
      </trkpt>
      <trkpt lat="40.3342312015593051910400390625" lon="-7.35157591290771961212158203125">
        <ele>475.399993896484375</ele>
        <time>2019-04-28T11:16:00.000Z</time>
      </trkpt>
      <trkpt lat="40.33468172885477542877197265625" lon="-7.3511743359267711639404296875">
        <ele>476.600006103515625</ele>
        <time>2019-04-28T11:16:12.000Z</time>
      </trkpt>
      <trkpt lat="40.33514943905174732208251953125" lon="-7.350731603801250457763671875">
        <ele>477.79998779296875</ele>
        <time>2019-04-28T11:16:25.000Z</time>
      </trkpt>
      <trkpt lat="40.3356380201876163482666015625" lon="-7.35038417391479015350341796875">
        <ele>478.79998779296875</ele>
        <time>2019-04-28T11:16:38.000Z</time>
      </trkpt>
      <trkpt lat="40.3361307084560394287109375" lon="-7.35008225776255130767822265625">
        <ele>479.79998779296875</ele>
        <time>2019-04-28T11:16:50.000Z</time>
      </trkpt>
      <trkpt lat="40.33664829097688198089599609375" lon="-7.349874973297119140625">
        <ele>481.20001220703125</ele>
        <time>2019-04-28T11:17:02.000Z</time>
      </trkpt>
      <trkpt lat="40.33719713799655437469482421875" lon="-7.3497073352336883544921875">
        <ele>482.79998779296875</ele>
        <time>2019-04-28T11:17:15.000Z</time>
      </trkpt>
      <trkpt lat="40.3376228548586368560791015625" lon="-7.349576912820339202880859375">
        <ele>484.20001220703125</ele>
        <time>2019-04-28T11:17:25.000Z</time>
      </trkpt>
      <trkpt lat="40.33815912902355194091796875" lon="-7.3494094423949718475341796875">
        <ele>485.20001220703125</ele>
        <time>2019-04-28T11:17:38.000Z</time>
      </trkpt>
      <trkpt lat="40.33868844620883464813232421875" lon="-7.3492407985031604766845703125">
        <ele>485.79998779296875</ele>
        <time>2019-04-28T11:17:50.000Z</time>
      </trkpt>
      <trkpt lat="40.33923980779945850372314453125" lon="-7.34906159341335296630859375">
        <ele>487</ele>
        <time>2019-04-28T11:18:04.000Z</time>
      </trkpt>
      <trkpt lat="40.339781530201435089111328125" lon="-7.34888046048581600189208984375">
        <ele>488.79998779296875</ele>
        <time>2019-04-28T11:18:19.000Z</time>
      </trkpt>
      <trkpt lat="40.3403375856578350067138671875" lon="-7.3486939631402492523193359375">
        <ele>492.79998779296875</ele>
        <time>2019-04-28T11:18:35.000Z</time>
      </trkpt>
      <trkpt lat="40.34088232554495334625244140625" lon="-7.34854266978800296783447265625">
        <ele>495.600006103515625</ele>
        <time>2019-04-28T11:18:51.000Z</time>
      </trkpt>
      <trkpt lat="40.34144257195293903350830078125" lon="-7.34840135090053081512451171875">
        <ele>497.600006103515625</ele>
        <time>2019-04-28T11:19:06.000Z</time>
      </trkpt>
      <trkpt lat="40.341974236071109771728515625" lon="-7.348262965679168701171875">
        <ele>499.20001220703125</ele>
        <time>2019-04-28T11:19:20.000Z</time>
      </trkpt>
      <trkpt lat="40.34250824712216854095458984375" lon="-7.34812273643910884857177734375">
        <ele>500.79998779296875</ele>
        <time>2019-04-28T11:19:36.000Z</time>
      </trkpt>
      <trkpt lat="40.34303530119359493255615234375" lon="-7.3479751311242580413818359375">
        <ele>503</ele>
        <time>2019-04-28T11:19:52.000Z</time>
      </trkpt>
      <trkpt lat="40.34357794560492038726806640625" lon="-7.3478745482861995697021484375">
        <ele>504.79998779296875</ele>
        <time>2019-04-28T11:20:08.000Z</time>
      </trkpt>
      <trkpt lat="40.34411388449370861053466796875" lon="-7.34777371399104595184326171875">
        <ele>505.79998779296875</ele>
        <time>2019-04-28T11:20:24.000Z</time>
      </trkpt>
      <trkpt lat="40.34468469209969043731689453125" lon="-7.347705401480197906494140625">
        <ele>507.600006103515625</ele>
        <time>2019-04-28T11:20:41.000Z</time>
      </trkpt>
      <trkpt lat="40.3452101536095142364501953125" lon="-7.3478795774281024932861328125">
        <ele>509.79998779296875</ele>
        <time>2019-04-28T11:20:57.000Z</time>
      </trkpt>
      <trkpt lat="40.3454304300248622894287109375" lon="-7.34796733595430850982666015625">
        <ele>510.79998779296875</ele>
        <time>2019-04-28T11:21:03.000Z</time>
      </trkpt>
      <trkpt lat="40.34596695564687252044677734375" lon="-7.34815006144344806671142578125">
        <ele>510.399993896484375</ele>
        <time>2019-04-28T11:21:16.000Z</time>
      </trkpt>
      <trkpt lat="40.34644070081412792205810546875" lon="-7.34846874140202999114990234375">
        <ele>510.600006103515625</ele>
        <time>2019-04-28T11:21:34.000Z</time>
      </trkpt>
      <trkpt lat="40.34680967219173908233642578125" lon="-7.3484093137085437774658203125">
        <ele>509</ele>
        <time>2019-04-28T11:21:47.000Z</time>
      </trkpt>
      <trkpt lat="40.346868932247161865234375" lon="-7.348525822162628173828125">
        <ele>509.600006103515625</ele>
        <time>2019-04-28T11:21:51.000Z</time>
      </trkpt>
      <trkpt lat="40.34683045931160449981689453125" lon="-7.349222861230373382568359375">
        <ele>514.4000244140625</ele>
        <time>2019-04-28T11:22:09.000Z</time>
      </trkpt>
      <trkpt lat="40.3470687568187713623046875" lon="-7.34987773932516574859619140625">
        <ele>520.4000244140625</ele>
        <time>2019-04-28T11:22:38.000Z</time>
      </trkpt>
      <trkpt lat="40.34742775373160839080810546875" lon="-7.35039657913148403167724609375">
        <ele>530.20001220703125</ele>
        <time>2019-04-28T11:23:04.000Z</time>
      </trkpt>
      <trkpt lat="40.34799202345311641693115234375" lon="-7.35041703097522258758544921875">
        <ele>530</ele>
        <time>2019-04-28T11:23:26.000Z</time>
      </trkpt>
      <trkpt lat="40.34850298427045345306396484375" lon="-7.35067737288773059844970703125">
        <ele>538.79998779296875</ele>
        <time>2019-04-28T11:23:48.000Z</time>
      </trkpt>
      <trkpt lat="40.3490453772246837615966796875" lon="-7.35051266849040985107421875">
        <ele>540.20001220703125</ele>
        <time>2019-04-28T11:24:09.000Z</time>
      </trkpt>
      <trkpt lat="40.34956991672515869140625" lon="-7.35031292773783206939697265625">
        <ele>542</ele>
        <time>2019-04-28T11:24:30.000Z</time>
      </trkpt>
      <trkpt lat="40.3501249663531780242919921875" lon="-7.35031644813716411590576171875">
        <ele>544.20001220703125</ele>
        <time>2019-04-28T11:24:53.000Z</time>
      </trkpt>
      <trkpt lat="40.3505946882069110870361328125" lon="-7.35066429711878299713134765625">
        <ele>550.79998779296875</ele>
        <time>2019-04-28T11:25:15.000Z</time>
      </trkpt>
      <trkpt lat="40.3511483967304229736328125" lon="-7.35066630877554416656494140625">
        <ele>550.20001220703125</ele>
        <time>2019-04-28T11:25:45.000Z</time>
      </trkpt>
      <trkpt lat="40.3516343794763088226318359375" lon="-7.35095481388270854949951171875">
        <ele>549.5999755859375</ele>
        <time>2019-04-28T11:26:13.000Z</time>
      </trkpt>
      <trkpt lat="40.3519181907176971435546875" lon="-7.351535260677337646484375">
        <ele>555.79998779296875</ele>
        <time>2019-04-28T11:26:34.000Z</time>
      </trkpt>
      <trkpt lat="40.3519250638782978057861328125" lon="-7.35154741443693637847900390625">
        <ele>556</ele>
        <time>2019-04-28T11:26:36.000Z</time>
      </trkpt>
      <trkpt lat="40.35192732699215412139892578125" lon="-7.35150667838752269744873046875">
        <ele>555.20001220703125</ele>
        <time>2019-04-28T11:28:10.000Z</time>
      </trkpt>
      <trkpt lat="40.35204048268496990203857421875" lon="-7.3515666089951992034912109375">
        <ele>555.4000244140625</ele>
        <time>2019-04-28T11:28:15.000Z</time>
      </trkpt>
      <trkpt lat="40.35207736305892467498779296875" lon="-7.35164581798017024993896484375">
        <ele>556.5999755859375</ele>
        <time>2019-04-28T11:28:18.000Z</time>
      </trkpt>
      <trkpt lat="40.3519582562148571014404296875" lon="-7.3515639267861843109130859375">
        <ele>556</ele>
        <time>2019-04-28T11:28:24.000Z</time>
      </trkpt>
      <trkpt lat="40.35193621180951595306396484375" lon="-7.35154925845563411712646484375">
        <ele>556</ele>
        <time>2019-04-28T11:28:25.000Z</time>
      </trkpt>
      <trkpt lat="40.35191156901419162750244140625" lon="-7.35168102197349071502685546875">
        <ele>558.4000244140625</ele>
        <time>2019-04-28T11:28:30.000Z</time>
      </trkpt>
      <trkpt lat="40.3520601801574230194091796875" lon="-7.35202543437480926513671875">
        <ele>563.79998779296875</ele>
        <time>2019-04-28T11:28:47.000Z</time>
      </trkpt>
      <trkpt lat="40.35209580324590206146240234375" lon="-7.35206273384392261505126953125">
        <ele>564.5999755859375</ele>
        <time>2019-04-28T11:28:53.000Z</time>
      </trkpt>
      <trkpt lat="40.3521768562495708465576171875" lon="-7.352110929787158966064453125">
        <ele>565.79998779296875</ele>
        <time>2019-04-28T11:29:00.000Z</time>
      </trkpt>
      <trkpt lat="40.352207534015178680419921875" lon="-7.352127693593502044677734375">
        <ele>566.20001220703125</ele>
        <time>2019-04-28T11:38:35.000Z</time>
      </trkpt>
      <trkpt lat="40.35220325924456119537353515625" lon="-7.35213280655443668365478515625">
        <ele>566.4000244140625</ele>
        <time>2019-04-28T11:38:37.000Z</time>
      </trkpt>
      <trkpt lat="40.35218465141952037811279296875" lon="-7.35209114849567413330078125">
        <ele>565.4000244140625</ele>
        <time>2019-04-28T11:55:00.000Z</time>
      </trkpt>
      <trkpt lat="40.352222286164760589599609375" lon="-7.35203758813440799713134765625">
        <ele>564.4000244140625</ele>
        <time>2019-04-28T11:55:04.000Z</time>
      </trkpt>
      <trkpt lat="40.35223611630499362945556640625" lon="-7.35202543437480926513671875">
        <ele>564.20001220703125</ele>
        <time>2019-04-28T11:55:05.000Z</time>
      </trkpt>
      <trkpt lat="40.35276149399578571319580078125" lon="-7.352021746337413787841796875">
        <ele>566</ele>
        <time>2019-04-28T11:55:30.000Z</time>
      </trkpt>
      <trkpt lat="40.3532753884792327880859375" lon="-7.35222651623189449310302734375">
        <ele>568</ele>
        <time>2019-04-28T11:55:56.000Z</time>
      </trkpt>
      <trkpt lat="40.35343741066753864288330078125" lon="-7.35237018205225467681884765625">
        <ele>569.20001220703125</ele>
        <time>2019-04-28T11:56:04.000Z</time>
      </trkpt>
      <trkpt lat="40.353903360664844512939453125" lon="-7.3527766205370426177978515625">
        <ele>571.20001220703125</ele>
        <time>2019-04-28T11:56:28.000Z</time>
      </trkpt>
      <trkpt lat="40.3543628565967082977294921875" lon="-7.35315590165555477142333984375">
        <ele>575.5999755859375</ele>
        <time>2019-04-28T11:56:51.000Z</time>
      </trkpt>
      <trkpt lat="40.35484691150486469268798828125" lon="-7.35352814197540283203125">
        <ele>578.20001220703125</ele>
        <time>2019-04-28T11:57:16.000Z</time>
      </trkpt>
      <trkpt lat="40.35537354648113250732421875" lon="-7.35338204540312290191650390625">
        <ele>581.20001220703125</ele>
        <time>2019-04-28T11:57:41.000Z</time>
      </trkpt>
      <trkpt lat="40.355875790119171142578125" lon="-7.35312120057642459869384765625">
        <ele>582.4000244140625</ele>
        <time>2019-04-28T11:58:05.000Z</time>
      </trkpt>
      <trkpt lat="40.35610788501799106597900390625" lon="-7.35298004932701587677001953125">
        <ele>582.79998779296875</ele>
        <time>2019-04-28T11:58:17.000Z</time>
      </trkpt>
      <trkpt lat="40.35623730160295963287353515625" lon="-7.3529248125851154327392578125">
        <ele>583</ele>
        <time>2019-04-28T11:58:24.000Z</time>
      </trkpt>
      <trkpt lat="40.3565448336303234100341796875" lon="-7.35274451784789562225341796875">
        <ele>584.20001220703125</ele>
        <time>2019-04-28T11:58:40.000Z</time>
      </trkpt>
      <trkpt lat="40.3569451533257961273193359375" lon="-7.35228133387863636016845703125">
        <ele>588</ele>
        <time>2019-04-28T11:59:08.000Z</time>
      </trkpt>
      <trkpt lat="40.35734572447836399078369140625" lon="-7.35179769806563854217529296875">
        <ele>591.20001220703125</ele>
        <time>2019-04-28T11:59:37.000Z</time>
      </trkpt>
      <trkpt lat="40.35787965171039104461669921875" lon="-7.3517124541103839874267578125">
        <ele>589.79998779296875</ele>
        <time>2019-04-28T12:00:05.000Z</time>
      </trkpt>
      <trkpt lat="40.358042679727077484130859375" lon="-7.35164816491305828094482421875">
        <ele>589.4000244140625</ele>
        <time>2019-04-28T12:00:14.000Z</time>
      </trkpt>
      <trkpt lat="40.35827460698783397674560546875" lon="-7.3515773378312587738037109375">
        <ele>587.79998779296875</ele>
        <time>2019-04-28T12:00:23.000Z</time>
      </trkpt>
      <trkpt lat="40.3583566658198833465576171875" lon="-7.3515793494880199432373046875">
        <ele>587</ele>
        <time>2019-04-28T12:00:28.000Z</time>
      </trkpt>
      <trkpt lat="40.35836798138916492462158203125" lon="-7.35157272778451442718505859375">
        <ele>587</ele>
        <time>2019-04-28T12:00:31.000Z</time>
      </trkpt>
      <trkpt lat="40.35840176045894622802734375" lon="-7.35156183131039142608642578125">
        <ele>586.79998779296875</ele>
        <time>2019-04-28T12:00:36.000Z</time>
      </trkpt>
      <trkpt lat="40.35841877572238445281982421875" lon="-7.35154573805630207061767578125">
        <ele>586.79998779296875</ele>
        <time>2019-04-28T12:00:37.000Z</time>
      </trkpt>
      <trkpt lat="40.35842179320752620697021484375" lon="-7.35154305584728717803955078125">
        <ele>586.79998779296875</ele>
        <time>2019-04-28T12:00:39.000Z</time>
      </trkpt>
      <trkpt lat="40.3584696538746356964111328125" lon="-7.351417578756809234619140625">
        <ele>587.5999755859375</ele>
        <time>2019-04-28T12:01:27.000Z</time>
      </trkpt>
      <trkpt lat="40.3584974817931652069091796875" lon="-7.35127198509871959686279296875">
        <ele>589</ele>
        <time>2019-04-28T12:01:32.000Z</time>
      </trkpt>
      <trkpt lat="40.35878104157745838165283203125" lon="-7.35076655633747577667236328125">
        <ele>591.5999755859375</ele>
        <time>2019-04-28T12:01:44.000Z</time>
      </trkpt>
      <trkpt lat="40.35911330021917819976806640625" lon="-7.35022692941129207611083984375">
        <ele>590.79998779296875</ele>
        <time>2019-04-28T12:01:58.000Z</time>
      </trkpt>
      <trkpt lat="40.3587449155747890472412109375" lon="-7.34970289282500743865966796875">
        <ele>598.20001220703125</ele>
        <time>2019-04-28T12:02:26.000Z</time>
      </trkpt>
      <trkpt lat="40.35872505046427249908447265625" lon="-7.349666766822338104248046875">
        <ele>598.79998779296875</ele>
        <time>2019-04-28T12:02:29.000Z</time>
      </trkpt>
      <trkpt lat="40.3585249744355678558349609375" lon="-7.34920299611985683441162109375">
        <ele>602.20001220703125</ele>
        <time>2019-04-28T12:02:49.000Z</time>
      </trkpt>
      <trkpt lat="40.35866604186594486236572265625" lon="-7.34903133474290370941162109375">
        <ele>602.79998779296875</ele>
        <time>2019-04-28T12:02:59.000Z</time>
      </trkpt>
      <trkpt lat="40.35886553116142749786376953125" lon="-7.34882849268615245819091796875">
        <ele>603.4000244140625</ele>
        <time>2019-04-28T12:03:11.000Z</time>
      </trkpt>
      <trkpt lat="40.35920332185924053192138671875" lon="-7.348697483539581298828125">
        <ele>599.79998779296875</ele>
        <time>2019-04-28T12:03:30.000Z</time>
      </trkpt>
      <trkpt lat="40.359335504472255706787109375" lon="-7.34875070862472057342529296875">
        <ele>598</ele>
        <time>2019-04-28T12:03:40.000Z</time>
      </trkpt>
      <trkpt lat="40.35930608399212360382080078125" lon="-7.3487248085439205169677734375">
        <ele>598.4000244140625</ele>
        <time>2019-04-28T12:03:51.000Z</time>
      </trkpt>
      <trkpt lat="40.3591284714639186859130859375" lon="-7.3487422429025173187255859375">
        <ele>600.5999755859375</ele>
        <time>2019-04-28T12:04:01.000Z</time>
      </trkpt>
      <trkpt lat="40.35911061801016330718994140625" lon="-7.34888414852321147918701171875">
        <ele>600.20001220703125</ele>
        <time>2019-04-28T12:05:04.000Z</time>
      </trkpt>
      <trkpt lat="40.35914816893637180328369140625" lon="-7.349046170711517333984375">
        <ele>599</ele>
        <time>2019-04-28T12:05:14.000Z</time>
      </trkpt>
      <trkpt lat="40.3591723926365375518798828125" lon="-7.34915689565241336822509765625">
        <ele>598</ele>
        <time>2019-04-28T12:05:22.000Z</time>
      </trkpt>
      <trkpt lat="40.3591687045991420745849609375" lon="-7.3491542972624301910400390625">
        <ele>598.20001220703125</ele>
        <time>2019-04-28T12:05:24.000Z</time>
      </trkpt>
      <trkpt lat="40.359230898320674896240234375" lon="-7.34910727478563785552978515625">
        <ele>597.5999755859375</ele>
        <time>2019-04-28T12:07:26.000Z</time>
      </trkpt>
      <trkpt lat="40.35928479395806789398193359375" lon="-7.349112890660762786865234375">
        <ele>596.79998779296875</ele>
        <time>2019-04-28T12:07:30.000Z</time>
      </trkpt>
      <trkpt lat="40.359432063996791839599609375" lon="-7.348862774670124053955078125">
        <ele>596.20001220703125</ele>
        <time>2019-04-28T12:07:56.000Z</time>
      </trkpt>
      <trkpt lat="40.3593779169023036956787109375" lon="-7.3488505370914936065673828125">
        <ele>597</ele>
        <time>2019-04-28T12:08:01.000Z</time>
      </trkpt>
      <trkpt lat="40.3593578003346920013427734375" lon="-7.34870729036629199981689453125">
        <ele>597.79998779296875</ele>
        <time>2019-04-28T12:08:12.000Z</time>
      </trkpt>
      <trkpt lat="40.359360985457897186279296875" lon="-7.34864392317831516265869140625">
        <ele>598.20001220703125</ele>
        <time>2019-04-28T12:08:17.000Z</time>
      </trkpt>
      <trkpt lat="40.35936065018177032470703125" lon="-7.3486383073031902313232421875">
        <ele>598.20001220703125</ele>
        <time>2019-04-28T12:08:19.000Z</time>
      </trkpt>
      <trkpt lat="40.35934883169829845428466796875" lon="-7.34863470308482646942138671875">
        <ele>598.4000244140625</ele>
        <time>2019-04-28T12:08:27.000Z</time>
      </trkpt>
      <trkpt lat="40.35912117920815944671630859375" lon="-7.3486513830721378326416015625">
        <ele>601</ele>
        <time>2019-04-28T12:08:34.000Z</time>
      </trkpt>
      <trkpt lat="40.35895320586860179901123046875" lon="-7.3484441824257373809814453125">
        <ele>603.79998779296875</ele>
        <time>2019-04-28T12:08:45.000Z</time>
      </trkpt>
      <trkpt lat="40.3589906729757785797119140625" lon="-7.34851903282105922698974609375">
        <ele>603</ele>
        <time>2019-04-28T12:08:51.000Z</time>
      </trkpt>
      <trkpt lat="40.35914531908929347991943359375" lon="-7.34872003085911273956298828125">
        <ele>600.4000244140625</ele>
        <time>2019-04-28T12:09:02.000Z</time>
      </trkpt>
      <trkpt lat="40.359149090945720672607421875" lon="-7.34873612411320209503173828125">
        <ele>600.4000244140625</ele>
        <time>2019-04-28T12:09:05.000Z</time>
      </trkpt>
      <trkpt lat="40.3591653518378734588623046875" lon="-7.34875188209116458892822265625">
        <ele>600.20001220703125</ele>
        <time>2019-04-28T12:09:09.000Z</time>
      </trkpt>
      <trkpt lat="40.35929116420447826385498046875" lon="-7.3486601002514362335205078125">
        <ele>599</ele>
        <time>2019-04-28T12:09:17.000Z</time>
      </trkpt>
      <trkpt lat="40.3594044037163257598876953125" lon="-7.34859011135995388031005859375">
        <ele>597.79998779296875</ele>
        <time>2019-04-28T12:09:26.000Z</time>
      </trkpt>
      <trkpt lat="40.3595918230712413787841796875" lon="-7.34851467423141002655029296875">
        <ele>595.5999755859375</ele>
        <time>2019-04-28T12:09:36.000Z</time>
      </trkpt>
      <trkpt lat="40.3600372374057769775390625" lon="-7.34817780554294586181640625">
        <ele>589</ele>
        <time>2019-04-28T12:09:51.000Z</time>
      </trkpt>
      <trkpt lat="40.360044278204441070556640625" lon="-7.34884106554090976715087890625">
        <ele>586.79998779296875</ele>
        <time>2019-04-28T12:10:07.000Z</time>
      </trkpt>
      <trkpt lat="40.36008526571094989776611328125" lon="-7.3492200113832950592041015625">
        <ele>584.5999755859375</ele>
        <time>2019-04-28T12:10:15.000Z</time>
      </trkpt>
      <trkpt lat="40.36025726236402988433837890625" lon="-7.3492283932864665985107421875">
        <ele>582</ele>
        <time>2019-04-28T12:10:23.000Z</time>
      </trkpt>
      <trkpt lat="40.360605530440807342529296875" lon="-7.3487268202006816864013671875">
        <ele>578.20001220703125</ele>
        <time>2019-04-28T12:10:35.000Z</time>
      </trkpt>
      <trkpt lat="40.36085858009755611419677734375" lon="-7.348065488040447235107421875">
        <ele>576.5999755859375</ele>
        <time>2019-04-28T12:10:48.000Z</time>
      </trkpt>
      <trkpt lat="40.3609921038150787353515625" lon="-7.3477253504097461700439453125">
        <ele>575.5999755859375</ele>
        <time>2019-04-28T12:10:56.000Z</time>
      </trkpt>
      <trkpt lat="40.36109595559537410736083984375" lon="-7.34769660048186779022216796875">
        <ele>574.5999755859375</ele>
        <time>2019-04-28T12:10:59.000Z</time>
      </trkpt>
      <trkpt lat="40.36131254397332668304443359375" lon="-7.347675226628780364990234375">
        <ele>570.79998779296875</ele>
        <time>2019-04-28T12:11:09.000Z</time>
      </trkpt>
      <trkpt lat="40.361194275319576263427734375" lon="-7.34773431904613971710205078125">
        <ele>572.5999755859375</ele>
        <time>2019-04-28T12:11:15.000Z</time>
      </trkpt>
      <trkpt lat="40.36088883876800537109375" lon="-7.34769190661609172821044921875">
        <ele>576.5999755859375</ele>
        <time>2019-04-28T12:11:29.000Z</time>
      </trkpt>
      <trkpt lat="40.36096503026783466339111328125" lon="-7.34699486754834651947021484375">
        <ele>571.79998779296875</ele>
        <time>2019-04-28T12:11:45.000Z</time>
      </trkpt>
      <trkpt lat="40.36141597665846347808837890625" lon="-7.3470004834234714508056640625">
        <ele>567.79998779296875</ele>
        <time>2019-04-28T12:11:58.000Z</time>
      </trkpt>
      <trkpt lat="40.3615662641823291778564453125" lon="-7.3469750024378299713134765625">
        <ele>566.5999755859375</ele>
        <time>2019-04-28T12:12:01.000Z</time>
      </trkpt>
      <trkpt lat="40.36212659440934658050537109375" lon="-7.34698380343616008758544921875">
        <ele>559.4000244140625</ele>
        <time>2019-04-28T12:12:11.000Z</time>
      </trkpt>
      <trkpt lat="40.36226816475391387939453125" lon="-7.3469491861760616302490234375">
        <ele>557.79998779296875</ele>
        <time>2019-04-28T12:12:13.000Z</time>
      </trkpt>
      <trkpt lat="40.36264694295823574066162109375" lon="-7.346495054662227630615234375">
        <ele>554</ele>
        <time>2019-04-28T12:12:19.000Z</time>
      </trkpt>
      <trkpt lat="40.36296562291681766510009765625" lon="-7.345824502408504486083984375">
        <ele>550.20001220703125</ele>
        <time>2019-04-28T12:12:26.000Z</time>
      </trkpt>
      <trkpt lat="40.363112054765224456787109375" lon="-7.3454052396118640899658203125">
        <ele>548.4000244140625</ele>
        <time>2019-04-28T12:12:31.000Z</time>
      </trkpt>
      <trkpt lat="40.36314566619694232940673828125" lon="-7.34513710252940654754638671875">
        <ele>547.5999755859375</ele>
        <time>2019-04-28T12:12:35.000Z</time>
      </trkpt>
      <trkpt lat="40.36320048384368419647216796875" lon="-7.3450027406215667724609375">
        <ele>547</ele>
        <time>2019-04-28T12:12:39.000Z</time>
      </trkpt>
      <trkpt lat="40.36328514106571674346923828125" lon="-7.34500282444059848785400390625">
        <ele>546.5999755859375</ele>
        <time>2019-04-28T12:12:43.000Z</time>
      </trkpt>
      <trkpt lat="40.36329972557723522186279296875" lon="-7.34501422382891178131103515625">
        <ele>546.5999755859375</ele>
        <time>2019-04-28T12:12:46.000Z</time>
      </trkpt>
      <trkpt lat="40.363323949277400970458984375" lon="-7.34503366984426975250244140625">
        <ele>546.4000244140625</ele>
        <time>2019-04-28T12:13:52.000Z</time>
      </trkpt>
      <trkpt lat="40.36386433057487010955810546875" lon="-7.3448889143764972686767578125">
        <ele>543.5999755859375</ele>
        <time>2019-04-28T12:14:05.000Z</time>
      </trkpt>
      <trkpt lat="40.364412926137447357177734375" lon="-7.344679534435272216796875">
        <ele>543</ele>
        <time>2019-04-28T12:14:16.000Z</time>
      </trkpt>
      <trkpt lat="40.3649671375751495361328125" lon="-7.3444235511124134063720703125">
        <ele>538.20001220703125</ele>
        <time>2019-04-28T12:14:27.000Z</time>
      </trkpt>
      <trkpt lat="40.36505958996713161468505859375" lon="-7.34438809566199779510498046875">
        <ele>537</ele>
        <time>2019-04-28T12:14:29.000Z</time>
      </trkpt>
      <trkpt lat="40.3651718236505985260009765625" lon="-7.34437166713178157806396484375">
        <ele>535.5999755859375</ele>
        <time>2019-04-28T12:14:34.000Z</time>
      </trkpt>
      <trkpt lat="40.36511843092739582061767578125" lon="-7.34429799020290374755859375">
        <ele>535.79998779296875</ele>
        <time>2019-04-28T12:14:41.000Z</time>
      </trkpt>
      <trkpt lat="40.3650293312966823577880859375" lon="-7.34403320588171482086181640625">
        <ele>535.20001220703125</ele>
        <time>2019-04-28T12:14:57.000Z</time>
      </trkpt>
      <trkpt lat="40.36498633213341236114501953125" lon="-7.3439565114676952362060546875">
        <ele>535</ele>
        <time>2019-04-28T12:15:06.000Z</time>
      </trkpt>
      <trkpt lat="40.3649803809821605682373046875" lon="-7.34385542571544647216796875">
        <ele>533.79998779296875</ele>
        <time>2019-04-28T12:15:10.000Z</time>
      </trkpt>
      <trkpt lat="40.364944674074649810791015625" lon="-7.3435183055698871612548828125">
        <ele>529.5999755859375</ele>
        <time>2019-04-28T12:15:29.000Z</time>
      </trkpt>
      <trkpt lat="40.36493687890470027923583984375" lon="-7.3434898070991039276123046875">
        <ele>529.20001220703125</ele>
        <time>2019-04-28T12:15:34.000Z</time>
      </trkpt>
      <trkpt lat="40.3649029321968555450439453125" lon="-7.3433567024767398834228515625">
        <ele>527.5999755859375</ele>
        <time>2019-04-28T12:15:37.000Z</time>
      </trkpt>
      <trkpt lat="40.3649173490703105926513671875" lon="-7.34302536584436893463134765625">
        <ele>523.5999755859375</ele>
        <time>2019-04-28T12:15:41.000Z</time>
      </trkpt>
      <trkpt lat="40.36509110592305660247802734375" lon="-7.342235036194324493408203125">
        <ele>512.79998779296875</ele>
        <time>2019-04-28T12:15:48.000Z</time>
      </trkpt>
      <trkpt lat="40.36513988859951496124267578125" lon="-7.34150690026581287384033203125">
        <ele>506.600006103515625</ele>
        <time>2019-04-28T12:15:55.000Z</time>
      </trkpt>
      <trkpt lat="40.3651265613734722137451171875" lon="-7.3414399288594722747802734375">
        <ele>506.79998779296875</ele>
        <time>2019-04-28T12:15:56.000Z</time>
      </trkpt>
      <trkpt lat="40.36510669626295566558837890625" lon="-7.341311685740947723388671875">
        <ele>507</ele>
        <time>2019-04-28T12:15:58.000Z</time>
      </trkpt>
      <trkpt lat="40.365234352648258209228515625" lon="-7.34110993333160877227783203125">
        <ele>506.399993896484375</ele>
        <time>2019-04-28T12:16:02.000Z</time>
      </trkpt>
      <trkpt lat="40.36530870012938976287841796875" lon="-7.34100985340774059295654296875">
        <ele>506</ele>
        <time>2019-04-28T12:16:04.000Z</time>
      </trkpt>
      <trkpt lat="40.36535765044391155242919921875" lon="-7.340608946979045867919921875">
        <ele>504.79998779296875</ele>
        <time>2019-04-28T12:16:10.000Z</time>
      </trkpt>
      <trkpt lat="40.36534859798848628997802734375" lon="-7.3405390419065952301025390625">
        <ele>504.600006103515625</ele>
        <time>2019-04-28T12:16:11.000Z</time>
      </trkpt>
      <trkpt lat="40.36535178311169147491455078125" lon="-7.34035782516002655029296875">
        <ele>504.20001220703125</ele>
        <time>2019-04-28T12:16:15.000Z</time>
      </trkpt>
      <trkpt lat="40.36535630933940410614013671875" lon="-7.34030543826520442962646484375">
        <ele>504</ele>
        <time>2019-04-28T12:16:19.000Z</time>
      </trkpt>
      <trkpt lat="40.36536603234708309173583984375" lon="-7.34026621095836162567138671875">
        <ele>504</ele>
        <time>2019-04-28T12:16:34.000Z</time>
      </trkpt>
      <trkpt lat="40.36539503373205661773681640625" lon="-7.34019630588591098785400390625">
        <ele>503.79998779296875</ele>
        <time>2019-04-28T12:16:37.000Z</time>
      </trkpt>
      <trkpt lat="40.3655030764639377593994140625" lon="-7.3401454277336597442626953125">
        <ele>503.399993896484375</ele>
        <time>2019-04-28T12:16:41.000Z</time>
      </trkpt>
      <trkpt lat="40.366056449711322784423828125" lon="-7.34008717350661754608154296875">
        <ele>504</ele>
        <time>2019-04-28T12:16:56.000Z</time>
      </trkpt>
      <trkpt lat="40.36614370532333850860595703125" lon="-7.340097315609455108642578125">
        <ele>504</ele>
        <time>2019-04-28T12:16:58.000Z</time>
      </trkpt>
      <trkpt lat="40.36656984128057956695556640625" lon="-7.34023737721145153045654296875">
        <ele>500.20001220703125</ele>
        <time>2019-04-28T12:17:08.000Z</time>
      </trkpt>
      <trkpt lat="40.3668190352618694305419921875" lon="-7.340318262577056884765625">
        <ele>497.79998779296875</ele>
        <time>2019-04-28T12:17:18.000Z</time>
      </trkpt>
      <trkpt lat="40.36682121455669403076171875" lon="-7.3403385467827320098876953125">
        <ele>497.600006103515625</ele>
        <time>2019-04-28T12:18:00.000Z</time>
      </trkpt>
      <trkpt lat="40.36664444021880626678466796875" lon="-7.34031625092029571533203125">
        <ele>499.20001220703125</ele>
        <time>2019-04-28T12:18:07.000Z</time>
      </trkpt>
      <trkpt lat="40.36645366810262203216552734375" lon="-7.34007351100444793701171875">
        <ele>502.20001220703125</ele>
        <time>2019-04-28T12:18:19.000Z</time>
      </trkpt>
      <trkpt lat="40.3665912151336669921875" lon="-7.3400512151420116424560546875">
        <ele>501.20001220703125</ele>
        <time>2019-04-28T12:18:25.000Z</time>
      </trkpt>
      <trkpt lat="40.36690972745418548583984375" lon="-7.33986505307257175445556640625">
        <ele>499.20001220703125</ele>
        <time>2019-04-28T12:18:36.000Z</time>
      </trkpt>
      <trkpt lat="40.36709991283714771270751953125" lon="-7.33966254629194736480712890625">
        <ele>498.20001220703125</ele>
        <time>2019-04-28T12:18:41.000Z</time>
      </trkpt>
      <trkpt lat="40.3673997335135936737060546875" lon="-7.33961812220513820648193359375">
        <ele>497</ele>
        <time>2019-04-28T12:18:47.000Z</time>
      </trkpt>
      <trkpt lat="40.36794195882976055145263671875" lon="-7.33962533064186573028564453125">
        <ele>495.600006103515625</ele>
        <time>2019-04-28T12:18:56.000Z</time>
      </trkpt>
      <trkpt lat="40.36800163798034191131591796875" lon="-7.33962650410830974578857421875">
        <ele>495.20001220703125</ele>
        <time>2019-04-28T12:18:57.000Z</time>
      </trkpt>
      <trkpt lat="40.36853690631687641143798828125" lon="-7.339704036712646484375">
        <ele>491.600006103515625</ele>
        <time>2019-04-28T12:19:13.000Z</time>
      </trkpt>
      <trkpt lat="40.36875911056995391845703125" lon="-7.339985668659210205078125">
        <ele>490.20001220703125</ele>
        <time>2019-04-28T12:19:21.000Z</time>
      </trkpt>
      <trkpt lat="40.3692021779716014862060546875" lon="-7.340341396629810333251953125">
        <ele>485.79998779296875</ele>
        <time>2019-04-28T12:19:30.000Z</time>
      </trkpt>
      <trkpt lat="40.3694412298500537872314453125" lon="-7.3405846394598484039306640625">
        <ele>483.79998779296875</ele>
        <time>2019-04-28T12:19:35.000Z</time>
      </trkpt>
      <trkpt lat="40.36996719427406787872314453125" lon="-7.34091572463512420654296875">
        <ele>480</ele>
        <time>2019-04-28T12:19:43.000Z</time>
      </trkpt>
      <trkpt lat="40.3704665042459964752197265625" lon="-7.34123297967016696929931640625">
        <ele>476.600006103515625</ele>
        <time>2019-04-28T12:19:51.000Z</time>
      </trkpt>
      <trkpt lat="40.3707204759120941162109375" lon="-7.34141369350254535675048828125">
        <ele>475.20001220703125</ele>
        <time>2019-04-28T12:19:55.000Z</time>
      </trkpt>
      <trkpt lat="40.3710369765758514404296875" lon="-7.341626174747943878173828125">
        <ele>473.399993896484375</ele>
        <time>2019-04-28T12:20:01.000Z</time>
      </trkpt>
      <trkpt lat="40.3714964725077152252197265625" lon="-7.34198056161403656005859375">
        <ele>470.79998779296875</ele>
        <time>2019-04-28T12:20:11.000Z</time>
      </trkpt>
      <trkpt lat="40.3719856403768062591552734375" lon="-7.34228490851819515228271484375">
        <ele>468</ele>
        <time>2019-04-28T12:20:24.000Z</time>
      </trkpt>
      <trkpt lat="40.37224690429866313934326171875" lon="-7.3423864133656024932861328125">
        <ele>467.20001220703125</ele>
        <time>2019-04-28T12:20:35.000Z</time>
      </trkpt>
      <trkpt lat="40.372293256223201751708984375" lon="-7.3423649556934833526611328125">
        <ele>467.399993896484375</ele>
        <time>2019-04-28T12:20:40.000Z</time>
      </trkpt>
      <trkpt lat="40.3723313100636005401611328125" lon="-7.342340312898159027099609375">
        <ele>467.399993896484375</ele>
        <time>2019-04-28T12:20:45.000Z</time>
      </trkpt>
      <trkpt lat="40.37236307747662067413330078125" lon="-7.34234668314456939697265625">
        <ele>467.399993896484375</ele>
        <time>2019-04-28T12:20:50.000Z</time>
      </trkpt>
      <trkpt lat="40.3729110024869441986083984375" lon="-7.34234291128814220428466796875">
        <ele>468</ele>
        <time>2019-04-28T12:21:09.000Z</time>
      </trkpt>
      <trkpt lat="40.373476445674896240234375" lon="-7.3422791250050067901611328125">
        <ele>468.79998779296875</ele>
        <time>2019-04-28T12:21:28.000Z</time>
      </trkpt>
      <trkpt lat="40.374047420918941497802734375" lon="-7.34223746694624423980712890625">
        <ele>470.20001220703125</ele>
        <time>2019-04-28T12:21:45.000Z</time>
      </trkpt>
      <trkpt lat="40.37461630068719387054443359375" lon="-7.342206202447414398193359375">
        <ele>473.600006103515625</ele>
        <time>2019-04-28T12:22:02.000Z</time>
      </trkpt>
      <trkpt lat="40.37480615079402923583984375" lon="-7.3421329446136951446533203125">
        <ele>475</ele>
        <time>2019-04-28T12:22:10.000Z</time>
      </trkpt>
      <trkpt lat="40.37485250271856784820556640625" lon="-7.3414285294711589813232421875">
        <ele>474.399993896484375</ele>
        <time>2019-04-28T12:22:26.000Z</time>
      </trkpt>
      <trkpt lat="40.3748807497322559356689453125" lon="-7.34135753475129604339599609375">
        <ele>474.79998779296875</ele>
        <time>2019-04-28T12:22:28.000Z</time>
      </trkpt>
      <trkpt lat="40.37499113939702510833740234375" lon="-7.3413162119686603546142578125">
        <ele>475.600006103515625</ele>
        <time>2019-04-28T12:22:32.000Z</time>
      </trkpt>
      <trkpt lat="40.37552255205810070037841796875" lon="-7.34137429855763912200927734375">
        <ele>480</ele>
        <time>2019-04-28T12:22:54.000Z</time>
      </trkpt>
      <trkpt lat="40.37604130804538726806640625" lon="-7.34155266545712947845458984375">
        <ele>482.20001220703125</ele>
        <time>2019-04-28T12:23:17.000Z</time>
      </trkpt>
      <trkpt lat="40.37655922584235668182373046875" lon="-7.34168275259435176849365234375">
        <ele>485</ele>
        <time>2019-04-28T12:23:43.000Z</time>
      </trkpt>
      <trkpt lat="40.3766935877501964569091796875" lon="-7.34172013588249683380126953125">
        <ele>486</ele>
        <time>2019-04-28T12:23:50.000Z</time>
      </trkpt>
      <trkpt lat="40.37723748944699764251708984375" lon="-7.34181283973157405853271484375">
        <ele>490.20001220703125</ele>
        <time>2019-04-28T12:24:17.000Z</time>
      </trkpt>
      <trkpt lat="40.37775121629238128662109375" lon="-7.3419289290904998779296875">
        <ele>495</ele>
        <time>2019-04-28T12:24:48.000Z</time>
      </trkpt>
      <trkpt lat="40.3778512962162494659423828125" lon="-7.34191794879734516143798828125">
        <ele>495</ele>
        <time>2019-04-28T12:24:54.000Z</time>
      </trkpt>
      <trkpt lat="40.3778707422316074371337890625" lon="-7.3419428430497646331787109375">
        <ele>494.79998779296875</ele>
        <time>2019-04-28T12:25:00.000Z</time>
      </trkpt>
      <trkpt lat="40.37792899645864963531494140625" lon="-7.34195868484675884246826171875">
        <ele>494.79998779296875</ele>
        <time>2019-04-28T12:28:03.000Z</time>
      </trkpt>
      <trkpt lat="40.37795062176883220672607421875" lon="-7.3419810645282268524169921875">
        <ele>494.600006103515625</ele>
        <time>2019-04-28T12:28:05.000Z</time>
      </trkpt>
      <trkpt lat="40.37798364646732807159423828125" lon="-7.3421604372560977935791015625">
        <ele>493.20001220703125</ele>
        <time>2019-04-28T12:28:11.000Z</time>
      </trkpt>
      <trkpt lat="40.3779812157154083251953125" lon="-7.34236738644540309906005859375">
        <ele>491.79998779296875</ele>
        <time>2019-04-28T12:28:20.000Z</time>
      </trkpt>
      <trkpt lat="40.37795883603394031524658203125" lon="-7.34238448552787303924560546875">
        <ele>491.600006103515625</ele>
        <time>2019-04-28T12:28:24.000Z</time>
      </trkpt>
      <trkpt lat="40.37796403281390666961669921875" lon="-7.34242119826376438140869140625">
        <ele>491.399993896484375</ele>
        <time>2019-04-28T12:29:09.000Z</time>
      </trkpt>
      <trkpt lat="40.3780196048319339752197265625" lon="-7.3426428996026515960693359375">
        <ele>489.79998779296875</ele>
        <time>2019-04-28T12:29:15.000Z</time>
      </trkpt>
      <trkpt lat="40.3780641965568065643310546875" lon="-7.34335863031446933746337890625">
        <ele>484.399993896484375</ele>
        <time>2019-04-28T12:29:24.000Z</time>
      </trkpt>
      <trkpt lat="40.37808858789503574371337890625" lon="-7.34415641985833644866943359375">
        <ele>478</ele>
        <time>2019-04-28T12:29:31.000Z</time>
      </trkpt>
      <trkpt lat="40.37804014049470424652099609375" lon="-7.3448118008673191070556640625">
        <ele>474</ele>
        <time>2019-04-28T12:29:37.000Z</time>
      </trkpt>
      <trkpt lat="40.37778901867568492889404296875" lon="-7.345305494964122772216796875">
        <ele>471.79998779296875</ele>
        <time>2019-04-28T12:29:44.000Z</time>
      </trkpt>
      <trkpt lat="40.3778405673801898956298828125" lon="-7.3454847000539302825927734375">
        <ele>470.20001220703125</ele>
        <time>2019-04-28T12:29:48.000Z</time>
      </trkpt>
      <trkpt lat="40.37801767699420452117919921875" lon="-7.3454800061881542205810546875">
        <ele>469.399993896484375</ele>
        <time>2019-04-28T12:29:52.000Z</time>
      </trkpt>
      <trkpt lat="40.378218591213226318359375" lon="-7.34534380026161670684814453125">
        <ele>470.600006103515625</ele>
        <time>2019-04-28T12:30:01.000Z</time>
      </trkpt>
      <trkpt lat="40.378228314220905303955078125" lon="-7.34534044750034809112548828125">
        <ele>470.600006103515625</ele>
        <time>2019-04-28T12:30:37.000Z</time>
      </trkpt>
      <trkpt lat="40.37824046798050403594970703125" lon="-7.3453380167484283447265625">
        <ele>470.600006103515625</ele>
        <time>2019-04-28T12:30:38.000Z</time>
      </trkpt>
      <trkpt lat="40.37877422757446765899658203125" lon="-7.345145232975482940673828125">
        <ele>472.79998779296875</ele>
        <time>2019-04-28T12:31:00.000Z</time>
      </trkpt>
      <trkpt lat="40.3793089091777801513671875" lon="-7.3449123837053775787353515625">
        <ele>472.600006103515625</ele>
        <time>2019-04-28T12:31:17.000Z</time>
      </trkpt>
      <trkpt lat="40.37980335764586925506591796875" lon="-7.34461180865764617919921875">
        <ele>472.79998779296875</ele>
        <time>2019-04-28T12:31:32.000Z</time>
      </trkpt>
      <trkpt lat="40.38018372841179370880126953125" lon="-7.3443196155130863189697265625">
        <ele>473.20001220703125</ele>
        <time>2019-04-28T12:31:41.000Z</time>
      </trkpt>
      <trkpt lat="40.38070105947554111480712890625" lon="-7.34393949620425701141357421875">
        <ele>472.600006103515625</ele>
        <time>2019-04-28T12:31:51.000Z</time>
      </trkpt>
      <trkpt lat="40.38089216686785221099853515625" lon="-7.3437992669641971588134765625">
        <ele>472.20001220703125</ele>
        <time>2019-04-28T12:31:55.000Z</time>
      </trkpt>
      <trkpt lat="40.3813656605780124664306640625" lon="-7.3434512503445148468017578125">
        <ele>471.600006103515625</ele>
        <time>2019-04-28T12:32:08.000Z</time>
      </trkpt>
      <trkpt lat="40.38136557675898075103759765625" lon="-7.3434512503445148468017578125">
        <ele>471.600006103515625</ele>
        <time>2019-04-28T12:32:09.000Z</time>
      </trkpt>
      <trkpt lat="40.38138133473694324493408203125" lon="-7.34345468692481517791748046875">
        <ele>471.79998779296875</ele>
        <time>2019-04-28T12:33:41.000Z</time>
      </trkpt>
      <trkpt lat="40.38193655200302600860595703125" lon="-7.3434867896139621734619140625">
        <ele>473.600006103515625</ele>
        <time>2019-04-28T12:33:56.000Z</time>
      </trkpt>
      <trkpt lat="40.38248657248914241790771484375" lon="-7.34356834553182125091552734375">
        <ele>475.20001220703125</ele>
        <time>2019-04-28T12:34:07.000Z</time>
      </trkpt>
      <trkpt lat="40.3830333240330219268798828125" lon="-7.343646548688411712646484375">
        <ele>475.79998779296875</ele>
        <time>2019-04-28T12:34:18.000Z</time>
      </trkpt>
      <trkpt lat="40.3835856914520263671875" lon="-7.34372609294950962066650390625">
        <ele>476</ele>
        <time>2019-04-28T12:34:29.000Z</time>
      </trkpt>
      <trkpt lat="40.3841556608676910400390625" lon="-7.3438059724867343902587890625">
        <ele>476.79998779296875</ele>
        <time>2019-04-28T12:34:41.000Z</time>
      </trkpt>
      <trkpt lat="40.38472898304462432861328125" lon="-7.3438599519431591033935546875">
        <ele>475.79998779296875</ele>
        <time>2019-04-28T12:34:53.000Z</time>
      </trkpt>
      <trkpt lat="40.385273806750774383544921875" lon="-7.3439052142202854156494140625">
        <ele>476.399993896484375</ele>
        <time>2019-04-28T12:35:04.000Z</time>
      </trkpt>
      <trkpt lat="40.38581368513405323028564453125" lon="-7.3439484648406505584716796875">
        <ele>476</ele>
        <time>2019-04-28T12:35:14.000Z</time>
      </trkpt>
      <trkpt lat="40.386398322880268096923828125" lon="-7.3439913801848888397216796875">
        <ele>475.20001220703125</ele>
        <time>2019-04-28T12:35:24.000Z</time>
      </trkpt>
      <trkpt lat="40.386982373893260955810546875" lon="-7.34403622336685657501220703125">
        <ele>475.600006103515625</ele>
        <time>2019-04-28T12:35:34.000Z</time>
      </trkpt>
      <trkpt lat="40.387571118772029876708984375" lon="-7.34408416785299777984619140625">
        <ele>474.399993896484375</ele>
        <time>2019-04-28T12:35:44.000Z</time>
      </trkpt>
      <trkpt lat="40.38810990750789642333984375" lon="-7.3440827429294586181640625">
        <ele>473.399993896484375</ele>
        <time>2019-04-28T12:35:53.000Z</time>
      </trkpt>
      <trkpt lat="40.3886528871953487396240234375" lon="-7.3438364826142787933349609375">
        <ele>474.79998779296875</ele>
        <time>2019-04-28T12:36:03.000Z</time>
      </trkpt>
      <trkpt lat="40.3892158158123493194580078125" lon="-7.34359198249876499176025390625">
        <ele>475.79998779296875</ele>
        <time>2019-04-28T12:36:14.000Z</time>
      </trkpt>
      <trkpt lat="40.38972887210547924041748046875" lon="-7.343368269503116607666015625">
        <ele>476.399993896484375</ele>
        <time>2019-04-28T12:36:24.000Z</time>
      </trkpt>
      <trkpt lat="40.3902749530971050262451171875" lon="-7.34312192536890506744384765625">
        <ele>475.600006103515625</ele>
        <time>2019-04-28T12:36:36.000Z</time>
      </trkpt>
      <trkpt lat="40.3908026777207851409912109375" lon="-7.3428811132907867431640625">
        <ele>476.20001220703125</ele>
        <time>2019-04-28T12:36:48.000Z</time>
      </trkpt>
      <trkpt lat="40.39132813923060894012451171875" lon="-7.3426418937742710113525390625">
        <ele>478.20001220703125</ele>
        <time>2019-04-28T12:36:58.000Z</time>
      </trkpt>
      <trkpt lat="40.39186927489936351776123046875" lon="-7.34239437617361545562744140625">
        <ele>478.399993896484375</ele>
        <time>2019-04-28T12:37:09.000Z</time>
      </trkpt>
      <trkpt lat="40.39242558181285858154296875" lon="-7.34214660711586475372314453125">
        <ele>480.20001220703125</ele>
        <time>2019-04-28T12:37:21.000Z</time>
      </trkpt>
      <trkpt lat="40.39296914823353290557861328125" lon="-7.34190604649484157562255859375">
        <ele>482.399993896484375</ele>
        <time>2019-04-28T12:37:35.000Z</time>
      </trkpt>
      <trkpt lat="40.39351380430161952972412109375" lon="-7.341663725674152374267578125">
        <ele>482.79998779296875</ele>
        <time>2019-04-28T12:37:48.000Z</time>
      </trkpt>
      <trkpt lat="40.39373156614601612091064453125" lon="-7.34157211147248744964599609375">
        <ele>482.600006103515625</ele>
        <time>2019-04-28T12:37:53.000Z</time>
      </trkpt>
      <trkpt lat="40.39426230825483798980712890625" lon="-7.341330461204051971435546875">
        <ele>482.20001220703125</ele>
        <time>2019-04-28T12:38:05.000Z</time>
      </trkpt>
      <trkpt lat="40.39472649805247783660888671875" lon="-7.34112552367150783538818359375">
        <ele>481.79998779296875</ele>
        <time>2019-04-28T12:38:15.000Z</time>
      </trkpt>
      <trkpt lat="40.3952377103269100189208984375" lon="-7.34088177792727947235107421875">
        <ele>480.79998779296875</ele>
        <time>2019-04-28T12:38:25.000Z</time>
      </trkpt>
      <trkpt lat="40.39575696922838687896728515625" lon="-7.3406413011252880096435546875">
        <ele>481</ele>
        <time>2019-04-28T12:38:35.000Z</time>
      </trkpt>
      <trkpt lat="40.39629642851650714874267578125" lon="-7.3404263891279697418212890625">
        <ele>482.20001220703125</ele>
        <time>2019-04-28T12:38:45.000Z</time>
      </trkpt>
      <trkpt lat="40.396356694400310516357421875" lon="-7.34042094089090824127197265625">
        <ele>482.20001220703125</ele>
        <time>2019-04-28T12:38:46.000Z</time>
      </trkpt>
      <trkpt lat="40.39691735990345478057861328125" lon="-7.34037215821444988250732421875">
        <ele>481.79998779296875</ele>
        <time>2019-04-28T12:38:55.000Z</time>
      </trkpt>
      <trkpt lat="40.3974860720336437225341796875" lon="-7.340327315032482147216796875">
        <ele>483.600006103515625</ele>
        <time>2019-04-28T12:39:04.000Z</time>
      </trkpt>
      <trkpt lat="40.39807624183595180511474609375" lon="-7.340287752449512481689453125">
        <ele>483.399993896484375</ele>
        <time>2019-04-28T12:39:14.000Z</time>
      </trkpt>
      <trkpt lat="40.3985700197517871856689453125" lon="-7.3402525484561920166015625">
        <ele>483.399993896484375</ele>
        <time>2019-04-28T12:39:25.000Z</time>
      </trkpt>
      <trkpt lat="40.3987376578152179718017578125" lon="-7.3402429930865764617919921875">
        <ele>483.399993896484375</ele>
        <time>2019-04-28T12:39:29.000Z</time>
      </trkpt>
      <trkpt lat="40.398898087441921234130859375" lon="-7.34021726064383983612060546875">
        <ele>483.399993896484375</ele>
        <time>2019-04-28T12:39:33.000Z</time>
      </trkpt>
      <trkpt lat="40.39944835938513278961181640625" lon="-7.34019094146788120269775390625">
        <ele>482.600006103515625</ele>
        <time>2019-04-28T12:39:47.000Z</time>
      </trkpt>
      <trkpt lat="40.3999868966639041900634765625" lon="-7.33995457179844379425048828125">
        <ele>481.399993896484375</ele>
        <time>2019-04-28T12:40:03.000Z</time>
      </trkpt>
      <trkpt lat="40.40041462518274784088134765625" lon="-7.33946925960481166839599609375">
        <ele>481.20001220703125</ele>
        <time>2019-04-28T12:40:15.000Z</time>
      </trkpt>
      <trkpt lat="40.40083221159875392913818359375" lon="-7.33898327685892581939697265625">
        <ele>481.399993896484375</ele>
        <time>2019-04-28T12:40:24.000Z</time>
      </trkpt>
      <trkpt lat="40.40125080384314060211181640625" lon="-7.33850031159818172454833984375">
        <ele>481.399993896484375</ele>
        <time>2019-04-28T12:40:33.000Z</time>
      </trkpt>
      <trkpt lat="40.4015439189970493316650390625" lon="-7.3381662927567958831787109375">
        <ele>481.399993896484375</ele>
        <time>2019-04-28T12:40:41.000Z</time>
      </trkpt>
      <trkpt lat="40.4019817896187305450439453125" lon="-7.33767159283161163330078125">
        <ele>481</ele>
        <time>2019-04-28T12:40:54.000Z</time>
      </trkpt>
      <trkpt lat="40.4023898206651210784912109375" lon="-7.3371721990406513214111328125">
        <ele>481.79998779296875</ele>
        <time>2019-04-28T12:41:08.000Z</time>
      </trkpt>
      <trkpt lat="40.40282291360199451446533203125" lon="-7.336682192981243133544921875">
        <ele>482.600006103515625</ele>
        <time>2019-04-28T12:41:22.000Z</time>
      </trkpt>
      <trkpt lat="40.403243601322174072265625" lon="-7.336202077567577362060546875">
        <ele>482.399993896484375</ele>
        <time>2019-04-28T12:41:35.000Z</time>
      </trkpt>
      <trkpt lat="40.40364660322666168212890625" lon="-7.3357291705906391143798828125">
        <ele>482.600006103515625</ele>
        <time>2019-04-28T12:41:46.000Z</time>
      </trkpt>
      <trkpt lat="40.4037812165915966033935546875" lon="-7.33557351864874362945556640625">
        <ele>482.600006103515625</ele>
        <time>2019-04-28T12:41:50.000Z</time>
      </trkpt>
      <trkpt lat="40.404190756380558013916015625" lon="-7.33506607823073863983154296875">
        <ele>483.600006103515625</ele>
        <time>2019-04-28T12:42:04.000Z</time>
      </trkpt>
      <trkpt lat="40.40424649603664875030517578125" lon="-7.33497169800102710723876953125">
        <ele>483.79998779296875</ele>
        <time>2019-04-28T12:42:06.000Z</time>
      </trkpt>
      <trkpt lat="40.40435277856886386871337890625" lon="-7.33472258783876895904541015625">
        <ele>483.20001220703125</ele>
        <time>2019-04-28T12:42:11.000Z</time>
      </trkpt>
      <trkpt lat="40.40440273471176624298095703125" lon="-7.3345206677913665771484375">
        <ele>483</ele>
        <time>2019-04-28T12:42:15.000Z</time>
      </trkpt>
      <trkpt lat="40.40446895174682140350341796875" lon="-7.334314472973346710205078125">
        <ele>482.600006103515625</ele>
        <time>2019-04-28T12:42:19.000Z</time>
      </trkpt>
      <trkpt lat="40.40468461811542510986328125" lon="-7.3336125724017620086669921875">
        <ele>482.79998779296875</ele>
        <time>2019-04-28T12:42:32.000Z</time>
      </trkpt>
      <trkpt lat="40.40478788316249847412109375" lon="-7.33325692825019359588623046875">
        <ele>483.399993896484375</ele>
        <time>2019-04-28T12:42:39.000Z</time>
      </trkpt>
      <trkpt lat="40.404982678592205047607421875" lon="-7.33259274624288082122802734375">
        <ele>483.79998779296875</ele>
        <time>2019-04-28T12:42:52.000Z</time>
      </trkpt>
      <trkpt lat="40.40514771826565265655517578125" lon="-7.332037948071956634521484375">
        <ele>484</ele>
        <time>2019-04-28T12:43:03.000Z</time>
      </trkpt>
      <trkpt lat="40.40518350899219512939453125" lon="-7.33192361891269683837890625">
        <ele>484.20001220703125</ele>
        <time>2019-04-28T12:43:05.000Z</time>
      </trkpt>
      <trkpt lat="40.40540336631238460540771484375" lon="-7.3312269151210784912109375">
        <ele>484.600006103515625</ele>
        <time>2019-04-28T12:43:16.000Z</time>
      </trkpt>
      <trkpt lat="40.40563001297414302825927734375" lon="-7.33054471202194690704345703125">
        <ele>485.20001220703125</ele>
        <time>2019-04-28T12:43:26.000Z</time>
      </trkpt>
      <trkpt lat="40.40566052310168743133544921875" lon="-7.3304785788059234619140625">
        <ele>485.20001220703125</ele>
        <time>2019-04-28T12:43:27.000Z</time>
      </trkpt>
      <trkpt lat="40.40584090165793895721435546875" lon="-7.330176830291748046875">
        <ele>485.20001220703125</ele>
        <time>2019-04-28T12:43:32.000Z</time>
      </trkpt>
      <trkpt lat="40.40594534017145633697509765625" lon="-7.33000986278057098388671875">
        <ele>485.20001220703125</ele>
        <time>2019-04-28T12:43:35.000Z</time>
      </trkpt>
      <trkpt lat="40.4063350148499011993408203125" lon="-7.329446263611316680908203125">
        <ele>485.79998779296875</ele>
        <time>2019-04-28T12:43:48.000Z</time>
      </trkpt>
      <trkpt lat="40.40662578307092189788818359375" lon="-7.32900395058095455169677734375">
        <ele>486.79998779296875</ele>
        <time>2019-04-28T12:43:59.000Z</time>
      </trkpt>
      <trkpt lat="40.40700699202716350555419921875" lon="-7.32844755984842777252197265625">
        <ele>487</ele>
        <time>2019-04-28T12:44:11.000Z</time>
      </trkpt>
      <trkpt lat="40.40739138610661029815673828125" lon="-7.3278780095279216766357421875">
        <ele>486.20001220703125</ele>
        <time>2019-04-28T12:44:22.000Z</time>
      </trkpt>
      <trkpt lat="40.4077797196805477142333984375" lon="-7.3273006640374660491943359375">
        <ele>485.79998779296875</ele>
        <time>2019-04-28T12:44:32.000Z</time>
      </trkpt>
      <trkpt lat="40.40814391337335109710693359375" lon="-7.326752655208110809326171875">
        <ele>487.20001220703125</ele>
        <time>2019-04-28T12:44:41.000Z</time>
      </trkpt>
      <trkpt lat="40.4085200093686580657958984375" lon="-7.32619098387658596038818359375">
        <ele>486.20001220703125</ele>
        <time>2019-04-28T12:44:50.000Z</time>
      </trkpt>
      <trkpt lat="40.4088743962347507476806640625" lon="-7.3256561346352100372314453125">
        <ele>485.79998779296875</ele>
        <time>2019-04-28T12:45:00.000Z</time>
      </trkpt>
      <trkpt lat="40.40924177505075931549072265625" lon="-7.325088344514369964599609375">
        <ele>487.399993896484375</ele>
        <time>2019-04-28T12:45:10.000Z</time>
      </trkpt>
      <trkpt lat="40.40961041115224361419677734375" lon="-7.32453924603760242462158203125">
        <ele>485.399993896484375</ele>
        <time>2019-04-28T12:45:19.000Z</time>
      </trkpt>
      <trkpt lat="40.41002087295055389404296875" lon="-7.32396416366100311279296875">
        <ele>484.20001220703125</ele>
        <time>2019-04-28T12:45:29.000Z</time>
      </trkpt>
      <trkpt lat="40.4104102961719036102294921875" lon="-7.323409952223300933837890625">
        <ele>484.79998779296875</ele>
        <time>2019-04-28T12:45:39.000Z</time>
      </trkpt>
      <trkpt lat="40.410798378288745880126953125" lon="-7.3228595964610576629638671875">
        <ele>486.20001220703125</ele>
        <time>2019-04-28T12:45:49.000Z</time>
      </trkpt>
      <trkpt lat="40.41118335910141468048095703125" lon="-7.3223134316504001617431640625">
        <ele>487.600006103515625</ele>
        <time>2019-04-28T12:45:59.000Z</time>
      </trkpt>
      <trkpt lat="40.4115633107721805572509765625" lon="-7.32178377918899059295654296875">
        <ele>488.600006103515625</ele>
        <time>2019-04-28T12:46:09.000Z</time>
      </trkpt>
      <trkpt lat="40.41194778867065906524658203125" lon="-7.3212348483502864837646484375">
        <ele>489.20001220703125</ele>
        <time>2019-04-28T12:46:20.000Z</time>
      </trkpt>
      <trkpt lat="40.41235447861254215240478515625" lon="-7.320677451789379119873046875">
        <ele>489.399993896484375</ele>
        <time>2019-04-28T12:46:32.000Z</time>
      </trkpt>
      <trkpt lat="40.4127532057464122772216796875" lon="-7.3201123438775539398193359375">
        <ele>490</ele>
        <time>2019-04-28T12:46:44.000Z</time>
      </trkpt>
      <trkpt lat="40.41305981576442718505859375" lon="-7.3195185698568820953369140625">
        <ele>490.20001220703125</ele>
        <time>2019-04-28T12:46:55.000Z</time>
      </trkpt>
      <trkpt lat="40.41332644410431385040283203125" lon="-7.318886406719684600830078125">
        <ele>491.20001220703125</ele>
        <time>2019-04-28T12:47:08.000Z</time>
      </trkpt>
      <trkpt lat="40.413605980575084686279296875" lon="-7.31824058108031749725341796875">
        <ele>493.399993896484375</ele>
        <time>2019-04-28T12:47:22.000Z</time>
      </trkpt>
      <trkpt lat="40.41386372409760951995849609375" lon="-7.3176038078963756561279296875">
        <ele>495.600006103515625</ele>
        <time>2019-04-28T12:47:34.000Z</time>
      </trkpt>
      <trkpt lat="40.41413781233131885528564453125" lon="-7.31694775633513927459716796875">
        <ele>497.399993896484375</ele>
        <time>2019-04-28T12:47:46.000Z</time>
      </trkpt>
      <trkpt lat="40.41438926942646503448486328125" lon="-7.31631894595921039581298828125">
        <ele>498</ele>
        <time>2019-04-28T12:48:03.000Z</time>
      </trkpt>
      <trkpt lat="40.4146548919379711151123046875" lon="-7.31568896211683750152587890625">
        <ele>497.20001220703125</ele>
        <time>2019-04-28T12:48:17.000Z</time>
      </trkpt>
      <trkpt lat="40.41493811644613742828369140625" lon="-7.3150121234357357025146484375">
        <ele>495.20001220703125</ele>
        <time>2019-04-28T12:48:27.000Z</time>
      </trkpt>
      <trkpt lat="40.41520969010889530181884765625" lon="-7.314370237290859222412109375">
        <ele>492.600006103515625</ele>
        <time>2019-04-28T12:48:35.000Z</time>
      </trkpt>
      <trkpt lat="40.41545913554728031158447265625" lon="-7.31374301947653293609619140625">
        <ele>491.20001220703125</ele>
        <time>2019-04-28T12:48:42.000Z</time>
      </trkpt>
      <trkpt lat="40.41571729816496372222900390625" lon="-7.3131124489009380340576171875">
        <ele>490.79998779296875</ele>
        <time>2019-04-28T12:48:49.000Z</time>
      </trkpt>
      <trkpt lat="40.4157542623579502105712890625" lon="-7.31303416192531585693359375">
        <ele>490.79998779296875</ele>
        <time>2019-04-28T12:48:50.000Z</time>
      </trkpt>
      <trkpt lat="40.415816791355609893798828125" lon="-7.3128787614405155181884765625">
        <ele>490.79998779296875</ele>
        <time>2019-04-28T12:48:52.000Z</time>
      </trkpt>
      <trkpt lat="40.41613874025642871856689453125" lon="-7.31225908733904361724853515625">
        <ele>491</ele>
        <time>2019-04-28T12:49:02.000Z</time>
      </trkpt>
      <trkpt lat="40.41648591868579387664794921875" lon="-7.31171049177646636962890625">
        <ele>491.600006103515625</ele>
        <time>2019-04-28T12:49:13.000Z</time>
      </trkpt>
      <trkpt lat="40.4168450832366943359375" lon="-7.3111219145357608795166015625">
        <ele>491</ele>
        <time>2019-04-28T12:49:25.000Z</time>
      </trkpt>
      <trkpt lat="40.417201481759548187255859375" lon="-7.3105475865304470062255859375">
        <ele>490.600006103515625</ele>
        <time>2019-04-28T12:49:35.000Z</time>
      </trkpt>
      <trkpt lat="40.41755913756787776947021484375" lon="-7.309962026774883270263671875">
        <ele>491</ele>
        <time>2019-04-28T12:49:45.000Z</time>
      </trkpt>
      <trkpt lat="40.41790950112044811248779296875" lon="-7.30938845314085483551025390625">
        <ele>490.79998779296875</ele>
        <time>2019-04-28T12:49:55.000Z</time>
      </trkpt>
      <trkpt lat="40.41827612556517124176025390625" lon="-7.30879970826208591461181640625">
        <ele>490.399993896484375</ele>
        <time>2019-04-28T12:50:06.000Z</time>
      </trkpt>
      <trkpt lat="40.41863604448735713958740234375" lon="-7.30819721706211566925048828125">
        <ele>490</ele>
        <time>2019-04-28T12:50:17.000Z</time>
      </trkpt>
      <trkpt lat="40.419004261493682861328125" lon="-7.30761400423943996429443359375">
        <ele>490.20001220703125</ele>
        <time>2019-04-28T12:50:28.000Z</time>
      </trkpt>
      <trkpt lat="40.41934691369533538818359375" lon="-7.30704403482377529144287109375">
        <ele>491.20001220703125</ele>
        <time>2019-04-28T12:50:38.000Z</time>
      </trkpt>
      <trkpt lat="40.41969291865825653076171875" lon="-7.306473143398761749267578125">
        <ele>492.20001220703125</ele>
        <time>2019-04-28T12:50:48.000Z</time>
      </trkpt>
      <trkpt lat="40.420033894479274749755859375" lon="-7.30590560473501682281494140625">
        <ele>492.399993896484375</ele>
        <time>2019-04-28T12:50:58.000Z</time>
      </trkpt>
      <trkpt lat="40.4203850962221622467041015625" lon="-7.30533756315708160400390625">
        <ele>492.399993896484375</ele>
        <time>2019-04-28T12:51:08.000Z</time>
      </trkpt>
      <trkpt lat="40.4207180254161357879638671875" lon="-7.30477807112038135528564453125">
        <ele>492.600006103515625</ele>
        <time>2019-04-28T12:51:19.000Z</time>
      </trkpt>
      <trkpt lat="40.42108875699341297149658203125" lon="-7.3041729815304279327392578125">
        <ele>492.20001220703125</ele>
        <time>2019-04-28T12:51:30.000Z</time>
      </trkpt>
      <trkpt lat="40.421542637050151824951171875" lon="-7.3037438280880451202392578125">
        <ele>493.399993896484375</ele>
        <time>2019-04-28T12:51:40.000Z</time>
      </trkpt>
      <trkpt lat="40.422061979770660400390625" lon="-7.30339388363063335418701171875">
        <ele>494.600006103515625</ele>
        <time>2019-04-28T12:51:50.000Z</time>
      </trkpt>
      <trkpt lat="40.42256112210452556610107421875" lon="-7.30304720811545848846435546875">
        <ele>495.79998779296875</ele>
        <time>2019-04-28T12:52:00.000Z</time>
      </trkpt>
      <trkpt lat="40.4230696521699428558349609375" lon="-7.3026917316019535064697265625">
        <ele>496.79998779296875</ele>
        <time>2019-04-28T12:52:10.000Z</time>
      </trkpt>
      <trkpt lat="40.423599891364574432373046875" lon="-7.302325777709484100341796875">
        <ele>497.20001220703125</ele>
        <time>2019-04-28T12:52:20.000Z</time>
      </trkpt>
      <trkpt lat="40.42409199289977550506591796875" lon="-7.30197583325207233428955078125">
        <ele>498</ele>
        <time>2019-04-28T12:52:29.000Z</time>
      </trkpt>
      <trkpt lat="40.4245971702039241790771484375" lon="-7.30162094347178936004638671875">
        <ele>499.20001220703125</ele>
        <time>2019-04-28T12:52:39.000Z</time>
      </trkpt>
      <trkpt lat="40.4251158423721790313720703125" lon="-7.3012751899659633636474609375">
        <ele>498.600006103515625</ele>
        <time>2019-04-28T12:52:49.000Z</time>
      </trkpt>
      <trkpt lat="40.425622276961803436279296875" lon="-7.30091904290020465850830078125">
        <ele>498.20001220703125</ele>
        <time>2019-04-28T12:53:00.000Z</time>
      </trkpt>
      <trkpt lat="40.42613013647496700286865234375" lon="-7.30057664215564727783203125">
        <ele>498.20001220703125</ele>
        <time>2019-04-28T12:53:10.000Z</time>
      </trkpt>
      <trkpt lat="40.42636415921151638031005859375" lon="-7.30040389113128185272216796875">
        <ele>498.399993896484375</ele>
        <time>2019-04-28T12:53:15.000Z</time>
      </trkpt>
      <trkpt lat="40.42630699463188648223876953125" lon="-7.3004675097763538360595703125">
        <ele>498.20001220703125</ele>
        <time>2019-04-28T12:53:34.000Z</time>
      </trkpt>
      <trkpt lat="40.42633599601686000823974609375" lon="-7.30048284865915775299072265625">
        <ele>498.20001220703125</ele>
        <time>2019-04-28T12:53:35.000Z</time>
      </trkpt>
      <trkpt lat="40.42639852501451969146728515625" lon="-7.30055627413094043731689453125">
        <ele>497.600006103515625</ele>
        <time>2019-04-28T12:53:42.000Z</time>
      </trkpt>
      <trkpt lat="40.42638712562620639801025390625" lon="-7.30045518837869167327880859375">
        <ele>498</ele>
        <time>2019-04-28T12:56:53.000Z</time>
      </trkpt>
      <trkpt lat="40.4265340603888034820556640625" lon="-7.30029760859906673431396484375">
        <ele>498.20001220703125</ele>
        <time>2019-04-28T12:56:59.000Z</time>
      </trkpt>
      <trkpt lat="40.427013672888278961181640625" lon="-7.29994372464716434478759765625">
        <ele>498.399993896484375</ele>
        <time>2019-04-28T12:57:09.000Z</time>
      </trkpt>
      <trkpt lat="40.4275278188288211822509765625" lon="-7.29956788010895252227783203125">
        <ele>499</ele>
        <time>2019-04-28T12:57:19.000Z</time>
      </trkpt>
      <trkpt lat="40.42803668417036533355712890625" lon="-7.2992182709276676177978515625">
        <ele>499.399993896484375</ele>
        <time>2019-04-28T12:57:29.000Z</time>
      </trkpt>
      <trkpt lat="40.4284820146858692169189453125" lon="-7.29905893094837665557861328125">
        <ele>499.79998779296875</ele>
        <time>2019-04-28T12:57:38.000Z</time>
      </trkpt>
      <trkpt lat="40.42890270240604877471923828125" lon="-7.29912648908793926239013671875">
        <ele>499.79998779296875</ele>
        <time>2019-04-28T12:57:46.000Z</time>
      </trkpt>
      <trkpt lat="40.42937426827847957611083984375" lon="-7.29946578852832317352294921875">
        <ele>499</ele>
        <time>2019-04-28T12:57:56.000Z</time>
      </trkpt>
      <trkpt lat="40.429659001529216766357421875" lon="-7.29974792338907718658447265625">
        <ele>499.79998779296875</ele>
        <time>2019-04-28T12:58:02.000Z</time>
      </trkpt>
      <trkpt lat="40.42996251024305820465087890625" lon="-7.2999994643032550811767578125">
        <ele>500.20001220703125</ele>
        <time>2019-04-28T12:58:08.000Z</time>
      </trkpt>
      <trkpt lat="40.43019569478929042816162109375" lon="-7.30009250342845916748046875">
        <ele>500.20001220703125</ele>
        <time>2019-04-28T12:58:12.000Z</time>
      </trkpt>
      <trkpt lat="40.430558212101459503173828125" lon="-7.30006962083280086517333984375">
        <ele>500.79998779296875</ele>
        <time>2019-04-28T12:58:18.000Z</time>
      </trkpt>
      <trkpt lat="40.431068837642669677734375" lon="-7.29978698305785655975341796875">
        <ele>504.600006103515625</ele>
        <time>2019-04-28T12:58:31.000Z</time>
      </trkpt>
      <trkpt lat="40.43155071325600147247314453125" lon="-7.2994640283286571502685546875">
        <ele>507.399993896484375</ele>
        <time>2019-04-28T12:58:50.000Z</time>
      </trkpt>
      <trkpt lat="40.43204273097217082977294921875" lon="-7.29913218878209590911865234375">
        <ele>509</ele>
        <time>2019-04-28T12:59:10.000Z</time>
      </trkpt>
      <trkpt lat="40.43252527713775634765625" lon="-7.29880847968161106109619140625">
        <ele>513.20001220703125</ele>
        <time>2019-04-28T12:59:29.000Z</time>
      </trkpt>
      <trkpt lat="40.4330186359584331512451171875" lon="-7.29846951551735401153564453125">
        <ele>518</ele>
        <time>2019-04-28T12:59:49.000Z</time>
      </trkpt>
      <trkpt lat="40.43351928703486919403076171875" lon="-7.2981343232095241546630859375">
        <ele>523.4000244140625</ele>
        <time>2019-04-28T13:00:14.000Z</time>
      </trkpt>
      <trkpt lat="40.43400158174335956573486328125" lon="-7.29779594577848911285400390625">
        <ele>527.5999755859375</ele>
        <time>2019-04-28T13:00:37.000Z</time>
      </trkpt>
      <trkpt lat="40.4344904981553554534912109375" lon="-7.29744776152074337005615234375">
        <ele>529</ele>
        <time>2019-04-28T13:01:02.000Z</time>
      </trkpt>
      <trkpt lat="40.43466073460876941680908203125" lon="-7.29732848703861236572265625">
        <ele>530</ele>
        <time>2019-04-28T13:01:12.000Z</time>
      </trkpt>
      <trkpt lat="40.4348639957606792449951171875" lon="-7.2971516288816928863525390625">
        <ele>530.5999755859375</ele>
        <time>2019-04-28T13:01:25.000Z</time>
      </trkpt>
      <trkpt lat="40.43501344509422779083251953125" lon="-7.29697653092443943023681640625">
        <ele>531.5999755859375</ele>
        <time>2019-04-28T13:01:35.000Z</time>
      </trkpt>
      <trkpt lat="40.435367412865161895751953125" lon="-7.29642718099057674407958984375">
        <ele>535.5999755859375</ele>
        <time>2019-04-28T13:02:05.000Z</time>
      </trkpt>
      <trkpt lat="40.4354904592037200927734375" lon="-7.29610363952815532684326171875">
        <ele>538.4000244140625</ele>
        <time>2019-04-28T13:02:18.000Z</time>
      </trkpt>
      <trkpt lat="40.435606800019741058349609375" lon="-7.2953977994620800018310546875">
        <ele>544.79998779296875</ele>
        <time>2019-04-28T13:02:44.000Z</time>
      </trkpt>
      <trkpt lat="40.43569992296397686004638671875" lon="-7.29472230188548564910888671875">
        <ele>550.79998779296875</ele>
        <time>2019-04-28T13:03:08.000Z</time>
      </trkpt>
      <trkpt lat="40.43600284494459629058837890625" lon="-7.294269092381000518798828125">
        <ele>552.5999755859375</ele>
        <time>2019-04-28T13:03:34.000Z</time>
      </trkpt>
      <trkpt lat="40.4360438324511051177978515625" lon="-7.29425492696464061737060546875">
        <ele>552.4000244140625</ele>
        <time>2019-04-28T13:03:36.000Z</time>
      </trkpt>
      <trkpt lat="40.43616025708615779876708984375" lon="-7.29425643570721149444580078125">
        <ele>551.79998779296875</ele>
        <time>2019-04-28T13:03:43.000Z</time>
      </trkpt>
      <trkpt lat="40.43649871833622455596923828125" lon="-7.29420237243175506591796875">
        <ele>551.79998779296875</ele>
        <time>2019-04-28T13:04:02.000Z</time>
      </trkpt>
      <trkpt lat="40.43651975691318511962890625" lon="-7.2942011989653110504150390625">
        <ele>552</ele>
        <time>2019-04-28T13:09:08.000Z</time>
      </trkpt>
      <trkpt lat="40.43705980293452739715576171875" lon="-7.294149063527584075927734375">
        <ele>554.4000244140625</ele>
        <time>2019-04-28T13:09:33.000Z</time>
      </trkpt>
      <trkpt lat="40.43759540654718875885009765625" lon="-7.2940563596785068511962890625">
        <ele>558.79998779296875</ele>
        <time>2019-04-28T13:09:58.000Z</time>
      </trkpt>
      <trkpt lat="40.43814492411911487579345703125" lon="-7.293927110731601715087890625">
        <ele>560.5999755859375</ele>
        <time>2019-04-28T13:10:21.000Z</time>
      </trkpt>
      <trkpt lat="40.43855127878487110137939453125" lon="-7.29347071610391139984130859375">
        <ele>559.20001220703125</ele>
        <time>2019-04-28T13:10:43.000Z</time>
      </trkpt>
      <trkpt lat="40.43879703618586063385009765625" lon="-7.29283469729125499725341796875">
        <ele>562.4000244140625</ele>
        <time>2019-04-28T13:11:05.000Z</time>
      </trkpt>
      <trkpt lat="40.43903893791139125823974609375" lon="-7.29217462241649627685546875">
        <ele>569</ele>
        <time>2019-04-28T13:11:30.000Z</time>
      </trkpt>
      <trkpt lat="40.43942366726696491241455078125" lon="-7.2916584648191928863525390625">
        <ele>574.20001220703125</ele>
        <time>2019-04-28T13:11:53.000Z</time>
      </trkpt>
      <trkpt lat="40.4399290122091770172119140625" lon="-7.29134447872638702392578125">
        <ele>574.79998779296875</ele>
        <time>2019-04-28T13:12:15.000Z</time>
      </trkpt>
      <trkpt lat="40.44039227999746799468994140625" lon="-7.29097844101488590240478515625">
        <ele>576.4000244140625</ele>
        <time>2019-04-28T13:12:38.000Z</time>
      </trkpt>
      <trkpt lat="40.44072537682950496673583984375" lon="-7.29040159843862056732177734375">
        <ele>582.4000244140625</ele>
        <time>2019-04-28T13:12:58.000Z</time>
      </trkpt>
      <trkpt lat="40.44114883057773113250732421875" lon="-7.28993506170809268951416015625">
        <ele>587</ele>
        <time>2019-04-28T13:13:21.000Z</time>
      </trkpt>
      <trkpt lat="40.44168309308588504791259765625" lon="-7.28981721214950084686279296875">
        <ele>586.5999755859375</ele>
        <time>2019-04-28T13:13:46.000Z</time>
      </trkpt>
      <trkpt lat="40.4422199539840221405029296875" lon="-7.28965041227638721466064453125">
        <ele>587.79998779296875</ele>
        <time>2019-04-28T13:14:10.000Z</time>
      </trkpt>
      <trkpt lat="40.44268213212490081787109375" lon="-7.28923718445003032684326171875">
        <ele>594.4000244140625</ele>
        <time>2019-04-28T13:14:33.000Z</time>
      </trkpt>
      <trkpt lat="40.44313316233456134796142578125" lon="-7.28882630355656147003173828125">
        <ele>601</ele>
        <time>2019-04-28T13:15:03.000Z</time>
      </trkpt>
      <trkpt lat="40.44367480091750621795654296875" lon="-7.28877802379429340362548828125">
        <ele>608.5999755859375</ele>
        <time>2019-04-28T13:15:31.000Z</time>
      </trkpt>
      <trkpt lat="40.44416111893951892852783203125" lon="-7.2890746593475341796875">
        <ele>612.5999755859375</ele>
        <time>2019-04-28T13:15:50.000Z</time>
      </trkpt>
      <trkpt lat="40.44468951411545276641845703125" lon="-7.28927087970077991485595703125">
        <ele>612.20001220703125</ele>
        <time>2019-04-28T13:16:13.000Z</time>
      </trkpt>
      <trkpt lat="40.445199720561504364013671875" lon="-7.28900483809411525726318359375">
        <ele>607.20001220703125</ele>
        <time>2019-04-28T13:16:36.000Z</time>
      </trkpt>
      <trkpt lat="40.44533223845064640045166015625" lon="-7.28884206153452396392822265625">
        <ele>608</ele>
        <time>2019-04-28T13:16:44.000Z</time>
      </trkpt>
      <trkpt lat="40.44541840441524982452392578125" lon="-7.2887150757014751434326171875">
        <ele>609</ele>
        <time>2019-04-28T13:16:52.000Z</time>
      </trkpt>
      <trkpt lat="40.445771031081676483154296875" lon="-7.28816061280667781829833984375">
        <ele>614.4000244140625</ele>
        <time>2019-04-28T13:17:22.000Z</time>
      </trkpt>
      <trkpt lat="40.44583909213542938232421875" lon="-7.2880441881716251373291015625">
        <ele>615.79998779296875</ele>
        <time>2019-04-28T13:17:28.000Z</time>
      </trkpt>
      <trkpt lat="40.44594378210604190826416015625" lon="-7.2878544218838214874267578125">
        <ele>618.4000244140625</ele>
        <time>2019-04-28T13:17:39.000Z</time>
      </trkpt>
      <trkpt lat="40.4460704326629638671875" lon="-7.2876740433275699615478515625">
        <ele>620</ele>
        <time>2019-04-28T13:17:51.000Z</time>
      </trkpt>
      <trkpt lat="40.44612231664359569549560546875" lon="-7.28758662007749080657958984375">
        <ele>621</ele>
        <time>2019-04-28T13:17:56.000Z</time>
      </trkpt>
      <trkpt lat="40.44658164493739604949951171875" lon="-7.28721580468118190765380859375">
        <ele>628.4000244140625</ele>
        <time>2019-04-28T13:18:26.000Z</time>
      </trkpt>
      <trkpt lat="40.44712009839713573455810546875" lon="-7.2872311435639858245849609375">
        <ele>630.5999755859375</ele>
        <time>2019-04-28T13:18:52.000Z</time>
      </trkpt>
      <trkpt lat="40.44768168590962886810302734375" lon="-7.28734790347516536712646484375">
        <ele>623.5999755859375</ele>
        <time>2019-04-28T13:19:12.000Z</time>
      </trkpt>
      <trkpt lat="40.448193736374378204345703125" lon="-7.2871060855686664581298828125">
        <ele>621.79998779296875</ele>
        <time>2019-04-28T13:19:26.000Z</time>
      </trkpt>
      <trkpt lat="40.44854854233562946319580078125" lon="-7.2865572385489940643310546875">
        <ele>625</ele>
        <time>2019-04-28T13:19:41.000Z</time>
      </trkpt>
      <trkpt lat="40.44888683594763278961181640625" lon="-7.28598467074334621429443359375">
        <ele>631.79998779296875</ele>
        <time>2019-04-28T13:20:00.000Z</time>
      </trkpt>
      <trkpt lat="40.449093282222747802734375" lon="-7.28569599799811840057373046875">
        <ele>636.20001220703125</ele>
        <time>2019-04-28T13:20:13.000Z</time>
      </trkpt>
      <trkpt lat="40.4491987265646457672119140625" lon="-7.285588122904300689697265625">
        <ele>637.5999755859375</ele>
        <time>2019-04-28T13:20:18.000Z</time>
      </trkpt>
      <trkpt lat="40.44965855777263641357421875" lon="-7.28534781374037265777587890625">
        <ele>636.4000244140625</ele>
        <time>2019-04-28T13:20:35.000Z</time>
      </trkpt>
      <trkpt lat="40.44977615587413311004638671875" lon="-7.2853515855967998504638671875">
        <ele>634.20001220703125</ele>
        <time>2019-04-28T13:20:42.000Z</time>
      </trkpt>
      <trkpt lat="40.44977657496929168701171875" lon="-7.28535317815840244293212890625">
        <ele>634</ele>
        <time>2019-04-28T13:20:44.000Z</time>
      </trkpt>
      <trkpt lat="40.449851341545581817626953125" lon="-7.28526298888027667999267578125">
        <ele>635.4000244140625</ele>
        <time>2019-04-28T13:28:56.000Z</time>
      </trkpt>
      <trkpt lat="40.45020530931651592254638671875" lon="-7.28473543189465999603271484375">
        <ele>646</ele>
        <time>2019-04-28T13:29:21.000Z</time>
      </trkpt>
      <trkpt lat="40.4507205449044704437255859375" lon="-7.28443971835076808929443359375">
        <ele>649</ele>
        <time>2019-04-28T13:29:43.000Z</time>
      </trkpt>
      <trkpt lat="40.45125690288841724395751953125" lon="-7.2843236289918422698974609375">
        <ele>647</ele>
        <time>2019-04-28T13:30:02.000Z</time>
      </trkpt>
      <trkpt lat="40.4517848789691925048828125" lon="-7.28408147580921649932861328125">
        <ele>650.20001220703125</ele>
        <time>2019-04-28T13:30:22.000Z</time>
      </trkpt>
      <trkpt lat="40.45226876623928546905517578125" lon="-7.28373547084629535675048828125">
        <ele>655.20001220703125</ele>
        <time>2019-04-28T13:30:42.000Z</time>
      </trkpt>
      <trkpt lat="40.45275516808032989501953125" lon="-7.28341720998287200927734375">
        <ele>656.5999755859375</ele>
        <time>2019-04-28T13:31:01.000Z</time>
      </trkpt>
      <trkpt lat="40.45323637314140796661376953125" lon="-7.28308687917888164520263671875">
        <ele>658.20001220703125</ele>
        <time>2019-04-28T13:31:20.000Z</time>
      </trkpt>
      <trkpt lat="40.45372688211500644683837890625" lon="-7.28275881148874759674072265625">
        <ele>659.5999755859375</ele>
        <time>2019-04-28T13:31:39.000Z</time>
      </trkpt>
      <trkpt lat="40.45420381240546703338623046875" lon="-7.28241867385804653167724609375">
        <ele>663</ele>
        <time>2019-04-28T13:31:57.000Z</time>
      </trkpt>
      <trkpt lat="40.454690046608448028564453125" lon="-7.2820739261806011199951171875">
        <ele>667.20001220703125</ele>
        <time>2019-04-28T13:32:16.000Z</time>
      </trkpt>
      <trkpt lat="40.45518382452428340911865234375" lon="-7.2817825712263584136962890625">
        <ele>678.79998779296875</ele>
        <time>2019-04-28T13:32:35.000Z</time>
      </trkpt>
      <trkpt lat="40.45572864823043346405029296875" lon="-7.2817389853298664093017578125">
        <ele>687.4000244140625</ele>
        <time>2019-04-28T13:32:57.000Z</time>
      </trkpt>
      <trkpt lat="40.45622485689818859100341796875" lon="-7.28208289481699466705322265625">
        <ele>688</ele>
        <time>2019-04-28T13:33:16.000Z</time>
      </trkpt>
      <trkpt lat="40.45674855820834636688232421875" lon="-7.282328903675079345703125">
        <ele>682.5999755859375</ele>
        <time>2019-04-28T13:33:36.000Z</time>
      </trkpt>
      <trkpt lat="40.4572956450283527374267578125" lon="-7.2822834737598896026611328125">
        <ele>681.5999755859375</ele>
        <time>2019-04-28T13:33:54.000Z</time>
      </trkpt>
      <trkpt lat="40.45785480178892612457275390625" lon="-7.28217056952416896820068359375">
        <ele>678</ele>
        <time>2019-04-28T13:34:12.000Z</time>
      </trkpt>
      <trkpt lat="40.458320416510105133056640625" lon="-7.28183068335056304931640625">
        <ele>679.4000244140625</ele>
        <time>2019-04-28T13:34:30.000Z</time>
      </trkpt>
      <trkpt lat="40.45871327631175518035888671875" lon="-7.28130228817462921142578125">
        <ele>691.4000244140625</ele>
        <time>2019-04-28T13:34:48.000Z</time>
      </trkpt>
      <trkpt lat="40.4592124186456203460693359375" lon="-7.28104077279567718505859375">
        <ele>695</ele>
        <time>2019-04-28T13:35:05.000Z</time>
      </trkpt>
      <trkpt lat="40.45975816436111927032470703125" lon="-7.28096910752356052398681640625">
        <ele>690.79998779296875</ele>
        <time>2019-04-28T13:35:23.000Z</time>
      </trkpt>
      <trkpt lat="40.4602541215717792510986328125" lon="-7.2806377708911895751953125">
        <ele>695.4000244140625</ele>
        <time>2019-04-28T13:35:40.000Z</time>
      </trkpt>
      <trkpt lat="40.46070297248661518096923828125" lon="-7.2802369482815265655517578125">
        <ele>706.20001220703125</ele>
        <time>2019-04-28T13:35:57.000Z</time>
      </trkpt>
      <trkpt lat="40.46121192164719104766845703125" lon="-7.28000954724848270416259765625">
        <ele>711</ele>
        <time>2019-04-28T13:36:16.000Z</time>
      </trkpt>
      <trkpt lat="40.4617645405232906341552734375" lon="-7.280073501169681549072265625">
        <ele>704</ele>
        <time>2019-04-28T13:36:35.000Z</time>
      </trkpt>
      <trkpt lat="40.46232403255999088287353515625" lon="-7.27995389141142368316650390625">
        <ele>704.5999755859375</ele>
        <time>2019-04-28T13:36:54.000Z</time>
      </trkpt>
      <trkpt lat="40.46286516822874546051025390625" lon="-7.27973110042512416839599609375">
        <ele>709.5999755859375</ele>
        <time>2019-04-28T13:37:13.000Z</time>
      </trkpt>
      <trkpt lat="40.46338534913957118988037109375" lon="-7.279446534812450408935546875">
        <ele>712</ele>
        <time>2019-04-28T13:37:32.000Z</time>
      </trkpt>
      <trkpt lat="40.46381634660065174102783203125" lon="-7.27901293896138668060302734375">
        <ele>720.20001220703125</ele>
        <time>2019-04-28T13:37:50.000Z</time>
      </trkpt>
      <trkpt lat="40.4643669538199901580810546875" lon="-7.27885317988693714141845703125">
        <ele>728.20001220703125</ele>
        <time>2019-04-28T13:38:11.000Z</time>
      </trkpt>
      <trkpt lat="40.46491135843098163604736328125" lon="-7.2789779864251613616943359375">
        <ele>723.5999755859375</ele>
        <time>2019-04-28T13:38:27.000Z</time>
      </trkpt>
      <trkpt lat="40.46547562815248966217041015625" lon="-7.27899852208793163299560546875">
        <ele>721.4000244140625</ele>
        <time>2019-04-28T13:38:44.000Z</time>
      </trkpt>
      <trkpt lat="40.46602112241089344024658203125" lon="-7.278825938701629638671875">
        <ele>724.5999755859375</ele>
        <time>2019-04-28T13:39:01.000Z</time>
      </trkpt>
      <trkpt lat="40.46654951758682727813720703125" lon="-7.2786541096866130828857421875">
        <ele>726.79998779296875</ele>
        <time>2019-04-28T13:39:18.000Z</time>
      </trkpt>
      <trkpt lat="40.467090904712677001953125" lon="-7.27846995927393436431884765625">
        <ele>727</ele>
        <time>2019-04-28T13:39:35.000Z</time>
      </trkpt>
      <trkpt lat="40.4676255024969577789306640625" lon="-7.27830165065824985504150390625">
        <ele>730</ele>
        <time>2019-04-28T13:39:54.000Z</time>
      </trkpt>
      <trkpt lat="40.468159429728984832763671875" lon="-7.27813350968062877655029296875">
        <ele>733.5999755859375</ele>
        <time>2019-04-28T13:40:14.000Z</time>
      </trkpt>
      <trkpt lat="40.46870266087353229522705078125" lon="-7.27796067483723163604736328125">
        <ele>737.4000244140625</ele>
        <time>2019-04-28T13:40:36.000Z</time>
      </trkpt>
      <trkpt lat="40.46924882568418979644775390625" lon="-7.27777526713907718658447265625">
        <ele>741.20001220703125</ele>
        <time>2019-04-28T13:40:58.000Z</time>
      </trkpt>
      <trkpt lat="40.469794571399688720703125" lon="-7.27759120054543018341064453125">
        <ele>743</ele>
        <time>2019-04-28T13:41:19.000Z</time>
      </trkpt>
      <trkpt lat="40.4703127406537532806396484375" lon="-7.2773297689855098724365234375">
        <ele>746</ele>
        <time>2019-04-28T13:41:39.000Z</time>
      </trkpt>
      <trkpt lat="40.4708290658891201019287109375" lon="-7.277003042399883270263671875">
        <ele>744.79998779296875</ele>
        <time>2019-04-28T13:41:59.000Z</time>
      </trkpt>
      <trkpt lat="40.4712702892720699310302734375" lon="-7.27656307630240917205810546875">
        <ele>746.79998779296875</ele>
        <time>2019-04-28T13:42:19.000Z</time>
      </trkpt>
      <trkpt lat="40.471313707530498504638671875" lon="-7.27656014263629913330078125">
        <ele>745.4000244140625</ele>
        <time>2019-04-28T13:42:21.000Z</time>
      </trkpt>
      <trkpt lat="40.4713681899011135101318359375" lon="-7.27654798887670040130615234375">
        <ele>744.5999755859375</ele>
        <time>2019-04-28T13:42:24.000Z</time>
      </trkpt>
      <trkpt lat="40.47145762480795383453369140625" lon="-7.27649434469640254974365234375">
        <ele>744.79998779296875</ele>
        <time>2019-04-28T13:42:31.000Z</time>
      </trkpt>
      <trkpt lat="40.4714932478964328765869140625" lon="-7.27644472382962703704833984375">
        <ele>745.5999755859375</ele>
        <time>2019-04-28T13:42:38.000Z</time>
      </trkpt>
      <trkpt lat="40.47152258455753326416015625" lon="-7.27642611600458621978759765625">
        <ele>745.5999755859375</ele>
        <time>2019-04-28T13:42:43.000Z</time>
      </trkpt>
      <trkpt lat="40.471541024744510650634765625" lon="-7.2763229347765445709228515625">
        <ele>748.20001220703125</ele>
        <time>2019-04-28T13:46:41.000Z</time>
      </trkpt>
      <trkpt lat="40.47163867391645908355712890625" lon="-7.2760646045207977294921875">
        <ele>754</ele>
        <time>2019-04-28T13:46:54.000Z</time>
      </trkpt>
      <trkpt lat="40.4721091501414775848388671875" lon="-7.2757065296173095703125">
        <ele>757.79998779296875</ele>
        <time>2019-04-28T13:47:13.000Z</time>
      </trkpt>
      <trkpt lat="40.47258717007935047149658203125" lon="-7.27537569589912891387939453125">
        <ele>764</ele>
        <time>2019-04-28T13:47:30.000Z</time>
      </trkpt>
      <trkpt lat="40.47310483641922473907470703125" lon="-7.27514795958995819091796875">
        <ele>767.79998779296875</ele>
        <time>2019-04-28T13:47:48.000Z</time>
      </trkpt>
      <trkpt lat="40.473676063120365142822265625" lon="-7.27510546334087848663330078125">
        <ele>769.4000244140625</ele>
        <time>2019-04-28T13:48:04.000Z</time>
      </trkpt>
      <trkpt lat="40.47422382049262523651123046875" lon="-7.2750589437782764434814453125">
        <ele>767.20001220703125</ele>
        <time>2019-04-28T13:48:20.000Z</time>
      </trkpt>
      <trkpt lat="40.4747900180518627166748046875" lon="-7.274933718144893646240234375">
        <ele>767.4000244140625</ele>
        <time>2019-04-28T13:48:37.000Z</time>
      </trkpt>
      <trkpt lat="40.47531162388622760772705078125" lon="-7.27474655024707317352294921875">
        <ele>771.4000244140625</ele>
        <time>2019-04-28T13:48:53.000Z</time>
      </trkpt>
      <trkpt lat="40.47584052197635173797607421875" lon="-7.2745308838784694671630859375">
        <ele>772.4000244140625</ele>
        <time>2019-04-28T13:49:11.000Z</time>
      </trkpt>
      <trkpt lat="40.47632147558033466339111328125" lon="-7.27421346120536327362060546875">
        <ele>775.79998779296875</ele>
        <time>2019-04-28T13:49:31.000Z</time>
      </trkpt>
      <trkpt lat="40.4767875932157039642333984375" lon="-7.27380459196865558624267578125">
        <ele>784</ele>
        <time>2019-04-28T13:49:52.000Z</time>
      </trkpt>
      <trkpt lat="40.47729042358696460723876953125" lon="-7.2735123150050640106201171875">
        <ele>790.20001220703125</ele>
        <time>2019-04-28T13:50:13.000Z</time>
      </trkpt>
      <trkpt lat="40.4778467305004596710205078125" lon="-7.27344333194196224212646484375">
        <ele>793</ele>
        <time>2019-04-28T13:50:33.000Z</time>
      </trkpt>
      <trkpt lat="40.47839038074016571044921875" lon="-7.2733517177402973175048828125">
        <ele>797.20001220703125</ele>
        <time>2019-04-28T13:50:52.000Z</time>
      </trkpt>
      <trkpt lat="40.47894702292978763580322265625" lon="-7.2733191959559917449951171875">
        <ele>801.20001220703125</ele>
        <time>2019-04-28T13:51:13.000Z</time>
      </trkpt>
      <trkpt lat="40.4794711433351039886474609375" lon="-7.27353595197200775146484375">
        <ele>803.4000244140625</ele>
        <time>2019-04-28T13:51:33.000Z</time>
      </trkpt>
      <trkpt lat="40.4800124466419219970703125" lon="-7.27374424226582050323486328125">
        <ele>804.79998779296875</ele>
        <time>2019-04-28T13:51:55.000Z</time>
      </trkpt>
      <trkpt lat="40.48055802471935749053955078125" lon="-7.27378807961940765380859375">
        <ele>805.20001220703125</ele>
        <time>2019-04-28T13:52:14.000Z</time>
      </trkpt>
      <trkpt lat="40.481096394360065460205078125" lon="-7.27367416955530643463134765625">
        <ele>804.5999755859375</ele>
        <time>2019-04-28T13:52:33.000Z</time>
      </trkpt>
      <trkpt lat="40.48161439597606658935546875" lon="-7.2734338603913784027099609375">
        <ele>808.5999755859375</ele>
        <time>2019-04-28T13:52:55.000Z</time>
      </trkpt>
      <trkpt lat="40.4821194894611835479736328125" lon="-7.27315063588321208953857421875">
        <ele>813.4000244140625</ele>
        <time>2019-04-28T13:53:16.000Z</time>
      </trkpt>
      <trkpt lat="40.48264763318002223968505859375" lon="-7.2729342989623546600341796875">
        <ele>815.5999755859375</ele>
        <time>2019-04-28T13:53:36.000Z</time>
      </trkpt>
      <trkpt lat="40.4831776209175586700439453125" lon="-7.2727854363620281219482421875">
        <ele>815</ele>
        <time>2019-04-28T13:53:56.000Z</time>
      </trkpt>
      <trkpt lat="40.4837167449295520782470703125" lon="-7.2725938260555267333984375">
        <ele>815.20001220703125</ele>
        <time>2019-04-28T13:54:18.000Z</time>
      </trkpt>
      <trkpt lat="40.4838605783879756927490234375" lon="-7.2725447081029415130615234375">
        <ele>815</ele>
        <time>2019-04-28T13:54:27.000Z</time>
      </trkpt>
      <trkpt lat="40.48391028307378292083740234375" lon="-7.27245393209159374237060546875">
        <ele>816.79998779296875</ele>
        <time>2019-04-28T13:59:17.000Z</time>
      </trkpt>
      <trkpt lat="40.48393123783171176910400390625" lon="-7.272325269877910614013671875">
        <ele>819.79998779296875</ele>
        <time>2019-04-28T13:59:23.000Z</time>
      </trkpt>
      <trkpt lat="40.4840164817869663238525390625" lon="-7.2722174786031246185302734375">
        <ele>821.20001220703125</ele>
        <time>2019-04-28T13:59:28.000Z</time>
      </trkpt>
      <trkpt lat="40.4844744689762592315673828125" lon="-7.2718339227139949798583984375">
        <ele>824.4000244140625</ele>
        <time>2019-04-28T13:59:49.000Z</time>
      </trkpt>
      <trkpt lat="40.48497009091079235076904296875" lon="-7.27149839513003826141357421875">
        <ele>828.79998779296875</ele>
        <time>2019-04-28T14:00:09.000Z</time>
      </trkpt>
      <trkpt lat="40.48548406921327114105224609375" lon="-7.27121072821319103240966796875">
        <ele>833.5999755859375</ele>
        <time>2019-04-28T14:00:31.000Z</time>
      </trkpt>
      <trkpt lat="40.48601992428302764892578125" lon="-7.271080724895000457763671875">
        <ele>833.5999755859375</ele>
        <time>2019-04-28T14:00:50.000Z</time>
      </trkpt>
      <trkpt lat="40.486574135720729827880859375" lon="-7.27092976681888103485107421875">
        <ele>834.5999755859375</ele>
        <time>2019-04-28T14:01:10.000Z</time>
      </trkpt>
      <trkpt lat="40.48711619339883327484130859375" lon="-7.27073396556079387664794921875">
        <ele>838.5999755859375</ele>
        <time>2019-04-28T14:01:30.000Z</time>
      </trkpt>
      <trkpt lat="40.48766336403787136077880859375" lon="-7.27052693255245685577392578125">
        <ele>842.79998779296875</ele>
        <time>2019-04-28T14:01:50.000Z</time>
      </trkpt>
      <trkpt lat="40.4882024042308330535888671875" lon="-7.27031419984996318817138671875">
        <ele>846</ele>
        <time>2019-04-28T14:02:10.000Z</time>
      </trkpt>
      <trkpt lat="40.48873809166252613067626953125" lon="-7.2701018862426280975341796875">
        <ele>847.20001220703125</ele>
        <time>2019-04-28T14:02:30.000Z</time>
      </trkpt>
      <trkpt lat="40.48925626091659069061279296875" lon="-7.26989686489105224609375">
        <ele>850.5999755859375</ele>
        <time>2019-04-28T14:02:48.000Z</time>
      </trkpt>
      <trkpt lat="40.4897896014153957366943359375" lon="-7.26968639530241489410400390625">
        <ele>853.79998779296875</ele>
        <time>2019-04-28T14:03:08.000Z</time>
      </trkpt>
      <trkpt lat="40.490311793982982635498046875" lon="-7.2694770991802215576171875">
        <ele>856.4000244140625</ele>
        <time>2019-04-28T14:03:27.000Z</time>
      </trkpt>
      <trkpt lat="40.49083289690315723419189453125" lon="-7.26927735842764377593994140625">
        <ele>860.4000244140625</ele>
        <time>2019-04-28T14:03:47.000Z</time>
      </trkpt>
      <trkpt lat="40.49135793931782245635986328125" lon="-7.26906781084835529327392578125">
        <ele>864.79998779296875</ele>
        <time>2019-04-28T14:04:09.000Z</time>
      </trkpt>
      <trkpt lat="40.4914321191608905792236328125" lon="-7.2690447606146335601806640625">
        <ele>864.79998779296875</ele>
        <time>2019-04-28T14:04:13.000Z</time>
      </trkpt>
      <trkpt lat="40.49143035896122455596923828125" lon="-7.2690444253385066986083984375">
        <ele>864.79998779296875</ele>
        <time>2019-04-28T14:04:14.000Z</time>
      </trkpt>
      <trkpt lat="40.49145131371915340423583984375" lon="-7.26904165931046009063720703125">
        <ele>864.79998779296875</ele>
        <time>2019-04-28T14:04:19.000Z</time>
      </trkpt>
      <trkpt lat="40.49153848551213741302490234375" lon="-7.2690062038600444793701171875">
        <ele>864.79998779296875</ele>
        <time>2019-04-28T14:04:23.000Z</time>
      </trkpt>
      <trkpt lat="40.4920594207942485809326171875" lon="-7.26879187859594821929931640625">
        <ele>865.20001220703125</ele>
        <time>2019-04-28T14:04:42.000Z</time>
      </trkpt>
      <trkpt lat="40.4925797693431377410888671875" lon="-7.26859088055789470672607421875">
        <ele>868</ele>
        <time>2019-04-28T14:05:01.000Z</time>
      </trkpt>
      <trkpt lat="40.49312300048768520355224609375" lon="-7.2684221528470516204833984375">
        <ele>872.5999755859375</ele>
        <time>2019-04-28T14:05:25.000Z</time>
      </trkpt>
      <trkpt lat="40.49365818500518798828125" lon="-7.268360294401645660400390625">
        <ele>877.20001220703125</ele>
        <time>2019-04-28T14:05:46.000Z</time>
      </trkpt>
      <trkpt lat="40.49421885050833225250244140625" lon="-7.26839952170848846435546875">
        <ele>877.20001220703125</ele>
        <time>2019-04-28T14:06:07.000Z</time>
      </trkpt>
      <trkpt lat="40.49474791623651981353759765625" lon="-7.2684546746313571929931640625">
        <ele>875.79998779296875</ele>
        <time>2019-04-28T14:06:32.000Z</time>
      </trkpt>
      <trkpt lat="40.494781695306301116943359375" lon="-7.268483676016330718994140625">
        <ele>875.79998779296875</ele>
        <time>2019-04-28T14:09:38.000Z</time>
      </trkpt>
      <trkpt lat="40.49496031366288661956787109375" lon="-7.26857763715088367462158203125">
        <ele>875.20001220703125</ele>
        <time>2019-04-28T14:09:50.000Z</time>
      </trkpt>
      <trkpt lat="40.49548133276402950286865234375" lon="-7.268803529441356658935546875">
        <ele>873.5999755859375</ele>
        <time>2019-04-28T14:10:09.000Z</time>
      </trkpt>
      <trkpt lat="40.49597955308854579925537109375" lon="-7.269103936851024627685546875">
        <ele>872.20001220703125</ele>
        <time>2019-04-28T14:10:23.000Z</time>
      </trkpt>
      <trkpt lat="40.49652186222374439239501953125" lon="-7.2693887539207935333251953125">
        <ele>872</ele>
        <time>2019-04-28T14:10:33.000Z</time>
      </trkpt>
      <trkpt lat="40.496659912168979644775390625" lon="-7.26942186243832111358642578125">
        <ele>872.20001220703125</ele>
        <time>2019-04-28T14:10:35.000Z</time>
      </trkpt>
      <trkpt lat="40.4968139715492725372314453125" lon="-7.2694269753992557525634765625">
        <ele>872</ele>
        <time>2019-04-28T14:10:37.000Z</time>
      </trkpt>
      <trkpt lat="40.49712435342371463775634765625" lon="-7.26931415498256683349609375">
        <ele>870.20001220703125</ele>
        <time>2019-04-28T14:10:41.000Z</time>
      </trkpt>
      <trkpt lat="40.4971981979906558990478515625" lon="-7.26926185190677642822265625">
        <ele>869.79998779296875</ele>
        <time>2019-04-28T14:10:42.000Z</time>
      </trkpt>
      <trkpt lat="40.49765023402869701385498046875" lon="-7.26871895603835582733154296875">
        <ele>868</ele>
        <time>2019-04-28T14:10:49.000Z</time>
      </trkpt>
      <trkpt lat="40.4980273358523845672607421875" lon="-7.26819408126175403594970703125">
        <ele>865.79998779296875</ele>
        <time>2019-04-28T14:10:55.000Z</time>
      </trkpt>
      <trkpt lat="40.49841969273984432220458984375" lon="-7.26767063140869140625">
        <ele>861</ele>
        <time>2019-04-28T14:11:01.000Z</time>
      </trkpt>
      <trkpt lat="40.4987917654216289520263671875" lon="-7.2673596628010272979736328125">
        <ele>858</ele>
        <time>2019-04-28T14:11:06.000Z</time>
      </trkpt>
      <trkpt lat="40.4991508461534976959228515625" lon="-7.2673053480684757232666015625">
        <ele>855</ele>
        <time>2019-04-28T14:11:10.000Z</time>
      </trkpt>
      <trkpt lat="40.49976616166532039642333984375" lon="-7.2673375345766544342041015625">
        <ele>851.4000244140625</ele>
        <time>2019-04-28T14:11:17.000Z</time>
      </trkpt>
      <trkpt lat="40.50031282939016819000244140625" lon="-7.26736485958099365234375">
        <ele>851.79998779296875</ele>
        <time>2019-04-28T14:11:24.000Z</time>
      </trkpt>
      <trkpt lat="40.5008909292519092559814453125" lon="-7.267398051917552947998046875">
        <ele>851.20001220703125</ele>
        <time>2019-04-28T14:11:33.000Z</time>
      </trkpt>
      <trkpt lat="40.5014478228986263275146484375" lon="-7.2674756683409214019775390625">
        <ele>851.4000244140625</ele>
        <time>2019-04-28T14:11:47.000Z</time>
      </trkpt>
      <trkpt lat="40.5014528520405292510986328125" lon="-7.26747558452188968658447265625">
        <ele>851.4000244140625</ele>
        <time>2019-04-28T14:11:49.000Z</time>
      </trkpt>
      <trkpt lat="40.501468442380428314208984375" lon="-7.267484553158283233642578125">
        <ele>851.4000244140625</ele>
        <time>2019-04-28T14:13:04.000Z</time>
      </trkpt>
      <trkpt lat="40.50159559585154056549072265625" lon="-7.267615310847759246826171875">
        <ele>852.5999755859375</ele>
        <time>2019-04-28T14:13:12.000Z</time>
      </trkpt>
      <trkpt lat="40.50206565298140048980712890625" lon="-7.2679859586060047149658203125">
        <ele>851.79998779296875</ele>
        <time>2019-04-28T14:13:26.000Z</time>
      </trkpt>
      <trkpt lat="40.5024590156972408294677734375" lon="-7.2684821672737598419189453125">
        <ele>850.4000244140625</ele>
        <time>2019-04-28T14:13:35.000Z</time>
      </trkpt>
      <trkpt lat="40.5028419010341167449951171875" lon="-7.268986590206623077392578125">
        <ele>847.79998779296875</ele>
        <time>2019-04-28T14:13:42.000Z</time>
      </trkpt>
      <trkpt lat="40.5032242834568023681640625" lon="-7.269522361457347869873046875">
        <ele>843.5999755859375</ele>
        <time>2019-04-28T14:13:48.000Z</time>
      </trkpt>
      <trkpt lat="40.50361211411654949188232421875" lon="-7.270136587321758270263671875">
        <ele>840.4000244140625</ele>
        <time>2019-04-28T14:13:54.000Z</time>
      </trkpt>
      <trkpt lat="40.50398376770317554473876953125" lon="-7.27080588229000568389892578125">
        <ele>836</ele>
        <time>2019-04-28T14:14:00.000Z</time>
      </trkpt>
      <trkpt lat="40.50433781929314136505126953125" lon="-7.2715120576322078704833984375">
        <ele>830.5999755859375</ele>
        <time>2019-04-28T14:14:06.000Z</time>
      </trkpt>
      <trkpt lat="40.5046688206493854522705078125" lon="-7.27215939201414585113525390625">
        <ele>835.79998779296875</ele>
        <time>2019-04-28T14:14:12.000Z</time>
      </trkpt>
      <trkpt lat="40.50478256307542324066162109375" lon="-7.27230439893901348114013671875">
        <ele>837.4000244140625</ele>
        <time>2019-04-28T14:14:14.000Z</time>
      </trkpt>
      <trkpt lat="40.50530140288174152374267578125" lon="-7.27258779108524322509765625">
        <ele>840</ele>
        <time>2019-04-28T14:14:27.000Z</time>
      </trkpt>
      <trkpt lat="40.50584538839757442474365234375" lon="-7.27270505391061305999755859375">
        <ele>842.20001220703125</ele>
        <time>2019-04-28T14:14:46.000Z</time>
      </trkpt>
      <trkpt lat="40.50638434477150440216064453125" lon="-7.27276138029992580413818359375">
        <ele>844.4000244140625</ele>
        <time>2019-04-28T14:15:03.000Z</time>
      </trkpt>
      <trkpt lat="40.50692975521087646484375" lon="-7.272807396948337554931640625">
        <ele>846.5999755859375</ele>
        <time>2019-04-28T14:15:22.000Z</time>
      </trkpt>
      <trkpt lat="40.50746820867061614990234375" lon="-7.272743694484233856201171875">
        <ele>848.79998779296875</ele>
        <time>2019-04-28T14:15:40.000Z</time>
      </trkpt>
      <trkpt lat="40.50800305791199207305908203125" lon="-7.27263933978974819183349609375">
        <ele>849.5999755859375</ele>
        <time>2019-04-28T14:15:59.000Z</time>
      </trkpt>
      <trkpt lat="40.50856657326221466064453125" lon="-7.2725535929203033447265625">
        <ele>852.4000244140625</ele>
        <time>2019-04-28T14:16:18.000Z</time>
      </trkpt>
      <trkpt lat="40.50912849605083465576171875" lon="-7.2726523317396640777587890625">
        <ele>855</ele>
        <time>2019-04-28T14:16:37.000Z</time>
      </trkpt>
      <trkpt lat="40.5096754990518093109130859375" lon="-7.272859029471874237060546875">
        <ele>854.79998779296875</ele>
        <time>2019-04-28T14:16:55.000Z</time>
      </trkpt>
      <trkpt lat="40.5101978592574596405029296875" lon="-7.2730466164648532867431640625">
        <ele>857.5999755859375</ele>
        <time>2019-04-28T14:17:12.000Z</time>
      </trkpt>
      <trkpt lat="40.51073740236461162567138671875" lon="-7.2732310183346271514892578125">
        <ele>859.4000244140625</ele>
        <time>2019-04-28T14:17:30.000Z</time>
      </trkpt>
      <trkpt lat="40.5112187750637531280517578125" lon="-7.2735445015132427215576171875">
        <ele>858.5999755859375</ele>
        <time>2019-04-28T14:17:52.000Z</time>
      </trkpt>
      <trkpt lat="40.511491186916828155517578125" lon="-7.2741707973182201385498046875">
        <ele>862</ele>
        <time>2019-04-28T14:18:16.000Z</time>
      </trkpt>
      <trkpt lat="40.5115141533315181732177734375" lon="-7.27487579919397830963134765625">
        <ele>866</ele>
        <time>2019-04-28T14:18:39.000Z</time>
      </trkpt>
      <trkpt lat="40.5114313401281833648681640625" lon="-7.27558113634586334228515625">
        <ele>869.5999755859375</ele>
        <time>2019-04-28T14:19:02.000Z</time>
      </trkpt>
      <trkpt lat="40.51145799458026885986328125" lon="-7.276288904249668121337890625">
        <ele>874.20001220703125</ele>
        <time>2019-04-28T14:19:24.000Z</time>
      </trkpt>
      <trkpt lat="40.51175831817090511322021484375" lon="-7.2768868692219257354736328125">
        <ele>878.79998779296875</ele>
        <time>2019-04-28T14:19:51.000Z</time>
      </trkpt>
      <trkpt lat="40.511860661208629608154296875" lon="-7.27697127498686313629150390625">
        <ele>879.79998779296875</ele>
        <time>2019-04-28T14:19:57.000Z</time>
      </trkpt>
      <trkpt lat="40.511878430843353271484375" lon="-7.27698200382292270660400390625">
        <ele>879.79998779296875</ele>
        <time>2019-04-28T14:20:00.000Z</time>
      </trkpt>
      <trkpt lat="40.51190885715186595916748046875" lon="-7.27699859999120235443115234375">
        <ele>880</ele>
        <time>2019-04-28T14:20:39.000Z</time>
      </trkpt>
      <trkpt lat="40.51242685876786708831787109375" lon="-7.27717076428234577178955078125">
        <ele>882.5999755859375</ele>
        <time>2019-04-28T14:21:03.000Z</time>
      </trkpt>
      <trkpt lat="40.51298006437718868255615234375" lon="-7.27720923721790313720703125">
        <ele>887.4000244140625</ele>
        <time>2019-04-28T14:21:25.000Z</time>
      </trkpt>
      <trkpt lat="40.51352438516914844512939453125" lon="-7.27725190110504627227783203125">
        <ele>888</ele>
        <time>2019-04-28T14:21:48.000Z</time>
      </trkpt>
      <trkpt lat="40.51406384445726871490478515625" lon="-7.277356088161468505859375">
        <ele>888</ele>
        <time>2019-04-28T14:22:12.000Z</time>
      </trkpt>
      <trkpt lat="40.5145554430782794952392578125" lon="-7.27765582501888275146484375">
        <ele>888.4000244140625</ele>
        <time>2019-04-28T14:22:34.000Z</time>
      </trkpt>
      <trkpt lat="40.51507386378943920135498046875" lon="-7.27791440673172473907470703125">
        <ele>894.20001220703125</ele>
        <time>2019-04-28T14:22:57.000Z</time>
      </trkpt>
      <trkpt lat="40.5156216211616992950439453125" lon="-7.27797098457813262939453125">
        <ele>899.4000244140625</ele>
        <time>2019-04-28T14:23:21.000Z</time>
      </trkpt>
      <trkpt lat="40.516165606677532196044921875" lon="-7.277841903269290924072265625">
        <ele>902.5999755859375</ele>
        <time>2019-04-28T14:23:42.000Z</time>
      </trkpt>
      <trkpt lat="40.5167105980217456817626953125" lon="-7.27767485193908214569091796875">
        <ele>906.79998779296875</ele>
        <time>2019-04-28T14:24:06.000Z</time>
      </trkpt>
      <trkpt lat="40.5172426812350749969482421875" lon="-7.2774907015264034271240234375">
        <ele>911.20001220703125</ele>
        <time>2019-04-28T14:24:29.000Z</time>
      </trkpt>
      <trkpt lat="40.5177643708884716033935546875" lon="-7.2772233188152313232421875">
        <ele>916.20001220703125</ele>
        <time>2019-04-28T14:24:55.000Z</time>
      </trkpt>
      <trkpt lat="40.5182357691228389739990234375" lon="-7.27684236131608486175537109375">
        <ele>920.20001220703125</ele>
        <time>2019-04-28T14:25:19.000Z</time>
      </trkpt>
      <trkpt lat="40.51862913183867931365966796875" lon="-7.27632704190909862518310546875">
        <ele>925.20001220703125</ele>
        <time>2019-04-28T14:25:41.000Z</time>
      </trkpt>
      <trkpt lat="40.518932975828647613525390625" lon="-7.2757291607558727264404296875">
        <ele>930.20001220703125</ele>
        <time>2019-04-28T14:26:06.000Z</time>
      </trkpt>
      <trkpt lat="40.51921226084232330322265625" lon="-7.27509356103837490081787109375">
        <ele>929.4000244140625</ele>
        <time>2019-04-28T14:26:32.000Z</time>
      </trkpt>
      <trkpt lat="40.51951669156551361083984375" lon="-7.2744933329522609710693359375">
        <ele>927.79998779296875</ele>
        <time>2019-04-28T14:26:57.000Z</time>
      </trkpt>
      <trkpt lat="40.5197197012603282928466796875" lon="-7.27428185753524303436279296875">
        <ele>928.20001220703125</ele>
        <time>2019-04-28T14:27:14.000Z</time>
      </trkpt>
      <trkpt lat="40.51972992718219757080078125" lon="-7.274278588593006134033203125">
        <ele>928.20001220703125</ele>
        <time>2019-04-28T14:28:41.000Z</time>
      </trkpt>
      <trkpt lat="40.51974476315081119537353515625" lon="-7.274287976324558258056640625">
        <ele>928.4000244140625</ele>
        <time>2019-04-28T14:28:42.000Z</time>
      </trkpt>
      <trkpt lat="40.51983721554279327392578125" lon="-7.2742576338350772857666015625">
        <ele>928.4000244140625</ele>
        <time>2019-04-28T14:28:46.000Z</time>
      </trkpt>
      <trkpt lat="40.52038765512406826019287109375" lon="-7.27425277233123779296875">
        <ele>930.20001220703125</ele>
        <time>2019-04-28T14:29:09.000Z</time>
      </trkpt>
      <trkpt lat="40.520853437483310699462890625" lon="-7.2746294550597667694091796875">
        <ele>935</ele>
        <time>2019-04-28T14:29:32.000Z</time>
      </trkpt>
      <trkpt lat="40.5212897993624210357666015625" lon="-7.27506791241466999053955078125">
        <ele>939.5999755859375</ele>
        <time>2019-04-28T14:29:55.000Z</time>
      </trkpt>
      <trkpt lat="40.5217960663139820098876953125" lon="-7.27529690600931644439697265625">
        <ele>946</ele>
        <time>2019-04-28T14:30:16.000Z</time>
      </trkpt>
      <trkpt lat="40.5223325081169605255126953125" lon="-7.27515843696892261505126953125">
        <ele>948.79998779296875</ele>
        <time>2019-04-28T14:30:38.000Z</time>
      </trkpt>
      <trkpt lat="40.52285947836935520172119140625" lon="-7.27491368539631366729736328125">
        <ele>949.4000244140625</ele>
        <time>2019-04-28T14:30:59.000Z</time>
      </trkpt>
      <trkpt lat="40.5233812518417835235595703125" lon="-7.27468653582036495208740234375">
        <ele>952</ele>
        <time>2019-04-28T14:31:24.000Z</time>
      </trkpt>
      <trkpt lat="40.52391291595995426177978515625" lon="-7.27447045035660266876220703125">
        <ele>953.79998779296875</ele>
        <time>2019-04-28T14:31:53.000Z</time>
      </trkpt>
      <trkpt lat="40.5244457535445690155029296875" lon="-7.27451738901436328887939453125">
        <ele>951.79998779296875</ele>
        <time>2019-04-28T14:32:18.000Z</time>
      </trkpt>
      <trkpt lat="40.52466728724539279937744140625" lon="-7.2746671736240386962890625">
        <ele>953</ele>
        <time>2019-04-28T14:32:31.000Z</time>
      </trkpt>
      <trkpt lat="40.52507531829178333282470703125" lon="-7.27515391074120998382568359375">
        <ele>955.4000244140625</ele>
        <time>2019-04-28T14:32:57.000Z</time>
      </trkpt>
      <trkpt lat="40.52555627189576625823974609375" lon="-7.27549069561064243316650390625">
        <ele>958.79998779296875</ele>
        <time>2019-04-28T14:33:26.000Z</time>
      </trkpt>
      <trkpt lat="40.5257620476186275482177734375" lon="-7.27564257569611072540283203125">
        <ele>962.5999755859375</ele>
        <time>2019-04-28T14:33:35.000Z</time>
      </trkpt>
      <trkpt lat="40.525802113115787506103515625" lon="-7.2756641171872615814208984375">
        <ele>963.20001220703125</ele>
        <time>2019-04-28T14:33:37.000Z</time>
      </trkpt>
      <trkpt lat="40.52582566626369953155517578125" lon="-7.27570057846605777740478515625">
        <ele>964.20001220703125</ele>
        <time>2019-04-28T14:33:41.000Z</time>
      </trkpt>
      <trkpt lat="40.525836311280727386474609375" lon="-7.2757244668900966644287109375">
        <ele>964.5999755859375</ele>
        <time>2019-04-28T14:33:56.000Z</time>
      </trkpt>
      <trkpt lat="40.52589632570743560791015625" lon="-7.27586285211145877838134765625">
        <ele>967.20001220703125</ele>
        <time>2019-04-28T14:34:02.000Z</time>
      </trkpt>
      <trkpt lat="40.5264522135257720947265625" lon="-7.27589705027639865875244140625">
        <ele>971.5999755859375</ele>
        <time>2019-04-28T14:34:22.000Z</time>
      </trkpt>
      <trkpt lat="40.5269935168325901031494140625" lon="-7.27591373026371002197265625">
        <ele>974</ele>
        <time>2019-04-28T14:34:37.000Z</time>
      </trkpt>
      <trkpt lat="40.527546219527721405029296875" lon="-7.276001237332820892333984375">
        <ele>978.4000244140625</ele>
        <time>2019-04-28T14:34:55.000Z</time>
      </trkpt>
      <trkpt lat="40.52807268686592578887939453125" lon="-7.2758320905268192291259765625">
        <ele>979.5999755859375</ele>
        <time>2019-04-28T14:35:14.000Z</time>
      </trkpt>
      <trkpt lat="40.528537295758724212646484375" lon="-7.27546605281531810760498046875">
        <ele>983.79998779296875</ele>
        <time>2019-04-28T14:35:34.000Z</time>
      </trkpt>
      <trkpt lat="40.52898329682648181915283203125" lon="-7.2750602848827838897705078125">
        <ele>987.5999755859375</ele>
        <time>2019-04-28T14:35:54.000Z</time>
      </trkpt>
      <trkpt lat="40.529417730867862701416015625" lon="-7.27461461909115314483642578125">
        <ele>990.5999755859375</ele>
        <time>2019-04-28T14:36:14.000Z</time>
      </trkpt>
      <trkpt lat="40.5298537574708461761474609375" lon="-7.274192087352275848388671875">
        <ele>992.79998779296875</ele>
        <time>2019-04-28T14:36:33.000Z</time>
      </trkpt>
      <trkpt lat="40.53033404052257537841796875" lon="-7.27381481789052486419677734375">
        <ele>994.20001220703125</ele>
        <time>2019-04-28T14:36:51.000Z</time>
      </trkpt>
      <trkpt lat="40.5308280698955059051513671875" lon="-7.27351625449955463409423828125">
        <ele>996.20001220703125</ele>
        <time>2019-04-28T14:37:12.000Z</time>
      </trkpt>
      <trkpt lat="40.53133978508412837982177734375" lon="-7.27320360951125621795654296875">
        <ele>997.79998779296875</ele>
        <time>2019-04-28T14:37:30.000Z</time>
      </trkpt>
      <trkpt lat="40.5318432860076427459716796875" lon="-7.27291770279407501220703125">
        <ele>1003</ele>
        <time>2019-04-28T14:37:48.000Z</time>
      </trkpt>
      <trkpt lat="40.531934313476085662841796875" lon="-7.27286799810826778411865234375">
        <ele>1003.79998779296875</ele>
        <time>2019-04-28T14:37:53.000Z</time>
      </trkpt>
      <trkpt lat="40.5324404127895832061767578125" lon="-7.272547222673892974853515625">
        <ele>1005.4000244140625</ele>
        <time>2019-04-28T14:38:13.000Z</time>
      </trkpt>
      <trkpt lat="40.53288792259991168975830078125" lon="-7.2723559476435184478759765625">
        <ele>1005.5999755859375</ele>
        <time>2019-04-28T14:38:30.000Z</time>
      </trkpt>
      <trkpt lat="40.53337960503995418548583984375" lon="-7.27204388938844203948974609375">
        <ele>1006.5999755859375</ele>
        <time>2019-04-28T14:38:48.000Z</time>
      </trkpt>
      <trkpt lat="40.533797778189182281494140625" lon="-7.271550782024860382080078125">
        <ele>1007</ele>
        <time>2019-04-28T14:39:07.000Z</time>
      </trkpt>
      <trkpt lat="40.5339488200843334197998046875" lon="-7.27132120169699192047119140625">
        <ele>1009.4000244140625</ele>
        <time>2019-04-28T14:39:15.000Z</time>
      </trkpt>
      <trkpt lat="40.53401059471070766448974609375" lon="-7.2711345367133617401123046875">
        <ele>1010.79998779296875</ele>
        <time>2019-04-28T14:39:21.000Z</time>
      </trkpt>
      <trkpt lat="40.53401947952806949615478515625" lon="-7.27110142819583415985107421875">
        <ele>1011</ele>
        <time>2019-04-28T14:39:22.000Z</time>
      </trkpt>
      <trkpt lat="40.53409055806696414947509765625" lon="-7.27090043015778064727783203125">
        <ele>1012.5999755859375</ele>
        <time>2019-04-28T14:39:28.000Z</time>
      </trkpt>
      <trkpt lat="40.53436531685292720794677734375" lon="-7.27025100030004978179931640625">
        <ele>1011.79998779296875</ele>
        <time>2019-04-28T14:39:47.000Z</time>
      </trkpt>
      <trkpt lat="40.5347048677504062652587890625" lon="-7.26968890987336635589599609375">
        <ele>1011.5999755859375</ele>
        <time>2019-04-28T14:40:04.000Z</time>
      </trkpt>
      <trkpt lat="40.53517081774771213531494140625" lon="-7.269314825534820556640625">
        <ele>1014</ele>
        <time>2019-04-28T14:40:22.000Z</time>
      </trkpt>
      <trkpt lat="40.53550307638943195343017578125" lon="-7.26879992522299289703369140625">
        <ele>1014</ele>
        <time>2019-04-28T14:40:39.000Z</time>
      </trkpt>
      <trkpt lat="40.53539293818175792694091796875" lon="-7.26809182204306125640869140625">
        <ele>1010.20001220703125</ele>
        <time>2019-04-28T14:40:56.000Z</time>
      </trkpt>
      <trkpt lat="40.535444319248199462890625" lon="-7.2673998959362506866455078125">
        <ele>1011.4000244140625</ele>
        <time>2019-04-28T14:41:14.000Z</time>
      </trkpt>
      <trkpt lat="40.5355601571500301361083984375" lon="-7.2671980597078800201416015625">
        <ele>1011.79998779296875</ele>
        <time>2019-04-28T14:41:21.000Z</time>
      </trkpt>
      <trkpt lat="40.53550860844552516937255859375" lon="-7.26707409135997295379638671875">
        <ele>1011.5999755859375</ele>
        <time>2019-04-28T14:41:25.000Z</time>
      </trkpt>
      <trkpt lat="40.5352847278118133544921875" lon="-7.2667224705219268798828125">
        <ele>1009</ele>
        <time>2019-04-28T14:41:39.000Z</time>
      </trkpt>
      <trkpt lat="40.535174421966075897216796875" lon="-7.26683470420539379119873046875">
        <ele>1008.4000244140625</ele>
        <time>2019-04-28T14:41:43.000Z</time>
      </trkpt>
      <trkpt lat="40.53501851856708526611328125" lon="-7.2669908590614795684814453125">
        <ele>1007.4000244140625</ele>
        <time>2019-04-28T14:41:49.000Z</time>
      </trkpt>
      <trkpt lat="40.5345838330686092376708984375" lon="-7.26656497456133365631103515625">
        <ele>1000.5999755859375</ele>
        <time>2019-04-28T14:42:05.000Z</time>
      </trkpt>
      <trkpt lat="40.53438392467796802520751953125" lon="-7.2663172893226146697998046875">
        <ele>996.5999755859375</ele>
        <time>2019-04-28T14:42:15.000Z</time>
      </trkpt>
      <trkpt lat="40.5343783088028430938720703125" lon="-7.26630195043981075286865234375">
        <ele>996.4000244140625</ele>
        <time>2019-04-28T14:42:36.000Z</time>
      </trkpt>
      <trkpt lat="40.53425283171236515045166015625" lon="-7.2661040537059307098388671875">
        <ele>993.4000244140625</ele>
        <time>2019-04-28T14:42:42.000Z</time>
      </trkpt>
      <trkpt lat="40.53399860858917236328125" lon="-7.2657872177660465240478515625">
        <ele>987.5999755859375</ele>
        <time>2019-04-28T14:42:50.000Z</time>
      </trkpt>
      <trkpt lat="40.533599294722080230712890625" lon="-7.2652708925306797027587890625">
        <ele>982.79998779296875</ele>
        <time>2019-04-28T14:43:03.000Z</time>
      </trkpt>
      <trkpt lat="40.53339779376983642578125" lon="-7.2652467526495456695556640625">
        <ele>983.4000244140625</ele>
        <time>2019-04-28T14:43:10.000Z</time>
      </trkpt>
      <trkpt lat="40.532992444932460784912109375" lon="-7.265758551657199859619140625">
        <ele>987.5999755859375</ele>
        <time>2019-04-28T14:43:32.000Z</time>
      </trkpt>
      <trkpt lat="40.5328055284917354583740234375" lon="-7.26602400653064250946044921875">
        <ele>988.5999755859375</ele>
        <time>2019-04-28T14:43:39.000Z</time>
      </trkpt>
      <trkpt lat="40.53266848437488079071044921875" lon="-7.26620472036302089691162109375">
        <ele>989.20001220703125</ele>
        <time>2019-04-28T14:43:43.000Z</time>
      </trkpt>
      <trkpt lat="40.532848946750164031982421875" lon="-7.26645223796367645263671875">
        <ele>993</ele>
        <time>2019-04-28T14:43:58.000Z</time>
      </trkpt>
      <trkpt lat="40.53289932198822498321533203125" lon="-7.266462631523609161376953125">
        <ele>993.5999755859375</ele>
        <time>2019-04-28T14:44:01.000Z</time>
      </trkpt>
      <trkpt lat="40.532999821007251739501953125" lon="-7.26653446443378925323486328125">
        <ele>995</ele>
        <time>2019-04-28T14:44:08.000Z</time>
      </trkpt>
      <trkpt lat="40.533134937286376953125" lon="-7.2666803933680057525634765625">
        <ele>996</ele>
        <time>2019-04-28T14:44:19.000Z</time>
      </trkpt>
      <trkpt lat="40.53317676298320293426513671875" lon="-7.26673093624413013458251953125">
        <ele>996.20001220703125</ele>
        <time>2019-04-28T14:44:23.000Z</time>
      </trkpt>
      <trkpt lat="40.53317056037485599517822265625" lon="-7.26681794039905071258544921875">
        <ele>996.79998779296875</ele>
        <time>2019-04-28T14:44:28.000Z</time>
      </trkpt>
      <trkpt lat="40.53315899334847927093505859375" lon="-7.266856916248798370361328125">
        <ele>997</ele>
        <time>2019-04-28T14:44:32.000Z</time>
      </trkpt>
      <trkpt lat="40.53319972939789295196533203125" lon="-7.26683822460472583770751953125">
        <ele>996.79998779296875</ele>
        <time>2019-04-28T14:48:58.000Z</time>
      </trkpt>
      <trkpt lat="40.53322906605899333953857421875" lon="-7.266996391117572784423828125">
        <ele>997.5999755859375</ele>
        <time>2019-04-28T14:49:09.000Z</time>
      </trkpt>
      <trkpt lat="40.53317793644964694976806640625" lon="-7.26733912713825702667236328125">
        <ele>1000</ele>
        <time>2019-04-28T14:49:26.000Z</time>
      </trkpt>
      <trkpt lat="40.5331750027835369110107421875" lon="-7.26734650321304798126220703125">
        <ele>1000.20001220703125</ele>
        <time>2019-04-28T14:49:28.000Z</time>
      </trkpt>
      <trkpt lat="40.53317089565098285675048828125" lon="-7.26731096394360065460205078125">
        <ele>999.79998779296875</ele>
        <time>2019-04-28T14:50:08.000Z</time>
      </trkpt>
      <trkpt lat="40.53316117264330387115478515625" lon="-7.2671983949840068817138671875">
        <ele>999</ele>
        <time>2019-04-28T14:50:14.000Z</time>
      </trkpt>
      <trkpt lat="40.533149354159832000732421875" lon="-7.2668785415589809417724609375">
        <ele>997.20001220703125</ele>
        <time>2019-04-28T14:50:27.000Z</time>
      </trkpt>
      <trkpt lat="40.53301666863262653350830078125" lon="-7.26695674471557140350341796875">
        <ele>998</ele>
        <time>2019-04-28T14:50:35.000Z</time>
      </trkpt>
      <trkpt lat="40.53253957070410251617431640625" lon="-7.26717517711222171783447265625">
        <ele>996.4000244140625</ele>
        <time>2019-04-28T14:50:55.000Z</time>
      </trkpt>
      <trkpt lat="40.5325430072844028472900390625" lon="-7.26717601530253887176513671875">
        <ele>996.5999755859375</ele>
        <time>2019-04-28T14:50:56.000Z</time>
      </trkpt>
      <trkpt lat="40.532407723367214202880859375" lon="-7.26780231110751628875732421875">
        <ele>997</ele>
        <time>2019-04-29T07:35:44.000Z</time>
      </trkpt>
      <trkpt lat="40.5324216373264789581298828125" lon="-7.26780046708881855010986328125">
        <ele>997</ele>
        <time>2019-04-29T07:35:45.000Z</time>
      </trkpt>
      <trkpt lat="40.53251341916620731353759765625" lon="-7.26733468472957611083984375">
        <ele>997.20001220703125</ele>
        <time>2019-04-29T07:35:57.000Z</time>
      </trkpt>
      <trkpt lat="40.532488189637660980224609375" lon="-7.2671068646013736724853515625">
        <ele>995.5999755859375</ele>
        <time>2019-04-29T07:36:06.000Z</time>
      </trkpt>
      <trkpt lat="40.53252699784934520721435546875" lon="-7.2670280747115612030029296875">
        <ele>995.4000244140625</ele>
        <time>2019-04-29T07:36:13.000Z</time>
      </trkpt>
      <trkpt lat="40.5326958931982517242431640625" lon="-7.26697099395096302032470703125">
        <ele>996.20001220703125</ele>
        <time>2019-04-29T07:36:43.000Z</time>
      </trkpt>
      <trkpt lat="40.53289898671209812164306640625" lon="-7.266876697540283203125">
        <ele>996.79998779296875</ele>
        <time>2019-04-29T07:36:52.000Z</time>
      </trkpt>
      <trkpt lat="40.53298666141927242279052734375" lon="-7.26685347966849803924560546875">
        <ele>997.20001220703125</ele>
        <time>2019-04-29T07:36:57.000Z</time>
      </trkpt>
      <trkpt lat="40.5330529622733592987060546875" lon="-7.2668436728417873382568359375">
        <ele>997.20001220703125</ele>
        <time>2019-04-29T07:37:02.000Z</time>
      </trkpt>
      <trkpt lat="40.53317776881158351898193359375" lon="-7.26685381494462490081787109375">
        <ele>997</ele>
        <time>2019-04-29T07:37:12.000Z</time>
      </trkpt>
      <trkpt lat="40.53314901888370513916015625" lon="-7.26692338474094867706298828125">
        <ele>997.4000244140625</ele>
        <time>2019-04-29T07:37:18.000Z</time>
      </trkpt>
      <trkpt lat="40.533142983913421630859375" lon="-7.2669258154928684234619140625">
        <ele>997.4000244140625</ele>
        <time>2019-04-29T07:37:20.000Z</time>
      </trkpt>
      <trkpt lat="40.53320157341659069061279296875" lon="-7.26688516326248645782470703125">
        <ele>997</ele>
        <time>2019-04-29T07:39:27.000Z</time>
      </trkpt>
      <trkpt lat="40.53326996974647045135498046875" lon="-7.26682280190289020538330078125">
        <ele>996.5999755859375</ele>
        <time>2019-04-29T07:39:33.000Z</time>
      </trkpt>
      <trkpt lat="40.533635504543781280517578125" lon="-7.266311086714267730712890625">
        <ele>991.4000244140625</ele>
        <time>2019-04-29T07:39:57.000Z</time>
      </trkpt>
      <trkpt lat="40.5339555256068706512451171875" lon="-7.26580808870494365692138671875">
        <ele>987.4000244140625</ele>
        <time>2019-04-29T07:40:15.000Z</time>
      </trkpt>
      <trkpt lat="40.53394496440887451171875" lon="-7.26577992551028728485107421875">
        <ele>987</ele>
        <time>2019-04-29T07:40:19.000Z</time>
      </trkpt>
      <trkpt lat="40.53393088281154632568359375" lon="-7.265759222209453582763671875">
        <ele>986.5999755859375</ele>
        <time>2019-04-29T07:40:37.000Z</time>
      </trkpt>
      <trkpt lat="40.53377531468868255615234375" lon="-7.26527701131999492645263671875">
        <ele>982.4000244140625</ele>
        <time>2019-04-29T07:40:50.000Z</time>
      </trkpt>
      <trkpt lat="40.53376047872006893157958984375" lon="-7.265160083770751953125">
        <ele>981.5999755859375</ele>
        <time>2019-04-29T07:40:52.000Z</time>
      </trkpt>
      <trkpt lat="40.5337241850793361663818359375" lon="-7.26480276323854923248291015625">
        <ele>979</ele>
        <time>2019-04-29T07:40:58.000Z</time>
      </trkpt>
      <trkpt lat="40.53359937854111194610595703125" lon="-7.26409365423023700714111328125">
        <ele>974.4000244140625</ele>
        <time>2019-04-29T07:41:12.000Z</time>
      </trkpt>
      <trkpt lat="40.533589236438274383544921875" lon="-7.26382241584360599517822265625">
        <ele>972.20001220703125</ele>
        <time>2019-04-29T07:41:24.000Z</time>
      </trkpt>
      <trkpt lat="40.53361832164227962493896484375" lon="-7.26376407779753208160400390625">
        <ele>971.5999755859375</ele>
        <time>2019-04-29T07:44:05.000Z</time>
      </trkpt>
      <trkpt lat="40.5339508317410945892333984375" lon="-7.2631499357521533966064453125">
        <ele>964.79998779296875</ele>
        <time>2019-04-29T07:44:20.000Z</time>
      </trkpt>
      <trkpt lat="40.5340789072215557098388671875" lon="-7.26297609508037567138671875">
        <ele>963.4000244140625</ele>
        <time>2019-04-29T07:44:24.000Z</time>
      </trkpt>
      <trkpt lat="40.53421293385326862335205078125" lon="-7.26289160549640655517578125">
        <ele>962.5999755859375</ele>
        <time>2019-04-29T07:44:28.000Z</time>
      </trkpt>
      <trkpt lat="40.5343900434672832489013671875" lon="-7.26267845369875431060791015625">
        <ele>961</ele>
        <time>2019-04-29T07:44:34.000Z</time>
      </trkpt>
      <trkpt lat="40.5346096493303775787353515625" lon="-7.262641154229640960693359375">
        <ele>961</ele>
        <time>2019-04-29T07:44:40.000Z</time>
      </trkpt>
      <trkpt lat="40.53481332957744598388671875" lon="-7.2627056948840618133544921875">
        <ele>962.79998779296875</ele>
        <time>2019-04-29T07:44:45.000Z</time>
      </trkpt>
      <trkpt lat="40.53499278612434864044189453125" lon="-7.262759506702423095703125">
        <ele>964.20001220703125</ele>
        <time>2019-04-29T07:44:49.000Z</time>
      </trkpt>
      <trkpt lat="40.5351869948208332061767578125" lon="-7.2627898491919040679931640625">
        <ele>965.20001220703125</ele>
        <time>2019-04-29T07:44:53.000Z</time>
      </trkpt>
      <trkpt lat="40.53533744998276233673095703125" lon="-7.26276931352913379669189453125">
        <ele>966</ele>
        <time>2019-04-29T07:44:56.000Z</time>
      </trkpt>
      <trkpt lat="40.5356842093169689178466796875" lon="-7.2626513801515102386474609375">
        <ele>966.20001220703125</ele>
        <time>2019-04-29T07:45:03.000Z</time>
      </trkpt>
      <trkpt lat="40.53608863614499568939208984375" lon="-7.26248298771679401397705078125">
        <ele>965.79998779296875</ele>
        <time>2019-04-29T07:45:10.000Z</time>
      </trkpt>
      <trkpt lat="40.53618703968822956085205078125" lon="-7.2623955644667148590087890625">
        <ele>965</ele>
        <time>2019-04-29T07:45:12.000Z</time>
      </trkpt>
      <trkpt lat="40.53632919676601886749267578125" lon="-7.26213228888809680938720703125">
        <ele>961.4000244140625</ele>
        <time>2019-04-29T07:45:16.000Z</time>
      </trkpt>
      <trkpt lat="40.53650253452360630035400390625" lon="-7.2618165425956249237060546875">
        <ele>955.5999755859375</ele>
        <time>2019-04-29T07:45:21.000Z</time>
      </trkpt>
      <trkpt lat="40.53671660833060741424560546875" lon="-7.26167111657559871673583984375">
        <ele>952.4000244140625</ele>
        <time>2019-04-29T07:45:25.000Z</time>
      </trkpt>
      <trkpt lat="40.536844432353973388671875" lon="-7.26162166334688663482666015625">
        <ele>951.20001220703125</ele>
        <time>2019-04-29T07:45:27.000Z</time>
      </trkpt>
      <trkpt lat="40.5373917706310749053955078125" lon="-7.2614873014390468597412109375">
        <ele>947</ele>
        <time>2019-04-29T07:45:36.000Z</time>
      </trkpt>
      <trkpt lat="40.5376784317195415496826171875" lon="-7.2615734674036502838134765625">
        <ele>945.79998779296875</ele>
        <time>2019-04-29T07:45:41.000Z</time>
      </trkpt>
      <trkpt lat="40.5377255380153656005859375" lon="-7.26161596365272998809814453125">
        <ele>946</ele>
        <time>2019-04-29T07:45:42.000Z</time>
      </trkpt>
      <trkpt lat="40.53789786994457244873046875" lon="-7.26183791644871234893798828125">
        <ele>946.5999755859375</ele>
        <time>2019-04-29T07:45:46.000Z</time>
      </trkpt>
      <trkpt lat="40.53819702006876468658447265625" lon="-7.2622550837695598602294921875">
        <ele>947</ele>
        <time>2019-04-29T07:45:53.000Z</time>
      </trkpt>
      <trkpt lat="40.538421235978603363037109375" lon="-7.26233848370611667633056640625">
        <ele>948.20001220703125</ele>
        <time>2019-04-29T07:45:59.000Z</time>
      </trkpt>
      <trkpt lat="40.538446716964244842529296875" lon="-7.2623412497341632843017578125">
        <ele>948.20001220703125</ele>
        <time>2019-04-29T07:46:02.000Z</time>
      </trkpt>
      <trkpt lat="40.5384737066924571990966796875" lon="-7.262335717678070068359375">
        <ele>948.20001220703125</ele>
        <time>2019-04-29T07:46:22.000Z</time>
      </trkpt>
      <trkpt lat="40.53893831558525562286376953125" lon="-7.262004129588603973388671875">
        <ele>945.5999755859375</ele>
        <time>2019-04-29T07:46:38.000Z</time>
      </trkpt>
      <trkpt lat="40.539239309728145599365234375" lon="-7.26145151071250438690185546875">
        <ele>940.79998779296875</ele>
        <time>2019-04-29T07:46:53.000Z</time>
      </trkpt>
      <trkpt lat="40.539250709116458892822265625" lon="-7.26139367558062076568603515625">
        <ele>940.20001220703125</ele>
        <time>2019-04-29T07:46:54.000Z</time>
      </trkpt>
      <trkpt lat="40.53956888616085052490234375" lon="-7.26145369000732898712158203125">
        <ele>942.79998779296875</ele>
        <time>2019-04-29T07:47:03.000Z</time>
      </trkpt>
      <trkpt lat="40.540044642984867095947265625" lon="-7.2617012076079845428466796875">
        <ele>948</ele>
        <time>2019-04-29T07:47:23.000Z</time>
      </trkpt>
      <trkpt lat="40.5405695177614688873291015625" lon="-7.26188200525939464569091796875">
        <ele>949</ele>
        <time>2019-04-29T07:47:45.000Z</time>
      </trkpt>
      <trkpt lat="40.54098165594041347503662109375" lon="-7.2623611986637115478515625">
        <ele>947.79998779296875</ele>
        <time>2019-04-29T07:48:06.000Z</time>
      </trkpt>
      <trkpt lat="40.54126999340951442718505859375" lon="-7.26295597851276397705078125">
        <ele>951.79998779296875</ele>
        <time>2019-04-29T07:48:28.000Z</time>
      </trkpt>
      <trkpt lat="40.541499741375446319580078125" lon="-7.26361286826431751251220703125">
        <ele>956.5999755859375</ele>
        <time>2019-04-29T07:48:53.000Z</time>
      </trkpt>
      <trkpt lat="40.54170534946024417877197265625" lon="-7.26397228427231311798095703125">
        <ele>960</ele>
        <time>2019-04-29T07:49:08.000Z</time>
      </trkpt>
      <trkpt lat="40.54182202555239200592041015625" lon="-7.26381361484527587890625">
        <ele>957.5999755859375</ele>
        <time>2019-04-29T07:49:19.000Z</time>
      </trkpt>
      <trkpt lat="40.54236802272498607635498046875" lon="-7.263946719467639923095703125">
        <ele>958</ele>
        <time>2019-04-29T07:49:39.000Z</time>
      </trkpt>
      <trkpt lat="40.54276448674499988555908203125" lon="-7.26440034806728363037109375">
        <ele>955</ele>
        <time>2019-04-29T07:49:59.000Z</time>
      </trkpt>
      <trkpt lat="40.5430458672344684600830078125" lon="-7.2650167532265186309814453125">
        <ele>949.5999755859375</ele>
        <time>2019-04-29T07:50:21.000Z</time>
      </trkpt>
      <trkpt lat="40.5430032871663570404052734375" lon="-7.2657248564064502716064453125">
        <ele>955.5999755859375</ele>
        <time>2019-04-29T07:50:44.000Z</time>
      </trkpt>
      <trkpt lat="40.54297151975333690643310546875" lon="-7.26645626127719879150390625">
        <ele>956</ele>
        <time>2019-04-29T07:51:07.000Z</time>
      </trkpt>
      <trkpt lat="40.542742274701595306396484375" lon="-7.267115749418735504150390625">
        <ele>958.79998779296875</ele>
        <time>2019-04-29T07:51:29.000Z</time>
      </trkpt>
      <trkpt lat="40.54242585785686969757080078125" lon="-7.26770424284040927886962890625">
        <ele>962.20001220703125</ele>
        <time>2019-04-29T07:51:50.000Z</time>
      </trkpt>
      <trkpt lat="40.5420527793467044830322265625" lon="-7.26824604906141757965087890625">
        <ele>965.4000244140625</ele>
        <time>2019-04-29T07:52:11.000Z</time>
      </trkpt>
      <trkpt lat="40.5416628532111644744873046875" lon="-7.26877368986606597900390625">
        <ele>971.20001220703125</ele>
        <time>2019-04-29T07:52:33.000Z</time>
      </trkpt>
      <trkpt lat="40.54133621044456958770751953125" lon="-7.26935531012713909149169921875">
        <ele>974.5999755859375</ele>
        <time>2019-04-29T07:52:55.000Z</time>
      </trkpt>
      <trkpt lat="40.54109799675643444061279296875" lon="-7.2699969448149204254150390625">
        <ele>976.4000244140625</ele>
        <time>2019-04-29T07:53:17.000Z</time>
      </trkpt>
      <trkpt lat="40.54087084718048572540283203125" lon="-7.2706336341798305511474609375">
        <ele>978.20001220703125</ele>
        <time>2019-04-29T07:53:39.000Z</time>
      </trkpt>
      <trkpt lat="40.54073120467364788055419921875" lon="-7.27104292251169681549072265625">
        <ele>979.79998779296875</ele>
        <time>2019-04-29T07:53:55.000Z</time>
      </trkpt>
      <trkpt lat="40.54072030819952487945556640625" lon="-7.27105029858648777008056640625">
        <ele>980.20001220703125</ele>
        <time>2019-04-29T07:54:00.000Z</time>
      </trkpt>
      <trkpt lat="40.5405832640826702117919921875" lon="-7.2711006738245487213134765625">
        <ele>985.4000244140625</ele>
        <time>2019-04-29T07:54:06.000Z</time>
      </trkpt>
      <trkpt lat="40.5404183082282543182373046875" lon="-7.27136612869799137115478515625">
        <ele>988</ele>
        <time>2019-04-29T07:54:20.000Z</time>
      </trkpt>
      <trkpt lat="40.54038402624428272247314453125" lon="-7.271406948566436767578125">
        <ele>988.4000244140625</ele>
        <time>2019-04-29T07:54:27.000Z</time>
      </trkpt>
      <trkpt lat="40.54006618447601795196533203125" lon="-7.272012121975421905517578125">
        <ele>989.4000244140625</ele>
        <time>2019-04-29T07:54:49.000Z</time>
      </trkpt>
      <trkpt lat="40.53973761387169361114501953125" lon="-7.2725906409323215484619140625">
        <ele>991</ele>
        <time>2019-04-29T07:55:11.000Z</time>
      </trkpt>
      <trkpt lat="40.53955287672579288482666015625" lon="-7.27292046882212162017822265625">
        <ele>994</ele>
        <time>2019-04-29T07:55:26.000Z</time>
      </trkpt>
      <trkpt lat="40.53947777487337589263916015625" lon="-7.2736358642578125">
        <ele>991.20001220703125</ele>
        <time>2019-04-29T07:55:42.000Z</time>
      </trkpt>
      <trkpt lat="40.53957366384565830230712890625" lon="-7.27435444481670856475830078125">
        <ele>986.20001220703125</ele>
        <time>2019-04-29T07:55:57.000Z</time>
      </trkpt>
      <trkpt lat="40.5395432375371456146240234375" lon="-7.2744574584066867828369140625">
        <ele>986.20001220703125</ele>
        <time>2019-04-29T07:55:59.000Z</time>
      </trkpt>
      <trkpt lat="40.5393926985561847686767578125" lon="-7.27473221719264984130859375">
        <ele>986.79998779296875</ele>
        <time>2019-04-29T07:56:05.000Z</time>
      </trkpt>
      <trkpt lat="40.53935472853481769561767578125" lon="-7.2750346362590789794921875">
        <ele>985.79998779296875</ele>
        <time>2019-04-29T07:56:10.000Z</time>
      </trkpt>
      <trkpt lat="40.5392924509942531585693359375" lon="-7.27581038139760494232177734375">
        <ele>979.20001220703125</ele>
        <time>2019-04-29T07:56:19.000Z</time>
      </trkpt>
      <trkpt lat="40.5392351187765598297119140625" lon="-7.2765331529080867767333984375">
        <ele>977.20001220703125</ele>
        <time>2019-04-29T07:56:26.000Z</time>
      </trkpt>
      <trkpt lat="40.53914736025035381317138671875" lon="-7.2772959060966968536376953125">
        <ele>973.4000244140625</ele>
        <time>2019-04-29T07:56:33.000Z</time>
      </trkpt>
      <trkpt lat="40.5390641279518604278564453125" lon="-7.27801767177879810333251953125">
        <ele>969</ele>
        <time>2019-04-29T07:56:41.000Z</time>
      </trkpt>
      <trkpt lat="40.53902682848274707794189453125" lon="-7.27832294069230556488037109375">
        <ele>967.4000244140625</ele>
        <time>2019-04-29T07:56:49.000Z</time>
      </trkpt>
      <trkpt lat="40.53902129642665386199951171875" lon="-7.2782950289547443389892578125">
        <ele>967.79998779296875</ele>
        <time>2019-04-29T07:58:13.000Z</time>
      </trkpt>
      <trkpt lat="40.5390419997274875640869140625" lon="-7.27810383774340152740478515625">
        <ele>968.79998779296875</ele>
        <time>2019-04-29T07:58:18.000Z</time>
      </trkpt>
      <trkpt lat="40.5391417443752288818359375" lon="-7.2774239815771579742431640625">
        <ele>972.4000244140625</ele>
        <time>2019-04-29T07:58:36.000Z</time>
      </trkpt>
      <trkpt lat="40.5392146669328212738037109375" lon="-7.27669601328670978546142578125">
        <ele>976.79998779296875</ele>
        <time>2019-04-29T07:58:57.000Z</time>
      </trkpt>
      <trkpt lat="40.53923704661428928375244140625" lon="-7.27654983289539813995361328125">
        <ele>977.20001220703125</ele>
        <time>2019-04-29T07:59:05.000Z</time>
      </trkpt>
      <trkpt lat="40.53924500942230224609375" lon="-7.2765579633414745330810546875">
        <ele>977</ele>
        <time>2019-04-29T07:59:18.000Z</time>
      </trkpt>
      <trkpt lat="40.53940451703965663909912109375" lon="-7.27643835358321666717529296875">
        <ele>974.20001220703125</ele>
        <time>2019-04-29T07:59:25.000Z</time>
      </trkpt>
      <trkpt lat="40.53957693278789520263671875" lon="-7.27626250125467777252197265625">
        <ele>971.20001220703125</ele>
        <time>2019-04-29T07:59:33.000Z</time>
      </trkpt>
      <trkpt lat="40.5395928584039211273193359375" lon="-7.27626099251210689544677734375">
        <ele>971</ele>
        <time>2019-04-29T07:59:36.000Z</time>
      </trkpt>
      <trkpt lat="40.53966142237186431884765625" lon="-7.27626803331077098846435546875">
        <ele>969.5999755859375</ele>
        <time>2019-04-29T07:59:48.000Z</time>
      </trkpt>
      <trkpt lat="40.53993768990039825439453125" lon="-7.27608296088874340057373046875">
        <ele>967.20001220703125</ele>
        <time>2019-04-29T08:00:05.000Z</time>
      </trkpt>
      <trkpt lat="40.540021173655986785888671875" lon="-7.27612604387104511260986328125">
        <ele>966</ele>
        <time>2019-04-29T08:00:40.000Z</time>
      </trkpt>
      <trkpt lat="40.54044353775680065155029296875" lon="-7.2765794210135936737060546875">
        <ele>959.79998779296875</ele>
        <time>2019-04-29T08:00:57.000Z</time>
      </trkpt>
      <trkpt lat="40.540484525263309478759765625" lon="-7.27660180069506168365478515625">
        <ele>959.4000244140625</ele>
        <time>2019-04-29T08:00:58.000Z</time>
      </trkpt>
      <trkpt lat="40.5406395904719829559326171875" lon="-7.27668478153645992279052734375">
        <ele>956.79998779296875</ele>
        <time>2019-04-29T08:01:02.000Z</time>
      </trkpt>
      <trkpt lat="40.54081552661955356597900390625" lon="-7.276833392679691314697265625">
        <ele>953.4000244140625</ele>
        <time>2019-04-29T08:01:11.000Z</time>
      </trkpt>
      <trkpt lat="40.54110554046928882598876953125" lon="-7.2768144495785236358642578125">
        <ele>949.79998779296875</ele>
        <time>2019-04-29T08:01:24.000Z</time>
      </trkpt>
      <trkpt lat="40.54110579192638397216796875" lon="-7.27683934383094310760498046875">
        <ele>949.5999755859375</ele>
        <time>2019-04-29T08:01:27.000Z</time>
      </trkpt>
      <trkpt lat="40.54111073724925518035888671875" lon="-7.2768791578710079193115234375">
        <ele>949.20001220703125</ele>
        <time>2019-04-29T08:02:46.000Z</time>
      </trkpt>
      <trkpt lat="40.5413067899644374847412109375" lon="-7.27753856219351291656494140625">
        <ele>939.5999755859375</ele>
        <time>2019-04-29T08:03:08.000Z</time>
      </trkpt>
      <trkpt lat="40.541342161595821380615234375" lon="-7.27776168845593929290771484375">
        <ele>936</ele>
        <time>2019-04-29T08:03:18.000Z</time>
      </trkpt>
      <trkpt lat="40.54130829870700836181640625" lon="-7.2778910212218761444091796875">
        <ele>935</ele>
        <time>2019-04-29T08:03:25.000Z</time>
      </trkpt>
      <trkpt lat="40.541292540729045867919921875" lon="-7.27796670980751514434814453125">
        <ele>934.20001220703125</ele>
        <time>2019-04-29T08:03:29.000Z</time>
      </trkpt>
      <trkpt lat="40.54126563481986522674560546875" lon="-7.27804516442120075225830078125">
        <ele>933.79998779296875</ele>
        <time>2019-04-29T08:03:33.000Z</time>
      </trkpt>
      <trkpt lat="40.54126781411468982696533203125" lon="-7.27804566733539104461669921875">
        <ele>933.5999755859375</ele>
        <time>2019-04-29T08:03:35.000Z</time>
      </trkpt>
      <trkpt lat="40.5412605218589305877685546875" lon="-7.278088666498661041259765625">
        <ele>933.20001220703125</ele>
        <time>2019-04-29T08:04:08.000Z</time>
      </trkpt>
      <trkpt lat="40.5412440933287143707275390625" lon="-7.2781468369066715240478515625">
        <ele>932.79998779296875</ele>
        <time>2019-04-29T08:04:12.000Z</time>
      </trkpt>
      <trkpt lat="40.54122003726661205291748046875" lon="-7.27824314497411251068115234375">
        <ele>932</ele>
        <time>2019-04-29T08:04:16.000Z</time>
      </trkpt>
      <trkpt lat="40.54117863066494464874267578125" lon="-7.2783691249787807464599609375">
        <ele>931</ele>
        <time>2019-04-29T08:04:21.000Z</time>
      </trkpt>
      <trkpt lat="40.54112213663756847381591796875" lon="-7.27853718213737010955810546875">
        <ele>929.5999755859375</ele>
        <time>2019-04-29T08:04:27.000Z</time>
      </trkpt>
      <trkpt lat="40.5409222282469272613525390625" lon="-7.279189713299274444580078125">
        <ele>925.20001220703125</ele>
        <time>2019-04-29T08:04:50.000Z</time>
      </trkpt>
      <trkpt lat="40.540895573794841766357421875" lon="-7.279329858720302581787109375">
        <ele>924</ele>
        <time>2019-04-29T08:04:55.000Z</time>
      </trkpt>
      <trkpt lat="40.54103882052004337310791015625" lon="-7.2792770527303218841552734375">
        <ele>922.5999755859375</ele>
        <time>2019-04-29T08:05:02.000Z</time>
      </trkpt>
      <trkpt lat="40.5415693111717700958251953125" lon="-7.27916129864752292633056640625">
        <ele>915.20001220703125</ele>
        <time>2019-04-29T08:05:21.000Z</time>
      </trkpt>
      <trkpt lat="40.54158322513103485107421875" lon="-7.27916850708425045013427734375">
        <ele>914.79998779296875</ele>
        <time>2019-04-29T08:05:22.000Z</time>
      </trkpt>
      <trkpt lat="40.54159387014806270599365234375" lon="-7.27919281460344791412353515625">
        <ele>914.4000244140625</ele>
        <time>2019-04-29T08:05:25.000Z</time>
      </trkpt>
      <trkpt lat="40.54160535335540771484375" lon="-7.27922718040645122528076171875">
        <ele>914</ele>
        <time>2019-04-29T08:05:30.000Z</time>
      </trkpt>
      <trkpt lat="40.54172328673303127288818359375" lon="-7.27944485843181610107421875">
        <ele>910.20001220703125</ele>
        <time>2019-04-29T08:05:37.000Z</time>
      </trkpt>
      <trkpt lat="40.54198044352233409881591796875" lon="-7.27990359999239444732666015625">
        <ele>906.4000244140625</ele>
        <time>2019-04-29T08:05:50.000Z</time>
      </trkpt>
      <trkpt lat="40.54169931448996067047119140625" lon="-7.2804840467870235443115234375">
        <ele>909.4000244140625</ele>
        <time>2019-04-29T08:06:06.000Z</time>
      </trkpt>
      <trkpt lat="40.54167048074305057525634765625" lon="-7.2805386967957019805908203125">
        <ele>910</ele>
        <time>2019-04-29T08:06:07.000Z</time>
      </trkpt>
      <trkpt lat="40.5416361987590789794921875" lon="-7.2807772457599639892578125">
        <ele>911.79998779296875</ele>
        <time>2019-04-29T08:06:12.000Z</time>
      </trkpt>
      <trkpt lat="40.54192881099879741668701171875" lon="-7.28091336786746978759765625">
        <ele>911.4000244140625</ele>
        <time>2019-04-29T08:06:22.000Z</time>
      </trkpt>
      <trkpt lat="40.5424614809453487396240234375" lon="-7.28074430488049983978271484375">
        <ele>908</ele>
        <time>2019-04-29T08:06:38.000Z</time>
      </trkpt>
      <trkpt lat="40.54298090748488903045654296875" lon="-7.281005568802356719970703125">
        <ele>906.5999755859375</ele>
        <time>2019-04-29T08:06:56.000Z</time>
      </trkpt>
      <trkpt lat="40.54344291798770427703857421875" lon="-7.28140689432621002197265625">
        <ele>908.4000244140625</ele>
        <time>2019-04-29T08:07:13.000Z</time>
      </trkpt>
      <trkpt lat="40.54396075196564197540283203125" lon="-7.28168986737728118896484375">
        <ele>908.79998779296875</ele>
        <time>2019-04-29T08:07:30.000Z</time>
      </trkpt>
      <trkpt lat="40.54437431506812572479248046875" lon="-7.282158918678760528564453125">
        <ele>913.5999755859375</ele>
        <time>2019-04-29T08:07:48.000Z</time>
      </trkpt>
      <trkpt lat="40.5445703677833080291748046875" lon="-7.28281195275485515594482421875">
        <ele>920</ele>
        <time>2019-04-29T08:08:15.000Z</time>
      </trkpt>
      <trkpt lat="40.54463884793221950531005859375" lon="-7.2829020582139492034912109375">
        <ele>921</ele>
        <time>2019-04-29T08:08:21.000Z</time>
      </trkpt>
      <trkpt lat="40.5447234213352203369140625" lon="-7.28295394219458103179931640625">
        <ele>922</ele>
        <time>2019-04-29T08:08:27.000Z</time>
      </trkpt>
      <trkpt lat="40.54501486010849475860595703125" lon="-7.282842211425304412841796875">
        <ele>924</ele>
        <time>2019-04-29T08:08:46.000Z</time>
      </trkpt>
      <trkpt lat="40.54514025337994098663330078125" lon="-7.28282854892313480377197265625">
        <ele>925.20001220703125</ele>
        <time>2019-04-29T08:08:54.000Z</time>
      </trkpt>
      <trkpt lat="40.5456499569118022918701171875" lon="-7.2829989530146121978759765625">
        <ele>929.5999755859375</ele>
        <time>2019-04-29T08:09:27.000Z</time>
      </trkpt>
      <trkpt lat="40.54566009901463985443115234375" lon="-7.28301999159157276153564453125">
        <ele>929.79998779296875</ele>
        <time>2019-04-29T08:09:28.000Z</time>
      </trkpt>
      <trkpt lat="40.54601431824266910552978515625" lon="-7.28352407924830913543701171875">
        <ele>936</ele>
        <time>2019-04-29T08:10:00.000Z</time>
      </trkpt>
      <trkpt lat="40.54620592854917049407958984375" lon="-7.28358426131308078765869140625">
        <ele>938</ele>
        <time>2019-04-29T08:10:14.000Z</time>
      </trkpt>
      <trkpt lat="40.5462604947388172149658203125" lon="-7.28360471315681934356689453125">
        <ele>938.5999755859375</ele>
        <time>2019-04-29T08:10:18.000Z</time>
      </trkpt>
      <trkpt lat="40.54663441143929958343505859375" lon="-7.28403805755078792572021484375">
        <ele>946.4000244140625</ele>
        <time>2019-04-29T08:10:52.000Z</time>
      </trkpt>
      <trkpt lat="40.54669593460857868194580078125" lon="-7.2841073758900165557861328125">
        <ele>947.79998779296875</ele>
        <time>2019-04-29T08:10:56.000Z</time>
      </trkpt>
      <trkpt lat="40.547229610383510589599609375" lon="-7.2841556556522846221923828125">
        <ele>952.5999755859375</ele>
        <time>2019-04-29T08:11:31.000Z</time>
      </trkpt>
      <trkpt lat="40.547496490180492401123046875" lon="-7.28423553518950939178466796875">
        <ele>954.79998779296875</ele>
        <time>2019-04-29T08:11:51.000Z</time>
      </trkpt>
      <trkpt lat="40.54755809716880321502685546875" lon="-7.2842963039875030517578125">
        <ele>955.79998779296875</ele>
        <time>2019-04-29T08:11:57.000Z</time>
      </trkpt>
      <trkpt lat="40.54804265499114990234375" lon="-7.2846310772001743316650390625">
        <ele>961.5999755859375</ele>
        <time>2019-04-29T08:12:34.000Z</time>
      </trkpt>
      <trkpt lat="40.54857213981449604034423828125" lon="-7.28476242162287235260009765625">
        <ele>962.5999755859375</ele>
        <time>2019-04-29T08:13:06.000Z</time>
      </trkpt>
      <trkpt lat="40.54866987280547618865966796875" lon="-7.28475906886160373687744140625">
        <ele>962.4000244140625</ele>
        <time>2019-04-29T08:13:12.000Z</time>
      </trkpt>
      <trkpt lat="40.54901428520679473876953125" lon="-7.28481958620250225067138671875">
        <ele>962.79998779296875</ele>
        <time>2019-04-29T08:13:23.000Z</time>
      </trkpt>
      <trkpt lat="40.54913406260311603546142578125" lon="-7.28492335416376590728759765625">
        <ele>963.5999755859375</ele>
        <time>2019-04-29T08:13:26.000Z</time>
      </trkpt>
      <trkpt lat="40.54966949857771396636962890625" lon="-7.2850682772696018218994140625">
        <ele>965.4000244140625</ele>
        <time>2019-04-29T08:13:46.000Z</time>
      </trkpt>
      <trkpt lat="40.5502066947519779205322265625" lon="-7.28513357229530811309814453125">
        <ele>967</ele>
        <time>2019-04-29T08:14:06.000Z</time>
      </trkpt>
      <trkpt lat="40.55060391314327716827392578125" lon="-7.285213284194469451904296875">
        <ele>966.20001220703125</ele>
        <time>2019-04-29T08:14:21.000Z</time>
      </trkpt>
      <trkpt lat="40.55085352621972560882568359375" lon="-7.28533901274204254150390625">
        <ele>965.5999755859375</ele>
        <time>2019-04-29T08:14:32.000Z</time>
      </trkpt>
      <trkpt lat="40.55141008459031581878662109375" lon="-7.28538067080080509185791015625">
        <ele>963.79998779296875</ele>
        <time>2019-04-29T08:14:48.000Z</time>
      </trkpt>
      <trkpt lat="40.5519849993288516998291015625" lon="-7.28552349843084812164306640625">
        <ele>964.5999755859375</ele>
        <time>2019-04-29T08:15:04.000Z</time>
      </trkpt>
      <trkpt lat="40.5522331036627292633056640625" lon="-7.2856996022164821624755859375">
        <ele>963.79998779296875</ele>
        <time>2019-04-29T08:15:09.000Z</time>
      </trkpt>
      <trkpt lat="40.55236713029444217681884765625" lon="-7.28586799465119838714599609375">
        <ele>961.79998779296875</ele>
        <time>2019-04-29T08:15:12.000Z</time>
      </trkpt>
      <trkpt lat="40.55247693322598934173583984375" lon="-7.28633771650493144989013671875">
        <ele>956.4000244140625</ele>
        <time>2019-04-29T08:15:18.000Z</time>
      </trkpt>
      <trkpt lat="40.55249386467039585113525390625" lon="-7.2866459190845489501953125">
        <ele>952</ele>
        <time>2019-04-29T08:15:22.000Z</time>
      </trkpt>
      <trkpt lat="40.5529231019318103790283203125" lon="-7.28687365539371967315673828125">
        <ele>946.20001220703125</ele>
        <time>2019-04-29T08:15:32.000Z</time>
      </trkpt>
      <trkpt lat="40.552984289824962615966796875" lon="-7.28683308698236942291259765625">
        <ele>946.20001220703125</ele>
        <time>2019-04-29T08:15:33.000Z</time>
      </trkpt>
      <trkpt lat="40.5531021393835544586181640625" lon="-7.28675798512995243072509765625">
        <ele>946.20001220703125</ele>
        <time>2019-04-29T08:15:35.000Z</time>
      </trkpt>
      <trkpt lat="40.5534340627491474151611328125" lon="-7.28699888102710247039794921875">
        <ele>939.5999755859375</ele>
        <time>2019-04-29T08:15:41.000Z</time>
      </trkpt>
      <trkpt lat="40.55346868000924587249755859375" lon="-7.28704892098903656005859375">
        <ele>938.79998779296875</ele>
        <time>2019-04-29T08:15:42.000Z</time>
      </trkpt>
      <trkpt lat="40.553660877048969268798828125" lon="-7.2871313989162445068359375">
        <ele>936.4000244140625</ele>
        <time>2019-04-29T08:15:47.000Z</time>
      </trkpt>
      <trkpt lat="40.55375165306031703948974609375" lon="-7.2870913334190845489501953125">
        <ele>936.4000244140625</ele>
        <time>2019-04-29T08:15:52.000Z</time>
      </trkpt>
      <trkpt lat="40.55375785566866397857666015625" lon="-7.287091501057147979736328125">
        <ele>936.4000244140625</ele>
        <time>2019-04-29T08:16:25.000Z</time>
      </trkpt>
      <trkpt lat="40.55384838022291660308837890625" lon="-7.28695915080606937408447265625">
        <ele>937.5999755859375</ele>
        <time>2019-04-29T08:16:31.000Z</time>
      </trkpt>
      <trkpt lat="40.5543795414268970489501953125" lon="-7.2868314944207668304443359375">
        <ele>930.4000244140625</ele>
        <time>2019-04-29T08:16:46.000Z</time>
      </trkpt>
      <trkpt lat="40.5545545555651187896728515625" lon="-7.28686594404280185699462890625">
        <ele>927.79998779296875</ele>
        <time>2019-04-29T08:16:50.000Z</time>
      </trkpt>
      <trkpt lat="40.5548080243170261383056640625" lon="-7.28701447136700153350830078125">
        <ele>926.20001220703125</ele>
        <time>2019-04-29T08:17:02.000Z</time>
      </trkpt>
      <trkpt lat="40.55483509786427021026611328125" lon="-7.287033833563327789306640625">
        <ele>926</ele>
        <time>2019-04-29T08:18:01.000Z</time>
      </trkpt>
      <trkpt lat="40.55492989718914031982421875" lon="-7.28708446025848388671875">
        <ele>925.79998779296875</ele>
        <time>2019-04-29T08:18:08.000Z</time>
      </trkpt>
      <trkpt lat="40.55494238622486591339111328125" lon="-7.28709091432392597198486328125">
        <ele>925.79998779296875</ele>
        <time>2019-04-29T08:18:09.000Z</time>
      </trkpt>
      <trkpt lat="40.55501061491668224334716796875" lon="-7.2871208377182483673095703125">
        <ele>925.5999755859375</ele>
        <time>2019-04-29T08:18:14.000Z</time>
      </trkpt>
      <trkpt lat="40.55501815862953662872314453125" lon="-7.28712477721273899078369140625">
        <ele>925.5999755859375</ele>
        <time>2019-04-29T08:18:16.000Z</time>
      </trkpt>
      <trkpt lat="40.5550420470535755157470703125" lon="-7.28714405559003353118896484375">
        <ele>925.20001220703125</ele>
        <time>2019-04-29T08:18:25.000Z</time>
      </trkpt>
      <trkpt lat="40.55508169345557689666748046875" lon="-7.2871697880327701568603515625">
        <ele>924.5999755859375</ele>
        <time>2019-04-29T08:18:28.000Z</time>
      </trkpt>
      <trkpt lat="40.55530004203319549560546875" lon="-7.287294007837772369384765625">
        <ele>921.5999755859375</ele>
        <time>2019-04-29T08:18:48.000Z</time>
      </trkpt>
      <trkpt lat="40.5553454719483852386474609375" lon="-7.2873132862150669097900390625">
        <ele>921</ele>
        <time>2019-04-29T08:18:52.000Z</time>
      </trkpt>
      <trkpt lat="40.5553746409714221954345703125" lon="-7.28733457624912261962890625">
        <ele>920.5999755859375</ele>
        <time>2019-04-29T08:18:55.000Z</time>
      </trkpt>
      <trkpt lat="40.5554323084652423858642578125" lon="-7.2873635776340961456298828125">
        <ele>919.79998779296875</ele>
        <time>2019-04-29T08:19:00.000Z</time>
      </trkpt>
      <trkpt lat="40.55551461875438690185546875" lon="-7.287403643131256103515625">
        <ele>918.79998779296875</ele>
        <time>2019-04-29T08:19:08.000Z</time>
      </trkpt>
      <trkpt lat="40.55555108003318309783935546875" lon="-7.28742032311856746673583984375">
        <ele>918.4000244140625</ele>
        <time>2019-04-29T08:19:13.000Z</time>
      </trkpt>
      <trkpt lat="40.5555758066475391387939453125" lon="-7.28742585517466068267822265625">
        <ele>918.20001220703125</ele>
        <time>2019-04-29T08:19:40.000Z</time>
      </trkpt>
      <trkpt lat="40.555702708661556243896484375" lon="-7.28750355541706085205078125">
        <ele>917.4000244140625</ele>
        <time>2019-04-29T08:19:48.000Z</time>
      </trkpt>
      <trkpt lat="40.5562554113566875457763671875" lon="-7.28766540996730327606201171875">
        <ele>915.5999755859375</ele>
        <time>2019-04-29T08:19:59.000Z</time>
      </trkpt>
      <trkpt lat="40.55669956840574741363525390625" lon="-7.28783891536295413970947265625">
        <ele>915.20001220703125</ele>
        <time>2019-04-29T08:20:06.000Z</time>
      </trkpt>
      <trkpt lat="40.55712386034429073333740234375" lon="-7.2882825694978237152099609375">
        <ele>912.20001220703125</ele>
        <time>2019-04-29T08:20:14.000Z</time>
      </trkpt>
      <trkpt lat="40.55760799907147884368896484375" lon="-7.28881356306374073028564453125">
        <ele>902.79998779296875</ele>
        <time>2019-04-29T08:20:21.000Z</time>
      </trkpt>
      <trkpt lat="40.55805995129048824310302734375" lon="-7.289321087300777435302734375">
        <ele>900</ele>
        <time>2019-04-29T08:20:27.000Z</time>
      </trkpt>
      <trkpt lat="40.5582176148891448974609375" lon="-7.28944681584835052490234375">
        <ele>898.20001220703125</ele>
        <time>2019-04-29T08:20:29.000Z</time>
      </trkpt>
      <trkpt lat="40.55871524848043918609619140625" lon="-7.28975937701761722564697265625">
        <ele>895.20001220703125</ele>
        <time>2019-04-29T08:20:39.000Z</time>
      </trkpt>
      <trkpt lat="40.5587512068450450897216796875" lon="-7.28980564512312412261962890625">
        <ele>895</ele>
        <time>2019-04-29T08:20:43.000Z</time>
      </trkpt>
      <trkpt lat="40.5587599240243434906005859375" lon="-7.2898439504206180572509765625">
        <ele>895.20001220703125</ele>
        <time>2019-04-29T08:21:23.000Z</time>
      </trkpt>
      <trkpt lat="40.55877308361232280731201171875" lon="-7.28989516384899616241455078125">
        <ele>895.20001220703125</ele>
        <time>2019-04-29T08:21:25.000Z</time>
      </trkpt>
      <trkpt lat="40.5589356087148189544677734375" lon="-7.29012541472911834716796875">
        <ele>891</ele>
        <time>2019-04-29T08:21:34.000Z</time>
      </trkpt>
      <trkpt lat="40.5591002292931079864501953125" lon="-7.29021820239722728729248046875">
        <ele>886.79998779296875</ele>
        <time>2019-04-29T08:21:40.000Z</time>
      </trkpt>
      <trkpt lat="40.55923593230545520782470703125" lon="-7.29025927372276782989501953125">
        <ele>883.5999755859375</ele>
        <time>2019-04-29T08:21:43.000Z</time>
      </trkpt>
      <trkpt lat="40.55956265889108180999755859375" lon="-7.2901515662670135498046875">
        <ele>879.79998779296875</ele>
        <time>2019-04-29T08:21:51.000Z</time>
      </trkpt>
      <trkpt lat="40.5597459711134433746337890625" lon="-7.2899477183818817138671875">
        <ele>880</ele>
        <time>2019-04-29T08:21:56.000Z</time>
      </trkpt>
      <trkpt lat="40.559972785413265228271484375" lon="-7.290010750293731689453125">
        <ele>878.5999755859375</ele>
        <time>2019-04-29T08:22:02.000Z</time>
      </trkpt>
      <trkpt lat="40.56020085699856281280517578125" lon="-7.29014511220157146453857421875">
        <ele>876.79998779296875</ele>
        <time>2019-04-29T08:22:11.000Z</time>
      </trkpt>
      <trkpt lat="40.56023974902927875518798828125" lon="-7.290371172130107879638671875">
        <ele>874.20001220703125</ele>
        <time>2019-04-29T08:22:17.000Z</time>
      </trkpt>
      <trkpt lat="40.56015173904597759246826171875" lon="-7.29071977548301219940185546875">
        <ele>870.4000244140625</ele>
        <time>2019-04-29T08:22:30.000Z</time>
      </trkpt>
      <trkpt lat="40.56008988060057163238525390625" lon="-7.2907228767871856689453125">
        <ele>871</ele>
        <time>2019-04-29T08:22:35.000Z</time>
      </trkpt>
      <trkpt lat="40.5600520782172679901123046875" lon="-7.29075481183826923370361328125">
        <ele>871</ele>
        <time>2019-04-29T08:22:40.000Z</time>
      </trkpt>
      <trkpt lat="40.56001611985266208648681640625" lon="-7.29079655371606349945068359375">
        <ele>870.79998779296875</ele>
        <time>2019-04-29T08:22:47.000Z</time>
      </trkpt>
      <trkpt lat="40.56001025252044200897216796875" lon="-7.2908068634569644927978515625">
        <ele>870.79998779296875</ele>
        <time>2019-04-29T08:22:48.000Z</time>
      </trkpt>
      <trkpt lat="40.560013353824615478515625" lon="-7.29088204912841320037841796875">
        <ele>869.79998779296875</ele>
        <time>2019-04-29T08:22:52.000Z</time>
      </trkpt>
      <trkpt lat="40.56009256280958652496337890625" lon="-7.29113669134676456451416015625">
        <ele>866.4000244140625</ele>
        <time>2019-04-29T08:23:08.000Z</time>
      </trkpt>
      <trkpt lat="40.56006356142461299896240234375" lon="-7.29129762388765811920166015625">
        <ele>865</ele>
        <time>2019-04-29T08:23:16.000Z</time>
      </trkpt>
      <trkpt lat="40.5600229091942310333251953125" lon="-7.2914256155490875244140625">
        <ele>864.4000244140625</ele>
        <time>2019-04-29T08:23:25.000Z</time>
      </trkpt>
      <trkpt lat="40.560018382966518402099609375" lon="-7.29145872406661510467529296875">
        <ele>864.20001220703125</ele>
        <time>2019-04-29T08:23:28.000Z</time>
      </trkpt>
      <trkpt lat="40.55987966246902942657470703125" lon="-7.29208183474838733673095703125">
        <ele>855.20001220703125</ele>
        <time>2019-04-29T08:23:56.000Z</time>
      </trkpt>
      <trkpt lat="40.559850074350833892822265625" lon="-7.29224570095539093017578125">
        <ele>852.20001220703125</ele>
        <time>2019-04-29T08:24:10.000Z</time>
      </trkpt>
      <trkpt lat="40.55985837243497371673583984375" lon="-7.29228635318577289581298828125">
        <ele>851.4000244140625</ele>
        <time>2019-04-29T08:24:13.000Z</time>
      </trkpt>
      <trkpt lat="40.55953734554350376129150390625" lon="-7.29275523684918880462646484375">
        <ele>845.20001220703125</ele>
        <time>2019-04-29T08:24:33.000Z</time>
      </trkpt>
      <trkpt lat="40.5594804324209690093994140625" lon="-7.2931122221052646636962890625">
        <ele>840.4000244140625</ele>
        <time>2019-04-29T08:24:45.000Z</time>
      </trkpt>
      <trkpt lat="40.55948470719158649444580078125" lon="-7.29313929565250873565673828125">
        <ele>840.20001220703125</ele>
        <time>2019-04-29T08:24:52.000Z</time>
      </trkpt>
      <trkpt lat="40.559852086007595062255859375" lon="-7.29365293867886066436767578125">
        <ele>828.4000244140625</ele>
        <time>2019-04-29T08:25:27.000Z</time>
      </trkpt>
      <trkpt lat="40.55998644791543483734130859375" lon="-7.29395803995430469512939453125">
        <ele>820</ele>
        <time>2019-04-29T08:25:50.000Z</time>
      </trkpt>
      <trkpt lat="40.55961898528039455413818359375" lon="-7.2937162220478057861328125">
        <ele>831.20001220703125</ele>
        <time>2019-04-29T08:26:30.000Z</time>
      </trkpt>
      <trkpt lat="40.5596014671027660369873046875" lon="-7.2936939261853694915771484375">
        <ele>831.5999755859375</ele>
        <time>2019-04-29T08:26:32.000Z</time>
      </trkpt>
      <trkpt lat="40.55952460505068302154541015625" lon="-7.2937277890741825103759765625">
        <ele>831.20001220703125</ele>
        <time>2019-04-29T08:26:38.000Z</time>
      </trkpt>
      <trkpt lat="40.55913719348609447479248046875" lon="-7.29417965747416019439697265625">
        <ele>824.5999755859375</ele>
        <time>2019-04-29T08:27:16.000Z</time>
      </trkpt>
      <trkpt lat="40.5593030713498592376708984375" lon="-7.2945664823055267333984375">
        <ele>818</ele>
        <time>2019-04-29T08:27:47.000Z</time>
      </trkpt>
      <trkpt lat="40.559301562607288360595703125" lon="-7.29459942318499088287353515625">
        <ele>817.20001220703125</ele>
        <time>2019-04-29T08:27:53.000Z</time>
      </trkpt>
      <trkpt lat="40.559171140193939208984375" lon="-7.29483126662671566009521484375">
        <ele>813</ele>
        <time>2019-04-29T08:28:08.000Z</time>
      </trkpt>
      <trkpt lat="40.5591414682567119598388671875" lon="-7.2948415763676166534423828125">
        <ele>813.20001220703125</ele>
        <time>2019-04-29T08:28:14.000Z</time>
      </trkpt>
      <trkpt lat="40.5590946972370147705078125" lon="-7.2948821447789669036865234375">
        <ele>812.79998779296875</ele>
        <time>2019-04-29T08:28:18.000Z</time>
      </trkpt>
      <trkpt lat="40.55904817767441272735595703125" lon="-7.29498381726443767547607421875">
        <ele>811</ele>
        <time>2019-04-29T08:28:24.000Z</time>
      </trkpt>
      <trkpt lat="40.55910743772983551025390625" lon="-7.2950742579996585845947265625">
        <ele>808.4000244140625</ele>
        <time>2019-04-29T08:28:31.000Z</time>
      </trkpt>
      <trkpt lat="40.55910986848175525665283203125" lon="-7.29507551528513431549072265625">
        <ele>808.4000244140625</ele>
        <time>2019-04-29T08:28:33.000Z</time>
      </trkpt>
      <trkpt lat="40.55913015268743038177490234375" lon="-7.29508121497929096221923828125">
        <ele>808</ele>
        <time>2019-04-29T08:28:36.000Z</time>
      </trkpt>
      <trkpt lat="40.55965569801628589630126953125" lon="-7.294960431754589080810546875">
        <ele>803.4000244140625</ele>
        <time>2019-04-29T08:28:57.000Z</time>
      </trkpt>
      <trkpt lat="40.56019566021859645843505859375" lon="-7.29485674761235713958740234375">
        <ele>797.5999755859375</ele>
        <time>2019-04-29T08:29:14.000Z</time>
      </trkpt>
      <trkpt lat="40.56064442731440067291259765625" lon="-7.2946176119148731231689453125">
        <ele>794.4000244140625</ele>
        <time>2019-04-29T08:29:26.000Z</time>
      </trkpt>
      <trkpt lat="40.5607940442860126495361328125" lon="-7.2944858483970165252685546875">
        <ele>793.5999755859375</ele>
        <time>2019-04-29T08:29:30.000Z</time>
      </trkpt>
      <trkpt lat="40.56095925159752368927001953125" lon="-7.29412919841706752777099609375">
        <ele>795.5999755859375</ele>
        <time>2019-04-29T08:29:37.000Z</time>
      </trkpt>
      <trkpt lat="40.56142880581319332122802734375" lon="-7.2939547710120677947998046875">
        <ele>792.20001220703125</ele>
        <time>2019-04-29T08:29:56.000Z</time>
      </trkpt>
      <trkpt lat="40.56196893565356731414794921875" lon="-7.29403984732925891876220703125">
        <ele>779</ele>
        <time>2019-04-29T08:30:14.000Z</time>
      </trkpt>
      <trkpt lat="40.56236137636005878448486328125" lon="-7.29399005882441997528076171875">
        <ele>772.5999755859375</ele>
        <time>2019-04-29T08:30:33.000Z</time>
      </trkpt>
      <trkpt lat="40.562401525676250457763671875" lon="-7.2940313816070556640625">
        <ele>770.5999755859375</ele>
        <time>2019-04-29T08:33:10.000Z</time>
      </trkpt>
      <trkpt lat="40.56238383986055850982666015625" lon="-7.2940959222614765167236328125">
        <ele>769.4000244140625</ele>
        <time>2019-04-29T08:33:14.000Z</time>
      </trkpt>
      <trkpt lat="40.56212651543319225311279296875" lon="-7.294375039637088775634765625">
        <ele>770.79998779296875</ele>
        <time>2019-04-29T08:33:36.000Z</time>
      </trkpt>
      <trkpt lat="40.562094748020172119140625" lon="-7.29444771073758602142333984375">
        <ele>770.5999755859375</ele>
        <time>2019-04-29T08:33:41.000Z</time>
      </trkpt>
      <trkpt lat="40.5621760524809360504150390625" lon="-7.2944999299943447113037109375">
        <ele>768.20001220703125</ele>
        <time>2019-04-29T08:33:48.000Z</time>
      </trkpt>
      <trkpt lat="40.56271559558808803558349609375" lon="-7.29450839571654796600341796875">
        <ele>756</ele>
        <time>2019-04-29T08:34:22.000Z</time>
      </trkpt>
      <trkpt lat="40.56280980817973613739013671875" lon="-7.29447461664676666259765625">
        <ele>754.20001220703125</ele>
        <time>2019-04-29T08:34:28.000Z</time>
      </trkpt>
      <trkpt lat="40.56291407905519008636474609375" lon="-7.29441150091588497161865234375">
        <ele>752.5999755859375</ele>
        <time>2019-04-29T08:34:38.000Z</time>
      </trkpt>
      <trkpt lat="40.562916509807109832763671875" lon="-7.29437763802707195281982421875">
        <ele>753</ele>
        <time>2019-04-29T08:35:13.000Z</time>
      </trkpt>
      <trkpt lat="40.56293771602213382720947265625" lon="-7.29407236911356449127197265625">
        <ele>758</ele>
        <time>2019-04-29T08:35:29.000Z</time>
      </trkpt>
      <trkpt lat="40.56306780315935611724853515625" lon="-7.29392970912158489227294921875">
        <ele>759.4000244140625</ele>
        <time>2019-04-29T08:35:46.000Z</time>
      </trkpt>
      <trkpt lat="40.5630920268595218658447265625" lon="-7.2939229197800159454345703125">
        <ele>759.4000244140625</ele>
        <time>2019-04-29T08:35:50.000Z</time>
      </trkpt>
      <trkpt lat="40.563655458390712738037109375" lon="-7.29391965083777904510498046875">
        <ele>752.79998779296875</ele>
        <time>2019-04-29T08:36:10.000Z</time>
      </trkpt>
      <trkpt lat="40.56419382803142070770263671875" lon="-7.293845303356647491455078125">
        <ele>756.20001220703125</ele>
        <time>2019-04-29T08:36:31.000Z</time>
      </trkpt>
      <trkpt lat="40.5641950853168964385986328125" lon="-7.2938538528978824615478515625">
        <ele>756</ele>
        <time>2019-04-29T08:36:34.000Z</time>
      </trkpt>
      <trkpt lat="40.564224086701869964599609375" lon="-7.2939081676304340362548828125">
        <ele>755.5999755859375</ele>
        <time>2019-04-29T08:37:29.000Z</time>
      </trkpt>
      <trkpt lat="40.56435191072523593902587890625" lon="-7.294227182865142822265625">
        <ele>752.4000244140625</ele>
        <time>2019-04-29T08:37:43.000Z</time>
      </trkpt>
      <trkpt lat="40.56436364538967609405517578125" lon="-7.29436866939067840576171875">
        <ele>749.79998779296875</ele>
        <time>2019-04-29T08:37:50.000Z</time>
      </trkpt>
      <trkpt lat="40.56441343389451503753662109375" lon="-7.2944556735455989837646484375">
        <ele>747.79998779296875</ele>
        <time>2019-04-29T08:37:59.000Z</time>
      </trkpt>
      <trkpt lat="40.564472191035747528076171875" lon="-7.294578887522220611572265625">
        <ele>742.79998779296875</ele>
        <time>2019-04-29T08:38:08.000Z</time>
      </trkpt>
      <trkpt lat="40.56447043083608150482177734375" lon="-7.29457830078899860382080078125">
        <ele>742.79998779296875</ele>
        <time>2019-04-29T08:38:10.000Z</time>
      </trkpt>
      <trkpt lat="40.56445039808750152587890625" lon="-7.2946067154407501220703125">
        <ele>741.79998779296875</ele>
        <time>2019-04-29T08:39:18.000Z</time>
      </trkpt>
      <trkpt lat="40.56430832482874393463134765625" lon="-7.294735796749591827392578125">
        <ele>737</ele>
        <time>2019-04-29T08:39:30.000Z</time>
      </trkpt>
      <trkpt lat="40.56427513249218463897705078125" lon="-7.2948000021278858184814453125">
        <ele>734.5999755859375</ele>
        <time>2019-04-29T08:39:34.000Z</time>
      </trkpt>
      <trkpt lat="40.5642007850110530853271484375" lon="-7.2949699871242046356201171875">
        <ele>728</ele>
        <time>2019-04-29T08:39:46.000Z</time>
      </trkpt>
      <trkpt lat="40.56425417773425579071044921875" lon="-7.29502337984740734100341796875">
        <ele>726.4000244140625</ele>
        <time>2019-04-29T08:39:51.000Z</time>
      </trkpt>
      <trkpt lat="40.56436180137097835540771484375" lon="-7.29501231573522090911865234375">
        <ele>726.5999755859375</ele>
        <time>2019-04-29T08:39:58.000Z</time>
      </trkpt>
      <trkpt lat="40.56489338167011737823486328125" lon="-7.29514944367110729217529296875">
        <ele>720.79998779296875</ele>
        <time>2019-04-29T08:40:30.000Z</time>
      </trkpt>
      <trkpt lat="40.564999915659427642822265625" lon="-7.29515899904072284698486328125">
        <ele>720.20001220703125</ele>
        <time>2019-04-29T08:40:39.000Z</time>
      </trkpt>
      <trkpt lat="40.5650319345295429229736328125" lon="-7.295162938535213470458984375">
        <ele>720</ele>
        <time>2019-04-29T08:40:41.000Z</time>
      </trkpt>
      <trkpt lat="40.56559913791716098785400390625" lon="-7.2951285727322101593017578125">
        <ele>719</ele>
        <time>2019-04-29T08:40:59.000Z</time>
      </trkpt>
      <trkpt lat="40.56613407097756862640380859375" lon="-7.2952526248991489410400390625">
        <ele>709.4000244140625</ele>
        <time>2019-04-29T08:41:19.000Z</time>
      </trkpt>
      <trkpt lat="40.56666414253413677215576171875" lon="-7.295289337635040283203125">
        <ele>704.79998779296875</ele>
        <time>2019-04-29T08:41:41.000Z</time>
      </trkpt>
      <trkpt lat="40.5671880953013896942138671875" lon="-7.29548874311149120330810546875">
        <ele>694.5999755859375</ele>
        <time>2019-04-29T08:42:04.000Z</time>
      </trkpt>
      <trkpt lat="40.56727836839854717254638671875" lon="-7.295539118349552154541015625">
        <ele>691.4000244140625</ele>
        <time>2019-04-29T08:42:12.000Z</time>
      </trkpt>
      <trkpt lat="40.5673218704760074615478515625" lon="-7.295549847185611724853515625">
        <ele>690.4000244140625</ele>
        <time>2019-04-29T08:42:16.000Z</time>
      </trkpt>
      <trkpt lat="40.56733905337750911712646484375" lon="-7.29567850939929485321044921875">
        <ele>686.20001220703125</ele>
        <time>2019-04-29T08:42:24.000Z</time>
      </trkpt>
      <trkpt lat="40.5672943778336048126220703125" lon="-7.2959017194807529449462890625">
        <ele>680.5999755859375</ele>
        <time>2019-04-29T08:42:37.000Z</time>
      </trkpt>
      <trkpt lat="40.56784297339618206024169921875" lon="-7.29588679969310760498046875">
        <ele>674.4000244140625</ele>
        <time>2019-04-29T08:43:10.000Z</time>
      </trkpt>
      <trkpt lat="40.56821756064891815185546875" lon="-7.2958484105765819549560546875">
        <ele>667.5999755859375</ele>
        <time>2019-04-29T08:43:33.000Z</time>
      </trkpt>
      <trkpt lat="40.56813684292137622833251953125" lon="-7.29598059318959712982177734375">
        <ele>666.20001220703125</ele>
        <time>2019-04-29T08:43:43.000Z</time>
      </trkpt>
      <trkpt lat="40.5680138804018497467041015625" lon="-7.2961655817925930023193359375">
        <ele>664.4000244140625</ele>
        <time>2019-04-29T08:43:55.000Z</time>
      </trkpt>
      <trkpt lat="40.56816165335476398468017578125" lon="-7.296204976737499237060546875">
        <ele>659</ele>
        <time>2019-04-29T08:44:05.000Z</time>
      </trkpt>
      <trkpt lat="40.5686747096478939056396484375" lon="-7.29624948464334011077880859375">
        <ele>645.20001220703125</ele>
        <time>2019-04-29T08:44:37.000Z</time>
      </trkpt>
      <trkpt lat="40.5686106719076633453369140625" lon="-7.29639231227338314056396484375">
        <ele>643.5999755859375</ele>
        <time>2019-04-29T08:44:46.000Z</time>
      </trkpt>
      <trkpt lat="40.568262152373790740966796875" lon="-7.2968418337404727935791015625">
        <ele>640.79998779296875</ele>
        <time>2019-04-29T08:45:19.000Z</time>
      </trkpt>
      <trkpt lat="40.56835628114640712738037109375" lon="-7.2968639619648456573486328125">
        <ele>638.4000244140625</ele>
        <time>2019-04-29T08:45:25.000Z</time>
      </trkpt>
      <trkpt lat="40.56859365664422512054443359375" lon="-7.29701022617518901824951171875">
        <ele>630.5999755859375</ele>
        <time>2019-04-29T08:45:41.000Z</time>
      </trkpt>
      <trkpt lat="40.56856079958379268646240234375" lon="-7.29716143570840358734130859375">
        <ele>628.20001220703125</ele>
        <time>2019-04-29T08:45:49.000Z</time>
      </trkpt>
      <trkpt lat="40.56856633163988590240478515625" lon="-7.29725581593811511993408203125">
        <ele>626.4000244140625</ele>
        <time>2019-04-29T08:45:54.000Z</time>
      </trkpt>
      <trkpt lat="40.56878325529396533966064453125" lon="-7.29734902270138263702392578125">
        <ele>621.20001220703125</ele>
        <time>2019-04-29T08:46:11.000Z</time>
      </trkpt>
      <trkpt lat="40.56904812343418598175048828125" lon="-7.2971962206065654754638671875">
        <ele>618.5999755859375</ele>
        <time>2019-04-29T08:46:31.000Z</time>
      </trkpt>
      <trkpt lat="40.56910143233835697174072265625" lon="-7.2972505353391170501708984375">
        <ele>616.20001220703125</ele>
        <time>2019-04-29T08:46:36.000Z</time>
      </trkpt>
      <trkpt lat="40.56892055086791515350341796875" lon="-7.29790382087230682373046875">
        <ele>607.20001220703125</ele>
        <time>2019-04-29T08:47:08.000Z</time>
      </trkpt>
      <trkpt lat="40.56891753338277339935302734375" lon="-7.2979261167347431182861328125">
        <ele>606.79998779296875</ele>
        <time>2019-04-29T08:47:09.000Z</time>
      </trkpt>
      <trkpt lat="40.56891669519245624542236328125" lon="-7.29800172150135040283203125">
        <ele>605.4000244140625</ele>
        <time>2019-04-29T08:47:13.000Z</time>
      </trkpt>
      <trkpt lat="40.56907176040112972259521484375" lon="-7.2980494983494281768798828125">
        <ele>600.5999755859375</ele>
        <time>2019-04-29T08:47:26.000Z</time>
      </trkpt>
      <trkpt lat="40.56909724138677120208740234375" lon="-7.29803851805627346038818359375">
        <ele>600.20001220703125</ele>
        <time>2019-04-29T08:47:46.000Z</time>
      </trkpt>
      <trkpt lat="40.5694961361587047576904296875" lon="-7.29749922640621662139892578125">
        <ele>601.5999755859375</ele>
        <time>2019-04-29T08:48:02.000Z</time>
      </trkpt>
      <trkpt lat="40.56960836984217166900634765625" lon="-7.29732446372509002685546875">
        <ele>602.5999755859375</ele>
        <time>2019-04-29T08:48:06.000Z</time>
      </trkpt>
      <trkpt lat="40.56984297931194305419921875" lon="-7.2972062788903713226318359375">
        <ele>602.5999755859375</ele>
        <time>2019-04-29T08:48:12.000Z</time>
      </trkpt>
      <trkpt lat="40.56996342726051807403564453125" lon="-7.2971660457551479339599609375">
        <ele>602.79998779296875</ele>
        <time>2019-04-29T08:48:16.000Z</time>
      </trkpt>
      <trkpt lat="40.5700206756591796875" lon="-7.2973122261464595794677734375">
        <ele>597.5999755859375</ele>
        <time>2019-04-29T08:48:21.000Z</time>
      </trkpt>
      <trkpt lat="40.570016987621784210205078125" lon="-7.2973447479307651519775390625">
        <ele>596.79998779296875</ele>
        <time>2019-04-29T08:48:24.000Z</time>
      </trkpt>
      <trkpt lat="40.57001732289791107177734375" lon="-7.29734835214912891387939453125">
        <ele>596.5999755859375</ele>
        <time>2019-04-29T08:48:52.000Z</time>
      </trkpt>
      <trkpt lat="40.570108853280544281005859375" lon="-7.2975147329270839691162109375">
        <ele>591</ele>
        <time>2019-04-29T08:48:59.000Z</time>
      </trkpt>
      <trkpt lat="40.5701341666281223297119140625" lon="-7.29766502045094966888427734375">
        <ele>588</ele>
        <time>2019-04-29T08:49:04.000Z</time>
      </trkpt>
      <trkpt lat="40.56998840533196926116943359375" lon="-7.29790641926229000091552734375">
        <ele>586.20001220703125</ele>
        <time>2019-04-29T08:49:14.000Z</time>
      </trkpt>
      <trkpt lat="40.57012259960174560546875" lon="-7.29811915196478366851806640625">
        <ele>580</ele>
        <time>2019-04-29T08:49:27.000Z</time>
      </trkpt>
      <trkpt lat="40.56975035928189754486083984375" lon="-7.29865081608295440673828125">
        <ele>574.79998779296875</ele>
        <time>2019-04-29T08:49:44.000Z</time>
      </trkpt>
      <trkpt lat="40.56950393132865428924560546875" lon="-7.29900595732033252716064453125">
        <ele>570.79998779296875</ele>
        <time>2019-04-29T08:49:55.000Z</time>
      </trkpt>
      <trkpt lat="40.56962714530527591705322265625" lon="-7.29902632534503936767578125">
        <ele>568.20001220703125</ele>
        <time>2019-04-29T08:50:01.000Z</time>
      </trkpt>
      <trkpt lat="40.5701588094234466552734375" lon="-7.298839576542377471923828125">
        <ele>565</ele>
        <time>2019-04-29T08:50:11.000Z</time>
      </trkpt>
      <trkpt lat="40.5703759007155895233154296875" lon="-7.29883127845823764801025390625">
        <ele>563</ele>
        <time>2019-04-29T08:50:14.000Z</time>
      </trkpt>
      <trkpt lat="40.57052426040172576904296875" lon="-7.298854328691959381103515625">
        <ele>561.4000244140625</ele>
        <time>2019-04-29T08:50:16.000Z</time>
      </trkpt>
      <trkpt lat="40.57095048017799854278564453125" lon="-7.2988296858966350555419921875">
        <ele>561.20001220703125</ele>
        <time>2019-04-29T08:50:21.000Z</time>
      </trkpt>
      <trkpt lat="40.5714489519596099853515625" lon="-7.2989242337644100189208984375">
        <ele>559.79998779296875</ele>
        <time>2019-04-29T08:50:31.000Z</time>
      </trkpt>
      <trkpt lat="40.571512319147586822509765625" lon="-7.29910754598677158355712890625">
        <ele>557.79998779296875</ele>
        <time>2019-04-29T08:50:33.000Z</time>
      </trkpt>
      <trkpt lat="40.57164609432220458984375" lon="-7.2994382120668888092041015625">
        <ele>554.20001220703125</ele>
        <time>2019-04-29T08:50:36.000Z</time>
      </trkpt>
      <trkpt lat="40.571905262768268585205078125" lon="-7.2997684590518474578857421875">
        <ele>549.79998779296875</ele>
        <time>2019-04-29T08:50:40.000Z</time>
      </trkpt>
      <trkpt lat="40.5724133737385272979736328125" lon="-7.3000225983560085296630859375">
        <ele>545.5999755859375</ele>
        <time>2019-04-29T08:50:50.000Z</time>
      </trkpt>
      <trkpt lat="40.57282919995486736297607421875" lon="-7.30001396499574184417724609375">
        <ele>544.79998779296875</ele>
        <time>2019-04-29T08:50:58.000Z</time>
      </trkpt>
      <trkpt lat="40.5732022784650325775146484375" lon="-7.29992696084082126617431640625">
        <ele>545.4000244140625</ele>
        <time>2019-04-29T08:51:05.000Z</time>
      </trkpt>
      <trkpt lat="40.5732478760182857513427734375" lon="-7.29989309795200824737548828125">
        <ele>545.79998779296875</ele>
        <time>2019-04-29T08:51:06.000Z</time>
      </trkpt>
      <trkpt lat="40.57353110052645206451416015625" lon="-7.29989661835134029388427734375">
        <ele>545.4000244140625</ele>
        <time>2019-04-29T08:51:12.000Z</time>
      </trkpt>
      <trkpt lat="40.573699660599231719970703125" lon="-7.29994741268455982208251953125">
        <ele>544.4000244140625</ele>
        <time>2019-04-29T08:51:16.000Z</time>
      </trkpt>
      <trkpt lat="40.57426753453910350799560546875" lon="-7.29984163306653499603271484375">
        <ele>542.20001220703125</ele>
        <time>2019-04-29T08:51:34.000Z</time>
      </trkpt>
      <trkpt lat="40.57434976100921630859375" lon="-7.2998244501650333404541015625">
        <ele>541.5999755859375</ele>
        <time>2019-04-29T08:51:36.000Z</time>
      </trkpt>
      <trkpt lat="40.5744396150112152099609375" lon="-7.29980357922613620758056640625">
        <ele>541.20001220703125</ele>
        <time>2019-04-29T08:51:38.000Z</time>
      </trkpt>
      <trkpt lat="40.57470389641821384429931640625" lon="-7.29982218705117702484130859375">
        <ele>538.5999755859375</ele>
        <time>2019-04-29T08:51:45.000Z</time>
      </trkpt>
      <trkpt lat="40.5747453868389129638671875" lon="-7.29995277710258960723876953125">
        <ele>536.4000244140625</ele>
        <time>2019-04-29T08:51:49.000Z</time>
      </trkpt>
      <trkpt lat="40.57497547008097171783447265625" lon="-7.30060480535030364990234375">
        <ele>529.79998779296875</ele>
        <time>2019-04-29T08:52:09.000Z</time>
      </trkpt>
      <trkpt lat="40.5750489793717861175537109375" lon="-7.30125633068382740020751953125">
        <ele>519.5999755859375</ele>
        <time>2019-04-29T08:52:29.000Z</time>
      </trkpt>
      <trkpt lat="40.57467187754809856414794921875" lon="-7.30166561901569366455078125">
        <ele>519.5999755859375</ele>
        <time>2019-04-29T08:52:45.000Z</time>
      </trkpt>
      <trkpt lat="40.5746211670339107513427734375" lon="-7.30167442001402378082275390625">
        <ele>519.5999755859375</ele>
        <time>2019-04-29T08:52:47.000Z</time>
      </trkpt>
      <trkpt lat="40.57467757724225521087646484375" lon="-7.30180819518864154815673828125">
        <ele>517.5999755859375</ele>
        <time>2019-04-29T08:52:53.000Z</time>
      </trkpt>
      <trkpt lat="40.57520203292369842529296875" lon="-7.30202562175691127777099609375">
        <ele>508.399993896484375</ele>
        <time>2019-04-29T08:53:12.000Z</time>
      </trkpt>
      <trkpt lat="40.5755622871220111846923828125" lon="-7.3021851293742656707763671875">
        <ele>503.79998779296875</ele>
        <time>2019-04-29T08:53:22.000Z</time>
      </trkpt>
      <trkpt lat="40.57568860240280628204345703125" lon="-7.30232502333819866180419921875">
        <ele>501.20001220703125</ele>
        <time>2019-04-29T08:53:25.000Z</time>
      </trkpt>
      <trkpt lat="40.57609948329627513885498046875" lon="-7.302581928670406341552734375">
        <ele>494.79998779296875</ele>
        <time>2019-04-29T08:53:31.000Z</time>
      </trkpt>
      <trkpt lat="40.57626661844551563262939453125" lon="-7.3029792308807373046875">
        <ele>491.20001220703125</ele>
        <time>2019-04-29T08:53:35.000Z</time>
      </trkpt>
      <trkpt lat="40.57674103416502475738525390625" lon="-7.3034621961414813995361328125">
        <ele>486.79998779296875</ele>
        <time>2019-04-29T08:53:42.000Z</time>
      </trkpt>
      <trkpt lat="40.57680607773363590240478515625" lon="-7.3035450093448162078857421875">
        <ele>486.20001220703125</ele>
        <time>2019-04-29T08:53:43.000Z</time>
      </trkpt>
      <trkpt lat="40.57686659507453441619873046875" lon="-7.30363595299422740936279296875">
        <ele>485.399993896484375</ele>
        <time>2019-04-29T08:53:44.000Z</time>
      </trkpt>
      <trkpt lat="40.57702031917870044708251953125" lon="-7.3040683753788471221923828125">
        <ele>481.399993896484375</ele>
        <time>2019-04-29T08:53:48.000Z</time>
      </trkpt>
      <trkpt lat="40.577040351927280426025390625" lon="-7.30416652746498584747314453125">
        <ele>480.600006103515625</ele>
        <time>2019-04-29T08:53:49.000Z</time>
      </trkpt>
      <trkpt lat="40.5770763941109180450439453125" lon="-7.304411195218563079833984375">
        <ele>479.20001220703125</ele>
        <time>2019-04-29T08:53:52.000Z</time>
      </trkpt>
      <trkpt lat="40.57756480760872364044189453125" lon="-7.30487043969333171844482421875">
        <ele>475.600006103515625</ele>
        <time>2019-04-29T08:54:00.000Z</time>
      </trkpt>
      <trkpt lat="40.57784342207014560699462890625" lon="-7.3051315359771251678466796875">
        <ele>473.399993896484375</ele>
        <time>2019-04-29T08:54:05.000Z</time>
      </trkpt>
      <trkpt lat="40.577932186424732208251953125" lon="-7.30522415600717067718505859375">
        <ele>472.20001220703125</ele>
        <time>2019-04-29T08:54:08.000Z</time>
      </trkpt>
      <trkpt lat="40.57828213088214397430419921875" lon="-7.30535675771534442901611328125">
        <ele>469.79998779296875</ele>
        <time>2019-04-29T08:54:18.000Z</time>
      </trkpt>
      <trkpt lat="40.5784097872674465179443359375" lon="-7.30563973076641559600830078125">
        <ele>467.79998779296875</ele>
        <time>2019-04-29T08:54:22.000Z</time>
      </trkpt>
      <trkpt lat="40.57852688245475292205810546875" lon="-7.30643316172063350677490234375">
        <ele>463.20001220703125</ele>
        <time>2019-04-29T08:54:29.000Z</time>
      </trkpt>
      <trkpt lat="40.57858438231050968170166015625" lon="-7.30717998929321765899658203125">
        <ele>461.600006103515625</ele>
        <time>2019-04-29T08:54:35.000Z</time>
      </trkpt>
      <trkpt lat="40.5785112082958221435546875" lon="-7.30765373446047306060791015625">
        <ele>461.79998779296875</ele>
        <time>2019-04-29T08:54:45.000Z</time>
      </trkpt>
      <trkpt lat="40.57851213030517101287841796875" lon="-7.30765289627015590667724609375">
        <ele>461.79998779296875</ele>
        <time>2019-04-29T08:54:46.000Z</time>
      </trkpt>
      <trkpt lat="40.57851380668580532073974609375" lon="-7.30765574611723423004150390625">
        <ele>461.79998779296875</ele>
        <time>2019-04-29T08:56:41.000Z</time>
      </trkpt>
      <trkpt lat="40.5785261280834674835205078125" lon="-7.3080662079155445098876953125">
        <ele>462.20001220703125</ele>
        <time>2019-04-29T08:56:57.000Z</time>
      </trkpt>
      <trkpt lat="40.57860307395458221435546875" lon="-7.30815145187079906463623046875">
        <ele>462.20001220703125</ele>
        <time>2019-04-29T08:57:01.000Z</time>
      </trkpt>
      <trkpt lat="40.57897715829312801361083984375" lon="-7.30851070024073123931884765625">
        <ele>463.79998779296875</ele>
        <time>2019-04-29T08:57:20.000Z</time>
      </trkpt>
      <trkpt lat="40.57898201979696750640869140625" lon="-7.3085127957165241241455078125">
        <ele>463.79998779296875</ele>
        <time>2019-04-29T08:57:39.000Z</time>
      </trkpt>
      <trkpt lat="40.57900917716324329376220703125" lon="-7.30854255147278308868408203125">
        <ele>464</ele>
        <time>2019-04-29T08:57:41.000Z</time>
      </trkpt>
      <trkpt lat="40.57951745577156543731689453125" lon="-7.30883524753153324127197265625">
        <ele>466</ele>
        <time>2019-04-29T08:58:01.000Z</time>
      </trkpt>
      <trkpt lat="40.58005490340292453765869140625" lon="-7.308776490390300750732421875">
        <ele>465.399993896484375</ele>
        <time>2019-04-29T08:58:15.000Z</time>
      </trkpt>
      <trkpt lat="40.58009463362395763397216796875" lon="-7.3087821900844573974609375">
        <ele>465.399993896484375</ele>
        <time>2019-04-29T08:58:16.000Z</time>
      </trkpt>
      <trkpt lat="40.58038649149239063262939453125" lon="-7.30916465632617473602294921875">
        <ele>468.20001220703125</ele>
        <time>2019-04-29T08:58:31.000Z</time>
      </trkpt>
      <trkpt lat="40.580362267792224884033203125" lon="-7.3092490620911121368408203125">
        <ele>469.20001220703125</ele>
        <time>2019-04-29T08:58:36.000Z</time>
      </trkpt>
      <trkpt lat="40.5803590826690196990966796875" lon="-7.30928669683635234832763671875">
        <ele>469.399993896484375</ele>
        <time>2019-04-29T09:00:05.000Z</time>
      </trkpt>
      <trkpt lat="40.58020661585032939910888671875" lon="-7.3097935505211353302001953125">
        <ele>473</ele>
        <time>2019-04-29T09:00:27.000Z</time>
      </trkpt>
      <trkpt lat="40.58013956062495708465576171875" lon="-7.3100352846086025238037109375">
        <ele>474.79998779296875</ele>
        <time>2019-04-29T09:00:38.000Z</time>
      </trkpt>
      <trkpt lat="40.580097734928131103515625" lon="-7.3101311735808849334716796875">
        <ele>475.399993896484375</ele>
        <time>2019-04-29T09:00:43.000Z</time>
      </trkpt>
      <trkpt lat="40.580027997493743896484375" lon="-7.31083198450505733489990234375">
        <ele>479.79998779296875</ele>
        <time>2019-04-29T09:01:08.000Z</time>
      </trkpt>
      <trkpt lat="40.57992112822830677032470703125" lon="-7.31152080930769443511962890625">
        <ele>483.399993896484375</ele>
        <time>2019-04-29T09:01:30.000Z</time>
      </trkpt>
      <trkpt lat="40.579732619225978851318359375" lon="-7.31189179234206676483154296875">
        <ele>485.399993896484375</ele>
        <time>2019-04-29T09:01:42.000Z</time>
      </trkpt>
      <trkpt lat="40.57967520318925380706787109375" lon="-7.3120437562465667724609375">
        <ele>486</ele>
        <time>2019-04-29T09:01:47.000Z</time>
      </trkpt>
      <trkpt lat="40.57949935086071491241455078125" lon="-7.3126980476081371307373046875">
        <ele>487.79998779296875</ele>
        <time>2019-04-29T09:02:10.000Z</time>
      </trkpt>
      <trkpt lat="40.5794065631926059722900390625" lon="-7.3134048096835613250732421875">
        <ele>489.20001220703125</ele>
        <time>2019-04-29T09:02:30.000Z</time>
      </trkpt>
      <trkpt lat="40.579069443047046661376953125" lon="-7.313978634774684906005859375">
        <ele>493.399993896484375</ele>
        <time>2019-04-29T09:02:45.000Z</time>
      </trkpt>
      <trkpt lat="40.57898621074855327606201171875" lon="-7.31466804631054401397705078125">
        <ele>498.399993896484375</ele>
        <time>2019-04-29T09:03:07.000Z</time>
      </trkpt>
      <trkpt lat="40.57896324433386325836181640625" lon="-7.31518403626978397369384765625">
        <ele>500</ele>
        <time>2019-04-29T09:03:26.000Z</time>
      </trkpt>
      <trkpt lat="40.5789311416447162628173828125" lon="-7.31524757109582424163818359375">
        <ele>500.20001220703125</ele>
        <time>2019-04-29T09:03:29.000Z</time>
      </trkpt>
      <trkpt lat="40.57893474586308002471923828125" lon="-7.31535427272319793701171875">
        <ele>500</ele>
        <time>2019-04-29T09:03:33.000Z</time>
      </trkpt>
      <trkpt lat="40.57862025685608386993408203125" lon="-7.3159006051719188690185546875">
        <ele>501.20001220703125</ele>
        <time>2019-04-29T09:03:53.000Z</time>
      </trkpt>
      <trkpt lat="40.5786548741161823272705078125" lon="-7.31654919683933258056640625">
        <ele>507.600006103515625</ele>
        <time>2019-04-29T09:04:14.000Z</time>
      </trkpt>
      <trkpt lat="40.5788101069629192352294921875" lon="-7.317028306424617767333984375">
        <ele>514</ele>
        <time>2019-04-29T09:04:38.000Z</time>
      </trkpt>
      <trkpt lat="40.57886266149580478668212890625" lon="-7.317170463502407073974609375">
        <ele>516.20001220703125</ele>
        <time>2019-04-29T09:04:46.000Z</time>
      </trkpt>
      <trkpt lat="40.5789405293762683868408203125" lon="-7.31746911071240901947021484375">
        <ele>520.20001220703125</ele>
        <time>2019-04-29T09:05:03.000Z</time>
      </trkpt>
      <trkpt lat="40.57901135645806789398193359375" lon="-7.31760120950639247894287109375">
        <ele>521.5999755859375</ele>
        <time>2019-04-29T09:05:11.000Z</time>
      </trkpt>
      <trkpt lat="40.5789770744740962982177734375" lon="-7.31776348315179347991943359375">
        <ele>523.4000244140625</ele>
        <time>2019-04-29T09:05:22.000Z</time>
      </trkpt>
      <trkpt lat="40.57898218743503093719482421875" lon="-7.317735739052295684814453125">
        <ele>523</ele>
        <time>2019-04-29T09:05:33.000Z</time>
      </trkpt>
      <trkpt lat="40.579001046717166900634765625" lon="-7.31771185062825679779052734375">
        <ele>522.79998779296875</ele>
        <time>2019-04-29T09:05:36.000Z</time>
      </trkpt>
      <trkpt lat="40.5789757333695888519287109375" lon="-7.31768620200455188751220703125">
        <ele>522.4000244140625</ele>
        <time>2019-04-29T09:06:13.000Z</time>
      </trkpt>
      <trkpt lat="40.578866936266422271728515625" lon="-7.3180009424686431884765625">
        <ele>525.79998779296875</ele>
        <time>2019-04-29T09:06:30.000Z</time>
      </trkpt>
      <trkpt lat="40.5788650922477245330810546875" lon="-7.31800890527665615081787109375">
        <ele>525.79998779296875</ele>
        <time>2019-04-29T09:06:32.000Z</time>
      </trkpt>
      <trkpt lat="40.5788778327405452728271484375" lon="-7.31803656555712223052978515625">
        <ele>526.20001220703125</ele>
        <time>2019-04-29T09:19:11.000Z</time>
      </trkpt>
      <trkpt lat="40.57891680859029293060302734375" lon="-7.3179092444479465484619140625">
        <ele>524.79998779296875</ele>
        <time>2019-04-29T09:19:18.000Z</time>
      </trkpt>
      <trkpt lat="40.5789403617382049560546875" lon="-7.3178150318562984466552734375">
        <ele>523.79998779296875</ele>
        <time>2019-04-29T09:19:24.000Z</time>
      </trkpt>
      <trkpt lat="40.578931309282779693603515625" lon="-7.3177756369113922119140625">
        <ele>523.4000244140625</ele>
        <time>2019-04-29T09:19:26.000Z</time>
      </trkpt>
      <trkpt lat="40.57893105782568454742431640625" lon="-7.3177764751017093658447265625">
        <ele>523.4000244140625</ele>
        <time>2019-04-29T09:19:27.000Z</time>
      </trkpt>
      <trkpt lat="40.57892971672117710113525390625" lon="-7.317834980785846710205078125">
        <ele>524</ele>
        <time>2019-04-29T09:20:19.000Z</time>
      </trkpt>
      <trkpt lat="40.57885880582034587860107421875" lon="-7.31800605542957782745361328125">
        <ele>525.79998779296875</ele>
        <time>2019-04-29T09:20:34.000Z</time>
      </trkpt>
      <trkpt lat="40.5788838677108287811279296875" lon="-7.31797336600720882415771484375">
        <ele>525.4000244140625</ele>
        <time>2019-04-29T09:21:05.000Z</time>
      </trkpt>
      <trkpt lat="40.57901236228644847869873046875" lon="-7.31808937154710292816162109375">
        <ele>526.79998779296875</ele>
        <time>2019-04-29T09:21:14.000Z</time>
      </trkpt>
      <trkpt lat="40.57913188822567462921142578125" lon="-7.31861583888530731201171875">
        <ele>533.4000244140625</ele>
        <time>2019-04-29T09:21:40.000Z</time>
      </trkpt>
      <trkpt lat="40.57913549244403839111328125" lon="-7.3186850734055042266845703125">
        <ele>534.4000244140625</ele>
        <time>2019-04-29T09:21:45.000Z</time>
      </trkpt>
      <trkpt lat="40.5791158787906169891357421875" lon="-7.31875388883054256439208984375">
        <ele>535.20001220703125</ele>
        <time>2019-04-29T09:21:49.000Z</time>
      </trkpt>
      <trkpt lat="40.57915451936423778533935546875" lon="-7.3189137317240238189697265625">
        <ele>537.5999755859375</ele>
        <time>2019-04-29T09:21:57.000Z</time>
      </trkpt>
      <trkpt lat="40.57916256599128246307373046875" lon="-7.319021522998809814453125">
        <ele>539.20001220703125</ele>
        <time>2019-04-29T09:22:03.000Z</time>
      </trkpt>
      <trkpt lat="40.57906852103769779205322265625" lon="-7.3191323317587375640869140625">
        <ele>540.4000244140625</ele>
        <time>2019-04-29T09:22:13.000Z</time>
      </trkpt>
      <trkpt lat="40.579081512987613677978515625" lon="-7.31921154074370861053466796875">
        <ele>541.5999755859375</ele>
        <time>2019-04-29T09:22:17.000Z</time>
      </trkpt>
      <trkpt lat="40.57910674251616001129150390625" lon="-7.31935671530663967132568359375">
        <ele>543.5999755859375</ele>
        <time>2019-04-29T09:22:25.000Z</time>
      </trkpt>
      <trkpt lat="40.57907371781766414642333984375" lon="-7.31938772834837436676025390625">
        <ele>543.79998779296875</ele>
        <time>2019-04-29T09:22:28.000Z</time>
      </trkpt>
      <trkpt lat="40.57897397316992282867431640625" lon="-7.319396696984767913818359375">
        <ele>543.79998779296875</ele>
        <time>2019-04-29T09:22:34.000Z</time>
      </trkpt>
      <trkpt lat="40.57858136482536792755126953125" lon="-7.31989701278507709503173828125">
        <ele>546.79998779296875</ele>
        <time>2019-04-29T09:23:08.000Z</time>
      </trkpt>
      <trkpt lat="40.57847843505442142486572265625" lon="-7.32034527696669101715087890625">
        <ele>550.5999755859375</ele>
        <time>2019-04-29T09:23:30.000Z</time>
      </trkpt>
      <trkpt lat="40.578494109213352203369140625" lon="-7.32040462084114551544189453125">
        <ele>551.4000244140625</ele>
        <time>2019-04-29T09:23:35.000Z</time>
      </trkpt>
      <trkpt lat="40.578514896333217620849609375" lon="-7.32042524032294750213623046875">
        <ele>552</ele>
        <time>2019-04-29T09:23:37.000Z</time>
      </trkpt>
      <trkpt lat="40.578541718423366546630859375" lon="-7.32042959891259670257568359375">
        <ele>552.4000244140625</ele>
        <time>2019-04-29T09:23:39.000Z</time>
      </trkpt>
      <trkpt lat="40.5786019004881381988525390625" lon="-7.3204137571156024932861328125">
        <ele>552.79998779296875</ele>
        <time>2019-04-29T09:23:44.000Z</time>
      </trkpt>
      <trkpt lat="40.5786102823913097381591796875" lon="-7.32040126807987689971923828125">
        <ele>552.79998779296875</ele>
        <time>2019-04-29T09:23:45.000Z</time>
      </trkpt>
      <trkpt lat="40.57865780778229236602783203125" lon="-7.32033940963447093963623046875">
        <ele>552.79998779296875</ele>
        <time>2019-04-29T09:23:49.000Z</time>
      </trkpt>
      <trkpt lat="40.578710027039051055908203125" lon="-7.32030403800308704376220703125">
        <ele>553</ele>
        <time>2019-04-29T09:23:53.000Z</time>
      </trkpt>
      <trkpt lat="40.57877129875123500823974609375" lon="-7.320295907557010650634765625">
        <ele>553.5999755859375</ele>
        <time>2019-04-29T09:23:58.000Z</time>
      </trkpt>
      <trkpt lat="40.578943379223346710205078125" lon="-7.3202809877693653106689453125">
        <ele>554.4000244140625</ele>
        <time>2019-04-29T09:24:10.000Z</time>
      </trkpt>
      <trkpt lat="40.5790193192660808563232421875" lon="-7.32031912542879581451416015625">
        <ele>554.79998779296875</ele>
        <time>2019-04-29T09:24:14.000Z</time>
      </trkpt>
      <trkpt lat="40.579243786633014678955078125" lon="-7.320338822901248931884765625">
        <ele>555</ele>
        <time>2019-04-29T09:24:25.000Z</time>
      </trkpt>
      <trkpt lat="40.57978995144367218017578125" lon="-7.3203359730541706085205078125">
        <ele>554</ele>
        <time>2019-04-29T09:24:49.000Z</time>
      </trkpt>
      <trkpt lat="40.579998493194580078125" lon="-7.32028878293931484222412109375">
        <ele>551</ele>
        <time>2019-04-29T09:24:57.000Z</time>
      </trkpt>
      <trkpt lat="40.5803704820573329925537109375" lon="-7.3207728378474712371826171875">
        <ele>554</ele>
        <time>2019-04-29T09:25:11.000Z</time>
      </trkpt>
      <trkpt lat="40.5804130621254444122314453125" lon="-7.32079018838703632354736328125">
        <ele>553.79998779296875</ele>
        <time>2019-04-29T09:25:12.000Z</time>
      </trkpt>
      <trkpt lat="40.5806433968245983123779296875" lon="-7.32082405127584934234619140625">
        <ele>553.5999755859375</ele>
        <time>2019-04-29T09:25:17.000Z</time>
      </trkpt>
      <trkpt lat="40.58073082007467746734619140625" lon="-7.32082572765648365020751953125">
        <ele>554</ele>
        <time>2019-04-29T09:25:19.000Z</time>
      </trkpt>
      <trkpt lat="40.58106056414544582366943359375" lon="-7.32098598964512348175048828125">
        <ele>557.5999755859375</ele>
        <time>2019-04-29T09:25:27.000Z</time>
      </trkpt>
      <trkpt lat="40.58117137290537357330322265625" lon="-7.321194112300872802734375">
        <ele>560.5999755859375</ele>
        <time>2019-04-29T09:25:31.000Z</time>
      </trkpt>
      <trkpt lat="40.58117874898016452789306640625" lon="-7.32123929075896739959716796875">
        <ele>561.20001220703125</ele>
        <time>2019-04-29T09:25:34.000Z</time>
      </trkpt>
      <trkpt lat="40.5811828561127185821533203125" lon="-7.32128329575061798095703125">
        <ele>561.79998779296875</ele>
        <time>2019-04-29T09:25:42.000Z</time>
      </trkpt>
      <trkpt lat="40.58126659132540225982666015625" lon="-7.32159518636763095855712890625">
        <ele>565.5999755859375</ele>
        <time>2019-04-29T09:25:58.000Z</time>
      </trkpt>
      <trkpt lat="40.58130498044192790985107421875" lon="-7.32162871398031711578369140625">
        <ele>566</ele>
        <time>2019-04-29T09:26:01.000Z</time>
      </trkpt>
      <trkpt lat="40.58137320913374423980712890625" lon="-7.32163961045444011688232421875">
        <ele>566.20001220703125</ele>
        <time>2019-04-29T09:26:07.000Z</time>
      </trkpt>
      <trkpt lat="40.58144562877714633941650390625" lon="-7.32169501483440399169921875">
        <ele>567.20001220703125</ele>
        <time>2019-04-29T09:26:16.000Z</time>
      </trkpt>
      <trkpt lat="40.5819321982562541961669921875" lon="-7.32196935452520847320556640625">
        <ele>573.20001220703125</ele>
        <time>2019-04-29T09:27:02.000Z</time>
      </trkpt>
      <trkpt lat="40.58208382688462734222412109375" lon="-7.3220140300691127777099609375">
        <ele>575.4000244140625</ele>
        <time>2019-04-29T09:27:16.000Z</time>
      </trkpt>
      <trkpt lat="40.5821474455296993255615234375" lon="-7.32212224043905735015869140625">
        <ele>577.5999755859375</ele>
        <time>2019-04-29T09:27:27.000Z</time>
      </trkpt>
      <trkpt lat="40.5821642093360424041748046875" lon="-7.32220974750816822052001953125">
        <ele>579</ele>
        <time>2019-04-29T09:28:48.000Z</time>
      </trkpt>
      <trkpt lat="40.5824486911296844482421875" lon="-7.32262976467609405517578125">
        <ele>587</ele>
        <time>2019-04-29T09:29:37.000Z</time>
      </trkpt>
      <trkpt lat="40.58258875273168087005615234375" lon="-7.322669662535190582275390625">
        <ele>588.5999755859375</ele>
        <time>2019-04-29T09:29:54.000Z</time>
      </trkpt>
      <trkpt lat="40.58264776133000850677490234375" lon="-7.32271618209779262542724609375">
        <ele>589.5999755859375</ele>
        <time>2019-04-29T09:30:03.000Z</time>
      </trkpt>
      <trkpt lat="40.5827143974602222442626953125" lon="-7.32274367474019527435302734375">
        <ele>590.4000244140625</ele>
        <time>2019-04-29T09:30:15.000Z</time>
      </trkpt>
      <trkpt lat="40.5828590691089630126953125" lon="-7.3228168487548828125">
        <ele>593.5999755859375</ele>
        <time>2019-04-29T09:30:30.000Z</time>
      </trkpt>
      <trkpt lat="40.5833928287029266357421875" lon="-7.32295020483434200286865234375">
        <ele>597</ele>
        <time>2019-04-29T09:31:22.000Z</time>
      </trkpt>
      <trkpt lat="40.5834902264177799224853515625" lon="-7.32298272661864757537841796875">
        <ele>597.5999755859375</ele>
        <time>2019-04-29T09:31:31.000Z</time>
      </trkpt>
      <trkpt lat="40.583525262773036956787109375" lon="-7.32313276268541812896728515625">
        <ele>601.20001220703125</ele>
        <time>2019-04-29T09:31:43.000Z</time>
      </trkpt>
      <trkpt lat="40.58334429748356342315673828125" lon="-7.3236035741865634918212890625">
        <ele>610.4000244140625</ele>
        <time>2019-04-29T09:32:34.000Z</time>
      </trkpt>
      <trkpt lat="40.58306585066020488739013671875" lon="-7.32393197715282440185546875">
        <ele>616.4000244140625</ele>
        <time>2019-04-29T09:33:08.000Z</time>
      </trkpt>
      <trkpt lat="40.5830999650061130523681640625" lon="-7.323966510593891143798828125">
        <ele>617</ele>
        <time>2019-04-29T09:33:12.000Z</time>
      </trkpt>
      <trkpt lat="40.58362794108688831329345703125" lon="-7.32410456053912639617919921875">
        <ele>624.4000244140625</ele>
        <time>2019-04-29T09:34:09.000Z</time>
      </trkpt>
      <trkpt lat="40.58392683975398540496826171875" lon="-7.32406181283295154571533203125">
        <ele>624.4000244140625</ele>
        <time>2019-04-29T09:34:38.000Z</time>
      </trkpt>
      <trkpt lat="40.58397796936333179473876953125" lon="-7.3240816779434680938720703125">
        <ele>624</ele>
        <time>2019-04-29T09:34:43.000Z</time>
      </trkpt>
      <trkpt lat="40.5840967409312725067138671875" lon="-7.3241661675274372100830078125">
        <ele>624.4000244140625</ele>
        <time>2019-04-29T09:34:58.000Z</time>
      </trkpt>
      <trkpt lat="40.584131442010402679443359375" lon="-7.3241861164569854736328125">
        <ele>624.4000244140625</ele>
        <time>2019-04-29T09:35:02.000Z</time>
      </trkpt>
      <trkpt lat="40.5844564922153949737548828125" lon="-7.324529774487018585205078125">
        <ele>628.5999755859375</ele>
        <time>2019-04-29T09:35:45.000Z</time>
      </trkpt>
      <trkpt lat="40.5844990722835063934326171875" lon="-7.324638403952121734619140625">
        <ele>630.79998779296875</ele>
        <time>2019-04-29T09:36:03.000Z</time>
      </trkpt>
      <trkpt lat="40.584543161094188690185546875" lon="-7.32476203702390193939208984375">
        <ele>633.4000244140625</ele>
        <time>2019-04-29T09:36:14.000Z</time>
      </trkpt>
      <trkpt lat="40.585090331733226776123046875" lon="-7.32563409022986888885498046875">
        <ele>642.5999755859375</ele>
        <time>2019-04-29T09:38:18.000Z</time>
      </trkpt>
      <trkpt lat="40.58513349853456020355224609375" lon="-7.32569159008562564849853515625">
        <ele>643</ele>
        <time>2019-04-29T09:38:26.000Z</time>
      </trkpt>
      <trkpt lat="40.585315637290477752685546875" lon="-7.326215542852878570556640625">
        <ele>656.5999755859375</ele>
        <time>2019-04-29T09:39:30.000Z</time>
      </trkpt>
      <trkpt lat="40.5854163877665996551513671875" lon="-7.326320819556713104248046875">
        <ele>659.5999755859375</ele>
        <time>2019-04-29T09:39:43.000Z</time>
      </trkpt>
      <trkpt lat="40.58579047210514545440673828125" lon="-7.32660957612097263336181640625">
        <ele>666.4000244140625</ele>
        <time>2019-04-29T09:40:28.000Z</time>
      </trkpt>
      <trkpt lat="40.5860133469104766845703125" lon="-7.3267959058284759521484375">
        <ele>671.4000244140625</ele>
        <time>2019-04-29T09:40:59.000Z</time>
      </trkpt>
      <trkpt lat="40.58605232276022434234619140625" lon="-7.32683680951595306396484375">
        <ele>672.79998779296875</ele>
        <time>2019-04-29T09:41:52.000Z</time>
      </trkpt>
      <trkpt lat="40.58628969825804233551025390625" lon="-7.32705130241811275482177734375">
        <ele>675.79998779296875</ele>
        <time>2019-04-29T09:42:25.000Z</time>
      </trkpt>
      <trkpt lat="40.5867025069892406463623046875" lon="-7.32753292657434940338134765625">
        <ele>689.79998779296875</ele>
        <time>2019-04-29T09:45:22.000Z</time>
      </trkpt>
      <trkpt lat="40.58674969710409641265869140625" lon="-7.3277400434017181396484375">
        <ele>695.4000244140625</ele>
        <time>2019-04-29T09:45:47.000Z</time>
      </trkpt>
      <trkpt lat="40.5866807140409946441650390625" lon="-7.328532300889492034912109375">
        <ele>715.4000244140625</ele>
        <time>2019-04-29T09:49:42.000Z</time>
      </trkpt>
      <trkpt lat="40.5866522155702114105224609375" lon="-7.32922003604471683502197265625">
        <ele>730</ele>
        <time>2019-04-29T09:50:46.000Z</time>
      </trkpt>
      <trkpt lat="40.58654869906604290008544921875" lon="-7.33013533987104892730712890625">
        <ele>740.5999755859375</ele>
        <time>2019-04-29T09:53:41.000Z</time>
      </trkpt>
      <trkpt lat="40.586654730141162872314453125" lon="-7.32981950975954532623291015625">
        <ele>738.79998779296875</ele>
        <time>2019-04-29T09:54:01.000Z</time>
      </trkpt>
      <trkpt lat="40.58661474846303462982177734375" lon="-7.3297978006303310394287109375">
        <ele>738.4000244140625</ele>
        <time>2019-04-29T09:54:07.000Z</time>
      </trkpt>
      <trkpt lat="40.58648449368774890899658203125" lon="-7.3298967070877552032470703125">
        <ele>739.79998779296875</ele>
        <time>2019-04-29T09:55:40.000Z</time>
      </trkpt>
      <trkpt lat="40.58646772988140583038330078125" lon="-7.32996652834117412567138671875">
        <ele>741.20001220703125</ele>
        <time>2019-04-29T09:55:43.000Z</time>
      </trkpt>
      <trkpt lat="40.5865202844142913818359375" lon="-7.3307201452553272247314453125">
        <ele>738.4000244140625</ele>
        <time>2019-04-29T09:56:00.000Z</time>
      </trkpt>
      <trkpt lat="40.5865325219929218292236328125" lon="-7.3308460414409637451171875">
        <ele>738.20001220703125</ele>
        <time>2019-04-29T09:56:02.000Z</time>
      </trkpt>
      <trkpt lat="40.58653193525969982147216796875" lon="-7.33106975443661212921142578125">
        <ele>735</ele>
        <time>2019-04-29T09:56:05.000Z</time>
      </trkpt>
      <trkpt lat="40.586269833147525787353515625" lon="-7.331537716090679168701171875">
        <ele>726.79998779296875</ele>
        <time>2019-04-29T09:56:11.000Z</time>
      </trkpt>
      <trkpt lat="40.585789382457733154296875" lon="-7.33207155950367450714111328125">
        <ele>720.20001220703125</ele>
        <time>2019-04-29T09:56:17.000Z</time>
      </trkpt>
      <trkpt lat="40.585354864597320556640625" lon="-7.3325893096625804901123046875">
        <ele>714.4000244140625</ele>
        <time>2019-04-29T09:56:22.000Z</time>
      </trkpt>
      <trkpt lat="40.584876425564289093017578125" lon="-7.33312432654201984405517578125">
        <ele>709.4000244140625</ele>
        <time>2019-04-29T09:56:27.000Z</time>
      </trkpt>
      <trkpt lat="40.5844310112297534942626953125" lon="-7.3336870037019252777099609375">
        <ele>705.79998779296875</ele>
        <time>2019-04-29T09:56:32.000Z</time>
      </trkpt>
      <trkpt lat="40.58437745086848735809326171875" lon="-7.33380259014666080474853515625">
        <ele>704.79998779296875</ele>
        <time>2019-04-29T09:56:33.000Z</time>
      </trkpt>
      <trkpt lat="40.584383569657802581787109375" lon="-7.33429863117635250091552734375">
        <ele>697.79998779296875</ele>
        <time>2019-04-29T09:56:37.000Z</time>
      </trkpt>
      <trkpt lat="40.58442221023142337799072265625" lon="-7.33500874601304531097412109375">
        <ele>687.4000244140625</ele>
        <time>2019-04-29T09:56:42.000Z</time>
      </trkpt>
      <trkpt lat="40.5843076296150684356689453125" lon="-7.3358215391635894775390625">
        <ele>680.79998779296875</ele>
        <time>2019-04-29T09:56:47.000Z</time>
      </trkpt>
      <trkpt lat="40.58426664210855960845947265625" lon="-7.33612773008644580841064453125">
        <ele>679.5999755859375</ele>
        <time>2019-04-29T09:56:49.000Z</time>
      </trkpt>
      <trkpt lat="40.5843364633619785308837890625" lon="-7.33685477636754512786865234375">
        <ele>670.79998779296875</ele>
        <time>2019-04-29T09:56:54.000Z</time>
      </trkpt>
      <trkpt lat="40.58434308506548404693603515625" lon="-7.33712182380259037017822265625">
        <ele>667.79998779296875</ele>
        <time>2019-04-29T09:56:56.000Z</time>
      </trkpt>
      <trkpt lat="40.584075450897216796875" lon="-7.3376875184476375579833984375">
        <ele>663.5999755859375</ele>
        <time>2019-04-29T09:57:01.000Z</time>
      </trkpt>
      <trkpt lat="40.583678148686885833740234375" lon="-7.338316999375820159912109375">
        <ele>656.20001220703125</ele>
        <time>2019-04-29T09:57:06.000Z</time>
      </trkpt>
      <trkpt lat="40.5833048187196254730224609375" lon="-7.3388336598873138427734375">
        <ele>649.4000244140625</ele>
        <time>2019-04-29T09:57:10.000Z</time>
      </trkpt>
      <trkpt lat="40.5829068459570407867431640625" lon="-7.33939348720014095306396484375">
        <ele>643</ele>
        <time>2019-04-29T09:57:14.000Z</time>
      </trkpt>
      <trkpt lat="40.5824867449700832366943359375" lon="-7.33988014049828052520751953125">
        <ele>640.20001220703125</ele>
        <time>2019-04-29T09:57:18.000Z</time>
      </trkpt>
      <trkpt lat="40.5821055360138416290283203125" lon="-7.3404387943446636199951171875">
        <ele>638</ele>
        <time>2019-04-29T09:57:23.000Z</time>
      </trkpt>
      <trkpt lat="40.5818389914929866790771484375" lon="-7.341131977736949920654296875">
        <ele>631.79998779296875</ele>
        <time>2019-04-29T09:57:29.000Z</time>
      </trkpt>
      <trkpt lat="40.58139047585427761077880859375" lon="-7.34152031131088733673095703125">
        <ele>632.20001220703125</ele>
        <time>2019-04-29T09:57:35.000Z</time>
      </trkpt>
      <trkpt lat="40.5814976803958415985107421875" lon="-7.34204485081136226654052734375">
        <ele>629.5999755859375</ele>
        <time>2019-04-29T09:57:41.000Z</time>
      </trkpt>
      <trkpt lat="40.58160438202321529388427734375" lon="-7.342233024537563323974609375">
        <ele>628.20001220703125</ele>
        <time>2019-04-29T09:57:44.000Z</time>
      </trkpt>
      <trkpt lat="40.58167998678982257843017578125" lon="-7.34233989380300045013427734375">
        <ele>625.5999755859375</ele>
        <time>2019-04-29T09:57:46.000Z</time>
      </trkpt>
      <trkpt lat="40.5818755365908145904541015625" lon="-7.3425882495939731597900390625">
        <ele>619.5999755859375</ele>
        <time>2019-04-29T09:57:51.000Z</time>
      </trkpt>
      <trkpt lat="40.582021214067935943603515625" lon="-7.3427605815231800079345703125">
        <ele>615.5999755859375</ele>
        <time>2019-04-29T09:57:55.000Z</time>
      </trkpt>
      <trkpt lat="40.58205583132803440093994140625" lon="-7.34279369004070758819580078125">
        <ele>614.79998779296875</ele>
        <time>2019-04-29T09:57:56.000Z</time>
      </trkpt>
      <trkpt lat="40.5822403170168399810791015625" lon="-7.34284549020230770111083984375">
        <ele>610.5999755859375</ele>
        <time>2019-04-29T09:58:03.000Z</time>
      </trkpt>
      <trkpt lat="40.58224911801517009735107421875" lon="-7.3428273014724254608154296875">
        <ele>610.5999755859375</ele>
        <time>2019-04-29T09:58:06.000Z</time>
      </trkpt>
      <trkpt lat="40.5822500400245189666748046875" lon="-7.3428024910390377044677734375">
        <ele>610.5999755859375</ele>
        <time>2019-04-29T09:59:29.000Z</time>
      </trkpt>
      <trkpt lat="40.58221911080181598663330078125" lon="-7.34264801256358623504638671875">
        <ele>611.20001220703125</ele>
        <time>2019-04-29T09:59:34.000Z</time>
      </trkpt>
      <trkpt lat="40.58221156708896160125732421875" lon="-7.34258850105106830596923828125">
        <ele>611.4000244140625</ele>
        <time>2019-04-29T09:59:35.000Z</time>
      </trkpt>
      <trkpt lat="40.58210494928061962127685546875" lon="-7.34210419468581676483154296875">
        <ele>616.5999755859375</ele>
        <time>2019-04-29T09:59:41.000Z</time>
      </trkpt>
      <trkpt lat="40.58213244192302227020263671875" lon="-7.34197444282472133636474609375">
        <ele>616.79998779296875</ele>
        <time>2019-04-29T09:59:48.000Z</time>
      </trkpt>
      <trkpt lat="40.58215457014739513397216796875" lon="-7.3419592715799808502197265625">
        <ele>616.4000244140625</ele>
        <time>2019-04-29T10:00:34.000Z</time>
      </trkpt>
      <trkpt lat="40.5826637707650661468505859375" lon="-7.34165207482874393463134765625">
        <ele>612.5999755859375</ele>
        <time>2019-04-29T10:00:48.000Z</time>
      </trkpt>
      <trkpt lat="40.58269855566322803497314453125" lon="-7.3416179604828357696533203125">
        <ele>612.5999755859375</ele>
        <time>2019-04-29T10:00:49.000Z</time>
      </trkpt>
      <trkpt lat="40.583064258098602294921875" lon="-7.34131579287350177764892578125">
        <ele>612.4000244140625</ele>
        <time>2019-04-29T10:00:59.000Z</time>
      </trkpt>
      <trkpt lat="40.583464242517948150634765625" lon="-7.341003902256488800048828125">
        <ele>612.79998779296875</ele>
        <time>2019-04-29T10:01:08.000Z</time>
      </trkpt>
      <trkpt lat="40.5834607221186161041259765625" lon="-7.34135585837066173553466796875">
        <ele>608.5999755859375</ele>
        <time>2019-04-29T10:01:16.000Z</time>
      </trkpt>
      <trkpt lat="40.58341629803180694580078125" lon="-7.34144940041005611419677734375">
        <ele>608</ele>
        <time>2019-04-29T10:01:18.000Z</time>
      </trkpt>
      <trkpt lat="40.583375729620456695556640625" lon="-7.34152064658701419830322265625">
        <ele>607.4000244140625</ele>
        <time>2019-04-29T10:01:22.000Z</time>
      </trkpt>
      <trkpt lat="40.5833820998668670654296875" lon="-7.34151578508317470550537109375">
        <ele>607.4000244140625</ele>
        <time>2019-04-29T10:01:23.000Z</time>
      </trkpt>
      <trkpt lat="40.5833547748625278472900390625" lon="-7.341541685163974761962890625">
        <ele>607.4000244140625</ele>
        <time>2019-04-29T10:01:27.000Z</time>
      </trkpt>
      <trkpt lat="40.5830047465860843658447265625" lon="-7.34217728488147258758544921875">
        <ele>603.4000244140625</ele>
        <time>2019-04-29T10:01:38.000Z</time>
      </trkpt>
      <trkpt lat="40.5827542953193187713623046875" lon="-7.34266318380832672119140625">
        <ele>603.5999755859375</ele>
        <time>2019-04-29T10:01:43.000Z</time>
      </trkpt>
      <trkpt lat="40.5826255492866039276123046875" lon="-7.3434229195117950439453125">
        <ele>599.4000244140625</ele>
        <time>2019-04-29T10:01:51.000Z</time>
      </trkpt>
      <trkpt lat="40.58251080103218555450439453125" lon="-7.3441767878830432891845703125">
        <ele>597</ele>
        <time>2019-04-29T10:02:01.000Z</time>
      </trkpt>
      <trkpt lat="40.582515411078929901123046875" lon="-7.34424090944230556488037109375">
        <ele>596.5999755859375</ele>
        <time>2019-04-29T10:02:02.000Z</time>
      </trkpt>
      <trkpt lat="40.58263787068426609039306640625" lon="-7.3445038497447967529296875">
        <ele>592.79998779296875</ele>
        <time>2019-04-29T10:02:06.000Z</time>
      </trkpt>
      <trkpt lat="40.5829195864498615264892578125" lon="-7.34516643919050693511962890625">
        <ele>593</ele>
        <time>2019-04-29T10:02:13.000Z</time>
      </trkpt>
      <trkpt lat="40.5830533616244792938232421875" lon="-7.3454689420759677886962890625">
        <ele>598.79998779296875</ele>
        <time>2019-04-29T10:02:17.000Z</time>
      </trkpt>
      <trkpt lat="40.5833567865192890167236328125" lon="-7.34530943445861339569091796875">
        <ele>602</ele>
        <time>2019-04-29T10:02:27.000Z</time>
      </trkpt>
      <trkpt lat="40.58340649120509624481201171875" lon="-7.34513140283524990081787109375">
        <ele>600.4000244140625</ele>
        <time>2019-04-29T10:02:39.000Z</time>
      </trkpt>
      <trkpt lat="40.5834060721099376678466796875" lon="-7.345131821930408477783203125">
        <ele>600.4000244140625</ele>
        <time>2019-04-29T10:02:41.000Z</time>
      </trkpt>
      <trkpt lat="40.58353607542812824249267578125" lon="-7.34494281001389026641845703125">
        <ele>599.5999755859375</ele>
        <time>2019-04-29T10:04:51.000Z</time>
      </trkpt>
      <trkpt lat="40.5836706049740314483642578125" lon="-7.344838120043277740478515625">
        <ele>599.79998779296875</ele>
        <time>2019-04-29T10:05:01.000Z</time>
      </trkpt>
      <trkpt lat="40.58408307842910289764404296875" lon="-7.344699315726757049560546875">
        <ele>602.5999755859375</ele>
        <time>2019-04-29T10:05:25.000Z</time>
      </trkpt>
      <trkpt lat="40.584148205816745758056640625" lon="-7.34467190690338611602783203125">
        <ele>602.79998779296875</ele>
        <time>2019-04-29T10:05:29.000Z</time>
      </trkpt>
      <trkpt lat="40.5846854858100414276123046875" lon="-7.34453804790973663330078125">
        <ele>601.20001220703125</ele>
        <time>2019-04-29T10:06:00.000Z</time>
      </trkpt>
      <trkpt lat="40.58522720821201801300048828125" lon="-7.3446285724639892578125">
        <ele>596.4000244140625</ele>
        <time>2019-04-29T10:06:23.000Z</time>
      </trkpt>
      <trkpt lat="40.5852611549198627471923828125" lon="-7.34466671012341976165771484375">
        <ele>596.20001220703125</ele>
        <time>2019-04-29T10:06:24.000Z</time>
      </trkpt>
      <trkpt lat="40.5855018831789493560791015625" lon="-7.34502545557916164398193359375">
        <ele>593.5999755859375</ele>
        <time>2019-04-29T10:06:32.000Z</time>
      </trkpt>
      <trkpt lat="40.58547045104205608367919921875" lon="-7.34534949995577335357666015625">
        <ele>590.4000244140625</ele>
        <time>2019-04-29T10:06:38.000Z</time>
      </trkpt>
      <trkpt lat="40.585426948964595794677734375" lon="-7.34546651132404804229736328125">
        <ele>590</ele>
        <time>2019-04-29T10:06:40.000Z</time>
      </trkpt>
      <trkpt lat="40.58504465036094188690185546875" lon="-7.34597629867494106292724609375">
        <ele>592.79998779296875</ele>
        <time>2019-04-29T10:06:48.000Z</time>
      </trkpt>
      <trkpt lat="40.585007853806018829345703125" lon="-7.34605089761316776275634765625">
        <ele>592.79998779296875</ele>
        <time>2019-04-29T10:06:49.000Z</time>
      </trkpt>
      <trkpt lat="40.5850368551909923553466796875" lon="-7.34652648679912090301513671875">
        <ele>586.5999755859375</ele>
        <time>2019-04-29T10:06:56.000Z</time>
      </trkpt>
      <trkpt lat="40.58504833839833736419677734375" lon="-7.34659220091998577117919921875">
        <ele>585.20001220703125</ele>
        <time>2019-04-29T10:06:57.000Z</time>
      </trkpt>
      <trkpt lat="40.585063509643077850341796875" lon="-7.34694859944283962249755859375">
        <ele>582.79998779296875</ele>
        <time>2019-04-29T10:07:02.000Z</time>
      </trkpt>
      <trkpt lat="40.58514120988547801971435546875" lon="-7.3472987115383148193359375">
        <ele>578</ele>
        <time>2019-04-29T10:07:07.000Z</time>
      </trkpt>
      <trkpt lat="40.58530465699732303619384765625" lon="-7.34772761352360248565673828125">
        <ele>572.79998779296875</ele>
        <time>2019-04-29T10:07:14.000Z</time>
      </trkpt>
      <trkpt lat="40.5854747258126735687255859375" lon="-7.3478095047175884246826171875">
        <ele>568.79998779296875</ele>
        <time>2019-04-29T10:07:18.000Z</time>
      </trkpt>
      <trkpt lat="40.5855734646320343017578125" lon="-7.34801125712692737579345703125">
        <ele>567.79998779296875</ele>
        <time>2019-04-29T10:07:22.000Z</time>
      </trkpt>
      <trkpt lat="40.58563121594488620758056640625" lon="-7.3481420986354351043701171875">
        <ele>567.20001220703125</ele>
        <time>2019-04-29T10:07:24.000Z</time>
      </trkpt>
      <trkpt lat="40.585705228149890899658203125" lon="-7.34823991544544696807861328125">
        <ele>565.5999755859375</ele>
        <time>2019-04-29T10:07:26.000Z</time>
      </trkpt>
      <trkpt lat="40.58593162335455417633056640625" lon="-7.3484448529779911041259765625">
        <ele>559.4000244140625</ele>
        <time>2019-04-29T10:07:31.000Z</time>
      </trkpt>
      <trkpt lat="40.5860021151602268218994140625" lon="-7.34852741472423076629638671875">
        <ele>557.4000244140625</ele>
        <time>2019-04-29T10:07:33.000Z</time>
      </trkpt>
      <trkpt lat="40.58603723533451557159423828125" lon="-7.3486289195716381072998046875">
        <ele>556.79998779296875</ele>
        <time>2019-04-29T10:07:35.000Z</time>
      </trkpt>
      <trkpt lat="40.58604218065738677978515625" lon="-7.34886386431753635406494140625">
        <ele>559.4000244140625</ele>
        <time>2019-04-29T10:07:39.000Z</time>
      </trkpt>
      <trkpt lat="40.5860571004450321197509765625" lon="-7.3489212803542613983154296875">
        <ele>559.79998779296875</ele>
        <time>2019-04-29T10:07:40.000Z</time>
      </trkpt>
      <trkpt lat="40.58619238436222076416015625" lon="-7.34913929365575313568115234375">
        <ele>558.4000244140625</ele>
        <time>2019-04-29T10:07:45.000Z</time>
      </trkpt>
      <trkpt lat="40.58640402741730213165283203125" lon="-7.34925295226275920867919921875">
        <ele>552.79998779296875</ele>
        <time>2019-04-29T10:07:51.000Z</time>
      </trkpt>
      <trkpt lat="40.58652472682297229766845703125" lon="-7.3493118770420551300048828125">
        <ele>549.79998779296875</ele>
        <time>2019-04-29T10:07:55.000Z</time>
      </trkpt>
      <trkpt lat="40.58654467575252056121826171875" lon="-7.3495127074420452117919921875">
        <ele>550</ele>
        <time>2019-04-29T10:07:59.000Z</time>
      </trkpt>
      <trkpt lat="40.5866015888750553131103515625" lon="-7.35014679841697216033935546875">
        <ele>553</ele>
        <time>2019-04-29T10:08:10.000Z</time>
      </trkpt>
      <trkpt lat="40.5869254656136035919189453125" lon="-7.35032893717288970947265625">
        <ele>547.4000244140625</ele>
        <time>2019-04-29T10:08:27.000Z</time>
      </trkpt>
      <trkpt lat="40.58695589192211627960205078125" lon="-7.35034637153148651123046875">
        <ele>546.79998779296875</ele>
        <time>2019-04-29T10:09:51.000Z</time>
      </trkpt>
      <trkpt lat="40.5871004797518253326416015625" lon="-7.3504762910306453704833984375">
        <ele>544.4000244140625</ele>
        <time>2019-04-29T10:09:58.000Z</time>
      </trkpt>
      <trkpt lat="40.58716611005365848541259765625" lon="-7.35069598071277141571044921875">
        <ele>544.5999755859375</ele>
        <time>2019-04-29T10:10:06.000Z</time>
      </trkpt>
      <trkpt lat="40.58700350113213062286376953125" lon="-7.35137156210839748382568359375">
        <ele>549.79998779296875</ele>
        <time>2019-04-29T10:10:23.000Z</time>
      </trkpt>
      <trkpt lat="40.5869707278907299041748046875" lon="-7.35140584409236907958984375">
        <ele>550.5999755859375</ele>
        <time>2019-04-29T10:10:24.000Z</time>
      </trkpt>
      <trkpt lat="40.58686184696853160858154296875" lon="-7.35151640139520168304443359375">
        <ele>553.20001220703125</ele>
        <time>2019-04-29T10:10:28.000Z</time>
      </trkpt>
      <trkpt lat="40.58708732016384601593017578125" lon="-7.3518137075006961822509765625">
        <ele>549.79998779296875</ele>
        <time>2019-04-29T10:10:38.000Z</time>
      </trkpt>
      <trkpt lat="40.58762946166098117828369140625" lon="-7.351864837110042572021484375">
        <ele>537.5999755859375</ele>
        <time>2019-04-29T10:10:49.000Z</time>
      </trkpt>
      <trkpt lat="40.587785951793193817138671875" lon="-7.3524111695587635040283203125">
        <ele>540.4000244140625</ele>
        <time>2019-04-29T10:11:01.000Z</time>
      </trkpt>
      <trkpt lat="40.58778871782124042510986328125" lon="-7.35280520282685756683349609375">
        <ele>544.5999755859375</ele>
        <time>2019-04-29T10:11:09.000Z</time>
      </trkpt>
      <trkpt lat="40.58798770420253276824951171875" lon="-7.352913580834865570068359375">
        <ele>543.20001220703125</ele>
        <time>2019-04-29T10:11:16.000Z</time>
      </trkpt>
      <trkpt lat="40.5880811624228954315185546875" lon="-7.3531276546418666839599609375">
        <ele>545</ele>
        <time>2019-04-29T10:11:25.000Z</time>
      </trkpt>
      <trkpt lat="40.5880868621170520782470703125" lon="-7.35314835794270038604736328125">
        <ele>545.20001220703125</ele>
        <time>2019-04-29T10:12:08.000Z</time>
      </trkpt>
      <trkpt lat="40.58819373138248920440673828125" lon="-7.35341087915003299713134765625">
        <ele>545.5999755859375</ele>
        <time>2019-04-29T10:12:15.000Z</time>
      </trkpt>
      <trkpt lat="40.5886848270893096923828125" lon="-7.35381790436804294586181640625">
        <ele>537.20001220703125</ele>
        <time>2019-04-29T10:12:28.000Z</time>
      </trkpt>
      <trkpt lat="40.5887222103774547576904296875" lon="-7.35385579057037830352783203125">
        <ele>536.5999755859375</ele>
        <time>2019-04-29T10:12:29.000Z</time>
      </trkpt>
      <trkpt lat="40.58906779624521732330322265625" lon="-7.35420280136168003082275390625">
        <ele>534.5999755859375</ele>
        <time>2019-04-29T10:12:37.000Z</time>
      </trkpt>
      <trkpt lat="40.589126385748386383056640625" lon="-7.35429324209690093994140625">
        <ele>534.5999755859375</ele>
        <time>2019-04-29T10:12:39.000Z</time>
      </trkpt>
      <trkpt lat="40.58944053947925567626953125" lon="-7.35453824512660503387451171875">
        <ele>533.79998779296875</ele>
        <time>2019-04-29T10:12:45.000Z</time>
      </trkpt>
      <trkpt lat="40.5898970179259777069091796875" lon="-7.3549368046224117279052734375">
        <ele>532.79998779296875</ele>
        <time>2019-04-29T10:13:01.000Z</time>
      </trkpt>
      <trkpt lat="40.59027764014899730682373046875" lon="-7.35541750676929950714111328125">
        <ele>532.79998779296875</ele>
        <time>2019-04-29T10:13:20.000Z</time>
      </trkpt>
      <trkpt lat="40.59062129817903041839599609375" lon="-7.3554487712681293487548828125">
        <ele>530.79998779296875</ele>
        <time>2019-04-29T10:13:31.000Z</time>
      </trkpt>
      <trkpt lat="40.59066832065582275390625" lon="-7.35559419728815555572509765625">
        <ele>532.4000244140625</ele>
        <time>2019-04-29T10:13:36.000Z</time>
      </trkpt>
      <trkpt lat="40.59090896509587764739990234375" lon="-7.35617992468178272247314453125">
        <ele>540.4000244140625</ele>
        <time>2019-04-29T10:14:01.000Z</time>
      </trkpt>
      <trkpt lat="40.59132185764610767364501953125" lon="-7.356126196682453155517578125">
        <ele>538</ele>
        <time>2019-04-29T10:14:20.000Z</time>
      </trkpt>
      <trkpt lat="40.5916176550090312957763671875" lon="-7.3560834489762783050537109375">
        <ele>535.4000244140625</ele>
        <time>2019-04-29T10:14:33.000Z</time>
      </trkpt>
      <trkpt lat="40.591788478195667266845703125" lon="-7.35608738847076892852783203125">
        <ele>534.4000244140625</ele>
        <time>2019-04-29T10:14:37.000Z</time>
      </trkpt>
      <trkpt lat="40.5918828584253787994384765625" lon="-7.356085292994976043701171875">
        <ele>533.79998779296875</ele>
        <time>2019-04-29T10:14:39.000Z</time>
      </trkpt>
      <trkpt lat="40.5920930765569210052490234375" lon="-7.3562085069715976715087890625">
        <ele>537.79998779296875</ele>
        <time>2019-04-29T10:14:44.000Z</time>
      </trkpt>
      <trkpt lat="40.592623651027679443359375" lon="-7.35642786137759685516357421875">
        <ele>544.79998779296875</ele>
        <time>2019-04-29T10:15:00.000Z</time>
      </trkpt>
      <trkpt lat="40.59317685663700103759765625" lon="-7.35628067515790462493896484375">
        <ele>538.79998779296875</ele>
        <time>2019-04-29T10:15:17.000Z</time>
      </trkpt>
      <trkpt lat="40.59370215050876140594482421875" lon="-7.3564948327839374542236328125">
        <ele>542.20001220703125</ele>
        <time>2019-04-29T10:15:38.000Z</time>
      </trkpt>
      <trkpt lat="40.594141781330108642578125" lon="-7.356816194951534271240234375">
        <ele>550</ele>
        <time>2019-04-29T10:16:03.000Z</time>
      </trkpt>
      <trkpt lat="40.59430581517517566680908203125" lon="-7.3569038696587085723876953125">
        <ele>552</ele>
        <time>2019-04-29T10:16:13.000Z</time>
      </trkpt>
      <trkpt lat="40.59438326396048069000244140625" lon="-7.35701258294284343719482421875">
        <ele>553.4000244140625</ele>
        <time>2019-04-29T10:16:20.000Z</time>
      </trkpt>
      <trkpt lat="40.5947927199304103851318359375" lon="-7.357486747205257415771484375">
        <ele>552.5999755859375</ele>
        <time>2019-04-29T10:16:38.000Z</time>
      </trkpt>
      <trkpt lat="40.59510695748031139373779296875" lon="-7.35793836414813995361328125">
        <ele>549.20001220703125</ele>
        <time>2019-04-29T10:16:47.000Z</time>
      </trkpt>
      <trkpt lat="40.59541474096477031707763671875" lon="-7.35835008323192596435546875">
        <ele>548.79998779296875</ele>
        <time>2019-04-29T10:17:04.000Z</time>
      </trkpt>
      <trkpt lat="40.5954428203403949737548828125" lon="-7.35838067717850208282470703125">
        <ele>548.5999755859375</ele>
        <time>2019-04-29T10:17:48.000Z</time>
      </trkpt>
      <trkpt lat="40.595534853637218475341796875" lon="-7.35845334827899932861328125">
        <ele>548.5999755859375</ele>
        <time>2019-04-29T10:17:54.000Z</time>
      </trkpt>
      <trkpt lat="40.595937855541706085205078125" lon="-7.3589041270315647125244140625">
        <ele>545.20001220703125</ele>
        <time>2019-04-29T10:18:12.000Z</time>
      </trkpt>
      <trkpt lat="40.59629936702549457550048828125" lon="-7.35945322550833225250244140625">
        <ele>541.5999755859375</ele>
        <time>2019-04-29T10:18:30.000Z</time>
      </trkpt>
      <trkpt lat="40.59644244611263275146484375" lon="-7.3597683012485504150390625">
        <ele>541</ele>
        <time>2019-04-29T10:18:37.000Z</time>
      </trkpt>
      <trkpt lat="40.5968865193426609039306640625" lon="-7.36001866869628429412841796875">
        <ele>539.20001220703125</ele>
        <time>2019-04-29T10:18:55.000Z</time>
      </trkpt>
      <trkpt lat="40.59732086956501007080078125" lon="-7.359597645699977874755859375">
        <ele>531</ele>
        <time>2019-04-29T10:19:12.000Z</time>
      </trkpt>
      <trkpt lat="40.5978306569159030914306640625" lon="-7.35948222689330577850341796875">
        <ele>522</ele>
        <time>2019-04-29T10:19:29.000Z</time>
      </trkpt>
      <trkpt lat="40.5981699563562870025634765625" lon="-7.36003861762583255767822265625">
        <ele>517</ele>
        <time>2019-04-29T10:19:48.000Z</time>
      </trkpt>
      <trkpt lat="40.5984673462808132171630859375" lon="-7.36050792038440704345703125">
        <ele>510</ele>
        <time>2019-04-29T10:20:06.000Z</time>
      </trkpt>
      <trkpt lat="40.5984814278781414031982421875" lon="-7.36050548963248729705810546875">
        <ele>509.79998779296875</ele>
        <time>2019-04-29T10:20:08.000Z</time>
      </trkpt>
      <trkpt lat="40.59849743731319904327392578125" lon="-7.36050247214734554290771484375">
        <ele>509.399993896484375</ele>
        <time>2019-04-29T10:20:47.000Z</time>
      </trkpt>
      <trkpt lat="40.59888635762035846710205078125" lon="-7.3599964566528797149658203125">
        <ele>504.20001220703125</ele>
        <time>2019-04-29T10:21:13.000Z</time>
      </trkpt>
      <trkpt lat="40.598921813070774078369140625" lon="-7.35999561846256256103515625">
        <ele>503.600006103515625</ele>
        <time>2019-04-29T10:21:16.000Z</time>
      </trkpt>
      <trkpt lat="40.59891837649047374725341796875" lon="-7.3599894158542156219482421875">
        <ele>503.600006103515625</ele>
        <time>2019-04-29T10:21:17.000Z</time>
      </trkpt>
      <trkpt lat="40.598942600190639495849609375" lon="-7.36000408418476581573486328125">
        <ele>503.20001220703125</ele>
        <time>2019-04-29T10:21:20.000Z</time>
      </trkpt>
      <trkpt lat="40.59917452745139598846435546875" lon="-7.3601510189473628997802734375">
        <ele>498.20001220703125</ele>
        <time>2019-04-29T10:21:44.000Z</time>
      </trkpt>
      <trkpt lat="40.59921945445239543914794921875" lon="-7.3601878993213176727294921875">
        <ele>497</ele>
        <time>2019-04-29T10:21:50.000Z</time>
      </trkpt>
      <trkpt lat="40.59924594126641750335693359375" lon="-7.36018873751163482666015625">
        <ele>496.600006103515625</ele>
        <time>2019-04-29T10:23:36.000Z</time>
      </trkpt>
      <trkpt lat="40.59931014664471149444580078125" lon="-7.3601754941046237945556640625">
        <ele>495.600006103515625</ele>
        <time>2019-04-29T10:23:40.000Z</time>
      </trkpt>
      <trkpt lat="40.59936312027275562286376953125" lon="-7.36013500951230525970458984375">
        <ele>494.79998779296875</ele>
        <time>2019-04-29T10:23:44.000Z</time>
      </trkpt>
      <trkpt lat="40.59944652020931243896484375" lon="-7.360242046415805816650390625">
        <ele>492.79998779296875</ele>
        <time>2019-04-29T10:23:57.000Z</time>
      </trkpt>
      <trkpt lat="40.59944895096123218536376953125" lon="-7.3602616600692272186279296875">
        <ele>492.79998779296875</ele>
        <time>2019-04-29T10:24:16.000Z</time>
      </trkpt>
      <trkpt lat="40.59944911859929561614990234375" lon="-7.36033114604651927947998046875">
        <ele>492.79998779296875</ele>
        <time>2019-04-29T10:24:18.000Z</time>
      </trkpt>
      <trkpt lat="40.599405281245708465576171875" lon="-7.360722161829471588134765625">
        <ele>493.399993896484375</ele>
        <time>2019-04-29T10:24:28.000Z</time>
      </trkpt>
      <trkpt lat="40.59933898039162158966064453125" lon="-7.360901869833469390869140625">
        <ele>493.399993896484375</ele>
        <time>2019-04-29T10:24:34.000Z</time>
      </trkpt>
      <trkpt lat="40.5995023436844348907470703125" lon="-7.3609082400798797607421875">
        <ele>491.399993896484375</ele>
        <time>2019-04-29T10:24:39.000Z</time>
      </trkpt>
      <trkpt lat="40.59954852797091007232666015625" lon="-7.3609117604792118072509765625">
        <ele>490.79998779296875</ele>
        <time>2019-04-29T10:24:40.000Z</time>
      </trkpt>
      <trkpt lat="40.59981892816722393035888671875" lon="-7.36095073632895946502685546875">
        <ele>492.20001220703125</ele>
        <time>2019-04-29T10:24:45.000Z</time>
      </trkpt>
      <trkpt lat="40.59987978078424930572509765625" lon="-7.3609994351863861083984375">
        <ele>493</ele>
        <time>2019-04-29T10:24:50.000Z</time>
      </trkpt>
      <trkpt lat="40.5999286472797393798828125" lon="-7.361025251448154449462890625">
        <ele>493.79998779296875</ele>
        <time>2019-04-29T10:24:59.000Z</time>
      </trkpt>
      <trkpt lat="40.60007742606103420257568359375" lon="-7.36095308326184749603271484375">
        <ele>495.600006103515625</ele>
        <time>2019-04-29T10:25:09.000Z</time>
      </trkpt>
      <trkpt lat="40.60004465281963348388671875" lon="-7.3609898798167705535888671875">
        <ele>495.20001220703125</ele>
        <time>2019-04-29T10:28:57.000Z</time>
      </trkpt>
      <trkpt lat="40.6005541048943996429443359375" lon="-7.36120018176734447479248046875">
        <ele>501.20001220703125</ele>
        <time>2019-04-29T10:29:23.000Z</time>
      </trkpt>
      <trkpt lat="40.6005616486072540283203125" lon="-7.36120537854731082916259765625">
        <ele>501.20001220703125</ele>
        <time>2019-04-29T10:29:25.000Z</time>
      </trkpt>
      <trkpt lat="40.60059475712478160858154296875" lon="-7.36117847263813018798828125">
        <ele>501.79998779296875</ele>
        <time>2019-04-29T10:29:50.000Z</time>
      </trkpt>
      <trkpt lat="40.60069785453379154205322265625" lon="-7.36120319925248622894287109375">
        <ele>503.399993896484375</ele>
        <time>2019-04-29T10:29:55.000Z</time>
      </trkpt>
      <trkpt lat="40.6012021936476230621337890625" lon="-7.361451722681522369384765625">
        <ele>509.79998779296875</ele>
        <time>2019-04-29T10:30:19.000Z</time>
      </trkpt>
      <trkpt lat="40.60173151083290576934814453125" lon="-7.3612057976424694061279296875">
        <ele>512.20001220703125</ele>
        <time>2019-04-29T10:30:43.000Z</time>
      </trkpt>
      <trkpt lat="40.60211037285625934600830078125" lon="-7.36118786036968231201171875">
        <ele>511.399993896484375</ele>
        <time>2019-04-29T10:31:02.000Z</time>
      </trkpt>
      <trkpt lat="40.602147169411182403564453125" lon="-7.3619112186133861541748046875">
        <ele>510</ele>
        <time>2019-04-29T10:31:24.000Z</time>
      </trkpt>
      <trkpt lat="40.6021919287741184234619140625" lon="-7.3622029088437557220458984375">
        <ele>511</ele>
        <time>2019-04-29T10:31:30.000Z</time>
      </trkpt>
      <trkpt lat="40.602235011756420135498046875" lon="-7.36236979253590106964111328125">
        <ele>511.399993896484375</ele>
        <time>2019-04-29T10:31:33.000Z</time>
      </trkpt>
      <trkpt lat="40.6023479998111724853515625" lon="-7.36256542615592479705810546875">
        <ele>511.600006103515625</ele>
        <time>2019-04-29T10:31:37.000Z</time>
      </trkpt>
      <trkpt lat="40.6023828685283660888671875" lon="-7.3626045696437358856201171875">
        <ele>511.600006103515625</ele>
        <time>2019-04-29T10:31:38.000Z</time>
      </trkpt>
      <trkpt lat="40.60275292955338954925537109375" lon="-7.3630944080650806427001953125">
        <ele>511.399993896484375</ele>
        <time>2019-04-29T10:31:52.000Z</time>
      </trkpt>
      <trkpt lat="40.60289357788860797882080078125" lon="-7.3632580228149890899658203125">
        <ele>510.79998779296875</ele>
        <time>2019-04-29T10:31:57.000Z</time>
      </trkpt>
      <trkpt lat="40.6029281951487064361572265625" lon="-7.363309152424335479736328125">
        <ele>510.600006103515625</ele>
        <time>2019-04-29T10:32:02.000Z</time>
      </trkpt>
      <trkpt lat="40.60293230228126049041748046875" lon="-7.36334125511348247528076171875">
        <ele>510.79998779296875</ele>
        <time>2019-04-29T10:32:24.000Z</time>
      </trkpt>
      <trkpt lat="40.60323069803416728973388671875" lon="-7.36393335275352001190185546875">
        <ele>514.20001220703125</ele>
        <time>2019-04-29T10:32:45.000Z</time>
      </trkpt>
      <trkpt lat="40.60340621508657932281494140625" lon="-7.364617399871349334716796875">
        <ele>521.20001220703125</ele>
        <time>2019-04-29T10:32:59.000Z</time>
      </trkpt>
      <trkpt lat="40.60349657200276851654052734375" lon="-7.36500196158885955810546875">
        <ele>524.4000244140625</ele>
        <time>2019-04-29T10:33:08.000Z</time>
      </trkpt>
      <trkpt lat="40.60363453812897205352783203125" lon="-7.36502199433743953704833984375">
        <ele>525.20001220703125</ele>
        <time>2019-04-29T10:33:15.000Z</time>
      </trkpt>
      <trkpt lat="40.60382665134966373443603515625" lon="-7.3651841841638088226318359375">
        <ele>527.20001220703125</ele>
        <time>2019-04-29T10:33:32.000Z</time>
      </trkpt>
      <trkpt lat="40.60420869849622249603271484375" lon="-7.3647107742726802825927734375">
        <ele>524.5999755859375</ele>
        <time>2019-04-29T10:33:53.000Z</time>
      </trkpt>
      <trkpt lat="40.604495443403720855712890625" lon="-7.36474488861858844757080078125">
        <ele>526.79998779296875</ele>
        <time>2019-04-29T10:34:10.000Z</time>
      </trkpt>
      <trkpt lat="40.6045277975499629974365234375" lon="-7.36478361301124095916748046875">
        <ele>527.5999755859375</ele>
        <time>2019-04-29T10:34:17.000Z</time>
      </trkpt>
      <trkpt lat="40.6045271269977092742919921875" lon="-7.36493599601089954376220703125">
        <ele>529.5999755859375</ele>
        <time>2019-04-29T10:34:25.000Z</time>
      </trkpt>
      <trkpt lat="40.60453257523477077484130859375" lon="-7.36496600322425365447998046875">
        <ele>530</ele>
        <time>2019-04-29T10:34:27.000Z</time>
      </trkpt>
      <trkpt lat="40.604575909674167633056640625" lon="-7.36497757025063037872314453125">
        <ele>530.4000244140625</ele>
        <time>2019-04-29T10:34:32.000Z</time>
      </trkpt>
      <trkpt lat="40.60464288108050823211669921875" lon="-7.3649649135768413543701171875">
        <ele>530.5999755859375</ele>
        <time>2019-04-29T10:37:24.000Z</time>
      </trkpt>
      <trkpt lat="40.6047108583152294158935546875" lon="-7.3649179749190807342529296875">
        <ele>530.20001220703125</ele>
        <time>2019-04-29T10:37:28.000Z</time>
      </trkpt>
      <trkpt lat="40.604806579649448394775390625" lon="-7.3648012988269329071044921875">
        <ele>528.4000244140625</ele>
        <time>2019-04-29T10:37:36.000Z</time>
      </trkpt>
      <trkpt lat="40.60500632040202617645263671875" lon="-7.3646970279514789581298828125">
        <ele>526.5999755859375</ele>
        <time>2019-04-29T10:37:49.000Z</time>
      </trkpt>
      <trkpt lat="40.6053341366350650787353515625" lon="-7.36526339314877986907958984375">
        <ele>533.5999755859375</ele>
        <time>2019-04-29T10:38:20.000Z</time>
      </trkpt>
      <trkpt lat="40.60539943166077136993408203125" lon="-7.3653638921678066253662109375">
        <ele>535</ele>
        <time>2019-04-29T10:38:26.000Z</time>
      </trkpt>
      <trkpt lat="40.6056980788707733154296875" lon="-7.36581894569098949432373046875">
        <ele>540.4000244140625</ele>
        <time>2019-04-29T10:38:54.000Z</time>
      </trkpt>
      <trkpt lat="40.60575499199330806732177734375" lon="-7.36590544693171977996826171875">
        <ele>540.5999755859375</ele>
        <time>2019-04-29T10:38:59.000Z</time>
      </trkpt>
      <trkpt lat="40.6059771962463855743408203125" lon="-7.3662087880074977874755859375">
        <ele>541.4000244140625</ele>
        <time>2019-04-29T10:39:17.000Z</time>
      </trkpt>
      <trkpt lat="40.60609948821365833282470703125" lon="-7.36652009189128875732421875">
        <ele>544.5999755859375</ele>
        <time>2019-04-29T10:39:29.000Z</time>
      </trkpt>
      <trkpt lat="40.6061961315572261810302734375" lon="-7.3669544421136379241943359375">
        <ele>548.4000244140625</ele>
        <time>2019-04-29T10:39:42.000Z</time>
      </trkpt>
      <trkpt lat="40.60619621537625789642333984375" lon="-7.36695435829460620880126953125">
        <ele>548.4000244140625</ele>
        <time>2019-04-29T10:39:43.000Z</time>
      </trkpt>
      <trkpt lat="40.60617743991315364837646484375" lon="-7.366948910057544708251953125">
        <ele>548.20001220703125</ele>
        <time>2019-04-29T10:41:23.000Z</time>
      </trkpt>
      <trkpt lat="40.606303252279758453369140625" lon="-7.36661396920680999755859375">
        <ele>545.5999755859375</ele>
        <time>2019-04-29T10:41:35.000Z</time>
      </trkpt>
      <trkpt lat="40.60642101801931858062744140625" lon="-7.3663938604295253753662109375">
        <ele>543.4000244140625</ele>
        <time>2019-04-29T10:41:43.000Z</time>
      </trkpt>
      <trkpt lat="40.60645789839327335357666015625" lon="-7.36638355068862438201904296875">
        <ele>543.20001220703125</ele>
        <time>2019-04-29T10:42:23.000Z</time>
      </trkpt>
      <trkpt lat="40.60632328502833843231201171875" lon="-7.36664372496306896209716796875">
        <ele>546</ele>
        <time>2019-04-29T10:42:38.000Z</time>
      </trkpt>
      <trkpt lat="40.6061729975044727325439453125" lon="-7.36688948236405849456787109375">
        <ele>547.5999755859375</ele>
        <time>2019-04-29T10:42:49.000Z</time>
      </trkpt>
      <trkpt lat="40.606276430189609527587890625" lon="-7.367549724876880645751953125">
        <ele>555.20001220703125</ele>
        <time>2019-04-29T10:43:11.000Z</time>
      </trkpt>
      <trkpt lat="40.60669460333883762359619140625" lon="-7.36751519143581390380859375">
        <ele>555.5999755859375</ele>
        <time>2019-04-29T10:43:41.000Z</time>
      </trkpt>
      <trkpt lat="40.60678697191178798675537109375" lon="-7.367514856159687042236328125">
        <ele>555.5999755859375</ele>
        <time>2019-04-29T10:43:47.000Z</time>
      </trkpt>
      <trkpt lat="40.6070960126817226409912109375" lon="-7.36802774481475353240966796875">
        <ele>562.4000244140625</ele>
        <time>2019-04-29T10:44:20.000Z</time>
      </trkpt>
      <trkpt lat="40.60746154747903347015380859375" lon="-7.368540130555629730224609375">
        <ele>569</ele>
        <time>2019-04-29T10:44:43.000Z</time>
      </trkpt>
      <trkpt lat="40.60758073814213275909423828125" lon="-7.3686613328754901885986328125">
        <ele>570.5999755859375</ele>
        <time>2019-04-29T10:44:49.000Z</time>
      </trkpt>
      <trkpt lat="40.6074835918843746185302734375" lon="-7.3688621632754802703857421875">
        <ele>573.20001220703125</ele>
        <time>2019-04-29T10:45:01.000Z</time>
      </trkpt>
      <trkpt lat="40.60746288858354091644287109375" lon="-7.3688916675746440887451171875">
        <ele>573.5999755859375</ele>
        <time>2019-04-29T10:45:03.000Z</time>
      </trkpt>
      <trkpt lat="40.6072358228266239166259765625" lon="-7.3691372573375701904296875">
        <ele>577</ele>
        <time>2019-04-29T10:45:22.000Z</time>
      </trkpt>
      <trkpt lat="40.60714974068105220794677734375" lon="-7.36919534392654895782470703125">
        <ele>577.4000244140625</ele>
        <time>2019-04-29T10:45:28.000Z</time>
      </trkpt>
      <trkpt lat="40.606775321066379547119140625" lon="-7.36949575133621692657470703125">
        <ele>578.5999755859375</ele>
        <time>2019-04-29T10:45:53.000Z</time>
      </trkpt>
      <trkpt lat="40.606764592230319976806640625" lon="-7.3696460388600826263427734375">
        <ele>580.20001220703125</ele>
        <time>2019-04-29T10:45:59.000Z</time>
      </trkpt>
      <trkpt lat="40.60669720172882080078125" lon="-7.36980705522000789642333984375">
        <ele>582</ele>
        <time>2019-04-29T10:46:08.000Z</time>
      </trkpt>
      <trkpt lat="40.6066950224339962005615234375" lon="-7.36982013098895549774169921875">
        <ele>582.20001220703125</ele>
        <time>2019-04-29T10:46:10.000Z</time>
      </trkpt>
      <trkpt lat="40.6067084334790706634521484375" lon="-7.3698641359806060791015625">
        <ele>583</ele>
        <time>2019-04-29T10:46:15.000Z</time>
      </trkpt>
      <trkpt lat="40.60677289031445980072021484375" lon="-7.369908727705478668212890625">
        <ele>584.4000244140625</ele>
        <time>2019-04-29T10:46:24.000Z</time>
      </trkpt>
      <trkpt lat="40.60687355697154998779296875" lon="-7.369871847331523895263671875">
        <ele>585</ele>
        <time>2019-04-29T10:46:36.000Z</time>
      </trkpt>
      <trkpt lat="40.607394240796566009521484375" lon="-7.37001760862767696380615234375">
        <ele>590.79998779296875</ele>
        <time>2019-04-29T10:47:26.000Z</time>
      </trkpt>
      <trkpt lat="40.6074001081287860870361328125" lon="-7.37002481706440448760986328125">
        <ele>590.79998779296875</ele>
        <time>2019-04-29T10:47:28.000Z</time>
      </trkpt>
      <trkpt lat="40.60741276480257511138916015625" lon="-7.37004023976624011993408203125">
        <ele>591</ele>
        <time>2019-04-29T10:47:40.000Z</time>
      </trkpt>
      <trkpt lat="40.607445538043975830078125" lon="-7.37010980956256389617919921875">
        <ele>591.79998779296875</ele>
        <time>2019-04-29T10:47:47.000Z</time>
      </trkpt>
      <trkpt lat="40.60745769180357456207275390625" lon="-7.3701388947665691375732421875">
        <ele>592.20001220703125</ele>
        <time>2019-04-29T10:48:15.000Z</time>
      </trkpt>
      <trkpt lat="40.60767394490540027618408203125" lon="-7.3707869835197925567626953125">
        <ele>602</ele>
        <time>2019-04-29T10:49:02.000Z</time>
      </trkpt>
      <trkpt lat="40.60778014361858367919921875" lon="-7.3710904084146022796630859375">
        <ele>602.20001220703125</ele>
        <time>2019-04-29T10:49:28.000Z</time>
      </trkpt>
      <trkpt lat="40.6078249029815196990966796875" lon="-7.37118780612945556640625">
        <ele>602.4000244140625</ele>
        <time>2019-04-29T10:49:39.000Z</time>
      </trkpt>
      <trkpt lat="40.60784853994846343994140625" lon="-7.37120163626968860626220703125">
        <ele>602.5999755859375</ele>
        <time>2019-04-29T10:49:51.000Z</time>
      </trkpt>
      <trkpt lat="40.60839713551104068756103515625" lon="-7.3710738122463226318359375">
        <ele>601.4000244140625</ele>
        <time>2019-04-29T10:50:12.000Z</time>
      </trkpt>
      <trkpt lat="40.60886685736477375030517578125" lon="-7.371425516903400421142578125">
        <ele>603.4000244140625</ele>
        <time>2019-04-29T10:50:28.000Z</time>
      </trkpt>
      <trkpt lat="40.6089554540812969207763671875" lon="-7.37153573893010616302490234375">
        <ele>603.5999755859375</ele>
        <time>2019-04-29T10:50:31.000Z</time>
      </trkpt>
      <trkpt lat="40.60912217013537883758544921875" lon="-7.37187914550304412841796875">
        <ele>606</ele>
        <time>2019-04-29T10:50:37.000Z</time>
      </trkpt>
      <trkpt lat="40.60903700999915599822998046875" lon="-7.37236286513507366180419921875">
        <ele>610.20001220703125</ele>
        <time>2019-04-29T10:50:47.000Z</time>
      </trkpt>
      <trkpt lat="40.60893240384757518768310546875" lon="-7.37260862253606319427490234375">
        <ele>612.79998779296875</ele>
        <time>2019-04-29T10:50:56.000Z</time>
      </trkpt>
      <trkpt lat="40.6090052425861358642578125" lon="-7.3726648651063442230224609375">
        <ele>613.79998779296875</ele>
        <time>2019-04-29T10:51:01.000Z</time>
      </trkpt>
      <trkpt lat="40.60932316817343235015869140625" lon="-7.37274122424423694610595703125">
        <ele>615.79998779296875</ele>
        <time>2019-04-29T10:51:19.000Z</time>
      </trkpt>
      <trkpt lat="40.6094315461814403533935546875" lon="-7.37275714986026287078857421875">
        <ele>616.5999755859375</ele>
        <time>2019-04-29T10:51:25.000Z</time>
      </trkpt>
      <trkpt lat="40.60996270738542079925537109375" lon="-7.3728982172906398773193359375">
        <ele>623.79998779296875</ele>
        <time>2019-04-29T10:51:56.000Z</time>
      </trkpt>
      <trkpt lat="40.61049864627420902252197265625" lon="-7.37306292168796062469482421875">
        <ele>630.20001220703125</ele>
        <time>2019-04-29T10:52:27.000Z</time>
      </trkpt>
      <trkpt lat="40.61103366315364837646484375" lon="-7.37324279733002185821533203125">
        <ele>635</ele>
        <time>2019-04-29T10:52:57.000Z</time>
      </trkpt>
      <trkpt lat="40.6115531735122203826904296875" lon="-7.37344865687191486358642578125">
        <ele>635.20001220703125</ele>
        <time>2019-04-29T10:53:23.000Z</time>
      </trkpt>
      <trkpt lat="40.61169340275228023529052734375" lon="-7.37366725690662860870361328125">
        <ele>635</ele>
        <time>2019-04-29T10:53:35.000Z</time>
      </trkpt>
      <trkpt lat="40.6119273416697978973388671875" lon="-7.3743036948144435882568359375">
        <ele>643.4000244140625</ele>
        <time>2019-04-29T10:54:00.000Z</time>
      </trkpt>
      <trkpt lat="40.6124074570834636688232421875" lon="-7.37441894598305225372314453125">
        <ele>645</ele>
        <time>2019-04-29T10:54:24.000Z</time>
      </trkpt>
      <trkpt lat="40.6129361875355243682861328125" lon="-7.37430696375668048858642578125">
        <ele>645.5999755859375</ele>
        <time>2019-04-29T10:54:47.000Z</time>
      </trkpt>
      <trkpt lat="40.6134441308677196502685546875" lon="-7.3745363764464855194091796875">
        <ele>652.5999755859375</ele>
        <time>2019-04-29T10:55:15.000Z</time>
      </trkpt>
      <trkpt lat="40.6136803328990936279296875" lon="-7.37489302642643451690673828125">
        <ele>655.5999755859375</ele>
        <time>2019-04-29T10:55:34.000Z</time>
      </trkpt>
      <trkpt lat="40.61372794210910797119140625" lon="-7.37500785849988460540771484375">
        <ele>656.79998779296875</ele>
        <time>2019-04-29T10:55:39.000Z</time>
      </trkpt>
      <trkpt lat="40.61418148688971996307373046875" lon="-7.375400550663471221923828125">
        <ele>663.4000244140625</ele>
        <time>2019-04-29T10:56:03.000Z</time>
      </trkpt>
      <trkpt lat="40.61455816961824893951416015625" lon="-7.37563029862940311431884765625">
        <ele>665.79998779296875</ele>
        <time>2019-04-29T10:56:24.000Z</time>
      </trkpt>
      <trkpt lat="40.614585578441619873046875" lon="-7.37564496695995330810546875">
        <ele>666</ele>
        <time>2019-04-29T10:56:26.000Z</time>
      </trkpt>
      <trkpt lat="40.61480828560888767242431640625" lon="-7.375857867300510406494140625">
        <ele>667.20001220703125</ele>
        <time>2019-04-29T10:56:40.000Z</time>
      </trkpt>
      <trkpt lat="40.614839382469654083251953125" lon="-7.37590472213923931121826171875">
        <ele>667.20001220703125</ele>
        <time>2019-04-29T10:56:43.000Z</time>
      </trkpt>
      <trkpt lat="40.61499335803091526031494140625" lon="-7.37597932107746601104736328125">
        <ele>667.4000244140625</ele>
        <time>2019-04-29T10:56:51.000Z</time>
      </trkpt>
      <trkpt lat="40.61527566052973270416259765625" lon="-7.376221977174282073974609375">
        <ele>666.79998779296875</ele>
        <time>2019-04-29T10:57:10.000Z</time>
      </trkpt>
      <trkpt lat="40.615298710763454437255859375" lon="-7.3762194626033306121826171875">
        <ele>666.5999755859375</ele>
        <time>2019-04-29T10:58:04.000Z</time>
      </trkpt>
      <trkpt lat="40.6153816916048526763916015625" lon="-7.37604872323572635650634765625">
        <ele>666.79998779296875</ele>
        <time>2019-04-29T10:58:10.000Z</time>
      </trkpt>
      <trkpt lat="40.6155047379434108734130859375" lon="-7.3758741281926631927490234375">
        <ele>666.79998779296875</ele>
        <time>2019-04-29T10:58:15.000Z</time>
      </trkpt>
      <trkpt lat="40.61569324694573879241943359375" lon="-7.3757825978100299835205078125">
        <ele>665.4000244140625</ele>
        <time>2019-04-29T10:58:19.000Z</time>
      </trkpt>
      <trkpt lat="40.61623052693903446197509765625" lon="-7.37553172744810581207275390625">
        <ele>661.4000244140625</ele>
        <time>2019-04-29T10:58:29.000Z</time>
      </trkpt>
      <trkpt lat="40.61653663404285907745361328125" lon="-7.375380434095859527587890625">
        <ele>659</ele>
        <time>2019-04-29T10:58:35.000Z</time>
      </trkpt>
      <trkpt lat="40.61671868897974491119384765625" lon="-7.3753564618527889251708984375">
        <ele>656.79998779296875</ele>
        <time>2019-04-29T10:58:38.000Z</time>
      </trkpt>
      <trkpt lat="40.616901330649852752685546875" lon="-7.37536224536597728729248046875">
        <ele>654.79998779296875</ele>
        <time>2019-04-29T10:58:41.000Z</time>
      </trkpt>
      <trkpt lat="40.6171133928000926971435546875" lon="-7.37517097033560276031494140625">
        <ele>653.79998779296875</ele>
        <time>2019-04-29T10:58:45.000Z</time>
      </trkpt>
      <trkpt lat="40.61758269555866718292236328125" lon="-7.3747938685119152069091796875">
        <ele>650.79998779296875</ele>
        <time>2019-04-29T10:58:52.000Z</time>
      </trkpt>
      <trkpt lat="40.617883019149303436279296875" lon="-7.374687083065509796142578125">
        <ele>648.4000244140625</ele>
        <time>2019-04-29T10:58:56.000Z</time>
      </trkpt>
      <trkpt lat="40.61842457391321659088134765625" lon="-7.374496646225452423095703125">
        <ele>643.4000244140625</ele>
        <time>2019-04-29T10:59:06.000Z</time>
      </trkpt>
      <trkpt lat="40.61855751089751720428466796875" lon="-7.37443101592361927032470703125">
        <ele>642.20001220703125</ele>
        <time>2019-04-29T10:59:08.000Z</time>
      </trkpt>
      <trkpt lat="40.6190127320587635040283203125" lon="-7.3740269243717193603515625">
        <ele>638</ele>
        <time>2019-04-29T10:59:14.000Z</time>
      </trkpt>
      <trkpt lat="40.61936485581099987030029296875" lon="-7.37361914478242397308349609375">
        <ele>633.79998779296875</ele>
        <time>2019-04-29T10:59:19.000Z</time>
      </trkpt>
      <trkpt lat="40.619482286274433135986328125" lon="-7.37320994026958942413330078125">
        <ele>633</ele>
        <time>2019-04-29T10:59:23.000Z</time>
      </trkpt>
      <trkpt lat="40.61951371841132640838623046875" lon="-7.37311203964054584503173828125">
        <ele>632.79998779296875</ele>
        <time>2019-04-29T10:59:24.000Z</time>
      </trkpt>
      <trkpt lat="40.619847066700458526611328125" lon="-7.37273300997912883758544921875">
        <ele>630</ele>
        <time>2019-04-29T10:59:30.000Z</time>
      </trkpt>
      <trkpt lat="40.62033598311245441436767578125" lon="-7.372520864009857177734375">
        <ele>626.4000244140625</ele>
        <time>2019-04-29T10:59:37.000Z</time>
      </trkpt>
      <trkpt lat="40.6204584427177906036376953125" lon="-7.37245791591703891754150390625">
        <ele>625.4000244140625</ele>
        <time>2019-04-29T10:59:39.000Z</time>
      </trkpt>
      <trkpt lat="40.620738230645656585693359375" lon="-7.37246654927730560302734375">
        <ele>621</ele>
        <time>2019-04-29T10:59:43.000Z</time>
      </trkpt>
      <trkpt lat="40.621039308607578277587890625" lon="-7.3725414834916591644287109375">
        <ele>615.20001220703125</ele>
        <time>2019-04-29T10:59:48.000Z</time>
      </trkpt>
      <trkpt lat="40.6214656122028827667236328125" lon="-7.3728413879871368408203125">
        <ele>609</ele>
        <time>2019-04-29T10:59:54.000Z</time>
      </trkpt>
      <trkpt lat="40.6218568794429302215576171875" lon="-7.3730356805026531219482421875">
        <ele>606</ele>
        <time>2019-04-29T10:59:59.000Z</time>
      </trkpt>
      <trkpt lat="40.6221237592399120330810546875" lon="-7.37344681285321712493896484375">
        <ele>602.5999755859375</ele>
        <time>2019-04-29T11:00:04.000Z</time>
      </trkpt>
      <trkpt lat="40.622208751738071441650390625" lon="-7.37360506318509578704833984375">
        <ele>598.5999755859375</ele>
        <time>2019-04-29T11:00:06.000Z</time>
      </trkpt>
      <trkpt lat="40.6225988455116748809814453125" lon="-7.37368636764585971832275390625">
        <ele>588.4000244140625</ele>
        <time>2019-04-29T11:00:12.000Z</time>
      </trkpt>
      <trkpt lat="40.6227879412472248077392578125" lon="-7.3736556060612201690673828125">
        <ele>585</ele>
        <time>2019-04-29T11:00:15.000Z</time>
      </trkpt>
      <trkpt lat="40.62295599840581417083740234375" lon="-7.37356357276439666748046875">
        <ele>583</ele>
        <time>2019-04-29T11:00:18.000Z</time>
      </trkpt>
      <trkpt lat="40.62342806719243526458740234375" lon="-7.3731657676398754119873046875">
        <ele>573.79998779296875</ele>
        <time>2019-04-29T11:00:27.000Z</time>
      </trkpt>
      <trkpt lat="40.6236003153026103973388671875" lon="-7.37245607189834117889404296875">
        <ele>568</ele>
        <time>2019-04-29T11:00:34.000Z</time>
      </trkpt>
      <trkpt lat="40.6235379539430141448974609375" lon="-7.3721475340425968170166015625">
        <ele>568.4000244140625</ele>
        <time>2019-04-29T11:00:38.000Z</time>
      </trkpt>
      <trkpt lat="40.62349998392164707183837890625" lon="-7.37191577441990375518798828125">
        <ele>567.79998779296875</ele>
        <time>2019-04-29T11:00:41.000Z</time>
      </trkpt>
      <trkpt lat="40.62363627366721630096435546875" lon="-7.371353767812252044677734375">
        <ele>560.4000244140625</ele>
        <time>2019-04-29T11:00:48.000Z</time>
      </trkpt>
      <trkpt lat="40.62387784011662006378173828125" lon="-7.37115620635449886322021484375">
        <ele>555.20001220703125</ele>
        <time>2019-04-29T11:00:53.000Z</time>
      </trkpt>
      <trkpt lat="40.62413298524916172027587890625" lon="-7.3710335791110992431640625">
        <ele>550.20001220703125</ele>
        <time>2019-04-29T11:00:58.000Z</time>
      </trkpt>
      <trkpt lat="40.6245216540992259979248046875" lon="-7.370482720434665679931640625">
        <ele>539.79998779296875</ele>
        <time>2019-04-29T11:01:06.000Z</time>
      </trkpt>
      <trkpt lat="40.62465651892125606536865234375" lon="-7.3701472766697406768798828125">
        <ele>535</ele>
        <time>2019-04-29T11:01:11.000Z</time>
      </trkpt>
      <trkpt lat="40.62496162019670009613037109375" lon="-7.37013839185237884521484375">
        <ele>530</ele>
        <time>2019-04-29T11:01:18.000Z</time>
      </trkpt>
      <trkpt lat="40.625004954636096954345703125" lon="-7.37018206156790256500244140625">
        <ele>529.79998779296875</ele>
        <time>2019-04-29T11:01:19.000Z</time>
      </trkpt>
      <trkpt lat="40.62515926547348499298095703125" lon="-7.37045967020094394683837890625">
        <ele>529.79998779296875</ele>
        <time>2019-04-29T11:01:23.000Z</time>
      </trkpt>
      <trkpt lat="40.6255683861672878265380859375" lon="-7.370325140655040740966796875">
        <ele>522.79998779296875</ele>
        <time>2019-04-29T11:01:32.000Z</time>
      </trkpt>
      <trkpt lat="40.6257048435509204864501953125" lon="-7.370256073772907257080078125">
        <ele>521</ele>
        <time>2019-04-29T11:01:34.000Z</time>
      </trkpt>
      <trkpt lat="40.62603735364973545074462890625" lon="-7.3702059499919414520263671875">
        <ele>517.20001220703125</ele>
        <time>2019-04-29T11:01:38.000Z</time>
      </trkpt>
      <trkpt lat="40.62633155845105648040771484375" lon="-7.37051926553249359130859375">
        <ele>515</ele>
        <time>2019-04-29T11:01:44.000Z</time>
      </trkpt>
      <trkpt lat="40.6263676844537258148193359375" lon="-7.37057299353182315826416015625">
        <ele>514.79998779296875</ele>
        <time>2019-04-29T11:01:45.000Z</time>
      </trkpt>
      <trkpt lat="40.62667404301464557647705078125" lon="-7.37060618586838245391845703125">
        <ele>512.4000244140625</ele>
        <time>2019-04-29T11:01:51.000Z</time>
      </trkpt>
      <trkpt lat="40.626718886196613311767578125" lon="-7.37057500518858432769775390625">
        <ele>512</ele>
        <time>2019-04-29T11:01:53.000Z</time>
      </trkpt>
      <trkpt lat="40.62659106217324733734130859375" lon="-7.37044014036655426025390625">
        <ele>512.79998779296875</ele>
        <time>2019-04-29T11:02:00.000Z</time>
      </trkpt>
      <trkpt lat="40.62631311826407909393310546875" lon="-7.3699575103819370269775390625">
        <ele>512.20001220703125</ele>
        <time>2019-04-29T11:02:14.000Z</time>
      </trkpt>
      <trkpt lat="40.6262339092791080474853515625" lon="-7.36936717294156551361083984375">
        <ele>509.399993896484375</ele>
        <time>2019-04-29T11:02:22.000Z</time>
      </trkpt>
      <trkpt lat="40.62632435001432895660400390625" lon="-7.36941955983638763427734375">
        <ele>509</ele>
        <time>2019-04-29T11:02:28.000Z</time>
      </trkpt>
      <trkpt lat="40.62656474299728870391845703125" lon="-7.370058260858058929443359375">
        <ele>511.20001220703125</ele>
        <time>2019-04-29T11:02:46.000Z</time>
      </trkpt>
      <trkpt lat="40.62701602466404438018798828125" lon="-7.37041809596121311187744140625">
        <ele>508.600006103515625</ele>
        <time>2019-04-29T11:03:02.000Z</time>
      </trkpt>
      <trkpt lat="40.627060197293758392333984375" lon="-7.370416335761547088623046875">
        <ele>508</ele>
        <time>2019-04-29T11:03:03.000Z</time>
      </trkpt>
      <trkpt lat="40.62736907042562961578369140625" lon="-7.37038574181497097015380859375">
        <ele>506</ele>
        <time>2019-04-29T11:03:10.000Z</time>
      </trkpt>
      <trkpt lat="40.6277443282306194305419921875" lon="-7.37033226527273654937744140625">
        <ele>505</ele>
        <time>2019-04-29T11:03:17.000Z</time>
      </trkpt>
      <trkpt lat="40.62795865349471569061279296875" lon="-7.370396889746189117431640625">
        <ele>503.79998779296875</ele>
        <time>2019-04-29T11:03:21.000Z</time>
      </trkpt>
      <trkpt lat="40.628004334867000579833984375" lon="-7.37040049396455287933349609375">
        <ele>503.600006103515625</ele>
        <time>2019-04-29T11:03:22.000Z</time>
      </trkpt>
      <trkpt lat="40.628243386745452880859375" lon="-7.370470650494098663330078125">
        <ele>502.600006103515625</ele>
        <time>2019-04-29T11:03:26.000Z</time>
      </trkpt>
      <trkpt lat="40.6288482248783111572265625" lon="-7.3705633543431758880615234375">
        <ele>499.600006103515625</ele>
        <time>2019-04-29T11:03:34.000Z</time>
      </trkpt>
      <trkpt lat="40.62891435809433460235595703125" lon="-7.370589673519134521484375">
        <ele>498.79998779296875</ele>
        <time>2019-04-29T11:03:35.000Z</time>
      </trkpt>
      <trkpt lat="40.62915760092437267303466796875" lon="-7.3707477562129497528076171875">
        <ele>496.20001220703125</ele>
        <time>2019-04-29T11:03:39.000Z</time>
      </trkpt>
      <trkpt lat="40.62920286320149898529052734375" lon="-7.3707734048366546630859375">
        <ele>495.600006103515625</ele>
        <time>2019-04-29T11:03:40.000Z</time>
      </trkpt>
      <trkpt lat="40.6293657235801219940185546875" lon="-7.370568215847015380859375">
        <ele>495.399993896484375</ele>
        <time>2019-04-29T11:03:46.000Z</time>
      </trkpt>
      <trkpt lat="40.62966085039079189300537109375" lon="-7.36992926336824893951416015625">
        <ele>496</ele>
        <time>2019-04-29T11:03:59.000Z</time>
      </trkpt>
      <trkpt lat="40.6297546438872814178466796875" lon="-7.3697845079004764556884765625">
        <ele>494.79998779296875</ele>
        <time>2019-04-29T11:04:02.000Z</time>
      </trkpt>
      <trkpt lat="40.630005262792110443115234375" lon="-7.3697278462350368499755859375">
        <ele>494</ele>
        <time>2019-04-29T11:04:08.000Z</time>
      </trkpt>
      <trkpt lat="40.63010877929627895355224609375" lon="-7.36974469386041164398193359375">
        <ele>493.79998779296875</ele>
        <time>2019-04-29T11:04:10.000Z</time>
      </trkpt>
      <trkpt lat="40.63047054223716259002685546875" lon="-7.37000302411615848541259765625">
        <ele>494</ele>
        <time>2019-04-29T11:04:18.000Z</time>
      </trkpt>
      <trkpt lat="40.63065812923014163970947265625" lon="-7.3699725978076457977294921875">
        <ele>492.79998779296875</ele>
        <time>2019-04-29T11:04:22.000Z</time>
      </trkpt>
      <trkpt lat="40.63082241453230381011962890625" lon="-7.369940578937530517578125">
        <ele>491.399993896484375</ele>
        <time>2019-04-29T11:04:25.000Z</time>
      </trkpt>
      <trkpt lat="40.63098929822444915771484375" lon="-7.36993060447275638580322265625">
        <ele>490</ele>
        <time>2019-04-29T11:04:28.000Z</time>
      </trkpt>
      <trkpt lat="40.6310833431780338287353515625" lon="-7.36960865557193756103515625">
        <ele>488.79998779296875</ele>
        <time>2019-04-29T11:04:34.000Z</time>
      </trkpt>
      <trkpt lat="40.63107806257903575897216796875" lon="-7.36948468722403049468994140625">
        <ele>488.79998779296875</ele>
        <time>2019-04-29T11:04:36.000Z</time>
      </trkpt>
      <trkpt lat="40.631016790866851806640625" lon="-7.36913616769015789031982421875">
        <ele>487.600006103515625</ele>
        <time>2019-04-29T11:04:42.000Z</time>
      </trkpt>
      <trkpt lat="40.6312868557870388031005859375" lon="-7.36899535171687602996826171875">
        <ele>486.20001220703125</ele>
        <time>2019-04-29T11:04:48.000Z</time>
      </trkpt>
      <trkpt lat="40.63133974559605121612548828125" lon="-7.36897766590118408203125">
        <ele>485.79998779296875</ele>
        <time>2019-04-29T11:04:49.000Z</time>
      </trkpt>
      <trkpt lat="40.63159606419503688812255859375" lon="-7.36884816549718379974365234375">
        <ele>484.399993896484375</ele>
        <time>2019-04-29T11:04:54.000Z</time>
      </trkpt>
      <trkpt lat="40.6318028457462787628173828125" lon="-7.36871506087481975555419921875">
        <ele>483.20001220703125</ele>
        <time>2019-04-29T11:04:58.000Z</time>
      </trkpt>
      <trkpt lat="40.6323882378637790679931640625" lon="-7.36874557100236415863037109375">
        <ele>477.79998779296875</ele>
        <time>2019-04-29T11:05:06.000Z</time>
      </trkpt>
      <trkpt lat="40.63293431885540485382080078125" lon="-7.3686864785850048065185546875">
        <ele>474</ele>
        <time>2019-04-29T11:05:12.000Z</time>
      </trkpt>
      <trkpt lat="40.63302299939095973968505859375" lon="-7.3686941899359226226806640625">
        <ele>473.600006103515625</ele>
        <time>2019-04-29T11:05:13.000Z</time>
      </trkpt>
      <trkpt lat="40.6335781328380107879638671875" lon="-7.36884690821170806884765625">
        <ele>468.600006103515625</ele>
        <time>2019-04-29T11:05:22.000Z</time>
      </trkpt>
      <trkpt lat="40.6339828111231327056884765625" lon="-7.36904136836528778076171875">
        <ele>466</ele>
        <time>2019-04-29T11:05:30.000Z</time>
      </trkpt>
      <trkpt lat="40.63453375361859798431396484375" lon="-7.36899350769817829132080078125">
        <ele>462</ele>
        <time>2019-04-29T11:05:38.000Z</time>
      </trkpt>
      <trkpt lat="40.63460826873779296875" lon="-7.36898579634726047515869140625">
        <ele>461.399993896484375</ele>
        <time>2019-04-29T11:05:41.000Z</time>
      </trkpt>
      <trkpt lat="40.63457616604864597320556640625" lon="-7.3690460622310638427734375">
        <ele>461.600006103515625</ele>
        <time>2019-04-29T11:05:45.000Z</time>
      </trkpt>
      <trkpt lat="40.63457071781158447265625" lon="-7.3690753988921642303466796875">
        <ele>461.79998779296875</ele>
        <time>2019-04-29T11:05:46.000Z</time>
      </trkpt>
      <trkpt lat="40.6345640122890472412109375" lon="-7.369262985885143280029296875">
        <ele>461</ele>
        <time>2019-04-29T11:05:50.000Z</time>
      </trkpt>
      <trkpt lat="40.63453643582761287689208984375" lon="-7.3695798218250274658203125">
        <ele>458.20001220703125</ele>
        <time>2019-04-29T11:05:55.000Z</time>
      </trkpt>
      <trkpt lat="40.634532831609249114990234375" lon="-7.37001677043735980987548828125">
        <ele>454.20001220703125</ele>
        <time>2019-04-29T11:06:01.000Z</time>
      </trkpt>
      <trkpt lat="40.63466987572610378265380859375" lon="-7.37060300074517726898193359375">
        <ele>449.399993896484375</ele>
        <time>2019-04-29T11:06:08.000Z</time>
      </trkpt>
      <trkpt lat="40.6346580572426319122314453125" lon="-7.3709552921354770660400390625">
        <ele>447.79998779296875</ele>
        <time>2019-04-29T11:06:12.000Z</time>
      </trkpt>
      <trkpt lat="40.63451413996517658233642578125" lon="-7.3716412670910358428955078125">
        <ele>447</ele>
        <time>2019-04-29T11:06:20.000Z</time>
      </trkpt>
      <trkpt lat="40.63441489823162555694580078125" lon="-7.37209833227097988128662109375">
        <ele>445</ele>
        <time>2019-04-29T11:06:26.000Z</time>
      </trkpt>
      <trkpt lat="40.63454481773078441619873046875" lon="-7.37241148017346858978271484375">
        <ele>443.20001220703125</ele>
        <time>2019-04-29T11:06:30.000Z</time>
      </trkpt>
      <trkpt lat="40.6348550319671630859375" lon="-7.3730581440031528472900390625">
        <ele>440.600006103515625</ele>
        <time>2019-04-29T11:06:38.000Z</time>
      </trkpt>
      <trkpt lat="40.6350597180426120758056640625" lon="-7.37342367880046367645263671875">
        <ele>441.600006103515625</ele>
        <time>2019-04-29T11:06:44.000Z</time>
      </trkpt>
      <trkpt lat="40.63511780463159084320068359375" lon="-7.3737018741667270660400390625">
        <ele>443.399993896484375</ele>
        <time>2019-04-29T11:06:49.000Z</time>
      </trkpt>
      <trkpt lat="40.6351247616112232208251953125" lon="-7.37381913699209690093994140625">
        <ele>444.399993896484375</ele>
        <time>2019-04-29T11:06:51.000Z</time>
      </trkpt>
      <trkpt lat="40.6353148631751537322998046875" lon="-7.37447560764849185943603515625">
        <ele>450.79998779296875</ele>
        <time>2019-04-29T11:07:14.000Z</time>
      </trkpt>
      <trkpt lat="40.63556187786161899566650390625" lon="-7.37509570084512233734130859375">
        <ele>454.600006103515625</ele>
        <time>2019-04-29T11:07:49.000Z</time>
      </trkpt>
      <trkpt lat="40.635864548385143280029296875" lon="-7.37568813376128673553466796875">
        <ele>456.399993896484375</ele>
        <time>2019-04-29T11:08:17.000Z</time>
      </trkpt>
      <trkpt lat="40.63609278760850429534912109375" lon="-7.3763550817966461181640625">
        <ele>456.20001220703125</ele>
        <time>2019-04-29T11:08:39.000Z</time>
      </trkpt>
      <trkpt lat="40.6361379660665988922119140625" lon="-7.37653143703937530517578125">
        <ele>456.600006103515625</ele>
        <time>2019-04-29T11:08:44.000Z</time>
      </trkpt>
      <trkpt lat="40.63638565130531787872314453125" lon="-7.3765647970139980316162109375">
        <ele>455.79998779296875</ele>
        <time>2019-04-29T11:08:51.000Z</time>
      </trkpt>
      <trkpt lat="40.636526383459568023681640625" lon="-7.37656789831817150115966796875">
        <ele>455.600006103515625</ele>
        <time>2019-04-29T11:08:54.000Z</time>
      </trkpt>
      <trkpt lat="40.6367250345647335052490234375" lon="-7.3766013421118259429931640625">
        <ele>455.20001220703125</ele>
        <time>2019-04-29T11:08:58.000Z</time>
      </trkpt>
      <trkpt lat="40.637055449187755584716796875" lon="-7.37661282531917095184326171875">
        <ele>454.399993896484375</ele>
        <time>2019-04-29T11:09:04.000Z</time>
      </trkpt>
      <trkpt lat="40.6376389972865581512451171875" lon="-7.37660192884504795074462890625">
        <ele>451.399993896484375</ele>
        <time>2019-04-29T11:09:13.000Z</time>
      </trkpt>
      <trkpt lat="40.63825070858001708984375" lon="-7.37656270153820514678955078125">
        <ele>448.20001220703125</ele>
        <time>2019-04-29T11:09:22.000Z</time>
      </trkpt>
      <trkpt lat="40.63847626559436321258544921875" lon="-7.3765044473111629486083984375">
        <ele>447.20001220703125</ele>
        <time>2019-04-29T11:09:26.000Z</time>
      </trkpt>
      <trkpt lat="40.6385338492691516876220703125" lon="-7.37697961740195751190185546875">
        <ele>446.20001220703125</ele>
        <time>2019-04-29T11:09:35.000Z</time>
      </trkpt>
      <trkpt lat="40.63849822618067264556884765625" lon="-7.37728840671479701995849609375">
        <ele>445</ele>
        <time>2019-04-29T11:09:40.000Z</time>
      </trkpt>
      <trkpt lat="40.638504512608051300048828125" lon="-7.37752854824066162109375">
        <ele>443.79998779296875</ele>
        <time>2019-04-29T11:09:44.000Z</time>
      </trkpt>
      <trkpt lat="40.63865345902740955352783203125" lon="-7.37772778607904911041259765625">
        <ele>442</ele>
        <time>2019-04-29T11:09:49.000Z</time>
      </trkpt>
      <trkpt lat="40.63887524418532848358154296875" lon="-7.37793381325900554656982421875">
        <ele>438.79998779296875</ele>
        <time>2019-04-29T11:09:55.000Z</time>
      </trkpt>
      <trkpt lat="40.63921906985342502593994140625" lon="-7.37848768942058086395263671875">
        <ele>432</ele>
        <time>2019-04-29T11:10:09.000Z</time>
      </trkpt>
      <trkpt lat="40.6394196487963199615478515625" lon="-7.37917668186128139495849609375">
        <ele>425.600006103515625</ele>
        <time>2019-04-29T11:10:19.000Z</time>
      </trkpt>
      <trkpt lat="40.6394390948116779327392578125" lon="-7.37929503433406352996826171875">
        <ele>424.600006103515625</ele>
        <time>2019-04-29T11:10:21.000Z</time>
      </trkpt>
      <trkpt lat="40.63944160938262939453125" lon="-7.379472143948078155517578125">
        <ele>423.399993896484375</ele>
        <time>2019-04-29T11:10:24.000Z</time>
      </trkpt>
      <trkpt lat="40.63947589136660099029541015625" lon="-7.37979174591600894927978515625">
        <ele>422.20001220703125</ele>
        <time>2019-04-29T11:10:29.000Z</time>
      </trkpt>
      <trkpt lat="40.6395081616938114166259765625" lon="-7.38013624213635921478271484375">
        <ele>421.20001220703125</ele>
        <time>2019-04-29T11:10:37.000Z</time>
      </trkpt>
      <trkpt lat="40.639374889433383941650390625" lon="-7.380227856338024139404296875">
        <ele>421.399993896484375</ele>
        <time>2019-04-29T11:10:41.000Z</time>
      </trkpt>
      <trkpt lat="40.6388421356678009033203125" lon="-7.3803936503827571868896484375">
        <ele>422.600006103515625</ele>
        <time>2019-04-29T11:10:52.000Z</time>
      </trkpt>
      <trkpt lat="40.6389360129833221435546875" lon="-7.3808737657964229583740234375">
        <ele>422.20001220703125</ele>
        <time>2019-04-29T11:11:02.000Z</time>
      </trkpt>
      <trkpt lat="40.63909971155226230621337890625" lon="-7.38110971637070178985595703125">
        <ele>422.79998779296875</ele>
        <time>2019-04-29T11:11:07.000Z</time>
      </trkpt>
      <trkpt lat="40.63917498104274272918701171875" lon="-7.381412051618099212646484375">
        <ele>423.79998779296875</ele>
        <time>2019-04-29T11:11:12.000Z</time>
      </trkpt>
      <trkpt lat="40.639181435108184814453125" lon="-7.38152562640607357025146484375">
        <ele>424.20001220703125</ele>
        <time>2019-04-29T11:11:14.000Z</time>
      </trkpt>
      <trkpt lat="40.63935150392353534698486328125" lon="-7.3822148703038692474365234375">
        <ele>426.399993896484375</ele>
        <time>2019-04-29T11:11:35.000Z</time>
      </trkpt>
      <trkpt lat="40.6395014561712741851806640625" lon="-7.3829055391252040863037109375">
        <ele>429.79998779296875</ele>
        <time>2019-04-29T11:11:57.000Z</time>
      </trkpt>
      <trkpt lat="40.6395041383802890777587890625" lon="-7.38299866206943988800048828125">
        <ele>430.20001220703125</ele>
        <time>2019-04-29T11:12:00.000Z</time>
      </trkpt>
      <trkpt lat="40.6395172141492366790771484375" lon="-7.3833717405796051025390625">
        <ele>432.20001220703125</ele>
        <time>2019-04-29T11:12:15.000Z</time>
      </trkpt>
      <trkpt lat="40.6395215727388858795166015625" lon="-7.3834788613021373748779296875">
        <ele>433</ele>
        <time>2019-04-29T11:12:21.000Z</time>
      </trkpt>
      <trkpt lat="40.63952567987143993377685546875" lon="-7.38355203531682491302490234375">
        <ele>433.20001220703125</ele>
        <time>2019-04-29T11:12:24.000Z</time>
      </trkpt>
      <trkpt lat="40.63961327075958251953125" lon="-7.38424270413815975189208984375">
        <ele>435.600006103515625</ele>
        <time>2019-04-29T11:13:02.000Z</time>
      </trkpt>
      <trkpt lat="40.63961167819797992706298828125" lon="-7.3842476494610309600830078125">
        <ele>435.79998779296875</ele>
        <time>2019-04-29T11:13:04.000Z</time>
      </trkpt>
      <trkpt lat="40.6396355666220188140869140625" lon="-7.38428092561662197113037109375">
        <ele>436</ele>
        <time>2019-04-29T11:13:08.000Z</time>
      </trkpt>
      <trkpt lat="40.63963648863136768341064453125" lon="-7.38428092561662197113037109375">
        <ele>436</ele>
        <time>2019-04-29T11:13:10.000Z</time>
      </trkpt>
      <trkpt lat="40.6396566890180110931396484375" lon="-7.384338676929473876953125">
        <ele>436.399993896484375</ele>
        <time>2019-04-29T11:13:20.000Z</time>
      </trkpt>
      <trkpt lat="40.6399182043969631195068359375" lon="-7.3849664814770221710205078125">
        <ele>442</ele>
        <time>2019-04-29T11:13:42.000Z</time>
      </trkpt>
      <trkpt lat="40.640050806105136871337890625" lon="-7.3855740018188953399658203125">
        <ele>447.79998779296875</ele>
        <time>2019-04-29T11:14:21.000Z</time>
      </trkpt>
      <trkpt lat="40.64005910418927669525146484375" lon="-7.38564466126263141632080078125">
        <ele>448.399993896484375</ele>
        <time>2019-04-29T11:14:26.000Z</time>
      </trkpt>
      <trkpt lat="40.64006094820797443389892578125" lon="-7.38572278060019016265869140625">
        <ele>449</ele>
        <time>2019-04-29T11:14:34.000Z</time>
      </trkpt>
      <trkpt lat="40.64006052911281585693359375" lon="-7.3857642710208892822265625">
        <ele>449.399993896484375</ele>
        <time>2019-04-29T11:14:38.000Z</time>
      </trkpt>
      <trkpt lat="40.6400828249752521514892578125" lon="-7.38613399676978588104248046875">
        <ele>455.20001220703125</ele>
        <time>2019-04-29T11:15:05.000Z</time>
      </trkpt>
      <trkpt lat="40.64017578028142452239990234375" lon="-7.3862847872078418731689453125">
        <ele>457.600006103515625</ele>
        <time>2019-04-29T11:15:24.000Z</time>
      </trkpt>
      <trkpt lat="40.6403443403542041778564453125" lon="-7.386618554592132568359375">
        <ele>461.600006103515625</ele>
        <time>2019-04-29T11:16:06.000Z</time>
      </trkpt>
      <trkpt lat="40.64034827984869480133056640625" lon="-7.38693564198911190032958984375">
        <ele>467.600006103515625</ele>
        <time>2019-04-29T11:16:51.000Z</time>
      </trkpt>
      <trkpt lat="40.6402863375842571258544921875" lon="-7.3871692456305027008056640625">
        <ele>472</ele>
        <time>2019-04-29T11:17:12.000Z</time>
      </trkpt>
      <trkpt lat="40.640230514109134674072265625" lon="-7.38748616538941860198974609375">
        <ele>477.399993896484375</ele>
        <time>2019-04-29T11:17:41.000Z</time>
      </trkpt>
      <trkpt lat="40.64027770422399044036865234375" lon="-7.3876203596591949462890625">
        <ele>479.399993896484375</ele>
        <time>2019-04-29T11:17:56.000Z</time>
      </trkpt>
      <trkpt lat="40.640321038663387298583984375" lon="-7.38801908679306507110595703125">
        <ele>484.600006103515625</ele>
        <time>2019-04-29T11:21:20.000Z</time>
      </trkpt>
      <trkpt lat="40.6402534805238246917724609375" lon="-7.388211786746978759765625">
        <ele>487.600006103515625</ele>
        <time>2019-04-29T11:21:36.000Z</time>
      </trkpt>
      <trkpt lat="40.64026999287307262420654296875" lon="-7.3883715458214282989501953125">
        <ele>489.399993896484375</ele>
        <time>2019-04-29T11:21:46.000Z</time>
      </trkpt>
      <trkpt lat="40.640053488314151763916015625" lon="-7.388363666832447052001953125">
        <ele>490.79998779296875</ele>
        <time>2019-04-29T11:22:00.000Z</time>
      </trkpt>
      <trkpt lat="40.64002557657659053802490234375" lon="-7.38839191384613513946533203125">
        <ele>491.399993896484375</ele>
        <time>2019-04-29T11:22:05.000Z</time>
      </trkpt>
      <trkpt lat="40.64005457796156406402587890625" lon="-7.38843097351491451263427734375">
        <ele>491.399993896484375</ele>
        <time>2019-04-29T11:22:12.000Z</time>
      </trkpt>
      <trkpt lat="40.640603005886077880859375" lon="-7.388646639883518218994140625">
        <ele>488</ele>
        <time>2019-04-29T11:22:32.000Z</time>
      </trkpt>
      <trkpt lat="40.6410497613251209259033203125" lon="-7.3890685848891735076904296875">
        <ele>486.20001220703125</ele>
        <time>2019-04-29T11:22:47.000Z</time>
      </trkpt>
      <trkpt lat="40.6412800960242748260498046875" lon="-7.3894497938454151153564453125">
        <ele>484.20001220703125</ele>
        <time>2019-04-29T11:23:01.000Z</time>
      </trkpt>
      <trkpt lat="40.64124665223062038421630859375" lon="-7.3894987441599369049072265625">
        <ele>484.600006103515625</ele>
        <time>2019-04-29T11:35:06.000Z</time>
      </trkpt>
      <trkpt lat="40.6413173116743564605712890625" lon="-7.390201650559902191162109375">
        <ele>481</ele>
        <time>2019-04-29T11:35:20.000Z</time>
      </trkpt>
      <trkpt lat="40.64134052954614162445068359375" lon="-7.3902557976543903350830078125">
        <ele>480.600006103515625</ele>
        <time>2019-04-29T11:35:21.000Z</time>
      </trkpt>
      <trkpt lat="40.6416477262973785400390625" lon="-7.390507757663726806640625">
        <ele>477.20001220703125</ele>
        <time>2019-04-29T11:35:28.000Z</time>
      </trkpt>
      <trkpt lat="40.64170581288635730743408203125" lon="-7.3905173130333423614501953125">
        <ele>476.600006103515625</ele>
        <time>2019-04-29T11:35:29.000Z</time>
      </trkpt>
      <trkpt lat="40.64213161356747150421142578125" lon="-7.39007382653653621673583984375">
        <ele>474.20001220703125</ele>
        <time>2019-04-29T11:35:38.000Z</time>
      </trkpt>
      <trkpt lat="40.64215173013508319854736328125" lon="-7.38998212851583957672119140625">
        <ele>474.399993896484375</ele>
        <time>2019-04-29T11:35:39.000Z</time>
      </trkpt>
      <trkpt lat="40.64230595715343952178955078125" lon="-7.38920663483440876007080078125">
        <ele>470.600006103515625</ele>
        <time>2019-04-29T11:35:47.000Z</time>
      </trkpt>
      <trkpt lat="40.642604939639568328857421875" lon="-7.38858805038034915924072265625">
        <ele>467.20001220703125</ele>
        <time>2019-04-29T11:35:54.000Z</time>
      </trkpt>
      <trkpt lat="40.64295102842152118682861328125" lon="-7.38798019476234912872314453125">
        <ele>463.600006103515625</ele>
        <time>2019-04-29T11:36:01.000Z</time>
      </trkpt>
      <trkpt lat="40.64331614412367343902587890625" lon="-7.38736077211797237396240234375">
        <ele>461.399993896484375</ele>
        <time>2019-04-29T11:36:08.000Z</time>
      </trkpt>
      <trkpt lat="40.64368159510195255279541015625" lon="-7.3867273516952991485595703125">
        <ele>458</ele>
        <time>2019-04-29T11:36:15.000Z</time>
      </trkpt>
      <trkpt lat="40.6440724432468414306640625" lon="-7.38620339892804622650146484375">
        <ele>454</ele>
        <time>2019-04-29T11:36:21.000Z</time>
      </trkpt>
      <trkpt lat="40.64456320367753505706787109375" lon="-7.38567902706563472747802734375">
        <ele>451</ele>
        <time>2019-04-29T11:36:28.000Z</time>
      </trkpt>
      <trkpt lat="40.645050108432769775390625" lon="-7.38516270183026790618896484375">
        <ele>451.20001220703125</ele>
        <time>2019-04-29T11:36:35.000Z</time>
      </trkpt>
      <trkpt lat="40.6451659463346004486083984375" lon="-7.38500763662159442901611328125">
        <ele>451.20001220703125</ele>
        <time>2019-04-29T11:36:37.000Z</time>
      </trkpt>
      <trkpt lat="40.6455414555966854095458984375" lon="-7.38445426337420940399169921875">
        <ele>449.600006103515625</ele>
        <time>2019-04-29T11:36:45.000Z</time>
      </trkpt>
      <trkpt lat="40.645609013736248016357421875" lon="-7.38444688729941844940185546875">
        <ele>449.399993896484375</ele>
        <time>2019-04-29T11:36:46.000Z</time>
      </trkpt>
      <trkpt lat="40.64567397348582744598388671875" lon="-7.38443179987370967864990234375">
        <ele>449.20001220703125</ele>
        <time>2019-04-29T11:36:47.000Z</time>
      </trkpt>
      <trkpt lat="40.64612274058163166046142578125" lon="-7.38402443937957286834716796875">
        <ele>445</ele>
        <time>2019-04-29T11:36:55.000Z</time>
      </trkpt>
      <trkpt lat="40.6466795504093170166015625" lon="-7.38369452767074108123779296875">
        <ele>440.399993896484375</ele>
        <time>2019-04-29T11:37:03.000Z</time>
      </trkpt>
      <trkpt lat="40.64726293087005615234375" lon="-7.383439801633358001708984375">
        <ele>435.79998779296875</ele>
        <time>2019-04-29T11:37:10.000Z</time>
      </trkpt>
      <trkpt lat="40.64778001047670841217041015625" lon="-7.383207790553569793701171875">
        <ele>433</ele>
        <time>2019-04-29T11:37:16.000Z</time>
      </trkpt>
      <trkpt lat="40.648311674594879150390625" lon="-7.382970415055751800537109375">
        <ele>431.20001220703125</ele>
        <time>2019-04-29T11:37:22.000Z</time>
      </trkpt>
      <trkpt lat="40.6488258205354213714599609375" lon="-7.38274284638464450836181640625">
        <ele>430.20001220703125</ele>
        <time>2019-04-29T11:37:28.000Z</time>
      </trkpt>
      <trkpt lat="40.6494155712425708770751953125" lon="-7.3824676685035228729248046875">
        <ele>427</ele>
        <time>2019-04-29T11:37:35.000Z</time>
      </trkpt>
      <trkpt lat="40.649938769638538360595703125" lon="-7.38226859830319881439208984375">
        <ele>423.399993896484375</ele>
        <time>2019-04-29T11:37:41.000Z</time>
      </trkpt>
      <trkpt lat="40.65021964721381664276123046875" lon="-7.3822809197008609771728515625">
        <ele>421</ele>
        <time>2019-04-29T11:37:44.000Z</time>
      </trkpt>
      <trkpt lat="40.650579817593097686767578125" lon="-7.3824566043913364410400390625">
        <ele>418.399993896484375</ele>
        <time>2019-04-29T11:37:48.000Z</time>
      </trkpt>
      <trkpt lat="40.65107644535601139068603515625" lon="-7.382804453372955322265625">
        <ele>416.20001220703125</ele>
        <time>2019-04-29T11:37:54.000Z</time>
      </trkpt>
      <trkpt lat="40.65155471675097942352294921875" lon="-7.38313964568078517913818359375">
        <ele>415.20001220703125</ele>
        <time>2019-04-29T11:38:00.000Z</time>
      </trkpt>
      <trkpt lat="40.6521081738173961639404296875" lon="-7.38349839113652706146240234375">
        <ele>414.600006103515625</ele>
        <time>2019-04-29T11:38:07.000Z</time>
      </trkpt>
      <trkpt lat="40.652372203767299652099609375" lon="-7.38357382826507091522216796875">
        <ele>413.79998779296875</ele>
        <time>2019-04-29T11:38:10.000Z</time>
      </trkpt>
      <trkpt lat="40.65263698808848857879638671875" lon="-7.38357483409345149993896484375">
        <ele>412.600006103515625</ele>
        <time>2019-04-29T11:38:13.000Z</time>
      </trkpt>
      <trkpt lat="40.6532605178654193878173828125" lon="-7.383485734462738037109375">
        <ele>408</ele>
        <time>2019-04-29T11:38:20.000Z</time>
      </trkpt>
      <trkpt lat="40.65368003211915493011474609375" lon="-7.383233942091464996337890625">
        <ele>404</ele>
        <time>2019-04-29T11:38:25.000Z</time>
      </trkpt>
      <trkpt lat="40.65415930934250354766845703125" lon="-7.3828247375786304473876953125">
        <ele>406.20001220703125</ele>
        <time>2019-04-29T11:38:32.000Z</time>
      </trkpt>
      <trkpt lat="40.6546619720757007598876953125" lon="-7.38239164464175701141357421875">
        <ele>410.79998779296875</ele>
        <time>2019-04-29T11:38:40.000Z</time>
      </trkpt>
      <trkpt lat="40.65515390597283840179443359375" lon="-7.381976656615734100341796875">
        <ele>413.20001220703125</ele>
        <time>2019-04-29T11:38:49.000Z</time>
      </trkpt>
      <trkpt lat="40.65563770942389965057373046875" lon="-7.38157139159739017486572265625">
        <ele>415.79998779296875</ele>
        <time>2019-04-29T11:39:02.000Z</time>
      </trkpt>
      <trkpt lat="40.656105168163776397705078125" lon="-7.38117492757737636566162109375">
        <ele>418.79998779296875</ele>
        <time>2019-04-29T11:39:17.000Z</time>
      </trkpt>
      <trkpt lat="40.65659701824188232421875" lon="-7.3808684013783931732177734375">
        <ele>421.79998779296875</ele>
        <time>2019-04-29T11:39:34.000Z</time>
      </trkpt>
      <trkpt lat="40.65714217722415924072265625" lon="-7.3809341154992580413818359375">
        <ele>426</ele>
        <time>2019-04-29T11:39:53.000Z</time>
      </trkpt>
      <trkpt lat="40.65768943168222904205322265625" lon="-7.38105137832462787628173828125">
        <ele>430.20001220703125</ele>
        <time>2019-04-29T11:40:13.000Z</time>
      </trkpt>
      <trkpt lat="40.65817625261843204498291015625" lon="-7.38089296035468578338623046875">
        <ele>433.600006103515625</ele>
        <time>2019-04-29T11:40:33.000Z</time>
      </trkpt>
      <trkpt lat="40.658590234816074371337890625" lon="-7.38137341104447841644287109375">
        <ele>436.600006103515625</ele>
        <time>2019-04-29T11:40:50.000Z</time>
      </trkpt>
      <trkpt lat="40.6590842641890048980712890625" lon="-7.38168370909988880157470703125">
        <ele>435</ele>
        <time>2019-04-29T11:41:05.000Z</time>
      </trkpt>
      <trkpt lat="40.6596170179545879364013671875" lon="-7.381890155375003814697265625">
        <ele>432.20001220703125</ele>
        <time>2019-04-29T11:41:19.000Z</time>
      </trkpt>
      <trkpt lat="40.6601750850677490234375" lon="-7.38192359916865825653076171875">
        <ele>430</ele>
        <time>2019-04-29T11:41:32.000Z</time>
      </trkpt>
      <trkpt lat="40.66073558293282985687255859375" lon="-7.38191789947450160980224609375">
        <ele>428.399993896484375</ele>
        <time>2019-04-29T11:41:43.000Z</time>
      </trkpt>
      <trkpt lat="40.66131443716585636138916015625" lon="-7.38189644180238246917724609375">
        <ele>427.20001220703125</ele>
        <time>2019-04-29T11:41:53.000Z</time>
      </trkpt>
      <trkpt lat="40.6618689000606536865234375" lon="-7.38184229470789432525634765625">
        <ele>424.600006103515625</ele>
        <time>2019-04-29T11:42:02.000Z</time>
      </trkpt>
      <trkpt lat="40.6624118797481060028076171875" lon="-7.38176736049354076385498046875">
        <ele>423</ele>
        <time>2019-04-29T11:42:11.000Z</time>
      </trkpt>
      <trkpt lat="40.66296349279582500457763671875" lon="-7.3816844634711742401123046875">
        <ele>421.79998779296875</ele>
        <time>2019-04-29T11:42:20.000Z</time>
      </trkpt>
      <trkpt lat="40.663532204926013946533203125" lon="-7.38160550594329833984375">
        <ele>421</ele>
        <time>2019-04-29T11:42:29.000Z</time>
      </trkpt>
      <trkpt lat="40.66412304528057575225830078125" lon="-7.3815228603780269622802734375">
        <ele>419.399993896484375</ele>
        <time>2019-04-29T11:42:38.000Z</time>
      </trkpt>
      <trkpt lat="40.66466887481510639190673828125" lon="-7.38144700415432453155517578125">
        <ele>416.600006103515625</ele>
        <time>2019-04-29T11:42:46.000Z</time>
      </trkpt>
      <trkpt lat="40.6652375869452953338623046875" lon="-7.3813592456281185150146484375">
        <ele>414.20001220703125</ele>
        <time>2019-04-29T11:42:54.000Z</time>
      </trkpt>
      <trkpt lat="40.665846280753612518310546875" lon="-7.3812720738351345062255859375">
        <ele>411.79998779296875</ele>
        <time>2019-04-29T11:43:02.000Z</time>
      </trkpt>
      <trkpt lat="40.66644751466810703277587890625" lon="-7.3811674676835536956787109375">
        <ele>409.20001220703125</ele>
        <time>2019-04-29T11:43:10.000Z</time>
      </trkpt>
      <trkpt lat="40.66699795424938201904296875" lon="-7.38107853569090366363525390625">
        <ele>407.79998779296875</ele>
        <time>2019-04-29T11:43:17.000Z</time>
      </trkpt>
      <trkpt lat="40.66759566776454448699951171875" lon="-7.3810085467994213104248046875">
        <ele>407.399993896484375</ele>
        <time>2019-04-29T11:43:25.000Z</time>
      </trkpt>
      <trkpt lat="40.6677397526800632476806640625" lon="-7.3810226283967494964599609375">
        <ele>407</ele>
        <time>2019-04-29T11:43:27.000Z</time>
      </trkpt>
      <trkpt lat="40.66825800575315952301025390625" lon="-7.38138514570891857147216796875">
        <ele>403.20001220703125</ele>
        <time>2019-04-29T11:43:36.000Z</time>
      </trkpt>
      <trkpt lat="40.66872127354145050048828125" lon="-7.38185285590589046478271484375">
        <ele>403</ele>
        <time>2019-04-29T11:43:46.000Z</time>
      </trkpt>
      <trkpt lat="40.66927825100719928741455078125" lon="-7.3820492438971996307373046875">
        <ele>406.399993896484375</ele>
        <time>2019-04-29T11:43:56.000Z</time>
      </trkpt>
      <trkpt lat="40.6694285385310649871826171875" lon="-7.382019571959972381591796875">
        <ele>406.600006103515625</ele>
        <time>2019-04-29T11:43:59.000Z</time>
      </trkpt>
      <trkpt lat="40.66975786350667476654052734375" lon="-7.381884120404720306396484375">
        <ele>406.600006103515625</ele>
        <time>2019-04-29T11:44:07.000Z</time>
      </trkpt>
      <trkpt lat="40.669842101633548736572265625" lon="-7.3818450607359409332275390625">
        <ele>406.600006103515625</ele>
        <time>2019-04-29T11:44:09.000Z</time>
      </trkpt>
      <trkpt lat="40.67009783349931240081787109375" lon="-7.38171656616032123565673828125">
        <ele>406.399993896484375</ele>
        <time>2019-04-29T11:44:15.000Z</time>
      </trkpt>
      <trkpt lat="40.67064215429127216339111328125" lon="-7.3814593255519866943359375">
        <ele>406.20001220703125</ele>
        <time>2019-04-29T11:44:26.000Z</time>
      </trkpt>
      <trkpt lat="40.67117088474333286285400390625" lon="-7.38121055066585540771484375">
        <ele>407.20001220703125</ele>
        <time>2019-04-29T11:44:36.000Z</time>
      </trkpt>
      <trkpt lat="40.67170523107051849365234375" lon="-7.38096244633197784423828125">
        <ele>407</ele>
        <time>2019-04-29T11:44:46.000Z</time>
      </trkpt>
      <trkpt lat="40.67224980331957340240478515625" lon="-7.38071107305586338043212890625">
        <ele>405.79998779296875</ele>
        <time>2019-04-29T11:44:56.000Z</time>
      </trkpt>
      <trkpt lat="40.67280082963407039642333984375" lon="-7.38045458681881427764892578125">
        <ele>405.600006103515625</ele>
        <time>2019-04-29T11:45:06.000Z</time>
      </trkpt>
      <trkpt lat="40.6733308173716068267822265625" lon="-7.38022324629127979278564453125">
        <ele>405.600006103515625</ele>
        <time>2019-04-29T11:45:16.000Z</time>
      </trkpt>
      <trkpt lat="40.67346367053687572479248046875" lon="-7.38016038201749324798583984375">
        <ele>405.79998779296875</ele>
        <time>2019-04-29T11:45:19.000Z</time>
      </trkpt>
      <trkpt lat="40.6739524193108081817626953125" lon="-7.37993658520281314849853515625">
        <ele>406.20001220703125</ele>
        <time>2019-04-29T11:45:31.000Z</time>
      </trkpt>
      <trkpt lat="40.67448190413415431976318359375" lon="-7.379687726497650146484375">
        <ele>406.79998779296875</ele>
        <time>2019-04-29T11:45:44.000Z</time>
      </trkpt>
      <trkpt lat="40.67502572201192378997802734375" lon="-7.37943165935575962066650390625">
        <ele>407.79998779296875</ele>
        <time>2019-04-29T11:45:57.000Z</time>
      </trkpt>
      <trkpt lat="40.67557741887867450714111328125" lon="-7.3791826330125331878662109375">
        <ele>409.20001220703125</ele>
        <time>2019-04-29T11:46:10.000Z</time>
      </trkpt>
      <trkpt lat="40.6761074066162109375" lon="-7.37893595360219478607177734375">
        <ele>410.79998779296875</ele>
        <time>2019-04-29T11:46:22.000Z</time>
      </trkpt>
      <trkpt lat="40.6766346283257007598876953125" lon="-7.37869036383926868438720703125">
        <ele>413</ele>
        <time>2019-04-29T11:46:34.000Z</time>
      </trkpt>
      <trkpt lat="40.67714567296206951141357421875" lon="-7.37846019677817821502685546875">
        <ele>415.399993896484375</ele>
        <time>2019-04-29T11:46:50.000Z</time>
      </trkpt>
      <trkpt lat="40.67765881307423114776611328125" lon="-7.3782207258045673370361328125">
        <ele>415.600006103515625</ele>
        <time>2019-04-29T11:47:04.000Z</time>
      </trkpt>
      <trkpt lat="40.67819156683981418609619140625" lon="-7.37797052599489688873291015625">
        <ele>416.20001220703125</ele>
        <time>2019-04-29T11:47:22.000Z</time>
      </trkpt>
      <trkpt lat="40.67871895618736743927001953125" lon="-7.37773616798222064971923828125">
        <ele>418.79998779296875</ele>
        <time>2019-04-29T11:47:38.000Z</time>
      </trkpt>
      <trkpt lat="40.67915582098066806793212890625" lon="-7.37752729095518589019775390625">
        <ele>420.20001220703125</ele>
        <time>2019-04-29T11:47:50.000Z</time>
      </trkpt>
      <trkpt lat="40.67966736853122711181640625" lon="-7.37729662097990512847900390625">
        <ele>420.79998779296875</ele>
        <time>2019-04-29T11:48:03.000Z</time>
      </trkpt>
      <trkpt lat="40.6801991164684295654296875" lon="-7.37705153413116931915283203125">
        <ele>420.600006103515625</ele>
        <time>2019-04-29T11:48:20.000Z</time>
      </trkpt>
      <trkpt lat="40.68074251525104045867919921875" lon="-7.37687132321298122406005859375">
        <ele>420.600006103515625</ele>
        <time>2019-04-29T11:48:36.000Z</time>
      </trkpt>
      <trkpt lat="40.68130888044834136962890625" lon="-7.37677820026874542236328125">
        <ele>419.399993896484375</ele>
        <time>2019-04-29T11:48:50.000Z</time>
      </trkpt>
      <trkpt lat="40.68185110576450824737548828125" lon="-7.3766999132931232452392578125">
        <ele>420.20001220703125</ele>
        <time>2019-04-29T11:49:03.000Z</time>
      </trkpt>
      <trkpt lat="40.68240531720221042633056640625" lon="-7.3766348697245121002197265625">
        <ele>421.79998779296875</ele>
        <time>2019-04-29T11:49:16.000Z</time>
      </trkpt>
      <trkpt lat="40.68296891637146472930908203125" lon="-7.3765523917973041534423828125">
        <ele>423.79998779296875</ele>
        <time>2019-04-29T11:49:29.000Z</time>
      </trkpt>
      <trkpt lat="40.6835299171507358551025390625" lon="-7.37645692192018032073974609375">
        <ele>425.79998779296875</ele>
        <time>2019-04-29T11:49:41.000Z</time>
      </trkpt>
      <trkpt lat="40.68403266370296478271484375" lon="-7.3762003518640995025634765625">
        <ele>426.79998779296875</ele>
        <time>2019-04-29T11:49:52.000Z</time>
      </trkpt>
      <trkpt lat="40.6845132820308208465576171875" lon="-7.37584487535059452056884765625">
        <ele>426.600006103515625</ele>
        <time>2019-04-29T11:50:07.000Z</time>
      </trkpt>
      <trkpt lat="40.6847201474010944366455078125" lon="-7.3757059872150421142578125">
        <ele>426.79998779296875</ele>
        <time>2019-04-29T11:50:17.000Z</time>
      </trkpt>
      <trkpt lat="40.68474018014967441558837890625" lon="-7.37569970078766345977783203125">
        <ele>427</ele>
        <time>2019-04-29T11:50:56.000Z</time>
      </trkpt>
      <trkpt lat="40.68523957394063472747802734375" lon="-7.37534464336931705474853515625">
        <ele>427.600006103515625</ele>
        <time>2019-04-29T11:51:14.000Z</time>
      </trkpt>
      <trkpt lat="40.685684569180011749267578125" lon="-7.37499444745481014251708984375">
        <ele>428</ele>
        <time>2019-04-29T11:51:30.000Z</time>
      </trkpt>
      <trkpt lat="40.6856931187212467193603515625" lon="-7.37498975358903408050537109375">
        <ele>428</ele>
        <time>2019-04-29T11:51:44.000Z</time>
      </trkpt>
      <trkpt lat="40.6861817836761474609375" lon="-7.37463704310357570648193359375">
        <ele>430</ele>
        <time>2019-04-29T11:51:57.000Z</time>
      </trkpt>
      <trkpt lat="40.68665812723338603973388671875" lon="-7.37428885884582996368408203125">
        <ele>431.399993896484375</ele>
        <time>2019-04-29T11:52:08.000Z</time>
      </trkpt>
      <trkpt lat="40.6871599517762660980224609375" lon="-7.37393380142748355865478515625">
        <ele>432.20001220703125</ele>
        <time>2019-04-29T11:52:19.000Z</time>
      </trkpt>
      <trkpt lat="40.6876363791525363922119140625" lon="-7.3735875450074672698974609375">
        <ele>433.600006103515625</ele>
        <time>2019-04-29T11:52:30.000Z</time>
      </trkpt>
      <trkpt lat="40.68812571465969085693359375" lon="-7.37323491834104061126708984375">
        <ele>435.20001220703125</ele>
        <time>2019-04-29T11:52:44.000Z</time>
      </trkpt>
      <trkpt lat="40.68862385116517543792724609375" lon="-7.37289763055741786956787109375">
        <ele>436.20001220703125</ele>
        <time>2019-04-29T11:52:57.000Z</time>
      </trkpt>
      <trkpt lat="40.68914822302758693695068359375" lon="-7.37262840382754802703857421875">
        <ele>436.600006103515625</ele>
        <time>2019-04-29T11:53:09.000Z</time>
      </trkpt>
      <trkpt lat="40.6897040270268917083740234375" lon="-7.37239337526261806488037109375">
        <ele>437</ele>
        <time>2019-04-29T11:53:21.000Z</time>
      </trkpt>
      <trkpt lat="40.69022714160382747650146484375" lon="-7.37217284739017486572265625">
        <ele>437.600006103515625</ele>
        <time>2019-04-29T11:53:32.000Z</time>
      </trkpt>
      <trkpt lat="40.69035789929330348968505859375" lon="-7.372131608426570892333984375">
        <ele>437.79998779296875</ele>
        <time>2019-04-29T11:53:35.000Z</time>
      </trkpt>
      <trkpt lat="40.6908872164785861968994140625" lon="-7.3719011060893535614013671875">
        <ele>438.399993896484375</ele>
        <time>2019-04-29T11:53:49.000Z</time>
      </trkpt>
      <trkpt lat="40.69140111096203327178955078125" lon="-7.37168057821691036224365234375">
        <ele>439.20001220703125</ele>
        <time>2019-04-29T11:54:03.000Z</time>
      </trkpt>
      <trkpt lat="40.69193369708955287933349609375" lon="-7.37145694904029369354248046875">
        <ele>442.20001220703125</ele>
        <time>2019-04-29T11:54:18.000Z</time>
      </trkpt>
      <trkpt lat="40.69248187355697154998779296875" lon="-7.37122929655015468597412109375">
        <ele>444.79998779296875</ele>
        <time>2019-04-29T11:54:33.000Z</time>
      </trkpt>
      <trkpt lat="40.693023093044757843017578125" lon="-7.37099929712712764739990234375">
        <ele>447.399993896484375</ele>
        <time>2019-04-29T11:54:48.000Z</time>
      </trkpt>
      <trkpt lat="40.69356313906610012054443359375" lon="-7.37077365629374980926513671875">
        <ele>448.79998779296875</ele>
        <time>2019-04-29T11:55:03.000Z</time>
      </trkpt>
      <trkpt lat="40.69409497082233428955078125" lon="-7.3705482669174671173095703125">
        <ele>450.79998779296875</ele>
        <time>2019-04-29T11:55:19.000Z</time>
      </trkpt>
      <trkpt lat="40.6946329213678836822509765625" lon="-7.37032690085470676422119140625">
        <ele>453.399993896484375</ele>
        <time>2019-04-29T11:55:35.000Z</time>
      </trkpt>
      <trkpt lat="40.6951700337231159210205078125" lon="-7.370096482336521148681640625">
        <ele>455</ele>
        <time>2019-04-29T11:55:52.000Z</time>
      </trkpt>
      <trkpt lat="40.6956890411674976348876953125" lon="-7.36988685093820095062255859375">
        <ele>456</ele>
        <time>2019-04-29T11:56:06.000Z</time>
      </trkpt>
      <trkpt lat="40.69620427675545215606689453125" lon="-7.369665987789630889892578125">
        <ele>456.399993896484375</ele>
        <time>2019-04-29T11:56:21.000Z</time>
      </trkpt>
      <trkpt lat="40.69674340076744556427001953125" lon="-7.369438000023365020751953125">
        <ele>457</ele>
        <time>2019-04-29T11:56:35.000Z</time>
      </trkpt>
      <trkpt lat="40.69726961664855480194091796875" lon="-7.36918578855693340301513671875">
        <ele>457.399993896484375</ele>
        <time>2019-04-29T11:56:50.000Z</time>
      </trkpt>
      <trkpt lat="40.69779105484485626220703125" lon="-7.3688990436494350433349609375">
        <ele>459.20001220703125</ele>
        <time>2019-04-29T11:57:08.000Z</time>
      </trkpt>
      <trkpt lat="40.698302350938320159912109375" lon="-7.36864783801138401031494140625">
        <ele>460.600006103515625</ele>
        <time>2019-04-29T11:57:22.000Z</time>
      </trkpt>
      <trkpt lat="40.69883435033261775970458984375" lon="-7.36836754716932773590087890625">
        <ele>462</ele>
        <time>2019-04-29T11:57:37.000Z</time>
      </trkpt>
      <trkpt lat="40.6993549503386020660400390625" lon="-7.3680970631539821624755859375">
        <ele>462.399993896484375</ele>
        <time>2019-04-29T11:57:51.000Z</time>
      </trkpt>
      <trkpt lat="40.6998945772647857666015625" lon="-7.3678355477750301361083984375">
        <ele>463.399993896484375</ele>
        <time>2019-04-29T11:58:05.000Z</time>
      </trkpt>
      <trkpt lat="40.70042054168879985809326171875" lon="-7.3675636388361454010009765625">
        <ele>465.600006103515625</ele>
        <time>2019-04-29T11:58:21.000Z</time>
      </trkpt>
      <trkpt lat="40.70094625465571880340576171875" lon="-7.36729248426854610443115234375">
        <ele>467.20001220703125</ele>
        <time>2019-04-29T11:58:37.000Z</time>
      </trkpt>
      <trkpt lat="40.70144749246537685394287109375" lon="-7.3670218326151371002197265625">
        <ele>469</ele>
        <time>2019-04-29T11:58:54.000Z</time>
      </trkpt>
      <trkpt lat="40.70196381770074367523193359375" lon="-7.36675721593201160430908203125">
        <ele>472.399993896484375</ele>
        <time>2019-04-29T11:59:11.000Z</time>
      </trkpt>
      <trkpt lat="40.7024964876472949981689453125" lon="-7.3664894141256809234619140625">
        <ele>476.399993896484375</ele>
        <time>2019-04-29T11:59:28.000Z</time>
      </trkpt>
      <trkpt lat="40.70300015620887279510498046875" lon="-7.36623619683086872100830078125">
        <ele>480.600006103515625</ele>
        <time>2019-04-29T11:59:43.000Z</time>
      </trkpt>
      <trkpt lat="40.70350441150367259979248046875" lon="-7.36597803421318531036376953125">
        <ele>484.399993896484375</ele>
        <time>2019-04-29T12:00:01.000Z</time>
      </trkpt>
      <trkpt lat="40.7040451280772686004638671875" lon="-7.365761362016201019287109375">
        <ele>487.600006103515625</ele>
        <time>2019-04-29T12:00:18.000Z</time>
      </trkpt>
      <trkpt lat="40.70462339557707309722900390625" lon="-7.36571199260652065277099609375">
        <ele>489.20001220703125</ele>
        <time>2019-04-29T12:00:34.000Z</time>
      </trkpt>
      <trkpt lat="40.705163776874542236328125" lon="-7.36567243002355098724365234375">
        <ele>486.20001220703125</ele>
        <time>2019-04-29T12:00:46.000Z</time>
      </trkpt>
      <trkpt lat="40.70536117069423198699951171875" lon="-7.3656584322452545166015625">
        <ele>484.600006103515625</ele>
        <time>2019-04-29T12:00:50.000Z</time>
      </trkpt>
      <trkpt lat="40.70580155588686466217041015625" lon="-7.3656235635280609130859375">
        <ele>480.399993896484375</ele>
        <time>2019-04-29T12:00:58.000Z</time>
      </trkpt>
      <trkpt lat="40.7063836790621280670166015625" lon="-7.36559548415243625640869140625">
        <ele>476.20001220703125</ele>
        <time>2019-04-29T12:01:07.000Z</time>
      </trkpt>
      <trkpt lat="40.70698072202503681182861328125" lon="-7.3655358888208866119384765625">
        <ele>474.20001220703125</ele>
        <time>2019-04-29T12:01:15.000Z</time>
      </trkpt>
      <trkpt lat="40.7075437344610691070556640625" lon="-7.36544259823858737945556640625">
        <ele>472.399993896484375</ele>
        <time>2019-04-29T12:01:22.000Z</time>
      </trkpt>
      <trkpt lat="40.7080966047942638397216796875" lon="-7.365165241062641143798828125">
        <ele>470.600006103515625</ele>
        <time>2019-04-29T12:01:29.000Z</time>
      </trkpt>
      <trkpt lat="40.70851410739123821258544921875" lon="-7.36467364244163036346435546875">
        <ele>471.600006103515625</ele>
        <time>2019-04-29T12:01:36.000Z</time>
      </trkpt>
      <trkpt lat="40.7088586874306201934814453125" lon="-7.36404298804700374603271484375">
        <ele>471.399993896484375</ele>
        <time>2019-04-29T12:01:44.000Z</time>
      </trkpt>
      <trkpt lat="40.70917376317083835601806640625" lon="-7.36345541663467884063720703125">
        <ele>467.79998779296875</ele>
        <time>2019-04-29T12:01:52.000Z</time>
      </trkpt>
      <trkpt lat="40.7095210254192352294921875" lon="-7.36280917190015316009521484375">
        <ele>464.600006103515625</ele>
        <time>2019-04-29T12:02:01.000Z</time>
      </trkpt>
      <trkpt lat="40.7098544575273990631103515625" lon="-7.3621784336864948272705078125">
        <ele>462.20001220703125</ele>
        <time>2019-04-29T12:02:10.000Z</time>
      </trkpt>
      <trkpt lat="40.7101716287434101104736328125" lon="-7.36158893443644046783447265625">
        <ele>460.79998779296875</ele>
        <time>2019-04-29T12:02:19.000Z</time>
      </trkpt>
      <trkpt lat="40.71051637642085552215576171875" lon="-7.360951490700244903564453125">
        <ele>459.399993896484375</ele>
        <time>2019-04-29T12:02:29.000Z</time>
      </trkpt>
      <trkpt lat="40.71082851849496364593505859375" lon="-7.36034858040511608123779296875">
        <ele>458.20001220703125</ele>
        <time>2019-04-29T12:02:38.000Z</time>
      </trkpt>
      <trkpt lat="40.7111553288996219635009765625" lon="-7.35974139533936977386474609375">
        <ele>457.20001220703125</ele>
        <time>2019-04-29T12:02:47.000Z</time>
      </trkpt>
      <trkpt lat="40.71147895418107509613037109375" lon="-7.35913789831101894378662109375">
        <ele>456.79998779296875</ele>
        <time>2019-04-29T12:02:56.000Z</time>
      </trkpt>
      <trkpt lat="40.71179780177772045135498046875" lon="-7.35855753533542156219482421875">
        <ele>459.79998779296875</ele>
        <time>2019-04-29T12:03:06.000Z</time>
      </trkpt>
      <trkpt lat="40.712123773992061614990234375" lon="-7.35793408937752246856689453125">
        <ele>461</ele>
        <time>2019-04-29T12:03:17.000Z</time>
      </trkpt>
      <trkpt lat="40.712550915777683258056640625" lon="-7.35745514743030071258544921875">
        <ele>462</ele>
        <time>2019-04-29T12:03:28.000Z</time>
      </trkpt>
      <trkpt lat="40.712913684546947479248046875" lon="-7.35729153268039226531982421875">
        <ele>463</ele>
        <time>2019-04-29T12:03:36.000Z</time>
      </trkpt>
      <trkpt lat="40.7134318538010120391845703125" lon="-7.35705633647739887237548828125">
        <ele>463.79998779296875</ele>
        <time>2019-04-29T12:03:50.000Z</time>
      </trkpt>
      <trkpt lat="40.71396075189113616943359375" lon="-7.3568173684179782867431640625">
        <ele>464</ele>
        <time>2019-04-29T12:04:02.000Z</time>
      </trkpt>
      <trkpt lat="40.714484117925167083740234375" lon="-7.356577813625335693359375">
        <ele>465</ele>
        <time>2019-04-29T12:04:13.000Z</time>
      </trkpt>
      <trkpt lat="40.71501779370009899139404296875" lon="-7.35634068958461284637451171875">
        <ele>465.20001220703125</ele>
        <time>2019-04-29T12:04:24.000Z</time>
      </trkpt>
      <trkpt lat="40.71553051471710205078125" lon="-7.35610197298228740692138671875">
        <ele>465</ele>
        <time>2019-04-29T12:04:36.000Z</time>
      </trkpt>
      <trkpt lat="40.7160480134189128875732421875" lon="-7.35586359165608882904052734375">
        <ele>468.399993896484375</ele>
        <time>2019-04-29T12:04:49.000Z</time>
      </trkpt>
      <trkpt lat="40.71642838418483734130859375" lon="-7.35568136908113956451416015625">
        <ele>470.79998779296875</ele>
        <time>2019-04-29T12:04:59.000Z</time>
      </trkpt>
      <trkpt lat="40.71692920289933681488037109375" lon="-7.35541708767414093017578125">
        <ele>474.20001220703125</ele>
        <time>2019-04-29T12:05:16.000Z</time>
      </trkpt>
      <trkpt lat="40.71696692146360874176025390625" lon="-7.3553850688040256500244140625">
        <ele>474.399993896484375</ele>
        <time>2019-04-29T12:05:17.000Z</time>
      </trkpt>
      <trkpt lat="40.7172704301774501800537109375" lon="-7.3548627085983753204345703125">
        <ele>474.20001220703125</ele>
        <time>2019-04-29T12:05:27.000Z</time>
      </trkpt>
      <trkpt lat="40.71742859669029712677001953125" lon="-7.35418117605149745941162109375">
        <ele>469.20001220703125</ele>
        <time>2019-04-29T12:05:37.000Z</time>
      </trkpt>
      <trkpt lat="40.71757880039513111114501953125" lon="-7.353474162518978118896484375">
        <ele>469.20001220703125</ele>
        <time>2019-04-29T12:05:48.000Z</time>
      </trkpt>
      <trkpt lat="40.7177797146141529083251953125" lon="-7.3527839966118335723876953125">
        <ele>470</ele>
        <time>2019-04-29T12:06:03.000Z</time>
      </trkpt>
      <trkpt lat="40.71807534433901309967041015625" lon="-7.35218636691570281982421875">
        <ele>472.79998779296875</ele>
        <time>2019-04-29T12:06:24.000Z</time>
      </trkpt>
      <trkpt lat="40.718432329595088958740234375" lon="-7.35163877718150615692138671875">
        <ele>476</ele>
        <time>2019-04-29T12:06:46.000Z</time>
      </trkpt>
      <trkpt lat="40.71878830902278423309326171875" lon="-7.3510821349918842315673828125">
        <ele>480.600006103515625</ele>
        <time>2019-04-29T12:07:10.000Z</time>
      </trkpt>
      <trkpt lat="40.71882066316902637481689453125" lon="-7.3510476015508174896240234375">
        <ele>481</ele>
        <time>2019-04-29T12:07:13.000Z</time>
      </trkpt>
      <trkpt lat="40.71894161403179168701171875" lon="-7.35089580528438091278076171875">
        <ele>481.79998779296875</ele>
        <time>2019-04-29T12:07:21.000Z</time>
      </trkpt>
      <trkpt lat="40.71926121599972248077392578125" lon="-7.3502949066460132598876953125">
        <ele>484.79998779296875</ele>
        <time>2019-04-29T12:07:43.000Z</time>
      </trkpt>
      <trkpt lat="40.7193236611783504486083984375" lon="-7.34959694556891918182373046875">
        <ele>488.600006103515625</ele>
        <time>2019-04-29T12:08:04.000Z</time>
      </trkpt>
      <trkpt lat="40.719316788017749786376953125" lon="-7.349164523184299468994140625">
        <ele>490.399993896484375</ele>
        <time>2019-04-29T12:08:21.000Z</time>
      </trkpt>
      <trkpt lat="40.7193084061145782470703125" lon="-7.34904256649315357208251953125">
        <ele>491</ele>
        <time>2019-04-29T12:08:25.000Z</time>
      </trkpt>
      <trkpt lat="40.71929742582142353057861328125" lon="-7.3486855812370777130126953125">
        <ele>493.20001220703125</ele>
        <time>2019-04-29T12:08:39.000Z</time>
      </trkpt>
      <trkpt lat="40.71929591707885265350341796875" lon="-7.34865599311888217926025390625">
        <ele>493.399993896484375</ele>
        <time>2019-04-29T12:10:54.000Z</time>
      </trkpt>
      <trkpt lat="40.7196314446628093719482421875" lon="-7.34809675253927707672119140625">
        <ele>498.20001220703125</ele>
        <time>2019-04-29T12:11:21.000Z</time>
      </trkpt>
      <trkpt lat="40.720114409923553466796875" lon="-7.3477870412170886993408203125">
        <ele>503.399993896484375</ele>
        <time>2019-04-29T12:11:47.000Z</time>
      </trkpt>
      <trkpt lat="40.72063685394823551177978515625" lon="-7.34761060215532779693603515625">
        <ele>507</ele>
        <time>2019-04-29T12:12:12.000Z</time>
      </trkpt>
      <trkpt lat="40.7211800850927829742431640625" lon="-7.34747883863747119903564453125">
        <ele>509</ele>
        <time>2019-04-29T12:12:37.000Z</time>
      </trkpt>
      <trkpt lat="40.7216685824096202850341796875" lon="-7.34718178398907184600830078125">
        <ele>508.600006103515625</ele>
        <time>2019-04-29T12:13:00.000Z</time>
      </trkpt>
      <trkpt lat="40.7217658124864101409912109375" lon="-7.34647334553301334381103515625">
        <ele>510.79998779296875</ele>
        <time>2019-04-29T12:13:23.000Z</time>
      </trkpt>
      <trkpt lat="40.72173538617789745330810546875" lon="-7.3457430303096771240234375">
        <ele>513.20001220703125</ele>
        <time>2019-04-29T12:13:46.000Z</time>
      </trkpt>
      <trkpt lat="40.7218881882727146148681640625" lon="-7.34507742337882518768310546875">
        <ele>517.20001220703125</ele>
        <time>2019-04-29T12:14:14.000Z</time>
      </trkpt>
      <trkpt lat="40.722243078052997589111328125" lon="-7.344691939651966094970703125">
        <ele>520.20001220703125</ele>
        <time>2019-04-29T12:14:38.000Z</time>
      </trkpt>
      <trkpt lat="40.7224846445024013519287109375" lon="-7.344573922455310821533203125">
        <ele>520.4000244140625</ele>
        <time>2019-04-29T12:14:50.000Z</time>
      </trkpt>
      <trkpt lat="40.72300675325095653533935546875" lon="-7.344349287450313568115234375">
        <ele>520.79998779296875</ele>
        <time>2019-04-29T12:15:15.000Z</time>
      </trkpt>
      <trkpt lat="40.72341394610702991485595703125" lon="-7.34388954006135463714599609375">
        <ele>523.4000244140625</ele>
        <time>2019-04-29T12:15:40.000Z</time>
      </trkpt>
      <trkpt lat="40.72367663495242595672607421875" lon="-7.34324815683066844940185546875">
        <ele>529</ele>
        <time>2019-04-29T12:16:06.000Z</time>
      </trkpt>
      <trkpt lat="40.7239942252635955810546875" lon="-7.342666871845722198486328125">
        <ele>532.5999755859375</ele>
        <time>2019-04-29T12:16:31.000Z</time>
      </trkpt>
      <trkpt lat="40.7244205288589000701904296875" lon="-7.3422335274517536163330078125">
        <ele>536.4000244140625</ele>
        <time>2019-04-29T12:16:54.000Z</time>
      </trkpt>
      <trkpt lat="40.724931322038173675537109375" lon="-7.34194024465978145599365234375">
        <ele>538.5999755859375</ele>
        <time>2019-04-29T12:17:19.000Z</time>
      </trkpt>
      <trkpt lat="40.7254561968147754669189453125" lon="-7.34167370013892650604248046875">
        <ele>540</ele>
        <time>2019-04-29T12:17:40.000Z</time>
      </trkpt>
      <trkpt lat="40.72597528807818889617919921875" lon="-7.34141528606414794921875">
        <ele>543.5999755859375</ele>
        <time>2019-04-29T12:17:59.000Z</time>
      </trkpt>
      <trkpt lat="40.7265082933008670806884765625" lon="-7.341240942478179931640625">
        <ele>545.79998779296875</ele>
        <time>2019-04-29T12:18:20.000Z</time>
      </trkpt>
      <trkpt lat="40.72703576646745204925537109375" lon="-7.34106215648353099822998046875">
        <ele>548.20001220703125</ele>
        <time>2019-04-29T12:18:46.000Z</time>
      </trkpt>
      <trkpt lat="40.72757204063236713409423828125" lon="-7.34088948927819728851318359375">
        <ele>550</ele>
        <time>2019-04-29T12:19:08.000Z</time>
      </trkpt>
      <trkpt lat="40.72812122292816638946533203125" lon="-7.3407133854925632476806640625">
        <ele>550.5999755859375</ele>
        <time>2019-04-29T12:19:27.000Z</time>
      </trkpt>
      <trkpt lat="40.7286151684820652008056640625" lon="-7.340424545109272003173828125">
        <ele>550.20001220703125</ele>
        <time>2019-04-29T12:19:45.000Z</time>
      </trkpt>
      <trkpt lat="40.7290128059685230255126953125" lon="-7.33994535170495510101318359375">
        <ele>552.79998779296875</ele>
        <time>2019-04-29T12:20:07.000Z</time>
      </trkpt>
      <trkpt lat="40.72933576069772243499755859375" lon="-7.33937337063252925872802734375">
        <ele>556.20001220703125</ele>
        <time>2019-04-29T12:20:29.000Z</time>
      </trkpt>
      <trkpt lat="40.7296644151210784912109375" lon="-7.33880122192203998565673828125">
        <ele>561.79998779296875</ele>
        <time>2019-04-29T12:20:54.000Z</time>
      </trkpt>
      <trkpt lat="40.72973088361322879791259765625" lon="-7.33872461132705211639404296875">
        <ele>562.79998779296875</ele>
        <time>2019-04-29T12:20:58.000Z</time>
      </trkpt>
      <trkpt lat="40.729750581085681915283203125" lon="-7.33871673233807086944580078125">
        <ele>562.79998779296875</ele>
        <time>2019-04-29T12:21:01.000Z</time>
      </trkpt>
      <trkpt lat="40.72979927994310855865478515625" lon="-7.33872544951736927032470703125">
        <ele>562</ele>
        <time>2019-04-29T12:22:19.000Z</time>
      </trkpt>
      <trkpt lat="40.7298137806355953216552734375" lon="-7.3387158103287220001220703125">
        <ele>562.20001220703125</ele>
        <time>2019-04-29T12:22:20.000Z</time>
      </trkpt>
      <trkpt lat="40.73033739812672138214111328125" lon="-7.33853258192539215087890625">
        <ele>561.4000244140625</ele>
        <time>2019-04-29T12:22:45.000Z</time>
      </trkpt>
      <trkpt lat="40.73083050549030303955078125" lon="-7.33825824223458766937255859375">
        <ele>564.79998779296875</ele>
        <time>2019-04-29T12:23:05.000Z</time>
      </trkpt>
      <trkpt lat="40.73127835057675838470458984375" lon="-7.3378450982272624969482421875">
        <ele>573</ele>
        <time>2019-04-29T12:23:27.000Z</time>
      </trkpt>
      <trkpt lat="40.731813199818134307861328125" lon="-7.33785540796816349029541015625">
        <ele>576</ele>
        <time>2019-04-29T12:23:48.000Z</time>
      </trkpt>
      <trkpt lat="40.732365064322948455810546875" lon="-7.33791039325296878814697265625">
        <ele>577.4000244140625</ele>
        <time>2019-04-29T12:24:07.000Z</time>
      </trkpt>
      <trkpt lat="40.73293243534862995147705078125" lon="-7.33785255812108516693115234375">
        <ele>580.79998779296875</ele>
        <time>2019-04-29T12:24:25.000Z</time>
      </trkpt>
      <trkpt lat="40.7334813661873340606689453125" lon="-7.33779338188469409942626953125">
        <ele>581.20001220703125</ele>
        <time>2019-04-29T12:24:44.000Z</time>
      </trkpt>
      <trkpt lat="40.734012611210346221923828125" lon="-7.33765256591141223907470703125">
        <ele>583.4000244140625</ele>
        <time>2019-04-29T12:25:03.000Z</time>
      </trkpt>
      <trkpt lat="40.7345133461058139801025390625" lon="-7.33736439608037471771240234375">
        <ele>585.20001220703125</ele>
        <time>2019-04-29T12:25:27.000Z</time>
      </trkpt>
      <trkpt lat="40.73496772907674312591552734375" lon="-7.33693490736186504364013671875">
        <ele>585.79998779296875</ele>
        <time>2019-04-29T12:25:52.000Z</time>
      </trkpt>
      <trkpt lat="40.7352757640182971954345703125" lon="-7.33633048832416534423828125">
        <ele>587</ele>
        <time>2019-04-29T12:26:18.000Z</time>
      </trkpt>
      <trkpt lat="40.7354092039167881011962890625" lon="-7.33562129549682140350341796875">
        <ele>590.79998779296875</ele>
        <time>2019-04-29T12:26:46.000Z</time>
      </trkpt>
      <trkpt lat="40.73555060662329196929931640625" lon="-7.33492811210453510284423828125">
        <ele>597</ele>
        <time>2019-04-29T12:27:14.000Z</time>
      </trkpt>
      <trkpt lat="40.7356827892363071441650390625" lon="-7.334532402455806732177734375">
        <ele>605.20001220703125</ele>
        <time>2019-04-29T12:27:33.000Z</time>
      </trkpt>
      <trkpt lat="40.735754705965518951416015625" lon="-7.334454618394374847412109375">
        <ele>606.79998779296875</ele>
        <time>2019-04-29T12:32:08.000Z</time>
      </trkpt>
      <trkpt lat="40.7358004711568355560302734375" lon="-7.334427796304225921630859375">
        <ele>607.4000244140625</ele>
        <time>2019-04-29T12:32:11.000Z</time>
      </trkpt>
      <trkpt lat="40.73584221303462982177734375" lon="-7.33441002666950225830078125">
        <ele>607.79998779296875</ele>
        <time>2019-04-29T12:32:14.000Z</time>
      </trkpt>
      <trkpt lat="40.73592678643763065338134765625" lon="-7.334387563169002532958984375">
        <ele>608.4000244140625</ele>
        <time>2019-04-29T12:32:19.000Z</time>
      </trkpt>
      <trkpt lat="40.736464820802211761474609375" lon="-7.33425437472760677337646484375">
        <ele>610.79998779296875</ele>
        <time>2019-04-29T12:32:47.000Z</time>
      </trkpt>
      <trkpt lat="40.7370228879153728485107421875" lon="-7.334251441061496734619140625">
        <ele>612.20001220703125</ele>
        <time>2019-04-29T12:33:14.000Z</time>
      </trkpt>
      <trkpt lat="40.73757383041083812713623046875" lon="-7.33415530063211917877197265625">
        <ele>611</ele>
        <time>2019-04-29T12:33:40.000Z</time>
      </trkpt>
      <trkpt lat="40.7380900718271732330322265625" lon="-7.33390803448855876922607421875">
        <ele>611.79998779296875</ele>
        <time>2019-04-29T12:34:04.000Z</time>
      </trkpt>
      <trkpt lat="40.738556943833827972412109375" lon="-7.33354174531996250152587890625">
        <ele>614.5999755859375</ele>
        <time>2019-04-29T12:34:28.000Z</time>
      </trkpt>
      <trkpt lat="40.73893136344850063323974609375" lon="-7.3330244980752468109130859375">
        <ele>621.5999755859375</ele>
        <time>2019-04-29T12:34:51.000Z</time>
      </trkpt>
      <trkpt lat="40.73918265290558338165283203125" lon="-7.33237766660749912261962890625">
        <ele>633.79998779296875</ele>
        <time>2019-04-29T12:35:16.000Z</time>
      </trkpt>
      <trkpt lat="40.7394947111606597900390625" lon="-7.33179680071771144866943359375">
        <ele>640.79998779296875</ele>
        <time>2019-04-29T12:35:40.000Z</time>
      </trkpt>
      <trkpt lat="40.73976620100438594818115234375" lon="-7.33144216239452362060546875">
        <ele>642</ele>
        <time>2019-04-29T12:36:02.000Z</time>
      </trkpt>
      <trkpt lat="40.7401867210865020751953125" lon="-7.33095793984830379486083984375">
        <ele>640.5999755859375</ele>
        <time>2019-04-29T12:36:26.000Z</time>
      </trkpt>
      <trkpt lat="40.740246064960956573486328125" lon="-7.33089725486934185028076171875">
        <ele>640.4000244140625</ele>
        <time>2019-04-29T12:36:33.000Z</time>
      </trkpt>
      <trkpt lat="40.740268193185329437255859375" lon="-7.330894656479358673095703125">
        <ele>640.5999755859375</ele>
        <time>2019-04-29T12:37:09.000Z</time>
      </trkpt>
      <trkpt lat="40.74083221144974231719970703125" lon="-7.330865822732448577880859375">
        <ele>646</ele>
        <time>2019-04-29T12:37:33.000Z</time>
      </trkpt>
      <trkpt lat="40.74133311398327350616455078125" lon="-7.3305830173194408416748046875">
        <ele>650.4000244140625</ele>
        <time>2019-04-29T12:37:49.000Z</time>
      </trkpt>
      <trkpt lat="40.74176184833049774169921875" lon="-7.33010332100093364715576171875">
        <ele>649.79998779296875</ele>
        <time>2019-04-29T12:38:10.000Z</time>
      </trkpt>
      <trkpt lat="40.74230172671377658843994140625" lon="-7.329968623816967010498046875">
        <ele>654.79998779296875</ele>
        <time>2019-04-29T12:38:30.000Z</time>
      </trkpt>
      <trkpt lat="40.74280313216149806976318359375" lon="-7.32963611371815204620361328125">
        <ele>653.5999755859375</ele>
        <time>2019-04-29T12:38:52.000Z</time>
      </trkpt>
      <trkpt lat="40.74335248209536075592041015625" lon="-7.32962270267307758331298828125">
        <ele>661.4000244140625</ele>
        <time>2019-04-29T12:39:13.000Z</time>
      </trkpt>
      <trkpt lat="40.74383729137480258941650390625" lon="-7.3293166793882846832275390625">
        <ele>663.5999755859375</ele>
        <time>2019-04-29T12:39:34.000Z</time>
      </trkpt>
      <trkpt lat="40.7442368566989898681640625" lon="-7.329066731035709381103515625">
        <ele>662.79998779296875</ele>
        <time>2019-04-29T12:39:54.000Z</time>
      </trkpt>
      <trkpt lat="40.74426527135074138641357421875" lon="-7.3290685750544071197509765625">
        <ele>663</ele>
        <time>2019-04-29T12:40:43.000Z</time>
      </trkpt>
      <trkpt lat="40.74481093324720859527587890625" lon="-7.3290276713669300079345703125">
        <ele>665.5999755859375</ele>
        <time>2019-04-29T12:41:04.000Z</time>
      </trkpt>
      <trkpt lat="40.74535693041980266571044921875" lon="-7.32901250012218952178955078125">
        <ele>667.4000244140625</ele>
        <time>2019-04-29T12:41:24.000Z</time>
      </trkpt>
      <trkpt lat="40.745919607579708099365234375" lon="-7.32903060503304004669189453125">
        <ele>670.79998779296875</ele>
        <time>2019-04-29T12:41:45.000Z</time>
      </trkpt>
      <trkpt lat="40.746422521770000457763671875" lon="-7.32929899357259273529052734375">
        <ele>674.5999755859375</ele>
        <time>2019-04-29T12:42:10.000Z</time>
      </trkpt>
      <trkpt lat="40.7469566166400909423828125" lon="-7.3294566571712493896484375">
        <ele>683.20001220703125</ele>
        <time>2019-04-29T12:42:35.000Z</time>
      </trkpt>
      <trkpt lat="40.7472836785018444061279296875" lon="-7.3289094865322113037109375">
        <ele>686.4000244140625</ele>
        <time>2019-04-29T12:42:57.000Z</time>
      </trkpt>
      <trkpt lat="40.747422985732555389404296875" lon="-7.3282273672521114349365234375">
        <ele>686</ele>
        <time>2019-04-29T12:43:18.000Z</time>
      </trkpt>
      <trkpt lat="40.74787016026675701141357421875" lon="-7.32786887325346469879150390625">
        <ele>688</ele>
        <time>2019-04-29T12:43:42.000Z</time>
      </trkpt>
      <trkpt lat="40.7483163289725780487060546875" lon="-7.3282139562070369720458984375">
        <ele>699.20001220703125</ele>
        <time>2019-04-29T12:44:05.000Z</time>
      </trkpt>
      <trkpt lat="40.74831473641097545623779296875" lon="-7.32892935164272785186767578125">
        <ele>700.79998779296875</ele>
        <time>2019-04-29T12:44:29.000Z</time>
      </trkpt>
      <trkpt lat="40.74826352298259735107421875" lon="-7.32923327945172786712646484375">
        <ele>699.4000244140625</ele>
        <time>2019-04-29T12:44:41.000Z</time>
      </trkpt>
      <trkpt lat="40.74825413525104522705078125" lon="-7.3293951340019702911376953125">
        <ele>699</ele>
        <time>2019-04-29T12:44:47.000Z</time>
      </trkpt>
      <trkpt lat="40.748247765004634857177734375" lon="-7.33011119998991489410400390625">
        <ele>697.4000244140625</ele>
        <time>2019-04-29T12:45:11.000Z</time>
      </trkpt>
      <trkpt lat="40.7484668679535388946533203125" lon="-7.33078225515782833099365234375">
        <ele>698.20001220703125</ele>
        <time>2019-04-29T12:45:33.000Z</time>
      </trkpt>
      <trkpt lat="40.74868136085569858551025390625" lon="-7.331102527678012847900390625">
        <ele>698.4000244140625</ele>
        <time>2019-04-29T12:45:48.000Z</time>
      </trkpt>
      <trkpt lat="40.7492088340222835540771484375" lon="-7.3312778770923614501953125">
        <ele>700.79998779296875</ele>
        <time>2019-04-29T12:46:10.000Z</time>
      </trkpt>
      <trkpt lat="40.7497020252048969268798828125" lon="-7.3309667408466339111328125">
        <ele>705</ele>
        <time>2019-04-29T12:46:31.000Z</time>
      </trkpt>
      <trkpt lat="40.7500383071601390838623046875" lon="-7.3303949274122714996337890625">
        <ele>709</ele>
        <time>2019-04-29T12:46:53.000Z</time>
      </trkpt>
      <trkpt lat="40.75034148059785366058349609375" lon="-7.3297887481749057769775390625">
        <ele>712.20001220703125</ele>
        <time>2019-04-29T12:47:15.000Z</time>
      </trkpt>
      <trkpt lat="40.75062026269733905792236328125" lon="-7.32941575348377227783203125">
        <ele>715</ele>
        <time>2019-04-29T12:47:38.000Z</time>
      </trkpt>
      <trkpt lat="40.75063233263790607452392578125" lon="-7.3294162563979625701904296875">
        <ele>715</ele>
        <time>2019-04-29T12:49:24.000Z</time>
      </trkpt>
      <trkpt lat="40.75066141784191131591796875" lon="-7.32940971851348876953125">
        <ele>715.4000244140625</ele>
        <time>2019-04-29T12:49:26.000Z</time>
      </trkpt>
      <trkpt lat="40.7507561333477497100830078125" lon="-7.3293609358370304107666015625">
        <ele>716.20001220703125</ele>
        <time>2019-04-29T12:49:31.000Z</time>
      </trkpt>
      <trkpt lat="40.75104204006493091583251953125" lon="-7.32937091030180454254150390625">
        <ele>718.5999755859375</ele>
        <time>2019-04-29T12:49:46.000Z</time>
      </trkpt>
      <trkpt lat="40.75104673393070697784423828125" lon="-7.32937158085405826568603515625">
        <ele>718.5999755859375</ele>
        <time>2019-04-29T12:49:48.000Z</time>
      </trkpt>
      <trkpt lat="40.75103156268596649169921875" lon="-7.3293743468821048736572265625">
        <ele>718.5999755859375</ele>
        <time>2019-04-29T12:49:53.000Z</time>
      </trkpt>
      <trkpt lat="40.751016475260257720947265625" lon="-7.32936286367475986480712890625">
        <ele>718.4000244140625</ele>
        <time>2019-04-29T12:49:56.000Z</time>
      </trkpt>
      <trkpt lat="40.75104095041751861572265625" lon="-7.32938163913786411285400390625">
        <ele>718.5999755859375</ele>
        <time>2019-04-29T12:51:08.000Z</time>
      </trkpt>
      <trkpt lat="40.751468427479267120361328125" lon="-7.32982437126338481903076171875">
        <ele>722</ele>
        <time>2019-04-29T12:51:35.000Z</time>
      </trkpt>
      <trkpt lat="40.75194778852164745330810546875" lon="-7.33011438511312007904052734375">
        <ele>726.4000244140625</ele>
        <time>2019-04-29T12:51:58.000Z</time>
      </trkpt>
      <trkpt lat="40.75230351649224758148193359375" lon="-7.3301548697054386138916015625">
        <ele>730</ele>
        <time>2019-04-29T12:52:15.000Z</time>
      </trkpt>
      <trkpt lat="40.7523000799119472503662109375" lon="-7.3301521874964237213134765625">
        <ele>729.79998779296875</ele>
        <time>2019-04-29T12:52:16.000Z</time>
      </trkpt>
      <trkpt lat="40.752294547855854034423828125" lon="-7.330164425075054168701171875">
        <ele>729.79998779296875</ele>
        <time>2019-04-29T12:58:15.000Z</time>
      </trkpt>
      <trkpt lat="40.75234316289424896240234375" lon="-7.33020155690610408782958984375">
        <ele>730.20001220703125</ele>
        <time>2019-04-29T12:58:19.000Z</time>
      </trkpt>
      <trkpt lat="40.75279888696968555450439453125" lon="-7.3305934108793735504150390625">
        <ele>733.20001220703125</ele>
        <time>2019-04-29T12:58:47.000Z</time>
      </trkpt>
      <trkpt lat="40.75322317890822887420654296875" lon="-7.3310701735317707061767578125">
        <ele>735.20001220703125</ele>
        <time>2019-04-29T12:59:14.000Z</time>
      </trkpt>
      <trkpt lat="40.753617547452449798583984375" lon="-7.33156478963792324066162109375">
        <ele>735</ele>
        <time>2019-04-29T12:59:37.000Z</time>
      </trkpt>
      <trkpt lat="40.75371444225311279296875" lon="-7.33167241327464580535888671875">
        <ele>734.5999755859375</ele>
        <time>2019-04-29T12:59:42.000Z</time>
      </trkpt>
      <trkpt lat="40.753823406994342803955078125" lon="-7.33179411850869655609130859375">
        <ele>734.79998779296875</ele>
        <time>2019-04-29T12:59:49.000Z</time>
      </trkpt>
      <trkpt lat="40.7543566636741161346435546875" lon="-7.33197885565459728240966796875">
        <ele>737.5999755859375</ele>
        <time>2019-04-29T13:00:08.000Z</time>
      </trkpt>
      <trkpt lat="40.754845999181270599365234375" lon="-7.3317890055477619171142578125">
        <ele>741.79998779296875</ele>
        <time>2019-04-29T13:00:27.000Z</time>
      </trkpt>
      <trkpt lat="40.7553695328533649444580078125" lon="-7.33185949735343456268310546875">
        <ele>744.5999755859375</ele>
        <time>2019-04-29T13:00:49.000Z</time>
      </trkpt>
      <trkpt lat="40.75541756115853786468505859375" lon="-7.33187709935009479522705078125">
        <ele>745.20001220703125</ele>
        <time>2019-04-29T13:00:54.000Z</time>
      </trkpt>
      <trkpt lat="40.75539224781095981597900390625" lon="-7.33191154897212982177734375">
        <ele>745.20001220703125</ele>
        <time>2019-04-29T13:01:04.000Z</time>
      </trkpt>
      <trkpt lat="40.75527372770011425018310546875" lon="-7.33187827281653881072998046875">
        <ele>744</ele>
        <time>2019-04-29T13:01:08.000Z</time>
      </trkpt>
      <trkpt lat="40.75518404133617877960205078125" lon="-7.33183669857680797576904296875">
        <ele>743.5999755859375</ele>
        <time>2019-04-29T13:01:10.000Z</time>
      </trkpt>
      <trkpt lat="40.75504808686673641204833984375" lon="-7.3322892375290393829345703125">
        <ele>744.20001220703125</ele>
        <time>2019-04-29T13:01:23.000Z</time>
      </trkpt>
      <trkpt lat="40.7551291398704051971435546875" lon="-7.33231564052402973175048828125">
        <ele>745</ele>
        <time>2019-04-29T13:01:26.000Z</time>
      </trkpt>
      <trkpt lat="40.7556684315204620361328125" lon="-7.3322138004004955291748046875">
        <ele>748</ele>
        <time>2019-04-29T13:01:46.000Z</time>
      </trkpt>
      <trkpt lat="40.75620546005666255950927734375" lon="-7.33222193084657192230224609375">
        <ele>749</ele>
        <time>2019-04-29T13:02:07.000Z</time>
      </trkpt>
      <trkpt lat="40.756762437522411346435546875" lon="-7.33231949619948863983154296875">
        <ele>753.4000244140625</ele>
        <time>2019-04-29T13:02:28.000Z</time>
      </trkpt>
      <trkpt lat="40.7573137991130352020263671875" lon="-7.3322158120572566986083984375">
        <ele>754.4000244140625</ele>
        <time>2019-04-29T13:02:46.000Z</time>
      </trkpt>
      <trkpt lat="40.7578519172966480255126953125" lon="-7.33239124529063701629638671875">
        <ele>753.4000244140625</ele>
        <time>2019-04-29T13:03:04.000Z</time>
      </trkpt>
      <trkpt lat="40.758219547569751739501953125" lon="-7.33290798962116241455078125">
        <ele>757.20001220703125</ele>
        <time>2019-04-29T13:03:21.000Z</time>
      </trkpt>
      <trkpt lat="40.75850411318242549896240234375" lon="-7.33351391740143299102783203125">
        <ele>758</ele>
        <time>2019-04-29T13:03:39.000Z</time>
      </trkpt>
      <trkpt lat="40.758604444563388824462890625" lon="-7.3342385329306125640869140625">
        <ele>758</ele>
        <time>2019-04-29T13:03:59.000Z</time>
      </trkpt>
      <trkpt lat="40.75839330442249774932861328125" lon="-7.334922663867473602294921875">
        <ele>761</ele>
        <time>2019-04-29T13:04:21.000Z</time>
      </trkpt>
      <trkpt lat="40.75814620591700077056884765625" lon="-7.33556547202169895172119140625">
        <ele>761.5999755859375</ele>
        <time>2019-04-29T13:04:39.000Z</time>
      </trkpt>
      <trkpt lat="40.75792660005390644073486328125" lon="-7.336219511926174163818359375">
        <ele>765.79998779296875</ele>
        <time>2019-04-29T13:04:55.000Z</time>
      </trkpt>
      <trkpt lat="40.75792207382619380950927734375" lon="-7.33693800866603851318359375">
        <ele>770.4000244140625</ele>
        <time>2019-04-29T13:05:13.000Z</time>
      </trkpt>
      <trkpt lat="40.75819884426891803741455078125" lon="-7.33756254427134990692138671875">
        <ele>773.4000244140625</ele>
        <time>2019-04-29T13:05:38.000Z</time>
      </trkpt>
      <trkpt lat="40.758505873382091522216796875" lon="-7.3381612636148929595947265625">
        <ele>776.20001220703125</ele>
        <time>2019-04-29T13:06:01.000Z</time>
      </trkpt>
      <trkpt lat="40.75877199880778789520263671875" lon="-7.33880910091102123260498046875">
        <ele>778.20001220703125</ele>
        <time>2019-04-29T13:06:26.000Z</time>
      </trkpt>
      <trkpt lat="40.75904793106019496917724609375" lon="-7.33945392072200775146484375">
        <ele>781.20001220703125</ele>
        <time>2019-04-29T13:06:50.000Z</time>
      </trkpt>
      <trkpt lat="40.75939041562378406524658203125" lon="-7.340043000876903533935546875">
        <ele>781.79998779296875</ele>
        <time>2019-04-29T13:07:12.000Z</time>
      </trkpt>
      <trkpt lat="40.75961018912494182586669921875" lon="-7.34071749262511730194091796875">
        <ele>781.4000244140625</ele>
        <time>2019-04-29T13:07:38.000Z</time>
      </trkpt>
      <trkpt lat="40.7597239315509796142578125" lon="-7.3414235003292560577392578125">
        <ele>782.79998779296875</ele>
        <time>2019-04-29T13:07:54.000Z</time>
      </trkpt>
      <trkpt lat="40.75980599038302898406982421875" lon="-7.34170437790453433990478515625">
        <ele>783.20001220703125</ele>
        <time>2019-04-29T13:08:03.000Z</time>
      </trkpt>
      <trkpt lat="40.75980833731591701507568359375" lon="-7.341746203601360321044921875">
        <ele>783.4000244140625</ele>
        <time>2019-04-29T13:09:10.000Z</time>
      </trkpt>
      <trkpt lat="40.76008980162441730499267578125" lon="-7.34236353076994419097900390625">
        <ele>785</ele>
        <time>2019-04-29T13:09:26.000Z</time>
      </trkpt>
      <trkpt lat="40.76043806970119476318359375" lon="-7.3429493419826030731201171875">
        <ele>789.20001220703125</ele>
        <time>2019-04-29T13:09:42.000Z</time>
      </trkpt>
      <trkpt lat="40.760678462684154510498046875" lon="-7.34360396862030029296875">
        <ele>790.5999755859375</ele>
        <time>2019-04-29T13:10:00.000Z</time>
      </trkpt>
      <trkpt lat="40.76073537580668926239013671875" lon="-7.34434518031775951385498046875">
        <ele>792.5999755859375</ele>
        <time>2019-04-29T13:10:21.000Z</time>
      </trkpt>
      <trkpt lat="40.76074928976595401763916015625" lon="-7.345066778361797332763671875">
        <ele>796.20001220703125</ele>
        <time>2019-04-29T13:10:36.000Z</time>
      </trkpt>
      <trkpt lat="40.7607480324804782867431640625" lon="-7.34578820876777172088623046875">
        <ele>800</ele>
        <time>2019-04-29T13:10:51.000Z</time>
      </trkpt>
      <trkpt lat="40.76075331307947635650634765625" lon="-7.34651039354503154754638671875">
        <ele>802.4000244140625</ele>
        <time>2019-04-29T13:11:06.000Z</time>
      </trkpt>
      <trkpt lat="40.76075465418398380279541015625" lon="-7.34724665991961956024169921875">
        <ele>806.79998779296875</ele>
        <time>2019-04-29T13:11:21.000Z</time>
      </trkpt>
      <trkpt lat="40.7607577554881572723388671875" lon="-7.347984015941619873046875">
        <ele>810</ele>
        <time>2019-04-29T13:11:36.000Z</time>
      </trkpt>
      <trkpt lat="40.76080427505075931549072265625" lon="-7.348713576793670654296875">
        <ele>814.4000244140625</ele>
        <time>2019-04-29T13:11:51.000Z</time>
      </trkpt>
      <trkpt lat="40.7610905170440673828125" lon="-7.34932520426809787750244140625">
        <ele>819.20001220703125</ele>
        <time>2019-04-29T13:12:07.000Z</time>
      </trkpt>
      <trkpt lat="40.76155177317559719085693359375" lon="-7.349697612226009368896484375">
        <ele>823.4000244140625</ele>
        <time>2019-04-29T13:12:25.000Z</time>
      </trkpt>
      <trkpt lat="40.76203088276088237762451171875" lon="-7.350026853382587432861328125">
        <ele>824</ele>
        <time>2019-04-29T13:12:42.000Z</time>
      </trkpt>
      <trkpt lat="40.76244042254984378814697265625" lon="-7.3504897020757198333740234375">
        <ele>823.79998779296875</ele>
        <time>2019-04-29T13:13:01.000Z</time>
      </trkpt>
      <trkpt lat="40.76277553103864192962646484375" lon="-7.35110082663595676422119140625">
        <ele>821.79998779296875</ele>
        <time>2019-04-29T13:13:21.000Z</time>
      </trkpt>
      <trkpt lat="40.7631170935928821563720703125" lon="-7.35168211162090301513671875">
        <ele>824</ele>
        <time>2019-04-29T13:13:40.000Z</time>
      </trkpt>
      <trkpt lat="40.763453878462314605712890625" lon="-7.3522727005183696746826171875">
        <ele>825.79998779296875</ele>
        <time>2019-04-29T13:13:59.000Z</time>
      </trkpt>
      <trkpt lat="40.7637514360249042510986328125" lon="-7.3528745211660861968994140625">
        <ele>826.4000244140625</ele>
        <time>2019-04-29T13:14:16.000Z</time>
      </trkpt>
      <trkpt lat="40.764084197580814361572265625" lon="-7.3534542135894298553466796875">
        <ele>828.20001220703125</ele>
        <time>2019-04-29T13:14:31.000Z</time>
      </trkpt>
      <trkpt lat="40.7641618140041828155517578125" lon="-7.35357047058641910552978515625">
        <ele>828.20001220703125</ele>
        <time>2019-04-29T13:14:34.000Z</time>
      </trkpt>
      <trkpt lat="40.7646338827908039093017578125" lon="-7.35394178889691829681396484375">
        <ele>829.20001220703125</ele>
        <time>2019-04-29T13:14:50.000Z</time>
      </trkpt>
      <trkpt lat="40.76467730104923248291015625" lon="-7.35392510890960693359375">
        <ele>829.20001220703125</ele>
        <time>2019-04-29T13:14:51.000Z</time>
      </trkpt>
      <trkpt lat="40.76478903181850910186767578125" lon="-7.3538780026137828826904296875">
        <ele>829.20001220703125</ele>
        <time>2019-04-29T13:14:54.000Z</time>
      </trkpt>
      <trkpt lat="40.76475106179714202880859375" lon="-7.3539671860635280609130859375">
        <ele>829.4000244140625</ele>
        <time>2019-04-29T13:14:58.000Z</time>
      </trkpt>
      <trkpt lat="40.76462172903120517730712890625" lon="-7.354069612920284271240234375">
        <ele>829.79998779296875</ele>
        <time>2019-04-29T13:15:03.000Z</time>
      </trkpt>
      <trkpt lat="40.7647036202251911163330078125" lon="-7.35424689017236232757568359375">
        <ele>830.20001220703125</ele>
        <time>2019-04-29T13:15:08.000Z</time>
      </trkpt>
      <trkpt lat="40.76511047780513763427734375" lon="-7.35475533641874790191650390625">
        <ele>832.4000244140625</ele>
        <time>2019-04-29T13:15:22.000Z</time>
      </trkpt>
      <trkpt lat="40.7655931077897548675537109375" lon="-7.3550905287265777587890625">
        <ele>836.79998779296875</ele>
        <time>2019-04-29T13:15:39.000Z</time>
      </trkpt>
      <trkpt lat="40.766141451895236968994140625" lon="-7.35510754399001598358154296875">
        <ele>839.4000244140625</ele>
        <time>2019-04-29T13:15:55.000Z</time>
      </trkpt>
      <trkpt lat="40.76668082736432552337646484375" lon="-7.35506244935095310211181640625">
        <ele>842.20001220703125</ele>
        <time>2019-04-29T13:16:09.000Z</time>
      </trkpt>
      <trkpt lat="40.76723721809685230255126953125" lon="-7.3549056239426136016845703125">
        <ele>844.79998779296875</ele>
        <time>2019-04-29T13:16:24.000Z</time>
      </trkpt>
      <trkpt lat="40.76776158995926380157470703125" lon="-7.3546866886317729949951171875">
        <ele>846.5999755859375</ele>
        <time>2019-04-29T13:16:39.000Z</time>
      </trkpt>
      <trkpt lat="40.7682828605175018310546875" lon="-7.35448879189789295196533203125">
        <ele>848.20001220703125</ele>
        <time>2019-04-29T13:16:56.000Z</time>
      </trkpt>
      <trkpt lat="40.7688300311565399169921875" lon="-7.3544087447226047515869140625">
        <ele>850.20001220703125</ele>
        <time>2019-04-29T13:17:14.000Z</time>
      </trkpt>
      <trkpt lat="40.769252479076385498046875" lon="-7.35422057099640369415283203125">
        <ele>849.4000244140625</ele>
        <time>2019-04-29T13:17:31.000Z</time>
      </trkpt>
      <trkpt lat="40.76979587785899639129638671875" lon="-7.35431226901710033416748046875">
        <ele>849.79998779296875</ele>
        <time>2019-04-29T13:17:50.000Z</time>
      </trkpt>
      <trkpt lat="40.77032066881656646728515625" lon="-7.35451946966350078582763671875">
        <ele>850.79998779296875</ele>
        <time>2019-04-29T13:18:06.000Z</time>
      </trkpt>
      <trkpt lat="40.770602636039257049560546875" lon="-7.35462306998670101165771484375">
        <ele>850.79998779296875</ele>
        <time>2019-04-29T13:18:16.000Z</time>
      </trkpt>
      <trkpt lat="40.77059852890670299530029296875" lon="-7.35462055541574954986572265625">
        <ele>850.79998779296875</ele>
        <time>2019-04-29T13:18:17.000Z</time>
      </trkpt>
      <trkpt lat="40.770620070397853851318359375" lon="-7.3546293564140796661376953125">
        <ele>850.79998779296875</ele>
        <time>2019-04-29T13:18:27.000Z</time>
      </trkpt>
      <trkpt lat="40.771165229380130767822265625" lon="-7.3546648956835269927978515625">
        <ele>851.79998779296875</ele>
        <time>2019-04-29T13:18:45.000Z</time>
      </trkpt>
      <trkpt lat="40.7716857455670833587646484375" lon="-7.354458868503570556640625">
        <ele>853.79998779296875</ele>
        <time>2019-04-29T13:19:01.000Z</time>
      </trkpt>
      <trkpt lat="40.77216410078108310699462890625" lon="-7.35411764122545719146728515625">
        <ele>856.79998779296875</ele>
        <time>2019-04-29T13:19:18.000Z</time>
      </trkpt>
      <trkpt lat="40.772647820413112640380859375" lon="-7.353746406733989715576171875">
        <ele>859</ele>
        <time>2019-04-29T13:19:38.000Z</time>
      </trkpt>
      <trkpt lat="40.77312089502811431884765625" lon="-7.3534055985510349273681640625">
        <ele>860.79998779296875</ele>
        <time>2019-04-29T13:19:54.000Z</time>
      </trkpt>
      <trkpt lat="40.77313992194831371307373046875" lon="-7.35338053666055202484130859375">
        <ele>860.79998779296875</ele>
        <time>2019-04-29T13:19:55.000Z</time>
      </trkpt>
      <trkpt lat="40.7736269943416118621826171875" lon="-7.352999746799468994140625">
        <ele>863.20001220703125</ele>
        <time>2019-04-29T13:20:12.000Z</time>
      </trkpt>
      <trkpt lat="40.7740514539182186126708984375" lon="-7.35266187228262424468994140625">
        <ele>864</ele>
        <time>2019-04-29T13:20:27.000Z</time>
      </trkpt>
      <trkpt lat="40.774533748626708984375" lon="-7.3522954992949962615966796875">
        <ele>861</ele>
        <time>2019-04-29T13:20:44.000Z</time>
      </trkpt>
      <trkpt lat="40.77500204555690288543701171875" lon="-7.35187514685094356536865234375">
        <ele>859.79998779296875</ele>
        <time>2019-04-29T13:21:00.000Z</time>
      </trkpt>
      <trkpt lat="40.7754797302186489105224609375" lon="-7.35150081105530261993408203125">
        <ele>860</ele>
        <time>2019-04-29T13:21:15.000Z</time>
      </trkpt>
      <trkpt lat="40.7758277468383312225341796875" lon="-7.3512393794953823089599609375">
        <ele>860.5999755859375</ele>
        <time>2019-04-29T13:21:28.000Z</time>
      </trkpt>
      <trkpt lat="40.7759628631174564361572265625" lon="-7.3515381105244159698486328125">
        <ele>860.5999755859375</ele>
        <time>2019-04-29T13:21:44.000Z</time>
      </trkpt>
      <trkpt lat="40.776059590280055999755859375" lon="-7.35163517296314239501953125">
        <ele>860.5999755859375</ele>
        <time>2019-04-29T13:21:51.000Z</time>
      </trkpt>
      <trkpt lat="40.77607928775250911712646484375" lon="-7.351655624806880950927734375">
        <ele>860.5999755859375</ele>
        <time>2019-04-29T13:21:52.000Z</time>
      </trkpt>
      <trkpt lat="40.7761653698980808258056640625" lon="-7.35173852182924747467041015625">
        <ele>860.4000244140625</ele>
        <time>2019-04-29T13:21:57.000Z</time>
      </trkpt>
      <trkpt lat="40.77671849168837070465087890625" lon="-7.35180457122623920440673828125">
        <ele>860.20001220703125</ele>
        <time>2019-04-29T13:22:13.000Z</time>
      </trkpt>
      <trkpt lat="40.777102969586849212646484375" lon="-7.3516304790973663330078125">
        <ele>861</ele>
        <time>2019-04-29T13:22:29.000Z</time>
      </trkpt>
      <trkpt lat="40.777025856077671051025390625" lon="-7.3516732268035411834716796875">
        <ele>860.79998779296875</ele>
        <time>2019-04-29T13:23:37.000Z</time>
      </trkpt>
      <trkpt lat="40.7769237644970417022705078125" lon="-7.35174271278083324432373046875">
        <ele>860.5999755859375</ele>
        <time>2019-04-29T13:23:47.000Z</time>
      </trkpt>
      <trkpt lat="40.776906497776508331298828125" lon="-7.3517754860222339630126953125">
        <ele>860.4000244140625</ele>
        <time>2019-04-29T13:24:11.000Z</time>
      </trkpt>
      <trkpt lat="40.77667423523962497711181640625" lon="-7.35197455622255802154541015625">
        <ele>859.4000244140625</ele>
        <time>2019-04-29T13:24:20.000Z</time>
      </trkpt>
      <trkpt lat="40.77654615975916385650634765625" lon="-7.3520306311547756195068359375">
        <ele>859.20001220703125</ele>
        <time>2019-04-29T13:24:26.000Z</time>
      </trkpt>
      <trkpt lat="40.77654263935983180999755859375" lon="-7.35202970914542675018310546875">
        <ele>859.20001220703125</ele>
        <time>2019-04-29T13:24:28.000Z</time>
      </trkpt>
      <trkpt lat="40.77656409703195095062255859375" lon="-7.3520339839160442352294921875">
        <ele>859.20001220703125</ele>
        <time>2019-04-29T13:32:35.000Z</time>
      </trkpt>
      <trkpt lat="40.776706002652645111083984375" lon="-7.35195033252239227294921875">
        <ele>859.5999755859375</ele>
        <time>2019-04-29T13:32:44.000Z</time>
      </trkpt>
      <trkpt lat="40.7767760753631591796875" lon="-7.35188570804893970489501953125">
        <ele>859.79998779296875</ele>
        <time>2019-04-29T13:32:50.000Z</time>
      </trkpt>
      <trkpt lat="40.7767854630947113037109375" lon="-7.351883612573146820068359375">
        <ele>859.79998779296875</ele>
        <time>2019-04-29T13:32:55.000Z</time>
      </trkpt>
      <trkpt lat="40.7768734730780124664306640625" lon="-7.35181245021522045135498046875">
        <ele>860.20001220703125</ele>
        <time>2019-04-29T13:32:59.000Z</time>
      </trkpt>
      <trkpt lat="40.77735300175845623016357421875" lon="-7.35145546495914459228515625">
        <ele>860.79998779296875</ele>
        <time>2019-04-29T13:33:16.000Z</time>
      </trkpt>
      <trkpt lat="40.77756439335644245147705078125" lon="-7.3512765951454639434814453125">
        <ele>860.20001220703125</ele>
        <time>2019-04-29T13:33:26.000Z</time>
      </trkpt>
      <trkpt lat="40.7775792293250560760498046875" lon="-7.3512698896229267120361328125">
        <ele>860.20001220703125</ele>
        <time>2019-04-29T13:33:29.000Z</time>
      </trkpt>
      <trkpt lat="40.7775966636836528778076171875" lon="-7.3512611724436283111572265625">
        <ele>860</ele>
        <time>2019-04-29T13:33:33.000Z</time>
      </trkpt>
      <trkpt lat="40.7777448557317256927490234375" lon="-7.351169474422931671142578125">
        <ele>859.79998779296875</ele>
        <time>2019-04-29T13:33:43.000Z</time>
      </trkpt>
      <trkpt lat="40.77770319767296314239501953125" lon="-7.35124968923628330230712890625">
        <ele>859.79998779296875</ele>
        <time>2019-04-29T13:33:48.000Z</time>
      </trkpt>
      <trkpt lat="40.7775054685771465301513671875" lon="-7.351086996495723724365234375">
        <ele>860.5999755859375</ele>
        <time>2019-04-29T13:33:57.000Z</time>
      </trkpt>
      <trkpt lat="40.777248479425907135009765625" lon="-7.35044083558022975921630859375">
        <ele>862</ele>
        <time>2019-04-29T13:34:19.000Z</time>
      </trkpt>
      <trkpt lat="40.777237080037593841552734375" lon="-7.35042549669742584228515625">
        <ele>862</ele>
        <time>2019-04-29T13:34:20.000Z</time>
      </trkpt>
      <trkpt lat="40.77695134095847606658935546875" lon="-7.3505832441151142120361328125">
        <ele>862</ele>
        <time>2019-04-29T13:34:35.000Z</time>
      </trkpt>
      <trkpt lat="40.77696877531707286834716796875" lon="-7.350536473095417022705078125">
        <ele>862</ele>
        <time>2019-04-29T13:37:07.000Z</time>
      </trkpt>
      <trkpt lat="40.7771261036396026611328125" lon="-7.3504544980823993682861328125">
        <ele>862</ele>
        <time>2019-04-29T13:37:17.000Z</time>
      </trkpt>
      <trkpt lat="40.7771671749651432037353515625" lon="-7.35048852860927581787109375">
        <ele>862</ele>
        <time>2019-04-29T13:37:20.000Z</time>
      </trkpt>
      <trkpt lat="40.77751033008098602294921875" lon="-7.35104567371308803558349609375">
        <ele>860.5999755859375</ele>
        <time>2019-04-29T13:37:43.000Z</time>
      </trkpt>
      <trkpt lat="40.7778984121978282928466796875" lon="-7.3514465801417827606201171875">
        <ele>859.4000244140625</ele>
        <time>2019-04-29T13:38:02.000Z</time>
      </trkpt>
      <trkpt lat="40.77839948236942291259765625" lon="-7.351144663989543914794921875">
        <ele>858.20001220703125</ele>
        <time>2019-04-29T13:38:17.000Z</time>
      </trkpt>
      <trkpt lat="40.7787557132542133331298828125" lon="-7.35092572867870330810546875">
        <ele>857.20001220703125</ele>
        <time>2019-04-29T13:38:26.000Z</time>
      </trkpt>
      <trkpt lat="40.77884330414235591888427734375" lon="-7.35086797736585140228271484375">
        <ele>857</ele>
        <time>2019-04-29T13:38:28.000Z</time>
      </trkpt>
      <trkpt lat="40.7792222499847412109375" lon="-7.35073336400091648101806640625">
        <ele>857</ele>
        <time>2019-04-29T13:38:36.000Z</time>
      </trkpt>
      <trkpt lat="40.77931855805218219757080078125" lon="-7.35073789022862911224365234375">
        <ele>857</ele>
        <time>2019-04-29T13:38:38.000Z</time>
      </trkpt>
      <trkpt lat="40.77941059134900569915771484375" lon="-7.350758425891399383544921875">
        <ele>857</ele>
        <time>2019-04-29T13:38:40.000Z</time>
      </trkpt>
      <trkpt lat="40.77962164767086505889892578125" lon="-7.35086948610842227935791015625">
        <ele>856.79998779296875</ele>
        <time>2019-04-29T13:38:48.000Z</time>
      </trkpt>
      <trkpt lat="40.7796227373182773590087890625" lon="-7.3509007506072521209716796875">
        <ele>856.5999755859375</ele>
        <time>2019-04-29T13:38:56.000Z</time>
      </trkpt>
      <trkpt lat="40.7794785685837268829345703125" lon="-7.3507257364690303802490234375">
        <ele>857</ele>
        <time>2019-04-29T13:39:03.000Z</time>
      </trkpt>
      <trkpt lat="40.779495500028133392333984375" lon="-7.35063227824866771697998046875">
        <ele>857.20001220703125</ele>
        <time>2019-04-29T13:39:09.000Z</time>
      </trkpt>
      <trkpt lat="40.77952056191861629486083984375" lon="-7.35061182640492916107177734375">
        <ele>857.20001220703125</ele>
        <time>2019-04-29T13:40:15.000Z</time>
      </trkpt>
      <trkpt lat="40.77954034321010112762451171875" lon="-7.350608892738819122314453125">
        <ele>857.20001220703125</ele>
        <time>2019-04-29T13:40:16.000Z</time>
      </trkpt>
      <trkpt lat="40.7796073146164417266845703125" lon="-7.3505892790853977203369140625">
        <ele>857.20001220703125</ele>
        <time>2019-04-29T13:40:20.000Z</time>
      </trkpt>
      <trkpt lat="40.77960312366485595703125" lon="-7.35059321857988834381103515625">
        <ele>857.20001220703125</ele>
        <time>2019-04-29T13:40:21.000Z</time>
      </trkpt>
      <trkpt lat="40.779627263545989990234375" lon="-7.350598834455013275146484375">
        <ele>857.20001220703125</ele>
        <time>2019-04-29T13:40:25.000Z</time>
      </trkpt>
      <trkpt lat="40.77965877950191497802734375" lon="-7.35073395073413848876953125">
        <ele>857</ele>
        <time>2019-04-29T13:40:29.000Z</time>
      </trkpt>
      <trkpt lat="40.77968702651560306549072265625" lon="-7.350882478058338165283203125">
        <ele>856.5999755859375</ele>
        <time>2019-04-29T13:40:32.000Z</time>
      </trkpt>
      <trkpt lat="40.77978291548788547515869140625" lon="-7.35107534565031528472900390625">
        <ele>855.4000244140625</ele>
        <time>2019-04-29T13:40:36.000Z</time>
      </trkpt>
      <trkpt lat="40.77980923466384410858154296875" lon="-7.351122200489044189453125">
        <ele>855</ele>
        <time>2019-04-29T13:40:37.000Z</time>
      </trkpt>
      <trkpt lat="40.780152641236782073974609375" lon="-7.35168588347733020782470703125">
        <ele>852.79998779296875</ele>
        <time>2019-04-29T13:40:48.000Z</time>
      </trkpt>
      <trkpt lat="40.7805095426738262176513671875" lon="-7.35225476324558258056640625">
        <ele>851.5999755859375</ele>
        <time>2019-04-29T13:40:58.000Z</time>
      </trkpt>
      <trkpt lat="40.780850015580654144287109375" lon="-7.35281375236809253692626953125">
        <ele>849.79998779296875</ele>
        <time>2019-04-29T13:41:07.000Z</time>
      </trkpt>
      <trkpt lat="40.7811857946217060089111328125" lon="-7.3533794470131397247314453125">
        <ele>847.20001220703125</ele>
        <time>2019-04-29T13:41:15.000Z</time>
      </trkpt>
      <trkpt lat="40.7815465517342090606689453125" lon="-7.3540023900568485260009765625">
        <ele>845.5999755859375</ele>
        <time>2019-04-29T13:41:23.000Z</time>
      </trkpt>
      <trkpt lat="40.78163933940231800079345703125" lon="-7.35413096845149993896484375">
        <ele>845.4000244140625</ele>
        <time>2019-04-29T13:41:25.000Z</time>
      </trkpt>
      <trkpt lat="40.7818161137402057647705078125" lon="-7.35431671142578125">
        <ele>844.5999755859375</ele>
        <time>2019-04-29T13:41:29.000Z</time>
      </trkpt>
      <trkpt lat="40.78160044737160205841064453125" lon="-7.35432283021509647369384765625">
        <ele>845</ele>
        <time>2019-04-29T13:41:46.000Z</time>
      </trkpt>
      <trkpt lat="40.7819079793989658355712890625" lon="-7.3543574474751949310302734375">
        <ele>844.20001220703125</ele>
        <time>2019-04-29T13:42:00.000Z</time>
      </trkpt>
      <trkpt lat="40.78194259665906429290771484375" lon="-7.35438804142177104949951171875">
        <ele>844</ele>
        <time>2019-04-29T13:42:01.000Z</time>
      </trkpt>
      <trkpt lat="40.7821161858737468719482421875" lon="-7.35445526428520679473876953125">
        <ele>844.5999755859375</ele>
        <time>2019-04-29T13:42:05.000Z</time>
      </trkpt>
      <trkpt lat="40.782320536673069000244140625" lon="-7.35451184213161468505859375">
        <ele>844.20001220703125</ele>
        <time>2019-04-29T13:42:09.000Z</time>
      </trkpt>
      <trkpt lat="40.7828745804727077484130859375" lon="-7.3545985110104084014892578125">
        <ele>841.20001220703125</ele>
        <time>2019-04-29T13:42:18.000Z</time>
      </trkpt>
      <trkpt lat="40.7834297977387905120849609375" lon="-7.35468962229788303375244140625">
        <ele>838.20001220703125</ele>
        <time>2019-04-29T13:42:26.000Z</time>
      </trkpt>
      <trkpt lat="40.7839933969080448150634765625" lon="-7.35479213297367095947265625">
        <ele>836</ele>
        <time>2019-04-29T13:42:34.000Z</time>
      </trkpt>
      <trkpt lat="40.78454333357512950897216796875" lon="-7.35489447601139545440673828125">
        <ele>833.79998779296875</ele>
        <time>2019-04-29T13:42:42.000Z</time>
      </trkpt>
      <trkpt lat="40.78509771265089511871337890625" lon="-7.35499036498367786407470703125">
        <ele>831.5999755859375</ele>
        <time>2019-04-29T13:42:50.000Z</time>
      </trkpt>
      <trkpt lat="40.78568436205387115478515625" lon="-7.3550880141556262969970703125">
        <ele>830</ele>
        <time>2019-04-29T13:42:59.000Z</time>
      </trkpt>
      <trkpt lat="40.78625609166920185089111328125" lon="-7.35519404523074626922607421875">
        <ele>828.79998779296875</ele>
        <time>2019-04-29T13:43:08.000Z</time>
      </trkpt>
      <trkpt lat="40.786838047206401824951171875" lon="-7.355363778769969940185546875">
        <ele>826.79998779296875</ele>
        <time>2019-04-29T13:43:17.000Z</time>
      </trkpt>
      <trkpt lat="40.78742687590420246124267578125" lon="-7.3555359430611133575439453125">
        <ele>826</ele>
        <time>2019-04-29T13:43:26.000Z</time>
      </trkpt>
      <trkpt lat="40.7880113460123538970947265625" lon="-7.35571305267512798309326171875">
        <ele>825.5999755859375</ele>
        <time>2019-04-29T13:43:35.000Z</time>
      </trkpt>
      <trkpt lat="40.78856932930648326873779296875" lon="-7.35588069073855876922607421875">
        <ele>823.4000244140625</ele>
        <time>2019-04-29T13:43:44.000Z</time>
      </trkpt>
      <trkpt lat="40.78913494013249874114990234375" lon="-7.3560579679906368255615234375">
        <ele>821.20001220703125</ele>
        <time>2019-04-29T13:43:53.000Z</time>
      </trkpt>
      <trkpt lat="40.78967171721160411834716796875" lon="-7.35622066073119640350341796875">
        <ele>819.20001220703125</ele>
        <time>2019-04-29T13:44:01.000Z</time>
      </trkpt>
      <trkpt lat="40.79023565165698528289794921875" lon="-7.35639098100364208221435546875">
        <ele>816.5999755859375</ele>
        <time>2019-04-29T13:44:09.000Z</time>
      </trkpt>
      <trkpt lat="40.7908196188509464263916015625" lon="-7.3565615527331829071044921875">
        <ele>814.4000244140625</ele>
        <time>2019-04-29T13:44:17.000Z</time>
      </trkpt>
      <trkpt lat="40.79141649417579174041748046875" lon="-7.35673799179494380950927734375">
        <ele>812.20001220703125</ele>
        <time>2019-04-29T13:44:25.000Z</time>
      </trkpt>
      <trkpt lat="40.79197137616574764251708984375" lon="-7.35690278001129627227783203125">
        <ele>810.79998779296875</ele>
        <time>2019-04-29T13:44:33.000Z</time>
      </trkpt>
      <trkpt lat="40.7925412617623805999755859375" lon="-7.35707469284534454345703125">
        <ele>811</ele>
        <time>2019-04-29T13:44:42.000Z</time>
      </trkpt>
      <trkpt lat="40.79312154091894626617431640625" lon="-7.35725699923932552337646484375">
        <ele>812.4000244140625</ele>
        <time>2019-04-29T13:44:52.000Z</time>
      </trkpt>
      <trkpt lat="40.793473161756992340087890625" lon="-7.3573328554630279541015625">
        <ele>812</ele>
        <time>2019-04-29T13:44:58.000Z</time>
      </trkpt>
      <trkpt lat="40.793745405972003936767578125" lon="-7.357323467731475830078125">
        <ele>810.79998779296875</ele>
        <time>2019-04-29T13:45:02.000Z</time>
      </trkpt>
      <trkpt lat="40.79433758743107318878173828125" lon="-7.357193045318126678466796875">
        <ele>808.20001220703125</ele>
        <time>2019-04-29T13:45:10.000Z</time>
      </trkpt>
      <trkpt lat="40.7948727719485759735107421875" lon="-7.3570775426924228668212890625">
        <ele>806.4000244140625</ele>
        <time>2019-04-29T13:45:17.000Z</time>
      </trkpt>
      <trkpt lat="40.79542304389178752899169921875" lon="-7.35696329735219478607177734375">
        <ele>802.4000244140625</ele>
        <time>2019-04-29T13:45:24.000Z</time>
      </trkpt>
      <trkpt lat="40.7959832064807415008544921875" lon="-7.3569923825562000274658203125">
        <ele>800.79998779296875</ele>
        <time>2019-04-29T13:45:31.000Z</time>
      </trkpt>
      <trkpt lat="40.7965372502803802490234375" lon="-7.3571053706109523773193359375">
        <ele>795.4000244140625</ele>
        <time>2019-04-29T13:45:38.000Z</time>
      </trkpt>
      <trkpt lat="40.79713337123394012451171875" lon="-7.35721810720860958099365234375">
        <ele>790.20001220703125</ele>
        <time>2019-04-29T13:45:46.000Z</time>
      </trkpt>
      <trkpt lat="40.79773259349167346954345703125" lon="-7.35735489986836910247802734375">
        <ele>790</ele>
        <time>2019-04-29T13:45:54.000Z</time>
      </trkpt>
      <trkpt lat="40.7983224280178546905517578125" lon="-7.35756687819957733154296875">
        <ele>791.79998779296875</ele>
        <time>2019-04-29T13:46:02.000Z</time>
      </trkpt>
      <trkpt lat="40.798851661384105682373046875" lon="-7.35776343382894992828369140625">
        <ele>794.4000244140625</ele>
        <time>2019-04-29T13:46:12.000Z</time>
      </trkpt>
      <trkpt lat="40.7993802241981029510498046875" lon="-7.358002401888370513916015625">
        <ele>797.4000244140625</ele>
        <time>2019-04-29T13:46:29.000Z</time>
      </trkpt>
      <trkpt lat="40.79988758079707622528076171875" lon="-7.35830180346965789794921875">
        <ele>799.79998779296875</ele>
        <time>2019-04-29T13:46:48.000Z</time>
      </trkpt>
      <trkpt lat="40.800393261015415191650390625" lon="-7.35860095359385013580322265625">
        <ele>803.20001220703125</ele>
        <time>2019-04-29T13:47:09.000Z</time>
      </trkpt>
      <trkpt lat="40.80089114606380462646484375" lon="-7.358884513378143310546875">
        <ele>808.20001220703125</ele>
        <time>2019-04-29T13:47:29.000Z</time>
      </trkpt>
      <trkpt lat="40.8014257438480854034423828125" lon="-7.35910420306026935577392578125">
        <ele>812.20001220703125</ele>
        <time>2019-04-29T13:47:49.000Z</time>
      </trkpt>
      <trkpt lat="40.80194936133921146392822265625" lon="-7.35929732210934162139892578125">
        <ele>815.5999755859375</ele>
        <time>2019-04-29T13:48:12.000Z</time>
      </trkpt>
      <trkpt lat="40.80247675068676471710205078125" lon="-7.359486334025859832763671875">
        <ele>821.20001220703125</ele>
        <time>2019-04-29T13:48:33.000Z</time>
      </trkpt>
      <trkpt lat="40.80300598405301570892333984375" lon="-7.359675429761409759521484375">
        <ele>823.20001220703125</ele>
        <time>2019-04-29T13:48:53.000Z</time>
      </trkpt>
      <trkpt lat="40.8035480417311191558837890625" lon="-7.35986259765923023223876953125">
        <ele>822.79998779296875</ele>
        <time>2019-04-29T13:49:11.000Z</time>
      </trkpt>
      <trkpt lat="40.8040573261678218841552734375" lon="-7.3601198382675647735595703125">
        <ele>821.20001220703125</ele>
        <time>2019-04-29T13:49:30.000Z</time>
      </trkpt>
      <trkpt lat="40.8045548759400844573974609375" lon="-7.36053943634033203125">
        <ele>818.4000244140625</ele>
        <time>2019-04-29T13:49:40.000Z</time>
      </trkpt>
      <trkpt lat="40.8049645833671092987060546875" lon="-7.3608626425266265869140625">
        <ele>814</ele>
        <time>2019-04-29T13:49:46.000Z</time>
      </trkpt>
      <trkpt lat="40.80550898797810077667236328125" lon="-7.360990047454833984375">
        <ele>811</ele>
        <time>2019-04-29T13:49:52.000Z</time>
      </trkpt>
      <trkpt lat="40.80608390271663665771484375" lon="-7.36094553954899311065673828125">
        <ele>807.4000244140625</ele>
        <time>2019-04-29T13:49:58.000Z</time>
      </trkpt>
      <trkpt lat="40.80662797205150127410888671875" lon="-7.360882423818111419677734375">
        <ele>805</ele>
        <time>2019-04-29T13:50:04.000Z</time>
      </trkpt>
      <trkpt lat="40.8072417788207530975341796875" lon="-7.3608279414474964141845703125">
        <ele>803.79998779296875</ele>
        <time>2019-04-29T13:50:11.000Z</time>
      </trkpt>
      <trkpt lat="40.807811915874481201171875" lon="-7.36100806854665279388427734375">
        <ele>800.5999755859375</ele>
        <time>2019-04-29T13:50:18.000Z</time>
      </trkpt>
      <trkpt lat="40.8083471842110157012939453125" lon="-7.36134183593094348907470703125">
        <ele>798.5999755859375</ele>
        <time>2019-04-29T13:50:25.000Z</time>
      </trkpt>
      <trkpt lat="40.80885236151516437530517578125" lon="-7.3616510443389415740966796875">
        <ele>798.79998779296875</ele>
        <time>2019-04-29T13:50:32.000Z</time>
      </trkpt>
      <trkpt lat="40.80936566926538944244384765625" lon="-7.36199897713959217071533203125">
        <ele>798.20001220703125</ele>
        <time>2019-04-29T13:50:40.000Z</time>
      </trkpt>
      <trkpt lat="40.8098639734089374542236328125" lon="-7.362350933253765106201171875">
        <ele>796.5999755859375</ele>
        <time>2019-04-29T13:50:48.000Z</time>
      </trkpt>
      <trkpt lat="40.810392200946807861328125" lon="-7.3627299629151821136474609375">
        <ele>794.5999755859375</ele>
        <time>2019-04-29T13:50:56.000Z</time>
      </trkpt>
      <trkpt lat="40.8108775131404399871826171875" lon="-7.36308443360030651092529296875">
        <ele>792.4000244140625</ele>
        <time>2019-04-29T13:51:03.000Z</time>
      </trkpt>
      <trkpt lat="40.811368525028228759765625" lon="-7.3634531535208225250244140625">
        <ele>791.4000244140625</ele>
        <time>2019-04-29T13:51:11.000Z</time>
      </trkpt>
      <trkpt lat="40.8115222491323947906494140625" lon="-7.363622970879077911376953125">
        <ele>790.79998779296875</ele>
        <time>2019-04-29T13:51:14.000Z</time>
      </trkpt>
      <trkpt lat="40.8118410967290401458740234375" lon="-7.36424465663731098175048828125">
        <ele>787.79998779296875</ele>
        <time>2019-04-29T13:51:22.000Z</time>
      </trkpt>
      <trkpt lat="40.81213421188294887542724609375" lon="-7.36489676870405673980712890625">
        <ele>786.79998779296875</ele>
        <time>2019-04-29T13:51:29.000Z</time>
      </trkpt>
      <trkpt lat="40.812448449432849884033203125" lon="-7.36556782387197017669677734375">
        <ele>787.5999755859375</ele>
        <time>2019-04-29T13:51:37.000Z</time>
      </trkpt>
      <trkpt lat="40.8127359487116336822509765625" lon="-7.3662161640822887420654296875">
        <ele>789.5999755859375</ele>
        <time>2019-04-29T13:51:49.000Z</time>
      </trkpt>
      <trkpt lat="40.81295630894601345062255859375" lon="-7.36686802469193935394287109375">
        <ele>794.4000244140625</ele>
        <time>2019-04-29T13:52:04.000Z</time>
      </trkpt>
      <trkpt lat="40.81312746740877628326416015625" lon="-7.36755752004683017730712890625">
        <ele>798.20001220703125</ele>
        <time>2019-04-29T13:52:20.000Z</time>
      </trkpt>
      <trkpt lat="40.8131466619670391082763671875" lon="-7.3676204681396484375">
        <ele>798.20001220703125</ele>
        <time>2019-04-29T13:52:24.000Z</time>
      </trkpt>
      <trkpt lat="40.81314892508089542388916015625" lon="-7.36763396300375461578369140625">
        <ele>798.4000244140625</ele>
        <time>2019-04-29T13:52:32.000Z</time>
      </trkpt>
      <trkpt lat="40.81335813738405704498291015625" lon="-7.36830585636198520660400390625">
        <ele>799.79998779296875</ele>
        <time>2019-04-29T13:52:51.000Z</time>
      </trkpt>
      <trkpt lat="40.8137967623770236968994140625" lon="-7.36875596456229686737060546875">
        <ele>803.79998779296875</ele>
        <time>2019-04-29T13:53:10.000Z</time>
      </trkpt>
      <trkpt lat="40.81434267573058605194091796875" lon="-7.3688930086791515350341796875">
        <ele>805.4000244140625</ele>
        <time>2019-04-29T13:53:31.000Z</time>
      </trkpt>
      <trkpt lat="40.814910717308521270751953125" lon="-7.3688636720180511474609375">
        <ele>807.20001220703125</ele>
        <time>2019-04-29T13:53:49.000Z</time>
      </trkpt>
      <trkpt lat="40.8154443092644214630126953125" lon="-7.36874003894627094268798828125">
        <ele>807.4000244140625</ele>
        <time>2019-04-29T13:54:06.000Z</time>
      </trkpt>
      <trkpt lat="40.8159391768276691436767578125" lon="-7.36840006895363330841064453125">
        <ele>810</ele>
        <time>2019-04-29T13:54:22.000Z</time>
      </trkpt>
      <trkpt lat="40.81640898250043392181396484375" lon="-7.36798591911792755126953125">
        <ele>813.79998779296875</ele>
        <time>2019-04-29T13:54:42.000Z</time>
      </trkpt>
      <trkpt lat="40.8169218711555004119873046875" lon="-7.3676742799580097198486328125">
        <ele>813.4000244140625</ele>
        <time>2019-04-29T13:55:01.000Z</time>
      </trkpt>
      <trkpt lat="40.81746560521423816680908203125" lon="-7.36782322637736797332763671875">
        <ele>817.20001220703125</ele>
        <time>2019-04-29T13:55:19.000Z</time>
      </trkpt>
      <trkpt lat="40.81785787828266620635986328125" lon="-7.36835069954395294189453125">
        <ele>820.79998779296875</ele>
        <time>2019-04-29T13:55:40.000Z</time>
      </trkpt>
      <trkpt lat="40.81818762235343456268310546875" lon="-7.36892309971153736114501953125">
        <ele>824.5999755859375</ele>
        <time>2019-04-29T13:55:57.000Z</time>
      </trkpt>
      <trkpt lat="40.81858777441084384918212890625" lon="-7.36940522678196430206298828125">
        <ele>832</ele>
        <time>2019-04-29T13:56:20.000Z</time>
      </trkpt>
      <trkpt lat="40.819119773805141448974609375" lon="-7.36958040855824947357177734375">
        <ele>831.79998779296875</ele>
        <time>2019-04-29T13:56:38.000Z</time>
      </trkpt>
      <trkpt lat="40.81967490725219249725341796875" lon="-7.36964754760265350341796875">
        <ele>829.4000244140625</ele>
        <time>2019-04-29T13:56:58.000Z</time>
      </trkpt>
      <trkpt lat="40.82015418447554111480712890625" lon="-7.36977453343570232391357421875">
        <ele>826.5999755859375</ele>
        <time>2019-04-29T13:57:12.000Z</time>
      </trkpt>
      <trkpt lat="40.82040823996067047119140625" lon="-7.36991845071315765380859375">
        <ele>824.20001220703125</ele>
        <time>2019-04-29T13:57:17.000Z</time>
      </trkpt>
      <trkpt lat="40.820967815816402435302734375" lon="-7.37024710513651371002197265625">
        <ele>819.79998779296875</ele>
        <time>2019-04-29T13:57:25.000Z</time>
      </trkpt>
      <trkpt lat="40.82125841639935970306396484375" lon="-7.37047358416020870208740234375">
        <ele>818.20001220703125</ele>
        <time>2019-04-29T13:57:29.000Z</time>
      </trkpt>
      <trkpt lat="40.82149679772555828094482421875" lon="-7.37109904177486896514892578125">
        <ele>815.5999755859375</ele>
        <time>2019-04-29T13:57:35.000Z</time>
      </trkpt>
      <trkpt lat="40.821437202394008636474609375" lon="-7.37147807143628597259521484375">
        <ele>813.79998779296875</ele>
        <time>2019-04-29T13:57:38.000Z</time>
      </trkpt>
      <trkpt lat="40.8212502859532833099365234375" lon="-7.3722900263965129852294921875">
        <ele>810.5999755859375</ele>
        <time>2019-04-29T13:57:44.000Z</time>
      </trkpt>
      <trkpt lat="40.8211839012801647186279296875" lon="-7.37287499941885471343994140625">
        <ele>808</ele>
        <time>2019-04-29T13:57:48.000Z</time>
      </trkpt>
      <trkpt lat="40.82127551548182964324951171875" lon="-7.3734604753553867340087890625">
        <ele>804.20001220703125</ele>
        <time>2019-04-29T13:57:52.000Z</time>
      </trkpt>
      <trkpt lat="40.8213186822831630706787109375" lon="-7.37390287220478057861328125">
        <ele>802.20001220703125</ele>
        <time>2019-04-29T13:57:55.000Z</time>
      </trkpt>
      <trkpt lat="40.8211155049502849578857421875" lon="-7.37462715245783329010009765625">
        <ele>799.79998779296875</ele>
        <time>2019-04-29T13:58:00.000Z</time>
      </trkpt>
      <trkpt lat="40.820788443088531494140625" lon="-7.3753091879189014434814453125">
        <ele>797.20001220703125</ele>
        <time>2019-04-29T13:58:05.000Z</time>
      </trkpt>
      <trkpt lat="40.82046314142644405364990234375" lon="-7.37596373073756694793701171875">
        <ele>794.20001220703125</ele>
        <time>2019-04-29T13:58:10.000Z</time>
      </trkpt>
      <trkpt lat="40.8201103471219539642333984375" lon="-7.37657326273620128631591796875">
        <ele>790.5999755859375</ele>
        <time>2019-04-29T13:58:15.000Z</time>
      </trkpt>
      <trkpt lat="40.81971916370093822479248046875" lon="-7.3771448247134685516357421875">
        <ele>785.5999755859375</ele>
        <time>2019-04-29T13:58:20.000Z</time>
      </trkpt>
      <trkpt lat="40.81931347958743572235107421875" lon="-7.37768202088773250579833984375">
        <ele>784.20001220703125</ele>
        <time>2019-04-29T13:58:25.000Z</time>
      </trkpt>
      <trkpt lat="40.8191893436014652252197265625" lon="-7.3779501579701900482177734375">
        <ele>782.5999755859375</ele>
        <time>2019-04-29T13:58:27.000Z</time>
      </trkpt>
      <trkpt lat="40.81895959563553333282470703125" lon="-7.3786300979554653167724609375">
        <ele>780.4000244140625</ele>
        <time>2019-04-29T13:58:32.000Z</time>
      </trkpt>
      <trkpt lat="40.81866656430065631866455078125" lon="-7.379383631050586700439453125">
        <ele>776.79998779296875</ele>
        <time>2019-04-29T13:58:38.000Z</time>
      </trkpt>
      <trkpt lat="40.818317122757434844970703125" lon="-7.37968630157411098480224609375">
        <ele>775.5999755859375</ele>
        <time>2019-04-29T13:58:42.000Z</time>
      </trkpt>
      <trkpt lat="40.81774656660854816436767578125" lon="-7.38005728460848331451416015625">
        <ele>774.5999755859375</ele>
        <time>2019-04-29T13:58:48.000Z</time>
      </trkpt>
      <trkpt lat="40.817212723195552825927734375" lon="-7.38047956489026546478271484375">
        <ele>773.4000244140625</ele>
        <time>2019-04-29T13:58:54.000Z</time>
      </trkpt>
      <trkpt lat="40.81707232631742954254150390625" lon="-7.3806591890752315521240234375">
        <ele>773</ele>
        <time>2019-04-29T13:58:56.000Z</time>
      </trkpt>
      <trkpt lat="40.81666060723364353179931640625" lon="-7.38119621761143207550048828125">
        <ele>772</ele>
        <time>2019-04-29T13:59:02.000Z</time>
      </trkpt>
      <trkpt lat="40.8162590302526950836181640625" lon="-7.3817394487559795379638671875">
        <ele>770.79998779296875</ele>
        <time>2019-04-29T13:59:08.000Z</time>
      </trkpt>
      <trkpt lat="40.8158724568784236907958984375" lon="-7.382251583039760589599609375">
        <ele>769</ele>
        <time>2019-04-29T13:59:14.000Z</time>
      </trkpt>
      <trkpt lat="40.81547054462134838104248046875" lon="-7.3827969096601009368896484375">
        <ele>768</ele>
        <time>2019-04-29T13:59:21.000Z</time>
      </trkpt>
      <trkpt lat="40.815073661506175994873046875" lon="-7.383321784436702728271484375">
        <ele>768</ele>
        <time>2019-04-29T13:59:28.000Z</time>
      </trkpt>
      <trkpt lat="40.81466026604175567626953125" lon="-7.383881695568561553955078125">
        <ele>767.20001220703125</ele>
        <time>2019-04-29T13:59:35.000Z</time>
      </trkpt>
      <trkpt lat="40.81426204182207584381103515625" lon="-7.384440265595912933349609375">
        <ele>766</ele>
        <time>2019-04-29T13:59:42.000Z</time>
      </trkpt>
      <trkpt lat="40.81387178041040897369384765625" lon="-7.38499405793845653533935546875">
        <ele>765</ele>
        <time>2019-04-29T13:59:50.000Z</time>
      </trkpt>
      <trkpt lat="40.81347062252461910247802734375" lon="-7.38557609729468822479248046875">
        <ele>765.5999755859375</ele>
        <time>2019-04-29T13:59:59.000Z</time>
      </trkpt>
      <trkpt lat="40.81310735084116458892822265625" lon="-7.3861067555844783782958984375">
        <ele>766</ele>
        <time>2019-04-29T14:00:07.000Z</time>
      </trkpt>
      <trkpt lat="40.81270627677440643310546875" lon="-7.386681921780109405517578125">
        <ele>766</ele>
        <time>2019-04-29T14:00:16.000Z</time>
      </trkpt>
      <trkpt lat="40.81232364289462566375732421875" lon="-7.3872314393520355224609375">
        <ele>763.20001220703125</ele>
        <time>2019-04-29T14:00:24.000Z</time>
      </trkpt>
      <trkpt lat="40.8119356445968151092529296875" lon="-7.38780098967254161834716796875">
        <ele>762.79998779296875</ele>
        <time>2019-04-29T14:00:32.000Z</time>
      </trkpt>
      <trkpt lat="40.8115527592599391937255859375" lon="-7.38834883086383342742919921875">
        <ele>764</ele>
        <time>2019-04-29T14:00:40.000Z</time>
      </trkpt>
      <trkpt lat="40.81115855835378170013427734375" lon="-7.38892500288784503936767578125">
        <ele>765.4000244140625</ele>
        <time>2019-04-29T14:00:49.000Z</time>
      </trkpt>
      <trkpt lat="40.810780115425586700439453125" lon="-7.38947175443172454833984375">
        <ele>766</ele>
        <time>2019-04-29T14:00:58.000Z</time>
      </trkpt>
      <trkpt lat="40.81040837801992893218994140625" lon="-7.3900200985372066497802734375">
        <ele>766.79998779296875</ele>
        <time>2019-04-29T14:01:07.000Z</time>
      </trkpt>
      <trkpt lat="40.8100443519651889801025390625" lon="-7.39055528305470943450927734375">
        <ele>767</ele>
        <time>2019-04-29T14:01:16.000Z</time>
      </trkpt>
      <trkpt lat="40.80964378081262111663818359375" lon="-7.39106909371912479400634765625">
        <ele>767.5999755859375</ele>
        <time>2019-04-29T14:01:27.000Z</time>
      </trkpt>
      <trkpt lat="40.8092246018350124359130859375" lon="-7.39153294824063777923583984375">
        <ele>768.20001220703125</ele>
        <time>2019-04-29T14:01:40.000Z</time>
      </trkpt>
      <trkpt lat="40.80893366597592830657958984375" lon="-7.39187501370906829833984375">
        <ele>768.5999755859375</ele>
        <time>2019-04-29T14:01:50.000Z</time>
      </trkpt>
      <trkpt lat="40.80849546007812023162841796875" lon="-7.3923589847981929779052734375">
        <ele>768.79998779296875</ele>
        <time>2019-04-29T14:02:02.000Z</time>
      </trkpt>
      <trkpt lat="40.808064378798007965087890625" lon="-7.39281537942588329315185546875">
        <ele>770.4000244140625</ele>
        <time>2019-04-29T14:02:14.000Z</time>
      </trkpt>
      <trkpt lat="40.8079984970390796661376953125" lon="-7.39288427866995334625244140625">
        <ele>770.5999755859375</ele>
        <time>2019-04-29T14:02:16.000Z</time>
      </trkpt>
      <trkpt lat="40.80791576765477657318115234375" lon="-7.393004558980464935302734375">
        <ele>771.20001220703125</ele>
        <time>2019-04-29T14:02:19.000Z</time>
      </trkpt>
      <trkpt lat="40.80748661421239376068115234375" lon="-7.39349766634404659271240234375">
        <ele>772.79998779296875</ele>
        <time>2019-04-29T14:02:33.000Z</time>
      </trkpt>
      <trkpt lat="40.807051844894886016845703125" lon="-7.39398381672799587249755859375">
        <ele>775</ele>
        <time>2019-04-29T14:02:47.000Z</time>
      </trkpt>
      <trkpt lat="40.8066171593964099884033203125" lon="-7.39446326158940792083740234375">
        <ele>776</ele>
        <time>2019-04-29T14:03:01.000Z</time>
      </trkpt>
      <trkpt lat="40.80628029070794582366943359375" lon="-7.39496198482811450958251953125">
        <ele>776.4000244140625</ele>
        <time>2019-04-29T14:03:12.000Z</time>
      </trkpt>
      <trkpt lat="40.80612480640411376953125" lon="-7.3956763744354248046875">
        <ele>772.4000244140625</ele>
        <time>2019-04-29T14:03:21.000Z</time>
      </trkpt>
      <trkpt lat="40.80602263100445270538330078125" lon="-7.39640668965876102447509765625">
        <ele>771.20001220703125</ele>
        <time>2019-04-29T14:03:29.000Z</time>
      </trkpt>
      <trkpt lat="40.80591232515871524810791015625" lon="-7.39716759882867336273193359375">
        <ele>769.20001220703125</ele>
        <time>2019-04-29T14:03:37.000Z</time>
      </trkpt>
      <trkpt lat="40.80579699017107486724853515625" lon="-7.39792515523731708526611328125">
        <ele>765.4000244140625</ele>
        <time>2019-04-29T14:03:45.000Z</time>
      </trkpt>
      <trkpt lat="40.8056911267340183258056640625" lon="-7.398656308650970458984375">
        <ele>763</ele>
        <time>2019-04-29T14:03:53.000Z</time>
      </trkpt>
      <trkpt lat="40.8055845089256763458251953125" lon="-7.399378828704357147216796875">
        <ele>763.20001220703125</ele>
        <time>2019-04-29T14:04:01.000Z</time>
      </trkpt>
      <trkpt lat="40.8054770529270172119140625" lon="-7.4001554958522319793701171875">
        <ele>764</ele>
        <time>2019-04-29T14:04:09.000Z</time>
      </trkpt>
      <trkpt lat="40.8053595386445522308349609375" lon="-7.40091682411730289459228515625">
        <ele>761.5999755859375</ele>
        <time>2019-04-29T14:04:16.000Z</time>
      </trkpt>
      <trkpt lat="40.80523590557277202606201171875" lon="-7.40172366611659526824951171875">
        <ele>755</ele>
        <time>2019-04-29T14:04:23.000Z</time>
      </trkpt>
      <trkpt lat="40.80511453561484813690185546875" lon="-7.402519024908542633056640625">
        <ele>751.5999755859375</ele>
        <time>2019-04-29T14:04:30.000Z</time>
      </trkpt>
      <trkpt lat="40.8049981109797954559326171875" lon="-7.40324481390416622161865234375">
        <ele>753</ele>
        <time>2019-04-29T14:04:38.000Z</time>
      </trkpt>
      <trkpt lat="40.80498947761952877044677734375" lon="-7.403318993747234344482421875">
        <ele>753.4000244140625</ele>
        <time>2019-04-29T14:04:39.000Z</time>
      </trkpt>
      <trkpt lat="40.8049038983881473541259765625" lon="-7.40403573028743267059326171875">
        <ele>754.5999755859375</ele>
        <time>2019-04-29T14:04:49.000Z</time>
      </trkpt>
      <trkpt lat="40.804882608354091644287109375" lon="-7.40445465780794620513916015625">
        <ele>755.79998779296875</ele>
        <time>2019-04-29T14:05:00.000Z</time>
      </trkpt>
      <trkpt lat="40.80485570244491100311279296875" lon="-7.4044252373278141021728515625">
        <ele>755.5999755859375</ele>
        <time>2019-04-29T14:05:31.000Z</time>
      </trkpt>
      <trkpt lat="40.80483994446694850921630859375" lon="-7.4042730219662189483642578125">
        <ele>755</ele>
        <time>2019-04-29T14:05:39.000Z</time>
      </trkpt>
      <trkpt lat="40.8048656769096851348876953125" lon="-7.40426137112081050872802734375">
        <ele>755.20001220703125</ele>
        <time>2019-04-29T14:10:02.000Z</time>
      </trkpt>
      <trkpt lat="40.80488923005759716033935546875" lon="-7.40439782850444316864013671875">
        <ele>755.79998779296875</ele>
        <time>2019-04-29T14:10:07.000Z</time>
      </trkpt>
      <trkpt lat="40.8048465661704540252685546875" lon="-7.40515354089438915252685546875">
        <ele>757.20001220703125</ele>
        <time>2019-04-29T14:10:21.000Z</time>
      </trkpt>
      <trkpt lat="40.80472846515476703643798828125" lon="-7.4059282802045345306396484375">
        <ele>755.5999755859375</ele>
        <time>2019-04-29T14:10:31.000Z</time>
      </trkpt>
      <trkpt lat="40.80453316681087017059326171875" lon="-7.4066152609884738922119140625">
        <ele>756.4000244140625</ele>
        <time>2019-04-29T14:10:38.000Z</time>
      </trkpt>
      <trkpt lat="40.80433585681021213531494140625" lon="-7.4073112942278385162353515625">
        <ele>755</ele>
        <time>2019-04-29T14:10:45.000Z</time>
      </trkpt>
      <trkpt lat="40.804132260382175445556640625" lon="-7.4080224148929119110107421875">
        <ele>752.79998779296875</ele>
        <time>2019-04-29T14:10:52.000Z</time>
      </trkpt>
      <trkpt lat="40.8039252273738384246826171875" lon="-7.40875926800072193145751953125">
        <ele>746.4000244140625</ele>
        <time>2019-04-29T14:10:59.000Z</time>
      </trkpt>
      <trkpt lat="40.8037470281124114990234375" lon="-7.4094910919666290283203125">
        <ele>740.79998779296875</ele>
        <time>2019-04-29T14:11:06.000Z</time>
      </trkpt>
      <trkpt lat="40.80374292097985744476318359375" lon="-7.409609444439411163330078125">
        <ele>740.20001220703125</ele>
        <time>2019-04-29T14:11:07.000Z</time>
      </trkpt>
      <trkpt lat="40.80379606224596500396728515625" lon="-7.410400025546550750732421875">
        <ele>736.79998779296875</ele>
        <time>2019-04-29T14:11:14.000Z</time>
      </trkpt>
      <trkpt lat="40.8037850819528102874755859375" lon="-7.4105125106871128082275390625">
        <ele>736.4000244140625</ele>
        <time>2019-04-29T14:11:15.000Z</time>
      </trkpt>
      <trkpt lat="40.80365725792944431304931640625" lon="-7.410979382693767547607421875">
        <ele>733.20001220703125</ele>
        <time>2019-04-29T14:11:19.000Z</time>
      </trkpt>
      <trkpt lat="40.80363814719021320343017578125" lon="-7.41110645234584808349609375">
        <ele>732.4000244140625</ele>
        <time>2019-04-29T14:11:20.000Z</time>
      </trkpt>
      <trkpt lat="40.80372280441224575042724609375" lon="-7.41190600208938121795654296875">
        <ele>731.20001220703125</ele>
        <time>2019-04-29T14:11:26.000Z</time>
      </trkpt>
      <trkpt lat="40.8039144985377788543701171875" lon="-7.41269339807331562042236328125">
        <ele>724.79998779296875</ele>
        <time>2019-04-29T14:11:32.000Z</time>
      </trkpt>
      <trkpt lat="40.8040858246386051177978515625" lon="-7.4133717454969882965087890625">
        <ele>718.5999755859375</ele>
        <time>2019-04-29T14:11:37.000Z</time>
      </trkpt>
      <trkpt lat="40.8042527921497821807861328125" lon="-7.41405956447124481201171875">
        <ele>714.5999755859375</ele>
        <time>2019-04-29T14:11:42.000Z</time>
      </trkpt>
      <trkpt lat="40.80443593673408031463623046875" lon="-7.41458854638040065765380859375">
        <ele>710.79998779296875</ele>
        <time>2019-04-29T14:11:46.000Z</time>
      </trkpt>
      <trkpt lat="40.80478915013372898101806640625" lon="-7.4149807356297969818115234375">
        <ele>709.4000244140625</ele>
        <time>2019-04-29T14:11:50.000Z</time>
      </trkpt>
      <trkpt lat="40.8052884601056575775146484375" lon="-7.4153394810855388641357421875">
        <ele>707.20001220703125</ele>
        <time>2019-04-29T14:11:55.000Z</time>
      </trkpt>
      <trkpt lat="40.8057896979153156280517578125" lon="-7.4156841449439525604248046875">
        <ele>704.20001220703125</ele>
        <time>2019-04-29T14:12:00.000Z</time>
      </trkpt>
      <trkpt lat="40.80629688687622547149658203125" lon="-7.41605110466480255126953125">
        <ele>702.20001220703125</ele>
        <time>2019-04-29T14:12:05.000Z</time>
      </trkpt>
      <trkpt lat="40.8067894913256168365478515625" lon="-7.41641479544341564178466796875">
        <ele>700.4000244140625</ele>
        <time>2019-04-29T14:12:10.000Z</time>
      </trkpt>
      <trkpt lat="40.80695427954196929931640625" lon="-7.4166081659495830535888671875">
        <ele>699.5999755859375</ele>
        <time>2019-04-29T14:12:12.000Z</time>
      </trkpt>
      <trkpt lat="40.80709232948720455169677734375" lon="-7.417097501456737518310546875">
        <ele>698.5999755859375</ele>
        <time>2019-04-29T14:12:16.000Z</time>
      </trkpt>
      <trkpt lat="40.8070496656000614166259765625" lon="-7.4179341830313205718994140625">
        <ele>698.5999755859375</ele>
        <time>2019-04-29T14:12:22.000Z</time>
      </trkpt>
      <trkpt lat="40.8069980330765247344970703125" lon="-7.4186456389725208282470703125">
        <ele>700.79998779296875</ele>
        <time>2019-04-29T14:12:28.000Z</time>
      </trkpt>
      <trkpt lat="40.80693961121141910552978515625" lon="-7.41943378932774066925048828125">
        <ele>701.4000244140625</ele>
        <time>2019-04-29T14:12:37.000Z</time>
      </trkpt>
      <trkpt lat="40.8068833686411380767822265625" lon="-7.4201949499547481536865234375">
        <ele>699.79998779296875</ele>
        <time>2019-04-29T14:12:46.000Z</time>
      </trkpt>
      <trkpt lat="40.8068528585135936737060546875" lon="-7.4209580384194850921630859375">
        <ele>701.79998779296875</ele>
        <time>2019-04-29T14:12:56.000Z</time>
      </trkpt>
      <trkpt lat="40.8068166486918926239013671875" lon="-7.42169371806085109710693359375">
        <ele>701.5999755859375</ele>
        <time>2019-04-29T14:13:09.000Z</time>
      </trkpt>
      <trkpt lat="40.80679309554398059844970703125" lon="-7.42217819206416606903076171875">
        <ele>699.20001220703125</ele>
        <time>2019-04-29T14:13:17.000Z</time>
      </trkpt>
      <trkpt lat="40.80676241777837276458740234375" lon="-7.422906495630741119384765625">
        <ele>696.20001220703125</ele>
        <time>2019-04-29T14:13:26.000Z</time>
      </trkpt>
      <trkpt lat="40.8067385293543338775634765625" lon="-7.42308427579700946807861328125">
        <ele>696.4000244140625</ele>
        <time>2019-04-29T14:13:28.000Z</time>
      </trkpt>
      <trkpt lat="40.80652772448956966400146484375" lon="-7.423609904944896697998046875">
        <ele>695.20001220703125</ele>
        <time>2019-04-29T14:13:35.000Z</time>
      </trkpt>
      <trkpt lat="40.806188173592090606689453125" lon="-7.42419286631047725677490234375">
        <ele>693.5999755859375</ele>
        <time>2019-04-29T14:13:44.000Z</time>
      </trkpt>
      <trkpt lat="40.80607996322214603424072265625" lon="-7.4243748374283313751220703125">
        <ele>693.5999755859375</ele>
        <time>2019-04-29T14:13:47.000Z</time>
      </trkpt>
      <trkpt lat="40.80574200488626956939697265625" lon="-7.42495603859424591064453125">
        <ele>694</ele>
        <time>2019-04-29T14:13:58.000Z</time>
      </trkpt>
      <trkpt lat="40.805388204753398895263671875" lon="-7.42556230165064334869384765625">
        <ele>692.5999755859375</ele>
        <time>2019-04-29T14:14:10.000Z</time>
      </trkpt>
      <trkpt lat="40.80506390891969203948974609375" lon="-7.42620066739618778228759765625">
        <ele>689.79998779296875</ele>
        <time>2019-04-29T14:14:19.000Z</time>
      </trkpt>
      <trkpt lat="40.80476501025259494781494140625" lon="-7.42690424434840679168701171875">
        <ele>687</ele>
        <time>2019-04-29T14:14:27.000Z</time>
      </trkpt>
      <trkpt lat="40.80448354594409465789794921875" lon="-7.4275656603276729583740234375">
        <ele>683.5999755859375</ele>
        <time>2019-04-29T14:14:34.000Z</time>
      </trkpt>
      <trkpt lat="40.80419604666531085968017578125" lon="-7.42828692309558391571044921875">
        <ele>679.20001220703125</ele>
        <time>2019-04-29T14:14:41.000Z</time>
      </trkpt>
      <trkpt lat="40.80427818931639194488525390625" lon="-7.42902402766048908233642578125">
        <ele>676.20001220703125</ele>
        <time>2019-04-29T14:14:47.000Z</time>
      </trkpt>
      <trkpt lat="40.8043319173157215118408203125" lon="-7.42913668043911457061767578125">
        <ele>676</ele>
        <time>2019-04-29T14:14:48.000Z</time>
      </trkpt>
      <trkpt lat="40.8046839572489261627197265625" lon="-7.429785691201686859130859375">
        <ele>673.5999755859375</ele>
        <time>2019-04-29T14:14:54.000Z</time>
      </trkpt>
      <trkpt lat="40.80502132885158061981201171875" lon="-7.4304339475929737091064453125">
        <ele>667.20001220703125</ele>
        <time>2019-04-29T14:15:00.000Z</time>
      </trkpt>
      <trkpt lat="40.80532475374639034271240234375" lon="-7.43110366165637969970703125">
        <ele>663.79998779296875</ele>
        <time>2019-04-29T14:15:06.000Z</time>
      </trkpt>
      <trkpt lat="40.805387198925018310546875" lon="-7.43120449595153331756591796875">
        <ele>663.4000244140625</ele>
        <time>2019-04-29T14:15:07.000Z</time>
      </trkpt>
      <trkpt lat="40.80578223802149295806884765625" lon="-7.43159316480159759521484375">
        <ele>660.79998779296875</ele>
        <time>2019-04-29T14:15:12.000Z</time>
      </trkpt>
      <trkpt lat="40.8063304983079433441162109375" lon="-7.4319390021264553070068359375">
        <ele>659</ele>
        <time>2019-04-29T14:15:18.000Z</time>
      </trkpt>
      <trkpt lat="40.80650090239942073822021484375" lon="-7.4320781417191028594970703125">
        <ele>657.20001220703125</ele>
        <time>2019-04-29T14:15:20.000Z</time>
      </trkpt>
      <trkpt lat="40.8068786747753620147705078125" lon="-7.4326809681951999664306640625">
        <ele>652.79998779296875</ele>
        <time>2019-04-29T14:15:26.000Z</time>
      </trkpt>
      <trkpt lat="40.80717732198536396026611328125" lon="-7.433180697262287139892578125">
        <ele>653.5999755859375</ele>
        <time>2019-04-29T14:15:31.000Z</time>
      </trkpt>
      <trkpt lat="40.80767445266246795654296875" lon="-7.4335064180195331573486328125">
        <ele>657.20001220703125</ele>
        <time>2019-04-29T14:15:38.000Z</time>
      </trkpt>
      <trkpt lat="40.80823662690818309783935546875" lon="-7.4336499162018299102783203125">
        <ele>658</ele>
        <time>2019-04-29T14:15:47.000Z</time>
      </trkpt>
      <trkpt lat="40.80879033543169498443603515625" lon="-7.43380556814372539520263671875">
        <ele>656</ele>
        <time>2019-04-29T14:15:57.000Z</time>
      </trkpt>
      <trkpt lat="40.80895797349512577056884765625" lon="-7.4338923208415508270263671875">
        <ele>654.5999755859375</ele>
        <time>2019-04-29T14:16:00.000Z</time>
      </trkpt>
      <trkpt lat="40.80939911305904388427734375" lon="-7.4343741126358509063720703125">
        <ele>651.5999755859375</ele>
        <time>2019-04-29T14:16:09.000Z</time>
      </trkpt>
      <trkpt lat="40.80952710472047328948974609375" lon="-7.43466823361814022064208984375">
        <ele>650.20001220703125</ele>
        <time>2019-04-29T14:16:13.000Z</time>
      </trkpt>
      <trkpt lat="40.80973438918590545654296875" lon="-7.43538673035800457000732421875">
        <ele>647.4000244140625</ele>
        <time>2019-04-29T14:16:22.000Z</time>
      </trkpt>
      <trkpt lat="40.80994536168873310089111328125" lon="-7.4360691010951995849609375">
        <ele>644.79998779296875</ele>
        <time>2019-04-29T14:16:31.000Z</time>
      </trkpt>
      <trkpt lat="40.81013563089072704315185546875" lon="-7.43673604913055896759033203125">
        <ele>645</ele>
        <time>2019-04-29T14:16:40.000Z</time>
      </trkpt>
      <trkpt lat="40.81035087816417217254638671875" lon="-7.4374522827565670013427734375">
        <ele>645.79998779296875</ele>
        <time>2019-04-29T14:16:49.000Z</time>
      </trkpt>
      <trkpt lat="40.81052203662693500518798828125" lon="-7.43812928907573223114013671875">
        <ele>644.20001220703125</ele>
        <time>2019-04-29T14:16:57.000Z</time>
      </trkpt>
      <trkpt lat="40.810525976121425628662109375" lon="-7.4382207356393337249755859375">
        <ele>644.20001220703125</ele>
        <time>2019-04-29T14:16:58.000Z</time>
      </trkpt>
      <trkpt lat="40.81049068830907344818115234375" lon="-7.43897753767669200897216796875">
        <ele>640.79998779296875</ele>
        <time>2019-04-29T14:17:05.000Z</time>
      </trkpt>
      <trkpt lat="40.81043687649071216583251953125" lon="-7.43972570635378360748291015625">
        <ele>637</ele>
        <time>2019-04-29T14:17:11.000Z</time>
      </trkpt>
      <trkpt lat="40.81043981015682220458984375" lon="-7.4405177123844623565673828125">
        <ele>633.5999755859375</ele>
        <time>2019-04-29T14:17:17.000Z</time>
      </trkpt>
      <trkpt lat="40.8105613477528095245361328125" lon="-7.44129915721714496612548828125">
        <ele>629.79998779296875</ele>
        <time>2019-04-29T14:17:23.000Z</time>
      </trkpt>
      <trkpt lat="40.81058791838586330413818359375" lon="-7.4415622651576995849609375">
        <ele>628.79998779296875</ele>
        <time>2019-04-29T14:17:25.000Z</time>
      </trkpt>
      <trkpt lat="40.810507200658321380615234375" lon="-7.4420851282775402069091796875">
        <ele>627.79998779296875</ele>
        <time>2019-04-29T14:17:29.000Z</time>
      </trkpt>
      <trkpt lat="40.81033495254814624786376953125" lon="-7.44284947402775287628173828125">
        <ele>627.4000244140625</ele>
        <time>2019-04-29T14:17:35.000Z</time>
      </trkpt>
      <trkpt lat="40.810167901217937469482421875" lon="-7.44358557276427745819091796875">
        <ele>627</ele>
        <time>2019-04-29T14:17:41.000Z</time>
      </trkpt>
      <trkpt lat="40.8100111596286296844482421875" lon="-7.4442681111395359039306640625">
        <ele>624.79998779296875</ele>
        <time>2019-04-29T14:17:47.000Z</time>
      </trkpt>
      <trkpt lat="40.8098571002483367919921875" lon="-7.4450124241411685943603515625">
        <ele>622.4000244140625</ele>
        <time>2019-04-29T14:17:54.000Z</time>
      </trkpt>
      <trkpt lat="40.80970178358256816864013671875" lon="-7.445699907839298248291015625">
        <ele>622.20001220703125</ele>
        <time>2019-04-29T14:18:01.000Z</time>
      </trkpt>
      <trkpt lat="40.8096074871718883514404296875" lon="-7.44625554420053958892822265625">
        <ele>621.79998779296875</ele>
        <time>2019-04-29T14:18:07.000Z</time>
      </trkpt>
      <trkpt lat="40.8096292801201343536376953125" lon="-7.4466338194906711578369140625">
        <ele>621.4000244140625</ele>
        <time>2019-04-29T14:18:11.000Z</time>
      </trkpt>
      <trkpt lat="40.809919126331806182861328125" lon="-7.447256259620189666748046875">
        <ele>622</ele>
        <time>2019-04-29T14:18:19.000Z</time>
      </trkpt>
      <trkpt lat="40.8103313483297824859619140625" lon="-7.44773394428193569183349609375">
        <ele>623.20001220703125</ele>
        <time>2019-04-29T14:18:28.000Z</time>
      </trkpt>
      <trkpt lat="40.81076980568468570709228515625" lon="-7.448241971433162689208984375">
        <ele>626.4000244140625</ele>
        <time>2019-04-29T14:18:39.000Z</time>
      </trkpt>
      <trkpt lat="40.81119409762322902679443359375" lon="-7.44872166775166988372802734375">
        <ele>627.5999755859375</ele>
        <time>2019-04-29T14:18:48.000Z</time>
      </trkpt>
      <trkpt lat="40.811609588563442230224609375" lon="-7.44920580647885799407958984375">
        <ele>627.4000244140625</ele>
        <time>2019-04-29T14:18:57.000Z</time>
      </trkpt>
      <trkpt lat="40.81203396432101726531982421875" lon="-7.44970344007015228271484375">
        <ele>628.4000244140625</ele>
        <time>2019-04-29T14:19:08.000Z</time>
      </trkpt>
      <trkpt lat="40.8124400675296783447265625" lon="-7.4501770175993442535400390625">
        <ele>630.79998779296875</ele>
        <time>2019-04-29T14:19:21.000Z</time>
      </trkpt>
      <trkpt lat="40.8128680475056171417236328125" lon="-7.45066811330616474151611328125">
        <ele>633</ele>
        <time>2019-04-29T14:19:38.000Z</time>
      </trkpt>
      <trkpt lat="40.81328429281711578369140625" lon="-7.45115409605205059051513671875">
        <ele>632.20001220703125</ele>
        <time>2019-04-29T14:19:55.000Z</time>
      </trkpt>
      <trkpt lat="40.81368335522711277008056640625" lon="-7.45163773186504840850830078125">
        <ele>631.4000244140625</ele>
        <time>2019-04-29T14:20:09.000Z</time>
      </trkpt>
      <trkpt lat="40.8138852752745151519775390625" lon="-7.4518637917935848236083984375">
        <ele>631</ele>
        <time>2019-04-29T14:20:14.000Z</time>
      </trkpt>
      <trkpt lat="40.8143578469753265380859375" lon="-7.4522714875638484954833984375">
        <ele>629</ele>
        <time>2019-04-29T14:20:23.000Z</time>
      </trkpt>
      <trkpt lat="40.8148599229753017425537109375" lon="-7.45264716446399688720703125">
        <ele>626.79998779296875</ele>
        <time>2019-04-29T14:20:31.000Z</time>
      </trkpt>
      <trkpt lat="40.81539795733988285064697265625" lon="-7.45304706506431102752685546875">
        <ele>625.79998779296875</ele>
        <time>2019-04-29T14:20:39.000Z</time>
      </trkpt>
      <trkpt lat="40.81590003333985805511474609375" lon="-7.453426681458950042724609375">
        <ele>625.20001220703125</ele>
        <time>2019-04-29T14:20:46.000Z</time>
      </trkpt>
      <trkpt lat="40.8164072223007678985595703125" lon="-7.45380663312971591949462890625">
        <ele>623.5999755859375</ele>
        <time>2019-04-29T14:20:53.000Z</time>
      </trkpt>
      <trkpt lat="40.81693167798221111297607421875" lon="-7.4542053602635860443115234375">
        <ele>625</ele>
        <time>2019-04-29T14:21:01.000Z</time>
      </trkpt>
      <trkpt lat="40.817408524453639984130859375" lon="-7.4545899219810962677001953125">
        <ele>625</ele>
        <time>2019-04-29T14:21:10.000Z</time>
      </trkpt>
      <trkpt lat="40.81787355244159698486328125" lon="-7.4550864659249782562255859375">
        <ele>622.79998779296875</ele>
        <time>2019-04-29T14:21:20.000Z</time>
      </trkpt>
      <trkpt lat="40.81827496178448200225830078125" lon="-7.45559801347553730010986328125">
        <ele>620.4000244140625</ele>
        <time>2019-04-29T14:21:30.000Z</time>
      </trkpt>
      <trkpt lat="40.81868081353604793548583984375" lon="-7.456094808876514434814453125">
        <ele>621.20001220703125</ele>
        <time>2019-04-29T14:21:41.000Z</time>
      </trkpt>
      <trkpt lat="40.8191008307039737701416015625" lon="-7.45662261731922626495361328125">
        <ele>625.4000244140625</ele>
        <time>2019-04-29T14:21:52.000Z</time>
      </trkpt>
      <trkpt lat="40.8195024915039539337158203125" lon="-7.45711815543472766876220703125">
        <ele>630.20001220703125</ele>
        <time>2019-04-29T14:22:03.000Z</time>
      </trkpt>
      <trkpt lat="40.8199105225503444671630859375" lon="-7.45763028971850872039794921875">
        <ele>631.5999755859375</ele>
        <time>2019-04-29T14:22:15.000Z</time>
      </trkpt>
      <trkpt lat="40.82014672458171844482421875" lon="-7.45792147703468799591064453125">
        <ele>629.79998779296875</ele>
        <time>2019-04-29T14:22:21.000Z</time>
      </trkpt>
      <trkpt lat="40.82054461352527141571044921875" lon="-7.4584221281111240386962890625">
        <ele>625.4000244140625</ele>
        <time>2019-04-29T14:22:30.000Z</time>
      </trkpt>
      <trkpt lat="40.82096077501773834228515625" lon="-7.45893769897520542144775390625">
        <ele>628</ele>
        <time>2019-04-29T14:22:41.000Z</time>
      </trkpt>
      <trkpt lat="40.82136771641671657562255859375" lon="-7.45944832451641559600830078125">
        <ele>628.20001220703125</ele>
        <time>2019-04-29T14:22:53.000Z</time>
      </trkpt>
      <trkpt lat="40.82170835696160793304443359375" lon="-7.45986859314143657684326171875">
        <ele>628.4000244140625</ele>
        <time>2019-04-29T14:23:04.000Z</time>
      </trkpt>
      <trkpt lat="40.82214086316525936126708984375" lon="-7.46038441546261310577392578125">
        <ele>625.79998779296875</ele>
        <time>2019-04-29T14:23:17.000Z</time>
      </trkpt>
      <trkpt lat="40.822304897010326385498046875" lon="-7.4605440907180309295654296875">
        <ele>624.79998779296875</ele>
        <time>2019-04-29T14:23:21.000Z</time>
      </trkpt>
      <trkpt lat="40.822789706289768218994140625" lon="-7.46088632382452487945556640625">
        <ele>625.20001220703125</ele>
        <time>2019-04-29T14:23:31.000Z</time>
      </trkpt>
      <trkpt lat="40.8232897706329822540283203125" lon="-7.4612362682819366455078125">
        <ele>625.5999755859375</ele>
        <time>2019-04-29T14:23:43.000Z</time>
      </trkpt>
      <trkpt lat="40.82337400875985622406005859375" lon="-7.4612914212048053741455078125">
        <ele>625.4000244140625</ele>
        <time>2019-04-29T14:23:45.000Z</time>
      </trkpt>
      <trkpt lat="40.8238825388252735137939453125" lon="-7.46156559325754642486572265625">
        <ele>624.4000244140625</ele>
        <time>2019-04-29T14:23:55.000Z</time>
      </trkpt>
      <trkpt lat="40.82443566061556339263916015625" lon="-7.46179559268057346343994140625">
        <ele>621.4000244140625</ele>
        <time>2019-04-29T14:24:05.000Z</time>
      </trkpt>
      <trkpt lat="40.8249537460505962371826171875" lon="-7.46200547553598880767822265625">
        <ele>618.4000244140625</ele>
        <time>2019-04-29T14:24:13.000Z</time>
      </trkpt>
      <trkpt lat="40.82550971768796443939208984375" lon="-7.462233044207096099853515625">
        <ele>616.4000244140625</ele>
        <time>2019-04-29T14:24:21.000Z</time>
      </trkpt>
      <trkpt lat="40.8260856382548809051513671875" lon="-7.46246673166751861572265625">
        <ele>614.4000244140625</ele>
        <time>2019-04-29T14:24:29.000Z</time>
      </trkpt>
      <trkpt lat="40.82661210559308528900146484375" lon="-7.46268440969288349151611328125">
        <ele>612.4000244140625</ele>
        <time>2019-04-29T14:24:37.000Z</time>
      </trkpt>
      <trkpt lat="40.82714268006384372711181640625" lon="-7.46290854178369045257568359375">
        <ele>612.79998779296875</ele>
        <time>2019-04-29T14:24:47.000Z</time>
      </trkpt>
      <trkpt lat="40.82759320735931396484375" lon="-7.46329779736697673797607421875">
        <ele>614.4000244140625</ele>
        <time>2019-04-29T14:24:57.000Z</time>
      </trkpt>
      <trkpt lat="40.82803644239902496337890625" lon="-7.46380381286144256591796875">
        <ele>615.79998779296875</ele>
        <time>2019-04-29T14:25:07.000Z</time>
      </trkpt>
      <trkpt lat="40.8284597285091876983642578125" lon="-7.46429457329213619232177734375">
        <ele>615</ele>
        <time>2019-04-29T14:25:16.000Z</time>
      </trkpt>
      <trkpt lat="40.82888930104672908782958984375" lon="-7.46479564346373081207275390625">
        <ele>614.4000244140625</ele>
        <time>2019-04-29T14:25:26.000Z</time>
      </trkpt>
      <trkpt lat="40.8292065560817718505859375" lon="-7.4652077816426753997802734375">
        <ele>612.79998779296875</ele>
        <time>2019-04-29T14:25:36.000Z</time>
      </trkpt>
      <trkpt lat="40.82944032736122608184814453125" lon="-7.4659194052219390869140625">
        <ele>610.79998779296875</ele>
        <time>2019-04-29T14:25:48.000Z</time>
      </trkpt>
      <trkpt lat="40.82965104840695858001708984375" lon="-7.4666033685207366943359375">
        <ele>609.20001220703125</ele>
        <time>2019-04-29T14:25:59.000Z</time>
      </trkpt>
      <trkpt lat="40.82968600094318389892578125" lon="-7.46673085726797580718994140625">
        <ele>609</ele>
        <time>2019-04-29T14:26:01.000Z</time>
      </trkpt>
      <trkpt lat="40.8298018388450145721435546875" lon="-7.46710469014942646026611328125">
        <ele>610.79998779296875</ele>
        <time>2019-04-29T14:26:07.000Z</time>
      </trkpt>
      <trkpt lat="40.82982421852648258209228515625" lon="-7.46721734292805194854736328125">
        <ele>611.20001220703125</ele>
        <time>2019-04-29T14:26:09.000Z</time>
      </trkpt>
      <trkpt lat="40.83005371503531932830810546875" lon="-7.46789376251399517059326171875">
        <ele>615.20001220703125</ele>
        <time>2019-04-29T14:26:21.000Z</time>
      </trkpt>
      <trkpt lat="40.83026812411844730377197265625" lon="-7.468551658093929290771484375">
        <ele>619</ele>
        <time>2019-04-29T14:26:34.000Z</time>
      </trkpt>
      <trkpt lat="40.83047465421259403228759765625" lon="-7.46922095306217670440673828125">
        <ele>627.4000244140625</ele>
        <time>2019-04-29T14:26:51.000Z</time>
      </trkpt>
      <trkpt lat="40.83068185485899448394775390625" lon="-7.4698966182768344879150390625">
        <ele>630.20001220703125</ele>
        <time>2019-04-29T14:27:13.000Z</time>
      </trkpt>
      <trkpt lat="40.83088989369571208953857421875" lon="-7.47056557796895503997802734375">
        <ele>630</ele>
        <time>2019-04-29T14:27:36.000Z</time>
      </trkpt>
      <trkpt lat="40.8309635706245899200439453125" lon="-7.47079390101134777069091796875">
        <ele>631.79998779296875</ele>
        <time>2019-04-29T14:27:44.000Z</time>
      </trkpt>
      <trkpt lat="40.831190384924411773681640625" lon="-7.47145037166774272918701171875">
        <ele>632</ele>
        <time>2019-04-29T14:28:06.000Z</time>
      </trkpt>
      <trkpt lat="40.83141007460653781890869140625" lon="-7.47214422561228275299072265625">
        <ele>631</ele>
        <time>2019-04-29T14:28:31.000Z</time>
      </trkpt>
      <trkpt lat="40.83161987364292144775390625" lon="-7.47286121360957622528076171875">
        <ele>629</ele>
        <time>2019-04-29T14:28:43.000Z</time>
      </trkpt>
      <trkpt lat="40.83183755166828632354736328125" lon="-7.47355322353541851043701171875">
        <ele>626.5999755859375</ele>
        <time>2019-04-29T14:28:59.000Z</time>
      </trkpt>
      <trkpt lat="40.83210962824523448944091796875" lon="-7.47422142885625362396240234375">
        <ele>626</ele>
        <time>2019-04-29T14:29:19.000Z</time>
      </trkpt>
      <trkpt lat="40.8325298130512237548828125" lon="-7.47476466000080108642578125">
        <ele>626</ele>
        <time>2019-04-29T14:29:30.000Z</time>
      </trkpt>
      <trkpt lat="40.832917392253875732421875" lon="-7.47526665218174457550048828125">
        <ele>622.20001220703125</ele>
        <time>2019-04-29T14:29:39.000Z</time>
      </trkpt>
      <trkpt lat="40.83331511355936527252197265625" lon="-7.4757629446685314178466796875">
        <ele>620.79998779296875</ele>
        <time>2019-04-29T14:29:47.000Z</time>
      </trkpt>
      <trkpt lat="40.8337500505149364471435546875" lon="-7.47628907673060894012451171875">
        <ele>620.4000244140625</ele>
        <time>2019-04-29T14:29:55.000Z</time>
      </trkpt>
      <trkpt lat="40.83415053784847259521484375" lon="-7.47679165564477443695068359375">
        <ele>621</ele>
        <time>2019-04-29T14:30:04.000Z</time>
      </trkpt>
      <trkpt lat="40.83455697633326053619384765625" lon="-7.47731032781302928924560546875">
        <ele>621.20001220703125</ele>
        <time>2019-04-29T14:30:16.000Z</time>
      </trkpt>
      <trkpt lat="40.8349845372140407562255859375" lon="-7.4778176844120025634765625">
        <ele>626</ele>
        <time>2019-04-29T14:30:31.000Z</time>
      </trkpt>
      <trkpt lat="40.83539181388914585113525390625" lon="-7.47832789085805416107177734375">
        <ele>629.20001220703125</ele>
        <time>2019-04-29T14:30:46.000Z</time>
      </trkpt>
      <trkpt lat="40.83578794263303279876708984375" lon="-7.47881772927939891815185546875">
        <ele>631.20001220703125</ele>
        <time>2019-04-29T14:31:02.000Z</time>
      </trkpt>
      <trkpt lat="40.83621977828443050384521484375" lon="-7.4793158657848834991455078125">
        <ele>632.4000244140625</ele>
        <time>2019-04-29T14:31:16.000Z</time>
      </trkpt>
      <trkpt lat="40.83666418679058551788330078125" lon="-7.47974392957985401153564453125">
        <ele>634.20001220703125</ele>
        <time>2019-04-29T14:31:29.000Z</time>
      </trkpt>
      <trkpt lat="40.83713055588304996490478515625" lon="-7.480163611471652984619140625">
        <ele>629.79998779296875</ele>
        <time>2019-04-29T14:31:40.000Z</time>
      </trkpt>
      <trkpt lat="40.83758401684463024139404296875" lon="-7.4805751629173755645751953125">
        <ele>630.20001220703125</ele>
        <time>2019-04-29T14:31:49.000Z</time>
      </trkpt>
      <trkpt lat="40.8380486257374286651611328125" lon="-7.48095310293138027191162109375">
        <ele>624.79998779296875</ele>
        <time>2019-04-29T14:31:57.000Z</time>
      </trkpt>
      <trkpt lat="40.8385716564953327178955078125" lon="-7.4812510795891284942626953125">
        <ele>622.5999755859375</ele>
        <time>2019-04-29T14:32:05.000Z</time>
      </trkpt>
      <trkpt lat="40.83914254792034626007080078125" lon="-7.481516785919666290283203125">
        <ele>617.4000244140625</ele>
        <time>2019-04-29T14:32:13.000Z</time>
      </trkpt>
      <trkpt lat="40.83965904079377651214599609375" lon="-7.48175106011331081390380859375">
        <ele>615.79998779296875</ele>
        <time>2019-04-29T14:32:20.000Z</time>
      </trkpt>
      <trkpt lat="40.84017067216336727142333984375" lon="-7.482059933245182037353515625">
        <ele>614.79998779296875</ele>
        <time>2019-04-29T14:32:27.000Z</time>
      </trkpt>
      <trkpt lat="40.84023470990359783172607421875" lon="-7.48211869038641452789306640625">
        <ele>614.5999755859375</ele>
        <time>2019-04-29T14:32:28.000Z</time>
      </trkpt>
      <trkpt lat="40.840685404837131500244140625" lon="-7.48264742083847522735595703125">
        <ele>612</ele>
        <time>2019-04-29T14:32:36.000Z</time>
      </trkpt>
      <trkpt lat="40.84112830460071563720703125" lon="-7.48315972276031970977783203125">
        <ele>612.20001220703125</ele>
        <time>2019-04-29T14:32:45.000Z</time>
      </trkpt>
      <trkpt lat="40.8415339887142181396484375" lon="-7.483629696071147918701171875">
        <ele>612</ele>
        <time>2019-04-29T14:32:54.000Z</time>
      </trkpt>
      <trkpt lat="40.841942019760608673095703125" lon="-7.4841113202273845672607421875">
        <ele>610.5999755859375</ele>
        <time>2019-04-29T14:33:04.000Z</time>
      </trkpt>
      <trkpt lat="40.8423840813338756561279296875" lon="-7.484631836414337158203125">
        <ele>609.79998779296875</ele>
        <time>2019-04-29T14:33:15.000Z</time>
      </trkpt>
      <trkpt lat="40.8428390510380268096923828125" lon="-7.48515679500997066497802734375">
        <ele>611.79998779296875</ele>
        <time>2019-04-29T14:33:25.000Z</time>
      </trkpt>
      <trkpt lat="40.84320458583533763885498046875" lon="-7.4856864474713802337646484375">
        <ele>610.20001220703125</ele>
        <time>2019-04-29T14:33:34.000Z</time>
      </trkpt>
      <trkpt lat="40.843558721244335174560546875" lon="-7.48630980961024761199951171875">
        <ele>607.4000244140625</ele>
        <time>2019-04-29T14:33:44.000Z</time>
      </trkpt>
      <trkpt lat="40.84399566985666751861572265625" lon="-7.486738376319408416748046875">
        <ele>606.4000244140625</ele>
        <time>2019-04-29T14:33:54.000Z</time>
      </trkpt>
      <trkpt lat="40.84447092376649379730224609375" lon="-7.48715939931571483612060546875">
        <ele>607.79998779296875</ele>
        <time>2019-04-29T14:34:06.000Z</time>
      </trkpt>
      <trkpt lat="40.8448077924549579620361328125" lon="-7.48746181838214397430419921875">
        <ele>609.5999755859375</ele>
        <time>2019-04-29T14:34:17.000Z</time>
      </trkpt>
      <trkpt lat="40.84483117796480655670166015625" lon="-7.4874888919293880462646484375">
        <ele>609.5999755859375</ele>
        <time>2019-04-29T14:35:36.000Z</time>
      </trkpt>
      <trkpt lat="40.84526569582521915435791015625" lon="-7.4879693426191806793212890625">
        <ele>610.20001220703125</ele>
        <time>2019-04-29T14:35:55.000Z</time>
      </trkpt>
      <trkpt lat="40.845683701336383819580078125" lon="-7.4884588457643985748291015625">
        <ele>610.20001220703125</ele>
        <time>2019-04-29T14:36:08.000Z</time>
      </trkpt>
      <trkpt lat="40.8461083285510540008544921875" lon="-7.4889553897082805633544921875">
        <ele>608</ele>
        <time>2019-04-29T14:36:20.000Z</time>
      </trkpt>
      <trkpt lat="40.84615132771432399749755859375" lon="-7.48899721540510654449462890625">
        <ele>608</ele>
        <time>2019-04-29T14:36:21.000Z</time>
      </trkpt>
      <trkpt lat="40.8465686626732349395751953125" lon="-7.48947900719940662384033203125">
        <ele>609</ele>
        <time>2019-04-29T14:36:32.000Z</time>
      </trkpt>
      <trkpt lat="40.84698935039341449737548828125" lon="-7.48995610512793064117431640625">
        <ele>611</ele>
        <time>2019-04-29T14:36:43.000Z</time>
      </trkpt>
      <trkpt lat="40.847408361732959747314453125" lon="-7.49043814837932586669921875">
        <ele>612.20001220703125</ele>
        <time>2019-04-29T14:36:54.000Z</time>
      </trkpt>
      <trkpt lat="40.847842879593372344970703125" lon="-7.49092823825776576995849609375">
        <ele>613.4000244140625</ele>
        <time>2019-04-29T14:37:05.000Z</time>
      </trkpt>
      <trkpt lat="40.84827513433992862701416015625" lon="-7.4914138019084930419921875">
        <ele>615.5999755859375</ele>
        <time>2019-04-29T14:37:15.000Z</time>
      </trkpt>
      <trkpt lat="40.84872423671185970306396484375" lon="-7.4919172190129756927490234375">
        <ele>614</ele>
        <time>2019-04-29T14:37:25.000Z</time>
      </trkpt>
      <trkpt lat="40.849155150353908538818359375" lon="-7.49239389784634113311767578125">
        <ele>611.5999755859375</ele>
        <time>2019-04-29T14:37:35.000Z</time>
      </trkpt>
      <trkpt lat="40.84954968653619289398193359375" lon="-7.49293101020157337188720703125">
        <ele>612.20001220703125</ele>
        <time>2019-04-29T14:37:47.000Z</time>
      </trkpt>
      <trkpt lat="40.84971413947641849517822265625" lon="-7.49331825412809848785400390625">
        <ele>611</ele>
        <time>2019-04-29T14:37:54.000Z</time>
      </trkpt>
      <trkpt lat="40.84979745559394359588623046875" lon="-7.493545152246952056884765625">
        <ele>611</ele>
        <time>2019-04-29T14:37:58.000Z</time>
      </trkpt>
      <trkpt lat="40.849977917969226837158203125" lon="-7.4940465576946735382080078125">
        <ele>610</ele>
        <time>2019-04-29T14:38:07.000Z</time>
      </trkpt>
      <trkpt lat="40.85023800842463970184326171875" lon="-7.49473731033504009246826171875">
        <ele>606.79998779296875</ele>
        <time>2019-04-29T14:38:20.000Z</time>
      </trkpt>
      <trkpt lat="40.85047387517988681793212890625" lon="-7.49541775323450565338134765625">
        <ele>603.79998779296875</ele>
        <time>2019-04-29T14:38:31.000Z</time>
      </trkpt>
      <trkpt lat="40.85048192180693149566650390625" lon="-7.49548966996371746063232421875">
        <ele>603.5999755859375</ele>
        <time>2019-04-29T14:38:32.000Z</time>
      </trkpt>
      <trkpt lat="40.85048175416886806488037109375" lon="-7.4956800229847431182861328125">
        <ele>603.4000244140625</ele>
        <time>2019-04-29T14:38:35.000Z</time>
      </trkpt>
      <trkpt lat="40.850438587367534637451171875" lon="-7.49593726359307765960693359375">
        <ele>603.5999755859375</ele>
        <time>2019-04-29T14:38:39.000Z</time>
      </trkpt>
      <trkpt lat="40.85023096762597560882568359375" lon="-7.49640463851392269134521484375">
        <ele>605.4000244140625</ele>
        <time>2019-04-29T14:38:51.000Z</time>
      </trkpt>
      <trkpt lat="40.85024110972881317138671875" lon="-7.49637094326317310333251953125">
        <ele>605.4000244140625</ele>
        <time>2019-04-29T14:38:55.000Z</time>
      </trkpt>
      <trkpt lat="40.85025728680193424224853515625" lon="-7.49640874564647674560546875">
        <ele>605.4000244140625</ele>
        <time>2019-04-29T14:40:07.000Z</time>
      </trkpt>
      <trkpt lat="40.85015393793582916259765625" lon="-7.4966868571937084197998046875">
        <ele>606.79998779296875</ele>
        <time>2019-04-29T14:40:16.000Z</time>
      </trkpt>
      <trkpt lat="40.85017866455018520355224609375" lon="-7.49677084386348724365234375">
        <ele>608</ele>
        <time>2019-04-29T14:40:18.000Z</time>
      </trkpt>
      <trkpt lat="40.85025644861161708831787109375" lon="-7.49690436758100986480712890625">
        <ele>609.79998779296875</ele>
        <time>2019-04-29T14:40:22.000Z</time>
      </trkpt>
      <trkpt lat="40.8507220633327960968017578125" lon="-7.49683446250855922698974609375">
        <ele>607.79998779296875</ele>
        <time>2019-04-29T14:40:37.000Z</time>
      </trkpt>
      <trkpt lat="40.85070085711777210235595703125" lon="-7.4968471191823482513427734375">
        <ele>608.20001220703125</ele>
        <time>2019-04-29T14:41:56.000Z</time>
      </trkpt>
      <trkpt lat="40.85126261226832866668701171875" lon="-7.49683245085179805755615234375">
        <ele>605.79998779296875</ele>
        <time>2019-04-29T14:42:14.000Z</time>
      </trkpt>
      <trkpt lat="40.8515505306422710418701171875" lon="-7.4969282560050487518310546875">
        <ele>605</ele>
        <time>2019-04-29T14:42:21.000Z</time>
      </trkpt>
      <trkpt lat="40.8516625128686428070068359375" lon="-7.497015930712223052978515625">
        <ele>605.4000244140625</ele>
        <time>2019-04-29T14:42:24.000Z</time>
      </trkpt>
      <trkpt lat="40.8517959527671337127685546875" lon="-7.4971649609506130218505859375">
        <ele>606.20001220703125</ele>
        <time>2019-04-29T14:42:28.000Z</time>
      </trkpt>
      <trkpt lat="40.85221228189766407012939453125" lon="-7.4977060966193675994873046875">
        <ele>606.4000244140625</ele>
        <time>2019-04-29T14:42:41.000Z</time>
      </trkpt>
      <trkpt lat="40.852593742311000823974609375" lon="-7.49821647070348262786865234375">
        <ele>606.5999755859375</ele>
        <time>2019-04-29T14:42:52.000Z</time>
      </trkpt>
      <trkpt lat="40.8530160225927829742431640625" lon="-7.49874972738325595855712890625">
        <ele>606.4000244140625</ele>
        <time>2019-04-29T14:43:04.000Z</time>
      </trkpt>
      <trkpt lat="40.85341307334601879119873046875" lon="-7.49934081919491291046142578125">
        <ele>605</ele>
        <time>2019-04-29T14:43:15.000Z</time>
      </trkpt>
      <trkpt lat="40.8537626825273036956787109375" lon="-7.49989218078553676605224609375">
        <ele>605</ele>
        <time>2019-04-29T14:43:24.000Z</time>
      </trkpt>
      <trkpt lat="40.85413693450391292572021484375" lon="-7.50046466477215290069580078125">
        <ele>605.20001220703125</ele>
        <time>2019-04-29T14:43:34.000Z</time>
      </trkpt>
      <trkpt lat="40.85450020618736743927001953125" lon="-7.501033209264278411865234375">
        <ele>605</ele>
        <time>2019-04-29T14:43:44.000Z</time>
      </trkpt>
      <trkpt lat="40.85486515425145626068115234375" lon="-7.501598484814167022705078125">
        <ele>605</ele>
        <time>2019-04-29T14:43:53.000Z</time>
      </trkpt>
      <trkpt lat="40.85524988360702991485595703125" lon="-7.5021887384355068206787109375">
        <ele>601.79998779296875</ele>
        <time>2019-04-29T14:44:03.000Z</time>
      </trkpt>
      <trkpt lat="40.85561625659465789794921875" lon="-7.50275443308055400848388671875">
        <ele>600.5999755859375</ele>
        <time>2019-04-29T14:44:13.000Z</time>
      </trkpt>
      <trkpt lat="40.85598933510482311248779296875" lon="-7.5033333711326122283935546875">
        <ele>601</ele>
        <time>2019-04-29T14:44:24.000Z</time>
      </trkpt>
      <trkpt lat="40.85636870004236698150634765625" lon="-7.5039190985262393951416015625">
        <ele>600.79998779296875</ele>
        <time>2019-04-29T14:44:34.000Z</time>
      </trkpt>
      <trkpt lat="40.85675158537924289703369140625" lon="-7.50451379455626010894775390625">
        <ele>601.4000244140625</ele>
        <time>2019-04-29T14:44:44.000Z</time>
      </trkpt>
      <trkpt lat="40.85711988620460033416748046875" lon="-7.505045793950557708740234375">
        <ele>601.79998779296875</ele>
        <time>2019-04-29T14:44:54.000Z</time>
      </trkpt>
      <trkpt lat="40.85734418593347072601318359375" lon="-7.50522541813552379608154296875">
        <ele>602</ele>
        <time>2019-04-29T14:44:59.000Z</time>
      </trkpt>
      <trkpt lat="40.85759564302861690521240234375" lon="-7.50532918609678745269775390625">
        <ele>603</ele>
        <time>2019-04-29T14:45:07.000Z</time>
      </trkpt>
      <trkpt lat="40.85758692584931850433349609375" lon="-7.50533647835254669189453125">
        <ele>603</ele>
        <time>2019-04-29T14:46:55.000Z</time>
      </trkpt>
      <trkpt lat="40.85814096964895725250244140625" lon="-7.50549011863768100738525390625">
        <ele>604</ele>
        <time>2019-04-29T14:47:11.000Z</time>
      </trkpt>
      <trkpt lat="40.858703814446926116943359375" lon="-7.50563328154385089874267578125">
        <ele>606.5999755859375</ele>
        <time>2019-04-29T14:47:24.000Z</time>
      </trkpt>
      <trkpt lat="40.85924302227795124053955078125" lon="-7.5057926215231418609619140625">
        <ele>608.4000244140625</ele>
        <time>2019-04-29T14:47:37.000Z</time>
      </trkpt>
      <trkpt lat="40.859322734177112579345703125" lon="-7.50581433065235614776611328125">
        <ele>608.5999755859375</ele>
        <time>2019-04-29T14:47:39.000Z</time>
      </trkpt>
      <trkpt lat="40.85986915044486522674560546875" lon="-7.50595950521528720855712890625">
        <ele>610.4000244140625</ele>
        <time>2019-04-29T14:47:52.000Z</time>
      </trkpt>
      <trkpt lat="40.86043911986052989959716796875" lon="-7.50611088238656520843505859375">
        <ele>612</ele>
        <time>2019-04-29T14:48:05.000Z</time>
      </trkpt>
      <trkpt lat="40.8608594723045825958251953125" lon="-7.50619822181761264801025390625">
        <ele>612.4000244140625</ele>
        <time>2019-04-29T14:48:15.000Z</time>
      </trkpt>
      <trkpt lat="40.86143933236598968505859375" lon="-7.50616662204265594482421875">
        <ele>611</ele>
        <time>2019-04-29T14:48:26.000Z</time>
      </trkpt>
      <trkpt lat="40.86202732287347316741943359375" lon="-7.50608104281127452850341796875">
        <ele>609.20001220703125</ele>
        <time>2019-04-29T14:48:35.000Z</time>
      </trkpt>
      <trkpt lat="40.86263216100633144378662109375" lon="-7.50599722377955913543701171875">
        <ele>606.5999755859375</ele>
        <time>2019-04-29T14:48:43.000Z</time>
      </trkpt>
      <trkpt lat="40.86320732720196247100830078125" lon="-7.50591256655752658843994140625">
        <ele>605</ele>
        <time>2019-04-29T14:48:50.000Z</time>
      </trkpt>
      <trkpt lat="40.863757766783237457275390625" lon="-7.50583495013415813446044921875">
        <ele>603.4000244140625</ele>
        <time>2019-04-29T14:48:57.000Z</time>
      </trkpt>
      <trkpt lat="40.8643144927918910980224609375" lon="-7.50578365288674831390380859375">
        <ele>603</ele>
        <time>2019-04-29T14:49:05.000Z</time>
      </trkpt>
      <trkpt lat="40.86487331427633762359619140625" lon="-7.505812905728816986083984375">
        <ele>604.4000244140625</ele>
        <time>2019-04-29T14:49:13.000Z</time>
      </trkpt>
      <trkpt lat="40.8654487319290637969970703125" lon="-7.50583411194384098052978515625">
        <ele>607.4000244140625</ele>
        <time>2019-04-29T14:49:22.000Z</time>
      </trkpt>
      <trkpt lat="40.865717120468616485595703125" lon="-7.50584970228374004364013671875">
        <ele>608.4000244140625</ele>
        <time>2019-04-29T14:49:27.000Z</time>
      </trkpt>
      <trkpt lat="40.86610830388963222503662109375" lon="-7.505855821073055267333984375">
        <ele>608.4000244140625</ele>
        <time>2019-04-29T14:49:35.000Z</time>
      </trkpt>
      <trkpt lat="40.86623956449329853057861328125" lon="-7.50587535090744495391845703125">
        <ele>608.79998779296875</ele>
        <time>2019-04-29T14:49:38.000Z</time>
      </trkpt>
      <trkpt lat="40.86632958613336086273193359375" lon="-7.5058918632566928863525390625">
        <ele>609.20001220703125</ele>
        <time>2019-04-29T14:49:40.000Z</time>
      </trkpt>
      <trkpt lat="40.8668967895209789276123046875" lon="-7.50603393651545047760009765625">
        <ele>612</ele>
        <time>2019-04-29T14:49:52.000Z</time>
      </trkpt>
      <trkpt lat="40.86699661798775196075439453125" lon="-7.50604684464633464813232421875">
        <ele>612</ele>
        <time>2019-04-29T14:49:54.000Z</time>
      </trkpt>
      <trkpt lat="40.86756139062345027923583984375" lon="-7.50597643665969371795654296875">
        <ele>607.5999755859375</ele>
        <time>2019-04-29T14:50:04.000Z</time>
      </trkpt>
      <trkpt lat="40.86810193955898284912109375" lon="-7.5058670528233051300048828125">
        <ele>601.79998779296875</ele>
        <time>2019-04-29T14:50:13.000Z</time>
      </trkpt>
      <trkpt lat="40.86833135224878787994384765625" lon="-7.50588675029575824737548828125">
        <ele>601.79998779296875</ele>
        <time>2019-04-29T14:50:17.000Z</time>
      </trkpt>
      <trkpt lat="40.8685245551168918609619140625" lon="-7.505986578762531280517578125">
        <ele>604.20001220703125</ele>
        <time>2019-04-29T14:50:21.000Z</time>
      </trkpt>
      <trkpt lat="40.8689409680664539337158203125" lon="-7.5063671171665191650390625">
        <ele>605.20001220703125</ele>
        <time>2019-04-29T14:50:32.000Z</time>
      </trkpt>
      <trkpt lat="40.86938143707811832427978515625" lon="-7.5067981146275997161865234375">
        <ele>604.4000244140625</ele>
        <time>2019-04-29T14:50:43.000Z</time>
      </trkpt>
      <trkpt lat="40.86986691690981388092041015625" lon="-7.50723741017282009124755859375">
        <ele>604.4000244140625</ele>
        <time>2019-04-29T14:50:53.000Z</time>
      </trkpt>
      <trkpt lat="40.8703729324042797088623046875" lon="-7.50750160776078701019287109375">
        <ele>605</ele>
        <time>2019-04-29T14:51:03.000Z</time>
      </trkpt>
      <trkpt lat="40.87051450274884700775146484375" lon="-7.50755458138883113861083984375">
        <ele>605.4000244140625</ele>
        <time>2019-04-29T14:51:06.000Z</time>
      </trkpt>
      <trkpt lat="40.87104692123830318450927734375" lon="-7.507762871682643890380859375">
        <ele>605.20001220703125</ele>
        <time>2019-04-29T14:51:18.000Z</time>
      </trkpt>
      <trkpt lat="40.87156475521624088287353515625" lon="-7.5081043504178524017333984375">
        <ele>603.20001220703125</ele>
        <time>2019-04-29T14:51:28.000Z</time>
      </trkpt>
      <trkpt lat="40.8720493130385875701904296875" lon="-7.50845664180815219879150390625">
        <ele>599.4000244140625</ele>
        <time>2019-04-29T14:51:36.000Z</time>
      </trkpt>
      <trkpt lat="40.872584246098995208740234375" lon="-7.50882443971931934356689453125">
        <ele>602.5999755859375</ele>
        <time>2019-04-29T14:51:44.000Z</time>
      </trkpt>
      <trkpt lat="40.87315564043819904327392578125" lon="-7.509034574031829833984375">
        <ele>602.5999755859375</ele>
        <time>2019-04-29T14:51:53.000Z</time>
      </trkpt>
      <trkpt lat="40.87373985908925533294677734375" lon="-7.50915267504751682281494140625">
        <ele>600</ele>
        <time>2019-04-29T14:52:03.000Z</time>
      </trkpt>
      <trkpt lat="40.87422332726418972015380859375" lon="-7.50926985405385494232177734375">
        <ele>596.5999755859375</ele>
        <time>2019-04-29T14:52:12.000Z</time>
      </trkpt>
      <trkpt lat="40.874344445765018463134765625" lon="-7.5093572773039340972900390625">
        <ele>596.79998779296875</ele>
        <time>2019-04-29T14:52:15.000Z</time>
      </trkpt>
      <trkpt lat="40.87448081932961940765380859375" lon="-7.50953421927988529205322265625">
        <ele>596.79998779296875</ele>
        <time>2019-04-29T14:52:19.000Z</time>
      </trkpt>
      <trkpt lat="40.87454460561275482177734375" lon="-7.50963228754699230194091796875">
        <ele>595.5999755859375</ele>
        <time>2019-04-29T14:52:21.000Z</time>
      </trkpt>
      <trkpt lat="40.8746906183660030364990234375" lon="-7.510064542293548583984375">
        <ele>594.20001220703125</ele>
        <time>2019-04-29T14:52:28.000Z</time>
      </trkpt>
      <trkpt lat="40.874825902283191680908203125" lon="-7.51046779565513134002685546875">
        <ele>594</ele>
        <time>2019-04-29T14:52:34.000Z</time>
      </trkpt>
      <trkpt lat="40.87492740713059902191162109375" lon="-7.5106430612504482269287109375">
        <ele>593.79998779296875</ele>
        <time>2019-04-29T14:52:37.000Z</time>
      </trkpt>
      <trkpt lat="40.8751955442130565643310546875" lon="-7.510884962975978851318359375">
        <ele>593.4000244140625</ele>
        <time>2019-04-29T14:52:43.000Z</time>
      </trkpt>
      <trkpt lat="40.87540769018232822418212890625" lon="-7.5109548680484294891357421875">
        <ele>592.20001220703125</ele>
        <time>2019-04-29T14:52:47.000Z</time>
      </trkpt>
      <trkpt lat="40.87596617639064788818359375" lon="-7.5110759027302265167236328125">
        <ele>590.20001220703125</ele>
        <time>2019-04-29T14:52:58.000Z</time>
      </trkpt>
      <trkpt lat="40.8765205554664134979248046875" lon="-7.51120925880968570709228515625">
        <ele>591.20001220703125</ele>
        <time>2019-04-29T14:53:09.000Z</time>
      </trkpt>
      <trkpt lat="40.877089686691761016845703125" lon="-7.51130062155425548553466796875">
        <ele>591.5999755859375</ele>
        <time>2019-04-29T14:53:19.000Z</time>
      </trkpt>
      <trkpt lat="40.877325721085071563720703125" lon="-7.51129240728914737701416015625">
        <ele>591.5999755859375</ele>
        <time>2019-04-29T14:53:23.000Z</time>
      </trkpt>
      <trkpt lat="40.87786744348704814910888671875" lon="-7.511170618236064910888671875">
        <ele>595.5999755859375</ele>
        <time>2019-04-29T14:53:32.000Z</time>
      </trkpt>
      <trkpt lat="40.8784209005534648895263671875" lon="-7.5110802613198757171630859375">
        <ele>596.4000244140625</ele>
        <time>2019-04-29T14:53:42.000Z</time>
      </trkpt>
      <trkpt lat="40.87900486774742603302001953125" lon="-7.511162571609020233154296875">
        <ele>596.20001220703125</ele>
        <time>2019-04-29T14:53:53.000Z</time>
      </trkpt>
      <trkpt lat="40.87953208945691585540771484375" lon="-7.51138695515692234039306640625">
        <ele>595.20001220703125</ele>
        <time>2019-04-29T14:54:04.000Z</time>
      </trkpt>
      <trkpt lat="40.88002704083919525146484375" lon="-7.51171586103737354278564453125">
        <ele>594</ele>
        <time>2019-04-29T14:54:16.000Z</time>
      </trkpt>
      <trkpt lat="40.88053976185619831085205078125" lon="-7.512042336165904998779296875">
        <ele>597.5999755859375</ele>
        <time>2019-04-29T14:54:29.000Z</time>
      </trkpt>
      <trkpt lat="40.88105038739740848541259765625" lon="-7.5123593397438526153564453125">
        <ele>598.79998779296875</ele>
        <time>2019-04-29T14:54:42.000Z</time>
      </trkpt>
      <trkpt lat="40.88151390664279460906982421875" lon="-7.5127278082072734832763671875">
        <ele>602</ele>
        <time>2019-04-29T14:54:55.000Z</time>
      </trkpt>
      <trkpt lat="40.88194071315228939056396484375" lon="-7.5132313929498195648193359375">
        <ele>608.4000244140625</ele>
        <time>2019-04-29T14:55:09.000Z</time>
      </trkpt>
      <trkpt lat="40.88239199481904506683349609375" lon="-7.5135596282780170440673828125">
        <ele>611</ele>
        <time>2019-04-29T14:55:22.000Z</time>
      </trkpt>
      <trkpt lat="40.8825270272791385650634765625" lon="-7.513575218617916107177734375">
        <ele>611.5999755859375</ele>
        <time>2019-04-29T14:55:25.000Z</time>
      </trkpt>
      <trkpt lat="40.8830892853438854217529296875" lon="-7.51350103877484798431396484375">
        <ele>610.4000244140625</ele>
        <time>2019-04-29T14:55:43.000Z</time>
      </trkpt>
      <trkpt lat="40.88358339853584766387939453125" lon="-7.513563819229602813720703125">
        <ele>614.20001220703125</ele>
        <time>2019-04-29T14:56:01.000Z</time>
      </trkpt>
      <trkpt lat="40.88360309600830078125" lon="-7.51359944231808185577392578125">
        <ele>614.79998779296875</ele>
        <time>2019-04-29T14:58:19.000Z</time>
      </trkpt>
      <trkpt lat="40.8836193569004535675048828125" lon="-7.513612769544124603271484375">
        <ele>615</ele>
        <time>2019-04-29T14:58:20.000Z</time>
      </trkpt>
      <trkpt lat="40.883940048515796661376953125" lon="-7.51377646811306476593017578125">
        <ele>614.4000244140625</ele>
        <time>2019-04-29T14:58:30.000Z</time>
      </trkpt>
      <trkpt lat="40.8842079341411590576171875" lon="-7.514005713164806365966796875">
        <ele>616</ele>
        <time>2019-04-29T14:58:37.000Z</time>
      </trkpt>
      <trkpt lat="40.88431631214916706085205078125" lon="-7.51412917859852313995361328125">
        <ele>614.79998779296875</ele>
        <time>2019-04-29T14:58:40.000Z</time>
      </trkpt>
      <trkpt lat="40.88448797352612018585205078125" lon="-7.51429446972906589508056640625">
        <ele>614.20001220703125</ele>
        <time>2019-04-29T14:58:44.000Z</time>
      </trkpt>
      <trkpt lat="40.8848903886973857879638671875" lon="-7.51482454128563404083251953125">
        <ele>605</ele>
        <time>2019-04-29T14:58:53.000Z</time>
      </trkpt>
      <trkpt lat="40.8853054605424404144287109375" lon="-7.51529426313936710357666015625">
        <ele>599</ele>
        <time>2019-04-29T14:59:00.000Z</time>
      </trkpt>
      <trkpt lat="40.88574760593473911285400390625" lon="-7.51571620814502239227294921875">
        <ele>599</ele>
        <time>2019-04-29T14:59:06.000Z</time>
      </trkpt>
      <trkpt lat="40.8862328343093395233154296875" lon="-7.51618039794266223907470703125">
        <ele>594.5999755859375</ele>
        <time>2019-04-29T14:59:12.000Z</time>
      </trkpt>
      <trkpt lat="40.88640759699046611785888671875" lon="-7.51632423140108585357666015625">
        <ele>590.20001220703125</ele>
        <time>2019-04-29T14:59:14.000Z</time>
      </trkpt>
      <trkpt lat="40.8869473077356815338134765625" lon="-7.51646420918405055999755859375">
        <ele>582.79998779296875</ele>
        <time>2019-04-29T14:59:19.000Z</time>
      </trkpt>
      <trkpt lat="40.88705786503851413726806640625" lon="-7.516458928585052490234375">
        <ele>582.4000244140625</ele>
        <time>2019-04-29T14:59:20.000Z</time>
      </trkpt>
      <trkpt lat="40.887648202478885650634765625" lon="-7.5162958167493343353271484375">
        <ele>579.20001220703125</ele>
        <time>2019-04-29T14:59:25.000Z</time>
      </trkpt>
      <trkpt lat="40.8882473409175872802734375" lon="-7.5160872749984264373779296875">
        <ele>576.5999755859375</ele>
        <time>2019-04-29T14:59:30.000Z</time>
      </trkpt>
      <trkpt lat="40.88885477744042873382568359375" lon="-7.5158970057964324951171875">
        <ele>572.5999755859375</ele>
        <time>2019-04-29T14:59:35.000Z</time>
      </trkpt>
      <trkpt lat="40.88947017677128314971923828125" lon="-7.5158706866204738616943359375">
        <ele>569.4000244140625</ele>
        <time>2019-04-29T14:59:40.000Z</time>
      </trkpt>
      <trkpt lat="40.88959020562469959259033203125" lon="-7.51590169966220855712890625">
        <ele>568.4000244140625</ele>
        <time>2019-04-29T14:59:41.000Z</time>
      </trkpt>
      <trkpt lat="40.89018112979829311370849609375" lon="-7.51609758473932743072509765625">
        <ele>566</ele>
        <time>2019-04-29T14:59:46.000Z</time>
      </trkpt>
      <trkpt lat="40.89075428433716297149658203125" lon="-7.51628584228456020355224609375">
        <ele>562.79998779296875</ele>
        <time>2019-04-29T14:59:51.000Z</time>
      </trkpt>
      <trkpt lat="40.891312099993228912353515625" lon="-7.5164621137082576751708984375">
        <ele>561.5999755859375</ele>
        <time>2019-04-29T14:59:56.000Z</time>
      </trkpt>
      <trkpt lat="40.8918963186442852020263671875" lon="-7.51663922332227230072021484375">
        <ele>562</ele>
        <time>2019-04-29T15:00:02.000Z</time>
      </trkpt>
      <trkpt lat="40.892448015511035919189453125" lon="-7.51680283807218074798583984375">
        <ele>562.5999755859375</ele>
        <time>2019-04-29T15:00:09.000Z</time>
      </trkpt>
      <trkpt lat="40.89302091859281063079833984375" lon="-7.51695857383310794830322265625">
        <ele>563.4000244140625</ele>
        <time>2019-04-29T15:00:18.000Z</time>
      </trkpt>
      <trkpt lat="40.893561802804470062255859375" lon="-7.51688850112259387969970703125">
        <ele>563.5999755859375</ele>
        <time>2019-04-29T15:00:27.000Z</time>
      </trkpt>
      <trkpt lat="40.89385257102549076080322265625" lon="-7.51679009757936000823974609375">
        <ele>563.79998779296875</ele>
        <time>2019-04-29T15:00:32.000Z</time>
      </trkpt>
      <trkpt lat="40.89438649825751781463623046875" lon="-7.516603767871856689453125">
        <ele>564.4000244140625</ele>
        <time>2019-04-29T15:00:42.000Z</time>
      </trkpt>
      <trkpt lat="40.89447886683046817779541015625" lon="-7.51659127883613109588623046875">
        <ele>564.5999755859375</ele>
        <time>2019-04-29T15:00:44.000Z</time>
      </trkpt>
      <trkpt lat="40.89456687681376934051513671875" lon="-7.51659370958805084228515625">
        <ele>565</ele>
        <time>2019-04-29T15:00:46.000Z</time>
      </trkpt>
      <trkpt lat="40.8949097804725170135498046875" lon="-7.51684407703578472137451171875">
        <ele>569.79998779296875</ele>
        <time>2019-04-29T15:00:57.000Z</time>
      </trkpt>
      <trkpt lat="40.895466171205043792724609375" lon="-7.5168651156127452850341796875">
        <ele>575.4000244140625</ele>
        <time>2019-04-29T15:01:21.000Z</time>
      </trkpt>
      <trkpt lat="40.89601543731987476348876953125" lon="-7.51694968901574611663818359375">
        <ele>576</ele>
        <time>2019-04-29T15:01:48.000Z</time>
      </trkpt>
      <trkpt lat="40.89603220112621784210205078125" lon="-7.51695823855698108673095703125">
        <ele>576</ele>
        <time>2019-04-29T15:01:49.000Z</time>
      </trkpt>
      <trkpt lat="40.89646018110215663909912109375" lon="-7.51740918494760990142822265625">
        <ele>581.4000244140625</ele>
        <time>2019-04-29T15:02:17.000Z</time>
      </trkpt>
      <trkpt lat="40.896490104496479034423828125" lon="-7.51809968613088130950927734375">
        <ele>589.20001220703125</ele>
        <time>2019-04-29T15:02:45.000Z</time>
      </trkpt>
      <trkpt lat="40.896009989082813262939453125" lon="-7.518400512635707855224609375">
        <ele>592.79998779296875</ele>
        <time>2019-04-29T15:03:11.000Z</time>
      </trkpt>
      <trkpt lat="40.89546172879636287689208984375" lon="-7.51834376715123653411865234375">
        <ele>592.20001220703125</ele>
        <time>2019-04-29T15:03:40.000Z</time>
      </trkpt>
      <trkpt lat="40.8951350860297679901123046875" lon="-7.51843236386775970458984375">
        <ele>594</ele>
        <time>2019-04-29T15:03:56.000Z</time>
      </trkpt>
      <trkpt lat="40.8949892409145832061767578125" lon="-7.51849145628511905670166015625">
        <ele>595.20001220703125</ele>
        <time>2019-04-29T15:04:06.000Z</time>
      </trkpt>
      <trkpt lat="40.89495361782610416412353515625" lon="-7.5185046158730983734130859375">
        <ele>595.4000244140625</ele>
        <time>2019-04-29T15:04:24.000Z</time>
      </trkpt>
      <trkpt lat="40.894587077200412750244140625" lon="-7.51899990253150463104248046875">
        <ele>601.79998779296875</ele>
        <time>2019-04-29T15:04:51.000Z</time>
      </trkpt>
      <trkpt lat="40.8944665454328060150146484375" lon="-7.519317828118801116943359375">
        <ele>605</ele>
        <time>2019-04-29T15:05:06.000Z</time>
      </trkpt>
      <trkpt lat="40.8944159187376499176025390625" lon="-7.5194812752306461334228515625">
        <ele>606.5999755859375</ele>
        <time>2019-04-29T15:05:15.000Z</time>
      </trkpt>
      <trkpt lat="40.89418047107756137847900390625" lon="-7.52012542448937892913818359375">
        <ele>612.20001220703125</ele>
        <time>2019-04-29T15:05:45.000Z</time>
      </trkpt>
      <trkpt lat="40.8941560797393321990966796875" lon="-7.52019499428570270538330078125">
        <ele>612.79998779296875</ele>
        <time>2019-04-29T15:05:50.000Z</time>
      </trkpt>
      <trkpt lat="40.894143842160701751708984375" lon="-7.5202567689120769500732421875">
        <ele>613.4000244140625</ele>
        <time>2019-04-29T15:06:04.000Z</time>
      </trkpt>
      <trkpt lat="40.8939073048532009124755859375" lon="-7.52090930007398128509521484375">
        <ele>618.5999755859375</ele>
        <time>2019-04-29T15:06:48.000Z</time>
      </trkpt>
      <trkpt lat="40.89354109950363636016845703125" lon="-7.5214392878115177154541015625">
        <ele>622.20001220703125</ele>
        <time>2019-04-29T15:07:33.000Z</time>
      </trkpt>
      <trkpt lat="40.89310012757778167724609375" lon="-7.52179979346692562103271484375">
        <ele>625</ele>
        <time>2019-04-29T15:08:18.000Z</time>
      </trkpt>
      <trkpt lat="40.893092416226863861083984375" lon="-7.5218020565807819366455078125">
        <ele>625</ele>
        <time>2019-04-29T15:08:24.000Z</time>
      </trkpt>
      <trkpt lat="40.89260919950902462005615234375" lon="-7.52216138876974582672119140625">
        <ele>626.79998779296875</ele>
        <time>2019-04-29T15:08:48.000Z</time>
      </trkpt>
      <trkpt lat="40.89221499860286712646484375" lon="-7.522661872208118438720703125">
        <ele>631.79998779296875</ele>
        <time>2019-04-29T15:09:12.000Z</time>
      </trkpt>
      <trkpt lat="40.8919620327651500701904296875" lon="-7.52322069369256496429443359375">
        <ele>640</ele>
        <time>2019-04-29T15:09:35.000Z</time>
      </trkpt>
      <trkpt lat="40.891953147947788238525390625" lon="-7.52325288020074367523193359375">
        <ele>640.4000244140625</ele>
        <time>2019-04-29T15:09:39.000Z</time>
      </trkpt>
      <trkpt lat="40.89192397892475128173828125" lon="-7.52337475307285785675048828125">
        <ele>642.4000244140625</ele>
        <time>2019-04-29T15:09:46.000Z</time>
      </trkpt>
      <trkpt lat="40.8916730247437953948974609375" lon="-7.523965425789356231689453125">
        <ele>650.79998779296875</ele>
        <time>2019-04-29T15:10:26.000Z</time>
      </trkpt>
      <trkpt lat="40.891230963170528411865234375" lon="-7.52432190813124179840087890625">
        <ele>650.4000244140625</ele>
        <time>2019-04-29T15:11:09.000Z</time>
      </trkpt>
      <trkpt lat="40.891267172992229461669921875" lon="-7.52503328025341033935546875">
        <ele>659.5999755859375</ele>
        <time>2019-04-29T15:11:52.000Z</time>
      </trkpt>
      <trkpt lat="40.8914068154990673065185546875" lon="-7.52571699209511280059814453125">
        <ele>669</ele>
        <time>2019-04-29T15:12:35.000Z</time>
      </trkpt>
      <trkpt lat="40.89141461066901683807373046875" lon="-7.52574431709945201873779296875">
        <ele>669.4000244140625</ele>
        <time>2019-04-29T15:12:37.000Z</time>
      </trkpt>
      <trkpt lat="40.89144445024430751800537109375" lon="-7.52588831819593906402587890625">
        <ele>671.79998779296875</ele>
        <time>2019-04-29T15:12:48.000Z</time>
      </trkpt>
      <trkpt lat="40.89143539778888225555419921875" lon="-7.525933496654033660888671875">
        <ele>672</ele>
        <time>2019-04-29T15:12:55.000Z</time>
      </trkpt>
      <trkpt lat="40.89111235924065113067626953125" lon="-7.52642995677888393402099609375">
        <ele>673.4000244140625</ele>
        <time>2019-04-29T15:13:19.000Z</time>
      </trkpt>
      <trkpt lat="40.8905766718089580535888671875" lon="-7.5266011990606784820556640625">
        <ele>668.79998779296875</ele>
        <time>2019-04-29T15:13:45.000Z</time>
      </trkpt>
      <trkpt lat="40.89013871736824512481689453125" lon="-7.527044601738452911376953125">
        <ele>670.79998779296875</ele>
        <time>2019-04-29T15:14:11.000Z</time>
      </trkpt>
      <trkpt lat="40.88961551897227764129638671875" lon="-7.52726378850638866424560546875">
        <ele>669.20001220703125</ele>
        <time>2019-04-29T15:14:36.000Z</time>
      </trkpt>
      <trkpt lat="40.8891405165195465087890625" lon="-7.527574338018894195556640625">
        <ele>671.5999755859375</ele>
        <time>2019-04-29T15:15:03.000Z</time>
      </trkpt>
      <trkpt lat="40.889063067734241485595703125" lon="-7.5282668508589267730712890625">
        <ele>677.5999755859375</ele>
        <time>2019-04-29T15:15:29.000Z</time>
      </trkpt>
      <trkpt lat="40.88942843489348888397216796875" lon="-7.52878493629395961761474609375">
        <ele>679.5999755859375</ele>
        <time>2019-04-29T15:15:56.000Z</time>
      </trkpt>
      <trkpt lat="40.8898957259953022003173828125" lon="-7.5291254930198192596435546875">
        <ele>685</ele>
        <time>2019-04-29T15:16:24.000Z</time>
      </trkpt>
      <trkpt lat="40.8899252302944660186767578125" lon="-7.5291506387293338775634765625">
        <ele>685.20001220703125</ele>
        <time>2019-04-29T15:16:27.000Z</time>
      </trkpt>
      <trkpt lat="40.8900338597595691680908203125" lon="-7.52919338643550872802734375">
        <ele>685.4000244140625</ele>
        <time>2019-04-29T15:16:33.000Z</time>
      </trkpt>
      <trkpt lat="40.890166796743869781494140625" lon="-7.529283575713634490966796875">
        <ele>685.79998779296875</ele>
        <time>2019-04-29T15:16:41.000Z</time>
      </trkpt>
      <trkpt lat="40.8902185969054698944091796875" lon="-7.52930142916738986968994140625">
        <ele>685.79998779296875</ele>
        <time>2019-04-29T15:16:44.000Z</time>
      </trkpt>
      <trkpt lat="40.89032404124736785888671875" lon="-7.52936211414635181427001953125">
        <ele>686.20001220703125</ele>
        <time>2019-04-29T15:16:49.000Z</time>
      </trkpt>
      <trkpt lat="40.89079284109175205230712890625" lon="-7.5297854840755462646484375">
        <ele>690.20001220703125</ele>
        <time>2019-04-29T15:17:10.000Z</time>
      </trkpt>
      <trkpt lat="40.89119081385433673858642578125" lon="-7.53026048652827739715576171875">
        <ele>692.20001220703125</ele>
        <time>2019-04-29T15:17:34.000Z</time>
      </trkpt>
      <trkpt lat="40.891281254589557647705078125" lon="-7.53050724975764751434326171875">
        <ele>693.79998779296875</ele>
        <time>2019-04-29T15:17:46.000Z</time>
      </trkpt>
      <trkpt lat="40.891280584037303924560546875" lon="-7.5305118598043918609619140625">
        <ele>694</ele>
        <time>2019-04-29T15:17:48.000Z</time>
      </trkpt>
      <trkpt lat="40.89126390404999256134033203125" lon="-7.53055670298635959625244140625">
        <ele>694.20001220703125</ele>
        <time>2019-04-29T15:18:31.000Z</time>
      </trkpt>
      <trkpt lat="40.8912613056600093841552734375" lon="-7.53062509931623935699462890625">
        <ele>694.5999755859375</ele>
        <time>2019-04-29T15:18:34.000Z</time>
      </trkpt>
      <trkpt lat="40.89103239588439464569091796875" lon="-7.5312642194330692291259765625">
        <ele>699.20001220703125</ele>
        <time>2019-04-29T15:19:01.000Z</time>
      </trkpt>
      <trkpt lat="40.89086777530610561370849609375" lon="-7.53168658353388309478759765625">
        <ele>702.5999755859375</ele>
        <time>2019-04-29T15:19:20.000Z</time>
      </trkpt>
      <trkpt lat="40.8908656798303127288818359375" lon="-7.53168691881000995635986328125">
        <ele>702.5999755859375</ele>
        <time>2019-04-29T15:19:22.000Z</time>
      </trkpt>
      <trkpt lat="40.89085000567138195037841796875" lon="-7.53169882111251354217529296875">
        <ele>702.5999755859375</ele>
        <time>2019-04-29T15:22:37.000Z</time>
      </trkpt>
      <trkpt lat="40.89080004952847957611083984375" lon="-7.53181801177561283111572265625">
        <ele>703.5999755859375</ele>
        <time>2019-04-29T15:22:42.000Z</time>
      </trkpt>
      <trkpt lat="40.890531577169895172119140625" lon="-7.53246727399528026580810546875">
        <ele>709.4000244140625</ele>
        <time>2019-04-29T15:23:04.000Z</time>
      </trkpt>
      <trkpt lat="40.890209712088108062744140625" lon="-7.5330819189548492431640625">
        <ele>708.4000244140625</ele>
        <time>2019-04-29T15:23:24.000Z</time>
      </trkpt>
      <trkpt lat="40.88979388587176799774169921875" lon="-7.53356765024363994598388671875">
        <ele>707.5999755859375</ele>
        <time>2019-04-29T15:23:41.000Z</time>
      </trkpt>
      <trkpt lat="40.8893006108701229095458984375" lon="-7.53390560857951641082763671875">
        <ele>710</ele>
        <time>2019-04-29T15:23:55.000Z</time>
      </trkpt>
      <trkpt lat="40.888802222907543182373046875" lon="-7.53419897519052028656005859375">
        <ele>712.79998779296875</ele>
        <time>2019-04-29T15:24:10.000Z</time>
      </trkpt>
      <trkpt lat="40.88849234394729137420654296875" lon="-7.53445847891271114349365234375">
        <ele>717</ele>
        <time>2019-04-29T15:24:28.000Z</time>
      </trkpt>
      <trkpt lat="40.88848161511123180389404296875" lon="-7.5344724766910076141357421875">
        <ele>717.20001220703125</ele>
        <time>2019-04-29T15:25:06.000Z</time>
      </trkpt>
      <trkpt lat="40.8885083533823490142822265625" lon="-7.53515350632369518280029296875">
        <ele>718.79998779296875</ele>
        <time>2019-04-29T15:25:25.000Z</time>
      </trkpt>
      <trkpt lat="40.88870591484010219573974609375" lon="-7.53566564060747623443603515625">
        <ele>719.5999755859375</ele>
        <time>2019-04-29T15:25:48.000Z</time>
      </trkpt>
      <trkpt lat="40.8887748979032039642333984375" lon="-7.53586529754102230072021484375">
        <ele>719.79998779296875</ele>
        <time>2019-04-29T15:25:58.000Z</time>
      </trkpt>
      <trkpt lat="40.88885813020169734954833984375" lon="-7.5363081134855747222900390625">
        <ele>723.4000244140625</ele>
        <time>2019-04-29T15:26:18.000Z</time>
      </trkpt>
      <trkpt lat="40.88896323926746845245361328125" lon="-7.53686442039906978607177734375">
        <ele>727.20001220703125</ele>
        <time>2019-04-29T15:26:42.000Z</time>
      </trkpt>
      <trkpt lat="40.8890005387365818023681640625" lon="-7.53708804957568645477294921875">
        <ele>728.5999755859375</ele>
        <time>2019-04-29T15:26:53.000Z</time>
      </trkpt>
      <trkpt lat="40.88900749571621417999267578125" lon="-7.53722450695931911468505859375">
        <ele>729.5999755859375</ele>
        <time>2019-04-29T15:26:59.000Z</time>
      </trkpt>
      <trkpt lat="40.88889710605144500732421875" lon="-7.53790914081037044525146484375">
        <ele>738.4000244140625</ele>
        <time>2019-04-29T15:27:28.000Z</time>
      </trkpt>
      <trkpt lat="40.888818316161632537841796875" lon="-7.53814467228949069976806640625">
        <ele>741.79998779296875</ele>
        <time>2019-04-29T15:27:40.000Z</time>
      </trkpt>
      <trkpt lat="40.888818316161632537841796875" lon="-7.53813377581536769866943359375">
        <ele>741.79998779296875</ele>
        <time>2019-04-29T15:27:41.000Z</time>
      </trkpt>
      <trkpt lat="40.88879459537565708160400390625" lon="-7.53817342221736907958984375">
        <ele>742.4000244140625</ele>
        <time>2019-04-29T15:28:47.000Z</time>
      </trkpt>
      <trkpt lat="40.88870122097432613372802734375" lon="-7.53847760148346424102783203125">
        <ele>745.20001220703125</ele>
        <time>2019-04-29T15:29:00.000Z</time>
      </trkpt>
      <trkpt lat="40.888397209346294403076171875" lon="-7.53907875157892704010009765625">
        <ele>749.79998779296875</ele>
        <time>2019-04-29T15:29:30.000Z</time>
      </trkpt>
      <trkpt lat="40.88794114999473094940185546875" lon="-7.53947068937122821807861328125">
        <ele>754.5999755859375</ele>
        <time>2019-04-29T15:30:01.000Z</time>
      </trkpt>
      <trkpt lat="40.88748886249959468841552734375" lon="-7.53986899740993976593017578125">
        <ele>757.79998779296875</ele>
        <time>2019-04-29T15:30:31.000Z</time>
      </trkpt>
      <trkpt lat="40.88702467270195484161376953125" lon="-7.5402821414172649383544921875">
        <ele>759.20001220703125</ele>
        <time>2019-04-29T15:30:56.000Z</time>
      </trkpt>
      <trkpt lat="40.88655763305723667144775390625" lon="-7.540676929056644439697265625">
        <ele>760</ele>
        <time>2019-04-29T15:31:19.000Z</time>
      </trkpt>
      <trkpt lat="40.8864816091954708099365234375" lon="-7.540748678147792816162109375">
        <ele>760</ele>
        <time>2019-04-29T15:31:23.000Z</time>
      </trkpt>
      <trkpt lat="40.886009037494659423828125" lon="-7.5411330722272396087646484375">
        <ele>764</ele>
        <time>2019-04-29T15:31:46.000Z</time>
      </trkpt>
      <trkpt lat="40.885555408895015716552734375" lon="-7.5415454618632793426513671875">
        <ele>768</ele>
        <time>2019-04-29T15:32:06.000Z</time>
      </trkpt>
      <trkpt lat="40.88525776751339435577392578125" lon="-7.54214309155941009521484375">
        <ele>770.20001220703125</ele>
        <time>2019-04-29T15:32:31.000Z</time>
      </trkpt>
      <trkpt lat="40.88511250913143157958984375" lon="-7.54246671684086322784423828125">
        <ele>771.5999755859375</ele>
        <time>2019-04-29T15:32:46.000Z</time>
      </trkpt>
      <trkpt lat="40.885053835809230804443359375" lon="-7.542601414024829864501953125">
        <ele>771.5999755859375</ele>
        <time>2019-04-29T15:32:53.000Z</time>
      </trkpt>
      <trkpt lat="40.88504620827734470367431640625" lon="-7.54261038266122341156005859375">
        <ele>771.5999755859375</ele>
        <time>2019-04-29T15:32:56.000Z</time>
      </trkpt>
      <trkpt lat="40.88500664569437503814697265625" lon="-7.54262857139110565185546875">
        <ele>772</ele>
        <time>2019-04-29T15:33:27.000Z</time>
      </trkpt>
      <trkpt lat="40.88452669791877269744873046875" lon="-7.5430248677730560302734375">
        <ele>775</ele>
        <time>2019-04-29T15:33:45.000Z</time>
      </trkpt>
      <trkpt lat="40.88404498994350433349609375" lon="-7.54340616054832935333251953125">
        <ele>777.5999755859375</ele>
        <time>2019-04-29T15:34:00.000Z</time>
      </trkpt>
      <trkpt lat="40.883522294461727142333984375" lon="-7.54369877278804779052734375">
        <ele>780.5999755859375</ele>
        <time>2019-04-29T15:34:16.000Z</time>
      </trkpt>
      <trkpt lat="40.8830125071108341217041015625" lon="-7.54399540834128856658935546875">
        <ele>784</ele>
        <time>2019-04-29T15:34:37.000Z</time>
      </trkpt>
      <trkpt lat="40.882617719471454620361328125" lon="-7.5445005856454372406005859375">
        <ele>786.79998779296875</ele>
        <time>2019-04-29T15:35:02.000Z</time>
      </trkpt>
      <trkpt lat="40.88222913444042205810546875" lon="-7.5449936091899871826171875">
        <ele>791</ele>
        <time>2019-04-29T15:35:28.000Z</time>
      </trkpt>
      <trkpt lat="40.88196233846247196197509765625" lon="-7.54515781067311763763427734375">
        <ele>792.79998779296875</ele>
        <time>2019-04-29T15:35:43.000Z</time>
      </trkpt>
      <trkpt lat="40.88190416805446147918701171875" lon="-7.5451627559959888458251953125">
        <ele>793.4000244140625</ele>
        <time>2019-04-29T15:36:22.000Z</time>
      </trkpt>
      <trkpt lat="40.88135967962443828582763671875" lon="-7.54532687366008758544921875">
        <ele>797.5999755859375</ele>
        <time>2019-04-29T15:36:45.000Z</time>
      </trkpt>
      <trkpt lat="40.8808275125920772552490234375" lon="-7.54549258388578891754150390625">
        <ele>800</ele>
        <time>2019-04-29T15:36:58.000Z</time>
      </trkpt>
      <trkpt lat="40.8802790008485317230224609375" lon="-7.54565318115055561065673828125">
        <ele>804</ele>
        <time>2019-04-29T15:37:14.000Z</time>
      </trkpt>
      <trkpt lat="40.87975236587226390838623046875" lon="-7.54589675925672054290771484375">
        <ele>808.5999755859375</ele>
        <time>2019-04-29T15:37:35.000Z</time>
      </trkpt>
      <trkpt lat="40.8794121444225311279296875" lon="-7.54608317278325557708740234375">
        <ele>811</ele>
        <time>2019-04-29T15:37:53.000Z</time>
      </trkpt>
      <trkpt lat="40.87938372977077960968017578125" lon="-7.54609725438058376312255859375">
        <ele>811.20001220703125</ele>
        <time>2019-04-29T15:38:18.000Z</time>
      </trkpt>
      <trkpt lat="40.8788798935711383819580078125" lon="-7.54639531485736370086669921875">
        <ele>814.79998779296875</ele>
        <time>2019-04-29T15:38:37.000Z</time>
      </trkpt>
      <trkpt lat="40.87836348451673984527587890625" lon="-7.5466592609882354736328125">
        <ele>815.5999755859375</ele>
        <time>2019-04-29T15:38:53.000Z</time>
      </trkpt>
      <trkpt lat="40.87784707546234130859375" lon="-7.54695271141827106475830078125">
        <ele>818.5999755859375</ele>
        <time>2019-04-29T15:39:12.000Z</time>
      </trkpt>
      <trkpt lat="40.8774090372025966644287109375" lon="-7.54735789261758327484130859375">
        <ele>821.79998779296875</ele>
        <time>2019-04-29T15:39:36.000Z</time>
      </trkpt>
      <trkpt lat="40.8772336877882480621337890625" lon="-7.5476635806262493133544921875">
        <ele>824</ele>
        <time>2019-04-29T15:39:51.000Z</time>
      </trkpt>
      <trkpt lat="40.87723410688340663909912109375" lon="-7.5476632453501224517822265625">
        <ele>824</ele>
        <time>2019-04-29T15:39:52.000Z</time>
      </trkpt>
      <trkpt lat="40.8772180974483489990234375" lon="-7.5476800091564655303955078125">
        <ele>824.4000244140625</ele>
        <time>2019-04-29T15:39:55.000Z</time>
      </trkpt>
      <trkpt lat="40.8770868368446826934814453125" lon="-7.5483364798128604888916015625">
        <ele>830.20001220703125</ele>
        <time>2019-04-29T15:40:33.000Z</time>
      </trkpt>
      <trkpt lat="40.87741984985768795013427734375" lon="-7.54890049807727336883544921875">
        <ele>832.4000244140625</ele>
        <time>2019-04-29T15:41:12.000Z</time>
      </trkpt>
      <trkpt lat="40.87748908437788486480712890625" lon="-7.54961832426488399505615234375">
        <ele>837.79998779296875</ele>
        <time>2019-04-29T15:41:51.000Z</time>
      </trkpt>
      <trkpt lat="40.8773986436426639556884765625" lon="-7.55032760091125965118408203125">
        <ele>844.79998779296875</ele>
        <time>2019-04-29T15:42:33.000Z</time>
      </trkpt>
      <trkpt lat="40.87709228508174419403076171875" lon="-7.55091684870421886444091796875">
        <ele>851.20001220703125</ele>
        <time>2019-04-29T15:43:16.000Z</time>
      </trkpt>
      <trkpt lat="40.8768694102764129638671875" lon="-7.5513174198567867279052734375">
        <ele>852</ele>
        <time>2019-04-29T15:43:47.000Z</time>
      </trkpt>
      <trkpt lat="40.87685507722198963165283203125" lon="-7.551338374614715576171875">
        <ele>852.20001220703125</ele>
        <time>2019-04-29T15:44:00.000Z</time>
      </trkpt>
      <trkpt lat="40.87682624347507953643798828125" lon="-7.55138539709150791168212890625">
        <ele>852.20001220703125</ele>
        <time>2019-04-29T15:44:05.000Z</time>
      </trkpt>
      <trkpt lat="40.876797325909137725830078125" lon="-7.5514099560678005218505859375">
        <ele>852.4000244140625</ele>
        <time>2019-04-29T15:44:11.000Z</time>
      </trkpt>
      <trkpt lat="40.87678450159728527069091796875" lon="-7.55143065936863422393798828125">
        <ele>852.5999755859375</ele>
        <time>2019-04-29T15:44:12.000Z</time>
      </trkpt>
      <trkpt lat="40.87643153965473175048828125" lon="-7.55200163461267948150634765625">
        <ele>853.5999755859375</ele>
        <time>2019-04-29T15:44:34.000Z</time>
      </trkpt>
      <trkpt lat="40.87606801651418209075927734375" lon="-7.55255618132650852203369140625">
        <ele>855.5999755859375</ele>
        <time>2019-04-29T15:44:51.000Z</time>
      </trkpt>
      <trkpt lat="40.875635258853435516357421875" lon="-7.5529824011027812957763671875">
        <ele>861.4000244140625</ele>
        <time>2019-04-29T15:45:11.000Z</time>
      </trkpt>
      <trkpt lat="40.87515908293426036834716796875" lon="-7.55333687178790569305419921875">
        <ele>866.79998779296875</ele>
        <time>2019-04-29T15:45:35.000Z</time>
      </trkpt>
      <trkpt lat="40.87468801997601985931396484375" lon="-7.55369276739656925201416015625">
        <ele>870.5999755859375</ele>
        <time>2019-04-29T15:45:59.000Z</time>
      </trkpt>
      <trkpt lat="40.8741528354585170745849609375" lon="-7.5537914223968982696533203125">
        <ele>874.79998779296875</ele>
        <time>2019-04-29T15:46:22.000Z</time>
      </trkpt>
      <trkpt lat="40.87366241030395030975341796875" lon="-7.554032988846302032470703125">
        <ele>877.79998779296875</ele>
        <time>2019-04-29T15:46:42.000Z</time>
      </trkpt>
      <trkpt lat="40.87343551218509674072265625" lon="-7.55470714531838893890380859375">
        <ele>878.5999755859375</ele>
        <time>2019-04-29T15:47:03.000Z</time>
      </trkpt>
      <trkpt lat="40.87322252802550792694091796875" lon="-7.55540066398680210113525390625">
        <ele>880.5999755859375</ele>
        <time>2019-04-29T15:47:21.000Z</time>
      </trkpt>
      <trkpt lat="40.873177684843540191650390625" lon="-7.5555606745183467864990234375">
        <ele>881.20001220703125</ele>
        <time>2019-04-29T15:47:27.000Z</time>
      </trkpt>
      <trkpt lat="40.8731822110712528228759765625" lon="-7.5555771030485630035400390625">
        <ele>881.20001220703125</ele>
        <time>2019-04-29T15:47:30.000Z</time>
      </trkpt>
      <trkpt lat="40.87315312586724758148193359375" lon="-7.55561792291700839996337890625">
        <ele>881.5999755859375</ele>
        <time>2019-04-29T15:48:29.000Z</time>
      </trkpt>
      <trkpt lat="40.8731357753276824951171875" lon="-7.55603316240012645721435546875">
        <ele>883</ele>
        <time>2019-04-29T15:48:38.000Z</time>
      </trkpt>
      <trkpt lat="40.8732519485056400299072265625" lon="-7.5567505694925785064697265625">
        <ele>884.5999755859375</ele>
        <time>2019-04-29T15:48:53.000Z</time>
      </trkpt>
      <trkpt lat="40.87328723631799221038818359375" lon="-7.55746462382376194000244140625">
        <ele>887.5999755859375</ele>
        <time>2019-04-29T15:49:11.000Z</time>
      </trkpt>
      <trkpt lat="40.87325169704854488372802734375" lon="-7.5582083500921726226806640625">
        <ele>889.79998779296875</ele>
        <time>2019-04-29T15:49:30.000Z</time>
      </trkpt>
      <trkpt lat="40.873075425624847412109375" lon="-7.55887630395591259002685546875">
        <ele>894</ele>
        <time>2019-04-29T15:49:53.000Z</time>
      </trkpt>
      <trkpt lat="40.87283528409898281097412109375" lon="-7.559514753520488739013671875">
        <ele>898</ele>
        <time>2019-04-29T15:50:13.000Z</time>
      </trkpt>
      <trkpt lat="40.87258935905992984771728515625" lon="-7.56015571765601634979248046875">
        <ele>901</ele>
        <time>2019-04-29T15:50:33.000Z</time>
      </trkpt>
      <trkpt lat="40.87234318256378173828125" lon="-7.56080313585698604583740234375">
        <ele>905.20001220703125</ele>
        <time>2019-04-29T15:50:57.000Z</time>
      </trkpt>
      <trkpt lat="40.8723346330225467681884765625" lon="-7.560823671519756317138671875">
        <ele>905.4000244140625</ele>
        <time>2019-04-29T15:50:58.000Z</time>
      </trkpt>
      <trkpt lat="40.8720885403454303741455078125" lon="-7.56147033534944057464599609375">
        <ele>906.5999755859375</ele>
        <time>2019-04-29T15:51:20.000Z</time>
      </trkpt>
      <trkpt lat="40.87204503826797008514404296875" lon="-7.56158952601253986358642578125">
        <ele>906.79998779296875</ele>
        <time>2019-04-29T15:51:25.000Z</time>
      </trkpt>
      <trkpt lat="40.87198167107999324798583984375" lon="-7.56175381131470203399658203125">
        <ele>907</ele>
        <time>2019-04-29T15:51:31.000Z</time>
      </trkpt>
      <trkpt lat="40.8717365004122257232666015625" lon="-7.56240005604922771453857421875">
        <ele>908.79998779296875</ele>
        <time>2019-04-29T15:51:48.000Z</time>
      </trkpt>
      <trkpt lat="40.8714862167835235595703125" lon="-7.5630571134388446807861328125">
        <ele>910.4000244140625</ele>
        <time>2019-04-29T15:52:02.000Z</time>
      </trkpt>
      <trkpt lat="40.87124339304864406585693359375" lon="-7.56371249444782733917236328125">
        <ele>913</ele>
        <time>2019-04-29T15:52:17.000Z</time>
      </trkpt>
      <trkpt lat="40.871142558753490447998046875" lon="-7.56442646495997905731201171875">
        <ele>915.4000244140625</ele>
        <time>2019-04-29T15:52:31.000Z</time>
      </trkpt>
      <trkpt lat="40.871170721948146820068359375" lon="-7.56517865695059299468994140625">
        <ele>918.79998779296875</ele>
        <time>2019-04-29T15:52:46.000Z</time>
      </trkpt>
      <trkpt lat="40.8712126314640045166015625" lon="-7.5659274123609066009521484375">
        <ele>919</ele>
        <time>2019-04-29T15:53:01.000Z</time>
      </trkpt>
      <trkpt lat="40.87123484350740909576416015625" lon="-7.56638531573116779327392578125">
        <ele>918.79998779296875</ele>
        <time>2019-04-29T15:53:09.000Z</time>
      </trkpt>
      <trkpt lat="40.8713552914559841156005859375" lon="-7.5670981965959072113037109375">
        <ele>917.5999755859375</ele>
        <time>2019-04-29T15:53:23.000Z</time>
      </trkpt>
      <trkpt lat="40.87172183208167552947998046875" lon="-7.56743070669472217559814453125">
        <ele>917.79998779296875</ele>
        <time>2019-04-29T15:53:35.000Z</time>
      </trkpt>
      <trkpt lat="40.871794335544109344482421875" lon="-7.56748259067535400390625">
        <ele>918</ele>
        <time>2019-04-29T15:53:37.000Z</time>
      </trkpt>
      <trkpt lat="40.872017629444599151611328125" lon="-7.56766833364963531494140625">
        <ele>918.20001220703125</ele>
        <time>2019-04-29T15:53:43.000Z</time>
      </trkpt>
      <trkpt lat="40.87229448370635509490966796875" lon="-7.56821307353675365447998046875">
        <ele>917.20001220703125</ele>
        <time>2019-04-29T15:53:52.000Z</time>
      </trkpt>
      <trkpt lat="40.872360952198505401611328125" lon="-7.5686538778245449066162109375">
        <ele>917.5999755859375</ele>
        <time>2019-04-29T15:53:57.000Z</time>
      </trkpt>
      <trkpt lat="40.8722390793263912200927734375" lon="-7.56937765516340732574462890625">
        <ele>915</ele>
        <time>2019-04-29T15:54:04.000Z</time>
      </trkpt>
      <trkpt lat="40.8720620535314083099365234375" lon="-7.57013202644884586334228515625">
        <ele>912.20001220703125</ele>
        <time>2019-04-29T15:54:11.000Z</time>
      </trkpt>
      <trkpt lat="40.87189936079084873199462890625" lon="-7.57082303054630756378173828125">
        <ele>911.5999755859375</ele>
        <time>2019-04-29T15:54:18.000Z</time>
      </trkpt>
      <trkpt lat="40.8717951737344264984130859375" lon="-7.57134002633392810821533203125">
        <ele>910.4000244140625</ele>
        <time>2019-04-29T15:54:24.000Z</time>
      </trkpt>
      <trkpt lat="40.87184839881956577301025390625" lon="-7.5718946568667888641357421875">
        <ele>912.79998779296875</ele>
        <time>2019-04-29T15:54:39.000Z</time>
      </trkpt>
      <trkpt lat="40.87186499498784542083740234375" lon="-7.57189172320067882537841796875">
        <ele>913.20001220703125</ele>
        <time>2019-04-29T15:54:43.000Z</time>
      </trkpt>
      <trkpt lat="40.8719837665557861328125" lon="-7.5719878636300563812255859375">
        <ele>915</ele>
        <time>2019-04-29T15:54:52.000Z</time>
      </trkpt>
      <trkpt lat="40.87208711542189121246337890625" lon="-7.5722124986350536346435546875">
        <ele>916.4000244140625</ele>
        <time>2019-04-29T15:55:02.000Z</time>
      </trkpt>
      <trkpt lat="40.87200681678950786590576171875" lon="-7.572159357368946075439453125">
        <ele>915.20001220703125</ele>
        <time>2019-04-29T15:55:07.000Z</time>
      </trkpt>
      <trkpt lat="40.8719856105744838714599609375" lon="-7.57211484946310520172119140625">
        <ele>915</ele>
        <time>2019-04-29T15:55:08.000Z</time>
      </trkpt>
      <trkpt lat="40.8719001151621341705322265625" lon="-7.57197017781436443328857421875">
        <ele>913.79998779296875</ele>
        <time>2019-04-29T15:55:11.000Z</time>
      </trkpt>
      <trkpt lat="40.87159140966832637786865234375" lon="-7.5722188688814640045166015625">
        <ele>909</ele>
        <time>2019-04-29T15:55:21.000Z</time>
      </trkpt>
      <trkpt lat="40.87152804248034954071044921875" lon="-7.5729293189942836761474609375">
        <ele>908.4000244140625</ele>
        <time>2019-04-29T15:55:31.000Z</time>
      </trkpt>
      <trkpt lat="40.8714850433170795440673828125" lon="-7.573440112173557281494140625">
        <ele>908</ele>
        <time>2019-04-29T15:55:38.000Z</time>
      </trkpt>
      <trkpt lat="40.8714290522038936614990234375" lon="-7.5737302936613559722900390625">
        <ele>907</ele>
        <time>2019-04-29T15:55:42.000Z</time>
      </trkpt>
      <trkpt lat="40.8710267208516597747802734375" lon="-7.57429070770740509033203125">
        <ele>904</ele>
        <time>2019-04-29T15:55:52.000Z</time>
      </trkpt>
      <trkpt lat="40.8706076256930828094482421875" lon="-7.57481373846530914306640625">
        <ele>900.5999755859375</ele>
        <time>2019-04-29T15:56:08.000Z</time>
      </trkpt>
      <trkpt lat="40.87030000984668731689453125" lon="-7.575419582426548004150390625">
        <ele>898.20001220703125</ele>
        <time>2019-04-29T15:56:28.000Z</time>
      </trkpt>
      <trkpt lat="40.8702693320810794830322265625" lon="-7.57550717331469058990478515625">
        <ele>897.79998779296875</ele>
        <time>2019-04-29T15:56:31.000Z</time>
      </trkpt>
      <trkpt lat="40.87020051665604114532470703125" lon="-7.5755297206342220306396484375">
        <ele>897.79998779296875</ele>
        <time>2019-04-29T15:56:35.000Z</time>
      </trkpt>
      <trkpt lat="40.87011770345270633697509765625" lon="-7.57548839785158634185791015625">
        <ele>898.20001220703125</ele>
        <time>2019-04-29T15:56:42.000Z</time>
      </trkpt>
      <trkpt lat="40.87016447447240352630615234375" lon="-7.57547180168330669403076171875">
        <ele>898.20001220703125</ele>
        <time>2019-04-30T07:54:38.000Z</time>
      </trkpt>
      <trkpt lat="40.87016447447240352630615234375" lon="-7.57547180168330669403076171875">
        <ele>898.20001220703125</ele>
        <time>2019-04-30T07:54:40.000Z</time>
      </trkpt>
      <trkpt lat="40.870165564119815826416015625" lon="-7.57548705674707889556884765625">
        <ele>898.20001220703125</ele>
        <time>2019-04-30T07:54:44.000Z</time>
      </trkpt>
      <trkpt lat="40.87022490799427032470703125" lon="-7.5757800042629241943359375">
        <ele>896.20001220703125</ele>
        <time>2019-04-30T07:54:54.000Z</time>
      </trkpt>
      <trkpt lat="40.87022281251847743988037109375" lon="-7.57595158182084560394287109375">
        <ele>895.4000244140625</ele>
        <time>2019-04-30T07:54:59.000Z</time>
      </trkpt>
      <trkpt lat="40.87025231681764125823974609375" lon="-7.57639682851731777191162109375">
        <ele>893.20001220703125</ele>
        <time>2019-04-30T07:55:09.000Z</time>
      </trkpt>
      <trkpt lat="40.87030545808374881744384765625" lon="-7.5769653730094432830810546875">
        <ele>889.20001220703125</ele>
        <time>2019-04-30T07:55:18.000Z</time>
      </trkpt>
      <trkpt lat="40.8702954836189746856689453125" lon="-7.5777452252805233001708984375">
        <ele>884.79998779296875</ele>
        <time>2019-04-30T07:55:26.000Z</time>
      </trkpt>
      <trkpt lat="40.87031300179660320281982421875" lon="-7.57846732623875141143798828125">
        <ele>884.79998779296875</ele>
        <time>2019-04-30T07:55:32.000Z</time>
      </trkpt>
      <trkpt lat="40.8703315258026123046875" lon="-7.57926763035356998443603515625">
        <ele>888</ele>
        <time>2019-04-30T07:55:40.000Z</time>
      </trkpt>
      <trkpt lat="40.8703400753438472747802734375" lon="-7.579988054931163787841796875">
        <ele>890.20001220703125</ele>
        <time>2019-04-30T07:55:52.000Z</time>
      </trkpt>
      <trkpt lat="40.8703504689037799835205078125" lon="-7.5807251594960689544677734375">
        <ele>893.4000244140625</ele>
        <time>2019-04-30T07:56:09.000Z</time>
      </trkpt>
      <trkpt lat="40.8703702501952648162841796875" lon="-7.581453211605548858642578125">
        <ele>894.4000244140625</ele>
        <time>2019-04-30T07:56:27.000Z</time>
      </trkpt>
      <trkpt lat="40.8704255707561969757080078125" lon="-7.58217413909733295440673828125">
        <ele>893.79998779296875</ele>
        <time>2019-04-30T07:56:45.000Z</time>
      </trkpt>
      <trkpt lat="40.870427079498767852783203125" lon="-7.58218981325626373291015625">
        <ele>893.79998779296875</ele>
        <time>2019-04-30T07:56:46.000Z</time>
      </trkpt>
      <trkpt lat="40.87044392712414264678955078125" lon="-7.58221269585192203521728515625">
        <ele>893.79998779296875</ele>
        <time>2019-04-30T07:56:51.000Z</time>
      </trkpt>
      <trkpt lat="40.87040637619793415069580078125" lon="-7.58210104890167713165283203125">
        <ele>894</ele>
        <time>2019-04-30T08:10:10.000Z</time>
      </trkpt>
      <trkpt lat="40.870406962931156158447265625" lon="-7.58251033723354339599609375">
        <ele>893</ele>
        <time>2019-04-30T08:10:25.000Z</time>
      </trkpt>
      <trkpt lat="40.87042867206037044525146484375" lon="-7.5832821428775787353515625">
        <ele>890.79998779296875</ele>
        <time>2019-04-30T08:10:37.000Z</time>
      </trkpt>
      <trkpt lat="40.87044493295252323150634765625" lon="-7.58404565043747425079345703125">
        <ele>887</ele>
        <time>2019-04-30T08:10:46.000Z</time>
      </trkpt>
      <trkpt lat="40.87046404369175434112548828125" lon="-7.5848324596881866455078125">
        <ele>883.20001220703125</ele>
        <time>2019-04-30T08:10:54.000Z</time>
      </trkpt>
      <trkpt lat="40.870482064783573150634765625" lon="-7.58555891923606395721435546875">
        <ele>881.4000244140625</ele>
        <time>2019-04-30T08:11:01.000Z</time>
      </trkpt>
      <trkpt lat="40.870470665395259857177734375" lon="-7.58585932664573192596435546875">
        <ele>881</ele>
        <time>2019-04-30T08:11:04.000Z</time>
      </trkpt>
      <trkpt lat="40.8704388141632080078125" lon="-7.58623416535556316375732421875">
        <ele>880.79998779296875</ele>
        <time>2019-04-30T08:11:08.000Z</time>
      </trkpt>
      <trkpt lat="40.870457924902439117431640625" lon="-7.58697613142430782318115234375">
        <ele>881.79998779296875</ele>
        <time>2019-04-30T08:11:16.000Z</time>
      </trkpt>
      <trkpt lat="40.8704751916229724884033203125" lon="-7.58771709166467189788818359375">
        <ele>883</ele>
        <time>2019-04-30T08:11:24.000Z</time>
      </trkpt>
      <trkpt lat="40.870493464171886444091796875" lon="-7.58848168887197971343994140625">
        <ele>882</ele>
        <time>2019-04-30T08:11:32.000Z</time>
      </trkpt>
      <trkpt lat="40.8705160953104496002197265625" lon="-7.58920521475374698638916015625">
        <ele>881.4000244140625</ele>
        <time>2019-04-30T08:11:40.000Z</time>
      </trkpt>
      <trkpt lat="40.87064207531511783599853515625" lon="-7.5899603404104709625244140625">
        <ele>878.5999755859375</ele>
        <time>2019-04-30T08:11:50.000Z</time>
      </trkpt>
      <trkpt lat="40.87066370062530040740966796875" lon="-7.59002194739878177642822265625">
        <ele>878.4000244140625</ele>
        <time>2019-04-30T08:11:51.000Z</time>
      </trkpt>
      <trkpt lat="40.8707405626773834228515625" lon="-7.5901946984231472015380859375">
        <ele>878.20001220703125</ele>
        <time>2019-04-30T08:11:54.000Z</time>
      </trkpt>
      <trkpt lat="40.87080015800893306732177734375" lon="-7.5903050042688846588134765625">
        <ele>878.20001220703125</ele>
        <time>2019-04-30T08:11:56.000Z</time>
      </trkpt>
      <trkpt lat="40.871205590665340423583984375" lon="-7.59082023985683917999267578125">
        <ele>874.5999755859375</ele>
        <time>2019-04-30T08:12:06.000Z</time>
      </trkpt>
      <trkpt lat="40.871669612824916839599609375" lon="-7.59132583625614643096923828125">
        <ele>870</ele>
        <time>2019-04-30T08:12:16.000Z</time>
      </trkpt>
      <trkpt lat="40.872102789580821990966796875" lon="-7.59178675711154937744140625">
        <ele>868.79998779296875</ele>
        <time>2019-04-30T08:12:25.000Z</time>
      </trkpt>
      <trkpt lat="40.8725475333631038665771484375" lon="-7.59225689806044101715087890625">
        <ele>868.4000244140625</ele>
        <time>2019-04-30T08:12:35.000Z</time>
      </trkpt>
      <trkpt lat="40.87296872399747371673583984375" lon="-7.5927154719829559326171875">
        <ele>869.20001220703125</ele>
        <time>2019-04-30T08:12:45.000Z</time>
      </trkpt>
      <trkpt lat="40.87339452467858791351318359375" lon="-7.59317723102867603302001953125">
        <ele>871.20001220703125</ele>
        <time>2019-04-30T08:12:56.000Z</time>
      </trkpt>
      <trkpt lat="40.8738172240555286407470703125" lon="-7.59364142082631587982177734375">
        <ele>872</ele>
        <time>2019-04-30T08:13:08.000Z</time>
      </trkpt>
      <trkpt lat="40.8741685934364795684814453125" lon="-7.59401475079357624053955078125">
        <ele>871.79998779296875</ele>
        <time>2019-04-30T08:13:18.000Z</time>
      </trkpt>
      <trkpt lat="40.87454183958470821380615234375" lon="-7.59442177601158618927001953125">
        <ele>873.79998779296875</ele>
        <time>2019-04-30T08:13:29.000Z</time>
      </trkpt>
      <trkpt lat="40.8747000060975551605224609375" lon="-7.5946022383868694305419921875">
        <ele>874.4000244140625</ele>
        <time>2019-04-30T08:13:34.000Z</time>
      </trkpt>
      <trkpt lat="40.8751345239579677581787109375" lon="-7.59507807902991771697998046875">
        <ele>874.20001220703125</ele>
        <time>2019-04-30T08:13:47.000Z</time>
      </trkpt>
      <trkpt lat="40.87557482533156871795654296875" lon="-7.595548890531063079833984375">
        <ele>874</ele>
        <time>2019-04-30T08:14:00.000Z</time>
      </trkpt>
      <trkpt lat="40.87602728046476840972900390625" lon="-7.59602188132703304290771484375">
        <ele>875.5999755859375</ele>
        <time>2019-04-30T08:14:14.000Z</time>
      </trkpt>
      <trkpt lat="40.8764643967151641845703125" lon="-7.59648892097175121307373046875">
        <ele>878.79998779296875</ele>
        <time>2019-04-30T08:14:29.000Z</time>
      </trkpt>
      <trkpt lat="40.87689531035721302032470703125" lon="-7.5969464890658855438232421875">
        <ele>881.20001220703125</ele>
        <time>2019-04-30T08:14:43.000Z</time>
      </trkpt>
      <trkpt lat="40.87734357453882694244384765625" lon="-7.59742735885083675384521484375">
        <ele>879.5999755859375</ele>
        <time>2019-04-30T08:14:56.000Z</time>
      </trkpt>
      <trkpt lat="40.87779871188104152679443359375" lon="-7.59782097302377223968505859375">
        <ele>877.4000244140625</ele>
        <time>2019-04-30T08:15:06.000Z</time>
      </trkpt>
      <trkpt lat="40.87835376150906085968017578125" lon="-7.598098330199718475341796875">
        <ele>872.5999755859375</ele>
        <time>2019-04-30T08:15:14.000Z</time>
      </trkpt>
      <trkpt lat="40.878944434225559234619140625" lon="-7.5982718355953693389892578125">
        <ele>866.4000244140625</ele>
        <time>2019-04-30T08:15:21.000Z</time>
      </trkpt>
      <trkpt lat="40.87950912304222583770751953125" lon="-7.59828264825046062469482421875">
        <ele>862.79998779296875</ele>
        <time>2019-04-30T08:15:27.000Z</time>
      </trkpt>
      <trkpt lat="40.8800593949854373931884765625" lon="-7.598277032375335693359375">
        <ele>862</ele>
        <time>2019-04-30T08:15:33.000Z</time>
      </trkpt>
      <trkpt lat="40.88066381402313709259033203125" lon="-7.5982953049242496490478515625">
        <ele>862</ele>
        <time>2019-04-30T08:15:40.000Z</time>
      </trkpt>
      <trkpt lat="40.88126219809055328369140625" lon="-7.59830863215029239654541015625">
        <ele>859.79998779296875</ele>
        <time>2019-04-30T08:15:48.000Z</time>
      </trkpt>
      <trkpt lat="40.8818159066140651702880859375" lon="-7.59831919334828853607177734375">
        <ele>857.20001220703125</ele>
        <time>2019-04-30T08:15:57.000Z</time>
      </trkpt>
      <trkpt lat="40.8823972754180431365966796875" lon="-7.59833939373493194580078125">
        <ele>855.5999755859375</ele>
        <time>2019-04-30T08:16:07.000Z</time>
      </trkpt>
      <trkpt lat="40.8829742856323719024658203125" lon="-7.59834903292357921600341796875">
        <ele>857.5999755859375</ele>
        <time>2019-04-30T08:16:17.000Z</time>
      </trkpt>
      <trkpt lat="40.88352204300463199615478515625" lon="-7.59836143814027309417724609375">
        <ele>859.5999755859375</ele>
        <time>2019-04-30T08:16:27.000Z</time>
      </trkpt>
      <trkpt lat="40.8840934373438358306884765625" lon="-7.59835951030254364013671875">
        <ele>860.4000244140625</ele>
        <time>2019-04-30T08:16:38.000Z</time>
      </trkpt>
      <trkpt lat="40.8846597187221050262451171875" lon="-7.59830578230321407318115234375">
        <ele>859.4000244140625</ele>
        <time>2019-04-30T08:16:49.000Z</time>
      </trkpt>
      <trkpt lat="40.885203368961811065673828125" lon="-7.598257921636104583740234375">
        <ele>859.79998779296875</ele>
        <time>2019-04-30T08:17:00.000Z</time>
      </trkpt>
      <trkpt lat="40.88575766421854496002197265625" lon="-7.59820260107517242431640625">
        <ele>860.79998779296875</ele>
        <time>2019-04-30T08:17:11.000Z</time>
      </trkpt>
      <trkpt lat="40.88632310740649700164794921875" lon="-7.59815490804612636566162109375">
        <ele>863.4000244140625</ele>
        <time>2019-04-30T08:17:23.000Z</time>
      </trkpt>
      <trkpt lat="40.88687480427324771881103515625" lon="-7.5980917923152446746826171875">
        <ele>864</ele>
        <time>2019-04-30T08:17:35.000Z</time>
      </trkpt>
      <trkpt lat="40.88741443119943141937255859375" lon="-7.5980388186872005462646484375">
        <ele>863.20001220703125</ele>
        <time>2019-04-30T08:17:46.000Z</time>
      </trkpt>
      <trkpt lat="40.88795573450624942779541015625" lon="-7.5979737751185894012451171875">
        <ele>864.5999755859375</ele>
        <time>2019-04-30T08:17:57.000Z</time>
      </trkpt>
      <trkpt lat="40.88849603198468685150146484375" lon="-7.59791552089154720306396484375">
        <ele>864.4000244140625</ele>
        <time>2019-04-30T08:18:08.000Z</time>
      </trkpt>
      <trkpt lat="40.88905426673591136932373046875" lon="-7.59786598384380340576171875">
        <ele>862.5999755859375</ele>
        <time>2019-04-30T08:18:19.000Z</time>
      </trkpt>
      <trkpt lat="40.8896365575492382049560546875" lon="-7.59799732826650142669677734375">
        <ele>856.79998779296875</ele>
        <time>2019-04-30T08:18:28.000Z</time>
      </trkpt>
      <trkpt lat="40.8901039324700832366943359375" lon="-7.59838188998401165008544921875">
        <ele>852.79998779296875</ele>
        <time>2019-04-30T08:18:35.000Z</time>
      </trkpt>
      <trkpt lat="40.89053861796855926513671875" lon="-7.5989195890724658966064453125">
        <ele>850.79998779296875</ele>
        <time>2019-04-30T08:18:42.000Z</time>
      </trkpt>
      <trkpt lat="40.8906841278076171875" lon="-7.5990493409335613250732421875">
        <ele>849.5999755859375</ele>
        <time>2019-04-30T08:18:44.000Z</time>
      </trkpt>
      <trkpt lat="40.89125786907970905303955078125" lon="-7.59939962066709995269775390625">
        <ele>844.79998779296875</ele>
        <time>2019-04-30T08:18:51.000Z</time>
      </trkpt>
      <trkpt lat="40.89176614768803119659423828125" lon="-7.5996744632720947265625">
        <ele>843</ele>
        <time>2019-04-30T08:18:57.000Z</time>
      </trkpt>
      <trkpt lat="40.8923392184078693389892578125" lon="-7.599794827401638031005859375">
        <ele>842</ele>
        <time>2019-04-30T08:19:04.000Z</time>
      </trkpt>
      <trkpt lat="40.89292083866894245147705078125" lon="-7.5998328812420368194580078125">
        <ele>841.5999755859375</ele>
        <time>2019-04-30T08:19:12.000Z</time>
      </trkpt>
      <trkpt lat="40.8934905566275119781494140625" lon="-7.599900774657726287841796875">
        <ele>843.20001220703125</ele>
        <time>2019-04-30T08:19:21.000Z</time>
      </trkpt>
      <trkpt lat="40.89405859820544719696044921875" lon="-7.600034214556217193603515625">
        <ele>844.4000244140625</ele>
        <time>2019-04-30T08:19:31.000Z</time>
      </trkpt>
      <trkpt lat="40.8946133963763713836669921875" lon="-7.60017259977757930755615234375">
        <ele>845.79998779296875</ele>
        <time>2019-04-30T08:19:40.000Z</time>
      </trkpt>
      <trkpt lat="40.89515394531190395355224609375" lon="-7.6002955622971057891845703125">
        <ele>845.4000244140625</ele>
        <time>2019-04-30T08:19:50.000Z</time>
      </trkpt>
      <trkpt lat="40.8957414329051971435546875" lon="-7.60042455978691577911376953125">
        <ele>846.20001220703125</ele>
        <time>2019-04-30T08:20:01.000Z</time>
      </trkpt>
      <trkpt lat="40.8963202871382236480712890625" lon="-7.600549198687076568603515625">
        <ele>843</ele>
        <time>2019-04-30T08:20:12.000Z</time>
      </trkpt>
      <trkpt lat="40.896557830274105072021484375" lon="-7.60060250759124755859375">
        <ele>841.79998779296875</ele>
        <time>2019-04-30T08:20:17.000Z</time>
      </trkpt>
      <trkpt lat="40.89664475060999393463134765625" lon="-7.60059571824967861175537109375">
        <ele>841.5999755859375</ele>
        <time>2019-04-30T08:20:19.000Z</time>
      </trkpt>
      <trkpt lat="40.89682546444237232208251953125" lon="-7.600579373538494110107421875">
        <ele>842</ele>
        <time>2019-04-30T08:20:23.000Z</time>
      </trkpt>
      <trkpt lat="40.8971185795962810516357421875" lon="-7.60062396526336669921875">
        <ele>842.79998779296875</ele>
        <time>2019-04-30T08:20:29.000Z</time>
      </trkpt>
      <trkpt lat="40.8975336514413356781005859375" lon="-7.6006968878209590911865234375">
        <ele>842.4000244140625</ele>
        <time>2019-04-30T08:20:44.000Z</time>
      </trkpt>
      <trkpt lat="40.897570364177227020263671875" lon="-7.600729577243328094482421875">
        <ele>842.5999755859375</ele>
        <time>2019-04-30T08:20:49.000Z</time>
      </trkpt>
      <trkpt lat="40.89760866947472095489501953125" lon="-7.6007686369121074676513671875">
        <ele>842.79998779296875</ele>
        <time>2019-04-30T08:22:46.000Z</time>
      </trkpt>
      <trkpt lat="40.89763968251645565032958984375" lon="-7.6007916033267974853515625">
        <ele>842.79998779296875</ele>
        <time>2019-04-30T08:22:48.000Z</time>
      </trkpt>
      <trkpt lat="40.8977745473384857177734375" lon="-7.600875757634639739990234375">
        <ele>843</ele>
        <time>2019-04-30T08:22:55.000Z</time>
      </trkpt>
      <trkpt lat="40.8982694149017333984375" lon="-7.6012360118329524993896484375">
        <ele>843.4000244140625</ele>
        <time>2019-04-30T08:23:12.000Z</time>
      </trkpt>
      <trkpt lat="40.89846932329237461090087890625" lon="-7.60140105150640010833740234375">
        <ele>843.20001220703125</ele>
        <time>2019-04-30T08:23:17.000Z</time>
      </trkpt>
      <trkpt lat="40.8989284001290798187255859375" lon="-7.60187320411205291748046875">
        <ele>840.5999755859375</ele>
        <time>2019-04-30T08:23:29.000Z</time>
      </trkpt>
      <trkpt lat="40.89928806759417057037353515625" lon="-7.60248717851936817169189453125">
        <ele>838.5999755859375</ele>
        <time>2019-04-30T08:23:38.000Z</time>
      </trkpt>
      <trkpt lat="40.8996479026973247528076171875" lon="-7.6030904240906238555908203125">
        <ele>837.20001220703125</ele>
        <time>2019-04-30T08:23:46.000Z</time>
      </trkpt>
      <trkpt lat="40.900001116096973419189453125" lon="-7.60367439128458499908447265625">
        <ele>836.79998779296875</ele>
        <time>2019-04-30T08:23:54.000Z</time>
      </trkpt>
      <trkpt lat="40.90036966837942600250244140625" lon="-7.604273445904254913330078125">
        <ele>835.5999755859375</ele>
        <time>2019-04-30T08:24:03.000Z</time>
      </trkpt>
      <trkpt lat="40.900714583694934844970703125" lon="-7.6048516295850276947021484375">
        <ele>837.79998779296875</ele>
        <time>2019-04-30T08:24:12.000Z</time>
      </trkpt>
      <trkpt lat="40.90106603689491748809814453125" lon="-7.60544381104409694671630859375">
        <ele>838.5999755859375</ele>
        <time>2019-04-30T08:24:22.000Z</time>
      </trkpt>
      <trkpt lat="40.90142645873129367828369140625" lon="-7.6060381717979907989501953125">
        <ele>840.4000244140625</ele>
        <time>2019-04-30T08:24:34.000Z</time>
      </trkpt>
      <trkpt lat="40.90180900879204273223876953125" lon="-7.6066332869231700897216796875">
        <ele>838.79998779296875</ele>
        <time>2019-04-30T08:24:45.000Z</time>
      </trkpt>
      <trkpt lat="40.9019991941750049591064453125" lon="-7.606809474527835845947265625">
        <ele>838.20001220703125</ele>
        <time>2019-04-30T08:24:49.000Z</time>
      </trkpt>
      <trkpt lat="40.902154929935932159423828125" lon="-7.60688298381865024566650390625">
        <ele>838</ele>
        <time>2019-04-30T08:24:52.000Z</time>
      </trkpt>
      <trkpt lat="40.9027203731238842010498046875" lon="-7.60701927356421947479248046875">
        <ele>837.4000244140625</ele>
        <time>2019-04-30T08:25:03.000Z</time>
      </trkpt>
      <trkpt lat="40.9030824713408946990966796875" lon="-7.60710225440561771392822265625">
        <ele>837</ele>
        <time>2019-04-30T08:25:10.000Z</time>
      </trkpt>
      <trkpt lat="40.9036512672901153564453125" lon="-7.60723938234150409698486328125">
        <ele>837.4000244140625</ele>
        <time>2019-04-30T08:25:21.000Z</time>
      </trkpt>
      <trkpt lat="40.90422819368541240692138671875" lon="-7.60742763988673686981201171875">
        <ele>836.20001220703125</ele>
        <time>2019-04-30T08:25:31.000Z</time>
      </trkpt>
      <trkpt lat="40.90478517115116119384765625" lon="-7.6077028177678585052490234375">
        <ele>831.79998779296875</ele>
        <time>2019-04-30T08:25:40.000Z</time>
      </trkpt>
      <trkpt lat="40.905325300991535186767578125" lon="-7.6079445518553256988525390625">
        <ele>828.5999755859375</ele>
        <time>2019-04-30T08:25:48.000Z</time>
      </trkpt>
      <trkpt lat="40.9058481641113758087158203125" lon="-7.60819441638886928558349609375">
        <ele>827.79998779296875</ele>
        <time>2019-04-30T08:25:56.000Z</time>
      </trkpt>
      <trkpt lat="40.906385444104671478271484375" lon="-7.60845827870070934295654296875">
        <ele>827.79998779296875</ele>
        <time>2019-04-30T08:26:05.000Z</time>
      </trkpt>
      <trkpt lat="40.9068967401981353759765625" lon="-7.608705461025238037109375">
        <ele>828.4000244140625</ele>
        <time>2019-04-30T08:26:14.000Z</time>
      </trkpt>
      <trkpt lat="40.90741650201380252838134765625" lon="-7.60897711850702762603759765625">
        <ele>831.5999755859375</ele>
        <time>2019-04-30T08:26:25.000Z</time>
      </trkpt>
      <trkpt lat="40.9078769199550151824951171875" lon="-7.609409876167774200439453125">
        <ele>833.79998779296875</ele>
        <time>2019-04-30T08:26:40.000Z</time>
      </trkpt>
      <trkpt lat="40.90830213390290737152099609375" lon="-7.60987532325088977813720703125">
        <ele>836</ele>
        <time>2019-04-30T08:26:57.000Z</time>
      </trkpt>
      <trkpt lat="40.90871871449053287506103515625" lon="-7.61033029295504093170166015625">
        <ele>837.20001220703125</ele>
        <time>2019-04-30T08:27:15.000Z</time>
      </trkpt>
      <trkpt lat="40.90914719738066196441650390625" lon="-7.610799260437488555908203125">
        <ele>841</ele>
        <time>2019-04-30T08:27:32.000Z</time>
      </trkpt>
      <trkpt lat="40.90957400389015674591064453125" lon="-7.611263953149318695068359375">
        <ele>844.79998779296875</ele>
        <time>2019-04-30T08:27:51.000Z</time>
      </trkpt>
      <trkpt lat="40.91000877320766448974609375" lon="-7.61172738857567310333251953125">
        <ele>847.4000244140625</ele>
        <time>2019-04-30T08:28:12.000Z</time>
      </trkpt>
      <trkpt lat="40.91042409650981426239013671875" lon="-7.61220037937164306640625">
        <ele>850.4000244140625</ele>
        <time>2019-04-30T08:28:34.000Z</time>
      </trkpt>
      <trkpt lat="40.91086196713149547576904296875" lon="-7.61265442706644535064697265625">
        <ele>854</ele>
        <time>2019-04-30T08:28:59.000Z</time>
      </trkpt>
      <trkpt lat="40.911305285990238189697265625" lon="-7.61310235597193241119384765625">
        <ele>857.20001220703125</ele>
        <time>2019-04-30T08:29:25.000Z</time>
      </trkpt>
      <trkpt lat="40.91184969060122966766357421875" lon="-7.61328860186040401458740234375">
        <ele>857.4000244140625</ele>
        <time>2019-04-30T08:29:49.000Z</time>
      </trkpt>
      <trkpt lat="40.9124018065631389617919921875" lon="-7.61337409727275371551513671875">
        <ele>859</ele>
        <time>2019-04-30T08:30:08.000Z</time>
      </trkpt>
      <trkpt lat="40.9129442833364009857177734375" lon="-7.6134752668440341949462890625">
        <ele>862.5999755859375</ele>
        <time>2019-04-30T08:30:26.000Z</time>
      </trkpt>
      <trkpt lat="40.91348399408161640167236328125" lon="-7.613546848297119140625">
        <ele>865.4000244140625</ele>
        <time>2019-04-30T08:30:46.000Z</time>
      </trkpt>
      <trkpt lat="40.91402781195938587188720703125" lon="-7.613630332052707672119140625">
        <ele>868.20001220703125</ele>
        <time>2019-04-30T08:31:07.000Z</time>
      </trkpt>
      <trkpt lat="40.91454036533832550048828125" lon="-7.61382889933884143829345703125">
        <ele>871.5999755859375</ele>
        <time>2019-04-30T08:31:26.000Z</time>
      </trkpt>
      <trkpt lat="40.91494143940508365631103515625" lon="-7.614325694739818572998046875">
        <ele>868.4000244140625</ele>
        <time>2019-04-30T08:31:40.000Z</time>
      </trkpt>
      <trkpt lat="40.91510119847953319549560546875" lon="-7.61449995450675487518310546875">
        <ele>865.20001220703125</ele>
        <time>2019-04-30T08:31:43.000Z</time>
      </trkpt>
      <trkpt lat="40.91556270606815814971923828125" lon="-7.61505550704896450042724609375">
        <ele>854.20001220703125</ele>
        <time>2019-04-30T08:31:50.000Z</time>
      </trkpt>
      <trkpt lat="40.91603703796863555908203125" lon="-7.61552221141755580902099609375">
        <ele>851.4000244140625</ele>
        <time>2019-04-30T08:31:55.000Z</time>
      </trkpt>
      <trkpt lat="40.91657272540032863616943359375" lon="-7.61596460826694965362548828125">
        <ele>850</ele>
        <time>2019-04-30T08:32:01.000Z</time>
      </trkpt>
      <trkpt lat="40.91703892685472965240478515625" lon="-7.61633911170065402984619140625">
        <ele>850</ele>
        <time>2019-04-30T08:32:08.000Z</time>
      </trkpt>
      <trkpt lat="40.9175060503184795379638671875" lon="-7.6167455501854419708251953125">
        <ele>848.5999755859375</ele>
        <time>2019-04-30T08:32:17.000Z</time>
      </trkpt>
      <trkpt lat="40.91779329814016819000244140625" lon="-7.61697269976139068603515625">
        <ele>846</ele>
        <time>2019-04-30T08:32:23.000Z</time>
      </trkpt>
      <trkpt lat="40.917956493794918060302734375" lon="-7.617042101919651031494140625">
        <ele>844.79998779296875</ele>
        <time>2019-04-30T08:32:26.000Z</time>
      </trkpt>
      <trkpt lat="40.91853660531342029571533203125" lon="-7.61706163175404071807861328125">
        <ele>840.5999755859375</ele>
        <time>2019-04-30T08:32:34.000Z</time>
      </trkpt>
      <trkpt lat="40.91912182979285717010498046875" lon="-7.6170486398041248321533203125">
        <ele>838.5999755859375</ele>
        <time>2019-04-30T08:32:41.000Z</time>
      </trkpt>
      <trkpt lat="40.91945056803524494171142578125" lon="-7.6168660819530487060546875">
        <ele>837.79998779296875</ele>
        <time>2019-04-30T08:32:45.000Z</time>
      </trkpt>
      <trkpt lat="40.91974385082721710205078125" lon="-7.6164082624018192291259765625">
        <ele>836.5999755859375</ele>
        <time>2019-04-30T08:32:50.000Z</time>
      </trkpt>
      <trkpt lat="40.9198080562055110931396484375" lon="-7.61618924327194690704345703125">
        <ele>836.4000244140625</ele>
        <time>2019-04-30T08:32:52.000Z</time>
      </trkpt>
      <trkpt lat="40.91991224326193332672119140625" lon="-7.6154869236052036285400390625">
        <ele>834.20001220703125</ele>
        <time>2019-04-30T08:32:58.000Z</time>
      </trkpt>
      <trkpt lat="40.9200383909046649932861328125" lon="-7.61478602886199951171875">
        <ele>829.79998779296875</ele>
        <time>2019-04-30T08:33:04.000Z</time>
      </trkpt>
      <trkpt lat="40.9200746007263660430908203125" lon="-7.6146733760833740234375">
        <ele>828.79998779296875</ele>
        <time>2019-04-30T08:33:05.000Z</time>
      </trkpt>
      <trkpt lat="40.92047953046858310699462890625" lon="-7.614056132733821868896484375">
        <ele>823.79998779296875</ele>
        <time>2019-04-30T08:33:12.000Z</time>
      </trkpt>
      <trkpt lat="40.92090968973934650421142578125" lon="-7.613600157201290130615234375">
        <ele>823.20001220703125</ele>
        <time>2019-04-30T08:33:18.000Z</time>
      </trkpt>
      <trkpt lat="40.92133766971528530120849609375" lon="-7.6131306029856204986572265625">
        <ele>821.4000244140625</ele>
        <time>2019-04-30T08:33:24.000Z</time>
      </trkpt>
      <trkpt lat="40.921772606670856475830078125" lon="-7.61265300214290618896484375">
        <ele>820</ele>
        <time>2019-04-30T08:33:30.000Z</time>
      </trkpt>
      <trkpt lat="40.9222202003002166748046875" lon="-7.61217967607080936431884765625">
        <ele>817.20001220703125</ele>
        <time>2019-04-30T08:33:36.000Z</time>
      </trkpt>
      <trkpt lat="40.92254952527582645416259765625" lon="-7.61196769773960113525390625">
        <ele>814.20001220703125</ele>
        <time>2019-04-30T08:33:40.000Z</time>
      </trkpt>
      <trkpt lat="40.92310273088514804840087890625" lon="-7.6118042506277561187744140625">
        <ele>812.5999755859375</ele>
        <time>2019-04-30T08:33:46.000Z</time>
      </trkpt>
      <trkpt lat="40.92318939976394176483154296875" lon="-7.61174499057233333587646484375">
        <ele>813.20001220703125</ele>
        <time>2019-04-30T08:33:47.000Z</time>
      </trkpt>
      <trkpt lat="40.9235465526580810546875" lon="-7.611098997294902801513671875">
        <ele>811.20001220703125</ele>
        <time>2019-04-30T08:33:53.000Z</time>
      </trkpt>
      <trkpt lat="40.92358879745006561279296875" lon="-7.6109791360795497894287109375">
        <ele>810.5999755859375</ele>
        <time>2019-04-30T08:33:54.000Z</time>
      </trkpt>
      <trkpt lat="40.9239245764911174774169921875" lon="-7.6103300414979457855224609375">
        <ele>806.20001220703125</ele>
        <time>2019-04-30T08:34:00.000Z</time>
      </trkpt>
      <trkpt lat="40.9243540652096271514892578125" lon="-7.60977792553603649139404296875">
        <ele>804.79998779296875</ele>
        <time>2019-04-30T08:34:06.000Z</time>
      </trkpt>
      <trkpt lat="40.9248165786266326904296875" lon="-7.609293200075626373291015625">
        <ele>803.5999755859375</ele>
        <time>2019-04-30T08:34:12.000Z</time>
      </trkpt>
      <trkpt lat="40.92505655251443386077880859375" lon="-7.6090717501938343048095703125">
        <ele>804.5999755859375</ele>
        <time>2019-04-30T08:34:15.000Z</time>
      </trkpt>
      <trkpt lat="40.92525042593479156494140625" lon="-7.6083666644990444183349609375">
        <ele>801.5999755859375</ele>
        <time>2019-04-30T08:34:21.000Z</time>
      </trkpt>
      <trkpt lat="40.9252502582967281341552734375" lon="-7.60824353434145450592041015625">
        <ele>800.20001220703125</ele>
        <time>2019-04-30T08:34:22.000Z</time>
      </trkpt>
      <trkpt lat="40.9252975322306156158447265625" lon="-7.607535012066364288330078125">
        <ele>794.79998779296875</ele>
        <time>2019-04-30T08:34:28.000Z</time>
      </trkpt>
      <trkpt lat="40.92532418668270111083984375" lon="-7.607419677078723907470703125">
        <ele>793</ele>
        <time>2019-04-30T08:34:29.000Z</time>
      </trkpt>
      <trkpt lat="40.9255929104983806610107421875" lon="-7.6069534756243228912353515625">
        <ele>787.4000244140625</ele>
        <time>2019-04-30T08:34:34.000Z</time>
      </trkpt>
      <trkpt lat="40.92598644085228443145751953125" lon="-7.60646439157426357269287109375">
        <ele>784.5999755859375</ele>
        <time>2019-04-30T08:34:40.000Z</time>
      </trkpt>
      <trkpt lat="40.92638432979583740234375" lon="-7.6059540174901485443115234375">
        <ele>785.5999755859375</ele>
        <time>2019-04-30T08:34:47.000Z</time>
      </trkpt>
      <trkpt lat="40.926753468811511993408203125" lon="-7.60537021793425083160400390625">
        <ele>788.5999755859375</ele>
        <time>2019-04-30T08:34:56.000Z</time>
      </trkpt>
      <trkpt lat="40.9269598312675952911376953125" lon="-7.60501968674361705780029296875">
        <ele>790.4000244140625</ele>
        <time>2019-04-30T08:35:03.000Z</time>
      </trkpt>
      <trkpt lat="40.927297957241535186767578125" lon="-7.6044332049787044525146484375">
        <ele>788.4000244140625</ele>
        <time>2019-04-30T08:35:14.000Z</time>
      </trkpt>
      <trkpt lat="40.9273673593997955322265625" lon="-7.6043222285807132720947265625">
        <ele>787.5999755859375</ele>
        <time>2019-04-30T08:35:16.000Z</time>
      </trkpt>
      <trkpt lat="40.92774563468992710113525390625" lon="-7.60371780954301357269287109375">
        <ele>784.79998779296875</ele>
        <time>2019-04-30T08:35:26.000Z</time>
      </trkpt>
      <trkpt lat="40.9281383268535137176513671875" lon="-7.60313208214938640594482421875">
        <ele>783.4000244140625</ele>
        <time>2019-04-30T08:35:36.000Z</time>
      </trkpt>
      <trkpt lat="40.92851333320140838623046875" lon="-7.60258130729198455810546875">
        <ele>784.79998779296875</ele>
        <time>2019-04-30T08:35:46.000Z</time>
      </trkpt>
      <trkpt lat="40.9288648702204227447509765625" lon="-7.60202550329267978668212890625">
        <ele>787</ele>
        <time>2019-04-30T08:35:57.000Z</time>
      </trkpt>
      <trkpt lat="40.92922705225646495819091796875" lon="-7.60145704261958599090576171875">
        <ele>788.5999755859375</ele>
        <time>2019-04-30T08:36:12.000Z</time>
      </trkpt>
      <trkpt lat="40.92953282408416271209716796875" lon="-7.60084633715450763702392578125">
        <ele>789.79998779296875</ele>
        <time>2019-04-30T08:36:30.000Z</time>
      </trkpt>
      <trkpt lat="40.92982082627713680267333984375" lon="-7.6002214662730693817138671875">
        <ele>792</ele>
        <time>2019-04-30T08:36:48.000Z</time>
      </trkpt>
      <trkpt lat="40.9302676655352115631103515625" lon="-7.59977881796658039093017578125">
        <ele>794.4000244140625</ele>
        <time>2019-04-30T08:37:06.000Z</time>
      </trkpt>
      <trkpt lat="40.93076370656490325927734375" lon="-7.5994639098644256591796875">
        <ele>796.4000244140625</ele>
        <time>2019-04-30T08:37:23.000Z</time>
      </trkpt>
      <trkpt lat="40.93126603402197360992431640625" lon="-7.59915453381836414337158203125">
        <ele>798</ele>
        <time>2019-04-30T08:37:41.000Z</time>
      </trkpt>
      <trkpt lat="40.93174137175083160400390625" lon="-7.59872018359601497650146484375">
        <ele>796.5999755859375</ele>
        <time>2019-04-30T08:37:57.000Z</time>
      </trkpt>
      <trkpt lat="40.93210346996784210205078125" lon="-7.5981923751533031463623046875">
        <ele>793.5999755859375</ele>
        <time>2019-04-30T08:38:06.000Z</time>
      </trkpt>
      <trkpt lat="40.93223263509571552276611328125" lon="-7.59804627858102321624755859375">
        <ele>792.4000244140625</ele>
        <time>2019-04-30T08:38:09.000Z</time>
      </trkpt>
      <trkpt lat="40.9325814060866832733154296875" lon="-7.59776816703379154205322265625">
        <ele>790.5999755859375</ele>
        <time>2019-04-30T08:38:15.000Z</time>
      </trkpt>
      <trkpt lat="40.93277963809669017791748046875" lon="-7.597631625831127166748046875">
        <ele>789.5999755859375</ele>
        <time>2019-04-30T08:38:18.000Z</time>
      </trkpt>
      <trkpt lat="40.93314911238849163055419921875" lon="-7.5970903225243091583251953125">
        <ele>787.20001220703125</ele>
        <time>2019-04-30T08:38:25.000Z</time>
      </trkpt>
      <trkpt lat="40.93326562084257602691650390625" lon="-7.5969367660582065582275390625">
        <ele>786.4000244140625</ele>
        <time>2019-04-30T08:38:27.000Z</time>
      </trkpt>
      <trkpt lat="40.93340241350233554840087890625" lon="-7.59680651128292083740234375">
        <ele>785.5999755859375</ele>
        <time>2019-04-30T08:38:29.000Z</time>
      </trkpt>
      <trkpt lat="40.93385118059813976287841796875" lon="-7.59644634090363979339599609375">
        <ele>782.4000244140625</ele>
        <time>2019-04-30T08:38:35.000Z</time>
      </trkpt>
      <trkpt lat="40.93423272483050823211669921875" lon="-7.59593051858246326446533203125">
        <ele>777.79998779296875</ele>
        <time>2019-04-30T08:38:41.000Z</time>
      </trkpt>
      <trkpt lat="40.9346705116331577301025390625" lon="-7.5954863615334033966064453125">
        <ele>774.4000244140625</ele>
        <time>2019-04-30T08:38:47.000Z</time>
      </trkpt>
      <trkpt lat="40.93516127206385135650634765625" lon="-7.59511646814644336700439453125">
        <ele>769</ele>
        <time>2019-04-30T08:38:53.000Z</time>
      </trkpt>
      <trkpt lat="40.93542002141475677490234375" lon="-7.59497028775513172149658203125">
        <ele>766.20001220703125</ele>
        <time>2019-04-30T08:38:56.000Z</time>
      </trkpt>
      <trkpt lat="40.93599242158234119415283203125" lon="-7.594811618328094482421875">
        <ele>759</ele>
        <time>2019-04-30T08:39:02.000Z</time>
      </trkpt>
      <trkpt lat="40.93608294613659381866455078125" lon="-7.5948003865778446197509765625">
        <ele>757.79998779296875</ele>
        <time>2019-04-30T08:39:03.000Z</time>
      </trkpt>
      <trkpt lat="40.93657731078565120697021484375" lon="-7.59509392082691192626953125">
        <ele>752.20001220703125</ele>
        <time>2019-04-30T08:39:09.000Z</time>
      </trkpt>
      <trkpt lat="40.937020294368267059326171875" lon="-7.59564109146595001220703125">
        <ele>750.5999755859375</ele>
        <time>2019-04-30T08:39:15.000Z</time>
      </trkpt>
      <trkpt lat="40.93708273954689502716064453125" lon="-7.59574477560818195343017578125">
        <ele>750.79998779296875</ele>
        <time>2019-04-30T08:39:16.000Z</time>
      </trkpt>
      <trkpt lat="40.93734852969646453857421875" lon="-7.59650987572968006134033203125">
        <ele>750.4000244140625</ele>
        <time>2019-04-30T08:39:22.000Z</time>
      </trkpt>
      <trkpt lat="40.937551371753215789794921875" lon="-7.5972167216241359710693359375">
        <ele>743.79998779296875</ele>
        <time>2019-04-30T08:39:27.000Z</time>
      </trkpt>
      <trkpt lat="40.93768891878426074981689453125" lon="-7.5979553349316120147705078125">
        <ele>735.20001220703125</ele>
        <time>2019-04-30T08:39:32.000Z</time>
      </trkpt>
      <trkpt lat="40.9376464225351810455322265625" lon="-7.59856402873992919921875">
        <ele>732.4000244140625</ele>
        <time>2019-04-30T08:39:36.000Z</time>
      </trkpt>
      <trkpt lat="40.937569141387939453125" lon="-7.599274814128875732421875">
        <ele>731.4000244140625</ele>
        <time>2019-04-30T08:39:41.000Z</time>
      </trkpt>
      <trkpt lat="40.93758380971848964691162109375" lon="-7.5994040630757808685302734375">
        <ele>730.5999755859375</ele>
        <time>2019-04-30T08:39:42.000Z</time>
      </trkpt>
      <trkpt lat="40.93798865564167499542236328125" lon="-7.59991519153118133544921875">
        <ele>729.79998779296875</ele>
        <time>2019-04-30T08:39:48.000Z</time>
      </trkpt>
      <trkpt lat="40.9385043941438198089599609375" lon="-7.5997168757021427154541015625">
        <ele>730.79998779296875</ele>
        <time>2019-04-30T08:39:54.000Z</time>
      </trkpt>
      <trkpt lat="40.93896615318953990936279296875" lon="-7.59929015301167964935302734375">
        <ele>731</ele>
        <time>2019-04-30T08:40:03.000Z</time>
      </trkpt>
      <trkpt lat="40.93943185172975063323974609375" lon="-7.59882998652756214141845703125">
        <ele>732.4000244140625</ele>
        <time>2019-04-30T08:40:16.000Z</time>
      </trkpt>
      <trkpt lat="40.93988397158682346343994140625" lon="-7.59840485639870166778564453125">
        <ele>734</ele>
        <time>2019-04-30T08:40:28.000Z</time>
      </trkpt>
      <trkpt lat="40.9403293021023273468017578125" lon="-7.59797637350857257843017578125">
        <ele>735.5999755859375</ele>
        <time>2019-04-30T08:40:40.000Z</time>
      </trkpt>
      <trkpt lat="40.94060431234538555145263671875" lon="-7.59764260612428188323974609375">
        <ele>736.4000244140625</ele>
        <time>2019-04-30T08:40:48.000Z</time>
      </trkpt>
      <trkpt lat="40.9409338049590587615966796875" lon="-7.59704732336103916168212890625">
        <ele>736.5999755859375</ele>
        <time>2019-04-30T08:40:59.000Z</time>
      </trkpt>
      <trkpt lat="40.9412596933543682098388671875" lon="-7.59645137004554271697998046875">
        <ele>736.79998779296875</ele>
        <time>2019-04-30T08:41:10.000Z</time>
      </trkpt>
      <trkpt lat="40.9415808878839015960693359375" lon="-7.59586765430867671966552734375">
        <ele>736.4000244140625</ele>
        <time>2019-04-30T08:41:21.000Z</time>
      </trkpt>
      <trkpt lat="40.94191876240074634552001953125" lon="-7.59526935406029224395751953125">
        <ele>735.20001220703125</ele>
        <time>2019-04-30T08:41:32.000Z</time>
      </trkpt>
      <trkpt lat="40.94226124696433544158935546875" lon="-7.594688571989536285400390625">
        <ele>734.20001220703125</ele>
        <time>2019-04-30T08:41:43.000Z</time>
      </trkpt>
      <trkpt lat="40.94252577982842922210693359375" lon="-7.59436695836484432220458984375">
        <ele>733.79998779296875</ele>
        <time>2019-04-30T08:41:50.000Z</time>
      </trkpt>
      <trkpt lat="40.94298376701772212982177734375" lon="-7.593895979225635528564453125">
        <ele>733.20001220703125</ele>
        <time>2019-04-30T08:42:02.000Z</time>
      </trkpt>
      <trkpt lat="40.94345466233789920806884765625" lon="-7.59342550300061702728271484375">
        <ele>733.5999755859375</ele>
        <time>2019-04-30T08:42:13.000Z</time>
      </trkpt>
      <trkpt lat="40.94389622099697589874267578125" lon="-7.59299819357693195343017578125">
        <ele>733.20001220703125</ele>
        <time>2019-04-30T08:42:23.000Z</time>
      </trkpt>
      <trkpt lat="40.94434884376823902130126953125" lon="-7.59256233461201190948486328125">
        <ele>735</ele>
        <time>2019-04-30T08:42:33.000Z</time>
      </trkpt>
      <trkpt lat="40.944801382720470428466796875" lon="-7.5921272300183773040771484375">
        <ele>736.79998779296875</ele>
        <time>2019-04-30T08:42:43.000Z</time>
      </trkpt>
      <trkpt lat="40.9452484734356403350830078125" lon="-7.5916935503482818603515625">
        <ele>737.4000244140625</ele>
        <time>2019-04-30T08:42:53.000Z</time>
      </trkpt>
      <trkpt lat="40.94567402265965938568115234375" lon="-7.5912518240511417388916015625">
        <ele>734.5999755859375</ele>
        <time>2019-04-30T08:43:02.000Z</time>
      </trkpt>
      <trkpt lat="40.94608859159052371978759765625" lon="-7.590680681169033050537109375">
        <ele>731.4000244140625</ele>
        <time>2019-04-30T08:43:10.000Z</time>
      </trkpt>
      <trkpt lat="40.94647114165127277374267578125" lon="-7.59007550776004791259765625">
        <ele>727.5999755859375</ele>
        <time>2019-04-30T08:43:17.000Z</time>
      </trkpt>
      <trkpt lat="40.946851260960102081298828125" lon="-7.5894711725413799285888671875">
        <ele>725.20001220703125</ele>
        <time>2019-04-30T08:43:24.000Z</time>
      </trkpt>
      <trkpt lat="40.94719433225691318511962890625" lon="-7.58892023004591464996337890625">
        <ele>722.20001220703125</ele>
        <time>2019-04-30T08:43:31.000Z</time>
      </trkpt>
      <trkpt lat="40.94761443324387073516845703125" lon="-7.58837590925395488739013671875">
        <ele>718</ele>
        <time>2019-04-30T08:43:39.000Z</time>
      </trkpt>
      <trkpt lat="40.94807459972798824310302734375" lon="-7.5879597477614879608154296875">
        <ele>719.20001220703125</ele>
        <time>2019-04-30T08:43:47.000Z</time>
      </trkpt>
      <trkpt lat="40.9485405497252941131591796875" lon="-7.58754744194447994232177734375">
        <ele>716</ele>
        <time>2019-04-30T08:43:55.000Z</time>
      </trkpt>
      <trkpt lat="40.94899308867752552032470703125" lon="-7.58714444003999233245849609375">
        <ele>713.79998779296875</ele>
        <time>2019-04-30T08:44:02.000Z</time>
      </trkpt>
      <trkpt lat="40.949476473033428192138671875" lon="-7.58671746589243412017822265625">
        <ele>709.20001220703125</ele>
        <time>2019-04-30T08:44:09.000Z</time>
      </trkpt>
      <trkpt lat="40.95001517795026302337646484375" lon="-7.586365677416324615478515625">
        <ele>704.4000244140625</ele>
        <time>2019-04-30T08:44:16.000Z</time>
      </trkpt>
      <trkpt lat="40.950585901737213134765625" lon="-7.586079351603984832763671875">
        <ele>703.5999755859375</ele>
        <time>2019-04-30T08:44:23.000Z</time>
      </trkpt>
      <trkpt lat="40.9511791728436946868896484375" lon="-7.585778273642063140869140625">
        <ele>699</ele>
        <time>2019-04-30T08:44:30.000Z</time>
      </trkpt>
      <trkpt lat="40.95169826410710811614990234375" lon="-7.5855122320353984832763671875">
        <ele>695.79998779296875</ele>
        <time>2019-04-30T08:44:36.000Z</time>
      </trkpt>
      <trkpt lat="40.952223725616931915283203125" lon="-7.5852436758577823638916015625">
        <ele>694</ele>
        <time>2019-04-30T08:44:42.000Z</time>
      </trkpt>
      <trkpt lat="40.952715575695037841796875" lon="-7.58490496315062046051025390625">
        <ele>693.4000244140625</ele>
        <time>2019-04-30T08:44:48.000Z</time>
      </trkpt>
      <trkpt lat="40.95310592092573642730712890625" lon="-7.58438779972493648529052734375">
        <ele>691.4000244140625</ele>
        <time>2019-04-30T08:44:54.000Z</time>
      </trkpt>
      <trkpt lat="40.95349249430000782012939453125" lon="-7.58375488221645355224609375">
        <ele>685.79998779296875</ele>
        <time>2019-04-30T08:45:01.000Z</time>
      </trkpt>
      <trkpt lat="40.95390890724956989288330078125" lon="-7.58326227776706218719482421875">
        <ele>682.79998779296875</ele>
        <time>2019-04-30T08:45:10.000Z</time>
      </trkpt>
      <trkpt lat="40.95398870296776294708251953125" lon="-7.58318583481013774871826171875">
        <ele>681.79998779296875</ele>
        <time>2019-04-30T08:45:15.000Z</time>
      </trkpt>
      <trkpt lat="40.953936316072940826416015625" lon="-7.58330653421580791473388671875">
        <ele>682.5999755859375</ele>
        <time>2019-04-30T08:45:21.000Z</time>
      </trkpt>
      <trkpt lat="40.953900106251239776611328125" lon="-7.58334048092365264892578125">
        <ele>683</ele>
        <time>2019-04-30T08:45:22.000Z</time>
      </trkpt>
      <trkpt lat="40.9537892974913120269775390625" lon="-7.58345120586454868316650390625">
        <ele>683.5999755859375</ele>
        <time>2019-04-30T08:45:25.000Z</time>
      </trkpt>
      <trkpt lat="40.95352333970367908477783203125" lon="-7.58372982032597064971923828125">
        <ele>685.79998779296875</ele>
        <time>2019-04-30T08:45:35.000Z</time>
      </trkpt>
      <trkpt lat="40.9535194002091884613037109375" lon="-7.58367969654500484466552734375">
        <ele>685</ele>
        <time>2019-04-30T08:45:40.000Z</time>
      </trkpt>
      <trkpt lat="40.95352032221853733062744140625" lon="-7.583678103983402252197265625">
        <ele>685</ele>
        <time>2019-04-30T08:45:50.000Z</time>
      </trkpt>
      <trkpt lat="40.95394327305257320404052734375" lon="-7.5832320190966129302978515625">
        <ele>682.4000244140625</ele>
        <time>2019-04-30T08:46:03.000Z</time>
      </trkpt>
      <trkpt lat="40.9543948061764240264892578125" lon="-7.582790963351726531982421875">
        <ele>676.5999755859375</ele>
        <time>2019-04-30T08:46:13.000Z</time>
      </trkpt>
      <trkpt lat="40.9548175893723964691162109375" lon="-7.58246205747127532958984375">
        <ele>671.20001220703125</ele>
        <time>2019-04-30T08:46:20.000Z</time>
      </trkpt>
      <trkpt lat="40.955403484404087066650390625" lon="-7.58246834389865398406982421875">
        <ele>665.5999755859375</ele>
        <time>2019-04-30T08:46:27.000Z</time>
      </trkpt>
      <trkpt lat="40.95549258403480052947998046875" lon="-7.5825115106999874114990234375">
        <ele>664.79998779296875</ele>
        <time>2019-04-30T08:46:28.000Z</time>
      </trkpt>
      <trkpt lat="40.95599147491157054901123046875" lon="-7.58282340131700038909912109375">
        <ele>662.5999755859375</ele>
        <time>2019-04-30T08:46:34.000Z</time>
      </trkpt>
      <trkpt lat="40.95650478266179561614990234375" lon="-7.58308910764753818511962890625">
        <ele>659.20001220703125</ele>
        <time>2019-04-30T08:46:40.000Z</time>
      </trkpt>
      <trkpt lat="40.9570701420307159423828125" lon="-7.58297746069729328155517578125">
        <ele>657</ele>
        <time>2019-04-30T08:46:46.000Z</time>
      </trkpt>
      <trkpt lat="40.95715505070984363555908203125" lon="-7.5829212181270122528076171875">
        <ele>656.79998779296875</ele>
        <time>2019-04-30T08:46:47.000Z</time>
      </trkpt>
      <trkpt lat="40.9576815180480480194091796875" lon="-7.582511343061923980712890625">
        <ele>655.4000244140625</ele>
        <time>2019-04-30T08:46:54.000Z</time>
      </trkpt>
      <trkpt lat="40.958148054778575897216796875" lon="-7.58225091733038425445556640625">
        <ele>653.20001220703125</ele>
        <time>2019-04-30T08:47:01.000Z</time>
      </trkpt>
      <trkpt lat="40.95831661485135555267333984375" lon="-7.5823190622031688690185546875">
        <ele>652.5999755859375</ele>
        <time>2019-04-30T08:47:06.000Z</time>
      </trkpt>
      <trkpt lat="40.95833438448607921600341796875" lon="-7.58234529756009578704833984375">
        <ele>652.4000244140625</ele>
        <time>2019-04-30T08:47:09.000Z</time>
      </trkpt>
      <trkpt lat="40.958344526588916778564453125" lon="-7.582359127700328826904296875">
        <ele>652.4000244140625</ele>
        <time>2019-04-30T08:47:15.000Z</time>
      </trkpt>
      <trkpt lat="40.9584218077361583709716796875" lon="-7.58247588761150836944580078125">
        <ele>652</ele>
        <time>2019-04-30T08:47:19.000Z</time>
      </trkpt>
      <trkpt lat="40.95837973058223724365234375" lon="-7.582717202603816986083984375">
        <ele>651.4000244140625</ele>
        <time>2019-04-30T08:47:23.000Z</time>
      </trkpt>
      <trkpt lat="40.9581951610743999481201171875" lon="-7.58344919420778751373291015625">
        <ele>649.4000244140625</ele>
        <time>2019-04-30T08:47:33.000Z</time>
      </trkpt>
      <trkpt lat="40.95801520161330699920654296875" lon="-7.58415545336902141571044921875">
        <ele>645.5999755859375</ele>
        <time>2019-04-30T08:47:41.000Z</time>
      </trkpt>
      <trkpt lat="40.9578736312687397003173828125" lon="-7.584860958158969879150390625">
        <ele>641.20001220703125</ele>
        <time>2019-04-30T08:47:48.000Z</time>
      </trkpt>
      <trkpt lat="40.9578488208353519439697265625" lon="-7.585643492639064788818359375">
        <ele>636.4000244140625</ele>
        <time>2019-04-30T08:47:55.000Z</time>
      </trkpt>
      <trkpt lat="40.957973040640354156494140625" lon="-7.5863406993448734283447265625">
        <ele>634.4000244140625</ele>
        <time>2019-04-30T08:48:01.000Z</time>
      </trkpt>
      <trkpt lat="40.95815015025436878204345703125" lon="-7.5870531611144542694091796875">
        <ele>636.4000244140625</ele>
        <time>2019-04-30T08:48:08.000Z</time>
      </trkpt>
      <trkpt lat="40.95834159292280673980712890625" lon="-7.58772161789238452911376953125">
        <ele>641.5999755859375</ele>
        <time>2019-04-30T08:48:21.000Z</time>
      </trkpt>
      <trkpt lat="40.95860796980559825897216796875" lon="-7.5883691199123859405517578125">
        <ele>647.5999755859375</ele>
        <time>2019-04-30T08:48:43.000Z</time>
      </trkpt>
      <trkpt lat="40.95891826786100864410400390625" lon="-7.58898745290935039520263671875">
        <ele>649</ele>
        <time>2019-04-30T08:49:07.000Z</time>
      </trkpt>
      <trkpt lat="40.95922839827835559844970703125" lon="-7.58959011174738407135009765625">
        <ele>651.5999755859375</ele>
        <time>2019-04-30T08:49:30.000Z</time>
      </trkpt>
      <trkpt lat="40.95944951288402080535888671875" lon="-7.59027256630361080169677734375">
        <ele>651.4000244140625</ele>
        <time>2019-04-30T08:49:54.000Z</time>
      </trkpt>
      <trkpt lat="40.9595758281648159027099609375" lon="-7.59102392010390758514404296875">
        <ele>648.79998779296875</ele>
        <time>2019-04-30T08:50:09.000Z</time>
      </trkpt>
      <trkpt lat="40.95969309099018573760986328125" lon="-7.591775692999362945556640625">
        <ele>648.20001220703125</ele>
        <time>2019-04-30T08:50:21.000Z</time>
      </trkpt>
      <trkpt lat="40.959882438182830810546875" lon="-7.59244783781468868255615234375">
        <ele>648.79998779296875</ele>
        <time>2019-04-30T08:50:33.000Z</time>
      </trkpt>
      <trkpt lat="40.96024386584758758544921875" lon="-7.59299986995756626129150390625">
        <ele>650.4000244140625</ele>
        <time>2019-04-30T08:50:46.000Z</time>
      </trkpt>
      <trkpt lat="40.9606470353901386260986328125" lon="-7.59350814856588840484619140625">
        <ele>648.20001220703125</ele>
        <time>2019-04-30T08:50:59.000Z</time>
      </trkpt>
      <trkpt lat="40.9610356204211711883544921875" lon="-7.59401106275618076324462890625">
        <ele>650.4000244140625</ele>
        <time>2019-04-30T08:51:13.000Z</time>
      </trkpt>
      <trkpt lat="40.9614394605159759521484375" lon="-7.594535015523433685302734375">
        <ele>654</ele>
        <time>2019-04-30T08:51:30.000Z</time>
      </trkpt>
      <trkpt lat="40.9618345834314823150634765625" lon="-7.595036923885345458984375">
        <ele>658.79998779296875</ele>
        <time>2019-04-30T08:51:48.000Z</time>
      </trkpt>
      <trkpt lat="40.962235741317272186279296875" lon="-7.59555299766361713409423828125">
        <ele>661.20001220703125</ele>
        <time>2019-04-30T08:52:07.000Z</time>
      </trkpt>
      <trkpt lat="40.962638072669506072998046875" lon="-7.596051134169101715087890625">
        <ele>666.79998779296875</ele>
        <time>2019-04-30T08:52:28.000Z</time>
      </trkpt>
      <trkpt lat="40.96304652281105518341064453125" lon="-7.596556730568408966064453125">
        <ele>670.20001220703125</ele>
        <time>2019-04-30T08:52:50.000Z</time>
      </trkpt>
      <trkpt lat="40.96313252113759517669677734375" lon="-7.596637196838855743408203125">
        <ele>670.5999755859375</ele>
        <time>2019-04-30T08:52:54.000Z</time>
      </trkpt>
      <trkpt lat="40.9632256440818309783935546875" lon="-7.59669226594269275665283203125">
        <ele>670.4000244140625</ele>
        <time>2019-04-30T08:52:58.000Z</time>
      </trkpt>
      <trkpt lat="40.96328959800302982330322265625" lon="-7.5968415476381778717041015625">
        <ele>671.5999755859375</ele>
        <time>2019-04-30T08:53:03.000Z</time>
      </trkpt>
      <trkpt lat="40.963672064244747161865234375" lon="-7.59736717678606510162353515625">
        <ele>672</ele>
        <time>2019-04-30T08:53:24.000Z</time>
      </trkpt>
      <trkpt lat="40.9640447236597537994384765625" lon="-7.59788333438336849212646484375">
        <ele>671.79998779296875</ele>
        <time>2019-04-30T08:53:44.000Z</time>
      </trkpt>
      <trkpt lat="40.9643769823014736175537109375" lon="-7.59848834015429019927978515625">
        <ele>674.4000244140625</ele>
        <time>2019-04-30T08:54:00.000Z</time>
      </trkpt>
      <trkpt lat="40.9646044671535491943359375" lon="-7.5991576351225376129150390625">
        <ele>676.79998779296875</ele>
        <time>2019-04-30T08:54:17.000Z</time>
      </trkpt>
      <trkpt lat="40.9647390805184841156005859375" lon="-7.5998489744961261749267578125">
        <ele>676.79998779296875</ele>
        <time>2019-04-30T08:54:33.000Z</time>
      </trkpt>
      <trkpt lat="40.96488618291914463043212890625" lon="-7.60056738741695880889892578125">
        <ele>678</ele>
        <time>2019-04-30T08:54:50.000Z</time>
      </trkpt>
      <trkpt lat="40.96497058868408203125" lon="-7.601276077330112457275390625">
        <ele>677</ele>
        <time>2019-04-30T08:55:04.000Z</time>
      </trkpt>
      <trkpt lat="40.9650894440710544586181640625" lon="-7.6020275987684726715087890625">
        <ele>674.20001220703125</ele>
        <time>2019-04-30T08:55:15.000Z</time>
      </trkpt>
      <trkpt lat="40.965214669704437255859375" lon="-7.60281675495207309722900390625">
        <ele>672</ele>
        <time>2019-04-30T08:55:24.000Z</time>
      </trkpt>
      <trkpt lat="40.96545078791677951812744140625" lon="-7.60349099524319171905517578125">
        <ele>669.79998779296875</ele>
        <time>2019-04-30T08:55:31.000Z</time>
      </trkpt>
      <trkpt lat="40.96568313427269458770751953125" lon="-7.603797018527984619140625">
        <ele>670.79998779296875</ele>
        <time>2019-04-30T08:55:35.000Z</time>
      </trkpt>
      <trkpt lat="40.9661499224603176116943359375" lon="-7.604184933006763458251953125">
        <ele>672.5999755859375</ele>
        <time>2019-04-30T08:55:46.000Z</time>
      </trkpt>
      <trkpt lat="40.96663515083491802215576171875" lon="-7.60456203483045101165771484375">
        <ele>675.20001220703125</ele>
        <time>2019-04-30T08:56:03.000Z</time>
      </trkpt>
      <trkpt lat="40.9671068005263805389404296875" lon="-7.60494659654796123504638671875">
        <ele>673.4000244140625</ele>
        <time>2019-04-30T08:56:18.000Z</time>
      </trkpt>
      <trkpt lat="40.96754441969096660614013671875" lon="-7.605416737496852874755859375">
        <ele>676.79998779296875</ele>
        <time>2019-04-30T08:56:29.000Z</time>
      </trkpt>
      <trkpt lat="40.9679641015827655792236328125" lon="-7.6059184782207012176513671875">
        <ele>676.5999755859375</ele>
        <time>2019-04-30T08:56:40.000Z</time>
      </trkpt>
      <trkpt lat="40.9684197418391704559326171875" lon="-7.60632692836225032806396484375">
        <ele>680.5999755859375</ele>
        <time>2019-04-30T08:56:51.000Z</time>
      </trkpt>
      <trkpt lat="40.9689786471426486968994140625" lon="-7.60642952285706996917724609375">
        <ele>681.4000244140625</ele>
        <time>2019-04-30T08:57:05.000Z</time>
      </trkpt>
      <trkpt lat="40.9695217944681644439697265625" lon="-7.606479562819004058837890625">
        <ele>685</ele>
        <time>2019-04-30T08:57:25.000Z</time>
      </trkpt>
      <trkpt lat="40.97007223404943943023681640625" lon="-7.60648115538060665130615234375">
        <ele>688.20001220703125</ele>
        <time>2019-04-30T08:57:47.000Z</time>
      </trkpt>
      <trkpt lat="40.9703271277248859405517578125" lon="-7.60644528083503246307373046875">
        <ele>689.5999755859375</ele>
        <time>2019-04-30T08:57:59.000Z</time>
      </trkpt>
      <trkpt lat="40.97047381103038787841796875" lon="-7.6065414212644100189208984375">
        <ele>690.79998779296875</ele>
        <time>2019-04-30T08:58:07.000Z</time>
      </trkpt>
      <trkpt lat="40.9710342250764369964599609375" lon="-7.60659045539796352386474609375">
        <ele>694.5999755859375</ele>
        <time>2019-04-30T08:58:31.000Z</time>
      </trkpt>
      <trkpt lat="40.97158013842999935150146484375" lon="-7.6066379807889461517333984375">
        <ele>697.4000244140625</ele>
        <time>2019-04-30T08:58:53.000Z</time>
      </trkpt>
      <trkpt lat="40.972136445343494415283203125" lon="-7.6066792197525501251220703125">
        <ele>698.79998779296875</ele>
        <time>2019-04-30T08:59:14.000Z</time>
      </trkpt>
      <trkpt lat="40.9726968593895435333251953125" lon="-7.6067090593278408050537109375">
        <ele>698</ele>
        <time>2019-04-30T08:59:37.000Z</time>
      </trkpt>
      <trkpt lat="40.9732044674456119537353515625" lon="-7.60700569488108158111572265625">
        <ele>695.79998779296875</ele>
        <time>2019-04-30T08:59:57.000Z</time>
      </trkpt>
      <trkpt lat="40.9735896997153759002685546875" lon="-7.60759770870208740234375">
        <ele>694</ele>
        <time>2019-04-30T09:00:08.000Z</time>
      </trkpt>
      <trkpt lat="40.97395506687462329864501953125" lon="-7.60820933617651462554931640625">
        <ele>689</ele>
        <time>2019-04-30T09:00:16.000Z</time>
      </trkpt>
      <trkpt lat="40.9743068553507328033447265625" lon="-7.6088001765310764312744140625">
        <ele>683.4000244140625</ele>
        <time>2019-04-30T09:00:23.000Z</time>
      </trkpt>
      <trkpt lat="40.97464640624821186065673828125" lon="-7.60936939157545566558837890625">
        <ele>682</ele>
        <time>2019-04-30T09:00:29.000Z</time>
      </trkpt>
      <trkpt lat="40.9749924950301647186279296875" lon="-7.60994506068527698516845703125">
        <ele>678.20001220703125</ele>
        <time>2019-04-30T09:00:35.000Z</time>
      </trkpt>
      <trkpt lat="40.9753468818962574005126953125" lon="-7.61054084636270999908447265625">
        <ele>675.5999755859375</ele>
        <time>2019-04-30T09:00:41.000Z</time>
      </trkpt>
      <trkpt lat="40.9757022745907306671142578125" lon="-7.61113084852695465087890625">
        <ele>675.20001220703125</ele>
        <time>2019-04-30T09:00:48.000Z</time>
      </trkpt>
      <trkpt lat="40.97591944970190525054931640625" lon="-7.611491940915584564208984375">
        <ele>675.20001220703125</ele>
        <time>2019-04-30T09:00:53.000Z</time>
      </trkpt>
      <trkpt lat="40.97634726203978061676025390625" lon="-7.61196660809218883514404296875">
        <ele>675.5999755859375</ele>
        <time>2019-04-30T09:01:01.000Z</time>
      </trkpt>
      <trkpt lat="40.9768844582140445709228515625" lon="-7.6121871359646320343017578125">
        <ele>673.4000244140625</ele>
        <time>2019-04-30T09:01:08.000Z</time>
      </trkpt>
      <trkpt lat="40.9774688445031642913818359375" lon="-7.61238235048949718475341796875">
        <ele>672.4000244140625</ele>
        <time>2019-04-30T09:01:16.000Z</time>
      </trkpt>
      <trkpt lat="40.9779955632984638214111328125" lon="-7.61254076845943927764892578125">
        <ele>675</ele>
        <time>2019-04-30T09:01:26.000Z</time>
      </trkpt>
      <trkpt lat="40.9783925302326679229736328125" lon="-7.61267638765275478363037109375">
        <ele>673.4000244140625</ele>
        <time>2019-04-30T09:01:36.000Z</time>
      </trkpt>
      <trkpt lat="40.97895537503063678741455078125" lon="-7.6128187961876392364501953125">
        <ele>670.79998779296875</ele>
        <time>2019-04-30T09:01:50.000Z</time>
      </trkpt>
      <trkpt lat="40.979465581476688385009765625" lon="-7.6129887811839580535888671875">
        <ele>670.20001220703125</ele>
        <time>2019-04-30T09:02:08.000Z</time>
      </trkpt>
      <trkpt lat="40.97947723232209682464599609375" lon="-7.61299624107778072357177734375">
        <ele>670.20001220703125</ele>
        <time>2019-04-30T09:02:47.000Z</time>
      </trkpt>
      <trkpt lat="40.980022139847278594970703125" lon="-7.6130491308867931365966796875">
        <ele>668.5999755859375</ele>
        <time>2019-04-30T09:03:05.000Z</time>
      </trkpt>
      <trkpt lat="40.9802539832890033721923828125" lon="-7.61263850145041942596435546875">
        <ele>665.79998779296875</ele>
        <time>2019-04-30T09:03:16.000Z</time>
      </trkpt>
      <trkpt lat="40.98044718615710735321044921875" lon="-7.6123282872140407562255859375">
        <ele>664.4000244140625</ele>
        <time>2019-04-30T09:03:22.000Z</time>
      </trkpt>
      <trkpt lat="40.98077215254306793212890625" lon="-7.61188010685145854949951171875">
        <ele>662.5999755859375</ele>
        <time>2019-04-30T09:03:32.000Z</time>
      </trkpt>
      <trkpt lat="40.98108823411166667938232421875" lon="-7.61151214130222797393798828125">
        <ele>660.5999755859375</ele>
        <time>2019-04-30T09:03:44.000Z</time>
      </trkpt>
      <trkpt lat="40.98115579225122928619384765625" lon="-7.6115427352488040924072265625">
        <ele>660</ele>
        <time>2019-04-30T09:03:49.000Z</time>
      </trkpt>
      <trkpt lat="40.981162078678607940673828125" lon="-7.6115310005843639373779296875">
        <ele>660</ele>
        <time>2019-04-30T09:06:58.000Z</time>
      </trkpt>
      <trkpt lat="40.98132426850497722625732421875" lon="-7.6114654541015625">
        <ele>659</ele>
        <time>2019-04-30T09:07:12.000Z</time>
      </trkpt>
      <trkpt lat="40.981318652629852294921875" lon="-7.611461095511913299560546875">
        <ele>659</ele>
        <time>2019-04-30T09:07:13.000Z</time>
      </trkpt>
      <trkpt lat="40.98125905729830265045166015625" lon="-7.61145673692226409912109375">
        <ele>659.4000244140625</ele>
        <time>2019-04-30T09:12:52.000Z</time>
      </trkpt>
      <trkpt lat="40.9812011383473873138427734375" lon="-7.6115038432180881500244140625">
        <ele>659.79998779296875</ele>
        <time>2019-04-30T09:12:56.000Z</time>
      </trkpt>
      <trkpt lat="40.98115562461316585540771484375" lon="-7.61152119375765323638916015625">
        <ele>660</ele>
        <time>2019-04-30T09:12:59.000Z</time>
      </trkpt>
      <trkpt lat="40.98109309561550617218017578125" lon="-7.61151649989187717437744140625">
        <ele>660.5999755859375</ele>
        <time>2019-04-30T09:13:03.000Z</time>
      </trkpt>
      <trkpt lat="40.981080941855907440185546875" lon="-7.61152203194797039031982421875">
        <ele>660.5999755859375</ele>
        <time>2019-04-30T09:13:04.000Z</time>
      </trkpt>
      <trkpt lat="40.980977006256580352783203125" lon="-7.61165396310389041900634765625">
        <ele>661.20001220703125</ele>
        <time>2019-04-30T09:13:10.000Z</time>
      </trkpt>
      <trkpt lat="40.9806043468415737152099609375" lon="-7.61220297776162624359130859375">
        <ele>663.79998779296875</ele>
        <time>2019-04-30T09:13:31.000Z</time>
      </trkpt>
      <trkpt lat="40.98023973405361175537109375" lon="-7.6127450354397296905517578125">
        <ele>666.4000244140625</ele>
        <time>2019-04-30T09:13:54.000Z</time>
      </trkpt>
      <trkpt lat="40.98007134161889553070068359375" lon="-7.61339790187776088714599609375">
        <ele>669.20001220703125</ele>
        <time>2019-04-30T09:14:18.000Z</time>
      </trkpt>
      <trkpt lat="40.9803931228816509246826171875" lon="-7.61401866562664508819580078125">
        <ele>670.79998779296875</ele>
        <time>2019-04-30T09:14:37.000Z</time>
      </trkpt>
      <trkpt lat="40.98069914616644382476806640625" lon="-7.6146081648766994476318359375">
        <ele>672.4000244140625</ele>
        <time>2019-04-30T09:14:52.000Z</time>
      </trkpt>
      <trkpt lat="40.9810187481343746185302734375" lon="-7.6152111589908599853515625">
        <ele>674.20001220703125</ele>
        <time>2019-04-30T09:15:08.000Z</time>
      </trkpt>
      <trkpt lat="40.98137908615171909332275390625" lon="-7.6157462596893310546875">
        <ele>676.4000244140625</ele>
        <time>2019-04-30T09:15:26.000Z</time>
      </trkpt>
      <trkpt lat="40.981878899037837982177734375" lon="-7.61609402485191822052001953125">
        <ele>680.79998779296875</ele>
        <time>2019-04-30T09:15:47.000Z</time>
      </trkpt>
      <trkpt lat="40.98237477242946624755859375" lon="-7.61637984775006771087646484375">
        <ele>682.79998779296875</ele>
        <time>2019-04-30T09:16:07.000Z</time>
      </trkpt>
      <trkpt lat="40.9828845597803592681884765625" lon="-7.61666483245790004730224609375">
        <ele>686.4000244140625</ele>
        <time>2019-04-30T09:16:28.000Z</time>
      </trkpt>
      <trkpt lat="40.983396358788013458251953125" lon="-7.61690857820212841033935546875">
        <ele>690</ele>
        <time>2019-04-30T09:16:49.000Z</time>
      </trkpt>
      <trkpt lat="40.98391645587980747222900390625" lon="-7.6171508990228176116943359375">
        <ele>693.4000244140625</ele>
        <time>2019-04-30T09:17:10.000Z</time>
      </trkpt>
      <trkpt lat="40.98442976363003253936767578125" lon="-7.61740042828023433685302734375">
        <ele>695.4000244140625</ele>
        <time>2019-04-30T09:17:29.000Z</time>
      </trkpt>
      <trkpt lat="40.984921194612979888916015625" lon="-7.61774425394833087921142578125">
        <ele>695.4000244140625</ele>
        <time>2019-04-30T09:17:47.000Z</time>
      </trkpt>
      <trkpt lat="40.985377170145511627197265625" lon="-7.61817843653261661529541015625">
        <ele>697</ele>
        <time>2019-04-30T09:18:04.000Z</time>
      </trkpt>
      <trkpt lat="40.98580657504498958587646484375" lon="-7.618629634380340576171875">
        <ele>697.5999755859375</ele>
        <time>2019-04-30T09:18:20.000Z</time>
      </trkpt>
      <trkpt lat="40.986208654940128326416015625" lon="-7.61915811337530612945556640625">
        <ele>698.20001220703125</ele>
        <time>2019-04-30T09:18:36.000Z</time>
      </trkpt>
      <trkpt lat="40.98663303069770336151123046875" lon="-7.6196128316223621368408203125">
        <ele>699.5999755859375</ele>
        <time>2019-04-30T09:18:52.000Z</time>
      </trkpt>
      <trkpt lat="40.986810810863971710205078125" lon="-7.62031875550746917724609375">
        <ele>702</ele>
        <time>2019-04-30T09:19:07.000Z</time>
      </trkpt>
      <trkpt lat="40.98699999041855335235595703125" lon="-7.62098402716219425201416015625">
        <ele>702.5999755859375</ele>
        <time>2019-04-30T09:19:25.000Z</time>
      </trkpt>
      <trkpt lat="40.98709881305694580078125" lon="-7.6215679943561553955078125">
        <ele>701</ele>
        <time>2019-04-30T09:19:38.000Z</time>
      </trkpt>
      <trkpt lat="40.98711549304425716400146484375" lon="-7.622298896312713623046875">
        <ele>699</ele>
        <time>2019-04-30T09:19:49.000Z</time>
      </trkpt>
      <trkpt lat="40.98700434900820255279541015625" lon="-7.6230494119226932525634765625">
        <ele>696</ele>
        <time>2019-04-30T09:19:57.000Z</time>
      </trkpt>
      <trkpt lat="40.9867754392325878143310546875" lon="-7.6238168589770793914794921875">
        <ele>691.79998779296875</ele>
        <time>2019-04-30T09:20:04.000Z</time>
      </trkpt>
      <trkpt lat="40.986530520021915435791015625" lon="-7.624569050967693328857421875">
        <ele>687.20001220703125</ele>
        <time>2019-04-30T09:20:10.000Z</time>
      </trkpt>
      <trkpt lat="40.98629708401858806610107421875" lon="-7.6252924092113971710205078125">
        <ele>682.5999755859375</ele>
        <time>2019-04-30T09:20:16.000Z</time>
      </trkpt>
      <trkpt lat="40.98621929995715618133544921875" lon="-7.62561217881739139556884765625">
        <ele>681</ele>
        <time>2019-04-30T09:20:19.000Z</time>
      </trkpt>
      <trkpt lat="40.98596893250942230224609375" lon="-7.62627099640667438507080078125">
        <ele>677</ele>
        <time>2019-04-30T09:20:25.000Z</time>
      </trkpt>
      <trkpt lat="40.98570766858756542205810546875" lon="-7.6270415447652339935302734375">
        <ele>672.5999755859375</ele>
        <time>2019-04-30T09:20:31.000Z</time>
      </trkpt>
      <trkpt lat="40.9854544512927532196044921875" lon="-7.62780077755451202392578125">
        <ele>670</ele>
        <time>2019-04-30T09:20:37.000Z</time>
      </trkpt>
      <trkpt lat="40.985236354172229766845703125" lon="-7.62850393541157245635986328125">
        <ele>667.4000244140625</ele>
        <time>2019-04-30T09:20:43.000Z</time>
      </trkpt>
      <trkpt lat="40.98498548381030559539794921875" lon="-7.62926165945827960968017578125">
        <ele>666</ele>
        <time>2019-04-30T09:20:50.000Z</time>
      </trkpt>
      <trkpt lat="40.98476671613752841949462890625" lon="-7.62994495220482349395751953125">
        <ele>666</ele>
        <time>2019-04-30T09:20:57.000Z</time>
      </trkpt>
      <trkpt lat="40.9845542348921298980712890625" lon="-7.63062003068625926971435546875">
        <ele>665</ele>
        <time>2019-04-30T09:21:05.000Z</time>
      </trkpt>
      <trkpt lat="40.9844472818076610565185546875" lon="-7.63097458519041538238525390625">
        <ele>665.20001220703125</ele>
        <time>2019-04-30T09:21:10.000Z</time>
      </trkpt>
      <trkpt lat="40.98433203063905239105224609375" lon="-7.6316660083830356597900390625">
        <ele>667.4000244140625</ele>
        <time>2019-04-30T09:21:23.000Z</time>
      </trkpt>
      <trkpt lat="40.98423890769481658935546875" lon="-7.63237352482974529266357421875">
        <ele>670.20001220703125</ele>
        <time>2019-04-30T09:21:41.000Z</time>
      </trkpt>
      <trkpt lat="40.98422423936426639556884765625" lon="-7.63311750255525112152099609375">
        <ele>674.4000244140625</ele>
        <time>2019-04-30T09:22:02.000Z</time>
      </trkpt>
      <trkpt lat="40.984247960150241851806640625" lon="-7.6338459737598896026611328125">
        <ele>677.20001220703125</ele>
        <time>2019-04-30T09:22:22.000Z</time>
      </trkpt>
      <trkpt lat="40.98427570424973964691162109375" lon="-7.634588442742824554443359375">
        <ele>679.79998779296875</ele>
        <time>2019-04-30T09:22:42.000Z</time>
      </trkpt>
      <trkpt lat="40.98430462181568145751953125" lon="-7.63532102108001708984375">
        <ele>681.79998779296875</ele>
        <time>2019-04-30T09:23:01.000Z</time>
      </trkpt>
      <trkpt lat="40.9843249060213565826416015625" lon="-7.6360457204282283782958984375">
        <ele>684.4000244140625</ele>
        <time>2019-04-30T09:23:20.000Z</time>
      </trkpt>
      <trkpt lat="40.98434795625507831573486328125" lon="-7.6367682404816150665283203125">
        <ele>687</ele>
        <time>2019-04-30T09:23:39.000Z</time>
      </trkpt>
      <trkpt lat="40.98436907865107059478759765625" lon="-7.6374867372214794158935546875">
        <ele>691.20001220703125</ele>
        <time>2019-04-30T09:23:54.000Z</time>
      </trkpt>
      <trkpt lat="40.9843855910003185272216796875" lon="-7.63822962529957294464111328125">
        <ele>691</ele>
        <time>2019-04-30T09:24:11.000Z</time>
      </trkpt>
      <trkpt lat="40.9843976609408855438232421875" lon="-7.63878786005079746246337890625">
        <ele>689.5999755859375</ele>
        <time>2019-04-30T09:24:22.000Z</time>
      </trkpt>
      <trkpt lat="40.9843535721302032470703125" lon="-7.6395436562597751617431640625">
        <ele>686.5999755859375</ele>
        <time>2019-04-30T09:24:32.000Z</time>
      </trkpt>
      <trkpt lat="40.98423765040934085845947265625" lon="-7.6402433775365352630615234375">
        <ele>683.79998779296875</ele>
        <time>2019-04-30T09:24:40.000Z</time>
      </trkpt>
      <trkpt lat="40.9840811602771282196044921875" lon="-7.6410061307251453399658203125">
        <ele>679.79998779296875</ele>
        <time>2019-04-30T09:24:48.000Z</time>
      </trkpt>
      <trkpt lat="40.983935482800006866455078125" lon="-7.64174021780490875244140625">
        <ele>677.5999755859375</ele>
        <time>2019-04-30T09:24:55.000Z</time>
      </trkpt>
      <trkpt lat="40.98383364267647266387939453125" lon="-7.64249584637582302093505859375">
        <ele>675.79998779296875</ele>
        <time>2019-04-30T09:25:02.000Z</time>
      </trkpt>
      <trkpt lat="40.98383263684809207916259765625" lon="-7.643225826323032379150390625">
        <ele>674.5999755859375</ele>
        <time>2019-04-30T09:25:09.000Z</time>
      </trkpt>
      <trkpt lat="40.98394445143640041351318359375" lon="-7.6439310796558856964111328125">
        <ele>673</ele>
        <time>2019-04-30T09:25:17.000Z</time>
      </trkpt>
      <trkpt lat="40.98408191464841365814208984375" lon="-7.6446670107543468475341796875">
        <ele>674</ele>
        <time>2019-04-30T09:25:28.000Z</time>
      </trkpt>
      <trkpt lat="40.98422013223171234130859375" lon="-7.6454200409352779388427734375">
        <ele>675.4000244140625</ele>
        <time>2019-04-30T09:25:40.000Z</time>
      </trkpt>
      <trkpt lat="40.98434485495090484619140625" lon="-7.64615404419600963592529296875">
        <ele>674.20001220703125</ele>
        <time>2019-04-30T09:25:51.000Z</time>
      </trkpt>
      <trkpt lat="40.98447636701166629791259765625" lon="-7.646895758807659149169921875">
        <ele>672.79998779296875</ele>
        <time>2019-04-30T09:26:02.000Z</time>
      </trkpt>
      <trkpt lat="40.98461885936558246612548828125" lon="-7.64763110317289829254150390625">
        <ele>673.20001220703125</ele>
        <time>2019-04-30T09:26:13.000Z</time>
      </trkpt>
      <trkpt lat="40.9847493655979633331298828125" lon="-7.6483537070453166961669921875">
        <ele>675</ele>
        <time>2019-04-30T09:26:25.000Z</time>
      </trkpt>
      <trkpt lat="40.9848767705261707305908203125" lon="-7.64906692318618297576904296875">
        <ele>678</ele>
        <time>2019-04-30T09:26:39.000Z</time>
      </trkpt>
      <trkpt lat="40.985004007816314697265625" lon="-7.64976295642554759979248046875">
        <ele>680.5999755859375</ele>
        <time>2019-04-30T09:26:55.000Z</time>
      </trkpt>
      <trkpt lat="40.9851510263979434967041015625" lon="-7.65047726221382617950439453125">
        <ele>682.5999755859375</ele>
        <time>2019-04-30T09:27:12.000Z</time>
      </trkpt>
      <trkpt lat="40.98527013324201107025146484375" lon="-7.65090608038008213043212890625">
        <ele>684.5999755859375</ele>
        <time>2019-04-30T09:27:24.000Z</time>
      </trkpt>
      <trkpt lat="40.985323525965213775634765625" lon="-7.65088747255504131317138671875">
        <ele>684.5999755859375</ele>
        <time>2019-04-30T09:27:27.000Z</time>
      </trkpt>
      <trkpt lat="40.98532981239259243011474609375" lon="-7.6508940942585468292236328125">
        <ele>684.5999755859375</ele>
        <time>2019-04-30T09:27:29.000Z</time>
      </trkpt>
      <trkpt lat="40.98533048294484615325927734375" lon="-7.650909684598445892333984375">
        <ele>684.79998779296875</ele>
        <time>2019-04-30T09:30:13.000Z</time>
      </trkpt>
      <trkpt lat="40.98535009659826755523681640625" lon="-7.651597671210765838623046875">
        <ele>687</ele>
        <time>2019-04-30T09:30:32.000Z</time>
      </trkpt>
      <trkpt lat="40.985309779644012451171875" lon="-7.6523139886558055877685546875">
        <ele>689.20001220703125</ele>
        <time>2019-04-30T09:30:48.000Z</time>
      </trkpt>
      <trkpt lat="40.98506326787173748016357421875" lon="-7.652957551181316375732421875">
        <ele>692.5999755859375</ele>
        <time>2019-04-30T09:31:04.000Z</time>
      </trkpt>
      <trkpt lat="40.98508388735353946685791015625" lon="-7.6534460484981536865234375">
        <ele>694.5999755859375</ele>
        <time>2019-04-30T09:31:16.000Z</time>
      </trkpt>
      <trkpt lat="40.98508908413350582122802734375" lon="-7.6534835994243621826171875">
        <ele>694.5999755859375</ele>
        <time>2019-04-30T09:31:18.000Z</time>
      </trkpt>
      <trkpt lat="40.9850534610450267791748046875" lon="-7.65338175930082798004150390625">
        <ele>694.5999755859375</ele>
        <time>2019-04-30T09:31:25.000Z</time>
      </trkpt>
      <trkpt lat="40.98501029424369335174560546875" lon="-7.6533161289989948272705078125">
        <ele>694.5999755859375</ele>
        <time>2019-04-30T09:31:31.000Z</time>
      </trkpt>
      <trkpt lat="40.9850206039845943450927734375" lon="-7.6533560268580913543701171875">
        <ele>694.5999755859375</ele>
        <time>2019-04-30T09:33:28.000Z</time>
      </trkpt>
      <trkpt lat="40.9850719012320041656494140625" lon="-7.65344210900366306304931640625">
        <ele>694.5999755859375</ele>
        <time>2019-04-30T09:33:32.000Z</time>
      </trkpt>
      <trkpt lat="40.98510735668241977691650390625" lon="-7.65417619608342647552490234375">
        <ele>696.20001220703125</ele>
        <time>2019-04-30T09:33:51.000Z</time>
      </trkpt>
      <trkpt lat="40.98511003889143466949462890625" lon="-7.65491162426769733428955078125">
        <ele>698.79998779296875</ele>
        <time>2019-04-30T09:34:09.000Z</time>
      </trkpt>
      <trkpt lat="40.9851406328380107879638671875" lon="-7.65565157867968082427978515625">
        <ele>700</ele>
        <time>2019-04-30T09:34:26.000Z</time>
      </trkpt>
      <trkpt lat="40.98528555594384670257568359375" lon="-7.6563562452793121337890625">
        <ele>701</ele>
        <time>2019-04-30T09:34:43.000Z</time>
      </trkpt>
      <trkpt lat="40.98546844907104969024658203125" lon="-7.6570306532084941864013671875">
        <ele>701.4000244140625</ele>
        <time>2019-04-30T09:34:59.000Z</time>
      </trkpt>
      <trkpt lat="40.98566978238523006439208984375" lon="-7.6577236689627170562744140625">
        <ele>703.4000244140625</ele>
        <time>2019-04-30T09:35:15.000Z</time>
      </trkpt>
      <trkpt lat="40.9860730357468128204345703125" lon="-7.658180482685565948486328125">
        <ele>704.20001220703125</ele>
        <time>2019-04-30T09:35:29.000Z</time>
      </trkpt>
      <trkpt lat="40.98661391995847225189208984375" lon="-7.65847108326852321624755859375">
        <ele>705.20001220703125</ele>
        <time>2019-04-30T09:35:42.000Z</time>
      </trkpt>
      <trkpt lat="40.98709403537213802337646484375" lon="-7.65882915817201137542724609375">
        <ele>708.79998779296875</ele>
        <time>2019-04-30T09:35:55.000Z</time>
      </trkpt>
      <trkpt lat="40.98736762069165706634521484375" lon="-7.65945528633892536163330078125">
        <ele>712.5999755859375</ele>
        <time>2019-04-30T09:36:14.000Z</time>
      </trkpt>
      <trkpt lat="40.98747423849999904632568359375" lon="-7.660187445580959320068359375">
        <ele>715.4000244140625</ele>
        <time>2019-04-30T09:36:34.000Z</time>
      </trkpt>
      <trkpt lat="40.98757280968129634857177734375" lon="-7.66078054904937744140625">
        <ele>718.4000244140625</ele>
        <time>2019-04-30T09:36:54.000Z</time>
      </trkpt>
      <trkpt lat="40.98757448606193065643310546875" lon="-7.6608658768236637115478515625">
        <ele>718.79998779296875</ele>
        <time>2019-04-30T09:39:46.000Z</time>
      </trkpt>
      <trkpt lat="40.9875891543924808502197265625" lon="-7.6609909348189830780029296875">
        <ele>719.4000244140625</ele>
        <time>2019-04-30T09:39:50.000Z</time>
      </trkpt>
      <trkpt lat="40.9877001307904720306396484375" lon="-7.66170448623597621917724609375">
        <ele>724.4000244140625</ele>
        <time>2019-04-30T09:40:10.000Z</time>
      </trkpt>
      <trkpt lat="40.98780498839914798736572265625" lon="-7.66242248006165027618408203125">
        <ele>730.4000244140625</ele>
        <time>2019-04-30T09:40:30.000Z</time>
      </trkpt>
      <trkpt lat="40.98796508274972438812255859375" lon="-7.66313661821186542510986328125">
        <ele>735</ele>
        <time>2019-04-30T09:40:50.000Z</time>
      </trkpt>
      <trkpt lat="40.98812484182417392730712890625" lon="-7.66384907998144626617431640625">
        <ele>738.79998779296875</ele>
        <time>2019-04-30T09:41:10.000Z</time>
      </trkpt>
      <trkpt lat="40.98821586929261684417724609375" lon="-7.66455349512398242950439453125">
        <ele>742.5999755859375</ele>
        <time>2019-04-30T09:41:29.000Z</time>
      </trkpt>
      <trkpt lat="40.988295078277587890625" lon="-7.66527785919606685638427734375">
        <ele>745</ele>
        <time>2019-04-30T09:41:48.000Z</time>
      </trkpt>
      <trkpt lat="40.98860730417072772979736328125" lon="-7.66584363766014575958251953125">
        <ele>746.4000244140625</ele>
        <time>2019-04-30T09:42:06.000Z</time>
      </trkpt>
      <trkpt lat="40.98912295885384082794189453125" lon="-7.66612526960670948028564453125">
        <ele>749.20001220703125</ele>
        <time>2019-04-30T09:42:23.000Z</time>
      </trkpt>
      <trkpt lat="40.98963090218603610992431640625" lon="-7.66640539281070232391357421875">
        <ele>750.4000244140625</ele>
        <time>2019-04-30T09:42:42.000Z</time>
      </trkpt>
      <trkpt lat="40.9901506640017032623291015625" lon="-7.66669272445142269134521484375">
        <ele>752.79998779296875</ele>
        <time>2019-04-30T09:43:01.000Z</time>
      </trkpt>
      <trkpt lat="40.990657769143581390380859375" lon="-7.66698106192052364349365234375">
        <ele>756.4000244140625</ele>
        <time>2019-04-30T09:43:21.000Z</time>
      </trkpt>
      <trkpt lat="40.99116378463804721832275390625" lon="-7.66727191396057605743408203125">
        <ele>759</ele>
        <time>2019-04-30T09:43:40.000Z</time>
      </trkpt>
      <trkpt lat="40.99166871048510074615478515625" lon="-7.6675452478229999542236328125">
        <ele>761</ele>
        <time>2019-04-30T09:43:59.000Z</time>
      </trkpt>
      <trkpt lat="40.99218956194818019866943359375" lon="-7.66784087754786014556884765625">
        <ele>763.79998779296875</ele>
        <time>2019-04-30T09:44:18.000Z</time>
      </trkpt>
      <trkpt lat="40.992698930203914642333984375" lon="-7.668118067085742950439453125">
        <ele>765.5999755859375</ele>
        <time>2019-04-30T09:44:36.000Z</time>
      </trkpt>
      <trkpt lat="40.993216931819915771484375" lon="-7.66838905401527881622314453125">
        <ele>767.79998779296875</ele>
        <time>2019-04-30T09:44:54.000Z</time>
      </trkpt>
      <trkpt lat="40.9932989068329334259033203125" lon="-7.6683971844613552093505859375">
        <ele>767.5999755859375</ele>
        <time>2019-04-30T09:44:57.000Z</time>
      </trkpt>
      <trkpt lat="40.99336185492575168609619140625" lon="-7.66843624413013458251953125">
        <ele>768</ele>
        <time>2019-04-30T09:45:02.000Z</time>
      </trkpt>
      <trkpt lat="40.99339672364294528961181640625" lon="-7.66846574842929840087890625">
        <ele>768.20001220703125</ele>
        <time>2019-04-30T09:45:38.000Z</time>
      </trkpt>
      <trkpt lat="40.9938849695026874542236328125" lon="-7.66878300346434116363525390625">
        <ele>770.20001220703125</ele>
        <time>2019-04-30T09:45:58.000Z</time>
      </trkpt>
      <trkpt lat="40.994407832622528076171875" lon="-7.66906396485865116119384765625">
        <ele>773.5999755859375</ele>
        <time>2019-04-30T09:46:16.000Z</time>
      </trkpt>
      <trkpt lat="40.99491971544921398162841796875" lon="-7.66932648606598377227783203125">
        <ele>774.5999755859375</ele>
        <time>2019-04-30T09:46:32.000Z</time>
      </trkpt>
      <trkpt lat="40.9954500384628772735595703125" lon="-7.66949680633842945098876953125">
        <ele>775.4000244140625</ele>
        <time>2019-04-30T09:46:47.000Z</time>
      </trkpt>
      <trkpt lat="40.9959884919226169586181640625" lon="-7.66966243274509906768798828125">
        <ele>777.5999755859375</ele>
        <time>2019-04-30T09:47:03.000Z</time>
      </trkpt>
      <trkpt lat="40.996520407497882843017578125" lon="-7.6698130555450916290283203125">
        <ele>780</ele>
        <time>2019-04-30T09:47:19.000Z</time>
      </trkpt>
      <trkpt lat="40.99705986678600311279296875" lon="-7.66997474245727062225341796875">
        <ele>783.79998779296875</ele>
        <time>2019-04-30T09:47:36.000Z</time>
      </trkpt>
      <trkpt lat="40.9976169280707836151123046875" lon="-7.67009653151035308837890625">
        <ele>787.20001220703125</ele>
        <time>2019-04-30T09:47:54.000Z</time>
      </trkpt>
      <trkpt lat="40.998157225549221038818359375" lon="-7.67006702721118927001953125">
        <ele>790.4000244140625</ele>
        <time>2019-04-30T09:48:12.000Z</time>
      </trkpt>
      <trkpt lat="40.9986891411244869232177734375" lon="-7.66983007080852985382080078125">
        <ele>793</ele>
        <time>2019-04-30T09:48:30.000Z</time>
      </trkpt>
      <trkpt lat="40.99892090074717998504638671875" lon="-7.669660337269306182861328125">
        <ele>793.79998779296875</ele>
        <time>2019-04-30T09:48:42.000Z</time>
      </trkpt>
      <trkpt lat="40.99892660044133663177490234375" lon="-7.6696638576686382293701171875">
        <ele>793.79998779296875</ele>
        <time>2019-04-30T09:48:56.000Z</time>
      </trkpt>
      <trkpt lat="40.999396741390228271484375" lon="-7.66926697455346584320068359375">
        <ele>795.20001220703125</ele>
        <time>2019-04-30T09:49:16.000Z</time>
      </trkpt>
      <trkpt lat="40.99988699890673160552978515625" lon="-7.66888056881725788116455078125">
        <ele>797.20001220703125</ele>
        <time>2019-04-30T09:49:34.000Z</time>
      </trkpt>
      <trkpt lat="41.0003517754375934600830078125" lon="-7.66851344145834445953369140625">
        <ele>799</ele>
        <time>2019-04-30T09:49:50.000Z</time>
      </trkpt>
      <trkpt lat="41.00082342512905597686767578125" lon="-7.66814396716654300689697265625">
        <ele>801.20001220703125</ele>
        <time>2019-04-30T09:50:06.000Z</time>
      </trkpt>
      <trkpt lat="41.00130454637110233306884765625" lon="-7.66776778735220432281494140625">
        <ele>803.79998779296875</ele>
        <time>2019-04-30T09:50:22.000Z</time>
      </trkpt>
      <trkpt lat="41.001770161092281341552734375" lon="-7.6674014143645763397216796875">
        <ele>807</ele>
        <time>2019-04-30T09:50:40.000Z</time>
      </trkpt>
      <trkpt lat="41.00188314914703369140625" lon="-7.66722145490348339080810546875">
        <ele>807.79998779296875</ele>
        <time>2019-04-30T09:50:49.000Z</time>
      </trkpt>
      <trkpt lat="41.00188625045120716094970703125" lon="-7.66721776686608791351318359375">
        <ele>807.79998779296875</ele>
        <time>2019-04-30T09:52:03.000Z</time>
      </trkpt>
      <trkpt lat="41.001958586275577545166015625" lon="-7.66708306968212127685546875">
        <ele>808.20001220703125</ele>
        <time>2019-04-30T09:52:08.000Z</time>
      </trkpt>
      <trkpt lat="41.00207065232098102569580078125" lon="-7.66704074107110500335693359375">
        <ele>809.20001220703125</ele>
        <time>2019-04-30T09:52:12.000Z</time>
      </trkpt>
      <trkpt lat="41.0025692917406558990478515625" lon="-7.66677050851285457611083984375">
        <ele>812.79998779296875</ele>
        <time>2019-04-30T09:52:30.000Z</time>
      </trkpt>
      <trkpt lat="41.0030896402895450592041015625" lon="-7.66647479496896266937255859375">
        <ele>816.4000244140625</ele>
        <time>2019-04-30T09:52:49.000Z</time>
      </trkpt>
      <trkpt lat="41.0036279261112213134765625" lon="-7.66636197455227375030517578125">
        <ele>817.20001220703125</ele>
        <time>2019-04-30T09:53:08.000Z</time>
      </trkpt>
      <trkpt lat="41.00419429130852222442626953125" lon="-7.66644428484141826629638671875">
        <ele>819.79998779296875</ele>
        <time>2019-04-30T09:53:28.000Z</time>
      </trkpt>
      <trkpt lat="41.00472536869347095489501953125" lon="-7.66661460511386394500732421875">
        <ele>821.4000244140625</ele>
        <time>2019-04-30T09:53:44.000Z</time>
      </trkpt>
      <trkpt lat="41.00527220405638217926025390625" lon="-7.66678140498697757720947265625">
        <ele>824.4000244140625</ele>
        <time>2019-04-30T09:54:01.000Z</time>
      </trkpt>
      <trkpt lat="41.00582524202764034271240234375" lon="-7.66695088706910610198974609375">
        <ele>827</ele>
        <time>2019-04-30T09:54:17.000Z</time>
      </trkpt>
      <trkpt lat="41.0063662938773632049560546875" lon="-7.667117603123188018798828125">
        <ele>830.20001220703125</ele>
        <time>2019-04-30T09:54:37.000Z</time>
      </trkpt>
      <trkpt lat="41.006910614669322967529296875" lon="-7.667287923395633697509765625">
        <ele>834</ele>
        <time>2019-04-30T09:54:57.000Z</time>
      </trkpt>
      <trkpt lat="41.00744931958615779876708984375" lon="-7.6674610935151576995849609375">
        <ele>838</ele>
        <time>2019-04-30T09:55:16.000Z</time>
      </trkpt>
      <trkpt lat="41.00799129344522953033447265625" lon="-7.66762764193117618560791015625">
        <ele>842</ele>
        <time>2019-04-30T09:55:36.000Z</time>
      </trkpt>
      <trkpt lat="41.00852455012500286102294921875" lon="-7.6677931845188140869140625">
        <ele>844.4000244140625</ele>
        <time>2019-04-30T09:55:59.000Z</time>
      </trkpt>
      <trkpt lat="41.0090545378625392913818359375" lon="-7.66796258278191089630126953125">
        <ele>845.4000244140625</ele>
        <time>2019-04-30T09:56:19.000Z</time>
      </trkpt>
      <trkpt lat="41.00958368740975856781005859375" lon="-7.6681282930076122283935546875">
        <ele>846.5999755859375</ele>
        <time>2019-04-30T09:56:41.000Z</time>
      </trkpt>
      <trkpt lat="41.01012046448886394500732421875" lon="-7.6683100126683712005615234375">
        <ele>841.5999755859375</ele>
        <time>2019-04-30T09:56:59.000Z</time>
      </trkpt>
      <trkpt lat="41.0103321075439453125" lon="-7.66843616031110286712646484375">
        <ele>838.4000244140625</ele>
        <time>2019-04-30T09:57:05.000Z</time>
      </trkpt>
      <trkpt lat="41.01040326990187168121337890625" lon="-7.668513357639312744140625">
        <ele>837.4000244140625</ele>
        <time>2019-04-30T09:57:07.000Z</time>
      </trkpt>
      <trkpt lat="41.01050787605345249176025390625" lon="-7.66865325160324573516845703125">
        <ele>836.20001220703125</ele>
        <time>2019-04-30T09:57:10.000Z</time>
      </trkpt>
      <trkpt lat="41.01066947914659976959228515625" lon="-7.66896120272576808929443359375">
        <ele>835.5999755859375</ele>
        <time>2019-04-30T09:57:15.000Z</time>
      </trkpt>
      <trkpt lat="41.010789088904857635498046875" lon="-7.669431008398532867431640625">
        <ele>836.5999755859375</ele>
        <time>2019-04-30T09:57:21.000Z</time>
      </trkpt>
      <trkpt lat="41.010789088904857635498046875" lon="-7.669999301433563232421875">
        <ele>838.20001220703125</ele>
        <time>2019-04-30T09:57:28.000Z</time>
      </trkpt>
      <trkpt lat="41.01092747412621974945068359375" lon="-7.67016551457345485687255859375">
        <ele>837.5999755859375</ele>
        <time>2019-04-30T09:57:32.000Z</time>
      </trkpt>
      <trkpt lat="41.0109622590243816375732421875" lon="-7.67019853927195072174072265625">
        <ele>837.4000244140625</ele>
        <time>2019-04-30T09:57:33.000Z</time>
      </trkpt>
      <trkpt lat="41.01092043332755565643310546875" lon="-7.67076649703085422515869140625">
        <ele>836.4000244140625</ele>
        <time>2019-04-30T09:57:53.000Z</time>
      </trkpt>
      <trkpt lat="41.010920517146587371826171875" lon="-7.6708044670522212982177734375">
        <ele>836.20001220703125</ele>
        <time>2019-04-30T09:59:16.000Z</time>
      </trkpt>
      <trkpt lat="41.0109575651586055755615234375" lon="-7.67093497328460216522216796875">
        <ele>835.5999755859375</ele>
        <time>2019-04-30T09:59:21.000Z</time>
      </trkpt>
      <trkpt lat="41.0109932720661163330078125" lon="-7.6711219735443592071533203125">
        <ele>834.5999755859375</ele>
        <time>2019-04-30T09:59:25.000Z</time>
      </trkpt>
      <trkpt lat="41.01117574609816074371337890625" lon="-7.671857737004756927490234375">
        <ele>830.79998779296875</ele>
        <time>2019-04-30T09:59:35.000Z</time>
      </trkpt>
      <trkpt lat="41.01139627397060394287109375" lon="-7.67262225039303302764892578125">
        <ele>826.5999755859375</ele>
        <time>2019-04-30T09:59:43.000Z</time>
      </trkpt>
      <trkpt lat="41.01172291673719882965087890625" lon="-7.673318199813365936279296875">
        <ele>822.5999755859375</ele>
        <time>2019-04-30T09:59:50.000Z</time>
      </trkpt>
      <trkpt lat="41.01207378320395946502685546875" lon="-7.673939131200313568115234375">
        <ele>821.5999755859375</ele>
        <time>2019-04-30T09:59:57.000Z</time>
      </trkpt>
      <trkpt lat="41.01233596913516521453857421875" lon="-7.67460339702665805816650390625">
        <ele>822</ele>
        <time>2019-04-30T10:00:05.000Z</time>
      </trkpt>
      <trkpt lat="41.01255993358790874481201171875" lon="-7.675264142453670501708984375">
        <ele>822.20001220703125</ele>
        <time>2019-04-30T10:00:15.000Z</time>
      </trkpt>
      <trkpt lat="41.0126282460987567901611328125" lon="-7.67559279687702655792236328125">
        <ele>822.20001220703125</ele>
        <time>2019-04-30T10:00:20.000Z</time>
      </trkpt>
      <trkpt lat="41.0126755200326442718505859375" lon="-7.67638505436480045318603515625">
        <ele>820</ele>
        <time>2019-04-30T10:00:30.000Z</time>
      </trkpt>
      <trkpt lat="41.0127154178917407989501953125" lon="-7.67710908316075801849365234375">
        <ele>816.20001220703125</ele>
        <time>2019-04-30T10:00:38.000Z</time>
      </trkpt>
      <trkpt lat="41.012817509472370147705078125" lon="-7.6779103092849254608154296875">
        <ele>813.20001220703125</ele>
        <time>2019-04-30T10:00:46.000Z</time>
      </trkpt>
      <trkpt lat="41.01285547949373722076416015625" lon="-7.678000666201114654541015625">
        <ele>813</ele>
        <time>2019-04-30T10:00:47.000Z</time>
      </trkpt>
      <trkpt lat="41.0132226906716823577880859375" lon="-7.67860458232462406158447265625">
        <ele>813.4000244140625</ele>
        <time>2019-04-30T10:00:55.000Z</time>
      </trkpt>
      <trkpt lat="41.01341329514980316162109375" lon="-7.67896735109388828277587890625">
        <ele>814.4000244140625</ele>
        <time>2019-04-30T10:01:03.000Z</time>
      </trkpt>
      <trkpt lat="41.01314163766801357269287109375" lon="-7.6794384978711605072021484375">
        <ele>808.79998779296875</ele>
        <time>2019-04-30T10:01:16.000Z</time>
      </trkpt>
      <trkpt lat="41.013185977935791015625" lon="-7.67959280870854854583740234375">
        <ele>808.20001220703125</ele>
        <time>2019-04-30T10:01:18.000Z</time>
      </trkpt>
      <trkpt lat="41.01338102482259273529052734375" lon="-7.68036427907645702362060546875">
        <ele>806.4000244140625</ele>
        <time>2019-04-30T10:01:26.000Z</time>
      </trkpt>
      <trkpt lat="41.0135495848953723907470703125" lon="-7.68110322766005992889404296875">
        <ele>806.20001220703125</ele>
        <time>2019-04-30T10:01:34.000Z</time>
      </trkpt>
      <trkpt lat="41.0136686079204082489013671875" lon="-7.68183463253080844879150390625">
        <ele>806.20001220703125</ele>
        <time>2019-04-30T10:01:46.000Z</time>
      </trkpt>
      <trkpt lat="41.01396675221621990203857421875" lon="-7.68244382925331592559814453125">
        <ele>804.5999755859375</ele>
        <time>2019-04-30T10:02:02.000Z</time>
      </trkpt>
      <trkpt lat="41.01431376300752162933349609375" lon="-7.68297926522791385650634765625">
        <ele>802.4000244140625</ele>
        <time>2019-04-30T10:02:18.000Z</time>
      </trkpt>
      <trkpt lat="41.01443496532738208770751953125" lon="-7.68311505205929279327392578125">
        <ele>801</ele>
        <time>2019-04-30T10:02:22.000Z</time>
      </trkpt>
      <trkpt lat="41.01468843407928943634033203125" lon="-7.68343473784625530242919921875">
        <ele>797.79998779296875</ele>
        <time>2019-04-30T10:02:27.000Z</time>
      </trkpt>
      <trkpt lat="41.0149644501507282257080078125" lon="-7.6836203970015048980712890625">
        <ele>797</ele>
        <time>2019-04-30T10:02:31.000Z</time>
      </trkpt>
      <trkpt lat="41.01516167633235454559326171875" lon="-7.68368384800851345062255859375">
        <ele>797</ele>
        <time>2019-04-30T10:02:34.000Z</time>
      </trkpt>
      <trkpt lat="41.0154536180198192596435546875" lon="-7.684043012559413909912109375">
        <ele>795</ele>
        <time>2019-04-30T10:02:40.000Z</time>
      </trkpt>
      <trkpt lat="41.01578227244317531585693359375" lon="-7.6846855692565441131591796875">
        <ele>788.79998779296875</ele>
        <time>2019-04-30T10:02:47.000Z</time>
      </trkpt>
      <trkpt lat="41.01591453887522220611572265625" lon="-7.68488665111362934112548828125">
        <ele>787</ele>
        <time>2019-04-30T10:02:50.000Z</time>
      </trkpt>
      <trkpt lat="41.01613615639507770538330078125" lon="-7.68500232137739658355712890625">
        <ele>786.5999755859375</ele>
        <time>2019-04-30T10:02:54.000Z</time>
      </trkpt>
      <trkpt lat="41.01626205258071422576904296875" lon="-7.685067616403102874755859375">
        <ele>786.20001220703125</ele>
        <time>2019-04-30T10:02:58.000Z</time>
      </trkpt>
      <trkpt lat="41.01635567843914031982421875" lon="-7.68516325391829013824462890625">
        <ele>785.79998779296875</ele>
        <time>2019-04-30T10:03:02.000Z</time>
      </trkpt>
      <trkpt lat="41.0163628868758678436279296875" lon="-7.68517364747822284698486328125">
        <ele>785.79998779296875</ele>
        <time>2019-04-30T10:03:03.000Z</time>
      </trkpt>
      <trkpt lat="41.0163615457713603973388671875" lon="-7.68517130054533481597900390625">
        <ele>785.79998779296875</ele>
        <time>2019-04-30T10:03:04.000Z</time>
      </trkpt>
      <trkpt lat="41.0163756273686885833740234375" lon="-7.685199715197086334228515625">
        <ele>785.79998779296875</ele>
        <time>2019-04-30T10:03:10.000Z</time>
      </trkpt>
      <trkpt lat="41.01645550690591335296630859375" lon="-7.68589683808386325836181640625">
        <ele>782</ele>
        <time>2019-04-30T10:03:26.000Z</time>
      </trkpt>
      <trkpt lat="41.01644410751760005950927734375" lon="-7.6861582696437835693359375">
        <ele>780.4000244140625</ele>
        <time>2019-04-30T10:03:34.000Z</time>
      </trkpt>
      <trkpt lat="41.01645626127719879150390625" lon="-7.68621518276631832122802734375">
        <ele>780.20001220703125</ele>
        <time>2019-04-30T10:05:33.000Z</time>
      </trkpt>
      <trkpt lat="41.01671081967651844024658203125" lon="-7.686885483562946319580078125">
        <ele>776.79998779296875</ele>
        <time>2019-04-30T10:05:49.000Z</time>
      </trkpt>
      <trkpt lat="41.01672993041574954986572265625" lon="-7.68695463426411151885986328125">
        <ele>776.4000244140625</ele>
        <time>2019-04-30T10:05:53.000Z</time>
      </trkpt>
      <trkpt lat="41.01676077581942081451416015625" lon="-7.68695295788347721099853515625">
        <ele>776.4000244140625</ele>
        <time>2019-04-30T10:06:01.000Z</time>
      </trkpt>
      <trkpt lat="41.016842164099216461181640625" lon="-7.68688741140067577362060546875">
        <ele>777.4000244140625</ele>
        <time>2019-04-30T10:06:05.000Z</time>
      </trkpt>
      <trkpt lat="41.0172439925372600555419921875" lon="-7.6866006664931774139404296875">
        <ele>781.5999755859375</ele>
        <time>2019-04-30T10:06:20.000Z</time>
      </trkpt>
      <trkpt lat="41.0172409750521183013916015625" lon="-7.68700006417930126190185546875">
        <ele>778.79998779296875</ele>
        <time>2019-04-30T10:06:29.000Z</time>
      </trkpt>
      <trkpt lat="41.017205603420734405517578125" lon="-7.68739703111350536346435546875">
        <ele>775.5999755859375</ele>
        <time>2019-04-30T10:06:39.000Z</time>
      </trkpt>
      <trkpt lat="41.01720392704010009765625" lon="-7.68743340857326984405517578125">
        <ele>775.4000244140625</ele>
        <time>2019-04-30T10:06:52.000Z</time>
      </trkpt>
      <trkpt lat="41.01719160564243793487548828125" lon="-7.68777497112751007080078125">
        <ele>773.4000244140625</ele>
        <time>2019-04-30T10:06:59.000Z</time>
      </trkpt>
      <trkpt lat="41.0171004943549633026123046875" lon="-7.68802181817591190338134765625">
        <ele>771.5999755859375</ele>
        <time>2019-04-30T10:07:03.000Z</time>
      </trkpt>
      <trkpt lat="41.017077863216400146484375" lon="-7.6880886219441890716552734375">
        <ele>771</ele>
        <time>2019-04-30T10:07:04.000Z</time>
      </trkpt>
      <trkpt lat="41.0170371271669864654541015625" lon="-7.68834133632481098175048828125">
        <ele>769.79998779296875</ele>
        <time>2019-04-30T10:07:08.000Z</time>
      </trkpt>
      <trkpt lat="41.0171779431402683258056640625" lon="-7.68878079950809478759765625">
        <ele>767</ele>
        <time>2019-04-30T10:07:17.000Z</time>
      </trkpt>
      <trkpt lat="41.01734968833625316619873046875" lon="-7.6889382116496562957763671875">
        <ele>766.5999755859375</ele>
        <time>2019-04-30T10:07:24.000Z</time>
      </trkpt>
      <trkpt lat="41.0173740796744823455810546875" lon="-7.68895857967436313629150390625">
        <ele>766.5999755859375</ele>
        <time>2019-04-30T10:07:25.000Z</time>
      </trkpt>
      <trkpt lat="41.0174434818327426910400390625" lon="-7.68930424936115741729736328125">
        <ele>762.79998779296875</ele>
        <time>2019-04-30T10:07:35.000Z</time>
      </trkpt>
      <trkpt lat="41.0176741518080234527587890625" lon="-7.68994580022990703582763671875">
        <ele>754.5999755859375</ele>
        <time>2019-04-30T10:07:51.000Z</time>
      </trkpt>
      <trkpt lat="41.017715223133563995361328125" lon="-7.690051496028900146484375">
        <ele>752.79998779296875</ele>
        <time>2019-04-30T10:07:53.000Z</time>
      </trkpt>
      <trkpt lat="41.0179242677986621856689453125" lon="-7.69073076546192169189453125">
        <ele>748.20001220703125</ele>
        <time>2019-04-30T10:08:03.000Z</time>
      </trkpt>
      <trkpt lat="41.0183157026767730712890625" lon="-7.691266871988773345947265625">
        <ele>745.79998779296875</ele>
        <time>2019-04-30T10:08:20.000Z</time>
      </trkpt>
      <trkpt lat="41.01881752721965312957763671875" lon="-7.6915262080729007720947265625">
        <ele>742.79998779296875</ele>
        <time>2019-04-30T10:08:37.000Z</time>
      </trkpt>
      <trkpt lat="41.0191788710653781890869140625" lon="-7.69163257442414760589599609375">
        <ele>741.5999755859375</ele>
        <time>2019-04-30T10:08:55.000Z</time>
      </trkpt>
      <trkpt lat="41.0192130692303180694580078125" lon="-7.69165520556271076202392578125">
        <ele>741.20001220703125</ele>
        <time>2019-04-30T10:09:01.000Z</time>
      </trkpt>
      <trkpt lat="41.019763760268688201904296875" lon="-7.691690661013126373291015625">
        <ele>742.4000244140625</ele>
        <time>2019-04-30T10:09:22.000Z</time>
      </trkpt>
      <trkpt lat="41.02026105858385562896728515625" lon="-7.69206625409424304962158203125">
        <ele>745.4000244140625</ele>
        <time>2019-04-30T10:09:39.000Z</time>
      </trkpt>
      <trkpt lat="41.020675040781497955322265625" lon="-7.6925236545503139495849609375">
        <ele>736.20001220703125</ele>
        <time>2019-04-30T10:09:54.000Z</time>
      </trkpt>
      <trkpt lat="41.02117937989532947540283203125" lon="-7.69281157292425632476806640625">
        <ele>737.5999755859375</ele>
        <time>2019-04-30T10:10:08.000Z</time>
      </trkpt>
      <trkpt lat="41.02171800099313259124755859375" lon="-7.69303285516798496246337890625">
        <ele>735.79998779296875</ele>
        <time>2019-04-30T10:10:22.000Z</time>
      </trkpt>
      <trkpt lat="41.02194833569228649139404296875" lon="-7.69320988096296787261962890625">
        <ele>733.79998779296875</ele>
        <time>2019-04-30T10:10:29.000Z</time>
      </trkpt>
      <trkpt lat="41.0220987908542156219482421875" lon="-7.69327215850353240966796875">
        <ele>733.79998779296875</ele>
        <time>2019-04-30T10:10:32.000Z</time>
      </trkpt>
      <trkpt lat="41.02222795598208904266357421875" lon="-7.693509198725223541259765625">
        <ele>730.79998779296875</ele>
        <time>2019-04-30T10:10:36.000Z</time>
      </trkpt>
      <trkpt lat="41.022405065596103668212890625" lon="-7.69372151233255863189697265625">
        <ele>729.5999755859375</ele>
        <time>2019-04-30T10:10:41.000Z</time>
      </trkpt>
      <trkpt lat="41.02250874973833560943603515625" lon="-7.69381756894290447235107421875">
        <ele>729.20001220703125</ele>
        <time>2019-04-30T10:10:44.000Z</time>
      </trkpt>
      <trkpt lat="41.02270312607288360595703125" lon="-7.6939693652093410491943359375">
        <ele>731.79998779296875</ele>
        <time>2019-04-30T10:10:49.000Z</time>
      </trkpt>
      <trkpt lat="41.02283815853297710418701171875" lon="-7.6941289566457271575927734375">
        <ele>734.4000244140625</ele>
        <time>2019-04-30T10:10:53.000Z</time>
      </trkpt>
      <trkpt lat="41.0229849256575107574462890625" lon="-7.6946368999779224395751953125">
        <ele>735.5999755859375</ele>
        <time>2019-04-30T10:11:01.000Z</time>
      </trkpt>
      <trkpt lat="41.02294452488422393798828125" lon="-7.695030681788921356201171875">
        <ele>733</ele>
        <time>2019-04-30T10:11:10.000Z</time>
      </trkpt>
      <trkpt lat="41.02305625565350055694580078125" lon="-7.69553284160792827606201171875">
        <ele>727.79998779296875</ele>
        <time>2019-04-30T10:11:23.000Z</time>
      </trkpt>
      <trkpt lat="41.0231133364140987396240234375" lon="-7.69581229425966739654541015625">
        <ele>723.79998779296875</ele>
        <time>2019-04-30T10:11:27.000Z</time>
      </trkpt>
      <trkpt lat="41.023359596729278564453125" lon="-7.69619710743427276611328125">
        <ele>719.4000244140625</ele>
        <time>2019-04-30T10:11:32.000Z</time>
      </trkpt>
      <trkpt lat="41.02378497831523418426513671875" lon="-7.6967756263911724090576171875">
        <ele>715.4000244140625</ele>
        <time>2019-04-30T10:11:38.000Z</time>
      </trkpt>
      <trkpt lat="41.0239089466631412506103515625" lon="-7.6972641237080097198486328125">
        <ele>716.5999755859375</ele>
        <time>2019-04-30T10:11:42.000Z</time>
      </trkpt>
      <trkpt lat="41.02401983924210071563720703125" lon="-7.69798815250396728515625">
        <ele>717</ele>
        <time>2019-04-30T10:11:49.000Z</time>
      </trkpt>
      <trkpt lat="41.02404263801872730255126953125" lon="-7.69807507283985614776611328125">
        <ele>717.20001220703125</ele>
        <time>2019-04-30T10:11:50.000Z</time>
      </trkpt>
      <trkpt lat="41.024214886128902435302734375" lon="-7.69842158071696758270263671875">
        <ele>718.20001220703125</ele>
        <time>2019-04-30T10:11:59.000Z</time>
      </trkpt>
      <trkpt lat="41.02421932853758335113525390625" lon="-7.6984322257339954376220703125">
        <ele>718.20001220703125</ele>
        <time>2019-04-30T10:12:33.000Z</time>
      </trkpt>
      <trkpt lat="41.02441730909049510955810546875" lon="-7.69881569780409336090087890625">
        <ele>718.79998779296875</ele>
        <time>2019-04-30T10:12:42.000Z</time>
      </trkpt>
      <trkpt lat="41.0247501544654369354248046875" lon="-7.6994370482861995697021484375">
        <ele>714.20001220703125</ele>
        <time>2019-04-30T10:12:53.000Z</time>
      </trkpt>
      <trkpt lat="41.02507227100431919097900390625" lon="-7.700020931661128997802734375">
        <ele>711.79998779296875</ele>
        <time>2019-04-30T10:13:03.000Z</time>
      </trkpt>
      <trkpt lat="41.02555808611214160919189453125" lon="-7.70048193633556365966796875">
        <ele>714</ele>
        <time>2019-04-30T10:13:13.000Z</time>
      </trkpt>
      <trkpt lat="41.025682389736175537109375" lon="-7.7012197114527225494384765625">
        <ele>707</ele>
        <time>2019-04-30T10:13:21.000Z</time>
      </trkpt>
      <trkpt lat="41.0256681405007839202880859375" lon="-7.70198171027004718780517578125">
        <ele>698.20001220703125</ele>
        <time>2019-04-30T10:13:28.000Z</time>
      </trkpt>
      <trkpt lat="41.0257036797702312469482421875" lon="-7.70247213542461395263671875">
        <ele>690.79998779296875</ele>
        <time>2019-04-30T10:13:32.000Z</time>
      </trkpt>
      <trkpt lat="41.02601163089275360107421875" lon="-7.7030050568282604217529296875">
        <ele>685.20001220703125</ele>
        <time>2019-04-30T10:13:38.000Z</time>
      </trkpt>
      <trkpt lat="41.026144735515117645263671875" lon="-7.70319105125963687896728515625">
        <ele>683.4000244140625</ele>
        <time>2019-04-30T10:13:40.000Z</time>
      </trkpt>
      <trkpt lat="41.0262657701969146728515625" lon="-7.7038402296602725982666015625">
        <ele>678.79998779296875</ele>
        <time>2019-04-30T10:13:45.000Z</time>
      </trkpt>
      <trkpt lat="41.02631597779691219329833984375" lon="-7.7045590616762638092041015625">
        <ele>677.5999755859375</ele>
        <time>2019-04-30T10:13:51.000Z</time>
      </trkpt>
      <trkpt lat="41.0263289697468280792236328125" lon="-7.70497463643550872802734375">
        <ele>679</ele>
        <time>2019-04-30T10:13:57.000Z</time>
      </trkpt>
      <trkpt lat="41.0264044068753719329833984375" lon="-7.705709226429462432861328125">
        <ele>683</ele>
        <time>2019-04-30T10:14:18.000Z</time>
      </trkpt>
      <trkpt lat="41.02644371800124645233154296875" lon="-7.705986164510250091552734375">
        <ele>684.79998779296875</ele>
        <time>2019-04-30T10:14:28.000Z</time>
      </trkpt>
      <trkpt lat="41.026606746017932891845703125" lon="-7.70602664910256862640380859375">
        <ele>684.4000244140625</ele>
        <time>2019-04-30T10:14:34.000Z</time>
      </trkpt>
      <trkpt lat="41.02667220868170261383056640625" lon="-7.70604676567018032073974609375">
        <ele>684.4000244140625</ele>
        <time>2019-04-30T10:14:37.000Z</time>
      </trkpt>
      <trkpt lat="41.02658755145967006683349609375" lon="-7.70605632103979587554931640625">
        <ele>684.79998779296875</ele>
        <time>2019-04-30T10:14:42.000Z</time>
      </trkpt>
      <trkpt lat="41.02650423534214496612548828125" lon="-7.70601332187652587890625">
        <ele>684.79998779296875</ele>
        <time>2019-04-30T10:14:47.000Z</time>
      </trkpt>
      <trkpt lat="41.026503145694732666015625" lon="-7.7060081250965595245361328125">
        <ele>684.79998779296875</ele>
        <time>2019-04-30T10:14:49.000Z</time>
      </trkpt>
      <trkpt lat="41.0265492461621761322021484375" lon="-7.7059985697269439697265625">
        <ele>684.4000244140625</ele>
        <time>2019-04-30T10:14:55.000Z</time>
      </trkpt>
      <trkpt lat="41.0268558561801910400390625" lon="-7.706107534468173980712890625">
        <ele>684.20001220703125</ele>
        <time>2019-04-30T10:15:04.000Z</time>
      </trkpt>
      <trkpt lat="41.0270736180245876312255859375" lon="-7.7062049321830272674560546875">
        <ele>684.4000244140625</ele>
        <time>2019-04-30T10:15:08.000Z</time>
      </trkpt>
      <trkpt lat="41.02731459774076938629150390625" lon="-7.70622278563678264617919921875">
        <ele>684.4000244140625</ele>
        <time>2019-04-30T10:15:12.000Z</time>
      </trkpt>
      <trkpt lat="41.02779236622154712677001953125" lon="-7.70619579590857028961181640625">
        <ele>684.5999755859375</ele>
        <time>2019-04-30T10:15:21.000Z</time>
      </trkpt>
      <trkpt lat="41.0282586514949798583984375" lon="-7.706597037613391876220703125">
        <ele>684.4000244140625</ele>
        <time>2019-04-30T10:15:37.000Z</time>
      </trkpt>
      <trkpt lat="41.02841665036976337432861328125" lon="-7.70729214884340763092041015625">
        <ele>684.20001220703125</ele>
        <time>2019-04-30T10:15:54.000Z</time>
      </trkpt>
      <trkpt lat="41.02842587046325206756591796875" lon="-7.7076588571071624755859375">
        <ele>683.20001220703125</ele>
        <time>2019-04-30T10:16:06.000Z</time>
      </trkpt>
      <trkpt lat="41.02842427790164947509765625" lon="-7.70765039138495922088623046875">
        <ele>683.20001220703125</ele>
        <time>2019-04-30T10:16:07.000Z</time>
      </trkpt>
      <trkpt lat="41.0284013114869594573974609375" lon="-7.707695402204990386962890625">
        <ele>683.4000244140625</ele>
        <time>2019-04-30T10:16:19.000Z</time>
      </trkpt>
      <trkpt lat="41.0283882357180118560791015625" lon="-7.70781585015356540679931640625">
        <ele>683.5999755859375</ele>
        <time>2019-04-30T10:16:23.000Z</time>
      </trkpt>
      <trkpt lat="41.028364934027194976806640625" lon="-7.70852998830378055572509765625">
        <ele>686.20001220703125</ele>
        <time>2019-04-30T10:16:48.000Z</time>
      </trkpt>
      <trkpt lat="41.02853424847126007080078125" lon="-7.70919777452945709228515625">
        <ele>690.79998779296875</ele>
        <time>2019-04-30T10:17:09.000Z</time>
      </trkpt>
      <trkpt lat="41.02877422235906124114990234375" lon="-7.70985047332942485809326171875">
        <ele>696.79998779296875</ele>
        <time>2019-04-30T10:17:36.000Z</time>
      </trkpt>
      <trkpt lat="41.0287748090922832489013671875" lon="-7.71018574945628643035888671875">
        <ele>699.20001220703125</ele>
        <time>2019-04-30T10:17:50.000Z</time>
      </trkpt>
      <trkpt lat="41.02877371944487094879150390625" lon="-7.710187844932079315185546875">
        <ele>699.20001220703125</ele>
        <time>2019-04-30T10:17:52.000Z</time>
      </trkpt>
      <trkpt lat="41.02874522097408771514892578125" lon="-7.71021642722189426422119140625">
        <ele>699.4000244140625</ele>
        <time>2019-04-30T10:18:28.000Z</time>
      </trkpt>
      <trkpt lat="41.02872191928327083587646484375" lon="-7.71025900729000568389892578125">
        <ele>699.79998779296875</ele>
        <time>2019-04-30T10:18:30.000Z</time>
      </trkpt>
      <trkpt lat="41.02867498062551021575927734375" lon="-7.7103844843804836273193359375">
        <ele>700.4000244140625</ele>
        <time>2019-04-30T10:18:34.000Z</time>
      </trkpt>
      <trkpt lat="41.02859602309763431549072265625" lon="-7.71062881685793399810791015625">
        <ele>701.4000244140625</ele>
        <time>2019-04-30T10:18:45.000Z</time>
      </trkpt>
      <trkpt lat="41.02858780883252620697021484375" lon="-7.7106629312038421630859375">
        <ele>701.5999755859375</ele>
        <time>2019-04-30T10:20:12.000Z</time>
      </trkpt>
      <trkpt lat="41.02838136255741119384765625" lon="-7.7113199047744274139404296875">
        <ele>701</ele>
        <time>2019-04-30T10:20:29.000Z</time>
      </trkpt>
      <trkpt lat="41.02827684022486209869384765625" lon="-7.7117339707911014556884765625">
        <ele>699</ele>
        <time>2019-04-30T10:20:37.000Z</time>
      </trkpt>
      <trkpt lat="41.0282142274081707000732421875" lon="-7.71196757443249225616455078125">
        <ele>697.5999755859375</ele>
        <time>2019-04-30T10:20:41.000Z</time>
      </trkpt>
      <trkpt lat="41.02807131595909595489501953125" lon="-7.712429501116275787353515625">
        <ele>695.20001220703125</ele>
        <time>2019-04-30T10:20:49.000Z</time>
      </trkpt>
      <trkpt lat="41.027798987925052642822265625" lon="-7.71304263733327388763427734375">
        <ele>698.79998779296875</ele>
        <time>2019-04-30T10:21:07.000Z</time>
      </trkpt>
      <trkpt lat="41.02789722383022308349609375" lon="-7.71376951597630977630615234375">
        <ele>699</ele>
        <time>2019-04-30T10:21:24.000Z</time>
      </trkpt>
      <trkpt lat="41.0279208607971668243408203125" lon="-7.7144815586507320404052734375">
        <ele>701.79998779296875</ele>
        <time>2019-04-30T10:21:48.000Z</time>
      </trkpt>
      <trkpt lat="41.02787769399583339691162109375" lon="-7.71520718000829219818115234375">
        <ele>707</ele>
        <time>2019-04-30T10:22:10.000Z</time>
      </trkpt>
      <trkpt lat="41.0279832221567630767822265625" lon="-7.7159017883241176605224609375">
        <ele>711.5999755859375</ele>
        <time>2019-04-30T10:22:35.000Z</time>
      </trkpt>
      <trkpt lat="41.0280901752412319183349609375" lon="-7.716307975351810455322265625">
        <ele>715.79998779296875</ele>
        <time>2019-04-30T10:22:57.000Z</time>
      </trkpt>
      <trkpt lat="41.02810685522854328155517578125" lon="-7.716375701129436492919921875">
        <ele>716.79998779296875</ele>
        <time>2019-04-30T10:23:01.000Z</time>
      </trkpt>
      <trkpt lat="41.0285136289894580841064453125" lon="-7.71683360449969768524169921875">
        <ele>721.20001220703125</ele>
        <time>2019-04-30T10:23:33.000Z</time>
      </trkpt>
      <trkpt lat="41.02861597202718257904052734375" lon="-7.716990597546100616455078125">
        <ele>724.4000244140625</ele>
        <time>2019-04-30T10:23:42.000Z</time>
      </trkpt>
      <trkpt lat="41.02885250933468341827392578125" lon="-7.7176301367580890655517578125">
        <ele>727</ele>
        <time>2019-04-30T10:24:18.000Z</time>
      </trkpt>
      <trkpt lat="41.02913246490061283111572265625" lon="-7.7182430215179920196533203125">
        <ele>734.79998779296875</ele>
        <time>2019-04-30T10:24:55.000Z</time>
      </trkpt>
      <trkpt lat="41.02921209298074245452880859375" lon="-7.71841845475137233734130859375">
        <ele>737</ele>
        <time>2019-04-30T10:25:05.000Z</time>
      </trkpt>
      <trkpt lat="41.0297306813299655914306640625" lon="-7.71869145333766937255859375">
        <ele>738.20001220703125</ele>
        <time>2019-04-30T10:25:26.000Z</time>
      </trkpt>
      <trkpt lat="41.030214987695217132568359375" lon="-7.71903485991060733795166015625">
        <ele>744.4000244140625</ele>
        <time>2019-04-30T10:25:49.000Z</time>
      </trkpt>
      <trkpt lat="41.0301755927503108978271484375" lon="-7.71925471723079681396484375">
        <ele>745.4000244140625</ele>
        <time>2019-04-30T10:26:00.000Z</time>
      </trkpt>
      <trkpt lat="41.03012002073228359222412109375" lon="-7.7193199284374713897705078125">
        <ele>745.79998779296875</ele>
        <time>2019-04-30T10:26:04.000Z</time>
      </trkpt>
      <trkpt lat="41.0301812924444675445556640625" lon="-7.71958873607218265533447265625">
        <ele>748.20001220703125</ele>
        <time>2019-04-30T10:26:16.000Z</time>
      </trkpt>
      <trkpt lat="41.03022295050323009490966796875" lon="-7.7196830324828624725341796875">
        <ele>748.4000244140625</ele>
        <time>2019-04-30T10:26:20.000Z</time>
      </trkpt>
      <trkpt lat="41.03025044314563274383544921875" lon="-7.7198044024407863616943359375">
        <ele>748.5999755859375</ele>
        <time>2019-04-30T10:26:25.000Z</time>
      </trkpt>
      <trkpt lat="41.03025312535464763641357421875" lon="-7.719915211200714111328125">
        <ele>749</ele>
        <time>2019-04-30T10:26:31.000Z</time>
      </trkpt>
      <trkpt lat="41.0302530415356159210205078125" lon="-7.7201373316347599029541015625">
        <ele>749.79998779296875</ele>
        <time>2019-04-30T10:26:42.000Z</time>
      </trkpt>
      <trkpt lat="41.03051749058067798614501953125" lon="-7.72072984836995601654052734375">
        <ele>749.4000244140625</ele>
        <time>2019-04-30T10:27:12.000Z</time>
      </trkpt>
      <trkpt lat="41.03071513585746288299560546875" lon="-7.721075601875782012939453125">
        <ele>749.4000244140625</ele>
        <time>2019-04-30T10:27:29.000Z</time>
      </trkpt>
      <trkpt lat="41.03059795685112476348876953125" lon="-7.7209859155118465423583984375">
        <ele>749.20001220703125</ele>
        <time>2019-04-30T10:27:37.000Z</time>
      </trkpt>
      <trkpt lat="41.03051715530455112457275390625" lon="-7.7208558283746242523193359375">
        <ele>749.5999755859375</ele>
        <time>2019-04-30T10:27:46.000Z</time>
      </trkpt>
      <trkpt lat="41.03057012893259525299072265625" lon="-7.72096487693488597869873046875">
        <ele>749.20001220703125</ele>
        <time>2019-04-30T10:34:59.000Z</time>
      </trkpt>
      <trkpt lat="41.03062377311289310455322265625" lon="-7.72112597711384296417236328125">
        <ele>749.4000244140625</ele>
        <time>2019-04-30T10:35:07.000Z</time>
      </trkpt>
      <trkpt lat="41.030618660151958465576171875" lon="-7.72111793048679828643798828125">
        <ele>749.4000244140625</ele>
        <time>2019-04-30T10:35:09.000Z</time>
      </trkpt>
      <trkpt lat="41.030646823346614837646484375" lon="-7.721115164458751678466796875">
        <ele>749.4000244140625</ele>
        <time>2019-04-30T10:35:14.000Z</time>
      </trkpt>
      <trkpt lat="41.0307314805686473846435546875" lon="-7.7212092094123363494873046875">
        <ele>749.5999755859375</ele>
        <time>2019-04-30T10:35:19.000Z</time>
      </trkpt>
      <trkpt lat="41.0307562910020351409912109375" lon="-7.72122940979897975921630859375">
        <ele>749.5999755859375</ele>
        <time>2019-04-30T10:35:21.000Z</time>
      </trkpt>
      <trkpt lat="41.03085595183074474334716796875" lon="-7.721214406192302703857421875">
        <ele>749.79998779296875</ele>
        <time>2019-04-30T10:35:27.000Z</time>
      </trkpt>
      <trkpt lat="41.0313859395682811737060546875" lon="-7.7214257977902889251708984375">
        <ele>748.20001220703125</ele>
        <time>2019-04-30T10:35:47.000Z</time>
      </trkpt>
      <trkpt lat="41.03140044026076793670654296875" lon="-7.72144767455756664276123046875">
        <ele>748</ele>
        <time>2019-04-30T10:35:48.000Z</time>
      </trkpt>
      <trkpt lat="41.0315592773258686065673828125" lon="-7.72153752855956554412841796875">
        <ele>749</ele>
        <time>2019-04-30T10:35:56.000Z</time>
      </trkpt>
      <trkpt lat="41.03191492147743701934814453125" lon="-7.7221255190670490264892578125">
        <ele>748.20001220703125</ele>
        <time>2019-04-30T10:36:14.000Z</time>
      </trkpt>
      <trkpt lat="41.0322596691548824310302734375" lon="-7.722725830972194671630859375">
        <ele>744.5999755859375</ele>
        <time>2019-04-30T10:36:27.000Z</time>
      </trkpt>
      <trkpt lat="41.0324187576770782470703125" lon="-7.7230783738195896148681640625">
        <ele>740.20001220703125</ele>
        <time>2019-04-30T10:36:34.000Z</time>
      </trkpt>
      <trkpt lat="41.0325045883655548095703125" lon="-7.7232570759952068328857421875">
        <ele>737.4000244140625</ele>
        <time>2019-04-30T10:36:37.000Z</time>
      </trkpt>
      <trkpt lat="41.03276819922029972076416015625" lon="-7.723385654389858245849609375">
        <ele>734.5999755859375</ele>
        <time>2019-04-30T10:36:41.000Z</time>
      </trkpt>
      <trkpt lat="41.0333573631942272186279296875" lon="-7.723503671586513519287109375">
        <ele>731.20001220703125</ele>
        <time>2019-04-30T10:36:50.000Z</time>
      </trkpt>
      <trkpt lat="41.03343104012310504913330078125" lon="-7.7235162444412708282470703125">
        <ele>730.79998779296875</ele>
        <time>2019-04-30T10:36:51.000Z</time>
      </trkpt>
      <trkpt lat="41.0337164439260959625244140625" lon="-7.72365429438650608062744140625">
        <ele>728</ele>
        <time>2019-04-30T10:36:55.000Z</time>
      </trkpt>
      <trkpt lat="41.033902354538440704345703125" lon="-7.72374398075044155120849609375">
        <ele>726</ele>
        <time>2019-04-30T10:36:58.000Z</time>
      </trkpt>
      <trkpt lat="41.03388525545597076416015625" lon="-7.72377599962055683135986328125">
        <ele>725.79998779296875</ele>
        <time>2019-04-30T10:37:10.000Z</time>
      </trkpt>
      <trkpt lat="41.03409103117883205413818359375" lon="-7.72407674230635166168212890625">
        <ele>721.79998779296875</ele>
        <time>2019-04-30T10:37:18.000Z</time>
      </trkpt>
      <trkpt lat="41.03416018187999725341796875" lon="-7.724201045930385589599609375">
        <ele>720.79998779296875</ele>
        <time>2019-04-30T10:37:20.000Z</time>
      </trkpt>
      <trkpt lat="41.03421927429735660552978515625" lon="-7.72435032762587070465087890625">
        <ele>719.5999755859375</ele>
        <time>2019-04-30T10:37:22.000Z</time>
      </trkpt>
      <trkpt lat="41.034400574862957000732421875" lon="-7.72503890097141265869140625">
        <ele>713.79998779296875</ele>
        <time>2019-04-30T10:37:33.000Z</time>
      </trkpt>
      <trkpt lat="41.0347383655607700347900390625" lon="-7.72555145435035228729248046875">
        <ele>705.79998779296875</ele>
        <time>2019-04-30T10:37:48.000Z</time>
      </trkpt>
      <trkpt lat="41.034976579248905181884765625" lon="-7.7261072583496570587158203125">
        <ele>700</ele>
        <time>2019-04-30T10:38:06.000Z</time>
      </trkpt>
      <trkpt lat="41.0349790938198566436767578125" lon="-7.7263536863029003143310546875">
        <ele>697</ele>
        <time>2019-04-30T10:38:12.000Z</time>
      </trkpt>
      <trkpt lat="41.03485914878547191619873046875" lon="-7.72651051171123981475830078125">
        <ele>694.20001220703125</ele>
        <time>2019-04-30T10:38:19.000Z</time>
      </trkpt>
      <trkpt lat="41.03483752347528934478759765625" lon="-7.72659349255263805389404296875">
        <ele>693</ele>
        <time>2019-04-30T10:38:27.000Z</time>
      </trkpt>
      <trkpt lat="41.03491111658513545989990234375" lon="-7.72728919051587581634521484375">
        <ele>688.5999755859375</ele>
        <time>2019-04-30T10:38:45.000Z</time>
      </trkpt>
      <trkpt lat="41.03489167056977748870849609375" lon="-7.72766402922570705413818359375">
        <ele>685.20001220703125</ele>
        <time>2019-04-30T10:38:52.000Z</time>
      </trkpt>
      <trkpt lat="41.03479452431201934814453125" lon="-7.727860920131206512451171875">
        <ele>684.4000244140625</ele>
        <time>2019-04-30T10:38:56.000Z</time>
      </trkpt>
      <trkpt lat="41.03476795367896556854248046875" lon="-7.727988660335540771484375">
        <ele>683.79998779296875</ele>
        <time>2019-04-30T10:38:58.000Z</time>
      </trkpt>
      <trkpt lat="41.03475538082420825958251953125" lon="-7.72824908606708049774169921875">
        <ele>682.5999755859375</ele>
        <time>2019-04-30T10:39:02.000Z</time>
      </trkpt>
      <trkpt lat="41.03484020568430423736572265625" lon="-7.7287220768630504608154296875">
        <ele>681.20001220703125</ele>
        <time>2019-04-30T10:39:09.000Z</time>
      </trkpt>
      <trkpt lat="41.03492737747728824615478515625" lon="-7.72894294001162052154541015625">
        <ele>680</ele>
        <time>2019-04-30T10:39:13.000Z</time>
      </trkpt>
      <trkpt lat="41.0350370965898036956787109375" lon="-7.72911376319825649261474609375">
        <ele>678.20001220703125</ele>
        <time>2019-04-30T10:39:17.000Z</time>
      </trkpt>
      <trkpt lat="41.035401038825511932373046875" lon="-7.72965372540056705474853515625">
        <ele>678</ele>
        <time>2019-04-30T10:39:33.000Z</time>
      </trkpt>
      <trkpt lat="41.03580915369093418121337890625" lon="-7.72975078783929347991943359375">
        <ele>674.5999755859375</ele>
        <time>2019-04-30T10:39:47.000Z</time>
      </trkpt>
      <trkpt lat="41.03597159497439861297607421875" lon="-7.7298988960683345794677734375">
        <ele>674.79998779296875</ele>
        <time>2019-04-30T10:39:51.000Z</time>
      </trkpt>
      <trkpt lat="41.03603043593466281890869140625" lon="-7.7299964614212512969970703125">
        <ele>675.4000244140625</ele>
        <time>2019-04-30T10:39:53.000Z</time>
      </trkpt>
      <trkpt lat="41.0362813062965869903564453125" lon="-7.730457969009876251220703125">
        <ele>678</ele>
        <time>2019-04-30T10:40:01.000Z</time>
      </trkpt>
      <trkpt lat="41.036476604640483856201171875" lon="-7.730706743896007537841796875">
        <ele>677</ele>
        <time>2019-04-30T10:40:05.000Z</time>
      </trkpt>
      <trkpt lat="41.03675899095833301544189453125" lon="-7.73098611272871494293212890625">
        <ele>676.4000244140625</ele>
        <time>2019-04-30T10:40:10.000Z</time>
      </trkpt>
      <trkpt lat="41.036875247955322265625" lon="-7.7311162836849689483642578125">
        <ele>676.4000244140625</ele>
        <time>2019-04-30T10:40:13.000Z</time>
      </trkpt>
      <trkpt lat="41.03733549825847148895263671875" lon="-7.73153697140514850616455078125">
        <ele>673</ele>
        <time>2019-04-30T10:40:25.000Z</time>
      </trkpt>
      <trkpt lat="41.03743323124945163726806640625" lon="-7.73164392448961734771728515625">
        <ele>672.5999755859375</ele>
        <time>2019-04-30T10:40:27.000Z</time>
      </trkpt>
      <trkpt lat="41.03800336830317974090576171875" lon="-7.7319004945456981658935546875">
        <ele>669.4000244140625</ele>
        <time>2019-04-30T10:40:35.000Z</time>
      </trkpt>
      <trkpt lat="41.0384230501949787139892578125" lon="-7.73200250230729579925537109375">
        <ele>669.79998779296875</ele>
        <time>2019-04-30T10:40:40.000Z</time>
      </trkpt>
      <trkpt lat="41.0390074364840984344482421875" lon="-7.73183788172900676727294921875">
        <ele>663.79998779296875</ele>
        <time>2019-04-30T10:40:47.000Z</time>
      </trkpt>
      <trkpt lat="41.03908882476389408111572265625" lon="-7.73182027973234653472900390625">
        <ele>663.20001220703125</ele>
        <time>2019-04-30T10:40:48.000Z</time>
      </trkpt>
      <trkpt lat="41.03965728543698787689208984375" lon="-7.73189722560346126556396484375">
        <ele>659.5999755859375</ele>
        <time>2019-04-30T10:40:55.000Z</time>
      </trkpt>
      <trkpt lat="41.0402030311524868011474609375" lon="-7.73199412040412425994873046875">
        <ele>651</ele>
        <time>2019-04-30T10:41:02.000Z</time>
      </trkpt>
      <trkpt lat="41.0402762889862060546875" lon="-7.73199344985187053680419921875">
        <ele>649.79998779296875</ele>
        <time>2019-04-30T10:41:03.000Z</time>
      </trkpt>
      <trkpt lat="41.0405232198536396026611328125" lon="-7.73190661333501338958740234375">
        <ele>646.4000244140625</ele>
        <time>2019-04-30T10:41:07.000Z</time>
      </trkpt>
      <trkpt lat="41.04056588374078273773193359375" lon="-7.7318689785897731781005859375">
        <ele>645.79998779296875</ele>
        <time>2019-04-30T10:41:23.000Z</time>
      </trkpt>
      <trkpt lat="41.0404531471431255340576171875" lon="-7.73195170797407627105712890625">
        <ele>647.4000244140625</ele>
        <time>2019-04-30T10:41:28.000Z</time>
      </trkpt>
      <trkpt lat="41.04034393094480037689208984375" lon="-7.73201272822916507720947265625">
        <ele>649</ele>
        <time>2019-04-30T10:41:33.000Z</time>
      </trkpt>
      <trkpt lat="41.04043764062225818634033203125" lon="-7.73241103626787662506103515625">
        <ele>648.79998779296875</ele>
        <time>2019-04-30T10:41:44.000Z</time>
      </trkpt>
      <trkpt lat="41.04034661315381526947021484375" lon="-7.7325968630611896514892578125">
        <ele>650</ele>
        <time>2019-04-30T10:41:50.000Z</time>
      </trkpt>
      <trkpt lat="41.0404578410089015960693359375" lon="-7.732853852212429046630859375">
        <ele>648.20001220703125</ele>
        <time>2019-04-30T10:41:57.000Z</time>
      </trkpt>
      <trkpt lat="41.04047812521457672119140625" lon="-7.7329043112695217132568359375">
        <ele>648</ele>
        <time>2019-04-30T10:41:58.000Z</time>
      </trkpt>
      <trkpt lat="41.0405547358095645904541015625" lon="-7.73319910280406475067138671875">
        <ele>647.20001220703125</ele>
        <time>2019-04-30T10:42:03.000Z</time>
      </trkpt>
      <trkpt lat="41.04060796089470386505126953125" lon="-7.733472101390361785888671875">
        <ele>646.20001220703125</ele>
        <time>2019-04-30T10:42:08.000Z</time>
      </trkpt>
      <trkpt lat="41.0406439192593097686767578125" lon="-7.733637392520904541015625">
        <ele>644.79998779296875</ele>
        <time>2019-04-30T10:42:11.000Z</time>
      </trkpt>
      <trkpt lat="41.0407317616045475006103515625" lon="-7.73383042775094509124755859375">
        <ele>642.79998779296875</ele>
        <time>2019-04-30T10:42:15.000Z</time>
      </trkpt>
      <trkpt lat="41.04075497947633266448974609375" lon="-7.73387719877064228057861328125">
        <ele>642.4000244140625</ele>
        <time>2019-04-30T10:42:16.000Z</time>
      </trkpt>
      <trkpt lat="41.0408028401434421539306640625" lon="-7.73402924649417400360107421875">
        <ele>641</ele>
        <time>2019-04-30T10:42:19.000Z</time>
      </trkpt>
      <trkpt lat="41.04116334579885005950927734375" lon="-7.734568454325199127197265625">
        <ele>636.4000244140625</ele>
        <time>2019-04-30T10:42:40.000Z</time>
      </trkpt>
      <trkpt lat="41.041191257536411285400390625" lon="-7.73460902273654937744140625">
        <ele>635.20001220703125</ele>
        <time>2019-04-30T10:42:42.000Z</time>
      </trkpt>
      <trkpt lat="41.0412910021841526031494140625" lon="-7.734612040221691131591796875">
        <ele>633.20001220703125</ele>
        <time>2019-04-30T10:42:47.000Z</time>
      </trkpt>
      <trkpt lat="41.04137775488197803497314453125" lon="-7.7346390299499034881591796875">
        <ele>631.20001220703125</ele>
        <time>2019-04-30T10:42:51.000Z</time>
      </trkpt>
      <trkpt lat="41.04141195304691791534423828125" lon="-7.73488403297960758209228515625">
        <ele>626.5999755859375</ele>
        <time>2019-04-30T10:43:01.000Z</time>
      </trkpt>
      <trkpt lat="41.0414019785821437835693359375" lon="-7.7349022217094898223876953125">
        <ele>626.5999755859375</ele>
        <time>2019-04-30T10:43:04.000Z</time>
      </trkpt>
      <trkpt lat="41.041336767375469207763671875" lon="-7.7352438680827617645263671875">
        <ele>623.5999755859375</ele>
        <time>2019-04-30T10:43:39.000Z</time>
      </trkpt>
      <trkpt lat="41.041337437927722930908203125" lon="-7.735536731779575347900390625">
        <ele>620.4000244140625</ele>
        <time>2019-04-30T10:43:46.000Z</time>
      </trkpt>
      <trkpt lat="41.04152142070233821868896484375" lon="-7.73620753549039363861083984375">
        <ele>613.79998779296875</ele>
        <time>2019-04-30T10:44:01.000Z</time>
      </trkpt>
      <trkpt lat="41.0416762344539165496826171875" lon="-7.73657508194446563720703125">
        <ele>611.20001220703125</ele>
        <time>2019-04-30T10:44:12.000Z</time>
      </trkpt>
      <trkpt lat="41.042150817811489105224609375" lon="-7.73698152042925357818603515625">
        <ele>603.20001220703125</ele>
        <time>2019-04-30T10:44:27.000Z</time>
      </trkpt>
      <trkpt lat="41.04233496822416782379150390625" lon="-7.737135328352451324462890625">
        <ele>599.20001220703125</ele>
        <time>2019-04-30T10:44:36.000Z</time>
      </trkpt>
      <trkpt lat="41.0425328649580478668212890625" lon="-7.73757462389767169952392578125">
        <ele>592.4000244140625</ele>
        <time>2019-04-30T10:44:53.000Z</time>
      </trkpt>
      <trkpt lat="41.04256949387490749359130859375" lon="-7.7383334375917911529541015625">
        <ele>583.79998779296875</ele>
        <time>2019-04-30T10:45:12.000Z</time>
      </trkpt>
      <trkpt lat="41.0425937175750732421875" lon="-7.7390861324965953826904296875">
        <ele>576.20001220703125</ele>
        <time>2019-04-30T10:45:27.000Z</time>
      </trkpt>
      <trkpt lat="41.04257117025554180145263671875" lon="-7.73981728591024875640869140625">
        <ele>572.79998779296875</ele>
        <time>2019-04-30T10:45:43.000Z</time>
      </trkpt>
      <trkpt lat="41.04260302148759365081787109375" lon="-7.740077711641788482666015625">
        <ele>571</ele>
        <time>2019-04-30T10:45:49.000Z</time>
      </trkpt>
      <trkpt lat="41.0426300950348377227783203125" lon="-7.740406282246112823486328125">
        <ele>568</ele>
        <time>2019-04-30T10:45:55.000Z</time>
      </trkpt>
      <trkpt lat="41.04268382303416728973388671875" lon="-7.74114112369716167449951171875">
        <ele>561.5999755859375</ele>
        <time>2019-04-30T10:46:07.000Z</time>
      </trkpt>
      <trkpt lat="41.042660772800445556640625" lon="-7.7413824386894702911376953125">
        <ele>560</ele>
        <time>2019-04-30T10:46:16.000Z</time>
      </trkpt>
      <trkpt lat="41.04264560155570507049560546875" lon="-7.74142661131918430328369140625">
        <ele>560</ele>
        <time>2019-04-30T10:46:18.000Z</time>
      </trkpt>
      <trkpt lat="41.04263906367123126983642578125" lon="-7.7421062998473644256591796875">
        <ele>556.4000244140625</ele>
        <time>2019-04-30T10:46:40.000Z</time>
      </trkpt>
      <trkpt lat="41.04295405559241771697998046875" lon="-7.7427289076149463653564453125">
        <ele>545.79998779296875</ele>
        <time>2019-04-30T10:46:57.000Z</time>
      </trkpt>
      <trkpt lat="41.043004430830478668212890625" lon="-7.74281314574182033538818359375">
        <ele>545.4000244140625</ele>
        <time>2019-04-30T10:46:59.000Z</time>
      </trkpt>
      <trkpt lat="41.04306385852396488189697265625" lon="-7.7429190091788768768310546875">
        <ele>544.79998779296875</ele>
        <time>2019-04-30T10:47:01.000Z</time>
      </trkpt>
      <trkpt lat="41.04323853738605976104736328125" lon="-7.74335394613444805145263671875">
        <ele>545</ele>
        <time>2019-04-30T10:47:09.000Z</time>
      </trkpt>
      <trkpt lat="41.04362972080707550048828125" lon="-7.74387563578784465789794921875">
        <ele>542.20001220703125</ele>
        <time>2019-04-30T10:47:26.000Z</time>
      </trkpt>
      <trkpt lat="41.04392317123711109161376953125" lon="-7.74448248557746410369873046875">
        <ele>534.4000244140625</ele>
        <time>2019-04-30T10:47:47.000Z</time>
      </trkpt>
      <trkpt lat="41.0441747121512889862060546875" lon="-7.74513292126357555389404296875">
        <ele>528</ele>
        <time>2019-04-30T10:48:06.000Z</time>
      </trkpt>
      <trkpt lat="41.04431795887649059295654296875" lon="-7.74537415243685245513916015625">
        <ele>523.5999755859375</ele>
        <time>2019-04-30T10:48:18.000Z</time>
      </trkpt>
      <trkpt lat="41.044362299144268035888671875" lon="-7.74543031118810176849365234375">
        <ele>522.4000244140625</ele>
        <time>2019-04-30T10:53:45.000Z</time>
      </trkpt>
      <trkpt lat="41.04472598992288112640380859375" lon="-7.7458043955266475677490234375">
        <ele>518.4000244140625</ele>
        <time>2019-04-30T10:54:09.000Z</time>
      </trkpt>
      <trkpt lat="41.0447188653051853179931640625" lon="-7.7458023838698863983154296875">
        <ele>518.4000244140625</ele>
        <time>2019-04-30T10:54:10.000Z</time>
      </trkpt>
      <trkpt lat="41.04481282643973827362060546875" lon="-7.74589533917605876922607421875">
        <ele>516.5999755859375</ele>
        <time>2019-04-30T10:54:26.000Z</time>
      </trkpt>
      <trkpt lat="41.044833026826381683349609375" lon="-7.74590204469859600067138671875">
        <ele>516.20001220703125</ele>
        <time>2019-04-30T10:54:30.000Z</time>
      </trkpt>
      <trkpt lat="41.0448647104203701019287109375" lon="-7.745889388024806976318359375">
        <ele>515.5999755859375</ele>
        <time>2019-04-30T10:54:37.000Z</time>
      </trkpt>
      <trkpt lat="41.04490217752754688262939453125" lon="-7.7458781562745571136474609375">
        <ele>515</ele>
        <time>2019-04-30T10:54:39.000Z</time>
      </trkpt>
      <trkpt lat="41.045379526913166046142578125" lon="-7.745662741363048553466796875">
        <ele>505.79998779296875</ele>
        <time>2019-04-30T10:54:56.000Z</time>
      </trkpt>
      <trkpt lat="41.04576182551681995391845703125" lon="-7.74570473469793796539306640625">
        <ele>498</ele>
        <time>2019-04-30T10:55:12.000Z</time>
      </trkpt>
      <trkpt lat="41.0458123683929443359375" lon="-7.74572133086621761322021484375">
        <ele>497</ele>
        <time>2019-04-30T10:55:15.000Z</time>
      </trkpt>
      <trkpt lat="41.04586710222065448760986328125" lon="-7.74562175385653972625732421875">
        <ele>496</ele>
        <time>2019-04-30T10:55:20.000Z</time>
      </trkpt>
      <trkpt lat="41.04633028618991374969482421875" lon="-7.745684869587421417236328125">
        <ele>487.600006103515625</ele>
        <time>2019-04-30T10:55:38.000Z</time>
      </trkpt>
      <trkpt lat="41.0467204637825489044189453125" lon="-7.74558504112064838409423828125">
        <ele>479.600006103515625</ele>
        <time>2019-04-30T10:55:49.000Z</time>
      </trkpt>
      <trkpt lat="41.04685583151876926422119140625" lon="-7.74533425457775592803955078125">
        <ele>476.600006103515625</ele>
        <time>2019-04-30T10:56:04.000Z</time>
      </trkpt>
      <trkpt lat="41.04735338129103183746337890625" lon="-7.74559761397540569305419921875">
        <ele>466.399993896484375</ele>
        <time>2019-04-30T10:56:18.000Z</time>
      </trkpt>
      <trkpt lat="41.04751783423125743865966796875" lon="-7.74572543799877166748046875">
        <ele>464.20001220703125</ele>
        <time>2019-04-30T10:56:22.000Z</time>
      </trkpt>
      <trkpt lat="41.04762344621121883392333984375" lon="-7.7457864582538604736328125">
        <ele>462.20001220703125</ele>
        <time>2019-04-30T10:56:24.000Z</time>
      </trkpt>
      <trkpt lat="41.04776996187865734100341796875" lon="-7.7458441257476806640625">
        <ele>459.79998779296875</ele>
        <time>2019-04-30T10:56:27.000Z</time>
      </trkpt>
      <trkpt lat="41.048229038715362548828125" lon="-7.746035568416118621826171875">
        <ele>453.79998779296875</ele>
        <time>2019-04-30T10:56:48.000Z</time>
      </trkpt>
      <trkpt lat="41.04815435595810413360595703125" lon="-7.74604068137705326080322265625">
        <ele>454.20001220703125</ele>
        <time>2019-04-30T10:58:42.000Z</time>
      </trkpt>
      <trkpt lat="41.04797758162021636962890625" lon="-7.74608762003481388092041015625">
        <ele>455.399993896484375</ele>
        <time>2019-04-30T10:58:51.000Z</time>
      </trkpt>
      <trkpt lat="41.04808948002755641937255859375" lon="-7.74631150066852569580078125">
        <ele>454</ele>
        <time>2019-04-30T10:58:56.000Z</time>
      </trkpt>
      <trkpt lat="41.04822778142988681793212890625" lon="-7.74654946289956569671630859375">
        <ele>452.600006103515625</ele>
        <time>2019-04-30T10:59:05.000Z</time>
      </trkpt>
      <trkpt lat="41.048273630440235137939453125" lon="-7.74672414176166057586669921875">
        <ele>451.79998779296875</ele>
        <time>2019-04-30T11:01:31.000Z</time>
      </trkpt>
      <trkpt lat="41.0483854450285434722900390625" lon="-7.74709713645279407501220703125">
        <ele>450.399993896484375</ele>
        <time>2019-04-30T11:01:58.000Z</time>
      </trkpt>
      <trkpt lat="41.04843716137111186981201171875" lon="-7.74718715809285640716552734375">
        <ele>449.79998779296875</ele>
        <time>2019-04-30T11:06:38.000Z</time>
      </trkpt>
      <trkpt lat="41.04854562319815158843994140625" lon="-7.7476477436721324920654296875">
        <ele>452.79998779296875</ele>
        <time>2019-04-30T11:06:47.000Z</time>
      </trkpt>
      <trkpt lat="41.0486560128629207611083984375" lon="-7.747646234929561614990234375">
        <ele>453</ele>
        <time>2019-04-30T11:06:51.000Z</time>
      </trkpt>
      <trkpt lat="41.04919035919010639190673828125" lon="-7.74765570648014545440673828125">
        <ele>453.79998779296875</ele>
        <time>2019-04-30T11:07:15.000Z</time>
      </trkpt>
      <trkpt lat="41.04950778186321258544921875" lon="-7.7478007972240447998046875">
        <ele>454.79998779296875</ele>
        <time>2019-04-30T11:07:28.000Z</time>
      </trkpt>
      <trkpt lat="41.04951381683349609375" lon="-7.747805155813694000244140625">
        <ele>454.79998779296875</ele>
        <time>2019-04-30T11:07:31.000Z</time>
      </trkpt>
      <trkpt lat="41.0495240427553653717041015625" lon="-7.74780859239399433135986328125">
        <ele>454.79998779296875</ele>
        <time>2019-04-30T11:08:30.000Z</time>
      </trkpt>
      <trkpt lat="41.05003123171627521514892578125" lon="-7.74810321629047393798828125">
        <ele>460.399993896484375</ele>
        <time>2019-04-30T11:08:50.000Z</time>
      </trkpt>
      <trkpt lat="41.05057395994663238525390625" lon="-7.74816649965941905975341796875">
        <ele>464.20001220703125</ele>
        <time>2019-04-30T11:09:09.000Z</time>
      </trkpt>
      <trkpt lat="41.05066574178636074066162109375" lon="-7.7481548488140106201171875">
        <ele>465.20001220703125</ele>
        <time>2019-04-30T11:09:14.000Z</time>
      </trkpt>
      <trkpt lat="41.05079951696097850799560546875" lon="-7.74810078553855419158935546875">
        <ele>466.399993896484375</ele>
        <time>2019-04-30T11:09:23.000Z</time>
      </trkpt>
      <trkpt lat="41.05094217695295810699462890625" lon="-7.7480668388307094573974609375">
        <ele>468.20001220703125</ele>
        <time>2019-04-30T11:09:32.000Z</time>
      </trkpt>
      <trkpt lat="41.05100822634994983673095703125" lon="-7.74803750216960906982421875">
        <ele>469</ele>
        <time>2019-04-30T11:09:36.000Z</time>
      </trkpt>
      <trkpt lat="41.05148867703974246978759765625" lon="-7.74789760820567607879638671875">
        <ele>475</ele>
        <time>2019-04-30T11:10:11.000Z</time>
      </trkpt>
      <trkpt lat="41.05155221186578273773193359375" lon="-7.7478552795946598052978515625">
        <ele>475.20001220703125</ele>
        <time>2019-04-30T11:10:16.000Z</time>
      </trkpt>
      <trkpt lat="41.0517730750143527984619140625" lon="-7.74778378196060657501220703125">
        <ele>476.600006103515625</ele>
        <time>2019-04-30T11:10:32.000Z</time>
      </trkpt>
      <trkpt lat="41.05179495178163051605224609375" lon="-7.7477644197642803192138671875">
        <ele>476.600006103515625</ele>
        <time>2019-04-30T11:10:34.000Z</time>
      </trkpt>
      <trkpt lat="41.0518781840801239013671875" lon="-7.747761905193328857421875">
        <ele>477.600006103515625</ele>
        <time>2019-04-30T11:10:40.000Z</time>
      </trkpt>
      <trkpt lat="41.05192847549915313720703125" lon="-7.747723348438739776611328125">
        <ele>477.600006103515625</ele>
        <time>2019-04-30T11:10:44.000Z</time>
      </trkpt>
      <trkpt lat="41.05210608802735805511474609375" lon="-7.7476809360086917877197265625">
        <ele>479</ele>
        <time>2019-04-30T11:10:57.000Z</time>
      </trkpt>
      <trkpt lat="41.05240599252283573150634765625" lon="-7.7476507611572742462158203125">
        <ele>480.20001220703125</ele>
        <time>2019-04-30T11:11:20.000Z</time>
      </trkpt>
      <trkpt lat="41.0525874607264995574951171875" lon="-7.74763257242739200592041015625">
        <ele>479.20001220703125</ele>
        <time>2019-04-30T11:11:33.000Z</time>
      </trkpt>
      <trkpt lat="41.05308727361261844635009765625" lon="-7.74791789241135120391845703125">
        <ele>482.399993896484375</ele>
        <time>2019-04-30T11:12:06.000Z</time>
      </trkpt>
      <trkpt lat="41.0532036982476711273193359375" lon="-7.7479992806911468505859375">
        <ele>483.399993896484375</ele>
        <time>2019-04-30T11:12:13.000Z</time>
      </trkpt>
      <trkpt lat="41.05331006459891796112060546875" lon="-7.74818326346576213836669921875">
        <ele>486</ele>
        <time>2019-04-30T11:12:22.000Z</time>
      </trkpt>
      <trkpt lat="41.05342405848205089569091796875" lon="-7.7488844096660614013671875">
        <ele>494.399993896484375</ele>
        <time>2019-04-30T11:12:47.000Z</time>
      </trkpt>
      <trkpt lat="41.05368741787970066070556640625" lon="-7.74953694082796573638916015625">
        <ele>497.399993896484375</ele>
        <time>2019-04-30T11:13:11.000Z</time>
      </trkpt>
      <trkpt lat="41.0537273995578289031982421875" lon="-7.749615646898746490478515625">
        <ele>497.79998779296875</ele>
        <time>2019-04-30T11:13:16.000Z</time>
      </trkpt>
      <trkpt lat="41.053737960755825042724609375" lon="-7.74963752366602420806884765625">
        <ele>497.79998779296875</ele>
        <time>2019-04-30T11:14:19.000Z</time>
      </trkpt>
      <trkpt lat="41.05373955331742763519287109375" lon="-7.74965596385300159454345703125">
        <ele>497.79998779296875</ele>
        <time>2019-04-30T11:14:20.000Z</time>
      </trkpt>
      <trkpt lat="41.05373938567936420440673828125" lon="-7.749695442616939544677734375">
        <ele>498</ele>
        <time>2019-04-30T11:14:22.000Z</time>
      </trkpt>
      <trkpt lat="41.05401498265564441680908203125" lon="-7.75031067430973052978515625">
        <ele>500.600006103515625</ele>
        <time>2019-04-30T11:14:46.000Z</time>
      </trkpt>
      <trkpt lat="41.054162085056304931640625" lon="-7.75040882639586925506591796875">
        <ele>501.600006103515625</ele>
        <time>2019-04-30T11:14:57.000Z</time>
      </trkpt>
      <trkpt lat="41.054631136357784271240234375" lon="-7.750052176415920257568359375">
        <ele>501.600006103515625</ele>
        <time>2019-04-30T11:15:17.000Z</time>
      </trkpt>
      <trkpt lat="41.054815538227558135986328125" lon="-7.7499366737902164459228515625">
        <ele>502.20001220703125</ele>
        <time>2019-04-30T11:15:22.000Z</time>
      </trkpt>
      <trkpt lat="41.05516699142754077911376953125" lon="-7.74984086863696575164794921875">
        <ele>504.20001220703125</ele>
        <time>2019-04-30T11:15:36.000Z</time>
      </trkpt>
      <trkpt lat="41.05520906858146190643310546875" lon="-7.7499128691852092742919921875">
        <ele>504.600006103515625</ele>
        <time>2019-04-30T11:15:40.000Z</time>
      </trkpt>
      <trkpt lat="41.055474020540714263916015625" lon="-7.75036968290805816650390625">
        <ele>507.79998779296875</ele>
        <time>2019-04-30T11:16:06.000Z</time>
      </trkpt>
      <trkpt lat="41.0557352006435394287109375" lon="-7.75063094682991504669189453125">
        <ele>511.600006103515625</ele>
        <time>2019-04-30T11:16:26.000Z</time>
      </trkpt>
      <trkpt lat="41.0558993183076381683349609375" lon="-7.75077394209802150726318359375">
        <ele>513.5999755859375</ele>
        <time>2019-04-30T11:16:37.000Z</time>
      </trkpt>
      <trkpt lat="41.0563894920051097869873046875" lon="-7.75102187879383563995361328125">
        <ele>519.20001220703125</ele>
        <time>2019-04-30T11:17:09.000Z</time>
      </trkpt>
      <trkpt lat="41.05672569014132022857666015625" lon="-7.7511309273540973663330078125">
        <ele>521.79998779296875</ele>
        <time>2019-04-30T11:17:30.000Z</time>
      </trkpt>
      <trkpt lat="41.057127602398395538330078125" lon="-7.75160408578813076019287109375">
        <ele>525.20001220703125</ele>
        <time>2019-04-30T11:18:03.000Z</time>
      </trkpt>
      <trkpt lat="41.05735986493527889251708984375" lon="-7.75178262032568454742431640625">
        <ele>527</ele>
        <time>2019-04-30T11:18:20.000Z</time>
      </trkpt>
      <trkpt lat="41.0578556545078754425048828125" lon="-7.7520338259637355804443359375">
        <ele>530</ele>
        <time>2019-04-30T11:18:55.000Z</time>
      </trkpt>
      <trkpt lat="41.0583994723856449127197265625" lon="-7.75190415792167186737060546875">
        <ele>526.79998779296875</ele>
        <time>2019-04-30T11:19:14.000Z</time>
      </trkpt>
      <trkpt lat="41.05849477462470531463623046875" lon="-7.75184414349496364593505859375">
        <ele>526</ele>
        <time>2019-04-30T11:19:18.000Z</time>
      </trkpt>
      <trkpt lat="41.0587419569492340087890625" lon="-7.752053104341030120849609375">
        <ele>524.4000244140625</ele>
        <time>2019-04-30T11:19:26.000Z</time>
      </trkpt>
      <trkpt lat="41.05922232381999492645263671875" lon="-7.75256113149225711822509765625">
        <ele>517</ele>
        <time>2019-04-30T11:19:35.000Z</time>
      </trkpt>
      <trkpt lat="41.0596044547855854034423828125" lon="-7.753105200827121734619140625">
        <ele>511.600006103515625</ele>
        <time>2019-04-30T11:19:41.000Z</time>
      </trkpt>
      <trkpt lat="41.0599511303007602691650390625" lon="-7.753702662885189056396484375">
        <ele>509.399993896484375</ele>
        <time>2019-04-30T11:19:47.000Z</time>
      </trkpt>
      <trkpt lat="41.06028699316084384918212890625" lon="-7.75394640862941741943359375">
        <ele>508.20001220703125</ele>
        <time>2019-04-30T11:19:52.000Z</time>
      </trkpt>
      <trkpt lat="41.06046653352677822113037109375" lon="-7.75407557375729084014892578125">
        <ele>507.399993896484375</ele>
        <time>2019-04-30T11:19:55.000Z</time>
      </trkpt>
      <trkpt lat="41.06074732728302478790283203125" lon="-7.75417464785277843475341796875">
        <ele>505.399993896484375</ele>
        <time>2019-04-30T11:19:59.000Z</time>
      </trkpt>
      <trkpt lat="41.06097984127700328826904296875" lon="-7.75434295646846294403076171875">
        <ele>502.20001220703125</ele>
        <time>2019-04-30T11:20:03.000Z</time>
      </trkpt>
      <trkpt lat="41.061352752149105072021484375" lon="-7.75463380850851535797119140625">
        <ele>496.399993896484375</ele>
        <time>2019-04-30T11:20:10.000Z</time>
      </trkpt>
      <trkpt lat="41.06141217984259128570556640625" lon="-7.754815779626369476318359375">
        <ele>494.600006103515625</ele>
        <time>2019-04-30T11:20:14.000Z</time>
      </trkpt>
      <trkpt lat="41.06143933720886707305908203125" lon="-7.75497076101601123809814453125">
        <ele>493.20001220703125</ele>
        <time>2019-04-30T11:20:17.000Z</time>
      </trkpt>
      <trkpt lat="41.06159071438014507293701171875" lon="-7.7551847510039806365966796875">
        <ele>490.600006103515625</ele>
        <time>2019-04-30T11:20:22.000Z</time>
      </trkpt>
      <trkpt lat="41.06190025806427001953125" lon="-7.7556061930954456329345703125">
        <ele>487</ele>
        <time>2019-04-30T11:20:30.000Z</time>
      </trkpt>
      <trkpt lat="41.06201349757611751556396484375" lon="-7.755897380411624908447265625">
        <ele>487.79998779296875</ele>
        <time>2019-04-30T11:20:35.000Z</time>
      </trkpt>
      <trkpt lat="41.06206529773771762847900390625" lon="-7.75602914392948150634765625">
        <ele>487.399993896484375</ele>
        <time>2019-04-30T11:20:38.000Z</time>
      </trkpt>
      <trkpt lat="41.06262923218309879302978515625" lon="-7.7561882324516773223876953125">
        <ele>487</ele>
        <time>2019-04-30T11:20:52.000Z</time>
      </trkpt>
      <trkpt lat="41.06319509446620941162109375" lon="-7.75627749972045421600341796875">
        <ele>483.79998779296875</ele>
        <time>2019-04-30T11:21:02.000Z</time>
      </trkpt>
      <trkpt lat="41.06324312277138233184814453125" lon="-7.75628588162362575531005859375">
        <ele>483.399993896484375</ele>
        <time>2019-04-30T11:21:03.000Z</time>
      </trkpt>
      <trkpt lat="41.06331151910126209259033203125" lon="-7.7562807686626911163330078125">
        <ele>483.20001220703125</ele>
        <time>2019-04-30T11:21:07.000Z</time>
      </trkpt>
      <trkpt lat="41.0632787458598613739013671875" lon="-7.7562854625284671783447265625">
        <ele>483.399993896484375</ele>
        <time>2019-04-30T11:21:28.000Z</time>
      </trkpt>
      <trkpt lat="41.0627423040568828582763671875" lon="-7.75620122440159320831298828125">
        <ele>486.79998779296875</ele>
        <time>2019-04-30T11:21:51.000Z</time>
      </trkpt>
      <trkpt lat="41.0621958039700984954833984375" lon="-7.756105922162532806396484375">
        <ele>487.20001220703125</ele>
        <time>2019-04-30T11:22:16.000Z</time>
      </trkpt>
      <trkpt lat="41.061977706849575042724609375" lon="-7.755991928279399871826171875">
        <ele>487.79998779296875</ele>
        <time>2019-04-30T11:22:30.000Z</time>
      </trkpt>
      <trkpt lat="41.06196689419448375701904296875" lon="-7.75601866655051708221435546875">
        <ele>487.79998779296875</ele>
        <time>2019-04-30T11:23:22.000Z</time>
      </trkpt>
      <trkpt lat="41.06189195998013019561767578125" lon="-7.756296694278717041015625">
        <ele>487.600006103515625</ele>
        <time>2019-04-30T11:23:31.000Z</time>
      </trkpt>
      <trkpt lat="41.06177729554474353790283203125" lon="-7.7567032165825366973876953125">
        <ele>488</ele>
        <time>2019-04-30T11:23:43.000Z</time>
      </trkpt>
      <trkpt lat="41.0618330352008342742919921875" lon="-7.75682869367301464080810546875">
        <ele>487.399993896484375</ele>
        <time>2019-04-30T11:23:48.000Z</time>
      </trkpt>
      <trkpt lat="41.0618645511567592620849609375" lon="-7.75742816738784313201904296875">
        <ele>485</ele>
        <time>2019-04-30T11:24:13.000Z</time>
      </trkpt>
      <trkpt lat="41.0618360526859760284423828125" lon="-7.7574736811220645904541015625">
        <ele>484.79998779296875</ele>
        <time>2019-04-30T11:24:14.000Z</time>
      </trkpt>
      <trkpt lat="41.06171711347997188568115234375" lon="-7.75788900442421436309814453125">
        <ele>481</ele>
        <time>2019-04-30T11:24:21.000Z</time>
      </trkpt>
      <trkpt lat="41.06163798831403255462646484375" lon="-7.758053205907344818115234375">
        <ele>479.399993896484375</ele>
        <time>2019-04-30T11:24:24.000Z</time>
      </trkpt>
      <trkpt lat="41.06151200830936431884765625" lon="-7.75814599357545375823974609375">
        <ele>478.399993896484375</ele>
        <time>2019-04-30T11:24:27.000Z</time>
      </trkpt>
      <trkpt lat="41.06134814210236072540283203125" lon="-7.75824322365224361419677734375">
        <ele>476.399993896484375</ele>
        <time>2019-04-30T11:24:31.000Z</time>
      </trkpt>
      <trkpt lat="41.06122006662189960479736328125" lon="-7.75847791694104671478271484375">
        <ele>472</ele>
        <time>2019-04-30T11:24:36.000Z</time>
      </trkpt>
      <trkpt lat="41.061197184026241302490234375" lon="-7.75852493941783905029296875">
        <ele>471</ele>
        <time>2019-04-30T11:24:37.000Z</time>
      </trkpt>
      <trkpt lat="41.06096358038485050201416015625" lon="-7.75879458524286746978759765625">
        <ele>464</ele>
        <time>2019-04-30T11:24:43.000Z</time>
      </trkpt>
      <trkpt lat="41.060454547405242919921875" lon="-7.7591487206518650054931640625">
        <ele>454</ele>
        <time>2019-04-30T11:24:51.000Z</time>
      </trkpt>
      <trkpt lat="41.06037215329706668853759765625" lon="-7.759319879114627838134765625">
        <ele>451.600006103515625</ele>
        <time>2019-04-30T11:24:53.000Z</time>
      </trkpt>
      <trkpt lat="41.060304343700408935546875" lon="-7.7594521455466747283935546875">
        <ele>450</ele>
        <time>2019-04-30T11:24:55.000Z</time>
      </trkpt>
      <trkpt lat="41.060259751975536346435546875" lon="-7.759580723941326141357421875">
        <ele>448.399993896484375</ele>
        <time>2019-04-30T11:24:58.000Z</time>
      </trkpt>
      <trkpt lat="41.06058538891375064849853515625" lon="-7.75973805226385593414306640625">
        <ele>444.20001220703125</ele>
        <time>2019-04-30T11:25:06.000Z</time>
      </trkpt>
      <trkpt lat="41.06064171530306339263916015625" lon="-7.75973193347454071044921875">
        <ele>444.399993896484375</ele>
        <time>2019-04-30T11:25:07.000Z</time>
      </trkpt>
      <trkpt lat="41.060859896242618560791015625" lon="-7.75969748385250568389892578125">
        <ele>446</ele>
        <time>2019-04-30T11:25:11.000Z</time>
      </trkpt>
      <trkpt lat="41.06104270555078983306884765625" lon="-7.75976185686886310577392578125">
        <ele>444.79998779296875</ele>
        <time>2019-04-30T11:25:15.000Z</time>
      </trkpt>
      <trkpt lat="41.06139130890369415283203125" lon="-7.76031791232526302337646484375">
        <ele>434</ele>
        <time>2019-04-30T11:25:27.000Z</time>
      </trkpt>
      <trkpt lat="41.06137387454509735107421875" lon="-7.76043710298836231231689453125">
        <ele>432.399993896484375</ele>
        <time>2019-04-30T11:25:34.000Z</time>
      </trkpt>
      <trkpt lat="41.06135107576847076416015625" lon="-7.7604415453970432281494140625">
        <ele>432.600006103515625</ele>
        <time>2019-04-30T11:26:02.000Z</time>
      </trkpt>
      <trkpt lat="41.06125585734844207763671875" lon="-7.7605706267058849334716796875">
        <ele>431.600006103515625</ele>
        <time>2019-04-30T11:26:09.000Z</time>
      </trkpt>
      <trkpt lat="41.06117664836347103118896484375" lon="-7.7611758001148700714111328125">
        <ele>428.79998779296875</ele>
        <time>2019-04-30T11:26:29.000Z</time>
      </trkpt>
      <trkpt lat="41.06152650900185108184814453125" lon="-7.7617590129375457763671875">
        <ele>423.20001220703125</ele>
        <time>2019-04-30T11:26:41.000Z</time>
      </trkpt>
      <trkpt lat="41.061737649142742156982421875" lon="-7.7620743401348590850830078125">
        <ele>422.79998779296875</ele>
        <time>2019-04-30T11:26:46.000Z</time>
      </trkpt>
      <trkpt lat="41.06193873099982738494873046875" lon="-7.76220249943435192108154296875">
        <ele>420.399993896484375</ele>
        <time>2019-04-30T11:26:50.000Z</time>
      </trkpt>
      <trkpt lat="41.0620357096195220947265625" lon="-7.762219347059726715087890625">
        <ele>418.79998779296875</ele>
        <time>2019-04-30T11:26:52.000Z</time>
      </trkpt>
      <trkpt lat="41.06232815422117710113525390625" lon="-7.7622525393962860107421875">
        <ele>414.399993896484375</ele>
        <time>2019-04-30T11:26:59.000Z</time>
      </trkpt>
      <trkpt lat="41.06239520944654941558837890625" lon="-7.76294765062630176544189453125">
        <ele>409.20001220703125</ele>
        <time>2019-04-30T11:27:09.000Z</time>
      </trkpt>
      <trkpt lat="41.0623211972415447235107421875" lon="-7.76310078799724578857421875">
        <ele>409.20001220703125</ele>
        <time>2019-04-30T11:27:11.000Z</time>
      </trkpt>
      <trkpt lat="41.06203009374439716339111328125" lon="-7.7637342922389507293701171875">
        <ele>406.79998779296875</ele>
        <time>2019-04-30T11:27:18.000Z</time>
      </trkpt>
      <trkpt lat="41.061966307461261749267578125" lon="-7.76395381428301334381103515625">
        <ele>404.600006103515625</ele>
        <time>2019-04-30T11:27:20.000Z</time>
      </trkpt>
      <trkpt lat="41.06184166856110095977783203125" lon="-7.76473567821085453033447265625">
        <ele>396.79998779296875</ele>
        <time>2019-04-30T11:27:26.000Z</time>
      </trkpt>
      <trkpt lat="41.0617398284375667572021484375" lon="-7.76550044305622577667236328125">
        <ele>389.79998779296875</ele>
        <time>2019-04-30T11:27:32.000Z</time>
      </trkpt>
      <trkpt lat="41.06162927113473415374755859375" lon="-7.76618893258273601531982421875">
        <ele>382.79998779296875</ele>
        <time>2019-04-30T11:27:38.000Z</time>
      </trkpt>
      <trkpt lat="41.06131629087030887603759765625" lon="-7.76675999164581298828125">
        <ele>379.399993896484375</ele>
        <time>2019-04-30T11:27:48.000Z</time>
      </trkpt>
      <trkpt lat="41.06116189621388912200927734375" lon="-7.766751609742641448974609375">
        <ele>380</ele>
        <time>2019-04-30T11:27:52.000Z</time>
      </trkpt>
      <trkpt lat="41.06058388017117977142333984375" lon="-7.76671900413930416107177734375">
        <ele>382</ele>
        <time>2019-04-30T11:28:01.000Z</time>
      </trkpt>
      <trkpt lat="41.06003821827471256256103515625" lon="-7.76688278652727603912353515625">
        <ele>385.79998779296875</ele>
        <time>2019-04-30T11:28:16.000Z</time>
      </trkpt>
      <trkpt lat="41.05981207452714443206787109375" lon="-7.7670474909245967864990234375">
        <ele>386.600006103515625</ele>
        <time>2019-04-30T11:28:27.000Z</time>
      </trkpt>
      <trkpt lat="41.0597907006740570068359375" lon="-7.7670478262007236480712890625">
        <ele>386.79998779296875</ele>
        <time>2019-04-30T11:28:31.000Z</time>
      </trkpt>
      <trkpt lat="41.05975289829075336456298828125" lon="-7.76711228303611278533935546875">
        <ele>386.79998779296875</ele>
        <time>2019-04-30T11:29:00.000Z</time>
      </trkpt>
      <trkpt lat="41.059298850595951080322265625" lon="-7.76752886362373828887939453125">
        <ele>389.20001220703125</ele>
        <time>2019-04-30T11:29:28.000Z</time>
      </trkpt>
      <trkpt lat="41.05910665355622768402099609375" lon="-7.76757203042507171630859375">
        <ele>391.20001220703125</ele>
        <time>2019-04-30T11:29:38.000Z</time>
      </trkpt>
      <trkpt lat="41.05860977433621883392333984375" lon="-7.76785902678966522216796875">
        <ele>393.20001220703125</ele>
        <time>2019-04-30T11:30:01.000Z</time>
      </trkpt>
      <trkpt lat="41.05823309160768985748291015625" lon="-7.76838784106075763702392578125">
        <ele>390.399993896484375</ele>
        <time>2019-04-30T11:30:19.000Z</time>
      </trkpt>
      <trkpt lat="41.057917512953281402587890625" lon="-7.7688051760196685791015625">
        <ele>389.399993896484375</ele>
        <time>2019-04-30T11:30:29.000Z</time>
      </trkpt>
      <trkpt lat="41.05783939361572265625" lon="-7.76888136751949787139892578125">
        <ele>389.20001220703125</ele>
        <time>2019-04-30T11:30:31.000Z</time>
      </trkpt>
      <trkpt lat="41.05775733478367328643798828125" lon="-7.76898161508142948150634765625">
        <ele>389</ele>
        <time>2019-04-30T11:30:35.000Z</time>
      </trkpt>
      <trkpt lat="41.0577580891549587249755859375" lon="-7.76898027397692203521728515625">
        <ele>389</ele>
        <time>2019-04-30T11:30:37.000Z</time>
      </trkpt>
      <trkpt lat="41.057760603725910186767578125" lon="-7.7689991332590579986572265625">
        <ele>388.79998779296875</ele>
        <time>2019-04-30T11:30:44.000Z</time>
      </trkpt>
      <trkpt lat="41.05785087682306766510009765625" lon="-7.76911237277090549468994140625">
        <ele>387.20001220703125</ele>
        <time>2019-04-30T11:30:49.000Z</time>
      </trkpt>
      <trkpt lat="41.0582613386213779449462890625" lon="-7.76958771049976348876953125">
        <ele>387</ele>
        <time>2019-04-30T11:31:06.000Z</time>
      </trkpt>
      <trkpt lat="41.0586586408317089080810546875" lon="-7.7700750343501567840576171875">
        <ele>390</ele>
        <time>2019-04-30T11:31:33.000Z</time>
      </trkpt>
      <trkpt lat="41.0587629117071628570556640625" lon="-7.77020302601158618927001953125">
        <ele>391.399993896484375</ele>
        <time>2019-04-30T11:31:41.000Z</time>
      </trkpt>
      <trkpt lat="41.059215702116489410400390625" lon="-7.77059999294579029083251953125">
        <ele>394.600006103515625</ele>
        <time>2019-04-30T11:32:04.000Z</time>
      </trkpt>
      <trkpt lat="41.0592909716069698333740234375" lon="-7.770645506680011749267578125">
        <ele>394.600006103515625</ele>
        <time>2019-04-30T11:32:06.000Z</time>
      </trkpt>
      <trkpt lat="41.05947696603834629058837890625" lon="-7.770732343196868896484375">
        <ele>394.399993896484375</ele>
        <time>2019-04-30T11:32:10.000Z</time>
      </trkpt>
      <trkpt lat="41.05966790579259395599365234375" lon="-7.7707658708095550537109375">
        <ele>394</ele>
        <time>2019-04-30T11:32:14.000Z</time>
      </trkpt>
      <trkpt lat="41.0598076321184635162353515625" lon="-7.77061239816248416900634765625">
        <ele>393.600006103515625</ele>
        <time>2019-04-30T11:32:19.000Z</time>
      </trkpt>
      <trkpt lat="41.06028079055249691009521484375" lon="-7.7703134156763553619384765625">
        <ele>395.20001220703125</ele>
        <time>2019-04-30T11:32:43.000Z</time>
      </trkpt>
      <trkpt lat="41.06056577526032924652099609375" lon="-7.7704790420830249786376953125">
        <ele>399.79998779296875</ele>
        <time>2019-04-30T11:33:04.000Z</time>
      </trkpt>
      <trkpt lat="41.06073743663728237152099609375" lon="-7.77066729962825775146484375">
        <ele>402.79998779296875</ele>
        <time>2019-04-30T11:33:21.000Z</time>
      </trkpt>
      <trkpt lat="41.06078420765697956085205078125" lon="-7.77073712088167667388916015625">
        <ele>404</ele>
        <time>2019-04-30T11:33:29.000Z</time>
      </trkpt>
      <trkpt lat="41.060951761901378631591796875" lon="-7.7708414755761623382568359375">
        <ele>407</ele>
        <time>2019-04-30T11:33:46.000Z</time>
      </trkpt>
      <trkpt lat="41.06127656064927577972412109375" lon="-7.77095404453575611114501953125">
        <ele>411.20001220703125</ele>
        <time>2019-04-30T11:34:14.000Z</time>
      </trkpt>
      <trkpt lat="41.06147672049701213836669921875" lon="-7.77091766707599163055419921875">
        <ele>413</ele>
        <time>2019-04-30T11:34:34.000Z</time>
      </trkpt>
      <trkpt lat="41.06185373850166797637939453125" lon="-7.7709527872502803802490234375">
        <ele>416.399993896484375</ele>
        <time>2019-04-30T11:35:27.000Z</time>
      </trkpt>
      <trkpt lat="41.06237308122217655181884765625" lon="-7.771132998168468475341796875">
        <ele>424.600006103515625</ele>
        <time>2019-04-30T11:36:18.000Z</time>
      </trkpt>
      <trkpt lat="41.062901057302951812744140625" lon="-7.771275825798511505126953125">
        <ele>435.20001220703125</ele>
        <time>2019-04-30T11:37:15.000Z</time>
      </trkpt>
      <trkpt lat="41.0634007863700389862060546875" lon="-7.77158101089298725128173828125">
        <ele>449.600006103515625</ele>
        <time>2019-04-30T11:38:16.000Z</time>
      </trkpt>
      <trkpt lat="41.063497178256511688232421875" lon="-7.77171780355274677276611328125">
        <ele>452.79998779296875</ele>
        <time>2019-04-30T11:38:30.000Z</time>
      </trkpt>
      <trkpt lat="41.06350279413163661956787109375" lon="-7.771966494619846343994140625">
        <ele>454.399993896484375</ele>
        <time>2019-04-30T11:38:50.000Z</time>
      </trkpt>
      <trkpt lat="41.06364042498171329498291015625" lon="-7.7725698240101337432861328125">
        <ele>460</ele>
        <time>2019-04-30T11:39:40.000Z</time>
      </trkpt>
      <trkpt lat="41.0636847652494907379150390625" lon="-7.77266613207757472991943359375">
        <ele>460.79998779296875</ele>
        <time>2019-04-30T11:44:23.000Z</time>
      </trkpt>
      <trkpt lat="41.06375693343579769134521484375" lon="-7.77280510403215885162353515625">
        <ele>462</ele>
        <time>2019-04-30T11:44:31.000Z</time>
      </trkpt>
      <trkpt lat="41.0640951432287693023681640625" lon="-7.77338496409356594085693359375">
        <ele>467.20001220703125</ele>
        <time>2019-04-30T11:45:02.000Z</time>
      </trkpt>
      <trkpt lat="41.06443502940237522125244140625" lon="-7.77396499179303646087646484375">
        <ele>468.20001220703125</ele>
        <time>2019-04-30T11:45:25.000Z</time>
      </trkpt>
      <trkpt lat="41.064692772924900054931640625" lon="-7.77428786270320415496826171875">
        <ele>468.79998779296875</ele>
        <time>2019-04-30T11:45:41.000Z</time>
      </trkpt>
      <trkpt lat="41.06498739682137966156005859375" lon="-7.774888761341571807861328125">
        <ele>468.399993896484375</ele>
        <time>2019-04-30T11:46:02.000Z</time>
      </trkpt>
      <trkpt lat="41.065238602459430694580078125" lon="-7.77552737854421138763427734375">
        <ele>470</ele>
        <time>2019-04-30T11:46:16.000Z</time>
      </trkpt>
      <trkpt lat="41.06547497212886810302734375" lon="-7.77618770487606525421142578125">
        <ele>471.20001220703125</ele>
        <time>2019-04-30T11:46:30.000Z</time>
      </trkpt>
      <trkpt lat="41.06552333571016788482666015625" lon="-7.7763470448553562164306640625">
        <ele>471.20001220703125</ele>
        <time>2019-04-30T11:46:33.000Z</time>
      </trkpt>
      <trkpt lat="41.0655388422310352325439453125" lon="-7.7764590270817279815673828125">
        <ele>471.20001220703125</ele>
        <time>2019-04-30T11:46:35.000Z</time>
      </trkpt>
      <trkpt lat="41.065810583531856536865234375" lon="-7.77703729458153247833251953125">
        <ele>472.399993896484375</ele>
        <time>2019-04-30T11:46:51.000Z</time>
      </trkpt>
      <trkpt lat="41.0662506334483623504638671875" lon="-7.7774584852159023284912109375">
        <ele>473.600006103515625</ele>
        <time>2019-04-30T11:47:06.000Z</time>
      </trkpt>
      <trkpt lat="41.0662762820720672607421875" lon="-7.77748882770538330078125">
        <ele>473.79998779296875</ele>
        <time>2019-04-30T11:47:09.000Z</time>
      </trkpt>
      <trkpt lat="41.06638365425169467926025390625" lon="-7.77749025262892246246337890625">
        <ele>474</ele>
        <time>2019-04-30T11:47:16.000Z</time>
      </trkpt>
      <trkpt lat="41.06644324958324432373046875" lon="-7.77749964036047458648681640625">
        <ele>474.20001220703125</ele>
        <time>2019-04-30T11:47:20.000Z</time>
      </trkpt>
      <trkpt lat="41.0665647871792316436767578125" lon="-7.77755781076848506927490234375">
        <ele>475.600006103515625</ele>
        <time>2019-04-30T11:47:29.000Z</time>
      </trkpt>
      <trkpt lat="41.06656939722597599029541015625" lon="-7.777564264833927154541015625">
        <ele>475.600006103515625</ele>
        <time>2019-04-30T11:47:31.000Z</time>
      </trkpt>
      <trkpt lat="41.0665959678590297698974609375" lon="-7.7776036597788333892822265625">
        <ele>476.20001220703125</ele>
        <time>2019-04-30T11:47:36.000Z</time>
      </trkpt>
      <trkpt lat="41.06663594953715801239013671875" lon="-7.778079248964786529541015625">
        <ele>480.79998779296875</ele>
        <time>2019-04-30T11:48:09.000Z</time>
      </trkpt>
      <trkpt lat="41.06662102974951267242431640625" lon="-7.778140269219875335693359375">
        <ele>481</ele>
        <time>2019-04-30T11:48:21.000Z</time>
      </trkpt>
      <trkpt lat="41.06689210049808025360107421875" lon="-7.77866304852068424224853515625">
        <ele>487</ele>
        <time>2019-04-30T11:48:49.000Z</time>
      </trkpt>
      <trkpt lat="41.0674116946756839752197265625" lon="-7.77887326665222644805908203125">
        <ele>492.79998779296875</ele>
        <time>2019-04-30T11:49:15.000Z</time>
      </trkpt>
      <trkpt lat="41.06795308180153369903564453125" lon="-7.77865852229297161102294921875">
        <ele>494</ele>
        <time>2019-04-30T11:49:39.000Z</time>
      </trkpt>
      <trkpt lat="41.06845088303089141845703125" lon="-7.778388373553752899169921875">
        <ele>497.20001220703125</ele>
        <time>2019-04-30T11:50:06.000Z</time>
      </trkpt>
      <trkpt lat="41.06855624355375766754150390625" lon="-7.778312601149082183837890625">
        <ele>498.600006103515625</ele>
        <time>2019-04-30T11:50:14.000Z</time>
      </trkpt>
      <trkpt lat="41.06864341534674167633056640625" lon="-7.77824160642921924591064453125">
        <ele>499.79998779296875</ele>
        <time>2019-04-30T11:50:22.000Z</time>
      </trkpt>
      <trkpt lat="41.06869521550834178924560546875" lon="-7.7782198973000049591064453125">
        <ele>500.399993896484375</ele>
        <time>2019-04-30T11:50:27.000Z</time>
      </trkpt>
      <trkpt lat="41.068721115589141845703125" lon="-7.77822433970868587493896484375">
        <ele>500.600006103515625</ele>
        <time>2019-04-30T11:50:29.000Z</time>
      </trkpt>
      <trkpt lat="41.0687172599136829376220703125" lon="-7.77827295474708080291748046875">
        <ele>500.600006103515625</ele>
        <time>2019-04-30T11:50:34.000Z</time>
      </trkpt>
      <trkpt lat="41.06873360462486743927001953125" lon="-7.7782197296619415283203125">
        <ele>500.79998779296875</ele>
        <time>2019-04-30T11:52:45.000Z</time>
      </trkpt>
      <trkpt lat="41.0688171721994876861572265625" lon="-7.77807581238448619842529296875">
        <ele>502</ele>
        <time>2019-04-30T11:52:52.000Z</time>
      </trkpt>
      <trkpt lat="41.069133840501308441162109375" lon="-7.77746963314712047576904296875">
        <ele>503.79998779296875</ele>
        <time>2019-04-30T11:53:17.000Z</time>
      </trkpt>
      <trkpt lat="41.069347076117992401123046875" lon="-7.7769525535404682159423828125">
        <ele>503.20001220703125</ele>
        <time>2019-04-30T11:53:45.000Z</time>
      </trkpt>
      <trkpt lat="41.06936576776206493377685546875" lon="-7.77697275392711162567138671875">
        <ele>503.20001220703125</ele>
        <time>2019-04-30T11:54:14.000Z</time>
      </trkpt>
      <trkpt lat="41.0693688690662384033203125" lon="-7.77707551605999469757080078125">
        <ele>503</ele>
        <time>2019-04-30T11:54:18.000Z</time>
      </trkpt>
      <trkpt lat="41.06943198479712009429931640625" lon="-7.7772630192339420318603515625">
        <ele>503.399993896484375</ele>
        <time>2019-04-30T11:54:26.000Z</time>
      </trkpt>
      <trkpt lat="41.06988259591162204742431640625" lon="-7.77771170251071453094482421875">
        <ele>505</ele>
        <time>2019-04-30T11:54:45.000Z</time>
      </trkpt>
      <trkpt lat="41.0704402439296245574951171875" lon="-7.7777538634836673736572265625">
        <ele>507.399993896484375</ele>
        <time>2019-04-30T11:55:02.000Z</time>
      </trkpt>
      <trkpt lat="41.0709907673299312591552734375" lon="-7.7777149714529514312744140625">
        <ele>512.4000244140625</ele>
        <time>2019-04-30T11:55:24.000Z</time>
      </trkpt>
      <trkpt lat="41.07117156498134136199951171875" lon="-7.77774833142757415771484375">
        <ele>514.5999755859375</ele>
        <time>2019-04-30T11:55:35.000Z</time>
      </trkpt>
      <trkpt lat="41.0712490975856781005859375" lon="-7.77775562368333339691162109375">
        <ele>515.5999755859375</ele>
        <time>2019-04-30T11:55:40.000Z</time>
      </trkpt>
      <trkpt lat="41.07138128019869327545166015625" lon="-7.77785670943558216094970703125">
        <ele>517.4000244140625</ele>
        <time>2019-04-30T11:55:49.000Z</time>
      </trkpt>
      <trkpt lat="41.07182585634291172027587890625" lon="-7.77817337773740291595458984375">
        <ele>522.5999755859375</ele>
        <time>2019-04-30T11:56:17.000Z</time>
      </trkpt>
      <trkpt lat="41.07218158431351184844970703125" lon="-7.77850278653204441070556640625">
        <ele>526.4000244140625</ele>
        <time>2019-04-30T11:56:40.000Z</time>
      </trkpt>
      <trkpt lat="41.07225836254656314849853515625" lon="-7.77861678041517734527587890625">
        <ele>526.79998779296875</ele>
        <time>2019-04-30T11:56:46.000Z</time>
      </trkpt>
      <trkpt lat="41.07260939665138721466064453125" lon="-7.779111228883266448974609375">
        <ele>526.79998779296875</ele>
        <time>2019-04-30T11:57:14.000Z</time>
      </trkpt>
      <trkpt lat="41.07254737056791782379150390625" lon="-7.7790999971330165863037109375">
        <ele>527.20001220703125</ele>
        <time>2019-04-30T11:57:22.000Z</time>
      </trkpt>
      <trkpt lat="41.0725551657378673553466796875" lon="-7.779059596359729766845703125">
        <ele>527</ele>
        <time>2019-04-30T11:58:20.000Z</time>
      </trkpt>
      <trkpt lat="41.07260830700397491455078125" lon="-7.77910829521715641021728515625">
        <ele>526.79998779296875</ele>
        <time>2019-04-30T11:58:25.000Z</time>
      </trkpt>
      <trkpt lat="41.07262305915355682373046875" lon="-7.77911382727324962615966796875">
        <ele>526.79998779296875</ele>
        <time>2019-04-30T11:58:26.000Z</time>
      </trkpt>
      <trkpt lat="41.07272288762032985687255859375" lon="-7.779238633811473846435546875">
        <ele>526.5999755859375</ele>
        <time>2019-04-30T11:58:34.000Z</time>
      </trkpt>
      <trkpt lat="41.07295154593884944915771484375" lon="-7.77952252887189388275146484375">
        <ele>528.5999755859375</ele>
        <time>2019-04-30T11:58:52.000Z</time>
      </trkpt>
      <trkpt lat="41.0733149014413356781005859375" lon="-7.77984741143882274627685546875">
        <ele>526</ele>
        <time>2019-04-30T11:59:18.000Z</time>
      </trkpt>
      <trkpt lat="41.0737246088683605194091796875" lon="-7.78033305890858173370361328125">
        <ele>520</ele>
        <time>2019-04-30T11:59:43.000Z</time>
      </trkpt>
      <trkpt lat="41.07381404377520084381103515625" lon="-7.7807195484638214111328125">
        <ele>521.79998779296875</ele>
        <time>2019-04-30T11:59:52.000Z</time>
      </trkpt>
      <trkpt lat="41.07383248396217823028564453125" lon="-7.7815029211342334747314453125">
        <ele>523.4000244140625</ele>
        <time>2019-04-30T12:00:03.000Z</time>
      </trkpt>
      <trkpt lat="41.0739232599735260009765625" lon="-7.78219677507877349853515625">
        <ele>522.5999755859375</ele>
        <time>2019-04-30T12:00:16.000Z</time>
      </trkpt>
      <trkpt lat="41.07397019863128662109375" lon="-7.78226207010447978973388671875">
        <ele>522</ele>
        <time>2019-04-30T12:00:18.000Z</time>
      </trkpt>
      <trkpt lat="41.07409114949405193328857421875" lon="-7.7823181450366973876953125">
        <ele>519.79998779296875</ele>
        <time>2019-04-30T12:00:21.000Z</time>
      </trkpt>
      <trkpt lat="41.07428594492375850677490234375" lon="-7.782355360686779022216796875">
        <ele>516.4000244140625</ele>
        <time>2019-04-30T12:00:25.000Z</time>
      </trkpt>
      <trkpt lat="41.07460529543459415435791015625" lon="-7.78208588249981403350830078125">
        <ele>510.20001220703125</ele>
        <time>2019-04-30T12:00:30.000Z</time>
      </trkpt>
      <trkpt lat="41.07507501728832721710205078125" lon="-7.7816548012197017669677734375">
        <ele>502.20001220703125</ele>
        <time>2019-04-30T12:00:35.000Z</time>
      </trkpt>
      <trkpt lat="41.075432337820529937744140625" lon="-7.7813949622213840484619140625">
        <ele>494</ele>
        <time>2019-04-30T12:00:39.000Z</time>
      </trkpt>
      <trkpt lat="41.07593600638210773468017578125" lon="-7.7814405597746372222900390625">
        <ele>486.600006103515625</ele>
        <time>2019-04-30T12:00:45.000Z</time>
      </trkpt>
      <trkpt lat="41.0760202445089817047119140625" lon="-7.78148171491920948028564453125">
        <ele>485.600006103515625</ele>
        <time>2019-04-30T12:00:46.000Z</time>
      </trkpt>
      <trkpt lat="41.07625032775104045867919921875" lon="-7.78218126855790615081787109375">
        <ele>484.20001220703125</ele>
        <time>2019-04-30T12:00:53.000Z</time>
      </trkpt>
      <trkpt lat="41.076203472912311553955078125" lon="-7.78241160325706005096435546875">
        <ele>485</ele>
        <time>2019-04-30T12:00:55.000Z</time>
      </trkpt>
      <trkpt lat="41.0760859586298465728759765625" lon="-7.78304032981395721435546875">
        <ele>481.20001220703125</ele>
        <time>2019-04-30T12:01:02.000Z</time>
      </trkpt>
      <trkpt lat="41.076464317739009857177734375" lon="-7.78317175805568695068359375">
        <ele>474.600006103515625</ele>
        <time>2019-04-30T12:01:09.000Z</time>
      </trkpt>
      <trkpt lat="41.0767337121069431304931640625" lon="-7.7831290103495121002197265625">
        <ele>469.600006103515625</ele>
        <time>2019-04-30T12:01:16.000Z</time>
      </trkpt>
      <trkpt lat="41.076690293848514556884765625" lon="-7.7831591852009296417236328125">
        <ele>470.20001220703125</ele>
        <time>2019-04-30T12:01:21.000Z</time>
      </trkpt>
      <trkpt lat="41.07636147178709506988525390625" lon="-7.78361608274281024932861328125">
        <ele>470</ele>
        <time>2019-04-30T12:01:44.000Z</time>
      </trkpt>
      <trkpt lat="41.07626994140446186065673828125" lon="-7.78425402939319610595703125">
        <ele>461</ele>
        <time>2019-04-30T12:01:52.000Z</time>
      </trkpt>
      <trkpt lat="41.07589795254170894622802734375" lon="-7.78484252281486988067626953125">
        <ele>458.20001220703125</ele>
        <time>2019-04-30T12:02:01.000Z</time>
      </trkpt>
      <trkpt lat="41.0759444721043109893798828125" lon="-7.785095907747745513916015625">
        <ele>453.600006103515625</ele>
        <time>2019-04-30T12:02:05.000Z</time>
      </trkpt>
      <trkpt lat="41.07601161114871501922607421875" lon="-7.78524242341518402099609375">
        <ele>451.20001220703125</ele>
        <time>2019-04-30T12:02:07.000Z</time>
      </trkpt>
      <trkpt lat="41.07625066302716732025146484375" lon="-7.7856655418872833251953125">
        <ele>444.20001220703125</ele>
        <time>2019-04-30T12:02:12.000Z</time>
      </trkpt>
      <trkpt lat="41.07647068798542022705078125" lon="-7.7862970344722270965576171875">
        <ele>440.20001220703125</ele>
        <time>2019-04-30T12:02:19.000Z</time>
      </trkpt>
      <trkpt lat="41.07691769488155841827392578125" lon="-7.78669944964349269866943359375">
        <ele>440.79998779296875</ele>
        <time>2019-04-30T12:02:27.000Z</time>
      </trkpt>
      <trkpt lat="41.0771648772060871124267578125" lon="-7.78672828339040279388427734375">
        <ele>441.20001220703125</ele>
        <time>2019-04-30T12:02:32.000Z</time>
      </trkpt>
      <trkpt lat="41.07770626433193683624267578125" lon="-7.7868096716701984405517578125">
        <ele>443.79998779296875</ele>
        <time>2019-04-30T12:03:01.000Z</time>
      </trkpt>
      <trkpt lat="41.07790298759937286376953125" lon="-7.78690807521343231201171875">
        <ele>445.600006103515625</ele>
        <time>2019-04-30T12:03:13.000Z</time>
      </trkpt>
      <trkpt lat="41.07793643139302730560302734375" lon="-7.78695392422378063201904296875">
        <ele>446</ele>
        <time>2019-04-30T12:03:18.000Z</time>
      </trkpt>
      <trkpt lat="41.07798957265913486480712890625" lon="-7.787049897015094757080078125">
        <ele>446.79998779296875</ele>
        <time>2019-04-30T12:03:28.000Z</time>
      </trkpt>
      <trkpt lat="41.0780285485088825225830078125" lon="-7.78711368329823017120361328125">
        <ele>447.399993896484375</ele>
        <time>2019-04-30T12:03:33.000Z</time>
      </trkpt>
      <trkpt lat="41.07842090539634227752685546875" lon="-7.787589691579341888427734375">
        <ele>447.79998779296875</ele>
        <time>2019-04-30T12:04:22.000Z</time>
      </trkpt>
      <trkpt lat="41.0785044729709625244140625" lon="-7.78761617839336395263671875">
        <ele>447</ele>
        <time>2019-04-30T12:04:32.000Z</time>
      </trkpt>
      <trkpt lat="41.078547723591327667236328125" lon="-7.78770041652023792266845703125">
        <ele>447.20001220703125</ele>
        <time>2019-04-30T12:07:07.000Z</time>
      </trkpt>
      <trkpt lat="41.0786940716207027435302734375" lon="-7.7881598286330699920654296875">
        <ele>447.600006103515625</ele>
        <time>2019-04-30T12:07:19.000Z</time>
      </trkpt>
      <trkpt lat="41.07888576574623584747314453125" lon="-7.7888370864093303680419921875">
        <ele>450</ele>
        <time>2019-04-30T12:07:30.000Z</time>
      </trkpt>
      <trkpt lat="41.079257838428020477294921875" lon="-7.78934142552316188812255859375">
        <ele>453.600006103515625</ele>
        <time>2019-04-30T12:07:51.000Z</time>
      </trkpt>
      <trkpt lat="41.07972512952983379364013671875" lon="-7.789714001119136810302734375">
        <ele>456.600006103515625</ele>
        <time>2019-04-30T12:08:02.000Z</time>
      </trkpt>
      <trkpt lat="41.07982085086405277252197265625" lon="-7.7896984107792377471923828125">
        <ele>457.20001220703125</ele>
        <time>2019-04-30T12:08:06.000Z</time>
      </trkpt>
      <trkpt lat="41.0798467509448528289794921875" lon="-7.789679132401943206787109375">
        <ele>457.20001220703125</ele>
        <time>2019-04-30T12:08:08.000Z</time>
      </trkpt>
      <trkpt lat="41.07993635348975658416748046875" lon="-7.78964283876121044158935546875">
        <ele>458</ele>
        <time>2019-04-30T12:08:14.000Z</time>
      </trkpt>
      <trkpt lat="41.08007733710110187530517578125" lon="-7.78959590010344982147216796875">
        <ele>459.20001220703125</ele>
        <time>2019-04-30T12:08:23.000Z</time>
      </trkpt>
      <trkpt lat="41.0805417783558368682861328125" lon="-7.789255678653717041015625">
        <ele>461.79998779296875</ele>
        <time>2019-04-30T12:08:56.000Z</time>
      </trkpt>
      <trkpt lat="41.08089373447000980377197265625" lon="-7.788877151906490325927734375">
        <ele>460.399993896484375</ele>
        <time>2019-04-30T12:09:21.000Z</time>
      </trkpt>
      <trkpt lat="41.08094637282192707061767578125" lon="-7.78893741779029369354248046875">
        <ele>462</ele>
        <time>2019-04-30T12:09:25.000Z</time>
      </trkpt>
      <trkpt lat="41.08095089904963970184326171875" lon="-7.788959629833698272705078125">
        <ele>462.399993896484375</ele>
        <time>2019-04-30T12:09:26.000Z</time>
      </trkpt>
      <trkpt lat="41.080984175205230712890625" lon="-7.78917261399328708648681640625">
        <ele>466.399993896484375</ele>
        <time>2019-04-30T12:09:36.000Z</time>
      </trkpt>
      <trkpt lat="41.08099364675581455230712890625" lon="-7.7894291840493679046630859375">
        <ele>469.20001220703125</ele>
        <time>2019-04-30T12:09:51.000Z</time>
      </trkpt>
      <trkpt lat="41.0809935629367828369140625" lon="-7.7894975803792476654052734375">
        <ele>470</ele>
        <time>2019-04-30T12:09:57.000Z</time>
      </trkpt>
      <trkpt lat="41.0810363106429576873779296875" lon="-7.78998314402997493743896484375">
        <ele>475.600006103515625</ele>
        <time>2019-04-30T12:10:29.000Z</time>
      </trkpt>
      <trkpt lat="41.08107092790305614471435546875" lon="-7.7900040149688720703125">
        <ele>476.399993896484375</ele>
        <time>2019-04-30T12:10:33.000Z</time>
      </trkpt>
      <trkpt lat="41.08156881295144557952880859375" lon="-7.7897741831839084625244140625">
        <ele>479.20001220703125</ele>
        <time>2019-04-30T12:11:19.000Z</time>
      </trkpt>
      <trkpt lat="41.08167341910302639007568359375" lon="-7.78976890258491039276123046875">
        <ele>479.20001220703125</ele>
        <time>2019-04-30T12:11:30.000Z</time>
      </trkpt>
      <trkpt lat="41.081860251724720001220703125" lon="-7.790493182837963104248046875">
        <ele>487.600006103515625</ele>
        <time>2019-04-30T12:12:36.000Z</time>
      </trkpt>
      <trkpt lat="41.08187626115977764129638671875" lon="-7.79055478982627391815185546875">
        <ele>488.600006103515625</ele>
        <time>2019-04-30T12:12:41.000Z</time>
      </trkpt>
      <trkpt lat="41.08189813792705535888671875" lon="-7.7906008064746856689453125">
        <ele>489.600006103515625</ele>
        <time>2019-04-30T12:12:45.000Z</time>
      </trkpt>
      <trkpt lat="41.082109026610851287841796875" lon="-7.79125434346497058868408203125">
        <ele>500.20001220703125</ele>
        <time>2019-04-30T12:13:39.000Z</time>
      </trkpt>
      <trkpt lat="41.0822694562375545501708984375" lon="-7.79192623682320117950439453125">
        <ele>511.600006103515625</ele>
        <time>2019-04-30T12:14:31.000Z</time>
      </trkpt>
      <trkpt lat="41.08227037824690341949462890625" lon="-7.79199144802987575531005859375">
        <ele>512.79998779296875</ele>
        <time>2019-04-30T12:14:36.000Z</time>
      </trkpt>
      <trkpt lat="41.08230725862085819244384765625" lon="-7.7922005765140056610107421875">
        <ele>516.5999755859375</ele>
        <time>2019-04-30T12:14:54.000Z</time>
      </trkpt>
      <trkpt lat="41.08239828608930110931396484375" lon="-7.7923947013914585113525390625">
        <ele>520.5999755859375</ele>
        <time>2019-04-30T12:15:56.000Z</time>
      </trkpt>
      <trkpt lat="41.08243432827293872833251953125" lon="-7.7924299053847789764404296875">
        <ele>521.20001220703125</ele>
        <time>2019-04-30T12:16:00.000Z</time>
      </trkpt>
      <trkpt lat="41.08287488110363483428955078125" lon="-7.79289065860211849212646484375">
        <ele>527.79998779296875</ele>
        <time>2019-04-30T12:16:53.000Z</time>
      </trkpt>
      <trkpt lat="41.08339623548090457916259765625" lon="-7.7928587235510349273681640625">
        <ele>530.79998779296875</ele>
        <time>2019-04-30T12:17:42.000Z</time>
      </trkpt>
      <trkpt lat="41.0839277319610118865966796875" lon="-7.792821340262889862060546875">
        <ele>535.20001220703125</ele>
        <time>2019-04-30T12:18:34.000Z</time>
      </trkpt>
      <trkpt lat="41.08440759591758251190185546875" lon="-7.79315225780010223388671875">
        <ele>542.5999755859375</ele>
        <time>2019-04-30T12:19:28.000Z</time>
      </trkpt>
      <trkpt lat="41.08490891754627227783203125" lon="-7.7934394218027591705322265625">
        <ele>551</ele>
        <time>2019-04-30T12:20:22.000Z</time>
      </trkpt>
      <trkpt lat="41.0854488797485828399658203125" lon="-7.79347286559641361236572265625">
        <ele>556.5999755859375</ele>
        <time>2019-04-30T12:21:12.000Z</time>
      </trkpt>
      <trkpt lat="41.0859930329024791717529296875" lon="-7.79350069351494312286376953125">
        <ele>561.5999755859375</ele>
        <time>2019-04-30T12:22:02.000Z</time>
      </trkpt>
      <trkpt lat="41.0865301452577114105224609375" lon="-7.79340581037104129791259765625">
        <ele>565.5999755859375</ele>
        <time>2019-04-30T12:22:52.000Z</time>
      </trkpt>
      <trkpt lat="41.08706935308873653411865234375" lon="-7.79340363107621669769287109375">
        <ele>567.5999755859375</ele>
        <time>2019-04-30T12:23:43.000Z</time>
      </trkpt>
      <trkpt lat="41.0871447063982486724853515625" lon="-7.79340094886720180511474609375">
        <ele>567.79998779296875</ele>
        <time>2019-04-30T12:23:52.000Z</time>
      </trkpt>
      <trkpt lat="41.087180413305759429931640625" lon="-7.79340430162847042083740234375">
        <ele>568</ele>
        <time>2019-04-30T12:23:56.000Z</time>
      </trkpt>
      <trkpt lat="41.08749465085566043853759765625" lon="-7.79353874735534191131591796875">
        <ele>569.20001220703125</ele>
        <time>2019-04-30T12:24:28.000Z</time>
      </trkpt>
      <trkpt lat="41.08750252984464168548583984375" lon="-7.79355525970458984375">
        <ele>569.20001220703125</ele>
        <time>2019-04-30T12:24:50.000Z</time>
      </trkpt>
      <trkpt lat="41.08751258812844753265380859375" lon="-7.79359557665884494781494140625">
        <ele>569.4000244140625</ele>
        <time>2019-04-30T12:24:52.000Z</time>
      </trkpt>
      <trkpt lat="41.08763010241091251373291015625" lon="-7.79379355721175670623779296875">
        <ele>570.4000244140625</ele>
        <time>2019-04-30T12:25:02.000Z</time>
      </trkpt>
      <trkpt lat="41.0876942239701747894287109375" lon="-7.7941327728331089019775390625">
        <ele>570.5999755859375</ele>
        <time>2019-04-30T12:25:12.000Z</time>
      </trkpt>
      <trkpt lat="41.08776018954813480377197265625" lon="-7.79439034871757030487060546875">
        <ele>569.79998779296875</ele>
        <time>2019-04-30T12:25:17.000Z</time>
      </trkpt>
      <trkpt lat="41.0878923721611499786376953125" lon="-7.79468438588082790374755859375">
        <ele>567.20001220703125</ele>
        <time>2019-04-30T12:25:22.000Z</time>
      </trkpt>
      <trkpt lat="41.088399477303028106689453125" lon="-7.7951095998287200927734375">
        <ele>563.79998779296875</ele>
        <time>2019-04-30T12:25:31.000Z</time>
      </trkpt>
      <trkpt lat="41.0887634195387363433837890625" lon="-7.7954457141458988189697265625">
        <ele>561.20001220703125</ele>
        <time>2019-04-30T12:25:39.000Z</time>
      </trkpt>
      <trkpt lat="41.0891771502792835235595703125" lon="-7.79595910571515560150146484375">
        <ele>554.20001220703125</ele>
        <time>2019-04-30T12:25:48.000Z</time>
      </trkpt>
      <trkpt lat="41.08932190574705600738525390625" lon="-7.796267978847026824951171875">
        <ele>550</ele>
        <time>2019-04-30T12:25:52.000Z</time>
      </trkpt>
      <trkpt lat="41.08935610391199588775634765625" lon="-7.7966107986867427825927734375">
        <ele>547</ele>
        <time>2019-04-30T12:25:56.000Z</time>
      </trkpt>
      <trkpt lat="41.0893674194812774658203125" lon="-7.7967055141925811767578125">
        <ele>546.20001220703125</ele>
        <time>2019-04-30T12:25:57.000Z</time>
      </trkpt>
      <trkpt lat="41.08969925902783870697021484375" lon="-7.7973309718072414398193359375">
        <ele>537.5999755859375</ele>
        <time>2019-04-30T12:26:04.000Z</time>
      </trkpt>
      <trkpt lat="41.09018473885953426361083984375" lon="-7.79787621460855007171630859375">
        <ele>528.5999755859375</ele>
        <time>2019-04-30T12:26:10.000Z</time>
      </trkpt>
      <trkpt lat="41.09038464725017547607421875" lon="-7.7980337105691432952880859375">
        <ele>524</ele>
        <time>2019-04-30T12:26:12.000Z</time>
      </trkpt>
      <trkpt lat="41.09095151536166667938232421875" lon="-7.79834241606295108795166015625">
        <ele>517.4000244140625</ele>
        <time>2019-04-30T12:26:19.000Z</time>
      </trkpt>
      <trkpt lat="41.09112602658569812774658203125" lon="-7.7984950505197048187255859375">
        <ele>516.5999755859375</ele>
        <time>2019-04-30T12:26:22.000Z</time>
      </trkpt>
      <trkpt lat="41.091226525604724884033203125" lon="-7.79881213791668415069580078125">
        <ele>511.399993896484375</ele>
        <time>2019-04-30T12:26:26.000Z</time>
      </trkpt>
      <trkpt lat="41.0914032161235809326171875" lon="-7.79929795302450656890869140625">
        <ele>502</ele>
        <time>2019-04-30T12:26:36.000Z</time>
      </trkpt>
      <trkpt lat="41.09141117893159389495849609375" lon="-7.7995716221630573272705078125">
        <ele>499.399993896484375</ele>
        <time>2019-04-30T12:26:40.000Z</time>
      </trkpt>
      <trkpt lat="41.09150388278067111968994140625" lon="-7.79990606009960174560546875">
        <ele>495.79998779296875</ele>
        <time>2019-04-30T12:26:44.000Z</time>
      </trkpt>
      <trkpt lat="41.09163296408951282501220703125" lon="-7.80062698759138584136962890625">
        <ele>488.600006103515625</ele>
        <time>2019-04-30T12:26:51.000Z</time>
      </trkpt>
      <trkpt lat="41.09163883142173290252685546875" lon="-7.80085212551057338714599609375">
        <ele>484.600006103515625</ele>
        <time>2019-04-30T12:26:53.000Z</time>
      </trkpt>
      <trkpt lat="41.09154931269586086273193359375" lon="-7.80132721178233623504638671875">
        <ele>479.600006103515625</ele>
        <time>2019-04-30T12:26:57.000Z</time>
      </trkpt>
      <trkpt lat="41.09132668934762477874755859375" lon="-7.80206632800400257110595703125">
        <ele>477.399993896484375</ele>
        <time>2019-04-30T12:27:03.000Z</time>
      </trkpt>
      <trkpt lat="41.09107405878603458404541015625" lon="-7.80281214974820613861083984375">
        <ele>474</ele>
        <time>2019-04-30T12:27:09.000Z</time>
      </trkpt>
      <trkpt lat="41.09065429307520389556884765625" lon="-7.80346266925334930419921875">
        <ele>474.399993896484375</ele>
        <time>2019-04-30T12:27:15.000Z</time>
      </trkpt>
      <trkpt lat="41.09025313518941402435302734375" lon="-7.80396231450140476226806640625">
        <ele>475.20001220703125</ele>
        <time>2019-04-30T12:27:20.000Z</time>
      </trkpt>
      <trkpt lat="41.0898570902645587921142578125" lon="-7.8044545836746692657470703125">
        <ele>475.600006103515625</ele>
        <time>2019-04-30T12:27:25.000Z</time>
      </trkpt>
      <trkpt lat="41.08943506143987178802490234375" lon="-7.80501072295010089874267578125">
        <ele>477.600006103515625</ele>
        <time>2019-04-30T12:27:31.000Z</time>
      </trkpt>
      <trkpt lat="41.0893846862018108367919921875" lon="-7.8051123954355716705322265625">
        <ele>477</ele>
        <time>2019-04-30T12:27:32.000Z</time>
      </trkpt>
      <trkpt lat="41.0893459618091583251953125" lon="-7.8058436326682567596435546875">
        <ele>469.600006103515625</ele>
        <time>2019-04-30T12:27:39.000Z</time>
      </trkpt>
      <trkpt lat="41.08938493765890598297119140625" lon="-7.805931977927684783935546875">
        <ele>469</ele>
        <time>2019-04-30T12:27:40.000Z</time>
      </trkpt>
      <trkpt lat="41.08952759765088558197021484375" lon="-7.80615284107625484466552734375">
        <ele>467.399993896484375</ele>
        <time>2019-04-30T12:27:43.000Z</time>
      </trkpt>
      <trkpt lat="41.089898832142353057861328125" lon="-7.8061495721340179443359375">
        <ele>472</ele>
        <time>2019-04-30T12:27:50.000Z</time>
      </trkpt>
      <trkpt lat="41.09042756259441375732421875" lon="-7.805991657078266143798828125">
        <ele>478.399993896484375</ele>
        <time>2019-04-30T12:28:13.000Z</time>
      </trkpt>
      <trkpt lat="41.09094950370490550994873046875" lon="-7.80575118027627468109130859375">
        <ele>481.399993896484375</ele>
        <time>2019-04-30T12:28:37.000Z</time>
      </trkpt>
      <trkpt lat="41.091440431773662567138671875" lon="-7.80544104985892772674560546875">
        <ele>482.399993896484375</ele>
        <time>2019-04-30T12:28:59.000Z</time>
      </trkpt>
      <trkpt lat="41.09192683361470699310302734375" lon="-7.80510929413139820098876953125">
        <ele>483.399993896484375</ele>
        <time>2019-04-30T12:29:22.000Z</time>
      </trkpt>
      <trkpt lat="41.09242312610149383544921875" lon="-7.8048243932425975799560546875">
        <ele>484.600006103515625</ele>
        <time>2019-04-30T12:29:41.000Z</time>
      </trkpt>
      <trkpt lat="41.09291732311248779296875" lon="-7.80452239327132701873779296875">
        <ele>487</ele>
        <time>2019-04-30T12:30:00.000Z</time>
      </trkpt>
      <trkpt lat="41.0932819359004497528076171875" lon="-7.80427806079387664794921875">
        <ele>488</ele>
        <time>2019-04-30T12:30:20.000Z</time>
      </trkpt>
      <trkpt lat="41.093295514583587646484375" lon="-7.8042668290436267852783203125">
        <ele>487.79998779296875</ele>
        <time>2019-04-30T12:32:20.000Z</time>
      </trkpt>
      <trkpt lat="41.09380689449608325958251953125" lon="-7.804053761065006256103515625">
        <ele>488.600006103515625</ele>
        <time>2019-04-30T12:32:41.000Z</time>
      </trkpt>
      <trkpt lat="41.094285584986209869384765625" lon="-7.8044052980840206146240234375">
        <ele>491.399993896484375</ele>
        <time>2019-04-30T12:33:01.000Z</time>
      </trkpt>
      <trkpt lat="41.09473728574812412261962890625" lon="-7.804810814559459686279296875">
        <ele>495.399993896484375</ele>
        <time>2019-04-30T12:33:19.000Z</time>
      </trkpt>
      <trkpt lat="41.09523408114910125732421875" lon="-7.8049739263951778411865234375">
        <ele>497.399993896484375</ele>
        <time>2019-04-30T12:33:38.000Z</time>
      </trkpt>
      <trkpt lat="41.09557069838047027587890625" lon="-7.80479044653475284576416015625">
        <ele>495.20001220703125</ele>
        <time>2019-04-30T12:33:53.000Z</time>
      </trkpt>
      <trkpt lat="41.09562308527529239654541015625" lon="-7.8047925420105457305908203125">
        <ele>494.79998779296875</ele>
        <time>2019-04-30T12:33:58.000Z</time>
      </trkpt>
      <trkpt lat="41.09566013328731060028076171875" lon="-7.804808132350444793701171875">
        <ele>494.600006103515625</ele>
        <time>2019-04-30T12:34:08.000Z</time>
      </trkpt>
      <trkpt lat="41.09566566534340381622314453125" lon="-7.8048082999885082244873046875">
        <ele>494.399993896484375</ele>
        <time>2019-04-30T12:34:10.000Z</time>
      </trkpt>
      <trkpt lat="41.0957193933427333831787109375" lon="-7.80480318702757358551025390625">
        <ele>493.79998779296875</ele>
        <time>2019-04-30T12:34:48.000Z</time>
      </trkpt>
      <trkpt lat="41.0960724391043186187744140625" lon="-7.80524508096277713775634765625">
        <ele>492.600006103515625</ele>
        <time>2019-04-30T12:35:08.000Z</time>
      </trkpt>
      <trkpt lat="41.096111834049224853515625" lon="-7.80526871792972087860107421875">
        <ele>492.399993896484375</ele>
        <time>2019-04-30T12:35:11.000Z</time>
      </trkpt>
      <trkpt lat="41.09620244242250919342041015625" lon="-7.805337198078632354736328125">
        <ele>491.600006103515625</ele>
        <time>2019-04-30T12:35:15.000Z</time>
      </trkpt>
      <trkpt lat="41.09657895751297473907470703125" lon="-7.8058691136538982391357421875">
        <ele>489.79998779296875</ele>
        <time>2019-04-30T12:35:29.000Z</time>
      </trkpt>
      <trkpt lat="41.09696142375469207763671875" lon="-7.80637043528258800506591796875">
        <ele>486</ele>
        <time>2019-04-30T12:35:48.000Z</time>
      </trkpt>
      <trkpt lat="41.09702554531395435333251953125" lon="-7.80644620768725872039794921875">
        <ele>485.79998779296875</ele>
        <time>2019-04-30T12:35:51.000Z</time>
      </trkpt>
      <trkpt lat="41.0971377789974212646484375" lon="-7.8065470419824123382568359375">
        <ele>485.399993896484375</ele>
        <time>2019-04-30T12:36:00.000Z</time>
      </trkpt>
      <trkpt lat="41.0971620865166187286376953125" lon="-7.80658333562314510345458984375">
        <ele>485.399993896484375</ele>
        <time>2019-04-30T12:36:04.000Z</time>
      </trkpt>
      <trkpt lat="41.09716988168656826019287109375" lon="-7.80662138946354389190673828125">
        <ele>485.399993896484375</ele>
        <time>2019-04-30T12:36:15.000Z</time>
      </trkpt>
      <trkpt lat="41.09711858443915843963623046875" lon="-7.8067852556705474853515625">
        <ele>485.600006103515625</ele>
        <time>2019-04-30T12:36:23.000Z</time>
      </trkpt>
      <trkpt lat="41.09712981618940830230712890625" lon="-7.806762792170047760009765625">
        <ele>485.600006103515625</ele>
        <time>2019-04-30T12:36:29.000Z</time>
      </trkpt>
      <trkpt lat="41.09713484533131122589111328125" lon="-7.80679891817271709442138671875">
        <ele>485.600006103515625</ele>
        <time>2019-04-30T12:37:23.000Z</time>
      </trkpt>
      <trkpt lat="41.09712713398039340972900390625" lon="-7.8068219684064388275146484375">
        <ele>485.79998779296875</ele>
        <time>2019-04-30T12:37:24.000Z</time>
      </trkpt>
      <trkpt lat="41.096991933882236480712890625" lon="-7.8069829009473323822021484375">
        <ele>486.600006103515625</ele>
        <time>2019-04-30T12:37:31.000Z</time>
      </trkpt>
      <trkpt lat="41.09665674157440662384033203125" lon="-7.8071629442274570465087890625">
        <ele>488.20001220703125</ele>
        <time>2019-04-30T12:37:52.000Z</time>
      </trkpt>
      <trkpt lat="41.0966534726321697235107421875" lon="-7.8071475215256214141845703125">
        <ele>488.20001220703125</ele>
        <time>2019-04-30T12:37:54.000Z</time>
      </trkpt>
      <trkpt lat="41.09670217148959636688232421875" lon="-7.80712262727320194244384765625">
        <ele>488</ele>
        <time>2019-04-30T12:38:31.000Z</time>
      </trkpt>
      <trkpt lat="41.0966152511537075042724609375" lon="-7.80763660557568073272705078125">
        <ele>491.399993896484375</ele>
        <time>2019-04-30T12:38:59.000Z</time>
      </trkpt>
      <trkpt lat="41.0965994931757450103759765625" lon="-7.80767465941607952117919921875">
        <ele>491.399993896484375</ele>
        <time>2019-04-30T12:39:01.000Z</time>
      </trkpt>
      <trkpt lat="41.0962451063096523284912109375" lon="-7.80821462161839008331298828125">
        <ele>492</ele>
        <time>2019-04-30T12:39:24.000Z</time>
      </trkpt>
      <trkpt lat="41.0962035320699214935302734375" lon="-7.80827748589217662811279296875">
        <ele>492</ele>
        <time>2019-04-30T12:39:28.000Z</time>
      </trkpt>
      <trkpt lat="41.09619741328060626983642578125" lon="-7.80827832408249378204345703125">
        <ele>492</ele>
        <time>2019-04-30T12:39:30.000Z</time>
      </trkpt>
      <trkpt lat="41.0962125845253467559814453125" lon="-7.80826382339000701904296875">
        <ele>492</ele>
        <time>2019-04-30T12:40:23.000Z</time>
      </trkpt>
      <trkpt lat="41.09631903469562530517578125" lon="-7.8082636557519435882568359375">
        <ele>492.20001220703125</ele>
        <time>2019-04-30T12:40:34.000Z</time>
      </trkpt>
      <trkpt lat="41.09638080932199954986572265625" lon="-7.80820213258266448974609375">
        <ele>492.20001220703125</ele>
        <time>2019-04-30T13:13:45.000Z</time>
      </trkpt>
      <trkpt lat="41.09643529169261455535888671875" lon="-7.808125354349613189697265625">
        <ele>492</ele>
        <time>2019-04-30T13:13:50.000Z</time>
      </trkpt>
      <trkpt lat="41.09673603437840938568115234375" lon="-7.8075186721980571746826171875">
        <ele>491.399993896484375</ele>
        <time>2019-04-30T13:14:06.000Z</time>
      </trkpt>
      <trkpt lat="41.09702319838106632232666015625" lon="-7.80696353875100612640380859375">
        <ele>486.399993896484375</ele>
        <time>2019-04-30T13:14:26.000Z</time>
      </trkpt>
      <trkpt lat="41.09704012982547283172607421875" lon="-7.8069557435810565948486328125">
        <ele>486.600006103515625</ele>
        <time>2019-04-30T13:14:28.000Z</time>
      </trkpt>
      <trkpt lat="41.09707449562847614288330078125" lon="-7.8069664724171161651611328125">
        <ele>486.79998779296875</ele>
        <time>2019-04-30T13:14:30.000Z</time>
      </trkpt>
      <trkpt lat="41.097193770110607147216796875" lon="-7.80696094036102294921875">
        <ele>487.399993896484375</ele>
        <time>2019-04-30T13:14:34.000Z</time>
      </trkpt>
      <trkpt lat="41.0977411083877086639404296875" lon="-7.806923389434814453125">
        <ele>486.399993896484375</ele>
        <time>2019-04-30T13:14:50.000Z</time>
      </trkpt>
      <trkpt lat="41.09810211695730686187744140625" lon="-7.80694811604917049407958984375">
        <ele>486.79998779296875</ele>
        <time>2019-04-30T13:15:03.000Z</time>
      </trkpt>
      <trkpt lat="41.0982852615416049957275390625" lon="-7.8066565096378326416015625">
        <ele>482.79998779296875</ele>
        <time>2019-04-30T13:15:16.000Z</time>
      </trkpt>
      <trkpt lat="41.0983037017285823822021484375" lon="-7.80666128732264041900634765625">
        <ele>483</ele>
        <time>2019-04-30T13:15:19.000Z</time>
      </trkpt>
      <trkpt lat="41.09831803478300571441650390625" lon="-7.80667872168123722076416015625">
        <ele>483</ele>
        <time>2019-04-30T13:19:23.000Z</time>
      </trkpt>
      <trkpt lat="41.09833580441772937774658203125" lon="-7.80685055069625377655029296875">
        <ele>485.600006103515625</ele>
        <time>2019-04-30T13:19:30.000Z</time>
      </trkpt>
      <trkpt lat="41.0987953841686248779296875" lon="-7.806947864592075347900390625">
        <ele>487.79998779296875</ele>
        <time>2019-04-30T13:19:44.000Z</time>
      </trkpt>
      <trkpt lat="41.09918363392353057861328125" lon="-7.8068088926374912261962890625">
        <ele>486.20001220703125</ele>
        <time>2019-04-30T13:19:54.000Z</time>
      </trkpt>
      <trkpt lat="41.0992263816297054290771484375" lon="-7.8068360500037670135498046875">
        <ele>486.600006103515625</ele>
        <time>2019-04-30T13:19:55.000Z</time>
      </trkpt>
      <trkpt lat="41.099395193159580230712890625" lon="-7.80694459564983844757080078125">
        <ele>489</ele>
        <time>2019-04-30T13:19:59.000Z</time>
      </trkpt>
      <trkpt lat="41.0996320657432079315185546875" lon="-7.80693956650793552398681640625">
        <ele>489.79998779296875</ele>
        <time>2019-04-30T13:20:04.000Z</time>
      </trkpt>
      <trkpt lat="41.09990221448242664337158203125" lon="-7.8068196214735507965087890625">
        <ele>491.399993896484375</ele>
        <time>2019-04-30T13:20:10.000Z</time>
      </trkpt>
      <trkpt lat="41.09998486004769802093505859375" lon="-7.80674829147756099700927734375">
        <ele>491.79998779296875</ele>
        <time>2019-04-30T13:20:12.000Z</time>
      </trkpt>
      <trkpt lat="41.100144200026988983154296875" lon="-7.80649163760244846343994140625">
        <ele>492.600006103515625</ele>
        <time>2019-04-30T13:20:17.000Z</time>
      </trkpt>
      <trkpt lat="41.100260205566883087158203125" lon="-7.80615351162850856781005859375">
        <ele>492</ele>
        <time>2019-04-30T13:20:23.000Z</time>
      </trkpt>
      <trkpt lat="41.10027487389743328094482421875" lon="-7.8059720434248447418212890625">
        <ele>491.20001220703125</ele>
        <time>2019-04-30T13:20:26.000Z</time>
      </trkpt>
      <trkpt lat="41.100229360163211822509765625" lon="-7.80572821386158466339111328125">
        <ele>490.79998779296875</ele>
        <time>2019-04-30T13:20:30.000Z</time>
      </trkpt>
      <trkpt lat="41.10019147396087646484375" lon="-7.805619500577449798583984375">
        <ele>490.79998779296875</ele>
        <time>2019-04-30T13:20:32.000Z</time>
      </trkpt>
      <trkpt lat="41.099967174232006072998046875" lon="-7.8053430654108524322509765625">
        <ele>488</ele>
        <time>2019-04-30T13:20:38.000Z</time>
      </trkpt>
      <trkpt lat="41.09952050261199474334716796875" lon="-7.80491483397781848907470703125">
        <ele>486</ele>
        <time>2019-04-30T13:20:47.000Z</time>
      </trkpt>
      <trkpt lat="41.09937113709747791290283203125" lon="-7.8047523088753223419189453125">
        <ele>487</ele>
        <time>2019-04-30T13:20:51.000Z</time>
      </trkpt>
      <trkpt lat="41.09917801804840564727783203125" lon="-7.80453731305897235870361328125">
        <ele>486.600006103515625</ele>
        <time>2019-04-30T13:20:56.000Z</time>
      </trkpt>
      <trkpt lat="41.09905715100467205047607421875" lon="-7.80432558618485927581787109375">
        <ele>486.20001220703125</ele>
        <time>2019-04-30T13:21:00.000Z</time>
      </trkpt>
      <trkpt lat="41.09901272691786289215087890625" lon="-7.80418326146900653839111328125">
        <ele>486.600006103515625</ele>
        <time>2019-04-30T13:21:02.000Z</time>
      </trkpt>
      <trkpt lat="41.09900468029081821441650390625" lon="-7.803779505193233489990234375">
        <ele>487.79998779296875</ele>
        <time>2019-04-30T13:21:07.000Z</time>
      </trkpt>
      <trkpt lat="41.09905488789081573486328125" lon="-7.80328388325870037078857421875">
        <ele>489.600006103515625</ele>
        <time>2019-04-30T13:21:13.000Z</time>
      </trkpt>
      <trkpt lat="41.09902136027812957763671875" lon="-7.802500762045383453369140625">
        <ele>486.600006103515625</ele>
        <time>2019-04-30T13:21:23.000Z</time>
      </trkpt>
      <trkpt lat="41.0989911854267120361328125" lon="-7.8020255081355571746826171875">
        <ele>483.20001220703125</ele>
        <time>2019-04-30T13:21:29.000Z</time>
      </trkpt>
      <trkpt lat="41.09903871081769466400146484375" lon="-7.80163415707647800445556640625">
        <ele>481.399993896484375</ele>
        <time>2019-04-30T13:21:34.000Z</time>
      </trkpt>
      <trkpt lat="41.09921975992619991302490234375" lon="-7.80095924623310565948486328125">
        <ele>476</ele>
        <time>2019-04-30T13:21:42.000Z</time>
      </trkpt>
      <trkpt lat="41.0994530282914638519287109375" lon="-7.80033647082746028900146484375">
        <ele>466.399993896484375</ele>
        <time>2019-04-30T13:21:49.000Z</time>
      </trkpt>
      <trkpt lat="41.0998181439936161041259765625" lon="-7.8000555932521820068359375">
        <ele>468.20001220703125</ele>
        <time>2019-04-30T13:21:55.000Z</time>
      </trkpt>
      <trkpt lat="41.100366823375225067138671875" lon="-7.79977052472531795501708984375">
        <ele>474.600006103515625</ele>
        <time>2019-04-30T13:22:04.000Z</time>
      </trkpt>
      <trkpt lat="41.10066094435751438140869140625" lon="-7.79957137070596218109130859375">
        <ele>477</ele>
        <time>2019-04-30T13:22:10.000Z</time>
      </trkpt>
      <trkpt lat="41.10078449361026287078857421875" lon="-7.79934757389128208160400390625">
        <ele>475</ele>
        <time>2019-04-30T13:22:14.000Z</time>
      </trkpt>
      <trkpt lat="41.1008491180837154388427734375" lon="-7.7991595678031444549560546875">
        <ele>473.399993896484375</ele>
        <time>2019-04-30T13:22:17.000Z</time>
      </trkpt>
      <trkpt lat="41.100937463343143463134765625" lon="-7.7988209389150142669677734375">
        <ele>472.399993896484375</ele>
        <time>2019-04-30T13:22:22.000Z</time>
      </trkpt>
      <trkpt lat="41.10108389519155025482177734375" lon="-7.798584401607513427734375">
        <ele>473.399993896484375</ele>
        <time>2019-04-30T13:22:26.000Z</time>
      </trkpt>
      <trkpt lat="41.10125656239688396453857421875" lon="-7.79835498891770839691162109375">
        <ele>475</ele>
        <time>2019-04-30T13:22:30.000Z</time>
      </trkpt>
      <trkpt lat="41.10134356655180454254150390625" lon="-7.797888033092021942138671875">
        <ele>473.399993896484375</ele>
        <time>2019-04-30T13:22:36.000Z</time>
      </trkpt>
      <trkpt lat="41.1013647727668285369873046875" lon="-7.797472290694713592529296875">
        <ele>471</ele>
        <time>2019-04-30T13:22:41.000Z</time>
      </trkpt>
      <trkpt lat="41.10158328898251056671142578125" lon="-7.79700013808906078338623046875">
        <ele>470.20001220703125</ele>
        <time>2019-04-30T13:22:48.000Z</time>
      </trkpt>
      <trkpt lat="41.1019860394299030303955078125" lon="-7.7964766882359981536865234375">
        <ele>469.79998779296875</ele>
        <time>2019-04-30T13:22:57.000Z</time>
      </trkpt>
      <trkpt lat="41.10202803276479244232177734375" lon="-7.796410135924816131591796875">
        <ele>469.79998779296875</ele>
        <time>2019-04-30T13:22:58.000Z</time>
      </trkpt>
      <trkpt lat="41.10214135609567165374755859375" lon="-7.79610310681164264678955078125">
        <ele>469.20001220703125</ele>
        <time>2019-04-30T13:23:02.000Z</time>
      </trkpt>
      <trkpt lat="41.10222567804157733917236328125" lon="-7.79578291811048984527587890625">
        <ele>468.20001220703125</ele>
        <time>2019-04-30T13:23:06.000Z</time>
      </trkpt>
      <trkpt lat="41.102680899202823638916015625" lon="-7.7954188920557498931884765625">
        <ele>464.79998779296875</ele>
        <time>2019-04-30T13:23:16.000Z</time>
      </trkpt>
      <trkpt lat="41.10279900021851062774658203125" lon="-7.79541880823671817779541015625">
        <ele>464.600006103515625</ele>
        <time>2019-04-30T13:23:18.000Z</time>
      </trkpt>
      <trkpt lat="41.103254891932010650634765625" lon="-7.7954006195068359375">
        <ele>465.79998779296875</ele>
        <time>2019-04-30T13:23:26.000Z</time>
      </trkpt>
      <trkpt lat="41.1037301458418369293212890625" lon="-7.7950219251215457916259765625">
        <ele>464.399993896484375</ele>
        <time>2019-04-30T13:23:36.000Z</time>
      </trkpt>
      <trkpt lat="41.1040888912975788116455078125" lon="-7.79475487768650054931640625">
        <ele>462</ele>
        <time>2019-04-30T13:23:44.000Z</time>
      </trkpt>
      <trkpt lat="41.10426750965416431427001953125" lon="-7.79469628818333148956298828125">
        <ele>462</ele>
        <time>2019-04-30T13:23:48.000Z</time>
      </trkpt>
      <trkpt lat="41.1043073236942291259765625" lon="-7.794668376445770263671875">
        <ele>461.79998779296875</ele>
        <time>2019-04-30T13:23:49.000Z</time>
      </trkpt>
      <trkpt lat="41.10474594868719577789306640625" lon="-7.7946608327329158782958984375">
        <ele>463.399993896484375</ele>
        <time>2019-04-30T13:24:01.000Z</time>
      </trkpt>
      <trkpt lat="41.10512162558734416961669921875" lon="-7.79448707588016986846923828125">
        <ele>466.79998779296875</ele>
        <time>2019-04-30T13:24:10.000Z</time>
      </trkpt>
      <trkpt lat="41.105272583663463592529296875" lon="-7.794200666248798370361328125">
        <ele>465</ele>
        <time>2019-04-30T13:24:15.000Z</time>
      </trkpt>
      <trkpt lat="41.105659492313861846923828125" lon="-7.79364452697336673736572265625">
        <ele>457</ele>
        <time>2019-04-30T13:24:26.000Z</time>
      </trkpt>
      <trkpt lat="41.10574590973556041717529296875" lon="-7.79357814230024814605712890625">
        <ele>457</ele>
        <time>2019-04-30T13:24:28.000Z</time>
      </trkpt>
      <trkpt lat="41.1061370931565761566162109375" lon="-7.7932835184037685394287109375">
        <ele>457.600006103515625</ele>
        <time>2019-04-30T13:24:37.000Z</time>
      </trkpt>
      <trkpt lat="41.1062725447118282318115234375" lon="-7.79312719590961933135986328125">
        <ele>457.600006103515625</ele>
        <time>2019-04-30T13:24:40.000Z</time>
      </trkpt>
      <trkpt lat="41.10640279948711395263671875" lon="-7.792850174009799957275390625">
        <ele>455.399993896484375</ele>
        <time>2019-04-30T13:24:44.000Z</time>
      </trkpt>
      <trkpt lat="41.10662181861698627471923828125" lon="-7.7924228645861148834228515625">
        <ele>452</ele>
        <time>2019-04-30T13:24:50.000Z</time>
      </trkpt>
      <trkpt lat="41.10716999508440494537353515625" lon="-7.79214701615273952484130859375">
        <ele>456.20001220703125</ele>
        <time>2019-04-30T13:24:59.000Z</time>
      </trkpt>
      <trkpt lat="41.10744777135550975799560546875" lon="-7.79214215464890003204345703125">
        <ele>460.20001220703125</ele>
        <time>2019-04-30T13:25:03.000Z</time>
      </trkpt>
      <trkpt lat="41.10782780684530735015869140625" lon="-7.79191399924457073211669921875">
        <ele>462.600006103515625</ele>
        <time>2019-04-30T13:25:09.000Z</time>
      </trkpt>
      <trkpt lat="41.10788295976817607879638671875" lon="-7.79185163788497447967529296875">
        <ele>462.600006103515625</ele>
        <time>2019-04-30T13:25:10.000Z</time>
      </trkpt>
      <trkpt lat="41.108042299747467041015625" lon="-7.79153161682188510894775390625">
        <ele>460</ele>
        <time>2019-04-30T13:25:14.000Z</time>
      </trkpt>
      <trkpt lat="41.10828302800655364990234375" lon="-7.79091906733810901641845703125">
        <ele>455</ele>
        <time>2019-04-30T13:25:21.000Z</time>
      </trkpt>
      <trkpt lat="41.10873087309300899505615234375" lon="-7.7903687953948974609375">
        <ele>451.600006103515625</ele>
        <time>2019-04-30T13:25:29.000Z</time>
      </trkpt>
      <trkpt lat="41.109061874449253082275390625" lon="-7.79000946320593357086181640625">
        <ele>447.79998779296875</ele>
        <time>2019-04-30T13:25:35.000Z</time>
      </trkpt>
      <trkpt lat="41.10961918719112873077392578125" lon="-7.78983947820961475372314453125">
        <ele>446.600006103515625</ele>
        <time>2019-04-30T13:25:43.000Z</time>
      </trkpt>
      <trkpt lat="41.11002302728593349456787109375" lon="-7.789793796837329864501953125">
        <ele>444.399993896484375</ele>
        <time>2019-04-30T13:25:49.000Z</time>
      </trkpt>
      <trkpt lat="41.1104356683790683746337890625" lon="-7.7902968786656856536865234375">
        <ele>437.399993896484375</ele>
        <time>2019-04-30T13:25:58.000Z</time>
      </trkpt>
      <trkpt lat="41.1104702018201351165771484375" lon="-7.79038229025900363922119140625">
        <ele>437.20001220703125</ele>
        <time>2019-04-30T13:25:59.000Z</time>
      </trkpt>
      <trkpt lat="41.11071922816336154937744140625" lon="-7.7910723723471164703369140625">
        <ele>433.399993896484375</ele>
        <time>2019-04-30T13:26:07.000Z</time>
      </trkpt>
      <trkpt lat="41.1108195595443248748779296875" lon="-7.79182246886193752288818359375">
        <ele>432.600006103515625</ele>
        <time>2019-04-30T13:26:15.000Z</time>
      </trkpt>
      <trkpt lat="41.1108416877686977386474609375" lon="-7.79222555458545684814453125">
        <ele>433.79998779296875</ele>
        <time>2019-04-30T13:26:19.000Z</time>
      </trkpt>
      <trkpt lat="41.11119230277836322784423828125" lon="-7.7926112897694110870361328125">
        <ele>428.600006103515625</ele>
        <time>2019-04-30T13:26:25.000Z</time>
      </trkpt>
      <trkpt lat="41.111255921423435211181640625" lon="-7.7926679514348506927490234375">
        <ele>427.79998779296875</ele>
        <time>2019-04-30T13:26:26.000Z</time>
      </trkpt>
      <trkpt lat="41.11141174100339412689208984375" lon="-7.79312619008123874664306640625">
        <ele>424</ele>
        <time>2019-04-30T13:26:31.000Z</time>
      </trkpt>
      <trkpt lat="41.11150762997567653656005859375" lon="-7.79386111535131931304931640625">
        <ele>424.20001220703125</ele>
        <time>2019-04-30T13:26:38.000Z</time>
      </trkpt>
      <trkpt lat="41.111632101237773895263671875" lon="-7.79459067620337009429931640625">
        <ele>428</ele>
        <time>2019-04-30T13:26:45.000Z</time>
      </trkpt>
      <trkpt lat="41.11171097494661808013916015625" lon="-7.794880606234073638916015625">
        <ele>431.20001220703125</ele>
        <time>2019-04-30T13:26:48.000Z</time>
      </trkpt>
      <trkpt lat="41.1122122965753078460693359375" lon="-7.79480374418199062347412109375">
        <ele>430.399993896484375</ele>
        <time>2019-04-30T13:26:57.000Z</time>
      </trkpt>
      <trkpt lat="41.112382449209690093994140625" lon="-7.794607691466808319091796875">
        <ele>427.399993896484375</ele>
        <time>2019-04-30T13:27:01.000Z</time>
      </trkpt>
      <trkpt lat="41.11270423047244548797607421875" lon="-7.7945275604724884033203125">
        <ele>431</ele>
        <time>2019-04-30T13:27:07.000Z</time>
      </trkpt>
      <trkpt lat="41.11308158375322818756103515625" lon="-7.79452026821672916412353515625">
        <ele>434</ele>
        <time>2019-04-30T13:27:14.000Z</time>
      </trkpt>
      <trkpt lat="41.1133066378533840179443359375" lon="-7.79388693161308765411376953125">
        <ele>427</ele>
        <time>2019-04-30T13:27:23.000Z</time>
      </trkpt>
      <trkpt lat="41.1134025268256664276123046875" lon="-7.7936600334942340850830078125">
        <ele>424.399993896484375</ele>
        <time>2019-04-30T13:27:26.000Z</time>
      </trkpt>
      <trkpt lat="41.11368038691580295562744140625" lon="-7.793188802897930145263671875">
        <ele>421</ele>
        <time>2019-04-30T13:27:33.000Z</time>
      </trkpt>
      <trkpt lat="41.1139319278299808502197265625" lon="-7.7930592186748981475830078125">
        <ele>423</ele>
        <time>2019-04-30T13:27:38.000Z</time>
      </trkpt>
      <trkpt lat="41.114161424338817596435546875" lon="-7.7929611504077911376953125">
        <ele>427</ele>
        <time>2019-04-30T13:27:42.000Z</time>
      </trkpt>
      <trkpt lat="41.11422336660325527191162109375" lon="-7.792288251221179962158203125">
        <ele>424.399993896484375</ele>
        <time>2019-04-30T13:27:52.000Z</time>
      </trkpt>
      <trkpt lat="41.11420677043497562408447265625" lon="-7.792238295078277587890625">
        <ele>424.20001220703125</ele>
        <time>2019-04-30T13:27:53.000Z</time>
      </trkpt>
      <trkpt lat="41.114170812070369720458984375" lon="-7.7921184338629245758056640625">
        <ele>423.399993896484375</ele>
        <time>2019-04-30T13:27:58.000Z</time>
      </trkpt>
      <trkpt lat="41.114175505936145782470703125" lon="-7.79208515770733356475830078125">
        <ele>423.600006103515625</ele>
        <time>2019-04-30T13:28:24.000Z</time>
      </trkpt>
      <trkpt lat="41.11403862945735454559326171875" lon="-7.791350819170475006103515625">
        <ele>417.600006103515625</ele>
        <time>2019-04-30T13:28:42.000Z</time>
      </trkpt>
      <trkpt lat="41.1140586622059345245361328125" lon="-7.79123975895345211029052734375">
        <ele>417.20001220703125</ele>
        <time>2019-04-30T13:28:44.000Z</time>
      </trkpt>
      <trkpt lat="41.11427332274615764617919921875" lon="-7.79073164798319339752197265625">
        <ele>415.20001220703125</ele>
        <time>2019-04-30T13:28:52.000Z</time>
      </trkpt>
      <trkpt lat="41.11433677375316619873046875" lon="-7.7902465872466564178466796875">
        <ele>406.600006103515625</ele>
        <time>2019-04-30T13:28:58.000Z</time>
      </trkpt>
      <trkpt lat="41.1147771589457988739013671875" lon="-7.78997115790843963623046875">
        <ele>406.399993896484375</ele>
        <time>2019-04-30T13:29:07.000Z</time>
      </trkpt>
      <trkpt lat="41.1149028874933719635009765625" lon="-7.79001868329942226409912109375">
        <ele>405.79998779296875</ele>
        <time>2019-04-30T13:29:09.000Z</time>
      </trkpt>
      <trkpt lat="41.11542985774576663970947265625" lon="-7.79019872657954692840576171875">
        <ele>403.600006103515625</ele>
        <time>2019-04-30T13:29:17.000Z</time>
      </trkpt>
      <trkpt lat="41.11601424403488636016845703125" lon="-7.7903810329735279083251953125">
        <ele>409.20001220703125</ele>
        <time>2019-04-30T13:29:26.000Z</time>
      </trkpt>
      <trkpt lat="41.116383969783782958984375" lon="-7.79011993668973445892333984375">
        <ele>404.399993896484375</ele>
        <time>2019-04-30T13:29:32.000Z</time>
      </trkpt>
      <trkpt lat="41.11659008078277111053466796875" lon="-7.7898724190890789031982421875">
        <ele>401.399993896484375</ele>
        <time>2019-04-30T13:29:36.000Z</time>
      </trkpt>
      <trkpt lat="41.11688327975571155548095703125" lon="-7.789836712181568145751953125">
        <ele>401.79998779296875</ele>
        <time>2019-04-30T13:29:40.000Z</time>
      </trkpt>
      <trkpt lat="41.11702828668057918548583984375" lon="-7.78981097973883152008056640625">
        <ele>401.79998779296875</ele>
        <time>2019-04-30T13:29:42.000Z</time>
      </trkpt>
      <trkpt lat="41.11728812567889690399169921875" lon="-7.78961216099560260772705078125">
        <ele>400</ele>
        <time>2019-04-30T13:29:46.000Z</time>
      </trkpt>
      <trkpt lat="41.11759557388722896575927734375" lon="-7.78925894759595394134521484375">
        <ele>391.20001220703125</ele>
        <time>2019-04-30T13:29:52.000Z</time>
      </trkpt>
      <trkpt lat="41.11793353222310543060302734375" lon="-7.78929255902767181396484375">
        <ele>385</ele>
        <time>2019-04-30T13:30:00.000Z</time>
      </trkpt>
      <trkpt lat="41.1179642938077449798583984375" lon="-7.78932197950780391693115234375">
        <ele>384.600006103515625</ele>
        <time>2019-04-30T13:30:04.000Z</time>
      </trkpt>
      <trkpt lat="41.117978878319263458251953125" lon="-7.78935014270246028900146484375">
        <ele>384.399993896484375</ele>
        <time>2019-04-30T13:30:40.000Z</time>
      </trkpt>
      <trkpt lat="41.1182140745222568511962890625" lon="-7.78991441242396831512451171875">
        <ele>381.20001220703125</ele>
        <time>2019-04-30T13:30:53.000Z</time>
      </trkpt>
      <trkpt lat="41.11822136677801609039306640625" lon="-7.7901510335505008697509765625">
        <ele>380.600006103515625</ele>
        <time>2019-04-30T13:30:58.000Z</time>
      </trkpt>
      <trkpt lat="41.11821658909320831298828125" lon="-7.790220268070697784423828125">
        <ele>380.399993896484375</ele>
        <time>2019-04-30T13:31:03.000Z</time>
      </trkpt>
      <trkpt lat="41.1182118952274322509765625" lon="-7.790258824825286865234375">
        <ele>380.399993896484375</ele>
        <time>2019-04-30T13:31:51.000Z</time>
      </trkpt>
      <trkpt lat="41.11811893992125988006591796875" lon="-7.7909701131284236907958984375">
        <ele>379.79998779296875</ele>
        <time>2019-04-30T13:32:04.000Z</time>
      </trkpt>
      <trkpt lat="41.11799061298370361328125" lon="-7.791232131421566009521484375">
        <ele>381.399993896484375</ele>
        <time>2019-04-30T13:32:08.000Z</time>
      </trkpt>
      <trkpt lat="41.11772985197603702545166015625" lon="-7.79163136146962642669677734375">
        <ele>386.399993896484375</ele>
        <time>2019-04-30T13:32:14.000Z</time>
      </trkpt>
      <trkpt lat="41.117752902209758758544921875" lon="-7.792082391679286956787109375">
        <ele>385.20001220703125</ele>
        <time>2019-04-30T13:32:19.000Z</time>
      </trkpt>
      <trkpt lat="41.11780478619039058685302734375" lon="-7.792158834636211395263671875">
        <ele>383.79998779296875</ele>
        <time>2019-04-30T13:32:20.000Z</time>
      </trkpt>
      <trkpt lat="41.1181352846324443817138671875" lon="-7.7927500940859317779541015625">
        <ele>376.20001220703125</ele>
        <time>2019-04-30T13:32:27.000Z</time>
      </trkpt>
      <trkpt lat="41.1182080395519733428955078125" lon="-7.79294145293533802032470703125">
        <ele>376.399993896484375</ele>
        <time>2019-04-30T13:32:29.000Z</time>
      </trkpt>
      <trkpt lat="41.11819513142108917236328125" lon="-7.79358275234699249267578125">
        <ele>379.79998779296875</ele>
        <time>2019-04-30T13:32:35.000Z</time>
      </trkpt>
      <trkpt lat="41.11817744560539722442626953125" lon="-7.7938062138855457305908203125">
        <ele>379.399993896484375</ele>
        <time>2019-04-30T13:32:37.000Z</time>
      </trkpt>
      <trkpt lat="41.11843057908117771148681640625" lon="-7.79450417496263980865478515625">
        <ele>373.20001220703125</ele>
        <time>2019-04-30T13:32:44.000Z</time>
      </trkpt>
      <trkpt lat="41.11847852356731891632080078125" lon="-7.79483928345143795013427734375">
        <ele>373.399993896484375</ele>
        <time>2019-04-30T13:32:47.000Z</time>
      </trkpt>
      <trkpt lat="41.11852177418768405914306640625" lon="-7.7950634993612766265869140625">
        <ele>374.20001220703125</ele>
        <time>2019-04-30T13:32:49.000Z</time>
      </trkpt>
      <trkpt lat="41.11876686103641986846923828125" lon="-7.79535661451518535614013671875">
        <ele>373.600006103515625</ele>
        <time>2019-04-30T13:32:53.000Z</time>
      </trkpt>
      <trkpt lat="41.11906391568481922149658203125" lon="-7.79556951485574245452880859375">
        <ele>374.79998779296875</ele>
        <time>2019-04-30T13:32:57.000Z</time>
      </trkpt>
      <trkpt lat="41.11940992064774036407470703125" lon="-7.79558694921433925628662109375">
        <ele>375.79998779296875</ele>
        <time>2019-04-30T13:33:01.000Z</time>
      </trkpt>
      <trkpt lat="41.11958811990916728973388671875" lon="-7.79556130059063434600830078125">
        <ele>376</ele>
        <time>2019-04-30T13:33:03.000Z</time>
      </trkpt>
      <trkpt lat="41.1199360527098178863525390625" lon="-7.79517791233956813812255859375">
        <ele>371.399993896484375</ele>
        <time>2019-04-30T13:33:08.000Z</time>
      </trkpt>
      <trkpt lat="41.11998684704303741455078125" lon="-7.79508076608180999755859375">
        <ele>370.20001220703125</ele>
        <time>2019-04-30T13:33:09.000Z</time>
      </trkpt>
      <trkpt lat="41.1200691573321819305419921875" lon="-7.7946306578814983367919921875">
        <ele>363</ele>
        <time>2019-04-30T13:33:13.000Z</time>
      </trkpt>
      <trkpt lat="41.12012405879795551300048828125" lon="-7.79442756436765193939208984375">
        <ele>359.79998779296875</ele>
        <time>2019-04-30T13:33:15.000Z</time>
      </trkpt>
      <trkpt lat="41.12062529660761356353759765625" lon="-7.79415280558168888092041015625">
        <ele>357.20001220703125</ele>
        <time>2019-04-30T13:33:22.000Z</time>
      </trkpt>
      <trkpt lat="41.12079176120460033416748046875" lon="-7.79422556050121784210205078125">
        <ele>359.600006103515625</ele>
        <time>2019-04-30T13:33:24.000Z</time>
      </trkpt>
      <trkpt lat="41.1210441403090953826904296875" lon="-7.7943141572177410125732421875">
        <ele>362.79998779296875</ele>
        <time>2019-04-30T13:33:27.000Z</time>
      </trkpt>
      <trkpt lat="41.1214105971157550811767578125" lon="-7.79382373206317424774169921875">
        <ele>357.79998779296875</ele>
        <time>2019-04-30T13:33:34.000Z</time>
      </trkpt>
      <trkpt lat="41.12143255770206451416015625" lon="-7.79371962882578372955322265625">
        <ele>356.20001220703125</ele>
        <time>2019-04-30T13:33:35.000Z</time>
      </trkpt>
      <trkpt lat="41.12146264873445034027099609375" lon="-7.79362742789089679718017578125">
        <ele>355</ele>
        <time>2019-04-30T13:33:36.000Z</time>
      </trkpt>
      <trkpt lat="41.1218900419771671295166015625" lon="-7.793408073484897613525390625">
        <ele>354.600006103515625</ele>
        <time>2019-04-30T13:33:42.000Z</time>
      </trkpt>
      <trkpt lat="41.1222950555384159088134765625" lon="-7.79327991418540477752685546875">
        <ele>355.20001220703125</ele>
        <time>2019-04-30T13:33:47.000Z</time>
      </trkpt>
      <trkpt lat="41.1227862350642681121826171875" lon="-7.79282477684319019317626953125">
        <ele>351.20001220703125</ele>
        <time>2019-04-30T13:33:54.000Z</time>
      </trkpt>
      <trkpt lat="41.12329275347292423248291015625" lon="-7.7923434041440486907958984375">
        <ele>347.600006103515625</ele>
        <time>2019-04-30T13:34:01.000Z</time>
      </trkpt>
      <trkpt lat="41.12342988140881061553955078125" lon="-7.7922465093433856964111328125">
        <ele>347.20001220703125</ele>
        <time>2019-04-30T13:34:03.000Z</time>
      </trkpt>
      <trkpt lat="41.12374269403517246246337890625" lon="-7.79228028841316699981689453125">
        <ele>347</ele>
        <time>2019-04-30T13:34:07.000Z</time>
      </trkpt>
      <trkpt lat="41.12382785417139530181884765625" lon="-7.79228188097476959228515625">
        <ele>346.79998779296875</ele>
        <time>2019-04-30T13:34:08.000Z</time>
      </trkpt>
      <trkpt lat="41.12412541173398494720458984375" lon="-7.79172926209867000579833984375">
        <ele>343.20001220703125</ele>
        <time>2019-04-30T13:34:15.000Z</time>
      </trkpt>
      <trkpt lat="41.124122142791748046875" lon="-7.79162314720451831817626953125">
        <ele>342.79998779296875</ele>
        <time>2019-04-30T13:34:16.000Z</time>
      </trkpt>
      <trkpt lat="41.124129183590412139892578125" lon="-7.790870703756809234619140625">
        <ele>338</ele>
        <time>2019-04-30T13:34:23.000Z</time>
      </trkpt>
      <trkpt lat="41.124140582978725433349609375" lon="-7.79077389277517795562744140625">
        <ele>337.20001220703125</ele>
        <time>2019-04-30T13:34:24.000Z</time>
      </trkpt>
      <trkpt lat="41.12455422990024089813232421875" lon="-7.79041967354714870452880859375">
        <ele>334.600006103515625</ele>
        <time>2019-04-30T13:34:31.000Z</time>
      </trkpt>
      <trkpt lat="41.1249437369406223297119140625" lon="-7.79027651064097881317138671875">
        <ele>336</ele>
        <time>2019-04-30T13:34:36.000Z</time>
      </trkpt>
      <trkpt lat="41.12514884211122989654541015625" lon="-7.7897939644753932952880859375">
        <ele>337.20001220703125</ele>
        <time>2019-04-30T13:34:41.000Z</time>
      </trkpt>
      <trkpt lat="41.1251656897366046905517578125" lon="-7.7895693294703960418701171875">
        <ele>337.20001220703125</ele>
        <time>2019-04-30T13:34:43.000Z</time>
      </trkpt>
      <trkpt lat="41.1250946111977100372314453125" lon="-7.789019644260406494140625">
        <ele>333.399993896484375</ele>
        <time>2019-04-30T13:34:48.000Z</time>
      </trkpt>
      <trkpt lat="41.1250201798975467681884765625" lon="-7.7883630059659481048583984375">
        <ele>330.79998779296875</ele>
        <time>2019-04-30T13:34:54.000Z</time>
      </trkpt>
      <trkpt lat="41.12513006664812564849853515625" lon="-7.787829078733921051025390625">
        <ele>327</ele>
        <time>2019-04-30T13:34:59.000Z</time>
      </trkpt>
      <trkpt lat="41.12537272274494171142578125" lon="-7.78737603686749935150146484375">
        <ele>326.20001220703125</ele>
        <time>2019-04-30T13:35:04.000Z</time>
      </trkpt>
      <trkpt lat="41.1257597990334033966064453125" lon="-7.78678645379841327667236328125">
        <ele>324.399993896484375</ele>
        <time>2019-04-30T13:35:11.000Z</time>
      </trkpt>
      <trkpt lat="41.1258986033499240875244140625" lon="-7.7865055762231349945068359375">
        <ele>324.600006103515625</ele>
        <time>2019-04-30T13:35:14.000Z</time>
      </trkpt>
      <trkpt lat="41.1260320432484149932861328125" lon="-7.7857203595340251922607421875">
        <ele>319.399993896484375</ele>
        <time>2019-04-30T13:35:21.000Z</time>
      </trkpt>
      <trkpt lat="41.1261346377432346343994140625" lon="-7.78501887805759906768798828125">
        <ele>314</ele>
        <time>2019-04-30T13:35:27.000Z</time>
      </trkpt>
      <trkpt lat="41.12622356973588466644287109375" lon="-7.78472232632339000701904296875">
        <ele>310.20001220703125</ele>
        <time>2019-04-30T13:35:30.000Z</time>
      </trkpt>
      <trkpt lat="41.12664383836090564727783203125" lon="-7.78443507850170135498046875">
        <ele>310</ele>
        <time>2019-04-30T13:35:36.000Z</time>
      </trkpt>
      <trkpt lat="41.127141304314136505126953125" lon="-7.78429803438484668731689453125">
        <ele>309.79998779296875</ele>
        <time>2019-04-30T13:35:42.000Z</time>
      </trkpt>
      <trkpt lat="41.12764547578990459442138671875" lon="-7.78389654122292995452880859375">
        <ele>305</ele>
        <time>2019-04-30T13:35:49.000Z</time>
      </trkpt>
      <trkpt lat="41.12786876969039440155029296875" lon="-7.78377885930240154266357421875">
        <ele>303.20001220703125</ele>
        <time>2019-04-30T13:35:52.000Z</time>
      </trkpt>
      <trkpt lat="41.12834536470472812652587890625" lon="-7.78394331224262714385986328125">
        <ele>302.600006103515625</ele>
        <time>2019-04-30T13:35:58.000Z</time>
      </trkpt>
      <trkpt lat="41.12855507992208003997802734375" lon="-7.78411229141056537628173828125">
        <ele>302.20001220703125</ele>
        <time>2019-04-30T13:36:01.000Z</time>
      </trkpt>
      <trkpt lat="41.1287554912269115447998046875" lon="-7.7848053909838199615478515625">
        <ele>298.79998779296875</ele>
        <time>2019-04-30T13:36:08.000Z</time>
      </trkpt>
      <trkpt lat="41.128859259188175201416015625" lon="-7.78550167568027973175048828125">
        <ele>294.399993896484375</ele>
        <time>2019-04-30T13:36:14.000Z</time>
      </trkpt>
      <trkpt lat="41.12907685339450836181640625" lon="-7.78615579940378665924072265625">
        <ele>288</ele>
        <time>2019-04-30T13:36:20.000Z</time>
      </trkpt>
      <trkpt lat="41.12909294664859771728515625" lon="-7.78626912273466587066650390625">
        <ele>287.399993896484375</ele>
        <time>2019-04-30T13:36:21.000Z</time>
      </trkpt>
      <trkpt lat="41.12897417508065700531005859375" lon="-7.786847390234470367431640625">
        <ele>287</ele>
        <time>2019-04-30T13:36:26.000Z</time>
      </trkpt>
      <trkpt lat="41.12884744070470333099365234375" lon="-7.78760067187249660491943359375">
        <ele>284.79998779296875</ele>
        <time>2019-04-30T13:36:32.000Z</time>
      </trkpt>
      <trkpt lat="41.1286756955087184906005859375" lon="-7.78833509422838687896728515625">
        <ele>281.20001220703125</ele>
        <time>2019-04-30T13:36:38.000Z</time>
      </trkpt>
      <trkpt lat="41.128734536468982696533203125" lon="-7.7889822609722614288330078125">
        <ele>279</ele>
        <time>2019-04-30T13:36:43.000Z</time>
      </trkpt>
      <trkpt lat="41.12877116538584232330322265625" lon="-7.78910857625305652618408203125">
        <ele>277.79998779296875</ele>
        <time>2019-04-30T13:36:44.000Z</time>
      </trkpt>
      <trkpt lat="41.12908749841153621673583984375" lon="-7.78975792229175567626953125">
        <ele>271.20001220703125</ele>
        <time>2019-04-30T13:36:50.000Z</time>
      </trkpt>
      <trkpt lat="41.12913276068866252899169921875" lon="-7.7898694016039371490478515625">
        <ele>270.399993896484375</ele>
        <time>2019-04-30T13:36:51.000Z</time>
      </trkpt>
      <trkpt lat="41.12907039932906627655029296875" lon="-7.79058672487735748291015625">
        <ele>270.600006103515625</ele>
        <time>2019-04-30T13:36:57.000Z</time>
      </trkpt>
      <trkpt lat="41.129013486206531524658203125" lon="-7.79097606427967548370361328125">
        <ele>269.600006103515625</ele>
        <time>2019-04-30T13:37:00.000Z</time>
      </trkpt>
      <trkpt lat="41.12900837324559688568115234375" lon="-7.7917315252125263214111328125">
        <ele>261.79998779296875</ele>
        <time>2019-04-30T13:37:06.000Z</time>
      </trkpt>
      <trkpt lat="41.12862129695713520050048828125" lon="-7.7922253869473934173583984375">
        <ele>267.20001220703125</ele>
        <time>2019-04-30T13:37:12.000Z</time>
      </trkpt>
      <trkpt lat="41.1285523138940334320068359375" lon="-7.7929542772471904754638671875">
        <ele>268.600006103515625</ele>
        <time>2019-04-30T13:37:19.000Z</time>
      </trkpt>
      <trkpt lat="41.12870478071272373199462890625" lon="-7.79322627000510692596435546875">
        <ele>262.399993896484375</ele>
        <time>2019-04-30T13:37:22.000Z</time>
      </trkpt>
      <trkpt lat="41.12909554503858089447021484375" lon="-7.79383487999439239501953125">
        <ele>255.8000030517578125</ele>
        <time>2019-04-30T13:37:29.000Z</time>
      </trkpt>
      <trkpt lat="41.12928095273673534393310546875" lon="-7.794248946011066436767578125">
        <ele>255.1999969482421875</ele>
        <time>2019-04-30T13:37:33.000Z</time>
      </trkpt>
      <trkpt lat="41.12937198020517826080322265625" lon="-7.794976495206356048583984375">
        <ele>255.399993896484375</ele>
        <time>2019-04-30T13:37:39.000Z</time>
      </trkpt>
      <trkpt lat="41.1290998198091983795166015625" lon="-7.7956287749111652374267578125">
        <ele>255.399993896484375</ele>
        <time>2019-04-30T13:37:45.000Z</time>
      </trkpt>
      <trkpt lat="41.1290733329951763153076171875" lon="-7.7957236580550670623779296875">
        <ele>255</ele>
        <time>2019-04-30T13:37:46.000Z</time>
      </trkpt>
      <trkpt lat="41.1292352713644504547119140625" lon="-7.79623906128108501434326171875">
        <ele>256.600006103515625</ele>
        <time>2019-04-30T13:37:52.000Z</time>
      </trkpt>
      <trkpt lat="41.12935303710401058197021484375" lon="-7.796343080699443817138671875">
        <ele>257</ele>
        <time>2019-04-30T13:37:54.000Z</time>
      </trkpt>
      <trkpt lat="41.12972301431000232696533203125" lon="-7.79624073766171932220458984375">
        <ele>256.79998779296875</ele>
        <time>2019-04-30T13:38:00.000Z</time>
      </trkpt>
      <trkpt lat="41.1299950070679187774658203125" lon="-7.796064130961894989013671875">
        <ele>258</ele>
        <time>2019-04-30T13:38:05.000Z</time>
      </trkpt>
      <trkpt lat="41.13018770702183246612548828125" lon="-7.79572784900665283203125">
        <ele>257.600006103515625</ele>
        <time>2019-04-30T13:38:10.000Z</time>
      </trkpt>
      <trkpt lat="41.1304442770779132843017578125" lon="-7.7950567938387393951416015625">
        <ele>257</ele>
        <time>2019-04-30T13:38:19.000Z</time>
      </trkpt>
      <trkpt lat="41.13070520572364330291748046875" lon="-7.794431336224079132080078125">
        <ele>254.8000030517578125</ele>
        <time>2019-04-30T13:38:28.000Z</time>
      </trkpt>
      <trkpt lat="41.13098365254700183868408203125" lon="-7.79375717975199222564697265625">
        <ele>252.600006103515625</ele>
        <time>2019-04-30T13:38:37.000Z</time>
      </trkpt>
      <trkpt lat="41.13117844797670841217041015625" lon="-7.79318419285118579864501953125">
        <ele>252.8000030517578125</ele>
        <time>2019-04-30T13:38:44.000Z</time>
      </trkpt>
      <trkpt lat="41.131123043596744537353515625" lon="-7.7926773391664028167724609375">
        <ele>254.1999969482421875</ele>
        <time>2019-04-30T13:38:50.000Z</time>
      </trkpt>
      <trkpt lat="41.131098568439483642578125" lon="-7.79259997420012950897216796875">
        <ele>253.8000030517578125</ele>
        <time>2019-04-30T13:38:51.000Z</time>
      </trkpt>
      <trkpt lat="41.13092933781445026397705078125" lon="-7.7919129095971584320068359375">
        <ele>252.399993896484375</ele>
        <time>2019-04-30T13:38:59.000Z</time>
      </trkpt>
      <trkpt lat="41.130905449390411376953125" lon="-7.7917291782796382904052734375">
        <ele>251.600006103515625</ele>
        <time>2019-04-30T13:39:01.000Z</time>
      </trkpt>
      <trkpt lat="41.13097812049090862274169921875" lon="-7.791374288499355316162109375">
        <ele>252.1999969482421875</ele>
        <time>2019-04-30T13:39:05.000Z</time>
      </trkpt>
      <trkpt lat="41.1311428248882293701171875" lon="-7.790690995752811431884765625">
        <ele>251.600006103515625</ele>
        <time>2019-04-30T13:39:12.000Z</time>
      </trkpt>
      <trkpt lat="41.131303422152996063232421875" lon="-7.78996311128139495849609375">
        <ele>250</ele>
        <time>2019-04-30T13:39:19.000Z</time>
      </trkpt>
      <trkpt lat="41.13134373910725116729736328125" lon="-7.78963495977222919464111328125">
        <ele>247.8000030517578125</ele>
        <time>2019-04-30T13:39:22.000Z</time>
      </trkpt>
      <trkpt lat="41.131341643631458282470703125" lon="-7.78883264400064945220947265625">
        <ele>235.8000030517578125</ele>
        <time>2019-04-30T13:39:29.000Z</time>
      </trkpt>
      <trkpt lat="41.13135865889489650726318359375" lon="-7.788718901574611663818359375">
        <ele>233.600006103515625</ele>
        <time>2019-04-30T13:39:30.000Z</time>
      </trkpt>
      <trkpt lat="41.131780855357646942138671875" lon="-7.78829586692154407501220703125">
        <ele>233.600006103515625</ele>
        <time>2019-04-30T13:39:36.000Z</time>
      </trkpt>
      <trkpt lat="41.13212157972157001495361328125" lon="-7.78806678950786590576171875">
        <ele>235.600006103515625</ele>
        <time>2019-04-30T13:39:40.000Z</time>
      </trkpt>
      <trkpt lat="41.13246272318065166473388671875" lon="-7.78747393749654293060302734375">
        <ele>229.399993896484375</ele>
        <time>2019-04-30T13:39:46.000Z</time>
      </trkpt>
      <trkpt lat="41.13258920609951019287109375" lon="-7.7873112447559833526611328125">
        <ele>228</ele>
        <time>2019-04-30T13:39:48.000Z</time>
      </trkpt>
      <trkpt lat="41.1330386437475681304931640625" lon="-7.78689642436802387237548828125">
        <ele>228</ele>
        <time>2019-04-30T13:39:54.000Z</time>
      </trkpt>
      <trkpt lat="41.13348162733018398284912109375" lon="-7.78648437000811100006103515625">
        <ele>225.8000030517578125</ele>
        <time>2019-04-30T13:40:00.000Z</time>
      </trkpt>
      <trkpt lat="41.13401991315186023712158203125" lon="-7.7860760875046253204345703125">
        <ele>225.1999969482421875</ele>
        <time>2019-04-30T13:40:07.000Z</time>
      </trkpt>
      <trkpt lat="41.134518720209598541259765625" lon="-7.78560175560414791107177734375">
        <ele>225.1999969482421875</ele>
        <time>2019-04-30T13:40:14.000Z</time>
      </trkpt>
      <trkpt lat="41.13467168994247913360595703125" lon="-7.785189785063266754150390625">
        <ele>217.8000030517578125</ele>
        <time>2019-04-30T13:40:18.000Z</time>
      </trkpt>
      <trkpt lat="41.1347703449428081512451171875" lon="-7.7849914692342281341552734375">
        <ele>215.600006103515625</ele>
        <time>2019-04-30T13:40:20.000Z</time>
      </trkpt>
      <trkpt lat="41.13515666685998439788818359375" lon="-7.7843876369297504425048828125">
        <ele>211.8000030517578125</ele>
        <time>2019-04-30T13:40:27.000Z</time>
      </trkpt>
      <trkpt lat="41.1354261450469493865966796875" lon="-7.78417381457984447479248046875">
        <ele>214.8000030517578125</ele>
        <time>2019-04-30T13:40:31.000Z</time>
      </trkpt>
      <trkpt lat="41.1353926174342632293701171875" lon="-7.78345263563096523284912109375">
        <ele>209.1999969482421875</ele>
        <time>2019-04-30T13:40:39.000Z</time>
      </trkpt>
      <trkpt lat="41.13536839373409748077392578125" lon="-7.783361859619617462158203125">
        <ele>207.399993896484375</ele>
        <time>2019-04-30T13:40:40.000Z</time>
      </trkpt>
      <trkpt lat="41.135662011802196502685546875" lon="-7.78278560377657413482666015625">
        <ele>201.1999969482421875</ele>
        <time>2019-04-30T13:40:47.000Z</time>
      </trkpt>
      <trkpt lat="41.13574390299618244171142578125" lon="-7.78272827155888080596923828125">
        <ele>201.399993896484375</ele>
        <time>2019-04-30T13:40:48.000Z</time>
      </trkpt>
      <trkpt lat="41.13624379970133304595947265625" lon="-7.78232644312083721160888671875">
        <ele>204.399993896484375</ele>
        <time>2019-04-30T13:40:55.000Z</time>
      </trkpt>
      <trkpt lat="41.13646768033504486083984375" lon="-7.7819801867008209228515625">
        <ele>205</ele>
        <time>2019-04-30T13:41:00.000Z</time>
      </trkpt>
      <trkpt lat="41.1362884752452373504638671875" lon="-7.78133888728916645050048828125">
        <ele>201.600006103515625</ele>
        <time>2019-04-30T13:41:08.000Z</time>
      </trkpt>
      <trkpt lat="41.13582286052405834197998046875" lon="-7.78092205524444580078125">
        <ele>194</ele>
        <time>2019-04-30T13:41:15.000Z</time>
      </trkpt>
      <trkpt lat="41.135761924088001251220703125" lon="-7.78084921650588512420654296875">
        <ele>192.600006103515625</ele>
        <time>2019-04-30T13:41:16.000Z</time>
      </trkpt>
      <trkpt lat="41.13585839979350566864013671875" lon="-7.78021059930324554443359375">
        <ele>188.399993896484375</ele>
        <time>2019-04-30T13:41:23.000Z</time>
      </trkpt>
      <trkpt lat="41.13599100150167942047119140625" lon="-7.7800726331770420074462890625">
        <ele>191.1999969482421875</ele>
        <time>2019-04-30T13:41:25.000Z</time>
      </trkpt>
      <trkpt lat="41.13633180968463420867919921875" lon="-7.7794952876865863800048828125">
        <ele>194.600006103515625</ele>
        <time>2019-04-30T13:41:32.000Z</time>
      </trkpt>
      <trkpt lat="41.13649785518646240234375" lon="-7.7788056246936321258544921875">
        <ele>188.1999969482421875</ele>
        <time>2019-04-30T13:41:39.000Z</time>
      </trkpt>
      <trkpt lat="41.13664361648261547088623046875" lon="-7.77810749597847461700439453125">
        <ele>173.600006103515625</ele>
        <time>2019-04-30T13:41:47.000Z</time>
      </trkpt>
      <trkpt lat="41.1366824246942996978759765625" lon="-7.7780348248779773712158203125">
        <ele>171.8000030517578125</ele>
        <time>2019-04-30T13:41:48.000Z</time>
      </trkpt>
      <trkpt lat="41.1370559222996234893798828125" lon="-7.7776405401527881622314453125">
        <ele>162.399993896484375</ele>
        <time>2019-04-30T13:41:55.000Z</time>
      </trkpt>
      <trkpt lat="41.1375232972204685211181640625" lon="-7.7777370996773242950439453125">
        <ele>165</ele>
        <time>2019-04-30T13:42:02.000Z</time>
      </trkpt>
      <trkpt lat="41.13808245398104190826416015625" lon="-7.77795620262622833251953125">
        <ele>169.8000030517578125</ele>
        <time>2019-04-30T13:42:10.000Z</time>
      </trkpt>
      <trkpt lat="41.13832242786884307861328125" lon="-7.77800255455076694488525390625">
        <ele>173.8000030517578125</ele>
        <time>2019-04-30T13:42:13.000Z</time>
      </trkpt>
      <trkpt lat="41.13890153355896472930908203125" lon="-7.7778185717761516571044921875">
        <ele>167.8000030517578125</ele>
        <time>2019-04-30T13:42:20.000Z</time>
      </trkpt>
      <trkpt lat="41.1393798887729644775390625" lon="-7.77758647687733173370361328125">
        <ele>160.8000030517578125</ele>
        <time>2019-04-30T13:42:26.000Z</time>
      </trkpt>
      <trkpt lat="41.13963461481034755706787109375" lon="-7.7775335870683193206787109375">
        <ele>159.8000030517578125</ele>
        <time>2019-04-30T13:42:29.000Z</time>
      </trkpt>
      <trkpt lat="41.13993535749614238739013671875" lon="-7.7773632667958736419677734375">
        <ele>151.600006103515625</ele>
        <time>2019-04-30T13:42:33.000Z</time>
      </trkpt>
      <trkpt lat="41.14042318426072597503662109375" lon="-7.77770147658884525299072265625">
        <ele>149.8000030517578125</ele>
        <time>2019-04-30T13:42:40.000Z</time>
      </trkpt>
      <trkpt lat="41.14057975821197032928466796875" lon="-7.77778898365795612335205078125">
        <ele>148.1999969482421875</ele>
        <time>2019-04-30T13:42:42.000Z</time>
      </trkpt>
      <trkpt lat="41.14084881730377674102783203125" lon="-7.7780234254896640777587890625">
        <ele>143.399993896484375</ele>
        <time>2019-04-30T13:42:46.000Z</time>
      </trkpt>
      <trkpt lat="41.14128015004098415374755859375" lon="-7.778556682169437408447265625">
        <ele>143.8000030517578125</ele>
        <time>2019-04-30T13:42:53.000Z</time>
      </trkpt>
      <trkpt lat="41.14173780195415019989013671875" lon="-7.7790255658328533172607421875">
        <ele>137.1999969482421875</ele>
        <time>2019-04-30T13:43:00.000Z</time>
      </trkpt>
      <trkpt lat="41.1420753411948680877685546875" lon="-7.7793092094361782073974609375">
        <ele>132</ele>
        <time>2019-04-30T13:43:11.000Z</time>
      </trkpt>
      <trkpt lat="41.14209990017116069793701171875" lon="-7.77935857884585857391357421875">
        <ele>132</ele>
        <time>2019-04-30T13:44:03.000Z</time>
      </trkpt>
      <trkpt lat="41.14241858012974262237548828125" lon="-7.7800112776458263397216796875">
        <ele>147.8000030517578125</ele>
        <time>2019-04-30T13:44:17.000Z</time>
      </trkpt>
      <trkpt lat="41.14290271885693073272705078125" lon="-7.779917232692241668701171875">
        <ele>145</ele>
        <time>2019-04-30T13:44:25.000Z</time>
      </trkpt>
      <trkpt lat="41.1429579555988311767578125" lon="-7.77984992600977420806884765625">
        <ele>142.600006103515625</ele>
        <time>2019-04-30T13:44:26.000Z</time>
      </trkpt>
      <trkpt lat="41.143425665795803070068359375" lon="-7.7794419787824153900146484375">
        <ele>131.399993896484375</ele>
        <time>2019-04-30T13:44:33.000Z</time>
      </trkpt>
      <trkpt lat="41.1439978145062923431396484375" lon="-7.77921306900680065155029296875">
        <ele>128</ele>
        <time>2019-04-30T13:44:40.000Z</time>
      </trkpt>
      <trkpt lat="41.14448907785117626190185546875" lon="-7.7790922857820987701416015625">
        <ele>118</ele>
        <time>2019-04-30T13:44:46.000Z</time>
      </trkpt>
      <trkpt lat="41.14474489353597164154052734375" lon="-7.7796796895563602447509765625">
        <ele>120</ele>
        <time>2019-04-30T13:44:54.000Z</time>
      </trkpt>
      <trkpt lat="41.144724190235137939453125" lon="-7.7797782607376575469970703125">
        <ele>121.40000152587890625</ele>
        <time>2019-04-30T13:44:55.000Z</time>
      </trkpt>
      <trkpt lat="41.14467448554933071136474609375" lon="-7.78020389378070831298828125">
        <ele>126</ele>
        <time>2019-04-30T13:44:59.000Z</time>
      </trkpt>
      <trkpt lat="41.1451129429042339324951171875" lon="-7.7804384194314479827880859375">
        <ele>125.1999969482421875</ele>
        <time>2019-04-30T13:45:07.000Z</time>
      </trkpt>
      <trkpt lat="41.14522685296833515167236328125" lon="-7.78033255599439144134521484375">
        <ele>123.40000152587890625</ele>
        <time>2019-04-30T13:45:09.000Z</time>
      </trkpt>
      <trkpt lat="41.14569439552724361419677734375" lon="-7.779814638197422027587890625">
        <ele>113.40000152587890625</ele>
        <time>2019-04-30T13:45:18.000Z</time>
      </trkpt>
      <trkpt lat="41.1458200402557849884033203125" lon="-7.77971983887255191802978515625">
        <ele>111</ele>
        <time>2019-04-30T13:45:20.000Z</time>
      </trkpt>
      <trkpt lat="41.14622195251286029815673828125" lon="-7.780077494680881500244140625">
        <ele>112.59999847412109375</ele>
        <time>2019-04-30T13:45:28.000Z</time>
      </trkpt>
      <trkpt lat="41.14623771049082279205322265625" lon="-7.78016944415867328643798828125">
        <ele>113.59999847412109375</ele>
        <time>2019-04-30T13:45:29.000Z</time>
      </trkpt>
      <trkpt lat="41.14629663527011871337890625" lon="-7.78035015799105167388916015625">
        <ele>115</ele>
        <time>2019-04-30T13:45:31.000Z</time>
      </trkpt>
      <trkpt lat="41.14680667407810688018798828125" lon="-7.7802447974681854248046875">
        <ele>115.59999847412109375</ele>
        <time>2019-04-30T13:45:39.000Z</time>
      </trkpt>
      <trkpt lat="41.14688873291015625" lon="-7.78006978332996368408203125">
        <ele>114.59999847412109375</ele>
        <time>2019-04-30T13:45:41.000Z</time>
      </trkpt>
      <trkpt lat="41.146921925246715545654296875" lon="-7.779971547424793243408203125">
        <ele>113</ele>
        <time>2019-04-30T13:45:42.000Z</time>
      </trkpt>
      <trkpt lat="41.1471437104046344757080078125" lon="-7.77926553972065448760986328125">
        <ele>100.40000152587890625</ele>
        <time>2019-04-30T13:45:49.000Z</time>
      </trkpt>
      <trkpt lat="41.14763966761529445648193359375" lon="-7.779039479792118072509765625">
        <ele>86.59999847412109375</ele>
        <time>2019-04-30T13:45:56.000Z</time>
      </trkpt>
      <trkpt lat="41.1479594372212886810302734375" lon="-7.7796411328017711639404296875">
        <ele>88.40000152587890625</ele>
        <time>2019-04-30T13:46:03.000Z</time>
      </trkpt>
      <trkpt lat="41.1481545679271221160888671875" lon="-7.7800404466688632965087890625">
        <ele>90.40000152587890625</ele>
        <time>2019-04-30T13:46:07.000Z</time>
      </trkpt>
      <trkpt lat="41.14847785793244838714599609375" lon="-7.78067403472959995269775390625">
        <ele>80.59999847412109375</ele>
        <time>2019-04-30T13:46:14.000Z</time>
      </trkpt>
      <trkpt lat="41.14826814271509647369384765625" lon="-7.7813476882874965667724609375">
        <ele>85</ele>
        <time>2019-04-30T13:46:22.000Z</time>
      </trkpt>
      <trkpt lat="41.14832974970340728759765625" lon="-7.78201379813253879547119140625">
        <ele>84.1999969482421875</ele>
        <time>2019-04-30T13:46:30.000Z</time>
      </trkpt>
      <trkpt lat="41.14837710745632648468017578125" lon="-7.78205319307744503021240234375">
        <ele>83</ele>
        <time>2019-04-30T13:46:31.000Z</time>
      </trkpt>
      <trkpt lat="41.14855614490807056427001953125" lon="-7.78219811618328094482421875">
        <ele>78.59999847412109375</ele>
        <time>2019-04-30T13:46:40.000Z</time>
      </trkpt>
      <trkpt lat="41.1485729925334453582763671875" lon="-7.7822167240083217620849609375">
        <ele>78.1999969482421875</ele>
        <time>2019-04-30T13:47:29.000Z</time>
      </trkpt>
      <trkpt lat="41.148790419101715087890625" lon="-7.78248645365238189697265625">
        <ele>72.8000030517578125</ele>
        <time>2019-04-30T13:47:37.000Z</time>
      </trkpt>
      <trkpt lat="41.1488650180399417877197265625" lon="-7.782759033143520355224609375">
        <ele>74.8000030517578125</ele>
        <time>2019-04-30T13:47:41.000Z</time>
      </trkpt>
      <trkpt lat="41.14891774021089076995849609375" lon="-7.78299607336521148681640625">
        <ele>79.40000152587890625</ele>
        <time>2019-04-30T13:47:44.000Z</time>
      </trkpt>
      <trkpt lat="41.1494557745754718780517578125" lon="-7.7830770425498485565185546875">
        <ele>73.40000152587890625</ele>
        <time>2019-04-30T13:47:52.000Z</time>
      </trkpt>
      <trkpt lat="41.1496116779744625091552734375" lon="-7.78306656517088413238525390625">
        <ele>70.1999969482421875</ele>
        <time>2019-04-30T13:47:54.000Z</time>
      </trkpt>
      <trkpt lat="41.1499719321727752685546875" lon="-7.7834129892289638519287109375">
        <ele>69.40000152587890625</ele>
        <time>2019-04-30T13:48:00.000Z</time>
      </trkpt>
      <trkpt lat="41.15029773674905300140380859375" lon="-7.783933840692043304443359375">
        <ele>73.40000152587890625</ele>
        <time>2019-04-30T13:48:07.000Z</time>
      </trkpt>
      <trkpt lat="41.15062194876372814178466796875" lon="-7.784102149307727813720703125">
        <ele>72.8000030517578125</ele>
        <time>2019-04-30T13:48:12.000Z</time>
      </trkpt>
      <trkpt lat="41.150905005633831024169921875" lon="-7.78417783789336681365966796875">
        <ele>72.8000030517578125</ele>
        <time>2019-04-30T13:48:16.000Z</time>
      </trkpt>
      <trkpt lat="41.15137531422078609466552734375" lon="-7.7843987010419368743896484375">
        <ele>76.8000030517578125</ele>
        <time>2019-04-30T13:48:23.000Z</time>
      </trkpt>
      <trkpt lat="41.15157681517302989959716796875" lon="-7.78437632136046886444091796875">
        <ele>74.40000152587890625</ele>
        <time>2019-04-30T13:48:26.000Z</time>
      </trkpt>
      <trkpt lat="41.15190354175865650177001953125" lon="-7.7840992994606494903564453125">
        <ele>63.200000762939453125</ele>
        <time>2019-04-30T13:48:32.000Z</time>
      </trkpt>
      <trkpt lat="41.151933968067169189453125" lon="-7.78403132222592830657958984375">
        <ele>62.200000762939453125</ele>
        <time>2019-04-30T13:48:33.000Z</time>
      </trkpt>
      <trkpt lat="41.15223043598234653472900390625" lon="-7.7833616919815540313720703125">
        <ele>53.40000152587890625</ele>
        <time>2019-04-30T13:48:44.000Z</time>
      </trkpt>
      <trkpt lat="41.15252631716430187225341796875" lon="-7.78275542892515659332275390625">
        <ele>60.799999237060546875</ele>
        <time>2019-04-30T13:48:54.000Z</time>
      </trkpt>
      <trkpt lat="41.152651123702526092529296875" lon="-7.78250682167708873748779296875">
        <ele>63.59999847412109375</ele>
        <time>2019-04-30T13:48:58.000Z</time>
      </trkpt>
      <trkpt lat="41.15269395522773265838623046875" lon="-7.782317139208316802978515625">
        <ele>64.40000152587890625</ele>
        <time>2019-04-30T13:49:03.000Z</time>
      </trkpt>
      <trkpt lat="41.1527998186647891998291015625" lon="-7.782242037355899810791015625">
        <ele>64.8000030517578125</ele>
        <time>2019-04-30T13:49:07.000Z</time>
      </trkpt>
      <trkpt lat="41.1528273113071918487548828125" lon="-7.782258801162242889404296875">
        <ele>64.59999847412109375</ele>
        <time>2019-04-30T13:49:08.000Z</time>
      </trkpt>
      <trkpt lat="41.153051443397998809814453125" lon="-7.7822733856737613677978515625">
        <ele>65</ele>
        <time>2019-04-30T13:49:14.000Z</time>
      </trkpt>
      <trkpt lat="41.153167784214019775390625" lon="-7.78221881948411464691162109375">
        <ele>64</ele>
        <time>2019-04-30T13:49:17.000Z</time>
      </trkpt>
      <trkpt lat="41.15331287495791912078857421875" lon="-7.78209485113620758056640625">
        <ele>61.200000762939453125</ele>
        <time>2019-04-30T13:49:22.000Z</time>
      </trkpt>
      <trkpt lat="41.15332108922302722930908203125" lon="-7.78202553279697895050048828125">
        <ele>61.200000762939453125</ele>
        <time>2019-04-30T13:49:26.000Z</time>
      </trkpt>
      <trkpt lat="41.15330994129180908203125" lon="-7.782003320753574371337890625">
        <ele>61.59999847412109375</ele>
        <time>2019-04-30T13:49:30.000Z</time>
      </trkpt>
      <trkpt lat="41.15331237204372882843017578125" lon="-7.7818770892918109893798828125">
        <ele>62</ele>
        <time>2019-04-30T13:49:35.000Z</time>
      </trkpt>
      <trkpt lat="41.15332762710750102996826171875" lon="-7.7818566374480724334716796875">
        <ele>61.799999237060546875</ele>
        <time>2019-04-30T13:49:36.000Z</time>
      </trkpt>
      <trkpt lat="41.15334145724773406982421875" lon="-7.78183861635625362396240234375">
        <ele>61.59999847412109375</ele>
        <time>2019-04-30T13:49:39.000Z</time>
      </trkpt>
      <trkpt lat="41.15332511253654956817626953125" lon="-7.78186560608446598052978515625">
        <ele>61.799999237060546875</ele>
        <time>2019-04-30T13:50:37.000Z</time>
      </trkpt>
      <trkpt lat="41.153390407562255859375" lon="-7.7820648439228534698486328125">
        <ele>59.59999847412109375</ele>
        <time>2019-04-30T13:50:46.000Z</time>
      </trkpt>
      <trkpt lat="41.153409183025360107421875" lon="-7.78211957775056362152099609375">
        <ele>59</ele>
        <time>2019-04-30T13:50:52.000Z</time>
      </trkpt>
      <trkpt lat="41.15342234261333942413330078125" lon="-7.7821194939315319061279296875">
        <ele>58.799999237060546875</ele>
        <time>2019-04-30T13:50:54.000Z</time>
      </trkpt>
      <trkpt lat="41.1535025574266910552978515625" lon="-7.78206660412251949310302734375">
        <ele>57.200000762939453125</ele>
        <time>2019-04-30T13:50:58.000Z</time>
      </trkpt>
      <trkpt lat="41.1540222354233264923095703125" lon="-7.7817855589091777801513671875">
        <ele>49</ele>
        <time>2019-04-30T13:51:13.000Z</time>
      </trkpt>
      <trkpt lat="41.1545533128082752227783203125" lon="-7.78151256032288074493408203125">
        <ele>49</ele>
        <time>2019-04-30T13:51:26.000Z</time>
      </trkpt>
      <trkpt lat="41.15471349097788333892822265625" lon="-7.7814170904457569122314453125">
        <ele>49</ele>
        <time>2019-04-30T13:51:30.000Z</time>
      </trkpt>
      <trkpt lat="41.15525378845632076263427734375" lon="-7.7811379730701446533203125">
        <ele>54.200000762939453125</ele>
        <time>2019-04-30T13:51:42.000Z</time>
      </trkpt>
      <trkpt lat="41.15575502626597881317138671875" lon="-7.7808682434260845184326171875">
        <ele>60.40000152587890625</ele>
        <time>2019-04-30T13:51:53.000Z</time>
      </trkpt>
      <trkpt lat="41.1562729440629482269287109375" lon="-7.7805688418447971343994140625">
        <ele>69.8000030517578125</ele>
        <time>2019-04-30T13:52:08.000Z</time>
      </trkpt>
      <trkpt lat="41.15633488632738590240478515625" lon="-7.78053246438503265380859375">
        <ele>71</ele>
        <time>2019-04-30T13:52:12.000Z</time>
      </trkpt>
      <trkpt lat="41.15635332651436328887939453125" lon="-7.78054880909621715545654296875">
        <ele>71.1999969482421875</ele>
        <time>2019-04-30T13:53:50.000Z</time>
      </trkpt>
      <trkpt lat="41.1563691683113574981689453125" lon="-7.7805678360164165496826171875">
        <ele>71.40000152587890625</ele>
        <time>2019-04-30T13:53:54.000Z</time>
      </trkpt>
      <trkpt lat="41.15639917552471160888671875" lon="-7.7805457077920436859130859375">
        <ele>72</ele>
        <time>2019-04-30T13:55:07.000Z</time>
      </trkpt>
      <trkpt lat="41.15654275752604007720947265625" lon="-7.78049449436366558074951171875">
        <ele>74.1999969482421875</ele>
        <time>2019-04-30T13:55:16.000Z</time>
      </trkpt>
      <trkpt lat="41.156597323715686798095703125" lon="-7.78057093732059001922607421875">
        <ele>74.8000030517578125</ele>
        <time>2019-04-30T13:55:22.000Z</time>
      </trkpt>
      <trkpt lat="41.15663914941251277923583984375" lon="-7.78058887459337711334228515625">
        <ele>75.1999969482421875</ele>
        <time>2019-04-30T13:56:03.000Z</time>
      </trkpt>
      <trkpt lat="41.15668122656643390655517578125" lon="-7.78058099560439586639404296875">
        <ele>75.8000030517578125</ele>
        <time>2019-04-30T13:56:06.000Z</time>
      </trkpt>
      <trkpt lat="41.15691575221717357635498046875" lon="-7.7812367118895053863525390625">
        <ele>77.59999847412109375</ele>
        <time>2019-04-30T13:56:25.000Z</time>
      </trkpt>
      <trkpt lat="41.15707266144454479217529296875" lon="-7.7819211781024932861328125">
        <ele>73.8000030517578125</ele>
        <time>2019-04-30T13:56:41.000Z</time>
      </trkpt>
      <trkpt lat="41.15715715102851390838623046875" lon="-7.78219484724104404449462890625">
        <ele>73.40000152587890625</ele>
        <time>2019-04-30T13:56:46.000Z</time>
      </trkpt>
      <trkpt lat="41.15745135582983493804931640625" lon="-7.782808654010295867919921875">
        <ele>72.59999847412109375</ele>
        <time>2019-04-30T13:56:58.000Z</time>
      </trkpt>
      <trkpt lat="41.15781714208424091339111328125" lon="-7.783399410545825958251953125">
        <ele>72</ele>
        <time>2019-04-30T13:57:10.000Z</time>
      </trkpt>
      <trkpt lat="41.15822249092161655426025390625" lon="-7.783944569528102874755859375">
        <ele>72.1999969482421875</ele>
        <time>2019-04-30T13:57:22.000Z</time>
      </trkpt>
      <trkpt lat="41.15862599574029445648193359375" lon="-7.784460894763469696044921875">
        <ele>72.1999969482421875</ele>
        <time>2019-04-30T13:57:36.000Z</time>
      </trkpt>
      <trkpt lat="41.158927492797374725341796875" lon="-7.784928940236568450927734375">
        <ele>71.40000152587890625</ele>
        <time>2019-04-30T13:57:55.000Z</time>
      </trkpt>
      <trkpt lat="41.15915187634527683258056640625" lon="-7.78560410253703594207763671875">
        <ele>69.1999969482421875</ele>
        <time>2019-04-30T13:58:10.000Z</time>
      </trkpt>
      <trkpt lat="41.15916830487549304962158203125" lon="-7.7856616862118244171142578125">
        <ele>69</ele>
        <time>2019-04-30T13:58:11.000Z</time>
      </trkpt>
      <trkpt lat="41.1593789421021938323974609375" lon="-7.786348164081573486328125">
        <ele>67.40000152587890625</ele>
        <time>2019-04-30T13:58:25.000Z</time>
      </trkpt>
      <trkpt lat="41.15961916744709014892578125" lon="-7.7870014496147632598876953125">
        <ele>66</ele>
        <time>2019-04-30T13:58:43.000Z</time>
      </trkpt>
      <trkpt lat="41.15973743610084056854248046875" lon="-7.7873642183840274810791015625">
        <ele>69</ele>
        <time>2019-04-30T13:59:00.000Z</time>
      </trkpt>
      <trkpt lat="41.15970592014491558074951171875" lon="-7.78750578872859477996826171875">
        <ele>68.1999969482421875</ele>
        <time>2019-04-30T13:59:29.000Z</time>
      </trkpt>
      <trkpt lat="41.15970902144908905029296875" lon="-7.78752422891557216644287109375">
        <ele>68.1999969482421875</ele>
        <time>2019-04-30T13:59:30.000Z</time>
      </trkpt>
      <trkpt lat="41.159809269011020660400390625" lon="-7.7878094650804996490478515625">
        <ele>69.59999847412109375</ele>
        <time>2019-04-30T13:59:40.000Z</time>
      </trkpt>
      <trkpt lat="41.15992669947445392608642578125" lon="-7.78793293051421642303466796875">
        <ele>71</ele>
        <time>2019-04-30T13:59:47.000Z</time>
      </trkpt>
      <trkpt lat="41.16017832420766353607177734375" lon="-7.788535170257091522216796875">
        <ele>72</ele>
        <time>2019-04-30T13:59:59.000Z</time>
      </trkpt>
      <trkpt lat="41.16045643575489521026611328125" lon="-7.78908762149512767791748046875">
        <ele>68</ele>
        <time>2019-04-30T14:00:09.000Z</time>
      </trkpt>
      <trkpt lat="41.1607656441628932952880859375" lon="-7.78971777297556400299072265625">
        <ele>64.40000152587890625</ele>
        <time>2019-04-30T14:00:20.000Z</time>
      </trkpt>
      <trkpt lat="41.16082691587507724761962890625" lon="-7.789830006659030914306640625">
        <ele>64.1999969482421875</ele>
        <time>2019-04-30T14:00:22.000Z</time>
      </trkpt>
      <trkpt lat="41.1611619405448436737060546875" lon="-7.790465019643306732177734375">
        <ele>67.59999847412109375</ele>
        <time>2019-04-30T14:00:34.000Z</time>
      </trkpt>
      <trkpt lat="41.16148590110242366790771484375" lon="-7.791089974343776702880859375">
        <ele>64</ele>
        <time>2019-04-30T14:00:47.000Z</time>
      </trkpt>
      <trkpt lat="41.1616980470716953277587890625" lon="-7.79144125990569591522216796875">
        <ele>63.40000152587890625</ele>
        <time>2019-04-30T14:00:55.000Z</time>
      </trkpt>
      <trkpt lat="41.16219366900622844696044921875" lon="-7.79176061041653156280517578125">
        <ele>65.8000030517578125</ele>
        <time>2019-04-30T14:01:12.000Z</time>
      </trkpt>
      <trkpt lat="41.162401624023914337158203125" lon="-7.791997231543064117431640625">
        <ele>66</ele>
        <time>2019-04-30T14:01:21.000Z</time>
      </trkpt>
      <trkpt lat="41.1623592115938663482666015625" lon="-7.7921645343303680419921875">
        <ele>65</ele>
        <time>2019-04-30T14:01:25.000Z</time>
      </trkpt>
      <trkpt lat="41.1623156256973743438720703125" lon="-7.7926354296505451202392578125">
        <ele>62.799999237060546875</ele>
        <time>2019-04-30T14:01:32.000Z</time>
      </trkpt>
      <trkpt lat="41.16250128485262393951416015625" lon="-7.79334814287722110748291015625">
        <ele>60.200000762939453125</ele>
        <time>2019-04-30T14:01:45.000Z</time>
      </trkpt>
      <trkpt lat="41.16260823793709278106689453125" lon="-7.79392733238637447357177734375">
        <ele>58.59999847412109375</ele>
        <time>2019-04-30T14:01:55.000Z</time>
      </trkpt>
      <trkpt lat="41.16264344193041324615478515625" lon="-7.7941726706922054290771484375">
        <ele>58.200000762939453125</ele>
        <time>2019-04-30T14:01:59.000Z</time>
      </trkpt>
      <trkpt lat="41.16281661204993724822998046875" lon="-7.79493718408048152923583984375">
        <ele>56.40000152587890625</ele>
        <time>2019-04-30T14:02:09.000Z</time>
      </trkpt>
      <trkpt lat="41.16296254098415374755859375" lon="-7.7956270985305309295654296875">
        <ele>55.200000762939453125</ele>
        <time>2019-04-30T14:02:17.000Z</time>
      </trkpt>
      <trkpt lat="41.16301752626895904541015625" lon="-7.7961538173258304595947265625">
        <ele>56</ele>
        <time>2019-04-30T14:02:24.000Z</time>
      </trkpt>
      <trkpt lat="41.16302867420017719268798828125" lon="-7.7963660471141338348388671875">
        <ele>57.40000152587890625</ele>
        <time>2019-04-30T14:02:28.000Z</time>
      </trkpt>
      <trkpt lat="41.16301710717380046844482421875" lon="-7.796468473970890045166015625">
        <ele>57.799999237060546875</ele>
        <time>2019-04-30T14:02:31.000Z</time>
      </trkpt>
      <trkpt lat="41.16301375441253185272216796875" lon="-7.79672185890376567840576171875">
        <ele>59.40000152587890625</ele>
        <time>2019-04-30T14:02:40.000Z</time>
      </trkpt>
      <trkpt lat="41.16301224566996097564697265625" lon="-7.79674775898456573486328125">
        <ele>59.200000762939453125</ele>
        <time>2019-04-30T14:02:57.000Z</time>
      </trkpt>
      <trkpt lat="41.1629457771778106689453125" lon="-7.79748729430139064788818359375">
        <ele>60.200000762939453125</ele>
        <time>2019-04-30T14:03:14.000Z</time>
      </trkpt>
      <trkpt lat="41.16295172832906246185302734375" lon="-7.79786892235279083251953125">
        <ele>60.59999847412109375</ele>
        <time>2019-04-30T14:03:21.000Z</time>
      </trkpt>
      <trkpt lat="41.1629030294716358184814453125" lon="-7.79854794032871723175048828125">
        <ele>59.59999847412109375</ele>
        <time>2019-04-30T14:03:33.000Z</time>
      </trkpt>
      <trkpt lat="41.16289758123457431793212890625" lon="-7.79891003854572772979736328125">
        <ele>58.59999847412109375</ele>
        <time>2019-04-30T14:03:39.000Z</time>
      </trkpt>
      <trkpt lat="41.16288953460752964019775390625" lon="-7.799157388508319854736328125">
        <ele>58</ele>
        <time>2019-04-30T14:03:43.000Z</time>
      </trkpt>
      <trkpt lat="41.162775456905364990234375" lon="-7.799913771450519561767578125">
        <ele>60.200000762939453125</ele>
        <time>2019-04-30T14:03:56.000Z</time>
      </trkpt>
      <trkpt lat="41.1626143567264080047607421875" lon="-7.80060452409088611602783203125">
        <ele>60.200000762939453125</ele>
        <time>2019-04-30T14:04:08.000Z</time>
      </trkpt>
      <trkpt lat="41.1623662523925304412841796875" lon="-7.8012920916080474853515625">
        <ele>59.799999237060546875</ele>
        <time>2019-04-30T14:04:24.000Z</time>
      </trkpt>
      <trkpt lat="41.16234655492007732391357421875" lon="-7.80133676715195178985595703125">
        <ele>59.799999237060546875</ele>
        <time>2019-04-30T14:04:25.000Z</time>
      </trkpt>
      <trkpt lat="41.162105239927768707275390625" lon="-7.80199776403605937957763671875">
        <ele>59.59999847412109375</ele>
        <time>2019-04-30T14:04:39.000Z</time>
      </trkpt>
      <trkpt lat="41.16207632236182689666748046875" lon="-7.80218535102903842926025390625">
        <ele>59.59999847412109375</ele>
        <time>2019-04-30T14:04:46.000Z</time>
      </trkpt>
      <trkpt lat="41.16207682527601718902587890625" lon="-7.80223111622035503387451171875">
        <ele>59.59999847412109375</ele>
        <time>2019-04-30T14:05:25.000Z</time>
      </trkpt>
      <trkpt lat="41.1620997078716754913330078125" lon="-7.80234209261834621429443359375">
        <ele>60</ele>
        <time>2019-04-30T14:05:30.000Z</time>
      </trkpt>
      <trkpt lat="41.16251436062157154083251953125" lon="-7.8028010018169879913330078125">
        <ele>65</ele>
        <time>2019-04-30T14:05:48.000Z</time>
      </trkpt>
      <trkpt lat="41.16295021958649158477783203125" lon="-7.8032432310283184051513671875">
        <ele>68.40000152587890625</ele>
        <time>2019-04-30T14:06:13.000Z</time>
      </trkpt>
      <trkpt lat="41.16321659646928310394287109375" lon="-7.8033548779785633087158203125">
        <ele>69.1999969482421875</ele>
        <time>2019-04-30T14:06:27.000Z</time>
      </trkpt>
      <trkpt lat="41.1633281596004962921142578125" lon="-7.80354623682796955108642578125">
        <ele>70.59999847412109375</ele>
        <time>2019-04-30T14:06:36.000Z</time>
      </trkpt>
      <trkpt lat="41.16332924924790859222412109375" lon="-7.803558893501758575439453125">
        <ele>70.59999847412109375</ele>
        <time>2019-04-30T14:06:39.000Z</time>
      </trkpt>
      <trkpt lat="41.1630924604833126068115234375" lon="-7.80332386493682861328125">
        <ele>68.8000030517578125</ele>
        <time>2019-05-01T08:08:25.000Z</time>
      </trkpt>
      <trkpt lat="41.1630941368639469146728515625" lon="-7.80332512222230434417724609375">
        <ele>68.8000030517578125</ele>
        <time>2019-05-01T08:08:26.000Z</time>
      </trkpt>
      <trkpt lat="41.1630870960652828216552734375" lon="-7.803312800824642181396484375">
        <ele>68.8000030517578125</ele>
        <time>2019-05-01T08:08:34.000Z</time>
      </trkpt>
      <trkpt lat="41.16289171390235424041748046875" lon="-7.8031101264059543609619140625">
        <ele>67.8000030517578125</ele>
        <time>2019-05-01T08:08:42.000Z</time>
      </trkpt>
      <trkpt lat="41.1623826809227466583251953125" lon="-7.80275247059762477874755859375">
        <ele>64</ele>
        <time>2019-05-01T08:08:51.000Z</time>
      </trkpt>
      <trkpt lat="41.1619696207344532012939453125" lon="-7.80256748199462890625">
        <ele>59.200000762939453125</ele>
        <time>2019-05-01T08:08:59.000Z</time>
      </trkpt>
      <trkpt lat="41.161756552755832672119140625" lon="-7.80259321443736553192138671875">
        <ele>57.40000152587890625</ele>
        <time>2019-05-01T08:09:04.000Z</time>
      </trkpt>
      <trkpt lat="41.1617476679384708404541015625" lon="-7.80259120278060436248779296875">
        <ele>57.200000762939453125</ele>
        <time>2019-05-01T08:09:05.000Z</time>
      </trkpt>
      <trkpt lat="41.16162487305700778961181640625" lon="-7.8026427514851093292236328125">
        <ele>56.59999847412109375</ele>
        <time>2019-05-01T08:09:08.000Z</time>
      </trkpt>
      <trkpt lat="41.161291189491748809814453125" lon="-7.80307433567941188812255859375">
        <ele>57.200000762939453125</ele>
        <time>2019-05-01T08:09:19.000Z</time>
      </trkpt>
      <trkpt lat="41.161214411258697509765625" lon="-7.80306025408208370208740234375">
        <ele>56.40000152587890625</ele>
        <time>2019-05-01T08:09:25.000Z</time>
      </trkpt>
      <trkpt lat="41.1612165905535221099853515625" lon="-7.80314340256154537200927734375">
        <ele>57</ele>
        <time>2019-05-01T08:10:41.000Z</time>
      </trkpt>
      <trkpt lat="41.16114140488207340240478515625" lon="-7.80343182384967803955078125">
        <ele>58.59999847412109375</ele>
        <time>2019-05-01T08:10:49.000Z</time>
      </trkpt>
      <trkpt lat="41.16085105575621128082275390625" lon="-7.80406725592911243438720703125">
        <ele>59.59999847412109375</ele>
        <time>2019-05-01T08:11:04.000Z</time>
      </trkpt>
      <trkpt lat="41.16061653010547161102294921875" lon="-7.80474602244794368743896484375">
        <ele>62.59999847412109375</ele>
        <time>2019-05-01T08:11:21.000Z</time>
      </trkpt>
      <trkpt lat="41.16034244187176227569580078125" lon="-7.805363349616527557373046875">
        <ele>65</ele>
        <time>2019-05-01T08:11:38.000Z</time>
      </trkpt>
      <trkpt lat="41.15991580300033092498779296875" lon="-7.8058030642569065093994140625">
        <ele>64.59999847412109375</ele>
        <time>2019-05-01T08:11:55.000Z</time>
      </trkpt>
      <trkpt lat="41.1593990586698055267333984375" lon="-7.80604169704020023345947265625">
        <ele>65</ele>
        <time>2019-05-01T08:12:12.000Z</time>
      </trkpt>
      <trkpt lat="41.158883236348628997802734375" lon="-7.806278653442859649658203125">
        <ele>66.40000152587890625</ele>
        <time>2019-05-01T08:12:30.000Z</time>
      </trkpt>
      <trkpt lat="41.15842969156801700592041015625" lon="-7.80668743886053562164306640625">
        <ele>69.59999847412109375</ele>
        <time>2019-05-01T08:12:48.000Z</time>
      </trkpt>
      <trkpt lat="41.15798612125217914581298828125" lon="-7.80712832696735858917236328125">
        <ele>77.40000152587890625</ele>
        <time>2019-05-01T08:13:05.000Z</time>
      </trkpt>
      <trkpt lat="41.15748119540512561798095703125" lon="-7.80749092809855937957763671875">
        <ele>79.40000152587890625</ele>
        <time>2019-05-01T08:13:21.000Z</time>
      </trkpt>
      <trkpt lat="41.15695481188595294952392578125" lon="-7.8077201731503009796142578125">
        <ele>78.8000030517578125</ele>
        <time>2019-05-01T08:13:34.000Z</time>
      </trkpt>
      <trkpt lat="41.156433038413524627685546875" lon="-7.80794807709753513336181640625">
        <ele>79.40000152587890625</ele>
        <time>2019-05-01T08:13:45.000Z</time>
      </trkpt>
      <trkpt lat="41.15589584223926067352294921875" lon="-7.8081459738314151763916015625">
        <ele>76.8000030517578125</ele>
        <time>2019-05-01T08:13:56.000Z</time>
      </trkpt>
      <trkpt lat="41.15535085089504718780517578125" lon="-7.8084071539342403411865234375">
        <ele>77</ele>
        <time>2019-05-01T08:14:07.000Z</time>
      </trkpt>
      <trkpt lat="41.15525261498987674713134765625" lon="-7.8084812499582767486572265625">
        <ele>77.1999969482421875</ele>
        <time>2019-05-01T08:14:09.000Z</time>
      </trkpt>
      <trkpt lat="41.1548875831067562103271484375" lon="-7.80887494795024394989013671875">
        <ele>81.59999847412109375</ele>
        <time>2019-05-01T08:14:19.000Z</time>
      </trkpt>
      <trkpt lat="41.15472572855651378631591796875" lon="-7.808922640979290008544921875">
        <ele>80.59999847412109375</ele>
        <time>2019-05-01T08:14:23.000Z</time>
      </trkpt>
      <trkpt lat="41.1541533283889293670654296875" lon="-7.8088510595262050628662109375">
        <ele>76</ele>
        <time>2019-05-01T08:14:37.000Z</time>
      </trkpt>
      <trkpt lat="41.1535987816751003265380859375" lon="-7.8090163506567478179931640625">
        <ele>78</ele>
        <time>2019-05-01T08:14:51.000Z</time>
      </trkpt>
      <trkpt lat="41.15301514975726604461669921875" lon="-7.80901492573320865631103515625">
        <ele>75.40000152587890625</ele>
        <time>2019-05-01T08:15:03.000Z</time>
      </trkpt>
      <trkpt lat="41.15242606960237026214599609375" lon="-7.80906404368579387664794921875">
        <ele>74.1999969482421875</ele>
        <time>2019-05-01T08:15:14.000Z</time>
      </trkpt>
      <trkpt lat="41.15189717151224613189697265625" lon="-7.8091678954660892486572265625">
        <ele>71.59999847412109375</ele>
        <time>2019-05-01T08:15:24.000Z</time>
      </trkpt>
      <trkpt lat="41.15149618126451969146728515625" lon="-7.80955036170780658721923828125">
        <ele>74</ele>
        <time>2019-05-01T08:15:33.000Z</time>
      </trkpt>
      <trkpt lat="41.15108747966587543487548828125" lon="-7.81009887345135211944580078125">
        <ele>78</ele>
        <time>2019-05-01T08:15:44.000Z</time>
      </trkpt>
      <trkpt lat="41.15071079693734645843505859375" lon="-7.81061519868671894073486328125">
        <ele>80.1999969482421875</ele>
        <time>2019-05-01T08:15:55.000Z</time>
      </trkpt>
      <trkpt lat="41.150643490254878997802734375" lon="-7.810699604451656341552734375">
        <ele>80.40000152587890625</ele>
        <time>2019-05-01T08:15:57.000Z</time>
      </trkpt>
      <trkpt lat="41.15019078366458415985107421875" lon="-7.811116687953472137451171875">
        <ele>78.8000030517578125</ele>
        <time>2019-05-01T08:16:08.000Z</time>
      </trkpt>
      <trkpt lat="41.14972055889666080474853515625" lon="-7.811524383723735809326171875">
        <ele>76.59999847412109375</ele>
        <time>2019-05-01T08:16:20.000Z</time>
      </trkpt>
      <trkpt lat="41.14963531494140625" lon="-7.8116281516849994659423828125">
        <ele>76.59999847412109375</ele>
        <time>2019-05-01T08:16:22.000Z</time>
      </trkpt>
      <trkpt lat="41.14943574182689189910888671875" lon="-7.81203693710267543792724609375">
        <ele>78</ele>
        <time>2019-05-01T08:16:29.000Z</time>
      </trkpt>
      <trkpt lat="41.1491392739117145538330078125" lon="-7.8126929886639118194580078125">
        <ele>80</ele>
        <time>2019-05-01T08:16:41.000Z</time>
      </trkpt>
      <trkpt lat="41.1488480865955352783203125" lon="-7.81331953592598438262939453125">
        <ele>78</ele>
        <time>2019-05-01T08:16:54.000Z</time>
      </trkpt>
      <trkpt lat="41.14872965030372142791748046875" lon="-7.8136669658124446868896484375">
        <ele>77.1999969482421875</ele>
        <time>2019-05-01T08:17:01.000Z</time>
      </trkpt>
      <trkpt lat="41.148647256195545196533203125" lon="-7.81443667598068714141845703125">
        <ele>77.8000030517578125</ele>
        <time>2019-05-01T08:17:11.000Z</time>
      </trkpt>
      <trkpt lat="41.148543991148471832275390625" lon="-7.8151609562337398529052734375">
        <ele>78.40000152587890625</ele>
        <time>2019-05-01T08:17:20.000Z</time>
      </trkpt>
      <trkpt lat="41.1484851501882076263427734375" lon="-7.8158761002123355865478515625">
        <ele>80.59999847412109375</ele>
        <time>2019-05-01T08:17:29.000Z</time>
      </trkpt>
      <trkpt lat="41.148399822413921356201171875" lon="-7.8166525997221469879150390625">
        <ele>79.1999969482421875</ele>
        <time>2019-05-01T08:17:39.000Z</time>
      </trkpt>
      <trkpt lat="41.14836704917252063751220703125" lon="-7.81725995242595672607421875">
        <ele>78.40000152587890625</ele>
        <time>2019-05-01T08:17:46.000Z</time>
      </trkpt>
      <trkpt lat="41.14853267557919025421142578125" lon="-7.81799781136214733123779296875">
        <ele>80.1999969482421875</ele>
        <time>2019-05-01T08:17:55.000Z</time>
      </trkpt>
      <trkpt lat="41.14861196838319301605224609375" lon="-7.81875100918114185333251953125">
        <ele>76</ele>
        <time>2019-05-01T08:18:07.000Z</time>
      </trkpt>
      <trkpt lat="41.14862001501023769378662109375" lon="-7.818803228437900543212890625">
        <ele>76.40000152587890625</ele>
        <time>2019-05-01T08:18:08.000Z</time>
      </trkpt>
      <trkpt lat="41.14874104969203472137451171875" lon="-7.81951074488461017608642578125">
        <ele>79.1999969482421875</ele>
        <time>2019-05-01T08:18:21.000Z</time>
      </trkpt>
      <trkpt lat="41.148840375244617462158203125" lon="-7.81988717615604400634765625">
        <ele>80</ele>
        <time>2019-05-01T08:18:28.000Z</time>
      </trkpt>
      <trkpt lat="41.1492277868092060089111328125" lon="-7.82045806758105754852294921875">
        <ele>82.8000030517578125</ele>
        <time>2019-05-01T08:18:39.000Z</time>
      </trkpt>
      <trkpt lat="41.149535737931728363037109375" lon="-7.82107816077768802642822265625">
        <ele>85</ele>
        <time>2019-05-01T08:18:49.000Z</time>
      </trkpt>
      <trkpt lat="41.1497199721634387969970703125" lon="-7.82175105996429920196533203125">
        <ele>83.8000030517578125</ele>
        <time>2019-05-01T08:18:59.000Z</time>
      </trkpt>
      <trkpt lat="41.150061450898647308349609375" lon="-7.8223407268524169921875">
        <ele>86.40000152587890625</ele>
        <time>2019-05-01T08:19:11.000Z</time>
      </trkpt>
      <trkpt lat="41.1504681408405303955078125" lon="-7.822870798408985137939453125">
        <ele>86.8000030517578125</ele>
        <time>2019-05-01T08:19:24.000Z</time>
      </trkpt>
      <trkpt lat="41.15086519159376621246337890625" lon="-7.82338335178792476654052734375">
        <ele>85.1999969482421875</ele>
        <time>2019-05-01T08:19:38.000Z</time>
      </trkpt>
      <trkpt lat="41.15122410468757152557373046875" lon="-7.82392130233347415924072265625">
        <ele>87.1999969482421875</ele>
        <time>2019-05-01T08:19:52.000Z</time>
      </trkpt>
      <trkpt lat="41.15157924592494964599609375" lon="-7.82447568140923976898193359375">
        <ele>85.59999847412109375</ele>
        <time>2019-05-01T08:20:06.000Z</time>
      </trkpt>
      <trkpt lat="41.15194176323711872100830078125" lon="-7.82505185343325138092041015625">
        <ele>83.8000030517578125</ele>
        <time>2019-05-01T08:20:18.000Z</time>
      </trkpt>
      <trkpt lat="41.15228139795362949371337890625" lon="-7.82561226747930049896240234375">
        <ele>87.1999969482421875</ele>
        <time>2019-05-01T08:20:29.000Z</time>
      </trkpt>
      <trkpt lat="41.15262388251721858978271484375" lon="-7.82623462378978729248046875">
        <ele>87.59999847412109375</ele>
        <time>2019-05-01T08:20:41.000Z</time>
      </trkpt>
      <trkpt lat="41.15289696492254734039306640625" lon="-7.8268776834011077880859375">
        <ele>86.59999847412109375</ele>
        <time>2019-05-01T08:20:52.000Z</time>
      </trkpt>
      <trkpt lat="41.15310617722570896148681640625" lon="-7.8275909833610057830810546875">
        <ele>89.59999847412109375</ele>
        <time>2019-05-01T08:21:03.000Z</time>
      </trkpt>
      <trkpt lat="41.15320256911218166351318359375" lon="-7.828324399888515472412109375">
        <ele>87</ele>
        <time>2019-05-01T08:21:15.000Z</time>
      </trkpt>
      <trkpt lat="41.15321279503405094146728515625" lon="-7.8283812291920185089111328125">
        <ele>86.1999969482421875</ele>
        <time>2019-05-01T08:21:16.000Z</time>
      </trkpt>
      <trkpt lat="41.15323844365775585174560546875" lon="-7.82914943061769008636474609375">
        <ele>85.40000152587890625</ele>
        <time>2019-05-01T08:21:29.000Z</time>
      </trkpt>
      <trkpt lat="41.153245903551578521728515625" lon="-7.8298862837255001068115234375">
        <ele>85</ele>
        <time>2019-05-01T08:21:40.000Z</time>
      </trkpt>
      <trkpt lat="41.15328378975391387939453125" lon="-7.83061626367270946502685546875">
        <ele>88</ele>
        <time>2019-05-01T08:21:48.000Z</time>
      </trkpt>
      <trkpt lat="41.1533573828637599945068359375" lon="-7.83091633580625057220458984375">
        <ele>90.40000152587890625</ele>
        <time>2019-05-01T08:21:52.000Z</time>
      </trkpt>
      <trkpt lat="41.1535149626433849334716796875" lon="-7.83164187334477901458740234375">
        <ele>90.1999969482421875</ele>
        <time>2019-05-01T08:22:03.000Z</time>
      </trkpt>
      <trkpt lat="41.15354337729513645172119140625" lon="-7.831775061786174774169921875">
        <ele>89.8000030517578125</ele>
        <time>2019-05-01T08:22:05.000Z</time>
      </trkpt>
      <trkpt lat="41.15374487824738025665283203125" lon="-7.83252230845391750335693359375">
        <ele>83.59999847412109375</ele>
        <time>2019-05-01T08:22:15.000Z</time>
      </trkpt>
      <trkpt lat="41.15396783687174320220947265625" lon="-7.83321599476039409637451171875">
        <ele>78.59999847412109375</ele>
        <time>2019-05-01T08:22:23.000Z</time>
      </trkpt>
      <trkpt lat="41.15424242801964282989501953125" lon="-7.83388319425284862518310546875">
        <ele>79.40000152587890625</ele>
        <time>2019-05-01T08:22:30.000Z</time>
      </trkpt>
      <trkpt lat="41.15452456288039684295654296875" lon="-7.83453874289989471435546875">
        <ele>83.1999969482421875</ele>
        <time>2019-05-01T08:22:38.000Z</time>
      </trkpt>
      <trkpt lat="41.15469471551477909088134765625" lon="-7.83498005010187625885009765625">
        <ele>79.59999847412109375</ele>
        <time>2019-05-01T08:22:45.000Z</time>
      </trkpt>
      <trkpt lat="41.15495824255049228668212890625" lon="-7.83561808057129383087158203125">
        <ele>82.59999847412109375</ele>
        <time>2019-05-01T08:22:56.000Z</time>
      </trkpt>
      <trkpt lat="41.15498271770775318145751953125" lon="-7.83573911525309085845947265625">
        <ele>83</ele>
        <time>2019-05-01T08:22:58.000Z</time>
      </trkpt>
      <trkpt lat="41.15514792501926422119140625" lon="-7.8364504873752593994140625">
        <ele>87.59999847412109375</ele>
        <time>2019-05-01T08:23:12.000Z</time>
      </trkpt>
      <trkpt lat="41.15529251284897327423095703125" lon="-7.837181054055690765380859375">
        <ele>89.8000030517578125</ele>
        <time>2019-05-01T08:23:26.000Z</time>
      </trkpt>
      <trkpt lat="41.1554329097270965576171875" lon="-7.83791338093578815460205078125">
        <ele>87.8000030517578125</ele>
        <time>2019-05-01T08:23:40.000Z</time>
      </trkpt>
      <trkpt lat="41.155572719871997833251953125" lon="-7.83867496065795421600341796875">
        <ele>85.8000030517578125</ele>
        <time>2019-05-01T08:23:51.000Z</time>
      </trkpt>
      <trkpt lat="41.15558571182191371917724609375" lon="-7.83881007693707942962646484375">
        <ele>85.1999969482421875</ele>
        <time>2019-05-01T08:23:53.000Z</time>
      </trkpt>
      <trkpt lat="41.15562644787132740020751953125" lon="-7.8395576588809490203857421875">
        <ele>82.59999847412109375</ele>
        <time>2019-05-01T08:24:05.000Z</time>
      </trkpt>
      <trkpt lat="41.155650503933429718017578125" lon="-7.8397336788475513458251953125">
        <ele>83.1999969482421875</ele>
        <time>2019-05-01T08:24:08.000Z</time>
      </trkpt>
      <trkpt lat="41.1557931639254093170166015625" lon="-7.84050305373966693878173828125">
        <ele>84.40000152587890625</ele>
        <time>2019-05-01T08:24:18.000Z</time>
      </trkpt>
      <trkpt lat="41.1559393443167209625244140625" lon="-7.84126480109989643096923828125">
        <ele>86</ele>
        <time>2019-05-01T08:24:28.000Z</time>
      </trkpt>
      <trkpt lat="41.15607328712940216064453125" lon="-7.84198849461972713470458984375">
        <ele>87.8000030517578125</ele>
        <time>2019-05-01T08:24:38.000Z</time>
      </trkpt>
      <trkpt lat="41.15612735040485858917236328125" lon="-7.8427417762577533721923828125">
        <ele>86.8000030517578125</ele>
        <time>2019-05-01T08:24:49.000Z</time>
      </trkpt>
      <trkpt lat="41.15624922327697277069091796875" lon="-7.84350025467574596405029296875">
        <ele>84.8000030517578125</ele>
        <time>2019-05-01T08:24:59.000Z</time>
      </trkpt>
      <trkpt lat="41.15636874921619892120361328125" lon="-7.84423300065100193023681640625">
        <ele>82</ele>
        <time>2019-05-01T08:25:08.000Z</time>
      </trkpt>
      <trkpt lat="41.1564000137150287628173828125" lon="-7.8445534408092498779296875">
        <ele>81.59999847412109375</ele>
        <time>2019-05-01T08:25:12.000Z</time>
      </trkpt>
      <trkpt lat="41.15644074976444244384765625" lon="-7.845279313623905181884765625">
        <ele>77.59999847412109375</ele>
        <time>2019-05-01T08:25:21.000Z</time>
      </trkpt>
      <trkpt lat="41.15659489296376705169677734375" lon="-7.84601164050400257110595703125">
        <ele>70</ele>
        <time>2019-05-01T08:25:30.000Z</time>
      </trkpt>
      <trkpt lat="41.15682874806225299835205078125" lon="-7.84621573984622955322265625">
        <ele>68</ele>
        <time>2019-05-01T08:25:35.000Z</time>
      </trkpt>
      <trkpt lat="41.15714021958410739898681640625" lon="-7.84626946784555912017822265625">
        <ele>68.40000152587890625</ele>
        <time>2019-05-01T08:25:41.000Z</time>
      </trkpt>
      <trkpt lat="41.157704405486583709716796875" lon="-7.84626862965524196624755859375">
        <ele>59.200000762939453125</ele>
        <time>2019-05-01T08:25:51.000Z</time>
      </trkpt>
      <trkpt lat="41.15799232386052608489990234375" lon="-7.8462816216051578521728515625">
        <ele>59.799999237060546875</ele>
        <time>2019-05-01T08:25:55.000Z</time>
      </trkpt>
      <trkpt lat="41.15823422558605670928955078125" lon="-7.8466308116912841796875">
        <ele>64.59999847412109375</ele>
        <time>2019-05-01T08:26:01.000Z</time>
      </trkpt>
      <trkpt lat="41.15829960443079471588134765625" lon="-7.84705434925854206085205078125">
        <ele>76.40000152587890625</ele>
        <time>2019-05-01T08:26:07.000Z</time>
      </trkpt>
      <trkpt lat="41.1582497321069240570068359375" lon="-7.84725266508758068084716796875">
        <ele>80.40000152587890625</ele>
        <time>2019-05-01T08:26:11.000Z</time>
      </trkpt>
      <trkpt lat="41.15776098333299160003662109375" lon="-7.84761073999106884002685546875">
        <ele>78.8000030517578125</ele>
        <time>2019-05-01T08:26:26.000Z</time>
      </trkpt>
      <trkpt lat="41.15723828785121440887451171875" lon="-7.8479249775409698486328125">
        <ele>75.40000152587890625</ele>
        <time>2019-05-01T08:26:42.000Z</time>
      </trkpt>
      <trkpt lat="41.15721096284687519073486328125" lon="-7.847964204847812652587890625">
        <ele>75.40000152587890625</ele>
        <time>2019-05-01T08:26:43.000Z</time>
      </trkpt>
      <trkpt lat="41.15712337195873260498046875" lon="-7.8481772728264331817626953125">
        <ele>77.8000030517578125</ele>
        <time>2019-05-01T08:26:47.000Z</time>
      </trkpt>
      <trkpt lat="41.1569475196301937103271484375" lon="-7.84865344874560832977294921875">
        <ele>76.8000030517578125</ele>
        <time>2019-05-01T08:26:54.000Z</time>
      </trkpt>
      <trkpt lat="41.15695900283753871917724609375" lon="-7.84890825860202312469482421875">
        <ele>78.8000030517578125</ele>
        <time>2019-05-01T08:26:58.000Z</time>
      </trkpt>
      <trkpt lat="41.1569636128842830657958984375" lon="-7.8495760448276996612548828125">
        <ele>81</ele>
        <time>2019-05-01T08:27:12.000Z</time>
      </trkpt>
      <trkpt lat="41.15709478966891765594482421875" lon="-7.85028523765504360198974609375">
        <ele>79.8000030517578125</ele>
        <time>2019-05-01T08:27:24.000Z</time>
      </trkpt>
      <trkpt lat="41.1573119647800922393798828125" lon="-7.85098965279757976531982421875">
        <ele>76</ele>
        <time>2019-05-01T08:27:35.000Z</time>
      </trkpt>
      <trkpt lat="41.15754104219377040863037109375" lon="-7.851638160645961761474609375">
        <ele>75</ele>
        <time>2019-05-01T08:27:46.000Z</time>
      </trkpt>
      <trkpt lat="41.1577052436769008636474609375" lon="-7.8523283265531063079833984375">
        <ele>74.8000030517578125</ele>
        <time>2019-05-01T08:27:57.000Z</time>
      </trkpt>
      <trkpt lat="41.157774813473224639892578125" lon="-7.85267676226794719696044921875">
        <ele>76.59999847412109375</ele>
        <time>2019-05-01T08:28:02.000Z</time>
      </trkpt>
      <trkpt lat="41.157884113490581512451171875" lon="-7.85337950102984905242919921875">
        <ele>79.40000152587890625</ele>
        <time>2019-05-01T08:28:12.000Z</time>
      </trkpt>
      <trkpt lat="41.15800045430660247802734375" lon="-7.85404653288424015045166015625">
        <ele>78</ele>
        <time>2019-05-01T08:28:22.000Z</time>
      </trkpt>
      <trkpt lat="41.1579784937202930450439453125" lon="-7.85410604439675807952880859375">
        <ele>76.8000030517578125</ele>
        <time>2019-05-01T08:28:24.000Z</time>
      </trkpt>
      <trkpt lat="41.1579783260822296142578125" lon="-7.8541208803653717041015625">
        <ele>76.59999847412109375</ele>
        <time>2019-05-01T08:28:26.000Z</time>
      </trkpt>
      <trkpt lat="41.15800405852496623992919921875" lon="-7.85412289202213287353515625">
        <ele>77.40000152587890625</ele>
        <time>2019-05-01T08:29:26.000Z</time>
      </trkpt>
      <trkpt lat="41.15803943015635013580322265625" lon="-7.85414108075201511383056640625">
        <ele>78.40000152587890625</ele>
        <time>2019-05-01T08:29:28.000Z</time>
      </trkpt>
      <trkpt lat="41.15810330025851726531982421875" lon="-7.85439538769423961639404296875">
        <ele>78.40000152587890625</ele>
        <time>2019-05-01T08:29:34.000Z</time>
      </trkpt>
      <trkpt lat="41.1582463793456554412841796875" lon="-7.85510282032191753387451171875">
        <ele>80.40000152587890625</ele>
        <time>2019-05-01T08:29:45.000Z</time>
      </trkpt>
      <trkpt lat="41.158403791487216949462890625" lon="-7.85586766898632049560546875">
        <ele>81.40000152587890625</ele>
        <time>2019-05-01T08:29:55.000Z</time>
      </trkpt>
      <trkpt lat="41.158547960221767425537109375" lon="-7.85657585598528385162353515625">
        <ele>78</ele>
        <time>2019-05-01T08:30:03.000Z</time>
      </trkpt>
      <trkpt lat="41.15864552557468414306640625" lon="-7.8569454140961170196533203125">
        <ele>76.8000030517578125</ele>
        <time>2019-05-01T08:30:07.000Z</time>
      </trkpt>
      <trkpt lat="41.15887259133160114288330078125" lon="-7.85765309818089008331298828125">
        <ele>71.8000030517578125</ele>
        <time>2019-05-01T08:30:15.000Z</time>
      </trkpt>
      <trkpt lat="41.15904123522341251373291015625" lon="-7.85833521746098995208740234375">
        <ele>72.59999847412109375</ele>
        <time>2019-05-01T08:30:23.000Z</time>
      </trkpt>
      <trkpt lat="41.15918221883475780487060546875" lon="-7.85904080606997013092041015625">
        <ele>76.40000152587890625</ele>
        <time>2019-05-01T08:30:32.000Z</time>
      </trkpt>
      <trkpt lat="41.159323789179325103759765625" lon="-7.85978947766125202178955078125">
        <ele>81.1999969482421875</ele>
        <time>2019-05-01T08:30:42.000Z</time>
      </trkpt>
      <trkpt lat="41.15942864678800106048583984375" lon="-7.86052373237907886505126953125">
        <ele>82.40000152587890625</ele>
        <time>2019-05-01T08:30:52.000Z</time>
      </trkpt>
      <trkpt lat="41.1595757491886615753173828125" lon="-7.86121238954365253448486328125">
        <ele>81.40000152587890625</ele>
        <time>2019-05-01T08:31:06.000Z</time>
      </trkpt>
      <trkpt lat="41.1598386056721210479736328125" lon="-7.86186349578201770782470703125">
        <ele>83.40000152587890625</ele>
        <time>2019-05-01T08:31:23.000Z</time>
      </trkpt>
      <trkpt lat="41.15993055514991283416748046875" lon="-7.862599678337574005126953125">
        <ele>82.8000030517578125</ele>
        <time>2019-05-01T08:31:40.000Z</time>
      </trkpt>
      <trkpt lat="41.16013859398663043975830078125" lon="-7.86330015398561954498291015625">
        <ele>78.8000030517578125</ele>
        <time>2019-05-01T08:31:54.000Z</time>
      </trkpt>
      <trkpt lat="41.1601584590971469879150390625" lon="-7.86335011012852191925048828125">
        <ele>77.59999847412109375</ele>
        <time>2019-05-01T08:31:55.000Z</time>
      </trkpt>
      <trkpt lat="41.16023783572018146514892578125" lon="-7.86349318921566009521484375">
        <ele>76.8000030517578125</ele>
        <time>2019-05-01T08:31:58.000Z</time>
      </trkpt>
      <trkpt lat="41.160522066056728363037109375" lon="-7.86385352723300457000732421875">
        <ele>74.40000152587890625</ele>
        <time>2019-05-01T08:32:08.000Z</time>
      </trkpt>
      <trkpt lat="41.1608427576720714569091796875" lon="-7.8639377653598785400390625">
        <ele>72.59999847412109375</ele>
        <time>2019-05-01T08:32:15.000Z</time>
      </trkpt>
      <trkpt lat="41.1613761819899082183837890625" lon="-7.86379284225404262542724609375">
        <ele>74.59999847412109375</ele>
        <time>2019-05-01T08:32:27.000Z</time>
      </trkpt>
      <trkpt lat="41.1619039066135883331298828125" lon="-7.86358497105538845062255859375">
        <ele>76.1999969482421875</ele>
        <time>2019-05-01T08:32:39.000Z</time>
      </trkpt>
      <trkpt lat="41.1624281108379364013671875" lon="-7.8633247129619121551513671875">
        <ele>80</ele>
        <time>2019-05-01T08:32:51.000Z</time>
      </trkpt>
      <trkpt lat="41.162559203803539276123046875" lon="-7.8632640279829502105712890625">
        <ele>81.8000030517578125</ele>
        <time>2019-05-01T08:32:54.000Z</time>
      </trkpt>
      <trkpt lat="41.16300134919583797454833984375" lon="-7.86327115260064601898193359375">
        <ele>83.1999969482421875</ele>
        <time>2019-05-01T08:33:04.000Z</time>
      </trkpt>
      <trkpt lat="41.16300218738615512847900390625" lon="-7.86367683671414852142333984375">
        <ele>82</ele>
        <time>2019-05-01T08:33:13.000Z</time>
      </trkpt>
      <trkpt lat="41.162597425282001495361328125" lon="-7.864200286567211151123046875">
        <ele>80.8000030517578125</ele>
        <time>2019-05-01T08:33:28.000Z</time>
      </trkpt>
      <trkpt lat="41.162402629852294921875" lon="-7.86443539895117282867431640625">
        <ele>82.40000152587890625</ele>
        <time>2019-05-01T08:33:34.000Z</time>
      </trkpt>
      <trkpt lat="41.16224328987300395965576171875" lon="-7.86451603285968303680419921875">
        <ele>81.40000152587890625</ele>
        <time>2019-05-01T08:33:38.000Z</time>
      </trkpt>
      <trkpt lat="41.161788403987884521484375" lon="-7.86477335728704929351806640625">
        <ele>75.40000152587890625</ele>
        <time>2019-05-01T08:33:49.000Z</time>
      </trkpt>
      <trkpt lat="41.16174205206334590911865234375" lon="-7.86501400172710418701171875">
        <ele>79.59999847412109375</ele>
        <time>2019-05-01T08:33:53.000Z</time>
      </trkpt>
      <trkpt lat="41.16168941371142864227294921875" lon="-7.86558841355144977569580078125">
        <ele>83</ele>
        <time>2019-05-01T08:34:02.000Z</time>
      </trkpt>
      <trkpt lat="41.161600314080715179443359375" lon="-7.8661876358091831207275390625">
        <ele>86.1999969482421875</ele>
        <time>2019-05-01T08:34:17.000Z</time>
      </trkpt>
      <trkpt lat="41.16107669658958911895751953125" lon="-7.86624019034206867218017578125">
        <ele>77.1999969482421875</ele>
        <time>2019-05-01T08:34:31.000Z</time>
      </trkpt>
      <trkpt lat="41.16092733107507228851318359375" lon="-7.8665282763540744781494140625">
        <ele>78</ele>
        <time>2019-05-01T08:34:38.000Z</time>
      </trkpt>
      <trkpt lat="41.16095222532749176025390625" lon="-7.8671941347420215606689453125">
        <ele>80.8000030517578125</ele>
        <time>2019-05-01T08:34:50.000Z</time>
      </trkpt>
      <trkpt lat="41.1609825678169727325439453125" lon="-7.86742472089827060699462890625">
        <ele>81.59999847412109375</ele>
        <time>2019-05-01T08:34:54.000Z</time>
      </trkpt>
      <trkpt lat="41.16108876653015613555908203125" lon="-7.86761834286153316497802734375">
        <ele>83.40000152587890625</ele>
        <time>2019-05-01T08:34:58.000Z</time>
      </trkpt>
      <trkpt lat="41.1612202785909175872802734375" lon="-7.86777005530893802642822265625">
        <ele>85.1999969482421875</ele>
        <time>2019-05-01T08:35:02.000Z</time>
      </trkpt>
      <trkpt lat="41.16177021525800228118896484375" lon="-7.867939285933971405029296875">
        <ele>91.40000152587890625</ele>
        <time>2019-05-01T08:35:17.000Z</time>
      </trkpt>
      <trkpt lat="41.16230866871774196624755859375" lon="-7.86809384822845458984375">
        <ele>99</ele>
        <time>2019-05-01T08:35:32.000Z</time>
      </trkpt>
      <trkpt lat="41.162572614848613739013671875" lon="-7.8687035478651523590087890625">
        <ele>104.8000030517578125</ele>
        <time>2019-05-01T08:35:54.000Z</time>
      </trkpt>
      <trkpt lat="41.16258032619953155517578125" lon="-7.86897017620503902435302734375">
        <ele>106.8000030517578125</ele>
        <time>2019-05-01T08:36:07.000Z</time>
      </trkpt>
      <trkpt lat="41.16209886968135833740234375" lon="-7.86929338239133358001708984375">
        <ele>99.40000152587890625</ele>
        <time>2019-05-01T08:36:29.000Z</time>
      </trkpt>
      <trkpt lat="41.16175797767937183380126953125" lon="-7.8698525391519069671630859375">
        <ele>101</ele>
        <time>2019-05-01T08:36:52.000Z</time>
      </trkpt>
      <trkpt lat="41.16190080530941486358642578125" lon="-7.87053801119327545166015625">
        <ele>113.1999969482421875</ele>
        <time>2019-05-01T08:37:24.000Z</time>
      </trkpt>
      <trkpt lat="41.16180776618421077728271484375" lon="-7.87124971859157085418701171875">
        <ele>118.59999847412109375</ele>
        <time>2019-05-01T08:37:55.000Z</time>
      </trkpt>
      <trkpt lat="41.1617218516767024993896484375" lon="-7.87182404659688472747802734375">
        <ele>123.40000152587890625</ele>
        <time>2019-05-01T08:38:22.000Z</time>
      </trkpt>
      <trkpt lat="41.16177625022828578948974609375" lon="-7.87190568633377552032470703125">
        <ele>126.40000152587890625</ele>
        <time>2019-05-01T08:38:27.000Z</time>
      </trkpt>
      <trkpt lat="41.1618294753134250640869140625" lon="-7.87191021256148815155029296875">
        <ele>128.8000030517578125</ele>
        <time>2019-05-01T08:38:30.000Z</time>
      </trkpt>
      <trkpt lat="41.16191907785832881927490234375" lon="-7.8718031756579875946044921875">
        <ele>131.600006103515625</ele>
        <time>2019-05-01T08:38:37.000Z</time>
      </trkpt>
      <trkpt lat="41.16195109672844409942626953125" lon="-7.8715939633548259735107421875">
        <ele>129.8000030517578125</ele>
        <time>2019-05-01T08:38:46.000Z</time>
      </trkpt>
      <trkpt lat="41.16193852387368679046630859375" lon="-7.8715349547564983367919921875">
        <ele>128.1999969482421875</ele>
        <time>2019-05-01T08:38:50.000Z</time>
      </trkpt>
      <trkpt lat="41.162001974880695343017578125" lon="-7.87148441188037395477294921875">
        <ele>130</ele>
        <time>2019-05-01T08:41:20.000Z</time>
      </trkpt>
      <trkpt lat="41.16230196319520473480224609375" lon="-7.87090069614350795745849609375">
        <ele>132</ele>
        <time>2019-05-01T08:41:51.000Z</time>
      </trkpt>
      <trkpt lat="41.16261494345963001251220703125" lon="-7.87032335065305233001708984375">
        <ele>129.1999969482421875</ele>
        <time>2019-05-01T08:42:21.000Z</time>
      </trkpt>
      <trkpt lat="41.16287578828632831573486328125" lon="-7.86972270347177982330322265625">
        <ele>120</ele>
        <time>2019-05-01T08:42:50.000Z</time>
      </trkpt>
      <trkpt lat="41.16308617405593395233154296875" lon="-7.8701931796967983245849609375">
        <ele>138.1999969482421875</ele>
        <time>2019-05-01T08:43:19.000Z</time>
      </trkpt>
      <trkpt lat="41.16275810636579990386962890625" lon="-7.87077044136822223663330078125">
        <ele>144</ele>
        <time>2019-05-01T08:43:44.000Z</time>
      </trkpt>
      <trkpt lat="41.16246758960187435150146484375" lon="-7.871394641697406768798828125">
        <ele>146.600006103515625</ele>
        <time>2019-05-01T08:44:09.000Z</time>
      </trkpt>
      <trkpt lat="41.16237647831439971923828125" lon="-7.8720727376639842987060546875">
        <ele>150.1999969482421875</ele>
        <time>2019-05-01T08:44:33.000Z</time>
      </trkpt>
      <trkpt lat="41.16257362067699432373046875" lon="-7.8727543540298938751220703125">
        <ele>162.1999969482421875</ele>
        <time>2019-05-01T08:44:59.000Z</time>
      </trkpt>
      <trkpt lat="41.1624185554683208465576171875" lon="-7.87345625460147857666015625">
        <ele>164</ele>
        <time>2019-05-01T08:45:28.000Z</time>
      </trkpt>
      <trkpt lat="41.16221697069704532623291015625" lon="-7.87412672303617000579833984375">
        <ele>167</ele>
        <time>2019-05-01T08:45:58.000Z</time>
      </trkpt>
      <trkpt lat="41.162302382290363311767578125" lon="-7.874832563102245330810546875">
        <ele>176.1999969482421875</ele>
        <time>2019-05-01T08:46:24.000Z</time>
      </trkpt>
      <trkpt lat="41.1621754802763462066650390625" lon="-7.87552817724645137786865234375">
        <ele>180.8000030517578125</ele>
        <time>2019-05-01T08:46:49.000Z</time>
      </trkpt>
      <trkpt lat="41.16178362630307674407958984375" lon="-7.87605238147079944610595703125">
        <ele>179</ele>
        <time>2019-05-01T08:47:10.000Z</time>
      </trkpt>
      <trkpt lat="41.16127937100827693939208984375" lon="-7.87629914470016956329345703125">
        <ele>171.1999969482421875</ele>
        <time>2019-05-01T08:47:27.000Z</time>
      </trkpt>
      <trkpt lat="41.16080696694552898406982421875" lon="-7.87660608999431133270263671875">
        <ele>167</ele>
        <time>2019-05-01T08:47:45.000Z</time>
      </trkpt>
      <trkpt lat="41.16070018149912357330322265625" lon="-7.87695360369980335235595703125">
        <ele>172</ele>
        <time>2019-05-01T08:47:54.000Z</time>
      </trkpt>
      <trkpt lat="41.16066732443869113922119140625" lon="-7.87701026536524295806884765625">
        <ele>172</ele>
        <time>2019-05-01T08:48:00.000Z</time>
      </trkpt>
      <trkpt lat="41.16067193448543548583984375" lon="-7.87703172303736209869384765625">
        <ele>172.399993896484375</ele>
        <time>2019-05-01T08:49:12.000Z</time>
      </trkpt>
      <trkpt lat="41.160694397985935211181640625" lon="-7.87715904414653778076171875">
        <ele>175.399993896484375</ele>
        <time>2019-05-01T08:49:16.000Z</time>
      </trkpt>
      <trkpt lat="41.160802356898784637451171875" lon="-7.87786052562296390533447265625">
        <ele>197.399993896484375</ele>
        <time>2019-05-01T08:49:34.000Z</time>
      </trkpt>
      <trkpt lat="41.160752736032009124755859375" lon="-7.878055572509765625">
        <ele>200.399993896484375</ele>
        <time>2019-05-01T08:49:39.000Z</time>
      </trkpt>
      <trkpt lat="41.16027354262769222259521484375" lon="-7.87838607095181941986083984375">
        <ele>194.600006103515625</ele>
        <time>2019-05-01T08:49:57.000Z</time>
      </trkpt>
      <trkpt lat="41.15973760373890399932861328125" lon="-7.8784954547882080078125">
        <ele>185.600006103515625</ele>
        <time>2019-05-01T08:50:17.000Z</time>
      </trkpt>
      <trkpt lat="41.15926352329552173614501953125" lon="-7.87875252775847911834716796875">
        <ele>178.8000030517578125</ele>
        <time>2019-05-01T08:50:35.000Z</time>
      </trkpt>
      <trkpt lat="41.15901072509586811065673828125" lon="-7.879396341741085052490234375">
        <ele>192</ele>
        <time>2019-05-01T08:50:56.000Z</time>
      </trkpt>
      <trkpt lat="41.1587305180728435516357421875" lon="-7.8800378926098346710205078125">
        <ele>197.600006103515625</ele>
        <time>2019-05-01T08:51:20.000Z</time>
      </trkpt>
      <trkpt lat="41.158879883587360382080078125" lon="-7.8807042539119720458984375">
        <ele>204.600006103515625</ele>
        <time>2019-05-01T08:51:50.000Z</time>
      </trkpt>
      <trkpt lat="41.158899329602718353271484375" lon="-7.88141747005283832550048828125">
        <ele>206.8000030517578125</ele>
        <time>2019-05-01T08:52:18.000Z</time>
      </trkpt>
      <trkpt lat="41.15893880836665630340576171875" lon="-7.8821377269923686981201171875">
        <ele>213.399993896484375</ele>
        <time>2019-05-01T08:52:46.000Z</time>
      </trkpt>
      <trkpt lat="41.15885532461106777191162109375" lon="-7.8826045989990234375">
        <ele>217.399993896484375</ele>
        <time>2019-05-01T08:53:06.000Z</time>
      </trkpt>
      <trkpt lat="41.158765219151973724365234375" lon="-7.882684729993343353271484375">
        <ele>218</ele>
        <time>2019-05-01T08:53:14.000Z</time>
      </trkpt>
      <trkpt lat="41.15825258195400238037109375" lon="-7.88291699253022670745849609375">
        <ele>214.399993896484375</ele>
        <time>2019-05-01T08:53:49.000Z</time>
      </trkpt>
      <trkpt lat="41.1577572114765644073486328125" lon="-7.88324422203004360198974609375">
        <ele>220</ele>
        <time>2019-05-01T08:54:23.000Z</time>
      </trkpt>
      <trkpt lat="41.15744364447891712188720703125" lon="-7.8837829269468784332275390625">
        <ele>231.8000030517578125</ele>
        <time>2019-05-01T08:54:57.000Z</time>
      </trkpt>
      <trkpt lat="41.157100908458232879638671875" lon="-7.884331606328487396240234375">
        <ele>239.8000030517578125</ele>
        <time>2019-05-01T08:55:34.000Z</time>
      </trkpt>
      <trkpt lat="41.15696512162685394287109375" lon="-7.8845131583511829376220703125">
        <ele>240.8000030517578125</ele>
        <time>2019-05-01T08:55:47.000Z</time>
      </trkpt>
      <trkpt lat="41.156828664243221282958984375" lon="-7.884580381214618682861328125">
        <ele>239.8000030517578125</ele>
        <time>2019-05-01T08:55:57.000Z</time>
      </trkpt>
      <trkpt lat="41.1567792110145092010498046875" lon="-7.88464131765067577362060546875">
        <ele>240</ele>
        <time>2019-05-01T08:56:03.000Z</time>
      </trkpt>
      <trkpt lat="41.15675532259047031402587890625" lon="-7.88471524603664875030517578125">
        <ele>241</ele>
        <time>2019-05-01T08:56:52.000Z</time>
      </trkpt>
      <trkpt lat="41.15657796151936054229736328125" lon="-7.8853761591017246246337890625">
        <ele>247.8000030517578125</ele>
        <time>2019-05-01T08:57:21.000Z</time>
      </trkpt>
      <trkpt lat="41.1564462818205356597900390625" lon="-7.8860829211771488189697265625">
        <ele>251.1999969482421875</ele>
        <time>2019-05-01T08:57:49.000Z</time>
      </trkpt>
      <trkpt lat="41.15656270645558834075927734375" lon="-7.88677333854138851165771484375">
        <ele>253.399993896484375</ele>
        <time>2019-05-01T08:58:14.000Z</time>
      </trkpt>
      <trkpt lat="41.1567761935293674468994140625" lon="-7.8874676115810871124267578125">
        <ele>258</ele>
        <time>2019-05-01T08:58:34.000Z</time>
      </trkpt>
      <trkpt lat="41.15696688182651996612548828125" lon="-7.88815819658339023590087890625">
        <ele>263.399993896484375</ele>
        <time>2019-05-01T08:58:54.000Z</time>
      </trkpt>
      <trkpt lat="41.1571550555527210235595703125" lon="-7.88885137997567653656005859375">
        <ele>267.20001220703125</ele>
        <time>2019-05-01T08:59:15.000Z</time>
      </trkpt>
      <trkpt lat="41.1570668779313564300537109375" lon="-7.88955914787948131561279296875">
        <ele>265.79998779296875</ele>
        <time>2019-05-01T08:59:38.000Z</time>
      </trkpt>
      <trkpt lat="41.15675096400082111358642578125" lon="-7.89016515947878360748291015625">
        <ele>263.399993896484375</ele>
        <time>2019-05-01T08:59:58.000Z</time>
      </trkpt>
      <trkpt lat="41.1564342118799686431884765625" lon="-7.8907456062734127044677734375">
        <ele>264.399993896484375</ele>
        <time>2019-05-01T09:00:18.000Z</time>
      </trkpt>
      <trkpt lat="41.1562146060168743133544921875" lon="-7.89119345135986804962158203125">
        <ele>267.600006103515625</ele>
        <time>2019-05-01T09:00:35.000Z</time>
      </trkpt>
      <trkpt lat="41.15620027296245098114013671875" lon="-7.8917775861918926239013671875">
        <ele>273.600006103515625</ele>
        <time>2019-05-01T09:00:59.000Z</time>
      </trkpt>
      <trkpt lat="41.15600614808499813079833984375" lon="-7.892439924180507659912109375">
        <ele>281</ele>
        <time>2019-05-01T09:01:28.000Z</time>
      </trkpt>
      <trkpt lat="41.155901290476322174072265625" lon="-7.8931431658565998077392578125">
        <ele>291.600006103515625</ele>
        <time>2019-05-01T09:02:03.000Z</time>
      </trkpt>
      <trkpt lat="41.15584873594343662261962890625" lon="-7.89345019496977329254150390625">
        <ele>294.600006103515625</ele>
        <time>2019-05-01T09:02:19.000Z</time>
      </trkpt>
      <trkpt lat="41.15585795603692531585693359375" lon="-7.8944383375346660614013671875">
        <ele>300.399993896484375</ele>
        <time>2019-05-01T09:03:42.000Z</time>
      </trkpt>
      <trkpt lat="41.155879497528076171875" lon="-7.89441931061446666717529296875">
        <ele>300.20001220703125</ele>
        <time>2019-05-01T09:03:46.000Z</time>
      </trkpt>
      <trkpt lat="41.15579567849636077880859375" lon="-7.89458493702113628387451171875">
        <ele>301.20001220703125</ele>
        <time>2019-05-01T09:08:47.000Z</time>
      </trkpt>
      <trkpt lat="41.15581084974110126495361328125" lon="-7.89464310742914676666259765625">
        <ele>301.399993896484375</ele>
        <time>2019-05-01T09:08:50.000Z</time>
      </trkpt>
      <trkpt lat="41.15584689192473888397216796875" lon="-7.89473664946854114532470703125">
        <ele>301.79998779296875</ele>
        <time>2019-05-01T09:08:54.000Z</time>
      </trkpt>
      <trkpt lat="41.15610471926629543304443359375" lon="-7.8948182053864002227783203125">
        <ele>298.399993896484375</ele>
        <time>2019-05-01T09:09:02.000Z</time>
      </trkpt>
      <trkpt lat="41.1563232354819774627685546875" lon="-7.8946686722338199615478515625">
        <ele>296.20001220703125</ele>
        <time>2019-05-01T09:09:07.000Z</time>
      </trkpt>
      <trkpt lat="41.1564727686345577239990234375" lon="-7.89451695978641510009765625">
        <ele>295.20001220703125</ele>
        <time>2019-05-01T09:09:11.000Z</time>
      </trkpt>
      <trkpt lat="41.15693067200481891632080078125" lon="-7.8941127844154834747314453125">
        <ele>293.20001220703125</ele>
        <time>2019-05-01T09:09:26.000Z</time>
      </trkpt>
      <trkpt lat="41.15731473080813884735107421875" lon="-7.8935914300382137298583984375">
        <ele>295.79998779296875</ele>
        <time>2019-05-01T09:09:41.000Z</time>
      </trkpt>
      <trkpt lat="41.15754674188792705535888671875" lon="-7.89330669678747653961181640625">
        <ele>297</ele>
        <time>2019-05-01T09:09:50.000Z</time>
      </trkpt>
      <trkpt lat="41.1576123721897602081298828125" lon="-7.89324684999883174896240234375">
        <ele>296.79998779296875</ele>
        <time>2019-05-01T09:09:54.000Z</time>
      </trkpt>
      <trkpt lat="41.1576764099299907684326171875" lon="-7.89305272512137889862060546875">
        <ele>298</ele>
        <time>2019-05-01T09:10:01.000Z</time>
      </trkpt>
      <trkpt lat="41.15764564834535121917724609375" lon="-7.89304451085627079010009765625">
        <ele>298.399993896484375</ele>
        <time>2019-05-01T09:10:04.000Z</time>
      </trkpt>
      <trkpt lat="41.1575920879840850830078125" lon="-7.89306697435677051544189453125">
        <ele>298.600006103515625</ele>
        <time>2019-05-01T09:11:45.000Z</time>
      </trkpt>
      <trkpt lat="41.15762762725353240966796875" lon="-7.893021963536739349365234375">
        <ele>298.600006103515625</ele>
        <time>2019-05-01T09:11:51.000Z</time>
      </trkpt>
      <trkpt lat="41.15765511989593505859375" lon="-7.89300980977714061737060546875">
        <ele>298.600006103515625</ele>
        <time>2019-05-01T09:11:55.000Z</time>
      </trkpt>
      <trkpt lat="41.15805569104850292205810546875" lon="-7.89252466522157192230224609375">
        <ele>298.399993896484375</ele>
        <time>2019-05-01T09:12:12.000Z</time>
      </trkpt>
      <trkpt lat="41.15829683840274810791015625" lon="-7.89193709380924701690673828125">
        <ele>300.79998779296875</ele>
        <time>2019-05-01T09:12:27.000Z</time>
      </trkpt>
      <trkpt lat="41.158470176160335540771484375" lon="-7.89181790314614772796630859375">
        <ele>301.600006103515625</ele>
        <time>2019-05-01T09:12:35.000Z</time>
      </trkpt>
      <trkpt lat="41.1587454378604888916015625" lon="-7.89168681018054485321044921875">
        <ele>302.79998779296875</ele>
        <time>2019-05-01T09:12:50.000Z</time>
      </trkpt>
      <trkpt lat="41.15874418057501316070556640625" lon="-7.89165546186268329620361328125">
        <ele>302.79998779296875</ele>
        <time>2019-05-01T09:14:11.000Z</time>
      </trkpt>
      <trkpt lat="41.15867662243545055389404296875" lon="-7.89167373441159725189208984375">
        <ele>302.600006103515625</ele>
        <time>2019-05-01T09:14:20.000Z</time>
      </trkpt>
      <trkpt lat="41.1587023548781871795654296875" lon="-7.8916642628610134124755859375">
        <ele>302.79998779296875</ele>
        <time>2019-05-01T09:15:13.000Z</time>
      </trkpt>
      <trkpt lat="41.15880570374429225921630859375" lon="-7.8915717266499996185302734375">
        <ele>303.399993896484375</ele>
        <time>2019-05-01T09:15:18.000Z</time>
      </trkpt>
      <trkpt lat="41.15924575366079807281494140625" lon="-7.891108877956867218017578125">
        <ele>306</ele>
        <time>2019-05-01T09:15:43.000Z</time>
      </trkpt>
      <trkpt lat="41.15966116078197956085205078125" lon="-7.89062716998159885406494140625">
        <ele>307.600006103515625</ele>
        <time>2019-05-01T09:16:05.000Z</time>
      </trkpt>
      <trkpt lat="41.159879006445407867431640625" lon="-7.889985032379627227783203125">
        <ele>307.600006103515625</ele>
        <time>2019-05-01T09:16:32.000Z</time>
      </trkpt>
      <trkpt lat="41.16008494980633258819580078125" lon="-7.889274917542934417724609375">
        <ele>305.79998779296875</ele>
        <time>2019-05-01T09:16:49.000Z</time>
      </trkpt>
      <trkpt lat="41.16025560535490512847900390625" lon="-7.88859388791024684906005859375">
        <ele>310</ele>
        <time>2019-05-01T09:17:02.000Z</time>
      </trkpt>
      <trkpt lat="41.1605299450457096099853515625" lon="-7.88797614164650440216064453125">
        <ele>312.600006103515625</ele>
        <time>2019-05-01T09:17:19.000Z</time>
      </trkpt>
      <trkpt lat="41.16100184619426727294921875" lon="-7.88764639757573604583740234375">
        <ele>316.79998779296875</ele>
        <time>2019-05-01T09:17:40.000Z</time>
      </trkpt>
      <trkpt lat="41.1610204540193080902099609375" lon="-7.8876168094575405120849609375">
        <ele>317.20001220703125</ele>
        <time>2019-05-01T09:17:44.000Z</time>
      </trkpt>
      <trkpt lat="41.161047108471393585205078125" lon="-7.887581773102283477783203125">
        <ele>317.600006103515625</ele>
        <time>2019-05-01T09:17:49.000Z</time>
      </trkpt>
      <trkpt lat="41.16107971407473087310791015625" lon="-7.8872299008071422576904296875">
        <ele>316.20001220703125</ele>
        <time>2019-05-01T09:18:04.000Z</time>
      </trkpt>
      <trkpt lat="41.16105892695486545562744140625" lon="-7.8871856443583965301513671875">
        <ele>315.79998779296875</ele>
        <time>2019-05-01T09:18:10.000Z</time>
      </trkpt>
      <trkpt lat="41.16101668216288089752197265625" lon="-7.8871149010956287384033203125">
        <ele>315</ele>
        <time>2019-05-01T09:18:16.000Z</time>
      </trkpt>
      <trkpt lat="41.1610279977321624755859375" lon="-7.88718841038644313812255859375">
        <ele>315.79998779296875</ele>
        <time>2019-05-01T09:19:43.000Z</time>
      </trkpt>
      <trkpt lat="41.1610264889895915985107421875" lon="-7.88726317696273326873779296875">
        <ele>316</ele>
        <time>2019-05-01T09:19:47.000Z</time>
      </trkpt>
      <trkpt lat="41.1610065400600433349609375" lon="-7.88729335181415081024169921875">
        <ele>316</ele>
        <time>2019-05-01T09:19:50.000Z</time>
      </trkpt>
      <trkpt lat="41.16100855171680450439453125" lon="-7.8872936032712459564208984375">
        <ele>316</ele>
        <time>2019-05-01T09:19:51.000Z</time>
      </trkpt>
      <trkpt lat="41.16099120117723941802978515625" lon="-7.88732319138944149017333984375">
        <ele>316.20001220703125</ele>
        <time>2019-05-01T09:21:56.000Z</time>
      </trkpt>
      <trkpt lat="41.1610154248774051666259765625" lon="-7.8874689526855945587158203125">
        <ele>317</ele>
        <time>2019-05-01T09:22:03.000Z</time>
      </trkpt>
      <trkpt lat="41.161035038530826568603515625" lon="-7.887574397027492523193359375">
        <ele>317.399993896484375</ele>
        <time>2019-05-01T09:22:09.000Z</time>
      </trkpt>
      <trkpt lat="41.16097209043800830841064453125" lon="-7.887629382312297821044921875">
        <ele>316.79998779296875</ele>
        <time>2019-05-01T09:22:15.000Z</time>
      </trkpt>
      <trkpt lat="41.160487867891788482666015625" lon="-7.887970693409442901611328125">
        <ele>312.600006103515625</ele>
        <time>2019-05-01T09:22:37.000Z</time>
      </trkpt>
      <trkpt lat="41.16024068556725978851318359375" lon="-7.8884600289165973663330078125">
        <ele>310</ele>
        <time>2019-05-01T09:22:52.000Z</time>
      </trkpt>
      <trkpt lat="41.1602801643311977386474609375" lon="-7.8885005973279476165771484375">
        <ele>310</ele>
        <time>2019-05-01T09:23:03.000Z</time>
      </trkpt>
      <trkpt lat="41.16069397889077663421630859375" lon="-7.88890904746949672698974609375">
        <ele>303.20001220703125</ele>
        <time>2019-05-01T09:23:21.000Z</time>
      </trkpt>
      <trkpt lat="41.160737313330173492431640625" lon="-7.88887769915163516998291015625">
        <ele>303.600006103515625</ele>
        <time>2019-05-01T09:23:25.000Z</time>
      </trkpt>
      <trkpt lat="41.16075214929878711700439453125" lon="-7.88889898918569087982177734375">
        <ele>303.20001220703125</ele>
        <time>2019-05-01T09:23:32.000Z</time>
      </trkpt>
      <trkpt lat="41.16067235358059406280517578125" lon="-7.889150865375995635986328125">
        <ele>300</ele>
        <time>2019-05-01T09:23:41.000Z</time>
      </trkpt>
      <trkpt lat="41.1606757901608943939208984375" lon="-7.88955328054726123809814453125">
        <ele>294.79998779296875</ele>
        <time>2019-05-01T09:23:50.000Z</time>
      </trkpt>
      <trkpt lat="41.1606627143919467926025390625" lon="-7.8894420526921749114990234375">
        <ele>296.20001220703125</ele>
        <time>2019-05-01T09:23:57.000Z</time>
      </trkpt>
      <trkpt lat="41.16066128946840763092041015625" lon="-7.88914491422474384307861328125">
        <ele>300</ele>
        <time>2019-05-01T09:24:08.000Z</time>
      </trkpt>
      <trkpt lat="41.16066011600196361541748046875" lon="-7.8891483508050441741943359375">
        <ele>300</ele>
        <time>2019-05-01T09:24:09.000Z</time>
      </trkpt>
      <trkpt lat="41.16068140603601932525634765625" lon="-7.88916863501071929931640625">
        <ele>299.79998779296875</ele>
        <time>2019-05-01T09:24:35.000Z</time>
      </trkpt>
      <trkpt lat="41.1606858484447002410888671875" lon="-7.88945470936596393585205078125">
        <ele>296</ele>
        <time>2019-05-01T09:24:43.000Z</time>
      </trkpt>
      <trkpt lat="41.1606845073401927947998046875" lon="-7.8896140493452548980712890625">
        <ele>294</ele>
        <time>2019-05-01T09:24:46.000Z</time>
      </trkpt>
      <trkpt lat="41.16066045127809047698974609375" lon="-7.89035442285239696502685546875">
        <ele>287</ele>
        <time>2019-05-01T09:24:57.000Z</time>
      </trkpt>
      <trkpt lat="41.16065508686006069183349609375" lon="-7.89050529710948467254638671875">
        <ele>286.399993896484375</ele>
        <time>2019-05-01T09:24:59.000Z</time>
      </trkpt>
      <trkpt lat="41.16063077934086322784423828125" lon="-7.89115103892982006072998046875">
        <ele>282.79998779296875</ele>
        <time>2019-05-01T09:25:08.000Z</time>
      </trkpt>
      <trkpt lat="41.1606382392346858978271484375" lon="-7.89158069528639316558837890625">
        <ele>279.600006103515625</ele>
        <time>2019-05-01T09:25:18.000Z</time>
      </trkpt>
      <trkpt lat="41.16046766750514507293701171875" lon="-7.89171447046101093292236328125">
        <ele>281.600006103515625</ele>
        <time>2019-05-01T09:25:25.000Z</time>
      </trkpt>
      <trkpt lat="41.16080763749778270721435546875" lon="-7.8915137238800525665283203125">
        <ele>276.600006103515625</ele>
        <time>2019-05-01T09:25:38.000Z</time>
      </trkpt>
      <trkpt lat="41.16083160974085330963134765625" lon="-7.8914352692663669586181640625">
        <ele>276.600006103515625</ele>
        <time>2019-05-01T09:25:39.000Z</time>
      </trkpt>
      <trkpt lat="41.1610057018697261810302734375" lon="-7.890874855220317840576171875">
        <ele>277.20001220703125</ele>
        <time>2019-05-01T09:25:46.000Z</time>
      </trkpt>
      <trkpt lat="41.1614030040800571441650390625" lon="-7.89065952412784099578857421875">
        <ele>272.20001220703125</ele>
        <time>2019-05-01T09:25:53.000Z</time>
      </trkpt>
      <trkpt lat="41.16155697964131832122802734375" lon="-7.89067511446774005889892578125">
        <ele>269.79998779296875</ele>
        <time>2019-05-01T09:25:56.000Z</time>
      </trkpt>
      <trkpt lat="41.1617972888052463531494140625" lon="-7.89078793488442897796630859375">
        <ele>268</ele>
        <time>2019-05-01T09:26:03.000Z</time>
      </trkpt>
      <trkpt lat="41.16208571009337902069091796875" lon="-7.89057075977325439453125">
        <ele>268.399993896484375</ele>
        <time>2019-05-01T09:26:13.000Z</time>
      </trkpt>
      <trkpt lat="41.16210381500422954559326171875" lon="-7.89061359129846096038818359375">
        <ele>268.20001220703125</ele>
        <time>2019-05-01T09:26:16.000Z</time>
      </trkpt>
      <trkpt lat="41.1621476523578166961669921875" lon="-7.89066656492650508880615234375">
        <ele>268</ele>
        <time>2019-05-01T09:26:19.000Z</time>
      </trkpt>
      <trkpt lat="41.16223390214145183563232421875" lon="-7.8907456062734127044677734375">
        <ele>267.600006103515625</ele>
        <time>2019-05-01T09:27:40.000Z</time>
      </trkpt>
      <trkpt lat="41.16225871257483959197998046875" lon="-7.89075340144336223602294921875">
        <ele>267.600006103515625</ele>
        <time>2019-05-01T09:27:41.000Z</time>
      </trkpt>
      <trkpt lat="41.16226357407867908477783203125" lon="-7.891009636223316192626953125">
        <ele>267.600006103515625</ele>
        <time>2019-05-01T09:27:50.000Z</time>
      </trkpt>
      <trkpt lat="41.16210691630840301513671875" lon="-7.8914698027074337005615234375">
        <ele>268.79998779296875</ele>
        <time>2019-05-01T09:28:09.000Z</time>
      </trkpt>
      <trkpt lat="41.162102222442626953125" lon="-7.8914654441177845001220703125">
        <ele>268.600006103515625</ele>
        <time>2019-05-01T09:28:10.000Z</time>
      </trkpt>
      <trkpt lat="41.16212996654212474822998046875" lon="-7.8914835490286350250244140625">
        <ele>269.20001220703125</ele>
        <time>2019-05-01T09:28:14.000Z</time>
      </trkpt>
      <trkpt lat="41.16255191154778003692626953125" lon="-7.891700975596904754638671875">
        <ele>277.20001220703125</ele>
        <time>2019-05-01T09:28:55.000Z</time>
      </trkpt>
      <trkpt lat="41.16274788044393062591552734375" lon="-7.8918952681124210357666015625">
        <ele>279.79998779296875</ele>
        <time>2019-05-01T09:29:22.000Z</time>
      </trkpt>
      <trkpt lat="41.16290411911904811859130859375" lon="-7.89206667803227901458740234375">
        <ele>282</ele>
        <time>2019-05-01T09:29:44.000Z</time>
      </trkpt>
      <trkpt lat="41.16301476024091243743896484375" lon="-7.89220129139721393585205078125">
        <ele>284.399993896484375</ele>
        <time>2019-05-01T09:30:01.000Z</time>
      </trkpt>
      <trkpt lat="41.16306605748832225799560546875" lon="-7.89236691780388355255126953125">
        <ele>285.79998779296875</ele>
        <time>2019-05-01T09:30:17.000Z</time>
      </trkpt>
      <trkpt lat="41.16305918432772159576416015625" lon="-7.89245157502591609954833984375">
        <ele>285.79998779296875</ele>
        <time>2019-05-01T09:31:22.000Z</time>
      </trkpt>
      <trkpt lat="41.16310042329132556915283203125" lon="-7.893168143928050994873046875">
        <ele>285.600006103515625</ele>
        <time>2019-05-01T09:31:45.000Z</time>
      </trkpt>
      <trkpt lat="41.1633346974849700927734375" lon="-7.89381866343319416046142578125">
        <ele>290.20001220703125</ele>
        <time>2019-05-01T09:32:02.000Z</time>
      </trkpt>
      <trkpt lat="41.16348766721785068511962890625" lon="-7.8942911513149738311767578125">
        <ele>295.20001220703125</ele>
        <time>2019-05-01T09:32:20.000Z</time>
      </trkpt>
      <trkpt lat="41.1635390482842922210693359375" lon="-7.89438997395336627960205078125">
        <ele>296.399993896484375</ele>
        <time>2019-05-01T09:32:25.000Z</time>
      </trkpt>
      <trkpt lat="41.1636895872652530670166015625" lon="-7.89471485652029514312744140625">
        <ele>301.79998779296875</ele>
        <time>2019-05-01T09:32:43.000Z</time>
      </trkpt>
      <trkpt lat="41.1636858992278575897216796875" lon="-7.89472139440476894378662109375">
        <ele>302</ele>
        <time>2019-05-01T09:32:46.000Z</time>
      </trkpt>
      <trkpt lat="41.16367156617343425750732421875" lon="-7.89476062171161174774169921875">
        <ele>303</ele>
        <time>2019-05-01T09:32:53.000Z</time>
      </trkpt>
      <trkpt lat="41.1636533774435520172119140625" lon="-7.89481870830059051513671875">
        <ele>304.600006103515625</ele>
        <time>2019-05-01T09:32:59.000Z</time>
      </trkpt>
      <trkpt lat="41.16402201354503631591796875" lon="-7.89653322659432888031005859375">
        <ele>333.79998779296875</ele>
        <time>2019-05-01T09:38:07.000Z</time>
      </trkpt>
      <trkpt lat="41.1640731431543827056884765625" lon="-7.89665141142904758453369140625">
        <ele>335.20001220703125</ele>
        <time>2019-05-01T09:38:13.000Z</time>
      </trkpt>
      <trkpt lat="41.16427288390696048736572265625" lon="-7.8973233886063098907470703125">
        <ele>341</ele>
        <time>2019-05-01T09:38:37.000Z</time>
      </trkpt>
      <trkpt lat="41.16435100324451923370361328125" lon="-7.89775078184902667999267578125">
        <ele>348.79998779296875</ele>
        <time>2019-05-01T09:38:55.000Z</time>
      </trkpt>
      <trkpt lat="41.1648982577025890350341796875" lon="-7.89780124090611934661865234375">
        <ele>340.399993896484375</ele>
        <time>2019-05-01T09:39:19.000Z</time>
      </trkpt>
      <trkpt lat="41.16526898927986621856689453125" lon="-7.89831605739891529083251953125">
        <ele>334.600006103515625</ele>
        <time>2019-05-01T09:39:43.000Z</time>
      </trkpt>
      <trkpt lat="41.165325902402400970458984375" lon="-7.8990373201668262481689453125">
        <ele>333</ele>
        <time>2019-05-01T09:39:51.000Z</time>
      </trkpt>
      <trkpt lat="41.16546495817601680755615234375" lon="-7.8997477702796459197998046875">
        <ele>339</ele>
        <time>2019-05-01T09:40:00.000Z</time>
      </trkpt>
      <trkpt lat="41.16549454629421234130859375" lon="-7.8997729159891605377197265625">
        <ele>338.79998779296875</ele>
        <time>2019-05-01T09:40:01.000Z</time>
      </trkpt>
      <trkpt lat="41.16558968089520931243896484375" lon="-7.89950209669768810272216796875">
        <ele>331</ele>
        <time>2019-05-01T09:40:07.000Z</time>
      </trkpt>
      <trkpt lat="41.1655875854194164276123046875" lon="-7.89899616502225399017333984375">
        <ele>325.20001220703125</ele>
        <time>2019-05-01T09:40:19.000Z</time>
      </trkpt>
      <trkpt lat="41.1655996553599834442138671875" lon="-7.89901779033243656158447265625">
        <ele>324.79998779296875</ele>
        <time>2019-05-01T09:41:34.000Z</time>
      </trkpt>
      <trkpt lat="41.16554860956966876983642578125" lon="-7.89969898760318756103515625">
        <ele>336</ele>
        <time>2019-05-01T09:42:20.000Z</time>
      </trkpt>
      <trkpt lat="41.16549110971391201019287109375" lon="-7.8997316770255565643310546875">
        <ele>338</ele>
        <time>2019-05-01T09:42:27.000Z</time>
      </trkpt>
      <trkpt lat="41.16547317244112491607666015625" lon="-7.89957962930202484130859375">
        <ele>335.399993896484375</ele>
        <time>2019-05-01T09:42:52.000Z</time>
      </trkpt>
      <trkpt lat="41.165305785834789276123046875" lon="-7.89889340288937091827392578125">
        <ele>333.399993896484375</ele>
        <time>2019-05-01T09:43:18.000Z</time>
      </trkpt>
      <trkpt lat="41.16529396735131740570068359375" lon="-7.8986453823745250701904296875">
        <ele>333.399993896484375</ele>
        <time>2019-05-01T09:43:33.000Z</time>
      </trkpt>
      <trkpt lat="41.165151558816432952880859375" lon="-7.89802872575819492340087890625">
        <ele>339.399993896484375</ele>
        <time>2019-05-01T09:44:20.000Z</time>
      </trkpt>
      <trkpt lat="41.16497478447854518890380859375" lon="-7.8979024104773998260498046875">
        <ele>340.600006103515625</ele>
        <time>2019-05-01T09:44:39.000Z</time>
      </trkpt>
      <trkpt lat="41.16494997404515743255615234375" lon="-7.89791624061763286590576171875">
        <ele>341.20001220703125</ele>
        <time>2019-05-01T09:44:42.000Z</time>
      </trkpt>
      <trkpt lat="41.1649220623075962066650390625" lon="-7.89795915596187114715576171875">
        <ele>342.20001220703125</ele>
        <time>2019-05-01T09:44:46.000Z</time>
      </trkpt>
      <trkpt lat="41.1647738702595233917236328125" lon="-7.89808756671845912933349609375">
        <ele>346.600006103515625</ele>
        <time>2019-05-01T09:45:08.000Z</time>
      </trkpt>
      <trkpt lat="41.16415402851998805999755859375" lon="-7.89848520420491695404052734375">
        <ele>363.20001220703125</ele>
        <time>2019-05-01T09:46:57.000Z</time>
      </trkpt>
      <trkpt lat="41.1637539602816104888916015625" lon="-7.89834170602262020111083984375">
        <ele>369.79998779296875</ele>
        <time>2019-05-01T09:47:25.000Z</time>
      </trkpt>
      <trkpt lat="41.16371758282184600830078125" lon="-7.89828680455684661865234375">
        <ele>369.79998779296875</ele>
        <time>2019-05-01T09:47:47.000Z</time>
      </trkpt>
      <trkpt lat="41.1634956300258636474609375" lon="-7.89803476072847843170166015625">
        <ele>371.20001220703125</ele>
        <time>2019-05-01T09:48:16.000Z</time>
      </trkpt>
      <trkpt lat="41.16326420567929744720458984375" lon="-7.89972136728465557098388671875">
        <ele>394.79998779296875</ele>
        <time>2019-05-01T09:51:27.000Z</time>
      </trkpt>
      <trkpt lat="41.1632396467030048370361328125" lon="-7.8998315893113613128662109375">
        <ele>395.79998779296875</ele>
        <time>2019-05-01T09:51:32.000Z</time>
      </trkpt>
      <trkpt lat="41.16302699781954288482666015625" lon="-7.900507338345050811767578125">
        <ele>401.20001220703125</ele>
        <time>2019-05-01T09:51:53.000Z</time>
      </trkpt>
      <trkpt lat="41.16294066421687602996826171875" lon="-7.90075334720313549041748046875">
        <ele>401</ele>
        <time>2019-05-01T09:51:57.000Z</time>
      </trkpt>
      <trkpt lat="41.16287411190569400787353515625" lon="-7.90143907070159912109375">
        <ele>405.600006103515625</ele>
        <time>2019-05-01T09:52:23.000Z</time>
      </trkpt>
      <trkpt lat="41.1628725193440914154052734375" lon="-7.90142272599041461944580078125">
        <ele>405.600006103515625</ele>
        <time>2019-05-01T09:52:24.000Z</time>
      </trkpt>
      <trkpt lat="41.16324509494006633758544921875" lon="-7.90193670429289340972900390625">
        <ele>412</ele>
        <time>2019-05-01T09:53:33.000Z</time>
      </trkpt>
      <trkpt lat="41.163250543177127838134765625" lon="-7.90196000598371028900146484375">
        <ele>412.399993896484375</ele>
        <time>2019-05-01T09:53:34.000Z</time>
      </trkpt>
      <trkpt lat="41.1633258126676082611083984375" lon="-7.90208456106483936309814453125">
        <ele>413.600006103515625</ele>
        <time>2019-05-01T09:53:40.000Z</time>
      </trkpt>
      <trkpt lat="41.16372831165790557861328125" lon="-7.902531735599040985107421875">
        <ele>417.79998779296875</ele>
        <time>2019-05-01T09:54:09.000Z</time>
      </trkpt>
      <trkpt lat="41.1637982167303562164306640625" lon="-7.90256450884044170379638671875">
        <ele>417.79998779296875</ele>
        <time>2019-05-01T09:54:13.000Z</time>
      </trkpt>
      <trkpt lat="41.16405830718576908111572265625" lon="-7.90273415856063365936279296875">
        <ele>420.79998779296875</ele>
        <time>2019-05-01T09:54:30.000Z</time>
      </trkpt>
      <trkpt lat="41.16412117145955562591552734375" lon="-7.90277439169585704803466796875">
        <ele>421.79998779296875</ele>
        <time>2019-05-01T09:54:34.000Z</time>
      </trkpt>
      <trkpt lat="41.16414849646389484405517578125" lon="-7.90280154906213283538818359375">
        <ele>422.600006103515625</ele>
        <time>2019-05-01T09:54:36.000Z</time>
      </trkpt>
      <trkpt lat="41.1642025597393512725830078125" lon="-7.90282987989485263824462890625">
        <ele>423.20001220703125</ele>
        <time>2019-05-01T09:54:40.000Z</time>
      </trkpt>
      <trkpt lat="41.1643324792385101318359375" lon="-7.90307312272489070892333984375">
        <ele>430.20001220703125</ele>
        <time>2019-05-01T09:54:57.000Z</time>
      </trkpt>
      <trkpt lat="41.16433490999042987823486328125" lon="-7.903091646730899810791015625">
        <ele>430.600006103515625</ele>
        <time>2019-05-01T09:54:58.000Z</time>
      </trkpt>
      <trkpt lat="41.16431864909827709197998046875" lon="-7.90318761952221393585205078125">
        <ele>433.20001220703125</ele>
        <time>2019-05-01T09:55:04.000Z</time>
      </trkpt>
      <trkpt lat="41.16431839764118194580078125" lon="-7.90319524705410003662109375">
        <ele>433.399993896484375</ele>
        <time>2019-05-01T09:55:06.000Z</time>
      </trkpt>
      <trkpt lat="41.164019666612148284912109375" lon="-7.9032638110220432281494140625">
        <ele>438.20001220703125</ele>
        <time>2019-05-01T09:55:54.000Z</time>
      </trkpt>
      <trkpt lat="41.1634941212832927703857421875" lon="-7.90308787487447261810302734375">
        <ele>440.399993896484375</ele>
        <time>2019-05-01T09:56:33.000Z</time>
      </trkpt>
      <trkpt lat="41.16333000361919403076171875" lon="-7.90306004695594310760498046875">
        <ele>441.79998779296875</ele>
        <time>2019-05-01T09:56:47.000Z</time>
      </trkpt>
      <trkpt lat="41.16319078020751476287841796875" lon="-7.90305954404175281524658203125">
        <ele>443.399993896484375</ele>
        <time>2019-05-01T09:56:59.000Z</time>
      </trkpt>
      <trkpt lat="41.16317368112504482269287109375" lon="-7.903036661446094512939453125">
        <ele>442.79998779296875</ele>
        <time>2019-05-01T09:57:01.000Z</time>
      </trkpt>
      <trkpt lat="41.1631528101861476898193359375" lon="-7.90300749242305755615234375">
        <ele>441.79998779296875</ele>
        <time>2019-05-01T09:57:05.000Z</time>
      </trkpt>
      <trkpt lat="41.1631229706108570098876953125" lon="-7.9030247591435909271240234375">
        <ele>442.79998779296875</ele>
        <time>2019-05-01T10:00:16.000Z</time>
      </trkpt>
      <trkpt lat="41.1629261635243892669677734375" lon="-7.90309407748281955718994140625">
        <ele>445.399993896484375</ele>
        <time>2019-05-01T10:00:32.000Z</time>
      </trkpt>
      <trkpt lat="41.16266204975545406341552734375" lon="-7.90315275080502033233642578125">
        <ele>447.20001220703125</ele>
        <time>2019-05-01T10:00:52.000Z</time>
      </trkpt>
      <trkpt lat="41.162641346454620361328125" lon="-7.90315627120435237884521484375">
        <ele>447.399993896484375</ele>
        <time>2019-05-01T10:00:55.000Z</time>
      </trkpt>
      <trkpt lat="41.16253749467432498931884765625" lon="-7.90323371998965740203857421875">
        <ele>450.20001220703125</ele>
        <time>2019-05-01T10:03:02.000Z</time>
      </trkpt>
      <trkpt lat="41.1620349995791912078857421875" lon="-7.9035166092216968536376953125">
        <ele>456.20001220703125</ele>
        <time>2019-05-01T10:03:28.000Z</time>
      </trkpt>
      <trkpt lat="41.16151942871510982513427734375" lon="-7.90377334691584110260009765625">
        <ele>457.20001220703125</ele>
        <time>2019-05-01T10:03:46.000Z</time>
      </trkpt>
      <trkpt lat="41.16107585839927196502685546875" lon="-7.90416461415588855743408203125">
        <ele>461.20001220703125</ele>
        <time>2019-05-01T10:04:04.000Z</time>
      </trkpt>
      <trkpt lat="41.1609316058456897735595703125" lon="-7.9048825241625308990478515625">
        <ele>465.399993896484375</ele>
        <time>2019-05-01T10:04:21.000Z</time>
      </trkpt>
      <trkpt lat="41.16102925501763820648193359375" lon="-7.90515418164432048797607421875">
        <ele>471</ele>
        <time>2019-05-01T10:04:32.000Z</time>
      </trkpt>
      <trkpt lat="41.161054484546184539794921875" lon="-7.9051819257438182830810546875">
        <ele>471.399993896484375</ele>
        <time>2019-05-01T10:04:35.000Z</time>
      </trkpt>
      <trkpt lat="41.16114878095686435699462890625" lon="-7.90522299706935882568359375">
        <ele>474.399993896484375</ele>
        <time>2019-05-01T10:04:42.000Z</time>
      </trkpt>
      <trkpt lat="41.16125355474650859832763671875" lon="-7.90528468787670135498046875">
        <ele>477.399993896484375</ele>
        <time>2019-05-01T10:04:50.000Z</time>
      </trkpt>
      <trkpt lat="41.16170785389840602874755859375" lon="-7.9056868515908718109130859375">
        <ele>487.79998779296875</ele>
        <time>2019-05-01T10:05:32.000Z</time>
      </trkpt>
      <trkpt lat="41.16216718219220638275146484375" lon="-7.90608155541121959686279296875">
        <ele>495.79998779296875</ele>
        <time>2019-05-01T10:06:16.000Z</time>
      </trkpt>
      <trkpt lat="41.162591390311717987060546875" lon="-7.90645019151270389556884765625">
        <ele>501.79998779296875</ele>
        <time>2019-05-01T10:07:00.000Z</time>
      </trkpt>
      <trkpt lat="41.16268199868500232696533203125" lon="-7.90650836192071437835693359375">
        <ele>504.79998779296875</ele>
        <time>2019-05-01T10:07:19.000Z</time>
      </trkpt>
      <trkpt lat="41.1631621979176998138427734375" lon="-7.9068422131240367889404296875">
        <ele>518.4000244140625</ele>
        <time>2019-05-01T10:08:06.000Z</time>
      </trkpt>
      <trkpt lat="41.16356126032769680023193359375" lon="-7.9073327220976352691650390625">
        <ele>524.79998779296875</ele>
        <time>2019-05-01T10:08:54.000Z</time>
      </trkpt>
      <trkpt lat="41.1637437343597412109375" lon="-7.90764846839010715484619140625">
        <ele>530.4000244140625</ele>
        <time>2019-05-01T10:09:21.000Z</time>
      </trkpt>
      <trkpt lat="41.163768880069255828857421875" lon="-7.90769138373434543609619140625">
        <ele>530.5999755859375</ele>
        <time>2019-05-01T10:09:41.000Z</time>
      </trkpt>
      <trkpt lat="41.16407272405922412872314453125" lon="-7.9082832299172878265380859375">
        <ele>538</ele>
        <time>2019-05-01T10:10:24.000Z</time>
      </trkpt>
      <trkpt lat="41.16434899158775806427001953125" lon="-7.90890323929488658905029296875">
        <ele>547</ele>
        <time>2019-05-01T10:11:09.000Z</time>
      </trkpt>
      <trkpt lat="41.16457647643983364105224609375" lon="-7.90950187481939792633056640625">
        <ele>550</ele>
        <time>2019-05-01T10:11:53.000Z</time>
      </trkpt>
      <trkpt lat="41.164592988789081573486328125" lon="-7.90953406132757663726806640625">
        <ele>550.20001220703125</ele>
        <time>2019-05-01T10:12:08.000Z</time>
      </trkpt>
      <trkpt lat="41.164899431169033050537109375" lon="-7.9101227223873138427734375">
        <ele>555.5999755859375</ele>
        <time>2019-05-01T10:12:53.000Z</time>
      </trkpt>
      <trkpt lat="41.165293715894222259521484375" lon="-7.91059839539229869842529296875">
        <ele>570.79998779296875</ele>
        <time>2019-05-01T10:13:38.000Z</time>
      </trkpt>
      <trkpt lat="41.16505877114832401275634765625" lon="-7.91122251190245151519775390625">
        <ele>569.4000244140625</ele>
        <time>2019-05-01T10:14:23.000Z</time>
      </trkpt>
      <trkpt lat="41.16457882337272167205810546875" lon="-7.9115401022136211395263671875">
        <ele>562.5999755859375</ele>
        <time>2019-05-01T10:15:06.000Z</time>
      </trkpt>
      <trkpt lat="41.16414028219878673553466796875" lon="-7.91192742995917797088623046875">
        <ele>558.4000244140625</ele>
        <time>2019-05-01T10:15:52.000Z</time>
      </trkpt>
      <trkpt lat="41.16397934965789318084716796875" lon="-7.91262061335146427154541015625">
        <ele>570</ele>
        <time>2019-05-01T10:16:39.000Z</time>
      </trkpt>
      <trkpt lat="41.1640231870114803314208984375" lon="-7.91314196772873401641845703125">
        <ele>578.20001220703125</ele>
        <time>2019-05-01T10:17:14.000Z</time>
      </trkpt>
      <trkpt lat="41.1640241928398609161376953125" lon="-7.91320256888866424560546875">
        <ele>578.79998779296875</ele>
        <time>2019-05-01T10:17:28.000Z</time>
      </trkpt>
      <trkpt lat="41.16410742513835430145263671875" lon="-7.91390907950699329376220703125">
        <ele>590.4000244140625</ele>
        <time>2019-05-01T10:18:10.000Z</time>
      </trkpt>
      <trkpt lat="41.16389452479779720306396484375" lon="-7.91456219740211963653564453125">
        <ele>587.4000244140625</ele>
        <time>2019-05-01T10:18:53.000Z</time>
      </trkpt>
      <trkpt lat="41.16393777541816234588623046875" lon="-7.91523761115968227386474609375">
        <ele>595.20001220703125</ele>
        <time>2019-05-01T10:19:36.000Z</time>
      </trkpt>
      <trkpt lat="41.1641968600451946258544921875" lon="-7.91586868464946746826171875">
        <ele>606.5999755859375</ele>
        <time>2019-05-01T10:20:19.000Z</time>
      </trkpt>
      <trkpt lat="41.1641978658735752105712890625" lon="-7.916033305227756500244140625">
        <ele>608.5999755859375</ele>
        <time>2019-05-01T10:20:30.000Z</time>
      </trkpt>
      <trkpt lat="41.16420633159577846527099609375" lon="-7.9161105863749980926513671875">
        <ele>610.20001220703125</ele>
        <time>2019-05-01T10:20:36.000Z</time>
      </trkpt>
      <trkpt lat="41.16414614953100681304931640625" lon="-7.91622784920036792755126953125">
        <ele>610</ele>
        <time>2019-05-01T10:20:45.000Z</time>
      </trkpt>
      <trkpt lat="41.16391682066023349761962890625" lon="-7.9163710959255695343017578125">
        <ele>604.20001220703125</ele>
        <time>2019-05-01T10:21:09.000Z</time>
      </trkpt>
      <trkpt lat="41.1638652719557285308837890625" lon="-7.91638760827481746673583984375">
        <ele>603.4000244140625</ele>
        <time>2019-05-01T10:21:14.000Z</time>
      </trkpt>
      <trkpt lat="41.1637214384973049163818359375" lon="-7.916463129222393035888671875">
        <ele>601.4000244140625</ele>
        <time>2019-05-01T10:21:29.000Z</time>
      </trkpt>
      <trkpt lat="41.16369520314037799835205078125" lon="-7.91651668958365917205810546875">
        <ele>601.5999755859375</ele>
        <time>2019-05-01T10:21:33.000Z</time>
      </trkpt>
      <trkpt lat="41.16374306380748748779296875" lon="-7.9171284846961498260498046875">
        <ele>610.79998779296875</ele>
        <time>2019-05-01T10:22:18.000Z</time>
      </trkpt>
      <trkpt lat="41.16382260806858539581298828125" lon="-7.91781756095588207244873046875">
        <ele>622.79998779296875</ele>
        <time>2019-05-01T10:23:01.000Z</time>
      </trkpt>
      <trkpt lat="41.163798384368419647216796875" lon="-7.91792183183133602142333984375">
        <ele>622.5999755859375</ele>
        <time>2019-05-01T10:23:10.000Z</time>
      </trkpt>
      <trkpt lat="41.1637881584465503692626953125" lon="-7.91796910576522350311279296875">
        <ele>622.5999755859375</ele>
        <time>2019-05-01T10:23:21.000Z</time>
      </trkpt>
      <trkpt lat="41.1637190915644168853759765625" lon="-7.91820849291980266571044921875">
        <ele>621.5999755859375</ele>
        <time>2019-05-01T10:23:37.000Z</time>
      </trkpt>
      <trkpt lat="41.16371179930865764617919921875" lon="-7.91823162697255611419677734375">
        <ele>621.5999755859375</ele>
        <time>2019-05-01T10:24:04.000Z</time>
      </trkpt>
      <trkpt lat="41.16354650817811489105224609375" lon="-7.9189235530793666839599609375">
        <ele>621.5999755859375</ele>
        <time>2019-05-01T10:24:29.000Z</time>
      </trkpt>
      <trkpt lat="41.16354332305490970611572265625" lon="-7.91907870210707187652587890625">
        <ele>621.4000244140625</ele>
        <time>2019-05-01T10:24:34.000Z</time>
      </trkpt>
      <trkpt lat="41.16378388367593288421630859375" lon="-7.91974020190536975860595703125">
        <ele>622</ele>
        <time>2019-05-01T10:25:00.000Z</time>
      </trkpt>
      <trkpt lat="41.1638166569173336029052734375" lon="-7.91988437063992023468017578125">
        <ele>621.20001220703125</ele>
        <time>2019-05-01T10:25:08.000Z</time>
      </trkpt>
      <trkpt lat="41.16383492946624755859375" lon="-7.91991370730102062225341796875">
        <ele>621.20001220703125</ele>
        <time>2019-05-01T10:25:13.000Z</time>
      </trkpt>
      <trkpt lat="41.16386837325990200042724609375" lon="-7.9199283756315708160400390625">
        <ele>621.4000244140625</ele>
        <time>2019-05-01T10:25:17.000Z</time>
      </trkpt>
      <trkpt lat="41.1638684570789337158203125" lon="-7.9200111888349056243896484375">
        <ele>620.79998779296875</ele>
        <time>2019-05-01T10:27:22.000Z</time>
      </trkpt>
      <trkpt lat="41.164134331047534942626953125" lon="-7.92048283852636814117431640625">
        <ele>619.5999755859375</ele>
        <time>2019-05-01T10:27:31.000Z</time>
      </trkpt>
      <trkpt lat="41.16455904208123683929443359375" lon="-7.92079883627593517303466796875">
        <ele>619.79998779296875</ele>
        <time>2019-05-01T10:27:38.000Z</time>
      </trkpt>
      <trkpt lat="41.1647482216358184814453125" lon="-7.9208369739353656768798828125">
        <ele>621</ele>
        <time>2019-05-01T10:27:42.000Z</time>
      </trkpt>
      <trkpt lat="41.1652549915015697479248046875" lon="-7.92113344185054302215576171875">
        <ele>627.20001220703125</ele>
        <time>2019-05-01T10:27:59.000Z</time>
      </trkpt>
      <trkpt lat="41.16531341336667537689208984375" lon="-7.92128465138375759124755859375">
        <ele>627</ele>
        <time>2019-05-01T10:28:02.000Z</time>
      </trkpt>
      <trkpt lat="41.16550083272159099578857421875" lon="-7.92196442373096942901611328125">
        <ele>628.79998779296875</ele>
        <time>2019-05-01T10:28:15.000Z</time>
      </trkpt>
      <trkpt lat="41.1656187660992145538330078125" lon="-7.922700941562652587890625">
        <ele>628.20001220703125</ele>
        <time>2019-05-01T10:28:30.000Z</time>
      </trkpt>
      <trkpt lat="41.16570032201707363128662109375" lon="-7.9233196936547756195068359375">
        <ele>626.4000244140625</ele>
        <time>2019-05-01T10:28:38.000Z</time>
      </trkpt>
      <trkpt lat="41.16583594121038913726806640625" lon="-7.92359185405075550079345703125">
        <ele>628.5999755859375</ele>
        <time>2019-05-01T10:28:42.000Z</time>
      </trkpt>
      <trkpt lat="41.1659820377826690673828125" lon="-7.92388119734823703765869140625">
        <ele>630.79998779296875</ele>
        <time>2019-05-01T10:28:50.000Z</time>
      </trkpt>
      <trkpt lat="41.1660281382501125335693359375" lon="-7.9245005361735820770263671875">
        <ele>623.5999755859375</ele>
        <time>2019-05-01T10:28:57.000Z</time>
      </trkpt>
      <trkpt lat="41.16618596948683261871337890625" lon="-7.92495927773416042327880859375">
        <ele>623</ele>
        <time>2019-05-01T10:29:03.000Z</time>
      </trkpt>
      <trkpt lat="41.1663117818534374237060546875" lon="-7.92509682476520538330078125">
        <ele>625.5999755859375</ele>
        <time>2019-05-01T10:29:07.000Z</time>
      </trkpt>
      <trkpt lat="41.16647355258464813232421875" lon="-7.925807274878025054931640625">
        <ele>623</ele>
        <time>2019-05-01T10:29:21.000Z</time>
      </trkpt>
      <trkpt lat="41.16651386953890323638916015625" lon="-7.9260094463825225830078125">
        <ele>621.79998779296875</ele>
        <time>2019-05-01T10:29:23.000Z</time>
      </trkpt>
      <trkpt lat="41.1667831800878047943115234375" lon="-7.92667798697948455810546875">
        <ele>622.4000244140625</ele>
        <time>2019-05-01T10:29:31.000Z</time>
      </trkpt>
      <trkpt lat="41.16696565411984920501708984375" lon="-7.92714762501418590545654296875">
        <ele>625.79998779296875</ele>
        <time>2019-05-01T10:29:37.000Z</time>
      </trkpt>
      <trkpt lat="41.167356669902801513671875" lon="-7.92764115147292613983154296875">
        <ele>623.4000244140625</ele>
        <time>2019-05-01T10:29:54.000Z</time>
      </trkpt>
      <trkpt lat="41.16747535765171051025390625" lon="-7.92793552391231060028076171875">
        <ele>624</ele>
        <time>2019-05-01T10:30:03.000Z</time>
      </trkpt>
      <trkpt lat="41.16752556525170803070068359375" lon="-7.9280410520732402801513671875">
        <ele>624.20001220703125</ele>
        <time>2019-05-01T10:30:08.000Z</time>
      </trkpt>
      <trkpt lat="41.1676089651882648468017578125" lon="-7.92815387248992919921875">
        <ele>624.20001220703125</ele>
        <time>2019-05-01T10:30:15.000Z</time>
      </trkpt>
      <trkpt lat="41.16767794825136661529541015625" lon="-7.92815512977540493011474609375">
        <ele>624.20001220703125</ele>
        <time>2019-05-01T10:30:19.000Z</time>
      </trkpt>
      <trkpt lat="41.16780652664601802825927734375" lon="-7.92810148559510707855224609375">
        <ele>624.79998779296875</ele>
        <time>2019-05-01T10:30:26.000Z</time>
      </trkpt>
      <trkpt lat="41.16815152578055858612060546875" lon="-7.927546016871929168701171875">
        <ele>629.5999755859375</ele>
        <time>2019-05-01T10:30:51.000Z</time>
      </trkpt>
      <trkpt lat="41.16866718046367168426513671875" lon="-7.92741718702018260955810546875">
        <ele>635.20001220703125</ele>
        <time>2019-05-01T10:31:16.000Z</time>
      </trkpt>
      <trkpt lat="41.16910337470471858978271484375" lon="-7.9278360307216644287109375">
        <ele>634.79998779296875</ele>
        <time>2019-05-01T10:31:37.000Z</time>
      </trkpt>
      <trkpt lat="41.16960377432405948638916015625" lon="-7.92811372317373752593994140625">
        <ele>635.20001220703125</ele>
        <time>2019-05-01T10:31:57.000Z</time>
      </trkpt>
      <trkpt lat="41.1701528728008270263671875" lon="-7.92809679172933101654052734375">
        <ele>638.20001220703125</ele>
        <time>2019-05-01T10:32:14.000Z</time>
      </trkpt>
      <trkpt lat="41.17063709534704685211181640625" lon="-7.928372807800769805908203125">
        <ele>639.79998779296875</ele>
        <time>2019-05-01T10:32:31.000Z</time>
      </trkpt>
      <trkpt lat="41.1708732135593891143798828125" lon="-7.92855880223214626312255859375">
        <ele>642</ele>
        <time>2019-05-01T10:32:41.000Z</time>
      </trkpt>
      <trkpt lat="41.17093448527157306671142578125" lon="-7.92855259962379932403564453125">
        <ele>643.20001220703125</ele>
        <time>2019-05-01T10:32:47.000Z</time>
      </trkpt>
      <trkpt lat="41.1709878779947757720947265625" lon="-7.92856886051595211029052734375">
        <ele>644</ele>
        <time>2019-05-01T10:32:54.000Z</time>
      </trkpt>
      <trkpt lat="41.1715306900441646575927734375" lon="-7.92853684164583683013916015625">
        <ele>653.5999755859375</ele>
        <time>2019-05-01T10:33:35.000Z</time>
      </trkpt>
      <trkpt lat="41.17190578021109104156494140625" lon="-7.92898208834230899810791015625">
        <ele>653.79998779296875</ele>
        <time>2019-05-01T10:34:16.000Z</time>
      </trkpt>
      <trkpt lat="41.17191382683813571929931640625" lon="-7.9289902187883853912353515625">
        <ele>653.79998779296875</ele>
        <time>2019-05-01T10:34:21.000Z</time>
      </trkpt>
      <trkpt lat="41.17242998443543910980224609375" lon="-7.9292574338614940643310546875">
        <ele>659.4000244140625</ele>
        <time>2019-05-01T10:34:41.000Z</time>
      </trkpt>
      <trkpt lat="41.1728835292160511016845703125" lon="-7.92967426590621471405029296875">
        <ele>659.5999755859375</ele>
        <time>2019-05-01T10:34:55.000Z</time>
      </trkpt>
      <trkpt lat="41.17305242456495761871337890625" lon="-7.92988096363842487335205078125">
        <ele>658</ele>
        <time>2019-05-01T10:35:00.000Z</time>
      </trkpt>
      <trkpt lat="41.17342608980834484100341796875" lon="-7.9304225184023380279541015625">
        <ele>656.79998779296875</ele>
        <time>2019-05-01T10:35:14.000Z</time>
      </trkpt>
      <trkpt lat="41.17381886579096317291259765625" lon="-7.93093725107610225677490234375">
        <ele>660.5999755859375</ele>
        <time>2019-05-01T10:35:29.000Z</time>
      </trkpt>
      <trkpt lat="41.1739768646657466888427734375" lon="-7.93099408037960529327392578125">
        <ele>663.5999755859375</ele>
        <time>2019-05-01T10:35:37.000Z</time>
      </trkpt>
      <trkpt lat="41.17400829680263996124267578125" lon="-7.93100195936858654022216796875">
        <ele>664.20001220703125</ele>
        <time>2019-05-01T10:35:41.000Z</time>
      </trkpt>
      <trkpt lat="41.17445857264101505279541015625" lon="-7.93137595988810062408447265625">
        <ele>670.79998779296875</ele>
        <time>2019-05-01T10:36:20.000Z</time>
      </trkpt>
      <trkpt lat="41.1745320819318294525146484375" lon="-7.931506298482418060302734375">
        <ele>670.79998779296875</ele>
        <time>2019-05-01T10:36:32.000Z</time>
      </trkpt>
      <trkpt lat="41.17457508109509944915771484375" lon="-7.931519709527492523193359375">
        <ele>671.79998779296875</ele>
        <time>2019-05-01T10:37:36.000Z</time>
      </trkpt>
      <trkpt lat="41.17465269751846790313720703125" lon="-7.93164015747606754302978515625">
        <ele>672</ele>
        <time>2019-05-01T10:37:45.000Z</time>
      </trkpt>
      <trkpt lat="41.1749808490276336669921875" lon="-7.93207534588873386383056640625">
        <ele>675.20001220703125</ele>
        <time>2019-05-01T10:38:22.000Z</time>
      </trkpt>
      <trkpt lat="41.17501529864966869354248046875" lon="-7.9321398027241230010986328125">
        <ele>675.4000244140625</ele>
        <time>2019-05-01T10:39:25.000Z</time>
      </trkpt>
      <trkpt lat="41.1753737926483154296875" lon="-7.93266928754746913909912109375">
        <ele>677.5999755859375</ele>
        <time>2019-05-01T10:39:50.000Z</time>
      </trkpt>
      <trkpt lat="41.17568249814212322235107421875" lon="-7.93326557613909244537353515625">
        <ele>682.5999755859375</ele>
        <time>2019-05-01T10:40:14.000Z</time>
      </trkpt>
      <trkpt lat="41.175938062369823455810546875" lon="-7.9339167661964893341064453125">
        <ele>688.4000244140625</ele>
        <time>2019-05-01T10:40:37.000Z</time>
      </trkpt>
      <trkpt lat="41.176168061792850494384765625" lon="-7.934167049825191497802734375">
        <ele>689.79998779296875</ele>
        <time>2019-05-01T10:40:52.000Z</time>
      </trkpt>
      <trkpt lat="41.17622204124927520751953125" lon="-7.93420149944722652435302734375">
        <ele>690.4000244140625</ele>
        <time>2019-05-01T10:40:57.000Z</time>
      </trkpt>
      <trkpt lat="41.1767308227717876434326171875" lon="-7.93447894044220447540283203125">
        <ele>693.79998779296875</ele>
        <time>2019-05-01T10:41:37.000Z</time>
      </trkpt>
      <trkpt lat="41.17677994072437286376953125" lon="-7.93451699428260326385498046875">
        <ele>693.79998779296875</ele>
        <time>2019-05-01T10:41:42.000Z</time>
      </trkpt>
      <trkpt lat="41.17720347829163074493408203125" lon="-7.93475286103785037994384765625">
        <ele>696.4000244140625</ele>
        <time>2019-05-01T10:42:22.000Z</time>
      </trkpt>
      <trkpt lat="41.17722359485924243927001953125" lon="-7.93479259125888347625732421875">
        <ele>696.20001220703125</ele>
        <time>2019-05-01T10:42:37.000Z</time>
      </trkpt>
      <trkpt lat="41.177583597600460052490234375" lon="-7.93492502532899379730224609375">
        <ele>695.79998779296875</ele>
        <time>2019-05-01T10:43:14.000Z</time>
      </trkpt>
      <trkpt lat="41.17762726731598377227783203125" lon="-7.9349262826144695281982421875">
        <ele>696.20001220703125</ele>
        <time>2019-05-01T10:43:22.000Z</time>
      </trkpt>
      <trkpt lat="41.1778776347637176513671875" lon="-7.935243956744670867919921875">
        <ele>698.79998779296875</ele>
        <time>2019-05-01T10:43:54.000Z</time>
      </trkpt>
      <trkpt lat="41.17788366973400115966796875" lon="-7.93531763367354869842529296875">
        <ele>698.79998779296875</ele>
        <time>2019-05-01T10:44:40.000Z</time>
      </trkpt>
      <trkpt lat="41.17772701196372509002685546875" lon="-7.93604903854429721832275390625">
        <ele>701.4000244140625</ele>
        <time>2019-05-01T10:44:54.000Z</time>
      </trkpt>
      <trkpt lat="41.177719049155712127685546875" lon="-7.93611936271190643310546875">
        <ele>701.4000244140625</ele>
        <time>2019-05-01T10:44:55.000Z</time>
      </trkpt>
      <trkpt lat="41.17777881212532520294189453125" lon="-7.93638900853693485260009765625">
        <ele>704</ele>
        <time>2019-05-01T10:44:59.000Z</time>
      </trkpt>
      <trkpt lat="41.1778003536164760589599609375" lon="-7.93656016699969768524169921875">
        <ele>706</ele>
        <time>2019-05-01T10:45:04.000Z</time>
      </trkpt>
      <trkpt lat="41.1779706738889217376708984375" lon="-7.937265336513519287109375">
        <ele>711</ele>
        <time>2019-05-01T10:45:29.000Z</time>
      </trkpt>
      <trkpt lat="41.17830167524516582489013671875" lon="-7.93783337809145450592041015625">
        <ele>718</ele>
        <time>2019-05-01T10:45:51.000Z</time>
      </trkpt>
      <trkpt lat="41.17864449508488178253173828125" lon="-7.93843788094818592071533203125">
        <ele>720.20001220703125</ele>
        <time>2019-05-01T10:46:10.000Z</time>
      </trkpt>
      <trkpt lat="41.17901748977601528167724609375" lon="-7.93899611569941043853759765625">
        <ele>722.79998779296875</ele>
        <time>2019-05-01T10:46:30.000Z</time>
      </trkpt>
      <trkpt lat="41.17935578338801860809326171875" lon="-7.9395819269120693206787109375">
        <ele>727.5999755859375</ele>
        <time>2019-05-01T10:46:54.000Z</time>
      </trkpt>
      <trkpt lat="41.17936634458601474761962890625" lon="-7.93963171541690826416015625">
        <ele>727.4000244140625</ele>
        <time>2019-05-01T10:46:58.000Z</time>
      </trkpt>
      <trkpt lat="41.1793919093906879425048828125" lon="-7.9396727867424488067626953125">
        <ele>727.5999755859375</ele>
        <time>2019-05-01T10:47:20.000Z</time>
      </trkpt>
      <trkpt lat="41.1795129440724849700927734375" lon="-7.93986565433442592620849609375">
        <ele>728.4000244140625</ele>
        <time>2019-05-01T10:47:31.000Z</time>
      </trkpt>
      <trkpt lat="41.17963708005845546722412109375" lon="-7.94007134623825550079345703125">
        <ele>729</ele>
        <time>2019-05-01T10:47:46.000Z</time>
      </trkpt>
      <trkpt lat="41.17971603758633136749267578125" lon="-7.94015767984092235565185546875">
        <ele>731.4000244140625</ele>
        <time>2019-05-01T10:47:55.000Z</time>
      </trkpt>
      <trkpt lat="41.1799013614654541015625" lon="-7.940321378409862518310546875">
        <ele>735.4000244140625</ele>
        <time>2019-05-01T10:48:16.000Z</time>
      </trkpt>
      <trkpt lat="41.1800027824938297271728515625" lon="-7.9404021799564361572265625">
        <ele>738</ele>
        <time>2019-05-01T10:49:13.000Z</time>
      </trkpt>
      <trkpt lat="41.18004242889583110809326171875" lon="-7.940437383949756622314453125">
        <ele>738.79998779296875</ele>
        <time>2019-05-01T10:49:16.000Z</time>
      </trkpt>
      <trkpt lat="41.1800933070480823516845703125" lon="-7.94050938449800014495849609375">
        <ele>739.79998779296875</ele>
        <time>2019-05-01T10:49:22.000Z</time>
      </trkpt>
      <trkpt lat="41.180232949554920196533203125" lon="-7.9412016458809375762939453125">
        <ele>739</ele>
        <time>2019-05-01T10:50:05.000Z</time>
      </trkpt>
      <trkpt lat="41.18039346300065517425537109375" lon="-7.94157103635370731353759765625">
        <ele>742</ele>
        <time>2019-05-01T10:50:34.000Z</time>
      </trkpt>
      <trkpt lat="41.180641651153564453125" lon="-7.941844202578067779541015625">
        <ele>747</ele>
        <time>2019-05-01T10:51:03.000Z</time>
      </trkpt>
      <trkpt lat="41.1809648573398590087890625" lon="-7.94241727329790592193603515625">
        <ele>750.79998779296875</ele>
        <time>2019-05-01T10:51:52.000Z</time>
      </trkpt>
      <trkpt lat="41.181389652192592620849609375" lon="-7.94272564351558685302734375">
        <ele>756.4000244140625</ele>
        <time>2019-05-01T10:52:35.000Z</time>
      </trkpt>
      <trkpt lat="41.18192969821393489837646484375" lon="-7.94271114282310009002685546875">
        <ele>764.4000244140625</ele>
        <time>2019-05-01T10:53:21.000Z</time>
      </trkpt>
      <trkpt lat="41.1824695765972137451171875" lon="-7.9426932893693447113037109375">
        <ele>774.4000244140625</ele>
        <time>2019-05-01T10:54:06.000Z</time>
      </trkpt>
      <trkpt lat="41.18289110250771045684814453125" lon="-7.943120263516902923583984375">
        <ele>781</ele>
        <time>2019-05-01T10:54:50.000Z</time>
      </trkpt>
      <trkpt lat="41.1829401366412639617919921875" lon="-7.94328890740871429443359375">
        <ele>780.79998779296875</ele>
        <time>2019-05-01T10:55:01.000Z</time>
      </trkpt>
      <trkpt lat="41.182922534644603729248046875" lon="-7.9434137977659702301025390625">
        <ele>779.5999755859375</ele>
        <time>2019-05-01T10:55:09.000Z</time>
      </trkpt>
      <trkpt lat="41.18290652520954608917236328125" lon="-7.94405811466276645660400390625">
        <ele>780.20001220703125</ele>
        <time>2019-05-01T10:55:52.000Z</time>
      </trkpt>
      <trkpt lat="41.18298548273742198944091796875" lon="-7.9440266825258731842041015625">
        <ele>782</ele>
        <time>2019-05-01T10:55:59.000Z</time>
      </trkpt>
      <trkpt lat="41.18326879106462001800537109375" lon="-7.9434302262961864471435546875">
        <ele>786.79998779296875</ele>
        <time>2019-05-01T10:56:45.000Z</time>
      </trkpt>
      <trkpt lat="41.1833428032696247100830078125" lon="-7.94272908009588718414306640625">
        <ele>791.4000244140625</ele>
        <time>2019-05-01T10:57:28.000Z</time>
      </trkpt>
      <trkpt lat="41.1835318990051746368408203125" lon="-7.94209976680576801300048828125">
        <ele>795.20001220703125</ele>
        <time>2019-05-01T10:58:18.000Z</time>
      </trkpt>
      <trkpt lat="41.1835288815200328826904296875" lon="-7.94209976680576801300048828125">
        <ele>795.20001220703125</ele>
        <time>2019-05-01T10:58:19.000Z</time>
      </trkpt>
      <trkpt lat="41.18357858620584011077880859375" lon="-7.94210596941411495208740234375">
        <ele>795</ele>
        <time>2019-05-01T10:58:46.000Z</time>
      </trkpt>
      <trkpt lat="41.18392040021717548370361328125" lon="-7.942398749291896820068359375">
        <ele>798.79998779296875</ele>
        <time>2019-05-01T10:59:25.000Z</time>
      </trkpt>
      <trkpt lat="41.18393833748996257781982421875" lon="-7.94242129661142826080322265625">
        <ele>799</ele>
        <time>2019-05-01T10:59:28.000Z</time>
      </trkpt>
      <trkpt lat="41.183969937264919281005859375" lon="-7.94245339930057525634765625">
        <ele>798.5999755859375</ele>
        <time>2019-05-01T10:59:31.000Z</time>
      </trkpt>
      <trkpt lat="41.18416951037943363189697265625" lon="-7.942833267152309417724609375">
        <ele>795.5999755859375</ele>
        <time>2019-05-01T11:00:08.000Z</time>
      </trkpt>
      <trkpt lat="41.18418686091899871826171875" lon="-7.942898310720920562744140625">
        <ele>795.20001220703125</ele>
        <time>2019-05-01T11:05:57.000Z</time>
      </trkpt>
      <trkpt lat="41.1842202208936214447021484375" lon="-7.94296159408986568450927734375">
        <ele>794.79998779296875</ele>
        <time>2019-05-01T11:06:01.000Z</time>
      </trkpt>
      <trkpt lat="41.18425123393535614013671875" lon="-7.94307189993560314178466796875">
        <ele>794.20001220703125</ele>
        <time>2019-05-01T11:06:07.000Z</time>
      </trkpt>
      <trkpt lat="41.18450931273400783538818359375" lon="-7.9437423683702945709228515625">
        <ele>795.20001220703125</ele>
        <time>2019-05-01T11:06:25.000Z</time>
      </trkpt>
      <trkpt lat="41.184691451489925384521484375" lon="-7.94442306272685527801513671875">
        <ele>804.4000244140625</ele>
        <time>2019-05-01T11:06:41.000Z</time>
      </trkpt>
      <trkpt lat="41.18444913066923618316650390625" lon="-7.94504717923700809478759765625">
        <ele>809.4000244140625</ele>
        <time>2019-05-01T11:07:03.000Z</time>
      </trkpt>
      <trkpt lat="41.184427253901958465576171875" lon="-7.94506846927106380462646484375">
        <ele>809.4000244140625</ele>
        <time>2019-05-01T11:07:06.000Z</time>
      </trkpt>
      <trkpt lat="41.18440822698175907135009765625" lon="-7.94509210623800754547119140625">
        <ele>809.5999755859375</ele>
        <time>2019-05-01T11:07:11.000Z</time>
      </trkpt>
      <trkpt lat="41.184076555073261260986328125" lon="-7.94566626660525798797607421875">
        <ele>815.4000244140625</ele>
        <time>2019-05-01T11:07:51.000Z</time>
      </trkpt>
      <trkpt lat="41.18382048793137073516845703125" lon="-7.94629708863794803619384765625">
        <ele>821.4000244140625</ele>
        <time>2019-05-01T11:08:31.000Z</time>
      </trkpt>
      <trkpt lat="41.18361898697912693023681640625" lon="-7.94696261174976825714111328125">
        <ele>827.20001220703125</ele>
        <time>2019-05-01T11:09:14.000Z</time>
      </trkpt>
      <trkpt lat="41.18340625427663326263427734375" lon="-7.9476231895387172698974609375">
        <ele>833.79998779296875</ele>
        <time>2019-05-01T11:09:59.000Z</time>
      </trkpt>
      <trkpt lat="41.18334506638348102569580078125" lon="-7.94775855727493762969970703125">
        <ele>834.79998779296875</ele>
        <time>2019-05-01T11:10:11.000Z</time>
      </trkpt>
      <trkpt lat="41.1833257041871547698974609375" lon="-7.9478159733116626739501953125">
        <ele>835.4000244140625</ele>
        <time>2019-05-01T11:10:22.000Z</time>
      </trkpt>
      <trkpt lat="41.183103583753108978271484375" lon="-7.948473282158374786376953125">
        <ele>841.4000244140625</ele>
        <time>2019-05-01T11:11:07.000Z</time>
      </trkpt>
      <trkpt lat="41.18310056626796722412109375" lon="-7.94919337145984172821044921875">
        <ele>848.20001220703125</ele>
        <time>2019-05-01T11:11:50.000Z</time>
      </trkpt>
      <trkpt lat="41.1832727305591106414794921875" lon="-7.9498557932674884796142578125">
        <ele>849</ele>
        <time>2019-05-01T11:12:35.000Z</time>
      </trkpt>
      <trkpt lat="41.18378662504255771636962890625" lon="-7.949901558458805084228515625">
        <ele>860.5999755859375</ele>
        <time>2019-05-01T11:13:27.000Z</time>
      </trkpt>
      <trkpt lat="41.1841709353029727935791015625" lon="-7.9494014941155910491943359375">
        <ele>867.4000244140625</ele>
        <time>2019-05-01T11:14:18.000Z</time>
      </trkpt>
      <trkpt lat="41.184500344097614288330078125" lon="-7.948832698166370391845703125">
        <ele>870.20001220703125</ele>
        <time>2019-05-01T11:15:06.000Z</time>
      </trkpt>
      <trkpt lat="41.184936873614788055419921875" lon="-7.94900871813297271728515625">
        <ele>875.4000244140625</ele>
        <time>2019-05-01T11:15:49.000Z</time>
      </trkpt>
      <trkpt lat="41.18493561632931232452392578125" lon="-7.949039228260517120361328125">
        <ele>875.5999755859375</ele>
        <time>2019-05-01T11:15:53.000Z</time>
      </trkpt>
      <trkpt lat="41.1849695630371570587158203125" lon="-7.949060685932636260986328125">
        <ele>876</ele>
        <time>2019-05-01T11:17:01.000Z</time>
      </trkpt>
      <trkpt lat="41.18496872484683990478515625" lon="-7.94906328432261943817138671875">
        <ele>876</ele>
        <time>2019-05-01T11:17:02.000Z</time>
      </trkpt>
      <trkpt lat="41.185019016265869140625" lon="-7.94908172450959682464599609375">
        <ele>876.5999755859375</ele>
        <time>2019-05-01T11:17:07.000Z</time>
      </trkpt>
      <trkpt lat="41.185193695127964019775390625" lon="-7.9492248035967350006103515625">
        <ele>879.4000244140625</ele>
        <time>2019-05-01T11:17:24.000Z</time>
      </trkpt>
      <trkpt lat="41.18524474091827869415283203125" lon="-7.94927400536835193634033203125">
        <ele>880.20001220703125</ele>
        <time>2019-05-01T11:17:30.000Z</time>
      </trkpt>
      <trkpt lat="41.18527860380709171295166015625" lon="-7.94930418021976947784423828125">
        <ele>880.5999755859375</ele>
        <time>2019-05-01T11:17:34.000Z</time>
      </trkpt>
      <trkpt lat="41.18573793210089206695556640625" lon="-7.949699722230434417724609375">
        <ele>887</ele>
        <time>2019-05-01T11:18:25.000Z</time>
      </trkpt>
      <trkpt lat="41.186204887926578521728515625" lon="-7.950069867074489593505859375">
        <ele>891.4000244140625</ele>
        <time>2019-05-01T11:19:12.000Z</time>
      </trkpt>
      <trkpt lat="41.1862246692180633544921875" lon="-7.950083278119564056396484375">
        <ele>891.5999755859375</ele>
        <time>2019-05-01T11:19:14.000Z</time>
      </trkpt>
      <trkpt lat="41.18632583878934383392333984375" lon="-7.95015561394393444061279296875">
        <ele>892</ele>
        <time>2019-05-01T11:19:26.000Z</time>
      </trkpt>
      <trkpt lat="41.18638317100703716278076171875" lon="-7.95020364224910736083984375">
        <ele>892.5999755859375</ele>
        <time>2019-05-01T11:19:51.000Z</time>
      </trkpt>
      <trkpt lat="41.18684987537562847137451171875" lon="-7.950587533414363861083984375">
        <ele>894.79998779296875</ele>
        <time>2019-05-01T11:20:14.000Z</time>
      </trkpt>
      <trkpt lat="41.18717291392385959625244140625" lon="-7.951125316321849822998046875">
        <ele>898</ele>
        <time>2019-05-01T11:20:37.000Z</time>
      </trkpt>
      <trkpt lat="41.18735052645206451416015625" lon="-7.951827384531497955322265625">
        <ele>902.5999755859375</ele>
        <time>2019-05-01T11:20:55.000Z</time>
      </trkpt>
      <trkpt lat="41.18754490278661251068115234375" lon="-7.95250522904098033905029296875">
        <ele>908.20001220703125</ele>
        <time>2019-05-01T11:21:13.000Z</time>
      </trkpt>
      <trkpt lat="41.1875065974891185760498046875" lon="-7.9532112367451190948486328125">
        <ele>912.5999755859375</ele>
        <time>2019-05-01T11:21:43.000Z</time>
      </trkpt>
      <trkpt lat="41.1875040829181671142578125" lon="-7.953444756567478179931640625">
        <ele>914.4000244140625</ele>
        <time>2019-05-01T11:21:53.000Z</time>
      </trkpt>
      <trkpt lat="41.18770482949912548065185546875" lon="-7.95409745536744594573974609375">
        <ele>919.20001220703125</ele>
        <time>2019-05-01T11:22:20.000Z</time>
      </trkpt>
      <trkpt lat="41.18783223442733287811279296875" lon="-7.95437439344823360443115234375">
        <ele>920.5999755859375</ele>
        <time>2019-05-01T11:22:35.000Z</time>
      </trkpt>
      <trkpt lat="41.187836341559886932373046875" lon="-7.95437975786626338958740234375">
        <ele>920.5999755859375</ele>
        <time>2019-05-01T11:24:14.000Z</time>
      </trkpt>
      <trkpt lat="41.18822081945836544036865234375" lon="-7.95489004813134670257568359375">
        <ele>920.20001220703125</ele>
        <time>2019-05-01T11:24:39.000Z</time>
      </trkpt>
      <trkpt lat="41.18863798677921295166015625" lon="-7.9553472809493541717529296875">
        <ele>919</ele>
        <time>2019-05-01T11:24:54.000Z</time>
      </trkpt>
      <trkpt lat="41.18914249353110790252685546875" lon="-7.9556201957166194915771484375">
        <ele>920.79998779296875</ele>
        <time>2019-05-01T11:25:09.000Z</time>
      </trkpt>
      <trkpt lat="41.1896879039704799652099609375" lon="-7.95578129589557647705078125">
        <ele>921.20001220703125</ele>
        <time>2019-05-01T11:25:25.000Z</time>
      </trkpt>
      <trkpt lat="41.1901214160025119781494140625" lon="-7.955859415233135223388671875">
        <ele>919.5999755859375</ele>
        <time>2019-05-01T11:25:37.000Z</time>
      </trkpt>
      <trkpt lat="41.19066162966191768646240234375" lon="-7.95577148906886577606201171875">
        <ele>917.4000244140625</ele>
        <time>2019-05-01T11:25:48.000Z</time>
      </trkpt>
      <trkpt lat="41.19107854552567005157470703125" lon="-7.955660261213779449462890625">
        <ele>917.5999755859375</ele>
        <time>2019-05-01T11:25:56.000Z</time>
      </trkpt>
      <trkpt lat="41.19160040281713008880615234375" lon="-7.955660261213779449462890625">
        <ele>918.4000244140625</ele>
        <time>2019-05-01T11:26:10.000Z</time>
      </trkpt>
      <trkpt lat="41.19164214469492435455322265625" lon="-7.95575321651995182037353515625">
        <ele>918.4000244140625</ele>
        <time>2019-05-01T11:26:12.000Z</time>
      </trkpt>
      <trkpt lat="41.19194515049457550048828125" lon="-7.95634849928319454193115234375">
        <ele>919.4000244140625</ele>
        <time>2019-05-01T11:26:29.000Z</time>
      </trkpt>
      <trkpt lat="41.19228042662143707275390625" lon="-7.9569371603429317474365234375">
        <ele>919</ele>
        <time>2019-05-01T11:26:45.000Z</time>
      </trkpt>
      <trkpt lat="41.1923758126795291900634765625" lon="-7.9571074806153774261474609375">
        <ele>919.4000244140625</ele>
        <time>2019-05-01T11:26:49.000Z</time>
      </trkpt>
      <trkpt lat="41.1926983483135700225830078125" lon="-7.95768843032419681549072265625">
        <ele>917.20001220703125</ele>
        <time>2019-05-01T11:27:04.000Z</time>
      </trkpt>
      <trkpt lat="41.19308064691722393035888671875" lon="-7.958047091960906982421875">
        <ele>911.4000244140625</ele>
        <time>2019-05-01T11:27:18.000Z</time>
      </trkpt>
      <trkpt lat="41.19318810291588306427001953125" lon="-7.9581582359969615936279296875">
        <ele>910.20001220703125</ele>
        <time>2019-05-01T11:27:21.000Z</time>
      </trkpt>
      <trkpt lat="41.193341575562953948974609375" lon="-7.95828036032617092132568359375">
        <ele>909.4000244140625</ele>
        <time>2019-05-01T11:27:25.000Z</time>
      </trkpt>
      <trkpt lat="41.1934074573218822479248046875" lon="-7.95835009776055812835693359375">
        <ele>908.4000244140625</ele>
        <time>2019-05-01T11:27:27.000Z</time>
      </trkpt>
      <trkpt lat="41.1936850659549236297607421875" lon="-7.95875142328441143035888671875">
        <ele>901.79998779296875</ele>
        <time>2019-05-01T11:27:45.000Z</time>
      </trkpt>
      <trkpt lat="41.1937061883509159088134765625" lon="-7.95874337665736675262451171875">
        <ele>901.79998779296875</ele>
        <time>2019-05-01T11:28:29.000Z</time>
      </trkpt>
      <trkpt lat="41.19412134401500225067138671875" lon="-7.9585498385131359100341796875">
        <ele>904.20001220703125</ele>
        <time>2019-05-01T11:28:41.000Z</time>
      </trkpt>
      <trkpt lat="41.19434329681098461151123046875" lon="-7.95849879272282123565673828125">
        <ele>904</ele>
        <time>2019-05-01T11:28:46.000Z</time>
      </trkpt>
      <trkpt lat="41.19489063508808612823486328125" lon="-7.95847825706005096435546875">
        <ele>900.4000244140625</ele>
        <time>2019-05-01T11:28:58.000Z</time>
      </trkpt>
      <trkpt lat="41.1949316225945949554443359375" lon="-7.95846258290112018585205078125">
        <ele>900.20001220703125</ele>
        <time>2019-05-01T11:28:59.000Z</time>
      </trkpt>
      <trkpt lat="41.1952360533177852630615234375" lon="-7.95837725512683391571044921875">
        <ele>898</ele>
        <time>2019-05-01T11:29:08.000Z</time>
      </trkpt>
      <trkpt lat="41.19549782015383243560791015625" lon="-7.958420924842357635498046875">
        <ele>894.20001220703125</ele>
        <time>2019-05-01T11:29:13.000Z</time>
      </trkpt>
      <trkpt lat="41.19567216373980045318603515625" lon="-7.95856199227273464202880859375">
        <ele>890</ele>
        <time>2019-05-01T11:29:17.000Z</time>
      </trkpt>
      <trkpt lat="41.1958801187574863433837890625" lon="-7.958369962871074676513671875">
        <ele>888.4000244140625</ele>
        <time>2019-05-01T11:29:25.000Z</time>
      </trkpt>
      <trkpt lat="41.19592420756816864013671875" lon="-7.95822881162166595458984375">
        <ele>888.5999755859375</ele>
        <time>2019-05-01T11:29:28.000Z</time>
      </trkpt>
      <trkpt lat="41.19626241736114025115966796875" lon="-7.95802722685039043426513671875">
        <ele>883.5999755859375</ele>
        <time>2019-05-01T11:29:37.000Z</time>
      </trkpt>
      <trkpt lat="41.1963545344769954681396484375" lon="-7.9580066911876201629638671875">
        <ele>882.20001220703125</ele>
        <time>2019-05-01T11:29:39.000Z</time>
      </trkpt>
      <trkpt lat="41.1966093443334102630615234375" lon="-7.957887835800647735595703125">
        <ele>878.5999755859375</ele>
        <time>2019-05-01T11:29:46.000Z</time>
      </trkpt>
      <trkpt lat="41.19669877924025058746337890625" lon="-7.95824968256056308746337890625">
        <ele>875.20001220703125</ele>
        <time>2019-05-01T11:29:52.000Z</time>
      </trkpt>
      <trkpt lat="41.19669375009834766387939453125" lon="-7.95832671225070953369140625">
        <ele>874.79998779296875</ele>
        <time>2019-05-01T11:29:53.000Z</time>
      </trkpt>
      <trkpt lat="41.19667581282556056976318359375" lon="-7.95847825706005096435546875">
        <ele>873.79998779296875</ele>
        <time>2019-05-01T11:29:55.000Z</time>
      </trkpt>
      <trkpt lat="41.19650892913341522216796875" lon="-7.95898544602096080780029296875">
        <ele>869.5999755859375</ele>
        <time>2019-05-01T11:30:02.000Z</time>
      </trkpt>
      <trkpt lat="41.19639954529702663421630859375" lon="-7.95958257280290126800537109375">
        <ele>863.79998779296875</ele>
        <time>2019-05-01T11:30:10.000Z</time>
      </trkpt>
      <trkpt lat="41.19612830691039562225341796875" lon="-7.9601665399968624114990234375">
        <ele>859.79998779296875</ele>
        <time>2019-05-01T11:30:18.000Z</time>
      </trkpt>
      <trkpt lat="41.19599050842225551605224609375" lon="-7.96033727936446666717529296875">
        <ele>858.5999755859375</ele>
        <time>2019-05-01T11:30:22.000Z</time>
      </trkpt>
      <trkpt lat="41.1959052644670009613037109375" lon="-7.960555963218212127685546875">
        <ele>856.4000244140625</ele>
        <time>2019-05-01T11:30:26.000Z</time>
      </trkpt>
      <trkpt lat="41.1958579905331134796142578125" lon="-7.9607408680021762847900390625">
        <ele>854.20001220703125</ele>
        <time>2019-05-01T11:30:29.000Z</time>
      </trkpt>
      <trkpt lat="41.1957594193518161773681640625" lon="-7.96109064482152462005615234375">
        <ele>850.79998779296875</ele>
        <time>2019-05-01T11:30:34.000Z</time>
      </trkpt>
      <trkpt lat="41.19577090255916118621826171875" lon="-7.96173135749995708465576171875">
        <ele>842.5999755859375</ele>
        <time>2019-05-01T11:30:43.000Z</time>
      </trkpt>
      <trkpt lat="41.19581700302660465240478515625" lon="-7.96248405240476131439208984375">
        <ele>831.20001220703125</ele>
        <time>2019-05-01T11:30:53.000Z</time>
      </trkpt>
      <trkpt lat="41.195846088230609893798828125" lon="-7.962582372128963470458984375">
        <ele>829.20001220703125</ele>
        <time>2019-05-01T11:30:55.000Z</time>
      </trkpt>
      <trkpt lat="41.19589059613645076751708984375" lon="-7.96268605627119541168212890625">
        <ele>827.20001220703125</ele>
        <time>2019-05-01T11:30:57.000Z</time>
      </trkpt>
      <trkpt lat="41.19619242846965789794921875" lon="-7.9633067362010478973388671875">
        <ele>816.20001220703125</ele>
        <time>2019-05-01T11:31:12.000Z</time>
      </trkpt>
      <trkpt lat="41.1963471584022045135498046875" lon="-7.963560707867145538330078125">
        <ele>810.79998779296875</ele>
        <time>2019-05-01T11:31:19.000Z</time>
      </trkpt>
      <trkpt lat="41.196789555251598358154296875" lon="-7.96369339339435100555419921875">
        <ele>806.20001220703125</ele>
        <time>2019-05-01T11:31:25.000Z</time>
      </trkpt>
      <trkpt lat="41.19704830460250377655029296875" lon="-7.963865138590335845947265625">
        <ele>802.4000244140625</ele>
        <time>2019-05-01T11:31:29.000Z</time>
      </trkpt>
      <trkpt lat="41.19722700677812099456787109375" lon="-7.96400637365877628326416015625">
        <ele>800</ele>
        <time>2019-05-01T11:31:33.000Z</time>
      </trkpt>
      <trkpt lat="41.19726606644690036773681640625" lon="-7.96405448578298091888427734375">
        <ele>799.4000244140625</ele>
        <time>2019-05-01T11:31:35.000Z</time>
      </trkpt>
      <trkpt lat="41.1972567625343799591064453125" lon="-7.9640694893896579742431640625">
        <ele>799.20001220703125</ele>
        <time>2019-05-01T11:31:38.000Z</time>
      </trkpt>
      <trkpt lat="41.19726388715207576751708984375" lon="-7.964095138013362884521484375">
        <ele>798.79998779296875</ele>
        <time>2019-05-01T11:32:17.000Z</time>
      </trkpt>
      <trkpt lat="41.1974009312689304351806640625" lon="-7.96422623097896575927734375">
        <ele>795</ele>
        <time>2019-05-01T11:32:22.000Z</time>
      </trkpt>
      <trkpt lat="41.1975248157978057861328125" lon="-7.9643918573856353759765625">
        <ele>790.20001220703125</ele>
        <time>2019-05-01T11:32:26.000Z</time>
      </trkpt>
      <trkpt lat="41.19784793816506862640380859375" lon="-7.96459377743303775787353515625">
        <ele>781.79998779296875</ele>
        <time>2019-05-01T11:32:35.000Z</time>
      </trkpt>
      <trkpt lat="41.19788196869194507598876953125" lon="-7.96525997109711170196533203125">
        <ele>775.79998779296875</ele>
        <time>2019-05-01T11:32:53.000Z</time>
      </trkpt>
      <trkpt lat="41.19787861593067646026611328125" lon="-7.9654186405241489410400390625">
        <ele>773.79998779296875</ele>
        <time>2019-05-01T11:32:56.000Z</time>
      </trkpt>
      <trkpt lat="41.197928823530673980712890625" lon="-7.96561737544834613800048828125">
        <ele>771.79998779296875</ele>
        <time>2019-05-01T11:33:00.000Z</time>
      </trkpt>
      <trkpt lat="41.197978444397449493408203125" lon="-7.96614057384431362152099609375">
        <ele>764.20001220703125</ele>
        <time>2019-05-01T11:33:11.000Z</time>
      </trkpt>
      <trkpt lat="41.19812169112265110015869140625" lon="-7.96667751856148242950439453125">
        <ele>754.20001220703125</ele>
        <time>2019-05-01T11:33:27.000Z</time>
      </trkpt>
      <trkpt lat="41.198226548731327056884765625" lon="-7.96660937368869781494140625">
        <ele>754.20001220703125</ele>
        <time>2019-05-01T11:33:32.000Z</time>
      </trkpt>
      <trkpt lat="41.1986272037029266357421875" lon="-7.966121546924114227294921875">
        <ele>758.20001220703125</ele>
        <time>2019-05-01T11:33:53.000Z</time>
      </trkpt>
      <trkpt lat="41.1990136094391345977783203125" lon="-7.965627349913120269775390625">
        <ele>757.4000244140625</ele>
        <time>2019-05-01T11:34:14.000Z</time>
      </trkpt>
      <trkpt lat="41.19914813898503780364990234375" lon="-7.96550824306905269622802734375">
        <ele>755.79998779296875</ele>
        <time>2019-05-01T11:34:18.000Z</time>
      </trkpt>
      <trkpt lat="41.19933807291090488433837890625" lon="-7.965463735163211822509765625">
        <ele>753.79998779296875</ele>
        <time>2019-05-01T11:34:23.000Z</time>
      </trkpt>
      <trkpt lat="41.19964401237666606903076171875" lon="-7.96498571522533893585205078125">
        <ele>751</ele>
        <time>2019-05-01T11:34:40.000Z</time>
      </trkpt>
      <trkpt lat="41.199610233306884765625" lon="-7.9649484157562255859375">
        <ele>751.5999755859375</ele>
        <time>2019-05-01T11:34:41.000Z</time>
      </trkpt>
      <trkpt lat="41.1995694972574710845947265625" lon="-7.96460517682135105133056640625">
        <ele>754.20001220703125</ele>
        <time>2019-05-01T11:34:54.000Z</time>
      </trkpt>
      <trkpt lat="41.19992983527481555938720703125" lon="-7.9645241238176822662353515625">
        <ele>753.20001220703125</ele>
        <time>2019-05-01T11:35:06.000Z</time>
      </trkpt>
      <trkpt lat="41.20029495097696781158447265625" lon="-7.96392180025577545166015625">
        <ele>753.5999755859375</ele>
        <time>2019-05-01T11:35:21.000Z</time>
      </trkpt>
      <trkpt lat="41.2004430592060089111328125" lon="-7.9631481505930423736572265625">
        <ele>747.5999755859375</ele>
        <time>2019-05-01T11:35:31.000Z</time>
      </trkpt>
      <trkpt lat="41.20043442584574222564697265625" lon="-7.96295176260173320770263671875">
        <ele>745</ele>
        <time>2019-05-01T11:35:33.000Z</time>
      </trkpt>
      <trkpt lat="41.200275756418704986572265625" lon="-7.96261330135166645050048828125">
        <ele>742.5999755859375</ele>
        <time>2019-05-01T11:35:37.000Z</time>
      </trkpt>
      <trkpt lat="41.200153715908527374267578125" lon="-7.96236318536102771759033203125">
        <ele>742.5999755859375</ele>
        <time>2019-05-01T11:35:40.000Z</time>
      </trkpt>
      <trkpt lat="41.2002625130116939544677734375" lon="-7.961701937019824981689453125">
        <ele>742.4000244140625</ele>
        <time>2019-05-01T11:35:47.000Z</time>
      </trkpt>
      <trkpt lat="41.20052863843739032745361328125" lon="-7.96151661314070224761962890625">
        <ele>742.20001220703125</ele>
        <time>2019-05-01T11:35:51.000Z</time>
      </trkpt>
      <trkpt lat="41.20108284987509250640869140625" lon="-7.96121469698846340179443359375">
        <ele>739.5999755859375</ele>
        <time>2019-05-01T11:35:58.000Z</time>
      </trkpt>
      <trkpt lat="41.20160353370010852813720703125" lon="-7.96092015691101551055908203125">
        <ele>737.5999755859375</ele>
        <time>2019-05-01T11:36:04.000Z</time>
      </trkpt>
      <trkpt lat="41.2021410651504993438720703125" lon="-7.96062469482421875">
        <ele>730</ele>
        <time>2019-05-01T11:36:12.000Z</time>
      </trkpt>
      <trkpt lat="41.202186830341815948486328125" lon="-7.96060281805694103240966796875">
        <ele>729.4000244140625</ele>
        <time>2019-05-01T11:36:13.000Z</time>
      </trkpt>
      <trkpt lat="41.2023532949388027191162109375" lon="-7.9605804383754730224609375">
        <ele>726</ele>
        <time>2019-05-01T11:36:18.000Z</time>
      </trkpt>
      <trkpt lat="41.2025316618382930755615234375" lon="-7.96057214029133319854736328125">
        <ele>721.20001220703125</ele>
        <time>2019-05-01T11:36:23.000Z</time>
      </trkpt>
      <trkpt lat="41.2027505971491336822509765625" lon="-7.96113858930766582489013671875">
        <ele>717.20001220703125</ele>
        <time>2019-05-01T11:36:32.000Z</time>
      </trkpt>
      <trkpt lat="41.20277415029704570770263671875" lon="-7.96170788817107677459716796875">
        <ele>710.20001220703125</ele>
        <time>2019-05-01T11:36:38.000Z</time>
      </trkpt>
      <trkpt lat="41.20311043225228786468505859375" lon="-7.96232320368289947509765625">
        <ele>705.5999755859375</ele>
        <time>2019-05-01T11:36:44.000Z</time>
      </trkpt>
      <trkpt lat="41.20318670757114887237548828125" lon="-7.96240643598139286041259765625">
        <ele>704.5999755859375</ele>
        <time>2019-05-01T11:36:45.000Z</time>
      </trkpt>
      <trkpt lat="41.2032538466155529022216796875" lon="-7.96249687671661376953125">
        <ele>704</ele>
        <time>2019-05-01T11:36:46.000Z</time>
      </trkpt>
      <trkpt lat="41.20368358679115772247314453125" lon="-7.96269477345049381256103515625">
        <ele>700.20001220703125</ele>
        <time>2019-05-01T11:36:51.000Z</time>
      </trkpt>
      <trkpt lat="41.20387419126927852630615234375" lon="-7.9627468250691890716552734375">
        <ele>696.79998779296875</ele>
        <time>2019-05-01T11:36:53.000Z</time>
      </trkpt>
      <trkpt lat="41.2042080424726009368896484375" lon="-7.96297942288219928741455078125">
        <ele>686</ele>
        <time>2019-05-01T11:36:57.000Z</time>
      </trkpt>
      <trkpt lat="41.20444164611399173736572265625" lon="-7.963743098080158233642578125">
        <ele>672.5999755859375</ele>
        <time>2019-05-01T11:37:03.000Z</time>
      </trkpt>
      <trkpt lat="41.20445891283452510833740234375" lon="-7.96387846581637859344482421875">
        <ele>671.20001220703125</ele>
        <time>2019-05-01T11:37:04.000Z</time>
      </trkpt>
      <trkpt lat="41.2044529616832733154296875" lon="-7.96413428150117397308349609375">
        <ele>669.79998779296875</ele>
        <time>2019-05-01T11:37:06.000Z</time>
      </trkpt>
      <trkpt lat="41.204123385250568389892578125" lon="-7.96469301916658878326416015625">
        <ele>672.79998779296875</ele>
        <time>2019-05-01T11:37:12.000Z</time>
      </trkpt>
      <trkpt lat="41.2040306814014911651611328125" lon="-7.96481321565806865692138671875">
        <ele>674</ele>
        <time>2019-05-01T11:37:14.000Z</time>
      </trkpt>
      <trkpt lat="41.2043605931103229522705078125" lon="-7.9651162214577198028564453125">
        <ele>666.79998779296875</ele>
        <time>2019-05-01T11:37:21.000Z</time>
      </trkpt>
      <trkpt lat="41.20471506379544734954833984375" lon="-7.96519844792783260345458984375">
        <ele>662</ele>
        <time>2019-05-01T11:37:26.000Z</time>
      </trkpt>
      <trkpt lat="41.20499485172331333160400390625" lon="-7.965461052954196929931640625">
        <ele>659.79998779296875</ele>
        <time>2019-05-01T11:37:31.000Z</time>
      </trkpt>
      <trkpt lat="41.2055350653827190399169921875" lon="-7.96579322777688503265380859375">
        <ele>653</ele>
        <time>2019-05-01T11:37:42.000Z</time>
      </trkpt>
      <trkpt lat="41.2060466967523097991943359375" lon="-7.9661582596600055694580078125">
        <ele>646</ele>
        <time>2019-05-01T11:37:49.000Z</time>
      </trkpt>
      <trkpt lat="41.2064993195235729217529296875" lon="-7.966609038412570953369140625">
        <ele>642.79998779296875</ele>
        <time>2019-05-01T11:37:54.000Z</time>
      </trkpt>
      <trkpt lat="41.20669822208583354949951171875" lon="-7.966881953179836273193359375">
        <ele>638.5999755859375</ele>
        <time>2019-05-01T11:37:57.000Z</time>
      </trkpt>
      <trkpt lat="41.20667525567114353179931640625" lon="-7.967293672263622283935546875">
        <ele>636.5999755859375</ele>
        <time>2019-05-01T11:38:01.000Z</time>
      </trkpt>
      <trkpt lat="41.20665304362773895263671875" lon="-7.96748151071369647979736328125">
        <ele>636.20001220703125</ele>
        <time>2019-05-01T11:38:03.000Z</time>
      </trkpt>
      <trkpt lat="41.206991337239742279052734375" lon="-7.96806581318378448486328125">
        <ele>626</ele>
        <time>2019-05-01T11:38:09.000Z</time>
      </trkpt>
      <trkpt lat="41.2074516713619232177734375" lon="-7.9686027579009532928466796875">
        <ele>618.5999755859375</ele>
        <time>2019-05-01T11:38:14.000Z</time>
      </trkpt>
      <trkpt lat="41.20792583562433719635009765625" lon="-7.969136349856853485107421875">
        <ele>611.20001220703125</ele>
        <time>2019-05-01T11:38:19.000Z</time>
      </trkpt>
      <trkpt lat="41.20839488692581653594970703125" lon="-7.9696209914982318878173828125">
        <ele>603</ele>
        <time>2019-05-01T11:38:24.000Z</time>
      </trkpt>
      <trkpt lat="41.208868883550167083740234375" lon="-7.97014988958835601806640625">
        <ele>594.4000244140625</ele>
        <time>2019-05-01T11:38:30.000Z</time>
      </trkpt>
      <trkpt lat="41.20933164842426776885986328125" lon="-7.970656491816043853759765625">
        <ele>587.79998779296875</ele>
        <time>2019-05-01T11:38:37.000Z</time>
      </trkpt>
      <trkpt lat="41.209379173815250396728515625" lon="-7.97072731889784336090087890625">
        <ele>586.79998779296875</ele>
        <time>2019-05-01T11:38:38.000Z</time>
      </trkpt>
      <trkpt lat="41.20925419963896274566650390625" lon="-7.9712826199829578399658203125">
        <ele>586</ele>
        <time>2019-05-01T11:38:46.000Z</time>
      </trkpt>
      <trkpt lat="41.20914003811776638031005859375" lon="-7.97136853449046611785888671875">
        <ele>587.79998779296875</ele>
        <time>2019-05-01T11:38:48.000Z</time>
      </trkpt>
      <trkpt lat="41.20868347585201263427734375" lon="-7.9716148786246776580810546875">
        <ele>592</ele>
        <time>2019-05-01T11:38:56.000Z</time>
      </trkpt>
      <trkpt lat="41.20892479084432125091552734375" lon="-7.97193364240229129791259765625">
        <ele>591.20001220703125</ele>
        <time>2019-05-01T11:39:02.000Z</time>
      </trkpt>
      <trkpt lat="41.2092174030840396881103515625" lon="-7.972082085907459259033203125">
        <ele>587.79998779296875</ele>
        <time>2019-05-01T11:39:07.000Z</time>
      </trkpt>
      <trkpt lat="41.2094366736710071563720703125" lon="-7.97223974950611591339111328125">
        <ele>586.20001220703125</ele>
        <time>2019-05-01T11:39:11.000Z</time>
      </trkpt>
      <trkpt lat="41.20966725982725620269775390625" lon="-7.9722426831722259521484375">
        <ele>582.4000244140625</ele>
        <time>2019-05-01T11:39:15.000Z</time>
      </trkpt>
      <trkpt lat="41.2101528234779834747314453125" lon="-7.97264224849641323089599609375">
        <ele>581.20001220703125</ele>
        <time>2019-05-01T11:39:26.000Z</time>
      </trkpt>
      <trkpt lat="41.210282742977142333984375" lon="-7.972715757787227630615234375">
        <ele>580.4000244140625</ele>
        <time>2019-05-01T11:39:29.000Z</time>
      </trkpt>
      <trkpt lat="41.21035574935376644134521484375" lon="-7.9727789573371410369873046875">
        <ele>580.5999755859375</ele>
        <time>2019-05-01T11:39:31.000Z</time>
      </trkpt>
      <trkpt lat="41.21072597801685333251953125" lon="-7.97331363894045352935791015625">
        <ele>585.20001220703125</ele>
        <time>2019-05-01T11:39:46.000Z</time>
      </trkpt>
      <trkpt lat="41.21100719086825847625732421875" lon="-7.97394362278282642364501953125">
        <ele>580.5999755859375</ele>
        <time>2019-05-01T11:39:57.000Z</time>
      </trkpt>
      <trkpt lat="41.21106326580047607421875" lon="-7.9741512425243854522705078125">
        <ele>580.5999755859375</ele>
        <time>2019-05-01T11:40:00.000Z</time>
      </trkpt>
      <trkpt lat="41.21109385974705219268798828125" lon="-7.9742917232215404510498046875">
        <ele>580</ele>
        <time>2019-05-01T11:40:05.000Z</time>
      </trkpt>
      <trkpt lat="41.21106804348528385162353515625" lon="-7.974345870316028594970703125">
        <ele>580</ele>
        <time>2019-05-01T11:42:04.000Z</time>
      </trkpt>
      <trkpt lat="41.21095530688762664794921875" lon="-7.97475658357143402099609375">
        <ele>578.5999755859375</ele>
        <time>2019-05-01T11:42:14.000Z</time>
      </trkpt>
      <trkpt lat="41.21070762164890766143798828125" lon="-7.97541179694235324859619140625">
        <ele>578.79998779296875</ele>
        <time>2019-05-01T11:42:22.000Z</time>
      </trkpt>
      <trkpt lat="41.2105035223066806793212890625" lon="-7.9760831035673618316650390625">
        <ele>580</ele>
        <time>2019-05-01T11:42:29.000Z</time>
      </trkpt>
      <trkpt lat="41.2104072980582714080810546875" lon="-7.9763134382665157318115234375">
        <ele>583.79998779296875</ele>
        <time>2019-05-01T11:42:32.000Z</time>
      </trkpt>
      <trkpt lat="41.21072086505591869354248046875" lon="-7.9765199683606624603271484375">
        <ele>584.4000244140625</ele>
        <time>2019-05-01T11:42:40.000Z</time>
      </trkpt>
      <trkpt lat="41.21077316813170909881591796875" lon="-7.97648970969021320343017578125">
        <ele>583.5999755859375</ele>
        <time>2019-05-01T11:42:41.000Z</time>
      </trkpt>
      <trkpt lat="41.21126535348594188690185546875" lon="-7.9761600494384765625">
        <ele>577.79998779296875</ele>
        <time>2019-05-01T11:42:51.000Z</time>
      </trkpt>
      <trkpt lat="41.21142628602683544158935546875" lon="-7.97612526454031467437744140625">
        <ele>579.20001220703125</ele>
        <time>2019-05-01T11:42:54.000Z</time>
      </trkpt>
      <trkpt lat="41.211785785853862762451171875" lon="-7.97607463784515857696533203125">
        <ele>581.4000244140625</ele>
        <time>2019-05-01T11:43:01.000Z</time>
      </trkpt>
      <trkpt lat="41.21233304031193256378173828125" lon="-7.9759602248668670654296875">
        <ele>582.4000244140625</ele>
        <time>2019-05-01T11:43:18.000Z</time>
      </trkpt>
      <trkpt lat="41.21288926340639591217041015625" lon="-7.97581697814166545867919921875">
        <ele>576.79998779296875</ele>
        <time>2019-05-01T11:43:37.000Z</time>
      </trkpt>
      <trkpt lat="41.21330433525145053863525390625" lon="-7.9762150347232818603515625">
        <ele>577.79998779296875</ele>
        <time>2019-05-01T11:43:53.000Z</time>
      </trkpt>
      <trkpt lat="41.213431991636753082275390625" lon="-7.9764478839933872222900390625">
        <ele>577.5999755859375</ele>
        <time>2019-05-01T11:43:58.000Z</time>
      </trkpt>
      <trkpt lat="41.213596947491168975830078125" lon="-7.9765987582504749298095703125">
        <ele>576</ele>
        <time>2019-05-01T11:44:03.000Z</time>
      </trkpt>
      <trkpt lat="41.2137422896921634674072265625" lon="-7.97671400941908359527587890625">
        <ele>574.4000244140625</ele>
        <time>2019-05-01T11:44:07.000Z</time>
      </trkpt>
      <trkpt lat="41.2139652483165264129638671875" lon="-7.97707878984510898590087890625">
        <ele>573.4000244140625</ele>
        <time>2019-05-01T11:44:16.000Z</time>
      </trkpt>
      <trkpt lat="41.21409575454890727996826171875" lon="-7.977304346859455108642578125">
        <ele>572.79998779296875</ele>
        <time>2019-05-01T11:44:21.000Z</time>
      </trkpt>
      <trkpt lat="41.2141959182918071746826171875" lon="-7.97781296074390411376953125">
        <ele>576.5999755859375</ele>
        <time>2019-05-01T11:44:28.000Z</time>
      </trkpt>
      <trkpt lat="41.21437202207744121551513671875" lon="-7.9781346581876277923583984375">
        <ele>575.5999755859375</ele>
        <time>2019-05-01T11:44:32.000Z</time>
      </trkpt>
      <trkpt lat="41.21478390879929065704345703125" lon="-7.978562973439693450927734375">
        <ele>571.4000244140625</ele>
        <time>2019-05-01T11:44:41.000Z</time>
      </trkpt>
      <trkpt lat="41.2147826515138149261474609375" lon="-7.9789374768733978271484375">
        <ele>572.4000244140625</ele>
        <time>2019-05-01T11:44:46.000Z</time>
      </trkpt>
      <trkpt lat="41.21479195542633533477783203125" lon="-7.97904141247272491455078125">
        <ele>572.4000244140625</ele>
        <time>2019-05-01T11:44:47.000Z</time>
      </trkpt>
      <trkpt lat="41.21512304060161113739013671875" lon="-7.979666031897068023681640625">
        <ele>565.20001220703125</ele>
        <time>2019-05-01T11:44:54.000Z</time>
      </trkpt>
      <trkpt lat="41.21517517603933811187744140625" lon="-7.9798794351518154144287109375">
        <ele>564.20001220703125</ele>
        <time>2019-05-01T11:44:56.000Z</time>
      </trkpt>
      <trkpt lat="41.21528045274317264556884765625" lon="-7.98017187975347042083740234375">
        <ele>560.79998779296875</ele>
        <time>2019-05-01T11:44:59.000Z</time>
      </trkpt>
      <trkpt lat="41.21555856429040431976318359375" lon="-7.980421073734760284423828125">
        <ele>552.5999755859375</ele>
        <time>2019-05-01T11:45:04.000Z</time>
      </trkpt>
      <trkpt lat="41.21564623899757862091064453125" lon="-7.9806431941688060760498046875">
        <ele>552.20001220703125</ele>
        <time>2019-05-01T11:45:07.000Z</time>
      </trkpt>
      <trkpt lat="41.2156010605394840240478515625" lon="-7.98105432651937007904052734375">
        <ele>558.79998779296875</ele>
        <time>2019-05-01T11:45:13.000Z</time>
      </trkpt>
      <trkpt lat="41.21564070694148540496826171875" lon="-7.9812245629727840423583984375">
        <ele>560.79998779296875</ele>
        <time>2019-05-01T11:45:17.000Z</time>
      </trkpt>
      <trkpt lat="41.2160266935825347900390625" lon="-7.98175438307225704193115234375">
        <ele>558</ele>
        <time>2019-05-01T11:45:27.000Z</time>
      </trkpt>
      <trkpt lat="41.2160754762589931488037109375" lon="-7.98179143108427524566650390625">
        <ele>557.4000244140625</ele>
        <time>2019-05-01T11:45:28.000Z</time>
      </trkpt>
      <trkpt lat="41.21642525307834148406982421875" lon="-7.98210407607257366180419921875">
        <ele>553.5999755859375</ele>
        <time>2019-05-01T11:45:35.000Z</time>
      </trkpt>
      <trkpt lat="41.2164814956486225128173828125" lon="-7.982185296714305877685546875">
        <ele>553.4000244140625</ele>
        <time>2019-05-01T11:45:36.000Z</time>
      </trkpt>
      <trkpt lat="41.21691651642322540283203125" lon="-7.98265074379742145538330078125">
        <ele>545.20001220703125</ele>
        <time>2019-05-01T11:45:43.000Z</time>
      </trkpt>
      <trkpt lat="41.21695348061621189117431640625" lon="-7.982724420726299285888671875">
        <ele>545</ele>
        <time>2019-05-01T11:45:44.000Z</time>
      </trkpt>
      <trkpt lat="41.21709865517914295196533203125" lon="-7.98309934325516223907470703125">
        <ele>545</ele>
        <time>2019-05-01T11:45:49.000Z</time>
      </trkpt>
      <trkpt lat="41.21729412116110324859619140625" lon="-7.983280979096889495849609375">
        <ele>539.4000244140625</ele>
        <time>2019-05-01T11:45:53.000Z</time>
      </trkpt>
      <trkpt lat="41.21741943061351776123046875" lon="-7.983961589634418487548828125">
        <ele>536.4000244140625</ele>
        <time>2019-05-01T11:46:01.000Z</time>
      </trkpt>
      <trkpt lat="41.2174152396619319915771484375" lon="-7.9840559698641300201416015625">
        <ele>536.79998779296875</ele>
        <time>2019-05-01T11:46:02.000Z</time>
      </trkpt>
      <trkpt lat="41.21742571704089641571044921875" lon="-7.9842326603829860687255859375">
        <ele>536.5999755859375</ele>
        <time>2019-05-01T11:46:04.000Z</time>
      </trkpt>
      <trkpt lat="41.21748916804790496826171875" lon="-7.984864823520183563232421875">
        <ele>533.20001220703125</ele>
        <time>2019-05-01T11:46:12.000Z</time>
      </trkpt>
      <trkpt lat="41.21774037368595600128173828125" lon="-7.98542699776589870452880859375">
        <ele>522.5999755859375</ele>
        <time>2019-05-01T11:46:22.000Z</time>
      </trkpt>
      <trkpt lat="41.21764666400849819183349609375" lon="-7.98562355339527130126953125">
        <ele>527.5999755859375</ele>
        <time>2019-05-01T11:46:25.000Z</time>
      </trkpt>
      <trkpt lat="41.2176217697560787200927734375" lon="-7.98569270409643650054931640625">
        <ele>529</ele>
        <time>2019-05-01T11:46:26.000Z</time>
      </trkpt>
      <trkpt lat="41.21780642308294773101806640625" lon="-7.986232079565525054931640625">
        <ele>522</ele>
        <time>2019-05-01T11:46:34.000Z</time>
      </trkpt>
      <trkpt lat="41.21790415607392787933349609375" lon="-7.9863197542726993560791015625">
        <ele>517.4000244140625</ele>
        <time>2019-05-01T11:46:36.000Z</time>
      </trkpt>
      <trkpt lat="41.21807632036507129669189453125" lon="-7.98644858412444591522216796875">
        <ele>509</ele>
        <time>2019-05-01T11:46:40.000Z</time>
      </trkpt>
      <trkpt lat="41.21814689598977565765380859375" lon="-7.98686063848435878753662109375">
        <ele>506.600006103515625</ele>
        <time>2019-05-01T11:46:45.000Z</time>
      </trkpt>
      <trkpt lat="41.21816114522516727447509765625" lon="-7.986960299313068389892578125">
        <ele>506.600006103515625</ele>
        <time>2019-05-01T11:46:46.000Z</time>
      </trkpt>
      <trkpt lat="41.218180842697620391845703125" lon="-7.98717546276748180389404296875">
        <ele>507</ele>
        <time>2019-05-01T11:46:48.000Z</time>
      </trkpt>
      <trkpt lat="41.21809802949428558349609375" lon="-7.98762640915811061859130859375">
        <ele>511</ele>
        <time>2019-05-01T11:46:52.000Z</time>
      </trkpt>
      <trkpt lat="41.218086294829845428466796875" lon="-7.98771827481687068939208984375">
        <ele>512.5999755859375</ele>
        <time>2019-05-01T11:46:53.000Z</time>
      </trkpt>
      <trkpt lat="41.21847379021346569061279296875" lon="-7.98803745768964290618896484375">
        <ele>509</ele>
        <time>2019-05-01T11:47:02.000Z</time>
      </trkpt>
      <trkpt lat="41.21867378242313861846923828125" lon="-7.98808674328029155731201171875">
        <ele>507.399993896484375</ele>
        <time>2019-05-01T11:47:06.000Z</time>
      </trkpt>
      <trkpt lat="41.21883706189692020416259765625" lon="-7.98809512518346309661865234375">
        <ele>505.79998779296875</ele>
        <time>2019-05-01T11:47:09.000Z</time>
      </trkpt>
      <trkpt lat="41.2190041132271289825439453125" lon="-7.988049946725368499755859375">
        <ele>502</ele>
        <time>2019-05-01T11:47:12.000Z</time>
      </trkpt>
      <trkpt lat="41.21920980513095855712890625" lon="-7.9881097935140132904052734375">
        <ele>498.600006103515625</ele>
        <time>2019-05-01T11:47:19.000Z</time>
      </trkpt>
      <trkpt lat="41.21924375183880329132080078125" lon="-7.988130412995815277099609375">
        <ele>498.20001220703125</ele>
        <time>2019-05-01T11:47:23.000Z</time>
      </trkpt>
      <trkpt lat="41.21939378790557384490966796875" lon="-7.988235689699649810791015625">
        <ele>495</ele>
        <time>2019-05-01T11:47:33.000Z</time>
      </trkpt>
      <trkpt lat="41.21942614205181598663330078125" lon="-7.98829562030732631683349609375">
        <ele>494.79998779296875</ele>
        <time>2019-05-01T11:48:30.000Z</time>
      </trkpt>
      <trkpt lat="41.21957668103277683258056640625" lon="-7.98870499245822429656982421875">
        <ele>499.399993896484375</ele>
        <time>2019-05-01T11:48:38.000Z</time>
      </trkpt>
      <trkpt lat="41.219867952167987823486328125" lon="-7.98887782730162143707275390625">
        <ele>494.79998779296875</ele>
        <time>2019-05-01T11:48:43.000Z</time>
      </trkpt>
      <trkpt lat="41.22018520720303058624267578125" lon="-7.98905074596405029296875">
        <ele>488.79998779296875</ele>
        <time>2019-05-01T11:48:48.000Z</time>
      </trkpt>
      <trkpt lat="41.22044286690652370452880859375" lon="-7.9896393232047557830810546875">
        <ele>495.79998779296875</ele>
        <time>2019-05-01T11:48:57.000Z</time>
      </trkpt>
      <trkpt lat="41.22053188271820545196533203125" lon="-7.9896423406898975372314453125">
        <ele>494</ele>
        <time>2019-05-01T11:48:59.000Z</time>
      </trkpt>
      <trkpt lat="41.220816783607006072998046875" lon="-7.9896758683025836944580078125">
        <ele>488.600006103515625</ele>
        <time>2019-05-01T11:49:05.000Z</time>
      </trkpt>
      <trkpt lat="41.22093320824205875396728515625" lon="-7.9897399060428142547607421875">
        <ele>488</ele>
        <time>2019-05-01T11:49:07.000Z</time>
      </trkpt>
      <trkpt lat="41.221305616199970245361328125" lon="-7.99010577611625194549560546875">
        <ele>479.600006103515625</ele>
        <time>2019-05-01T11:49:13.000Z</time>
      </trkpt>
      <trkpt lat="41.22143679298460483551025390625" lon="-7.99051724374294281005859375">
        <ele>482.600006103515625</ele>
        <time>2019-05-01T11:49:17.000Z</time>
      </trkpt>
      <trkpt lat="41.22151860035955905914306640625" lon="-7.99071849323809146881103515625">
        <ele>484</ele>
        <time>2019-05-01T11:49:19.000Z</time>
      </trkpt>
      <trkpt lat="41.22203953564167022705078125" lon="-7.99118720926344394683837890625">
        <ele>472.600006103515625</ele>
        <time>2019-05-01T11:49:26.000Z</time>
      </trkpt>
      <trkpt lat="41.22245351783931255340576171875" lon="-7.991705127060413360595703125">
        <ele>472.600006103515625</ele>
        <time>2019-05-01T11:49:31.000Z</time>
      </trkpt>
      <trkpt lat="41.2225525081157684326171875" lon="-7.99179338850080966949462890625">
        <ele>470.600006103515625</ele>
        <time>2019-05-01T11:49:32.000Z</time>
      </trkpt>
      <trkpt lat="41.22305165044963359832763671875" lon="-7.99213821999728679656982421875">
        <ele>461.79998779296875</ele>
        <time>2019-05-01T11:49:38.000Z</time>
      </trkpt>
      <trkpt lat="41.22330419719219207763671875" lon="-7.992461510002613067626953125">
        <ele>466.79998779296875</ele>
        <time>2019-05-01T11:49:42.000Z</time>
      </trkpt>
      <trkpt lat="41.223658584058284759521484375" lon="-7.99303960986435413360595703125">
        <ele>462.79998779296875</ele>
        <time>2019-05-01T11:49:47.000Z</time>
      </trkpt>
      <trkpt lat="41.224196366965770721435546875" lon="-7.9934544302523136138916015625">
        <ele>454</ele>
        <time>2019-05-01T11:49:53.000Z</time>
      </trkpt>
      <trkpt lat="41.2246572040021419525146484375" lon="-7.99389204941689968109130859375">
        <ele>444.399993896484375</ele>
        <time>2019-05-01T11:50:06.000Z</time>
      </trkpt>
      <trkpt lat="41.2247202359139919281005859375" lon="-7.99462496303021907806396484375">
        <ele>448.399993896484375</ele>
        <time>2019-05-01T11:50:23.000Z</time>
      </trkpt>
      <trkpt lat="41.2248082458972930908203125" lon="-7.9951764084398746490478515625">
        <ele>454</ele>
        <time>2019-05-01T11:50:34.000Z</time>
      </trkpt>
      <trkpt lat="41.225035227835178375244140625" lon="-7.9953440465033054351806640625">
        <ele>449.20001220703125</ele>
        <time>2019-05-01T11:50:41.000Z</time>
      </trkpt>
      <trkpt lat="41.22518903575837612152099609375" lon="-7.9955458827316761016845703125">
        <ele>446.79998779296875</ele>
        <time>2019-05-01T11:50:47.000Z</time>
      </trkpt>
      <trkpt lat="41.2252734415233135223388671875" lon="-7.99587956629693508148193359375">
        <ele>442.79998779296875</ele>
        <time>2019-05-01T11:50:51.000Z</time>
      </trkpt>
      <trkpt lat="41.2253232300281524658203125" lon="-7.99619841389358043670654296875">
        <ele>443.79998779296875</ele>
        <time>2019-05-01T11:50:54.000Z</time>
      </trkpt>
      <trkpt lat="41.22555146925151348114013671875" lon="-7.9965383000671863555908203125">
        <ele>434</ele>
        <time>2019-05-01T11:50:58.000Z</time>
      </trkpt>
      <trkpt lat="41.22561768628656864166259765625" lon="-7.9973178170621395111083984375">
        <ele>439.600006103515625</ele>
        <time>2019-05-01T11:51:05.000Z</time>
      </trkpt>
      <trkpt lat="41.2255212105810642242431640625" lon="-7.9976110160350799560546875">
        <ele>447.20001220703125</ele>
        <time>2019-05-01T11:51:08.000Z</time>
      </trkpt>
      <trkpt lat="41.225475780665874481201171875" lon="-7.99777404405176639556884765625">
        <ele>450.79998779296875</ele>
        <time>2019-05-01T11:51:10.000Z</time>
      </trkpt>
      <trkpt lat="41.22570569626986980438232421875" lon="-7.99799582920968532562255859375">
        <ele>449.399993896484375</ele>
        <time>2019-05-01T11:51:17.000Z</time>
      </trkpt>
      <trkpt lat="41.22624414972960948944091796875" lon="-7.998096160590648651123046875">
        <ele>436.79998779296875</ele>
        <time>2019-05-01T11:51:34.000Z</time>
      </trkpt>
      <trkpt lat="41.22646207921206951141357421875" lon="-7.998280562460422515869140625">
        <ele>435.600006103515625</ele>
        <time>2019-05-01T11:51:41.000Z</time>
      </trkpt>
      <trkpt lat="41.22649468481540679931640625" lon="-7.9985211230814456939697265625">
        <ele>438.20001220703125</ele>
        <time>2019-05-01T11:51:45.000Z</time>
      </trkpt>
      <trkpt lat="41.2265220098197460174560546875" lon="-7.99866705201566219329833984375">
        <ele>438.20001220703125</ele>
        <time>2019-05-01T11:51:47.000Z</time>
      </trkpt>
      <trkpt lat="41.22658277861773967742919921875" lon="-7.9988446645438671112060546875">
        <ele>437</ele>
        <time>2019-05-01T11:51:50.000Z</time>
      </trkpt>
      <trkpt lat="41.22689777053892612457275390625" lon="-7.99928077496588230133056640625">
        <ele>427.399993896484375</ele>
        <time>2019-05-01T11:51:58.000Z</time>
      </trkpt>
      <trkpt lat="41.22689307667315006256103515625" lon="-7.99970137886703014373779296875">
        <ele>427.600006103515625</ele>
        <time>2019-05-01T11:52:03.000Z</time>
      </trkpt>
      <trkpt lat="41.2269625626504421234130859375" lon="-7.9999778978526592254638671875">
        <ele>424</ele>
        <time>2019-05-01T11:52:06.000Z</time>
      </trkpt>
      <trkpt lat="41.2270470522344112396240234375" lon="-8.00022742711007595062255859375">
        <ele>420.20001220703125</ele>
        <time>2019-05-01T11:52:09.000Z</time>
      </trkpt>
      <trkpt lat="41.227008998394012451171875" lon="-8.00082421861588954925537109375">
        <ele>422.600006103515625</ele>
        <time>2019-05-01T11:52:18.000Z</time>
      </trkpt>
      <trkpt lat="41.22706867754459381103515625" lon="-8.00088054500520229339599609375">
        <ele>420.20001220703125</ele>
        <time>2019-05-01T11:52:19.000Z</time>
      </trkpt>
      <trkpt lat="41.22717873193323612213134765625" lon="-8.0010266415774822235107421875">
        <ele>416.79998779296875</ele>
        <time>2019-05-01T11:52:21.000Z</time>
      </trkpt>
      <trkpt lat="41.22718024067580699920654296875" lon="-8.00142084248363971710205078125">
        <ele>418.600006103515625</ele>
        <time>2019-05-01T11:52:25.000Z</time>
      </trkpt>
      <trkpt lat="41.22719608247280120849609375" lon="-8.0015148036181926727294921875">
        <ele>418.20001220703125</ele>
        <time>2019-05-01T11:52:26.000Z</time>
      </trkpt>
      <trkpt lat="41.227423064410686492919921875" lon="-8.00194437615573406219482421875">
        <ele>412.399993896484375</ele>
        <time>2019-05-01T11:52:31.000Z</time>
      </trkpt>
      <trkpt lat="41.22748131863772869110107421875" lon="-8.00201310776174068450927734375">
        <ele>411</ele>
        <time>2019-05-01T11:52:32.000Z</time>
      </trkpt>
      <trkpt lat="41.2278403155505657196044921875" lon="-8.002342768013477325439453125">
        <ele>401.20001220703125</ele>
        <time>2019-05-01T11:52:38.000Z</time>
      </trkpt>
      <trkpt lat="41.2278533913195133209228515625" lon="-8.00275390036404132843017578125">
        <ele>406</ele>
        <time>2019-05-01T11:52:42.000Z</time>
      </trkpt>
      <trkpt lat="41.2278745137155055999755859375" lon="-8.0028515495359897613525390625">
        <ele>406.399993896484375</ele>
        <time>2019-05-01T11:52:43.000Z</time>
      </trkpt>
      <trkpt lat="41.22812119312584400177001953125" lon="-8.00317115150392055511474609375">
        <ele>395.79998779296875</ele>
        <time>2019-05-01T11:52:47.000Z</time>
      </trkpt>
      <trkpt lat="41.2283804453909397125244140625" lon="-8.003570549190044403076171875">
        <ele>384.600006103515625</ele>
        <time>2019-05-01T11:52:51.000Z</time>
      </trkpt>
      <trkpt lat="41.22865428216755390167236328125" lon="-8.0042580328881740570068359375">
        <ele>381.79998779296875</ele>
        <time>2019-05-01T11:52:58.000Z</time>
      </trkpt>
      <trkpt lat="41.22894127853214740753173828125" lon="-8.00438082776963710784912109375">
        <ele>369.600006103515625</ele>
        <time>2019-05-01T11:53:02.000Z</time>
      </trkpt>
      <trkpt lat="41.2290568649768829345703125" lon="-8.00446330569684505462646484375">
        <ele>364.20001220703125</ele>
        <time>2019-05-01T11:53:04.000Z</time>
      </trkpt>
      <trkpt lat="41.22920505702495574951171875" lon="-8.00513922236859798431396484375">
        <ele>361.20001220703125</ele>
        <time>2019-05-01T11:53:12.000Z</time>
      </trkpt>
      <trkpt lat="41.22909248806536197662353515625" lon="-8.00532513298094272613525390625">
        <ele>363.600006103515625</ele>
        <time>2019-05-01T11:53:14.000Z</time>
      </trkpt>
      <trkpt lat="41.22904638759791851043701171875" lon="-8.0054301582276821136474609375">
        <ele>364.20001220703125</ele>
        <time>2019-05-01T11:53:15.000Z</time>
      </trkpt>
      <trkpt lat="41.22894027270376682281494140625" lon="-8.00581010989844799041748046875">
        <ele>363.20001220703125</ele>
        <time>2019-05-01T11:53:19.000Z</time>
      </trkpt>
      <trkpt lat="41.22890858910977840423583984375" lon="-8.00588236190378665924072265625">
        <ele>363.20001220703125</ele>
        <time>2019-05-01T11:53:20.000Z</time>
      </trkpt>
      <trkpt lat="41.22863181866705417633056640625" lon="-8.00602720119059085845947265625">
        <ele>373.399993896484375</ele>
        <time>2019-05-01T11:53:25.000Z</time>
      </trkpt>
      <trkpt lat="41.22859041206538677215576171875" lon="-8.0060212500393390655517578125">
        <ele>374.600006103515625</ele>
        <time>2019-05-01T11:53:29.000Z</time>
      </trkpt>
      <trkpt lat="41.22858186252415180206298828125" lon="-8.006053268909454345703125">
        <ele>375.20001220703125</ele>
        <time>2019-05-01T11:53:36.000Z</time>
      </trkpt>
      <trkpt lat="41.2285678647458553314208984375" lon="-8.00608067773282527923583984375">
        <ele>376</ele>
        <time>2019-05-01T11:53:39.000Z</time>
      </trkpt>
      <trkpt lat="41.22854699380695819854736328125" lon="-8.006090819835662841796875">
        <ele>376.79998779296875</ele>
        <time>2019-05-01T11:55:51.000Z</time>
      </trkpt>
      <trkpt lat="41.2287130393087863922119140625" lon="-8.00644294358789920806884765625">
        <ele>373.20001220703125</ele>
        <time>2019-05-01T11:55:59.000Z</time>
      </trkpt>
      <trkpt lat="41.22885234653949737548828125" lon="-8.00658166408538818359375">
        <ele>368.20001220703125</ele>
        <time>2019-05-01T11:56:02.000Z</time>
      </trkpt>
      <trkpt lat="41.2291804142296314239501953125" lon="-8.00665064714848995208740234375">
        <ele>354.79998779296875</ele>
        <time>2019-05-01T11:56:07.000Z</time>
      </trkpt>
      <trkpt lat="41.22931159101426601409912109375" lon="-8.006659112870693206787109375">
        <ele>349</ele>
        <time>2019-05-01T11:56:09.000Z</time>
      </trkpt>
      <trkpt lat="41.2294050492346286773681640625" lon="-8.00702967680990695953369140625">
        <ele>347.79998779296875</ele>
        <time>2019-05-01T11:56:15.000Z</time>
      </trkpt>
      <trkpt lat="41.2292769737541675567626953125" lon="-8.00752940587699413299560546875">
        <ele>359.79998779296875</ele>
        <time>2019-05-01T11:56:22.000Z</time>
      </trkpt>
      <trkpt lat="41.22919055633246898651123046875" lon="-8.00786803476512432098388671875">
        <ele>366.600006103515625</ele>
        <time>2019-05-01T11:56:27.000Z</time>
      </trkpt>
      <trkpt lat="41.22916960157454013824462890625" lon="-8.00819166004657745361328125">
        <ele>370.600006103515625</ele>
        <time>2019-05-01T11:56:35.000Z</time>
      </trkpt>
      <trkpt lat="41.22918636538088321685791015625" lon="-8.0082240141928195953369140625">
        <ele>370.79998779296875</ele>
        <time>2019-05-01T12:03:41.000Z</time>
      </trkpt>
      <trkpt lat="41.22934184968471527099609375" lon="-8.00818495452404022216796875">
        <ele>366.399993896484375</ele>
        <time>2019-05-01T12:03:46.000Z</time>
      </trkpt>
      <trkpt lat="41.229518540203571319580078125" lon="-8.00802041776478290557861328125">
        <ele>358.20001220703125</ele>
        <time>2019-05-01T12:03:50.000Z</time>
      </trkpt>
      <trkpt lat="41.22968710027635097503662109375" lon="-8.00781254656612873077392578125">
        <ele>349</ele>
        <time>2019-05-01T12:03:54.000Z</time>
      </trkpt>
      <trkpt lat="41.229902096092700958251953125" lon="-8.00769872032105922698974609375">
        <ele>342.79998779296875</ele>
        <time>2019-05-01T12:03:58.000Z</time>
      </trkpt>
      <trkpt lat="41.23012597672641277313232421875" lon="-8.00767642445862293243408203125">
        <ele>340</ele>
        <time>2019-05-01T12:04:01.000Z</time>
      </trkpt>
      <trkpt lat="41.23035815544426441192626953125" lon="-8.007689081132411956787109375">
        <ele>338.20001220703125</ele>
        <time>2019-05-01T12:04:04.000Z</time>
      </trkpt>
      <trkpt lat="41.2305946089327335357666015625" lon="-8.00826952792704105377197265625">
        <ele>333.20001220703125</ele>
        <time>2019-05-01T12:04:12.000Z</time>
      </trkpt>
      <trkpt lat="41.23056896030902862548828125" lon="-8.0084412731230258941650390625">
        <ele>334.399993896484375</ele>
        <time>2019-05-01T12:04:14.000Z</time>
      </trkpt>
      <trkpt lat="41.23053006827831268310546875" lon="-8.00869993865489959716796875">
        <ele>338.20001220703125</ele>
        <time>2019-05-01T12:04:17.000Z</time>
      </trkpt>
      <trkpt lat="41.230844557285308837890625" lon="-8.009325899183750152587890625">
        <ele>330.79998779296875</ele>
        <time>2019-05-01T12:04:26.000Z</time>
      </trkpt>
      <trkpt lat="41.231024265289306640625" lon="-8.0097387917339801788330078125">
        <ele>331.600006103515625</ele>
        <time>2019-05-01T12:04:31.000Z</time>
      </trkpt>
      <trkpt lat="41.23109090141952037811279296875" lon="-8.01007666625082492828369140625">
        <ele>340.600006103515625</ele>
        <time>2019-05-01T12:04:35.000Z</time>
      </trkpt>
      <trkpt lat="41.23133816756308078765869140625" lon="-8.0099679529666900634765625">
        <ele>331.79998779296875</ele>
        <time>2019-05-01T12:04:43.000Z</time>
      </trkpt>
      <trkpt lat="41.23142131604254245758056640625" lon="-8.0098514445126056671142578125">
        <ele>326.399993896484375</ele>
        <time>2019-05-01T12:04:46.000Z</time>
      </trkpt>
      <trkpt lat="41.23166053555905818939208984375" lon="-8.00994054414331912994384765625">
        <ele>320.399993896484375</ele>
        <time>2019-05-01T12:04:51.000Z</time>
      </trkpt>
      <trkpt lat="41.23184678144752979278564453125" lon="-8.01010114140808582305908203125">
        <ele>316</ele>
        <time>2019-05-01T12:04:54.000Z</time>
      </trkpt>
      <trkpt lat="41.23217350803315639495849609375" lon="-8.010655939579010009765625">
        <ele>310.399993896484375</ele>
        <time>2019-05-01T12:05:00.000Z</time>
      </trkpt>
      <trkpt lat="41.23216294683516025543212890625" lon="-8.0114118196070194244384765625">
        <ele>320.399993896484375</ele>
        <time>2019-05-01T12:05:07.000Z</time>
      </trkpt>
      <trkpt lat="41.23234148137271404266357421875" lon="-8.01181666553020477294921875">
        <ele>320.20001220703125</ele>
        <time>2019-05-01T12:05:15.000Z</time>
      </trkpt>
      <trkpt lat="41.2329073436558246612548828125" lon="-8.0120240338146686553955078125">
        <ele>307.20001220703125</ele>
        <time>2019-05-01T12:05:23.000Z</time>
      </trkpt>
      <trkpt lat="41.23340162448585033416748046875" lon="-8.01228831522166728973388671875">
        <ele>300.79998779296875</ele>
        <time>2019-05-01T12:05:31.000Z</time>
      </trkpt>
      <trkpt lat="41.23346348293125629425048828125" lon="-8.0122478306293487548828125">
        <ele>297.600006103515625</ele>
        <time>2019-05-01T12:05:32.000Z</time>
      </trkpt>
      <trkpt lat="41.23352416791021823883056640625" lon="-8.01222561858594417572021484375">
        <ele>295.20001220703125</ele>
        <time>2019-05-01T12:05:33.000Z</time>
      </trkpt>
      <trkpt lat="41.2337301112711429595947265625" lon="-8.01242678426206111907958984375">
        <ele>295.600006103515625</ele>
        <time>2019-05-01T12:05:37.000Z</time>
      </trkpt>
      <trkpt lat="41.23382910154759883880615234375" lon="-8.01256122998893260955810546875">
        <ele>297</ele>
        <time>2019-05-01T12:05:39.000Z</time>
      </trkpt>
      <trkpt lat="41.234103776514530181884765625" lon="-8.01262962631881237030029296875">
        <ele>288.79998779296875</ele>
        <time>2019-05-01T12:05:43.000Z</time>
      </trkpt>
      <trkpt lat="41.2343004159629344940185546875" lon="-8.01295735873281955718994140625">
        <ele>286.600006103515625</ele>
        <time>2019-05-01T12:05:47.000Z</time>
      </trkpt>
      <trkpt lat="41.23451172374188899993896484375" lon="-8.01363612525165081024169921875">
        <ele>284.399993896484375</ele>
        <time>2019-05-01T12:05:54.000Z</time>
      </trkpt>
      <trkpt lat="41.23443092219531536102294921875" lon="-8.01432059146463871002197265625">
        <ele>296.399993896484375</ele>
        <time>2019-05-01T12:06:03.000Z</time>
      </trkpt>
      <trkpt lat="41.23444341123104095458984375" lon="-8.014353699982166290283203125">
        <ele>296.600006103515625</ele>
        <time>2019-05-01T12:06:06.000Z</time>
      </trkpt>
      <trkpt lat="41.23447132296860218048095703125" lon="-8.01435378380119800567626953125">
        <ele>295.399993896484375</ele>
        <time>2019-05-01T12:06:20.000Z</time>
      </trkpt>
      <trkpt lat="41.23436889611184597015380859375" lon="-8.01426711492240428924560546875">
        <ele>298</ele>
        <time>2019-05-01T12:06:30.000Z</time>
      </trkpt>
      <trkpt lat="41.23438213951885700225830078125" lon="-8.014246411621570587158203125">
        <ele>297</ele>
        <time>2019-05-01T12:06:32.000Z</time>
      </trkpt>
      <trkpt lat="41.23448238708078861236572265625" lon="-8.01430801860988140106201171875">
        <ele>293.79998779296875</ele>
        <time>2019-05-01T12:06:36.000Z</time>
      </trkpt>
      <trkpt lat="41.23499653302133083343505859375" lon="-8.0146408639848232269287109375">
        <ele>283</ele>
        <time>2019-05-01T12:06:48.000Z</time>
      </trkpt>
      <trkpt lat="41.23520339839160442352294921875" lon="-8.01480456255376338958740234375">
        <ele>279.79998779296875</ele>
        <time>2019-05-01T12:06:53.000Z</time>
      </trkpt>
      <trkpt lat="41.23527179472148418426513671875" lon="-8.01487631164491176605224609375">
        <ele>278.20001220703125</ele>
        <time>2019-05-01T12:06:55.000Z</time>
      </trkpt>
      <trkpt lat="41.23535343445837497711181640625" lon="-8.01500354893505573272705078125">
        <ele>277</ele>
        <time>2019-05-01T12:06:58.000Z</time>
      </trkpt>
      <trkpt lat="41.2354004569351673126220703125" lon="-8.0153311975300312042236328125">
        <ele>279.20001220703125</ele>
        <time>2019-05-01T12:07:03.000Z</time>
      </trkpt>
      <trkpt lat="41.23544697649776935577392578125" lon="-8.0157023482024669647216796875">
        <ele>279.600006103515625</ele>
        <time>2019-05-01T12:07:07.000Z</time>
      </trkpt>
      <trkpt lat="41.235694326460361480712890625" lon="-8.0160540528595447540283203125">
        <ele>272.20001220703125</ele>
        <time>2019-05-01T12:07:12.000Z</time>
      </trkpt>
      <trkpt lat="41.23574838973581790924072265625" lon="-8.01611314527690410614013671875">
        <ele>270.79998779296875</ele>
        <time>2019-05-01T12:07:13.000Z</time>
      </trkpt>
      <trkpt lat="41.23593379743397235870361328125" lon="-8.01651312969624996185302734375">
        <ele>269.600006103515625</ele>
        <time>2019-05-01T12:07:18.000Z</time>
      </trkpt>
      <trkpt lat="41.2360146827995777130126953125" lon="-8.01686366088688373565673828125">
        <ele>270.79998779296875</ele>
        <time>2019-05-01T12:07:22.000Z</time>
      </trkpt>
      <trkpt lat="41.23604795895516872406005859375" lon="-8.01723531447350978851318359375">
        <ele>273</ele>
        <time>2019-05-01T12:07:26.000Z</time>
      </trkpt>
      <trkpt lat="41.236214339733123779296875" lon="-8.01751107908785343170166015625">
        <ele>272</ele>
        <time>2019-05-01T12:07:30.000Z</time>
      </trkpt>
      <trkpt lat="41.23644291423261165618896484375" lon="-8.0177981592714786529541015625">
        <ele>265.399993896484375</ele>
        <time>2019-05-01T12:07:35.000Z</time>
      </trkpt>
      <trkpt lat="41.23653955757617950439453125" lon="-8.018094040453433990478515625">
        <ele>262.79998779296875</ele>
        <time>2019-05-01T12:07:39.000Z</time>
      </trkpt>
      <trkpt lat="41.23657635413110256195068359375" lon="-8.01853283308446407318115234375">
        <ele>262.79998779296875</ele>
        <time>2019-05-01T12:07:44.000Z</time>
      </trkpt>
      <trkpt lat="41.236154995858669281005859375" lon="-8.01896349526941776275634765625">
        <ele>278.20001220703125</ele>
        <time>2019-05-01T12:07:52.000Z</time>
      </trkpt>
      <trkpt lat="41.23630276881158351898193359375" lon="-8.0193431116640567779541015625">
        <ele>275.399993896484375</ele>
        <time>2019-05-01T12:08:01.000Z</time>
      </trkpt>
      <trkpt lat="41.2364139966666698455810546875" lon="-8.0194128490984439849853515625">
        <ele>273</ele>
        <time>2019-05-01T12:08:03.000Z</time>
      </trkpt>
      <trkpt lat="41.2366882525384426116943359375" lon="-8.01969238556921482086181640625">
        <ele>269.79998779296875</ele>
        <time>2019-05-01T12:08:09.000Z</time>
      </trkpt>
      <trkpt lat="41.23709770850837230682373046875" lon="-8.0198376439511775970458984375">
        <ele>259.600006103515625</ele>
        <time>2019-05-01T12:08:19.000Z</time>
      </trkpt>
      <trkpt lat="41.23729652725160121917724609375" lon="-8.02016177214682102203369140625">
        <ele>260.399993896484375</ele>
        <time>2019-05-01T12:08:26.000Z</time>
      </trkpt>
      <trkpt lat="41.2373809330165386199951171875" lon="-8.02032320760190486907958984375">
        <ele>260.79998779296875</ele>
        <time>2019-05-01T12:08:29.000Z</time>
      </trkpt>
      <trkpt lat="41.2375066615641117095947265625" lon="-8.020455725491046905517578125">
        <ele>259.20001220703125</ele>
        <time>2019-05-01T12:08:32.000Z</time>
      </trkpt>
      <trkpt lat="41.23777111060917377471923828125" lon="-8.02094061858952045440673828125">
        <ele>258.79998779296875</ele>
        <time>2019-05-01T12:08:41.000Z</time>
      </trkpt>
      <trkpt lat="41.2378151156008243560791015625" lon="-8.02106131799519062042236328125">
        <ele>258.79998779296875</ele>
        <time>2019-05-01T12:08:43.000Z</time>
      </trkpt>
      <trkpt lat="41.2380273453891277313232421875" lon="-8.0213775672018527984619140625">
        <ele>254.8000030517578125</ele>
        <time>2019-05-01T12:08:49.000Z</time>
      </trkpt>
      <trkpt lat="41.23802189715206623077392578125" lon="-8.021920211613178253173828125">
        <ele>259.399993896484375</ele>
        <time>2019-05-01T12:08:58.000Z</time>
      </trkpt>
      <trkpt lat="41.23798736371099948883056640625" lon="-8.0220387317240238189697265625">
        <ele>260.79998779296875</ele>
        <time>2019-05-01T12:09:00.000Z</time>
      </trkpt>
      <trkpt lat="41.2379250861704349517822265625" lon="-8.0222177691757678985595703125">
        <ele>263.20001220703125</ele>
        <time>2019-05-01T12:09:03.000Z</time>
      </trkpt>
      <trkpt lat="41.23788711614906787872314453125" lon="-8.022427149116992950439453125">
        <ele>265</ele>
        <time>2019-05-01T12:09:06.000Z</time>
      </trkpt>
      <trkpt lat="41.238074116408824920654296875" lon="-8.0227337591350078582763671875">
        <ele>260</ele>
        <time>2019-05-01T12:09:12.000Z</time>
      </trkpt>
      <trkpt lat="41.2381173670291900634765625" lon="-8.02277491427958011627197265625">
        <ele>258.79998779296875</ele>
        <time>2019-05-01T12:09:13.000Z</time>
      </trkpt>
      <trkpt lat="41.2381718493998050689697265625" lon="-8.02302100695669651031494140625">
        <ele>256.20001220703125</ele>
        <time>2019-05-01T12:09:17.000Z</time>
      </trkpt>
      <trkpt lat="41.23816908337175846099853515625" lon="-8.0231417901813983917236328125">
        <ele>256</ele>
        <time>2019-05-01T12:09:19.000Z</time>
      </trkpt>
      <trkpt lat="41.2380957417190074920654296875" lon="-8.02344948984682559967041015625">
        <ele>257.399993896484375</ele>
        <time>2019-05-01T12:09:24.000Z</time>
      </trkpt>
      <trkpt lat="41.23782970011234283447265625" lon="-8.02419413812458515167236328125">
        <ele>255.1999969482421875</ele>
        <time>2019-05-01T12:09:32.000Z</time>
      </trkpt>
      <trkpt lat="41.23763130046427249908447265625" lon="-8.02457501180469989776611328125">
        <ele>258.600006103515625</ele>
        <time>2019-05-01T12:09:36.000Z</time>
      </trkpt>
      <trkpt lat="41.237622834742069244384765625" lon="-8.0250179953873157501220703125">
        <ele>260</ele>
        <time>2019-05-01T12:09:45.000Z</time>
      </trkpt>
      <trkpt lat="41.237738840281963348388671875" lon="-8.025011122226715087890625">
        <ele>258</ele>
        <time>2019-05-01T12:09:47.000Z</time>
      </trkpt>
      <trkpt lat="41.238116361200809478759765625" lon="-8.0249159038066864013671875">
        <ele>251</ele>
        <time>2019-05-01T12:09:55.000Z</time>
      </trkpt>
      <trkpt lat="41.23829028569161891937255859375" lon="-8.025305829942226409912109375">
        <ele>249.600006103515625</ele>
        <time>2019-05-01T12:10:06.000Z</time>
      </trkpt>
      <trkpt lat="41.238198839128017425537109375" lon="-8.02558905445039272308349609375">
        <ele>255.8000030517578125</ele>
        <time>2019-05-01T12:10:12.000Z</time>
      </trkpt>
      <trkpt lat="41.2383720092475414276123046875" lon="-8.02593723870813846588134765625">
        <ele>255.399993896484375</ele>
        <time>2019-05-01T12:10:20.000Z</time>
      </trkpt>
      <trkpt lat="41.238498575985431671142578125" lon="-8.0260201357305049896240234375">
        <ele>253</ele>
        <time>2019-05-01T12:10:23.000Z</time>
      </trkpt>
      <trkpt lat="41.23877727426588535308837890625" lon="-8.0266236327588558197021484375">
        <ele>253.8000030517578125</ele>
        <time>2019-05-01T12:10:33.000Z</time>
      </trkpt>
      <trkpt lat="41.2389300763607025146484375" lon="-8.02669127471745014190673828125">
        <ele>250.8000030517578125</ele>
        <time>2019-05-01T12:10:36.000Z</time>
      </trkpt>
      <trkpt lat="41.23902328312397003173828125" lon="-8.026738464832305908203125">
        <ele>248.600006103515625</ele>
        <time>2019-05-01T12:10:38.000Z</time>
      </trkpt>
      <trkpt lat="41.2391017377376556396484375" lon="-8.0272985436022281646728515625">
        <ele>250.8000030517578125</ele>
        <time>2019-05-01T12:10:48.000Z</time>
      </trkpt>
      <trkpt lat="41.23905991204082965850830078125" lon="-8.02735243923962116241455078125">
        <ele>252.600006103515625</ele>
        <time>2019-05-01T12:10:49.000Z</time>
      </trkpt>
      <trkpt lat="41.23924582265317440032958984375" lon="-8.02796582691371440887451171875">
        <ele>257</ele>
        <time>2019-05-01T12:10:58.000Z</time>
      </trkpt>
      <trkpt lat="41.23929862864315509796142578125" lon="-8.0280133523046970367431640625">
        <ele>256.20001220703125</ele>
        <time>2019-05-01T12:10:59.000Z</time>
      </trkpt>
      <trkpt lat="41.23972359113395214080810546875" lon="-8.02831434644758701324462890625">
        <ele>243.8000030517578125</ele>
        <time>2019-05-01T12:11:07.000Z</time>
      </trkpt>
      <trkpt lat="41.24011184088885784149169921875" lon="-8.0288736708462238311767578125">
        <ele>243.1999969482421875</ele>
        <time>2019-05-01T12:11:17.000Z</time>
      </trkpt>
      <trkpt lat="41.24036497436463832855224609375" lon="-8.02933626808226108551025390625">
        <ele>247.600006103515625</ele>
        <time>2019-05-01T12:11:24.000Z</time>
      </trkpt>
      <trkpt lat="41.24045834876596927642822265625" lon="-8.0296277068555355072021484375">
        <ele>251</ele>
        <time>2019-05-01T12:11:28.000Z</time>
      </trkpt>
      <trkpt lat="41.2406817264854907989501953125" lon="-8.029894419014453887939453125">
        <ele>248.8000030517578125</ele>
        <time>2019-05-01T12:11:33.000Z</time>
      </trkpt>
      <trkpt lat="41.240908205509185791015625" lon="-8.0303502269089221954345703125">
        <ele>249.600006103515625</ele>
        <time>2019-05-01T12:11:40.000Z</time>
      </trkpt>
      <trkpt lat="41.24106444418430328369140625" lon="-8.030719198286533355712890625">
        <ele>247.399993896484375</ele>
        <time>2019-05-01T12:11:46.000Z</time>
      </trkpt>
      <trkpt lat="41.2411990575492382049560546875" lon="-8.0311159975826740264892578125">
        <ele>244</ele>
        <time>2019-05-01T12:11:53.000Z</time>
      </trkpt>
      <trkpt lat="41.2412114627659320831298828125" lon="-8.03172796033322811126708984375">
        <ele>247.399993896484375</ele>
        <time>2019-05-01T12:12:03.000Z</time>
      </trkpt>
      <trkpt lat="41.24141287989914417266845703125" lon="-8.03215141408145427703857421875">
        <ele>246</ele>
        <time>2019-05-01T12:12:09.000Z</time>
      </trkpt>
      <trkpt lat="41.241846643388271331787109375" lon="-8.03266237489879131317138671875">
        <ele>241.600006103515625</ele>
        <time>2019-05-01T12:12:16.000Z</time>
      </trkpt>
      <trkpt lat="41.24230236746370792388916015625" lon="-8.03312153555452823638916015625">
        <ele>237.1999969482421875</ele>
        <time>2019-05-01T12:12:22.000Z</time>
      </trkpt>
      <trkpt lat="41.242854483425617218017578125" lon="-8.03345538675785064697265625">
        <ele>235</ele>
        <time>2019-05-01T12:12:28.000Z</time>
      </trkpt>
      <trkpt lat="41.2434430606663227081298828125" lon="-8.03368899039924144744873046875">
        <ele>231.1999969482421875</ele>
        <time>2019-05-01T12:12:34.000Z</time>
      </trkpt>
      <trkpt lat="41.2439914047718048095703125" lon="-8.03377867676317691802978515625">
        <ele>224.8000030517578125</ele>
        <time>2019-05-01T12:12:41.000Z</time>
      </trkpt>
      <trkpt lat="41.2441514991223812103271484375" lon="-8.033781945705413818359375">
        <ele>220.8000030517578125</ele>
        <time>2019-05-01T12:12:48.000Z</time>
      </trkpt>
      <trkpt lat="41.24421729706227779388427734375" lon="-8.03365244530141353607177734375">
        <ele>218.1999969482421875</ele>
        <time>2019-05-01T12:12:51.000Z</time>
      </trkpt>
      <trkpt lat="41.244207657873630523681640625" lon="-8.03323972038924694061279296875">
        <ele>216.600006103515625</ele>
        <time>2019-05-01T12:13:01.000Z</time>
      </trkpt>
      <trkpt lat="41.24436398036777973175048828125" lon="-8.03309303708374500274658203125">
        <ele>212.8000030517578125</ele>
        <time>2019-05-01T12:13:06.000Z</time>
      </trkpt>
      <trkpt lat="41.244562380015850067138671875" lon="-8.0329412408173084259033203125">
        <ele>207.8000030517578125</ele>
        <time>2019-05-01T12:13:11.000Z</time>
      </trkpt>
      <trkpt lat="41.24460420571267604827880859375" lon="-8.03254217840731143951416015625">
        <ele>202.600006103515625</ele>
        <time>2019-05-01T12:13:20.000Z</time>
      </trkpt>
      <trkpt lat="41.2445964105427265167236328125" lon="-8.03251703269779682159423828125">
        <ele>202.399993896484375</ele>
        <time>2019-05-01T12:13:21.000Z</time>
      </trkpt>
      <trkpt lat="41.2447479553520679473876953125" lon="-8.03233631886541843414306640625">
        <ele>199.600006103515625</ele>
        <time>2019-05-01T12:13:27.000Z</time>
      </trkpt>
      <trkpt lat="41.24492472968995571136474609375" lon="-8.032183013856410980224609375">
        <ele>198</ele>
        <time>2019-05-01T12:13:31.000Z</time>
      </trkpt>
      <trkpt lat="41.24505565501749515533447265625" lon="-8.0320054851472377777099609375">
        <ele>196.399993896484375</ele>
        <time>2019-05-01T12:13:35.000Z</time>
      </trkpt>
      <trkpt lat="41.2452099658548831939697265625" lon="-8.031953014433383941650390625">
        <ele>196.1999969482421875</ele>
        <time>2019-05-01T12:13:40.000Z</time>
      </trkpt>
      <trkpt lat="41.24570139683783054351806640625" lon="-8.03185033611953258514404296875">
        <ele>194.600006103515625</ele>
        <time>2019-05-01T12:13:56.000Z</time>
      </trkpt>
      <trkpt lat="41.24587439931929111480712890625" lon="-8.031785376369953155517578125">
        <ele>192.399993896484375</ele>
        <time>2019-05-01T12:14:01.000Z</time>
      </trkpt>
      <trkpt lat="41.2461586296558380126953125" lon="-8.03161002695560455322265625">
        <ele>186.1999969482421875</ele>
        <time>2019-05-01T12:14:08.000Z</time>
      </trkpt>
      <trkpt lat="41.24634512700140476226806640625" lon="-8.03162687458097934722900390625">
        <ele>184.600006103515625</ele>
        <time>2019-05-01T12:14:12.000Z</time>
      </trkpt>
      <trkpt lat="41.2467012740671634674072265625" lon="-8.03180876187980175018310546875">
        <ele>184.600006103515625</ele>
        <time>2019-05-01T12:14:19.000Z</time>
      </trkpt>
      <trkpt lat="41.247055828571319580078125" lon="-8.0319236777722835540771484375">
        <ele>182.8000030517578125</ele>
        <time>2019-05-01T12:14:25.000Z</time>
      </trkpt>
      <trkpt lat="41.24732279218733310699462890625" lon="-8.03232081234455108642578125">
        <ele>176</ele>
        <time>2019-05-01T12:14:32.000Z</time>
      </trkpt>
      <trkpt lat="41.24737526290118694305419921875" lon="-8.03243120200932025909423828125">
        <ele>174.600006103515625</ele>
        <time>2019-05-01T12:14:34.000Z</time>
      </trkpt>
      <trkpt lat="41.2476142309606075286865234375" lon="-8.03248635493218898773193359375">
        <ele>173.1999969482421875</ele>
        <time>2019-05-01T12:14:40.000Z</time>
      </trkpt>
      <trkpt lat="41.2476222775876522064208984375" lon="-8.03248635493218898773193359375">
        <ele>173</ele>
        <time>2019-05-01T12:14:42.000Z</time>
      </trkpt>
      <trkpt lat="41.2475867383182048797607421875" lon="-8.03238459862768650054931640625">
        <ele>172.399993896484375</ele>
        <time>2019-05-01T12:15:24.000Z</time>
      </trkpt>
      <trkpt lat="41.24772646464407444000244140625" lon="-8.03168839775025844573974609375">
        <ele>172.399993896484375</ele>
        <time>2019-05-01T12:15:41.000Z</time>
      </trkpt>
      <trkpt lat="41.24819249846041202545166015625" lon="-8.0312601663172245025634765625">
        <ele>163.399993896484375</ele>
        <time>2019-05-01T12:15:58.000Z</time>
      </trkpt>
      <trkpt lat="41.24828495085239410400390625" lon="-8.03103595040738582611083984375">
        <ele>162</ele>
        <time>2019-05-01T12:16:04.000Z</time>
      </trkpt>
      <trkpt lat="41.24852911569178104400634765625" lon="-8.03086713887751102447509765625">
        <ele>160.8000030517578125</ele>
        <time>2019-05-01T12:16:13.000Z</time>
      </trkpt>
      <trkpt lat="41.24859516508877277374267578125" lon="-8.03070905618369579315185546875">
        <ele>161.399993896484375</ele>
        <time>2019-05-01T12:16:18.000Z</time>
      </trkpt>
      <trkpt lat="41.2485576979815959930419921875" lon="-8.0308316834270954132080078125">
        <ele>160.8000030517578125</ele>
        <time>2019-05-01T12:16:33.000Z</time>
      </trkpt>
      <trkpt lat="41.2484929896891117095947265625" lon="-8.0309248901903629302978515625">
        <ele>160.600006103515625</ele>
        <time>2019-05-01T12:16:43.000Z</time>
      </trkpt>
      <trkpt lat="41.24852978624403476715087890625" lon="-8.03088189102709293365478515625">
        <ele>160.8000030517578125</ele>
        <time>2019-05-01T12:16:46.000Z</time>
      </trkpt>
      <trkpt lat="41.24856113456189632415771484375" lon="-8.0308062024414539337158203125">
        <ele>161</ele>
        <time>2019-05-01T12:16:53.000Z</time>
      </trkpt>
      <trkpt lat="41.24857706017792224884033203125" lon="-8.0307458527386188507080078125">
        <ele>161.1999969482421875</ele>
        <time>2019-05-01T12:18:05.000Z</time>
      </trkpt>
      <trkpt lat="41.248693652451038360595703125" lon="-8.03053135983645915985107421875">
        <ele>161.8000030517578125</ele>
        <time>2019-05-01T12:18:16.000Z</time>
      </trkpt>
      <trkpt lat="41.24890982173383235931396484375" lon="-8.0305182002484798431396484375">
        <ele>161.1999969482421875</ele>
        <time>2019-05-01T12:18:22.000Z</time>
      </trkpt>
      <trkpt lat="41.24904678203165531158447265625" lon="-8.030478470027446746826171875">
        <ele>160.8000030517578125</ele>
        <time>2019-05-01T12:18:27.000Z</time>
      </trkpt>
      <trkpt lat="41.24904938042163848876953125" lon="-8.0305081419646739959716796875">
        <ele>160.600006103515625</ele>
        <time>2019-05-01T12:18:30.000Z</time>
      </trkpt>
      <trkpt lat="41.2490822374820709228515625" lon="-8.03047436289489269256591796875">
        <ele>160.600006103515625</ele>
        <time>2019-05-01T12:19:26.000Z</time>
      </trkpt>
      <trkpt lat="41.24918491579592227935791015625" lon="-8.03038953803479671478271484375">
        <ele>160.399993896484375</ele>
        <time>2019-05-01T12:19:34.000Z</time>
      </trkpt>
      <trkpt lat="41.24922280199825763702392578125" lon="-8.030367158353328704833984375">
        <ele>160.399993896484375</ele>
        <time>2019-05-01T12:21:15.000Z</time>
      </trkpt>
      <trkpt lat="41.249252893030643463134765625" lon="-8.03032617084681987762451171875">
        <ele>160.399993896484375</ele>
        <time>2019-05-01T12:21:18.000Z</time>
      </trkpt>
      <trkpt lat="41.24925012700259685516357421875" lon="-8.030315525829792022705078125">
        <ele>160.600006103515625</ele>
        <time>2019-05-01T12:22:09.000Z</time>
      </trkpt>
      <trkpt lat="41.24932807870209217071533203125" lon="-8.03027889691293239593505859375">
        <ele>160.399993896484375</ele>
        <time>2019-05-01T12:22:12.000Z</time>
      </trkpt>
      <trkpt lat="41.24979436397552490234375" lon="-8.0306477844715118408203125">
        <ele>157.600006103515625</ele>
        <time>2019-05-01T12:22:30.000Z</time>
      </trkpt>
      <trkpt lat="41.25020943582057952880859375" lon="-8.03115815855562686920166015625">
        <ele>159</ele>
        <time>2019-05-01T12:22:47.000Z</time>
      </trkpt>
      <trkpt lat="41.25050825066864490509033203125" lon="-8.03132093511521816253662109375">
        <ele>159.600006103515625</ele>
        <time>2019-05-01T12:22:55.000Z</time>
      </trkpt>
      <trkpt lat="41.250676475465297698974609375" lon="-8.03149326704442501068115234375">
        <ele>160.399993896484375</ele>
        <time>2019-05-01T12:23:00.000Z</time>
      </trkpt>
      <trkpt lat="41.25078611075878143310546875" lon="-8.03167297504842281341552734375">
        <ele>162</ele>
        <time>2019-05-01T12:23:04.000Z</time>
      </trkpt>
      <trkpt lat="41.25089080072939395904541015625" lon="-8.0319139547646045684814453125">
        <ele>163.8000030517578125</ele>
        <time>2019-05-01T12:23:09.000Z</time>
      </trkpt>
      <trkpt lat="41.25101418234407901763916015625" lon="-8.0321892164647579193115234375">
        <ele>165.8000030517578125</ele>
        <time>2019-05-01T12:23:15.000Z</time>
      </trkpt>
      <trkpt lat="41.2511815689504146575927734375" lon="-8.0325439386069774627685546875">
        <ele>166</ele>
        <time>2019-05-01T12:23:23.000Z</time>
      </trkpt>
      <trkpt lat="41.25125641934573650360107421875" lon="-8.032781146466732025146484375">
        <ele>167.8000030517578125</ele>
        <time>2019-05-01T12:23:27.000Z</time>
      </trkpt>
      <trkpt lat="41.25131978653371334075927734375" lon="-8.0330733396112918853759765625">
        <ele>166</ele>
        <time>2019-05-01T12:23:31.000Z</time>
      </trkpt>
      <trkpt lat="41.2513451837003231048583984375" lon="-8.03344692103564739227294921875">
        <ele>163</ele>
        <time>2019-05-01T12:23:36.000Z</time>
      </trkpt>
      <trkpt lat="41.25129480846226215362548828125" lon="-8.0337988771498203277587890625">
        <ele>160.600006103515625</ele>
        <time>2019-05-01T12:23:49.000Z</time>
      </trkpt>
      <trkpt lat="41.25151324085891246795654296875" lon="-8.0341361649334430694580078125">
        <ele>159.399993896484375</ele>
        <time>2019-05-01T12:24:05.000Z</time>
      </trkpt>
      <trkpt lat="41.2515010870993137359619140625" lon="-8.0341614782810211181640625">
        <ele>159</ele>
        <time>2019-05-01T12:24:15.000Z</time>
      </trkpt>
      <trkpt lat="41.25118182040750980377197265625" lon="-8.03362436592578887939453125">
        <ele>161.1999969482421875</ele>
        <time>2019-05-01T12:24:36.000Z</time>
      </trkpt>
      <trkpt lat="41.2511440180242061614990234375" lon="-8.0335923470556735992431640625">
        <ele>161.1999969482421875</ele>
        <time>2019-05-01T12:24:37.000Z</time>
      </trkpt>
      <trkpt lat="41.25091762281954288482666015625" lon="-8.033476509153842926025390625">
        <ele>160</ele>
        <time>2019-05-01T12:24:43.000Z</time>
      </trkpt>
      <trkpt lat="41.25059374608099460601806640625" lon="-8.0336466617882251739501953125">
        <ele>157.600006103515625</ele>
        <time>2019-05-01T12:24:51.000Z</time>
      </trkpt>
      <trkpt lat="41.25029065646231174468994140625" lon="-8.03411697037518024444580078125">
        <ele>160.8000030517578125</ele>
        <time>2019-05-01T12:25:07.000Z</time>
      </trkpt>
      <trkpt lat="41.2505307979881763458251953125" lon="-8.03413222543895244598388671875">
        <ele>157</ele>
        <time>2019-05-01T12:25:14.000Z</time>
      </trkpt>
      <trkpt lat="41.25072550959885120391845703125" lon="-8.03406416438519954681396484375">
        <ele>156.399993896484375</ele>
        <time>2019-05-01T12:25:20.000Z</time>
      </trkpt>
      <trkpt lat="41.25087420456111431121826171875" lon="-8.03394145332276821136474609375">
        <ele>158</ele>
        <time>2019-05-01T12:25:27.000Z</time>
      </trkpt>
      <trkpt lat="41.25088342465460300445556640625" lon="-8.0339522659778594970703125">
        <ele>158</ele>
        <time>2019-05-01T12:25:30.000Z</time>
      </trkpt>
      <trkpt lat="41.25091326422989368438720703125" lon="-8.03396425209939479827880859375">
        <ele>158.1999969482421875</ele>
        <time>2019-05-01T12:27:06.000Z</time>
      </trkpt>
      <trkpt lat="41.25114812515676021575927734375" lon="-8.03419223986566066741943359375">
        <ele>157.399993896484375</ele>
        <time>2019-05-01T12:27:17.000Z</time>
      </trkpt>
      <trkpt lat="41.2514115683734416961669921875" lon="-8.03464804776012897491455078125">
        <ele>156</ele>
        <time>2019-05-01T12:27:33.000Z</time>
      </trkpt>
      <trkpt lat="41.25143378041684627532958984375" lon="-8.034661710262298583984375">
        <ele>156</ele>
        <time>2019-05-01T12:27:51.000Z</time>
      </trkpt>
      <trkpt lat="41.25191389583051204681396484375" lon="-8.03505138494074344635009765625">
        <ele>160.1999969482421875</ele>
        <time>2019-05-01T12:28:13.000Z</time>
      </trkpt>
      <trkpt lat="41.251965276896953582763671875" lon="-8.0350722558796405792236328125">
        <ele>160.8000030517578125</ele>
        <time>2019-05-01T12:28:16.000Z</time>
      </trkpt>
      <trkpt lat="41.25202638097107410430908203125" lon="-8.0351399816572666168212890625">
        <ele>161.399993896484375</ele>
        <time>2019-05-01T12:28:20.000Z</time>
      </trkpt>
      <trkpt lat="41.2520529516041278839111328125" lon="-8.03579100407660007476806640625">
        <ele>160.399993896484375</ele>
        <time>2019-05-01T12:28:38.000Z</time>
      </trkpt>
      <trkpt lat="41.25205119140446186065673828125" lon="-8.03589359857141971588134765625">
        <ele>160.1999969482421875</ele>
        <time>2019-05-01T12:30:21.000Z</time>
      </trkpt>
      <trkpt lat="41.25183275900781154632568359375" lon="-8.03653917275369167327880859375">
        <ele>163.399993896484375</ele>
        <time>2019-05-01T12:30:44.000Z</time>
      </trkpt>
      <trkpt lat="41.2517180107533931732177734375" lon="-8.03719312883913516998291015625">
        <ele>167.8000030517578125</ele>
        <time>2019-05-01T12:31:05.000Z</time>
      </trkpt>
      <trkpt lat="41.25191976316273212432861328125" lon="-8.0378790199756622314453125">
        <ele>169.600006103515625</ele>
        <time>2019-05-01T12:31:26.000Z</time>
      </trkpt>
      <trkpt lat="41.252075918018817901611328125" lon="-8.0383720435202121734619140625">
        <ele>166.600006103515625</ele>
        <time>2019-05-01T12:31:37.000Z</time>
      </trkpt>
      <trkpt lat="41.25236853025853633880615234375" lon="-8.03896606899797916412353515625">
        <ele>166</ele>
        <time>2019-05-01T12:31:51.000Z</time>
      </trkpt>
      <trkpt lat="41.2527992762625217437744140625" lon="-8.0394365452229976654052734375">
        <ele>167</ele>
        <time>2019-05-01T12:32:03.000Z</time>
      </trkpt>
      <trkpt lat="41.25321761704981327056884765625" lon="-8.03989377804100513458251953125">
        <ele>169</ele>
        <time>2019-05-01T12:32:15.000Z</time>
      </trkpt>
      <trkpt lat="41.25333999283611774444580078125" lon="-8.04004984907805919647216796875">
        <ele>172</ele>
        <time>2019-05-01T12:32:19.000Z</time>
      </trkpt>
      <trkpt lat="41.25340755097568035125732421875" lon="-8.04020122624933719635009765625">
        <ele>173.8000030517578125</ele>
        <time>2019-05-01T12:32:22.000Z</time>
      </trkpt>
      <trkpt lat="41.2534435093402862548828125" lon="-8.0404638312757015228271484375">
        <ele>174.399993896484375</ele>
        <time>2019-05-01T12:32:26.000Z</time>
      </trkpt>
      <trkpt lat="41.25349421985447406768798828125" lon="-8.04113463498651981353759765625">
        <ele>168.8000030517578125</ele>
        <time>2019-05-01T12:32:35.000Z</time>
      </trkpt>
      <trkpt lat="41.25360972248017787933349609375" lon="-8.04138894192874431610107421875">
        <ele>168.8000030517578125</ele>
        <time>2019-05-01T12:32:39.000Z</time>
      </trkpt>
      <trkpt lat="41.25364593230187892913818359375" lon="-8.04143571294844150543212890625">
        <ele>168.8000030517578125</ele>
        <time>2019-05-01T12:32:40.000Z</time>
      </trkpt>
      <trkpt lat="41.2537715770304203033447265625" lon="-8.041615001857280731201171875">
        <ele>168.1999969482421875</ele>
        <time>2019-05-01T12:32:44.000Z</time>
      </trkpt>
      <trkpt lat="41.25380116514861583709716796875" lon="-8.04189906455576419830322265625">
        <ele>168</ele>
        <time>2019-05-01T12:32:49.000Z</time>
      </trkpt>
      <trkpt lat="41.25379010103642940521240234375" lon="-8.04195019416511058807373046875">
        <ele>168.399993896484375</ele>
        <time>2019-05-01T12:32:50.000Z</time>
      </trkpt>
      <trkpt lat="41.25362196005880832672119140625" lon="-8.042207099497318267822265625">
        <ele>168.399993896484375</ele>
        <time>2019-05-01T12:32:56.000Z</time>
      </trkpt>
      <trkpt lat="41.2533335387706756591796875" lon="-8.04254597984254360198974609375">
        <ele>167.399993896484375</ele>
        <time>2019-05-01T12:33:04.000Z</time>
      </trkpt>
      <trkpt lat="41.253133714199066162109375" lon="-8.0429685115814208984375">
        <ele>167.8000030517578125</ele>
        <time>2019-05-01T12:33:11.000Z</time>
      </trkpt>
      <trkpt lat="41.25310244970023632049560546875" lon="-8.04310438223183155059814453125">
        <ele>168.399993896484375</ele>
        <time>2019-05-01T12:33:13.000Z</time>
      </trkpt>
      <trkpt lat="41.253105886280536651611328125" lon="-8.0438467673957347869873046875">
        <ele>172.1999969482421875</ele>
        <time>2019-05-01T12:33:25.000Z</time>
      </trkpt>
      <trkpt lat="41.2531392462551593780517578125" lon="-8.04457004182040691375732421875">
        <ele>172</ele>
        <time>2019-05-01T12:33:38.000Z</time>
      </trkpt>
      <trkpt lat="41.25315290875732898712158203125" lon="-8.044674731791019439697265625">
        <ele>171.8000030517578125</ele>
        <time>2019-05-01T12:33:40.000Z</time>
      </trkpt>
      <trkpt lat="41.2532280944287776947021484375" lon="-8.04488453082740306854248046875">
        <ele>172</ele>
        <time>2019-05-01T12:33:44.000Z</time>
      </trkpt>
      <trkpt lat="41.25350981019437313079833984375" lon="-8.045154176652431488037109375">
        <ele>171.600006103515625</ele>
        <time>2019-05-01T12:33:51.000Z</time>
      </trkpt>
      <trkpt lat="41.253847181797027587890625" lon="-8.0454695038497447967529296875">
        <ele>172.600006103515625</ele>
        <time>2019-05-01T12:33:59.000Z</time>
      </trkpt>
      <trkpt lat="41.2539289891719818115234375" lon="-8.04563135839998722076416015625">
        <ele>173</ele>
        <time>2019-05-01T12:34:02.000Z</time>
      </trkpt>
      <trkpt lat="41.253962852060794830322265625" lon="-8.04574417881667613983154296875">
        <ele>173.1999969482421875</ele>
        <time>2019-05-01T12:34:04.000Z</time>
      </trkpt>
      <trkpt lat="41.25400233082473278045654296875" lon="-8.046219684183597564697265625">
        <ele>172.600006103515625</ele>
        <time>2019-05-01T12:34:12.000Z</time>
      </trkpt>
      <trkpt lat="41.25403937883675098419189453125" lon="-8.0464009009301662445068359375">
        <ele>172.399993896484375</ele>
        <time>2019-05-01T12:34:15.000Z</time>
      </trkpt>
      <trkpt lat="41.2542697973549365997314453125" lon="-8.0466302298009395599365234375">
        <ele>174</ele>
        <time>2019-05-01T12:34:21.000Z</time>
      </trkpt>
      <trkpt lat="41.25452133826911449432373046875" lon="-8.04682376794517040252685546875">
        <ele>175</ele>
        <time>2019-05-01T12:34:27.000Z</time>
      </trkpt>
      <trkpt lat="41.25455587171018123626708984375" lon="-8.0473644845187664031982421875">
        <ele>176</ele>
        <time>2019-05-01T12:34:36.000Z</time>
      </trkpt>
      <trkpt lat="41.2545420415699481964111328125" lon="-8.04757981561124324798583984375">
        <ele>176.399993896484375</ele>
        <time>2019-05-01T12:34:40.000Z</time>
      </trkpt>
      <trkpt lat="41.25470054335892200469970703125" lon="-8.04830971173942089080810546875">
        <ele>182.1999969482421875</ele>
        <time>2019-05-01T12:34:55.000Z</time>
      </trkpt>
      <trkpt lat="41.254662238061428070068359375" lon="-8.04902988485991954803466796875">
        <ele>181.399993896484375</ele>
        <time>2019-05-01T12:35:10.000Z</time>
      </trkpt>
      <trkpt lat="41.25442829914391040802001953125" lon="-8.049680404365062713623046875">
        <ele>178.600006103515625</ele>
        <time>2019-05-01T12:35:24.000Z</time>
      </trkpt>
      <trkpt lat="41.254421174526214599609375" lon="-8.0499497987329959869384765625">
        <ele>180</ele>
        <time>2019-05-01T12:35:29.000Z</time>
      </trkpt>
      <trkpt lat="41.254512034356594085693359375" lon="-8.0501838214695453643798828125">
        <ele>182.1999969482421875</ele>
        <time>2019-05-01T12:35:34.000Z</time>
      </trkpt>
      <trkpt lat="41.25483222305774688720703125" lon="-8.0507698841392993927001953125">
        <ele>183.399993896484375</ele>
        <time>2019-05-01T12:35:47.000Z</time>
      </trkpt>
      <trkpt lat="41.25506482087075710296630859375" lon="-8.05111027322709560394287109375">
        <ele>182.1999969482421875</ele>
        <time>2019-05-01T12:35:54.000Z</time>
      </trkpt>
      <trkpt lat="41.255345530807971954345703125" lon="-8.05115184746682643890380859375">
        <ele>184.1999969482421875</ele>
        <time>2019-05-01T12:36:00.000Z</time>
      </trkpt>
      <trkpt lat="41.25543077476322650909423828125" lon="-8.0511534400284290313720703125">
        <ele>185.1999969482421875</ele>
        <time>2019-05-01T12:36:02.000Z</time>
      </trkpt>
      <trkpt lat="41.255681812763214111328125" lon="-8.05171913467347621917724609375">
        <ele>186.600006103515625</ele>
        <time>2019-05-01T12:36:15.000Z</time>
      </trkpt>
      <trkpt lat="41.2556564994156360626220703125" lon="-8.05184067226946353912353515625">
        <ele>186.1999969482421875</ele>
        <time>2019-05-01T12:36:17.000Z</time>
      </trkpt>
      <trkpt lat="41.25561366789042949676513671875" lon="-8.0520932190120220184326171875">
        <ele>185</ele>
        <time>2019-05-01T12:36:21.000Z</time>
      </trkpt>
      <trkpt lat="41.255613081157207489013671875" lon="-8.05222146213054656982421875">
        <ele>184.600006103515625</ele>
        <time>2019-05-01T12:36:23.000Z</time>
      </trkpt>
      <trkpt lat="41.25571810640394687652587890625" lon="-8.0525585822761058807373046875">
        <ele>185.1999969482421875</ele>
        <time>2019-05-01T12:36:29.000Z</time>
      </trkpt>
      <trkpt lat="41.25601398758590221405029296875" lon="-8.0531661026179790496826171875">
        <ele>183.8000030517578125</ele>
        <time>2019-05-01T12:36:43.000Z</time>
      </trkpt>
      <trkpt lat="41.2560434080660343170166015625" lon="-8.05321044288575649261474609375">
        <ele>183.8000030517578125</ele>
        <time>2019-05-01T12:36:44.000Z</time>
      </trkpt>
      <trkpt lat="41.2562995590269565582275390625" lon="-8.05331823416054248809814453125">
        <ele>186</ele>
        <time>2019-05-01T12:36:50.000Z</time>
      </trkpt>
      <trkpt lat="41.25660574994981288909912109375" lon="-8.05329141207039356231689453125">
        <ele>188.8000030517578125</ele>
        <time>2019-05-01T12:36:57.000Z</time>
      </trkpt>
      <trkpt lat="41.25686458311975002288818359375" lon="-8.05342451669275760650634765625">
        <ele>188.399993896484375</ele>
        <time>2019-05-01T12:37:04.000Z</time>
      </trkpt>
      <trkpt lat="41.2573385797441005706787109375" lon="-8.05381058715283870697021484375">
        <ele>190.8000030517578125</ele>
        <time>2019-05-01T12:37:18.000Z</time>
      </trkpt>
      <trkpt lat="41.257394738495349884033203125" lon="-8.0538849346339702606201171875">
        <ele>191.8000030517578125</ele>
        <time>2019-05-01T12:37:20.000Z</time>
      </trkpt>
      <trkpt lat="41.25736598856747150421142578125" lon="-8.05440612137317657470703125">
        <ele>191.399993896484375</ele>
        <time>2019-05-01T12:37:29.000Z</time>
      </trkpt>
      <trkpt lat="41.25730144791305065155029296875" lon="-8.05466495454311370849609375">
        <ele>190.1999969482421875</ele>
        <time>2019-05-01T12:37:33.000Z</time>
      </trkpt>
      <trkpt lat="41.25747964717447757720947265625" lon="-8.0553272925317287445068359375">
        <ele>194</ele>
        <time>2019-05-01T12:37:44.000Z</time>
      </trkpt>
      <trkpt lat="41.25747579149901866912841796875" lon="-8.05539694614708423614501953125">
        <ele>194.1999969482421875</ele>
        <time>2019-05-01T12:37:45.000Z</time>
      </trkpt>
      <trkpt lat="41.257462464272975921630859375" lon="-8.05545612238347530364990234375">
        <ele>194.1999969482421875</ele>
        <time>2019-05-01T12:37:46.000Z</time>
      </trkpt>
      <trkpt lat="41.25757587142288684844970703125" lon="-8.05617679841816425323486328125">
        <ele>197.399993896484375</ele>
        <time>2019-05-01T12:38:02.000Z</time>
      </trkpt>
      <trkpt lat="41.25783068127930164337158203125" lon="-8.05684030987322330474853515625">
        <ele>201.399993896484375</ele>
        <time>2019-05-01T12:38:16.000Z</time>
      </trkpt>
      <trkpt lat="41.25807023607194423675537109375" lon="-8.05749342776834964752197265625">
        <ele>202.399993896484375</ele>
        <time>2019-05-01T12:38:30.000Z</time>
      </trkpt>
      <trkpt lat="41.25839151442050933837890625" lon="-8.0580733716487884521484375">
        <ele>203.1999969482421875</ele>
        <time>2019-05-01T12:38:43.000Z</time>
      </trkpt>
      <trkpt lat="41.25874849967658519744873046875" lon="-8.0586545728147029876708984375">
        <ele>198.1999969482421875</ele>
        <time>2019-05-01T12:38:51.000Z</time>
      </trkpt>
      <trkpt lat="41.25901646912097930908203125" lon="-8.05892840959131717681884765625">
        <ele>191.1999969482421875</ele>
        <time>2019-05-01T12:38:55.000Z</time>
      </trkpt>
      <trkpt lat="41.25951427035033702850341796875" lon="-8.0593311600387096405029296875">
        <ele>189.1999969482421875</ele>
        <time>2019-05-01T12:39:01.000Z</time>
      </trkpt>
      <trkpt lat="41.26006110571324825286865234375" lon="-8.05968445725739002227783203125">
        <ele>180</ele>
        <time>2019-05-01T12:39:07.000Z</time>
      </trkpt>
      <trkpt lat="41.2604338489472866058349609375" lon="-8.05971865542232990264892578125">
        <ele>180.399993896484375</ele>
        <time>2019-05-01T12:39:11.000Z</time>
      </trkpt>
      <trkpt lat="41.26074875704944133758544921875" lon="-8.05953073315322399139404296875">
        <ele>189.399993896484375</ele>
        <time>2019-05-01T12:39:15.000Z</time>
      </trkpt>
      <trkpt lat="41.26081665046513080596923828125" lon="-8.05951966904103755950927734375">
        <ele>191</ele>
        <time>2019-05-01T12:39:16.000Z</time>
      </trkpt>
      <trkpt lat="41.26114589162170886993408203125" lon="-8.0599671788513660430908203125">
        <ele>180.399993896484375</ele>
        <time>2019-05-01T12:39:22.000Z</time>
      </trkpt>
      <trkpt lat="41.2613950856029987335205078125" lon="-8.06030840612947940826416015625">
        <ele>174.1999969482421875</ele>
        <time>2019-05-01T12:39:26.000Z</time>
      </trkpt>
      <trkpt lat="41.2616797350347042083740234375" lon="-8.06037965230643749237060546875">
        <ele>172.600006103515625</ele>
        <time>2019-05-01T12:39:29.000Z</time>
      </trkpt>
      <trkpt lat="41.26204342581331729888916015625" lon="-8.0603908002376556396484375">
        <ele>172</ele>
        <time>2019-05-01T12:39:33.000Z</time>
      </trkpt>
      <trkpt lat="41.2622181884944438934326171875" lon="-8.06072632782161235809326171875">
        <ele>169.8000030517578125</ele>
        <time>2019-05-01T12:39:37.000Z</time>
      </trkpt>
      <trkpt lat="41.26219279132783412933349609375" lon="-8.06118582375347614288330078125">
        <ele>163</ele>
        <time>2019-05-01T12:39:41.000Z</time>
      </trkpt>
      <trkpt lat="41.26225532032549381256103515625" lon="-8.06139193475246429443359375">
        <ele>161.1999969482421875</ele>
        <time>2019-05-01T12:39:43.000Z</time>
      </trkpt>
      <trkpt lat="41.26264994032680988311767578125" lon="-8.06195494718849658966064453125">
        <ele>161.8000030517578125</ele>
        <time>2019-05-01T12:39:49.000Z</time>
      </trkpt>
      <trkpt lat="41.26277667470276355743408203125" lon="-8.0621583759784698486328125">
        <ele>161.600006103515625</ele>
        <time>2019-05-01T12:39:51.000Z</time>
      </trkpt>
      <trkpt lat="41.262842975556850433349609375" lon="-8.06238225661218166351318359375">
        <ele>158</ele>
        <time>2019-05-01T12:39:53.000Z</time>
      </trkpt>
      <trkpt lat="41.2630458176136016845703125" lon="-8.0629657208919525146484375">
        <ele>149.8000030517578125</ele>
        <time>2019-05-01T12:39:58.000Z</time>
      </trkpt>
      <trkpt lat="41.2633249349892139434814453125" lon="-8.063424713909626007080078125">
        <ele>141</ele>
        <time>2019-05-01T12:40:03.000Z</time>
      </trkpt>
      <trkpt lat="41.2636719457805156707763671875" lon="-8.06352219544351100921630859375">
        <ele>137.600006103515625</ele>
        <time>2019-05-01T12:40:07.000Z</time>
      </trkpt>
      <trkpt lat="41.2640628777444362640380859375" lon="-8.0638419650495052337646484375">
        <ele>138</ele>
        <time>2019-05-01T12:40:14.000Z</time>
      </trkpt>
      <trkpt lat="41.264042593538761138916015625" lon="-8.0639422126114368438720703125">
        <ele>136.8000030517578125</ele>
        <time>2019-05-01T12:40:15.000Z</time>
      </trkpt>
      <trkpt lat="41.26386322081089019775390625" lon="-8.06470773182809352874755859375">
        <ele>129</ele>
        <time>2019-05-01T12:40:22.000Z</time>
      </trkpt>
      <trkpt lat="41.2638536654412746429443359375" lon="-8.06482851505279541015625">
        <ele>128.399993896484375</ele>
        <time>2019-05-01T12:40:23.000Z</time>
      </trkpt>
      <trkpt lat="41.263851486146450042724609375" lon="-8.065072260797023773193359375">
        <ele>127.1999969482421875</ele>
        <time>2019-05-01T12:40:25.000Z</time>
      </trkpt>
      <trkpt lat="41.26404586248099803924560546875" lon="-8.0658727325499057769775390625">
        <ele>120.8000030517578125</ele>
        <time>2019-05-01T12:40:31.000Z</time>
      </trkpt>
      <trkpt lat="41.26419581472873687744140625" lon="-8.06625788100063800811767578125">
        <ele>116.59999847412109375</ele>
        <time>2019-05-01T12:40:34.000Z</time>
      </trkpt>
      <trkpt lat="41.264479458332061767578125" lon="-8.06655560620129108428955078125">
        <ele>117</ele>
        <time>2019-05-01T12:40:38.000Z</time>
      </trkpt>
      <trkpt lat="41.2647069431841373443603515625" lon="-8.06685266084969043731689453125">
        <ele>118.40000152587890625</ele>
        <time>2019-05-01T12:40:42.000Z</time>
      </trkpt>
      <trkpt lat="41.2647190131247043609619140625" lon="-8.06696514599025249481201171875">
        <ele>117</ele>
        <time>2019-05-01T12:40:43.000Z</time>
      </trkpt>
      <trkpt lat="41.26471004448831081390380859375" lon="-8.0672798864543437957763671875">
        <ele>113.1999969482421875</ele>
        <time>2019-05-01T12:40:46.000Z</time>
      </trkpt>
      <trkpt lat="41.26477475278079509735107421875" lon="-8.06764156557619571685791015625">
        <ele>109.8000030517578125</ele>
        <time>2019-05-01T12:40:50.000Z</time>
      </trkpt>
      <trkpt lat="41.26480995677411556243896484375" lon="-8.0677325092256069183349609375">
        <ele>108.59999847412109375</ele>
        <time>2019-05-01T12:40:51.000Z</time>
      </trkpt>
      <trkpt lat="41.2649845518171787261962890625" lon="-8.06793987751007080078125">
        <ele>108.40000152587890625</ele>
        <time>2019-05-01T12:40:54.000Z</time>
      </trkpt>
      <trkpt lat="41.26516384072601795196533203125" lon="-8.06810952723026275634765625">
        <ele>109</ele>
        <time>2019-05-01T12:40:57.000Z</time>
      </trkpt>
      <trkpt lat="41.2652599811553955078125" lon="-8.068554438650608062744140625">
        <ele>108.59999847412109375</ele>
        <time>2019-05-01T12:41:02.000Z</time>
      </trkpt>
      <trkpt lat="41.2653027288615703582763671875" lon="-8.06892625987529754638671875">
        <ele>108.1999969482421875</ele>
        <time>2019-05-01T12:41:06.000Z</time>
      </trkpt>
      <trkpt lat="41.26552929170429706573486328125" lon="-8.0695849098265171051025390625">
        <ele>104.8000030517578125</ele>
        <time>2019-05-01T12:41:12.000Z</time>
      </trkpt>
      <trkpt lat="41.26586574129760265350341796875" lon="-8.0702219344675540924072265625">
        <ele>96.59999847412109375</ele>
        <time>2019-05-01T12:41:18.000Z</time>
      </trkpt>
      <trkpt lat="41.26621778123080730438232421875" lon="-8.07085082866251468658447265625">
        <ele>93</ele>
        <time>2019-05-01T12:41:25.000Z</time>
      </trkpt>
      <trkpt lat="41.2665787898004055023193359375" lon="-8.0714855901896953582763671875">
        <ele>92.40000152587890625</ele>
        <time>2019-05-01T12:41:34.000Z</time>
      </trkpt>
      <trkpt lat="41.26699008978903293609619140625" lon="-8.07205631397664546966552734375">
        <ele>94.8000030517578125</ele>
        <time>2019-05-01T12:41:44.000Z</time>
      </trkpt>
      <trkpt lat="41.26730382442474365234375" lon="-8.07248664088547229766845703125">
        <ele>89.8000030517578125</ele>
        <time>2019-05-01T12:41:58.000Z</time>
      </trkpt>
      <trkpt lat="41.26730843447148799896240234375" lon="-8.07250642217695713043212890625">
        <ele>89.40000152587890625</ele>
        <time>2019-05-01T12:42:44.000Z</time>
      </trkpt>
      <trkpt lat="41.26729636453092098236083984375" lon="-8.07263466529548168182373046875">
        <ele>87.8000030517578125</ele>
        <time>2019-05-01T12:42:47.000Z</time>
      </trkpt>
      <trkpt lat="41.26726669259369373321533203125" lon="-8.07277782820165157318115234375">
        <ele>87</ele>
        <time>2019-05-01T12:42:49.000Z</time>
      </trkpt>
      <trkpt lat="41.26732997596263885498046875" lon="-8.073210418224334716796875">
        <ele>84.59999847412109375</ele>
        <time>2019-05-01T12:42:54.000Z</time>
      </trkpt>
      <trkpt lat="41.267682015895843505859375" lon="-8.07389480061829090118408203125">
        <ele>86</ele>
        <time>2019-05-01T12:43:01.000Z</time>
      </trkpt>
      <trkpt lat="41.2678913958370685577392578125" lon="-8.0743454955518245697021484375">
        <ele>81.1999969482421875</ele>
        <time>2019-05-01T12:43:06.000Z</time>
      </trkpt>
      <trkpt lat="41.2683284282684326171875" lon="-8.07483742944896221160888671875">
        <ele>75</ele>
        <time>2019-05-01T12:43:15.000Z</time>
      </trkpt>
      <trkpt lat="41.268427670001983642578125" lon="-8.0749583803117275238037109375">
        <ele>73.8000030517578125</ele>
        <time>2019-05-01T12:43:19.000Z</time>
      </trkpt>
      <trkpt lat="41.26857359893620014190673828125" lon="-8.07485151104629039764404296875">
        <ele>74</ele>
        <time>2019-05-01T12:43:26.000Z</time>
      </trkpt>
      <trkpt lat="41.268916837871074676513671875" lon="-8.0742874927818775177001953125">
        <ele>77</ele>
        <time>2019-05-01T12:43:46.000Z</time>
      </trkpt>
      <trkpt lat="41.26920609734952449798583984375" lon="-8.07364904321730136871337890625">
        <ele>79</ele>
        <time>2019-05-01T12:44:04.000Z</time>
      </trkpt>
      <trkpt lat="41.26926116645336151123046875" lon="-8.0729966796934604644775390625">
        <ele>82.40000152587890625</ele>
        <time>2019-05-01T12:44:23.000Z</time>
      </trkpt>
      <trkpt lat="41.2692780978977680206298828125" lon="-8.073013611137866973876953125">
        <ele>82</ele>
        <time>2019-05-01T12:45:22.000Z</time>
      </trkpt>
      <trkpt lat="41.26929209567606449127197265625" lon="-8.07311930693686008453369140625">
        <ele>81</ele>
        <time>2019-05-01T12:45:26.000Z</time>
      </trkpt>
      <trkpt lat="41.269173324108123779296875" lon="-8.07383780367672443389892578125">
        <ele>77.8000030517578125</ele>
        <time>2019-05-01T12:45:44.000Z</time>
      </trkpt>
      <trkpt lat="41.268819272518157958984375" lon="-8.074402995407581329345703125">
        <ele>76.40000152587890625</ele>
        <time>2019-05-01T12:45:59.000Z</time>
      </trkpt>
      <trkpt lat="41.2686789594590663909912109375" lon="-8.0746762454509735107421875">
        <ele>74.8000030517578125</ele>
        <time>2019-05-01T12:46:05.000Z</time>
      </trkpt>
      <trkpt lat="41.2686087191104888916015625" lon="-8.07475260458886623382568359375">
        <ele>74.59999847412109375</ele>
        <time>2019-05-01T12:46:07.000Z</time>
      </trkpt>
      <trkpt lat="41.26849539577960968017578125" lon="-8.0749898962676525115966796875">
        <ele>73.1999969482421875</ele>
        <time>2019-05-01T12:46:13.000Z</time>
      </trkpt>
      <trkpt lat="41.26856287010014057159423828125" lon="-8.07513046078383922576904296875">
        <ele>72.1999969482421875</ele>
        <time>2019-05-01T12:46:18.000Z</time>
      </trkpt>
      <trkpt lat="41.2687347829341888427734375" lon="-8.075753487646579742431640625">
        <ele>73</ele>
        <time>2019-05-01T12:46:37.000Z</time>
      </trkpt>
      <trkpt lat="41.26872899942100048065185546875" lon="-8.07577670551836490631103515625">
        <ele>73</ele>
        <time>2019-05-01T12:46:38.000Z</time>
      </trkpt>
      <trkpt lat="41.268678121268749237060546875" lon="-8.07580436579883098602294921875">
        <ele>74</ele>
        <time>2019-05-01T12:46:42.000Z</time>
      </trkpt>
      <trkpt lat="41.26858835108578205108642578125" lon="-8.07583772577345371246337890625">
        <ele>75.40000152587890625</ele>
        <time>2019-05-01T12:46:49.000Z</time>
      </trkpt>
      <trkpt lat="41.26860176213085651397705078125" lon="-8.07586203329265117645263671875">
        <ele>75.1999969482421875</ele>
        <time>2019-05-01T12:46:54.000Z</time>
      </trkpt>
      <trkpt lat="41.26861718483269214630126953125" lon="-8.07589924894273281097412109375">
        <ele>74.8000030517578125</ele>
        <time>2019-05-01T12:46:56.000Z</time>
      </trkpt>
      <trkpt lat="41.26867644488811492919921875" lon="-8.07602497749030590057373046875">
        <ele>75</ele>
        <time>2019-05-01T12:47:01.000Z</time>
      </trkpt>
      <trkpt lat="41.26870100386440753936767578125" lon="-8.07675822637975215911865234375">
        <ele>79.1999969482421875</ele>
        <time>2019-05-01T12:47:20.000Z</time>
      </trkpt>
      <trkpt lat="41.26857795752584934234619140625" lon="-8.07746708393096923828125">
        <ele>80</ele>
        <time>2019-05-01T12:47:41.000Z</time>
      </trkpt>
      <trkpt lat="41.26856856979429721832275390625" lon="-8.07749751023948192596435546875">
        <ele>80</ele>
        <time>2019-05-01T12:47:42.000Z</time>
      </trkpt>
      <trkpt lat="41.26855348236858844757080078125" lon="-8.07754394598305225372314453125">
        <ele>80.40000152587890625</ele>
        <time>2019-05-01T12:47:45.000Z</time>
      </trkpt>
      <trkpt lat="41.2686521373689174652099609375" lon="-8.07767956517636775970458984375">
        <ele>77.40000152587890625</ele>
        <time>2019-05-01T12:51:58.000Z</time>
      </trkpt>
      <trkpt lat="41.26870083622634410858154296875" lon="-8.0777156911790370941162109375">
        <ele>76.1999969482421875</ele>
        <time>2019-05-01T12:52:03.000Z</time>
      </trkpt>
      <trkpt lat="41.26873889006674289703369140625" lon="-8.07782306335866451263427734375">
        <ele>74</ele>
        <time>2019-05-01T12:52:10.000Z</time>
      </trkpt>
      <trkpt lat="41.26877375878393650054931640625" lon="-8.07787008583545684814453125">
        <ele>73.59999847412109375</ele>
        <time>2019-05-01T12:52:15.000Z</time>
      </trkpt>
      <trkpt lat="41.26878331415355205535888671875" lon="-8.077920712530612945556640625">
        <ele>73.59999847412109375</ele>
        <time>2019-05-01T12:52:38.000Z</time>
      </trkpt>
      <trkpt lat="41.268837712705135345458984375" lon="-8.07800193317234516143798828125">
        <ele>73</ele>
        <time>2019-05-01T12:52:43.000Z</time>
      </trkpt>
      <trkpt lat="41.26887065358459949493408203125" lon="-8.0780851654708385467529296875">
        <ele>72.40000152587890625</ele>
        <time>2019-05-01T12:52:46.000Z</time>
      </trkpt>
      <trkpt lat="41.26886964775621891021728515625" lon="-8.0781121551990509033203125">
        <ele>72.40000152587890625</ele>
        <time>2019-05-01T12:52:49.000Z</time>
      </trkpt>
      <trkpt lat="41.26888339407742023468017578125" lon="-8.07810804806649684906005859375">
        <ele>72.40000152587890625</ele>
        <time>2019-05-01T12:52:59.000Z</time>
      </trkpt>
      <trkpt lat="41.2690252996981143951416015625" lon="-8.07833117432892322540283203125">
        <ele>71.59999847412109375</ele>
        <time>2019-05-01T12:53:10.000Z</time>
      </trkpt>
      <trkpt lat="41.26889965496957302093505859375" lon="-8.0787599086761474609375">
        <ele>76.1999969482421875</ele>
        <time>2019-05-01T12:53:27.000Z</time>
      </trkpt>
      <trkpt lat="41.26886864192783832550048828125" lon="-8.07874591089785099029541015625">
        <ele>75.40000152587890625</ele>
        <time>2019-05-01T12:53:32.000Z</time>
      </trkpt>
      <trkpt lat="41.2688734196126461029052734375" lon="-8.078730069100856781005859375">
        <ele>75.1999969482421875</ele>
        <time>2019-05-01T12:53:35.000Z</time>
      </trkpt>
      <trkpt lat="41.26888121478259563446044921875" lon="-8.07878580875694751739501953125">
        <ele>76.40000152587890625</ele>
        <time>2019-05-01T12:55:38.000Z</time>
      </trkpt>
      <trkpt lat="41.26883209683001041412353515625" lon="-8.07889997027814388275146484375">
        <ele>77.8000030517578125</ele>
        <time>2019-05-01T12:55:44.000Z</time>
      </trkpt>
      <trkpt lat="41.26870435662567615509033203125" lon="-8.0792495794594287872314453125">
        <ele>82.40000152587890625</ele>
        <time>2019-05-01T12:55:58.000Z</time>
      </trkpt>
      <trkpt lat="41.2687937915325164794921875" lon="-8.0794165469706058502197265625">
        <ele>83.8000030517578125</ele>
        <time>2019-05-01T12:56:04.000Z</time>
      </trkpt>
      <trkpt lat="41.26900811679661273956298828125" lon="-8.07986053638160228729248046875">
        <ele>88.1999969482421875</ele>
        <time>2019-05-01T12:56:19.000Z</time>
      </trkpt>
      <trkpt lat="41.26896880567073822021484375" lon="-8.0800084769725799560546875">
        <ele>88</ele>
        <time>2019-05-01T12:56:23.000Z</time>
      </trkpt>
      <trkpt lat="41.2689991481602191925048828125" lon="-8.080717585980892181396484375">
        <ele>88.8000030517578125</ele>
        <time>2019-05-01T12:56:44.000Z</time>
      </trkpt>
      <trkpt lat="41.26919821836054325103759765625" lon="-8.08139945380389690399169921875">
        <ele>92</ele>
        <time>2019-05-01T12:57:08.000Z</time>
      </trkpt>
      <trkpt lat="41.26961228437721729278564453125" lon="-8.081871606409549713134765625">
        <ele>96.40000152587890625</ele>
        <time>2019-05-01T12:57:32.000Z</time>
      </trkpt>
      <trkpt lat="41.27010312862694263458251953125" lon="-8.0822496302425861358642578125">
        <ele>96.8000030517578125</ele>
        <time>2019-05-01T12:57:54.000Z</time>
      </trkpt>
      <trkpt lat="41.270632781088352203369140625" lon="-8.0824224650859832763671875">
        <ele>98.1999969482421875</ele>
        <time>2019-05-01T12:58:14.000Z</time>
      </trkpt>
      <trkpt lat="41.2706426717340946197509765625" lon="-8.08241869322955608367919921875">
        <ele>98.1999969482421875</ele>
        <time>2019-05-01T12:58:17.000Z</time>
      </trkpt>
      <trkpt lat="41.27065080218017101287841796875" lon="-8.08236069045960903167724609375">
        <ele>99</ele>
        <time>2019-05-01T13:17:36.000Z</time>
      </trkpt>
      <trkpt lat="41.2712233699858188629150390625" lon="-8.082525730133056640625">
        <ele>96.59999847412109375</ele>
        <time>2019-05-01T13:18:00.000Z</time>
      </trkpt>
      <trkpt lat="41.27155177295207977294921875" lon="-8.08266059495508670806884765625">
        <ele>95.59999847412109375</ele>
        <time>2019-05-01T13:18:07.000Z</time>
      </trkpt>
      <trkpt lat="41.27209181897342205047607421875" lon="-8.0828155763447284698486328125">
        <ele>95</ele>
        <time>2019-05-01T13:18:18.000Z</time>
      </trkpt>
      <trkpt lat="41.2726347148418426513671875" lon="-8.08296033181250095367431640625">
        <ele>96.8000030517578125</ele>
        <time>2019-05-01T13:18:39.000Z</time>
      </trkpt>
      <trkpt lat="41.2730871699750423431396484375" lon="-8.08298463933169841766357421875">
        <ele>98.59999847412109375</ele>
        <time>2019-05-01T13:19:01.000Z</time>
      </trkpt>
      <trkpt lat="41.2731495313346385955810546875" lon="-8.082967288792133331298828125">
        <ele>99</ele>
        <time>2019-05-01T13:19:05.000Z</time>
      </trkpt>
      <trkpt lat="41.27319118939340114593505859375" lon="-8.08294608257710933685302734375">
        <ele>99.1999969482421875</ele>
        <time>2019-05-01T13:19:08.000Z</time>
      </trkpt>
      <trkpt lat="41.273308284580707550048828125" lon="-8.08286494575440883636474609375">
        <ele>99.59999847412109375</ele>
        <time>2019-05-01T13:19:18.000Z</time>
      </trkpt>
      <trkpt lat="41.273599974811077117919921875" lon="-8.08269127272069454193115234375">
        <ele>100.8000030517578125</ele>
        <time>2019-05-01T13:19:39.000Z</time>
      </trkpt>
      <trkpt lat="41.273754872381687164306640625" lon="-8.08244593441486358642578125">
        <ele>101</ele>
        <time>2019-05-01T13:19:58.000Z</time>
      </trkpt>
      <trkpt lat="41.2737714685499668121337890625" lon="-8.0823307670652866363525390625">
        <ele>100.59999847412109375</ele>
        <time>2019-05-01T13:20:05.000Z</time>
      </trkpt>
      <trkpt lat="41.273769624531269073486328125" lon="-8.08227787725627422332763671875">
        <ele>100.40000152587890625</ele>
        <time>2019-05-01T13:20:08.000Z</time>
      </trkpt>
      <trkpt lat="41.273711286485195159912109375" lon="-8.08215063996613025665283203125">
        <ele>99.59999847412109375</ele>
        <time>2019-05-01T13:20:16.000Z</time>
      </trkpt>
      <trkpt lat="41.2732316739857196807861328125" lon="-8.0818001925945281982421875">
        <ele>103.1999969482421875</ele>
        <time>2019-05-01T13:20:44.000Z</time>
      </trkpt>
      <trkpt lat="41.27306730486452579498291015625" lon="-8.08161000721156597137451171875">
        <ele>105</ele>
        <time>2019-05-01T13:20:55.000Z</time>
      </trkpt>
      <trkpt lat="41.27260462380945682525634765625" lon="-8.0812994576990604400634765625">
        <ele>109</ele>
        <time>2019-05-01T13:21:21.000Z</time>
      </trkpt>
      <trkpt lat="41.27242709510028362274169921875" lon="-8.081099130213260650634765625">
        <ele>113</ele>
        <time>2019-05-01T13:21:33.000Z</time>
      </trkpt>
      <trkpt lat="41.27245366573333740234375" lon="-8.080995865166187286376953125">
        <ele>113.8000030517578125</ele>
        <time>2019-05-01T13:21:40.000Z</time>
      </trkpt>
      <trkpt lat="41.272477805614471435546875" lon="-8.081011287868022918701171875">
        <ele>113.40000152587890625</ele>
        <time>2019-05-01T13:21:43.000Z</time>
      </trkpt>
      <trkpt lat="41.27253941260278224945068359375" lon="-8.0810667760670185089111328125">
        <ele>112.1999969482421875</ele>
        <time>2019-05-01T13:21:50.000Z</time>
      </trkpt>
      <trkpt lat="41.27257528714835643768310546875" lon="-8.08109720237553119659423828125">
        <ele>111.59999847412109375</ele>
        <time>2019-05-01T13:23:28.000Z</time>
      </trkpt>
      <trkpt lat="41.27296035178005695343017578125" lon="-8.08128722012042999267578125">
        <ele>106.8000030517578125</ele>
        <time>2019-05-01T13:23:43.000Z</time>
      </trkpt>
      <trkpt lat="41.27325095236301422119140625" lon="-8.0816494859755039215087890625">
        <ele>104</ele>
        <time>2019-05-01T13:23:50.000Z</time>
      </trkpt>
      <trkpt lat="41.2737781740725040435791015625" lon="-8.0819713510572910308837890625">
        <ele>99.40000152587890625</ele>
        <time>2019-05-01T13:23:59.000Z</time>
      </trkpt>
      <trkpt lat="41.27394254319369792938232421875" lon="-8.082072436809539794921875">
        <ele>101</ele>
        <time>2019-05-01T13:24:02.000Z</time>
      </trkpt>
      <trkpt lat="41.27444855868816375732421875" lon="-8.08232255280017852783203125">
        <ele>103</ele>
        <time>2019-05-01T13:24:13.000Z</time>
      </trkpt>
      <trkpt lat="41.2750138342380523681640625" lon="-8.082447610795497894287109375">
        <ele>106.40000152587890625</ele>
        <time>2019-05-01T13:24:28.000Z</time>
      </trkpt>
      <trkpt lat="41.27554885111749172210693359375" lon="-8.0823098123073577880859375">
        <ele>108.1999969482421875</ele>
        <time>2019-05-01T13:24:43.000Z</time>
      </trkpt>
      <trkpt lat="41.2758850492537021636962890625" lon="-8.082176037132740020751953125">
        <ele>108.40000152587890625</ele>
        <time>2019-05-01T13:25:01.000Z</time>
      </trkpt>
      <trkpt lat="41.27593223936855792999267578125" lon="-8.0821741931140422821044921875">
        <ele>108.8000030517578125</ele>
        <time>2019-05-01T13:26:22.000Z</time>
      </trkpt>
      <trkpt lat="41.2764623947441577911376953125" lon="-8.0820501409471035003662109375">
        <ele>111.59999847412109375</ele>
        <time>2019-05-01T13:26:42.000Z</time>
      </trkpt>
      <trkpt lat="41.2768935598433017730712890625" lon="-8.08202591724693775177001953125">
        <ele>113.59999847412109375</ele>
        <time>2019-05-01T13:26:59.000Z</time>
      </trkpt>
      <trkpt lat="41.277444921433925628662109375" lon="-8.081952743232250213623046875">
        <ele>116</ele>
        <time>2019-05-01T13:27:17.000Z</time>
      </trkpt>
      <trkpt lat="41.278010196983814239501953125" lon="-8.08190521784126758575439453125">
        <ele>121.40000152587890625</ele>
        <time>2019-05-01T13:27:35.000Z</time>
      </trkpt>
      <trkpt lat="41.2785538472235202789306640625" lon="-8.08191879652440547943115234375">
        <ele>126</ele>
        <time>2019-05-01T13:27:53.000Z</time>
      </trkpt>
      <trkpt lat="41.279121302068233489990234375" lon="-8.08194779790937900543212890625">
        <ele>126</ele>
        <time>2019-05-01T13:28:11.000Z</time>
      </trkpt>
      <trkpt lat="41.27954953350126743316650390625" lon="-8.08235767297446727752685546875">
        <ele>127.1999969482421875</ele>
        <time>2019-05-01T13:28:31.000Z</time>
      </trkpt>
      <trkpt lat="41.27987743355333805084228515625" lon="-8.08292479254305362701416015625">
        <ele>129.8000030517578125</ele>
        <time>2019-05-01T13:28:51.000Z</time>
      </trkpt>
      <trkpt lat="41.28023819066584110260009765625" lon="-8.083490319550037384033203125">
        <ele>130.399993896484375</ele>
        <time>2019-05-01T13:29:11.000Z</time>
      </trkpt>
      <trkpt lat="41.2804639153182506561279296875" lon="-8.084143102169036865234375">
        <ele>137.600006103515625</ele>
        <time>2019-05-01T13:29:29.000Z</time>
      </trkpt>
      <trkpt lat="41.28070414066314697265625" lon="-8.08479596860706806182861328125">
        <ele>141.1999969482421875</ele>
        <time>2019-05-01T13:29:49.000Z</time>
      </trkpt>
      <trkpt lat="41.2811166979372501373291015625" lon="-8.0852801911532878875732421875">
        <ele>146</ele>
        <time>2019-05-01T13:30:08.000Z</time>
      </trkpt>
      <trkpt lat="41.28138609230518341064453125" lon="-8.0854775011539459228515625">
        <ele>148.600006103515625</ele>
        <time>2019-05-01T13:30:20.000Z</time>
      </trkpt>
      <trkpt lat="41.28144954331219196319580078125" lon="-8.0855326540768146514892578125">
        <ele>149.1999969482421875</ele>
        <time>2019-05-01T13:30:27.000Z</time>
      </trkpt>
      <trkpt lat="41.2814539857208728790283203125" lon="-8.08557364158332347869873046875">
        <ele>149.1999969482421875</ele>
        <time>2019-05-01T13:31:41.000Z</time>
      </trkpt>
      <trkpt lat="41.28127872012555599212646484375" lon="-8.0858851969242095947265625">
        <ele>146.600006103515625</ele>
        <time>2019-05-01T13:31:50.000Z</time>
      </trkpt>
      <trkpt lat="41.281175203621387481689453125" lon="-8.08604001067578792572021484375">
        <ele>144.600006103515625</ele>
        <time>2019-05-01T13:31:53.000Z</time>
      </trkpt>
      <trkpt lat="41.2809805758297443389892578125" lon="-8.0864409171044826507568359375">
        <ele>140.399993896484375</ele>
        <time>2019-05-01T13:31:59.000Z</time>
      </trkpt>
      <trkpt lat="41.28105509094893932342529296875" lon="-8.08710266835987567901611328125">
        <ele>139</ele>
        <time>2019-05-01T13:32:07.000Z</time>
      </trkpt>
      <trkpt lat="41.28117377869784832000732421875" lon="-8.08723594062030315399169921875">
        <ele>139.1999969482421875</ele>
        <time>2019-05-01T13:32:09.000Z</time>
      </trkpt>
      <trkpt lat="41.28141802735626697540283203125" lon="-8.08745764195919036865234375">
        <ele>139.399993896484375</ele>
        <time>2019-05-01T13:32:13.000Z</time>
      </trkpt>
      <trkpt lat="41.2819770164787769317626953125" lon="-8.08763843961060047149658203125">
        <ele>140.600006103515625</ele>
        <time>2019-05-01T13:32:20.000Z</time>
      </trkpt>
      <trkpt lat="41.28213082440197467803955078125" lon="-8.08824243955314159393310546875">
        <ele>132.8000030517578125</ele>
        <time>2019-05-01T13:32:27.000Z</time>
      </trkpt>
      <trkpt lat="41.2818838097155094146728515625" lon="-8.0884951539337635040283203125">
        <ele>130.600006103515625</ele>
        <time>2019-05-01T13:32:32.000Z</time>
      </trkpt>
      <trkpt lat="41.2813892774283885955810546875" lon="-8.088864125311374664306640625">
        <ele>136.600006103515625</ele>
        <time>2019-05-01T13:32:50.000Z</time>
      </trkpt>
      <trkpt lat="41.280904300510883331298828125" lon="-8.0892216973006725311279296875">
        <ele>141.8000030517578125</ele>
        <time>2019-05-01T13:33:08.000Z</time>
      </trkpt>
      <trkpt lat="41.28038562834262847900390625" lon="-8.0894389562308788299560546875">
        <ele>141.600006103515625</ele>
        <time>2019-05-01T13:33:26.000Z</time>
      </trkpt>
      <trkpt lat="41.28001137636601924896240234375" lon="-8.0899178981781005859375">
        <ele>145</ele>
        <time>2019-05-01T13:33:44.000Z</time>
      </trkpt>
      <trkpt lat="41.2799512781202793121337890625" lon="-8.0906288512051105499267578125">
        <ele>153.1999969482421875</ele>
        <time>2019-05-01T13:34:07.000Z</time>
      </trkpt>
      <trkpt lat="41.27992697060108184814453125" lon="-8.091345839202404022216796875">
        <ele>156.600006103515625</ele>
        <time>2019-05-01T13:34:28.000Z</time>
      </trkpt>
      <trkpt lat="41.28003434278070926666259765625" lon="-8.09203407727181911468505859375">
        <ele>159.1999969482421875</ele>
        <time>2019-05-01T13:34:50.000Z</time>
      </trkpt>
      <trkpt lat="41.28012469969689846038818359375" lon="-8.09275500476360321044921875">
        <ele>160.1999969482421875</ele>
        <time>2019-05-01T13:35:12.000Z</time>
      </trkpt>
      <trkpt lat="41.28018873743712902069091796875" lon="-8.093474172055721282958984375">
        <ele>162.399993896484375</ele>
        <time>2019-05-01T13:35:34.000Z</time>
      </trkpt>
      <trkpt lat="41.28019158728420734405517578125" lon="-8.09418353252112865447998046875">
        <ele>166.600006103515625</ele>
        <time>2019-05-01T13:35:55.000Z</time>
      </trkpt>
      <trkpt lat="41.2797916866838932037353515625" lon="-8.09469331987202167510986328125">
        <ele>168.1999969482421875</ele>
        <time>2019-05-01T13:36:19.000Z</time>
      </trkpt>
      <trkpt lat="41.27975572831928730010986328125" lon="-8.09479541145265102386474609375">
        <ele>169.600006103515625</ele>
        <time>2019-05-01T13:36:24.000Z</time>
      </trkpt>
      <trkpt lat="41.27975153736770153045654296875" lon="-8.0948053859174251556396484375">
        <ele>169.8000030517578125</ele>
        <time>2019-05-01T13:36:55.000Z</time>
      </trkpt>
      <trkpt lat="41.27956177107989788055419921875" lon="-8.095494210720062255859375">
        <ele>179.8000030517578125</ele>
        <time>2019-05-01T13:37:19.000Z</time>
      </trkpt>
      <trkpt lat="41.27907847054302692413330078125" lon="-8.09552564285695552825927734375">
        <ele>177.600006103515625</ele>
        <time>2019-05-01T13:37:44.000Z</time>
      </trkpt>
      <trkpt lat="41.27879348583519458770751953125" lon="-8.09488878585398197174072265625">
        <ele>168.399993896484375</ele>
        <time>2019-05-01T13:38:06.000Z</time>
      </trkpt>
      <trkpt lat="41.2783102691173553466796875" lon="-8.0947584472596645355224609375">
        <ele>173.600006103515625</ele>
        <time>2019-05-01T13:38:28.000Z</time>
      </trkpt>
      <trkpt lat="41.27784012816846370697021484375" lon="-8.0951409973204135894775390625">
        <ele>180.1999969482421875</ele>
        <time>2019-05-01T13:38:50.000Z</time>
      </trkpt>
      <trkpt lat="41.27748339436948299407958984375" lon="-8.095428831875324249267578125">
        <ele>180.8000030517578125</ele>
        <time>2019-05-01T13:39:09.000Z</time>
      </trkpt>
      <trkpt lat="41.27747383899986743927001953125" lon="-8.09546864591538906097412109375">
        <ele>181.399993896484375</ele>
        <time>2019-05-01T13:39:13.000Z</time>
      </trkpt>
      <trkpt lat="41.2774772755801677703857421875" lon="-8.0955121479928493499755859375">
        <ele>182.1999969482421875</ele>
        <time>2019-05-01T13:40:04.000Z</time>
      </trkpt>
      <trkpt lat="41.27729798667132854461669921875" lon="-8.0960955284535884857177734375">
        <ele>189.8000030517578125</ele>
        <time>2019-05-01T13:40:26.000Z</time>
      </trkpt>
      <trkpt lat="41.27675928175449371337890625" lon="-8.0962376855313777923583984375">
        <ele>188.8000030517578125</ele>
        <time>2019-05-01T13:40:47.000Z</time>
      </trkpt>
      <trkpt lat="41.2762541882693767547607421875" lon="-8.09647229500114917755126953125">
        <ele>188</ele>
        <time>2019-05-01T13:41:09.000Z</time>
      </trkpt>
      <trkpt lat="41.27620649524033069610595703125" lon="-8.09717930853366851806640625">
        <ele>198.399993896484375</ele>
        <time>2019-05-01T13:41:34.000Z</time>
      </trkpt>
      <trkpt lat="41.27627690322697162628173828125" lon="-8.0977863259613513946533203125">
        <ele>206.1999969482421875</ele>
        <time>2019-05-01T13:42:03.000Z</time>
      </trkpt>
      <trkpt lat="41.27618872560560703277587890625" lon="-8.09787877835333347320556640625">
        <ele>205.8000030517578125</ele>
        <time>2019-05-01T13:42:11.000Z</time>
      </trkpt>
      <trkpt lat="41.27617430873215198516845703125" lon="-8.09787324629724025726318359375">
        <ele>205.399993896484375</ele>
        <time>2019-05-01T13:42:56.000Z</time>
      </trkpt>
      <trkpt lat="41.27585135400295257568359375" lon="-8.09768767096102237701416015625">
        <ele>198.399993896484375</ele>
        <time>2019-05-01T13:43:12.000Z</time>
      </trkpt>
      <trkpt lat="41.2755796127021312713623046875" lon="-8.09753159992396831512451171875">
        <ele>193.600006103515625</ele>
        <time>2019-05-01T13:43:19.000Z</time>
      </trkpt>
      <trkpt lat="41.27541792578995227813720703125" lon="-8.09742447920143604278564453125">
        <ele>193.600006103515625</ele>
        <time>2019-05-01T13:43:23.000Z</time>
      </trkpt>
      <trkpt lat="41.27525062300264835357666015625" lon="-8.0972631275653839111328125">
        <ele>193</ele>
        <time>2019-05-01T13:43:27.000Z</time>
      </trkpt>
      <trkpt lat="41.27489288337528705596923828125" lon="-8.0968639813363552093505859375">
        <ele>188.399993896484375</ele>
        <time>2019-05-01T13:43:35.000Z</time>
      </trkpt>
      <trkpt lat="41.2744544260203838348388671875" lon="-8.09638026170432567596435546875">
        <ele>187</ele>
        <time>2019-05-01T13:43:45.000Z</time>
      </trkpt>
      <trkpt lat="41.27440421842038631439208984375" lon="-8.09633969329297542572021484375">
        <ele>187.1999969482421875</ele>
        <time>2019-05-01T13:43:46.000Z</time>
      </trkpt>
      <trkpt lat="41.274214200675487518310546875" lon="-8.09622586704790592193603515625">
        <ele>188.600006103515625</ele>
        <time>2019-05-01T13:43:50.000Z</time>
      </trkpt>
      <trkpt lat="41.2740862928330898284912109375" lon="-8.09617071412503719329833984375">
        <ele>189.8000030517578125</ele>
        <time>2019-05-01T13:43:53.000Z</time>
      </trkpt>
      <trkpt lat="41.2735520303249359130859375" lon="-8.09621430002152919769287109375">
        <ele>183</ele>
        <time>2019-05-01T13:44:08.000Z</time>
      </trkpt>
      <trkpt lat="41.27303662709891796112060546875" lon="-8.0964814312756061553955078125">
        <ele>174.1999969482421875</ele>
        <time>2019-05-01T13:44:19.000Z</time>
      </trkpt>
      <trkpt lat="41.27305707894265651702880859375" lon="-8.096865154802799224853515625">
        <ele>173.8000030517578125</ele>
        <time>2019-05-01T13:44:27.000Z</time>
      </trkpt>
      <trkpt lat="41.27305188216269016265869140625" lon="-8.09686088003218173980712890625">
        <ele>173.8000030517578125</ele>
        <time>2019-05-01T13:44:28.000Z</time>
      </trkpt>
      <trkpt lat="41.27308306284248828887939453125" lon="-8.09688149951398372650146484375">
        <ele>174.399993896484375</ele>
        <time>2019-05-01T13:44:32.000Z</time>
      </trkpt>
      <trkpt lat="41.27346762455999851226806640625" lon="-8.09737519361078739166259765625">
        <ele>185.1999969482421875</ele>
        <time>2019-05-01T13:45:22.000Z</time>
      </trkpt>
      <trkpt lat="41.27354742027819156646728515625" lon="-8.0980773456394672393798828125">
        <ele>189.600006103515625</ele>
        <time>2019-05-01T13:46:13.000Z</time>
      </trkpt>
      <trkpt lat="41.2737319059669971466064453125" lon="-8.0985085107386112213134765625">
        <ele>195.8000030517578125</ele>
        <time>2019-05-01T13:46:50.000Z</time>
      </trkpt>
      <trkpt lat="41.27379803918302059173583984375" lon="-8.0984964407980442047119140625">
        <ele>197.399993896484375</ele>
        <time>2019-05-01T13:48:10.000Z</time>
      </trkpt>
      <trkpt lat="41.27382972277700901031494140625" lon="-8.098502643406391143798828125">
        <ele>198.1999969482421875</ele>
        <time>2019-05-01T13:48:12.000Z</time>
      </trkpt>
      <trkpt lat="41.2739112786948680877685546875" lon="-8.09853793121874332427978515625">
        <ele>200.600006103515625</ele>
        <time>2019-05-01T13:48:18.000Z</time>
      </trkpt>
      <trkpt lat="41.27401680685579776763916015625" lon="-8.09861672110855579376220703125">
        <ele>202.8000030517578125</ele>
        <time>2019-05-01T13:48:27.000Z</time>
      </trkpt>
      <trkpt lat="41.27401412464678287506103515625" lon="-8.0986271984875202178955078125">
        <ele>202.8000030517578125</ele>
        <time>2019-05-01T13:48:29.000Z</time>
      </trkpt>
      <trkpt lat="41.2744252569973468780517578125" lon="-8.0990429408848285675048828125">
        <ele>209.8000030517578125</ele>
        <time>2019-05-01T13:51:30.000Z</time>
      </trkpt>
      <trkpt lat="41.2744527496397495269775390625" lon="-8.09903112240135669708251953125">
        <ele>210</ele>
        <time>2019-05-01T13:51:32.000Z</time>
      </trkpt>
      <trkpt lat="41.2744752131402492523193359375" lon="-8.0989748798310756683349609375">
        <ele>209.8000030517578125</ele>
        <time>2019-05-01T13:51:35.000Z</time>
      </trkpt>
      <trkpt lat="41.27472708933055400848388671875" lon="-8.09846836142241954803466796875">
        <ele>208.600006103515625</ele>
        <time>2019-05-01T13:52:08.000Z</time>
      </trkpt>
      <trkpt lat="41.27472373656928539276123046875" lon="-8.0985544435679912567138671875">
        <ele>209.1999969482421875</ele>
        <time>2019-05-01T13:52:12.000Z</time>
      </trkpt>
      <trkpt lat="41.274738572537899017333984375" lon="-8.098600208759307861328125">
        <ele>209.600006103515625</ele>
        <time>2019-05-01T13:52:14.000Z</time>
      </trkpt>
      <trkpt lat="41.27476899884641170501708984375" lon="-8.09877245686948299407958984375">
        <ele>211.1999969482421875</ele>
        <time>2019-05-01T13:52:22.000Z</time>
      </trkpt>
      <trkpt lat="41.274755336344242095947265625" lon="-8.09882861562073230743408203125">
        <ele>211.399993896484375</ele>
        <time>2019-05-01T13:52:25.000Z</time>
      </trkpt>
      <trkpt lat="41.2747058831155300140380859375" lon="-8.09887320734560489654541015625">
        <ele>211.399993896484375</ele>
        <time>2019-05-01T13:52:31.000Z</time>
      </trkpt>
      <trkpt lat="41.27472407184541225433349609375" lon="-8.0989641509950160980224609375">
        <ele>212.1999969482421875</ele>
        <time>2019-05-01T13:55:12.000Z</time>
      </trkpt>
      <trkpt lat="41.27471099607646465301513671875" lon="-8.0991532467305660247802734375">
        <ele>213.399993896484375</ele>
        <time>2019-05-01T13:55:19.000Z</time>
      </trkpt>
      <trkpt lat="41.27450983040034770965576171875" lon="-8.0998227931559085845947265625">
        <ele>218.1999969482421875</ele>
        <time>2019-05-01T13:55:47.000Z</time>
      </trkpt>
      <trkpt lat="41.2742904759943485260009765625" lon="-8.10042620636522769927978515625">
        <ele>220.8000030517578125</ele>
        <time>2019-05-01T13:56:12.000Z</time>
      </trkpt>
      <trkpt lat="41.27462885342538356781005859375" lon="-8.10099097900092601776123046875">
        <ele>226</ele>
        <time>2019-05-01T13:56:38.000Z</time>
      </trkpt>
      <trkpt lat="41.2749982438981533050537109375" lon="-8.10153345577418804168701171875">
        <ele>229.399993896484375</ele>
        <time>2019-05-01T13:57:04.000Z</time>
      </trkpt>
      <trkpt lat="41.27533058635890483856201171875" lon="-8.102095462381839752197265625">
        <ele>239.600006103515625</ele>
        <time>2019-05-01T13:57:29.000Z</time>
      </trkpt>
      <trkpt lat="41.2751541472971439361572265625" lon="-8.1027132086455821990966796875">
        <ele>238.399993896484375</ele>
        <time>2019-05-01T13:57:55.000Z</time>
      </trkpt>
      <trkpt lat="41.2748215533792972564697265625" lon="-8.1032972596585750579833984375">
        <ele>237.1999969482421875</ele>
        <time>2019-05-01T13:58:15.000Z</time>
      </trkpt>
      <trkpt lat="41.274989359080791473388671875" lon="-8.10398030094802379608154296875">
        <ele>241.1999969482421875</ele>
        <time>2019-05-01T13:58:34.000Z</time>
      </trkpt>
      <trkpt lat="41.2753881700336933135986328125" lon="-8.1044895015656948089599609375">
        <ele>244.1999969482421875</ele>
        <time>2019-05-01T13:58:55.000Z</time>
      </trkpt>
      <trkpt lat="41.2754766829311847686767578125" lon="-8.1045884080231189727783203125">
        <ele>244.399993896484375</ele>
        <time>2019-05-01T13:59:00.000Z</time>
      </trkpt>
      <trkpt lat="41.2754941172897815704345703125" lon="-8.1046179123222827911376953125">
        <ele>244.600006103515625</ele>
        <time>2019-05-01T13:59:04.000Z</time>
      </trkpt>
      <trkpt lat="41.27550073899328708648681640625" lon="-8.1046370230615139007568359375">
        <ele>244.399993896484375</ele>
        <time>2019-05-01T14:01:25.000Z</time>
      </trkpt>
      <trkpt lat="41.27554968930780887603759765625" lon="-8.10471338219940662384033203125">
        <ele>244.600006103515625</ele>
        <time>2019-05-01T14:01:29.000Z</time>
      </trkpt>
      <trkpt lat="41.27594657242298126220703125" lon="-8.10524362139403820037841796875">
        <ele>245.8000030517578125</ele>
        <time>2019-05-01T14:01:50.000Z</time>
      </trkpt>
      <trkpt lat="41.276430375874042510986328125" lon="-8.1055576913058757781982421875">
        <ele>248.399993896484375</ele>
        <time>2019-05-01T14:02:11.000Z</time>
      </trkpt>
      <trkpt lat="41.27690537832677364349365234375" lon="-8.10578123666346073150634765625">
        <ele>250.8000030517578125</ele>
        <time>2019-05-01T14:02:31.000Z</time>
      </trkpt>
      <trkpt lat="41.2769706733524799346923828125" lon="-8.10572625137865543365478515625">
        <ele>251.8000030517578125</ele>
        <time>2019-05-01T14:02:35.000Z</time>
      </trkpt>
      <trkpt lat="41.277057342231273651123046875" lon="-8.10556649230420589447021484375">
        <ele>253.600006103515625</ele>
        <time>2019-05-01T14:02:42.000Z</time>
      </trkpt>
      <trkpt lat="41.27713688649237155914306640625" lon="-8.10537572018802165985107421875">
        <ele>255.600006103515625</ele>
        <time>2019-05-01T14:02:55.000Z</time>
      </trkpt>
      <trkpt lat="41.27770132385194301605224609375" lon="-8.10421474277973175048828125">
        <ele>267.20001220703125</ele>
        <time>2019-05-01T14:04:46.000Z</time>
      </trkpt>
      <trkpt lat="41.2780366837978363037109375" lon="-8.1036288477480411529541015625">
        <ele>262.600006103515625</ele>
        <time>2019-05-01T14:05:13.000Z</time>
      </trkpt>
      <trkpt lat="41.27818378619849681854248046875" lon="-8.10351007618010044097900390625">
        <ele>260.79998779296875</ele>
        <time>2019-05-01T14:05:19.000Z</time>
      </trkpt>
      <trkpt lat="41.27826257608830928802490234375" lon="-8.103590123355388641357421875">
        <ele>260</ele>
        <time>2019-05-01T14:05:23.000Z</time>
      </trkpt>
      <trkpt lat="41.27860992215573787689208984375" lon="-8.104173839092254638671875">
        <ele>264.399993896484375</ele>
        <time>2019-05-01T14:05:49.000Z</time>
      </trkpt>
      <trkpt lat="41.2789028696715831756591796875" lon="-8.10481212101876735687255859375">
        <ele>267</ele>
        <time>2019-05-01T14:06:11.000Z</time>
      </trkpt>
      <trkpt lat="41.279239989817142486572265625" lon="-8.1054185517132282257080078125">
        <ele>266.20001220703125</ele>
        <time>2019-05-01T14:06:25.000Z</time>
      </trkpt>
      <trkpt lat="41.2795335240662097930908203125" lon="-8.10594283975660800933837890625">
        <ele>263.600006103515625</ele>
        <time>2019-05-01T14:06:48.000Z</time>
      </trkpt>
      <trkpt lat="41.27963234670460224151611328125" lon="-8.1062617711722850799560546875">
        <ele>264.20001220703125</ele>
        <time>2019-05-01T14:07:02.000Z</time>
      </trkpt>
      <trkpt lat="41.2798077799379825592041015625" lon="-8.1069567985832691192626953125">
        <ele>266.79998779296875</ele>
        <time>2019-05-01T14:07:24.000Z</time>
      </trkpt>
      <trkpt lat="41.27994080074131488800048828125" lon="-8.1076494790613651275634765625">
        <ele>270.600006103515625</ele>
        <time>2019-05-01T14:07:48.000Z</time>
      </trkpt>
      <trkpt lat="41.28013760782778263092041015625" lon="-8.108336627483367919921875">
        <ele>277.20001220703125</ele>
        <time>2019-05-01T14:08:16.000Z</time>
      </trkpt>
      <trkpt lat="41.28057531081140041351318359375" lon="-8.10858582146465778350830078125">
        <ele>278.399993896484375</ele>
        <time>2019-05-01T14:08:42.000Z</time>
      </trkpt>
      <trkpt lat="41.2810902111232280731201171875" lon="-8.108371831476688385009765625">
        <ele>284.79998779296875</ele>
        <time>2019-05-01T14:09:04.000Z</time>
      </trkpt>
      <trkpt lat="41.28116036765277385711669921875" lon="-8.10834056697785854339599609375">
        <ele>285.399993896484375</ele>
        <time>2019-05-01T14:09:10.000Z</time>
      </trkpt>
      <trkpt lat="41.281239576637744903564453125" lon="-8.10835414566099643707275390625">
        <ele>287</ele>
        <time>2019-05-01T14:09:19.000Z</time>
      </trkpt>
      <trkpt lat="41.28135499544441699981689453125" lon="-8.108433187007904052734375">
        <ele>290.20001220703125</ele>
        <time>2019-05-01T14:09:32.000Z</time>
      </trkpt>
      <trkpt lat="41.2814605236053466796875" lon="-8.10858070850372314453125">
        <ele>292.399993896484375</ele>
        <time>2019-05-01T14:09:49.000Z</time>
      </trkpt>
      <trkpt lat="41.28149363212287425994873046875" lon="-8.10863309539854526519775390625">
        <ele>293.399993896484375</ele>
        <time>2019-05-01T14:09:53.000Z</time>
      </trkpt>
      <trkpt lat="41.281875930726528167724609375" lon="-8.1091052480041980743408203125">
        <ele>304</ele>
        <time>2019-05-01T14:10:38.000Z</time>
      </trkpt>
      <trkpt lat="41.28198564983904361724853515625" lon="-8.10929677449166774749755859375">
        <ele>307.20001220703125</ele>
        <time>2019-05-01T14:10:54.000Z</time>
      </trkpt>
      <trkpt lat="41.28213384188711643218994140625" lon="-8.10974386520683765411376953125">
        <ele>312.79998779296875</ele>
        <time>2019-05-01T14:11:28.000Z</time>
      </trkpt>
      <trkpt lat="41.28213970921933650970458984375" lon="-8.109826929867267608642578125">
        <ele>313.20001220703125</ele>
        <time>2019-05-01T14:11:33.000Z</time>
      </trkpt>
      <trkpt lat="41.2821315787732601165771484375" lon="-8.10989356599748134613037109375">
        <ele>313.20001220703125</ele>
        <time>2019-05-01T14:11:38.000Z</time>
      </trkpt>
      <trkpt lat="41.28211389295756816864013671875" lon="-8.10993589460849761962890625">
        <ele>313.20001220703125</ele>
        <time>2019-05-01T14:12:02.000Z</time>
      </trkpt>
      <trkpt lat="41.2820407189428806304931640625" lon="-8.110101521015167236328125">
        <ele>312.399993896484375</ele>
        <time>2019-05-01T14:12:09.000Z</time>
      </trkpt>
      <trkpt lat="41.28183712251484394073486328125" lon="-8.11077534221112728118896484375">
        <ele>310.79998779296875</ele>
        <time>2019-05-01T14:12:34.000Z</time>
      </trkpt>
      <trkpt lat="41.2819716520607471466064453125" lon="-8.1114857085049152374267578125">
        <ele>316.20001220703125</ele>
        <time>2019-05-01T14:12:58.000Z</time>
      </trkpt>
      <trkpt lat="41.28198665566742420196533203125" lon="-8.11154480092227458953857421875">
        <ele>316.20001220703125</ele>
        <time>2019-05-01T14:13:02.000Z</time>
      </trkpt>
      <trkpt lat="41.28206158988177776336669921875" lon="-8.11179541982710361480712890625">
        <ele>316.600006103515625</ele>
        <time>2019-05-01T14:14:34.000Z</time>
      </trkpt>
      <trkpt lat="41.28209511749446392059326171875" lon="-8.11189147643744945526123046875">
        <ele>317.79998779296875</ele>
        <time>2019-05-01T14:14:40.000Z</time>
      </trkpt>
      <trkpt lat="41.282122693955898284912109375" lon="-8.1119534187018871307373046875">
        <ele>318.600006103515625</ele>
        <time>2019-05-01T14:14:44.000Z</time>
      </trkpt>
      <trkpt lat="41.28215630538761615753173828125" lon="-8.1126682274043560028076171875">
        <ele>322</ele>
        <time>2019-05-01T14:15:27.000Z</time>
      </trkpt>
      <trkpt lat="41.2821523658931255340576171875" lon="-8.11270435340702533721923828125">
        <ele>322.399993896484375</ele>
        <time>2019-05-01T14:15:31.000Z</time>
      </trkpt>
      <trkpt lat="41.28216049633920192718505859375" lon="-8.1127332709729671478271484375">
        <ele>323</ele>
        <time>2019-05-01T14:15:39.000Z</time>
      </trkpt>
      <trkpt lat="41.28246970474720001220703125" lon="-8.113350011408329010009765625">
        <ele>326.600006103515625</ele>
        <time>2019-05-01T14:16:03.000Z</time>
      </trkpt>
      <trkpt lat="41.2827010452747344970703125" lon="-8.1140240840613842010498046875">
        <ele>328.399993896484375</ele>
        <time>2019-05-01T14:16:25.000Z</time>
      </trkpt>
      <trkpt lat="41.28276432864367961883544921875" lon="-8.11474216170608997344970703125">
        <ele>331.600006103515625</ele>
        <time>2019-05-01T14:16:50.000Z</time>
      </trkpt>
      <trkpt lat="41.28279416821897029876708984375" lon="-8.11485867016017436981201171875">
        <ele>333.399993896484375</ele>
        <time>2019-05-01T14:16:56.000Z</time>
      </trkpt>
      <trkpt lat="41.282833479344844818115234375" lon="-8.11485707759857177734375">
        <ele>333.399993896484375</ele>
        <time>2019-05-01T14:17:02.000Z</time>
      </trkpt>
      <trkpt lat="41.282861642539501190185546875" lon="-8.11484006233513355255126953125">
        <ele>333.20001220703125</ele>
        <time>2019-05-01T14:17:05.000Z</time>
      </trkpt>
      <trkpt lat="41.282871700823307037353515625" lon="-8.11482614837586879730224609375">
        <ele>333</ele>
        <time>2019-05-01T14:17:08.000Z</time>
      </trkpt>
      <trkpt lat="41.28289659507572650909423828125" lon="-8.114815838634967803955078125">
        <ele>333</ele>
        <time>2019-05-01T14:17:21.000Z</time>
      </trkpt>
      <trkpt lat="41.28293783403933048248291015625" lon="-8.11482363380491733551025390625">
        <ele>333.20001220703125</ele>
        <time>2019-05-01T14:17:24.000Z</time>
      </trkpt>
      <trkpt lat="41.28293448127806186676025390625" lon="-8.1148203648626804351806640625">
        <ele>333.20001220703125</ele>
        <time>2019-05-01T14:17:25.000Z</time>
      </trkpt>
      <trkpt lat="41.28296029753983020782470703125" lon="-8.1147720851004123687744140625">
        <ele>332.399993896484375</ele>
        <time>2019-05-01T14:17:33.000Z</time>
      </trkpt>
      <trkpt lat="41.282968930900096893310546875" lon="-8.11474115587770938873291015625">
        <ele>332</ele>
        <time>2019-05-01T14:17:36.000Z</time>
      </trkpt>
      <trkpt lat="41.2829741276800632476806640625" lon="-8.11524138785898685455322265625">
        <ele>338.20001220703125</ele>
        <time>2019-05-01T14:22:58.000Z</time>
      </trkpt>
      <trkpt lat="41.28323723562061786651611328125" lon="-8.115563504397869110107421875">
        <ele>344.600006103515625</ele>
        <time>2019-05-01T14:23:29.000Z</time>
      </trkpt>
      <trkpt lat="41.28328249789774417877197265625" lon="-8.1156122870743274688720703125">
        <ele>345.79998779296875</ele>
        <time>2019-05-01T14:23:34.000Z</time>
      </trkpt>
      <trkpt lat="41.283318959176540374755859375" lon="-8.11565696261823177337646484375">
        <ele>346.600006103515625</ele>
        <time>2019-05-01T14:23:38.000Z</time>
      </trkpt>
      <trkpt lat="41.28342012874782085418701171875" lon="-8.11574530787765979766845703125">
        <ele>348.79998779296875</ele>
        <time>2019-05-01T14:23:48.000Z</time>
      </trkpt>
      <trkpt lat="41.2834978289902210235595703125" lon="-8.1158325634896755218505859375">
        <ele>350.79998779296875</ele>
        <time>2019-05-01T14:23:56.000Z</time>
      </trkpt>
      <trkpt lat="41.28372497856616973876953125" lon="-8.116181753575801849365234375">
        <ele>355.20001220703125</ele>
        <time>2019-05-01T14:24:25.000Z</time>
      </trkpt>
      <trkpt lat="41.28374216146767139434814453125" lon="-8.116217963397502899169921875">
        <ele>355.399993896484375</ele>
        <time>2019-05-01T14:25:05.000Z</time>
      </trkpt>
      <trkpt lat="41.2840651161968708038330078125" lon="-8.11652700416743755340576171875">
        <ele>356.399993896484375</ele>
        <time>2019-05-01T14:25:40.000Z</time>
      </trkpt>
      <trkpt lat="41.28410451114177703857421875" lon="-8.11653069220483303070068359375">
        <ele>356.399993896484375</ele>
        <time>2019-05-01T14:25:48.000Z</time>
      </trkpt>
      <trkpt lat="41.28462494350969791412353515625" lon="-8.1167096458375453948974609375">
        <ele>358.399993896484375</ele>
        <time>2019-05-01T14:26:10.000Z</time>
      </trkpt>
      <trkpt lat="41.2850471399724483489990234375" lon="-8.1171371228992938995361328125">
        <ele>354.79998779296875</ele>
        <time>2019-05-01T14:26:30.000Z</time>
      </trkpt>
      <trkpt lat="41.28525727428495883941650390625" lon="-8.117198981344699859619140625">
        <ele>354</ele>
        <time>2019-05-01T14:26:36.000Z</time>
      </trkpt>
      <trkpt lat="41.28544217906892299652099609375" lon="-8.11727282591164112091064453125">
        <ele>354.20001220703125</ele>
        <time>2019-05-01T14:26:40.000Z</time>
      </trkpt>
      <trkpt lat="41.2857314385473728179931640625" lon="-8.117423951625823974609375">
        <ele>354.20001220703125</ele>
        <time>2019-05-01T14:26:46.000Z</time>
      </trkpt>
      <trkpt lat="41.28605313599109649658203125" lon="-8.11749930493533611297607421875">
        <ele>356.20001220703125</ele>
        <time>2019-05-01T14:26:52.000Z</time>
      </trkpt>
      <trkpt lat="41.28620342351496219635009765625" lon="-8.11763207428157329559326171875">
        <ele>356.79998779296875</ele>
        <time>2019-05-01T14:26:56.000Z</time>
      </trkpt>
      <trkpt lat="41.28664498217403888702392578125" lon="-8.118102550506591796875">
        <ele>357</ele>
        <time>2019-05-01T14:27:12.000Z</time>
      </trkpt>
      <trkpt lat="41.2869201600551605224609375" lon="-8.1187246553599834442138671875">
        <ele>354.79998779296875</ele>
        <time>2019-05-01T14:27:26.000Z</time>
      </trkpt>
      <trkpt lat="41.28703415393829345703125" lon="-8.119215667247772216796875">
        <ele>353.399993896484375</ele>
        <time>2019-05-01T14:27:36.000Z</time>
      </trkpt>
      <trkpt lat="41.28750496543943881988525390625" lon="-8.11965295113623142242431640625">
        <ele>352.600006103515625</ele>
        <time>2019-05-01T14:27:46.000Z</time>
      </trkpt>
      <trkpt lat="41.28770143724977970123291015625" lon="-8.11986668966710567474365234375">
        <ele>349.600006103515625</ele>
        <time>2019-05-01T14:27:51.000Z</time>
      </trkpt>
      <trkpt lat="41.28791534341871738433837890625" lon="-8.12016055919229984283447265625">
        <ele>345.79998779296875</ele>
        <time>2019-05-01T14:27:57.000Z</time>
      </trkpt>
      <trkpt lat="41.2879962287843227386474609375" lon="-8.12032316811382770538330078125">
        <ele>345.20001220703125</ele>
        <time>2019-05-01T14:28:00.000Z</time>
      </trkpt>
      <trkpt lat="41.28805138170719146728515625" lon="-8.12067269347608089447021484375">
        <ele>346.20001220703125</ele>
        <time>2019-05-01T14:28:06.000Z</time>
      </trkpt>
      <trkpt lat="41.28818490542471408843994140625" lon="-8.1210397370159626007080078125">
        <ele>346.79998779296875</ele>
        <time>2019-05-01T14:28:18.000Z</time>
      </trkpt>
      <trkpt lat="41.28824408166110515594482421875" lon="-8.12124811112880706787109375">
        <ele>347.20001220703125</ele>
        <time>2019-05-01T14:28:27.000Z</time>
      </trkpt>
      <trkpt lat="41.2882523797452449798583984375" lon="-8.12128356657922267913818359375">
        <ele>347.20001220703125</ele>
        <time>2019-05-01T14:28:46.000Z</time>
      </trkpt>
      <trkpt lat="41.28831985406577587127685546875" lon="-8.1214179284870624542236328125">
        <ele>347</ele>
        <time>2019-05-01T14:28:51.000Z</time>
      </trkpt>
      <trkpt lat="41.288285739719867706298828125" lon="-8.1217270530760288238525390625">
        <ele>352.20001220703125</ele>
        <time>2019-05-01T14:29:03.000Z</time>
      </trkpt>
      <trkpt lat="41.288274340331554412841796875" lon="-8.1217599101364612579345703125">
        <ele>353</ele>
        <time>2019-05-01T14:29:12.000Z</time>
      </trkpt>
      <trkpt lat="41.28803771920502185821533203125" lon="-8.1222165562212467193603515625">
        <ele>356.399993896484375</ele>
        <time>2019-05-01T14:29:30.000Z</time>
      </trkpt>
      <trkpt lat="41.28799815662205219268798828125" lon="-8.12240104191005229949951171875">
        <ele>358.20001220703125</ele>
        <time>2019-05-01T14:29:47.000Z</time>
      </trkpt>
      <trkpt lat="41.287986673414707183837890625" lon="-8.12241462059319019317626953125">
        <ele>358.20001220703125</ele>
        <time>2019-05-01T14:29:48.000Z</time>
      </trkpt>
      <trkpt lat="41.28796881996095180511474609375" lon="-8.12247681431472301483154296875">
        <ele>358.79998779296875</ele>
        <time>2019-05-01T14:29:52.000Z</time>
      </trkpt>
      <trkpt lat="41.2878845818340778350830078125" lon="-8.12287512235343456268310546875">
        <ele>363.79998779296875</ele>
        <time>2019-05-01T14:30:25.000Z</time>
      </trkpt>
      <trkpt lat="41.28797988407313823699951171875" lon="-8.12305013649165630340576171875">
        <ele>367.399993896484375</ele>
        <time>2019-05-01T14:30:58.000Z</time>
      </trkpt>
      <trkpt lat="41.2883127294480800628662109375" lon="-8.12358775176107883453369140625">
        <ele>380.600006103515625</ele>
        <time>2019-05-01T14:31:51.000Z</time>
      </trkpt>
      <trkpt lat="41.2883425690233707427978515625" lon="-8.12366084195673465728759765625">
        <ele>382.399993896484375</ele>
        <time>2019-05-01T14:32:01.000Z</time>
      </trkpt>
      <trkpt lat="41.28858053125441074371337890625" lon="-8.12409703619778156280517578125">
        <ele>392.79998779296875</ele>
        <time>2019-05-01T14:33:09.000Z</time>
      </trkpt>
      <trkpt lat="41.28878102637827396392822265625" lon="-8.124713860452175140380859375">
        <ele>402.20001220703125</ele>
        <time>2019-05-01T14:34:09.000Z</time>
      </trkpt>
      <trkpt lat="41.2889447249472141265869140625" lon="-8.1249560974538326263427734375">
        <ele>407.20001220703125</ele>
        <time>2019-05-01T14:34:54.000Z</time>
      </trkpt>
      <trkpt lat="41.28899526782333850860595703125" lon="-8.1250570155680179595947265625">
        <ele>408.79998779296875</ele>
        <time>2019-05-01T14:35:06.000Z</time>
      </trkpt>
      <trkpt lat="41.28939374350011348724365234375" lon="-8.12554760836064815521240234375">
        <ele>419.79998779296875</ele>
        <time>2019-05-01T14:36:06.000Z</time>
      </trkpt>
      <trkpt lat="41.2895783968269824981689453125" lon="-8.12568322755396366119384765625">
        <ele>423.20001220703125</ele>
        <time>2019-05-01T14:36:29.000Z</time>
      </trkpt>
      <trkpt lat="41.28971024416387081146240234375" lon="-8.1257567368447780609130859375">
        <ele>425.399993896484375</ele>
        <time>2019-05-01T14:36:45.000Z</time>
      </trkpt>
      <trkpt lat="41.2899140082299709320068359375" lon="-8.1258596666157245635986328125">
        <ele>429.20001220703125</ele>
        <time>2019-05-01T14:37:07.000Z</time>
      </trkpt>
      <trkpt lat="41.29027484916150569915771484375" lon="-8.125926218926906585693359375">
        <ele>434.79998779296875</ele>
        <time>2019-05-01T14:37:42.000Z</time>
      </trkpt>
      <trkpt lat="41.29043779335916042327880859375" lon="-8.12593133188784122467041015625">
        <ele>437.20001220703125</ele>
        <time>2019-05-01T14:38:00.000Z</time>
      </trkpt>
      <trkpt lat="41.29054776392877101898193359375" lon="-8.12595698051154613494873046875">
        <ele>439.20001220703125</ele>
        <time>2019-05-01T14:38:11.000Z</time>
      </trkpt>
      <trkpt lat="41.29065454937517642974853515625" lon="-8.1259609200060367584228515625">
        <ele>440.399993896484375</ele>
        <time>2019-05-01T14:38:22.000Z</time>
      </trkpt>
      <trkpt lat="41.2908132188022136688232421875" lon="-8.125955723226070404052734375">
        <ele>440.20001220703125</ele>
        <time>2019-05-01T14:38:40.000Z</time>
      </trkpt>
      <trkpt lat="41.29074675031006336212158203125" lon="-8.1269885413348674774169921875">
        <ele>456.399993896484375</ele>
        <time>2019-05-01T14:45:59.000Z</time>
      </trkpt>
      <trkpt lat="41.29079570062458515167236328125" lon="-8.12741727568209171295166015625">
        <ele>461.399993896484375</ele>
        <time>2019-05-01T14:46:27.000Z</time>
      </trkpt>
      <trkpt lat="41.2908323295414447784423828125" lon="-8.12751282937824726104736328125">
        <ele>462.600006103515625</ele>
        <time>2019-05-01T14:46:34.000Z</time>
      </trkpt>
      <trkpt lat="41.2908737361431121826171875" lon="-8.12765968032181262969970703125">
        <ele>464.20001220703125</ele>
        <time>2019-05-01T14:46:45.000Z</time>
      </trkpt>
      <trkpt lat="41.29098228178918361663818359375" lon="-8.12797081656754016876220703125">
        <ele>466.79998779296875</ele>
        <time>2019-05-01T14:47:09.000Z</time>
      </trkpt>
      <trkpt lat="41.2910961918532848358154296875" lon="-8.1282830424606800079345703125">
        <ele>465.79998779296875</ele>
        <time>2019-05-01T14:48:04.000Z</time>
      </trkpt>
      <trkpt lat="41.2911253608763217926025390625" lon="-8.1283604912459850311279296875">
        <ele>465.20001220703125</ele>
        <time>2019-05-01T14:48:09.000Z</time>
      </trkpt>
      <trkpt lat="41.29114673472940921783447265625" lon="-8.12841706909239292144775390625">
        <ele>464.79998779296875</ele>
        <time>2019-05-01T14:48:14.000Z</time>
      </trkpt>
      <trkpt lat="41.2911714613437652587890625" lon="-8.128462918102741241455078125">
        <ele>464.79998779296875</ele>
        <time>2019-05-01T14:48:18.000Z</time>
      </trkpt>
      <trkpt lat="41.2912346608936786651611328125" lon="-8.128585629165172576904296875">
        <ele>464.600006103515625</ele>
        <time>2019-05-01T14:48:29.000Z</time>
      </trkpt>
      <trkpt lat="41.2912591360509395599365234375" lon="-8.128616809844970703125">
        <ele>464.399993896484375</ele>
        <time>2019-05-01T14:48:37.000Z</time>
      </trkpt>
      <trkpt lat="41.2913282029330730438232421875" lon="-8.1287437118589878082275390625">
        <ele>461.399993896484375</ele>
        <time>2019-05-01T14:48:46.000Z</time>
      </trkpt>
      <trkpt lat="41.2913610599935054779052734375" lon="-8.1287980265915393829345703125">
        <ele>460</ele>
        <time>2019-05-01T14:48:50.000Z</time>
      </trkpt>
      <trkpt lat="41.29158007912337779998779296875" lon="-8.12918342649936676025390625">
        <ele>450.79998779296875</ele>
        <time>2019-05-01T14:49:19.000Z</time>
      </trkpt>
      <trkpt lat="41.29162752069532871246337890625" lon="-8.12924721278250217437744140625">
        <ele>450.399993896484375</ele>
        <time>2019-05-01T14:49:58.000Z</time>
      </trkpt>
      <trkpt lat="41.2918555922806262969970703125" lon="-8.12962523661553859710693359375">
        <ele>445.399993896484375</ele>
        <time>2019-05-01T14:50:25.000Z</time>
      </trkpt>
      <trkpt lat="41.291884593665599822998046875" lon="-8.129655160009860992431640625">
        <ele>445</ele>
        <time>2019-05-01T14:50:30.000Z</time>
      </trkpt>
      <trkpt lat="41.2919219769537448883056640625" lon="-8.129710145294666290283203125">
        <ele>444.399993896484375</ele>
        <time>2019-05-01T14:50:35.000Z</time>
      </trkpt>
      <trkpt lat="41.29197352565824985504150390625" lon="-8.1298169307410717010498046875">
        <ele>443</ele>
        <time>2019-05-01T14:50:42.000Z</time>
      </trkpt>
      <trkpt lat="41.29200604744255542755126953125" lon="-8.12986546196043491363525390625">
        <ele>442.399993896484375</ele>
        <time>2019-05-01T14:50:48.000Z</time>
      </trkpt>
      <trkpt lat="41.292073689401149749755859375" lon="-8.12987619079649448394775390625">
        <ele>442.399993896484375</ele>
        <time>2019-05-01T14:51:10.000Z</time>
      </trkpt>
      <trkpt lat="41.292183659970760345458984375" lon="-8.12991273589432239532470703125">
        <ele>442.20001220703125</ele>
        <time>2019-05-01T14:51:14.000Z</time>
      </trkpt>
      <trkpt lat="41.292647011578083038330078125" lon="-8.13035278581082820892333984375">
        <ele>437.600006103515625</ele>
        <time>2019-05-01T14:51:35.000Z</time>
      </trkpt>
      <trkpt lat="41.29304372705519199371337890625" lon="-8.1308455578982830047607421875">
        <ele>431.20001220703125</ele>
        <time>2019-05-01T14:51:50.000Z</time>
      </trkpt>
      <trkpt lat="41.29308446310460567474365234375" lon="-8.13086626119911670684814453125">
        <ele>431</ele>
        <time>2019-05-01T14:51:51.000Z</time>
      </trkpt>
      <trkpt lat="41.293211281299591064453125" lon="-8.1309776566922664642333984375">
        <ele>428.399993896484375</ele>
        <time>2019-05-01T14:51:55.000Z</time>
      </trkpt>
      <trkpt lat="41.29369148053228855133056640625" lon="-8.13135333359241485595703125">
        <ele>417.600006103515625</ele>
        <time>2019-05-01T14:52:12.000Z</time>
      </trkpt>
      <trkpt lat="41.293764822185039520263671875" lon="-8.13139490783214569091796875">
        <ele>417.79998779296875</ele>
        <time>2019-05-01T14:52:14.000Z</time>
      </trkpt>
      <trkpt lat="41.29385157488286495208740234375" lon="-8.13144058920443058013916015625">
        <ele>418</ele>
        <time>2019-05-01T14:52:16.000Z</time>
      </trkpt>
      <trkpt lat="41.29401233978569507598876953125" lon="-8.13159699551761150360107421875">
        <ele>416.600006103515625</ele>
        <time>2019-05-01T14:52:20.000Z</time>
      </trkpt>
      <trkpt lat="41.29409565590322017669677734375" lon="-8.13168768770992755889892578125">
        <ele>414.399993896484375</ele>
        <time>2019-05-01T14:52:22.000Z</time>
      </trkpt>
      <trkpt lat="41.29438617266714572906494140625" lon="-8.1320944614708423614501953125">
        <ele>410.20001220703125</ele>
        <time>2019-05-01T14:52:30.000Z</time>
      </trkpt>
      <trkpt lat="41.294761262834072113037109375" lon="-8.132598884403705596923828125">
        <ele>413</ele>
        <time>2019-05-01T14:52:46.000Z</time>
      </trkpt>
      <trkpt lat="41.295089162886142730712890625" lon="-8.1331968493759632110595703125">
        <ele>416.20001220703125</ele>
        <time>2019-05-01T14:53:04.000Z</time>
      </trkpt>
      <trkpt lat="41.29556299187242984771728515625" lon="-8.1335874460637569427490234375">
        <ele>417.600006103515625</ele>
        <time>2019-05-01T14:53:22.000Z</time>
      </trkpt>
      <trkpt lat="41.2960190512239933013916015625" lon="-8.13396940939128398895263671875">
        <ele>413.600006103515625</ele>
        <time>2019-05-01T14:53:41.000Z</time>
      </trkpt>
      <trkpt lat="41.296188533306121826171875" lon="-8.1343800388276576995849609375">
        <ele>414.600006103515625</ele>
        <time>2019-05-01T14:53:55.000Z</time>
      </trkpt>
      <trkpt lat="41.29635524936020374298095703125" lon="-8.1347646005451679229736328125">
        <ele>413.79998779296875</ele>
        <time>2019-05-01T14:54:05.000Z</time>
      </trkpt>
      <trkpt lat="41.2963902018964290618896484375" lon="-8.13488580286502838134765625">
        <ele>413.79998779296875</ele>
        <time>2019-05-01T14:54:07.000Z</time>
      </trkpt>
      <trkpt lat="41.29643051885068416595458984375" lon="-8.13501865603029727935791015625">
        <ele>414</ele>
        <time>2019-05-01T14:54:09.000Z</time>
      </trkpt>
      <trkpt lat="41.2965980730950832366943359375" lon="-8.1353855319321155548095703125">
        <ele>414</ele>
        <time>2019-05-01T14:54:15.000Z</time>
      </trkpt>
      <trkpt lat="41.2966726720333099365234375" lon="-8.13558611087501049041748046875">
        <ele>414.20001220703125</ele>
        <time>2019-05-01T14:54:18.000Z</time>
      </trkpt>
      <trkpt lat="41.2970607541501522064208984375" lon="-8.13592893071472644805908203125">
        <ele>412.399993896484375</ele>
        <time>2019-05-01T14:54:28.000Z</time>
      </trkpt>
      <trkpt lat="41.297180950641632080078125" lon="-8.1360733509063720703125">
        <ele>411.20001220703125</ele>
        <time>2019-05-01T14:54:31.000Z</time>
      </trkpt>
      <trkpt lat="41.29739829339087009429931640625" lon="-8.13612364232540130615234375">
        <ele>409</ele>
        <time>2019-05-01T14:54:36.000Z</time>
      </trkpt>
      <trkpt lat="41.2979100085794925689697265625" lon="-8.1364238820970058441162109375">
        <ele>406.600006103515625</ele>
        <time>2019-05-01T14:54:51.000Z</time>
      </trkpt>
      <trkpt lat="41.298033893108367919921875" lon="-8.13657735474407672882080078125">
        <ele>406.20001220703125</ele>
        <time>2019-05-01T14:54:53.000Z</time>
      </trkpt>
      <trkpt lat="41.29821636714041233062744140625" lon="-8.13681540079414844512939453125">
        <ele>405.79998779296875</ele>
        <time>2019-05-01T14:54:56.000Z</time>
      </trkpt>
      <trkpt lat="41.29846380092203617095947265625" lon="-8.13703400082886219024658203125">
        <ele>405.600006103515625</ele>
        <time>2019-05-01T14:55:01.000Z</time>
      </trkpt>
      <trkpt lat="41.2988058663904666900634765625" lon="-8.13763640820980072021484375">
        <ele>408.79998779296875</ele>
        <time>2019-05-01T14:55:16.000Z</time>
      </trkpt>
      <trkpt lat="41.299038715660572052001953125" lon="-8.138326741755008697509765625">
        <ele>414.79998779296875</ele>
        <time>2019-05-01T14:55:30.000Z</time>
      </trkpt>
      <trkpt lat="41.29950164817273616790771484375" lon="-8.13868657685816287994384765625">
        <ele>421.20001220703125</ele>
        <time>2019-05-01T14:55:57.000Z</time>
      </trkpt>
      <trkpt lat="41.3000416941940784454345703125" lon="-8.13875916413962841033935546875">
        <ele>426</ele>
        <time>2019-05-01T14:56:24.000Z</time>
      </trkpt>
      <trkpt lat="41.3001674227416515350341796875" lon="-8.13872949220240116119384765625">
        <ele>426.79998779296875</ele>
        <time>2019-05-01T14:56:33.000Z</time>
      </trkpt>
      <trkpt lat="41.30020740441977977752685546875" lon="-8.1387024186551570892333984375">
        <ele>426.600006103515625</ele>
        <time>2019-05-01T14:56:36.000Z</time>
      </trkpt>
      <trkpt lat="41.30071568302810192108154296875" lon="-8.1384442560374736785888671875">
        <ele>425.600006103515625</ele>
        <time>2019-05-01T14:57:11.000Z</time>
      </trkpt>
      <trkpt lat="41.30095859058201313018798828125" lon="-8.138493038713932037353515625">
        <ele>421.600006103515625</ele>
        <time>2019-05-01T14:57:25.000Z</time>
      </trkpt>
      <trkpt lat="41.3010143302381038665771484375" lon="-8.13854173757135868072509765625">
        <ele>421</ele>
        <time>2019-05-01T14:57:29.000Z</time>
      </trkpt>
      <trkpt lat="41.3012101314961910247802734375" lon="-8.139194436371326446533203125">
        <ele>423</ele>
        <time>2019-05-01T14:58:00.000Z</time>
      </trkpt>
      <trkpt lat="41.30120635963976383209228515625" lon="-8.13992860727012157440185546875">
        <ele>430.399993896484375</ele>
        <time>2019-05-01T14:58:34.000Z</time>
      </trkpt>
      <trkpt lat="41.30119227804243564605712890625" lon="-8.14003891311585903167724609375">
        <ele>431.600006103515625</ele>
        <time>2019-05-01T14:58:41.000Z</time>
      </trkpt>
      <trkpt lat="41.3012027554214000701904296875" lon="-8.1401243247091770172119140625">
        <ele>432.20001220703125</ele>
        <time>2019-05-01T14:58:50.000Z</time>
      </trkpt>
      <trkpt lat="41.30121055059134960174560546875" lon="-8.14084223471581935882568359375">
        <ele>440.79998779296875</ele>
        <time>2019-05-01T14:59:36.000Z</time>
      </trkpt>
      <trkpt lat="41.301284730434417724609375" lon="-8.1415656767785549163818359375">
        <ele>448.20001220703125</ele>
        <time>2019-05-01T15:00:20.000Z</time>
      </trkpt>
      <trkpt lat="41.301316916942596435546875" lon="-8.14215618185698986053466796875">
        <ele>452.20001220703125</ele>
        <time>2019-05-01T15:01:00.000Z</time>
      </trkpt>
      <trkpt lat="41.30130845122039318084716796875" lon="-8.14218920655548572540283203125">
        <ele>452.399993896484375</ele>
        <time>2019-05-01T15:01:04.000Z</time>
      </trkpt>
      <trkpt lat="41.3013048470020294189453125" lon="-8.14230470918118953704833984375">
        <ele>452.79998779296875</ele>
        <time>2019-05-01T15:01:09.000Z</time>
      </trkpt>
      <trkpt lat="41.30133862607181072235107421875" lon="-8.14302119426429271697998046875">
        <ele>454.399993896484375</ele>
        <time>2019-05-01T15:01:32.000Z</time>
      </trkpt>
      <trkpt lat="41.30134315229952335357666015625" lon="-8.14310668967664241790771484375">
        <ele>454.399993896484375</ele>
        <time>2019-05-01T15:01:35.000Z</time>
      </trkpt>
      <trkpt lat="41.30124516785144805908203125" lon="-8.14386240206658840179443359375">
        <ele>452.79998779296875</ele>
        <time>2019-05-01T15:01:52.000Z</time>
      </trkpt>
      <trkpt lat="41.3012329302728176116943359375" lon="-8.14398653805255889892578125">
        <ele>452</ele>
        <time>2019-05-01T15:01:54.000Z</time>
      </trkpt>
      <trkpt lat="41.30129210650920867919921875" lon="-8.144460953772068023681640625">
        <ele>448.399993896484375</ele>
        <time>2019-05-01T15:02:01.000Z</time>
      </trkpt>
      <trkpt lat="41.30144474096596240997314453125" lon="-8.1451963819563388824462890625">
        <ele>441.79998779296875</ele>
        <time>2019-05-01T15:02:10.000Z</time>
      </trkpt>
      <trkpt lat="41.3016480021178722381591796875" lon="-8.14585913904011249542236328125">
        <ele>438.20001220703125</ele>
        <time>2019-05-01T15:02:21.000Z</time>
      </trkpt>
      <trkpt lat="41.30168044008314609527587890625" lon="-8.14591295085847377777099609375">
        <ele>438.20001220703125</ele>
        <time>2019-05-01T15:02:23.000Z</time>
      </trkpt>
      <trkpt lat="41.3016949407756328582763671875" lon="-8.14594865776598453521728515625">
        <ele>438.399993896484375</ele>
        <time>2019-05-01T15:02:27.000Z</time>
      </trkpt>
      <trkpt lat="41.30170592106878757476806640625" lon="-8.145971037447452545166015625">
        <ele>438.399993896484375</ele>
        <time>2019-05-01T15:03:36.000Z</time>
      </trkpt>
      <trkpt lat="41.3020996190607547760009765625" lon="-8.14647638238966464996337890625">
        <ele>439.399993896484375</ele>
        <time>2019-05-01T15:03:56.000Z</time>
      </trkpt>
      <trkpt lat="41.30256104283034801483154296875" lon="-8.14687284640967845916748046875">
        <ele>444.399993896484375</ele>
        <time>2019-05-01T15:04:18.000Z</time>
      </trkpt>
      <trkpt lat="41.30304467864334583282470703125" lon="-8.14722505398094654083251953125">
        <ele>448</ele>
        <time>2019-05-01T15:04:40.000Z</time>
      </trkpt>
      <trkpt lat="41.303228996694087982177734375" lon="-8.14732044003903865814208984375">
        <ele>450.20001220703125</ele>
        <time>2019-05-01T15:04:49.000Z</time>
      </trkpt>
      <trkpt lat="41.303245089948177337646484375" lon="-8.14732831902801990509033203125">
        <ele>450.399993896484375</ele>
        <time>2019-05-01T15:04:52.000Z</time>
      </trkpt>
      <trkpt lat="41.3032737560570240020751953125" lon="-8.1473426520824432373046875">
        <ele>450.79998779296875</ele>
        <time>2019-05-01T15:05:53.000Z</time>
      </trkpt>
      <trkpt lat="41.30379536189138889312744140625" lon="-8.14758363179862499237060546875">
        <ele>455.600006103515625</ele>
        <time>2019-05-01T15:06:15.000Z</time>
      </trkpt>
      <trkpt lat="41.30433632992208003997802734375" lon="-8.14776669256389141082763671875">
        <ele>459.20001220703125</ele>
        <time>2019-05-01T15:06:40.000Z</time>
      </trkpt>
      <trkpt lat="41.3048700056970119476318359375" lon="-8.1479580514132976531982421875">
        <ele>461.79998779296875</ele>
        <time>2019-05-01T15:07:04.000Z</time>
      </trkpt>
      <trkpt lat="41.3054463453590869903564453125" lon="-8.14795511774718761444091796875">
        <ele>459.20001220703125</ele>
        <time>2019-05-01T15:07:24.000Z</time>
      </trkpt>
      <trkpt lat="41.30576745606958866119384765625" lon="-8.14796702004969120025634765625">
        <ele>457.600006103515625</ele>
        <time>2019-05-01T15:07:30.000Z</time>
      </trkpt>
      <trkpt lat="41.3063515909016132354736328125" lon="-8.148098029196262359619140625">
        <ele>455.20001220703125</ele>
        <time>2019-05-01T15:07:39.000Z</time>
      </trkpt>
      <trkpt lat="41.306905634701251983642578125" lon="-8.1483271904289722442626953125">
        <ele>452.20001220703125</ele>
        <time>2019-05-01T15:07:48.000Z</time>
      </trkpt>
      <trkpt lat="41.3074710778892040252685546875" lon="-8.148533888161182403564453125">
        <ele>450.600006103515625</ele>
        <time>2019-05-01T15:07:57.000Z</time>
      </trkpt>
      <trkpt lat="41.3080142252147197723388671875" lon="-8.14858359284698963165283203125">
        <ele>450</ele>
        <time>2019-05-01T15:08:07.000Z</time>
      </trkpt>
      <trkpt lat="41.3080621697008609771728515625" lon="-8.14856615848839282989501953125">
        <ele>450</ele>
        <time>2019-05-01T15:08:08.000Z</time>
      </trkpt>
      <trkpt lat="41.30861260928213596343994140625" lon="-8.148481585085391998291015625">
        <ele>454.600006103515625</ele>
        <time>2019-05-01T15:08:26.000Z</time>
      </trkpt>
      <trkpt lat="41.3091491349041461944580078125" lon="-8.14838728867471218109130859375">
        <ele>458</ele>
        <time>2019-05-01T15:08:44.000Z</time>
      </trkpt>
      <trkpt lat="41.30964810959994792938232421875" lon="-8.14807347021996974945068359375">
        <ele>456.399993896484375</ele>
        <time>2019-05-01T15:09:00.000Z</time>
      </trkpt>
      <trkpt lat="41.30967576988041400909423828125" lon="-8.14804329536855220794677734375">
        <ele>456.20001220703125</ele>
        <time>2019-05-01T15:09:04.000Z</time>
      </trkpt>
      <trkpt lat="41.30970083177089691162109375" lon="-8.1480291299521923065185546875">
        <ele>456.20001220703125</ele>
        <time>2019-05-01T15:09:13.000Z</time>
      </trkpt>
      <trkpt lat="41.31008665077388286590576171875" lon="-8.147735930979251861572265625">
        <ele>454.399993896484375</ele>
        <time>2019-05-01T15:09:25.000Z</time>
      </trkpt>
      <trkpt lat="41.3102806918323040008544921875" lon="-8.14768337644636631011962890625">
        <ele>454.600006103515625</ele>
        <time>2019-05-01T15:09:30.000Z</time>
      </trkpt>
      <trkpt lat="41.3108218275010585784912109375" lon="-8.14749218523502349853515625">
        <ele>454.79998779296875</ele>
        <time>2019-05-01T15:09:42.000Z</time>
      </trkpt>
      <trkpt lat="41.31106850691139698028564453125" lon="-8.1474246270954608917236328125">
        <ele>455</ele>
        <time>2019-05-01T15:09:47.000Z</time>
      </trkpt>
      <trkpt lat="41.31160226650536060333251953125" lon="-8.14718775451183319091796875">
        <ele>453.399993896484375</ele>
        <time>2019-05-01T15:09:57.000Z</time>
      </trkpt>
      <trkpt lat="41.31213963031768798828125" lon="-8.1469022668898105621337890625">
        <ele>447.20001220703125</ele>
        <time>2019-05-01T15:10:06.000Z</time>
      </trkpt>
      <trkpt lat="41.312705911695957183837890625" lon="-8.14659926109015941619873046875">
        <ele>441.399993896484375</ele>
        <time>2019-05-01T15:10:13.000Z</time>
      </trkpt>
      <trkpt lat="41.31323472596704959869384765625" lon="-8.146377392113208770751953125">
        <ele>437.20001220703125</ele>
        <time>2019-05-01T15:10:21.000Z</time>
      </trkpt>
      <trkpt lat="41.31328116171061992645263671875" lon="-8.14637772738933563232421875">
        <ele>437.20001220703125</ele>
        <time>2019-05-01T15:10:22.000Z</time>
      </trkpt>
      <trkpt lat="41.3133508153259754180908203125" lon="-8.14642340876162052154541015625">
        <ele>437</ele>
        <time>2019-05-01T15:10:27.000Z</time>
      </trkpt>
      <trkpt lat="41.31337872706353664398193359375" lon="-8.1464486382901668548583984375">
        <ele>436.79998779296875</ele>
        <time>2019-05-01T15:11:42.000Z</time>
      </trkpt>
      <trkpt lat="41.3135580159723758697509765625" lon="-8.14654343761503696441650390625">
        <ele>436.79998779296875</ele>
        <time>2019-05-01T15:11:48.000Z</time>
      </trkpt>
      <trkpt lat="41.3140936195850372314453125" lon="-8.146348558366298675537109375">
        <ele>437</ele>
        <time>2019-05-01T15:12:01.000Z</time>
      </trkpt>
      <trkpt lat="41.31431297399103641510009765625" lon="-8.14626515842974185943603515625">
        <ele>437.600006103515625</ele>
        <time>2019-05-01T15:12:06.000Z</time>
      </trkpt>
      <trkpt lat="41.31485561840236186981201171875" lon="-8.14605913124978542327880859375">
        <ele>440.399993896484375</ele>
        <time>2019-05-01T15:12:19.000Z</time>
      </trkpt>
      <trkpt lat="41.315131299197673797607421875" lon="-8.14585335552692413330078125">
        <ele>443</ele>
        <time>2019-05-01T15:12:25.000Z</time>
      </trkpt>
      <trkpt lat="41.3154442794620990753173828125" lon="-8.14524172805249691009521484375">
        <ele>442.20001220703125</ele>
        <time>2019-05-01T15:12:35.000Z</time>
      </trkpt>
      <trkpt lat="41.31568207405507564544677734375" lon="-8.14455709420144557952880859375">
        <ele>440.600006103515625</ele>
        <time>2019-05-01T15:12:45.000Z</time>
      </trkpt>
      <trkpt lat="41.3159260712563991546630859375" lon="-8.1438780762255191802978515625">
        <ele>438.399993896484375</ele>
        <time>2019-05-01T15:12:55.000Z</time>
      </trkpt>
      <trkpt lat="41.3161616027355194091796875" lon="-8.14323141239583492279052734375">
        <ele>437.20001220703125</ele>
        <time>2019-05-01T15:13:06.000Z</time>
      </trkpt>
      <trkpt lat="41.316204182803630828857421875" lon="-8.143132589757442474365234375">
        <ele>437.399993896484375</ele>
        <time>2019-05-01T15:13:08.000Z</time>
      </trkpt>
      <trkpt lat="41.3163411431014537811279296875" lon="-8.14273637719452381134033203125">
        <ele>437.20001220703125</ele>
        <time>2019-05-01T15:13:18.000Z</time>
      </trkpt>
      <trkpt lat="41.316503249108791351318359375" lon="-8.14276521094143390655517578125">
        <ele>438.399993896484375</ele>
        <time>2019-05-01T15:13:22.000Z</time>
      </trkpt>
      <trkpt lat="41.317084617912769317626953125" lon="-8.14285598695278167724609375">
        <ele>437.600006103515625</ele>
        <time>2019-05-01T15:13:34.000Z</time>
      </trkpt>
      <trkpt lat="41.31725837476551532745361328125" lon="-8.14288490451872348785400390625">
        <ele>438.20001220703125</ele>
        <time>2019-05-01T15:13:38.000Z</time>
      </trkpt>
      <trkpt lat="41.31742291152477264404296875" lon="-8.14291675575077533721923828125">
        <ele>436.79998779296875</ele>
        <time>2019-05-01T15:13:42.000Z</time>
      </trkpt>
      <trkpt lat="41.31754872389137744903564453125" lon="-8.14293821342289447784423828125">
        <ele>435</ele>
        <time>2019-05-01T15:13:45.000Z</time>
      </trkpt>
      <trkpt lat="41.31763773970305919647216796875" lon="-8.14297777600586414337158203125">
        <ele>433.79998779296875</ele>
        <time>2019-05-01T15:13:47.000Z</time>
      </trkpt>
      <trkpt lat="41.31818172521889209747314453125" lon="-8.14330316148698329925537109375">
        <ele>430.600006103515625</ele>
        <time>2019-05-01T15:13:58.000Z</time>
      </trkpt>
      <trkpt lat="41.318423710763454437255859375" lon="-8.1435458175837993621826171875">
        <ele>427.399993896484375</ele>
        <time>2019-05-01T15:14:03.000Z</time>
      </trkpt>
      <trkpt lat="41.31874792277812957763671875" lon="-8.1441687606275081634521484375">
        <ele>426</ele>
        <time>2019-05-01T15:14:12.000Z</time>
      </trkpt>
      <trkpt lat="41.31883333437144756317138671875" lon="-8.14438459463417530059814453125">
        <ele>426</ele>
        <time>2019-05-01T15:14:15.000Z</time>
      </trkpt>
      <trkpt lat="41.319033242762088775634765625" lon="-8.14511532895267009735107421875">
        <ele>426.20001220703125</ele>
        <time>2019-05-01T15:14:24.000Z</time>
      </trkpt>
      <trkpt lat="41.319161988794803619384765625" lon="-8.145491592586040496826171875">
        <ele>426.600006103515625</ele>
        <time>2019-05-01T15:14:29.000Z</time>
      </trkpt>
      <trkpt lat="41.3195061497390270233154296875" lon="-8.14575168304145336151123046875">
        <ele>424.399993896484375</ele>
        <time>2019-05-01T15:14:35.000Z</time>
      </trkpt>
      <trkpt lat="41.31970186717808246612548828125" lon="-8.1458354182541370391845703125">
        <ele>423.20001220703125</ele>
        <time>2019-05-01T15:14:38.000Z</time>
      </trkpt>
      <trkpt lat="41.31991191767156124114990234375" lon="-8.1457925029098987579345703125">
        <ele>421.600006103515625</ele>
        <time>2019-05-01T15:14:42.000Z</time>
      </trkpt>
      <trkpt lat="41.320417262613773345947265625" lon="-8.145624361932277679443359375">
        <ele>418.20001220703125</ele>
        <time>2019-05-01T15:14:57.000Z</time>
      </trkpt>
      <trkpt lat="41.32099829614162445068359375" lon="-8.145486898720264434814453125">
        <ele>415</ele>
        <time>2019-05-01T15:15:08.000Z</time>
      </trkpt>
      <trkpt lat="41.32155342958867549896240234375" lon="-8.14530618488788604736328125">
        <ele>412.20001220703125</ele>
        <time>2019-05-01T15:15:24.000Z</time>
      </trkpt>
      <trkpt lat="41.32184897549450397491455078125" lon="-8.1452905945479869842529296875">
        <ele>411.79998779296875</ele>
        <time>2019-05-01T15:15:31.000Z</time>
      </trkpt>
      <trkpt lat="41.32240821607410907745361328125" lon="-8.1453717313706874847412109375">
        <ele>408.79998779296875</ele>
        <time>2019-05-01T15:15:42.000Z</time>
      </trkpt>
      <trkpt lat="41.322948932647705078125" lon="-8.145444653928279876708984375">
        <ele>406.79998779296875</ele>
        <time>2019-05-01T15:15:51.000Z</time>
      </trkpt>
      <trkpt lat="41.32353843189775943756103515625" lon="-8.1455353461205959320068359375">
        <ele>404.600006103515625</ele>
        <time>2019-05-01T15:16:00.000Z</time>
      </trkpt>
      <trkpt lat="41.323602385818958282470703125" lon="-8.1455294787883758544921875">
        <ele>404.399993896484375</ele>
        <time>2019-05-01T15:16:01.000Z</time>
      </trkpt>
      <trkpt lat="41.324160285294055938720703125" lon="-8.1453848071396350860595703125">
        <ele>402.600006103515625</ele>
        <time>2019-05-01T15:16:13.000Z</time>
      </trkpt>
      <trkpt lat="41.32459321059286594390869140625" lon="-8.14531884156167507171630859375">
        <ele>401.20001220703125</ele>
        <time>2019-05-01T15:16:24.000Z</time>
      </trkpt>
      <trkpt lat="41.32506259717047214508056640625" lon="-8.14565596170723438262939453125">
        <ele>399.79998779296875</ele>
        <time>2019-05-01T15:16:38.000Z</time>
      </trkpt>
      <trkpt lat="41.32530701346695423126220703125" lon="-8.14572016708552837371826171875">
        <ele>399.79998779296875</ele>
        <time>2019-05-01T15:16:44.000Z</time>
      </trkpt>
      <trkpt lat="41.325666345655918121337890625" lon="-8.14582653343677520751953125">
        <ele>400</ele>
        <time>2019-05-01T15:16:52.000Z</time>
      </trkpt>
      <trkpt lat="41.32615928538143634796142578125" lon="-8.145944885909557342529296875">
        <ele>400.399993896484375</ele>
        <time>2019-05-01T15:17:03.000Z</time>
      </trkpt>
      <trkpt lat="41.32666991092264652252197265625" lon="-8.14619575627148151397705078125">
        <ele>399.20001220703125</ele>
        <time>2019-05-01T15:17:16.000Z</time>
      </trkpt>
      <trkpt lat="41.3271990604698657989501953125" lon="-8.14640614204108715057373046875">
        <ele>399.399993896484375</ele>
        <time>2019-05-01T15:17:29.000Z</time>
      </trkpt>
      <trkpt lat="41.32727994583547115325927734375" lon="-8.14644520170986652374267578125">
        <ele>399.79998779296875</ele>
        <time>2019-05-01T15:17:31.000Z</time>
      </trkpt>
      <trkpt lat="41.32738555781543254852294921875" lon="-8.1464932300150394439697265625">
        <ele>399.399993896484375</ele>
        <time>2019-05-01T15:17:37.000Z</time>
      </trkpt>
      <trkpt lat="41.3274438120424747467041015625" lon="-8.1464816629886627197265625">
        <ele>399</ele>
        <time>2019-05-01T15:18:14.000Z</time>
      </trkpt>
      <trkpt lat="41.32796457968652248382568359375" lon="-8.14676488749682903289794921875">
        <ele>399.399993896484375</ele>
        <time>2019-05-01T15:18:29.000Z</time>
      </trkpt>
      <trkpt lat="41.32847084663808345794677734375" lon="-8.14708876423537731170654296875">
        <ele>397.399993896484375</ele>
        <time>2019-05-01T15:18:43.000Z</time>
      </trkpt>
      <trkpt lat="41.328991949558258056640625" lon="-8.1474065221846103668212890625">
        <ele>396</ele>
        <time>2019-05-01T15:18:56.000Z</time>
      </trkpt>
      <trkpt lat="41.32915246300399303436279296875" lon="-8.14752093516290187835693359375">
        <ele>395.600006103515625</ele>
        <time>2019-05-01T15:19:00.000Z</time>
      </trkpt>
      <trkpt lat="41.329653449356555938720703125" lon="-8.1478469073772430419921875">
        <ele>393</ele>
        <time>2019-05-01T15:19:10.000Z</time>
      </trkpt>
      <trkpt lat="41.33016147650778293609619140625" lon="-8.14815309830009937286376953125">
        <ele>391.20001220703125</ele>
        <time>2019-05-01T15:19:21.000Z</time>
      </trkpt>
      <trkpt lat="41.33066740818321704864501953125" lon="-8.14848267473280429840087890625">
        <ele>393.79998779296875</ele>
        <time>2019-05-01T15:19:35.000Z</time>
      </trkpt>
      <trkpt lat="41.3311978988349437713623046875" lon="-8.14867478795349597930908203125">
        <ele>389.600006103515625</ele>
        <time>2019-05-01T15:19:48.000Z</time>
      </trkpt>
      <trkpt lat="41.33128263987600803375244140625" lon="-8.1487208046019077301025390625">
        <ele>389.79998779296875</ele>
        <time>2019-05-01T15:19:50.000Z</time>
      </trkpt>
      <trkpt lat="41.33177063427865505218505859375" lon="-8.14906203188002109527587890625">
        <ele>390.399993896484375</ele>
        <time>2019-05-01T15:20:02.000Z</time>
      </trkpt>
      <trkpt lat="41.332255862653255462646484375" lon="-8.1494533829391002655029296875">
        <ele>391.600006103515625</ele>
        <time>2019-05-01T15:20:15.000Z</time>
      </trkpt>
      <trkpt lat="41.3327180407941341400146484375" lon="-8.14990910701453685760498046875">
        <ele>390</ele>
        <time>2019-05-01T15:20:28.000Z</time>
      </trkpt>
      <trkpt lat="41.33319421671330928802490234375" lon="-8.150269277393817901611328125">
        <ele>391.20001220703125</ele>
        <time>2019-05-01T15:20:40.000Z</time>
      </trkpt>
      <trkpt lat="41.333667375147342681884765625" lon="-8.1506751291453838348388671875">
        <ele>388.79998779296875</ele>
        <time>2019-05-01T15:20:55.000Z</time>
      </trkpt>
      <trkpt lat="41.334035508334636688232421875" lon="-8.15124702639877796173095703125">
        <ele>389.20001220703125</ele>
        <time>2019-05-01T15:21:09.000Z</time>
      </trkpt>
      <trkpt lat="41.33439333178102970123291015625" lon="-8.15183862112462520599365234375">
        <ele>387.20001220703125</ele>
        <time>2019-05-01T15:21:25.000Z</time>
      </trkpt>
      <trkpt lat="41.33453230373561382293701171875" lon="-8.15245703794062137603759765625">
        <ele>387.20001220703125</ele>
        <time>2019-05-01T15:21:38.000Z</time>
      </trkpt>
      <trkpt lat="41.33456222712993621826171875" lon="-8.15268418751657009124755859375">
        <ele>387.399993896484375</ele>
        <time>2019-05-01T15:21:47.000Z</time>
      </trkpt>
      <trkpt lat="41.3345600478351116180419921875" lon="-8.1526909768581390380859375">
        <ele>387.399993896484375</ele>
        <time>2019-05-01T15:23:06.000Z</time>
      </trkpt>
      <trkpt lat="41.33459282107651233673095703125" lon="-8.15331635065376758575439453125">
        <ele>388.20001220703125</ele>
        <time>2019-05-01T15:23:21.000Z</time>
      </trkpt>
      <trkpt lat="41.33454940281808376312255859375" lon="-8.15347619354724884033203125">
        <ele>388.20001220703125</ele>
        <time>2019-05-01T15:23:24.000Z</time>
      </trkpt>
      <trkpt lat="41.33445988409221172332763671875" lon="-8.153744749724864959716796875">
        <ele>387.79998779296875</ele>
        <time>2019-05-01T15:23:29.000Z</time>
      </trkpt>
      <trkpt lat="41.33451528847217559814453125" lon="-8.15405496396124362945556640625">
        <ele>389.79998779296875</ele>
        <time>2019-05-01T15:23:36.000Z</time>
      </trkpt>
      <trkpt lat="41.33445753715932369232177734375" lon="-8.154198043048381805419921875">
        <ele>389.79998779296875</ele>
        <time>2019-05-01T15:23:39.000Z</time>
      </trkpt>
      <trkpt lat="41.33428889326751232147216796875" lon="-8.154275156557559967041015625">
        <ele>388.399993896484375</ele>
        <time>2019-05-01T15:23:43.000Z</time>
      </trkpt>
      <trkpt lat="41.334208510816097259521484375" lon="-8.1543665193021297454833984375">
        <ele>387.399993896484375</ele>
        <time>2019-05-01T15:23:45.000Z</time>
      </trkpt>
      <trkpt lat="41.3339552097022533416748046875" lon="-8.15503656864166259765625">
        <ele>383.79998779296875</ele>
        <time>2019-05-01T15:23:54.000Z</time>
      </trkpt>
      <trkpt lat="41.33391355164349079132080078125" lon="-8.1552047096192836761474609375">
        <ele>383</ele>
        <time>2019-05-01T15:23:56.000Z</time>
      </trkpt>
      <trkpt lat="41.3339129649102687835693359375" lon="-8.1554710865020751953125">
        <ele>382.399993896484375</ele>
        <time>2019-05-01T15:23:59.000Z</time>
      </trkpt>
      <trkpt lat="41.33414204232394695281982421875" lon="-8.156141303479671478271484375">
        <ele>381.600006103515625</ele>
        <time>2019-05-01T15:24:07.000Z</time>
      </trkpt>
      <trkpt lat="41.3344390131533145904541015625" lon="-8.15663256682455539703369140625">
        <ele>380</ele>
        <time>2019-05-01T15:24:15.000Z</time>
      </trkpt>
      <trkpt lat="41.3348876126110553741455078125" lon="-8.157056607306003570556640625">
        <ele>379.399993896484375</ele>
        <time>2019-05-01T15:24:26.000Z</time>
      </trkpt>
      <trkpt lat="41.335370242595672607421875" lon="-8.1575140915811061859130859375">
        <ele>379</ele>
        <time>2019-05-01T15:24:36.000Z</time>
      </trkpt>
      <trkpt lat="41.33582018315792083740234375" lon="-8.1579512916505336761474609375">
        <ele>379.399993896484375</ele>
        <time>2019-05-01T15:24:44.000Z</time>
      </trkpt>
      <trkpt lat="41.3360466621816158294677734375" lon="-8.15817835740745067596435546875">
        <ele>379.79998779296875</ele>
        <time>2019-05-01T15:24:48.000Z</time>
      </trkpt>
      <trkpt lat="41.3361583091318607330322265625" lon="-8.15884237177670001983642578125">
        <ele>375.79998779296875</ele>
        <time>2019-05-01T15:24:56.000Z</time>
      </trkpt>
      <trkpt lat="41.33608597330749034881591796875" lon="-8.15961132757365703582763671875">
        <ele>376</ele>
        <time>2019-05-01T15:25:05.000Z</time>
      </trkpt>
      <trkpt lat="41.33604423142969608306884765625" lon="-8.16011038608849048614501953125">
        <ele>375</ele>
        <time>2019-05-01T15:25:11.000Z</time>
      </trkpt>
      <trkpt lat="41.3361990451812744140625" lon="-8.16054725088179111480712890625">
        <ele>374.20001220703125</ele>
        <time>2019-05-01T15:25:16.000Z</time>
      </trkpt>
      <trkpt lat="41.33660078980028629302978515625" lon="-8.1611612252891063690185546875">
        <ele>369.399993896484375</ele>
        <time>2019-05-01T15:25:24.000Z</time>
      </trkpt>
      <trkpt lat="41.3369646482169628143310546875" lon="-8.16173261962831020355224609375">
        <ele>366.399993896484375</ele>
        <time>2019-05-01T15:25:31.000Z</time>
      </trkpt>
      <trkpt lat="41.337309814989566802978515625" lon="-8.16238841973245143890380859375">
        <ele>361.20001220703125</ele>
        <time>2019-05-01T15:25:38.000Z</time>
      </trkpt>
      <trkpt lat="41.33751827292144298553466796875" lon="-8.16281564533710479736328125">
        <ele>358.79998779296875</ele>
        <time>2019-05-01T15:25:42.000Z</time>
      </trkpt>
      <trkpt lat="41.3379371166229248046875" lon="-8.16328746266663074493408203125">
        <ele>357.399993896484375</ele>
        <time>2019-05-01T15:25:48.000Z</time>
      </trkpt>
      <trkpt lat="41.33800710551440715789794921875" lon="-8.16334814764559268951416015625">
        <ele>357.20001220703125</ele>
        <time>2019-05-01T15:25:49.000Z</time>
      </trkpt>
      <trkpt lat="41.338531561195850372314453125" lon="-8.16364738158881664276123046875">
        <ele>353.20001220703125</ele>
        <time>2019-05-01T15:25:56.000Z</time>
      </trkpt>
      <trkpt lat="41.339042522013187408447265625" lon="-8.16393571905791759490966796875">
        <ele>350.20001220703125</ele>
        <time>2019-05-01T15:26:03.000Z</time>
      </trkpt>
      <trkpt lat="41.33955624885857105255126953125" lon="-8.16423092968761920928955078125">
        <ele>346.600006103515625</ele>
        <time>2019-05-01T15:26:10.000Z</time>
      </trkpt>
      <trkpt lat="41.3399811275303363800048828125" lon="-8.1644761003553867340087890625">
        <ele>344.600006103515625</ele>
        <time>2019-05-01T15:26:16.000Z</time>
      </trkpt>
      <trkpt lat="41.3402084447443485260009765625" lon="-8.164757229387760162353515625">
        <ele>342.600006103515625</ele>
        <time>2019-05-01T15:26:20.000Z</time>
      </trkpt>
      <trkpt lat="41.340591497719287872314453125" lon="-8.1653102673590183258056640625">
        <ele>342.79998779296875</ele>
        <time>2019-05-01T15:26:27.000Z</time>
      </trkpt>
      <trkpt lat="41.3406340777873992919921875" lon="-8.1653883866965770721435546875">
        <ele>343</ele>
        <time>2019-05-01T15:26:28.000Z</time>
      </trkpt>
      <trkpt lat="41.34082526899874210357666015625" lon="-8.16614753566682338714599609375">
        <ele>342.600006103515625</ele>
        <time>2019-05-01T15:26:37.000Z</time>
      </trkpt>
      <trkpt lat="41.3409934937953948974609375" lon="-8.1668441556394100189208984375">
        <ele>342.399993896484375</ele>
        <time>2019-05-01T15:26:45.000Z</time>
      </trkpt>
      <trkpt lat="41.34116959758102893829345703125" lon="-8.1675911508500576019287109375">
        <ele>342.79998779296875</ele>
        <time>2019-05-01T15:26:54.000Z</time>
      </trkpt>
      <trkpt lat="41.3412402570247650146484375" lon="-8.1678240001201629638671875">
        <ele>343.399993896484375</ele>
        <time>2019-05-01T15:26:57.000Z</time>
      </trkpt>
      <trkpt lat="41.3415814004838466644287109375" lon="-8.1684704124927520751953125">
        <ele>342.399993896484375</ele>
        <time>2019-05-01T15:27:07.000Z</time>
      </trkpt>
      <trkpt lat="41.34190477430820465087890625" lon="-8.16904465667903423309326171875">
        <ele>342.600006103515625</ele>
        <time>2019-05-01T15:27:18.000Z</time>
      </trkpt>
      <trkpt lat="41.34227215312421321868896484375" lon="-8.169679082930088043212890625">
        <ele>341.20001220703125</ele>
        <time>2019-05-01T15:27:28.000Z</time>
      </trkpt>
      <trkpt lat="41.34262704290449619293212890625" lon="-8.17029272206127643585205078125">
        <ele>339.20001220703125</ele>
        <time>2019-05-01T15:27:37.000Z</time>
      </trkpt>
      <trkpt lat="41.34299081750214099884033203125" lon="-8.170926310122013092041015625">
        <ele>332.79998779296875</ele>
        <time>2019-05-01T15:27:46.000Z</time>
      </trkpt>
      <trkpt lat="41.34332860819995403289794921875" lon="-8.17151346243917942047119140625">
        <ele>329</ele>
        <time>2019-05-01T15:27:54.000Z</time>
      </trkpt>
      <trkpt lat="41.34367058984935283660888671875" lon="-8.17211578600108623504638671875">
        <ele>326.79998779296875</ele>
        <time>2019-05-01T15:28:02.000Z</time>
      </trkpt>
      <trkpt lat="41.3440657965838909149169921875" lon="-8.17261031828820705413818359375">
        <ele>325.20001220703125</ele>
        <time>2019-05-01T15:28:11.000Z</time>
      </trkpt>
      <trkpt lat="41.3445824570953845977783203125" lon="-8.17303544841706752777099609375">
        <ele>323</ele>
        <time>2019-05-01T15:28:20.000Z</time>
      </trkpt>
      <trkpt lat="41.3449995405972003936767578125" lon="-8.173329569399356842041015625">
        <ele>320.600006103515625</ele>
        <time>2019-05-01T15:28:26.000Z</time>
      </trkpt>
      <trkpt lat="41.34555953554809093475341796875" lon="-8.17353215999901294708251953125">
        <ele>318.20001220703125</ele>
        <time>2019-05-01T15:28:33.000Z</time>
      </trkpt>
      <trkpt lat="41.34564268402755260467529296875" lon="-8.1735480017960071563720703125">
        <ele>318.20001220703125</ele>
        <time>2019-05-01T15:28:34.000Z</time>
      </trkpt>
      <trkpt lat="41.345982737839221954345703125" lon="-8.173491843044757843017578125">
        <ele>315.79998779296875</ele>
        <time>2019-05-01T15:28:38.000Z</time>
      </trkpt>
      <trkpt lat="41.34649671614170074462890625" lon="-8.17322504706680774688720703125">
        <ele>313.20001220703125</ele>
        <time>2019-05-01T15:28:44.000Z</time>
      </trkpt>
      <trkpt lat="41.34667910635471343994140625" lon="-8.1731535494327545166015625">
        <ele>315.399993896484375</ele>
        <time>2019-05-01T15:28:46.000Z</time>
      </trkpt>
      <trkpt lat="41.3472311384975910186767578125" lon="-8.17329143173992633819580078125">
        <ele>314.20001220703125</ele>
        <time>2019-05-01T15:28:52.000Z</time>
      </trkpt>
      <trkpt lat="41.3473105989396572113037109375" lon="-8.1733525358140468597412109375">
        <ele>313.399993896484375</ele>
        <time>2019-05-01T15:28:53.000Z</time>
      </trkpt>
      <trkpt lat="41.347797922790050506591796875" lon="-8.173714466392993927001953125">
        <ele>310.399993896484375</ele>
        <time>2019-05-01T15:28:59.000Z</time>
      </trkpt>
      <trkpt lat="41.3483078777790069580078125" lon="-8.17394907586276531219482421875">
        <ele>307.79998779296875</ele>
        <time>2019-05-01T15:29:05.000Z</time>
      </trkpt>
      <trkpt lat="41.3486379571259021759033203125" lon="-8.17407296039164066314697265625">
        <ele>304</ele>
        <time>2019-05-01T15:29:09.000Z</time>
      </trkpt>
      <trkpt lat="41.34899712167680263519287109375" lon="-8.17468450404703617095947265625">
        <ele>296.600006103515625</ele>
        <time>2019-05-01T15:29:16.000Z</time>
      </trkpt>
      <trkpt lat="41.3491358421742916107177734375" lon="-8.17509655840694904327392578125">
        <ele>295</ele>
        <time>2019-05-01T15:29:20.000Z</time>
      </trkpt>
      <trkpt lat="41.34949215687811374664306640625" lon="-8.175686560571193695068359375">
        <ele>296.20001220703125</ele>
        <time>2019-05-01T15:29:28.000Z</time>
      </trkpt>
      <trkpt lat="41.3495358265936374664306640625" lon="-8.17575202323496341705322265625">
        <ele>296</ele>
        <time>2019-05-01T15:29:29.000Z</time>
      </trkpt>
      <trkpt lat="41.34989951737225055694580078125" lon="-8.17631185054779052734375">
        <ele>295.20001220703125</ele>
        <time>2019-05-01T15:29:37.000Z</time>
      </trkpt>
      <trkpt lat="41.350264213979244232177734375" lon="-8.1768913753330707550048828125">
        <ele>292.600006103515625</ele>
        <time>2019-05-01T15:29:45.000Z</time>
      </trkpt>
      <trkpt lat="41.3506395556032657623291015625" lon="-8.17748238332569599151611328125">
        <ele>291.20001220703125</ele>
        <time>2019-05-01T15:29:53.000Z</time>
      </trkpt>
      <trkpt lat="41.35102554224431514739990234375" lon="-8.17808101885020732879638671875">
        <ele>288.399993896484375</ele>
        <time>2019-05-01T15:30:01.000Z</time>
      </trkpt>
      <trkpt lat="41.351318992674350738525390625" lon="-8.17854420281946659088134765625">
        <ele>287.399993896484375</ele>
        <time>2019-05-01T15:30:07.000Z</time>
      </trkpt>
      <trkpt lat="41.35158495046198368072509765625" lon="-8.179263286292552947998046875">
        <ele>285.399993896484375</ele>
        <time>2019-05-01T15:30:15.000Z</time>
      </trkpt>
      <trkpt lat="41.35174043476581573486328125" lon="-8.179925121366977691650390625">
        <ele>283.20001220703125</ele>
        <time>2019-05-01T15:30:22.000Z</time>
      </trkpt>
      <trkpt lat="41.35187630541622638702392578125" lon="-8.180584274232387542724609375">
        <ele>281.79998779296875</ele>
        <time>2019-05-01T15:30:31.000Z</time>
      </trkpt>
      <trkpt lat="41.35186708532273769378662109375" lon="-8.1810581870377063751220703125">
        <ele>278.79998779296875</ele>
        <time>2019-05-01T15:30:36.000Z</time>
      </trkpt>
      <trkpt lat="41.35197303257882595062255859375" lon="-8.181861340999603271484375">
        <ele>275.79998779296875</ele>
        <time>2019-05-01T15:30:44.000Z</time>
      </trkpt>
      <trkpt lat="41.3521821610629558563232421875" lon="-8.1825404427945613861083984375">
        <ele>276.399993896484375</ele>
        <time>2019-05-01T15:30:52.000Z</time>
      </trkpt>
      <trkpt lat="41.35227126069366931915283203125" lon="-8.18267229013144969940185546875">
        <ele>276.600006103515625</ele>
        <time>2019-05-01T15:30:54.000Z</time>
      </trkpt>
      <trkpt lat="41.35271650739014148712158203125" lon="-8.1830966658890247344970703125">
        <ele>273.79998779296875</ele>
        <time>2019-05-01T15:31:03.000Z</time>
      </trkpt>
      <trkpt lat="41.3528131507337093353271484375" lon="-8.18320185877382755279541015625">
        <ele>273.600006103515625</ele>
        <time>2019-05-01T15:31:05.000Z</time>
      </trkpt>
      <trkpt lat="41.35308556258678436279296875" lon="-8.18384391255676746368408203125">
        <ele>273.20001220703125</ele>
        <time>2019-05-01T15:31:14.000Z</time>
      </trkpt>
      <trkpt lat="41.35332687757909297943115234375" lon="-8.184501640498638153076171875">
        <ele>274.79998779296875</ele>
        <time>2019-05-01T15:31:24.000Z</time>
      </trkpt>
      <trkpt lat="41.35336694307625293731689453125" lon="-8.184603564441204071044921875">
        <ele>275</ele>
        <time>2019-05-01T15:31:26.000Z</time>
      </trkpt>
      <trkpt lat="41.35361756198108196258544921875" lon="-8.18527269177138805389404296875">
        <ele>277.79998779296875</ele>
        <time>2019-05-01T15:31:44.000Z</time>
      </trkpt>
      <trkpt lat="41.35368109680712223052978515625" lon="-8.18543094210326671600341796875">
        <ele>278.79998779296875</ele>
        <time>2019-05-01T15:31:49.000Z</time>
      </trkpt>
      <trkpt lat="41.353696770966053009033203125" lon="-8.185458518564701080322265625">
        <ele>279</ele>
        <time>2019-05-01T15:31:52.000Z</time>
      </trkpt>
      <trkpt lat="41.3537098467350006103515625" lon="-8.18547167815268039703369140625">
        <ele>279</ele>
        <time>2019-05-01T15:32:01.000Z</time>
      </trkpt>
      <trkpt lat="41.35407471098005771636962890625" lon="-8.18601943552494049072265625">
        <ele>282.79998779296875</ele>
        <time>2019-05-01T15:32:23.000Z</time>
      </trkpt>
      <trkpt lat="41.3544707559049129486083984375" lon="-8.18654783070087432861328125">
        <ele>286.399993896484375</ele>
        <time>2019-05-01T15:32:44.000Z</time>
      </trkpt>
      <trkpt lat="41.354869566857814788818359375" lon="-8.18706843070685863494873046875">
        <ele>289.79998779296875</ele>
        <time>2019-05-01T15:33:04.000Z</time>
      </trkpt>
      <trkpt lat="41.35526024736464023590087890625" lon="-8.1875880248844623565673828125">
        <ele>294</ele>
        <time>2019-05-01T15:33:24.000Z</time>
      </trkpt>
      <trkpt lat="41.3557568751275539398193359375" lon="-8.18788097240030765533447265625">
        <ele>296</ele>
        <time>2019-05-01T15:33:45.000Z</time>
      </trkpt>
      <trkpt lat="41.3563151098787784576416015625" lon="-8.18794417195022106170654296875">
        <ele>299</ele>
        <time>2019-05-01T15:34:04.000Z</time>
      </trkpt>
      <trkpt lat="41.3568639568984508514404296875" lon="-8.18804374895989894866943359375">
        <ele>301.399993896484375</ele>
        <time>2019-05-01T15:34:21.000Z</time>
      </trkpt>
      <trkpt lat="41.3573323376476764678955078125" lon="-8.18846183829009532928466796875">
        <ele>302</ele>
        <time>2019-05-01T15:34:38.000Z</time>
      </trkpt>
      <trkpt lat="41.357791833579540252685546875" lon="-8.18889065645635128021240234375">
        <ele>302.600006103515625</ele>
        <time>2019-05-01T15:34:53.000Z</time>
      </trkpt>
      <trkpt lat="41.35782645083963871002197265625" lon="-8.188923932611942291259765625">
        <ele>302.600006103515625</ele>
        <time>2019-05-01T15:34:54.000Z</time>
      </trkpt>
      <trkpt lat="41.3582737930119037628173828125" lon="-8.18934177048504352569580078125">
        <ele>302</ele>
        <time>2019-05-01T15:35:08.000Z</time>
      </trkpt>
      <trkpt lat="41.35844134725630283355712890625" lon="-8.18946716375648975372314453125">
        <ele>302</ele>
        <time>2019-05-01T15:35:13.000Z</time>
      </trkpt>
      <trkpt lat="41.3585695065557956695556640625" lon="-8.18952298723161220550537109375">
        <ele>302.20001220703125</ele>
        <time>2019-05-01T15:35:16.000Z</time>
      </trkpt>
      <trkpt lat="41.35841921903192996978759765625" lon="-8.18993655033409595489501953125">
        <ele>300</ele>
        <time>2019-05-01T15:35:32.000Z</time>
      </trkpt>
      <trkpt lat="41.35835149325430393218994140625" lon="-8.1898772902786731719970703125">
        <ele>300.399993896484375</ele>
        <time>2019-05-01T15:35:34.000Z</time>
      </trkpt>
      <trkpt lat="41.35828636586666107177734375" lon="-8.1898058764636516571044921875">
        <ele>300.399993896484375</ele>
        <time>2019-05-01T15:35:36.000Z</time>
      </trkpt>
      <trkpt lat="41.35846205055713653564453125" lon="-8.18951703608036041259765625">
        <ele>302</ele>
        <time>2019-05-01T15:35:44.000Z</time>
      </trkpt>
      <trkpt lat="41.3585037924349308013916015625" lon="-8.18950337357819080352783203125">
        <ele>302</ele>
        <time>2019-05-01T15:35:45.000Z</time>
      </trkpt>
      <trkpt lat="41.35870420373976230621337890625" lon="-8.18942558951675891876220703125">
        <ele>302.79998779296875</ele>
        <time>2019-05-01T15:35:51.000Z</time>
      </trkpt>
      <trkpt lat="41.35892347432672977447509765625" lon="-8.1892486475408077239990234375">
        <ele>304</ele>
        <time>2019-05-01T15:36:07.000Z</time>
      </trkpt>
      <trkpt lat="41.3590085506439208984375" lon="-8.1891745515167713165283203125">
        <ele>304.79998779296875</ele>
        <time>2019-05-01T15:36:40.000Z</time>
      </trkpt>
      <trkpt lat="41.35947383008897304534912109375" lon="-8.188811279833316802978515625">
        <ele>309.79998779296875</ele>
        <time>2019-05-01T15:37:23.000Z</time>
      </trkpt>
      <trkpt lat="41.35993969626724720001220703125" lon="-8.18844255991280078887939453125">
        <ele>314.79998779296875</ele>
        <time>2019-05-01T15:38:07.000Z</time>
      </trkpt>
      <trkpt lat="41.3604400120675563812255859375" lon="-8.188168890774250030517578125">
        <ele>318.20001220703125</ele>
        <time>2019-05-01T15:38:51.000Z</time>
      </trkpt>
      <trkpt lat="41.3609727658331394195556640625" lon="-8.18818422965705394744873046875">
        <ele>322.79998779296875</ele>
        <time>2019-05-01T15:39:36.000Z</time>
      </trkpt>
      <trkpt lat="41.36151767335832118988037109375" lon="-8.18828011862933635711669921875">
        <ele>328.600006103515625</ele>
        <time>2019-05-01T15:40:21.000Z</time>
      </trkpt>
      <trkpt lat="41.3620630837976932525634765625" lon="-8.18839595653116703033447265625">
        <ele>333</ele>
        <time>2019-05-01T15:41:06.000Z</time>
      </trkpt>
      <trkpt lat="41.36242409236729145050048828125" lon="-8.18843853659927845001220703125">
        <ele>335.600006103515625</ele>
        <time>2019-05-01T15:41:35.000Z</time>
      </trkpt>
      <trkpt lat="41.36244957335293292999267578125" lon="-8.18846267648041248321533203125">
        <ele>335.79998779296875</ele>
        <time>2019-05-01T15:41:38.000Z</time>
      </trkpt>
      <trkpt lat="41.36298199184238910675048828125" lon="-8.18859125487506389617919921875">
        <ele>339.20001220703125</ele>
        <time>2019-05-01T15:42:20.000Z</time>
      </trkpt>
      <trkpt lat="41.36350929737091064453125" lon="-8.18874313496053218841552734375">
        <ele>340.399993896484375</ele>
        <time>2019-05-01T15:43:03.000Z</time>
      </trkpt>
      <trkpt lat="41.3640395365655422210693359375" lon="-8.18886634893715381622314453125">
        <ele>342</ele>
        <time>2019-05-01T15:43:46.000Z</time>
      </trkpt>
      <trkpt lat="41.36458427645266056060791015625" lon="-8.18895117379724979400634765625">
        <ele>342.79998779296875</ele>
        <time>2019-05-01T15:44:29.000Z</time>
      </trkpt>
      <trkpt lat="41.3651234842836856842041015625" lon="-8.189068101346492767333984375">
        <ele>346.399993896484375</ele>
        <time>2019-05-01T15:45:11.000Z</time>
      </trkpt>
      <trkpt lat="41.36550150811672210693359375" lon="-8.18917446769773960113525390625">
        <ele>349.399993896484375</ele>
        <time>2019-05-01T15:45:41.000Z</time>
      </trkpt>
      <trkpt lat="41.36555272154510021209716796875" lon="-8.18919919431209564208984375">
        <ele>349.79998779296875</ele>
        <time>2019-05-01T15:45:45.000Z</time>
      </trkpt>
      <trkpt lat="41.36603987775743007659912109375" lon="-8.189527094364166259765625">
        <ele>354.20001220703125</ele>
        <time>2019-05-01T15:46:29.000Z</time>
      </trkpt>
      <trkpt lat="41.366430558264255523681640625" lon="-8.1897475384175777435302734375">
        <ele>359.399993896484375</ele>
        <time>2019-05-01T15:47:08.000Z</time>
      </trkpt>
      <trkpt lat="41.3664847053587436676025390625" lon="-8.1898038648068904876708984375">
        <ele>360.399993896484375</ele>
        <time>2019-05-01T15:47:17.000Z</time>
      </trkpt>
      <trkpt lat="41.36650524102151393890380859375" lon="-8.18983948789536952972412109375">
        <ele>360.600006103515625</ele>
        <time>2019-05-01T15:47:46.000Z</time>
      </trkpt>
      <trkpt lat="41.366533152759075164794921875" lon="-8.18994258530437946319580078125">
        <ele>361</ele>
        <time>2019-05-01T15:47:50.000Z</time>
      </trkpt>
      <trkpt lat="41.3664652593433856964111328125" lon="-8.19036436267197132110595703125">
        <ele>359</ele>
        <time>2019-05-01T15:47:58.000Z</time>
      </trkpt>
      <trkpt lat="41.36667991988360881805419921875" lon="-8.19074171595275402069091796875">
        <ele>359.20001220703125</ele>
        <time>2019-05-01T15:48:04.000Z</time>
      </trkpt>
      <trkpt lat="41.36695937253534793853759765625" lon="-8.191018737852573394775390625">
        <ele>360</ele>
        <time>2019-05-01T15:48:09.000Z</time>
      </trkpt>
      <trkpt lat="41.3669624738395214080810546875" lon="-8.19171351380646228790283203125">
        <ele>353.20001220703125</ele>
        <time>2019-05-01T15:48:16.000Z</time>
      </trkpt>
      <trkpt lat="41.36695124208927154541015625" lon="-8.19181761704385280609130859375">
        <ele>352</ele>
        <time>2019-05-01T15:48:17.000Z</time>
      </trkpt>
      <trkpt lat="41.36709096841514110565185546875" lon="-8.19252111017704010009765625">
        <ele>349.600006103515625</ele>
        <time>2019-05-01T15:48:24.000Z</time>
      </trkpt>
      <trkpt lat="41.36713757179677486419677734375" lon="-8.19260618649423122406005859375">
        <ele>350</ele>
        <time>2019-05-01T15:48:25.000Z</time>
      </trkpt>
      <trkpt lat="41.36747787706553936004638671875" lon="-8.19317833520472049713134765625">
        <ele>346.79998779296875</ele>
        <time>2019-05-01T15:48:32.000Z</time>
      </trkpt>
      <trkpt lat="41.3678620196878910064697265625" lon="-8.19381116889417171478271484375">
        <ele>345.79998779296875</ele>
        <time>2019-05-01T15:48:40.000Z</time>
      </trkpt>
      <trkpt lat="41.3678982295095920562744140625" lon="-8.19389482028782367706298828125">
        <ele>346</ele>
        <time>2019-05-01T15:48:41.000Z</time>
      </trkpt>
      <trkpt lat="41.36786646209657192230224609375" lon="-8.1944025121629238128662109375">
        <ele>343.600006103515625</ele>
        <time>2019-05-01T15:48:46.000Z</time>
      </trkpt>
      <trkpt lat="41.36770737357437610626220703125" lon="-8.19519066251814365386962890625">
        <ele>340</ele>
        <time>2019-05-01T15:48:53.000Z</time>
      </trkpt>
      <trkpt lat="41.3675589300692081451416015625" lon="-8.195942938327789306640625">
        <ele>335</ele>
        <time>2019-05-01T15:49:00.000Z</time>
      </trkpt>
      <trkpt lat="41.36747133918106555938720703125" lon="-8.196650706231594085693359375">
        <ele>332.20001220703125</ele>
        <time>2019-05-01T15:49:10.000Z</time>
      </trkpt>
      <trkpt lat="41.36746731586754322052001953125" lon="-8.19666923023760318756103515625">
        <ele>332</ele>
        <time>2019-05-01T15:49:13.000Z</time>
      </trkpt>
      <trkpt lat="41.3674687407910823822021484375" lon="-8.196691609919071197509765625">
        <ele>331.79998779296875</ele>
        <time>2019-05-01T15:49:19.000Z</time>
      </trkpt>
      <trkpt lat="41.3675978220999240875244140625" lon="-8.1973831169307231903076171875">
        <ele>333.399993896484375</ele>
        <time>2019-05-01T15:49:37.000Z</time>
      </trkpt>
      <trkpt lat="41.36766311712563037872314453125" lon="-8.1975658424198627471923828125">
        <ele>332.600006103515625</ele>
        <time>2019-05-01T15:49:40.000Z</time>
      </trkpt>
      <trkpt lat="41.36792379431426525115966796875" lon="-8.1982900388538837432861328125">
        <ele>331.399993896484375</ele>
        <time>2019-05-01T15:49:50.000Z</time>
      </trkpt>
      <trkpt lat="41.368154548108577728271484375" lon="-8.198948018252849578857421875">
        <ele>326.399993896484375</ele>
        <time>2019-05-01T15:49:58.000Z</time>
      </trkpt>
      <trkpt lat="41.3683922588825225830078125" lon="-8.19962653331458568572998046875">
        <ele>323.20001220703125</ele>
        <time>2019-05-01T15:50:06.000Z</time>
      </trkpt>
      <trkpt lat="41.368623934686183929443359375" lon="-8.2003162801265716552734375">
        <ele>321</ele>
        <time>2019-05-01T15:50:14.000Z</time>
      </trkpt>
      <trkpt lat="41.36886231601238250732421875" lon="-8.2009685598313808441162109375">
        <ele>320</ele>
        <time>2019-05-01T15:50:22.000Z</time>
      </trkpt>
      <trkpt lat="41.3691256754100322723388671875" lon="-8.20170071907341480255126953125">
        <ele>317</ele>
        <time>2019-05-01T15:50:31.000Z</time>
      </trkpt>
      <trkpt lat="41.36936916969716548919677734375" lon="-8.202316872775554656982421875">
        <ele>315.399993896484375</ele>
        <time>2019-05-01T15:50:39.000Z</time>
      </trkpt>
      <trkpt lat="41.36961467564105987548828125" lon="-8.203029669821262359619140625">
        <ele>313.79998779296875</ele>
        <time>2019-05-01T15:50:49.000Z</time>
      </trkpt>
      <trkpt lat="41.36964124627411365509033203125" lon="-8.20316637866199016571044921875">
        <ele>313</ele>
        <time>2019-05-01T15:50:51.000Z</time>
      </trkpt>
      <trkpt lat="41.36964225210249423980712890625" lon="-8.2034264691174030303955078125">
        <ele>311.600006103515625</ele>
        <time>2019-05-01T15:50:55.000Z</time>
      </trkpt>
      <trkpt lat="41.3697365485131740570068359375" lon="-8.20365588180720806121826171875">
        <ele>310.79998779296875</ele>
        <time>2019-05-01T15:51:00.000Z</time>
      </trkpt>
      <trkpt lat="41.3697627000510692596435546875" lon="-8.20370181463658809661865234375">
        <ele>310.600006103515625</ele>
        <time>2019-05-01T15:51:01.000Z</time>
      </trkpt>
      <trkpt lat="41.3701026700437068939208984375" lon="-8.20404480211436748504638671875">
        <ele>308.20001220703125</ele>
        <time>2019-05-01T15:51:10.000Z</time>
      </trkpt>
      <trkpt lat="41.3703226111829280853271484375" lon="-8.20408486761152744293212890625">
        <ele>306.399993896484375</ele>
        <time>2019-05-01T15:51:14.000Z</time>
      </trkpt>
      <trkpt lat="41.37081420980393886566162109375" lon="-8.204108588397502899169921875">
        <ele>303.600006103515625</ele>
        <time>2019-05-01T15:51:23.000Z</time>
      </trkpt>
      <trkpt lat="41.37136884033679962158203125" lon="-8.204242028295993804931640625">
        <ele>308.20001220703125</ele>
        <time>2019-05-01T15:51:34.000Z</time>
      </trkpt>
      <trkpt lat="41.37187820859253406524658203125" lon="-8.2045100815594196319580078125">
        <ele>316</ele>
        <time>2019-05-01T15:51:46.000Z</time>
      </trkpt>
      <trkpt lat="41.3723337650299072265625" lon="-8.2049026899039745330810546875">
        <ele>318.79998779296875</ele>
        <time>2019-05-01T15:52:01.000Z</time>
      </trkpt>
      <trkpt lat="41.372716315090656280517578125" lon="-8.205430917441844940185546875">
        <ele>323</ele>
        <time>2019-05-01T15:52:19.000Z</time>
      </trkpt>
      <trkpt lat="41.373053602874279022216796875" lon="-8.20605285465717315673828125">
        <ele>323.20001220703125</ele>
        <time>2019-05-01T15:52:36.000Z</time>
      </trkpt>
      <trkpt lat="41.3734269328415393829345703125" lon="-8.20659457705914974212646484375">
        <ele>324.600006103515625</ele>
        <time>2019-05-01T15:52:51.000Z</time>
      </trkpt>
      <trkpt lat="41.37388299219310283660888671875" lon="-8.20701216347515583038330078125">
        <ele>324.399993896484375</ele>
        <time>2019-05-01T15:53:07.000Z</time>
      </trkpt>
      <trkpt lat="41.37441758997738361358642578125" lon="-8.20712548680603504180908203125">
        <ele>330</ele>
        <time>2019-05-01T15:53:21.000Z</time>
      </trkpt>
      <trkpt lat="41.37493844144046306610107421875" lon="-8.20732044987380504608154296875">
        <ele>335.20001220703125</ele>
        <time>2019-05-01T15:53:37.000Z</time>
      </trkpt>
      <trkpt lat="41.37507498264312744140625" lon="-8.2080505974590778350830078125">
        <ele>330</ele>
        <time>2019-05-01T15:53:52.000Z</time>
      </trkpt>
      <trkpt lat="41.37508227489888668060302734375" lon="-8.2084985263645648956298828125">
        <ele>326.20001220703125</ele>
        <time>2019-05-01T15:53:59.000Z</time>
      </trkpt>
      <trkpt lat="41.3750704564154148101806640625" lon="-8.2086299546062946319580078125">
        <ele>326</ele>
        <time>2019-05-01T15:54:01.000Z</time>
      </trkpt>
      <trkpt lat="41.3750503398478031158447265625" lon="-8.2087630592286586761474609375">
        <ele>325.79998779296875</ele>
        <time>2019-05-01T15:54:03.000Z</time>
      </trkpt>
      <trkpt lat="41.37496040202677249908447265625" lon="-8.20948616601526737213134765625">
        <ele>322.79998779296875</ele>
        <time>2019-05-01T15:54:16.000Z</time>
      </trkpt>
      <trkpt lat="41.37504925020039081573486328125" lon="-8.2101940177381038665771484375">
        <ele>321.399993896484375</ele>
        <time>2019-05-01T15:54:30.000Z</time>
      </trkpt>
      <trkpt lat="41.3750845380127429962158203125" lon="-8.210590146481990814208984375">
        <ele>320.20001220703125</ele>
        <time>2019-05-01T15:54:37.000Z</time>
      </trkpt>
      <trkpt lat="41.37507162988185882568359375" lon="-8.21079676039516925811767578125">
        <ele>319.600006103515625</ele>
        <time>2019-05-01T15:54:40.000Z</time>
      </trkpt>
      <trkpt lat="41.37492938898503780364990234375" lon="-8.2115247286856174468994140625">
        <ele>318</ele>
        <time>2019-05-01T15:54:49.000Z</time>
      </trkpt>
      <trkpt lat="41.374803744256496429443359375" lon="-8.21222755126655101776123046875">
        <ele>315.399993896484375</ele>
        <time>2019-05-01T15:54:57.000Z</time>
      </trkpt>
      <trkpt lat="41.37480181641876697540283203125" lon="-8.212709762156009674072265625">
        <ele>313.79998779296875</ele>
        <time>2019-05-01T15:55:03.000Z</time>
      </trkpt>
      <trkpt lat="41.37483534403145313262939453125" lon="-8.21283373050391674041748046875">
        <ele>313.79998779296875</ele>
        <time>2019-05-01T15:55:05.000Z</time>
      </trkpt>
      <trkpt lat="41.37488245032727718353271484375" lon="-8.21315173991024494171142578125">
        <ele>313.600006103515625</ele>
        <time>2019-05-01T15:55:10.000Z</time>
      </trkpt>
      <trkpt lat="41.3748858869075775146484375" lon="-8.21321896277368068695068359375">
        <ele>313.399993896484375</ele>
        <time>2019-05-01T15:55:11.000Z</time>
      </trkpt>
      <trkpt lat="41.37494824826717376708984375" lon="-8.213453404605388641357421875">
        <ele>312.600006103515625</ele>
        <time>2019-05-01T15:55:15.000Z</time>
      </trkpt>
      <trkpt lat="41.37497599236667156219482421875" lon="-8.21350126527249813079833984375">
        <ele>312.399993896484375</ele>
        <time>2019-05-01T15:55:16.000Z</time>
      </trkpt>
      <trkpt lat="41.37518587522208690643310546875" lon="-8.2137834839522838592529296875">
        <ele>311.79998779296875</ele>
        <time>2019-05-01T15:55:23.000Z</time>
      </trkpt>
      <trkpt lat="41.37534228153526782989501953125" lon="-8.21382883004844188690185546875">
        <ele>311.399993896484375</ele>
        <time>2019-05-01T15:55:27.000Z</time>
      </trkpt>
      <trkpt lat="41.375385783612728118896484375" lon="-8.21382564492523670196533203125">
        <ele>311.20001220703125</ele>
        <time>2019-05-01T15:55:28.000Z</time>
      </trkpt>
      <trkpt lat="41.37593840248882770538330078125" lon="-8.2137918658554553985595703125">
        <ele>308.399993896484375</ele>
        <time>2019-05-01T15:55:38.000Z</time>
      </trkpt>
      <trkpt lat="41.37616521678864955902099609375" lon="-8.2137378863990306854248046875">
        <ele>308.399993896484375</ele>
        <time>2019-05-01T15:55:42.000Z</time>
      </trkpt>
      <trkpt lat="41.3763465173542499542236328125" lon="-8.21353144012391567230224609375">
        <ele>311.20001220703125</ele>
        <time>2019-05-01T15:55:46.000Z</time>
      </trkpt>
      <trkpt lat="41.37639320455491542816162109375" lon="-8.21348131634294986724853515625">
        <ele>311.79998779296875</ele>
        <time>2019-05-01T15:55:47.000Z</time>
      </trkpt>
      <trkpt lat="41.376682631671428680419921875" lon="-8.2133891992270946502685546875">
        <ele>312.20001220703125</ele>
        <time>2019-05-01T15:55:52.000Z</time>
      </trkpt>
      <trkpt lat="41.376740634441375732421875" lon="-8.21339850313961505889892578125">
        <ele>312.20001220703125</ele>
        <time>2019-05-01T15:55:53.000Z</time>
      </trkpt>
      <trkpt lat="41.37685605324804782867431640625" lon="-8.21341610513627529144287109375">
        <ele>312</ele>
        <time>2019-05-01T15:55:55.000Z</time>
      </trkpt>
      <trkpt lat="41.3770224340260028839111328125" lon="-8.21340051479637622833251953125">
        <ele>312.20001220703125</ele>
        <time>2019-05-01T15:55:58.000Z</time>
      </trkpt>
      <trkpt lat="41.3773469813168048858642578125" lon="-8.2128929905593395233154296875">
        <ele>313.399993896484375</ele>
        <time>2019-05-01T15:56:07.000Z</time>
      </trkpt>
      <trkpt lat="41.37750682421028614044189453125" lon="-8.212164603173732757568359375">
        <ele>309.79998779296875</ele>
        <time>2019-05-01T15:56:16.000Z</time>
      </trkpt>
      <trkpt lat="41.3774934969842433929443359375" lon="-8.2114234752953052520751953125">
        <ele>305.79998779296875</ele>
        <time>2019-05-01T15:56:26.000Z</time>
      </trkpt>
      <trkpt lat="41.3774670101702213287353515625" lon="-8.21068578399717807769775390625">
        <ele>304.20001220703125</ele>
        <time>2019-05-01T15:56:36.000Z</time>
      </trkpt>
      <trkpt lat="41.3774968497455120086669921875" lon="-8.2104764878749847412109375">
        <ele>306</ele>
        <time>2019-05-01T15:56:39.000Z</time>
      </trkpt>
      <trkpt lat="41.3777707703411579132080078125" lon="-8.2101148925721645355224609375">
        <ele>307.20001220703125</ele>
        <time>2019-05-01T15:56:46.000Z</time>
      </trkpt>
      <trkpt lat="41.3782180286943912506103515625" lon="-8.20971071720123291015625">
        <ele>313</ele>
        <time>2019-05-01T15:56:55.000Z</time>
      </trkpt>
      <trkpt lat="41.37837887741625308990478515625" lon="-8.20962421596050262451171875">
        <ele>314.399993896484375</ele>
        <time>2019-05-01T15:56:58.000Z</time>
      </trkpt>
      <trkpt lat="41.37868749909102916717529296875" lon="-8.2096840627491474151611328125">
        <ele>312.600006103515625</ele>
        <time>2019-05-01T15:57:03.000Z</time>
      </trkpt>
      <trkpt lat="41.37902964837849140167236328125" lon="-8.210128806531429290771484375">
        <ele>305.399993896484375</ele>
        <time>2019-05-01T15:57:10.000Z</time>
      </trkpt>
      <trkpt lat="41.37917281128466129302978515625" lon="-8.21045477874577045440673828125">
        <ele>299</ele>
        <time>2019-05-01T15:57:14.000Z</time>
      </trkpt>
      <trkpt lat="41.3793168962001800537109375" lon="-8.21066558361053466796875">
        <ele>294.600006103515625</ele>
        <time>2019-05-01T15:57:17.000Z</time>
      </trkpt>
      <trkpt lat="41.379716210067272186279296875" lon="-8.21062459610402584075927734375">
        <ele>291.79998779296875</ele>
        <time>2019-05-01T15:57:23.000Z</time>
      </trkpt>
      <trkpt lat="41.379775889217853546142578125" lon="-8.210568688809871673583984375">
        <ele>292</ele>
        <time>2019-05-01T15:57:24.000Z</time>
      </trkpt>
      <trkpt lat="41.37985962443053722381591796875" lon="-8.20996217429637908935546875">
        <ele>298.399993896484375</ele>
        <time>2019-05-01T15:57:31.000Z</time>
      </trkpt>
      <trkpt lat="41.37984906323254108428955078125" lon="-8.20988237857818603515625">
        <ele>299.399993896484375</ele>
        <time>2019-05-01T15:57:32.000Z</time>
      </trkpt>
      <trkpt lat="41.37985409237444400787353515625" lon="-8.20964877493679523468017578125">
        <ele>301.79998779296875</ele>
        <time>2019-05-01T15:57:35.000Z</time>
      </trkpt>
      <trkpt lat="41.379957608878612518310546875" lon="-8.20923873223364353179931640625">
        <ele>306.20001220703125</ele>
        <time>2019-05-01T15:57:41.000Z</time>
      </trkpt>
      <trkpt lat="41.380479298532009124755859375" lon="-8.20912624709308147430419921875">
        <ele>306.20001220703125</ele>
        <time>2019-05-01T15:57:51.000Z</time>
      </trkpt>
      <trkpt lat="41.3809693045914173126220703125" lon="-8.2095154188573360443115234375">
        <ele>298.20001220703125</ele>
        <time>2019-05-01T15:58:00.000Z</time>
      </trkpt>
      <trkpt lat="41.3811885751783847808837890625" lon="-8.209780119359493255615234375">
        <ele>293.600006103515625</ele>
        <time>2019-05-01T15:58:04.000Z</time>
      </trkpt>
      <trkpt lat="41.3816388510167598724365234375" lon="-8.20972655899822711944580078125">
        <ele>296</ele>
        <time>2019-05-01T15:58:10.000Z</time>
      </trkpt>
      <trkpt lat="41.3817156292498111724853515625" lon="-8.20970862172544002532958984375">
        <ele>296.79998779296875</ele>
        <time>2019-05-01T15:58:11.000Z</time>
      </trkpt>
      <trkpt lat="41.38216481544077396392822265625" lon="-8.210129477083683013916015625">
        <ele>294.399993896484375</ele>
        <time>2019-05-01T15:58:18.000Z</time>
      </trkpt>
      <trkpt lat="41.3824470341205596923828125" lon="-8.2105242647230625152587890625">
        <ele>290.20001220703125</ele>
        <time>2019-05-01T15:58:23.000Z</time>
      </trkpt>
      <trkpt lat="41.382757835090160369873046875" lon="-8.2106349058449268341064453125">
        <ele>292.600006103515625</ele>
        <time>2019-05-01T15:58:27.000Z</time>
      </trkpt>
      <trkpt lat="41.38290259055793285369873046875" lon="-8.21069265715777873992919921875">
        <ele>294.399993896484375</ele>
        <time>2019-05-01T15:58:29.000Z</time>
      </trkpt>
      <trkpt lat="41.3830949552357196807861328125" lon="-8.21123027242720127105712890625">
        <ele>291.79998779296875</ele>
        <time>2019-05-01T15:58:35.000Z</time>
      </trkpt>
      <trkpt lat="41.3831926882266998291015625" lon="-8.21193552576005458831787109375">
        <ele>289.20001220703125</ele>
        <time>2019-05-01T15:58:42.000Z</time>
      </trkpt>
      <trkpt lat="41.38322462327778339385986328125" lon="-8.21202973835170269012451171875">
        <ele>289.600006103515625</ele>
        <time>2019-05-01T15:58:43.000Z</time>
      </trkpt>
      <trkpt lat="41.38335102237761020660400390625" lon="-8.21228622458875179290771484375">
        <ele>291.600006103515625</ele>
        <time>2019-05-01T15:58:46.000Z</time>
      </trkpt>
      <trkpt lat="41.3833826221525669097900390625" lon="-8.21268419735133647918701171875">
        <ele>287.79998779296875</ele>
        <time>2019-05-01T15:58:50.000Z</time>
      </trkpt>
      <trkpt lat="41.383396200835704803466796875" lon="-8.21278712712228298187255859375">
        <ele>287.20001220703125</ele>
        <time>2019-05-01T15:58:51.000Z</time>
      </trkpt>
      <trkpt lat="41.38366115279495716094970703125" lon="-8.21352087892591953277587890625">
        <ele>285</ele>
        <time>2019-05-01T15:58:59.000Z</time>
      </trkpt>
      <trkpt lat="41.38356509618461132049560546875" lon="-8.2140989787876605987548828125">
        <ele>282</ele>
        <time>2019-05-01T15:59:05.000Z</time>
      </trkpt>
      <trkpt lat="41.383442468941211700439453125" lon="-8.21458336897194385528564453125">
        <ele>278.79998779296875</ele>
        <time>2019-05-01T15:59:10.000Z</time>
      </trkpt>
      <trkpt lat="41.38354229740798473358154296875" lon="-8.21498955599963665008544921875">
        <ele>280</ele>
        <time>2019-05-01T15:59:14.000Z</time>
      </trkpt>
      <trkpt lat="41.383622176945209503173828125" lon="-8.215300776064395904541015625">
        <ele>279.20001220703125</ele>
        <time>2019-05-01T15:59:17.000Z</time>
      </trkpt>
      <trkpt lat="41.38373826630413532257080078125" lon="-8.215744011104106903076171875">
        <ele>274.20001220703125</ele>
        <time>2019-05-01T15:59:21.000Z</time>
      </trkpt>
      <trkpt lat="41.38401470147073268890380859375" lon="-8.21622873656451702117919921875">
        <ele>271.79998779296875</ele>
        <time>2019-05-01T15:59:26.000Z</time>
      </trkpt>
      <trkpt lat="41.38429499231278896331787109375" lon="-8.21671237237751483917236328125">
        <ele>268</ele>
        <time>2019-05-01T15:59:31.000Z</time>
      </trkpt>
      <trkpt lat="41.3848340325057506561279296875" lon="-8.21698796935379505157470703125">
        <ele>264</ele>
        <time>2019-05-01T15:59:37.000Z</time>
      </trkpt>
      <trkpt lat="41.38537089340388774871826171875" lon="-8.2171969301998615264892578125">
        <ele>262.79998779296875</ele>
        <time>2019-05-01T15:59:43.000Z</time>
      </trkpt>
      <trkpt lat="41.38579568825662136077880859375" lon="-8.21734973229467868804931640625">
        <ele>262.79998779296875</ele>
        <time>2019-05-01T15:59:48.000Z</time>
      </trkpt>
      <trkpt lat="41.3860571198165416717529296875" lon="-8.21804308332502841949462890625">
        <ele>253.399993896484375</ele>
        <time>2019-05-01T15:59:55.000Z</time>
      </trkpt>
      <trkpt lat="41.38653581030666828155517578125" lon="-8.218330331146717071533203125">
        <ele>249.8000030517578125</ele>
        <time>2019-05-01T16:00:03.000Z</time>
      </trkpt>
      <trkpt lat="41.38708583079278469085693359375" lon="-8.218130171298980712890625">
        <ele>251.1999969482421875</ele>
        <time>2019-05-01T16:00:10.000Z</time>
      </trkpt>
      <trkpt lat="41.38723888434469699859619140625" lon="-8.2180778682231903076171875">
        <ele>251.600006103515625</ele>
        <time>2019-05-01T16:00:12.000Z</time>
      </trkpt>
      <trkpt lat="41.38768530450761318206787109375" lon="-8.218296803534030914306640625">
        <ele>248.1999969482421875</ele>
        <time>2019-05-01T16:00:18.000Z</time>
      </trkpt>
      <trkpt lat="41.38816558755934238433837890625" lon="-8.2186932675540447235107421875">
        <ele>246</ele>
        <time>2019-05-01T16:00:25.000Z</time>
      </trkpt>
      <trkpt lat="41.38850337825715541839599609375" lon="-8.218966014683246612548828125">
        <ele>241</ele>
        <time>2019-05-01T16:00:30.000Z</time>
      </trkpt>
      <trkpt lat="41.38904585503041744232177734375" lon="-8.21892167441546916961669921875">
        <ele>237.1999969482421875</ele>
        <time>2019-05-01T16:00:37.000Z</time>
      </trkpt>
      <trkpt lat="41.3892321847379207611083984375" lon="-8.21872805245220661163330078125">
        <ele>239</ele>
        <time>2019-05-01T16:00:40.000Z</time>
      </trkpt>
      <trkpt lat="41.38941281475126743316650390625" lon="-8.2185276411473751068115234375">
        <ele>240.8000030517578125</ele>
        <time>2019-05-01T16:00:43.000Z</time>
      </trkpt>
      <trkpt lat="41.38979335315525531768798828125" lon="-8.21851414628326892852783203125">
        <ele>238.1999969482421875</ele>
        <time>2019-05-01T16:00:48.000Z</time>
      </trkpt>
      <trkpt lat="41.3901099376380443572998046875" lon="-8.21860115043818950653076171875">
        <ele>237.399993896484375</ele>
        <time>2019-05-01T16:00:52.000Z</time>
      </trkpt>
      <trkpt lat="41.3904438726603984832763671875" lon="-8.2190791703760623931884765625">
        <ele>233</ele>
        <time>2019-05-01T16:00:58.000Z</time>
      </trkpt>
      <trkpt lat="41.39058820903301239013671875" lon="-8.2193832658231258392333984375">
        <ele>230.600006103515625</ele>
        <time>2019-05-01T16:01:01.000Z</time>
      </trkpt>
      <trkpt lat="41.3911288417875766754150390625" lon="-8.21953455917537212371826171875">
        <ele>225.600006103515625</ele>
        <time>2019-05-01T16:01:07.000Z</time>
      </trkpt>
      <trkpt lat="41.39122179709374904632568359375" lon="-8.21951310150325298309326171875">
        <ele>225.1999969482421875</ele>
        <time>2019-05-01T16:01:08.000Z</time>
      </trkpt>
      <trkpt lat="41.39131240546703338623046875" lon="-8.219474293291568756103515625">
        <ele>225</ele>
        <time>2019-05-01T16:01:09.000Z</time>
      </trkpt>
      <trkpt lat="41.39163519255816936492919921875" lon="-8.21921571157872676849365234375">
        <ele>226.399993896484375</ele>
        <time>2019-05-01T16:01:13.000Z</time>
      </trkpt>
      <trkpt lat="41.39179143123328685760498046875" lon="-8.2190982811152935028076171875">
        <ele>227.399993896484375</ele>
        <time>2019-05-01T16:01:15.000Z</time>
      </trkpt>
      <trkpt lat="41.39228738844394683837890625" lon="-8.21926617063581943511962890625">
        <ele>222.399993896484375</ele>
        <time>2019-05-01T16:01:21.000Z</time>
      </trkpt>
      <trkpt lat="41.3927716948091983795166015625" lon="-8.21979087777435779571533203125">
        <ele>220.399993896484375</ele>
        <time>2019-05-01T16:01:28.000Z</time>
      </trkpt>
      <trkpt lat="41.3928608782589435577392578125" lon="-8.220587074756622314453125">
        <ele>215.8000030517578125</ele>
        <time>2019-05-01T16:01:35.000Z</time>
      </trkpt>
      <trkpt lat="41.39314125292003154754638671875" lon="-8.2211763225495815277099609375">
        <ele>214</ele>
        <time>2019-05-01T16:01:41.000Z</time>
      </trkpt>
      <trkpt lat="41.39350351877510547637939453125" lon="-8.221209682524204254150390625">
        <ele>213.1999969482421875</ele>
        <time>2019-05-01T16:01:45.000Z</time>
      </trkpt>
      <trkpt lat="41.39379504136741161346435546875" lon="-8.2212004624307155609130859375">
        <ele>213.1999969482421875</ele>
        <time>2019-05-01T16:01:48.000Z</time>
      </trkpt>
      <trkpt lat="41.39427230693399906158447265625" lon="-8.22161830030381679534912109375">
        <ele>213.600006103515625</ele>
        <time>2019-05-01T16:01:54.000Z</time>
      </trkpt>
      <trkpt lat="41.39436216093599796295166015625" lon="-8.22197712957859039306640625">
        <ele>209.8000030517578125</ele>
        <time>2019-05-01T16:01:57.000Z</time>
      </trkpt>
      <trkpt lat="41.3944011367857456207275390625" lon="-8.222092129290103912353515625">
        <ele>208.600006103515625</ele>
        <time>2019-05-01T16:01:58.000Z</time>
      </trkpt>
      <trkpt lat="41.39466491527855396270751953125" lon="-8.22243042290210723876953125">
        <ele>208</ele>
        <time>2019-05-01T16:02:02.000Z</time>
      </trkpt>
      <trkpt lat="41.394796259701251983642578125" lon="-8.22259060107171535491943359375">
        <ele>208</ele>
        <time>2019-05-01T16:02:04.000Z</time>
      </trkpt>
      <trkpt lat="41.39501661993563175201416015625" lon="-8.2233013026416301727294921875">
        <ele>205.399993896484375</ele>
        <time>2019-05-01T16:02:11.000Z</time>
      </trkpt>
      <trkpt lat="41.3951618783175945281982421875" lon="-8.22401636280119419097900390625">
        <ele>200.1999969482421875</ele>
        <time>2019-05-01T16:02:18.000Z</time>
      </trkpt>
      <trkpt lat="41.39561944641172885894775390625" lon="-8.22445825673639774322509765625">
        <ele>196</ele>
        <time>2019-05-01T16:02:26.000Z</time>
      </trkpt>
      <trkpt lat="41.3956912793219089508056640625" lon="-8.22446697391569614410400390625">
        <ele>195.1999969482421875</ele>
        <time>2019-05-01T16:02:27.000Z</time>
      </trkpt>
      <trkpt lat="41.39611531980335712432861328125" lon="-8.224318362772464752197265625">
        <ele>192</ele>
        <time>2019-05-01T16:02:33.000Z</time>
      </trkpt>
      <trkpt lat="41.3966005481779575347900390625" lon="-8.223969675600528717041015625">
        <ele>191.600006103515625</ele>
        <time>2019-05-01T16:02:40.000Z</time>
      </trkpt>
      <trkpt lat="41.39715098775923252105712890625" lon="-8.22362777777016162872314453125">
        <ele>191</ele>
        <time>2019-05-01T16:02:48.000Z</time>
      </trkpt>
      <trkpt lat="41.39764786697924137115478515625" lon="-8.22394276969134807586669921875">
        <ele>187.399993896484375</ele>
        <time>2019-05-01T16:02:56.000Z</time>
      </trkpt>
      <trkpt lat="41.39790854416787624359130859375" lon="-8.22427351959049701690673828125">
        <ele>182.1999969482421875</ele>
        <time>2019-05-01T16:03:01.000Z</time>
      </trkpt>
      <trkpt lat="41.3984552957117557525634765625" lon="-8.22442238219082355499267578125">
        <ele>178.600006103515625</ele>
        <time>2019-05-01T16:03:09.000Z</time>
      </trkpt>
      <trkpt lat="41.3990648277103900909423828125" lon="-8.2244050316512584686279296875">
        <ele>177</ele>
        <time>2019-05-01T16:03:17.000Z</time>
      </trkpt>
      <trkpt lat="41.3996552489697933197021484375" lon="-8.2243996672332286834716796875">
        <ele>175</ele>
        <time>2019-05-01T16:03:24.000Z</time>
      </trkpt>
      <trkpt lat="41.40000720508396625518798828125" lon="-8.2244509644806385040283203125">
        <ele>173.399993896484375</ele>
        <time>2019-05-01T16:03:28.000Z</time>
      </trkpt>
      <trkpt lat="41.400554962456226348876953125" lon="-8.224691189825534820556640625">
        <ele>169.600006103515625</ele>
        <time>2019-05-01T16:03:34.000Z</time>
      </trkpt>
      <trkpt lat="41.401108838617801666259765625" lon="-8.22488305158913135528564453125">
        <ele>164</ele>
        <time>2019-05-01T16:03:40.000Z</time>
      </trkpt>
      <trkpt lat="41.4016192965209484100341796875" lon="-8.2245921157300472259521484375">
        <ele>162.8000030517578125</ele>
        <time>2019-05-01T16:03:46.000Z</time>
      </trkpt>
      <trkpt lat="41.40179540030658245086669921875" lon="-8.22414569556713104248046875">
        <ele>163.1999969482421875</ele>
        <time>2019-05-01T16:03:50.000Z</time>
      </trkpt>
      <trkpt lat="41.40195767395198345184326171875" lon="-8.22354144416749477386474609375">
        <ele>163.8000030517578125</ele>
        <time>2019-05-01T16:03:56.000Z</time>
      </trkpt>
      <trkpt lat="41.4023793675005435943603515625" lon="-8.2233968563377857208251953125">
        <ele>158.8000030517578125</ele>
        <time>2019-05-01T16:04:04.000Z</time>
      </trkpt>
      <trkpt lat="41.4026241190731525421142578125" lon="-8.2234293781220912933349609375">
        <ele>160.1999969482421875</ele>
        <time>2019-05-01T16:04:08.000Z</time>
      </trkpt>
      <trkpt lat="41.402788572013378143310546875" lon="-8.2235028035938739776611328125">
        <ele>161</ele>
        <time>2019-05-01T16:04:11.000Z</time>
      </trkpt>
      <trkpt lat="41.40294841490685939788818359375" lon="-8.22368410415947437286376953125">
        <ele>161</ele>
        <time>2019-05-01T16:04:15.000Z</time>
      </trkpt>
      <trkpt lat="41.4029781706631183624267578125" lon="-8.22373959235846996307373046875">
        <ele>161.399993896484375</ele>
        <time>2019-05-01T16:04:16.000Z</time>
      </trkpt>
      <trkpt lat="41.4032131992280483245849609375" lon="-8.22443763725459575653076171875">
        <ele>162</ele>
        <time>2019-05-01T16:04:27.000Z</time>
      </trkpt>
      <trkpt lat="41.40326692722737789154052734375" lon="-8.22461583651602268218994140625">
        <ele>160.8000030517578125</ele>
        <time>2019-05-01T16:04:30.000Z</time>
      </trkpt>
      <trkpt lat="41.40350329689681529998779296875" lon="-8.22532259859144687652587890625">
        <ele>157</ele>
        <time>2019-05-01T16:04:40.000Z</time>
      </trkpt>
      <trkpt lat="41.4036731980741024017333984375" lon="-8.22609297931194305419921875">
        <ele>155.8000030517578125</ele>
        <time>2019-05-01T16:04:49.000Z</time>
      </trkpt>
      <trkpt lat="41.4037871919572353363037109375" lon="-8.2267938740551471710205078125">
        <ele>158.8000030517578125</ele>
        <time>2019-05-01T16:04:58.000Z</time>
      </trkpt>
      <trkpt lat="41.403836645185947418212890625" lon="-8.2275378517806529998779296875">
        <ele>165.399993896484375</ele>
        <time>2019-05-01T16:05:13.000Z</time>
      </trkpt>
      <trkpt lat="41.4040989987552165985107421875" lon="-8.22817797772586345672607421875">
        <ele>167.600006103515625</ele>
        <time>2019-05-01T16:05:37.000Z</time>
      </trkpt>
      <trkpt lat="41.4044282399117946624755859375" lon="-8.228452987968921661376953125">
        <ele>171.1999969482421875</ele>
        <time>2019-05-01T16:05:56.000Z</time>
      </trkpt>
      <trkpt lat="41.4045006595551967620849609375" lon="-8.22844787500798702239990234375">
        <ele>172</ele>
        <time>2019-05-01T16:06:02.000Z</time>
      </trkpt>
      <trkpt lat="41.40452672727406024932861328125" lon="-8.22849011979997158050537109375">
        <ele>172.1999969482421875</ele>
        <time>2019-05-01T16:07:15.000Z</time>
      </trkpt>
      <trkpt lat="41.40454969368875026702880859375" lon="-8.228519372642040252685546875">
        <ele>172.600006103515625</ele>
        <time>2019-05-01T16:07:17.000Z</time>
      </trkpt>
      <trkpt lat="41.404643990099430084228515625" lon="-8.228558935225009918212890625">
        <ele>173.600006103515625</ele>
        <time>2019-05-01T16:07:22.000Z</time>
      </trkpt>
      <trkpt lat="41.40496359206736087799072265625" lon="-8.2286725938320159912109375">
        <ele>175</ele>
        <time>2019-05-01T16:07:38.000Z</time>
      </trkpt>
      <trkpt lat="41.40550187788903713226318359375" lon="-8.228807710111141204833984375">
        <ele>176</ele>
        <time>2019-05-01T16:08:06.000Z</time>
      </trkpt>
      <trkpt lat="41.405842602252960205078125" lon="-8.22891139425337314605712890625">
        <ele>176.1999969482421875</ele>
        <time>2019-05-01T16:08:26.000Z</time>
      </trkpt>
      <trkpt lat="41.4058494754135608673095703125" lon="-8.22891307063400745391845703125">
        <ele>176.1999969482421875</ele>
        <time>2019-05-01T16:08:28.000Z</time>
      </trkpt>
      <trkpt lat="41.405889876186847686767578125" lon="-8.22893343865871429443359375">
        <ele>176.1999969482421875</ele>
        <time>2019-05-01T16:09:58.000Z</time>
      </trkpt>
      <trkpt lat="41.40643662773072719573974609375" lon="-8.22902865707874298095703125">
        <ele>181.600006103515625</ele>
        <time>2019-05-01T16:10:24.000Z</time>
      </trkpt>
      <trkpt lat="41.4069766737520694732666015625" lon="-8.2290690578520298004150390625">
        <ele>187.399993896484375</ele>
        <time>2019-05-01T16:10:48.000Z</time>
      </trkpt>
      <trkpt lat="41.4075127802789211273193359375" lon="-8.2289708219468593597412109375">
        <ele>191.1999969482421875</ele>
        <time>2019-05-01T16:11:11.000Z</time>
      </trkpt>
      <trkpt lat="41.408054418861865997314453125" lon="-8.22881014086306095123291015625">
        <ele>192.600006103515625</ele>
        <time>2019-05-01T16:11:34.000Z</time>
      </trkpt>
      <trkpt lat="41.40860184095799922943115234375" lon="-8.22876119054853916168212890625">
        <ele>192.399993896484375</ele>
        <time>2019-05-01T16:12:03.000Z</time>
      </trkpt>
      <trkpt lat="41.409131325781345367431640625" lon="-8.22885439731180667877197265625">
        <ele>191.1999969482421875</ele>
        <time>2019-05-01T16:12:25.000Z</time>
      </trkpt>
      <trkpt lat="41.4095914922654628753662109375" lon="-8.2292561419308185577392578125">
        <ele>192.399993896484375</ele>
        <time>2019-05-01T16:12:47.000Z</time>
      </trkpt>
      <trkpt lat="41.41001083888113498687744140625" lon="-8.229718320071697235107421875">
        <ele>194.1999969482421875</ele>
        <time>2019-05-01T16:13:10.000Z</time>
      </trkpt>
      <trkpt lat="41.41012768261134624481201171875" lon="-8.23043673299252986907958984375">
        <ele>203</ele>
        <time>2019-05-01T16:13:37.000Z</time>
      </trkpt>
      <trkpt lat="41.4104144275188446044921875" lon="-8.23101374320685863494873046875">
        <ele>206</ele>
        <time>2019-05-01T16:14:03.000Z</time>
      </trkpt>
      <trkpt lat="41.4105835743248462677001953125" lon="-8.23113595135509967803955078125">
        <ele>205.1999969482421875</ele>
        <time>2019-05-01T16:14:14.000Z</time>
      </trkpt>
      <trkpt lat="41.410635374486446380615234375" lon="-8.231186829507350921630859375">
        <ele>205.1999969482421875</ele>
        <time>2019-05-01T16:16:20.000Z</time>
      </trkpt>
      <trkpt lat="41.41069597564637660980224609375" lon="-8.2312500290572643280029296875">
        <ele>205.399993896484375</ele>
        <time>2019-05-01T16:16:24.000Z</time>
      </trkpt>
      <trkpt lat="41.4107025973498821258544921875" lon="-8.2312681339681148529052734375">
        <ele>205.600006103515625</ele>
        <time>2019-05-01T16:16:25.000Z</time>
      </trkpt>
      <trkpt lat="41.4107800461351871490478515625" lon="-8.23134918697178363800048828125">
        <ele>205.600006103515625</ele>
        <time>2019-05-01T16:16:29.000Z</time>
      </trkpt>
      <trkpt lat="41.4111091196537017822265625" lon="-8.23195092380046844482421875">
        <ele>207.399993896484375</ele>
        <time>2019-05-01T16:16:52.000Z</time>
      </trkpt>
      <trkpt lat="41.41142017208039760589599609375" lon="-8.232538662850856781005859375">
        <ele>210</ele>
        <time>2019-05-01T16:17:16.000Z</time>
      </trkpt>
      <trkpt lat="41.41174572519958019256591796875" lon="-8.233138136565685272216796875">
        <ele>214</ele>
        <time>2019-05-01T16:17:39.000Z</time>
      </trkpt>
      <trkpt lat="41.41208301298320293426513671875" lon="-8.23370818980038166046142578125">
        <ele>216.8000030517578125</ele>
        <time>2019-05-01T16:18:03.000Z</time>
      </trkpt>
      <trkpt lat="41.4122800715267658233642578125" lon="-8.234399445354938507080078125">
        <ele>219.8000030517578125</ele>
        <time>2019-05-01T16:18:29.000Z</time>
      </trkpt>
      <trkpt lat="41.41237386502325534820556640625" lon="-8.235108219087123870849609375">
        <ele>225.1999969482421875</ele>
        <time>2019-05-01T16:18:49.000Z</time>
      </trkpt>
      <trkpt lat="41.412743590772151947021484375" lon="-8.23566385544836521148681640625">
        <ele>226.1999969482421875</ele>
        <time>2019-05-01T16:19:11.000Z</time>
      </trkpt>
      <trkpt lat="41.41313754022121429443359375" lon="-8.2361695356667041778564453125">
        <ele>226.8000030517578125</ele>
        <time>2019-05-01T16:19:33.000Z</time>
      </trkpt>
      <trkpt lat="41.41356208361685276031494140625" lon="-8.2366633974015712738037109375">
        <ele>230.600006103515625</ele>
        <time>2019-05-01T16:19:50.000Z</time>
      </trkpt>
      <trkpt lat="41.41412719152867794036865234375" lon="-8.23661570437252521514892578125">
        <ele>231.1999969482421875</ele>
        <time>2019-05-01T16:20:07.000Z</time>
      </trkpt>
      <trkpt lat="41.41466899774968624114990234375" lon="-8.23648008517920970916748046875">
        <ele>234</ele>
        <time>2019-05-01T16:20:25.000Z</time>
      </trkpt>
      <trkpt lat="41.41521415673196315765380859375" lon="-8.236372210085391998291015625">
        <ele>232.600006103515625</ele>
        <time>2019-05-01T16:20:42.000Z</time>
      </trkpt>
      <trkpt lat="41.41567700542509555816650390625" lon="-8.2367294467985630035400390625">
        <ele>233.8000030517578125</ele>
        <time>2019-05-01T16:21:02.000Z</time>
      </trkpt>
      <trkpt lat="41.41571455635130405426025390625" lon="-8.23746529407799243927001953125">
        <ele>236.1999969482421875</ele>
        <time>2019-05-01T16:21:18.000Z</time>
      </trkpt>
      <trkpt lat="41.41576669178903102874755859375" lon="-8.2382118701934814453125">
        <ele>243</ele>
        <time>2019-05-01T16:21:34.000Z</time>
      </trkpt>
      <trkpt lat="41.41620196402072906494140625" lon="-8.2386234216392040252685546875">
        <ele>246.600006103515625</ele>
        <time>2019-05-01T16:21:50.000Z</time>
      </trkpt>
      <trkpt lat="41.41675659455358982086181640625" lon="-8.23863993398845195770263671875">
        <ele>245.1999969482421875</ele>
        <time>2019-05-01T16:22:06.000Z</time>
      </trkpt>
      <trkpt lat="41.41731030307710170745849609375" lon="-8.2387082464993000030517578125">
        <ele>243.600006103515625</ele>
        <time>2019-05-01T16:22:23.000Z</time>
      </trkpt>
      <trkpt lat="41.4175328426063060760498046875" lon="-8.239307217299938201904296875">
        <ele>250</ele>
        <time>2019-05-01T16:22:42.000Z</time>
      </trkpt>
      <trkpt lat="41.41758606769144535064697265625" lon="-8.24004314839839935302734375">
        <ele>253.1999969482421875</ele>
        <time>2019-05-01T16:22:59.000Z</time>
      </trkpt>
      <trkpt lat="41.41763200052082538604736328125" lon="-8.24031673371791839599609375">
        <ele>255.600006103515625</ele>
        <time>2019-05-01T16:23:10.000Z</time>
      </trkpt>
      <trkpt lat="41.41763694584369659423828125" lon="-8.240357972681522369384765625">
        <ele>255.8000030517578125</ele>
        <time>2019-05-01T16:24:55.000Z</time>
      </trkpt>
      <trkpt lat="41.41805612482130527496337890625" lon="-8.24080531485378742218017578125">
        <ele>259.399993896484375</ele>
        <time>2019-05-01T16:25:14.000Z</time>
      </trkpt>
      <trkpt lat="41.41861503012478351593017578125" lon="-8.24090279638767242431640625">
        <ele>261.20001220703125</ele>
        <time>2019-05-01T16:25:35.000Z</time>
      </trkpt>
      <trkpt lat="41.4191616140305995941162109375" lon="-8.24098854325711727142333984375">
        <ele>262</ele>
        <time>2019-05-01T16:25:56.000Z</time>
      </trkpt>
      <trkpt lat="41.41969109885394573211669921875" lon="-8.24121259152889251708984375">
        <ele>263.600006103515625</ele>
        <time>2019-05-01T16:26:16.000Z</time>
      </trkpt>
      <trkpt lat="41.42019887454807758331298828125" lon="-8.2415517233312129974365234375">
        <ele>268.79998779296875</ele>
        <time>2019-05-01T16:26:35.000Z</time>
      </trkpt>
      <trkpt lat="41.42069474793970584869384765625" lon="-8.24189144186675548553466796875">
        <ele>272.399993896484375</ele>
        <time>2019-05-01T16:26:54.000Z</time>
      </trkpt>
      <trkpt lat="41.42119984142482280731201171875" lon="-8.2422239519655704498291015625">
        <ele>276.600006103515625</ele>
        <time>2019-05-01T16:27:13.000Z</time>
      </trkpt>
      <trkpt lat="41.4217315055429935455322265625" lon="-8.24213929474353790283203125">
        <ele>275.600006103515625</ele>
        <time>2019-05-01T16:27:32.000Z</time>
      </trkpt>
      <trkpt lat="41.42226048745214939117431640625" lon="-8.24188993312418460845947265625">
        <ele>276</ele>
        <time>2019-05-01T16:27:50.000Z</time>
      </trkpt>
      <trkpt lat="41.422781758010387420654296875" lon="-8.2416496239602565765380859375">
        <ele>274</ele>
        <time>2019-05-01T16:28:09.000Z</time>
      </trkpt>
      <trkpt lat="41.42330403439700603485107421875" lon="-8.24168139137327671051025390625">
        <ele>275.20001220703125</ele>
        <time>2019-05-01T16:28:31.000Z</time>
      </trkpt>
      <trkpt lat="41.4233971573412418365478515625" lon="-8.24226091615855693817138671875">
        <ele>279</ele>
        <time>2019-05-01T16:28:51.000Z</time>
      </trkpt>
      <trkpt lat="41.42340243794023990631103515625" lon="-8.24235328473150730133056640625">
        <ele>279.600006103515625</ele>
        <time>2019-05-01T16:29:57.000Z</time>
      </trkpt>
      <trkpt lat="41.42335751093924045562744140625" lon="-8.24236384592950344085693359375">
        <ele>280.20001220703125</ele>
        <time>2019-05-01T16:30:00.000Z</time>
      </trkpt>
      <trkpt lat="41.4230203069746494293212890625" lon="-8.2429535128176212310791015625">
        <ele>286.399993896484375</ele>
        <time>2019-05-01T16:30:20.000Z</time>
      </trkpt>
      <trkpt lat="41.423245109617710113525390625" lon="-8.24356614612042903900146484375">
        <ele>287.600006103515625</ele>
        <time>2019-05-01T16:30:39.000Z</time>
      </trkpt>
      <trkpt lat="41.42374827526509761810302734375" lon="-8.24389656074345111846923828125">
        <ele>288.399993896484375</ele>
        <time>2019-05-01T16:30:56.000Z</time>
      </trkpt>
      <trkpt lat="41.424256972968578338623046875" lon="-8.2442168332636356353759765625">
        <ele>293.399993896484375</ele>
        <time>2019-05-01T16:31:13.000Z</time>
      </trkpt>
      <trkpt lat="41.4248009584844112396240234375" lon="-8.24435203336179256439208984375">
        <ele>293.600006103515625</ele>
        <time>2019-05-01T16:31:29.000Z</time>
      </trkpt>
      <trkpt lat="41.4253353886306285858154296875" lon="-8.24453425593674182891845703125">
        <ele>294.20001220703125</ele>
        <time>2019-05-01T16:31:46.000Z</time>
      </trkpt>
      <trkpt lat="41.42583914101123809814453125" lon="-8.24487824924290180206298828125">
        <ele>301.600006103515625</ele>
        <time>2019-05-01T16:32:03.000Z</time>
      </trkpt>
      <trkpt lat="41.426374576985836029052734375" lon="-8.24502811767160892486572265625">
        <ele>307</ele>
        <time>2019-05-01T16:32:20.000Z</time>
      </trkpt>
      <trkpt lat="41.42677833326160907745361328125" lon="-8.2445400394499301910400390625">
        <ele>302.600006103515625</ele>
        <time>2019-05-01T16:32:36.000Z</time>
      </trkpt>
      <trkpt lat="41.42725593410432338714599609375" lon="-8.2442315854132175445556640625">
        <ele>302.600006103515625</ele>
        <time>2019-05-01T16:32:52.000Z</time>
      </trkpt>
      <trkpt lat="41.42774962820112705230712890625" lon="-8.24456141330301761627197265625">
        <ele>303.20001220703125</ele>
        <time>2019-05-01T16:33:09.000Z</time>
      </trkpt>
      <trkpt lat="41.4281282387673854827880859375" lon="-8.24510321952402591705322265625">
        <ele>302.399993896484375</ele>
        <time>2019-05-01T16:33:28.000Z</time>
      </trkpt>
      <trkpt lat="41.428519673645496368408203125" lon="-8.245641253888607025146484375">
        <ele>313.20001220703125</ele>
        <time>2019-05-01T16:33:45.000Z</time>
      </trkpt>
      <trkpt lat="41.4289892278611660003662109375" lon="-8.2460276596248149871826171875">
        <ele>318.600006103515625</ele>
        <time>2019-05-01T16:34:02.000Z</time>
      </trkpt>
      <trkpt lat="41.4294260926544666290283203125" lon="-8.2456055469810962677001953125">
        <ele>318</ele>
        <time>2019-05-01T16:34:17.000Z</time>
      </trkpt>
      <trkpt lat="41.4298458583652973175048828125" lon="-8.24519609101116657257080078125">
        <ele>316.600006103515625</ele>
        <time>2019-05-01T16:34:34.000Z</time>
      </trkpt>
      <trkpt lat="41.430388502776622772216796875" lon="-8.24531075544655323028564453125">
        <ele>316.79998779296875</ele>
        <time>2019-05-01T16:34:54.000Z</time>
      </trkpt>
      <trkpt lat="41.43094229511916637420654296875" lon="-8.24548962526023387908935546875">
        <ele>318</ele>
        <time>2019-05-01T16:35:13.000Z</time>
      </trkpt>
      <trkpt lat="41.4312989450991153717041015625" lon="-8.24558417312800884246826171875">
        <ele>318</ele>
        <time>2019-05-01T16:35:27.000Z</time>
      </trkpt>
      <trkpt lat="41.43134010024368762969970703125" lon="-8.24559221975505352020263671875">
        <ele>318</ele>
        <time>2019-05-01T16:37:01.000Z</time>
      </trkpt>
      <trkpt lat="41.43186765722930431365966796875" lon="-8.24578818865120410919189453125">
        <ele>320</ele>
        <time>2019-05-01T16:37:17.000Z</time>
      </trkpt>
      <trkpt lat="41.43232405185699462890625" lon="-8.24618398211896419525146484375">
        <ele>324.79998779296875</ele>
        <time>2019-05-01T16:37:34.000Z</time>
      </trkpt>
      <trkpt lat="41.4328023232519626617431640625" lon="-8.2464859820902347564697265625">
        <ele>331.399993896484375</ele>
        <time>2019-05-01T16:37:53.000Z</time>
      </trkpt>
      <trkpt lat="41.433363743126392364501953125" lon="-8.24658296070992946624755859375">
        <ele>329.600006103515625</ele>
        <time>2019-05-01T16:38:12.000Z</time>
      </trkpt>
      <trkpt lat="41.43383287824690341949462890625" lon="-8.2469691149890422821044921875">
        <ele>330</ele>
        <time>2019-05-01T16:38:29.000Z</time>
      </trkpt>
      <trkpt lat="41.4341085590422153472900390625" lon="-8.247630782425403594970703125">
        <ele>339.399993896484375</ele>
        <time>2019-05-01T16:38:46.000Z</time>
      </trkpt>
      <trkpt lat="41.4344840683043003082275390625" lon="-8.2481244765222072601318359375">
        <ele>346</ele>
        <time>2019-05-01T16:39:04.000Z</time>
      </trkpt>
      <trkpt lat="41.4350520260632038116455078125" lon="-8.2480487041175365447998046875">
        <ele>348.399993896484375</ele>
        <time>2019-05-01T16:39:20.000Z</time>
      </trkpt>
      <trkpt lat="41.4356092549860477447509765625" lon="-8.24794585816562175750732421875">
        <ele>352.600006103515625</ele>
        <time>2019-05-01T16:39:39.000Z</time>
      </trkpt>
      <trkpt lat="41.436156928539276123046875" lon="-8.24781241826713085174560546875">
        <ele>348.600006103515625</ele>
        <time>2019-05-01T16:39:55.000Z</time>
      </trkpt>
      <trkpt lat="41.43670066259801387786865234375" lon="-8.24797980487346649169921875">
        <ele>351</ele>
        <time>2019-05-01T16:40:13.000Z</time>
      </trkpt>
      <trkpt lat="41.43711648881435394287109375" lon="-8.24813227169215679168701171875">
        <ele>351.79998779296875</ele>
        <time>2019-05-01T16:40:28.000Z</time>
      </trkpt>
      <trkpt lat="41.43714624457061290740966796875" lon="-8.24817149899899959564208984375">
        <ele>352.399993896484375</ele>
        <time>2019-05-01T16:41:50.000Z</time>
      </trkpt>
      <trkpt lat="41.43729913048446178436279296875" lon="-8.2482572458684444427490234375">
        <ele>352.600006103515625</ele>
        <time>2019-05-01T16:41:57.000Z</time>
      </trkpt>
      <trkpt lat="41.43782719038426876068115234375" lon="-8.24842966161668300628662109375">
        <ele>354.600006103515625</ele>
        <time>2019-05-01T16:42:13.000Z</time>
      </trkpt>
      <trkpt lat="41.43837452866137027740478515625" lon="-8.24849068187177181243896484375">
        <ele>354.600006103515625</ele>
        <time>2019-05-01T16:42:29.000Z</time>
      </trkpt>
      <trkpt lat="41.4388755150139331817626953125" lon="-8.24877248145639896392822265625">
        <ele>359</ele>
        <time>2019-05-01T16:42:47.000Z</time>
      </trkpt>
      <trkpt lat="41.4394210092723369598388671875" lon="-8.24898521415889263153076171875">
        <ele>365.399993896484375</ele>
        <time>2019-05-01T16:43:06.000Z</time>
      </trkpt>
      <trkpt lat="41.4399785734713077545166015625" lon="-8.24906517751514911651611328125">
        <ele>366.399993896484375</ele>
        <time>2019-05-01T16:43:22.000Z</time>
      </trkpt>
      <trkpt lat="41.44050956703722476959228515625" lon="-8.2489898242056369781494140625">
        <ele>366.20001220703125</ele>
        <time>2019-05-01T16:43:37.000Z</time>
      </trkpt>
      <trkpt lat="41.44085372798144817352294921875" lon="-8.24877147562801837921142578125">
        <ele>362.600006103515625</ele>
        <time>2019-05-01T16:43:48.000Z</time>
      </trkpt>
      <trkpt lat="41.44098415039479732513427734375" lon="-8.2489522732794284820556640625">
        <ele>361</ele>
        <time>2019-05-01T16:43:53.000Z</time>
      </trkpt>
      <trkpt lat="41.44099772907793521881103515625" lon="-8.24900784529745578765869140625">
        <ele>360.79998779296875</ele>
        <time>2019-05-01T16:43:54.000Z</time>
      </trkpt>
      <trkpt lat="41.44101600162684917449951171875" lon="-8.24924387969076633453369140625">
        <ele>360.600006103515625</ele>
        <time>2019-05-01T16:43:58.000Z</time>
      </trkpt>
      <trkpt lat="41.4410988986492156982421875" lon="-8.249519057571887969970703125">
        <ele>359.79998779296875</ele>
        <time>2019-05-01T16:44:03.000Z</time>
      </trkpt>
      <trkpt lat="41.44142570905387401580810546875" lon="-8.2501005940139293670654296875">
        <ele>357</ele>
        <time>2019-05-01T16:44:16.000Z</time>
      </trkpt>
      <trkpt lat="41.4418450556695461273193359375" lon="-8.25059554539620876312255859375">
        <ele>354</ele>
        <time>2019-05-01T16:44:30.000Z</time>
      </trkpt>
      <trkpt lat="41.44214965403079986572265625" lon="-8.25117792002856731414794921875">
        <ele>353</ele>
        <time>2019-05-01T16:44:42.000Z</time>
      </trkpt>
      <trkpt lat="41.44237353466451168060302734375" lon="-8.25189960189163684844970703125">
        <ele>354.79998779296875</ele>
        <time>2019-05-01T16:44:57.000Z</time>
      </trkpt>
      <trkpt lat="41.44247797317802906036376953125" lon="-8.25262798927724361419677734375">
        <ele>357.79998779296875</ele>
        <time>2019-05-01T16:45:10.000Z</time>
      </trkpt>
      <trkpt lat="41.44247361458837985992431640625" lon="-8.253392837941646575927734375">
        <ele>359.399993896484375</ele>
        <time>2019-05-01T16:45:24.000Z</time>
      </trkpt>
      <trkpt lat="41.44245903007686138153076171875" lon="-8.2541423477232456207275390625">
        <ele>360.399993896484375</ele>
        <time>2019-05-01T16:45:38.000Z</time>
      </trkpt>
      <trkpt lat="41.44246523268520832061767578125" lon="-8.2542715966701507568359375">
        <ele>361.79998779296875</ele>
        <time>2019-05-01T16:45:40.000Z</time>
      </trkpt>
      <trkpt lat="41.44248518161475658416748046875" lon="-8.25440729968249797821044921875">
        <ele>362.600006103515625</ele>
        <time>2019-05-01T16:45:42.000Z</time>
      </trkpt>
      <trkpt lat="41.4429477788507938385009765625" lon="-8.2547951303422451019287109375">
        <ele>366.20001220703125</ele>
        <time>2019-05-01T16:45:53.000Z</time>
      </trkpt>
      <trkpt lat="41.44312505610287189483642578125" lon="-8.25471642427146434783935546875">
        <ele>365.79998779296875</ele>
        <time>2019-05-01T16:45:56.000Z</time>
      </trkpt>
      <trkpt lat="41.4434724859893321990966796875" lon="-8.25454224832355976104736328125">
        <ele>359.399993896484375</ele>
        <time>2019-05-01T16:46:03.000Z</time>
      </trkpt>
      <trkpt lat="41.4438121207058429718017578125" lon="-8.25440763495862483978271484375">
        <ele>353.20001220703125</ele>
        <time>2019-05-01T16:46:10.000Z</time>
      </trkpt>
      <trkpt lat="41.44410490058362483978271484375" lon="-8.25448072515428066253662109375">
        <ele>349</ele>
        <time>2019-05-01T16:46:16.000Z</time>
      </trkpt>
      <trkpt lat="41.44414831884205341339111328125" lon="-8.25451240874826908111572265625">
        <ele>348.20001220703125</ele>
        <time>2019-05-01T16:46:17.000Z</time>
      </trkpt>
      <trkpt lat="41.4443737082183361053466796875" lon="-8.25499244034290313720703125">
        <ele>348.399993896484375</ele>
        <time>2019-05-01T16:46:25.000Z</time>
      </trkpt>
      <trkpt lat="41.444529779255390167236328125" lon="-8.2557208277285099029541015625">
        <ele>347.600006103515625</ele>
        <time>2019-05-01T16:46:34.000Z</time>
      </trkpt>
      <trkpt lat="41.44467554055154323577880859375" lon="-8.25644158758223056793212890625">
        <ele>346.20001220703125</ele>
        <time>2019-05-01T16:46:42.000Z</time>
      </trkpt>
      <trkpt lat="41.444825828075408935546875" lon="-8.25719394721090793609619140625">
        <ele>346</ele>
        <time>2019-05-01T16:46:50.000Z</time>
      </trkpt>
      <trkpt lat="41.44526302814483642578125" lon="-8.2576681114733219146728515625">
        <ele>348.79998779296875</ele>
        <time>2019-05-01T16:46:58.000Z</time>
      </trkpt>
      <trkpt lat="41.44563308916985988616943359375" lon="-8.257561661303043365478515625">
        <ele>347</ele>
        <time>2019-05-01T16:47:03.000Z</time>
      </trkpt>
      <trkpt lat="41.44617523066699504852294921875" lon="-8.25734633021056652069091796875">
        <ele>339.79998779296875</ele>
        <time>2019-05-01T16:47:12.000Z</time>
      </trkpt>
      <trkpt lat="41.4463266916573047637939453125" lon="-8.25729888863861560821533203125">
        <ele>338.20001220703125</ele>
        <time>2019-05-01T16:47:15.000Z</time>
      </trkpt>
      <trkpt lat="41.44667445681989192962646484375" lon="-8.2574300654232501983642578125">
        <ele>336.600006103515625</ele>
        <time>2019-05-01T16:47:22.000Z</time>
      </trkpt>
      <trkpt lat="41.44710042513906955718994140625" lon="-8.2578806765377521514892578125">
        <ele>342.399993896484375</ele>
        <time>2019-05-01T16:47:31.000Z</time>
      </trkpt>
      <trkpt lat="41.4472024329006671905517578125" lon="-8.25799324549734592437744140625">
        <ele>344.20001220703125</ele>
        <time>2019-05-01T16:47:33.000Z</time>
      </trkpt>
      <trkpt lat="41.44770811311900615692138671875" lon="-8.25830899178981781005859375">
        <ele>344.79998779296875</ele>
        <time>2019-05-01T16:47:42.000Z</time>
      </trkpt>
      <trkpt lat="41.4480996318161487579345703125" lon="-8.25851283967494964599609375">
        <ele>344</ele>
        <time>2019-05-01T16:47:50.000Z</time>
      </trkpt>
      <trkpt lat="41.4486048929393291473388671875" lon="-8.25888692401349544525146484375">
        <ele>341</ele>
        <time>2019-05-01T16:48:02.000Z</time>
      </trkpt>
      <trkpt lat="41.44899641163647174835205078125" lon="-8.2594214379787445068359375">
        <ele>339.399993896484375</ele>
        <time>2019-05-01T16:48:12.000Z</time>
      </trkpt>
      <trkpt lat="41.44940896891057491302490234375" lon="-8.25997539795935153961181640625">
        <ele>339.79998779296875</ele>
        <time>2019-05-01T16:48:22.000Z</time>
      </trkpt>
      <trkpt lat="41.449825130403041839599609375" lon="-8.26052139513194561004638671875">
        <ele>339.399993896484375</ele>
        <time>2019-05-01T16:48:32.000Z</time>
      </trkpt>
      <trkpt lat="41.45032779313623905181884765625" lon="-8.2608938030898571014404296875">
        <ele>337.79998779296875</ele>
        <time>2019-05-01T16:48:42.000Z</time>
      </trkpt>
      <trkpt lat="41.450811512768268585205078125" lon="-8.2612270675599575042724609375">
        <ele>336.399993896484375</ele>
        <time>2019-05-01T16:48:52.000Z</time>
      </trkpt>
      <trkpt lat="41.4512671530246734619140625" lon="-8.26155739836394786834716796875">
        <ele>334.79998779296875</ele>
        <time>2019-05-01T16:49:02.000Z</time>
      </trkpt>
      <trkpt lat="41.451765038073062896728515625" lon="-8.26190457679331302642822265625">
        <ele>333.20001220703125</ele>
        <time>2019-05-01T16:49:12.000Z</time>
      </trkpt>
      <trkpt lat="41.45225345157086849212646484375" lon="-8.262299112975597381591796875">
        <ele>329.79998779296875</ele>
        <time>2019-05-01T16:49:22.000Z</time>
      </trkpt>
      <trkpt lat="41.45240130834281444549560546875" lon="-8.2624146156013011932373046875">
        <ele>327.600006103515625</ele>
        <time>2019-05-01T16:49:25.000Z</time>
      </trkpt>
      <trkpt lat="41.4525691978633403778076171875" lon="-8.26281049288809299468994140625">
        <ele>327.399993896484375</ele>
        <time>2019-05-01T16:49:31.000Z</time>
      </trkpt>
      <trkpt lat="41.45275753922760486602783203125" lon="-8.26349562965333461761474609375">
        <ele>326.79998779296875</ele>
        <time>2019-05-01T16:49:39.000Z</time>
      </trkpt>
      <trkpt lat="41.452965326607227325439453125" lon="-8.26421789824962615966796875">
        <ele>325.600006103515625</ele>
        <time>2019-05-01T16:49:47.000Z</time>
      </trkpt>
      <trkpt lat="41.4531636424362659454345703125" lon="-8.264937065541744232177734375">
        <ele>324.79998779296875</ele>
        <time>2019-05-01T16:49:55.000Z</time>
      </trkpt>
      <trkpt lat="41.4533755369484424591064453125" lon="-8.26568280346691608428955078125">
        <ele>325.20001220703125</ele>
        <time>2019-05-01T16:50:03.000Z</time>
      </trkpt>
      <trkpt lat="41.45357075147330760955810546875" lon="-8.2663698680698871612548828125">
        <ele>321.600006103515625</ele>
        <time>2019-05-01T16:50:10.000Z</time>
      </trkpt>
      <trkpt lat="41.45378733985126018524169921875" lon="-8.2671336270868778228759765625">
        <ele>318.79998779296875</ele>
        <time>2019-05-01T16:50:18.000Z</time>
      </trkpt>
      <trkpt lat="41.45393787883222103118896484375" lon="-8.26792278327047824859619140625">
        <ele>318.600006103515625</ele>
        <time>2019-05-01T16:50:26.000Z</time>
      </trkpt>
      <trkpt lat="41.4540457539260387420654296875" lon="-8.2686950080096721649169921875">
        <ele>313.79998779296875</ele>
        <time>2019-05-01T16:50:34.000Z</time>
      </trkpt>
      <trkpt lat="41.45407475531101226806640625" lon="-8.2694882713258266448974609375">
        <ele>307.20001220703125</ele>
        <time>2019-05-01T16:50:43.000Z</time>
      </trkpt>
      <trkpt lat="41.454170309007167816162109375" lon="-8.2702245377004146575927734375">
        <ele>301.600006103515625</ele>
        <time>2019-05-01T16:50:52.000Z</time>
      </trkpt>
      <trkpt lat="41.45434155128896236419677734375" lon="-8.27093959785997867584228515625">
        <ele>298.600006103515625</ele>
        <time>2019-05-01T16:51:02.000Z</time>
      </trkpt>
      <trkpt lat="41.45441061817109584808349609375" lon="-8.27165893279016017913818359375">
        <ele>299.20001220703125</ele>
        <time>2019-05-01T16:51:11.000Z</time>
      </trkpt>
      <trkpt lat="41.454431153833866119384765625" lon="-8.272384218871593475341796875">
        <ele>299</ele>
        <time>2019-05-01T16:51:19.000Z</time>
      </trkpt>
      <trkpt lat="41.4543672837316989898681640625" lon="-8.273097686469554901123046875">
        <ele>298.399993896484375</ele>
        <time>2019-05-01T16:51:26.000Z</time>
      </trkpt>
      <trkpt lat="41.45433358848094940185546875" lon="-8.27337093651294708251953125">
        <ele>298.20001220703125</ele>
        <time>2019-05-01T16:51:29.000Z</time>
      </trkpt>
      <trkpt lat="41.45442545413970947265625" lon="-8.27380335889756679534912109375">
        <ele>295.20001220703125</ele>
        <time>2019-05-01T16:51:35.000Z</time>
      </trkpt>
      <trkpt lat="41.454465687274932861328125" lon="-8.2739417441189289093017578125">
        <ele>294.79998779296875</ele>
        <time>2019-05-01T16:51:37.000Z</time>
      </trkpt>
      <trkpt lat="41.4542806148529052734375" lon="-8.2742230407893657684326171875">
        <ele>296.399993896484375</ele>
        <time>2019-05-01T16:51:42.000Z</time>
      </trkpt>
      <trkpt lat="41.4542345143854618072509765625" lon="-8.2742763496935367584228515625">
        <ele>296.79998779296875</ele>
        <time>2019-05-01T16:51:43.000Z</time>
      </trkpt>
      <trkpt lat="41.45414692349731922149658203125" lon="-8.2745905034244060516357421875">
        <ele>296.600006103515625</ele>
        <time>2019-05-01T16:51:47.000Z</time>
      </trkpt>
      <trkpt lat="41.4539498649537563323974609375" lon="-8.27525828965008258819580078125">
        <ele>295.79998779296875</ele>
        <time>2019-05-01T16:51:55.000Z</time>
      </trkpt>
      <trkpt lat="41.4538476057350635528564453125" lon="-8.275442607700824737548828125">
        <ele>295.399993896484375</ele>
        <time>2019-05-01T16:51:58.000Z</time>
      </trkpt>
      <trkpt lat="41.45345910452306270599365234375" lon="-8.27601014636456966400146484375">
        <ele>293.20001220703125</ele>
        <time>2019-05-01T16:52:06.000Z</time>
      </trkpt>
      <trkpt lat="41.4530935697257518768310546875" lon="-8.2765636034309864044189453125">
        <ele>291</ele>
        <time>2019-05-01T16:52:12.000Z</time>
      </trkpt>
      <trkpt lat="41.4527012966573238372802734375" lon="-8.277146480977535247802734375">
        <ele>288</ele>
        <time>2019-05-01T16:52:18.000Z</time>
      </trkpt>
      <trkpt lat="41.45246216095983982086181640625" lon="-8.277569599449634552001953125">
        <ele>286.600006103515625</ele>
        <time>2019-05-01T16:52:22.000Z</time>
      </trkpt>
      <trkpt lat="41.45229569636285305023193359375" lon="-8.278279714286327362060546875">
        <ele>284.600006103515625</ele>
        <time>2019-05-01T16:52:29.000Z</time>
      </trkpt>
      <trkpt lat="41.45227767527103424072265625" lon="-8.27833612449467182159423828125">
        <ele>284.399993896484375</ele>
        <time>2019-05-01T16:52:30.000Z</time>
      </trkpt>
      <trkpt lat="41.45222227089107036590576171875" lon="-8.27855539508163928985595703125">
        <ele>283</ele>
        <time>2019-05-01T16:52:34.000Z</time>
      </trkpt>
      <trkpt lat="41.45217415876686573028564453125" lon="-8.2788733206689357757568359375">
        <ele>280.79998779296875</ele>
        <time>2019-05-01T16:52:39.000Z</time>
      </trkpt>
      <trkpt lat="41.451996378600597381591796875" lon="-8.27867626212537288665771484375">
        <ele>279.20001220703125</ele>
        <time>2019-05-01T16:52:48.000Z</time>
      </trkpt>
      <trkpt lat="41.4519294910132884979248046875" lon="-8.278080560266971588134765625">
        <ele>279.20001220703125</ele>
        <time>2019-05-01T16:53:05.000Z</time>
      </trkpt>
      <trkpt lat="41.4519559778273105621337890625" lon="-8.2780762016773223876953125">
        <ele>279.600006103515625</ele>
        <time>2019-05-01T16:53:26.000Z</time>
      </trkpt>
      <trkpt lat="41.451985649764537811279296875" lon="-8.27818793244659900665283203125">
        <ele>280.20001220703125</ele>
        <time>2019-05-01T16:53:30.000Z</time>
      </trkpt>
      <trkpt lat="41.452160663902759552001953125" lon="-8.27885479666292667388916015625">
        <ele>280.79998779296875</ele>
        <time>2019-05-01T16:53:46.000Z</time>
      </trkpt>
      <trkpt lat="41.45206335000693798065185546875" lon="-8.2796384207904338836669921875">
        <ele>276.600006103515625</ele>
        <time>2019-05-01T16:53:57.000Z</time>
      </trkpt>
      <trkpt lat="41.45198858343064785003662109375" lon="-8.2799832522869110107421875">
        <ele>274.399993896484375</ele>
        <time>2019-05-01T16:54:01.000Z</time>
      </trkpt>
      <trkpt lat="41.45180434919893741607666015625" lon="-8.28030771575868129730224609375">
        <ele>272.600006103515625</ele>
        <time>2019-05-01T16:54:05.000Z</time>
      </trkpt>
      <trkpt lat="41.4516820572316646575927734375" lon="-8.28043453395366668701171875">
        <ele>271.79998779296875</ele>
        <time>2019-05-01T16:54:07.000Z</time>
      </trkpt>
      <trkpt lat="41.451383493840694427490234375" lon="-8.28058482147753238677978515625">
        <ele>269.399993896484375</ele>
        <time>2019-05-01T16:54:11.000Z</time>
      </trkpt>
      <trkpt lat="41.45078846253454685211181640625" lon="-8.2808641903102397918701171875">
        <ele>266.399993896484375</ele>
        <time>2019-05-01T16:54:18.000Z</time>
      </trkpt>
      <trkpt lat="41.45026174373924732208251953125" lon="-8.28112327493727207183837890625">
        <ele>261.600006103515625</ele>
        <time>2019-05-01T16:54:24.000Z</time>
      </trkpt>
      <trkpt lat="41.449924372136592864990234375" lon="-8.2812943495810031890869140625">
        <ele>258</ele>
        <time>2019-05-01T16:54:28.000Z</time>
      </trkpt>
      <trkpt lat="41.44957291893661022186279296875" lon="-8.281960375607013702392578125">
        <ele>253.600006103515625</ele>
        <time>2019-05-01T16:54:34.000Z</time>
      </trkpt>
      <trkpt lat="41.44954425282776355743408203125" lon="-8.282086439430713653564453125">
        <ele>253</ele>
        <time>2019-05-01T16:54:35.000Z</time>
      </trkpt>
      <trkpt lat="41.449371837079524993896484375" lon="-8.282830081880092620849609375">
        <ele>251.1999969482421875</ele>
        <time>2019-05-01T16:54:41.000Z</time>
      </trkpt>
      <trkpt lat="41.44931358285248279571533203125" lon="-8.2836054079234600067138671875">
        <ele>249</ele>
        <time>2019-05-01T16:54:47.000Z</time>
      </trkpt>
      <trkpt lat="41.4493116550147533416748046875" lon="-8.28436086885631084442138671875">
        <ele>248.1999969482421875</ele>
        <time>2019-05-01T16:54:53.000Z</time>
      </trkpt>
      <trkpt lat="41.44928776659071445465087890625" lon="-8.28471072949469089508056640625">
        <ele>248.1999969482421875</ele>
        <time>2019-05-01T16:54:56.000Z</time>
      </trkpt>
      <trkpt lat="41.44897478632628917694091796875" lon="-8.2850826345384120941162109375">
        <ele>242.600006103515625</ele>
        <time>2019-05-01T16:55:01.000Z</time>
      </trkpt>
      <trkpt lat="41.44842208363115787506103515625" lon="-8.28533031977713108062744140625">
        <ele>236.1999969482421875</ele>
        <time>2019-05-01T16:55:08.000Z</time>
      </trkpt>
      <trkpt lat="41.44787214696407318115234375" lon="-8.2856036536395549774169921875">
        <ele>231</ele>
        <time>2019-05-01T16:55:15.000Z</time>
      </trkpt>
      <trkpt lat="41.44780215807259082794189453125" lon="-8.28566073440015316009521484375">
        <ele>230.600006103515625</ele>
        <time>2019-05-01T16:55:16.000Z</time>
      </trkpt>
      <trkpt lat="41.44767961464822292327880859375" lon="-8.28616029582917690277099609375">
        <ele>231.1999969482421875</ele>
        <time>2019-05-01T16:55:21.000Z</time>
      </trkpt>
      <trkpt lat="41.44766586832702159881591796875" lon="-8.28695976175367832183837890625">
        <ele>229.8000030517578125</ele>
        <time>2019-05-01T16:55:28.000Z</time>
      </trkpt>
      <trkpt lat="41.44764474593102931976318359375" lon="-8.28731347806751728057861328125">
        <ele>227.399993896484375</ele>
        <time>2019-05-01T16:55:31.000Z</time>
      </trkpt>
      <trkpt lat="41.4473670534789562225341796875" lon="-8.2879011332988739013671875">
        <ele>224.1999969482421875</ele>
        <time>2019-05-01T16:55:37.000Z</time>
      </trkpt>
      <trkpt lat="41.4469523169100284576416015625" lon="-8.28840203583240509033203125">
        <ele>222.600006103515625</ele>
        <time>2019-05-01T16:55:43.000Z</time>
      </trkpt>
      <trkpt lat="41.4465496502816677093505859375" lon="-8.28890067525207996368408203125">
        <ele>221.8000030517578125</ele>
        <time>2019-05-01T16:55:49.000Z</time>
      </trkpt>
      <trkpt lat="41.446116976439952850341796875" lon="-8.2894918508827686309814453125">
        <ele>218.399993896484375</ele>
        <time>2019-05-01T16:55:56.000Z</time>
      </trkpt>
      <trkpt lat="41.44573635421693325042724609375" lon="-8.29002871178090572357177734375">
        <ele>212.1999969482421875</ele>
        <time>2019-05-01T16:56:03.000Z</time>
      </trkpt>
      <trkpt lat="41.4453849010169506072998046875" lon="-8.290586359798908233642578125">
        <ele>208.8000030517578125</ele>
        <time>2019-05-01T16:56:14.000Z</time>
      </trkpt>
      <trkpt lat="41.445274092257022857666015625" lon="-8.29127711243927478790283203125">
        <ele>210</ele>
        <time>2019-05-01T16:56:31.000Z</time>
      </trkpt>
      <trkpt lat="41.44486480392515659332275390625" lon="-8.29120050184428691864013671875">
        <ele>203.8000030517578125</ele>
        <time>2019-05-01T16:56:46.000Z</time>
      </trkpt>
      <trkpt lat="41.44464603625237941741943359375" lon="-8.29120720736682415008544921875">
        <ele>202.600006103515625</ele>
        <time>2019-05-01T16:56:54.000Z</time>
      </trkpt>
      <trkpt lat="41.44410221837460994720458984375" lon="-8.291370905935764312744140625">
        <ele>202.1999969482421875</ele>
        <time>2019-05-01T16:57:05.000Z</time>
      </trkpt>
      <trkpt lat="41.4435611665248870849609375" lon="-8.291507028043270111083984375">
        <ele>198.1999969482421875</ele>
        <time>2019-05-01T16:57:14.000Z</time>
      </trkpt>
      <trkpt lat="41.4430215395987033843994140625" lon="-8.29166620038449764251708984375">
        <ele>194.399993896484375</ele>
        <time>2019-05-01T16:57:23.000Z</time>
      </trkpt>
      <trkpt lat="41.4425216428935527801513671875" lon="-8.29178337939083576202392578125">
        <ele>191.1999969482421875</ele>
        <time>2019-05-01T16:57:34.000Z</time>
      </trkpt>
      <trkpt lat="41.44243505783379077911376953125" lon="-8.29177348874509334564208984375">
        <ele>190.600006103515625</ele>
        <time>2019-05-01T16:57:36.000Z</time>
      </trkpt>
      <trkpt lat="41.4422306232154369354248046875" lon="-8.291903324425220489501953125">
        <ele>190</ele>
        <time>2019-05-01T16:57:41.000Z</time>
      </trkpt>
      <trkpt lat="41.4421012066304683685302734375" lon="-8.29205344431102275848388671875">
        <ele>190.1999969482421875</ele>
        <time>2019-05-01T16:57:45.000Z</time>
      </trkpt>
      <trkpt lat="41.44169359467923641204833984375" lon="-8.292570523917675018310546875">
        <ele>190.600006103515625</ele>
        <time>2019-05-01T16:58:02.000Z</time>
      </trkpt>
      <trkpt lat="41.4415198378264904022216796875" lon="-8.29270991496741771697998046875">
        <ele>190.600006103515625</ele>
        <time>2019-05-01T16:58:09.000Z</time>
      </trkpt>
      <trkpt lat="41.4414873160421848297119140625" lon="-8.29261486418545246124267578125">
        <ele>189.8000030517578125</ele>
        <time>2019-05-01T16:58:13.000Z</time>
      </trkpt>
      <trkpt lat="41.441479437053203582763671875" lon="-8.2925884611904621124267578125">
        <ele>189.600006103515625</ele>
        <time>2019-05-01T16:58:14.000Z</time>
      </trkpt>
      <trkpt lat="41.4414209313690662384033203125" lon="-8.2925364933907985687255859375">
        <ele>188.600006103515625</ele>
        <time>2019-05-01T16:58:18.000Z</time>
      </trkpt>
      <trkpt lat="41.441415064036846160888671875" lon="-8.29253339208662509918212890625">
        <ele>188.600006103515625</ele>
        <time>2019-05-01T16:58:20.000Z</time>
      </trkpt>
      <trkpt lat="41.44139352254569530487060546875" lon="-8.2925126887857913970947265625">
        <ele>188.1999969482421875</ele>
        <time>2019-05-01T16:58:48.000Z</time>
      </trkpt>
      <trkpt lat="41.44127659499645233154296875" lon="-8.29246583394706249237060546875">
        <ele>186.8000030517578125</ele>
        <time>2019-05-01T16:58:53.000Z</time>
      </trkpt>
      <trkpt lat="41.44120174460113048553466796875" lon="-8.2922974415123462677001953125">
        <ele>184.8000030517578125</ele>
        <time>2019-05-01T16:59:01.000Z</time>
      </trkpt>
      <trkpt lat="41.4412016607820987701416015625" lon="-8.2922784984111785888671875">
        <ele>184.600006103515625</ele>
        <time>2019-05-01T16:59:02.000Z</time>
      </trkpt>
      <trkpt lat="41.44108942709863185882568359375" lon="-8.29208646900951862335205078125">
        <ele>183</ele>
        <time>2019-05-01T16:59:10.000Z</time>
      </trkpt>
      <trkpt lat="41.44109546206891536712646484375" lon="-8.291998207569122314453125">
        <ele>182.8000030517578125</ele>
        <time>2019-05-01T16:59:15.000Z</time>
      </trkpt>
      <trkpt lat="41.44111926667392253875732421875" lon="-8.29201438464224338531494140625">
        <ele>183</ele>
        <time>2019-05-01T16:59:58.000Z</time>
      </trkpt>
      <trkpt lat="41.44111876375973224639892578125" lon="-8.29210910014808177947998046875">
        <ele>183</ele>
        <time>2019-05-01T17:00:02.000Z</time>
      </trkpt>
      <trkpt lat="41.4412128925323486328125" lon="-8.2922340743243694305419921875">
        <ele>184.399993896484375</ele>
        <time>2019-05-01T17:00:08.000Z</time>
      </trkpt>
      <trkpt lat="41.44123644568026065826416015625" lon="-8.292305655777454376220703125">
        <ele>185.1999969482421875</ele>
        <time>2019-05-01T17:00:13.000Z</time>
      </trkpt>
      <trkpt lat="41.44123711623251438140869140625" lon="-8.29234446398913860321044921875">
        <ele>185.600006103515625</ele>
        <time>2019-05-01T17:00:29.000Z</time>
      </trkpt>
      <trkpt lat="41.44113846123218536376953125" lon="-8.29251025803387165069580078125">
        <ele>185.8000030517578125</ele>
        <time>2019-05-01T17:00:38.000Z</time>
      </trkpt>
      <trkpt lat="41.4408479444682598114013671875" lon="-8.2931435108184814453125">
        <ele>186.1999969482421875</ele>
        <time>2019-05-01T17:00:53.000Z</time>
      </trkpt>
      <trkpt lat="41.44080326892435550689697265625" lon="-8.293865025043487548828125">
        <ele>186.600006103515625</ele>
        <time>2019-05-01T17:01:10.000Z</time>
      </trkpt>
      <trkpt lat="41.44079111516475677490234375" lon="-8.29388304613530635833740234375">
        <ele>186.399993896484375</ele>
        <time>2019-05-01T17:01:11.000Z</time>
      </trkpt>
      <trkpt lat="41.44076429307460784912109375" lon="-8.29368758015334606170654296875">
        <ele>186.600006103515625</ele>
        <time>2019-05-01T17:01:19.000Z</time>
      </trkpt>
      <trkpt lat="41.44072950817644596099853515625" lon="-8.2935118116438388824462890625">
        <ele>186.600006103515625</ele>
        <time>2019-05-01T17:01:24.000Z</time>
      </trkpt>
      <trkpt lat="41.440566815435886383056640625" lon="-8.29361490905284881591796875">
        <ele>185</ele>
        <time>2019-05-01T17:01:31.000Z</time>
      </trkpt>
      <trkpt lat="41.44031125120818614959716796875" lon="-8.29355078749358654022216796875">
        <ele>182</ele>
        <time>2019-05-01T17:01:41.000Z</time>
      </trkpt>
      <trkpt lat="41.44015702418982982635498046875" lon="-8.2933649607002735137939453125">
        <ele>179.600006103515625</ele>
        <time>2019-05-01T17:01:49.000Z</time>
      </trkpt>
      <trkpt lat="41.4399738796055316925048828125" lon="-8.2931983284652233123779296875">
        <ele>177</ele>
        <time>2019-05-01T17:02:00.000Z</time>
      </trkpt>
      <trkpt lat="41.44083595834672451019287109375" lon="-8.2944894768297672271728515625">
        <ele>186.399993896484375</ele>
        <time>2019-05-02T08:14:11.000Z</time>
      </trkpt>
      <trkpt lat="41.44089044071733951568603515625" lon="-8.29452409408986568450927734375">
        <ele>187</ele>
        <time>2019-05-02T08:14:17.000Z</time>
      </trkpt>
      <trkpt lat="41.44092388451099395751953125" lon="-8.29455644823610782623291015625">
        <ele>187.600006103515625</ele>
        <time>2019-05-02T08:14:21.000Z</time>
      </trkpt>
      <trkpt lat="41.44109378568828105926513671875" lon="-8.2946259342133998870849609375">
        <ele>189.600006103515625</ele>
        <time>2019-05-02T08:14:34.000Z</time>
      </trkpt>
      <trkpt lat="41.44114139489829540252685546875" lon="-8.2946735434234142303466796875">
        <ele>190.1999969482421875</ele>
        <time>2019-05-02T08:14:39.000Z</time>
      </trkpt>
      <trkpt lat="41.44116151146590709686279296875" lon="-8.2947013713419437408447265625">
        <ele>190.1999969482421875</ele>
        <time>2019-05-02T08:14:43.000Z</time>
      </trkpt>
      <trkpt lat="41.44117592833936214447021484375" lon="-8.294750154018402099609375">
        <ele>190.1999969482421875</ele>
        <time>2019-05-02T08:14:52.000Z</time>
      </trkpt>
      <trkpt lat="41.4412439055740833282470703125" lon="-8.29504259862005710601806640625">
        <ele>190.1999969482421875</ele>
        <time>2019-05-02T08:15:03.000Z</time>
      </trkpt>
      <trkpt lat="41.44125622697174549102783203125" lon="-8.295073695480823516845703125">
        <ele>190.1999969482421875</ele>
        <time>2019-05-02T08:15:25.000Z</time>
      </trkpt>
      <trkpt lat="41.44174757413566112518310546875" lon="-8.29538726247847080230712890625">
        <ele>192</ele>
        <time>2019-05-02T08:15:44.000Z</time>
      </trkpt>
      <trkpt lat="41.44182167015969753265380859375" lon="-8.29540662467479705810546875">
        <ele>192.1999969482421875</ele>
        <time>2019-05-02T08:15:49.000Z</time>
      </trkpt>
      <trkpt lat="41.44185838289558887481689453125" lon="-8.295426070690155029296875">
        <ele>192.1999969482421875</ele>
        <time>2019-05-02T08:17:04.000Z</time>
      </trkpt>
      <trkpt lat="41.4423171244561672210693359375" lon="-8.2955512963235378265380859375">
        <ele>192</ele>
        <time>2019-05-02T08:17:24.000Z</time>
      </trkpt>
      <trkpt lat="41.44284644164144992828369140625" lon="-8.2953487895429134368896484375">
        <ele>191</ele>
        <time>2019-05-02T08:17:47.000Z</time>
      </trkpt>
      <trkpt lat="41.4433517865836620330810546875" lon="-8.295077383518218994140625">
        <ele>191.1999969482421875</ele>
        <time>2019-05-02T08:18:00.000Z</time>
      </trkpt>
      <trkpt lat="41.443892419338226318359375" lon="-8.29487093724310398101806640625">
        <ele>191.600006103515625</ele>
        <time>2019-05-02T08:18:15.000Z</time>
      </trkpt>
      <trkpt lat="41.44437261857092380523681640625" lon="-8.29456734471023082733154296875">
        <ele>194.1999969482421875</ele>
        <time>2019-05-02T08:18:32.000Z</time>
      </trkpt>
      <trkpt lat="41.44451812840998172760009765625" lon="-8.29439568333327770233154296875">
        <ele>195.1999969482421875</ele>
        <time>2019-05-02T08:18:40.000Z</time>
      </trkpt>
      <trkpt lat="41.4447867684066295623779296875" lon="-8.29446005634963512420654296875">
        <ele>196.399993896484375</ele>
        <time>2019-05-02T08:18:54.000Z</time>
      </trkpt>
      <trkpt lat="41.444809734821319580078125" lon="-8.2944556139409542083740234375">
        <ele>196.600006103515625</ele>
        <time>2019-05-02T08:19:03.000Z</time>
      </trkpt>
      <trkpt lat="41.44511357881128787994384765625" lon="-8.294334746897220611572265625">
        <ele>199</ele>
        <time>2019-05-02T08:19:19.000Z</time>
      </trkpt>
      <trkpt lat="41.445122547447681427001953125" lon="-8.29432862810790538787841796875">
        <ele>199</ele>
        <time>2019-05-02T08:19:38.000Z</time>
      </trkpt>
      <trkpt lat="41.4447173662483692169189453125" lon="-8.29447346739470958709716796875">
        <ele>196</ele>
        <time>2019-05-02T08:19:50.000Z</time>
      </trkpt>
      <trkpt lat="41.44463413394987583160400390625" lon="-8.29464781098067760467529296875">
        <ele>195.1999969482421875</ele>
        <time>2019-05-02T08:19:55.000Z</time>
      </trkpt>
      <trkpt lat="41.44437848590314388275146484375" lon="-8.29529170878231525421142578125">
        <ele>192.399993896484375</ele>
        <time>2019-05-02T08:20:14.000Z</time>
      </trkpt>
      <trkpt lat="41.44411294721066951751708984375" lon="-8.29595387913286685943603515625">
        <ele>189.399993896484375</ele>
        <time>2019-05-02T08:20:31.000Z</time>
      </trkpt>
      <trkpt lat="41.44381471909582614898681640625" lon="-8.29660691320896148681640625">
        <ele>186.8000030517578125</ele>
        <time>2019-05-02T08:20:50.000Z</time>
      </trkpt>
      <trkpt lat="41.44375336356461048126220703125" lon="-8.29684638418257236480712890625">
        <ele>185.8000030517578125</ele>
        <time>2019-05-02T08:20:55.000Z</time>
      </trkpt>
      <trkpt lat="41.44386618398129940032958984375" lon="-8.29698787070810794830322265625">
        <ele>185.399993896484375</ele>
        <time>2019-05-02T08:21:00.000Z</time>
      </trkpt>
      <trkpt lat="41.4443606324493885040283203125" lon="-8.29736706800758838653564453125">
        <ele>185.600006103515625</ele>
        <time>2019-05-02T08:21:21.000Z</time>
      </trkpt>
      <trkpt lat="41.4448256604373455047607421875" lon="-8.29774995334446430206298828125">
        <ele>187</ele>
        <time>2019-05-02T08:21:38.000Z</time>
      </trkpt>
      <trkpt lat="41.445330418646335601806640625" lon="-8.298073746263980865478515625">
        <ele>185.600006103515625</ele>
        <time>2019-05-02T08:21:54.000Z</time>
      </trkpt>
      <trkpt lat="41.44557039253413677215576171875" lon="-8.29822202213108539581298828125">
        <ele>184.8000030517578125</ele>
        <time>2019-05-02T08:22:02.000Z</time>
      </trkpt>
      <trkpt lat="41.44562168978154659271240234375" lon="-8.2982150651514530181884765625">
        <ele>185</ele>
        <time>2019-05-02T08:22:06.000Z</time>
      </trkpt>
      <trkpt lat="41.44568740390241146087646484375" lon="-8.2981228642165660858154296875">
        <ele>185.8000030517578125</ele>
        <time>2019-05-02T08:22:11.000Z</time>
      </trkpt>
      <trkpt lat="41.44571087323129177093505859375" lon="-8.29813870601356029510498046875">
        <ele>185.600006103515625</ele>
        <time>2019-05-02T08:22:15.000Z</time>
      </trkpt>
      <trkpt lat="41.44574423320591449737548828125" lon="-8.2981577329337596893310546875">
        <ele>185.1999969482421875</ele>
        <time>2019-05-02T08:26:21.000Z</time>
      </trkpt>
      <trkpt lat="41.4457637630403041839599609375" lon="-8.29822369851171970367431640625">
        <ele>184.600006103515625</ele>
        <time>2019-05-02T08:26:24.000Z</time>
      </trkpt>
      <trkpt lat="41.44576217047870159149169921875" lon="-8.2983035780489444732666015625">
        <ele>184</ele>
        <time>2019-05-02T08:26:28.000Z</time>
      </trkpt>
      <trkpt lat="41.44592293538153171539306640625" lon="-8.2984071783721446990966796875">
        <ele>183.600006103515625</ele>
        <time>2019-05-02T08:26:34.000Z</time>
      </trkpt>
      <trkpt lat="41.446430124342441558837890625" lon="-8.298730552196502685546875">
        <ele>183.1999969482421875</ele>
        <time>2019-05-02T08:26:50.000Z</time>
      </trkpt>
      <trkpt lat="41.4469345472753047943115234375" lon="-8.29898963682353496551513671875">
        <ele>183.8000030517578125</ele>
        <time>2019-05-02T08:27:05.000Z</time>
      </trkpt>
      <trkpt lat="41.4474532194435596466064453125" lon="-8.29923321492969989776611328125">
        <ele>186.600006103515625</ele>
        <time>2019-05-02T08:27:25.000Z</time>
      </trkpt>
      <trkpt lat="41.44766318611800670623779296875" lon="-8.29948567785322666168212890625">
        <ele>187</ele>
        <time>2019-05-02T08:27:34.000Z</time>
      </trkpt>
      <trkpt lat="41.44762177951633930206298828125" lon="-8.2996953092515468597412109375">
        <ele>186.600006103515625</ele>
        <time>2019-05-02T08:27:39.000Z</time>
      </trkpt>
      <trkpt lat="41.4478639326989650726318359375" lon="-8.3003465831279754638671875">
        <ele>188.8000030517578125</ele>
        <time>2019-05-02T08:27:56.000Z</time>
      </trkpt>
      <trkpt lat="41.44810893572866916656494140625" lon="-8.30101336352527141571044921875">
        <ele>189.8000030517578125</ele>
        <time>2019-05-02T08:28:20.000Z</time>
      </trkpt>
      <trkpt lat="41.44835494458675384521484375" lon="-8.3016581833362579345703125">
        <ele>193.8000030517578125</ele>
        <time>2019-05-02T08:28:45.000Z</time>
      </trkpt>
      <trkpt lat="41.4483623206615447998046875" lon="-8.3016828261315822601318359375">
        <ele>194</ele>
        <time>2019-05-02T08:28:46.000Z</time>
      </trkpt>
      <trkpt lat="41.44847656600177288055419921875" lon="-8.30197535455226898193359375">
        <ele>196</ele>
        <time>2019-05-02T08:28:59.000Z</time>
      </trkpt>
      <trkpt lat="41.448730118572711944580078125" lon="-8.30261196009814739227294921875">
        <ele>202</ele>
        <time>2019-05-02T08:29:25.000Z</time>
      </trkpt>
      <trkpt lat="41.44897051155567169189453125" lon="-8.30326683819293975830078125">
        <ele>207.8000030517578125</ele>
        <time>2019-05-02T08:29:52.000Z</time>
      </trkpt>
      <trkpt lat="41.449153237044811248779296875" lon="-8.303738571703433990478515625">
        <ele>210</ele>
        <time>2019-05-02T08:30:12.000Z</time>
      </trkpt>
      <trkpt lat="41.44922557286918163299560546875" lon="-8.303935714066028594970703125">
        <ele>210.399993896484375</ele>
        <time>2019-05-02T08:30:20.000Z</time>
      </trkpt>
      <trkpt lat="41.4496251381933689117431640625" lon="-8.30445882864296436309814453125">
        <ele>208</ele>
        <time>2019-05-02T08:30:40.000Z</time>
      </trkpt>
      <trkpt lat="41.44982923753559589385986328125" lon="-8.3046649396419525146484375">
        <ele>206</ele>
        <time>2019-05-02T08:30:46.000Z</time>
      </trkpt>
      <trkpt lat="41.45018110983073711395263671875" lon="-8.3051036484539508819580078125">
        <ele>202.8000030517578125</ele>
        <time>2019-05-02T08:30:56.000Z</time>
      </trkpt>
      <trkpt lat="41.45044866017997264862060546875" lon="-8.30518872477114200592041015625">
        <ele>202.600006103515625</ele>
        <time>2019-05-02T08:31:01.000Z</time>
      </trkpt>
      <trkpt lat="41.45060070790350437164306640625" lon="-8.30523482523858547210693359375">
        <ele>202.8000030517578125</ele>
        <time>2019-05-02T08:31:04.000Z</time>
      </trkpt>
      <trkpt lat="41.45085074007511138916015625" lon="-8.305334150791168212890625">
        <ele>204.600006103515625</ele>
        <time>2019-05-02T08:31:09.000Z</time>
      </trkpt>
      <trkpt lat="41.451035477221012115478515625" lon="-8.30545912496745586395263671875">
        <ele>205.8000030517578125</ele>
        <time>2019-05-02T08:31:13.000Z</time>
      </trkpt>
      <trkpt lat="41.45116078667342662811279296875" lon="-8.30557881854474544525146484375">
        <ele>206</ele>
        <time>2019-05-02T08:31:16.000Z</time>
      </trkpt>
      <trkpt lat="41.45142205059528350830078125" lon="-8.3062268234789371490478515625">
        <ele>203.1999969482421875</ele>
        <time>2019-05-02T08:31:33.000Z</time>
      </trkpt>
      <trkpt lat="41.45146253518760204315185546875" lon="-8.30647383816540241241455078125">
        <ele>201.399993896484375</ele>
        <time>2019-05-02T08:31:38.000Z</time>
      </trkpt>
      <trkpt lat="41.45150830037891864776611328125" lon="-8.30666176043450832366943359375">
        <ele>200.1999969482421875</ele>
        <time>2019-05-02T08:31:41.000Z</time>
      </trkpt>
      <trkpt lat="41.4517668820917606353759765625" lon="-8.30701656639575958251953125">
        <ele>198.1999969482421875</ele>
        <time>2019-05-02T08:31:47.000Z</time>
      </trkpt>
      <trkpt lat="41.45223450846970081329345703125" lon="-8.307472206652164459228515625">
        <ele>195.399993896484375</ele>
        <time>2019-05-02T08:31:57.000Z</time>
      </trkpt>
      <trkpt lat="41.45228446461260318756103515625" lon="-8.30751051194965839385986328125">
        <ele>195.1999969482421875</ele>
        <time>2019-05-02T08:31:58.000Z</time>
      </trkpt>
      <trkpt lat="41.4527906477451324462890625" lon="-8.3079249970614910125732421875">
        <ele>189.8000030517578125</ele>
        <time>2019-05-02T08:32:07.000Z</time>
      </trkpt>
      <trkpt lat="41.45295300520956516265869140625" lon="-8.30807444639503955841064453125">
        <ele>187.8000030517578125</ele>
        <time>2019-05-02T08:32:10.000Z</time>
      </trkpt>
      <trkpt lat="41.45339154638350009918212890625" lon="-8.30849370919167995452880859375">
        <ele>183.399993896484375</ele>
        <time>2019-05-02T08:32:21.000Z</time>
      </trkpt>
      <trkpt lat="41.45346329547464847564697265625" lon="-8.3085690625011920928955078125">
        <ele>183.1999969482421875</ele>
        <time>2019-05-02T08:32:23.000Z</time>
      </trkpt>
      <trkpt lat="41.45360126160085201263427734375" lon="-8.3087457530200481414794921875">
        <ele>182.399993896484375</ele>
        <time>2019-05-02T08:32:27.000Z</time>
      </trkpt>
      <trkpt lat="41.45404499955475330352783203125" lon="-8.30924548208713531494140625">
        <ele>177.399993896484375</ele>
        <time>2019-05-02T08:32:38.000Z</time>
      </trkpt>
      <trkpt lat="41.454426459968090057373046875" lon="-8.3097676746547222137451171875">
        <ele>176.1999969482421875</ele>
        <time>2019-05-02T08:32:57.000Z</time>
      </trkpt>
      <trkpt lat="41.4544219337403774261474609375" lon="-8.30976239405572414398193359375">
        <ele>176.1999969482421875</ele>
        <time>2019-05-02T08:32:58.000Z</time>
      </trkpt>
      <trkpt lat="41.45444347523152828216552734375" lon="-8.30978653393685817718505859375">
        <ele>176.1999969482421875</ele>
        <time>2019-05-02T08:33:14.000Z</time>
      </trkpt>
      <trkpt lat="41.45479484461247920989990234375" lon="-8.31006498076021671295166015625">
        <ele>175.399993896484375</ele>
        <time>2019-05-02T08:33:30.000Z</time>
      </trkpt>
      <trkpt lat="41.45481772720813751220703125" lon="-8.3100908808410167694091796875">
        <ele>175.1999969482421875</ele>
        <time>2019-05-02T08:33:37.000Z</time>
      </trkpt>
      <trkpt lat="41.4549686014652252197265625" lon="-8.31020437180995941162109375">
        <ele>174.600006103515625</ele>
        <time>2019-05-02T08:33:46.000Z</time>
      </trkpt>
      <trkpt lat="41.45498746074736118316650390625" lon="-8.31023245118558406829833984375">
        <ele>174.399993896484375</ele>
        <time>2019-05-02T08:33:57.000Z</time>
      </trkpt>
      <trkpt lat="41.45547729916870594024658203125" lon="-8.31059371121227741241455078125">
        <ele>172.399993896484375</ele>
        <time>2019-05-02T08:34:17.000Z</time>
      </trkpt>
      <trkpt lat="41.45569556392729282379150390625" lon="-8.31064517609775066375732421875">
        <ele>172</ele>
        <time>2019-05-02T08:34:23.000Z</time>
      </trkpt>
      <trkpt lat="41.4562052674591541290283203125" lon="-8.3106444217264652252197265625">
        <ele>169</ele>
        <time>2019-05-02T08:34:32.000Z</time>
      </trkpt>
      <trkpt lat="41.456443481147289276123046875" lon="-8.31046228297054767608642578125">
        <ele>168.8000030517578125</ele>
        <time>2019-05-02T08:34:42.000Z</time>
      </trkpt>
      <trkpt lat="41.4564486779272556304931640625" lon="-8.31051684916019439697265625">
        <ele>168.600006103515625</ele>
        <time>2019-05-02T08:35:46.000Z</time>
      </trkpt>
      <trkpt lat="41.45645697601139545440673828125" lon="-8.31052464433014392852783203125">
        <ele>168.600006103515625</ele>
        <time>2019-05-02T08:35:48.000Z</time>
      </trkpt>
      <trkpt lat="41.45655504427850246429443359375" lon="-8.31061206758022308349609375">
        <ele>168.399993896484375</ele>
        <time>2019-05-02T08:36:18.000Z</time>
      </trkpt>
      <trkpt lat="41.45661086775362491607666015625" lon="-8.31063645891845226287841796875">
        <ele>168.399993896484375</ele>
        <time>2019-05-02T08:36:23.000Z</time>
      </trkpt>
      <trkpt lat="41.4566290564835071563720703125" lon="-8.31061617471277713775634765625">
        <ele>168.399993896484375</ele>
        <time>2019-05-02T08:36:27.000Z</time>
      </trkpt>
      <trkpt lat="41.4567004702985286712646484375" lon="-8.310560770332813262939453125">
        <ele>168.399993896484375</ele>
        <time>2019-05-02T08:42:42.000Z</time>
      </trkpt>
      <trkpt lat="41.45696341060101985931396484375" lon="-8.3104553259909152984619140625">
        <ele>168.600006103515625</ele>
        <time>2019-05-02T08:42:52.000Z</time>
      </trkpt>
      <trkpt lat="41.45736473612487316131591796875" lon="-8.3109413087368011474609375">
        <ele>171.8000030517578125</ele>
        <time>2019-05-02T08:43:11.000Z</time>
      </trkpt>
      <trkpt lat="41.4577827416360378265380859375" lon="-8.3113706298172473907470703125">
        <ele>172.600006103515625</ele>
        <time>2019-05-02T08:43:33.000Z</time>
      </trkpt>
      <trkpt lat="41.45796135999262332916259765625" lon="-8.3115007169544696807861328125">
        <ele>175.399993896484375</ele>
        <time>2019-05-02T08:43:42.000Z</time>
      </trkpt>
      <trkpt lat="41.45794828422367572784423828125" lon="-8.31170146353542804718017578125">
        <ele>177.1999969482421875</ele>
        <time>2019-05-02T08:43:51.000Z</time>
      </trkpt>
      <trkpt lat="41.45818582735955715179443359375" lon="-8.3117451332509517669677734375">
        <ele>179.600006103515625</ele>
        <time>2019-05-02T08:44:05.000Z</time>
      </trkpt>
      <trkpt lat="41.4581790380179882049560546875" lon="-8.31174203194677829742431640625">
        <ele>179.600006103515625</ele>
        <time>2019-05-02T08:44:06.000Z</time>
      </trkpt>
      <trkpt lat="41.45812296308577060699462890625" lon="-8.3117649145424365997314453125">
        <ele>179.399993896484375</ele>
        <time>2019-05-02T08:44:36.000Z</time>
      </trkpt>
      <trkpt lat="41.45814710296690464019775390625" lon="-8.311835825443267822265625">
        <ele>180</ele>
        <time>2019-05-02T08:44:40.000Z</time>
      </trkpt>
      <trkpt lat="41.4582517929375171661376953125" lon="-8.3119214884936809539794921875">
        <ele>181</ele>
        <time>2019-05-02T08:44:50.000Z</time>
      </trkpt>
      <trkpt lat="41.45825137384235858917236328125" lon="-8.31193749792873859405517578125">
        <ele>181</ele>
        <time>2019-05-02T08:44:53.000Z</time>
      </trkpt>
      <trkpt lat="41.45823712460696697235107421875" lon="-8.31199072301387786865234375">
        <ele>181.1999969482421875</ele>
        <time>2019-05-02T08:44:59.000Z</time>
      </trkpt>
      <trkpt lat="41.45823846571147441864013671875" lon="-8.31201612018048763275146484375">
        <ele>181.399993896484375</ele>
        <time>2019-05-02T08:45:00.000Z</time>
      </trkpt>
      <trkpt lat="41.45825221203267574310302734375" lon="-8.31212349236011505126953125">
        <ele>182</ele>
        <time>2019-05-02T08:45:04.000Z</time>
      </trkpt>
      <trkpt lat="41.45834240131080150604248046875" lon="-8.31285079009830951690673828125">
        <ele>185.600006103515625</ele>
        <time>2019-05-02T08:45:28.000Z</time>
      </trkpt>
      <trkpt lat="41.45854239352047443389892578125" lon="-8.31352553330361843109130859375">
        <ele>186.600006103515625</ele>
        <time>2019-05-02T08:45:46.000Z</time>
      </trkpt>
      <trkpt lat="41.45856284536421298980712890625" lon="-8.31363298930227756500244140625">
        <ele>186.600006103515625</ele>
        <time>2019-05-02T08:45:48.000Z</time>
      </trkpt>
      <trkpt lat="41.458734758198261260986328125" lon="-8.3140384219586849212646484375">
        <ele>185.1999969482421875</ele>
        <time>2019-05-02T08:45:56.000Z</time>
      </trkpt>
      <trkpt lat="41.45906768739223480224609375" lon="-8.31462909467518329620361328125">
        <ele>182.600006103515625</ele>
        <time>2019-05-02T08:46:07.000Z</time>
      </trkpt>
      <trkpt lat="41.45925720222294330596923828125" lon="-8.31495833583176136016845703125">
        <ele>181.8000030517578125</ele>
        <time>2019-05-02T08:46:13.000Z</time>
      </trkpt>
      <trkpt lat="41.45974301733076572418212890625" lon="-8.31543962471187114715576171875">
        <ele>179.1999969482421875</ele>
        <time>2019-05-02T08:46:21.000Z</time>
      </trkpt>
      <trkpt lat="41.45996622741222381591796875" lon="-8.31567197106778621673583984375">
        <ele>177.600006103515625</ele>
        <time>2019-05-02T08:46:25.000Z</time>
      </trkpt>
      <trkpt lat="41.4600773714482784271240234375" lon="-8.31604898907244205474853515625">
        <ele>173.8000030517578125</ele>
        <time>2019-05-02T08:46:30.000Z</time>
      </trkpt>
      <trkpt lat="41.4602463506162166595458984375" lon="-8.3167898654937744140625">
        <ele>169.399993896484375</ele>
        <time>2019-05-02T08:46:40.000Z</time>
      </trkpt>
      <trkpt lat="41.46047609858214855194091796875" lon="-8.31748195923864841461181640625">
        <ele>169.8000030517578125</ele>
        <time>2019-05-02T08:46:54.000Z</time>
      </trkpt>
      <trkpt lat="41.46059780381619930267333984375" lon="-8.31772386096417903900146484375">
        <ele>169.1999969482421875</ele>
        <time>2019-05-02T08:46:59.000Z</time>
      </trkpt>
      <trkpt lat="41.46065647713840007781982421875" lon="-8.31787222065031528472900390625">
        <ele>167.399993896484375</ele>
        <time>2019-05-02T08:47:02.000Z</time>
      </trkpt>
      <trkpt lat="41.4606456644833087921142578125" lon="-8.31813574768602848052978515625">
        <ele>165.600006103515625</ele>
        <time>2019-05-02T08:47:06.000Z</time>
      </trkpt>
      <trkpt lat="41.46064189262688159942626953125" lon="-8.3183628134429454803466796875">
        <ele>164</ele>
        <time>2019-05-02T08:47:09.000Z</time>
      </trkpt>
      <trkpt lat="41.46083802916109561920166015625" lon="-8.31878081895411014556884765625">
        <ele>160.600006103515625</ele>
        <time>2019-05-02T08:47:14.000Z</time>
      </trkpt>
      <trkpt lat="41.4613044820725917816162109375" lon="-8.31929228268563747406005859375">
        <ele>157.399993896484375</ele>
        <time>2019-05-02T08:47:22.000Z</time>
      </trkpt>
      <trkpt lat="41.461557783186435699462890625" lon="-8.31956720910966396331787109375">
        <ele>157.399993896484375</ele>
        <time>2019-05-02T08:47:27.000Z</time>
      </trkpt>
      <trkpt lat="41.46170672960579395294189453125" lon="-8.319683969020843505859375">
        <ele>158</ele>
        <time>2019-05-02T08:47:30.000Z</time>
      </trkpt>
      <trkpt lat="41.46191175095736980438232421875" lon="-8.31990189850330352783203125">
        <ele>157.8000030517578125</ele>
        <time>2019-05-02T08:47:35.000Z</time>
      </trkpt>
      <trkpt lat="41.46193538792431354522705078125" lon="-8.3205260150134563446044921875">
        <ele>156</ele>
        <time>2019-05-02T08:47:43.000Z</time>
      </trkpt>
      <trkpt lat="41.46188199520111083984375" lon="-8.3208306133747100830078125">
        <ele>155.8000030517578125</ele>
        <time>2019-05-02T08:47:47.000Z</time>
      </trkpt>
      <trkpt lat="41.462168656289577484130859375" lon="-8.32144240848720073699951171875">
        <ele>153.8000030517578125</ele>
        <time>2019-05-02T08:47:55.000Z</time>
      </trkpt>
      <trkpt lat="41.4622224681079387664794921875" lon="-8.3215351961553096771240234375">
        <ele>153.600006103515625</ele>
        <time>2019-05-02T08:47:56.000Z</time>
      </trkpt>
      <trkpt lat="41.46233327686786651611328125" lon="-8.3222697861492633819580078125">
        <ele>150.1999969482421875</ele>
        <time>2019-05-02T08:48:03.000Z</time>
      </trkpt>
      <trkpt lat="41.46231978200376033782958984375" lon="-8.3223660103976726531982421875">
        <ele>149.600006103515625</ele>
        <time>2019-05-02T08:48:04.000Z</time>
      </trkpt>
      <trkpt lat="41.4622684009373188018798828125" lon="-8.32272500731050968170166015625">
        <ele>147.8000030517578125</ele>
        <time>2019-05-02T08:48:08.000Z</time>
      </trkpt>
      <trkpt lat="41.46223830990493297576904296875" lon="-8.3230425976216793060302734375">
        <ele>148</ele>
        <time>2019-05-02T08:48:12.000Z</time>
      </trkpt>
      <trkpt lat="41.46217410452663898468017578125" lon="-8.3232953958213329315185546875">
        <ele>148</ele>
        <time>2019-05-02T08:48:16.000Z</time>
      </trkpt>
      <trkpt lat="41.46205709315836429595947265625" lon="-8.32402939908206462860107421875">
        <ele>148.399993896484375</ele>
        <time>2019-05-02T08:48:30.000Z</time>
      </trkpt>
      <trkpt lat="41.46191074512898921966552734375" lon="-8.32476968877017498016357421875">
        <ele>148.399993896484375</ele>
        <time>2019-05-02T08:48:44.000Z</time>
      </trkpt>
      <trkpt lat="41.4618667401373386383056640625" lon="-8.3249446190893650054931640625">
        <ele>147.600006103515625</ele>
        <time>2019-05-02T08:48:47.000Z</time>
      </trkpt>
      <trkpt lat="41.46182474680244922637939453125" lon="-8.32517243921756744384765625">
        <ele>146.8000030517578125</ele>
        <time>2019-05-02T08:48:51.000Z</time>
      </trkpt>
      <trkpt lat="41.46182642318308353424072265625" lon="-8.32594650797545909881591796875">
        <ele>147</ele>
        <time>2019-05-02T08:49:02.000Z</time>
      </trkpt>
      <trkpt lat="41.461868584156036376953125" lon="-8.3266696147620677947998046875">
        <ele>147.600006103515625</ele>
        <time>2019-05-02T08:49:13.000Z</time>
      </trkpt>
      <trkpt lat="41.46195533685386180877685546875" lon="-8.3270742930471897125244140625">
        <ele>145.1999969482421875</ele>
        <time>2019-05-02T08:49:19.000Z</time>
      </trkpt>
      <trkpt lat="41.462246440351009368896484375" lon="-8.3272711001336574554443359375">
        <ele>144.399993896484375</ele>
        <time>2019-05-02T08:49:24.000Z</time>
      </trkpt>
      <trkpt lat="41.46265237592160701751708984375" lon="-8.32748978398740291595458984375">
        <ele>144.600006103515625</ele>
        <time>2019-05-02T08:49:31.000Z</time>
      </trkpt>
      <trkpt lat="41.4631877280771732330322265625" lon="-8.327804021537303924560546875">
        <ele>143.8000030517578125</ele>
        <time>2019-05-02T08:49:43.000Z</time>
      </trkpt>
      <trkpt lat="41.4632681943476200103759765625" lon="-8.32787686027586460113525390625">
        <ele>144</ele>
        <time>2019-05-02T08:49:45.000Z</time>
      </trkpt>
      <trkpt lat="41.4636024646461009979248046875" lon="-8.328508436679840087890625">
        <ele>144.1999969482421875</ele>
        <time>2019-05-02T08:49:57.000Z</time>
      </trkpt>
      <trkpt lat="41.46377286873757839202880859375" lon="-8.329120315611362457275390625">
        <ele>145</ele>
        <time>2019-05-02T08:50:07.000Z</time>
      </trkpt>
      <trkpt lat="41.46407361142337322235107421875" lon="-8.3297280035912990570068359375">
        <ele>145.399993896484375</ele>
        <time>2019-05-02T08:50:19.000Z</time>
      </trkpt>
      <trkpt lat="41.46438240073621273040771484375" lon="-8.330340720713138580322265625">
        <ele>145.8000030517578125</ele>
        <time>2019-05-02T08:50:33.000Z</time>
      </trkpt>
      <trkpt lat="41.46475321613252162933349609375" lon="-8.33093642257153987884521484375">
        <ele>145.1999969482421875</ele>
        <time>2019-05-02T08:50:46.000Z</time>
      </trkpt>
      <trkpt lat="41.46477769128978252410888671875" lon="-8.33099006675183773040771484375">
        <ele>145.1999969482421875</ele>
        <time>2019-05-02T08:50:47.000Z</time>
      </trkpt>
      <trkpt lat="41.4648600853979587554931640625" lon="-8.33113155327737331390380859375">
        <ele>144.8000030517578125</ele>
        <time>2019-05-02T08:50:50.000Z</time>
      </trkpt>
      <trkpt lat="41.4652486704289913177490234375" lon="-8.33144285716116428375244140625">
        <ele>142.600006103515625</ele>
        <time>2019-05-02T08:51:01.000Z</time>
      </trkpt>
      <trkpt lat="41.46574010141193866729736328125" lon="-8.3318090625107288360595703125">
        <ele>142.399993896484375</ele>
        <time>2019-05-02T08:51:12.000Z</time>
      </trkpt>
      <trkpt lat="41.4662078954279422760009765625" lon="-8.3323401398956775665283203125">
        <ele>138.399993896484375</ele>
        <time>2019-05-02T08:51:20.000Z</time>
      </trkpt>
      <trkpt lat="41.4666165970265865325927734375" lon="-8.33286367356777191162109375">
        <ele>134.600006103515625</ele>
        <time>2019-05-02T08:51:26.000Z</time>
      </trkpt>
      <trkpt lat="41.4670370332896709442138671875" lon="-8.33337689749896526336669921875">
        <ele>132</ele>
        <time>2019-05-02T08:51:32.000Z</time>
      </trkpt>
      <trkpt lat="41.46751128137111663818359375" lon="-8.33389154635369777679443359375">
        <ele>129.1999969482421875</ele>
        <time>2019-05-02T08:51:39.000Z</time>
      </trkpt>
      <trkpt lat="41.46763273514807224273681640625" lon="-8.33401492796838283538818359375">
        <ele>128.1999969482421875</ele>
        <time>2019-05-02T08:51:41.000Z</time>
      </trkpt>
      <trkpt lat="41.46805769763886928558349609375" lon="-8.3345056883990764617919921875">
        <ele>128.1999969482421875</ele>
        <time>2019-05-02T08:51:49.000Z</time>
      </trkpt>
      <trkpt lat="41.46836631931364536285400390625" lon="-8.3347501046955585479736328125">
        <ele>128.8000030517578125</ele>
        <time>2019-05-02T08:51:55.000Z</time>
      </trkpt>
      <trkpt lat="41.4685719273984432220458984375" lon="-8.33508831448853015899658203125">
        <ele>128</ele>
        <time>2019-05-02T08:52:01.000Z</time>
      </trkpt>
      <trkpt lat="41.46889127790927886962890625" lon="-8.335683010518550872802734375">
        <ele>126</ele>
        <time>2019-05-02T08:52:12.000Z</time>
      </trkpt>
      <trkpt lat="41.469220854341983795166015625" lon="-8.33613789640367031097412109375">
        <ele>123.59999847412109375</ele>
        <time>2019-05-02T08:52:21.000Z</time>
      </trkpt>
      <trkpt lat="41.46945697255432605743408203125" lon="-8.33630100823938846588134765625">
        <ele>121.1999969482421875</ele>
        <time>2019-05-02T08:52:28.000Z</time>
      </trkpt>
      <trkpt lat="41.46960751153528690338134765625" lon="-8.33642304874956607818603515625">
        <ele>120.40000152587890625</ele>
        <time>2019-05-02T08:52:35.000Z</time>
      </trkpt>
      <trkpt lat="41.469733826816082000732421875" lon="-8.3366018347442150115966796875">
        <ele>119.8000030517578125</ele>
        <time>2019-05-02T08:52:42.000Z</time>
      </trkpt>
      <trkpt lat="41.46982074715197086334228515625" lon="-8.3366112224757671356201171875">
        <ele>119.40000152587890625</ele>
        <time>2019-05-02T08:52:46.000Z</time>
      </trkpt>
      <trkpt lat="41.47004269994795322418212890625" lon="-8.33659538067877292633056640625">
        <ele>119</ele>
        <time>2019-05-02T08:52:55.000Z</time>
      </trkpt>
      <trkpt lat="41.4701091684401035308837890625" lon="-8.33661474287509918212890625">
        <ele>119.1999969482421875</ele>
        <time>2019-05-02T08:52:57.000Z</time>
      </trkpt>
      <trkpt lat="41.470164321362972259521484375" lon="-8.33663209341466426849365234375">
        <ele>119.40000152587890625</ele>
        <time>2019-05-02T08:53:01.000Z</time>
      </trkpt>
      <trkpt lat="41.4702975936233997344970703125" lon="-8.33662823773920536041259765625">
        <ele>119.59999847412109375</ele>
        <time>2019-05-02T08:53:22.000Z</time>
      </trkpt>
      <trkpt lat="41.47053220309317111968994140625" lon="-8.336747847497463226318359375">
        <ele>120.59999847412109375</ele>
        <time>2019-05-02T08:53:31.000Z</time>
      </trkpt>
      <trkpt lat="41.47053019143640995025634765625" lon="-8.3367468416690826416015625">
        <ele>120.59999847412109375</ele>
        <time>2019-05-02T08:53:32.000Z</time>
      </trkpt>
      <trkpt lat="41.4707696624100208282470703125" lon="-8.3371518552303314208984375">
        <ele>124</ele>
        <time>2019-05-02T08:55:52.000Z</time>
      </trkpt>
      <trkpt lat="41.47095833905041217803955078125" lon="-8.3374024741351604461669921875">
        <ele>126.8000030517578125</ele>
        <time>2019-05-02T08:56:14.000Z</time>
      </trkpt>
      <trkpt lat="41.47097803652286529541015625" lon="-8.33745134063065052032470703125">
        <ele>127</ele>
        <time>2019-05-02T08:56:44.000Z</time>
      </trkpt>
      <trkpt lat="41.471005864441394805908203125" lon="-8.3375273644924163818359375">
        <ele>127.40000152587890625</ele>
        <time>2019-05-02T08:56:49.000Z</time>
      </trkpt>
      <trkpt lat="41.47101399488747119903564453125" lon="-8.33754555322229862213134765625">
        <ele>127.40000152587890625</ele>
        <time>2019-05-02T08:56:52.000Z</time>
      </trkpt>
      <trkpt lat="41.4710348658263683319091796875" lon="-8.337593413889408111572265625">
        <ele>127.59999847412109375</ele>
        <time>2019-05-02T08:56:59.000Z</time>
      </trkpt>
      <trkpt lat="41.47106789052486419677734375" lon="-8.33762886933982372283935546875">
        <ele>128</ele>
        <time>2019-05-02T08:57:02.000Z</time>
      </trkpt>
      <trkpt lat="41.4711890928447246551513671875" lon="-8.33765988238155841827392578125">
        <ele>128.600006103515625</ele>
        <time>2019-05-02T08:57:08.000Z</time>
      </trkpt>
      <trkpt lat="41.4713729918003082275390625" lon="-8.337838836014270782470703125">
        <ele>130.399993896484375</ele>
        <time>2019-05-02T08:57:19.000Z</time>
      </trkpt>
      <trkpt lat="41.4714123867452144622802734375" lon="-8.33792793564498424530029296875">
        <ele>130.600006103515625</ele>
        <time>2019-05-02T08:57:23.000Z</time>
      </trkpt>
      <trkpt lat="41.47141682915389537811279296875" lon="-8.33797085098922252655029296875">
        <ele>130.8000030517578125</ele>
        <time>2019-05-02T08:57:27.000Z</time>
      </trkpt>
      <trkpt lat="41.4714184217154979705810546875" lon="-8.33796950988471508026123046875">
        <ele>130.8000030517578125</ele>
        <time>2019-05-02T08:57:29.000Z</time>
      </trkpt>
      <trkpt lat="41.47140827961266040802001953125" lon="-8.33793598227202892303466796875">
        <ele>130.600006103515625</ele>
        <time>2019-05-02T08:58:28.000Z</time>
      </trkpt>
      <trkpt lat="41.47139403037726879119873046875" lon="-8.337764404714107513427734375">
        <ele>130.1999969482421875</ele>
        <time>2019-05-02T08:58:34.000Z</time>
      </trkpt>
      <trkpt lat="41.471449099481105804443359375" lon="-8.33769357763230800628662109375">
        <ele>130</ele>
        <time>2019-05-02T08:58:38.000Z</time>
      </trkpt>
      <trkpt lat="41.47145002149045467376708984375" lon="-8.33769257180392742156982421875">
        <ele>130</ele>
        <time>2019-05-02T08:58:40.000Z</time>
      </trkpt>
      <trkpt lat="41.471463181078433990478515625" lon="-8.3376512490212917327880859375">
        <ele>130</ele>
        <time>2019-05-02T09:00:06.000Z</time>
      </trkpt>
      <trkpt lat="41.47194924764335155487060546875" lon="-8.3373773284256458282470703125">
        <ele>131.8000030517578125</ele>
        <time>2019-05-02T09:00:23.000Z</time>
      </trkpt>
      <trkpt lat="41.47248300723731517791748046875" lon="-8.3374227583408355712890625">
        <ele>135.1999969482421875</ele>
        <time>2019-05-02T09:00:38.000Z</time>
      </trkpt>
      <trkpt lat="41.47282247431576251983642578125" lon="-8.3379124291241168975830078125">
        <ele>137</ele>
        <time>2019-05-02T09:00:55.000Z</time>
      </trkpt>
      <trkpt lat="41.4730297587811946868896484375" lon="-8.3385548181831836700439453125">
        <ele>137.1999969482421875</ele>
        <time>2019-05-02T09:01:11.000Z</time>
      </trkpt>
      <trkpt lat="41.47341884672641754150390625" lon="-8.339058570563793182373046875">
        <ele>141.399993896484375</ele>
        <time>2019-05-02T09:01:27.000Z</time>
      </trkpt>
      <trkpt lat="41.473828218877315521240234375" lon="-8.3395546115934848785400390625">
        <ele>144</ele>
        <time>2019-05-02T09:01:43.000Z</time>
      </trkpt>
      <trkpt lat="41.47421219386160373687744140625" lon="-8.339966833591461181640625">
        <ele>148.399993896484375</ele>
        <time>2019-05-02T09:01:54.000Z</time>
      </trkpt>
      <trkpt lat="41.47474125958979129791259765625" lon="-8.34032432176172733306884765625">
        <ele>145.399993896484375</ele>
        <time>2019-05-02T09:02:04.000Z</time>
      </trkpt>
      <trkpt lat="41.47528566420078277587890625" lon="-8.3406197838485240936279296875">
        <ele>142.8000030517578125</ele>
        <time>2019-05-02T09:02:13.000Z</time>
      </trkpt>
      <trkpt lat="41.47580106742680072784423828125" lon="-8.3409600891172885894775390625">
        <ele>141.399993896484375</ele>
        <time>2019-05-02T09:02:23.000Z</time>
      </trkpt>
      <trkpt lat="41.47573602385818958282470703125" lon="-8.3412504382431507110595703125">
        <ele>141.8000030517578125</ele>
        <time>2019-05-02T09:02:28.000Z</time>
      </trkpt>
      <trkpt lat="41.47560476325452327728271484375" lon="-8.3416204154491424560546875">
        <ele>142.399993896484375</ele>
        <time>2019-05-02T09:02:33.000Z</time>
      </trkpt>
      <trkpt lat="41.4755087904632091522216796875" lon="-8.34197857417166233062744140625">
        <ele>142.600006103515625</ele>
        <time>2019-05-02T09:02:37.000Z</time>
      </trkpt>
      <trkpt lat="41.47541977465152740478515625" lon="-8.34225534461438655853271484375">
        <ele>142.600006103515625</ele>
        <time>2019-05-02T09:02:40.000Z</time>
      </trkpt>
      <trkpt lat="41.47534660063683986663818359375" lon="-8.3425395749509334564208984375">
        <ele>142.8000030517578125</ele>
        <time>2019-05-02T09:02:43.000Z</time>
      </trkpt>
      <trkpt lat="41.47535045631229877471923828125" lon="-8.343260921537876129150390625">
        <ele>144</ele>
        <time>2019-05-02T09:02:51.000Z</time>
      </trkpt>
      <trkpt lat="41.4754011668264865875244140625" lon="-8.34352738223969936370849609375">
        <ele>143.600006103515625</ele>
        <time>2019-05-02T09:02:55.000Z</time>
      </trkpt>
      <trkpt lat="41.4755666255950927734375" lon="-8.34422626532614231109619140625">
        <ele>142.600006103515625</ele>
        <time>2019-05-02T09:03:06.000Z</time>
      </trkpt>
      <trkpt lat="41.47565404884517192840576171875" lon="-8.34497594274580478668212890625">
        <ele>141.1999969482421875</ele>
        <time>2019-05-02T09:03:16.000Z</time>
      </trkpt>
      <trkpt lat="41.475735269486904144287109375" lon="-8.34523360244929790496826171875">
        <ele>140.1999969482421875</ele>
        <time>2019-05-02T09:03:20.000Z</time>
      </trkpt>
      <trkpt lat="41.47598345763981342315673828125" lon="-8.3458282984793186187744140625">
        <ele>136.1999969482421875</ele>
        <time>2019-05-02T09:03:28.000Z</time>
      </trkpt>
      <trkpt lat="41.4760874770581722259521484375" lon="-8.34619433619081974029541015625">
        <ele>134.600006103515625</ele>
        <time>2019-05-02T09:03:33.000Z</time>
      </trkpt>
      <trkpt lat="41.47607297636568546295166015625" lon="-8.34628620184957981109619140625">
        <ele>134.399993896484375</ele>
        <time>2019-05-02T09:03:37.000Z</time>
      </trkpt>
      <trkpt lat="41.47607247345149517059326171875" lon="-8.3462836034595966339111328125">
        <ele>134.399993896484375</ele>
        <time>2019-05-02T09:03:39.000Z</time>
      </trkpt>
      <trkpt lat="41.476088650524616241455078125" lon="-8.34620640613138675689697265625">
        <ele>134.600006103515625</ele>
        <time>2019-05-02T09:03:43.000Z</time>
      </trkpt>
      <trkpt lat="41.4763699471950531005859375" lon="-8.34649440832436084747314453125">
        <ele>132.600006103515625</ele>
        <time>2019-05-02T09:03:52.000Z</time>
      </trkpt>
      <trkpt lat="41.47644747979938983917236328125" lon="-8.346616365015506744384765625">
        <ele>131.8000030517578125</ele>
        <time>2019-05-02T09:03:54.000Z</time>
      </trkpt>
      <trkpt lat="41.47685819305479526519775390625" lon="-8.3471824787557125091552734375">
        <ele>131</ele>
        <time>2019-05-02T09:04:04.000Z</time>
      </trkpt>
      <trkpt lat="41.47693212144076824188232421875" lon="-8.34728817455470561981201171875">
        <ele>130.600006103515625</ele>
        <time>2019-05-02T09:04:06.000Z</time>
      </trkpt>
      <trkpt lat="41.47705332376062870025634765625" lon="-8.34741725586354732513427734375">
        <ele>129.600006103515625</ele>
        <time>2019-05-02T09:04:09.000Z</time>
      </trkpt>
      <trkpt lat="41.47715223021805286407470703125" lon="-8.34765546955168247222900390625">
        <ele>128.1999969482421875</ele>
        <time>2019-05-02T09:04:13.000Z</time>
      </trkpt>
      <trkpt lat="41.4771912060678005218505859375" lon="-8.34770441986620426177978515625">
        <ele>128</ele>
        <time>2019-05-02T09:04:14.000Z</time>
      </trkpt>
      <trkpt lat="41.47747434675693511962890625" lon="-8.34831898100674152374267578125">
        <ele>125.8000030517578125</ele>
        <time>2019-05-02T09:04:24.000Z</time>
      </trkpt>
      <trkpt lat="41.47756076417863368988037109375" lon="-8.3485111780464649200439453125">
        <ele>122.8000030517578125</ele>
        <time>2019-05-02T09:04:27.000Z</time>
      </trkpt>
      <trkpt lat="41.47770660929381847381591796875" lon="-8.348843269050121307373046875">
        <ele>116.59999847412109375</ele>
        <time>2019-05-02T09:04:32.000Z</time>
      </trkpt>
      <trkpt lat="41.477909199893474578857421875" lon="-8.34950351156294345855712890625">
        <ele>113.59999847412109375</ele>
        <time>2019-05-02T09:04:48.000Z</time>
      </trkpt>
      <trkpt lat="41.4779553003609180450439453125" lon="-8.34960543550550937652587890625">
        <ele>113</ele>
        <time>2019-05-02T09:04:50.000Z</time>
      </trkpt>
      <trkpt lat="41.47821991704404354095458984375" lon="-8.3493624441325664520263671875">
        <ele>112.59999847412109375</ele>
        <time>2019-05-02T09:05:01.000Z</time>
      </trkpt>
      <trkpt lat="41.47824757732450962066650390625" lon="-8.34931961260735988616943359375">
        <ele>112.59999847412109375</ele>
        <time>2019-05-02T09:05:02.000Z</time>
      </trkpt>
      <trkpt lat="41.478296779096126556396484375" lon="-8.349227495491504669189453125">
        <ele>112.59999847412109375</ele>
        <time>2019-05-02T09:05:04.000Z</time>
      </trkpt>
      <trkpt lat="41.478592492640018463134765625" lon="-8.3487163670361042022705078125">
        <ele>111.40000152587890625</ele>
        <time>2019-05-02T09:05:20.000Z</time>
      </trkpt>
      <trkpt lat="41.47863465361297130584716796875" lon="-8.34881267510354518890380859375">
        <ele>111.40000152587890625</ele>
        <time>2019-05-02T09:07:23.000Z</time>
      </trkpt>
      <trkpt lat="41.47864110767841339111328125" lon="-8.3488068915903568267822265625">
        <ele>111.1999969482421875</ele>
        <time>2019-05-02T09:07:26.000Z</time>
      </trkpt>
      <trkpt lat="41.47866331972181797027587890625" lon="-8.34854227490723133087158203125">
        <ele>111.1999969482421875</ele>
        <time>2019-05-02T09:07:45.000Z</time>
      </trkpt>
      <trkpt lat="41.478689722716808319091796875" lon="-8.3485011197626590728759765625">
        <ele>111.1999969482421875</ele>
        <time>2019-05-02T09:07:51.000Z</time>
      </trkpt>
      <trkpt lat="41.47891477681696414947509765625" lon="-8.34836684167385101318359375">
        <ele>110.59999847412109375</ele>
        <time>2019-05-02T09:09:23.000Z</time>
      </trkpt>
      <trkpt lat="41.479466222226619720458984375" lon="-8.3481953479349613189697265625">
        <ele>110.1999969482421875</ele>
        <time>2019-05-02T09:09:41.000Z</time>
      </trkpt>
      <trkpt lat="41.47998355329036712646484375" lon="-8.348072804510593414306640625">
        <ele>111.1999969482421875</ele>
        <time>2019-05-02T09:09:55.000Z</time>
      </trkpt>
      <trkpt lat="41.4802210964262485504150390625" lon="-8.34795218892395496368408203125">
        <ele>110.8000030517578125</ele>
        <time>2019-05-02T09:10:01.000Z</time>
      </trkpt>
      <trkpt lat="41.48035059683024883270263671875" lon="-8.347810618579387664794921875">
        <ele>109.8000030517578125</ele>
        <time>2019-05-02T09:10:05.000Z</time>
      </trkpt>
      <trkpt lat="41.480405330657958984375" lon="-8.34772713482379913330078125">
        <ele>109.40000152587890625</ele>
        <time>2019-05-02T09:10:07.000Z</time>
      </trkpt>
      <trkpt lat="41.4805785007774829864501953125" lon="-8.34740183316171169281005859375">
        <ele>109.8000030517578125</ele>
        <time>2019-05-02T09:10:14.000Z</time>
      </trkpt>
      <trkpt lat="41.48062803782522678375244140625" lon="-8.34731097333133220672607421875">
        <ele>110.1999969482421875</ele>
        <time>2019-05-02T09:10:16.000Z</time>
      </trkpt>
      <trkpt lat="41.48083238862454891204833984375" lon="-8.34702439606189727783203125">
        <ele>110.8000030517578125</ele>
        <time>2019-05-02T09:10:27.000Z</time>
      </trkpt>
      <trkpt lat="41.4808453805744647979736328125" lon="-8.3469982445240020751953125">
        <ele>110.8000030517578125</ele>
        <time>2019-05-02T09:12:24.000Z</time>
      </trkpt>
      <trkpt lat="41.48084797896444797515869140625" lon="-8.34691710770130157470703125">
        <ele>111.1999969482421875</ele>
        <time>2019-05-02T09:12:28.000Z</time>
      </trkpt>
      <trkpt lat="41.48085099644958972930908203125" lon="-8.34689590148627758026123046875">
        <ele>111.1999969482421875</ele>
        <time>2019-05-02T09:12:29.000Z</time>
      </trkpt>
      <trkpt lat="41.4808867871761322021484375" lon="-8.3467161096632480621337890625">
        <ele>111.40000152587890625</ele>
        <time>2019-05-02T09:12:34.000Z</time>
      </trkpt>
      <trkpt lat="41.481079570949077606201171875" lon="-8.34598772227764129638671875">
        <ele>111.40000152587890625</ele>
        <time>2019-05-02T09:12:48.000Z</time>
      </trkpt>
      <trkpt lat="41.48127394728362560272216796875" lon="-8.34555781446397304534912109375">
        <ele>112.40000152587890625</ele>
        <time>2019-05-02T09:12:56.000Z</time>
      </trkpt>
      <trkpt lat="41.48135391063988208770751953125" lon="-8.34534223191440105438232421875">
        <ele>112.8000030517578125</ele>
        <time>2019-05-02T09:13:00.000Z</time>
      </trkpt>
      <trkpt lat="41.4814160205423831939697265625" lon="-8.34515347145497798919677734375">
        <ele>113</ele>
        <time>2019-05-02T09:13:06.000Z</time>
      </trkpt>
      <trkpt lat="41.481421887874603271484375" lon="-8.3451144956052303314208984375">
        <ele>113</ele>
        <time>2019-05-02T09:14:08.000Z</time>
      </trkpt>
      <trkpt lat="41.48161089979112148284912109375" lon="-8.34460412152111530303955078125">
        <ele>112.40000152587890625</ele>
        <time>2019-05-02T09:14:26.000Z</time>
      </trkpt>
      <trkpt lat="41.48163436912000179290771484375" lon="-8.34461870603263378143310546875">
        <ele>112.40000152587890625</ele>
        <time>2019-05-02T09:15:54.000Z</time>
      </trkpt>
      <trkpt lat="41.482105515897274017333984375" lon="-8.3449894376099109649658203125">
        <ele>111.8000030517578125</ele>
        <time>2019-05-02T09:16:09.000Z</time>
      </trkpt>
      <trkpt lat="41.48221959359943866729736328125" lon="-8.34507233463227748870849609375">
        <ele>111.40000152587890625</ele>
        <time>2019-05-02T09:16:13.000Z</time>
      </trkpt>
      <trkpt lat="41.48269736208021640777587890625" lon="-8.345461003482341766357421875">
        <ele>116.59999847412109375</ele>
        <time>2019-05-02T09:16:38.000Z</time>
      </trkpt>
      <trkpt lat="41.48318032734096050262451171875" lon="-8.34575545974075794219970703125">
        <ele>123.59999847412109375</ele>
        <time>2019-05-02T09:17:02.000Z</time>
      </trkpt>
      <trkpt lat="41.48357846774160861968994140625" lon="-8.3460817672312259674072265625">
        <ele>126.1999969482421875</ele>
        <time>2019-05-02T09:17:32.000Z</time>
      </trkpt>
      <trkpt lat="41.4836174435913562774658203125" lon="-8.34611713886260986328125">
        <ele>126.59999847412109375</ele>
        <time>2019-05-02T09:17:36.000Z</time>
      </trkpt>
      <trkpt lat="41.48373252712190151214599609375" lon="-8.3461927436292171478271484375">
        <ele>127.1999969482421875</ele>
        <time>2019-05-02T09:17:46.000Z</time>
      </trkpt>
      <trkpt lat="41.48375515826046466827392578125" lon="-8.3462051488459110260009765625">
        <ele>127.40000152587890625</ele>
        <time>2019-05-02T09:17:54.000Z</time>
      </trkpt>
      <trkpt lat="41.48377074860036373138427734375" lon="-8.3462123572826385498046875">
        <ele>127.59999847412109375</ele>
        <time>2019-05-02T09:17:55.000Z</time>
      </trkpt>
      <trkpt lat="41.4838640391826629638671875" lon="-8.34625468589365482330322265625">
        <ele>128.600006103515625</ele>
        <time>2019-05-02T09:17:59.000Z</time>
      </trkpt>
      <trkpt lat="41.48433635942637920379638671875" lon="-8.34668375551700592041015625">
        <ele>132.1999969482421875</ele>
        <time>2019-05-02T09:18:17.000Z</time>
      </trkpt>
      <trkpt lat="41.4844284765422344207763671875" lon="-8.3467134274542331695556640625">
        <ele>132.1999969482421875</ele>
        <time>2019-05-02T09:18:20.000Z</time>
      </trkpt>
      <trkpt lat="41.48490599356591701507568359375" lon="-8.34713595919311046600341796875">
        <ele>132</ele>
        <time>2019-05-02T09:18:36.000Z</time>
      </trkpt>
      <trkpt lat="41.485385186970233917236328125" lon="-8.34750560112297534942626953125">
        <ele>130.399993896484375</ele>
        <time>2019-05-02T09:18:51.000Z</time>
      </trkpt>
      <trkpt lat="41.48567947559058666229248046875" lon="-8.347770385444164276123046875">
        <ele>128.8000030517578125</ele>
        <time>2019-05-02T09:19:02.000Z</time>
      </trkpt>
      <trkpt lat="41.48576078005135059356689453125" lon="-8.34811513312160968780517578125">
        <ele>128</ele>
        <time>2019-05-02T09:19:08.000Z</time>
      </trkpt>
      <trkpt lat="41.4860632829368114471435546875" lon="-8.34871259517967700958251953125">
        <ele>127</ele>
        <time>2019-05-02T09:19:20.000Z</time>
      </trkpt>
      <trkpt lat="41.486116088926792144775390625" lon="-8.3488501422107219696044921875">
        <ele>127</ele>
        <time>2019-05-02T09:19:23.000Z</time>
      </trkpt>
      <trkpt lat="41.48649352602660655975341796875" lon="-8.34939756430685520172119140625">
        <ele>128.600006103515625</ele>
        <time>2019-05-02T09:19:39.000Z</time>
      </trkpt>
      <trkpt lat="41.48682310245931148529052734375" lon="-8.3500081859529018402099609375">
        <ele>133</ele>
        <time>2019-05-02T09:19:59.000Z</time>
      </trkpt>
      <trkpt lat="41.4872692711651325225830078125" lon="-8.3504390157759189605712890625">
        <ele>135.1999969482421875</ele>
        <time>2019-05-02T09:20:17.000Z</time>
      </trkpt>
      <trkpt lat="41.48753187619149684906005859375" lon="-8.350791893899440765380859375">
        <ele>135</ele>
        <time>2019-05-02T09:20:33.000Z</time>
      </trkpt>
      <trkpt lat="41.48755869828164577484130859375" lon="-8.350800611078739166259765625">
        <ele>135</ele>
        <time>2019-05-02T09:20:50.000Z</time>
      </trkpt>
      <trkpt lat="41.48759021423757076263427734375" lon="-8.35084947757422924041748046875">
        <ele>134.8000030517578125</ele>
        <time>2019-05-02T09:20:52.000Z</time>
      </trkpt>
      <trkpt lat="41.48798148147761821746826171875" lon="-8.35134141147136688232421875">
        <ele>135.8000030517578125</ele>
        <time>2019-05-02T09:21:10.000Z</time>
      </trkpt>
      <trkpt lat="41.4884330146014690399169921875" lon="-8.3517551422119140625">
        <ele>140</ele>
        <time>2019-05-02T09:21:33.000Z</time>
      </trkpt>
      <trkpt lat="41.488922350108623504638671875" lon="-8.3521267957985401153564453125">
        <ele>142.399993896484375</ele>
        <time>2019-05-02T09:21:56.000Z</time>
      </trkpt>
      <trkpt lat="41.48940774612128734588623046875" lon="-8.3524523489177227020263671875">
        <ele>146.1999969482421875</ele>
        <time>2019-05-02T09:22:17.000Z</time>
      </trkpt>
      <trkpt lat="41.4899384044110774993896484375" lon="-8.352643288671970367431640625">
        <ele>149.1999969482421875</ele>
        <time>2019-05-02T09:22:38.000Z</time>
      </trkpt>
      <trkpt lat="41.4904689788818359375" lon="-8.3525120280683040618896484375">
        <ele>149.600006103515625</ele>
        <time>2019-05-02T09:22:57.000Z</time>
      </trkpt>
      <trkpt lat="41.4910443127155303955078125" lon="-8.35240230895578861236572265625">
        <ele>151</ele>
        <time>2019-05-02T09:23:12.000Z</time>
      </trkpt>
      <trkpt lat="41.49159525521099567413330078125" lon="-8.35228663869202136993408203125">
        <ele>152</ele>
        <time>2019-05-02T09:23:26.000Z</time>
      </trkpt>
      <trkpt lat="41.491871438920497894287109375" lon="-8.35221203975379467010498046875">
        <ele>152</ele>
        <time>2019-05-02T09:23:33.000Z</time>
      </trkpt>
      <trkpt lat="41.4922752790153026580810546875" lon="-8.35218035615980625152587890625">
        <ele>150.8000030517578125</ele>
        <time>2019-05-02T09:23:43.000Z</time>
      </trkpt>
      <trkpt lat="41.4927574060857295989990234375" lon="-8.35254262201488018035888671875">
        <ele>148</ele>
        <time>2019-05-02T09:23:52.000Z</time>
      </trkpt>
      <trkpt lat="41.493257470428943634033203125" lon="-8.35288879461586475372314453125">
        <ele>146.399993896484375</ele>
        <time>2019-05-02T09:24:00.000Z</time>
      </trkpt>
      <trkpt lat="41.49376164190471172332763671875" lon="-8.3532531559467315673828125">
        <ele>147</ele>
        <time>2019-05-02T09:24:10.000Z</time>
      </trkpt>
      <trkpt lat="41.49430026300251483917236328125" lon="-8.35351207293570041656494140625">
        <ele>147.8000030517578125</ele>
        <time>2019-05-02T09:24:23.000Z</time>
      </trkpt>
      <trkpt lat="41.49484299123287200927734375" lon="-8.35377912037074565887451171875">
        <ele>149.399993896484375</ele>
        <time>2019-05-02T09:24:37.000Z</time>
      </trkpt>
      <trkpt lat="41.49531262926757335662841796875" lon="-8.35414255969226360321044921875">
        <ele>150.399993896484375</ele>
        <time>2019-05-02T09:24:48.000Z</time>
      </trkpt>
      <trkpt lat="41.49570741690695285797119140625" lon="-8.35466357879340648651123046875">
        <ele>150</ele>
        <time>2019-05-02T09:24:58.000Z</time>
      </trkpt>
      <trkpt lat="41.49609784595668315887451171875" lon="-8.35521175526082515716552734375">
        <ele>149.8000030517578125</ele>
        <time>2019-05-02T09:25:09.000Z</time>
      </trkpt>
      <trkpt lat="41.4961299486458301544189453125" lon="-8.35526606999337673187255859375">
        <ele>149.1999969482421875</ele>
        <time>2019-05-02T09:25:10.000Z</time>
      </trkpt>
      <trkpt lat="41.49628710933029651641845703125" lon="-8.3556455187499523162841796875">
        <ele>146</ele>
        <time>2019-05-02T09:25:16.000Z</time>
      </trkpt>
      <trkpt lat="41.49652297608554363250732421875" lon="-8.35583050735294818878173828125">
        <ele>145.1999969482421875</ele>
        <time>2019-05-02T09:25:20.000Z</time>
      </trkpt>
      <trkpt lat="41.49703578092157840728759765625" lon="-8.35621439851820468902587890625">
        <ele>144.1999969482421875</ele>
        <time>2019-05-02T09:25:27.000Z</time>
      </trkpt>
      <trkpt lat="41.4973550476133823394775390625" lon="-8.35669384337961673736572265625">
        <ele>143.600006103515625</ele>
        <time>2019-05-02T09:25:33.000Z</time>
      </trkpt>
      <trkpt lat="41.4974252879619598388671875" lon="-8.356872461736202239990234375">
        <ele>142.8000030517578125</ele>
        <time>2019-05-02T09:25:35.000Z</time>
      </trkpt>
      <trkpt lat="41.4976256154477596282958984375" lon="-8.3574778027832508087158203125">
        <ele>140.399993896484375</ele>
        <time>2019-05-02T09:25:42.000Z</time>
      </trkpt>
      <trkpt lat="41.4976531080901622772216796875" lon="-8.3578948862850666046142578125">
        <ele>139.1999969482421875</ele>
        <time>2019-05-02T09:25:47.000Z</time>
      </trkpt>
      <trkpt lat="41.4976722188293933868408203125" lon="-8.358133770525455474853515625">
        <ele>138.399993896484375</ele>
        <time>2019-05-02T09:25:50.000Z</time>
      </trkpt>
      <trkpt lat="41.4977235160768032073974609375" lon="-8.35844666697084903717041015625">
        <ele>138</ele>
        <time>2019-05-02T09:25:54.000Z</time>
      </trkpt>
      <trkpt lat="41.49775729514658451080322265625" lon="-8.35866141133010387420654296875">
        <ele>138</ele>
        <time>2019-05-02T09:25:58.000Z</time>
      </trkpt>
      <trkpt lat="41.49778495542705059051513671875" lon="-8.35870097391307353973388671875">
        <ele>138.1999969482421875</ele>
        <time>2019-05-02T09:26:00.000Z</time>
      </trkpt>
      <trkpt lat="41.497913785278797149658203125" lon="-8.3589327335357666015625">
        <ele>138.1999969482421875</ele>
        <time>2019-05-02T09:26:11.000Z</time>
      </trkpt>
      <trkpt lat="41.49791252799332141876220703125" lon="-8.35891990922391414642333984375">
        <ele>138.399993896484375</ele>
        <time>2019-05-02T09:26:12.000Z</time>
      </trkpt>
      <trkpt lat="41.49794203229248523712158203125" lon="-8.35909903049468994140625">
        <ele>138</ele>
        <time>2019-05-02T09:26:36.000Z</time>
      </trkpt>
      <trkpt lat="41.49793482385575771331787109375" lon="-8.35912526585161685943603515625">
        <ele>137.8000030517578125</ele>
        <time>2019-05-02T09:26:38.000Z</time>
      </trkpt>
      <trkpt lat="41.4979255199432373046875" lon="-8.35914018563926219940185546875">
        <ele>137.8000030517578125</ele>
        <time>2019-05-02T09:26:40.000Z</time>
      </trkpt>
      <trkpt lat="41.4979075826704502105712890625" lon="-8.359204642474651336669921875">
        <ele>137.600006103515625</ele>
        <time>2019-05-02T09:26:44.000Z</time>
      </trkpt>
      <trkpt lat="41.49785519577562808990478515625" lon="-8.359359204769134521484375">
        <ele>137.600006103515625</ele>
        <time>2019-05-02T09:26:54.000Z</time>
      </trkpt>
      <trkpt lat="41.49783306755125522613525390625" lon="-8.35939650423824787139892578125">
        <ele>137.8000030517578125</ele>
        <time>2019-05-02T09:27:00.000Z</time>
      </trkpt>
      <trkpt lat="41.49784061126410961151123046875" lon="-8.35943958722054958343505859375">
        <ele>138</ele>
        <time>2019-05-02T09:27:07.000Z</time>
      </trkpt>
      <trkpt lat="41.4979062415659427642822265625" lon="-8.3595125935971736907958984375">
        <ele>138.600006103515625</ele>
        <time>2019-05-02T09:27:13.000Z</time>
      </trkpt>
      <trkpt lat="41.49791889823973178863525390625" lon="-8.35952055640518665313720703125">
        <ele>138.600006103515625</ele>
        <time>2019-05-02T09:27:15.000Z</time>
      </trkpt>
      <trkpt lat="41.4981439523398876190185546875" lon="-8.35961761884391307830810546875">
        <ele>139.1999969482421875</ele>
        <time>2019-05-02T09:27:21.000Z</time>
      </trkpt>
      <trkpt lat="41.49868751876056194305419921875" lon="-8.35976882837712764739990234375">
        <ele>140.1999969482421875</ele>
        <time>2019-05-02T09:27:35.000Z</time>
      </trkpt>
      <trkpt lat="41.49920451454818248748779296875" lon="-8.36000368930399417877197265625">
        <ele>140.8000030517578125</ele>
        <time>2019-05-02T09:27:49.000Z</time>
      </trkpt>
      <trkpt lat="41.4996466599404811859130859375" lon="-8.3604305796325206756591796875">
        <ele>143.600006103515625</ele>
        <time>2019-05-02T09:28:04.000Z</time>
      </trkpt>
      <trkpt lat="41.50014010258018970489501953125" lon="-8.360710702836513519287109375">
        <ele>144.399993896484375</ele>
        <time>2019-05-02T09:28:23.000Z</time>
      </trkpt>
      <trkpt lat="41.5006761252880096435546875" lon="-8.36082947440445423126220703125">
        <ele>145.399993896484375</ele>
        <time>2019-05-02T09:28:37.000Z</time>
      </trkpt>
      <trkpt lat="41.5008452720940113067626953125" lon="-8.36088412441313266754150390625">
        <ele>146</ele>
        <time>2019-05-02T09:28:41.000Z</time>
      </trkpt>
      <trkpt lat="41.50131021626293659210205078125" lon="-8.36133104749023914337158203125">
        <ele>149</ele>
        <time>2019-05-02T09:28:55.000Z</time>
      </trkpt>
      <trkpt lat="41.5017297305166721343994140625" lon="-8.36180563084781169891357421875">
        <ele>150.399993896484375</ele>
        <time>2019-05-02T09:29:16.000Z</time>
      </trkpt>
      <trkpt lat="41.50214220397174358367919921875" lon="-8.36229966022074222564697265625">
        <ele>154.8000030517578125</ele>
        <time>2019-05-02T09:29:43.000Z</time>
      </trkpt>
      <trkpt lat="41.50258543901145458221435546875" lon="-8.3627553842961788177490234375">
        <ele>158.8000030517578125</ele>
        <time>2019-05-02T09:30:08.000Z</time>
      </trkpt>
      <trkpt lat="41.5030383132398128509521484375" lon="-8.3631446398794651031494140625">
        <ele>162.8000030517578125</ele>
        <time>2019-05-02T09:30:34.000Z</time>
      </trkpt>
      <trkpt lat="41.50346436537802219390869140625" lon="-8.3636415190994739532470703125">
        <ele>169.600006103515625</ele>
        <time>2019-05-02T09:30:54.000Z</time>
      </trkpt>
      <trkpt lat="41.50354181416332721710205078125" lon="-8.36369675584137439727783203125">
        <ele>170.600006103515625</ele>
        <time>2019-05-02T09:30:56.000Z</time>
      </trkpt>
      <trkpt lat="41.503724120557308197021484375" lon="-8.36372257210314273834228515625">
        <ele>170.600006103515625</ele>
        <time>2019-05-02T09:31:00.000Z</time>
      </trkpt>
      <trkpt lat="41.50377650745213031768798828125" lon="-8.36370815522968769073486328125">
        <ele>170</ele>
        <time>2019-05-02T09:31:01.000Z</time>
      </trkpt>
      <trkpt lat="41.50403919629752635955810546875" lon="-8.36356918327510356903076171875">
        <ele>164.8000030517578125</ele>
        <time>2019-05-02T09:31:06.000Z</time>
      </trkpt>
      <trkpt lat="41.50442744605243206024169921875" lon="-8.36341696791350841522216796875">
        <ele>158.399993896484375</ele>
        <time>2019-05-02T09:31:12.000Z</time>
      </trkpt>
      <trkpt lat="41.5049487166106700897216796875" lon="-8.3636234141886234283447265625">
        <ele>155.1999969482421875</ele>
        <time>2019-05-02T09:31:20.000Z</time>
      </trkpt>
      <trkpt lat="41.50544115342199802398681640625" lon="-8.3639308623969554901123046875">
        <ele>155.600006103515625</ele>
        <time>2019-05-02T09:31:28.000Z</time>
      </trkpt>
      <trkpt lat="41.5059679560363292694091796875" lon="-8.3642862550914287567138671875">
        <ele>154.600006103515625</ele>
        <time>2019-05-02T09:31:37.000Z</time>
      </trkpt>
      <trkpt lat="41.50617859326303005218505859375" lon="-8.36458758451044559478759765625">
        <ele>154.8000030517578125</ele>
        <time>2019-05-02T09:31:42.000Z</time>
      </trkpt>
      <trkpt lat="41.50633550249040126800537109375" lon="-8.364689089357852935791015625">
        <ele>153.8000030517578125</ele>
        <time>2019-05-02T09:31:45.000Z</time>
      </trkpt>
      <trkpt lat="41.50673012249171733856201171875" lon="-8.36490324698388576507568359375">
        <ele>153.600006103515625</ele>
        <time>2019-05-02T09:31:53.000Z</time>
      </trkpt>
      <trkpt lat="41.50682936422526836395263671875" lon="-8.36501070298254489898681640625">
        <ele>153.8000030517578125</ele>
        <time>2019-05-02T09:31:56.000Z</time>
      </trkpt>
      <trkpt lat="41.50712926872074604034423828125" lon="-8.3656186424195766448974609375">
        <ele>153.600006103515625</ele>
        <time>2019-05-02T09:32:10.000Z</time>
      </trkpt>
      <trkpt lat="41.50750226341187953948974609375" lon="-8.3658305369317531585693359375">
        <ele>155</ele>
        <time>2019-05-02T09:32:20.000Z</time>
      </trkpt>
      <trkpt lat="41.50765246711671352386474609375" lon="-8.36568611674010753631591796875">
        <ele>156</ele>
        <time>2019-05-02T09:32:25.000Z</time>
      </trkpt>
      <trkpt lat="41.50806427001953125" lon="-8.3651968650519847869873046875">
        <ele>158.399993896484375</ele>
        <time>2019-05-02T09:32:40.000Z</time>
      </trkpt>
      <trkpt lat="41.508478336036205291748046875" lon="-8.36472027003765106201171875">
        <ele>161.600006103515625</ele>
        <time>2019-05-02T09:32:55.000Z</time>
      </trkpt>
      <trkpt lat="41.508986614644527435302734375" lon="-8.36451566778123378753662109375">
        <ele>165.600006103515625</ele>
        <time>2019-05-02T09:33:14.000Z</time>
      </trkpt>
      <trkpt lat="41.50953789241611957550048828125" lon="-8.36458624340593814849853515625">
        <ele>167.600006103515625</ele>
        <time>2019-05-02T09:33:34.000Z</time>
      </trkpt>
      <trkpt lat="41.5100920200347900390625" lon="-8.3646185137331485748291015625">
        <ele>169.1999969482421875</ele>
        <time>2019-05-02T09:33:50.000Z</time>
      </trkpt>
      <trkpt lat="41.51061463169753551483154296875" lon="-8.3648277260363101959228515625">
        <ele>171.1999969482421875</ele>
        <time>2019-05-02T09:34:04.000Z</time>
      </trkpt>
      <trkpt lat="41.51083574630320072174072265625" lon="-8.36505420506000518798828125">
        <ele>172.399993896484375</ele>
        <time>2019-05-02T09:34:11.000Z</time>
      </trkpt>
      <trkpt lat="41.51090900413691997528076171875" lon="-8.3651113696396350860595703125">
        <ele>173.1999969482421875</ele>
        <time>2019-05-02T09:34:13.000Z</time>
      </trkpt>
      <trkpt lat="41.51117119006812572479248046875" lon="-8.3657695166766643524169921875">
        <ele>176.600006103515625</ele>
        <time>2019-05-02T09:34:28.000Z</time>
      </trkpt>
      <trkpt lat="41.51165231131017208099365234375" lon="-8.36615030653774738311767578125">
        <ele>181.399993896484375</ele>
        <time>2019-05-02T09:34:49.000Z</time>
      </trkpt>
      <trkpt lat="41.51206805370748043060302734375" lon="-8.36661659181118011474609375">
        <ele>187</ele>
        <time>2019-05-02T09:35:14.000Z</time>
      </trkpt>
      <trkpt lat="41.5124005638062953948974609375" lon="-8.36717784404754638671875">
        <ele>190.1999969482421875</ele>
        <time>2019-05-02T09:35:39.000Z</time>
      </trkpt>
      <trkpt lat="41.51241523213684558868408203125" lon="-8.367285467684268951416015625">
        <ele>190.1999969482421875</ele>
        <time>2019-05-02T09:35:46.000Z</time>
      </trkpt>
      <trkpt lat="41.5124270506203174591064453125" lon="-8.36736492812633514404296875">
        <ele>190.1999969482421875</ele>
        <time>2019-05-02T09:36:05.000Z</time>
      </trkpt>
      <trkpt lat="41.51259812526404857635498046875" lon="-8.368049226701259613037109375">
        <ele>195</ele>
        <time>2019-05-02T09:36:48.000Z</time>
      </trkpt>
      <trkpt lat="41.51288780383765697479248046875" lon="-8.36865180172026157379150390625">
        <ele>201.8000030517578125</ele>
        <time>2019-05-02T09:37:35.000Z</time>
      </trkpt>
      <trkpt lat="41.51328711770474910736083984375" lon="-8.3690324239432811737060546875">
        <ele>202.600006103515625</ele>
        <time>2019-05-02T09:38:24.000Z</time>
      </trkpt>
      <trkpt lat="41.5133021213114261627197265625" lon="-8.36906050331890583038330078125">
        <ele>202.399993896484375</ele>
        <time>2019-05-02T09:40:02.000Z</time>
      </trkpt>
      <trkpt lat="41.51371677406132221221923828125" lon="-8.369554616510868072509765625">
        <ele>203.8000030517578125</ele>
        <time>2019-05-02T09:40:27.000Z</time>
      </trkpt>
      <trkpt lat="41.5141067840158939361572265625" lon="-8.37008711881935596466064453125">
        <ele>210.1999969482421875</ele>
        <time>2019-05-02T09:40:46.000Z</time>
      </trkpt>
      <trkpt lat="41.51418574154376983642578125" lon="-8.37019692175090312957763671875">
        <ele>211.1999969482421875</ele>
        <time>2019-05-02T09:40:53.000Z</time>
      </trkpt>
      <trkpt lat="41.51420426554977893829345703125" lon="-8.3702234923839569091796875">
        <ele>211.600006103515625</ele>
        <time>2019-05-02T09:40:57.000Z</time>
      </trkpt>
      <trkpt lat="41.51431608013808727264404296875" lon="-8.3703678287565708160400390625">
        <ele>213.8000030517578125</ele>
        <time>2019-05-02T09:41:11.000Z</time>
      </trkpt>
      <trkpt lat="41.5146200917661190032958984375" lon="-8.37079002521932125091552734375">
        <ele>222.1999969482421875</ele>
        <time>2019-05-02T09:41:59.000Z</time>
      </trkpt>
      <trkpt lat="41.51470382697880268096923828125" lon="-8.37091357447206974029541015625">
        <ele>225</ele>
        <time>2019-05-02T09:42:22.000Z</time>
      </trkpt>
      <trkpt lat="41.514743976294994354248046875" lon="-8.3709726668894290924072265625">
        <ele>226.399993896484375</ele>
        <time>2019-05-02T09:42:27.000Z</time>
      </trkpt>
      <trkpt lat="41.51477440260350704193115234375" lon="-8.37107350118458271026611328125">
        <ele>227.399993896484375</ele>
        <time>2019-05-02T09:42:40.000Z</time>
      </trkpt>
      <trkpt lat="41.51496634818613529205322265625" lon="-8.37163777090609073638916015625">
        <ele>236</ele>
        <time>2019-05-02T09:43:35.000Z</time>
      </trkpt>
      <trkpt lat="41.5150053240358829498291015625" lon="-8.37174363434314727783203125">
        <ele>239</ele>
        <time>2019-05-02T09:43:45.000Z</time>
      </trkpt>
      <trkpt lat="41.51498772203922271728515625" lon="-8.3717360906302928924560546875">
        <ele>238.399993896484375</ele>
        <time>2019-05-02T09:45:27.000Z</time>
      </trkpt>
      <trkpt lat="41.5149454772472381591796875" lon="-8.371639363467693328857421875">
        <ele>235.8000030517578125</ele>
        <time>2019-05-02T09:45:31.000Z</time>
      </trkpt>
      <trkpt lat="41.5149107761681079864501953125" lon="-8.37106293998658657073974609375">
        <ele>229.8000030517578125</ele>
        <time>2019-05-02T09:45:50.000Z</time>
      </trkpt>
      <trkpt lat="41.51491773314774036407470703125" lon="-8.37104164995253086090087890625">
        <ele>229.600006103515625</ele>
        <time>2019-05-02T09:45:53.000Z</time>
      </trkpt>
      <trkpt lat="41.51492494158446788787841796875" lon="-8.37101147510111331939697265625">
        <ele>229.399993896484375</ele>
        <time>2019-05-02T09:46:13.000Z</time>
      </trkpt>
      <trkpt lat="41.51537605561316013336181640625" lon="-8.37069145403802394866943359375">
        <ele>231</ele>
        <time>2019-05-02T09:46:36.000Z</time>
      </trkpt>
      <trkpt lat="41.51556666009128093719482421875" lon="-8.37073646485805511474609375">
        <ele>234.1999969482421875</ele>
        <time>2019-05-02T09:46:46.000Z</time>
      </trkpt>
      <trkpt lat="41.51563086546957492828369140625" lon="-8.3707098104059696197509765625">
        <ele>234.600006103515625</ele>
        <time>2019-05-02T09:46:50.000Z</time>
      </trkpt>
      <trkpt lat="41.51565282605588436126708984375" lon="-8.37071861140429973602294921875">
        <ele>235</ele>
        <time>2019-05-02T09:46:53.000Z</time>
      </trkpt>
      <trkpt lat="41.51569926179945468902587890625" lon="-8.370770327746868133544921875">
        <ele>236.399993896484375</ele>
        <time>2019-05-02T09:47:23.000Z</time>
      </trkpt>
      <trkpt lat="41.5162525512278079986572265625" lon="-8.37088675238192081451416015625">
        <ele>244.600006103515625</ele>
        <time>2019-05-02T09:47:47.000Z</time>
      </trkpt>
      <trkpt lat="41.516776420176029205322265625" lon="-8.37071525864303112030029296875">
        <ele>245.1999969482421875</ele>
        <time>2019-05-02T09:48:15.000Z</time>
      </trkpt>
      <trkpt lat="41.517146565020084381103515625" lon="-8.370768986642360687255859375">
        <ele>247.600006103515625</ele>
        <time>2019-05-02T09:48:40.000Z</time>
      </trkpt>
      <trkpt lat="41.51732166297733783721923828125" lon="-8.37083495222032070159912109375">
        <ele>249.399993896484375</ele>
        <time>2019-05-02T09:48:57.000Z</time>
      </trkpt>
      <trkpt lat="41.51757949031889438629150390625" lon="-8.3709756843745708465576171875">
        <ele>253.399993896484375</ele>
        <time>2019-05-02T09:49:22.000Z</time>
      </trkpt>
      <trkpt lat="41.51761670596897602081298828125" lon="-8.37101533077657222747802734375">
        <ele>254.8000030517578125</ele>
        <time>2019-05-02T09:49:26.000Z</time>
      </trkpt>
      <trkpt lat="41.51767194271087646484375" lon="-8.371132425963878631591796875">
        <ele>258.399993896484375</ele>
        <time>2019-05-02T09:49:36.000Z</time>
      </trkpt>
      <trkpt lat="41.51764101348817348480224609375" lon="-8.3712516166269779205322265625">
        <ele>261.79998779296875</ele>
        <time>2019-05-02T09:49:46.000Z</time>
      </trkpt>
      <trkpt lat="41.51763330213725566864013671875" lon="-8.37125354446470737457275390625">
        <ele>261.79998779296875</ele>
        <time>2019-05-02T09:49:47.000Z</time>
      </trkpt>
      <trkpt lat="41.51742090471088886260986328125" lon="-8.37121532298624515533447265625">
        <ele>259.399993896484375</ele>
        <time>2019-05-02T09:50:07.000Z</time>
      </trkpt>
      <trkpt lat="41.5173713676631450653076171875" lon="-8.37120585143566131591796875">
        <ele>258.79998779296875</ele>
        <time>2019-05-02T09:50:19.000Z</time>
      </trkpt>
      <trkpt lat="41.5173076651990413665771484375" lon="-8.3711944520473480224609375">
        <ele>258</ele>
        <time>2019-05-02T09:50:23.000Z</time>
      </trkpt>
      <trkpt lat="41.51724069379270076751708984375" lon="-8.37119000963866710662841796875">
        <ele>257.600006103515625</ele>
        <time>2019-05-02T09:50:27.000Z</time>
      </trkpt>
      <trkpt lat="41.51683685369789600372314453125" lon="-8.371550850570201873779296875">
        <ele>266</ele>
        <time>2019-05-02T09:51:00.000Z</time>
      </trkpt>
      <trkpt lat="41.51672017760574817657470703125" lon="-8.37202501483261585235595703125">
        <ele>275</ele>
        <time>2019-05-02T09:51:24.000Z</time>
      </trkpt>
      <trkpt lat="41.51670701801776885986328125" lon="-8.37213079445064067840576171875">
        <ele>276</ele>
        <time>2019-05-02T09:51:31.000Z</time>
      </trkpt>
      <trkpt lat="41.51671447791159152984619140625" lon="-8.37223238311707973480224609375">
        <ele>277</ele>
        <time>2019-05-02T09:52:52.000Z</time>
      </trkpt>
      <trkpt lat="41.5167640149593353271484375" lon="-8.37233246304094791412353515625">
        <ele>278.20001220703125</ele>
        <time>2019-05-02T09:52:58.000Z</time>
      </trkpt>
      <trkpt lat="41.51676711626350879669189453125" lon="-8.37234939448535442352294921875">
        <ele>278.399993896484375</ele>
        <time>2019-05-02T09:52:59.000Z</time>
      </trkpt>
      <trkpt lat="41.5169723890721797943115234375" lon="-8.37286840192973613739013671875">
        <ele>288.399993896484375</ele>
        <time>2019-05-02T09:53:39.000Z</time>
      </trkpt>
      <trkpt lat="41.51698672212660312652587890625" lon="-8.37296135723590850830078125">
        <ele>289</ele>
        <time>2019-05-02T09:53:46.000Z</time>
      </trkpt>
      <trkpt lat="41.516995020210742950439453125" lon="-8.3731663785874843597412109375">
        <ele>292</ele>
        <time>2019-05-02T09:54:00.000Z</time>
      </trkpt>
      <trkpt lat="41.51700608432292938232421875" lon="-8.373223207890987396240234375">
        <ele>293</ele>
        <time>2019-05-02T09:54:04.000Z</time>
      </trkpt>
      <trkpt lat="41.5172137878835201263427734375" lon="-8.37388915009796619415283203125">
        <ele>301.79998779296875</ele>
        <time>2019-05-02T09:54:50.000Z</time>
      </trkpt>
      <trkpt lat="41.5176365710794925689697265625" lon="-8.37434160523116588592529296875">
        <ele>312</ele>
        <time>2019-05-02T09:55:40.000Z</time>
      </trkpt>
      <trkpt lat="41.5175842680037021636962890625" lon="-8.37499556131660938262939453125">
        <ele>315.600006103515625</ele>
        <time>2019-05-02T09:56:26.000Z</time>
      </trkpt>
      <trkpt lat="41.517275311052799224853515625" lon="-8.37559134699404239654541015625">
        <ele>318.20001220703125</ele>
        <time>2019-05-02T09:57:10.000Z</time>
      </trkpt>
      <trkpt lat="41.51720079593360424041748046875" lon="-8.37578144855797290802001953125">
        <ele>320.20001220703125</ele>
        <time>2019-05-02T09:57:26.000Z</time>
      </trkpt>
      <trkpt lat="41.51719828136265277862548828125" lon="-8.37580827064812183380126953125">
        <ele>320.600006103515625</ele>
        <time>2019-05-02T09:58:23.000Z</time>
      </trkpt>
      <trkpt lat="41.51717196218669414520263671875" lon="-8.3758744038641452789306640625">
        <ele>321.20001220703125</ele>
        <time>2019-05-02T09:58:26.000Z</time>
      </trkpt>
      <trkpt lat="41.51712150312960147857666015625" lon="-8.3760973624885082244873046875">
        <ele>323.399993896484375</ele>
        <time>2019-05-02T09:58:35.000Z</time>
      </trkpt>
      <trkpt lat="41.51703097857534885406494140625" lon="-8.37658460251986980438232421875">
        <ele>328.399993896484375</ele>
        <time>2019-05-02T09:58:55.000Z</time>
      </trkpt>
      <trkpt lat="41.51690592058002948760986328125" lon="-8.37725515477359294891357421875">
        <ele>327</ele>
        <time>2019-05-02T09:59:24.000Z</time>
      </trkpt>
      <trkpt lat="41.517242453992366790771484375" lon="-8.377818502485752105712890625">
        <ele>337.399993896484375</ele>
        <time>2019-05-02T09:59:55.000Z</time>
      </trkpt>
      <trkpt lat="41.517641432583332061767578125" lon="-8.37832351215183734893798828125">
        <ele>345.20001220703125</ele>
        <time>2019-05-02T10:00:27.000Z</time>
      </trkpt>
      <trkpt lat="41.5180285088717937469482421875" lon="-8.37882793508470058441162109375">
        <ele>351.399993896484375</ele>
        <time>2019-05-02T10:00:58.000Z</time>
      </trkpt>
      <trkpt lat="41.5184184350073337554931640625" lon="-8.37932623922824859619140625">
        <ele>355.79998779296875</ele>
        <time>2019-05-02T10:01:25.000Z</time>
      </trkpt>
      <trkpt lat="41.51890642940998077392578125" lon="-8.37963201105594635009765625">
        <ele>362.600006103515625</ele>
        <time>2019-05-02T10:01:51.000Z</time>
      </trkpt>
      <trkpt lat="41.51941462419927120208740234375" lon="-8.3799178339540958404541015625">
        <ele>365.600006103515625</ele>
        <time>2019-05-02T10:02:17.000Z</time>
      </trkpt>
      <trkpt lat="41.51963942684233188629150390625" lon="-8.3800113759934902191162109375">
        <ele>365.79998779296875</ele>
        <time>2019-05-02T10:02:31.000Z</time>
      </trkpt>
      <trkpt lat="41.51963959448039531707763671875" lon="-8.380014561116695404052734375">
        <ele>365.79998779296875</ele>
        <time>2019-05-02T10:02:53.000Z</time>
      </trkpt>
      <trkpt lat="41.5201534889638423919677734375" lon="-8.38022721000015735626220703125">
        <ele>368.399993896484375</ele>
        <time>2019-05-02T10:03:15.000Z</time>
      </trkpt>
      <trkpt lat="41.52071583084762096405029296875" lon="-8.3802469074726104736328125">
        <ele>374</ele>
        <time>2019-05-02T10:03:37.000Z</time>
      </trkpt>
      <trkpt lat="41.5212593972682952880859375" lon="-8.38026157580316066741943359375">
        <ele>379.79998779296875</ele>
        <time>2019-05-02T10:04:00.000Z</time>
      </trkpt>
      <trkpt lat="41.5215046517550945281982421875" lon="-8.38050817139446735382080078125">
        <ele>379.600006103515625</ele>
        <time>2019-05-02T10:04:18.000Z</time>
      </trkpt>
      <trkpt lat="41.5215291269123554229736328125" lon="-8.38054706342518329620361328125">
        <ele>379.600006103515625</ele>
        <time>2019-05-02T10:04:39.000Z</time>
      </trkpt>
      <trkpt lat="41.52153742499649524688720703125" lon="-8.38056835345923900604248046875">
        <ele>379.600006103515625</ele>
        <time>2019-05-02T10:04:40.000Z</time>
      </trkpt>
      <trkpt lat="41.5216813422739505767822265625" lon="-8.380816541612148284912109375">
        <ele>379.600006103515625</ele>
        <time>2019-05-02T10:04:52.000Z</time>
      </trkpt>
      <trkpt lat="41.522177718579769134521484375" lon="-8.38112005032598972320556640625">
        <ele>383.20001220703125</ele>
        <time>2019-05-02T10:05:16.000Z</time>
      </trkpt>
      <trkpt lat="41.5227051079273223876953125" lon="-8.38135398924350738525390625">
        <ele>388.399993896484375</ele>
        <time>2019-05-02T10:05:40.000Z</time>
      </trkpt>
      <trkpt lat="41.5232227742671966552734375" lon="-8.3815958909690380096435546875">
        <ele>393.600006103515625</ele>
        <time>2019-05-02T10:06:04.000Z</time>
      </trkpt>
      <trkpt lat="41.523746140301227569580078125" lon="-8.3818151615560054779052734375">
        <ele>396.20001220703125</ele>
        <time>2019-05-02T10:06:31.000Z</time>
      </trkpt>
      <trkpt lat="41.5242773853242397308349609375" lon="-8.3820573985576629638671875">
        <ele>401.20001220703125</ele>
        <time>2019-05-02T10:06:57.000Z</time>
      </trkpt>
      <trkpt lat="41.52478507719933986663818359375" lon="-8.3823039941489696502685546875">
        <ele>405.600006103515625</ele>
        <time>2019-05-02T10:07:18.000Z</time>
      </trkpt>
      <trkpt lat="41.5252865664660930633544921875" lon="-8.38260297663509845733642578125">
        <ele>408.79998779296875</ele>
        <time>2019-05-02T10:07:43.000Z</time>
      </trkpt>
      <trkpt lat="41.52551815845072269439697265625" lon="-8.3827348239719867706298828125">
        <ele>411.79998779296875</ele>
        <time>2019-05-02T10:07:57.000Z</time>
      </trkpt>
      <trkpt lat="41.52551514096558094024658203125" lon="-8.3827824331820011138916015625">
        <ele>412.20001220703125</ele>
        <time>2019-05-02T10:08:44.000Z</time>
      </trkpt>
      <trkpt lat="41.525458395481109619140625" lon="-8.38301285170018672943115234375">
        <ele>412.399993896484375</ele>
        <time>2019-05-02T10:08:54.000Z</time>
      </trkpt>
      <trkpt lat="41.525491587817668914794921875" lon="-8.38302768766880035400390625">
        <ele>412.600006103515625</ele>
        <time>2019-05-02T10:09:06.000Z</time>
      </trkpt>
      <trkpt lat="41.525485217571258544921875" lon="-8.38304704986512660980224609375">
        <ele>412.600006103515625</ele>
        <time>2019-05-02T10:09:08.000Z</time>
      </trkpt>
      <trkpt lat="41.52544305659830570220947265625" lon="-8.38309918530285358428955078125">
        <ele>412.399993896484375</ele>
        <time>2019-05-02T10:09:13.000Z</time>
      </trkpt>
      <trkpt lat="41.52504600584506988525390625" lon="-8.383456170558929443359375">
        <ele>410.399993896484375</ele>
        <time>2019-05-02T10:09:51.000Z</time>
      </trkpt>
      <trkpt lat="41.5246631205081939697265625" lon="-8.383948691189289093017578125">
        <ele>415.20001220703125</ele>
        <time>2019-05-02T10:10:31.000Z</time>
      </trkpt>
      <trkpt lat="41.52427277527749538421630859375" lon="-8.38443157263100147247314453125">
        <ele>420.600006103515625</ele>
        <time>2019-05-02T10:11:16.000Z</time>
      </trkpt>
      <trkpt lat="41.524023078382015228271484375" lon="-8.3850693516433238983154296875">
        <ele>429.79998779296875</ele>
        <time>2019-05-02T10:12:00.000Z</time>
      </trkpt>
      <trkpt lat="41.523898355662822723388671875" lon="-8.38532902300357818603515625">
        <ele>431.20001220703125</ele>
        <time>2019-05-02T10:12:23.000Z</time>
      </trkpt>
      <trkpt lat="41.52386315166950225830078125" lon="-8.3853519894182682037353515625">
        <ele>431.20001220703125</ele>
        <time>2019-05-02T10:12:35.000Z</time>
      </trkpt>
      <trkpt lat="41.5234207548201084136962890625" lon="-8.3857784606516361236572265625">
        <ele>431.79998779296875</ele>
        <time>2019-05-02T10:12:56.000Z</time>
      </trkpt>
      <trkpt lat="41.5232370235025882720947265625" lon="-8.38642311282455921173095703125">
        <ele>430.79998779296875</ele>
        <time>2019-05-02T10:13:21.000Z</time>
      </trkpt>
      <trkpt lat="41.52318648062646389007568359375" lon="-8.38713456876575946807861328125">
        <ele>429.20001220703125</ele>
        <time>2019-05-02T10:13:44.000Z</time>
      </trkpt>
      <trkpt lat="41.52316041290760040283203125" lon="-8.38718771003186702728271484375">
        <ele>429.20001220703125</ele>
        <time>2019-05-02T10:13:47.000Z</time>
      </trkpt>
      <trkpt lat="41.52314825914800167083740234375" lon="-8.3871973492205142974853515625">
        <ele>429.399993896484375</ele>
        <time>2019-05-02T10:13:50.000Z</time>
      </trkpt>
      <trkpt lat="41.5231407992541790008544921875" lon="-8.3872456289827823638916015625">
        <ele>429.399993896484375</ele>
        <time>2019-05-02T10:14:04.000Z</time>
      </trkpt>
      <trkpt lat="41.52310073375701904296875" lon="-8.38794761337339878082275390625">
        <ele>426.79998779296875</ele>
        <time>2019-05-02T10:14:25.000Z</time>
      </trkpt>
      <trkpt lat="41.522807367146015167236328125" lon="-8.38854876346886157989501953125">
        <ele>424.79998779296875</ele>
        <time>2019-05-02T10:14:43.000Z</time>
      </trkpt>
      <trkpt lat="41.52276269160211086273193359375" lon="-8.38863425888121128082275390625">
        <ele>423.600006103515625</ele>
        <time>2019-05-02T10:14:47.000Z</time>
      </trkpt>
      <trkpt lat="41.5227485261857509613037109375" lon="-8.3886440657079219818115234375">
        <ele>423.600006103515625</ele>
        <time>2019-05-02T10:14:50.000Z</time>
      </trkpt>
      <trkpt lat="41.5227364562451839447021484375" lon="-8.38861313648521900177001953125">
        <ele>424.20001220703125</ele>
        <time>2019-05-02T10:17:10.000Z</time>
      </trkpt>
      <trkpt lat="41.52281801216304302215576171875" lon="-8.38846142403781414031982421875">
        <ele>426</ele>
        <time>2019-05-02T10:17:15.000Z</time>
      </trkpt>
      <trkpt lat="41.52307801879942417144775390625" lon="-8.38782741688191890716552734375">
        <ele>427.600006103515625</ele>
        <time>2019-05-02T10:17:34.000Z</time>
      </trkpt>
      <trkpt lat="41.5232732333242893218994140625" lon="-8.38714378885924816131591796875">
        <ele>429</ele>
        <time>2019-05-02T10:17:56.000Z</time>
      </trkpt>
      <trkpt lat="41.52355930767953395843505859375" lon="-8.386825360357761383056640625">
        <ele>429</ele>
        <time>2019-05-02T10:18:08.000Z</time>
      </trkpt>
      <trkpt lat="41.5234606526792049407958984375" lon="-8.386773727834224700927734375">
        <ele>429.399993896484375</ele>
        <time>2019-05-02T10:18:14.000Z</time>
      </trkpt>
      <trkpt lat="41.523162089288234710693359375" lon="-8.38640031404793262481689453125">
        <ele>431</ele>
        <time>2019-05-02T10:18:33.000Z</time>
      </trkpt>
      <trkpt lat="41.5230832993984222412109375" lon="-8.38633778505027294158935546875">
        <ele>431.79998779296875</ele>
        <time>2019-05-02T10:18:42.000Z</time>
      </trkpt>
      <trkpt lat="41.52303577400743961334228515625" lon="-8.38632973842322826385498046875">
        <ele>432.20001220703125</ele>
        <time>2019-05-02T10:20:15.000Z</time>
      </trkpt>
      <trkpt lat="41.5225114859640598297119140625" lon="-8.3864087797701358795166015625">
        <ele>432.20001220703125</ele>
        <time>2019-05-02T10:20:42.000Z</time>
      </trkpt>
      <trkpt lat="41.52234007604420185089111328125" lon="-8.38649150915443897247314453125">
        <ele>431.79998779296875</ele>
        <time>2019-05-02T10:20:54.000Z</time>
      </trkpt>
      <trkpt lat="41.5223049558699131011962890625" lon="-8.386524617671966552734375">
        <ele>432.20001220703125</ele>
        <time>2019-05-02T10:21:26.000Z</time>
      </trkpt>
      <trkpt lat="41.5218429453670978546142578125" lon="-8.3868982829153537750244140625">
        <ele>437.79998779296875</ele>
        <time>2019-05-02T10:22:08.000Z</time>
      </trkpt>
      <trkpt lat="41.52174688875675201416015625" lon="-8.3872493170201778411865234375">
        <ele>441</ele>
        <time>2019-05-02T10:22:37.000Z</time>
      </trkpt>
      <trkpt lat="41.52173574082553386688232421875" lon="-8.3873279392719268798828125">
        <ele>441.79998779296875</ele>
        <time>2019-05-02T10:22:52.000Z</time>
      </trkpt>
      <trkpt lat="41.52159995399415493011474609375" lon="-8.3876603655517101287841796875">
        <ele>444.20001220703125</ele>
        <time>2019-05-02T10:23:21.000Z</time>
      </trkpt>
      <trkpt lat="41.52159106917679309844970703125" lon="-8.3876794762909412384033203125">
        <ele>444</ele>
        <time>2019-05-02T10:24:01.000Z</time>
      </trkpt>
      <trkpt lat="41.52129787020385265350341796875" lon="-8.38829562999308109283447265625">
        <ele>435.600006103515625</ele>
        <time>2019-05-02T10:24:23.000Z</time>
      </trkpt>
      <trkpt lat="41.52120918966829776763916015625" lon="-8.38844365440309047698974609375">
        <ele>432.79998779296875</ele>
        <time>2019-05-02T10:24:29.000Z</time>
      </trkpt>
      <trkpt lat="41.52119762264192104339599609375" lon="-8.38845572434365749359130859375">
        <ele>432.399993896484375</ele>
        <time>2019-05-02T10:24:32.000Z</time>
      </trkpt>
      <trkpt lat="41.52113190852105617523193359375" lon="-8.38849428109824657440185546875">
        <ele>431.20001220703125</ele>
        <time>2019-05-02T10:24:52.000Z</time>
      </trkpt>
      <trkpt lat="41.52108916081488132476806640625" lon="-8.3885082788765430450439453125">
        <ele>430.399993896484375</ele>
        <time>2019-05-02T10:24:54.000Z</time>
      </trkpt>
      <trkpt lat="41.5210543759167194366455078125" lon="-8.388630487024784088134765625">
        <ele>429.79998779296875</ele>
        <time>2019-05-02T10:24:58.000Z</time>
      </trkpt>
      <trkpt lat="41.521003581583499908447265625" lon="-8.389030806720256805419921875">
        <ele>427.79998779296875</ele>
        <time>2019-05-02T10:25:11.000Z</time>
      </trkpt>
      <trkpt lat="41.5209496021270751953125" lon="-8.38912996463477611541748046875">
        <ele>426</ele>
        <time>2019-05-02T10:25:16.000Z</time>
      </trkpt>
      <trkpt lat="41.52056059800088405609130859375" lon="-8.38965408504009246826171875">
        <ele>422.399993896484375</ele>
        <time>2019-05-02T10:25:38.000Z</time>
      </trkpt>
      <trkpt lat="41.52050225995481014251708984375" lon="-8.3897286839783191680908203125">
        <ele>422.399993896484375</ele>
        <time>2019-05-02T10:25:41.000Z</time>
      </trkpt>
      <trkpt lat="41.52058507315814495086669921875" lon="-8.38972918689250946044921875">
        <ele>422.20001220703125</ele>
        <time>2019-05-02T10:25:47.000Z</time>
      </trkpt>
      <trkpt lat="41.5206564031541347503662109375" lon="-8.38962080888450145721435546875">
        <ele>422.20001220703125</ele>
        <time>2019-05-02T10:25:54.000Z</time>
      </trkpt>
      <trkpt lat="41.52065657079219818115234375" lon="-8.3896257542073726654052734375">
        <ele>422.20001220703125</ele>
        <time>2019-05-02T10:25:55.000Z</time>
      </trkpt>
      <trkpt lat="41.5206825546920299530029296875" lon="-8.3895939029753208160400390625">
        <ele>422.399993896484375</ele>
        <time>2019-05-02T10:26:51.000Z</time>
      </trkpt>
      <trkpt lat="41.52076117694377899169921875" lon="-8.3895151130855083465576171875">
        <ele>422.399993896484375</ele>
        <time>2019-05-02T10:26:56.000Z</time>
      </trkpt>
      <trkpt lat="41.52122226543724536895751953125" lon="-8.38909107260406017303466796875">
        <ele>426.399993896484375</ele>
        <time>2019-05-02T10:27:15.000Z</time>
      </trkpt>
      <trkpt lat="41.52163649909198284149169921875" lon="-8.38904388248920440673828125">
        <ele>425.79998779296875</ele>
        <time>2019-05-02T10:27:29.000Z</time>
      </trkpt>
      <trkpt lat="41.5222043730318546295166015625" lon="-8.38888605125248432159423828125">
        <ele>423.79998779296875</ele>
        <time>2019-05-02T10:27:39.000Z</time>
      </trkpt>
      <trkpt lat="41.52247083373367786407470703125" lon="-8.38872428052127361297607421875">
        <ele>424.399993896484375</ele>
        <time>2019-05-02T10:27:44.000Z</time>
      </trkpt>
      <trkpt lat="41.52260276488959789276123046875" lon="-8.38856284506618976593017578125">
        <ele>426.20001220703125</ele>
        <time>2019-05-02T10:27:48.000Z</time>
      </trkpt>
      <trkpt lat="41.5227693133056163787841796875" lon="-8.3883929438889026641845703125">
        <ele>426.79998779296875</ele>
        <time>2019-05-02T10:27:58.000Z</time>
      </trkpt>
      <trkpt lat="41.52279253117740154266357421875" lon="-8.38842387311160564422607421875">
        <ele>426.600006103515625</ele>
        <time>2019-05-02T10:28:05.000Z</time>
      </trkpt>
      <trkpt lat="41.52278582565486431121826171875" lon="-8.38854767382144927978515625">
        <ele>425</ele>
        <time>2019-05-02T10:28:09.000Z</time>
      </trkpt>
      <trkpt lat="41.52276000939309597015380859375" lon="-8.3885850571095943450927734375">
        <ele>424.600006103515625</ele>
        <time>2019-05-02T10:28:10.000Z</time>
      </trkpt>
      <trkpt lat="41.52255666442215442657470703125" lon="-8.3886853046715259552001953125">
        <ele>424.399993896484375</ele>
        <time>2019-05-02T10:28:14.000Z</time>
      </trkpt>
      <trkpt lat="41.5220461226999759674072265625" lon="-8.38898110203444957733154296875">
        <ele>423.399993896484375</ele>
        <time>2019-05-02T10:28:23.000Z</time>
      </trkpt>
      <trkpt lat="41.521880328655242919921875" lon="-8.38903441093862056732177734375">
        <ele>423.79998779296875</ele>
        <time>2019-05-02T10:28:26.000Z</time>
      </trkpt>
      <trkpt lat="41.5213988721370697021484375" lon="-8.38905754499137401580810546875">
        <ele>426.79998779296875</ele>
        <time>2019-05-02T10:28:35.000Z</time>
      </trkpt>
      <trkpt lat="41.5211606584489345550537109375" lon="-8.38914848864078521728515625">
        <ele>425.399993896484375</ele>
        <time>2019-05-02T10:28:45.000Z</time>
      </trkpt>
      <trkpt lat="41.52123349718749523162841796875" lon="-8.38919500820338726043701171875">
        <ele>424.399993896484375</ele>
        <time>2019-05-02T10:28:58.000Z</time>
      </trkpt>
      <trkpt lat="41.5215368382632732391357421875" lon="-8.38935879059135913848876953125">
        <ele>420.79998779296875</ele>
        <time>2019-05-02T10:29:22.000Z</time>
      </trkpt>
      <trkpt lat="41.521563827991485595703125" lon="-8.3893702737987041473388671875">
        <ele>420.399993896484375</ele>
        <time>2019-05-02T10:29:26.000Z</time>
      </trkpt>
      <trkpt lat="41.5216461382806301116943359375" lon="-8.389367423951625823974609375">
        <ele>419.79998779296875</ele>
        <time>2019-05-02T10:29:34.000Z</time>
      </trkpt>
      <trkpt lat="41.52168922126293182373046875" lon="-8.38936616666615009307861328125">
        <ele>419.399993896484375</ele>
        <time>2019-05-02T10:29:39.000Z</time>
      </trkpt>
      <trkpt lat="41.52178569696843624114990234375" lon="-8.38938544504344463348388671875">
        <ele>418.20001220703125</ele>
        <time>2019-05-02T10:29:43.000Z</time>
      </trkpt>
      <trkpt lat="41.52191310189664363861083984375" lon="-8.38939164765179157257080078125">
        <ele>417</ele>
        <time>2019-05-02T10:29:51.000Z</time>
      </trkpt>
      <trkpt lat="41.52204637415707111358642578125" lon="-8.3894198946654796600341796875">
        <ele>415.399993896484375</ele>
        <time>2019-05-02T10:30:06.000Z</time>
      </trkpt>
      <trkpt lat="41.5221778862178325653076171875" lon="-8.38941025547683238983154296875">
        <ele>414.399993896484375</ele>
        <time>2019-05-02T10:30:14.000Z</time>
      </trkpt>
      <trkpt lat="41.522394306957721710205078125" lon="-8.38933314196765422821044921875">
        <ele>413.600006103515625</ele>
        <time>2019-05-02T10:30:30.000Z</time>
      </trkpt>
      <trkpt lat="41.52249497361481189727783203125" lon="-8.38932308368384838104248046875">
        <ele>412.600006103515625</ele>
        <time>2019-05-02T10:30:38.000Z</time>
      </trkpt>
      <trkpt lat="41.52251802384853363037109375" lon="-8.38930849917232990264892578125">
        <ele>412.79998779296875</ele>
        <time>2019-05-02T10:30:40.000Z</time>
      </trkpt>
      <trkpt lat="41.5225550718605518341064453125" lon="-8.3892841078341007232666015625">
        <ele>412.79998779296875</ele>
        <time>2019-05-02T10:30:43.000Z</time>
      </trkpt>
      <trkpt lat="41.52277627028524875640869140625" lon="-8.3891491591930389404296875">
        <ele>413</ele>
        <time>2019-05-02T10:31:00.000Z</time>
      </trkpt>
      <trkpt lat="41.52285640127956867218017578125" lon="-8.38912225328385829925537109375">
        <ele>412.600006103515625</ele>
        <time>2019-05-02T10:31:06.000Z</time>
      </trkpt>
      <trkpt lat="41.52312613092362880706787109375" lon="-8.38899417780339717864990234375">
        <ele>411.79998779296875</ele>
        <time>2019-05-02T10:31:24.000Z</time>
      </trkpt>
      <trkpt lat="41.52319553308188915252685546875" lon="-8.38900188915431499481201171875">
        <ele>410.600006103515625</ele>
        <time>2019-05-02T10:31:31.000Z</time>
      </trkpt>
      <trkpt lat="41.52327583171427249908447265625" lon="-8.38910347782075405120849609375">
        <ele>406.399993896484375</ele>
        <time>2019-05-02T10:32:17.000Z</time>
      </trkpt>
      <trkpt lat="41.523343138396739959716796875" lon="-8.3891339041292667388916015625">
        <ele>404.20001220703125</ele>
        <time>2019-05-02T10:32:25.000Z</time>
      </trkpt>
      <trkpt lat="41.52337742038071155548095703125" lon="-8.389130719006061553955078125">
        <ele>403.399993896484375</ele>
        <time>2019-05-02T10:32:42.000Z</time>
      </trkpt>
      <trkpt lat="41.52356919832527637481689453125" lon="-8.38904296047985553741455078125">
        <ele>400.20001220703125</ele>
        <time>2019-05-02T10:32:47.000Z</time>
      </trkpt>
      <trkpt lat="41.52368000708520412445068359375" lon="-8.38897204957902431488037109375">
        <ele>399</ele>
        <time>2019-05-02T10:32:49.000Z</time>
      </trkpt>
      <trkpt lat="41.524113602936267852783203125" lon="-8.3885361067950725555419921875">
        <ele>402</ele>
        <time>2019-05-02T10:32:57.000Z</time>
      </trkpt>
      <trkpt lat="41.52417822740972042083740234375" lon="-8.38849260471761226654052734375">
        <ele>403</ele>
        <time>2019-05-02T10:32:58.000Z</time>
      </trkpt>
      <trkpt lat="41.52452657930552959442138671875" lon="-8.38846854865550994873046875">
        <ele>402.399993896484375</ele>
        <time>2019-05-02T10:33:03.000Z</time>
      </trkpt>
      <trkpt lat="41.5245960652828216552734375" lon="-8.38850534521043300628662109375">
        <ele>401.20001220703125</ele>
        <time>2019-05-02T10:33:04.000Z</time>
      </trkpt>
      <trkpt lat="41.52510233223438262939453125" lon="-8.388940282166004180908203125">
        <ele>389.399993896484375</ele>
        <time>2019-05-02T10:33:11.000Z</time>
      </trkpt>
      <trkpt lat="41.52564606629312038421630859375" lon="-8.3890499174594879150390625">
        <ele>387.399993896484375</ele>
        <time>2019-05-02T10:33:17.000Z</time>
      </trkpt>
      <trkpt lat="41.5261338092386722564697265625" lon="-8.38905083946883678436279296875">
        <ele>385</ele>
        <time>2019-05-02T10:33:23.000Z</time>
      </trkpt>
      <trkpt lat="41.5267708338797092437744140625" lon="-8.3892680145800113677978515625">
        <ele>377.79998779296875</ele>
        <time>2019-05-02T10:33:30.000Z</time>
      </trkpt>
      <trkpt lat="41.52732077054679393768310546875" lon="-8.3894497342407703399658203125">
        <ele>372.20001220703125</ele>
        <time>2019-05-02T10:33:36.000Z</time>
      </trkpt>
      <trkpt lat="41.52789962477982044219970703125" lon="-8.3895486406981945037841796875">
        <ele>365.79998779296875</ele>
        <time>2019-05-02T10:33:42.000Z</time>
      </trkpt>
      <trkpt lat="41.52851887978613376617431640625" lon="-8.3896146900951862335205078125">
        <ele>359.600006103515625</ele>
        <time>2019-05-02T10:33:48.000Z</time>
      </trkpt>
      <trkpt lat="41.52907468378543853759765625" lon="-8.38968518190085887908935546875">
        <ele>355.399993896484375</ele>
        <time>2019-05-02T10:33:54.000Z</time>
      </trkpt>
      <trkpt lat="41.5292374603450298309326171875" lon="-8.38973044417798519134521484375">
        <ele>354.20001220703125</ele>
        <time>2019-05-02T10:33:56.000Z</time>
      </trkpt>
      <trkpt lat="41.5294775180518627166748046875" lon="-8.3903345279395580291748046875">
        <ele>348.399993896484375</ele>
        <time>2019-05-02T10:34:03.000Z</time>
      </trkpt>
      <trkpt lat="41.52946301735937595367431640625" lon="-8.3904444985091686248779296875">
        <ele>346.600006103515625</ele>
        <time>2019-05-02T10:34:04.000Z</time>
      </trkpt>
      <trkpt lat="41.52934868820011615753173828125" lon="-8.3911572955548763275146484375">
        <ele>341.600006103515625</ele>
        <time>2019-05-02T10:34:10.000Z</time>
      </trkpt>
      <trkpt lat="41.52922622859477996826171875" lon="-8.39191225357353687286376953125">
        <ele>329.399993896484375</ele>
        <time>2019-05-02T10:34:16.000Z</time>
      </trkpt>
      <trkpt lat="41.5291978977620601654052734375" lon="-8.39213755913078784942626953125">
        <ele>327</ele>
        <time>2019-05-02T10:34:18.000Z</time>
      </trkpt>
      <trkpt lat="41.5293447487056255340576171875" lon="-8.392663188278675079345703125">
        <ele>322.600006103515625</ele>
        <time>2019-05-02T10:34:23.000Z</time>
      </trkpt>
      <trkpt lat="41.5296880714595317840576171875" lon="-8.39333935640752315521240234375">
        <ele>319.600006103515625</ele>
        <time>2019-05-02T10:34:30.000Z</time>
      </trkpt>
      <trkpt lat="41.5300645865499973297119140625" lon="-8.393884599208831787109375">
        <ele>311.600006103515625</ele>
        <time>2019-05-02T10:34:36.000Z</time>
      </trkpt>
      <trkpt lat="41.5302064083516597747802734375" lon="-8.3940413407981395721435546875">
        <ele>308.399993896484375</ele>
        <time>2019-05-02T10:34:38.000Z</time>
      </trkpt>
      <trkpt lat="41.53055123984813690185546875" lon="-8.3942062966525554656982421875">
        <ele>306.399993896484375</ele>
        <time>2019-05-02T10:34:42.000Z</time>
      </trkpt>
      <trkpt lat="41.53112313710153102874755859375" lon="-8.3942502178251743316650390625">
        <ele>306.600006103515625</ele>
        <time>2019-05-02T10:34:48.000Z</time>
      </trkpt>
      <trkpt lat="41.53172026388347148895263671875" lon="-8.39433185756206512451171875">
        <ele>303</ele>
        <time>2019-05-02T10:34:55.000Z</time>
      </trkpt>
      <trkpt lat="41.53214220888912677764892578125" lon="-8.39446127414703369140625">
        <ele>295.399993896484375</ele>
        <time>2019-05-02T10:35:00.000Z</time>
      </trkpt>
      <trkpt lat="41.53254705481231212615966796875" lon="-8.3949687145650386810302734375">
        <ele>286.79998779296875</ele>
        <time>2019-05-02T10:35:06.000Z</time>
      </trkpt>
      <trkpt lat="41.532674543559551239013671875" lon="-8.39569500647485256195068359375">
        <ele>281.20001220703125</ele>
        <time>2019-05-02T10:35:12.000Z</time>
      </trkpt>
      <trkpt lat="41.53267010115087032318115234375" lon="-8.39583246968686580657958984375">
        <ele>280.399993896484375</ele>
        <time>2019-05-02T10:35:13.000Z</time>
      </trkpt>
      <trkpt lat="41.53264202177524566650390625" lon="-8.39661600999534130096435546875">
        <ele>277.20001220703125</ele>
        <time>2019-05-02T10:35:20.000Z</time>
      </trkpt>
      <trkpt lat="41.53285668231546878814697265625" lon="-8.39694441296160221099853515625">
        <ele>275.399993896484375</ele>
        <time>2019-05-02T10:35:25.000Z</time>
      </trkpt>
      <trkpt lat="41.533304192125797271728515625" lon="-8.3974158950150012969970703125">
        <ele>274.20001220703125</ele>
        <time>2019-05-02T10:35:34.000Z</time>
      </trkpt>
      <trkpt lat="41.53372429311275482177734375" lon="-8.3978752233088016510009765625">
        <ele>273.600006103515625</ele>
        <time>2019-05-02T10:35:47.000Z</time>
      </trkpt>
      <trkpt lat="41.53414833359420299530029296875" lon="-8.3983947336673736572265625">
        <ele>273</ele>
        <time>2019-05-02T10:35:59.000Z</time>
      </trkpt>
      <trkpt lat="41.5343883074820041656494140625" lon="-8.39862079359591007232666015625">
        <ele>269.79998779296875</ele>
        <time>2019-05-02T10:36:05.000Z</time>
      </trkpt>
      <trkpt lat="41.53450691141188144683837890625" lon="-8.39867703616619110107421875">
        <ele>267.79998779296875</ele>
        <time>2019-05-02T10:36:08.000Z</time>
      </trkpt>
      <trkpt lat="41.53469600714743137359619140625" lon="-8.3987422473728656768798828125">
        <ele>264.600006103515625</ele>
        <time>2019-05-02T10:36:12.000Z</time>
      </trkpt>
      <trkpt lat="41.5348560176789760589599609375" lon="-8.39883268810808658599853515625">
        <ele>261.79998779296875</ele>
        <time>2019-05-02T10:36:15.000Z</time>
      </trkpt>
      <trkpt lat="41.5349985100328922271728515625" lon="-8.39893243275582790374755859375">
        <ele>259.20001220703125</ele>
        <time>2019-05-02T10:36:18.000Z</time>
      </trkpt>
      <trkpt lat="41.5351691655814647674560546875" lon="-8.3990235440433025360107421875">
        <ele>256.20001220703125</ele>
        <time>2019-05-02T10:36:23.000Z</time>
      </trkpt>
      <trkpt lat="41.5351386554539203643798828125" lon="-8.3987747691571712493896484375">
        <ele>256.600006103515625</ele>
        <time>2019-05-02T10:36:29.000Z</time>
      </trkpt>
      <trkpt lat="41.5350695885717868804931640625" lon="-8.3986151777207851409912109375">
        <ele>257.79998779296875</ele>
        <time>2019-05-02T10:36:32.000Z</time>
      </trkpt>
      <trkpt lat="41.53503195382654666900634765625" lon="-8.39844427071511745452880859375">
        <ele>258.399993896484375</ele>
        <time>2019-05-02T10:36:36.000Z</time>
      </trkpt>
      <trkpt lat="41.53523462824523448944091796875" lon="-8.39856564067304134368896484375">
        <ele>254.8000030517578125</ele>
        <time>2019-05-02T10:36:42.000Z</time>
      </trkpt>
      <trkpt lat="41.53536622412502765655517578125" lon="-8.3986929617822170257568359375">
        <ele>252.600006103515625</ele>
        <time>2019-05-02T10:36:45.000Z</time>
      </trkpt>
      <trkpt lat="41.53553972952067852020263671875" lon="-8.39888582937419414520263671875">
        <ele>250.399993896484375</ele>
        <time>2019-05-02T10:36:49.000Z</time>
      </trkpt>
      <trkpt lat="41.53567518107593059539794921875" lon="-8.39917902834713459014892578125">
        <ele>249.399993896484375</ele>
        <time>2019-05-02T10:36:56.000Z</time>
      </trkpt>
      <trkpt lat="41.53581717051565647125244140625" lon="-8.3990926109254360198974609375">
        <ele>247</ele>
        <time>2019-05-02T10:37:03.000Z</time>
      </trkpt>
      <trkpt lat="41.5358786098659038543701171875" lon="-8.3990493603050708770751953125">
        <ele>245.8000030517578125</ele>
        <time>2019-05-02T10:37:07.000Z</time>
      </trkpt>
      <trkpt lat="41.5358846448361873626708984375" lon="-8.399050198495388031005859375">
        <ele>245.8000030517578125</ele>
        <time>2019-05-02T10:37:09.000Z</time>
      </trkpt>
      <trkpt lat="41.53594658710062503814697265625" lon="-8.39902044273912906646728515625">
        <ele>244.600006103515625</ele>
        <time>2019-05-02T10:37:20.000Z</time>
      </trkpt>
      <trkpt lat="41.535977683961391448974609375" lon="-8.39901373721659183502197265625">
        <ele>244.1999969482421875</ele>
        <time>2019-05-02T10:37:25.000Z</time>
      </trkpt>
      <trkpt lat="41.53601146303117275238037109375" lon="-8.39900828897953033447265625">
        <ele>243.600006103515625</ele>
        <time>2019-05-02T10:37:28.000Z</time>
      </trkpt>
      <trkpt lat="41.53626275248825550079345703125" lon="-8.39899144135415554046630859375">
        <ele>239.399993896484375</ele>
        <time>2019-05-02T10:37:34.000Z</time>
      </trkpt>
      <trkpt lat="41.53646894730627536773681640625" lon="-8.39901792816817760467529296875">
        <ele>236</ele>
        <time>2019-05-02T10:37:38.000Z</time>
      </trkpt>
      <trkpt lat="41.5367164649069309234619140625" lon="-8.39911515824496746063232421875">
        <ele>233.8000030517578125</ele>
        <time>2019-05-02T10:37:43.000Z</time>
      </trkpt>
      <trkpt lat="41.53679148294031620025634765625" lon="-8.39917718432843685150146484375">
        <ele>232.600006103515625</ele>
        <time>2019-05-02T10:37:45.000Z</time>
      </trkpt>
      <trkpt lat="41.53676818124949932098388671875" lon="-8.39978503994643688201904296875">
        <ele>232</ele>
        <time>2019-05-02T10:38:02.000Z</time>
      </trkpt>
      <trkpt lat="41.53657279908657073974609375" lon="-8.4002747945487499237060546875">
        <ele>233.8000030517578125</ele>
        <time>2019-05-02T10:38:14.000Z</time>
      </trkpt>
      <trkpt lat="41.536703221499919891357421875" lon="-8.40064636431634426116943359375">
        <ele>231.399993896484375</ele>
        <time>2019-05-02T10:38:21.000Z</time>
      </trkpt>
      <trkpt lat="41.53675912879407405853271484375" lon="-8.40074208565056324005126953125">
        <ele>230.399993896484375</ele>
        <time>2019-05-02T10:38:23.000Z</time>
      </trkpt>
      <trkpt lat="41.5370460413396358489990234375" lon="-8.4012122265994548797607421875">
        <ele>224.399993896484375</ele>
        <time>2019-05-02T10:38:36.000Z</time>
      </trkpt>
      <trkpt lat="41.53672778047621250152587890625" lon="-8.40178462676703929901123046875">
        <ele>229.399993896484375</ele>
        <time>2019-05-02T10:38:53.000Z</time>
      </trkpt>
      <trkpt lat="41.53668276965618133544921875" lon="-8.40185604058206081390380859375">
        <ele>230</ele>
        <time>2019-05-02T10:38:55.000Z</time>
      </trkpt>
      <trkpt lat="41.536555700004100799560546875" lon="-8.4019665978848934173583984375">
        <ele>231.1999969482421875</ele>
        <time>2019-05-02T10:38:59.000Z</time>
      </trkpt>
      <trkpt lat="41.5361635945737361907958984375" lon="-8.40206022374331951141357421875">
        <ele>234.399993896484375</ele>
        <time>2019-05-02T10:39:14.000Z</time>
      </trkpt>
      <trkpt lat="41.53616770170629024505615234375" lon="-8.40279011987149715423583984375">
        <ele>233.1999969482421875</ele>
        <time>2019-05-02T10:39:28.000Z</time>
      </trkpt>
      <trkpt lat="41.536174826323986053466796875" lon="-8.403111398220062255859375">
        <ele>232.8000030517578125</ele>
        <time>2019-05-02T10:39:35.000Z</time>
      </trkpt>
      <trkpt lat="41.5362806059420108795166015625" lon="-8.4031502902507781982421875">
        <ele>232</ele>
        <time>2019-05-02T10:39:40.000Z</time>
      </trkpt>
      <trkpt lat="41.53645017184317111968994140625" lon="-8.40296295471489429473876953125">
        <ele>231</ele>
        <time>2019-05-02T10:39:46.000Z</time>
      </trkpt>
      <trkpt lat="41.536531560122966766357421875" lon="-8.40323276817798614501953125">
        <ele>230</ele>
        <time>2019-05-02T10:39:53.000Z</time>
      </trkpt>
      <trkpt lat="41.5361977927386760711669921875" lon="-8.4037935175001621246337890625">
        <ele>234</ele>
        <time>2019-05-02T10:40:15.000Z</time>
      </trkpt>
      <trkpt lat="41.536438353359699249267578125" lon="-8.40435870923101902008056640625">
        <ele>233.8000030517578125</ele>
        <time>2019-05-02T10:40:28.000Z</time>
      </trkpt>
      <trkpt lat="41.53654891066253185272216796875" lon="-8.4045965038239955902099609375">
        <ele>234.8000030517578125</ele>
        <time>2019-05-02T10:40:32.000Z</time>
      </trkpt>
      <trkpt lat="41.53685367666184902191162109375" lon="-8.4047757089138031005859375">
        <ele>232.600006103515625</ele>
        <time>2019-05-02T10:40:38.000Z</time>
      </trkpt>
      <trkpt lat="41.53727830387651920318603515625" lon="-8.4048928879201412200927734375">
        <ele>228</ele>
        <time>2019-05-02T10:40:45.000Z</time>
      </trkpt>
      <trkpt lat="41.537615843117237091064453125" lon="-8.40495231561362743377685546875">
        <ele>224.1999969482421875</ele>
        <time>2019-05-02T10:40:50.000Z</time>
      </trkpt>
      <trkpt lat="41.53808380477130413055419921875" lon="-8.40529329143464565277099609375">
        <ele>222.600006103515625</ele>
        <time>2019-05-02T10:40:58.000Z</time>
      </trkpt>
      <trkpt lat="41.53845914639532566070556640625" lon="-8.405809365212917327880859375">
        <ele>216.399993896484375</ele>
        <time>2019-05-02T10:41:10.000Z</time>
      </trkpt>
      <trkpt lat="41.5386101044714450836181640625" lon="-8.40596216730773448944091796875">
        <ele>212.1999969482421875</ele>
        <time>2019-05-02T10:41:18.000Z</time>
      </trkpt>
      <trkpt lat="41.5387026406824588775634765625" lon="-8.40605579316616058349609375">
        <ele>209.600006103515625</ele>
        <time>2019-05-02T10:41:48.000Z</time>
      </trkpt>
      <trkpt lat="41.53910120017826557159423828125" lon="-8.40659667737782001495361328125">
        <ele>200.8000030517578125</ele>
        <time>2019-05-02T10:42:06.000Z</time>
      </trkpt>
      <trkpt lat="41.53917093761265277862548828125" lon="-8.40670597739517688751220703125">
        <ele>200</ele>
        <time>2019-05-02T10:42:08.000Z</time>
      </trkpt>
      <trkpt lat="41.5391743741929531097412109375" lon="-8.40714384801685810089111328125">
        <ele>200</ele>
        <time>2019-05-02T10:42:16.000Z</time>
      </trkpt>
      <trkpt lat="41.539110504090785980224609375" lon="-8.4071628749370574951171875">
        <ele>200.399993896484375</ele>
        <time>2019-05-02T10:42:20.000Z</time>
      </trkpt>
      <trkpt lat="41.53927923180162906646728515625" lon="-8.40701200067996978759765625">
        <ele>199.399993896484375</ele>
        <time>2019-05-02T10:42:31.000Z</time>
      </trkpt>
      <trkpt lat="41.53935332782566547393798828125" lon="-8.40705734677612781524658203125">
        <ele>199</ele>
        <time>2019-05-02T10:42:33.000Z</time>
      </trkpt>
      <trkpt lat="41.53945893980562686920166015625" lon="-8.40723370201885700225830078125">
        <ele>198.1999969482421875</ele>
        <time>2019-05-02T10:42:37.000Z</time>
      </trkpt>
      <trkpt lat="41.53958131559193134307861328125" lon="-8.40748968534171581268310546875">
        <ele>197.600006103515625</ele>
        <time>2019-05-02T10:42:42.000Z</time>
      </trkpt>
      <trkpt lat="41.53987099416553974151611328125" lon="-8.40814791619777679443359375">
        <ele>197.1999969482421875</ele>
        <time>2019-05-02T10:42:56.000Z</time>
      </trkpt>
      <trkpt lat="41.53998079709708690643310546875" lon="-8.40823366306722164154052734375">
        <ele>197.399993896484375</ele>
        <time>2019-05-02T10:43:03.000Z</time>
      </trkpt>
      <trkpt lat="41.540005020797252655029296875" lon="-8.408254869282245635986328125">
        <ele>197.399993896484375</ele>
        <time>2019-05-02T10:43:06.000Z</time>
      </trkpt>
      <trkpt lat="41.5400469303131103515625" lon="-8.408304490149021148681640625">
        <ele>197.600006103515625</ele>
        <time>2019-05-02T10:43:08.000Z</time>
      </trkpt>
      <trkpt lat="41.5400564856827259063720703125" lon="-8.4085024707019329071044921875">
        <ele>197.600006103515625</ele>
        <time>2019-05-02T10:43:12.000Z</time>
      </trkpt>
      <trkpt lat="41.54003226198256015777587890625" lon="-8.40927310287952423095703125">
        <ele>195</ele>
        <time>2019-05-02T10:43:22.000Z</time>
      </trkpt>
      <trkpt lat="41.5400343574583530426025390625" lon="-8.4100484289228916168212890625">
        <ele>193.8000030517578125</ele>
        <time>2019-05-02T10:43:31.000Z</time>
      </trkpt>
      <trkpt lat="41.5400403924286365509033203125" lon="-8.41018882580101490020751953125">
        <ele>193.8000030517578125</ele>
        <time>2019-05-02T10:43:33.000Z</time>
      </trkpt>
      <trkpt lat="41.540082134306430816650390625" lon="-8.4109355695545673370361328125">
        <ele>193.399993896484375</ele>
        <time>2019-05-02T10:43:44.000Z</time>
      </trkpt>
      <trkpt lat="41.5400772728025913238525390625" lon="-8.4113999269902706146240234375">
        <ele>194.8000030517578125</ele>
        <time>2019-05-02T10:43:51.000Z</time>
      </trkpt>
      <trkpt lat="41.540119349956512451171875" lon="-8.41156966052949428558349609375">
        <ele>195</ele>
        <time>2019-05-02T10:43:55.000Z</time>
      </trkpt>
      <trkpt lat="41.54019436798989772796630859375" lon="-8.411723636090755462646484375">
        <ele>193.600006103515625</ele>
        <time>2019-05-02T10:43:58.000Z</time>
      </trkpt>
      <trkpt lat="41.54035203158855438232421875" lon="-8.41218673624098300933837890625">
        <ele>194.1999969482421875</ele>
        <time>2019-05-02T10:44:05.000Z</time>
      </trkpt>
      <trkpt lat="41.54075997881591320037841796875" lon="-8.4127246029675006866455078125">
        <ele>183</ele>
        <time>2019-05-02T10:44:13.000Z</time>
      </trkpt>
      <trkpt lat="41.54120631515979766845703125" lon="-8.4132409282028675079345703125">
        <ele>183.399993896484375</ele>
        <time>2019-05-02T10:44:21.000Z</time>
      </trkpt>
      <trkpt lat="41.5416537411510944366455078125" lon="-8.41374702751636505126953125">
        <ele>182.1999969482421875</ele>
        <time>2019-05-02T10:44:30.000Z</time>
      </trkpt>
      <trkpt lat="41.5420661307871341705322265625" lon="-8.414269722998142242431640625">
        <ele>181.1999969482421875</ele>
        <time>2019-05-02T10:44:41.000Z</time>
      </trkpt>
      <trkpt lat="41.54227039776742458343505859375" lon="-8.41496835462749004364013671875">
        <ele>179.1999969482421875</ele>
        <time>2019-05-02T10:44:51.000Z</time>
      </trkpt>
      <trkpt lat="41.5423859842121601104736328125" lon="-8.41533514671027660369873046875">
        <ele>176.600006103515625</ele>
        <time>2019-05-02T10:44:56.000Z</time>
      </trkpt>
      <trkpt lat="41.54235136695206165313720703125" lon="-8.415903188288211822509765625">
        <ele>172.600006103515625</ele>
        <time>2019-05-02T10:45:03.000Z</time>
      </trkpt>
      <trkpt lat="41.54235488735139369964599609375" lon="-8.41603855602443218231201171875">
        <ele>171.8000030517578125</ele>
        <time>2019-05-02T10:45:05.000Z</time>
      </trkpt>
      <trkpt lat="41.5423507802188396453857421875" lon="-8.4162064455449581146240234375">
        <ele>171.1999969482421875</ele>
        <time>2019-05-02T10:45:08.000Z</time>
      </trkpt>
      <trkpt lat="41.54244147241115570068359375" lon="-8.41641247272491455078125">
        <ele>170.1999969482421875</ele>
        <time>2019-05-02T10:45:13.000Z</time>
      </trkpt>
      <trkpt lat="41.5425024926662445068359375" lon="-8.41719576157629489898681640625">
        <ele>168</ele>
        <time>2019-05-02T10:45:23.000Z</time>
      </trkpt>
      <trkpt lat="41.5425308234989643096923828125" lon="-8.4175384975969791412353515625">
        <ele>167.399993896484375</ele>
        <time>2019-05-02T10:45:27.000Z</time>
      </trkpt>
      <trkpt lat="41.54252327978610992431640625" lon="-8.41765944845974445343017578125">
        <ele>167.399993896484375</ele>
        <time>2019-05-02T10:45:29.000Z</time>
      </trkpt>
      <trkpt lat="41.54255010187625885009765625" lon="-8.41777679510414600372314453125">
        <ele>166.600006103515625</ele>
        <time>2019-05-02T10:45:35.000Z</time>
      </trkpt>
      <trkpt lat="41.5425757504999637603759765625" lon="-8.417805545032024383544921875">
        <ele>166.399993896484375</ele>
        <time>2019-05-02T10:45:49.000Z</time>
      </trkpt>
      <trkpt lat="41.54258086346089839935302734375" lon="-8.41783043928444385528564453125">
        <ele>166.1999969482421875</ele>
        <time>2019-05-02T10:45:50.000Z</time>
      </trkpt>
      <trkpt lat="41.5426392853260040283203125" lon="-8.4180591814219951629638671875">
        <ele>165</ele>
        <time>2019-05-02T10:45:59.000Z</time>
      </trkpt>
      <trkpt lat="41.54239947907626628875732421875" lon="-8.41859101317822933197021484375">
        <ele>163.600006103515625</ele>
        <time>2019-05-02T10:46:17.000Z</time>
      </trkpt>
      <trkpt lat="41.542374752461910247802734375" lon="-8.41859788633882999420166015625">
        <ele>163.600006103515625</ele>
        <time>2019-05-02T10:46:20.000Z</time>
      </trkpt>
      <trkpt lat="41.5423246286809444427490234375" lon="-8.41860593296587467193603515625">
        <ele>164</ele>
        <time>2019-05-02T10:47:54.000Z</time>
      </trkpt>
      <trkpt lat="41.54230467975139617919921875" lon="-8.41861926019191741943359375">
        <ele>164.1999969482421875</ele>
        <time>2019-05-02T10:47:56.000Z</time>
      </trkpt>
      <trkpt lat="41.54228146187961101531982421875" lon="-8.41863895766437053680419921875">
        <ele>164.399993896484375</ele>
        <time>2019-05-02T10:47:59.000Z</time>
      </trkpt>
      <trkpt lat="41.54223536141216754913330078125" lon="-8.41869142837822437286376953125">
        <ele>164.8000030517578125</ele>
        <time>2019-05-02T10:48:05.000Z</time>
      </trkpt>
      <trkpt lat="41.54215942136943340301513671875" lon="-8.41894556768238544464111328125">
        <ele>165</ele>
        <time>2019-05-02T10:48:13.000Z</time>
      </trkpt>
      <trkpt lat="41.54225170612335205078125" lon="-8.4192370064556598663330078125">
        <ele>163.1999969482421875</ele>
        <time>2019-05-02T10:48:23.000Z</time>
      </trkpt>
      <trkpt lat="41.54230359010398387908935546875" lon="-8.419276736676692962646484375">
        <ele>162.600006103515625</ele>
        <time>2019-05-02T10:48:33.000Z</time>
      </trkpt>
      <trkpt lat="41.5424141474068164825439453125" lon="-8.41952425427734851837158203125">
        <ele>161.600006103515625</ele>
        <time>2019-05-02T10:48:46.000Z</time>
      </trkpt>
      <trkpt lat="41.542440466582775115966796875" lon="-8.41955023817718029022216796875">
        <ele>161.600006103515625</ele>
        <time>2019-05-02T10:48:51.000Z</time>
      </trkpt>
      <trkpt lat="41.54248774051666259765625" lon="-8.41961511410772800445556640625">
        <ele>161.399993896484375</ele>
        <time>2019-05-02T10:48:55.000Z</time>
      </trkpt>
      <trkpt lat="41.542245335876941680908203125" lon="-8.4202803857624530792236328125">
        <ele>161</ele>
        <time>2019-05-02T10:49:10.000Z</time>
      </trkpt>
      <trkpt lat="41.54218406416475772857666015625" lon="-8.42045548371970653533935546875">
        <ele>160.8000030517578125</ele>
        <time>2019-05-02T10:49:13.000Z</time>
      </trkpt>
      <trkpt lat="41.542137376964092254638671875" lon="-8.42072890140116214752197265625">
        <ele>160.399993896484375</ele>
        <time>2019-05-02T10:49:18.000Z</time>
      </trkpt>
      <trkpt lat="41.542245335876941680908203125" lon="-8.42080852948129177093505859375">
        <ele>159.8000030517578125</ele>
        <time>2019-05-02T10:49:22.000Z</time>
      </trkpt>
      <trkpt lat="41.54228632338345050811767578125" lon="-8.42081573791801929473876953125">
        <ele>159.600006103515625</ele>
        <time>2019-05-02T10:49:24.000Z</time>
      </trkpt>
      <trkpt lat="41.54233242385089397430419921875" lon="-8.42065614648163318634033203125">
        <ele>159.8000030517578125</ele>
        <time>2019-05-02T10:49:28.000Z</time>
      </trkpt>
      <trkpt lat="41.542367376387119293212890625" lon="-8.4205363690853118896484375">
        <ele>160</ele>
        <time>2019-05-02T10:49:31.000Z</time>
      </trkpt>
      <trkpt lat="41.5424345992505550384521484375" lon="-8.4203861653804779052734375">
        <ele>160.399993896484375</ele>
        <time>2019-05-02T10:49:36.000Z</time>
      </trkpt>
      <trkpt lat="41.542526297271251678466796875" lon="-8.42016865499317646026611328125">
        <ele>160.8000030517578125</ele>
        <time>2019-05-02T10:49:42.000Z</time>
      </trkpt>
      <trkpt lat="41.54248547740280628204345703125" lon="-8.42038976959884166717529296875">
        <ele>160.1999969482421875</ele>
        <time>2019-05-02T10:49:49.000Z</time>
      </trkpt>
      <trkpt lat="41.5424905903637409210205078125" lon="-8.42052740044891834259033203125">
        <ele>160</ele>
        <time>2019-05-02T10:49:52.000Z</time>
      </trkpt>
      <trkpt lat="41.542465947568416595458984375" lon="-8.42071196995675563812255859375">
        <ele>159.600006103515625</ele>
        <time>2019-05-02T10:49:56.000Z</time>
      </trkpt>
      <trkpt lat="41.54239780269563198089599609375" lon="-8.421116061508655548095703125">
        <ele>158.399993896484375</ele>
        <time>2019-05-02T10:50:04.000Z</time>
      </trkpt>
      <trkpt lat="41.54242512769997119903564453125" lon="-8.421533145010471343994140625">
        <ele>156.399993896484375</ele>
        <time>2019-05-02T10:50:12.000Z</time>
      </trkpt>
      <trkpt lat="41.54237215407192707061767578125" lon="-8.4217026270925998687744140625">
        <ele>155.600006103515625</ele>
        <time>2019-05-02T10:50:15.000Z</time>
      </trkpt>
      <trkpt lat="41.5422562323510646820068359375" lon="-8.421967327594757080078125">
        <ele>155.8000030517578125</ele>
        <time>2019-05-02T10:50:20.000Z</time>
      </trkpt>
      <trkpt lat="41.54192539863288402557373046875" lon="-8.42261298559606075286865234375">
        <ele>159.1999969482421875</ele>
        <time>2019-05-02T10:50:33.000Z</time>
      </trkpt>
      <trkpt lat="41.541627757251262664794921875" lon="-8.42311422340571880340576171875">
        <ele>157</ele>
        <time>2019-05-02T10:50:43.000Z</time>
      </trkpt>
      <trkpt lat="41.54143564403057098388671875" lon="-8.42334908433258533477783203125">
        <ele>156.1999969482421875</ele>
        <time>2019-05-02T10:50:48.000Z</time>
      </trkpt>
      <trkpt lat="41.54135785996913909912109375" lon="-8.42356399632990360260009765625">
        <ele>155.600006103515625</ele>
        <time>2019-05-02T10:50:52.000Z</time>
      </trkpt>
      <trkpt lat="41.54146523214876651763916015625" lon="-8.42407495714724063873291015625">
        <ele>154.399993896484375</ele>
        <time>2019-05-02T10:51:01.000Z</time>
      </trkpt>
      <trkpt lat="41.5414847619831562042236328125" lon="-8.42413212172687053680419921875">
        <ele>154.1999969482421875</ele>
        <time>2019-05-02T10:51:02.000Z</time>
      </trkpt>
      <trkpt lat="41.54151066206395626068115234375" lon="-8.42451651580631732940673828125">
        <ele>154.399993896484375</ele>
        <time>2019-05-02T10:51:08.000Z</time>
      </trkpt>
      <trkpt lat="41.541482917964458465576171875" lon="-8.4247455932199954986572265625">
        <ele>155</ele>
        <time>2019-05-02T10:51:14.000Z</time>
      </trkpt>
      <trkpt lat="41.54148099012672901153564453125" lon="-8.42474483884871006011962890625">
        <ele>155</ele>
        <time>2019-05-02T10:51:16.000Z</time>
      </trkpt>
      <trkpt lat="41.541484929621219635009765625" lon="-8.4247932024300098419189453125">
        <ele>155.1999969482421875</ele>
        <time>2019-05-02T10:51:24.000Z</time>
      </trkpt>
      <trkpt lat="41.541476212441921234130859375" lon="-8.425089083611965179443359375">
        <ele>155.8000030517578125</ele>
        <time>2019-05-02T10:51:33.000Z</time>
      </trkpt>
      <trkpt lat="41.54144863598048686981201171875" lon="-8.4251854754984378814697265625">
        <ele>156.1999969482421875</ele>
        <time>2019-05-02T10:51:39.000Z</time>
      </trkpt>
      <trkpt lat="41.54145433567464351654052734375" lon="-8.42519343830645084381103515625">
        <ele>156.1999969482421875</ele>
        <time>2019-05-02T10:51:43.000Z</time>
      </trkpt>
      <trkpt lat="41.54150932095944881439208984375" lon="-8.425178267061710357666015625">
        <ele>156</ele>
        <time>2019-05-02T10:51:47.000Z</time>
      </trkpt>
      <trkpt lat="41.54179179109632968902587890625" lon="-8.4251926839351654052734375">
        <ele>157.8000030517578125</ele>
        <time>2019-05-02T10:51:59.000Z</time>
      </trkpt>
      <trkpt lat="41.5417925454676151275634765625" lon="-8.42519729398190975189208984375">
        <ele>157.8000030517578125</ele>
        <time>2019-05-02T10:52:01.000Z</time>
      </trkpt>
      <trkpt lat="41.54180453158915042877197265625" lon="-8.42521757818758487701416015625">
        <ele>158</ele>
        <time>2019-05-02T10:52:04.000Z</time>
      </trkpt>
      <trkpt lat="41.5418274141848087310791015625" lon="-8.42522545717656612396240234375">
        <ele>158</ele>
        <time>2019-05-02T10:52:05.000Z</time>
      </trkpt>
      <trkpt lat="41.542002260684967041015625" lon="-8.4252324141561985015869140625">
        <ele>159.1999969482421875</ele>
        <time>2019-05-02T10:52:11.000Z</time>
      </trkpt>
      <trkpt lat="41.54219144023954868316650390625" lon="-8.4252082742750644683837890625">
        <ele>160.1999969482421875</ele>
        <time>2019-05-02T10:52:19.000Z</time>
      </trkpt>
      <trkpt lat="41.54219848103821277618408203125" lon="-8.42520232312381267547607421875">
        <ele>160.1999969482421875</ele>
        <time>2019-05-02T10:52:21.000Z</time>
      </trkpt>
      <trkpt lat="41.5422163344919681549072265625" lon="-8.42519938945770263671875">
        <ele>160.399993896484375</ele>
        <time>2019-05-02T10:52:36.000Z</time>
      </trkpt>
      <trkpt lat="41.5423209406435489654541015625" lon="-8.42521623708307743072509765625">
        <ele>161</ele>
        <time>2019-05-02T10:52:40.000Z</time>
      </trkpt>
      <trkpt lat="41.5428550355136394500732421875" lon="-8.4253849647939205169677734375">
        <ele>160.600006103515625</ele>
        <time>2019-05-02T10:52:59.000Z</time>
      </trkpt>
      <trkpt lat="41.5434152819216251373291015625" lon="-8.4254513494670391082763671875">
        <ele>161.600006103515625</ele>
        <time>2019-05-02T10:53:18.000Z</time>
      </trkpt>
      <trkpt lat="41.54361753724515438079833984375" lon="-8.42552192509174346923828125">
        <ele>162.399993896484375</ele>
        <time>2019-05-02T10:53:27.000Z</time>
      </trkpt>
      <trkpt lat="41.544171161949634552001953125" lon="-8.42558571137487888336181640625">
        <ele>165.8000030517578125</ele>
        <time>2019-05-02T10:53:50.000Z</time>
      </trkpt>
      <trkpt lat="41.544428654015064239501953125" lon="-8.42560482211410999298095703125">
        <ele>167.600006103515625</ele>
        <time>2019-05-02T10:54:01.000Z</time>
      </trkpt>
      <trkpt lat="41.54444885440170764923095703125" lon="-8.4255807660520076751708984375">
        <ele>167.600006103515625</ele>
        <time>2019-05-02T10:54:04.000Z</time>
      </trkpt>
      <trkpt lat="41.54448171146214008331298828125" lon="-8.4255733899772167205810546875">
        <ele>167.8000030517578125</ele>
        <time>2019-05-02T10:54:08.000Z</time>
      </trkpt>
      <trkpt lat="41.545003987848758697509765625" lon="-8.42578939162194728851318359375">
        <ele>169.600006103515625</ele>
        <time>2019-05-02T10:54:31.000Z</time>
      </trkpt>
      <trkpt lat="41.545539759099483489990234375" lon="-8.4258898906409740447998046875">
        <ele>174.399993896484375</ele>
        <time>2019-05-02T10:54:57.000Z</time>
      </trkpt>
      <trkpt lat="41.546076200902462005615234375" lon="-8.4260072372853755950927734375">
        <ele>178.399993896484375</ele>
        <time>2019-05-02T10:55:24.000Z</time>
      </trkpt>
      <trkpt lat="41.54623604379594326019287109375" lon="-8.42603364028036594390869140625">
        <ele>179.399993896484375</ele>
        <time>2019-05-02T10:55:34.000Z</time>
      </trkpt>
      <trkpt lat="41.54627594165503978729248046875" lon="-8.42603498138487339019775390625">
        <ele>179.600006103515625</ele>
        <time>2019-05-02T10:55:50.000Z</time>
      </trkpt>
      <trkpt lat="41.54682696796953678131103515625" lon="-8.42614763416349887847900390625">
        <ele>184.8000030517578125</ele>
        <time>2019-05-02T10:56:14.000Z</time>
      </trkpt>
      <trkpt lat="41.54700952582061290740966796875" lon="-8.42621468938887119293212890625">
        <ele>187</ele>
        <time>2019-05-02T10:56:25.000Z</time>
      </trkpt>
      <trkpt lat="41.54738134704530239105224609375" lon="-8.42623799107968807220458984375">
        <ele>191</ele>
        <time>2019-05-02T10:56:48.000Z</time>
      </trkpt>
      <trkpt lat="41.5474670939147472381591796875" lon="-8.4262459538877010345458984375">
        <ele>191.600006103515625</ele>
        <time>2019-05-02T10:56:53.000Z</time>
      </trkpt>
      <trkpt lat="41.54787185601890087127685546875" lon="-8.4262975864112377166748046875">
        <ele>193.600006103515625</ele>
        <time>2019-05-02T10:57:16.000Z</time>
      </trkpt>
      <trkpt lat="41.5479492209851741790771484375" lon="-8.42618308961391448974609375">
        <ele>193.600006103515625</ele>
        <time>2019-05-02T10:57:21.000Z</time>
      </trkpt>
      <trkpt lat="41.54806933365762233734130859375" lon="-8.42599106021225452423095703125">
        <ele>193.600006103515625</ele>
        <time>2019-05-02T10:57:31.000Z</time>
      </trkpt>
      <trkpt lat="41.54811241663992404937744140625" lon="-8.42602215707302093505859375">
        <ele>193.8000030517578125</ele>
        <time>2019-05-02T10:57:37.000Z</time>
      </trkpt>
      <trkpt lat="41.5481024421751499176025390625" lon="-8.426086194813251495361328125">
        <ele>193.8000030517578125</ele>
        <time>2019-05-02T10:58:28.000Z</time>
      </trkpt>
      <trkpt lat="41.54806665144860744476318359375" lon="-8.42624469660222530364990234375">
        <ele>193.600006103515625</ele>
        <time>2019-05-02T10:58:34.000Z</time>
      </trkpt>
      <trkpt lat="41.5480601973831653594970703125" lon="-8.42640127055346965789794921875">
        <ele>193.600006103515625</ele>
        <time>2019-05-02T10:58:43.000Z</time>
      </trkpt>
      <trkpt lat="41.54806162230670452117919921875" lon="-8.42639691196382045745849609375">
        <ele>193.600006103515625</ele>
        <time>2019-05-02T10:58:44.000Z</time>
      </trkpt>
      <trkpt lat="41.548077128827571868896484375" lon="-8.42642390169203281402587890625">
        <ele>193.399993896484375</ele>
        <time>2019-05-02T10:58:58.000Z</time>
      </trkpt>
      <trkpt lat="41.54815214686095714569091796875" lon="-8.4265007637441158294677734375">
        <ele>193.399993896484375</ele>
        <time>2019-05-02T10:59:03.000Z</time>
      </trkpt>
      <trkpt lat="41.5482291765511035919189453125" lon="-8.426583074033260345458984375">
        <ele>193.1999969482421875</ele>
        <time>2019-05-02T10:59:08.000Z</time>
      </trkpt>
      <trkpt lat="41.5482546575367450714111328125" lon="-8.42663445509970188140869140625">
        <ele>193.1999969482421875</ele>
        <time>2019-05-02T10:59:10.000Z</time>
      </trkpt>
      <trkpt lat="41.54836856760084629058837890625" lon="-8.42680242843925952911376953125">
        <ele>193.1999969482421875</ele>
        <time>2019-05-02T10:59:18.000Z</time>
      </trkpt>
      <trkpt lat="41.54835641384124755859375" lon="-8.42680645175278186798095703125">
        <ele>193.1999969482421875</ele>
        <time>2019-05-02T10:59:21.000Z</time>
      </trkpt>
      <trkpt lat="41.548341326415538787841796875" lon="-8.42684182338416576385498046875">
        <ele>193.1999969482421875</ele>
        <time>2019-05-02T10:59:50.000Z</time>
      </trkpt>
      <trkpt lat="41.54833604581654071807861328125" lon="-8.426898233592510223388671875">
        <ele>193.1999969482421875</ele>
        <time>2019-05-02T10:59:53.000Z</time>
      </trkpt>
      <trkpt lat="41.54833428561687469482421875" lon="-8.42689387500286102294921875">
        <ele>193.1999969482421875</ele>
        <time>2019-05-02T10:59:54.000Z</time>
      </trkpt>
      <trkpt lat="41.5483550727367401123046875" lon="-8.4268903546035289764404296875">
        <ele>193.1999969482421875</ele>
        <time>2019-05-02T11:00:30.000Z</time>
      </trkpt>
      <trkpt lat="41.5483792126178741455078125" lon="-8.4268476068973541259765625">
        <ele>193.1999969482421875</ele>
        <time>2019-05-02T11:00:34.000Z</time>
      </trkpt>
      <trkpt lat="41.5483763627707958221435546875" lon="-8.42678683809936046600341796875">
        <ele>193.1999969482421875</ele>
        <time>2019-05-02T11:00:59.000Z</time>
      </trkpt>
      <trkpt lat="41.54849387705326080322265625" lon="-8.42682103626430034637451171875">
        <ele>193.399993896484375</ele>
        <time>2019-05-02T11:01:13.000Z</time>
      </trkpt>
      <trkpt lat="41.548550538718700408935546875" lon="-8.4268289990723133087158203125">
        <ele>193.399993896484375</ele>
        <time>2019-05-02T11:01:18.000Z</time>
      </trkpt>
      <trkpt lat="41.54903006739914417266845703125" lon="-8.42705606482923030853271484375">
        <ele>194.1999969482421875</ele>
        <time>2019-05-02T11:01:36.000Z</time>
      </trkpt>
      <trkpt lat="41.549084298312664031982421875" lon="-8.42709009535610675811767578125">
        <ele>194.1999969482421875</ele>
        <time>2019-05-02T11:01:45.000Z</time>
      </trkpt>
      <trkpt lat="41.54955343343317508697509765625" lon="-8.42732763849198818206787109375">
        <ele>192.1999969482421875</ele>
        <time>2019-05-02T11:02:03.000Z</time>
      </trkpt>
      <trkpt lat="41.54961428605020046234130859375" lon="-8.42728941701352596282958984375">
        <ele>192</ele>
        <time>2019-05-02T11:03:10.000Z</time>
      </trkpt>
      <trkpt lat="41.549870185554027557373046875" lon="-8.42751321382820606231689453125">
        <ele>189.399993896484375</ele>
        <time>2019-05-02T11:03:20.000Z</time>
      </trkpt>
      <trkpt lat="41.54981662519276142120361328125" lon="-8.4276852943003177642822265625">
        <ele>189</ele>
        <time>2019-05-02T11:03:58.000Z</time>
      </trkpt>
      <trkpt lat="41.54987161047756671905517578125" lon="-8.42767666094005107879638671875">
        <ele>189</ele>
        <time>2019-05-02T11:04:01.000Z</time>
      </trkpt>
      <trkpt lat="41.54996699653565883636474609375" lon="-8.42762955464422702789306640625">
        <ele>189</ele>
        <time>2019-05-02T11:04:06.000Z</time>
      </trkpt>
      <trkpt lat="41.55007394962012767791748046875" lon="-8.42761798761785030364990234375">
        <ele>188.8000030517578125</ele>
        <time>2019-05-02T11:04:13.000Z</time>
      </trkpt>
      <trkpt lat="41.5501590259373188018798828125" lon="-8.4276212565600872039794921875">
        <ele>188.600006103515625</ele>
        <time>2019-05-02T11:06:07.000Z</time>
      </trkpt>
      <trkpt lat="41.5502485446631908416748046875" lon="-8.427629135549068450927734375">
        <ele>188.600006103515625</ele>
        <time>2019-05-02T11:06:12.000Z</time>
      </trkpt>
      <trkpt lat="41.55029741115868091583251953125" lon="-8.42770063318312168121337890625">
        <ele>188.399993896484375</ele>
        <time>2019-05-02T11:06:16.000Z</time>
      </trkpt>
      <trkpt lat="41.55033043585717678070068359375" lon="-8.4279258549213409423828125">
        <ele>188</ele>
        <time>2019-05-02T11:06:24.000Z</time>
      </trkpt>
      <trkpt lat="41.55031199567019939422607421875" lon="-8.4285415895283222198486328125">
        <ele>185.8000030517578125</ele>
        <time>2019-05-02T11:06:45.000Z</time>
      </trkpt>
      <trkpt lat="41.5503099001944065093994140625" lon="-8.42858861200511455535888671875">
        <ele>185.399993896484375</ele>
        <time>2019-05-02T11:06:50.000Z</time>
      </trkpt>
      <trkpt lat="41.55027712695300579071044921875" lon="-8.42901089228689670562744140625">
        <ele>182.600006103515625</ele>
        <time>2019-05-02T11:07:09.000Z</time>
      </trkpt>
      <trkpt lat="41.55026354826986789703369140625" lon="-8.4290706552565097808837890625">
        <ele>182.399993896484375</ele>
        <time>2019-05-02T11:07:44.000Z</time>
      </trkpt>
      <trkpt lat="41.5502415038645267486572265625" lon="-8.42915455810725688934326171875">
        <ele>182</ele>
        <time>2019-05-02T11:07:48.000Z</time>
      </trkpt>
      <trkpt lat="41.5502393245697021484375" lon="-8.4291945397853851318359375">
        <ele>182</ele>
        <time>2019-05-02T11:08:01.000Z</time>
      </trkpt>
      <trkpt lat="41.550221554934978485107421875" lon="-8.4294377826154232025146484375">
        <ele>180.8000030517578125</ele>
        <time>2019-05-02T11:08:09.000Z</time>
      </trkpt>
      <trkpt lat="41.55023739673197269439697265625" lon="-8.42958957888185977935791015625">
        <ele>180.1999969482421875</ele>
        <time>2019-05-02T11:08:14.000Z</time>
      </trkpt>
      <trkpt lat="41.55028517358005046844482421875" lon="-8.42961489222943782806396484375">
        <ele>180.1999969482421875</ele>
        <time>2019-05-02T11:08:18.000Z</time>
      </trkpt>
      <trkpt lat="41.5503357164561748504638671875" lon="-8.42960550449788570404052734375">
        <ele>180.1999969482421875</ele>
        <time>2019-05-02T11:08:21.000Z</time>
      </trkpt>
      <trkpt lat="41.5504027716815471649169921875" lon="-8.42960047535598278045654296875">
        <ele>180.399993896484375</ele>
        <time>2019-05-02T11:08:26.000Z</time>
      </trkpt>
      <trkpt lat="41.5505854971706867218017578125" lon="-8.429569713771343231201171875">
        <ele>180.600006103515625</ele>
        <time>2019-05-02T11:08:35.000Z</time>
      </trkpt>
      <trkpt lat="41.551089920103549957275390625" lon="-8.4293180890381336212158203125">
        <ele>183.600006103515625</ele>
        <time>2019-05-02T11:08:57.000Z</time>
      </trkpt>
      <trkpt lat="41.5511185862123966217041015625" lon="-8.4293130598962306976318359375">
        <ele>183.600006103515625</ele>
        <time>2019-05-02T11:09:00.000Z</time>
      </trkpt>
      <trkpt lat="41.5511759184300899505615234375" lon="-8.429292775690555572509765625">
        <ele>184</ele>
        <time>2019-05-02T11:09:20.000Z</time>
      </trkpt>
      <trkpt lat="41.55128211714327335357666015625" lon="-8.42920870520174503326416015625">
        <ele>184.600006103515625</ele>
        <time>2019-05-02T11:09:27.000Z</time>
      </trkpt>
      <trkpt lat="41.551363170146942138671875" lon="-8.42912555672228336334228515625">
        <ele>185.1999969482421875</ele>
        <time>2019-05-02T11:09:34.000Z</time>
      </trkpt>
      <trkpt lat="41.55139041133224964141845703125" lon="-8.42910426668822765350341796875">
        <ele>185.399993896484375</ele>
        <time>2019-05-02T11:09:36.000Z</time>
      </trkpt>
      <trkpt lat="41.5514401160180568695068359375" lon="-8.429108373820781707763671875">
        <ele>185.600006103515625</ele>
        <time>2019-05-02T11:09:41.000Z</time>
      </trkpt>
      <trkpt lat="41.55145780183374881744384765625" lon="-8.42912681400775909423828125">
        <ele>185.600006103515625</ele>
        <time>2019-05-02T11:09:45.000Z</time>
      </trkpt>
      <trkpt lat="41.55151966027915477752685546875" lon="-8.4291641972959041595458984375">
        <ele>185.600006103515625</ele>
        <time>2019-05-02T11:09:50.000Z</time>
      </trkpt>
      <trkpt lat="41.55167229473590850830078125" lon="-8.429283387959003448486328125">
        <ele>185</ele>
        <time>2019-05-02T11:09:59.000Z</time>
      </trkpt>
      <trkpt lat="41.55166852287948131561279296875" lon="-8.4294703043997287750244140625">
        <ele>184</ele>
        <time>2019-05-02T11:10:03.000Z</time>
      </trkpt>
      <trkpt lat="41.55168126337230205535888671875" lon="-8.42964179813861846923828125">
        <ele>182.600006103515625</ele>
        <time>2019-05-02T11:10:06.000Z</time>
      </trkpt>
      <trkpt lat="41.5517623163759708404541015625" lon="-8.42989585362374782562255859375">
        <ele>180.8000030517578125</ele>
        <time>2019-05-02T11:10:10.000Z</time>
      </trkpt>
      <trkpt lat="41.5519380010664463043212890625" lon="-8.4305877797305583953857421875">
        <ele>177.399993896484375</ele>
        <time>2019-05-02T11:10:26.000Z</time>
      </trkpt>
      <trkpt lat="41.55197940766811370849609375" lon="-8.430855832993984222412109375">
        <ele>176</ele>
        <time>2019-05-02T11:10:31.000Z</time>
      </trkpt>
      <trkpt lat="41.55205048620700836181640625" lon="-8.43125740997493267059326171875">
        <ele>173.8000030517578125</ele>
        <time>2019-05-02T11:10:40.000Z</time>
      </trkpt>
      <trkpt lat="41.552054174244403839111328125" lon="-8.43128590844571590423583984375">
        <ele>173.600006103515625</ele>
        <time>2019-05-02T11:10:43.000Z</time>
      </trkpt>
      <trkpt lat="41.55215115286409854888916015625" lon="-8.431801311671733856201171875">
        <ele>172.1999969482421875</ele>
        <time>2019-05-02T11:12:23.000Z</time>
      </trkpt>
      <trkpt lat="41.5523886121809482574462890625" lon="-8.4324844367802143096923828125">
        <ele>166.399993896484375</ele>
        <time>2019-05-02T11:12:37.000Z</time>
      </trkpt>
      <trkpt lat="41.5524724312126636505126953125" lon="-8.43275341205298900604248046875">
        <ele>164</ele>
        <time>2019-05-02T11:12:41.000Z</time>
      </trkpt>
      <trkpt lat="41.55252196826040744781494140625" lon="-8.4330356307327747344970703125">
        <ele>160.600006103515625</ele>
        <time>2019-05-02T11:12:45.000Z</time>
      </trkpt>
      <trkpt lat="41.55269077979028224945068359375" lon="-8.4337822906672954559326171875">
        <ele>153</ele>
        <time>2019-05-02T11:12:55.000Z</time>
      </trkpt>
      <trkpt lat="41.55281759798526763916015625" lon="-8.4343086741864681243896484375">
        <ele>147</ele>
        <time>2019-05-02T11:13:02.000Z</time>
      </trkpt>
      <trkpt lat="41.55308372341096401214599609375" lon="-8.4349854290485382080078125">
        <ele>137.1999969482421875</ele>
        <time>2019-05-02T11:13:11.000Z</time>
      </trkpt>
      <trkpt lat="41.553369462490081787109375" lon="-8.43563477508723735809326171875">
        <ele>131</ele>
        <time>2019-05-02T11:13:19.000Z</time>
      </trkpt>
      <trkpt lat="41.553575992584228515625" lon="-8.43629258684813976287841796875">
        <ele>129.8000030517578125</ele>
        <time>2019-05-02T11:13:31.000Z</time>
      </trkpt>
      <trkpt lat="41.55364179052412509918212890625" lon="-8.436440192162990570068359375">
        <ele>129.1999969482421875</ele>
        <time>2019-05-02T11:13:34.000Z</time>
      </trkpt>
      <trkpt lat="41.55375326983630657196044921875" lon="-8.4368618018925189971923828125">
        <ele>125</ele>
        <time>2019-05-02T11:13:40.000Z</time>
      </trkpt>
      <trkpt lat="41.55389827676117420196533203125" lon="-8.43733328394591808319091796875">
        <ele>122</ele>
        <time>2019-05-02T11:13:46.000Z</time>
      </trkpt>
      <trkpt lat="41.554258279502391815185546875" lon="-8.43758122064173221588134765625">
        <ele>120.59999847412109375</ele>
        <time>2019-05-02T11:13:53.000Z</time>
      </trkpt>
      <trkpt lat="41.5547855012118816375732421875" lon="-8.437867127358913421630859375">
        <ele>118.8000030517578125</ele>
        <time>2019-05-02T11:14:04.000Z</time>
      </trkpt>
      <trkpt lat="41.55531900934875011444091796875" lon="-8.43815085478127002716064453125">
        <ele>115.40000152587890625</ele>
        <time>2019-05-02T11:14:14.000Z</time>
      </trkpt>
      <trkpt lat="41.55549821443855762481689453125" lon="-8.4382309019565582275390625">
        <ele>114.1999969482421875</ele>
        <time>2019-05-02T11:14:17.000Z</time>
      </trkpt>
      <trkpt lat="41.55587925575673580169677734375" lon="-8.4381398744881153106689453125">
        <ele>112.59999847412109375</ele>
        <time>2019-05-02T11:14:23.000Z</time>
      </trkpt>
      <trkpt lat="41.55592300929129123687744140625" lon="-8.4381036646664142608642578125">
        <ele>112.59999847412109375</ele>
        <time>2019-05-02T11:14:24.000Z</time>
      </trkpt>
      <trkpt lat="41.5561567805707454681396484375" lon="-8.43770946376025676727294921875">
        <ele>113.1999969482421875</ele>
        <time>2019-05-02T11:14:36.000Z</time>
      </trkpt>
      <trkpt lat="41.5561675094068050384521484375" lon="-8.43766319565474987030029296875">
        <ele>113.40000152587890625</ele>
        <time>2019-05-02T11:15:17.000Z</time>
      </trkpt>
      <trkpt lat="41.5562831796705722808837890625" lon="-8.43701007775962352752685546875">
        <ele>115.8000030517578125</ele>
        <time>2019-05-02T11:15:35.000Z</time>
      </trkpt>
      <trkpt lat="41.5563096664845943450927734375" lon="-8.43699281103909015655517578125">
        <ele>115.59999847412109375</ele>
        <time>2019-05-02T11:15:42.000Z</time>
      </trkpt>
      <trkpt lat="41.55660630203783512115478515625" lon="-8.43717788346111774444580078125">
        <ele>112.1999969482421875</ele>
        <time>2019-05-02T11:15:55.000Z</time>
      </trkpt>
      <trkpt lat="41.55665726400911808013916015625" lon="-8.43721845187246799468994140625">
        <ele>111.40000152587890625</ele>
        <time>2019-05-02T11:15:56.000Z</time>
      </trkpt>
      <trkpt lat="41.5571837313473224639892578125" lon="-8.4374260716140270233154296875">
        <ele>104.59999847412109375</ele>
        <time>2019-05-02T11:16:06.000Z</time>
      </trkpt>
      <trkpt lat="41.55729814432561397552490234375" lon="-8.43738407827913761138916015625">
        <ele>103.40000152587890625</ele>
        <time>2019-05-02T11:16:11.000Z</time>
      </trkpt>
      <trkpt lat="41.55730769969522953033447265625" lon="-8.4373871795833110809326171875">
        <ele>103.40000152587890625</ele>
        <time>2019-05-02T11:16:14.000Z</time>
      </trkpt>
      <trkpt lat="41.5573768503963947296142578125" lon="-8.43733529560267925262451171875">
        <ele>102.59999847412109375</ele>
        <time>2019-05-02T11:16:36.000Z</time>
      </trkpt>
      <trkpt lat="41.55754365026950836181640625" lon="-8.4369944036006927490234375">
        <ele>101.1999969482421875</ele>
        <time>2019-05-02T11:16:49.000Z</time>
      </trkpt>
      <trkpt lat="41.55759938992559909820556640625" lon="-8.43701007775962352752685546875">
        <ele>100.40000152587890625</ele>
        <time>2019-05-02T11:16:54.000Z</time>
      </trkpt>
      <trkpt lat="41.557671390473842620849609375" lon="-8.437039665877819061279296875">
        <ele>99</ele>
        <time>2019-05-02T11:16:58.000Z</time>
      </trkpt>
      <trkpt lat="41.55766443349421024322509765625" lon="-8.4370381571352481842041015625">
        <ele>99.1999969482421875</ele>
        <time>2019-05-02T11:16:59.000Z</time>
      </trkpt>
      <trkpt lat="41.55781396664679050445556640625" lon="-8.43711300753057003021240234375">
        <ele>96.59999847412109375</ele>
        <time>2019-05-02T11:17:21.000Z</time>
      </trkpt>
      <trkpt lat="41.55811571516096591949462890625" lon="-8.43722213990986347198486328125">
        <ele>91.1999969482421875</ele>
        <time>2019-05-02T11:17:29.000Z</time>
      </trkpt>
      <trkpt lat="41.5585607104003429412841796875" lon="-8.4373137541115283966064453125">
        <ele>85.59999847412109375</ele>
        <time>2019-05-02T11:17:43.000Z</time>
      </trkpt>
      <trkpt lat="41.55864461325109004974365234375" lon="-8.43735608272254467010498046875">
        <ele>84.59999847412109375</ele>
        <time>2019-05-02T11:18:02.000Z</time>
      </trkpt>
      <trkpt lat="41.5587151050567626953125" lon="-8.43745901249349117279052734375">
        <ele>83.59999847412109375</ele>
        <time>2019-05-02T11:18:06.000Z</time>
      </trkpt>
      <trkpt lat="41.5590760298073291778564453125" lon="-8.4380496852099895477294921875">
        <ele>78.8000030517578125</ele>
        <time>2019-05-02T11:18:28.000Z</time>
      </trkpt>
      <trkpt lat="41.55947760678827762603759765625" lon="-8.4385485760867595672607421875">
        <ele>77</ele>
        <time>2019-05-02T11:18:44.000Z</time>
      </trkpt>
      <trkpt lat="41.5596037544310092926025390625" lon="-8.43861085362732410430908203125">
        <ele>76.59999847412109375</ele>
        <time>2019-05-02T11:18:53.000Z</time>
      </trkpt>
      <trkpt lat="41.55969503335654735565185546875" lon="-8.43866030685603618621826171875">
        <ele>76.1999969482421875</ele>
        <time>2019-05-02T11:19:06.000Z</time>
      </trkpt>
      <trkpt lat="41.55972638167440891265869140625" lon="-8.43868427909910678863525390625">
        <ele>76</ele>
        <time>2019-05-02T11:19:08.000Z</time>
      </trkpt>
      <trkpt lat="41.55985127203166484832763671875" lon="-8.43869048170745372772216796875">
        <ele>75.8000030517578125</ele>
        <time>2019-05-02T11:19:15.000Z</time>
      </trkpt>
      <trkpt lat="41.5598783455789089202880859375" lon="-8.43868226744234561920166015625">
        <ele>75.59999847412109375</ele>
        <time>2019-05-02T11:19:17.000Z</time>
      </trkpt>
      <trkpt lat="41.5598790161311626434326171875" lon="-8.4386846981942653656005859375">
        <ele>75.59999847412109375</ele>
        <time>2019-05-02T11:19:19.000Z</time>
      </trkpt>
      <trkpt lat="41.559943221509456634521484375" lon="-8.43867388553917407989501953125">
        <ele>75.40000152587890625</ele>
        <time>2019-05-02T11:20:29.000Z</time>
      </trkpt>
      <trkpt lat="41.56001052819192409515380859375" lon="-8.438602052628993988037109375">
        <ele>75.59999847412109375</ele>
        <time>2019-05-02T11:20:33.000Z</time>
      </trkpt>
      <trkpt lat="41.560277827084064483642578125" lon="-8.43798841349780559539794921875">
        <ele>74.40000152587890625</ele>
        <time>2019-05-02T11:20:53.000Z</time>
      </trkpt>
      <trkpt lat="41.56053389422595500946044921875" lon="-8.4377549774944782257080078125">
        <ele>72.8000030517578125</ele>
        <time>2019-05-02T11:21:02.000Z</time>
      </trkpt>
      <trkpt lat="41.56061301939189434051513671875" lon="-8.4375011734664440155029296875">
        <ele>73</ele>
        <time>2019-05-02T11:21:08.000Z</time>
      </trkpt>
      <trkpt lat="41.56090504489839076995849609375" lon="-8.43692793510854244232177734375">
        <ele>73.59999847412109375</ele>
        <time>2019-05-02T11:21:27.000Z</time>
      </trkpt>
      <trkpt lat="41.56134442426264286041259765625" lon="-8.43642200343310832977294921875">
        <ele>75.1999969482421875</ele>
        <time>2019-05-02T11:21:41.000Z</time>
      </trkpt>
      <trkpt lat="41.561568640172481536865234375" lon="-8.436116315424442291259765625">
        <ele>76.59999847412109375</ele>
        <time>2019-05-02T11:21:48.000Z</time>
      </trkpt>
      <trkpt lat="41.56196217052638530731201171875" lon="-8.43561549670994281768798828125">
        <ele>75.1999969482421875</ele>
        <time>2019-05-02T11:22:01.000Z</time>
      </trkpt>
      <trkpt lat="41.56208840198814868927001953125" lon="-8.4355736710131168365478515625">
        <ele>74.40000152587890625</ele>
        <time>2019-05-02T11:22:05.000Z</time>
      </trkpt>
      <trkpt lat="41.562400795519351959228515625" lon="-8.43581532128155231475830078125">
        <ele>72</ele>
        <time>2019-05-02T11:22:11.000Z</time>
      </trkpt>
      <trkpt lat="41.56289339996874332427978515625" lon="-8.43619845807552337646484375">
        <ele>69</ele>
        <time>2019-05-02T11:22:21.000Z</time>
      </trkpt>
      <trkpt lat="41.5631476230919361114501953125" lon="-8.43630348332226276397705078125">
        <ele>68.40000152587890625</ele>
        <time>2019-05-02T11:22:32.000Z</time>
      </trkpt>
      <trkpt lat="41.56324678100645542144775390625" lon="-8.43646827153861522674560546875">
        <ele>67.8000030517578125</ele>
        <time>2019-05-02T11:22:41.000Z</time>
      </trkpt>
      <trkpt lat="41.5635578334331512451171875" lon="-8.4370963275432586669921875">
        <ele>69.40000152587890625</ele>
        <time>2019-05-02T11:22:57.000Z</time>
      </trkpt>
      <trkpt lat="41.56399905681610107421875" lon="-8.437514416873455047607421875">
        <ele>71.1999969482421875</ele>
        <time>2019-05-02T11:23:17.000Z</time>
      </trkpt>
      <trkpt lat="41.56437456607818603515625" lon="-8.43805664218962192535400390625">
        <ele>74.59999847412109375</ele>
        <time>2019-05-02T11:23:41.000Z</time>
      </trkpt>
      <trkpt lat="41.56474529765546321868896484375" lon="-8.4385921619832515716552734375">
        <ele>73.59999847412109375</ele>
        <time>2019-05-02T11:23:56.000Z</time>
      </trkpt>
      <trkpt lat="41.565126590430736541748046875" lon="-8.43914888799190521240234375">
        <ele>71.1999969482421875</ele>
        <time>2019-05-02T11:24:09.000Z</time>
      </trkpt>
      <trkpt lat="41.56531375832855701446533203125" lon="-8.43942590989172458648681640625">
        <ele>71.40000152587890625</ele>
        <time>2019-05-02T11:24:20.000Z</time>
      </trkpt>
      <trkpt lat="41.56532649882137775421142578125" lon="-8.43947452493011951446533203125">
        <ele>71.40000152587890625</ele>
        <time>2019-05-02T11:24:32.000Z</time>
      </trkpt>
      <trkpt lat="41.5653326176106929779052734375" lon="-8.43966814689338207244873046875">
        <ele>71</ele>
        <time>2019-05-02T11:24:38.000Z</time>
      </trkpt>
      <trkpt lat="41.5653376467525959014892578125" lon="-8.43969874083995819091796875">
        <ele>70.8000030517578125</ele>
        <time>2019-05-02T11:24:41.000Z</time>
      </trkpt>
      <trkpt lat="41.56534359790384769439697265625" lon="-8.43973754905164241790771484375">
        <ele>70.59999847412109375</ele>
        <time>2019-05-02T11:26:59.000Z</time>
      </trkpt>
      <trkpt lat="41.56500480137765407562255859375" lon="-8.440303914248943328857421875">
        <ele>67.8000030517578125</ele>
        <time>2019-05-02T11:27:13.000Z</time>
      </trkpt>
      <trkpt lat="41.5648519992828369140625" lon="-8.4405025653541088104248046875">
        <ele>67.1999969482421875</ele>
        <time>2019-05-02T11:27:21.000Z</time>
      </trkpt>
      <trkpt lat="41.56482978723943233489990234375" lon="-8.4404982067644596099853515625">
        <ele>67.1999969482421875</ele>
        <time>2019-05-02T11:27:47.000Z</time>
      </trkpt>
      <trkpt lat="41.5648256801068782806396484375" lon="-8.44043743796646595001220703125">
        <ele>67.40000152587890625</ele>
        <time>2019-05-02T11:27:50.000Z</time>
      </trkpt>
      <trkpt lat="41.5652373991906642913818359375" lon="-8.4399480186402797698974609375">
        <ele>69.40000152587890625</ele>
        <time>2019-05-02T11:28:06.000Z</time>
      </trkpt>
      <trkpt lat="41.5655978210270404815673828125" lon="-8.4394330345094203948974609375">
        <ele>72.40000152587890625</ele>
        <time>2019-05-02T11:28:23.000Z</time>
      </trkpt>
      <trkpt lat="41.56574190594255924224853515625" lon="-8.43972019851207733154296875">
        <ele>71.1999969482421875</ele>
        <time>2019-05-02T11:28:29.000Z</time>
      </trkpt>
      <trkpt lat="41.56576286070048809051513671875" lon="-8.43978415243327617645263671875">
        <ele>71</ele>
        <time>2019-05-02T11:28:30.000Z</time>
      </trkpt>
      <trkpt lat="41.56604566611349582672119140625" lon="-8.4404505975544452667236328125">
        <ele>68.1999969482421875</ele>
        <time>2019-05-02T11:28:41.000Z</time>
      </trkpt>
      <trkpt lat="41.5660970471799373626708984375" lon="-8.4406743943691253662109375">
        <ele>67.59999847412109375</ele>
        <time>2019-05-02T11:28:44.000Z</time>
      </trkpt>
      <trkpt lat="41.56614457257091999053955078125" lon="-8.44118292443454265594482421875">
        <ele>64.8000030517578125</ele>
        <time>2019-05-02T11:28:50.000Z</time>
      </trkpt>
      <trkpt lat="41.56606444157660007476806640625" lon="-8.44193193130195140838623046875">
        <ele>63</ele>
        <time>2019-05-02T11:28:58.000Z</time>
      </trkpt>
      <trkpt lat="41.56595530919730663299560546875" lon="-8.44266383908689022064208984375">
        <ele>62</ele>
        <time>2019-05-02T11:29:05.000Z</time>
      </trkpt>
      <trkpt lat="41.56582639552652835845947265625" lon="-8.443443439900875091552734375">
        <ele>59</ele>
        <time>2019-05-02T11:29:12.000Z</time>
      </trkpt>
      <trkpt lat="41.56570921652019023895263671875" lon="-8.444264195859432220458984375">
        <ele>56.200000762939453125</ele>
        <time>2019-05-02T11:29:19.000Z</time>
      </trkpt>
      <trkpt lat="41.56562036834657192230224609375" lon="-8.44505385495722293853759765625">
        <ele>55</ele>
        <time>2019-05-02T11:29:26.000Z</time>
      </trkpt>
      <trkpt lat="41.56561751849949359893798828125" lon="-8.44587729312479496002197265625">
        <ele>53.40000152587890625</ele>
        <time>2019-05-02T11:29:33.000Z</time>
      </trkpt>
      <trkpt lat="41.56563277356326580047607421875" lon="-8.44667784869670867919921875">
        <ele>52.200000762939453125</ele>
        <time>2019-05-02T11:29:41.000Z</time>
      </trkpt>
      <trkpt lat="41.56563579104840755462646484375" lon="-8.44693534076213836669921875">
        <ele>52</ele>
        <time>2019-05-02T11:29:44.000Z</time>
      </trkpt>
      <trkpt lat="41.56573570333421230316162109375" lon="-8.44760647974908351898193359375">
        <ele>52</ele>
        <time>2019-05-02T11:29:55.000Z</time>
      </trkpt>
      <trkpt lat="41.56572430394589900970458984375" lon="-8.4479490481317043304443359375">
        <ele>52.40000152587890625</ele>
        <time>2019-05-02T11:30:00.000Z</time>
      </trkpt>
      <trkpt lat="41.5657144971191883087158203125" lon="-8.44871900975704193115234375">
        <ele>53.59999847412109375</ele>
        <time>2019-05-02T11:30:11.000Z</time>
      </trkpt>
      <trkpt lat="41.56570318154990673065185546875" lon="-8.44908202998340129852294921875">
        <ele>54.40000152587890625</ele>
        <time>2019-05-02T11:30:17.000Z</time>
      </trkpt>
      <trkpt lat="41.56569111160933971405029296875" lon="-8.44980119727551937103271484375">
        <ele>56.59999847412109375</ele>
        <time>2019-05-02T11:30:33.000Z</time>
      </trkpt>
      <trkpt lat="41.565716676414012908935546875" lon="-8.45042028464376926422119140625">
        <ele>58.200000762939453125</ele>
        <time>2019-05-02T11:30:51.000Z</time>
      </trkpt>
      <trkpt lat="41.565899737179279327392578125" lon="-8.4504726715385913848876953125">
        <ele>57.59999847412109375</ele>
        <time>2019-05-02T11:30:56.000Z</time>
      </trkpt>
      <trkpt lat="41.566436849534511566162109375" lon="-8.450619690120220184326171875">
        <ele>55.40000152587890625</ele>
        <time>2019-05-02T11:31:06.000Z</time>
      </trkpt>
      <trkpt lat="41.56649912707507610321044921875" lon="-8.4506168402731418609619140625">
        <ele>55</ele>
        <time>2019-05-02T11:31:07.000Z</time>
      </trkpt>
      <trkpt lat="41.56672594137489795684814453125" lon="-8.45061508007347583770751953125">
        <ele>54.200000762939453125</ele>
        <time>2019-05-02T11:31:15.000Z</time>
      </trkpt>
      <trkpt lat="41.5667377598583698272705078125" lon="-8.450637124478816986083984375">
        <ele>54.200000762939453125</ele>
        <time>2019-05-02T11:32:23.000Z</time>
      </trkpt>
      <trkpt lat="41.56708720140159130096435546875" lon="-8.450751118361949920654296875">
        <ele>52.200000762939453125</ele>
        <time>2019-05-02T11:32:34.000Z</time>
      </trkpt>
      <trkpt lat="41.56762045808136463165283203125" lon="-8.450916074216365814208984375">
        <ele>50.59999847412109375</ele>
        <time>2019-05-02T11:32:46.000Z</time>
      </trkpt>
      <trkpt lat="41.56816343776881694793701171875" lon="-8.45107658766210079193115234375">
        <ele>52</ele>
        <time>2019-05-02T11:32:57.000Z</time>
      </trkpt>
      <trkpt lat="41.56872200779616832733154296875" lon="-8.45120566897094249725341796875">
        <ele>56.59999847412109375</ele>
        <time>2019-05-02T11:33:09.000Z</time>
      </trkpt>
      <trkpt lat="41.56927152536809444427490234375" lon="-8.45134128816425800323486328125">
        <ele>58</ele>
        <time>2019-05-02T11:33:27.000Z</time>
      </trkpt>
      <trkpt lat="41.5698068775236606597900390625" lon="-8.451481349766254425048828125">
        <ele>59.200000762939453125</ele>
        <time>2019-05-02T11:33:48.000Z</time>
      </trkpt>
      <trkpt lat="41.57030870206654071807861328125" lon="-8.45180044881999492645263671875">
        <ele>61.200000762939453125</ele>
        <time>2019-05-02T11:34:08.000Z</time>
      </trkpt>
      <trkpt lat="41.57084229402244091033935546875" lon="-8.45204033888876438140869140625">
        <ele>62.59999847412109375</ele>
        <time>2019-05-02T11:34:27.000Z</time>
      </trkpt>
      <trkpt lat="41.57137253321707248687744140625" lon="-8.45223546959459781646728515625">
        <ele>64.1999969482421875</ele>
        <time>2019-05-02T11:34:47.000Z</time>
      </trkpt>
      <trkpt lat="41.57189640216529369354248046875" lon="-8.4524933807551860809326171875">
        <ele>65.8000030517578125</ele>
        <time>2019-05-02T11:35:05.000Z</time>
      </trkpt>
      <trkpt lat="41.57242781482636928558349609375" lon="-8.452658839523792266845703125">
        <ele>68</ele>
        <time>2019-05-02T11:35:22.000Z</time>
      </trkpt>
      <trkpt lat="41.57298303209245204925537109375" lon="-8.45268423669040203094482421875">
        <ele>67.1999969482421875</ele>
        <time>2019-05-02T11:35:42.000Z</time>
      </trkpt>
      <trkpt lat="41.57308126799762248992919921875" lon="-8.45270586200058460235595703125">
        <ele>67</ele>
        <time>2019-05-02T11:35:50.000Z</time>
      </trkpt>
      <trkpt lat="41.57310448586940765380859375" lon="-8.4527267329394817352294921875">
        <ele>67</ele>
        <time>2019-05-02T11:35:54.000Z</time>
      </trkpt>
      <trkpt lat="41.57321018166840076446533203125" lon="-8.45272748731076717376708984375">
        <ele>67</ele>
        <time>2019-05-02T11:35:58.000Z</time>
      </trkpt>
      <trkpt lat="41.5737805701792240142822265625" lon="-8.45271642319858074188232421875">
        <ele>67.59999847412109375</ele>
        <time>2019-05-02T11:36:16.000Z</time>
      </trkpt>
      <trkpt lat="41.574350707232952117919921875" lon="-8.45273117534816265106201171875">
        <ele>68.40000152587890625</ele>
        <time>2019-05-02T11:36:32.000Z</time>
      </trkpt>
      <trkpt lat="41.57490081153810024261474609375" lon="-8.45281600020825862884521484375">
        <ele>68.8000030517578125</ele>
        <time>2019-05-02T11:36:46.000Z</time>
      </trkpt>
      <trkpt lat="41.57547245733439922332763671875" lon="-8.4529476799070835113525390625">
        <ele>67.40000152587890625</ele>
        <time>2019-05-02T11:36:59.000Z</time>
      </trkpt>
      <trkpt lat="41.575567759573459625244140625" lon="-8.45296628773212432861328125">
        <ele>67</ele>
        <time>2019-05-02T11:37:01.000Z</time>
      </trkpt>
      <trkpt lat="41.57610512338578701019287109375" lon="-8.45305253751575946807861328125">
        <ele>66</ele>
        <time>2019-05-02T11:37:12.000Z</time>
      </trkpt>
      <trkpt lat="41.57666771672666072845458984375" lon="-8.45314339734613895416259765625">
        <ele>65.40000152587890625</ele>
        <time>2019-05-02T11:37:23.000Z</time>
      </trkpt>
      <trkpt lat="41.57724841497838497161865234375" lon="-8.4531974606215953826904296875">
        <ele>64.8000030517578125</ele>
        <time>2019-05-02T11:37:33.000Z</time>
      </trkpt>
      <trkpt lat="41.577796004712581634521484375" lon="-8.4532400406897068023681640625">
        <ele>65</ele>
        <time>2019-05-02T11:37:43.000Z</time>
      </trkpt>
      <trkpt lat="41.578375361859798431396484375" lon="-8.45327700488269329071044921875">
        <ele>66.1999969482421875</ele>
        <time>2019-05-02T11:37:54.000Z</time>
      </trkpt>
      <trkpt lat="41.57892311923205852508544921875" lon="-8.45326443202793598175048828125">
        <ele>66.8000030517578125</ele>
        <time>2019-05-02T11:38:04.000Z</time>
      </trkpt>
      <trkpt lat="41.579512618482112884521484375" lon="-8.45329913310706615447998046875">
        <ele>67</ele>
        <time>2019-05-02T11:38:15.000Z</time>
      </trkpt>
      <trkpt lat="41.57983624376356601715087890625" lon="-8.4534026496112346649169921875">
        <ele>67</ele>
        <time>2019-05-02T11:38:21.000Z</time>
      </trkpt>
      <trkpt lat="41.580378971993923187255859375" lon="-8.45347733236849308013916015625">
        <ele>67</ele>
        <time>2019-05-02T11:38:30.000Z</time>
      </trkpt>
      <trkpt lat="41.5809373743832111358642578125" lon="-8.45360943116247653961181640625">
        <ele>66.59999847412109375</ele>
        <time>2019-05-02T11:38:40.000Z</time>
      </trkpt>
      <trkpt lat="41.58148865215480327606201171875" lon="-8.45378394238650798797607421875">
        <ele>66</ele>
        <time>2019-05-02T11:38:50.000Z</time>
      </trkpt>
      <trkpt lat="41.58201989717781543731689453125" lon="-8.45392048358917236328125">
        <ele>67</ele>
        <time>2019-05-02T11:39:00.000Z</time>
      </trkpt>
      <trkpt lat="41.5825829096138477325439453125" lon="-8.45408535562455654144287109375">
        <ele>66.59999847412109375</ele>
        <time>2019-05-02T11:39:11.000Z</time>
      </trkpt>
      <trkpt lat="41.583165116608142852783203125" lon="-8.45425684936344623565673828125">
        <ele>68</ele>
        <time>2019-05-02T11:39:22.000Z</time>
      </trkpt>
      <trkpt lat="41.58369828946888446807861328125" lon="-8.45445449464023113250732421875">
        <ele>67.59999847412109375</ele>
        <time>2019-05-02T11:39:32.000Z</time>
      </trkpt>
      <trkpt lat="41.5842277742922306060791015625" lon="-8.45474501140415668487548828125">
        <ele>66.8000030517578125</ele>
        <time>2019-05-02T11:39:42.000Z</time>
      </trkpt>
      <trkpt lat="41.58476270735263824462890625" lon="-8.455055058002471923828125">
        <ele>63.799999237060546875</ele>
        <time>2019-05-02T11:39:52.000Z</time>
      </trkpt>
      <trkpt lat="41.58528012223541736602783203125" lon="-8.45533995889127254486083984375">
        <ele>62.40000152587890625</ele>
        <time>2019-05-02T11:40:01.000Z</time>
      </trkpt>
      <trkpt lat="41.585784293711185455322265625" lon="-8.4556262008845806121826171875">
        <ele>61.59999847412109375</ele>
        <time>2019-05-02T11:40:09.000Z</time>
      </trkpt>
      <trkpt lat="41.586311347782611846923828125" lon="-8.4559313021600246429443359375">
        <ele>59.59999847412109375</ele>
        <time>2019-05-02T11:40:17.000Z</time>
      </trkpt>
      <trkpt lat="41.58686564303934574127197265625" lon="-8.45624939538538455963134765625">
        <ele>56.799999237060546875</ele>
        <time>2019-05-02T11:40:25.000Z</time>
      </trkpt>
      <trkpt lat="41.58693638630211353302001953125" lon="-8.45631360076367855072021484375">
        <ele>56.40000152587890625</ele>
        <time>2019-05-02T11:40:26.000Z</time>
      </trkpt>
      <trkpt lat="41.5873716585338115692138671875" lon="-8.45680394209921360015869140625">
        <ele>53</ele>
        <time>2019-05-02T11:40:33.000Z</time>
      </trkpt>
      <trkpt lat="41.587781198322772979736328125" lon="-8.457274250686168670654296875">
        <ele>50.40000152587890625</ele>
        <time>2019-05-02T11:40:41.000Z</time>
      </trkpt>
      <trkpt lat="41.5881273709237575531005859375" lon="-8.45759309828281402587890625">
        <ele>48.40000152587890625</ele>
        <time>2019-05-02T11:40:47.000Z</time>
      </trkpt>
      <trkpt lat="41.58864880912005901336669921875" lon="-8.4578406997025012969970703125">
        <ele>46.200000762939453125</ele>
        <time>2019-05-02T11:40:54.000Z</time>
      </trkpt>
      <trkpt lat="41.589204110205173492431640625" lon="-8.45810540020465850830078125">
        <ele>43.40000152587890625</ele>
        <time>2019-05-02T11:41:01.000Z</time>
      </trkpt>
      <trkpt lat="41.589766703546047210693359375" lon="-8.4583781473338603973388671875">
        <ele>40.59999847412109375</ele>
        <time>2019-05-02T11:41:08.000Z</time>
      </trkpt>
      <trkpt lat="41.59033575095236301422119140625" lon="-8.45866053365170955657958984375">
        <ele>37.200000762939453125</ele>
        <time>2019-05-02T11:41:15.000Z</time>
      </trkpt>
      <trkpt lat="41.59090387634932994842529296875" lon="-8.45893864519894123077392578125">
        <ele>34.40000152587890625</ele>
        <time>2019-05-02T11:41:22.000Z</time>
      </trkpt>
      <trkpt lat="41.5912920422852039337158203125" lon="-8.45917367376387119293212890625">
        <ele>32.200000762939453125</ele>
        <time>2019-05-02T11:41:27.000Z</time>
      </trkpt>
      <trkpt lat="41.59178649075329303741455078125" lon="-8.45960651524364948272705078125">
        <ele>29.3999996185302734375</ele>
        <time>2019-05-02T11:41:34.000Z</time>
      </trkpt>
      <trkpt lat="41.59225503914058208465576171875" lon="-8.4600211679935455322265625">
        <ele>27.3999996185302734375</ele>
        <time>2019-05-02T11:41:41.000Z</time>
      </trkpt>
      <trkpt lat="41.59274253062903881072998046875" lon="-8.46044671721756458282470703125">
        <ele>25.799999237060546875</ele>
        <time>2019-05-02T11:41:49.000Z</time>
      </trkpt>
      <trkpt lat="41.593232117593288421630859375" lon="-8.4608964063227176666259765625">
        <ele>25</ele>
        <time>2019-05-02T11:41:58.000Z</time>
      </trkpt>
      <trkpt lat="41.593718267977237701416015625" lon="-8.4613195247948169708251953125">
        <ele>24.6000003814697265625</ele>
        <time>2019-05-02T11:42:07.000Z</time>
      </trkpt>
      <trkpt lat="41.5942069329321384429931640625" lon="-8.46175379119813442230224609375">
        <ele>24.799999237060546875</ele>
        <time>2019-05-02T11:42:16.000Z</time>
      </trkpt>
      <trkpt lat="41.59447632730007171630859375" lon="-8.461999632418155670166015625">
        <ele>24.799999237060546875</ele>
        <time>2019-05-02T11:42:21.000Z</time>
      </trkpt>
      <trkpt lat="41.594657711684703826904296875" lon="-8.4621288813650608062744140625">
        <ele>24.6000003814697265625</ele>
        <time>2019-05-02T11:42:24.000Z</time>
      </trkpt>
      <trkpt lat="41.594858206808567047119140625" lon="-8.4623095951974391937255859375">
        <ele>24.3999996185302734375</ele>
        <time>2019-05-02T11:42:32.000Z</time>
      </trkpt>
      <trkpt lat="41.59488075412809848785400390625" lon="-8.462235666811466217041015625">
        <ele>24.3999996185302734375</ele>
        <time>2019-05-02T11:45:31.000Z</time>
      </trkpt>
      <trkpt lat="41.59519608132541179656982421875" lon="-8.4625612199306488037109375">
        <ele>21.799999237060546875</ele>
        <time>2019-05-02T11:45:40.000Z</time>
      </trkpt>
      <trkpt lat="41.59568977542221546173095703125" lon="-8.4629070572555065155029296875">
        <ele>18</ele>
        <time>2019-05-02T11:45:54.000Z</time>
      </trkpt>
      <trkpt lat="41.59574543125927448272705078125" lon="-8.4629462845623493194580078125">
        <ele>18.3999996185302734375</ele>
        <time>2019-05-02T11:45:58.000Z</time>
      </trkpt>
      <trkpt lat="41.595772840082645416259765625" lon="-8.46295692957937717437744140625">
        <ele>18.6000003814697265625</ele>
        <time>2019-05-02T11:47:00.000Z</time>
      </trkpt>
      <trkpt lat="41.5958859957754611968994140625" lon="-8.46300386823713779449462890625">
        <ele>19.200000762939453125</ele>
        <time>2019-05-02T11:47:04.000Z</time>
      </trkpt>
      <trkpt lat="41.59642252139747142791748046875" lon="-8.46332095563411712646484375">
        <ele>23.200000762939453125</ele>
        <time>2019-05-02T11:47:15.000Z</time>
      </trkpt>
      <trkpt lat="41.59674857743084430694580078125" lon="-8.46349119208753108978271484375">
        <ele>24.200000762939453125</ele>
        <time>2019-05-02T11:47:25.000Z</time>
      </trkpt>
      <trkpt lat="41.5967595577239990234375" lon="-8.46349856816232204437255859375">
        <ele>24.200000762939453125</ele>
        <time>2019-05-02T11:48:11.000Z</time>
      </trkpt>
      <trkpt lat="41.59709793515503406524658203125" lon="-8.46393585205078125">
        <ele>25.200000762939453125</ele>
        <time>2019-05-02T11:48:34.000Z</time>
      </trkpt>
      <trkpt lat="41.59710179083049297332763671875" lon="-8.46394197084009647369384765625">
        <ele>25.200000762939453125</ele>
        <time>2019-05-02T11:48:39.000Z</time>
      </trkpt>
      <trkpt lat="41.59718376584351062774658203125" lon="-8.46408278681337833404541015625">
        <ele>25.6000003814697265625</ele>
        <time>2019-05-02T11:48:44.000Z</time>
      </trkpt>
      <trkpt lat="41.59737504087388515472412109375" lon="-8.46443273127079010009765625">
        <ele>26.799999237060546875</ele>
        <time>2019-05-02T11:48:52.000Z</time>
      </trkpt>
      <trkpt lat="41.5974433533847332000732421875" lon="-8.46457815729081630706787109375">
        <ele>27.799999237060546875</ele>
        <time>2019-05-02T11:48:55.000Z</time>
      </trkpt>
      <trkpt lat="41.5976337902247905731201171875" lon="-8.46485559828579425811767578125">
        <ele>30.200000762939453125</ele>
        <time>2019-05-02T11:49:02.000Z</time>
      </trkpt>
      <trkpt lat="41.598044335842132568359375" lon="-8.46532381139695644378662109375">
        <ele>32.59999847412109375</ele>
        <time>2019-05-02T11:49:17.000Z</time>
      </trkpt>
      <trkpt lat="41.5985856391489505767822265625" lon="-8.4654997475445270538330078125">
        <ele>33.799999237060546875</ele>
        <time>2019-05-02T11:49:34.000Z</time>
      </trkpt>
      <trkpt lat="41.5988712944090366363525390625" lon="-8.4655939601361751556396484375">
        <ele>34</ele>
        <time>2019-05-02T11:49:46.000Z</time>
      </trkpt>
      <trkpt lat="41.59888411872088909149169921875" lon="-8.46568155102431774139404296875">
        <ele>34</ele>
        <time>2019-05-02T11:51:24.000Z</time>
      </trkpt>
      <trkpt lat="41.59942139871418476104736328125" lon="-8.465867377817630767822265625">
        <ele>35.200000762939453125</ele>
        <time>2019-05-02T11:51:40.000Z</time>
      </trkpt>
      <trkpt lat="41.5999602712690830230712890625" lon="-8.4660157375037670135498046875">
        <ele>36.40000152587890625</ele>
        <time>2019-05-02T11:51:56.000Z</time>
      </trkpt>
      <trkpt lat="41.60047701559960842132568359375" lon="-8.4662492573261260986328125">
        <ele>37.40000152587890625</ele>
        <time>2019-05-02T11:52:10.000Z</time>
      </trkpt>
      <trkpt lat="41.6010237671434879302978515625" lon="-8.4664559550583362579345703125">
        <ele>39</ele>
        <time>2019-05-02T11:52:24.000Z</time>
      </trkpt>
      <trkpt lat="41.601564399898052215576171875" lon="-8.46666391007602214813232421875">
        <ele>40.799999237060546875</ele>
        <time>2019-05-02T11:52:36.000Z</time>
      </trkpt>
      <trkpt lat="41.60212942399084568023681640625" lon="-8.46687261946499347686767578125">
        <ele>41.40000152587890625</ele>
        <time>2019-05-02T11:52:48.000Z</time>
      </trkpt>
      <trkpt lat="41.60267525352537631988525390625" lon="-8.4670748747885227203369140625">
        <ele>42.200000762939453125</ele>
        <time>2019-05-02T11:53:00.000Z</time>
      </trkpt>
      <trkpt lat="41.603188812732696533203125" lon="-8.46732239238917827606201171875">
        <ele>42.799999237060546875</ele>
        <time>2019-05-02T11:53:11.000Z</time>
      </trkpt>
      <trkpt lat="41.60371117293834686279296875" lon="-8.467681892216205596923828125">
        <ele>43.200000762939453125</ele>
        <time>2019-05-02T11:53:22.000Z</time>
      </trkpt>
      <trkpt lat="41.60395416431128978729248046875" lon="-8.467819355428218841552734375">
        <ele>43.40000152587890625</ele>
        <time>2019-05-02T11:53:27.000Z</time>
      </trkpt>
      <trkpt lat="41.60448574461042881011962890625" lon="-8.46770762465894222259521484375">
        <ele>44.40000152587890625</ele>
        <time>2019-05-02T11:53:40.000Z</time>
      </trkpt>
      <trkpt lat="41.6047335974872112274169921875" lon="-8.4674383141100406646728515625">
        <ele>45.40000152587890625</ele>
        <time>2019-05-02T11:53:51.000Z</time>
      </trkpt>
      <trkpt lat="41.60492126829922199249267578125" lon="-8.4677662141621112823486328125">
        <ele>45</ele>
        <time>2019-05-02T11:53:58.000Z</time>
      </trkpt>
      <trkpt lat="41.60493694245815277099609375" lon="-8.4678322635591030120849609375">
        <ele>45</ele>
        <time>2019-05-02T11:53:59.000Z</time>
      </trkpt>
      <trkpt lat="41.60504800267517566680908203125" lon="-8.46808321774005889892578125">
        <ele>45</ele>
        <time>2019-05-02T11:54:03.000Z</time>
      </trkpt>
      <trkpt lat="41.60538931377232074737548828125" lon="-8.46864044666290283203125">
        <ele>44.59999847412109375</ele>
        <time>2019-05-02T11:54:12.000Z</time>
      </trkpt>
      <trkpt lat="41.60581846721470355987548828125" lon="-8.46910807304084300994873046875">
        <ele>44.59999847412109375</ele>
        <time>2019-05-02T11:54:21.000Z</time>
      </trkpt>
      <trkpt lat="41.60629011690616607666015625" lon="-8.46948861144483089447021484375">
        <ele>45.40000152587890625</ele>
        <time>2019-05-02T11:54:31.000Z</time>
      </trkpt>
      <trkpt lat="41.60678557120263576507568359375" lon="-8.4698321856558322906494140625">
        <ele>46.40000152587890625</ele>
        <time>2019-05-02T11:54:41.000Z</time>
      </trkpt>
      <trkpt lat="41.60731069743633270263671875" lon="-8.4702006541192531585693359375">
        <ele>46</ele>
        <time>2019-05-02T11:54:51.000Z</time>
      </trkpt>
      <trkpt lat="41.60783397965133190155029296875" lon="-8.47057909704744815826416015625">
        <ele>43.200000762939453125</ele>
        <time>2019-05-02T11:55:00.000Z</time>
      </trkpt>
      <trkpt lat="41.608325578272342681884765625" lon="-8.4709214977920055389404296875">
        <ele>40.59999847412109375</ele>
        <time>2019-05-02T11:55:07.000Z</time>
      </trkpt>
      <trkpt lat="41.60883226431906223297119140625" lon="-8.47128041088581085205078125">
        <ele>40.799999237060546875</ele>
        <time>2019-05-02T11:55:14.000Z</time>
      </trkpt>
      <trkpt lat="41.6093319095671176910400390625" lon="-8.47162415273487567901611328125">
        <ele>42.200000762939453125</ele>
        <time>2019-05-02T11:55:22.000Z</time>
      </trkpt>
      <trkpt lat="41.6098487377166748046875" lon="-8.4719866700470447540283203125">
        <ele>43.40000152587890625</ele>
        <time>2019-05-02T11:55:32.000Z</time>
      </trkpt>
      <trkpt lat="41.61038274876773357391357421875" lon="-8.47236226312816143035888671875">
        <ele>42.40000152587890625</ele>
        <time>2019-05-02T11:55:41.000Z</time>
      </trkpt>
      <trkpt lat="41.61090058274567127227783203125" lon="-8.47272335551679134368896484375">
        <ele>40.59999847412109375</ele>
        <time>2019-05-02T11:55:49.000Z</time>
      </trkpt>
      <trkpt lat="41.6114739887416362762451171875" lon="-8.4729039855301380157470703125">
        <ele>39.40000152587890625</ele>
        <time>2019-05-02T11:55:57.000Z</time>
      </trkpt>
      <trkpt lat="41.61154800094664096832275390625" lon="-8.47289417870342731475830078125">
        <ele>39.200000762939453125</ele>
        <time>2019-05-02T11:55:58.000Z</time>
      </trkpt>
      <trkpt lat="41.61183826625347137451171875" lon="-8.47279577516019344329833984375">
        <ele>37.799999237060546875</ele>
        <time>2019-05-02T11:56:02.000Z</time>
      </trkpt>
      <trkpt lat="41.6123856045305728912353515625" lon="-8.47251783125102519989013671875">
        <ele>35.799999237060546875</ele>
        <time>2019-05-02T11:56:10.000Z</time>
      </trkpt>
      <trkpt lat="41.6129032708704471588134765625" lon="-8.472243659198284149169921875">
        <ele>35.59999847412109375</ele>
        <time>2019-05-02T11:56:18.000Z</time>
      </trkpt>
      <trkpt lat="41.61344801075756549835205078125" lon="-8.47196571528911590576171875">
        <ele>36</ele>
        <time>2019-05-02T11:56:27.000Z</time>
      </trkpt>
      <trkpt lat="41.61398311145603656768798828125" lon="-8.4716855920851230621337890625">
        <ele>37.40000152587890625</ele>
        <time>2019-05-02T11:56:37.000Z</time>
      </trkpt>
      <trkpt lat="41.61450899206101894378662109375" lon="-8.4714056365191936492919921875">
        <ele>37</ele>
        <time>2019-05-02T11:56:47.000Z</time>
      </trkpt>
      <trkpt lat="41.61503772251307964324951171875" lon="-8.4712326340377330780029296875">
        <ele>37.799999237060546875</ele>
        <time>2019-05-02T11:56:57.000Z</time>
      </trkpt>
      <trkpt lat="41.6153196059167385101318359375" lon="-8.47127228043973445892333984375">
        <ele>38.59999847412109375</ele>
        <time>2019-05-02T11:57:02.000Z</time>
      </trkpt>
      <trkpt lat="41.6158523596823215484619140625" lon="-8.47139465622603893280029296875">
        <ele>39.40000152587890625</ele>
        <time>2019-05-02T11:57:11.000Z</time>
      </trkpt>
      <trkpt lat="41.61642082035541534423828125" lon="-8.4715253300964832305908203125">
        <ele>41.200000762939453125</ele>
        <time>2019-05-02T11:57:21.000Z</time>
      </trkpt>
      <trkpt lat="41.6169775463640689849853515625" lon="-8.4716550819575786590576171875">
        <ele>42.59999847412109375</ele>
        <time>2019-05-02T11:57:32.000Z</time>
      </trkpt>
      <trkpt lat="41.61752094514667987823486328125" lon="-8.4717741049826145172119140625">
        <ele>42</ele>
        <time>2019-05-02T11:57:41.000Z</time>
      </trkpt>
      <trkpt lat="41.61809275858104228973388671875" lon="-8.47175926901400089263916015625">
        <ele>40</ele>
        <time>2019-05-02T11:57:49.000Z</time>
      </trkpt>
      <trkpt lat="41.61870497278869152069091796875" lon="-8.4716986678540706634521484375">
        <ele>39.40000152587890625</ele>
        <time>2019-05-02T11:57:57.000Z</time>
      </trkpt>
      <trkpt lat="41.61930084228515625" lon="-8.4716433472931385040283203125">
        <ele>39.799999237060546875</ele>
        <time>2019-05-02T11:58:06.000Z</time>
      </trkpt>
      <trkpt lat="41.61985874176025390625" lon="-8.471585176885128021240234375">
        <ele>40.40000152587890625</ele>
        <time>2019-05-02T11:58:16.000Z</time>
      </trkpt>
      <trkpt lat="41.62017432041466236114501953125" lon="-8.4715813212096691131591796875">
        <ele>40.200000762939453125</ele>
        <time>2019-05-02T11:58:22.000Z</time>
      </trkpt>
      <trkpt lat="41.6207487322390079498291015625" lon="-8.47177418880164623260498046875">
        <ele>39.59999847412109375</ele>
        <time>2019-05-02T11:58:33.000Z</time>
      </trkpt>
      <trkpt lat="41.62130621261894702911376953125" lon="-8.4719561599195003509521484375">
        <ele>40.799999237060546875</ele>
        <time>2019-05-02T11:58:44.000Z</time>
      </trkpt>
      <trkpt lat="41.6218507848680019378662109375" lon="-8.4721425734460353851318359375">
        <ele>41.40000152587890625</ele>
        <time>2019-05-02T11:58:56.000Z</time>
      </trkpt>
      <trkpt lat="41.622413210570812225341796875" lon="-8.47234080545604228973388671875">
        <ele>42.200000762939453125</ele>
        <time>2019-05-02T11:59:09.000Z</time>
      </trkpt>
      <trkpt lat="41.62245470099151134490966796875" lon="-8.472343571484088897705078125">
        <ele>42.40000152587890625</ele>
        <time>2019-05-02T11:59:10.000Z</time>
      </trkpt>
      <trkpt lat="41.62282568402588367462158203125" lon="-8.4724094532430171966552734375">
        <ele>43.799999237060546875</ele>
        <time>2019-05-02T11:59:21.000Z</time>
      </trkpt>
      <trkpt lat="41.6229229979217052459716796875" lon="-8.472503162920475006103515625">
        <ele>43.59999847412109375</ele>
        <time>2019-05-02T11:59:24.000Z</time>
      </trkpt>
      <trkpt lat="41.623480059206485748291015625" lon="-8.4726652689278125762939453125">
        <ele>44.40000152587890625</ele>
        <time>2019-05-02T11:59:36.000Z</time>
      </trkpt>
      <trkpt lat="41.62402882240712642669677734375" lon="-8.4728131256997585296630859375">
        <ele>44.40000152587890625</ele>
        <time>2019-05-02T11:59:46.000Z</time>
      </trkpt>
      <trkpt lat="41.62458948791027069091796875" lon="-8.4729623235762119293212890625">
        <ele>43.200000762939453125</ele>
        <time>2019-05-02T11:59:56.000Z</time>
      </trkpt>
      <trkpt lat="41.62501034326851367950439453125" lon="-8.47306516952812671661376953125">
        <ele>43.40000152587890625</ele>
        <time>2019-05-02T12:00:04.000Z</time>
      </trkpt>
      <trkpt lat="41.62510438822209835052490234375" lon="-8.47308360971510410308837890625">
        <ele>43.59999847412109375</ele>
        <time>2019-05-02T12:00:06.000Z</time>
      </trkpt>
      <trkpt lat="41.62564250640571117401123046875" lon="-8.47323733381927013397216796875">
        <ele>44.59999847412109375</ele>
        <time>2019-05-02T12:00:21.000Z</time>
      </trkpt>
      <trkpt lat="41.62620090879499912261962890625" lon="-8.4733874537050724029541015625">
        <ele>44.799999237060546875</ele>
        <time>2019-05-02T12:00:38.000Z</time>
      </trkpt>
      <trkpt lat="41.6265027411282062530517578125" lon="-8.473473452031612396240234375">
        <ele>45</ele>
        <time>2019-05-02T12:00:51.000Z</time>
      </trkpt>
      <trkpt lat="41.62653551436960697174072265625" lon="-8.47350605763494968414306640625">
        <ele>45</ele>
        <time>2019-05-02T12:02:25.000Z</time>
      </trkpt>
      <trkpt lat="41.626616902649402618408203125" lon="-8.4735396690666675567626953125">
        <ele>45</ele>
        <time>2019-05-02T12:02:30.000Z</time>
      </trkpt>
      <trkpt lat="41.62678060121834278106689453125" lon="-8.47360546700656414031982421875">
        <ele>44.799999237060546875</ele>
        <time>2019-05-02T12:02:35.000Z</time>
      </trkpt>
      <trkpt lat="41.62734922952950000762939453125" lon="-8.47373060882091522216796875">
        <ele>45.200000762939453125</ele>
        <time>2019-05-02T12:02:48.000Z</time>
      </trkpt>
      <trkpt lat="41.627882234752178192138671875" lon="-8.473868407309055328369140625">
        <ele>46.40000152587890625</ele>
        <time>2019-05-02T12:02:59.000Z</time>
      </trkpt>
      <trkpt lat="41.6282817162573337554931640625" lon="-8.47395180724561214447021484375">
        <ele>46.40000152587890625</ele>
        <time>2019-05-02T12:03:09.000Z</time>
      </trkpt>
      <trkpt lat="41.62828464992344379425048828125" lon="-8.4739590995013713836669921875">
        <ele>46.40000152587890625</ele>
        <time>2019-05-02T12:03:12.000Z</time>
      </trkpt>
      <trkpt lat="41.6282847337424755096435546875" lon="-8.47400545142590999603271484375">
        <ele>46</ele>
        <time>2019-05-02T12:03:14.000Z</time>
      </trkpt>
      <trkpt lat="41.62823637016117572784423828125" lon="-8.47415573894977569580078125">
        <ele>45</ele>
        <time>2019-05-02T12:03:19.000Z</time>
      </trkpt>
      <trkpt lat="41.62821055389940738677978515625" lon="-8.47443426959216594696044921875">
        <ele>44</ele>
        <time>2019-05-02T12:03:24.000Z</time>
      </trkpt>
      <trkpt lat="41.62820602767169475555419921875" lon="-8.47466443665325641632080078125">
        <ele>44</ele>
        <time>2019-05-02T12:03:28.000Z</time>
      </trkpt>
      <trkpt lat="41.6283444128930568695068359375" lon="-8.4748663567006587982177734375">
        <ele>44.40000152587890625</ele>
        <time>2019-05-02T12:03:33.000Z</time>
      </trkpt>
      <trkpt lat="41.6286979615688323974609375" lon="-8.47541864030063152313232421875">
        <ele>46.200000762939453125</ele>
        <time>2019-05-02T12:03:51.000Z</time>
      </trkpt>
      <trkpt lat="41.62870399653911590576171875" lon="-8.475430794060230255126953125">
        <ele>46.200000762939453125</ele>
        <time>2019-05-02T12:03:54.000Z</time>
      </trkpt>
      <trkpt lat="41.62872889079153537750244140625" lon="-8.4754494018852710723876953125">
        <ele>46.40000152587890625</ele>
        <time>2019-05-02T12:05:33.000Z</time>
      </trkpt>
      <trkpt lat="41.6292236745357513427734375" lon="-8.4757737815380096435546875">
        <ele>48.40000152587890625</ele>
        <time>2019-05-02T12:05:49.000Z</time>
      </trkpt>
      <trkpt lat="41.6296902112662792205810546875" lon="-8.47616915591061115264892578125">
        <ele>51.799999237060546875</ele>
        <time>2019-05-02T12:06:14.000Z</time>
      </trkpt>
      <trkpt lat="41.63016119040548801422119140625" lon="-8.47652656026184558868408203125">
        <ele>54.40000152587890625</ele>
        <time>2019-05-02T12:06:40.000Z</time>
      </trkpt>
      <trkpt lat="41.63064130581915378570556640625" lon="-8.47685680724680423736572265625">
        <ele>58.799999237060546875</ele>
        <time>2019-05-02T12:07:00.000Z</time>
      </trkpt>
      <trkpt lat="41.631075404584407806396484375" lon="-8.477317728102207183837890625">
        <ele>63.40000152587890625</ele>
        <time>2019-05-02T12:07:23.000Z</time>
      </trkpt>
      <trkpt lat="41.63121982477605342864990234375" lon="-8.47750590182840824127197265625">
        <ele>64.40000152587890625</ele>
        <time>2019-05-02T12:07:32.000Z</time>
      </trkpt>
      <trkpt lat="41.63167647086083889007568359375" lon="-8.4778979234397411346435546875">
        <ele>65.40000152587890625</ele>
        <time>2019-05-02T12:07:54.000Z</time>
      </trkpt>
      <trkpt lat="41.63221492432057857513427734375" lon="-8.47813990898430347442626953125">
        <ele>65.1999969482421875</ele>
        <time>2019-05-02T12:08:14.000Z</time>
      </trkpt>
      <trkpt lat="41.63276645354926586151123046875" lon="-8.47831877879798412322998046875">
        <ele>66.1999969482421875</ele>
        <time>2019-05-02T12:08:29.000Z</time>
      </trkpt>
      <trkpt lat="41.63332770578563213348388671875" lon="-8.4784155897796154022216796875">
        <ele>69.59999847412109375</ele>
        <time>2019-05-02T12:08:46.000Z</time>
      </trkpt>
      <trkpt lat="41.63386079482734203338623046875" lon="-8.47840477712452411651611328125">
        <ele>72.1999969482421875</ele>
        <time>2019-05-02T12:09:04.000Z</time>
      </trkpt>
      <trkpt lat="41.63437879644334316253662109375" lon="-8.478668890893459320068359375">
        <ele>73</ele>
        <time>2019-05-02T12:09:21.000Z</time>
      </trkpt>
      <trkpt lat="41.63466311059892177581787109375" lon="-8.47870920784771442413330078125">
        <ele>72.59999847412109375</ele>
        <time>2019-05-02T12:09:31.000Z</time>
      </trkpt>
      <trkpt lat="41.63473234511911869049072265625" lon="-8.478824794292449951171875">
        <ele>72</ele>
        <time>2019-05-02T12:09:35.000Z</time>
      </trkpt>
      <trkpt lat="41.63478783331811428070068359375" lon="-8.47896158695220947265625">
        <ele>71.1999969482421875</ele>
        <time>2019-05-02T12:09:38.000Z</time>
      </trkpt>
      <trkpt lat="41.6349636018276214599609375" lon="-8.47923508845269680023193359375">
        <ele>69.59999847412109375</ele>
        <time>2019-05-02T12:09:44.000Z</time>
      </trkpt>
      <trkpt lat="41.63530667312443256378173828125" lon="-8.47955527715384960174560546875">
        <ele>64.40000152587890625</ele>
        <time>2019-05-02T12:09:51.000Z</time>
      </trkpt>
      <trkpt lat="41.6354851238429546356201171875" lon="-8.47960841841995716094970703125">
        <ele>62.40000152587890625</ele>
        <time>2019-05-02T12:09:54.000Z</time>
      </trkpt>
      <trkpt lat="41.63587949238717555999755859375" lon="-8.47938478924334049224853515625">
        <ele>62.40000152587890625</ele>
        <time>2019-05-02T12:10:00.000Z</time>
      </trkpt>
      <trkpt lat="41.6363967396318912506103515625" lon="-8.479093350470066070556640625">
        <ele>62.40000152587890625</ele>
        <time>2019-05-02T12:10:11.000Z</time>
      </trkpt>
      <trkpt lat="41.63673863746225833892822265625" lon="-8.478719182312488555908203125">
        <ele>65.40000152587890625</ele>
        <time>2019-05-02T12:10:27.000Z</time>
      </trkpt>
      <trkpt lat="41.63673855364322662353515625" lon="-8.478719182312488555908203125">
        <ele>65.40000152587890625</ele>
        <time>2019-05-02T12:10:28.000Z</time>
      </trkpt>
      <trkpt lat="41.63674500770866870880126953125" lon="-8.478718511760234832763671875">
        <ele>65.40000152587890625</ele>
        <time>2019-05-02T12:10:51.000Z</time>
      </trkpt>
      <trkpt lat="41.6369073651731014251708984375" lon="-8.4786657057702541351318359375">
        <ele>66.59999847412109375</ele>
        <time>2019-05-02T12:10:58.000Z</time>
      </trkpt>
      <trkpt lat="41.63728832267224788665771484375" lon="-8.478795625269412994384765625">
        <ele>66.40000152587890625</ele>
        <time>2019-05-02T12:11:11.000Z</time>
      </trkpt>
      <trkpt lat="41.63737214170396327972412109375" lon="-8.47877450287342071533203125">
        <ele>66.8000030517578125</ele>
        <time>2019-05-02T12:11:17.000Z</time>
      </trkpt>
      <trkpt lat="41.63735906593501567840576171875" lon="-8.47880266606807708740234375">
        <ele>66.40000152587890625</ele>
        <time>2019-05-02T12:21:05.000Z</time>
      </trkpt>
      <trkpt lat="41.63734582252800464630126953125" lon="-8.47884851507842540740966796875">
        <ele>65.8000030517578125</ele>
        <time>2019-05-02T12:21:07.000Z</time>
      </trkpt>
      <trkpt lat="41.63737155497074127197265625" lon="-8.4789436496794223785400390625">
        <ele>64.8000030517578125</ele>
        <time>2019-05-02T12:21:12.000Z</time>
      </trkpt>
      <trkpt lat="41.6373856365680694580078125" lon="-8.47897726111114025115966796875">
        <ele>64.40000152587890625</ele>
        <time>2019-05-02T12:21:19.000Z</time>
      </trkpt>
      <trkpt lat="41.6378588788211345672607421875" lon="-8.4793704561889171600341796875">
        <ele>60.200000762939453125</ele>
        <time>2019-05-02T12:21:35.000Z</time>
      </trkpt>
      <trkpt lat="41.63823463954031467437744140625" lon="-8.47992391325533390045166015625">
        <ele>59</ele>
        <time>2019-05-02T12:21:51.000Z</time>
      </trkpt>
      <trkpt lat="41.6385604441165924072265625" lon="-8.4805184416472911834716796875">
        <ele>59.40000152587890625</ele>
        <time>2019-05-02T12:22:06.000Z</time>
      </trkpt>
      <trkpt lat="41.63891860283911228179931640625" lon="-8.48108656704425811767578125">
        <ele>62.59999847412109375</ele>
        <time>2019-05-02T12:22:23.000Z</time>
      </trkpt>
      <trkpt lat="41.6393428109586238861083984375" lon="-8.48156039603054523468017578125">
        <ele>63.799999237060546875</ele>
        <time>2019-05-02T12:22:41.000Z</time>
      </trkpt>
      <trkpt lat="41.63984362967312335968017578125" lon="-8.481827192008495330810546875">
        <ele>69.8000030517578125</ele>
        <time>2019-05-02T12:23:01.000Z</time>
      </trkpt>
      <trkpt lat="41.6399149596691131591796875" lon="-8.48182358779013156890869140625">
        <ele>70.1999969482421875</ele>
        <time>2019-05-02T12:23:05.000Z</time>
      </trkpt>
      <trkpt lat="41.6399912349879741668701171875" lon="-8.481997512280941009521484375">
        <ele>69.59999847412109375</ele>
        <time>2019-05-02T12:23:13.000Z</time>
      </trkpt>
      <trkpt lat="41.6401910595595836639404296875" lon="-8.48245239816606044769287109375">
        <ele>68.8000030517578125</ele>
        <time>2019-05-02T12:23:30.000Z</time>
      </trkpt>
      <trkpt lat="41.64021327160298824310302734375" lon="-8.4825572557747364044189453125">
        <ele>69</ele>
        <time>2019-05-02T12:23:34.000Z</time>
      </trkpt>
      <trkpt lat="41.6402544267475605010986328125" lon="-8.4829647839069366455078125">
        <ele>70.40000152587890625</ele>
        <time>2019-05-02T12:23:46.000Z</time>
      </trkpt>
      <trkpt lat="41.64018963463604450225830078125" lon="-8.48323409445583820343017578125">
        <ele>71.1999969482421875</ele>
        <time>2019-05-02T12:23:54.000Z</time>
      </trkpt>
      <trkpt lat="41.64035593159496784210205078125" lon="-8.48333333618938922882080078125">
        <ele>73.8000030517578125</ele>
        <time>2019-05-02T12:24:03.000Z</time>
      </trkpt>
      <trkpt lat="41.6409015096724033355712890625" lon="-8.48326426930725574493408203125">
        <ele>79.40000152587890625</ele>
        <time>2019-05-02T12:24:32.000Z</time>
      </trkpt>
      <trkpt lat="41.64144717156887054443359375" lon="-8.48320308141410350799560546875">
        <ele>83.59999847412109375</ele>
        <time>2019-05-02T12:25:01.000Z</time>
      </trkpt>
      <trkpt lat="41.64169183932244777679443359375" lon="-8.48315094597637653350830078125">
        <ele>85.59999847412109375</ele>
        <time>2019-05-02T12:25:15.000Z</time>
      </trkpt>
      <trkpt lat="41.64176107384264469146728515625" lon="-8.483166955411434173583984375">
        <ele>86.1999969482421875</ele>
        <time>2019-05-02T12:25:19.000Z</time>
      </trkpt>
      <trkpt lat="41.6423009522259235382080078125" lon="-8.48309830762445926666259765625">
        <ele>89.1999969482421875</ele>
        <time>2019-05-02T12:25:48.000Z</time>
      </trkpt>
      <trkpt lat="41.64284502156078815460205078125" lon="-8.48297618329524993896484375">
        <ele>94.59999847412109375</ele>
        <time>2019-05-02T12:26:15.000Z</time>
      </trkpt>
      <trkpt lat="41.64338598959147930145263671875" lon="-8.4829272329807281494140625">
        <ele>99.1999969482421875</ele>
        <time>2019-05-02T12:26:47.000Z</time>
      </trkpt>
      <trkpt lat="41.64340342395007610321044921875" lon="-8.4829357825219631195068359375">
        <ele>99.40000152587890625</ele>
        <time>2019-05-02T12:26:50.000Z</time>
      </trkpt>
      <trkpt lat="41.64351875893771648406982421875" lon="-8.48301247693598270416259765625">
        <ele>100.1999969482421875</ele>
        <time>2019-05-02T12:27:07.000Z</time>
      </trkpt>
      <trkpt lat="41.64368472062051296234130859375" lon="-8.4832388721406459808349609375">
        <ele>101.1999969482421875</ele>
        <time>2019-05-02T12:27:26.000Z</time>
      </trkpt>
      <trkpt lat="41.64372612722218036651611328125" lon="-8.48323979414999485015869140625">
        <ele>101.8000030517578125</ele>
        <time>2019-05-02T12:27:30.000Z</time>
      </trkpt>
      <trkpt lat="41.644123680889606475830078125" lon="-8.48305262625217437744140625">
        <ele>106.1999969482421875</ele>
        <time>2019-05-02T12:28:11.000Z</time>
      </trkpt>
      <trkpt lat="41.644159220159053802490234375" lon="-8.48303544335067272186279296875">
        <ele>106.40000152587890625</ele>
        <time>2019-05-02T12:28:15.000Z</time>
      </trkpt>
      <trkpt lat="41.6441741399466991424560546875" lon="-8.483016751706600189208984375">
        <ele>106.59999847412109375</ele>
        <time>2019-05-02T12:28:19.000Z</time>
      </trkpt>
      <trkpt lat="41.644180007278919219970703125" lon="-8.482955060899257659912109375">
        <ele>106.8000030517578125</ele>
        <time>2019-05-02T12:28:33.000Z</time>
      </trkpt>
      <trkpt lat="41.64418294094502925872802734375" lon="-8.48283712752163410186767578125">
        <ele>107.40000152587890625</ele>
        <time>2019-05-02T12:28:38.000Z</time>
      </trkpt>
      <trkpt lat="41.64418361149728298187255859375" lon="-8.482812233269214630126953125">
        <ele>107.40000152587890625</ele>
        <time>2019-05-02T12:28:39.000Z</time>
      </trkpt>
      <trkpt lat="41.6441771574318408966064453125" lon="-8.48249061964452266693115234375">
        <ele>107.1999969482421875</ele>
        <time>2019-05-02T12:28:53.000Z</time>
      </trkpt>
      <trkpt lat="41.64431034587323665618896484375" lon="-8.48254837095737457275390625">
        <ele>108.1999969482421875</ele>
        <time>2019-05-02T12:29:00.000Z</time>
      </trkpt>
      <trkpt lat="41.644803620874881744384765625" lon="-8.48288456909358501434326171875">
        <ele>111.1999969482421875</ele>
        <time>2019-05-02T12:29:22.000Z</time>
      </trkpt>
      <trkpt lat="41.64533997885882854461669921875" lon="-8.48292781971395015716552734375">
        <ele>112.8000030517578125</ele>
        <time>2019-05-02T12:29:48.000Z</time>
      </trkpt>
      <trkpt lat="41.645889580249786376953125" lon="-8.4829149954020977020263671875">
        <ele>114.1999969482421875</ele>
        <time>2019-05-02T12:30:08.000Z</time>
      </trkpt>
      <trkpt lat="41.646381430327892303466796875" lon="-8.483266867697238922119140625">
        <ele>114.40000152587890625</ele>
        <time>2019-05-02T12:30:24.000Z</time>
      </trkpt>
      <trkpt lat="41.64656625129282474517822265625" lon="-8.483569957315921783447265625">
        <ele>114</ele>
        <time>2019-05-02T12:30:31.000Z</time>
      </trkpt>
      <trkpt lat="41.64669047109782695770263671875" lon="-8.4837203286588191986083984375">
        <ele>113.8000030517578125</ele>
        <time>2019-05-02T12:30:35.000Z</time>
      </trkpt>
      <trkpt lat="41.64681251160800457000732421875" lon="-8.48386156372725963592529296875">
        <ele>113.8000030517578125</ele>
        <time>2019-05-02T12:30:39.000Z</time>
      </trkpt>
      <trkpt lat="41.6470870189368724822998046875" lon="-8.48445030860602855682373046875">
        <ele>115</ele>
        <time>2019-05-02T12:30:53.000Z</time>
      </trkpt>
      <trkpt lat="41.64725557900965213775634765625" lon="-8.48512471653521060943603515625">
        <ele>115</ele>
        <time>2019-05-02T12:31:07.000Z</time>
      </trkpt>
      <trkpt lat="41.64736102335155010223388671875" lon="-8.48532185889780521392822265625">
        <ele>114.40000152587890625</ele>
        <time>2019-05-02T12:31:11.000Z</time>
      </trkpt>
      <trkpt lat="41.64741165004670619964599609375" lon="-8.48542881198227405548095703125">
        <ele>114</ele>
        <time>2019-05-02T12:31:13.000Z</time>
      </trkpt>
      <trkpt lat="41.64765338413417339324951171875" lon="-8.4858429618179798126220703125">
        <ele>111.8000030517578125</ele>
        <time>2019-05-02T12:31:20.000Z</time>
      </trkpt>
      <trkpt lat="41.64790987037122249603271484375" lon="-8.485966511070728302001953125">
        <ele>110.8000030517578125</ele>
        <time>2019-05-02T12:31:24.000Z</time>
      </trkpt>
      <trkpt lat="41.64807491004467010498046875" lon="-8.48599098622798919677734375">
        <ele>110.40000152587890625</ele>
        <time>2019-05-02T12:31:26.000Z</time>
      </trkpt>
      <trkpt lat="41.64847179315984249114990234375" lon="-8.4858094342052936553955078125">
        <ele>108.59999847412109375</ele>
        <time>2019-05-02T12:31:31.000Z</time>
      </trkpt>
      <trkpt lat="41.6486899740993976593017578125" lon="-8.4856018982827663421630859375">
        <ele>107.8000030517578125</ele>
        <time>2019-05-02T12:31:35.000Z</time>
      </trkpt>
      <trkpt lat="41.64893346838653087615966796875" lon="-8.48559401929378509521484375">
        <ele>105.8000030517578125</ele>
        <time>2019-05-02T12:31:39.000Z</time>
      </trkpt>
      <trkpt lat="41.64915173314511775970458984375" lon="-8.4856548719108104705810546875">
        <ele>103.8000030517578125</ele>
        <time>2019-05-02T12:31:42.000Z</time>
      </trkpt>
      <trkpt lat="41.64956294931471347808837890625" lon="-8.4861292876303195953369140625">
        <ele>100.1999969482421875</ele>
        <time>2019-05-02T12:31:49.000Z</time>
      </trkpt>
      <trkpt lat="41.64961994625627994537353515625" lon="-8.4862003661692142486572265625">
        <ele>99.40000152587890625</ele>
        <time>2019-05-02T12:31:50.000Z</time>
      </trkpt>
      <trkpt lat="41.6498114727437496185302734375" lon="-8.48666531033813953399658203125">
        <ele>95.40000152587890625</ele>
        <time>2019-05-02T12:31:55.000Z</time>
      </trkpt>
      <trkpt lat="41.64999713189899921417236328125" lon="-8.48695314489305019378662109375">
        <ele>93.8000030517578125</ele>
        <time>2019-05-02T12:31:59.000Z</time>
      </trkpt>
      <trkpt lat="41.65017801336944103240966796875" lon="-8.487430997192859649658203125">
        <ele>93.40000152587890625</ele>
        <time>2019-05-02T12:32:06.000Z</time>
      </trkpt>
      <trkpt lat="41.65025864727795124053955078125" lon="-8.4879297204315662384033203125">
        <ele>94.1999969482421875</ele>
        <time>2019-05-02T12:32:14.000Z</time>
      </trkpt>
      <trkpt lat="41.65029385127127170562744140625" lon="-8.4880323149263858795166015625">
        <ele>94.40000152587890625</ele>
        <time>2019-05-02T12:32:16.000Z</time>
      </trkpt>
      <trkpt lat="41.65075049735605716705322265625" lon="-8.4884393401443958282470703125">
        <ele>98</ele>
        <time>2019-05-02T12:32:31.000Z</time>
      </trkpt>
      <trkpt lat="41.65124502964317798614501953125" lon="-8.48879045806825160980224609375">
        <ele>98.40000152587890625</ele>
        <time>2019-05-02T12:32:47.000Z</time>
      </trkpt>
      <trkpt lat="41.65175012312829494476318359375" lon="-8.48911886103451251983642578125">
        <ele>99.59999847412109375</ele>
        <time>2019-05-02T12:33:03.000Z</time>
      </trkpt>
      <trkpt lat="41.65225923992693424224853515625" lon="-8.48944793455302715301513671875">
        <ele>101.59999847412109375</ele>
        <time>2019-05-02T12:33:21.000Z</time>
      </trkpt>
      <trkpt lat="41.6526391915977001190185546875" lon="-8.48996023647487163543701171875">
        <ele>103</ele>
        <time>2019-05-02T12:33:35.000Z</time>
      </trkpt>
      <trkpt lat="41.65317513048648834228515625" lon="-8.49002368748188018798828125">
        <ele>105.8000030517578125</ele>
        <time>2019-05-02T12:33:51.000Z</time>
      </trkpt>
      <trkpt lat="41.653710901737213134765625" lon="-8.4901780821382999420166015625">
        <ele>108.40000152587890625</ele>
        <time>2019-05-02T12:34:10.000Z</time>
      </trkpt>
      <trkpt lat="41.6542163304984569549560546875" lon="-8.49043448455631732940673828125">
        <ele>112.40000152587890625</ele>
        <time>2019-05-02T12:34:32.000Z</time>
      </trkpt>
      <trkpt lat="41.65474179200828075408935546875" lon="-8.49067068658769130706787109375">
        <ele>116.1999969482421875</ele>
        <time>2019-05-02T12:35:01.000Z</time>
      </trkpt>
      <trkpt lat="41.6552245058119297027587890625" lon="-8.49100529216229915618896484375">
        <ele>119.8000030517578125</ele>
        <time>2019-05-02T12:35:25.000Z</time>
      </trkpt>
      <trkpt lat="41.6557163558900356292724609375" lon="-8.4913394786417484283447265625">
        <ele>121.1999969482421875</ele>
        <time>2019-05-02T12:35:47.000Z</time>
      </trkpt>
      <trkpt lat="41.65620736777782440185546875" lon="-8.49164198152720928192138671875">
        <ele>123.1999969482421875</ele>
        <time>2019-05-02T12:36:13.000Z</time>
      </trkpt>
      <trkpt lat="41.6562108881771564483642578125" lon="-8.491646759212017059326171875">
        <ele>123.1999969482421875</ele>
        <time>2019-05-02T12:36:15.000Z</time>
      </trkpt>
      <trkpt lat="41.65622488595545291900634765625" lon="-8.49166612140834331512451171875">
        <ele>123.40000152587890625</ele>
        <time>2019-05-02T12:36:19.000Z</time>
      </trkpt>
      <trkpt lat="41.65630518458783626556396484375" lon="-8.4917183406651020050048828125">
        <ele>124.1999969482421875</ele>
        <time>2019-05-02T12:36:24.000Z</time>
      </trkpt>
      <trkpt lat="41.65631758980453014373779296875" lon="-8.49172395654022693634033203125">
        <ele>124.1999969482421875</ele>
        <time>2019-05-02T12:36:27.000Z</time>
      </trkpt>
      <trkpt lat="41.6563376225531101226806640625" lon="-8.49174608476459980010986328125">
        <ele>124.40000152587890625</ele>
        <time>2019-05-02T12:37:15.000Z</time>
      </trkpt>
      <trkpt lat="41.65684707462787628173828125" lon="-8.49169277586042881011962890625">
        <ele>127.8000030517578125</ele>
        <time>2019-05-02T12:37:43.000Z</time>
      </trkpt>
      <trkpt lat="41.657061986625194549560546875" lon="-8.49166712723672389984130859375">
        <ele>129.1999969482421875</ele>
        <time>2019-05-02T12:37:55.000Z</time>
      </trkpt>
      <trkpt lat="41.65720573626458644866943359375" lon="-8.49172764457762241363525390625">
        <ele>130.600006103515625</ele>
        <time>2019-05-02T12:38:04.000Z</time>
      </trkpt>
      <trkpt lat="41.65762281976640224456787109375" lon="-8.49178916774690151214599609375">
        <ele>135</ele>
        <time>2019-05-02T12:38:28.000Z</time>
      </trkpt>
      <trkpt lat="41.65764679200947284698486328125" lon="-8.4917746670544147491455078125">
        <ele>135.1999969482421875</ele>
        <time>2019-05-02T12:39:18.000Z</time>
      </trkpt>
      <trkpt lat="41.6577900387346744537353515625" lon="-8.49176268093287944793701171875">
        <ele>136.8000030517578125</ele>
        <time>2019-05-02T12:39:25.000Z</time>
      </trkpt>
      <trkpt lat="41.65824609808623790740966796875" lon="-8.4916730783879756927490234375">
        <ele>142</ele>
        <time>2019-05-02T12:39:50.000Z</time>
      </trkpt>
      <trkpt lat="41.65838976390659809112548828125" lon="-8.49179956130683422088623046875">
        <ele>145.1999969482421875</ele>
        <time>2019-05-02T12:40:01.000Z</time>
      </trkpt>
      <trkpt lat="41.6584049351513385772705078125" lon="-8.49183158017694950103759765625">
        <ele>145.8000030517578125</ele>
        <time>2019-05-02T12:40:05.000Z</time>
      </trkpt>
      <trkpt lat="41.65845950134098529815673828125" lon="-8.4921082668006420135498046875">
        <ele>146.1999969482421875</ele>
        <time>2019-05-02T12:40:23.000Z</time>
      </trkpt>
      <trkpt lat="41.65879159234464168548583984375" lon="-8.49252392537891864776611328125">
        <ele>150</ele>
        <time>2019-05-02T12:41:05.000Z</time>
      </trkpt>
      <trkpt lat="41.65881087072193622589111328125" lon="-8.49256080575287342071533203125">
        <ele>150.1999969482421875</ele>
        <time>2019-05-02T12:41:23.000Z</time>
      </trkpt>
      <trkpt lat="41.65911010466516017913818359375" lon="-8.49318324588239192962646484375">
        <ele>149</ele>
        <time>2019-05-02T12:41:40.000Z</time>
      </trkpt>
      <trkpt lat="41.6590560413897037506103515625" lon="-8.49380903877317905426025390625">
        <ele>141.1999969482421875</ele>
        <time>2019-05-02T12:41:52.000Z</time>
      </trkpt>
      <trkpt lat="41.6588401235640048980712890625" lon="-8.4940894134342670440673828125">
        <ele>135.600006103515625</ele>
        <time>2019-05-02T12:41:57.000Z</time>
      </trkpt>
      <trkpt lat="41.65877751074731349945068359375" lon="-8.49415965378284454345703125">
        <ele>134.1999969482421875</ele>
        <time>2019-05-02T12:41:58.000Z</time>
      </trkpt>
      <trkpt lat="41.65852638892829418182373046875" lon="-8.494527451694011688232421875">
        <ele>131</ele>
        <time>2019-05-02T12:42:03.000Z</time>
      </trkpt>
      <trkpt lat="41.658425889909267425537109375" lon="-8.49472048692405223846435546875">
        <ele>131.1999969482421875</ele>
        <time>2019-05-02T12:42:07.000Z</time>
      </trkpt>
      <trkpt lat="41.6584676317870616912841796875" lon="-8.4948367439210414886474609375">
        <ele>132.399993896484375</ele>
        <time>2019-05-02T12:42:11.000Z</time>
      </trkpt>
      <trkpt lat="41.65886149741709232330322265625" lon="-8.49510035477578639984130859375">
        <ele>131.399993896484375</ele>
        <time>2019-05-02T12:42:36.000Z</time>
      </trkpt>
      <trkpt lat="41.65890860371291637420654296875" lon="-8.49518425762653350830078125">
        <ele>131.399993896484375</ele>
        <time>2019-05-02T12:42:46.000Z</time>
      </trkpt>
      <trkpt lat="41.65898068808019161224365234375" lon="-8.4953259117901325225830078125">
        <ele>132.1999969482421875</ele>
        <time>2019-05-02T12:42:56.000Z</time>
      </trkpt>
      <trkpt lat="41.658981107175350189208984375" lon="-8.49572748877108097076416015625">
        <ele>134.8000030517578125</ele>
        <time>2019-05-02T12:43:24.000Z</time>
      </trkpt>
      <trkpt lat="41.65897138416767120361328125" lon="-8.49574525840580463409423828125">
        <ele>134.8000030517578125</ele>
        <time>2019-05-02T12:43:32.000Z</time>
      </trkpt>
      <trkpt lat="41.6588582284748554229736328125" lon="-8.49581583403050899505615234375">
        <ele>136.1999969482421875</ele>
        <time>2019-05-02T12:43:41.000Z</time>
      </trkpt>
      <trkpt lat="41.6588441468775272369384765625" lon="-8.49588674493134021759033203125">
        <ele>136.600006103515625</ele>
        <time>2019-05-02T12:44:48.000Z</time>
      </trkpt>
      <trkpt lat="41.6588273830711841583251953125" lon="-8.4960242919623851776123046875">
        <ele>137.8000030517578125</ele>
        <time>2019-05-02T12:44:55.000Z</time>
      </trkpt>
      <trkpt lat="41.65883048437535762786865234375" lon="-8.49605974741280078887939453125">
        <ele>138.1999969482421875</ele>
        <time>2019-05-02T12:44:57.000Z</time>
      </trkpt>
      <trkpt lat="41.6587951965630054473876953125" lon="-8.49624481983482837677001953125">
        <ele>140.8000030517578125</ele>
        <time>2019-05-02T12:45:05.000Z</time>
      </trkpt>
      <trkpt lat="41.6588273830711841583251953125" lon="-8.496337942779064178466796875">
        <ele>141.8000030517578125</ele>
        <time>2019-05-02T12:45:09.000Z</time>
      </trkpt>
      <trkpt lat="41.658863089978694915771484375" lon="-8.49641849286854267120361328125">
        <ele>142.399993896484375</ele>
        <time>2019-05-02T12:45:13.000Z</time>
      </trkpt>
      <trkpt lat="41.658921428024768829345703125" lon="-8.4965365938842296600341796875">
        <ele>143.399993896484375</ele>
        <time>2019-05-02T12:45:18.000Z</time>
      </trkpt>
      <trkpt lat="41.65929836221039295196533203125" lon="-8.497066162526607513427734375">
        <ele>151</ele>
        <time>2019-05-02T12:45:45.000Z</time>
      </trkpt>
      <trkpt lat="41.6597882844507694244384765625" lon="-8.4973895363509654998779296875">
        <ele>160.1999969482421875</ele>
        <time>2019-05-02T12:46:19.000Z</time>
      </trkpt>
      <trkpt lat="41.66014459915459156036376953125" lon="-8.49740571342408657073974609375">
        <ele>161.8000030517578125</ele>
        <time>2019-05-02T12:46:33.000Z</time>
      </trkpt>
      <trkpt lat="41.660406030714511871337890625" lon="-8.4975196234881877899169921875">
        <ele>159.399993896484375</ele>
        <time>2019-05-02T12:46:38.000Z</time>
      </trkpt>
      <trkpt lat="41.66090751998126506805419921875" lon="-8.49779413081705570220947265625">
        <ele>160.8000030517578125</ele>
        <time>2019-05-02T12:47:04.000Z</time>
      </trkpt>
      <trkpt lat="41.6610462404787540435791015625" lon="-8.49785850383341312408447265625">
        <ele>162.8000030517578125</ele>
        <time>2019-05-02T12:47:14.000Z</time>
      </trkpt>
      <trkpt lat="41.661080606281757354736328125" lon="-8.497876860201358795166015625">
        <ele>163.1999969482421875</ele>
        <time>2019-05-02T12:47:20.000Z</time>
      </trkpt>
      <trkpt lat="41.66150338947772979736328125" lon="-8.4982089512050151824951171875">
        <ele>168.8000030517578125</ele>
        <time>2019-05-02T12:48:06.000Z</time>
      </trkpt>
      <trkpt lat="41.6615270264446735382080078125" lon="-8.498234264552593231201171875">
        <ele>169.1999969482421875</ele>
        <time>2019-05-02T12:48:09.000Z</time>
      </trkpt>
      <trkpt lat="41.66174235753715038299560546875" lon="-8.49842428229749202728271484375">
        <ele>172.1999969482421875</ele>
        <time>2019-05-02T12:48:44.000Z</time>
      </trkpt>
      <trkpt lat="41.6618820838630199432373046875" lon="-8.4984915889799594879150390625">
        <ele>171.399993896484375</ele>
        <time>2019-05-02T12:52:27.000Z</time>
      </trkpt>
      <trkpt lat="41.662422716617584228515625" lon="-8.4986717998981475830078125">
        <ele>173.8000030517578125</ele>
        <time>2019-05-02T12:52:46.000Z</time>
      </trkpt>
      <trkpt lat="41.66244677267968654632568359375" lon="-8.49866786040365695953369140625">
        <ele>174</ele>
        <time>2019-05-02T12:52:50.000Z</time>
      </trkpt>
      <trkpt lat="41.66255406104028224945068359375" lon="-8.49877095781266689300537109375">
        <ele>178.8000030517578125</ele>
        <time>2019-05-02T12:53:05.000Z</time>
      </trkpt>
      <trkpt lat="41.66259429417550563812255859375" lon="-8.49884186871349811553955078125">
        <ele>181.399993896484375</ele>
        <time>2019-05-02T12:53:10.000Z</time>
      </trkpt>
      <trkpt lat="41.66258323006331920623779296875" lon="-8.49887506105005741119384765625">
        <ele>182.1999969482421875</ele>
        <time>2019-05-02T12:53:13.000Z</time>
      </trkpt>
      <trkpt lat="41.6625529713928699493408203125" lon="-8.49893675185739994049072265625">
        <ele>183.399993896484375</ele>
        <time>2019-05-02T12:53:19.000Z</time>
      </trkpt>
      <trkpt lat="41.66218039579689502716064453125" lon="-8.49915132857859134674072265625">
        <ele>185.399993896484375</ele>
        <time>2019-05-02T12:54:23.000Z</time>
      </trkpt>
      <trkpt lat="41.662464626133441925048828125" lon="-8.49922844208776950836181640625">
        <ele>189.8000030517578125</ele>
        <time>2019-05-02T12:54:42.000Z</time>
      </trkpt>
      <trkpt lat="41.66251198388636112213134765625" lon="-8.49923213012516498565673828125">
        <ele>189.8000030517578125</ele>
        <time>2019-05-02T12:54:45.000Z</time>
      </trkpt>
      <trkpt lat="41.66304306127130985260009765625" lon="-8.4994545020163059234619140625">
        <ele>193.1999969482421875</ele>
        <time>2019-05-02T12:55:03.000Z</time>
      </trkpt>
      <trkpt lat="41.66356340982019901275634765625" lon="-8.49972532130777835845947265625">
        <ele>200.399993896484375</ele>
        <time>2019-05-02T12:55:21.000Z</time>
      </trkpt>
      <trkpt lat="41.66410035453736782073974609375" lon="-8.49989145062863826751708984375">
        <ele>206.1999969482421875</ele>
        <time>2019-05-02T12:55:41.000Z</time>
      </trkpt>
      <trkpt lat="41.664629168808460235595703125" lon="-8.50004215724766254425048828125">
        <ele>211</ele>
        <time>2019-05-02T12:55:58.000Z</time>
      </trkpt>
      <trkpt lat="41.6648432426154613494873046875" lon="-8.50020409561693668365478515625">
        <ele>213.399993896484375</ele>
        <time>2019-05-02T12:56:11.000Z</time>
      </trkpt>
      <trkpt lat="41.66506025008857250213623046875" lon="-8.5001170076429843902587890625">
        <ele>214.8000030517578125</ele>
        <time>2019-05-02T12:56:43.000Z</time>
      </trkpt>
      <trkpt lat="41.66516100056469440460205078125" lon="-8.4996201284229755401611328125">
        <ele>207.399993896484375</ele>
        <time>2019-05-02T12:57:21.000Z</time>
      </trkpt>
      <trkpt lat="41.66568838991224765777587890625" lon="-8.49965943954885005950927734375">
        <ele>214.8000030517578125</ele>
        <time>2019-05-02T12:58:11.000Z</time>
      </trkpt>
      <trkpt lat="41.66579701937735080718994140625" lon="-8.49968391470611095428466796875">
        <ele>216</ele>
        <time>2019-05-02T12:58:23.000Z</time>
      </trkpt>
      <trkpt lat="41.66622533462941646575927734375" lon="-8.49987141788005828857421875">
        <ele>222.1999969482421875</ele>
        <time>2019-05-02T12:59:11.000Z</time>
      </trkpt>
      <trkpt lat="41.66643689386546611785888671875" lon="-8.49999471567571163177490234375">
        <ele>225.600006103515625</ele>
        <time>2019-05-02T13:00:07.000Z</time>
      </trkpt>
      <trkpt lat="41.666613332927227020263671875" lon="-8.5000291652977466583251953125">
        <ele>227</ele>
        <time>2019-05-02T13:00:14.000Z</time>
      </trkpt>
      <trkpt lat="41.66711029596626758575439453125" lon="-8.500221781432628631591796875">
        <ele>226</ele>
        <time>2019-05-02T13:00:34.000Z</time>
      </trkpt>
      <trkpt lat="41.667493097484111785888671875" lon="-8.500647246837615966796875">
        <ele>230.600006103515625</ele>
        <time>2019-05-02T13:01:01.000Z</time>
      </trkpt>
      <trkpt lat="41.66751950047910213470458984375" lon="-8.50067012943327426910400390625">
        <ele>231.1999969482421875</ele>
        <time>2019-05-02T13:02:23.000Z</time>
      </trkpt>
      <trkpt lat="41.667919568717479705810546875" lon="-8.50117773748934268951416015625">
        <ele>239.600006103515625</ele>
        <time>2019-05-02T13:02:48.000Z</time>
      </trkpt>
      <trkpt lat="41.668169684708118438720703125" lon="-8.5013679228723049163818359375">
        <ele>243.600006103515625</ele>
        <time>2019-05-02T13:03:03.000Z</time>
      </trkpt>
      <trkpt lat="41.66846749372780323028564453125" lon="-8.50119265727698802947998046875">
        <ele>247.8000030517578125</ele>
        <time>2019-05-02T13:04:56.000Z</time>
      </trkpt>
      <trkpt lat="41.66864066384732723236083984375" lon="-8.50114052183926105499267578125">
        <ele>250.1999969482421875</ele>
        <time>2019-05-02T13:05:10.000Z</time>
      </trkpt>
      <trkpt lat="41.66914307512342929840087890625" lon="-8.50086257793009281158447265625">
        <ele>258.20001220703125</ele>
        <time>2019-05-02T13:05:57.000Z</time>
      </trkpt>
      <trkpt lat="41.6696735657751560211181640625" lon="-8.5009277053177356719970703125">
        <ele>267.600006103515625</ele>
        <time>2019-05-02T13:06:44.000Z</time>
      </trkpt>
      <trkpt lat="41.66988470591604709625244140625" lon="-8.501049242913722991943359375">
        <ele>271.20001220703125</ele>
        <time>2019-05-02T13:07:06.000Z</time>
      </trkpt>
      <trkpt lat="41.6698873043060302734375" lon="-8.50105158984661102294921875">
        <ele>271.20001220703125</ele>
        <time>2019-05-02T13:07:08.000Z</time>
      </trkpt>
      <trkpt lat="41.66992896236479282379150390625" lon="-8.5011466406285762786865234375">
        <ele>271.600006103515625</ele>
        <time>2019-05-02T13:07:34.000Z</time>
      </trkpt>
      <trkpt lat="41.6701124422252178192138671875" lon="-8.50167964585125446319580078125">
        <ele>272.600006103515625</ele>
        <time>2019-05-02T13:08:20.000Z</time>
      </trkpt>
      <trkpt lat="41.67015083134174346923828125" lon="-8.50170311518013477325439453125">
        <ele>272.79998779296875</ele>
        <time>2019-05-02T13:08:25.000Z</time>
      </trkpt>
      <trkpt lat="41.67050362564623355865478515625" lon="-8.50194501690566539764404296875">
        <ele>274</ele>
        <time>2019-05-02T13:08:36.000Z</time>
      </trkpt>
      <trkpt lat="41.67057336308062076568603515625" lon="-8.50205096416175365447998046875">
        <ele>273.79998779296875</ele>
        <time>2019-05-02T13:08:38.000Z</time>
      </trkpt>
      <trkpt lat="41.6708354651927947998046875" lon="-8.50269268266856670379638671875">
        <ele>270</ele>
        <time>2019-05-02T13:08:48.000Z</time>
      </trkpt>
      <trkpt lat="41.67095683515071868896484375" lon="-8.5029990412294864654541015625">
        <ele>270</ele>
        <time>2019-05-02T13:08:54.000Z</time>
      </trkpt>
      <trkpt lat="41.6709801368415355682373046875" lon="-8.5032196529209613800048828125">
        <ele>269.399993896484375</ele>
        <time>2019-05-02T13:08:58.000Z</time>
      </trkpt>
      <trkpt lat="41.67099933139979839324951171875" lon="-8.503948040306568145751953125">
        <ele>267.600006103515625</ele>
        <time>2019-05-02T13:09:11.000Z</time>
      </trkpt>
      <trkpt lat="41.67101626284420490264892578125" lon="-8.50449663586914539337158203125">
        <ele>267</ele>
        <time>2019-05-02T13:09:21.000Z</time>
      </trkpt>
      <trkpt lat="41.6712138243019580841064453125" lon="-8.50474306382238864898681640625">
        <ele>268.79998779296875</ele>
        <time>2019-05-02T13:09:28.000Z</time>
      </trkpt>
      <trkpt lat="41.67153107933700084686279296875" lon="-8.50497976876795291900634765625">
        <ele>270.399993896484375</ele>
        <time>2019-05-02T13:09:37.000Z</time>
      </trkpt>
      <trkpt lat="41.6720842011272907257080078125" lon="-8.5051387734711170196533203125">
        <ele>267.600006103515625</ele>
        <time>2019-05-02T13:09:49.000Z</time>
      </trkpt>
      <trkpt lat="41.672663055360317230224609375" lon="-8.50518780760467052459716796875">
        <ele>264.600006103515625</ele>
        <time>2019-05-02T13:09:58.000Z</time>
      </trkpt>
      <trkpt lat="41.67285508476197719573974609375" lon="-8.505261652171611785888671875">
        <ele>264.79998779296875</ele>
        <time>2019-05-02T13:10:02.000Z</time>
      </trkpt>
      <trkpt lat="41.67289833538234233856201171875" lon="-8.5052816011011600494384765625">
        <ele>264.79998779296875</ele>
        <time>2019-05-02T13:10:03.000Z</time>
      </trkpt>
      <trkpt lat="41.67345288209617137908935546875" lon="-8.505478240549564361572265625">
        <ele>267</ele>
        <time>2019-05-02T13:10:14.000Z</time>
      </trkpt>
      <trkpt lat="41.674001477658748626708984375" lon="-8.5056232474744319915771484375">
        <ele>269.20001220703125</ele>
        <time>2019-05-02T13:10:24.000Z</time>
      </trkpt>
      <trkpt lat="41.67442132718861103057861328125" lon="-8.50568753667175769805908203125">
        <ele>269.600006103515625</ele>
        <time>2019-05-02T13:10:33.000Z</time>
      </trkpt>
      <trkpt lat="41.674592234194278717041015625" lon="-8.505691476166248321533203125">
        <ele>269</ele>
        <time>2019-05-02T13:10:37.000Z</time>
      </trkpt>
      <trkpt lat="41.6747154481709003448486328125" lon="-8.5057152807712554931640625">
        <ele>269.399993896484375</ele>
        <time>2019-05-02T13:10:40.000Z</time>
      </trkpt>
      <trkpt lat="41.6750845871865749359130859375" lon="-8.50581292994320392608642578125">
        <ele>270.20001220703125</ele>
        <time>2019-05-02T13:10:47.000Z</time>
      </trkpt>
      <trkpt lat="41.67564022354781627655029296875" lon="-8.50593497045338153839111328125">
        <ele>263.600006103515625</ele>
        <time>2019-05-02T13:10:56.000Z</time>
      </trkpt>
      <trkpt lat="41.67619141750037670135498046875" lon="-8.50609338842332363128662109375">
        <ele>261.600006103515625</ele>
        <time>2019-05-02T13:11:06.000Z</time>
      </trkpt>
      <trkpt lat="41.67660011909902095794677734375" lon="-8.5063300095498561859130859375">
        <ele>261.399993896484375</ele>
        <time>2019-05-02T13:11:13.000Z</time>
      </trkpt>
      <trkpt lat="41.67710906825959682464599609375" lon="-8.506739549338817596435546875">
        <ele>262.79998779296875</ele>
        <time>2019-05-02T13:11:21.000Z</time>
      </trkpt>
      <trkpt lat="41.67716170661151409149169921875" lon="-8.5067662037909030914306640625">
        <ele>262.79998779296875</ele>
        <time>2019-05-02T13:11:22.000Z</time>
      </trkpt>
      <trkpt lat="41.67736371047794818878173828125" lon="-8.50674164481461048126220703125">
        <ele>260</ele>
        <time>2019-05-02T13:11:26.000Z</time>
      </trkpt>
      <trkpt lat="41.67741785757243633270263671875" lon="-8.50671666674315929412841796875">
        <ele>259</ele>
        <time>2019-05-02T13:11:27.000Z</time>
      </trkpt>
      <trkpt lat="41.67794340290129184722900390625" lon="-8.5064272396266460418701171875">
        <ele>250</ele>
        <time>2019-05-02T13:11:36.000Z</time>
      </trkpt>
      <trkpt lat="41.6784547828137874603271484375" lon="-8.50616362877190113067626953125">
        <ele>239</ele>
        <time>2019-05-02T13:11:44.000Z</time>
      </trkpt>
      <trkpt lat="41.6787109337747097015380859375" lon="-8.50610210560262203216552734375">
        <ele>234</ele>
        <time>2019-05-02T13:11:48.000Z</time>
      </trkpt>
      <trkpt lat="41.67893548496067523956298828125" lon="-8.50618324242532253265380859375">
        <ele>232.399993896484375</ele>
        <time>2019-05-02T13:11:52.000Z</time>
      </trkpt>
      <trkpt lat="41.67904562316834926605224609375" lon="-8.50624996237456798553466796875">
        <ele>231</ele>
        <time>2019-05-02T13:11:54.000Z</time>
      </trkpt>
      <trkpt lat="41.6791736148297786712646484375" lon="-8.5063467733561992645263671875">
        <ele>230.399993896484375</ele>
        <time>2019-05-02T13:11:57.000Z</time>
      </trkpt>
      <trkpt lat="41.67930797673761844635009765625" lon="-8.50631517358124256134033203125">
        <ele>227.600006103515625</ele>
        <time>2019-05-02T13:12:03.000Z</time>
      </trkpt>
      <trkpt lat="41.679313592612743377685546875" lon="-8.50611166097223758697509765625">
        <ele>224.1999969482421875</ele>
        <time>2019-05-02T13:12:07.000Z</time>
      </trkpt>
      <trkpt lat="41.67933069169521331787109375" lon="-8.505994565784931182861328125">
        <ele>222</ele>
        <time>2019-05-02T13:12:09.000Z</time>
      </trkpt>
      <trkpt lat="41.6794046200811862945556640625" lon="-8.5057635605335235595703125">
        <ele>221.600006103515625</ele>
        <time>2019-05-02T13:12:15.000Z</time>
      </trkpt>
      <trkpt lat="41.67977250181138515472412109375" lon="-8.50630695931613445281982421875">
        <ele>217.399993896484375</ele>
        <time>2019-05-02T13:12:28.000Z</time>
      </trkpt>
      <trkpt lat="41.68014264665544033050537109375" lon="-8.50677785463631153106689453125">
        <ele>214.399993896484375</ele>
        <time>2019-05-02T13:12:37.000Z</time>
      </trkpt>
      <trkpt lat="41.68020735494792461395263671875" lon="-8.5067993961274623870849609375">
        <ele>213.399993896484375</ele>
        <time>2019-05-02T13:12:38.000Z</time>
      </trkpt>
      <trkpt lat="41.68057481758296489715576171875" lon="-8.5070119611918926239013671875">
        <ele>208.1999969482421875</ele>
        <time>2019-05-02T13:12:45.000Z</time>
      </trkpt>
      <trkpt lat="41.6808647476136684417724609375" lon="-8.50717934779822826385498046875">
        <ele>205.600006103515625</ele>
        <time>2019-05-02T13:12:51.000Z</time>
      </trkpt>
      <trkpt lat="41.68102961964905261993408203125" lon="-8.50745058618485927581787109375">
        <ele>203.600006103515625</ele>
        <time>2019-05-02T13:12:56.000Z</time>
      </trkpt>
      <trkpt lat="41.681328602135181427001953125" lon="-8.5078524984419345855712890625">
        <ele>197.399993896484375</ele>
        <time>2019-05-02T13:13:02.000Z</time>
      </trkpt>
      <trkpt lat="41.68148509226739406585693359375" lon="-8.508189283311367034912109375">
        <ele>194.600006103515625</ele>
        <time>2019-05-02T13:13:07.000Z</time>
      </trkpt>
      <trkpt lat="41.68142524547874927520751953125" lon="-8.50865028798580169677734375">
        <ele>192.8000030517578125</ele>
        <time>2019-05-02T13:13:13.000Z</time>
      </trkpt>
      <trkpt lat="41.68135064654052257537841796875" lon="-8.50884214974939823150634765625">
        <ele>192.1999969482421875</ele>
        <time>2019-05-02T13:13:16.000Z</time>
      </trkpt>
      <trkpt lat="41.6816462762653827667236328125" lon="-8.50916719995439052581787109375">
        <ele>188.1999969482421875</ele>
        <time>2019-05-02T13:13:26.000Z</time>
      </trkpt>
      <trkpt lat="41.68176035396754741668701171875" lon="-8.50913367234170436859130859375">
        <ele>187.600006103515625</ele>
        <time>2019-05-02T13:13:29.000Z</time>
      </trkpt>
      <trkpt lat="41.68226880021393299102783203125" lon="-8.5093538649380207061767578125">
        <ele>184.399993896484375</ele>
        <time>2019-05-02T13:13:50.000Z</time>
      </trkpt>
      <trkpt lat="41.68279836885631084442138671875" lon="-8.509534411132335662841796875">
        <ele>181.1999969482421875</ele>
        <time>2019-05-02T13:14:12.000Z</time>
      </trkpt>
      <trkpt lat="41.68303322978317737579345703125" lon="-8.5094386897981166839599609375">
        <ele>180.399993896484375</ele>
        <time>2019-05-02T13:14:18.000Z</time>
      </trkpt>
      <trkpt lat="41.683523654937744140625" lon="-8.50958629511296749114990234375">
        <ele>178.1999969482421875</ele>
        <time>2019-05-02T13:14:26.000Z</time>
      </trkpt>
      <trkpt lat="41.6840823926031589508056640625" lon="-8.50959987379610538482666015625">
        <ele>176.600006103515625</ele>
        <time>2019-05-02T13:14:35.000Z</time>
      </trkpt>
      <trkpt lat="41.68431331403553485870361328125" lon="-8.50959308445453643798828125">
        <ele>176.600006103515625</ele>
        <time>2019-05-02T13:14:41.000Z</time>
      </trkpt>
      <trkpt lat="41.68485646136105060577392578125" lon="-8.50957606919109821319580078125">
        <ele>176.8000030517578125</ele>
        <time>2019-05-02T13:14:52.000Z</time>
      </trkpt>
      <trkpt lat="41.685418970882892608642578125" lon="-8.50964513607323169708251953125">
        <ele>176</ele>
        <time>2019-05-02T13:15:03.000Z</time>
      </trkpt>
      <trkpt lat="41.68552248738706111907958984375" lon="-8.50966290570795536041259765625">
        <ele>176.1999969482421875</ele>
        <time>2019-05-02T13:15:05.000Z</time>
      </trkpt>
      <trkpt lat="41.68580194003880023956298828125" lon="-8.5097189806401729583740234375">
        <ele>176.8000030517578125</ele>
        <time>2019-05-02T13:15:10.000Z</time>
      </trkpt>
      <trkpt lat="41.68604769743978977203369140625" lon="-8.5100157000124454498291015625">
        <ele>177.8000030517578125</ele>
        <time>2019-05-02T13:15:16.000Z</time>
      </trkpt>
      <trkpt lat="41.6860799677670001983642578125" lon="-8.510072529315948486328125">
        <ele>178</ele>
        <time>2019-05-02T13:15:17.000Z</time>
      </trkpt>
      <trkpt lat="41.68655262328684329986572265625" lon="-8.51046840660274028778076171875">
        <ele>178.600006103515625</ele>
        <time>2019-05-02T13:15:28.000Z</time>
      </trkpt>
      <trkpt lat="41.687031649053096771240234375" lon="-8.51075272075831890106201171875">
        <ele>180.1999969482421875</ele>
        <time>2019-05-02T13:15:39.000Z</time>
      </trkpt>
      <trkpt lat="41.68737304396927356719970703125" lon="-8.5113050043582916259765625">
        <ele>183.8000030517578125</ele>
        <time>2019-05-02T13:15:56.000Z</time>
      </trkpt>
      <trkpt lat="41.68762466870248317718505859375" lon="-8.51193859241902828216552734375">
        <ele>186.1999969482421875</ele>
        <time>2019-05-02T13:16:12.000Z</time>
      </trkpt>
      <trkpt lat="41.6876433603465557098388671875" lon="-8.51197178475558757781982421875">
        <ele>186.399993896484375</ele>
        <time>2019-05-02T13:16:13.000Z</time>
      </trkpt>
      <trkpt lat="41.6876822523772716522216796875" lon="-8.51217311806976795196533203125">
        <ele>186.600006103515625</ele>
        <time>2019-05-02T13:16:19.000Z</time>
      </trkpt>
      <trkpt lat="41.68749458156526088714599609375" lon="-8.51288038305938243865966796875">
        <ele>185.8000030517578125</ele>
        <time>2019-05-02T13:16:32.000Z</time>
      </trkpt>
      <trkpt lat="41.68728905729949474334716796875" lon="-8.51355336606502532958984375">
        <ele>185.600006103515625</ele>
        <time>2019-05-02T13:16:42.000Z</time>
      </trkpt>
      <trkpt lat="41.6870770789682865142822265625" lon="-8.51422852836549282073974609375">
        <ele>185.600006103515625</ele>
        <time>2019-05-02T13:16:52.000Z</time>
      </trkpt>
      <trkpt lat="41.68685303069651126861572265625" lon="-8.5149715840816497802734375">
        <ele>183.399993896484375</ele>
        <time>2019-05-02T13:17:01.000Z</time>
      </trkpt>
      <trkpt lat="41.68661615811288356781005859375" lon="-8.5157360136508941650390625">
        <ele>181.600006103515625</ele>
        <time>2019-05-02T13:17:09.000Z</time>
      </trkpt>
      <trkpt lat="41.68639437295496463775634765625" lon="-8.5164630599319934844970703125">
        <ele>180.600006103515625</ele>
        <time>2019-05-02T13:17:16.000Z</time>
      </trkpt>
      <trkpt lat="41.6861859150230884552001953125" lon="-8.5171540640294551849365234375">
        <ele>181.600006103515625</ele>
        <time>2019-05-02T13:17:23.000Z</time>
      </trkpt>
      <trkpt lat="41.685966141521930694580078125" lon="-8.517883457243442535400390625">
        <ele>184.600006103515625</ele>
        <time>2019-05-02T13:17:32.000Z</time>
      </trkpt>
      <trkpt lat="41.6857540793716907501220703125" lon="-8.51856448687613010406494140625">
        <ele>187.600006103515625</ele>
        <time>2019-05-02T13:17:42.000Z</time>
      </trkpt>
      <trkpt lat="41.68555081821978092193603515625" lon="-8.5192428342998027801513671875">
        <ele>188</ele>
        <time>2019-05-02T13:17:53.000Z</time>
      </trkpt>
      <trkpt lat="41.6854355670511722564697265625" lon="-8.51964122615754604339599609375">
        <ele>187.8000030517578125</ele>
        <time>2019-05-02T13:18:00.000Z</time>
      </trkpt>
      <trkpt lat="41.6854017041623592376708984375" lon="-8.5197888314723968505859375">
        <ele>188</ele>
        <time>2019-05-02T13:18:03.000Z</time>
      </trkpt>
      <trkpt lat="41.6855452023446559906005859375" lon="-8.5198899172246456146240234375">
        <ele>189.1999969482421875</ele>
        <time>2019-05-02T13:18:09.000Z</time>
      </trkpt>
      <trkpt lat="41.68586723506450653076171875" lon="-8.52029618807137012481689453125">
        <ele>192.8000030517578125</ele>
        <time>2019-05-02T13:18:30.000Z</time>
      </trkpt>
      <trkpt lat="41.68615565635263919830322265625" lon="-8.520431555807590484619140625">
        <ele>196.1999969482421875</ele>
        <time>2019-05-02T13:18:46.000Z</time>
      </trkpt>
      <trkpt lat="41.68625875376164913177490234375" lon="-8.52045460604131221771240234375">
        <ele>197.399993896484375</ele>
        <time>2019-05-02T13:18:54.000Z</time>
      </trkpt>
      <trkpt lat="41.6863592527806758880615234375" lon="-8.52042652666568756103515625">
        <ele>198.1999969482421875</ele>
        <time>2019-05-02T13:19:06.000Z</time>
      </trkpt>
      <trkpt lat="41.6866291500627994537353515625" lon="-8.52033508010208606719970703125">
        <ele>201.1999969482421875</ele>
        <time>2019-05-02T13:19:29.000Z</time>
      </trkpt>
      <trkpt lat="41.68676988221704959869384765625" lon="-8.5203586332499980926513671875">
        <ele>203</ele>
        <time>2019-05-02T13:19:45.000Z</time>
      </trkpt>
      <trkpt lat="41.68684548698365688323974609375" lon="-8.52039190940558910369873046875">
        <ele>204</ele>
        <time>2019-05-02T13:22:25.000Z</time>
      </trkpt>
      <trkpt lat="41.6872380115091800689697265625" lon="-8.52073229849338531494140625">
        <ele>204.600006103515625</ele>
        <time>2019-05-02T13:22:40.000Z</time>
      </trkpt>
      <trkpt lat="41.68734286911785602569580078125" lon="-8.52094980888068675994873046875">
        <ele>202.600006103515625</ele>
        <time>2019-05-02T13:22:44.000Z</time>
      </trkpt>
      <trkpt lat="41.68739316053688526153564453125" lon="-8.52106078527867794036865234375">
        <ele>202.1999969482421875</ele>
        <time>2019-05-02T13:22:46.000Z</time>
      </trkpt>
      <trkpt lat="41.68761226348578929901123046875" lon="-8.5217188484966754913330078125">
        <ele>203.600006103515625</ele>
        <time>2019-05-02T13:23:02.000Z</time>
      </trkpt>
      <trkpt lat="41.68794418685138225555419921875" lon="-8.52231438271701335906982421875">
        <ele>206.399993896484375</ele>
        <time>2019-05-02T13:23:26.000Z</time>
      </trkpt>
      <trkpt lat="41.68838314712047576904296875" lon="-8.52276407182216644287109375">
        <ele>207.600006103515625</ele>
        <time>2019-05-02T13:23:46.000Z</time>
      </trkpt>
      <trkpt lat="41.68859479017555713653564453125" lon="-8.52313580922782421112060546875">
        <ele>207.1999969482421875</ele>
        <time>2019-05-02T13:23:55.000Z</time>
      </trkpt>
      <trkpt lat="41.68866016902029514312744140625" lon="-8.523426912724971771240234375">
        <ele>207.399993896484375</ele>
        <time>2019-05-02T13:24:00.000Z</time>
      </trkpt>
      <trkpt lat="41.688612811267375946044921875" lon="-8.5237804614007472991943359375">
        <ele>206.600006103515625</ele>
        <time>2019-05-02T13:24:05.000Z</time>
      </trkpt>
      <trkpt lat="41.688781790435314178466796875" lon="-8.52403275668621063232421875">
        <ele>206.600006103515625</ele>
        <time>2019-05-02T13:24:10.000Z</time>
      </trkpt>
      <trkpt lat="41.68893107213079929351806640625" lon="-8.524108193814754486083984375">
        <ele>206.8000030517578125</ele>
        <time>2019-05-02T13:24:13.000Z</time>
      </trkpt>
      <trkpt lat="41.689174063503742218017578125" lon="-8.52422612719237804412841796875">
        <ele>207.399993896484375</ele>
        <time>2019-05-02T13:24:19.000Z</time>
      </trkpt>
      <trkpt lat="41.6896107606589794158935546875" lon="-8.5246924124658107757568359375">
        <ele>207.8000030517578125</ele>
        <time>2019-05-02T13:24:35.000Z</time>
      </trkpt>
      <trkpt lat="41.69010755605995655059814453125" lon="-8.52503447793424129486083984375">
        <ele>209</ele>
        <time>2019-05-02T13:24:52.000Z</time>
      </trkpt>
      <trkpt lat="41.69059337116777896881103515625" lon="-8.52535282261669635772705078125">
        <ele>213.399993896484375</ele>
        <time>2019-05-02T13:25:10.000Z</time>
      </trkpt>
      <trkpt lat="41.690802834928035736083984375" lon="-8.52538333274424076080322265625">
        <ele>214.399993896484375</ele>
        <time>2019-05-02T13:25:18.000Z</time>
      </trkpt>
      <trkpt lat="41.69131723232567310333251953125" lon="-8.5256378911435604095458984375">
        <ele>214.399993896484375</ele>
        <time>2019-05-02T13:25:35.000Z</time>
      </trkpt>
      <trkpt lat="41.691750995814800262451171875" lon="-8.5258756019175052642822265625">
        <ele>214.8000030517578125</ele>
        <time>2019-05-02T13:25:53.000Z</time>
      </trkpt>
      <trkpt lat="41.6918172128498554229736328125" lon="-8.52589630521833896636962890625">
        <ele>215.1999969482421875</ele>
        <time>2019-05-02T13:26:43.000Z</time>
      </trkpt>
      <trkpt lat="41.69233404099941253662109375" lon="-8.52604701183736324310302734375">
        <ele>219.600006103515625</ele>
        <time>2019-05-02T13:27:00.000Z</time>
      </trkpt>
      <trkpt lat="41.6927392221987247467041015625" lon="-8.52643392048776149749755859375">
        <ele>219.1999969482421875</ele>
        <time>2019-05-02T13:27:22.000Z</time>
      </trkpt>
      <trkpt lat="41.69275154359638690948486328125" lon="-8.526437692344188690185546875">
        <ele>219.1999969482421875</ele>
        <time>2019-05-02T13:27:50.000Z</time>
      </trkpt>
      <trkpt lat="41.69330139644443988800048828125" lon="-8.52655495516955852508544921875">
        <ele>221.399993896484375</ele>
        <time>2019-05-02T13:28:07.000Z</time>
      </trkpt>
      <trkpt lat="41.693794168531894683837890625" lon="-8.526909090578556060791015625">
        <ele>223.1999969482421875</ele>
        <time>2019-05-02T13:28:21.000Z</time>
      </trkpt>
      <trkpt lat="41.69423681683838367462158203125" lon="-8.52735173888504505157470703125">
        <ele>226.1999969482421875</ele>
        <time>2019-05-02T13:28:41.000Z</time>
      </trkpt>
      <trkpt lat="41.69473587535321712493896484375" lon="-8.52761484682559967041015625">
        <ele>230.8000030517578125</ele>
        <time>2019-05-02T13:29:04.000Z</time>
      </trkpt>
      <trkpt lat="41.695257984101772308349609375" lon="-8.527879379689693450927734375">
        <ele>233.600006103515625</ele>
        <time>2019-05-02T13:29:32.000Z</time>
      </trkpt>
      <trkpt lat="41.69578780420124530792236328125" lon="-8.52797015570104122161865234375">
        <ele>235.600006103515625</ele>
        <time>2019-05-02T13:29:51.000Z</time>
      </trkpt>
      <trkpt lat="41.695831306278705596923828125" lon="-8.52799228392541408538818359375">
        <ele>235.399993896484375</ele>
        <time>2019-05-02T13:29:52.000Z</time>
      </trkpt>
      <trkpt lat="41.69600606895983219146728515625" lon="-8.52808716706931591033935546875">
        <ele>234.399993896484375</ele>
        <time>2019-05-02T13:29:56.000Z</time>
      </trkpt>
      <trkpt lat="41.696197092533111572265625" lon="-8.52825698442757129669189453125">
        <ele>232.600006103515625</ele>
        <time>2019-05-02T13:30:01.000Z</time>
      </trkpt>
      <trkpt lat="41.69640337117016315460205078125" lon="-8.52830023504793643951416015625">
        <ele>232.1999969482421875</ele>
        <time>2019-05-02T13:30:05.000Z</time>
      </trkpt>
      <trkpt lat="41.69655860401690006256103515625" lon="-8.52836846373975276947021484375">
        <ele>231.600006103515625</ele>
        <time>2019-05-02T13:30:08.000Z</time>
      </trkpt>
      <trkpt lat="41.69676530174911022186279296875" lon="-8.5286349244415760040283203125">
        <ele>230.8000030517578125</ele>
        <time>2019-05-02T13:30:14.000Z</time>
      </trkpt>
      <trkpt lat="41.6968138329684734344482421875" lon="-8.5287365131080150604248046875">
        <ele>230.399993896484375</ele>
        <time>2019-05-02T13:30:16.000Z</time>
      </trkpt>
      <trkpt lat="41.69688583351671695709228515625" lon="-8.5288842022418975830078125">
        <ele>229.8000030517578125</ele>
        <time>2019-05-02T13:30:19.000Z</time>
      </trkpt>
      <trkpt lat="41.69701826758682727813720703125" lon="-8.52907170541584491729736328125">
        <ele>228.8000030517578125</ele>
        <time>2019-05-02T13:30:23.000Z</time>
      </trkpt>
      <trkpt lat="41.69716696254909038543701171875" lon="-8.52921553887426853179931640625">
        <ele>228.1999969482421875</ele>
        <time>2019-05-02T13:30:27.000Z</time>
      </trkpt>
      <trkpt lat="41.69769468717277050018310546875" lon="-8.52931913919746875762939453125">
        <ele>231.399993896484375</ele>
        <time>2019-05-02T13:30:42.000Z</time>
      </trkpt>
      <trkpt lat="41.6982449591159820556640625" lon="-8.529504127800464630126953125">
        <ele>234</ele>
        <time>2019-05-02T13:30:57.000Z</time>
      </trkpt>
      <trkpt lat="41.69871543534100055694580078125" lon="-8.52963128127157688140869140625">
        <ele>234</ele>
        <time>2019-05-02T13:31:17.000Z</time>
      </trkpt>
      <trkpt lat="41.69915012083947658538818359375" lon="-8.5292139463126659393310546875">
        <ele>240.8000030517578125</ele>
        <time>2019-05-02T13:32:19.000Z</time>
      </trkpt>
      <trkpt lat="41.69947869144380092620849609375" lon="-8.5293621383607387542724609375">
        <ele>241</ele>
        <time>2019-05-02T13:32:29.000Z</time>
      </trkpt>
      <trkpt lat="41.699612550437450408935546875" lon="-8.529498763382434844970703125">
        <ele>240.600006103515625</ele>
        <time>2019-05-02T13:32:33.000Z</time>
      </trkpt>
      <trkpt lat="41.6996418870985507965087890625" lon="-8.529545366764068603515625">
        <ele>240.399993896484375</ele>
        <time>2019-05-02T13:32:34.000Z</time>
      </trkpt>
      <trkpt lat="41.69997163116931915283203125" lon="-8.5298777930438518524169921875">
        <ele>239</ele>
        <time>2019-05-02T13:32:43.000Z</time>
      </trkpt>
      <trkpt lat="41.7003117688000202178955078125" lon="-8.5304618440568447113037109375">
        <ele>235.600006103515625</ele>
        <time>2019-05-02T13:33:00.000Z</time>
      </trkpt>
      <trkpt lat="41.70040572993457317352294921875" lon="-8.530661165714263916015625">
        <ele>235.1999969482421875</ele>
        <time>2019-05-02T13:33:04.000Z</time>
      </trkpt>
      <trkpt lat="41.7007084004580974578857421875" lon="-8.531287796795368194580078125">
        <ele>235</ele>
        <time>2019-05-02T13:33:15.000Z</time>
      </trkpt>
      <trkpt lat="41.70099263079464435577392578125" lon="-8.53195524774491786956787109375">
        <ele>236.600006103515625</ele>
        <time>2019-05-02T13:33:26.000Z</time>
      </trkpt>
      <trkpt lat="41.70104317367076873779296875" lon="-8.53219949640333652496337890625">
        <ele>237.600006103515625</ele>
        <time>2019-05-02T13:33:31.000Z</time>
      </trkpt>
      <trkpt lat="41.70105482451617717742919921875" lon="-8.53220678865909576416015625">
        <ele>237.600006103515625</ele>
        <time>2019-05-02T13:33:34.000Z</time>
      </trkpt>
      <trkpt lat="41.70105951838195323944091796875" lon="-8.5322181880474090576171875">
        <ele>237.600006103515625</ele>
        <time>2019-05-02T13:34:21.000Z</time>
      </trkpt>
      <trkpt lat="41.70150987803936004638671875" lon="-8.53262697346508502960205078125">
        <ele>239</ele>
        <time>2019-05-02T13:34:40.000Z</time>
      </trkpt>
      <trkpt lat="41.70163652859628200531005859375" lon="-8.532736189663410186767578125">
        <ele>240.1999969482421875</ele>
        <time>2019-05-02T13:34:45.000Z</time>
      </trkpt>
      <trkpt lat="41.7016575671732425689697265625" lon="-8.5327760875225067138671875">
        <ele>240.600006103515625</ele>
        <time>2019-05-02T13:34:48.000Z</time>
      </trkpt>
      <trkpt lat="41.70169905759394168853759765625" lon="-8.53290139697492122650146484375">
        <ele>241.8000030517578125</ele>
        <time>2019-05-02T13:34:59.000Z</time>
      </trkpt>
      <trkpt lat="41.701736189424991607666015625" lon="-8.53308278135955333709716796875">
        <ele>243.399993896484375</ele>
        <time>2019-05-02T13:35:11.000Z</time>
      </trkpt>
      <trkpt lat="41.70178882777690887451171875" lon="-8.53324036113917827606201171875">
        <ele>245</ele>
        <time>2019-05-02T13:35:20.000Z</time>
      </trkpt>
      <trkpt lat="41.701803915202617645263671875" lon="-8.53328411467373371124267578125">
        <ele>245.600006103515625</ele>
        <time>2019-05-02T13:35:23.000Z</time>
      </trkpt>
      <trkpt lat="41.701824702322483062744140625" lon="-8.5333500802516937255859375">
        <ele>246.399993896484375</ele>
        <time>2019-05-02T13:35:27.000Z</time>
      </trkpt>
      <trkpt lat="41.701926290988922119140625" lon="-8.533638082444667816162109375">
        <ele>249</ele>
        <time>2019-05-02T13:35:48.000Z</time>
      </trkpt>
      <trkpt lat="41.7019241116940975189208984375" lon="-8.53366934694349765777587890625">
        <ele>248.8000030517578125</ele>
        <time>2019-05-02T13:35:54.000Z</time>
      </trkpt>
      <trkpt lat="41.7020617425441741943359375" lon="-8.53435565717518329620361328125">
        <ele>250.600006103515625</ele>
        <time>2019-05-02T13:36:17.000Z</time>
      </trkpt>
      <trkpt lat="41.70229601673781871795654296875" lon="-8.53471725247800350189208984375">
        <ele>251.600006103515625</ele>
        <time>2019-05-02T13:36:27.000Z</time>
      </trkpt>
      <trkpt lat="41.70253121294081211090087890625" lon="-8.53538118302822113037109375">
        <ele>250</ele>
        <time>2019-05-02T13:36:37.000Z</time>
      </trkpt>
      <trkpt lat="41.702722571790218353271484375" lon="-8.535759709775447845458984375">
        <ele>250</ele>
        <time>2019-05-02T13:36:44.000Z</time>
      </trkpt>
      <trkpt lat="41.7031901143491268157958984375" lon="-8.53627779521048069000244140625">
        <ele>247.600006103515625</ele>
        <time>2019-05-02T13:36:54.000Z</time>
      </trkpt>
      <trkpt lat="41.70344115234911441802978515625" lon="-8.5364696569740772247314453125">
        <ele>246.1999969482421875</ele>
        <time>2019-05-02T13:36:58.000Z</time>
      </trkpt>
      <trkpt lat="41.7037004046142101287841796875" lon="-8.536498658359050750732421875">
        <ele>246.8000030517578125</ele>
        <time>2019-05-02T13:37:03.000Z</time>
      </trkpt>
      <trkpt lat="41.70425822027027606964111328125" lon="-8.53665498085319995880126953125">
        <ele>245.8000030517578125</ele>
        <time>2019-05-02T13:37:17.000Z</time>
      </trkpt>
      <trkpt lat="41.70453817583620548248291015625" lon="-8.53679596446454524993896484375">
        <ele>244.399993896484375</ele>
        <time>2019-05-02T13:37:22.000Z</time>
      </trkpt>
      <trkpt lat="41.70504997484385967254638671875" lon="-8.53681742213666439056396484375">
        <ele>245</ele>
        <time>2019-05-02T13:37:29.000Z</time>
      </trkpt>
      <trkpt lat="41.705202274024486541748046875" lon="-8.53693812154233455657958984375">
        <ele>244</ele>
        <time>2019-05-02T13:37:33.000Z</time>
      </trkpt>
      <trkpt lat="41.7053298465907573699951171875" lon="-8.53708866052329540252685546875">
        <ele>242.399993896484375</ele>
        <time>2019-05-02T13:37:36.000Z</time>
      </trkpt>
      <trkpt lat="41.70571348629891872406005859375" lon="-8.53734078817069530487060546875">
        <ele>239.600006103515625</ele>
        <time>2019-05-02T13:37:43.000Z</time>
      </trkpt>
      <trkpt lat="41.706276834011077880859375" lon="-8.537458889186382293701171875">
        <ele>240.1999969482421875</ele>
        <time>2019-05-02T13:37:53.000Z</time>
      </trkpt>
      <trkpt lat="41.70677346177399158477783203125" lon="-8.5376816801726818084716796875">
        <ele>240.8000030517578125</ele>
        <time>2019-05-02T13:38:02.000Z</time>
      </trkpt>
      <trkpt lat="41.7072231508791446685791015625" lon="-8.53812298737466335296630859375">
        <ele>239</ele>
        <time>2019-05-02T13:38:11.000Z</time>
      </trkpt>
      <trkpt lat="41.70774173922836780548095703125" lon="-8.53844988159835338592529296875">
        <ele>237</ele>
        <time>2019-05-02T13:38:18.000Z</time>
      </trkpt>
      <trkpt lat="41.708292178809642791748046875" lon="-8.53877761401236057281494140625">
        <ele>233</ele>
        <time>2019-05-02T13:38:24.000Z</time>
      </trkpt>
      <trkpt lat="41.708373986184597015380859375" lon="-8.5388343594968318939208984375">
        <ele>232.600006103515625</ele>
        <time>2019-05-02T13:38:25.000Z</time>
      </trkpt>
      <trkpt lat="41.7086926661431789398193359375" lon="-8.5391951166093349456787109375">
        <ele>226.600006103515625</ele>
        <time>2019-05-02T13:38:31.000Z</time>
      </trkpt>
      <trkpt lat="41.7088388465344905853271484375" lon="-8.53926694951951503753662109375">
        <ele>225.600006103515625</ele>
        <time>2019-05-02T13:38:35.000Z</time>
      </trkpt>
      <trkpt lat="41.7090393416583538055419921875" lon="-8.53933073580265045166015625">
        <ele>225.1999969482421875</ele>
        <time>2019-05-02T13:38:40.000Z</time>
      </trkpt>
      <trkpt lat="41.7096297629177570343017578125" lon="-8.53916385211050510406494140625">
        <ele>223.8000030517578125</ele>
        <time>2019-05-02T13:38:48.000Z</time>
      </trkpt>
      <trkpt lat="41.7101631872355937957763671875" lon="-8.53898447938263416290283203125">
        <ele>225.600006103515625</ele>
        <time>2019-05-02T13:38:54.000Z</time>
      </trkpt>
      <trkpt lat="41.71030090190470218658447265625" lon="-8.53895799256861209869384765625">
        <ele>225.8000030517578125</ele>
        <time>2019-05-02T13:38:56.000Z</time>
      </trkpt>
      <trkpt lat="41.710482873022556304931640625" lon="-8.53905471973121166229248046875">
        <ele>222</ele>
        <time>2019-05-02T13:39:00.000Z</time>
      </trkpt>
      <trkpt lat="41.7105333320796489715576171875" lon="-8.53908305056393146514892578125">
        <ele>220.8000030517578125</ele>
        <time>2019-05-02T13:39:01.000Z</time>
      </trkpt>
      <trkpt lat="41.710823513567447662353515625" lon="-8.53913627564907073974609375">
        <ele>216.1999969482421875</ele>
        <time>2019-05-02T13:39:06.000Z</time>
      </trkpt>
      <trkpt lat="41.71121989376842975616455078125" lon="-8.53909495286643505096435546875">
        <ele>213</ele>
        <time>2019-05-02T13:39:13.000Z</time>
      </trkpt>
      <trkpt lat="41.71180126257240772247314453125" lon="-8.53890518657863140106201171875">
        <ele>207.600006103515625</ele>
        <time>2019-05-02T13:39:22.000Z</time>
      </trkpt>
      <trkpt lat="41.71224676072597503662109375" lon="-8.5385000891983509063720703125">
        <ele>205.1999969482421875</ele>
        <time>2019-05-02T13:39:36.000Z</time>
      </trkpt>
      <trkpt lat="41.71238346956670284271240234375" lon="-8.53832750581204891204833984375">
        <ele>205.1999969482421875</ele>
        <time>2019-05-02T13:39:43.000Z</time>
      </trkpt>
      <trkpt lat="41.7123994790017604827880859375" lon="-8.5383478738367557525634765625">
        <ele>204.399993896484375</ele>
        <time>2019-05-02T13:39:51.000Z</time>
      </trkpt>
      <trkpt lat="41.71234005130827426910400390625" lon="-8.5384729318320751190185546875">
        <ele>203.399993896484375</ele>
        <time>2019-05-02T13:39:55.000Z</time>
      </trkpt>
      <trkpt lat="41.71231557615101337432861328125" lon="-8.53850218467414379119873046875">
        <ele>203.399993896484375</ele>
        <time>2019-05-02T13:39:58.000Z</time>
      </trkpt>
      <trkpt lat="41.71233250759541988372802734375" lon="-8.5385299287736415863037109375">
        <ele>202.399993896484375</ele>
        <time>2019-05-02T13:40:01.000Z</time>
      </trkpt>
      <trkpt lat="41.7123505286872386932373046875" lon="-8.5385242290794849395751953125">
        <ele>202</ele>
        <time>2019-05-02T13:40:04.000Z</time>
      </trkpt>
      <trkpt lat="41.71237961389124393463134765625" lon="-8.53835348971188068389892578125">
        <ele>204.8000030517578125</ele>
        <time>2019-05-02T13:41:19.000Z</time>
      </trkpt>
      <trkpt lat="41.71252227388322353363037109375" lon="-8.53815500624477863311767578125">
        <ele>205.8000030517578125</ele>
        <time>2019-05-02T13:41:25.000Z</time>
      </trkpt>
      <trkpt lat="41.71301663853228092193603515625" lon="-8.53783163242042064666748046875">
        <ele>202.600006103515625</ele>
        <time>2019-05-02T13:41:34.000Z</time>
      </trkpt>
      <trkpt lat="41.71353631652891635894775390625" lon="-8.5375955142080783843994140625">
        <ele>199.8000030517578125</ele>
        <time>2019-05-02T13:41:43.000Z</time>
      </trkpt>
      <trkpt lat="41.71409790404140949249267578125" lon="-8.5374962724745273590087890625">
        <ele>194.8000030517578125</ele>
        <time>2019-05-02T13:41:52.000Z</time>
      </trkpt>
      <trkpt lat="41.71465345658361911773681640625" lon="-8.53740281425416469573974609375">
        <ele>189.1999969482421875</ele>
        <time>2019-05-02T13:42:00.000Z</time>
      </trkpt>
      <trkpt lat="41.71501639299094676971435546875" lon="-8.5373930074274539947509765625">
        <ele>184.8000030517578125</ele>
        <time>2019-05-02T13:42:06.000Z</time>
      </trkpt>
      <trkpt lat="41.71504857949912548065185546875" lon="-8.537786118686199188232421875">
        <ele>178</ele>
        <time>2019-05-02T13:42:13.000Z</time>
      </trkpt>
      <trkpt lat="41.7150300554931163787841796875" lon="-8.5380970872938632965087890625">
        <ele>173.399993896484375</ele>
        <time>2019-05-02T13:42:23.000Z</time>
      </trkpt>
      <trkpt lat="41.715117394924163818359375" lon="-8.5378982685506343841552734375">
        <ele>175.600006103515625</ele>
        <time>2019-05-02T13:42:46.000Z</time>
      </trkpt>
      <trkpt lat="41.71526080928742885589599609375" lon="-8.5378131084144115447998046875">
        <ele>175.1999969482421875</ele>
        <time>2019-05-02T13:42:51.000Z</time>
      </trkpt>
      <trkpt lat="41.71551964245736598968505859375" lon="-8.5377869568765163421630859375">
        <ele>172.399993896484375</ele>
        <time>2019-05-02T13:42:56.000Z</time>
      </trkpt>
      <trkpt lat="41.71575668267905712127685546875" lon="-8.5375841148197650909423828125">
        <ele>173</ele>
        <time>2019-05-02T13:43:01.000Z</time>
      </trkpt>
      <trkpt lat="41.7159802280366420745849609375" lon="-8.53730407543480396270751953125">
        <ele>175.600006103515625</ele>
        <time>2019-05-02T13:43:07.000Z</time>
      </trkpt>
      <trkpt lat="41.71609480865299701690673828125" lon="-8.537209443747997283935546875">
        <ele>176.399993896484375</ele>
        <time>2019-05-02T13:43:10.000Z</time>
      </trkpt>
      <trkpt lat="41.716204024851322174072265625" lon="-8.5370372794568538665771484375">
        <ele>178.1999969482421875</ele>
        <time>2019-05-02T13:43:15.000Z</time>
      </trkpt>
      <trkpt lat="41.71645573340356349945068359375" lon="-8.53721405379474163055419921875">
        <ele>175.399993896484375</ele>
        <time>2019-05-02T13:43:22.000Z</time>
      </trkpt>
      <trkpt lat="41.7166368663311004638671875" lon="-8.53764622472226619720458984375">
        <ele>171.399993896484375</ele>
        <time>2019-05-02T13:43:33.000Z</time>
      </trkpt>
      <trkpt lat="41.716698221862316131591796875" lon="-8.5377584584057331085205078125">
        <ele>170.399993896484375</ele>
        <time>2019-05-02T13:43:35.000Z</time>
      </trkpt>
      <trkpt lat="41.7170621640980243682861328125" lon="-8.53824636898934841156005859375">
        <ele>166.399993896484375</ele>
        <time>2019-05-02T13:43:45.000Z</time>
      </trkpt>
      <trkpt lat="41.717274896800518035888671875" lon="-8.53846966288983821868896484375">
        <ele>164.399993896484375</ele>
        <time>2019-05-02T13:43:50.000Z</time>
      </trkpt>
      <trkpt lat="41.71762433834373950958251953125" lon="-8.53866152465343475341796875">
        <ele>161</ele>
        <time>2019-05-02T13:43:57.000Z</time>
      </trkpt>
      <trkpt lat="41.7177709378302097320556640625" lon="-8.53864098899066448211669921875">
        <ele>160.399993896484375</ele>
        <time>2019-05-02T13:44:01.000Z</time>
      </trkpt>
      <trkpt lat="41.71798056922852993011474609375" lon="-8.53858801536262035369873046875">
        <ele>160</ele>
        <time>2019-05-02T13:44:06.000Z</time>
      </trkpt>
      <trkpt lat="41.7185450904071331024169921875" lon="-8.53885103948414325714111328125">
        <ele>156.1999969482421875</ele>
        <time>2019-05-02T13:44:15.000Z</time>
      </trkpt>
      <trkpt lat="41.7187395505607128143310546875" lon="-8.539163768291473388671875">
        <ele>152.399993896484375</ele>
        <time>2019-05-02T13:44:19.000Z</time>
      </trkpt>
      <trkpt lat="41.719236932694911956787109375" lon="-8.5393848828971385955810546875">
        <ele>147.8000030517578125</ele>
        <time>2019-05-02T13:44:26.000Z</time>
      </trkpt>
      <trkpt lat="41.7195817641913890838623046875" lon="-8.539946973323822021484375">
        <ele>142.8000030517578125</ele>
        <time>2019-05-02T13:44:34.000Z</time>
      </trkpt>
      <trkpt lat="41.719643287360668182373046875" lon="-8.54076169431209564208984375">
        <ele>139.1999969482421875</ele>
        <time>2019-05-02T13:44:41.000Z</time>
      </trkpt>
      <trkpt lat="41.7196853645145893096923828125" lon="-8.54125379584729671478271484375">
        <ele>138.399993896484375</ele>
        <time>2019-05-02T13:44:46.000Z</time>
      </trkpt>
      <trkpt lat="41.719661056995391845703125" lon="-8.5418183170258998870849609375">
        <ele>140.1999969482421875</ele>
        <time>2019-05-02T13:44:58.000Z</time>
      </trkpt>
      <trkpt lat="41.72010370530188083648681640625" lon="-8.5422739572823047637939453125">
        <ele>141.8000030517578125</ele>
        <time>2019-05-02T13:45:18.000Z</time>
      </trkpt>
      <trkpt lat="41.72036019153892993927001953125" lon="-8.5424288548529148101806640625">
        <ele>141.8000030517578125</ele>
        <time>2019-05-02T13:45:26.000Z</time>
      </trkpt>
      <trkpt lat="41.7205084674060344696044921875" lon="-8.542694561183452606201171875">
        <ele>144.399993896484375</ele>
        <time>2019-05-02T13:45:31.000Z</time>
      </trkpt>
      <trkpt lat="41.72065816819667816162109375" lon="-8.542844764888286590576171875">
        <ele>145</ele>
        <time>2019-05-02T13:45:35.000Z</time>
      </trkpt>
      <trkpt lat="41.72112512402236461639404296875" lon="-8.54302883148193359375">
        <ele>141</ele>
        <time>2019-05-02T13:45:48.000Z</time>
      </trkpt>
      <trkpt lat="41.721415556967258453369140625" lon="-8.54281316511332988739013671875">
        <ele>135.8000030517578125</ele>
        <time>2019-05-02T13:45:56.000Z</time>
      </trkpt>
      <trkpt lat="41.7214572988450527191162109375" lon="-8.54278533719480037689208984375">
        <ele>135.1999969482421875</ele>
        <time>2019-05-02T13:45:57.000Z</time>
      </trkpt>
      <trkpt lat="41.72160875983536243438720703125" lon="-8.542783744633197784423828125">
        <ele>134</ele>
        <time>2019-05-02T13:46:02.000Z</time>
      </trkpt>
      <trkpt lat="41.72170381061732769012451171875" lon="-8.54283512569963932037353515625">
        <ele>134</ele>
        <time>2019-05-02T13:46:06.000Z</time>
      </trkpt>
      <trkpt lat="41.721774302423000335693359375" lon="-8.542874939739704132080078125">
        <ele>133.8000030517578125</ele>
        <time>2019-05-02T13:46:09.000Z</time>
      </trkpt>
      <trkpt lat="41.72224142588675022125244140625" lon="-8.54280553758144378662109375">
        <ele>127.59999847412109375</ele>
        <time>2019-05-02T13:46:27.000Z</time>
      </trkpt>
      <trkpt lat="41.7223464511334896087646484375" lon="-8.5424610413610935211181640625">
        <ele>124.8000030517578125</ele>
        <time>2019-05-02T13:46:33.000Z</time>
      </trkpt>
      <trkpt lat="41.722444854676723480224609375" lon="-8.542029373347759246826171875">
        <ele>125</ele>
        <time>2019-05-02T13:46:42.000Z</time>
      </trkpt>
      <trkpt lat="41.722660101950168609619140625" lon="-8.541497290134429931640625">
        <ele>128.600006103515625</ele>
        <time>2019-05-02T13:46:49.000Z</time>
      </trkpt>
      <trkpt lat="41.72297802753746509552001953125" lon="-8.54135303758084774017333984375">
        <ele>128.600006103515625</ele>
        <time>2019-05-02T13:46:54.000Z</time>
      </trkpt>
      <trkpt lat="41.72352435998618602752685546875" lon="-8.54130391962826251983642578125">
        <ele>128.8000030517578125</ele>
        <time>2019-05-02T13:47:10.000Z</time>
      </trkpt>
      <trkpt lat="41.7237723805010318756103515625" lon="-8.54127910919487476348876953125">
        <ele>130.1999969482421875</ele>
        <time>2019-05-02T13:47:17.000Z</time>
      </trkpt>
      <trkpt lat="41.724074967205524444580078125" lon="-8.54121406562626361846923828125">
        <ele>132.1999969482421875</ele>
        <time>2019-05-02T13:47:23.000Z</time>
      </trkpt>
      <trkpt lat="41.7242524959146976470947265625" lon="-8.54123636148869991302490234375">
        <ele>130.600006103515625</ele>
        <time>2019-05-02T13:47:26.000Z</time>
      </trkpt>
      <trkpt lat="41.72448392026126384735107421875" lon="-8.54186768643558025360107421875">
        <ele>127.1999969482421875</ele>
        <time>2019-05-02T13:47:35.000Z</time>
      </trkpt>
      <trkpt lat="41.7242032103240489959716796875" lon="-8.5422370769083499908447265625">
        <ele>126.1999969482421875</ele>
        <time>2019-05-02T13:47:41.000Z</time>
      </trkpt>
      <trkpt lat="41.72374312765896320343017578125" lon="-8.5427431762218475341796875">
        <ele>122</ele>
        <time>2019-05-02T13:47:49.000Z</time>
      </trkpt>
      <trkpt lat="41.72367121092975139617919921875" lon="-8.5432321764528751373291015625">
        <ele>123.40000152587890625</ele>
        <time>2019-05-02T13:47:54.000Z</time>
      </trkpt>
      <trkpt lat="41.72363148070871829986572265625" lon="-8.544012196362018585205078125">
        <ele>125.59999847412109375</ele>
        <time>2019-05-02T13:48:03.000Z</time>
      </trkpt>
      <trkpt lat="41.7236231826245784759521484375" lon="-8.54440857656300067901611328125">
        <ele>125</ele>
        <time>2019-05-02T13:48:08.000Z</time>
      </trkpt>
      <trkpt lat="41.7236506752669811248779296875" lon="-8.54457135312259197235107421875">
        <ele>125.40000152587890625</ele>
        <time>2019-05-02T13:48:10.000Z</time>
      </trkpt>
      <trkpt lat="41.7239014618098735809326171875" lon="-8.545258753001689910888671875">
        <ele>125.1999969482421875</ele>
        <time>2019-05-02T13:48:19.000Z</time>
      </trkpt>
      <trkpt lat="41.7242742888629436492919921875" lon="-8.54582595638930797576904296875">
        <ele>120.59999847412109375</ele>
        <time>2019-05-02T13:48:28.000Z</time>
      </trkpt>
      <trkpt lat="41.72468676231801509857177734375" lon="-8.54639911092817783355712890625">
        <ele>117.59999847412109375</ele>
        <time>2019-05-02T13:48:38.000Z</time>
      </trkpt>
      <trkpt lat="41.72516620717942714691162109375" lon="-8.546873442828655242919921875">
        <ele>115.40000152587890625</ele>
        <time>2019-05-02T13:48:46.000Z</time>
      </trkpt>
      <trkpt lat="41.72564330510795116424560546875" lon="-8.54727669619023799896240234375">
        <ele>113.40000152587890625</ele>
        <time>2019-05-02T13:48:53.000Z</time>
      </trkpt>
      <trkpt lat="41.72612593509256839752197265625" lon="-8.54774474166333675384521484375">
        <ele>113.1999969482421875</ele>
        <time>2019-05-02T13:49:01.000Z</time>
      </trkpt>
      <trkpt lat="41.726515106856822967529296875" lon="-8.548254780471324920654296875">
        <ele>113.40000152587890625</ele>
        <time>2019-05-02T13:49:09.000Z</time>
      </trkpt>
      <trkpt lat="41.72683487646281719207763671875" lon="-8.54864797554910182952880859375">
        <ele>116.59999847412109375</ele>
        <time>2019-05-02T13:49:20.000Z</time>
      </trkpt>
      <trkpt lat="41.72684040851891040802001953125" lon="-8.5486522503197193145751953125">
        <ele>116.59999847412109375</ele>
        <time>2019-05-02T13:49:22.000Z</time>
      </trkpt>
      <trkpt lat="41.726856417953968048095703125" lon="-8.54866406880319118499755859375">
        <ele>116.8000030517578125</ele>
        <time>2019-05-02T13:49:59.000Z</time>
      </trkpt>
      <trkpt lat="41.72694250009953975677490234375" lon="-8.5487970896065235137939453125">
        <ele>118</ele>
        <time>2019-05-02T13:50:05.000Z</time>
      </trkpt>
      <trkpt lat="41.7270721681416034698486328125" lon="-8.54898911900818347930908203125">
        <ele>119.40000152587890625</ele>
        <time>2019-05-02T13:50:10.000Z</time>
      </trkpt>
      <trkpt lat="41.72735120169818401336669921875" lon="-8.549637459218502044677734375">
        <ele>121.1999969482421875</ele>
        <time>2019-05-02T13:50:24.000Z</time>
      </trkpt>
      <trkpt lat="41.72769653610885143280029296875" lon="-8.5502236895263195037841796875">
        <ele>122</ele>
        <time>2019-05-02T13:50:40.000Z</time>
      </trkpt>
      <trkpt lat="41.72808126546442508697509765625" lon="-8.5507383383810520172119140625">
        <ele>123.8000030517578125</ele>
        <time>2019-05-02T13:50:56.000Z</time>
      </trkpt>
      <trkpt lat="41.7284923978149890899658203125" lon="-8.55125424452126026153564453125">
        <ele>126.40000152587890625</ele>
        <time>2019-05-02T13:51:17.000Z</time>
      </trkpt>
      <trkpt lat="41.72893169336020946502685546875" lon="-8.551683314144611358642578125">
        <ele>130.1999969482421875</ele>
        <time>2019-05-02T13:51:37.000Z</time>
      </trkpt>
      <trkpt lat="41.72940124757587909698486328125" lon="-8.55204851366579532623291015625">
        <ele>133.399993896484375</ele>
        <time>2019-05-02T13:51:54.000Z</time>
      </trkpt>
      <trkpt lat="41.72989301383495330810546875" lon="-8.55237121693789958953857421875">
        <ele>133.1999969482421875</ele>
        <time>2019-05-02T13:52:11.000Z</time>
      </trkpt>
      <trkpt lat="41.73044010065495967864990234375" lon="-8.55259316973388195037841796875">
        <ele>132.600006103515625</ele>
        <time>2019-05-02T13:52:25.000Z</time>
      </trkpt>
      <trkpt lat="41.7309761233627796173095703125" lon="-8.55268201790750026702880859375">
        <ele>133.8000030517578125</ele>
        <time>2019-05-02T13:52:38.000Z</time>
      </trkpt>
      <trkpt lat="41.7315145768225193023681640625" lon="-8.552839346230030059814453125">
        <ele>136.600006103515625</ele>
        <time>2019-05-02T13:52:55.000Z</time>
      </trkpt>
      <trkpt lat="41.7319226078689098358154296875" lon="-8.55330026708543300628662109375">
        <ele>137.600006103515625</ele>
        <time>2019-05-02T13:53:13.000Z</time>
      </trkpt>
      <trkpt lat="41.7322344146668910980224609375" lon="-8.55391348712146282196044921875">
        <ele>141.399993896484375</ele>
        <time>2019-05-02T13:53:30.000Z</time>
      </trkpt>
      <trkpt lat="41.732544042170047760009765625" lon="-8.554541878402233123779296875">
        <ele>145.8000030517578125</ele>
        <time>2019-05-02T13:53:49.000Z</time>
      </trkpt>
      <trkpt lat="41.73280245624482631683349609375" lon="-8.55521075427532196044921875">
        <ele>150.8000030517578125</ele>
        <time>2019-05-02T13:54:06.000Z</time>
      </trkpt>
      <trkpt lat="41.73307721503078937530517578125" lon="-8.5558650456368923187255859375">
        <ele>151.399993896484375</ele>
        <time>2019-05-02T13:54:23.000Z</time>
      </trkpt>
      <trkpt lat="41.73324636183679103851318359375" lon="-8.55659754015505313873291015625">
        <ele>150.1999969482421875</ele>
        <time>2019-05-02T13:54:40.000Z</time>
      </trkpt>
      <trkpt lat="41.733280308544635772705078125" lon="-8.55736314319074153900146484375">
        <ele>151.1999969482421875</ele>
        <time>2019-05-02T13:54:55.000Z</time>
      </trkpt>
      <trkpt lat="41.7332746088504791259765625" lon="-8.55770520865917205810546875">
        <ele>151.8000030517578125</ele>
        <time>2019-05-02T13:55:01.000Z</time>
      </trkpt>
      <trkpt lat="41.73328810371458530426025390625" lon="-8.55794250033795833587646484375">
        <ele>151</ele>
        <time>2019-05-02T13:55:05.000Z</time>
      </trkpt>
      <trkpt lat="41.73337963409721851348876953125" lon="-8.5583792813122272491455078125">
        <ele>150.399993896484375</ele>
        <time>2019-05-02T13:55:11.000Z</time>
      </trkpt>
      <trkpt lat="41.73370711505413055419921875" lon="-8.55905964039266109466552734375">
        <ele>147</ele>
        <time>2019-05-02T13:55:20.000Z</time>
      </trkpt>
      <trkpt lat="41.73404683358967304229736328125" lon="-8.5596784763038158416748046875">
        <ele>141.600006103515625</ele>
        <time>2019-05-02T13:55:28.000Z</time>
      </trkpt>
      <trkpt lat="41.7343188263475894927978515625" lon="-8.5603222064673900604248046875">
        <ele>138.8000030517578125</ele>
        <time>2019-05-02T13:55:37.000Z</time>
      </trkpt>
      <trkpt lat="41.7343577183783054351806640625" lon="-8.5604600049555301666259765625">
        <ele>138.600006103515625</ele>
        <time>2019-05-02T13:55:39.000Z</time>
      </trkpt>
      <trkpt lat="41.73459618352353572845458984375" lon="-8.5611285455524921417236328125">
        <ele>135.600006103515625</ele>
        <time>2019-05-02T13:55:50.000Z</time>
      </trkpt>
      <trkpt lat="41.7348301224410533905029296875" lon="-8.56183690018951892852783203125">
        <ele>135</ele>
        <time>2019-05-02T13:56:02.000Z</time>
      </trkpt>
      <trkpt lat="41.73507059924304485321044921875" lon="-8.56253678910434246063232421875">
        <ele>136</ele>
        <time>2019-05-02T13:56:12.000Z</time>
      </trkpt>
      <trkpt lat="41.7353588528931140899658203125" lon="-8.5632297210395336151123046875">
        <ele>140.1999969482421875</ele>
        <time>2019-05-02T13:56:20.000Z</time>
      </trkpt>
      <trkpt lat="41.73576931469142436981201171875" lon="-8.56378518976271152496337890625">
        <ele>138.8000030517578125</ele>
        <time>2019-05-02T13:56:26.000Z</time>
      </trkpt>
      <trkpt lat="41.73625227995216846466064453125" lon="-8.56415323913097381591796875">
        <ele>128.399993896484375</ele>
        <time>2019-05-02T13:56:31.000Z</time>
      </trkpt>
      <trkpt lat="41.73679911531507968902587890625" lon="-8.56446043588221073150634765625">
        <ele>120.40000152587890625</ele>
        <time>2019-05-02T13:56:36.000Z</time>
      </trkpt>
      <trkpt lat="41.7374006845057010650634765625" lon="-8.5647615976631641387939453125">
        <ele>117.40000152587890625</ele>
        <time>2019-05-02T13:56:42.000Z</time>
      </trkpt>
      <trkpt lat="41.73799772746860980987548828125" lon="-8.56497927568852901458740234375">
        <ele>112</ele>
        <time>2019-05-02T13:56:48.000Z</time>
      </trkpt>
      <trkpt lat="41.73859183676540851593017578125" lon="-8.56520508415997028350830078125">
        <ele>107.59999847412109375</ele>
        <time>2019-05-02T13:56:54.000Z</time>
      </trkpt>
      <trkpt lat="41.73918016254901885986328125" lon="-8.56542469002306461334228515625">
        <ele>106</ele>
        <time>2019-05-02T13:57:00.000Z</time>
      </trkpt>
      <trkpt lat="41.73971333540976047515869140625" lon="-8.56574554927647113800048828125">
        <ele>105</ele>
        <time>2019-05-02T13:57:06.000Z</time>
      </trkpt>
      <trkpt lat="41.74007928930222988128662109375" lon="-8.56616179458796977996826171875">
        <ele>104</ele>
        <time>2019-05-02T13:57:11.000Z</time>
      </trkpt>
      <trkpt lat="41.74042177386581897735595703125" lon="-8.566755317151546478271484375">
        <ele>102.59999847412109375</ele>
        <time>2019-05-02T13:57:17.000Z</time>
      </trkpt>
      <trkpt lat="41.7407849617302417755126953125" lon="-8.56744087301194667816162109375">
        <ele>98.1999969482421875</ele>
        <time>2019-05-02T13:57:24.000Z</time>
      </trkpt>
      <trkpt lat="41.74117044545710086822509765625" lon="-8.56802442111074924468994140625">
        <ele>95.40000152587890625</ele>
        <time>2019-05-02T13:57:31.000Z</time>
      </trkpt>
      <trkpt lat="41.74164377152919769287109375" lon="-8.56851710937917232513427734375">
        <ele>96.8000030517578125</ele>
        <time>2019-05-02T13:57:40.000Z</time>
      </trkpt>
      <trkpt lat="41.74208097159862518310546875" lon="-8.56898213736712932586669921875">
        <ele>100.1999969482421875</ele>
        <time>2019-05-02T13:57:49.000Z</time>
      </trkpt>
      <trkpt lat="41.74251892603933811187744140625" lon="-8.5694353468716144561767578125">
        <ele>101.40000152587890625</ele>
        <time>2019-05-02T13:58:00.000Z</time>
      </trkpt>
      <trkpt lat="41.74299267120659351348876953125" lon="-8.56982401572167873382568359375">
        <ele>102.59999847412109375</ele>
        <time>2019-05-02T13:58:12.000Z</time>
      </trkpt>
      <trkpt lat="41.74347613938152790069580078125" lon="-8.5701940767467021942138671875">
        <ele>104.59999847412109375</ele>
        <time>2019-05-02T13:58:22.000Z</time>
      </trkpt>
      <trkpt lat="41.74396564252674579620361328125" lon="-8.57056950218975543975830078125">
        <ele>105.8000030517578125</ele>
        <time>2019-05-02T13:58:31.000Z</time>
      </trkpt>
      <trkpt lat="41.74446637742221355438232421875" lon="-8.57094601728022098541259765625">
        <ele>103</ele>
        <time>2019-05-02T13:58:40.000Z</time>
      </trkpt>
      <trkpt lat="41.74494087696075439453125" lon="-8.57130375690758228302001953125">
        <ele>99.59999847412109375</ele>
        <time>2019-05-02T13:58:49.000Z</time>
      </trkpt>
      <trkpt lat="41.74544823355972766876220703125" lon="-8.5716895759105682373046875">
        <ele>98.40000152587890625</ele>
        <time>2019-05-02T13:58:59.000Z</time>
      </trkpt>
      <trkpt lat="41.745958440005779266357421875" lon="-8.5720860399305820465087890625">
        <ele>100.8000030517578125</ele>
        <time>2019-05-02T13:59:09.000Z</time>
      </trkpt>
      <trkpt lat="41.74645339138805866241455078125" lon="-8.57246314175426959991455078125">
        <ele>103</ele>
        <time>2019-05-02T13:59:19.000Z</time>
      </trkpt>
      <trkpt lat="41.74682906828820705413818359375" lon="-8.572992794215679168701171875">
        <ele>103.40000152587890625</ele>
        <time>2019-05-02T13:59:29.000Z</time>
      </trkpt>
      <trkpt lat="41.7470640130341053009033203125" lon="-8.573651611804962158203125">
        <ele>104</ele>
        <time>2019-05-02T13:59:43.000Z</time>
      </trkpt>
      <trkpt lat="41.74703593365848064422607421875" lon="-8.574411012232303619384765625">
        <ele>105.40000152587890625</ele>
        <time>2019-05-02T13:59:59.000Z</time>
      </trkpt>
      <trkpt lat="41.74706309102475643157958984375" lon="-8.5747786425054073333740234375">
        <ele>107.40000152587890625</ele>
        <time>2019-05-02T14:00:06.000Z</time>
      </trkpt>
      <trkpt lat="41.747070215642452239990234375" lon="-8.57489473186433315277099609375">
        <ele>108</ele>
        <time>2019-05-02T14:00:08.000Z</time>
      </trkpt>
      <trkpt lat="41.74717792309820652008056640625" lon="-8.57567408122122287750244140625">
        <ele>110</ele>
        <time>2019-05-02T14:00:19.000Z</time>
      </trkpt>
      <trkpt lat="41.7472021467983722686767578125" lon="-8.57575513422489166259765625">
        <ele>109.8000030517578125</ele>
        <time>2019-05-02T14:00:20.000Z</time>
      </trkpt>
      <trkpt lat="41.74730700440704822540283203125" lon="-8.57600189745426177978515625">
        <ele>109</ele>
        <time>2019-05-02T14:00:23.000Z</time>
      </trkpt>
      <trkpt lat="41.7476353235542774200439453125" lon="-8.576598353683948516845703125">
        <ele>108.8000030517578125</ele>
        <time>2019-05-02T14:00:30.000Z</time>
      </trkpt>
      <trkpt lat="41.7479903809726238250732421875" lon="-8.57725717127323150634765625">
        <ele>104</ele>
        <time>2019-05-02T14:00:37.000Z</time>
      </trkpt>
      <trkpt lat="41.74839665181934833526611328125" lon="-8.57774206437170505523681640625">
        <ele>96.8000030517578125</ele>
        <time>2019-05-02T14:00:43.000Z</time>
      </trkpt>
      <trkpt lat="41.74885086715221405029296875" lon="-8.57815713621675968170166015625">
        <ele>91.59999847412109375</ele>
        <time>2019-05-02T14:00:49.000Z</time>
      </trkpt>
      <trkpt lat="41.749342717230319976806640625" lon="-8.57863306067883968353271484375">
        <ele>89.59999847412109375</ele>
        <time>2019-05-02T14:00:56.000Z</time>
      </trkpt>
      <trkpt lat="41.7498089186847209930419921875" lon="-8.57908668927848339080810546875">
        <ele>89.8000030517578125</ele>
        <time>2019-05-02T14:01:05.000Z</time>
      </trkpt>
      <trkpt lat="41.7501197196543216705322265625" lon="-8.57933663763105869293212890625">
        <ele>92.59999847412109375</ele>
        <time>2019-05-02T14:01:12.000Z</time>
      </trkpt>
      <trkpt lat="41.75055541098117828369140625" lon="-8.5795311816036701202392578125">
        <ele>97</ele>
        <time>2019-05-02T14:01:22.000Z</time>
      </trkpt>
      <trkpt lat="41.75109612755477428436279296875" lon="-8.57975556515157222747802734375">
        <ele>101.1999969482421875</ele>
        <time>2019-05-02T14:01:33.000Z</time>
      </trkpt>
      <trkpt lat="41.7516271211206912994384765625" lon="-8.579957485198974609375">
        <ele>99.1999969482421875</ele>
        <time>2019-05-02T14:01:41.000Z</time>
      </trkpt>
      <trkpt lat="41.752188540995121002197265625" lon="-8.58023165725171566009521484375">
        <ele>95.8000030517578125</ele>
        <time>2019-05-02T14:01:49.000Z</time>
      </trkpt>
      <trkpt lat="41.75270159728825092315673828125" lon="-8.58054413460195064544677734375">
        <ele>89.1999969482421875</ele>
        <time>2019-05-02T14:01:56.000Z</time>
      </trkpt>
      <trkpt lat="41.7532320879399776458740234375" lon="-8.580922745168209075927734375">
        <ele>82.59999847412109375</ele>
        <time>2019-05-02T14:02:03.000Z</time>
      </trkpt>
      <trkpt lat="41.75374464131891727447509765625" lon="-8.5812846757471561431884765625">
        <ele>80.40000152587890625</ele>
        <time>2019-05-02T14:02:09.000Z</time>
      </trkpt>
      <trkpt lat="41.75426985137164592742919921875" lon="-8.581675104796886444091796875">
        <ele>75.8000030517578125</ele>
        <time>2019-05-02T14:02:15.000Z</time>
      </trkpt>
      <trkpt lat="41.75434579141438007354736328125" lon="-8.5817590914666652679443359375">
        <ele>74.1999969482421875</ele>
        <time>2019-05-02T14:02:16.000Z</time>
      </trkpt>
      <trkpt lat="41.75464284606277942657470703125" lon="-8.58245973475277423858642578125">
        <ele>69.59999847412109375</ele>
        <time>2019-05-02T14:02:22.000Z</time>
      </trkpt>
      <trkpt lat="41.75466581247746944427490234375" lon="-8.58260004781186580657958984375">
        <ele>69</ele>
        <time>2019-05-02T14:02:23.000Z</time>
      </trkpt>
      <trkpt lat="41.75476287491619586944580078125" lon="-8.5833120904862880706787109375">
        <ele>66.40000152587890625</ele>
        <time>2019-05-02T14:02:28.000Z</time>
      </trkpt>
      <trkpt lat="41.7549024336040019989013671875" lon="-8.5841388814151287078857421875">
        <ele>61.799999237060546875</ele>
        <time>2019-05-02T14:02:34.000Z</time>
      </trkpt>
      <trkpt lat="41.75499580800533294677734375" lon="-8.58455009758472442626953125">
        <ele>59</ele>
        <time>2019-05-02T14:02:37.000Z</time>
      </trkpt>
      <trkpt lat="41.755284480750560760498046875" lon="-8.58509383164346218109130859375">
        <ele>55.59999847412109375</ele>
        <time>2019-05-02T14:02:42.000Z</time>
      </trkpt>
      <trkpt lat="41.755511127412319183349609375" lon="-8.5853554308414459228515625">
        <ele>54.200000762939453125</ele>
        <time>2019-05-02T14:02:46.000Z</time>
      </trkpt>
      <trkpt lat="41.75594505853950977325439453125" lon="-8.58518435619771480560302734375">
        <ele>53.799999237060546875</ele>
        <time>2019-05-02T14:02:53.000Z</time>
      </trkpt>
      <trkpt lat="41.75615049898624420166015625" lon="-8.58497849665582180023193359375">
        <ele>53.200000762939453125</ele>
        <time>2019-05-02T14:02:57.000Z</time>
      </trkpt>
      <trkpt lat="41.756378151476383209228515625" lon="-8.584877662360668182373046875">
        <ele>52.200000762939453125</ele>
        <time>2019-05-02T14:03:01.000Z</time>
      </trkpt>
      <trkpt lat="41.75661393441259860992431640625" lon="-8.58485293574631214141845703125">
        <ele>51</ele>
        <time>2019-05-02T14:03:05.000Z</time>
      </trkpt>
      <trkpt lat="41.75719253718852996826171875" lon="-8.58496843837201595306396484375">
        <ele>48.200000762939453125</ele>
        <time>2019-05-02T14:03:14.000Z</time>
      </trkpt>
      <trkpt lat="41.75725515000522136688232421875" lon="-8.58497531153261661529541015625">
        <ele>47.799999237060546875</ele>
        <time>2019-05-02T14:03:15.000Z</time>
      </trkpt>
      <trkpt lat="41.75737358629703521728515625" lon="-8.585001714527606964111328125">
        <ele>47.200000762939453125</ele>
        <time>2019-05-02T14:03:17.000Z</time>
      </trkpt>
      <trkpt lat="41.7575594969093799591064453125" lon="-8.5850608907639980316162109375">
        <ele>45.799999237060546875</ele>
        <time>2019-05-02T14:03:20.000Z</time>
      </trkpt>
      <trkpt lat="41.75814530812203884124755859375" lon="-8.58506533317267894744873046875">
        <ele>41.59999847412109375</ele>
        <time>2019-05-02T14:03:28.000Z</time>
      </trkpt>
      <trkpt lat="41.7586863599717617034912109375" lon="-8.58475469984114170074462890625">
        <ele>40</ele>
        <time>2019-05-02T14:03:35.000Z</time>
      </trkpt>
      <trkpt lat="41.75894879736006259918212890625" lon="-8.5844999738037586212158203125">
        <ele>39.40000152587890625</ele>
        <time>2019-05-02T14:03:39.000Z</time>
      </trkpt>
      <trkpt lat="41.759261526167392730712890625" lon="-8.58385951258242130279541015625">
        <ele>37.799999237060546875</ele>
        <time>2019-05-02T14:03:46.000Z</time>
      </trkpt>
      <trkpt lat="41.75951776094734668731689453125" lon="-8.583132885396480560302734375">
        <ele>36</ele>
        <time>2019-05-02T14:03:54.000Z</time>
      </trkpt>
      <trkpt lat="41.759777180850505828857421875" lon="-8.58245520852506160736083984375">
        <ele>35.59999847412109375</ele>
        <time>2019-05-02T14:04:04.000Z</time>
      </trkpt>
      <trkpt lat="41.7598591558635234832763671875" lon="-8.582247085869312286376953125">
        <ele>36</ele>
        <time>2019-05-02T14:04:08.000Z</time>
      </trkpt>
      <trkpt lat="41.7600465752184391021728515625" lon="-8.5820697247982025146484375">
        <ele>35.799999237060546875</ele>
        <time>2019-05-02T14:04:14.000Z</time>
      </trkpt>
      <trkpt lat="41.76030658185482025146484375" lon="-8.58222504146397113800048828125">
        <ele>34.59999847412109375</ele>
        <time>2019-05-02T14:04:20.000Z</time>
      </trkpt>
      <trkpt lat="41.76035645417869091033935546875" lon="-8.582275919616222381591796875">
        <ele>34.40000152587890625</ele>
        <time>2019-05-02T14:04:21.000Z</time>
      </trkpt>
      <trkpt lat="41.760542280972003936767578125" lon="-8.582446575164794921875">
        <ele>33.59999847412109375</ele>
        <time>2019-05-02T14:04:24.000Z</time>
      </trkpt>
      <trkpt lat="41.7610721848905086517333984375" lon="-8.5828420333564281463623046875">
        <ele>31.6000003814697265625</ele>
        <time>2019-05-02T14:04:31.000Z</time>
      </trkpt>
      <trkpt lat="41.76115508191287517547607421875" lon="-8.58288176357746124267578125">
        <ele>31.3999996185302734375</ele>
        <time>2019-05-02T14:04:32.000Z</time>
      </trkpt>
      <trkpt lat="41.76168850623071193695068359375" lon="-8.58304269611835479736328125">
        <ele>29</ele>
        <time>2019-05-02T14:04:39.000Z</time>
      </trkpt>
      <trkpt lat="41.7621236108243465423583984375" lon="-8.58319382183253765106201171875">
        <ele>29.799999237060546875</ele>
        <time>2019-05-02T14:04:51.000Z</time>
      </trkpt>
      <trkpt lat="41.7621298134326934814453125" lon="-8.58319063670933246612548828125">
        <ele>29.799999237060546875</ele>
        <time>2019-05-02T14:04:53.000Z</time>
      </trkpt>
      <trkpt lat="41.76221572794020175933837890625" lon="-8.58315492980182170867919921875">
        <ele>30</ele>
        <time>2019-05-02T14:04:57.000Z</time>
      </trkpt>
      <trkpt lat="41.762542538344860076904296875" lon="-8.5835031978785991668701171875">
        <ele>28.799999237060546875</ele>
        <time>2019-05-02T14:05:08.000Z</time>
      </trkpt>
      <trkpt lat="41.7626737989485263824462890625" lon="-8.58363688923418521881103515625">
        <ele>28.200000762939453125</ele>
        <time>2019-05-02T14:05:12.000Z</time>
      </trkpt>
      <trkpt lat="41.76310010254383087158203125" lon="-8.58390234410762786865234375">
        <ele>25.799999237060546875</ele>
        <time>2019-05-02T14:05:27.000Z</time>
      </trkpt>
      <trkpt lat="41.763245947659015655517578125" lon="-8.5838763602077960968017578125">
        <ele>25.3999996185302734375</ele>
        <time>2019-05-02T14:05:31.000Z</time>
      </trkpt>
      <trkpt lat="41.76380745135247707366943359375" lon="-8.5838399827480316162109375">
        <ele>24.6000003814697265625</ele>
        <time>2019-05-02T14:05:44.000Z</time>
      </trkpt>
      <trkpt lat="41.76387936808168888092041015625" lon="-8.583786673843860626220703125">
        <ele>25</ele>
        <time>2019-05-02T14:05:47.000Z</time>
      </trkpt>
      <trkpt lat="41.76400006748735904693603515625" lon="-8.58376161195337772369384765625">
        <ele>25.200000762939453125</ele>
        <time>2019-05-02T14:05:58.000Z</time>
      </trkpt>
      <trkpt lat="41.7640085332095623016357421875" lon="-8.583771251142024993896484375">
        <ele>25.200000762939453125</ele>
        <time>2019-05-02T14:06:03.000Z</time>
      </trkpt>
      <trkpt lat="41.76407240331172943115234375" lon="-8.5837992466986179351806640625">
        <ele>25.3999996185302734375</ele>
        <time>2019-05-02T14:06:06.000Z</time>
      </trkpt>
      <trkpt lat="41.76462669856846332550048828125" lon="-8.583804108202457427978515625">
        <ele>28</ele>
        <time>2019-05-02T14:06:22.000Z</time>
      </trkpt>
      <trkpt lat="41.7651652358472347259521484375" lon="-8.58392355032265186309814453125">
        <ele>27</ele>
        <time>2019-05-02T14:06:43.000Z</time>
      </trkpt>
      <trkpt lat="41.76540839485824108123779296875" lon="-8.5840379633009433746337890625">
        <ele>24.799999237060546875</ele>
        <time>2019-05-02T14:06:48.000Z</time>
      </trkpt>
      <trkpt lat="41.7658974789083003997802734375" lon="-8.58421792276203632354736328125">
        <ele>19.6000003814697265625</ele>
        <time>2019-05-02T14:07:02.000Z</time>
      </trkpt>
      <trkpt lat="41.76591382361948490142822265625" lon="-8.584229238331317901611328125">
        <ele>19.3999996185302734375</ele>
        <time>2019-05-02T14:07:04.000Z</time>
      </trkpt>
      <trkpt lat="41.7661724053323268890380859375" lon="-8.58412739820778369903564453125">
        <ele>18.6000003814697265625</ele>
        <time>2019-05-02T14:07:14.000Z</time>
      </trkpt>
      <trkpt lat="41.76617584191262722015380859375" lon="-8.58412773348391056060791015625">
        <ele>18.6000003814697265625</ele>
        <time>2019-05-02T14:07:16.000Z</time>
      </trkpt>
      <trkpt lat="41.7661941982805728912353515625" lon="-8.5841392166912555694580078125">
        <ele>18.3999996185302734375</ele>
        <time>2019-05-02T14:08:01.000Z</time>
      </trkpt>
      <trkpt lat="41.7662334255874156951904296875" lon="-8.58424725942313671112060546875">
        <ele>17.799999237060546875</ele>
        <time>2019-05-02T14:08:05.000Z</time>
      </trkpt>
      <trkpt lat="41.766309700906276702880859375" lon="-8.58447725884616374969482421875">
        <ele>16.3999996185302734375</ele>
        <time>2019-05-02T14:08:15.000Z</time>
      </trkpt>
      <trkpt lat="41.76645898260176181793212890625" lon="-8.58465780504047870635986328125">
        <ele>13.80000019073486328125</ele>
        <time>2019-05-02T14:08:19.000Z</time>
      </trkpt>
      <trkpt lat="41.76688327454030513763427734375" lon="-8.58515367843210697174072265625">
        <ele>8.19999980926513671875</ele>
        <time>2019-05-02T14:08:30.000Z</time>
      </trkpt>
      <trkpt lat="41.76712634973227977752685546875" lon="-8.58541804365813732147216796875">
        <ele>7.80000019073486328125</ele>
        <time>2019-05-02T14:08:39.000Z</time>
      </trkpt>
      <trkpt lat="41.76733723841607570648193359375" lon="-8.5854471288621425628662109375">
        <ele>6.80000019073486328125</ele>
        <time>2019-05-02T14:08:48.000Z</time>
      </trkpt>
      <trkpt lat="41.76733623258769512176513671875" lon="-8.5854501463472843170166015625">
        <ele>6.80000019073486328125</ele>
        <time>2019-05-02T14:08:50.000Z</time>
      </trkpt>
      <trkpt lat="41.7673720233142375946044921875" lon="-8.58541921712458133697509765625">
        <ele>6.80000019073486328125</ele>
        <time>2019-05-02T14:10:06.000Z</time>
      </trkpt>
      <trkpt lat="41.76749900914728641510009765625" lon="-8.58529508113861083984375">
        <ele>6.80000019073486328125</ele>
        <time>2019-05-02T14:10:12.000Z</time>
      </trkpt>
      <trkpt lat="41.7680020071566104888916015625" lon="-8.5849385149776935577392578125">
        <ele>6.80000019073486328125</ele>
        <time>2019-05-02T14:10:28.000Z</time>
      </trkpt>
      <trkpt lat="41.76849779672920703887939453125" lon="-8.58458555303514003753662109375">
        <ele>8.6000003814697265625</ele>
        <time>2019-05-02T14:10:46.000Z</time>
      </trkpt>
      <trkpt lat="41.76880943588912487030029296875" lon="-8.5844892449676990509033203125">
        <ele>9.6000003814697265625</ele>
        <time>2019-05-02T14:10:57.000Z</time>
      </trkpt>
      <trkpt lat="41.7688532732427120208740234375" lon="-8.58473894186317920684814453125">
        <ele>7.19999980926513671875</ele>
        <time>2019-05-02T14:11:05.000Z</time>
      </trkpt>
      <trkpt lat="41.76900230348110198974609375" lon="-8.58547219075262546539306640625">
        <ele>2</ele>
        <time>2019-05-02T14:11:26.000Z</time>
      </trkpt>
      <trkpt lat="41.76914772950112819671630859375" lon="-8.58619563281536102294921875">
        <ele>2.2000000476837158203125</ele>
        <time>2019-05-02T14:11:42.000Z</time>
      </trkpt>
      <trkpt lat="41.76925987936556339263916015625" lon="-8.58673031441867351531982421875">
        <ele>2.7999999523162841796875</ele>
        <time>2019-05-02T14:11:58.000Z</time>
      </trkpt>
      <trkpt lat="41.76925736479461193084716796875" lon="-8.58681178651750087738037109375">
        <ele>2.7999999523162841796875</ele>
        <time>2019-05-02T14:12:37.000Z</time>
      </trkpt>
      <trkpt lat="41.7693315446376800537109375" lon="-8.58706760220229625701904296875">
        <ele>2.400000095367431640625</ele>
        <time>2019-05-02T14:12:49.000Z</time>
      </trkpt>
      <trkpt lat="41.769332550466060638427734375" lon="-8.58710221946239471435546875">
        <ele>2.400000095367431640625</ele>
        <time>2019-05-02T14:13:33.000Z</time>
      </trkpt>
      <trkpt lat="41.76947982050478458404541015625" lon="-8.58781434595584869384765625">
        <ele>3.7999999523162841796875</ele>
        <time>2019-05-02T14:13:50.000Z</time>
      </trkpt>
      <trkpt lat="41.769593060016632080078125" lon="-8.588516749441623687744140625">
        <ele>6.599999904632568359375</ele>
        <time>2019-05-02T14:14:07.000Z</time>
      </trkpt>
      <trkpt lat="41.7697350494563579559326171875" lon="-8.58921454288065433502197265625">
        <ele>8.3999996185302734375</ele>
        <time>2019-05-02T14:14:22.000Z</time>
      </trkpt>
      <trkpt lat="41.7699358798563480377197265625" lon="-8.58959935605525970458984375">
        <ele>10.19999980926513671875</ele>
        <time>2019-05-02T14:14:35.000Z</time>
      </trkpt>
      <trkpt lat="41.77038758061826229095458984375" lon="-8.58939089812338352203369140625">
        <ele>8.6000003814697265625</ele>
        <time>2019-05-02T14:14:47.000Z</time>
      </trkpt>
      <trkpt lat="41.770942546427249908447265625" lon="-8.58919995836913585662841796875">
        <ele>7.80000019073486328125</ele>
        <time>2019-05-02T14:14:58.000Z</time>
      </trkpt>
      <trkpt lat="41.77151461131870746612548828125" lon="-8.58914061449468135833740234375">
        <ele>7</ele>
        <time>2019-05-02T14:15:09.000Z</time>
      </trkpt>
      <trkpt lat="41.77169498987495899200439453125" lon="-8.58891396783292293548583984375">
        <ele>6.80000019073486328125</ele>
        <time>2019-05-02T14:15:14.000Z</time>
      </trkpt>
      <trkpt lat="41.77206831984221935272216796875" lon="-8.588303513824939727783203125">
        <ele>6.19999980926513671875</ele>
        <time>2019-05-02T14:15:25.000Z</time>
      </trkpt>
      <trkpt lat="41.772103607654571533203125" lon="-8.58826688490808010101318359375">
        <ele>6</ele>
        <time>2019-05-02T14:15:26.000Z</time>
      </trkpt>
      <trkpt lat="41.7723773606121540069580078125" lon="-8.588302172720432281494140625">
        <ele>5.80000019073486328125</ele>
        <time>2019-05-02T14:15:32.000Z</time>
      </trkpt>
      <trkpt lat="41.7724742554128170013427734375" lon="-8.58832664787769317626953125">
        <ele>5.599999904632568359375</ele>
        <time>2019-05-02T14:15:34.000Z</time>
      </trkpt>
      <trkpt lat="41.77304179407656192779541015625" lon="-8.5884203575551509857177734375">
        <ele>4.400000095367431640625</ele>
        <time>2019-05-02T14:15:45.000Z</time>
      </trkpt>
      <trkpt lat="41.77321295253932476043701171875" lon="-8.5885553061962127685546875">
        <ele>4</ele>
        <time>2019-05-02T14:15:49.000Z</time>
      </trkpt>
      <trkpt lat="41.773666329681873321533203125" lon="-8.588953278958797454833984375">
        <ele>5.19999980926513671875</ele>
        <time>2019-05-02T14:15:59.000Z</time>
      </trkpt>
      <trkpt lat="41.77413462661206722259521484375" lon="-8.58942492865025997161865234375">
        <ele>7</ele>
        <time>2019-05-02T14:16:09.000Z</time>
      </trkpt>
      <trkpt lat="41.7741809785366058349609375" lon="-8.58945661224424839019775390625">
        <ele>6.80000019073486328125</ele>
        <time>2019-05-02T14:16:10.000Z</time>
      </trkpt>
      <trkpt lat="41.77467291243374347686767578125" lon="-8.58981787227094173431396484375">
        <ele>6.400000095367431640625</ele>
        <time>2019-05-02T14:16:22.000Z</time>
      </trkpt>
      <trkpt lat="41.77471582777798175811767578125" lon="-8.58984201215207576751708984375">
        <ele>6.400000095367431640625</ele>
        <time>2019-05-02T14:16:23.000Z</time>
      </trkpt>
      <trkpt lat="41.77483434788882732391357421875" lon="-8.5898774676024913787841796875">
        <ele>6.400000095367431640625</ele>
        <time>2019-05-02T14:16:27.000Z</time>
      </trkpt>
      <trkpt lat="41.7748533748090267181396484375" lon="-8.58988593332469463348388671875">
        <ele>6.400000095367431640625</ele>
        <time>2019-05-02T14:16:31.000Z</time>
      </trkpt>
      <trkpt lat="41.77499762736260890960693359375" lon="-8.590008057653903961181640625">
        <ele>6.400000095367431640625</ele>
        <time>2019-05-02T14:17:02.000Z</time>
      </trkpt>
      <trkpt lat="41.77506543695926666259765625" lon="-8.5900665633380413055419921875">
        <ele>6.400000095367431640625</ele>
        <time>2019-05-02T14:17:07.000Z</time>
      </trkpt>
      <trkpt lat="41.77513576112687587738037109375" lon="-8.59011358581483364105224609375">
        <ele>6.599999904632568359375</ele>
        <time>2019-05-02T14:17:14.000Z</time>
      </trkpt>
      <trkpt lat="41.7751517705619335174560546875" lon="-8.59011836349964141845703125">
        <ele>6.599999904632568359375</ele>
        <time>2019-05-02T14:17:18.000Z</time>
      </trkpt>
      <trkpt lat="41.775393672287464141845703125" lon="-8.59017896465957164764404296875">
        <ele>7.19999980926513671875</ele>
        <time>2019-05-02T14:17:40.000Z</time>
      </trkpt>
      <trkpt lat="41.77546466700732707977294921875" lon="-8.59017075039446353912353515625">
        <ele>7.400000095367431640625</ele>
        <time>2019-05-02T14:17:46.000Z</time>
      </trkpt>
      <trkpt lat="41.77563674747943878173828125" lon="-8.59020092524588108062744140625">
        <ele>7.80000019073486328125</ele>
        <time>2019-05-02T14:18:01.000Z</time>
      </trkpt>
      <trkpt lat="41.77568946965038776397705078125" lon="-8.590193130075931549072265625">
        <ele>8</ele>
        <time>2019-05-02T14:18:05.000Z</time>
      </trkpt>
      <trkpt lat="41.77620730362832546234130859375" lon="-8.5899441875517368316650390625">
        <ele>7.400000095367431640625</ele>
        <time>2019-05-02T14:18:45.000Z</time>
      </trkpt>
      <trkpt lat="41.77671977318823337554931640625" lon="-8.58977235853672027587890625">
        <ele>6.599999904632568359375</ele>
        <time>2019-05-02T14:19:26.000Z</time>
      </trkpt>
      <trkpt lat="41.7767419852316379547119140625" lon="-8.5897685028612613677978515625">
        <ele>6.599999904632568359375</ele>
        <time>2019-05-02T14:19:34.000Z</time>
      </trkpt>
      <trkpt lat="41.77728672511875629425048828125" lon="-8.58968325890600681304931640625">
        <ele>5.80000019073486328125</ele>
        <time>2019-05-02T14:19:53.000Z</time>
      </trkpt>
      <trkpt lat="41.77782266400754451751708984375" lon="-8.58986129052937030792236328125">
        <ele>5.599999904632568359375</ele>
        <time>2019-05-02T14:20:08.000Z</time>
      </trkpt>
      <trkpt lat="41.77835608832538127899169921875" lon="-8.5900350473821163177490234375">
        <ele>6</ele>
        <time>2019-05-02T14:20:23.000Z</time>
      </trkpt>
      <trkpt lat="41.77861525677144527435302734375" lon="-8.59016722999513149261474609375">
        <ele>6.400000095367431640625</ele>
        <time>2019-05-02T14:20:30.000Z</time>
      </trkpt>
      <trkpt lat="41.7791283130645751953125" lon="-8.5903175175189971923828125">
        <ele>7.400000095367431640625</ele>
        <time>2019-05-02T14:20:48.000Z</time>
      </trkpt>
      <trkpt lat="41.7791445739567279815673828125" lon="-8.590300418436527252197265625">
        <ele>7.19999980926513671875</ele>
        <time>2019-05-02T14:20:50.000Z</time>
      </trkpt>
      <trkpt lat="41.77928698249161243438720703125" lon="-8.59021131880581378936767578125">
        <ele>7</ele>
        <time>2019-05-02T14:20:57.000Z</time>
      </trkpt>
      <trkpt lat="41.77979928441345691680908203125" lon="-8.59019882977008819580078125">
        <ele>7</ele>
        <time>2019-05-02T14:21:10.000Z</time>
      </trkpt>
      <trkpt lat="41.78027168847620487213134765625" lon="-8.59046495519578456878662109375">
        <ele>7.400000095367431640625</ele>
        <time>2019-05-02T14:21:21.000Z</time>
      </trkpt>
      <trkpt lat="41.780395992100238800048828125" lon="-8.59051306731998920440673828125">
        <ele>7.599999904632568359375</ele>
        <time>2019-05-02T14:21:24.000Z</time>
      </trkpt>
      <trkpt lat="41.78059439174830913543701171875" lon="-8.59056838788092136383056640625">
        <ele>8.19999980926513671875</ele>
        <time>2019-05-02T14:21:29.000Z</time>
      </trkpt>
      <trkpt lat="41.781080625951290130615234375" lon="-8.5909842140972614288330078125">
        <ele>10.19999980926513671875</ele>
        <time>2019-05-02T14:21:43.000Z</time>
      </trkpt>
      <trkpt lat="41.78123326040804386138916015625" lon="-8.59109192155301570892333984375">
        <ele>10.80000019073486328125</ele>
        <time>2019-05-02T14:21:47.000Z</time>
      </trkpt>
      <trkpt lat="41.78174388594925403594970703125" lon="-8.59140171669423580169677734375">
        <ele>12.3999996185302734375</ele>
        <time>2019-05-02T14:22:01.000Z</time>
      </trkpt>
      <trkpt lat="41.78198419511318206787109375" lon="-8.5916282795369625091552734375">
        <ele>12.6000003814697265625</ele>
        <time>2019-05-02T14:22:08.000Z</time>
      </trkpt>
      <trkpt lat="41.7821593768894672393798828125" lon="-8.59185618348419666290283203125">
        <ele>12</ele>
        <time>2019-05-02T14:22:13.000Z</time>
      </trkpt>
      <trkpt lat="41.78224680013954639434814453125" lon="-8.591932542622089385986328125">
        <ele>11.80000019073486328125</ele>
        <time>2019-05-02T14:22:15.000Z</time>
      </trkpt>
      <trkpt lat="41.78234486840665340423583984375" lon="-8.5919927246868610382080078125">
        <ele>11.6000003814697265625</ele>
        <time>2019-05-02T14:22:17.000Z</time>
      </trkpt>
      <trkpt lat="41.78271920420229434967041015625" lon="-8.591976128518581390380859375">
        <ele>12</ele>
        <time>2019-05-02T14:22:24.000Z</time>
      </trkpt>
      <trkpt lat="41.78326503373682498931884765625" lon="-8.59186506830155849456787109375">
        <ele>13</ele>
        <time>2019-05-02T14:22:34.000Z</time>
      </trkpt>
      <trkpt lat="41.783422529697418212890625" lon="-8.591890297830104827880859375">
        <ele>12.6000003814697265625</ele>
        <time>2019-05-02T14:22:37.000Z</time>
      </trkpt>
      <trkpt lat="41.7835296504199504852294921875" lon="-8.59191988594830036163330078125">
        <ele>12.6000003814697265625</ele>
        <time>2019-05-02T14:22:39.000Z</time>
      </trkpt>
      <trkpt lat="41.78382326848804950714111328125" lon="-8.59185232780873775482177734375">
        <ele>12.19999980926513671875</ele>
        <time>2019-05-02T14:22:45.000Z</time>
      </trkpt>
      <trkpt lat="41.7843225784599781036376953125" lon="-8.59156248159706592559814453125">
        <ele>11.3999996185302734375</ele>
        <time>2019-05-02T14:22:55.000Z</time>
      </trkpt>
      <trkpt lat="41.7844268493354320526123046875" lon="-8.59150565229356288909912109375">
        <ele>11.19999980926513671875</ele>
        <time>2019-05-02T14:22:57.000Z</time>
      </trkpt>
      <trkpt lat="41.78491794504225254058837890625" lon="-8.5913449712097644805908203125">
        <ele>10.3999996185302734375</ele>
        <time>2019-05-02T14:23:06.000Z</time>
      </trkpt>
      <trkpt lat="41.78543678484857082366943359375" lon="-8.59120625071227550506591796875">
        <ele>10.19999980926513671875</ele>
        <time>2019-05-02T14:23:16.000Z</time>
      </trkpt>
      <trkpt lat="41.78576116450130939483642578125" lon="-8.59116216190159320831298828125">
        <ele>10.19999980926513671875</ele>
        <time>2019-05-02T14:23:29.000Z</time>
      </trkpt>
      <trkpt lat="41.78577491082251071929931640625" lon="-8.5911582224071025848388671875">
        <ele>10.19999980926513671875</ele>
        <time>2019-05-02T14:24:57.000Z</time>
      </trkpt>
      <trkpt lat="41.7859075963497161865234375" lon="-8.59108555130660533905029296875">
        <ele>10.3999996185302734375</ele>
        <time>2019-05-02T14:25:01.000Z</time>
      </trkpt>
      <trkpt lat="41.78644931875169277191162109375" lon="-8.59094339422881603240966796875">
        <ele>10.80000019073486328125</ele>
        <time>2019-05-02T14:25:16.000Z</time>
      </trkpt>
      <trkpt lat="41.78680219687521457672119140625" lon="-8.5908967070281505584716796875">
        <ele>11.19999980926513671875</ele>
        <time>2019-05-02T14:25:25.000Z</time>
      </trkpt>
      <trkpt lat="41.78733126260340213775634765625" lon="-8.5910631716251373291015625">
        <ele>12.19999980926513671875</ele>
        <time>2019-05-02T14:25:39.000Z</time>
      </trkpt>
      <trkpt lat="41.7873732559382915496826171875" lon="-8.59107750467956066131591796875">
        <ele>12.19999980926513671875</ele>
        <time>2019-05-02T14:25:40.000Z</time>
      </trkpt>
      <trkpt lat="41.7878014035522937774658203125" lon="-8.591261990368366241455078125">
        <ele>13</ele>
        <time>2019-05-02T14:25:50.000Z</time>
      </trkpt>
      <trkpt lat="41.78788815625011920928955078125" lon="-8.5912698693573474884033203125">
        <ele>13.19999980926513671875</ele>
        <time>2019-05-02T14:25:52.000Z</time>
      </trkpt>
      <trkpt lat="41.78846013732254505157470703125" lon="-8.59124279581010341644287109375">
        <ele>13.19999980926513671875</ele>
        <time>2019-05-02T14:26:05.000Z</time>
      </trkpt>
      <trkpt lat="41.78863079287111759185791015625" lon="-8.5912608169019222259521484375">
        <ele>13.3999996185302734375</ele>
        <time>2019-05-02T14:26:09.000Z</time>
      </trkpt>
      <trkpt lat="41.78879432380199432373046875" lon="-8.59140448272228240966796875">
        <ele>14</ele>
        <time>2019-05-02T14:26:14.000Z</time>
      </trkpt>
      <trkpt lat="41.78885274566709995269775390625" lon="-8.5914790816605091094970703125">
        <ele>14.3999996185302734375</ele>
        <time>2019-05-02T14:26:16.000Z</time>
      </trkpt>
      <trkpt lat="41.78937678225338459014892578125" lon="-8.591746799647808074951171875">
        <ele>16.200000762939453125</ele>
        <time>2019-05-02T14:26:30.000Z</time>
      </trkpt>
      <trkpt lat="41.789879612624645233154296875" lon="-8.592065311968326568603515625">
        <ele>18.799999237060546875</ele>
        <time>2019-05-02T14:26:44.000Z</time>
      </trkpt>
      <trkpt lat="41.79035411216318607330322265625" lon="-8.59211652539670467376708984375">
        <ele>21.6000003814697265625</ele>
        <time>2019-05-02T14:27:00.000Z</time>
      </trkpt>
      <trkpt lat="41.7903622426092624664306640625" lon="-8.59217721037566661834716796875">
        <ele>22</ele>
        <time>2019-05-02T14:27:04.000Z</time>
      </trkpt>
      <trkpt lat="41.7903950996696949005126953125" lon="-8.5921717621386051177978515625">
        <ele>22.200000762939453125</ele>
        <time>2019-05-02T14:34:05.000Z</time>
      </trkpt>
      <trkpt lat="41.79072174243628978729248046875" lon="-8.5915712825953960418701171875">
        <ele>19.3999996185302734375</ele>
        <time>2019-05-02T14:34:23.000Z</time>
      </trkpt>
      <trkpt lat="41.79090932942926883697509765625" lon="-8.591353856027126312255859375">
        <ele>18.200000762939453125</ele>
        <time>2019-05-02T14:34:31.000Z</time>
      </trkpt>
      <trkpt lat="41.79132440127432346343994140625" lon="-8.5918230749666690826416015625">
        <ele>23</ele>
        <time>2019-05-02T14:34:49.000Z</time>
      </trkpt>
      <trkpt lat="41.79158306680619716644287109375" lon="-8.59215776436030864715576171875">
        <ele>25.3999996185302734375</ele>
        <time>2019-05-02T14:35:03.000Z</time>
      </trkpt>
      <trkpt lat="41.7917348630726337432861328125" lon="-8.59250393696129322052001953125">
        <ele>26.799999237060546875</ele>
        <time>2019-05-02T14:35:19.000Z</time>
      </trkpt>
      <trkpt lat="41.791775263845920562744140625" lon="-8.5925214551389217376708984375">
        <ele>27</ele>
        <time>2019-05-02T14:35:23.000Z</time>
      </trkpt>
      <trkpt lat="41.79179009981453418731689453125" lon="-8.59252472408115863800048828125">
        <ele>27</ele>
        <time>2019-05-02T14:36:06.000Z</time>
      </trkpt>
      <trkpt lat="41.79184843786060810089111328125" lon="-8.59250075183808803558349609375">
        <ele>26.799999237060546875</ele>
        <time>2019-05-02T14:36:09.000Z</time>
      </trkpt>
      <trkpt lat="41.792014651000499725341796875" lon="-8.5924969799816608428955078125">
        <ele>27</ele>
        <time>2019-05-02T14:36:17.000Z</time>
      </trkpt>
      <trkpt lat="41.79222914390265941619873046875" lon="-8.59259228222072124481201171875">
        <ele>28</ele>
        <time>2019-05-02T14:36:25.000Z</time>
      </trkpt>
      <trkpt lat="41.79251714609563350677490234375" lon="-8.5925707407295703887939453125">
        <ele>27.6000003814697265625</ele>
        <time>2019-05-02T14:36:30.000Z</time>
      </trkpt>
      <trkpt lat="41.79273423738777637481689453125" lon="-8.59264307655394077301025390625">
        <ele>26.6000003814697265625</ele>
        <time>2019-05-02T14:36:34.000Z</time>
      </trkpt>
      <trkpt lat="41.7930407635867595672607421875" lon="-8.592669479548931121826171875">
        <ele>25</ele>
        <time>2019-05-02T14:36:42.000Z</time>
      </trkpt>
      <trkpt lat="41.7930853553116321563720703125" lon="-8.592696972191333770751953125">
        <ele>24.799999237060546875</ele>
        <time>2019-05-02T14:36:43.000Z</time>
      </trkpt>
      <trkpt lat="41.79341015405952930450439453125" lon="-8.592957817018032073974609375">
        <ele>26</ele>
        <time>2019-05-02T14:36:50.000Z</time>
      </trkpt>
      <trkpt lat="41.7936633713543415069580078125" lon="-8.592833764851093292236328125">
        <ele>24.799999237060546875</ele>
        <time>2019-05-02T14:36:55.000Z</time>
      </trkpt>
      <trkpt lat="41.793765127658843994140625" lon="-8.59276327304542064666748046875">
        <ele>24</ele>
        <time>2019-05-02T14:36:57.000Z</time>
      </trkpt>
      <trkpt lat="41.7940693907439708709716796875" lon="-8.5926626063883304595947265625">
        <ele>23</ele>
        <time>2019-05-02T14:37:02.000Z</time>
      </trkpt>
      <trkpt lat="41.794277094304561614990234375" lon="-8.59265279956161975860595703125">
        <ele>22.799999237060546875</ele>
        <time>2019-05-02T14:37:06.000Z</time>
      </trkpt>
      <trkpt lat="41.79432948119938373565673828125" lon="-8.59228156507015228271484375">
        <ele>21.200000762939453125</ele>
        <time>2019-05-02T14:37:11.000Z</time>
      </trkpt>
      <trkpt lat="41.7945575527846813201904296875" lon="-8.592095486819744110107421875">
        <ele>20.200000762939453125</ele>
        <time>2019-05-02T14:37:16.000Z</time>
      </trkpt>
      <trkpt lat="41.7948851175606250762939453125" lon="-8.59187361784279346466064453125">
        <ele>19.200000762939453125</ele>
        <time>2019-05-02T14:37:22.000Z</time>
      </trkpt>
      <trkpt lat="41.79523439146578311920166015625" lon="-8.59192214906215667724609375">
        <ele>21.799999237060546875</ele>
        <time>2019-05-02T14:37:33.000Z</time>
      </trkpt>
      <trkpt lat="41.79564468562602996826171875" lon="-8.59146391041576862335205078125">
        <ele>21.799999237060546875</ele>
        <time>2019-05-02T14:37:54.000Z</time>
      </trkpt>
      <trkpt lat="41.7957497946918010711669921875" lon="-8.591314293444156646728515625">
        <ele>21.200000762939453125</ele>
        <time>2019-05-02T14:37:58.000Z</time>
      </trkpt>
      <trkpt lat="41.79595439694821834564208984375" lon="-8.59114673919975757598876953125">
        <ele>20.6000003814697265625</ele>
        <time>2019-05-02T14:38:03.000Z</time>
      </trkpt>
      <trkpt lat="41.79606419987976551055908203125" lon="-8.5910133831202983856201171875">
        <ele>19.799999237060546875</ele>
        <time>2019-05-02T14:38:06.000Z</time>
      </trkpt>
      <trkpt lat="41.79620702750980854034423828125" lon="-8.5907515324652194976806640625">
        <ele>20.3999996185302734375</ele>
        <time>2019-05-02T14:38:11.000Z</time>
      </trkpt>
      <trkpt lat="41.79636083543300628662109375" lon="-8.5903780348598957061767578125">
        <ele>21.3999996185302734375</ele>
        <time>2019-05-02T14:38:19.000Z</time>
      </trkpt>
      <trkpt lat="41.796508692204952239990234375" lon="-8.59032983891665935516357421875">
        <ele>21.799999237060546875</ele>
        <time>2019-05-02T14:38:23.000Z</time>
      </trkpt>
      <trkpt lat="41.79685545153915882110595703125" lon="-8.5904115624725818634033203125">
        <ele>25</ele>
        <time>2019-05-02T14:38:31.000Z</time>
      </trkpt>
      <trkpt lat="41.7970577068626880645751953125" lon="-8.59056369401514530181884765625">
        <ele>26.6000003814697265625</ele>
        <time>2019-05-02T14:38:36.000Z</time>
      </trkpt>
      <trkpt lat="41.79743908345699310302734375" lon="-8.59111019410192966461181640625">
        <ele>24.200000762939453125</ele>
        <time>2019-05-02T14:38:54.000Z</time>
      </trkpt>
      <trkpt lat="41.7975693382322788238525390625" lon="-8.59126961790025234222412109375">
        <ele>24.3999996185302734375</ele>
        <time>2019-05-02T14:38:59.000Z</time>
      </trkpt>
      <trkpt lat="41.7976249940693378448486328125" lon="-8.59135997481644153594970703125">
        <ele>24.6000003814697265625</ele>
        <time>2019-05-02T14:39:01.000Z</time>
      </trkpt>
      <trkpt lat="41.79784032516181468963623046875" lon="-8.5915660858154296875">
        <ele>24</ele>
        <time>2019-05-02T14:39:07.000Z</time>
      </trkpt>
      <trkpt lat="41.7983253858983516693115234375" lon="-8.59191401861608028411865234375">
        <ele>22.799999237060546875</ele>
        <time>2019-05-02T14:39:26.000Z</time>
      </trkpt>
      <trkpt lat="41.79868186824023723602294921875" lon="-8.59176565892994403839111328125">
        <ele>23.799999237060546875</ele>
        <time>2019-05-02T14:39:36.000Z</time>
      </trkpt>
      <trkpt lat="41.79892578162252902984619140625" lon="-8.5918083228170871734619140625">
        <ele>24.6000003814697265625</ele>
        <time>2019-05-02T14:39:44.000Z</time>
      </trkpt>
      <trkpt lat="41.79901462979614734649658203125" lon="-8.59176264144480228424072265625">
        <ele>25.3999996185302734375</ele>
        <time>2019-05-02T14:39:50.000Z</time>
      </trkpt>
      <trkpt lat="41.79904715158045291900634765625" lon="-8.59166960231959819793701171875">
        <ele>26</ele>
        <time>2019-05-02T14:39:55.000Z</time>
      </trkpt>
      <trkpt lat="41.79908134974539279937744140625" lon="-8.591548986732959747314453125">
        <ele>27.200000762939453125</ele>
        <time>2019-05-02T14:40:01.000Z</time>
      </trkpt>
      <trkpt lat="41.799459122121334075927734375" lon="-8.59112645499408245086669921875">
        <ele>34.799999237060546875</ele>
        <time>2019-05-02T14:40:26.000Z</time>
      </trkpt>
      <trkpt lat="41.79964109323918819427490234375" lon="-8.5910846292972564697265625">
        <ele>37.40000152587890625</ele>
        <time>2019-05-02T14:40:30.000Z</time>
      </trkpt>
      <trkpt lat="41.7997902072966098785400390625" lon="-8.59107968397438526153564453125">
        <ele>39.40000152587890625</ele>
        <time>2019-05-02T14:40:33.000Z</time>
      </trkpt>
      <trkpt lat="41.7998951487243175506591796875" lon="-8.59110466204583644866943359375">
        <ele>39.799999237060546875</ele>
        <time>2019-05-02T14:40:35.000Z</time>
      </trkpt>
      <trkpt lat="41.800382137298583984375" lon="-8.59140708111226558685302734375">
        <ele>43.40000152587890625</ele>
        <time>2019-05-02T14:40:46.000Z</time>
      </trkpt>
      <trkpt lat="41.800510883331298828125" lon="-8.59156969003379344940185546875">
        <ele>43.799999237060546875</ele>
        <time>2019-05-02T14:40:50.000Z</time>
      </trkpt>
      <trkpt lat="41.800813972949981689453125" lon="-8.59216899611055850982666015625">
        <ele>40</ele>
        <time>2019-05-02T14:41:05.000Z</time>
      </trkpt>
      <trkpt lat="41.80083450861275196075439453125" lon="-8.592209480702877044677734375">
        <ele>39.40000152587890625</ele>
        <time>2019-05-02T14:41:07.000Z</time>
      </trkpt>
      <trkpt lat="41.80084146559238433837890625" lon="-8.59222113154828548431396484375">
        <ele>39.40000152587890625</ele>
        <time>2019-05-02T14:41:09.000Z</time>
      </trkpt>
      <trkpt lat="41.80082512088119983673095703125" lon="-8.59223169274628162384033203125">
        <ele>39</ele>
        <time>2019-05-02T14:41:17.000Z</time>
      </trkpt>
      <trkpt lat="41.80082830600440502166748046875" lon="-8.59225667081773281097412109375">
        <ele>38.59999847412109375</ele>
        <time>2019-05-02T14:41:18.000Z</time>
      </trkpt>
      <trkpt lat="41.8008104525506496429443359375" lon="-8.5924567468464374542236328125">
        <ele>35.40000152587890625</ele>
        <time>2019-05-02T14:41:23.000Z</time>
      </trkpt>
      <trkpt lat="41.80082579143345355987548828125" lon="-8.592583648860454559326171875">
        <ele>33.59999847412109375</ele>
        <time>2019-05-02T14:41:29.000Z</time>
      </trkpt>
      <trkpt lat="41.80085915140807628631591796875" lon="-8.59259915538132190704345703125">
        <ele>33.59999847412109375</ele>
        <time>2019-05-02T14:44:14.000Z</time>
      </trkpt>
      <trkpt lat="41.801026873290538787841796875" lon="-8.592686243355274200439453125">
        <ele>33.200000762939453125</ele>
        <time>2019-05-02T14:44:22.000Z</time>
      </trkpt>
      <trkpt lat="41.8014390952885150909423828125" lon="-8.5931705497205257415771484375">
        <ele>32.40000152587890625</ele>
        <time>2019-05-02T14:44:42.000Z</time>
      </trkpt>
      <trkpt lat="41.80192113853991031646728515625" lon="-8.59352719970047473907470703125">
        <ele>30.200000762939453125</ele>
        <time>2019-05-02T14:45:01.000Z</time>
      </trkpt>
      <trkpt lat="41.80241684429347515106201171875" lon="-8.593279682099819183349609375">
        <ele>34.200000762939453125</ele>
        <time>2019-05-02T14:45:19.000Z</time>
      </trkpt>
      <trkpt lat="41.8025381304323673248291015625" lon="-8.59339443035423755645751953125">
        <ele>34</ele>
        <time>2019-05-02T14:45:24.000Z</time>
      </trkpt>
      <trkpt lat="41.80271373130381107330322265625" lon="-8.59321908093988895416259765625">
        <ele>36.200000762939453125</ele>
        <time>2019-05-02T14:45:34.000Z</time>
      </trkpt>
      <trkpt lat="41.8027128092944622039794921875" lon="-8.59322058968245983123779296875">
        <ele>36.200000762939453125</ele>
        <time>2019-05-02T14:45:35.000Z</time>
      </trkpt>
      <trkpt lat="41.80281833745539188385009765625" lon="-8.59301741234958171844482421875">
        <ele>38.200000762939453125</ele>
        <time>2019-05-02T14:45:54.000Z</time>
      </trkpt>
      <trkpt lat="41.80315621197223663330078125" lon="-8.5924584232270717620849609375">
        <ele>44.40000152587890625</ele>
        <time>2019-05-02T14:46:37.000Z</time>
      </trkpt>
      <trkpt lat="41.8032038211822509765625" lon="-8.592427410185337066650390625">
        <ele>44.799999237060546875</ele>
        <time>2019-05-02T14:46:41.000Z</time>
      </trkpt>
      <trkpt lat="41.8032485805451869964599609375" lon="-8.59242615289986133575439453125">
        <ele>44.799999237060546875</ele>
        <time>2019-05-02T14:46:45.000Z</time>
      </trkpt>
      <trkpt lat="41.80327615700662136077880859375" lon="-8.59242816455662250518798828125">
        <ele>44.799999237060546875</ele>
        <time>2019-05-02T14:46:49.000Z</time>
      </trkpt>
      <trkpt lat="41.80331421084702014923095703125" lon="-8.59249555505812168121337890625">
        <ele>44.200000762939453125</ele>
        <time>2019-05-02T14:46:56.000Z</time>
      </trkpt>
      <trkpt lat="41.80365887470543384552001953125" lon="-8.59308429993689060211181640625">
        <ele>40.40000152587890625</ele>
        <time>2019-05-02T14:47:20.000Z</time>
      </trkpt>
      <trkpt lat="41.8036757223308086395263671875" lon="-8.5930951125919818878173828125">
        <ele>40.200000762939453125</ele>
        <time>2019-05-02T14:47:21.000Z</time>
      </trkpt>
      <trkpt lat="41.804152987897396087646484375" lon="-8.5934116132557392120361328125">
        <ele>35.59999847412109375</ele>
        <time>2019-05-02T14:47:46.000Z</time>
      </trkpt>
      <trkpt lat="41.80427628569304943084716796875" lon="-8.59409264288842678070068359375">
        <ele>33.799999237060546875</ele>
        <time>2019-05-02T14:48:02.000Z</time>
      </trkpt>
      <trkpt lat="41.80436789989471435546875" lon="-8.59426966868340969085693359375">
        <ele>33.59999847412109375</ele>
        <time>2019-05-02T14:48:06.000Z</time>
      </trkpt>
      <trkpt lat="41.80440134368836879730224609375" lon="-8.5943731851875782012939453125">
        <ele>33.40000152587890625</ele>
        <time>2019-05-02T14:48:08.000Z</time>
      </trkpt>
      <trkpt lat="41.80446236394345760345458984375" lon="-8.59458281658589839935302734375">
        <ele>32.59999847412109375</ele>
        <time>2019-05-02T14:48:12.000Z</time>
      </trkpt>
      <trkpt lat="41.80490098893642425537109375" lon="-8.5949612595140933990478515625">
        <ele>33.40000152587890625</ele>
        <time>2019-05-02T14:48:26.000Z</time>
      </trkpt>
      <trkpt lat="41.8054040707647800445556640625" lon="-8.59519452787935733795166015625">
        <ele>35.40000152587890625</ele>
        <time>2019-05-02T14:48:49.000Z</time>
      </trkpt>
      <trkpt lat="41.80556642822921276092529296875" lon="-8.59539066441357135772705078125">
        <ele>35.40000152587890625</ele>
        <time>2019-05-02T14:48:53.000Z</time>
      </trkpt>
      <trkpt lat="41.805594004690647125244140625" lon="-8.5954566299915313720703125">
        <ele>35.200000762939453125</ele>
        <time>2019-05-02T14:48:54.000Z</time>
      </trkpt>
      <trkpt lat="41.80568553507328033447265625" lon="-8.595736585557460784912109375">
        <ele>34.799999237060546875</ele>
        <time>2019-05-02T14:48:58.000Z</time>
      </trkpt>
      <trkpt lat="41.805771701037883758544921875" lon="-8.5959248431026935577392578125">
        <ele>34.59999847412109375</ele>
        <time>2019-05-02T14:49:01.000Z</time>
      </trkpt>
      <trkpt lat="41.80587789975106716156005859375" lon="-8.59608803875744342803955078125">
        <ele>34.59999847412109375</ele>
        <time>2019-05-02T14:49:04.000Z</time>
      </trkpt>
      <trkpt lat="41.80595350451767444610595703125" lon="-8.59617588110268115997314453125">
        <ele>34.59999847412109375</ele>
        <time>2019-05-02T14:49:06.000Z</time>
      </trkpt>
      <trkpt lat="41.8063086457550525665283203125" lon="-8.596649877727031707763671875">
        <ele>34</ele>
        <time>2019-05-02T14:49:17.000Z</time>
      </trkpt>
      <trkpt lat="41.806477792561054229736328125" lon="-8.5968642868101596832275390625">
        <ele>34</ele>
        <time>2019-05-02T14:49:22.000Z</time>
      </trkpt>
      <trkpt lat="41.80697089992463588714599609375" lon="-8.59726251102983951568603515625">
        <ele>36</ele>
        <time>2019-05-02T14:49:34.000Z</time>
      </trkpt>
      <trkpt lat="41.80701213888823986053466796875" lon="-8.59728991985321044921875">
        <ele>35.799999237060546875</ele>
        <time>2019-05-02T14:49:35.000Z</time>
      </trkpt>
      <trkpt lat="41.807387061417102813720703125" lon="-8.5976220108568668365478515625">
        <ele>33.40000152587890625</ele>
        <time>2019-05-02T14:49:48.000Z</time>
      </trkpt>
      <trkpt lat="41.8074412085115909576416015625" lon="-8.5976411215960979461669921875">
        <ele>33.59999847412109375</ele>
        <time>2019-05-02T14:49:53.000Z</time>
      </trkpt>
      <trkpt lat="41.8074348382651805877685546875" lon="-8.59768479131162166595458984375">
        <ele>33.40000152587890625</ele>
        <time>2019-05-02T15:02:02.000Z</time>
      </trkpt>
      <trkpt lat="41.80745218880474567413330078125" lon="-8.59760306775569915771484375">
        <ele>34</ele>
        <time>2019-05-02T15:02:10.000Z</time>
      </trkpt>
      <trkpt lat="41.80747766979038715362548828125" lon="-8.59751732088625431060791015625">
        <ele>34.799999237060546875</ele>
        <time>2019-05-02T15:02:24.000Z</time>
      </trkpt>
      <trkpt lat="41.807591915130615234375" lon="-8.5975093580782413482666015625">
        <ele>35.59999847412109375</ele>
        <time>2019-05-02T15:02:30.000Z</time>
      </trkpt>
      <trkpt lat="41.80805283598601818084716796875" lon="-8.59793859533965587615966796875">
        <ele>39</ele>
        <time>2019-05-02T15:02:47.000Z</time>
      </trkpt>
      <trkpt lat="41.80825643241405487060546875" lon="-8.59811662696301937103271484375">
        <ele>37</ele>
        <time>2019-05-02T15:02:53.000Z</time>
      </trkpt>
      <trkpt lat="41.80842633359134197235107421875" lon="-8.598214946687221527099609375">
        <ele>36.799999237060546875</ele>
        <time>2019-05-02T15:02:57.000Z</time>
      </trkpt>
      <trkpt lat="41.80860352702438831329345703125" lon="-8.59829180873930454254150390625">
        <ele>37.59999847412109375</ele>
        <time>2019-05-02T15:03:01.000Z</time>
      </trkpt>
      <trkpt lat="41.8088419921696186065673828125" lon="-8.59842826612293720245361328125">
        <ele>38.799999237060546875</ele>
        <time>2019-05-02T15:03:10.000Z</time>
      </trkpt>
      <trkpt lat="41.808925978839397430419921875" lon="-8.59845274128019809722900390625">
        <ele>39.40000152587890625</ele>
        <time>2019-05-02T15:03:15.000Z</time>
      </trkpt>
      <trkpt lat="41.8092382885515689849853515625" lon="-8.5986083932220935821533203125">
        <ele>40.799999237060546875</ele>
        <time>2019-05-02T15:03:31.000Z</time>
      </trkpt>
      <trkpt lat="41.80927969515323638916015625" lon="-8.598629347980022430419921875">
        <ele>41</ele>
        <time>2019-05-02T15:03:34.000Z</time>
      </trkpt>
      <trkpt lat="41.8095125444233417510986328125" lon="-8.59857997857034206390380859375">
        <ele>43.40000152587890625</ele>
        <time>2019-05-02T15:03:51.000Z</time>
      </trkpt>
      <trkpt lat="41.8095641769468784332275390625" lon="-8.59855969436466693878173828125">
        <ele>44</ele>
        <time>2019-05-02T15:03:56.000Z</time>
      </trkpt>
      <trkpt lat="41.8096084333956241607666015625" lon="-8.59853387810289859771728515625">
        <ele>44.59999847412109375</ele>
        <time>2019-05-02T15:04:00.000Z</time>
      </trkpt>
      <trkpt lat="41.8096298910677433013916015625" lon="-8.59851426444947719573974609375">
        <ele>44.799999237060546875</ele>
        <time>2019-05-02T15:04:02.000Z</time>
      </trkpt>
      <trkpt lat="41.809713207185268402099609375" lon="-8.598423488438129425048828125">
        <ele>46</ele>
        <time>2019-05-02T15:04:09.000Z</time>
      </trkpt>
      <trkpt lat="41.80972301401197910308837890625" lon="-8.598407395184040069580078125">
        <ele>46.200000762939453125</ele>
        <time>2019-05-02T15:04:10.000Z</time>
      </trkpt>
      <trkpt lat="41.80984706617891788482666015625" lon="-8.5982949100434780120849609375">
        <ele>47.799999237060546875</ele>
        <time>2019-05-02T15:04:19.000Z</time>
      </trkpt>
      <trkpt lat="41.80990506894886493682861328125" lon="-8.59830270521342754364013671875">
        <ele>48</ele>
        <time>2019-05-02T15:04:23.000Z</time>
      </trkpt>
      <trkpt lat="41.810160465538501739501953125" lon="-8.59847352840006351470947265625">
        <ele>46.40000152587890625</ele>
        <time>2019-05-02T15:04:35.000Z</time>
      </trkpt>
      <trkpt lat="41.81025677360594272613525390625" lon="-8.5986127518117427825927734375">
        <ele>45.200000762939453125</ele>
        <time>2019-05-02T15:04:38.000Z</time>
      </trkpt>
      <trkpt lat="41.81045458652079105377197265625" lon="-8.59872465021908283233642578125">
        <ele>43.59999847412109375</ele>
        <time>2019-05-02T15:04:42.000Z</time>
      </trkpt>
      <trkpt lat="41.81050680577754974365234375" lon="-8.5987294279038906097412109375">
        <ele>43.40000152587890625</ele>
        <time>2019-05-02T15:04:43.000Z</time>
      </trkpt>
      <trkpt lat="41.81104433722794055938720703125" lon="-8.59881014563143253326416015625">
        <ele>41.799999237060546875</ele>
        <time>2019-05-02T15:04:59.000Z</time>
      </trkpt>
      <trkpt lat="41.81120820343494415283203125" lon="-8.59883579425513744354248046875">
        <ele>41.200000762939453125</ele>
        <time>2019-05-02T15:05:01.000Z</time>
      </trkpt>
      <trkpt lat="41.8112657032907009124755859375" lon="-8.59882439486682415008544921875">
        <ele>41.200000762939453125</ele>
        <time>2019-05-02T15:05:02.000Z</time>
      </trkpt>
      <trkpt lat="41.811528392136096954345703125" lon="-8.5989071242511272430419921875">
        <ele>40.200000762939453125</ele>
        <time>2019-05-02T15:05:11.000Z</time>
      </trkpt>
      <trkpt lat="41.811510957777500152587890625" lon="-8.5988844931125640869140625">
        <ele>40.40000152587890625</ele>
        <time>2019-05-02T15:05:21.000Z</time>
      </trkpt>
      <trkpt lat="41.81175461970269680023193359375" lon="-8.59876337461173534393310546875">
        <ele>41</ele>
        <time>2019-05-02T15:05:36.000Z</time>
      </trkpt>
      <trkpt lat="41.81197020225226879119873046875" lon="-8.5987981595098972320556640625">
        <ele>40.40000152587890625</ele>
        <time>2019-05-02T15:05:43.000Z</time>
      </trkpt>
      <trkpt lat="41.812001802027225494384765625" lon="-8.59882037155330181121826171875">
        <ele>40.200000762939453125</ele>
        <time>2019-05-02T15:05:46.000Z</time>
      </trkpt>
      <trkpt lat="41.8120606429874897003173828125" lon="-8.5988548211753368377685546875">
        <ele>40</ele>
        <time>2019-05-02T15:05:52.000Z</time>
      </trkpt>
      <trkpt lat="41.81208972819149494171142578125" lon="-8.5988725908100605010986328125">
        <ele>40.40000152587890625</ele>
        <time>2019-05-02T15:06:13.000Z</time>
      </trkpt>
      <trkpt lat="41.81210263632237911224365234375" lon="-8.5988917015492916107177734375">
        <ele>40.59999847412109375</ele>
        <time>2019-05-02T15:06:14.000Z</time>
      </trkpt>
      <trkpt lat="41.81211747229099273681640625" lon="-8.59897610731422901153564453125">
        <ele>40.799999237060546875</ele>
        <time>2019-05-02T15:06:18.000Z</time>
      </trkpt>
      <trkpt lat="41.8122205697000026702880859375" lon="-8.59939101152122020721435546875">
        <ele>42.59999847412109375</ele>
        <time>2019-05-02T15:06:33.000Z</time>
      </trkpt>
      <trkpt lat="41.81245249696075916290283203125" lon="-8.59950006008148193359375">
        <ele>45.40000152587890625</ele>
        <time>2019-05-02T15:06:48.000Z</time>
      </trkpt>
      <trkpt lat="41.8124669976532459259033203125" lon="-8.59950768761336803436279296875">
        <ele>45.59999847412109375</ele>
        <time>2019-05-02T15:06:49.000Z</time>
      </trkpt>
      <trkpt lat="41.81254385970532894134521484375" lon="-8.59959058463573455810546875">
        <ele>46.799999237060546875</ele>
        <time>2019-05-02T15:06:57.000Z</time>
      </trkpt>
      <trkpt lat="41.81255794130265712738037109375" lon="-8.5996018163859844207763671875">
        <ele>47</ele>
        <time>2019-05-02T15:06:58.000Z</time>
      </trkpt>
      <trkpt lat="41.81277184747159481048583984375" lon="-8.59970751218497753143310546875">
        <ele>49.799999237060546875</ele>
        <time>2019-05-02T15:07:17.000Z</time>
      </trkpt>
      <trkpt lat="41.813112236559391021728515625" lon="-8.59956904314458370208740234375">
        <ele>52.200000762939453125</ele>
        <time>2019-05-02T15:08:25.000Z</time>
      </trkpt>
      <trkpt lat="41.81324609555304050445556640625" lon="-8.59900586307048797607421875">
        <ele>50.200000762939453125</ele>
        <time>2019-05-02T15:08:45.000Z</time>
      </trkpt>
      <trkpt lat="41.81354465894401073455810546875" lon="-8.59895179979503154754638671875">
        <ele>50.799999237060546875</ele>
        <time>2019-05-02T15:09:03.000Z</time>
      </trkpt>
      <trkpt lat="41.81384774856269359588623046875" lon="-8.5990885086357593536376953125">
        <ele>54.40000152587890625</ele>
        <time>2019-05-02T15:09:43.000Z</time>
      </trkpt>
      <trkpt lat="41.81388043798506259918212890625" lon="-8.59908632934093475341796875">
        <ele>54.59999847412109375</ele>
        <time>2019-05-02T15:09:48.000Z</time>
      </trkpt>
      <trkpt lat="41.81399174965918064117431640625" lon="-8.5990534722805023193359375">
        <ele>55</ele>
        <time>2019-05-02T15:10:11.000Z</time>
      </trkpt>
      <trkpt lat="41.81400566361844539642333984375" lon="-8.59904651530086994171142578125">
        <ele>55</ele>
        <time>2019-05-02T15:10:12.000Z</time>
      </trkpt>
      <trkpt lat="41.81402795948088169097900390625" lon="-8.599019944667816162109375">
        <ele>54.799999237060546875</ele>
        <time>2019-05-02T15:10:16.000Z</time>
      </trkpt>
      <trkpt lat="41.8140964396297931671142578125" lon="-8.59901919029653072357177734375">
        <ele>55.200000762939453125</ele>
        <time>2019-05-02T15:10:31.000Z</time>
      </trkpt>
      <trkpt lat="41.81413558311760425567626953125" lon="-8.59901114366948604583740234375">
        <ele>55.40000152587890625</ele>
        <time>2019-05-02T15:10:34.000Z</time>
      </trkpt>
      <trkpt lat="41.8141980282962322235107421875" lon="-8.59898574650287628173828125">
        <ele>55.40000152587890625</ele>
        <time>2019-05-02T15:10:38.000Z</time>
      </trkpt>
      <trkpt lat="41.81474192999303340911865234375" lon="-8.5989540629088878631591796875">
        <ele>56.59999847412109375</ele>
        <time>2019-05-02T15:10:56.000Z</time>
      </trkpt>
      <trkpt lat="41.81526009924709796905517578125" lon="-8.59883093275129795074462890625">
        <ele>59.59999847412109375</ele>
        <time>2019-05-02T15:11:21.000Z</time>
      </trkpt>
      <trkpt lat="41.81550376117229461669921875" lon="-8.59895196743309497833251953125">
        <ele>62</ele>
        <time>2019-05-02T15:11:40.000Z</time>
      </trkpt>
      <trkpt lat="41.8156440742313861846923828125" lon="-8.59900527633726596832275390625">
        <ele>62.799999237060546875</ele>
        <time>2019-05-02T15:11:52.000Z</time>
      </trkpt>
      <trkpt lat="41.81567684747278690338134765625" lon="-8.59901080839335918426513671875">
        <ele>63</ele>
        <time>2019-05-02T15:11:56.000Z</time>
      </trkpt>
      <trkpt lat="41.8160397000610828399658203125" lon="-8.598965965211391448974609375">
        <ele>66.59999847412109375</ele>
        <time>2019-05-02T15:12:44.000Z</time>
      </trkpt>
      <trkpt lat="41.81604900397360324859619140625" lon="-8.59826263971626758575439453125">
        <ele>61.59999847412109375</ele>
        <time>2019-05-02T15:13:09.000Z</time>
      </trkpt>
      <trkpt lat="41.81622971780598163604736328125" lon="-8.59810254536569118499755859375">
        <ele>61</ele>
        <time>2019-05-02T15:13:17.000Z</time>
      </trkpt>
      <trkpt lat="41.81627296842634677886962890625" lon="-8.59809131361544132232666015625">
        <ele>61.40000152587890625</ele>
        <time>2019-05-02T15:13:18.000Z</time>
      </trkpt>
      <trkpt lat="41.816582344472408294677734375" lon="-8.59812467359006404876708984375">
        <ele>65.1999969482421875</ele>
        <time>2019-05-02T15:13:26.000Z</time>
      </trkpt>
      <trkpt lat="41.81664160452783107757568359375" lon="-8.59788076020777225494384765625">
        <ele>61.799999237060546875</ele>
        <time>2019-05-02T15:13:31.000Z</time>
      </trkpt>
      <trkpt lat="41.8167360685765743255615234375" lon="-8.59733660705387592315673828125">
        <ele>53.799999237060546875</ele>
        <time>2019-05-02T15:13:41.000Z</time>
      </trkpt>
      <trkpt lat="41.81716145016252994537353515625" lon="-8.59702882356941699981689453125">
        <ele>50.799999237060546875</ele>
        <time>2019-05-02T15:13:50.000Z</time>
      </trkpt>
      <trkpt lat="41.81730494834482669830322265625" lon="-8.59696160070598125457763671875">
        <ele>50.40000152587890625</ele>
        <time>2019-05-02T15:13:53.000Z</time>
      </trkpt>
      <trkpt lat="41.81768850423395633697509765625" lon="-8.5969102196395397186279296875">
        <ele>50.40000152587890625</ele>
        <time>2019-05-02T15:14:01.000Z</time>
      </trkpt>
      <trkpt lat="41.8179591558873653411865234375" lon="-8.59699060209095478057861328125">
        <ele>52.200000762939453125</ele>
        <time>2019-05-02T15:14:07.000Z</time>
      </trkpt>
      <trkpt lat="41.81818303652107715606689453125" lon="-8.59713141806423664093017578125">
        <ele>53.200000762939453125</ele>
        <time>2019-05-02T15:14:12.000Z</time>
      </trkpt>
      <trkpt lat="41.81832904927432537078857421875" lon="-8.5972163267433643341064453125">
        <ele>54.59999847412109375</ele>
        <time>2019-05-02T15:14:17.000Z</time>
      </trkpt>
      <trkpt lat="41.81873456574976444244384765625" lon="-8.597703985869884490966796875">
        <ele>55.59999847412109375</ele>
        <time>2019-05-02T15:14:40.000Z</time>
      </trkpt>
      <trkpt lat="41.81912298314273357391357421875" lon="-8.5982587002217769622802734375">
        <ele>56.799999237060546875</ele>
        <time>2019-05-02T15:14:59.000Z</time>
      </trkpt>
      <trkpt lat="41.81937142275273799896240234375" lon="-8.5985894501209259033203125">
        <ele>57.59999847412109375</ele>
        <time>2019-05-02T15:15:09.000Z</time>
      </trkpt>
      <trkpt lat="41.8194380588829517364501953125" lon="-8.5986928828060626983642578125">
        <ele>59.59999847412109375</ele>
        <time>2019-05-02T15:15:11.000Z</time>
      </trkpt>
      <trkpt lat="41.819506622850894927978515625" lon="-8.59877527691423892974853515625">
        <ele>61.200000762939453125</ele>
        <time>2019-05-02T15:15:13.000Z</time>
      </trkpt>
      <trkpt lat="41.82001431472599506378173828125" lon="-8.5990626923739910125732421875">
        <ele>59.40000152587890625</ele>
        <time>2019-05-02T15:15:29.000Z</time>
      </trkpt>
      <trkpt lat="41.82018614374101161956787109375" lon="-8.59912564046680927276611328125">
        <ele>61.200000762939453125</ele>
        <time>2019-05-02T15:15:33.000Z</time>
      </trkpt>
      <trkpt lat="41.820271722972393035888671875" lon="-8.59913326799869537353515625">
        <ele>61.59999847412109375</ele>
        <time>2019-05-02T15:15:35.000Z</time>
      </trkpt>
      <trkpt lat="41.82040524668991565704345703125" lon="-8.5991052724421024322509765625">
        <ele>61.799999237060546875</ele>
        <time>2019-05-02T15:15:38.000Z</time>
      </trkpt>
      <trkpt lat="41.8205843679606914520263671875" lon="-8.59906629659235477447509765625">
        <ele>62.200000762939453125</ele>
        <time>2019-05-02T15:15:42.000Z</time>
      </trkpt>
      <trkpt lat="41.8206685222685337066650390625" lon="-8.59902438707649707794189453125">
        <ele>62</ele>
        <time>2019-05-02T15:15:44.000Z</time>
      </trkpt>
      <trkpt lat="41.82074873708188533782958984375" lon="-8.5989698208868503570556640625">
        <ele>62</ele>
        <time>2019-05-02T15:15:46.000Z</time>
      </trkpt>
      <trkpt lat="41.82100287638604640960693359375" lon="-8.59878323972225189208984375">
        <ele>63</ele>
        <time>2019-05-02T15:15:57.000Z</time>
      </trkpt>
      <trkpt lat="41.821244694292545318603515625" lon="-8.59874275512993335723876953125">
        <ele>65</ele>
        <time>2019-05-02T15:19:03.000Z</time>
      </trkpt>
      <trkpt lat="41.8217404000461101531982421875" lon="-8.5984085686504840850830078125">
        <ele>68</ele>
        <time>2019-05-02T15:19:22.000Z</time>
      </trkpt>
      <trkpt lat="41.82178457267582416534423828125" lon="-8.5983928106725215911865234375">
        <ele>68.8000030517578125</ele>
        <time>2019-05-02T15:21:00.000Z</time>
      </trkpt>
      <trkpt lat="41.8218865804374217987060546875" lon="-8.598334304988384246826171875">
        <ele>69.8000030517578125</ele>
        <time>2019-05-02T15:21:05.000Z</time>
      </trkpt>
      <trkpt lat="41.82223384268581867218017578125" lon="-8.597809262573719024658203125">
        <ele>67.8000030517578125</ele>
        <time>2019-05-02T15:21:24.000Z</time>
      </trkpt>
      <trkpt lat="41.82258638553321361541748046875" lon="-8.59730291180312633514404296875">
        <ele>67.40000152587890625</ele>
        <time>2019-05-02T15:21:42.000Z</time>
      </trkpt>
      <trkpt lat="41.8227016367018222808837890625" lon="-8.59704575501382350921630859375">
        <ele>66.8000030517578125</ele>
        <time>2019-05-02T15:21:50.000Z</time>
      </trkpt>
      <trkpt lat="41.8227515928447246551513671875" lon="-8.5970054380595684051513671875">
        <ele>66.8000030517578125</ele>
        <time>2019-05-02T15:23:08.000Z</time>
      </trkpt>
      <trkpt lat="41.82282594032585620880126953125" lon="-8.59698624350130558013916015625">
        <ele>66.59999847412109375</ele>
        <time>2019-05-02T15:23:11.000Z</time>
      </trkpt>
      <trkpt lat="41.82314596138894557952880859375" lon="-8.59696428291499614715576171875">
        <ele>66.8000030517578125</ele>
        <time>2019-05-02T15:23:25.000Z</time>
      </trkpt>
      <trkpt lat="41.823167167603969573974609375" lon="-8.59695858322083950042724609375">
        <ele>67</ele>
        <time>2019-05-02T15:23:28.000Z</time>
      </trkpt>
      <trkpt lat="41.82323028333485126495361328125" lon="-8.5969273187220096588134765625">
        <ele>67.40000152587890625</ele>
        <time>2019-05-02T15:23:35.000Z</time>
      </trkpt>
      <trkpt lat="41.82327747344970703125" lon="-8.596887923777103424072265625">
        <ele>67.1999969482421875</ele>
        <time>2019-05-02T15:23:40.000Z</time>
      </trkpt>
      <trkpt lat="41.82330622337758541107177734375" lon="-8.5968455113470554351806640625">
        <ele>66.8000030517578125</ele>
        <time>2019-05-02T15:23:44.000Z</time>
      </trkpt>
      <trkpt lat="41.82338300161063671112060546875" lon="-8.59675926156342029571533203125">
        <ele>66.8000030517578125</ele>
        <time>2019-05-02T15:23:55.000Z</time>
      </trkpt>
      <trkpt lat="41.823387779295444488525390625" lon="-8.59674903564155101776123046875">
        <ele>66.8000030517578125</ele>
        <time>2019-05-02T15:23:59.000Z</time>
      </trkpt>
      <trkpt lat="41.8236189521849155426025390625" lon="-8.5964549146592617034912109375">
        <ele>66</ele>
        <time>2019-05-02T15:24:10.000Z</time>
      </trkpt>
      <trkpt lat="41.82362817227840423583984375" lon="-8.59618376009166240692138671875">
        <ele>65.59999847412109375</ele>
        <time>2019-05-02T15:24:15.000Z</time>
      </trkpt>
      <trkpt lat="41.8236078880727291107177734375" lon="-8.59603841789066791534423828125">
        <ele>65.40000152587890625</ele>
        <time>2019-05-02T15:24:17.000Z</time>
      </trkpt>
      <trkpt lat="41.823590956628322601318359375" lon="-8.5958825983107089996337890625">
        <ele>64.8000030517578125</ele>
        <time>2019-05-02T15:24:19.000Z</time>
      </trkpt>
      <trkpt lat="41.82370620779693126678466796875" lon="-8.59558898024260997772216796875">
        <ele>63.59999847412109375</ele>
        <time>2019-05-02T15:24:24.000Z</time>
      </trkpt>
      <trkpt lat="41.823768317699432373046875" lon="-8.5955094359815120697021484375">
        <ele>63.200000762939453125</ele>
        <time>2019-05-02T15:24:27.000Z</time>
      </trkpt>
      <trkpt lat="41.82390536181628704071044921875" lon="-8.59555427916347980499267578125">
        <ele>63.59999847412109375</ele>
        <time>2019-05-02T15:24:31.000Z</time>
      </trkpt>
      <trkpt lat="41.82431406341493129730224609375" lon="-8.5960321314632892608642578125">
        <ele>65.1999969482421875</ele>
        <time>2019-05-02T15:24:46.000Z</time>
      </trkpt>
      <trkpt lat="41.82474271394312381744384765625" lon="-8.596535883843898773193359375">
        <ele>66.8000030517578125</ele>
        <time>2019-05-02T15:25:03.000Z</time>
      </trkpt>
      <trkpt lat="41.82521427981555461883544921875" lon="-8.59686202369630336761474609375">
        <ele>68.40000152587890625</ele>
        <time>2019-05-02T15:25:23.000Z</time>
      </trkpt>
      <trkpt lat="41.825694143772125244140625" lon="-8.59646069817245006561279296875">
        <ele>69</ele>
        <time>2019-05-02T15:25:38.000Z</time>
      </trkpt>
      <trkpt lat="41.82617048732936382293701171875" lon="-8.59611050225794315338134765625">
        <ele>70.40000152587890625</ele>
        <time>2019-05-02T15:25:54.000Z</time>
      </trkpt>
      <trkpt lat="41.82670659385621547698974609375" lon="-8.59584529884159564971923828125">
        <ele>70.40000152587890625</ele>
        <time>2019-05-02T15:26:11.000Z</time>
      </trkpt>
      <trkpt lat="41.82696391828358173370361328125" lon="-8.595788218080997467041015625">
        <ele>70.40000152587890625</ele>
        <time>2019-05-02T15:26:18.000Z</time>
      </trkpt>
      <trkpt lat="41.82731176726520061492919921875" lon="-8.5958777368068695068359375">
        <ele>73</ele>
        <time>2019-05-02T15:26:27.000Z</time>
      </trkpt>
      <trkpt lat="41.827870421111583709716796875" lon="-8.59585418365895748138427734375">
        <ele>75.8000030517578125</ele>
        <time>2019-05-02T15:26:41.000Z</time>
      </trkpt>
      <trkpt lat="41.82842555455863475799560546875" lon="-8.595796264708042144775390625">
        <ele>77.59999847412109375</ele>
        <time>2019-05-02T15:26:57.000Z</time>
      </trkpt>
      <trkpt lat="41.8289736472070217132568359375" lon="-8.59572392888367176055908203125">
        <ele>78.59999847412109375</ele>
        <time>2019-05-02T15:27:14.000Z</time>
      </trkpt>
      <trkpt lat="41.82952190749347209930419921875" lon="-8.59578411094844341278076171875">
        <ele>80</ele>
        <time>2019-05-02T15:27:36.000Z</time>
      </trkpt>
      <trkpt lat="41.82998274452984333038330078125" lon="-8.59615123830735683441162109375">
        <ele>84.59999847412109375</ele>
        <time>2019-05-02T15:27:56.000Z</time>
      </trkpt>
      <trkpt lat="41.83053351938724517822265625" lon="-8.59615291468799114227294921875">
        <ele>86</ele>
        <time>2019-05-02T15:28:18.000Z</time>
      </trkpt>
      <trkpt lat="41.83108328841626644134521484375" lon="-8.5960626415908336639404296875">
        <ele>85.1999969482421875</ele>
        <time>2019-05-02T15:28:36.000Z</time>
      </trkpt>
      <trkpt lat="41.83162987232208251953125" lon="-8.59617638401687145233154296875">
        <ele>88.59999847412109375</ele>
        <time>2019-05-02T15:28:50.000Z</time>
      </trkpt>
      <trkpt lat="41.83171771466732025146484375" lon="-8.59621443785727024078369140625">
        <ele>90</ele>
        <time>2019-05-02T15:28:52.000Z</time>
      </trkpt>
      <trkpt lat="41.8319182097911834716796875" lon="-8.596423231065273284912109375">
        <ele>96.59999847412109375</ele>
        <time>2019-05-02T15:28:58.000Z</time>
      </trkpt>
      <trkpt lat="41.83223898522555828094482421875" lon="-8.59689437784254550933837890625">
        <ele>105.8000030517578125</ele>
        <time>2019-05-02T15:29:11.000Z</time>
      </trkpt>
      <trkpt lat="41.8323562480509281158447265625" lon="-8.59658508561551570892333984375">
        <ele>99.59999847412109375</ele>
        <time>2019-05-02T15:29:19.000Z</time>
      </trkpt>
      <trkpt lat="41.83262203820049762725830078125" lon="-8.59612693078815937042236328125">
        <ele>92.59999847412109375</ele>
        <time>2019-05-02T15:29:33.000Z</time>
      </trkpt>
      <trkpt lat="41.83272899128496646881103515625" lon="-8.59619784168899059295654296875">
        <ele>95</ele>
        <time>2019-05-02T15:29:38.000Z</time>
      </trkpt>
      <trkpt lat="41.8332507647573947906494140625" lon="-8.59644837677478790283203125">
        <ele>106.40000152587890625</ele>
        <time>2019-05-02T15:30:09.000Z</time>
      </trkpt>
      <trkpt lat="41.83378879912197589874267578125" lon="-8.59656077809631824493408203125">
        <ele>113.1999969482421875</ele>
        <time>2019-05-02T15:30:38.000Z</time>
      </trkpt>
      <trkpt lat="41.83430579490959644317626953125" lon="-8.596781305968761444091796875">
        <ele>116.59999847412109375</ele>
        <time>2019-05-02T15:31:14.000Z</time>
      </trkpt>
      <trkpt lat="41.83456228114664554595947265625" lon="-8.596800081431865692138671875">
        <ele>118.1999969482421875</ele>
        <time>2019-05-02T15:31:30.000Z</time>
      </trkpt>
      <trkpt lat="41.834592036902904510498046875" lon="-8.5967965610325336456298828125">
        <ele>118.40000152587890625</ele>
        <time>2019-05-02T15:31:59.000Z</time>
      </trkpt>
      <trkpt lat="41.83479211293160915374755859375" lon="-8.59673411585390567779541015625">
        <ele>119.59999847412109375</ele>
        <time>2019-05-02T15:32:10.000Z</time>
      </trkpt>
      <trkpt lat="41.83502890169620513916015625" lon="-8.59670042060315608978271484375">
        <ele>119</ele>
        <time>2019-05-02T15:32:24.000Z</time>
      </trkpt>
      <trkpt lat="41.83508011512458324432373046875" lon="-8.59670679084956645965576171875">
        <ele>119</ele>
        <time>2019-05-02T15:32:28.000Z</time>
      </trkpt>
      <trkpt lat="41.835602559149265289306640625" lon="-8.5968428291380405426025390625">
        <ele>120.8000030517578125</ele>
        <time>2019-05-02T15:32:57.000Z</time>
      </trkpt>
      <trkpt lat="41.83563130907714366912841796875" lon="-8.59685783274471759796142578125">
        <ele>121</ele>
        <time>2019-05-02T15:32:59.000Z</time>
      </trkpt>
      <trkpt lat="41.83596725575625896453857421875" lon="-8.5969883389770984649658203125">
        <ele>122</ele>
        <time>2019-05-02T15:33:21.000Z</time>
      </trkpt>
      <trkpt lat="41.83602592907845973968505859375" lon="-8.597014658153057098388671875">
        <ele>122</ele>
        <time>2019-05-02T15:33:25.000Z</time>
      </trkpt>
      <trkpt lat="41.8364821560680866241455078125" lon="-8.59716578386723995208740234375">
        <ele>121.8000030517578125</ele>
        <time>2019-05-02T15:33:55.000Z</time>
      </trkpt>
      <trkpt lat="41.83666714467108249664306640625" lon="-8.597362004220485687255859375">
        <ele>124.8000030517578125</ele>
        <time>2019-05-02T15:34:11.000Z</time>
      </trkpt>
      <trkpt lat="41.83671039529144763946533203125" lon="-8.59743685461580753326416015625">
        <ele>126.1999969482421875</ele>
        <time>2019-05-02T15:34:16.000Z</time>
      </trkpt>
      <trkpt lat="41.83691239915788173675537109375" lon="-8.5979019664227962493896484375">
        <ele>133</ele>
        <time>2019-05-02T15:34:45.000Z</time>
      </trkpt>
      <trkpt lat="41.83695380575954914093017578125" lon="-8.59803297556936740875244140625">
        <ele>135.600006103515625</ele>
        <time>2019-05-02T15:34:53.000Z</time>
      </trkpt>
      <trkpt lat="41.8369699828326702117919921875" lon="-8.59810237772762775421142578125">
        <ele>137.1999969482421875</ele>
        <time>2019-05-02T15:34:58.000Z</time>
      </trkpt>
      <trkpt lat="41.83701507747173309326171875" lon="-8.59818753786385059356689453125">
        <ele>137.8000030517578125</ele>
        <time>2019-05-02T15:35:05.000Z</time>
      </trkpt>
      <trkpt lat="41.8370363675057888031005859375" lon="-8.59826548956334590911865234375">
        <ele>138.8000030517578125</ele>
        <time>2019-05-02T15:35:10.000Z</time>
      </trkpt>
      <trkpt lat="41.8370507843792438507080078125" lon="-8.59829097054898738861083984375">
        <ele>139</ele>
        <time>2019-05-02T15:35:12.000Z</time>
      </trkpt>
      <trkpt lat="41.83709261007606983184814453125" lon="-8.59840177930891513824462890625">
        <ele>140.1999969482421875</ele>
        <time>2019-05-02T15:35:20.000Z</time>
      </trkpt>
      <trkpt lat="41.8372690491378307342529296875" lon="-8.59880763106048107147216796875">
        <ele>143.600006103515625</ele>
        <time>2019-05-02T15:35:44.000Z</time>
      </trkpt>
      <trkpt lat="41.8373783491551876068115234375" lon="-8.59905414283275604248046875">
        <ele>144</ele>
        <time>2019-05-02T15:35:53.000Z</time>
      </trkpt>
      <trkpt lat="41.83782569132745265960693359375" lon="-8.5994070209562778472900390625">
        <ele>144.1999969482421875</ele>
        <time>2019-05-02T15:36:10.000Z</time>
      </trkpt>
      <trkpt lat="41.83823204599320888519287109375" lon="-8.599883280694484710693359375">
        <ele>144.8000030517578125</ele>
        <time>2019-05-02T15:36:37.000Z</time>
      </trkpt>
      <trkpt lat="41.83857939206063747406005859375" lon="-8.6004369892179965972900390625">
        <ele>150</ele>
        <time>2019-05-02T15:37:05.000Z</time>
      </trkpt>
      <trkpt lat="41.83900049887597560882568359375" lon="-8.60085147432982921600341796875">
        <ele>153.1999969482421875</ele>
        <time>2019-05-02T15:37:29.000Z</time>
      </trkpt>
      <trkpt lat="41.8395231105387210845947265625" lon="-8.60103570856153964996337890625">
        <ele>154.399993896484375</ele>
        <time>2019-05-02T15:37:52.000Z</time>
      </trkpt>
      <trkpt lat="41.84004169888794422149658203125" lon="-8.6012483574450016021728515625">
        <ele>160.399993896484375</ele>
        <time>2019-05-02T15:38:14.000Z</time>
      </trkpt>
      <trkpt lat="41.84031796641647815704345703125" lon="-8.60116646625101566314697265625">
        <ele>158.600006103515625</ele>
        <time>2019-05-02T15:38:23.000Z</time>
      </trkpt>
      <trkpt lat="41.8407435156404972076416015625" lon="-8.600865639746189117431640625">
        <ele>153.600006103515625</ele>
        <time>2019-05-02T15:38:31.000Z</time>
      </trkpt>
      <trkpt lat="41.84127149172127246856689453125" lon="-8.60089623369276523590087890625">
        <ele>152.600006103515625</ele>
        <time>2019-05-02T15:38:43.000Z</time>
      </trkpt>
      <trkpt lat="41.84182067401707172393798828125" lon="-8.6008505523204803466796875">
        <ele>152.1999969482421875</ele>
        <time>2019-05-02T15:38:58.000Z</time>
      </trkpt>
      <trkpt lat="41.84232291765511035919189453125" lon="-8.60047227703034877777099609375">
        <ele>149.8000030517578125</ele>
        <time>2019-05-02T15:39:11.000Z</time>
      </trkpt>
      <trkpt lat="41.8424698524177074432373046875" lon="-8.6002847738564014434814453125">
        <ele>147.1999969482421875</ele>
        <time>2019-05-02T15:39:16.000Z</time>
      </trkpt>
      <trkpt lat="41.84253212995827198028564453125" lon="-8.6001992784440517425537109375">
        <ele>145.8000030517578125</ele>
        <time>2019-05-02T15:39:18.000Z</time>
      </trkpt>
      <trkpt lat="41.842701025307178497314453125" lon="-8.60015493817627429962158203125">
        <ele>144.8000030517578125</ele>
        <time>2019-05-02T15:39:22.000Z</time>
      </trkpt>
      <trkpt lat="41.842741258442401885986328125" lon="-8.60016348771750926971435546875">
        <ele>144.8000030517578125</ele>
        <time>2019-05-02T15:39:23.000Z</time>
      </trkpt>
      <trkpt lat="41.84296715073287487030029296875" lon="-8.6004219017922878265380859375">
        <ele>147.399993896484375</ele>
        <time>2019-05-02T15:39:29.000Z</time>
      </trkpt>
      <trkpt lat="41.8430089764297008514404296875" lon="-8.60047034919261932373046875">
        <ele>147.600006103515625</ele>
        <time>2019-05-02T15:39:30.000Z</time>
      </trkpt>
      <trkpt lat="41.84323855675756931304931640625" lon="-8.60052935779094696044921875">
        <ele>146.399993896484375</ele>
        <time>2019-05-02T15:39:34.000Z</time>
      </trkpt>
      <trkpt lat="41.84351063333451747894287109375" lon="-8.60052173025906085968017578125">
        <ele>149.600006103515625</ele>
        <time>2019-05-02T15:39:43.000Z</time>
      </trkpt>
      <trkpt lat="41.84353309683501720428466796875" lon="-8.60043740831315517425537109375">
        <ele>149.1999969482421875</ele>
        <time>2019-05-02T15:40:25.000Z</time>
      </trkpt>
      <trkpt lat="41.8435440771281719207763671875" lon="-8.5999199934303760528564453125">
        <ele>145</ele>
        <time>2019-05-02T15:40:39.000Z</time>
      </trkpt>
      <trkpt lat="41.84364172630012035369873046875" lon="-8.5999059118330478668212890625">
        <ele>146</ele>
        <time>2019-05-02T15:40:48.000Z</time>
      </trkpt>
      <trkpt lat="41.84382193721830844879150390625" lon="-8.600206486880779266357421875">
        <ele>150.399993896484375</ele>
        <time>2019-05-02T15:41:21.000Z</time>
      </trkpt>
      <trkpt lat="41.8443400226533412933349609375" lon="-8.60015393234789371490478515625">
        <ele>155</ele>
        <time>2019-05-02T15:42:07.000Z</time>
      </trkpt>
      <trkpt lat="41.8447208963334560394287109375" lon="-8.6006706766784191131591796875">
        <ele>164.1999969482421875</ele>
        <time>2019-05-02T15:42:54.000Z</time>
      </trkpt>
      <trkpt lat="41.845212914049625396728515625" lon="-8.60093772411346435546875">
        <ele>175.399993896484375</ele>
        <time>2019-05-02T15:43:54.000Z</time>
      </trkpt>
      <trkpt lat="41.84542539529502391815185546875" lon="-8.600986339151859283447265625">
        <ele>177.8000030517578125</ele>
        <time>2019-05-02T15:44:25.000Z</time>
      </trkpt>
      <trkpt lat="41.84551709331572055816650390625" lon="-8.6010052822530269622802734375">
        <ele>179</ele>
        <time>2019-05-02T15:44:39.000Z</time>
      </trkpt>
      <trkpt lat="41.84600257314741611480712890625" lon="-8.60132186673581600189208984375">
        <ele>187</ele>
        <time>2019-05-02T15:45:04.000Z</time>
      </trkpt>
      <trkpt lat="41.846317313611507415771484375" lon="-8.60153627581894397735595703125">
        <ele>190.600006103515625</ele>
        <time>2019-05-02T15:45:20.000Z</time>
      </trkpt>
      <trkpt lat="41.8465699441730976104736328125" lon="-8.6016466654837131500244140625">
        <ele>191.8000030517578125</ele>
        <time>2019-05-02T15:45:48.000Z</time>
      </trkpt>
      <trkpt lat="41.846854425966739654541015625" lon="-8.6017321608960628509521484375">
        <ele>191.1999969482421875</ele>
        <time>2019-05-02T15:46:23.000Z</time>
      </trkpt>
      <trkpt lat="41.846863143146038055419921875" lon="-8.60174817033112049102783203125">
        <ele>191.600006103515625</ele>
        <time>2019-05-02T15:46:37.000Z</time>
      </trkpt>
      <trkpt lat="41.84712775982916355133056640625" lon="-8.60238569788634777069091796875">
        <ele>204</ele>
        <time>2019-05-02T15:47:03.000Z</time>
      </trkpt>
      <trkpt lat="41.8474564142525196075439453125" lon="-8.60296907834708690643310546875">
        <ele>213.399993896484375</ele>
        <time>2019-05-02T15:47:30.000Z</time>
      </trkpt>
      <trkpt lat="41.847610808908939361572265625" lon="-8.60327619127929210662841796875">
        <ele>218</ele>
        <time>2019-05-02T15:47:46.000Z</time>
      </trkpt>
      <trkpt lat="41.84767023660242557525634765625" lon="-8.60331525094807147979736328125">
        <ele>218.600006103515625</ele>
        <time>2019-05-02T15:47:50.000Z</time>
      </trkpt>
      <trkpt lat="41.848010122776031494140625" lon="-8.602816946804523468017578125">
        <ele>210.399993896484375</ele>
        <time>2019-05-02T15:48:12.000Z</time>
      </trkpt>
      <trkpt lat="41.84843801893293857574462890625" lon="-8.6026853509247303009033203125">
        <ele>207.1999969482421875</ele>
        <time>2019-05-02T15:48:35.000Z</time>
      </trkpt>
      <trkpt lat="41.8489574454724788665771484375" lon="-8.6028851754963397979736328125">
        <ele>209.1999969482421875</ele>
        <time>2019-05-02T15:48:57.000Z</time>
      </trkpt>
      <trkpt lat="41.849463880062103271484375" lon="-8.60321483574807643890380859375">
        <ele>215.399993896484375</ele>
        <time>2019-05-02T15:49:16.000Z</time>
      </trkpt>
      <trkpt lat="41.84984098188579082489013671875" lon="-8.6035255528986454010009765625">
        <ele>220.399993896484375</ele>
        <time>2019-05-02T15:49:40.000Z</time>
      </trkpt>
      <trkpt lat="41.85057322494685649871826171875" lon="-8.60373652540147304534912109375">
        <ele>226.8000030517578125</ele>
        <time>2019-05-02T15:51:26.000Z</time>
      </trkpt>
      <trkpt lat="41.8506301380693912506103515625" lon="-8.6037307418882846832275390625">
        <ele>227</ele>
        <time>2019-05-02T15:51:30.000Z</time>
      </trkpt>
      <trkpt lat="41.850711442530155181884765625" lon="-8.6037029139697551727294921875">
        <ele>227</ele>
        <time>2019-05-02T15:51:37.000Z</time>
      </trkpt>
      <trkpt lat="41.85133941471576690673828125" lon="-8.60369143076241016387939453125">
        <ele>227.600006103515625</ele>
        <time>2019-05-02T15:53:21.000Z</time>
      </trkpt>
      <trkpt lat="41.85186554677784442901611328125" lon="-8.60384993255138397216796875">
        <ele>236.399993896484375</ele>
        <time>2019-05-02T15:53:42.000Z</time>
      </trkpt>
      <trkpt lat="41.85214214958250522613525390625" lon="-8.60390148125588893890380859375">
        <ele>239.1999969482421875</ele>
        <time>2019-05-02T15:53:53.000Z</time>
      </trkpt>
      <trkpt lat="41.85218255035579204559326171875" lon="-8.6039342544972896575927734375">
        <ele>239.8000030517578125</ele>
        <time>2019-05-02T15:53:56.000Z</time>
      </trkpt>
      <trkpt lat="41.852248013019561767578125" lon="-8.60396602191030979156494140625">
        <ele>240.399993896484375</ele>
        <time>2019-05-02T15:54:02.000Z</time>
      </trkpt>
      <trkpt lat="41.8524627573788166046142578125" lon="-8.604283444583415985107421875">
        <ele>246.8000030517578125</ele>
        <time>2019-05-02T15:54:33.000Z</time>
      </trkpt>
      <trkpt lat="41.85266911983489990234375" lon="-8.6042971909046173095703125">
        <ele>249.399993896484375</ele>
        <time>2019-05-02T15:55:55.000Z</time>
      </trkpt>
      <trkpt lat="41.8529814295470714569091796875" lon="-8.604229129850864410400390625">
        <ele>252.1999969482421875</ele>
        <time>2019-05-02T15:56:27.000Z</time>
      </trkpt>
      <trkpt lat="41.8530390970408916473388671875" lon="-8.60424027778208255767822265625">
        <ele>253</ele>
        <time>2019-05-02T15:56:36.000Z</time>
      </trkpt>
      <trkpt lat="41.85318804346024990081787109375" lon="-8.604223094880580902099609375">
        <ele>254.600006103515625</ele>
        <time>2019-05-02T15:56:46.000Z</time>
      </trkpt>
      <trkpt lat="41.8537334538996219635009765625" lon="-8.60426056198775768280029296875">
        <ele>256.399993896484375</ele>
        <time>2019-05-02T15:57:19.000Z</time>
      </trkpt>
      <trkpt lat="41.854266040027141571044921875" lon="-8.60426592640578746795654296875">
        <ele>258.20001220703125</ele>
        <time>2019-05-02T15:57:44.000Z</time>
      </trkpt>
      <trkpt lat="41.854703910648822784423828125" lon="-8.60413215123116970062255859375">
        <ele>259.20001220703125</ele>
        <time>2019-05-02T15:58:11.000Z</time>
      </trkpt>
      <trkpt lat="41.85478496365249156951904296875" lon="-8.60416106879711151123046875">
        <ele>260.20001220703125</ele>
        <time>2019-05-02T15:58:16.000Z</time>
      </trkpt>
      <trkpt lat="41.8549243547022342681884765625" lon="-8.60423105768859386444091796875">
        <ele>262.20001220703125</ele>
        <time>2019-05-02T15:58:26.000Z</time>
      </trkpt>
      <trkpt lat="41.85503876768052577972412109375" lon="-8.60426844097673892974853515625">
        <ele>263.600006103515625</ele>
        <time>2019-05-02T15:58:33.000Z</time>
      </trkpt>
      <trkpt lat="41.8551087565720081329345703125" lon="-8.60432258807122707366943359375">
        <ele>265.79998779296875</ele>
        <time>2019-05-02T15:58:37.000Z</time>
      </trkpt>
      <trkpt lat="41.85535375960171222686767578125" lon="-8.60459114424884319305419921875">
        <ele>274.20001220703125</ele>
        <time>2019-05-02T15:58:52.000Z</time>
      </trkpt>
      <trkpt lat="41.85545920394361019134521484375" lon="-8.604524843394756317138671875">
        <ele>274.20001220703125</ele>
        <time>2019-05-02T15:58:57.000Z</time>
      </trkpt>
      <trkpt lat="41.85557437129318714141845703125" lon="-8.6042028106749057769775390625">
        <ele>268.399993896484375</ele>
        <time>2019-05-02T15:59:10.000Z</time>
      </trkpt>
      <trkpt lat="41.85580839402973651885986328125" lon="-8.603864014148712158203125">
        <ele>262.20001220703125</ele>
        <time>2019-05-02T15:59:33.000Z</time>
      </trkpt>
      <trkpt lat="41.85636428184807300567626953125" lon="-8.60385253094136714935302734375">
        <ele>264.600006103515625</ele>
        <time>2019-05-02T15:59:54.000Z</time>
      </trkpt>
      <trkpt lat="41.85648657381534576416015625" lon="-8.6038946919143199920654296875">
        <ele>266.20001220703125</ele>
        <time>2019-05-02T16:00:00.000Z</time>
      </trkpt>
      <trkpt lat="41.85725192539393901824951171875" lon="-8.60420390032231807708740234375">
        <ele>281.600006103515625</ele>
        <time>2019-05-02T16:02:49.000Z</time>
      </trkpt>
      <trkpt lat="41.8573991954326629638671875" lon="-8.60424631275236606597900390625">
        <ele>283.399993896484375</ele>
        <time>2019-05-02T16:03:01.000Z</time>
      </trkpt>
      <trkpt lat="41.8574627302587032318115234375" lon="-8.60431353561580181121826171875">
        <ele>285.399993896484375</ele>
        <time>2019-05-02T16:03:11.000Z</time>
      </trkpt>
      <trkpt lat="41.85772131197154521942138671875" lon="-8.60439567826688289642333984375">
        <ele>288.79998779296875</ele>
        <time>2019-05-02T16:03:44.000Z</time>
      </trkpt>
      <trkpt lat="41.85776154510676860809326171875" lon="-8.60440590418875217437744140625">
        <ele>289.399993896484375</ele>
        <time>2019-05-02T16:03:49.000Z</time>
      </trkpt>
      <trkpt lat="41.85803546570241451263427734375" lon="-8.6044261045753955841064453125">
        <ele>292.20001220703125</ele>
        <time>2019-05-02T16:04:45.000Z</time>
      </trkpt>
      <trkpt lat="41.85825188644230365753173828125" lon="-8.6044130288064479827880859375">
        <ele>294</ele>
        <time>2019-05-02T16:05:01.000Z</time>
      </trkpt>
      <trkpt lat="41.8583166785538196563720703125" lon="-8.604425601661205291748046875">
        <ele>295.20001220703125</ele>
        <time>2019-05-02T16:05:06.000Z</time>
      </trkpt>
      <trkpt lat="41.8584095500409603118896484375" lon="-8.60442769713699817657470703125">
        <ele>296.399993896484375</ele>
        <time>2019-05-02T16:05:12.000Z</time>
      </trkpt>
      <trkpt lat="41.85847165994346141815185546875" lon="-8.60443926416337490081787109375">
        <ele>297.600006103515625</ele>
        <time>2019-05-02T16:05:16.000Z</time>
      </trkpt>
      <trkpt lat="41.858587078750133514404296875" lon="-8.60448963940143585205078125">
        <ele>300.399993896484375</ele>
        <time>2019-05-02T16:05:25.000Z</time>
      </trkpt>
      <trkpt lat="41.85894012451171875" lon="-8.6046366579830646514892578125">
        <ele>308.20001220703125</ele>
        <time>2019-05-02T16:05:54.000Z</time>
      </trkpt>
      <trkpt lat="41.86203732155263423919677734375" lon="-8.607628159224987030029296875">
        <ele>394.600006103515625</ele>
        <time>2019-05-02T16:29:13.000Z</time>
      </trkpt>
      <trkpt lat="41.8620340526103973388671875" lon="-8.60787064768373966217041015625">
        <ele>396.20001220703125</ele>
        <time>2019-05-02T16:29:21.000Z</time>
      </trkpt>
      <trkpt lat="41.86205123551189899444580078125" lon="-8.608154542744159698486328125">
        <ele>398.20001220703125</ele>
        <time>2019-05-02T16:29:33.000Z</time>
      </trkpt>
      <trkpt lat="41.86209381558001041412353515625" lon="-8.6081801913678646087646484375">
        <ele>398.399993896484375</ele>
        <time>2019-05-02T16:29:37.000Z</time>
      </trkpt>
      <trkpt lat="41.8621921353042125701904296875" lon="-8.60816870816051959991455078125">
        <ele>398.399993896484375</ele>
        <time>2019-05-02T16:29:42.000Z</time>
      </trkpt>
      <trkpt lat="41.86264668591320514678955078125" lon="-8.6082700453698635101318359375">
        <ele>401.20001220703125</ele>
        <time>2019-05-02T16:30:01.000Z</time>
      </trkpt>
      <trkpt lat="41.8626482784748077392578125" lon="-8.60828219912946224212646484375">
        <ele>401.20001220703125</ele>
        <time>2019-05-02T16:30:04.000Z</time>
      </trkpt>
      <trkpt lat="41.8626538105309009552001953125" lon="-8.6083159781992435455322265625">
        <ele>401</ele>
        <time>2019-05-02T16:30:49.000Z</time>
      </trkpt>
      <trkpt lat="41.86291054822504520416259765625" lon="-8.6089379154145717620849609375">
        <ele>400.600006103515625</ele>
        <time>2019-05-02T16:31:09.000Z</time>
      </trkpt>
      <trkpt lat="41.8631235323846340179443359375" lon="-8.6095417477190494537353515625">
        <ele>396.600006103515625</ele>
        <time>2019-05-02T16:31:25.000Z</time>
      </trkpt>
      <trkpt lat="41.86317692510783672332763671875" lon="-8.60969874076545238494873046875">
        <ele>394.79998779296875</ele>
        <time>2019-05-02T16:31:28.000Z</time>
      </trkpt>
      <trkpt lat="41.8634873069822788238525390625" lon="-8.6101497709751129150390625">
        <ele>393</ele>
        <time>2019-05-02T16:31:39.000Z</time>
      </trkpt>
      <trkpt lat="41.86373348347842693328857421875" lon="-8.6106833629310131072998046875">
        <ele>389.399993896484375</ele>
        <time>2019-05-02T16:31:53.000Z</time>
      </trkpt>
      <trkpt lat="41.86371353454887866973876953125" lon="-8.61076676286756992340087890625">
        <ele>388.20001220703125</ele>
        <time>2019-05-02T16:31:58.000Z</time>
      </trkpt>
      <trkpt lat="41.86374329030513763427734375" lon="-8.61089634709060192108154296875">
        <ele>386</ele>
        <time>2019-05-02T16:33:19.000Z</time>
      </trkpt>
      <trkpt lat="41.86402517370879650115966796875" lon="-8.61151593737304210662841796875">
        <ele>375</ele>
        <time>2019-05-02T16:33:39.000Z</time>
      </trkpt>
      <trkpt lat="41.864044368267059326171875" lon="-8.61155130900442600250244140625">
        <ele>374.20001220703125</ele>
        <time>2019-05-02T16:33:43.000Z</time>
      </trkpt>
      <trkpt lat="41.86406314373016357421875" lon="-8.61157259903848171234130859375">
        <ele>373.79998779296875</ele>
        <time>2019-05-02T16:33:46.000Z</time>
      </trkpt>
      <trkpt lat="41.86418895609676837921142578125" lon="-8.61176605336368083953857421875">
        <ele>371.79998779296875</ele>
        <time>2019-05-02T16:33:58.000Z</time>
      </trkpt>
      <trkpt lat="41.8642978370189666748046875" lon="-8.61192028038203716278076171875">
        <ele>369</ele>
        <time>2019-05-02T16:34:16.000Z</time>
      </trkpt>
      <trkpt lat="41.86434905044734477996826171875" lon="-8.6119570769369602203369140625">
        <ele>368.600006103515625</ele>
        <time>2019-05-02T16:34:23.000Z</time>
      </trkpt>
      <trkpt lat="41.8643979169428348541259765625" lon="-8.61204047687351703643798828125">
        <ele>367.399993896484375</ele>
        <time>2019-05-02T16:34:32.000Z</time>
      </trkpt>
      <trkpt lat="41.8645249865949153900146484375" lon="-8.61214525066316127777099609375">
        <ele>366.20001220703125</ele>
        <time>2019-05-02T16:34:51.000Z</time>
      </trkpt>
      <trkpt lat="41.86454015783965587615966796875" lon="-8.612203337252140045166015625">
        <ele>365.399993896484375</ele>
        <time>2019-05-02T16:34:55.000Z</time>
      </trkpt>
      <trkpt lat="41.86457737348973751068115234375" lon="-8.612275421619415283203125">
        <ele>363</ele>
        <time>2019-05-02T16:35:01.000Z</time>
      </trkpt>
      <trkpt lat="41.8646265752613544464111328125" lon="-8.6123054288327693939208984375">
        <ele>361.79998779296875</ele>
        <time>2019-05-02T16:35:07.000Z</time>
      </trkpt>
      <trkpt lat="41.86465264298021793365478515625" lon="-8.612322025001049041748046875">
        <ele>361.20001220703125</ele>
        <time>2019-05-02T16:35:15.000Z</time>
      </trkpt>
      <trkpt lat="41.86507559381425380706787109375" lon="-8.61275495029985904693603515625">
        <ele>349.399993896484375</ele>
        <time>2019-05-02T16:35:38.000Z</time>
      </trkpt>
      <trkpt lat="41.86549200676381587982177734375" lon="-8.61323707737028598785400390625">
        <ele>344</ele>
        <time>2019-05-02T16:35:54.000Z</time>
      </trkpt>
      <trkpt lat="41.86584203504025936126708984375" lon="-8.6138007603585720062255859375">
        <ele>337.20001220703125</ele>
        <time>2019-05-02T16:36:14.000Z</time>
      </trkpt>
      <trkpt lat="41.866171360015869140625" lon="-8.6144112981855869293212890625">
        <ele>329.399993896484375</ele>
        <time>2019-05-02T16:36:32.000Z</time>
      </trkpt>
      <trkpt lat="41.86665038578212261199951171875" lon="-8.61473090015351772308349609375">
        <ele>324.399993896484375</ele>
        <time>2019-05-02T16:36:48.000Z</time>
      </trkpt>
      <trkpt lat="41.86721406877040863037109375" lon="-8.61481941305100917816162109375">
        <ele>320</ele>
        <time>2019-05-02T16:37:02.000Z</time>
      </trkpt>
      <trkpt lat="41.867768280208110809326171875" lon="-8.61477817408740520477294921875">
        <ele>317.600006103515625</ele>
        <time>2019-05-02T16:37:23.000Z</time>
      </trkpt>
      <trkpt lat="41.86830664984881877899169921875" lon="-8.61477054655551910400390625">
        <ele>315.600006103515625</ele>
        <time>2019-05-02T16:37:43.000Z</time>
      </trkpt>
      <trkpt lat="41.86850680969655513763427734375" lon="-8.614974059164524078369140625">
        <ele>314.20001220703125</ele>
        <time>2019-05-02T16:38:06.000Z</time>
      </trkpt>
      <trkpt lat="41.868528686463832855224609375" lon="-8.6149936728179454803466796875">
        <ele>313.79998779296875</ele>
        <time>2019-05-02T16:38:11.000Z</time>
      </trkpt>
      <trkpt lat="41.8685784749686717987060546875" lon="-8.61499895341694355010986328125">
        <ele>313.79998779296875</ele>
        <time>2019-05-02T16:38:15.000Z</time>
      </trkpt>
      <trkpt lat="41.8689623661339282989501953125" lon="-8.61495385877788066864013671875">
        <ele>315</ele>
        <time>2019-05-02T16:38:39.000Z</time>
      </trkpt>
      <trkpt lat="41.8690823949873447418212890625" lon="-8.6148746497929096221923828125">
        <ele>316.600006103515625</ele>
        <time>2019-05-02T16:38:47.000Z</time>
      </trkpt>
      <trkpt lat="41.8691990710794925689697265625" lon="-8.61481346189975738525390625">
        <ele>318</ele>
        <time>2019-05-02T16:38:53.000Z</time>
      </trkpt>
      <trkpt lat="41.86955002136528491973876953125" lon="-8.61476208083331584930419921875">
        <ele>319.600006103515625</ele>
        <time>2019-05-02T16:39:10.000Z</time>
      </trkpt>
      <trkpt lat="41.86971078626811504364013671875" lon="-8.614713214337825775146484375">
        <ele>320.600006103515625</ele>
        <time>2019-05-02T16:39:16.000Z</time>
      </trkpt>
      <trkpt lat="41.87026080675423145294189453125" lon="-8.6146530322730541229248046875">
        <ele>319.20001220703125</ele>
        <time>2019-05-02T16:39:35.000Z</time>
      </trkpt>
      <trkpt lat="41.87080328352749347686767578125" lon="-8.614657558500766754150390625">
        <ele>318.20001220703125</ele>
        <time>2019-05-02T16:39:47.000Z</time>
      </trkpt>
      <trkpt lat="41.870948038995265960693359375" lon="-8.614718914031982421875">
        <ele>317.600006103515625</ele>
        <time>2019-05-02T16:39:50.000Z</time>
      </trkpt>
      <trkpt lat="41.8711373023688793182373046875" lon="-8.61478202976286411285400390625">
        <ele>317.399993896484375</ele>
        <time>2019-05-02T16:39:54.000Z</time>
      </trkpt>
      <trkpt lat="41.8715446628630161285400390625" lon="-8.61501865088939666748046875">
        <ele>316</ele>
        <time>2019-05-02T16:40:02.000Z</time>
      </trkpt>
      <trkpt lat="41.871695704758167266845703125" lon="-8.615162484347820281982421875">
        <ele>313.79998779296875</ele>
        <time>2019-05-02T16:40:06.000Z</time>
      </trkpt>
      <trkpt lat="41.87222150154411792755126953125" lon="-8.61534227617084980010986328125">
        <ele>309.399993896484375</ele>
        <time>2019-05-02T16:40:15.000Z</time>
      </trkpt>
      <trkpt lat="41.87234723009169101715087890625" lon="-8.61538284458220005035400390625">
        <ele>307.79998779296875</ele>
        <time>2019-05-02T16:40:17.000Z</time>
      </trkpt>
      <trkpt lat="41.87261293642222881317138671875" lon="-8.61549281515181064605712890625">
        <ele>306.20001220703125</ele>
        <time>2019-05-02T16:40:21.000Z</time>
      </trkpt>
      <trkpt lat="41.8729050457477569580078125" lon="-8.61579406075179576873779296875">
        <ele>301.600006103515625</ele>
        <time>2019-05-02T16:40:27.000Z</time>
      </trkpt>
      <trkpt lat="41.8730892799794673919677734375" lon="-8.61594024114310741424560546875">
        <ele>298.600006103515625</ele>
        <time>2019-05-02T16:40:31.000Z</time>
      </trkpt>
      <trkpt lat="41.8734808824956417083740234375" lon="-8.6164765991270542144775390625">
        <ele>293.79998779296875</ele>
        <time>2019-05-02T16:40:41.000Z</time>
      </trkpt>
      <trkpt lat="41.8738084472715854644775390625" lon="-8.61703793518245220184326171875">
        <ele>287.399993896484375</ele>
        <time>2019-05-02T16:40:54.000Z</time>
      </trkpt>
      <trkpt lat="41.87421253882348537445068359375" lon="-8.61750966869294643402099609375">
        <ele>281.600006103515625</ele>
        <time>2019-05-02T16:41:06.000Z</time>
      </trkpt>
      <trkpt lat="41.87428864650428295135498046875" lon="-8.61762399785220623016357421875">
        <ele>280</ele>
        <time>2019-05-02T16:41:08.000Z</time>
      </trkpt>
      <trkpt lat="41.87476046383380889892578125" lon="-8.618080057203769683837890625">
        <ele>275.600006103515625</ele>
        <time>2019-05-02T16:41:18.000Z</time>
      </trkpt>
      <trkpt lat="41.87499783933162689208984375" lon="-8.61834048293530941009521484375">
        <ele>274.79998779296875</ele>
        <time>2019-05-02T16:41:24.000Z</time>
      </trkpt>
      <trkpt lat="41.87532263807952404022216796875" lon="-8.61852237023413181304931640625">
        <ele>273.399993896484375</ele>
        <time>2019-05-02T16:41:32.000Z</time>
      </trkpt>
      <trkpt lat="41.87574273906648159027099609375" lon="-8.618658073246479034423828125">
        <ele>272.399993896484375</ele>
        <time>2019-05-02T16:41:43.000Z</time>
      </trkpt>
      <trkpt lat="41.87610366381704807281494140625" lon="-8.6187819577753543853759765625">
        <ele>271.20001220703125</ele>
        <time>2019-05-02T16:41:57.000Z</time>
      </trkpt>
      <trkpt lat="41.8761335872113704681396484375" lon="-8.61878690309822559356689453125">
        <ele>271</ele>
        <time>2019-05-02T16:43:04.000Z</time>
      </trkpt>
      <trkpt lat="41.87624682672321796417236328125" lon="-8.618814647197723388671875">
        <ele>270.600006103515625</ele>
        <time>2019-05-02T16:43:08.000Z</time>
      </trkpt>
      <trkpt lat="41.87678528018295764923095703125" lon="-8.6188151501119136810302734375">
        <ele>267.399993896484375</ele>
        <time>2019-05-02T16:43:23.000Z</time>
      </trkpt>
      <trkpt lat="41.8773467838764190673828125" lon="-8.6187809519469738006591796875">
        <ele>263.600006103515625</ele>
        <time>2019-05-02T16:43:39.000Z</time>
      </trkpt>
      <trkpt lat="41.8779018335044384002685546875" lon="-8.618744909763336181640625">
        <ele>262.399993896484375</ele>
        <time>2019-05-02T16:43:50.000Z</time>
      </trkpt>
      <trkpt lat="41.87819897197186946868896484375" lon="-8.618756644427776336669921875">
        <ele>262.600006103515625</ele>
        <time>2019-05-02T16:43:56.000Z</time>
      </trkpt>
      <trkpt lat="41.87833962030708789825439453125" lon="-8.61883032135665416717529296875">
        <ele>262.600006103515625</ele>
        <time>2019-05-02T16:43:59.000Z</time>
      </trkpt>
      <trkpt lat="41.87847456894814968109130859375" lon="-8.6189844645559787750244140625">
        <ele>262.79998779296875</ele>
        <time>2019-05-02T16:44:03.000Z</time>
      </trkpt>
      <trkpt lat="41.8789770640432834625244140625" lon="-8.61924388445913791656494140625">
        <ele>264</ele>
        <time>2019-05-02T16:44:23.000Z</time>
      </trkpt>
      <trkpt lat="41.87937847338616847991943359375" lon="-8.6193039827048778533935546875">
        <ele>263</ele>
        <time>2019-05-02T16:44:32.000Z</time>
      </trkpt>
      <trkpt lat="41.8799208663403987884521484375" lon="-8.619196526706218719482421875">
        <ele>259.20001220703125</ele>
        <time>2019-05-02T16:44:46.000Z</time>
      </trkpt>
      <trkpt lat="41.880470216274261474609375" lon="-8.6192842014133930206298828125">
        <ele>256</ele>
        <time>2019-05-02T16:45:07.000Z</time>
      </trkpt>
      <trkpt lat="41.8809800036251544952392578125" lon="-8.61958670429885387420654296875">
        <ele>257.399993896484375</ele>
        <time>2019-05-02T16:45:20.000Z</time>
      </trkpt>
      <trkpt lat="41.881275884807109832763671875" lon="-8.61979507841169834136962890625">
        <ele>257.600006103515625</ele>
        <time>2019-05-02T16:45:27.000Z</time>
      </trkpt>
      <trkpt lat="41.8813944049179553985595703125" lon="-8.619984425604343414306640625">
        <ele>258.20001220703125</ele>
        <time>2019-05-02T16:45:31.000Z</time>
      </trkpt>
      <trkpt lat="41.88155039213597774505615234375" lon="-8.6201954819262027740478515625">
        <ele>258.399993896484375</ele>
        <time>2019-05-02T16:45:36.000Z</time>
      </trkpt>
      <trkpt lat="41.88205800019204616546630859375" lon="-8.62057828344404697418212890625">
        <ele>257</ele>
        <time>2019-05-02T16:45:47.000Z</time>
      </trkpt>
      <trkpt lat="41.88223318196833133697509765625" lon="-8.62072748132050037384033203125">
        <ele>258.20001220703125</ele>
        <time>2019-05-02T16:45:51.000Z</time>
      </trkpt>
      <trkpt lat="41.8824220262467861175537109375" lon="-8.620764277875423431396484375">
        <ele>257.600006103515625</ele>
        <time>2019-05-02T16:45:55.000Z</time>
      </trkpt>
      <trkpt lat="41.88247374258935451507568359375" lon="-8.62075497396290302276611328125">
        <ele>257.399993896484375</ele>
        <time>2019-05-02T16:45:56.000Z</time>
      </trkpt>
      <trkpt lat="41.88261170871555805206298828125" lon="-8.620723374187946319580078125">
        <ele>256.600006103515625</ele>
        <time>2019-05-02T16:45:59.000Z</time>
      </trkpt>
      <trkpt lat="41.88277917914092540740966796875" lon="-8.620706610381603240966796875">
        <ele>255.399993896484375</ele>
        <time>2019-05-02T16:46:03.000Z</time>
      </trkpt>
      <trkpt lat="41.882966347038745880126953125" lon="-8.62061147578060626983642578125">
        <ele>252.600006103515625</ele>
        <time>2019-05-02T16:46:08.000Z</time>
      </trkpt>
      <trkpt lat="41.883478648960590362548828125" lon="-8.62025222741067409515380859375">
        <ele>244.1999969482421875</ele>
        <time>2019-05-02T16:46:24.000Z</time>
      </trkpt>
      <trkpt lat="41.8835653178393840789794921875" lon="-8.620223812758922576904296875">
        <ele>243.1999969482421875</ele>
        <time>2019-05-02T16:46:26.000Z</time>
      </trkpt>
      <trkpt lat="41.8837037868797779083251953125" lon="-8.62018684856593608856201171875">
        <ele>241.399993896484375</ele>
        <time>2019-05-02T16:46:30.000Z</time>
      </trkpt>
      <trkpt lat="41.88419505022466182708740234375" lon="-8.61989063210785388946533203125">
        <ele>238.1999969482421875</ele>
        <time>2019-05-02T16:46:46.000Z</time>
      </trkpt>
      <trkpt lat="41.88427685759961605072021484375" lon="-8.61956524662673473358154296875">
        <ele>238</ele>
        <time>2019-05-02T16:46:53.000Z</time>
      </trkpt>
      <trkpt lat="41.884659826755523681640625" lon="-8.61951596103608608245849609375">
        <ele>239.399993896484375</ele>
        <time>2019-05-02T16:47:05.000Z</time>
      </trkpt>
      <trkpt lat="41.88486258499324321746826171875" lon="-8.6194394342601299285888671875">
        <ele>240</ele>
        <time>2019-05-02T16:47:17.000Z</time>
      </trkpt>
      <trkpt lat="41.88485671766102313995361328125" lon="-8.61943968571722507476806640625">
        <ele>240</ele>
        <time>2019-05-02T16:47:18.000Z</time>
      </trkpt>
      <trkpt lat="41.8849007226526737213134765625" lon="-8.6194508336484432220458984375">
        <ele>240</ele>
        <time>2019-05-02T16:47:36.000Z</time>
      </trkpt>
      <trkpt lat="41.88494749367237091064453125" lon="-8.61945309676229953765869140625">
        <ele>240.600006103515625</ele>
        <time>2019-05-02T16:47:39.000Z</time>
      </trkpt>
      <trkpt lat="41.8850173987448215484619140625" lon="-8.6195125244557857513427734375">
        <ele>241.399993896484375</ele>
        <time>2019-05-02T16:47:44.000Z</time>
      </trkpt>
      <trkpt lat="41.88537689857184886932373046875" lon="-8.620019294321537017822265625">
        <ele>246.1999969482421875</ele>
        <time>2019-05-02T16:48:15.000Z</time>
      </trkpt>
      <trkpt lat="41.88537823967635631561279296875" lon="-8.62003094516694545745849609375">
        <ele>246.1999969482421875</ele>
        <time>2019-05-02T16:48:17.000Z</time>
      </trkpt>
      <trkpt lat="41.88538058660924434661865234375" lon="-8.6200600303709506988525390625">
        <ele>246.1999969482421875</ele>
        <time>2019-05-02T16:48:43.000Z</time>
      </trkpt>
      <trkpt lat="41.8854760564863681793212890625" lon="-8.62077106721699237823486328125">
        <ele>245.8000030517578125</ele>
        <time>2019-05-02T16:49:03.000Z</time>
      </trkpt>
      <trkpt lat="41.8856497295200824737548828125" lon="-8.62146290950477123260498046875">
        <ele>245.399993896484375</ele>
        <time>2019-05-02T16:49:22.000Z</time>
      </trkpt>
      <trkpt lat="41.8859808146953582763671875" lon="-8.62199549563229084014892578125">
        <ele>249.8000030517578125</ele>
        <time>2019-05-02T16:49:37.000Z</time>
      </trkpt>
      <trkpt lat="41.8864755146205425262451171875" lon="-8.62229489721357822418212890625">
        <ele>255.399993896484375</ele>
        <time>2019-05-02T16:49:55.000Z</time>
      </trkpt>
      <trkpt lat="41.8868600763380527496337890625" lon="-8.62279546447098255157470703125">
        <ele>261.600006103515625</ele>
        <time>2019-05-02T16:50:16.000Z</time>
      </trkpt>
      <trkpt lat="41.88719945959746837615966796875" lon="-8.6233470775187015533447265625">
        <ele>266.399993896484375</ele>
        <time>2019-05-02T16:50:44.000Z</time>
      </trkpt>
      <trkpt lat="41.88759081065654754638671875" lon="-8.623862899839878082275390625">
        <ele>268.79998779296875</ele>
        <time>2019-05-02T16:51:09.000Z</time>
      </trkpt>
      <trkpt lat="41.8879909627139568328857421875" lon="-8.62440076656639575958251953125">
        <ele>266.79998779296875</ele>
        <time>2019-05-02T16:51:34.000Z</time>
      </trkpt>
      <trkpt lat="41.88808945007622241973876953125" lon="-8.62456991337239742279052734375">
        <ele>266.20001220703125</ele>
        <time>2019-05-02T16:51:38.000Z</time>
      </trkpt>
      <trkpt lat="41.88824702985584735870361328125" lon="-8.624807037413120269775390625">
        <ele>262.79998779296875</ele>
        <time>2019-05-02T16:51:43.000Z</time>
      </trkpt>
      <trkpt lat="41.8883426673710346221923828125" lon="-8.6250237934291362762451171875">
        <ele>259.20001220703125</ele>
        <time>2019-05-02T16:51:47.000Z</time>
      </trkpt>
      <trkpt lat="41.888439394533634185791015625" lon="-8.62521045841276645660400390625">
        <ele>256.600006103515625</ele>
        <time>2019-05-02T16:51:50.000Z</time>
      </trkpt>
      <trkpt lat="41.888566799461841583251953125" lon="-8.62538228742778301239013671875">
        <ele>255.1999969482421875</ele>
        <time>2019-05-02T16:51:53.000Z</time>
      </trkpt>
      <trkpt lat="41.88869965262711048126220703125" lon="-8.62581211142241954803466796875">
        <ele>251.399993896484375</ele>
        <time>2019-05-02T16:52:03.000Z</time>
      </trkpt>
      <trkpt lat="41.8886819668114185333251953125" lon="-8.62586089409887790679931640625">
        <ele>251</ele>
        <time>2019-05-02T16:52:04.000Z</time>
      </trkpt>
      <trkpt lat="41.88863695599138736724853515625" lon="-8.6260685138404369354248046875">
        <ele>249.399993896484375</ele>
        <time>2019-05-02T16:52:10.000Z</time>
      </trkpt>
      <trkpt lat="41.88863695599138736724853515625" lon="-8.6260681785643100738525390625">
        <ele>249.399993896484375</ele>
        <time>2019-05-02T16:52:12.000Z</time>
      </trkpt>
      <trkpt lat="41.88867819495499134063720703125" lon="-8.6261124350130558013916015625">
        <ele>249</ele>
        <time>2019-05-02T16:52:24.000Z</time>
      </trkpt>
      <trkpt lat="41.8887329287827014923095703125" lon="-8.62609726376831531524658203125">
        <ele>249</ele>
        <time>2019-05-02T16:52:27.000Z</time>
      </trkpt>
      <trkpt lat="41.888763941824436187744140625" lon="-8.62607739865779876708984375">
        <ele>248.8000030517578125</ele>
        <time>2019-05-02T16:52:31.000Z</time>
      </trkpt>
      <trkpt lat="41.8887771852314472198486328125" lon="-8.62610531039535999298095703125">
        <ele>248.8000030517578125</ele>
        <time>2019-05-02T16:52:34.000Z</time>
      </trkpt>
      <trkpt lat="41.888778693974018096923828125" lon="-8.62611503340303897857666015625">
        <ele>248.600006103515625</ele>
        <time>2019-05-02T16:52:36.000Z</time>
      </trkpt>
      <trkpt lat="41.88883124850690364837646484375" lon="-8.6261476390063762664794921875">
        <ele>248.399993896484375</ele>
        <time>2019-05-02T16:53:35.000Z</time>
      </trkpt>
      <trkpt lat="41.889280267059803009033203125" lon="-8.62620471976697444915771484375">
        <ele>246.8000030517578125</ele>
        <time>2019-05-02T16:53:48.000Z</time>
      </trkpt>
      <trkpt lat="41.889417730271816253662109375" lon="-8.62629792653024196624755859375">
        <ele>246</ele>
        <time>2019-05-02T16:53:54.000Z</time>
      </trkpt>
      <trkpt lat="41.8894081749022006988525390625" lon="-8.62635525874793529510498046875">
        <ele>246</ele>
        <time>2019-05-02T16:53:59.000Z</time>
      </trkpt>
      <trkpt lat="41.889344640076160430908203125" lon="-8.6264208890497684478759765625">
        <ele>246.1999969482421875</ele>
        <time>2019-05-02T16:54:53.000Z</time>
      </trkpt>
      <trkpt lat="41.8893484957516193389892578125" lon="-8.626454584300518035888671875">
        <ele>246.1999969482421875</ele>
        <time>2019-05-02T16:54:57.000Z</time>
      </trkpt>
      <trkpt lat="41.88942686654627323150634765625" lon="-8.6263233236968517303466796875">
        <ele>246</ele>
        <time>2019-05-03T07:41:51.000Z</time>
      </trkpt>
      <trkpt lat="41.88942686654627323150634765625" lon="-8.6263233236968517303466796875">
        <ele>246</ele>
        <time>2019-05-03T07:41:52.000Z</time>
      </trkpt>
      <trkpt lat="41.889424435794353485107421875" lon="-8.626308739185333251953125">
        <ele>246</ele>
        <time>2019-05-03T07:41:58.000Z</time>
      </trkpt>
      <trkpt lat="41.8894225917756557464599609375" lon="-8.62624176777899265289306640625">
        <ele>246</ele>
        <time>2019-05-03T07:42:04.000Z</time>
      </trkpt>
      <trkpt lat="41.889427118003368377685546875" lon="-8.62623556517064571380615234375">
        <ele>246</ele>
        <time>2019-05-03T07:42:07.000Z</time>
      </trkpt>
      <trkpt lat="41.88955594785511493682861328125" lon="-8.62612090073525905609130859375">
        <ele>245.600006103515625</ele>
        <time>2019-05-03T07:42:13.000Z</time>
      </trkpt>
      <trkpt lat="41.88967547379434108734130859375" lon="-8.6260916478931903839111328125">
        <ele>245</ele>
        <time>2019-05-03T07:42:16.000Z</time>
      </trkpt>
      <trkpt lat="41.89024611376225948333740234375" lon="-8.62594622187316417694091796875">
        <ele>241.600006103515625</ele>
        <time>2019-05-03T07:42:27.000Z</time>
      </trkpt>
      <trkpt lat="41.89078708179295063018798828125" lon="-8.625684119760990142822265625">
        <ele>239.8000030517578125</ele>
        <time>2019-05-03T07:42:36.000Z</time>
      </trkpt>
      <trkpt lat="41.891044490039348602294921875" lon="-8.62557859160006046295166015625">
        <ele>239.8000030517578125</ele>
        <time>2019-05-03T07:42:40.000Z</time>
      </trkpt>
      <trkpt lat="41.8916454724967479705810546875" lon="-8.62559887580573558807373046875">
        <ele>236.1999969482421875</ele>
        <time>2019-05-03T07:42:48.000Z</time>
      </trkpt>
      <trkpt lat="41.89220513217151165008544921875" lon="-8.62564531154930591583251953125">
        <ele>233.600006103515625</ele>
        <time>2019-05-03T07:42:55.000Z</time>
      </trkpt>
      <trkpt lat="41.89277895726263523101806640625" lon="-8.62568688578903675079345703125">
        <ele>230.399993896484375</ele>
        <time>2019-05-03T07:43:02.000Z</time>
      </trkpt>
      <trkpt lat="41.8933604098856449127197265625" lon="-8.6256229318678379058837890625">
        <ele>228.600006103515625</ele>
        <time>2019-05-03T07:43:09.000Z</time>
      </trkpt>
      <trkpt lat="41.8939662538468837738037109375" lon="-8.6254703812301158905029296875">
        <ele>226</ele>
        <time>2019-05-03T07:43:16.000Z</time>
      </trkpt>
      <trkpt lat="41.8945201300084590911865234375" lon="-8.62534691579639911651611328125">
        <ele>226</ele>
        <time>2019-05-03T07:43:22.000Z</time>
      </trkpt>
      <trkpt lat="41.89508649520576000213623046875" lon="-8.62521615810692310333251953125">
        <ele>225.399993896484375</ele>
        <time>2019-05-03T07:43:28.000Z</time>
      </trkpt>
      <trkpt lat="41.8954729847609996795654296875" lon="-8.625201992690563201904296875">
        <ele>223.399993896484375</ele>
        <time>2019-05-03T07:43:32.000Z</time>
      </trkpt>
      <trkpt lat="41.8958619050681591033935546875" lon="-8.625357560813426971435546875">
        <ele>218</ele>
        <time>2019-05-03T07:43:36.000Z</time>
      </trkpt>
      <trkpt lat="41.896393485367298126220703125" lon="-8.62565687857568264007568359375">
        <ele>210.399993896484375</ele>
        <time>2019-05-03T07:43:42.000Z</time>
      </trkpt>
      <trkpt lat="41.89665240235626697540283203125" lon="-8.6257731355726718902587890625">
        <ele>207.399993896484375</ele>
        <time>2019-05-03T07:43:45.000Z</time>
      </trkpt>
      <trkpt lat="41.897180043160915374755859375" lon="-8.62561211921274662017822265625">
        <ele>205</ele>
        <time>2019-05-03T07:43:51.000Z</time>
      </trkpt>
      <trkpt lat="41.8972579948604106903076171875" lon="-8.62555109895765781402587890625">
        <ele>205.1999969482421875</ele>
        <time>2019-05-03T07:43:52.000Z</time>
      </trkpt>
      <trkpt lat="41.897770464420318603515625" lon="-8.6251139827072620391845703125">
        <ele>206.600006103515625</ele>
        <time>2019-05-03T07:43:59.000Z</time>
      </trkpt>
      <trkpt lat="41.89831755124032497406005859375" lon="-8.6248135752975940704345703125">
        <ele>204.8000030517578125</ele>
        <time>2019-05-03T07:44:06.000Z</time>
      </trkpt>
      <trkpt lat="41.89885768108069896697998046875" lon="-8.6246831528842449188232421875">
        <ele>200.399993896484375</ele>
        <time>2019-05-03T07:44:12.000Z</time>
      </trkpt>
      <trkpt lat="41.89942538738250732421875" lon="-8.62463428638875484466552734375">
        <ele>193.399993896484375</ele>
        <time>2019-05-03T07:44:18.000Z</time>
      </trkpt>
      <trkpt lat="41.8997137248516082763671875" lon="-8.624563626945018768310546875">
        <ele>190.399993896484375</ele>
        <time>2019-05-03T07:44:21.000Z</time>
      </trkpt>
      <trkpt lat="41.90020968206226825714111328125" lon="-8.6241777241230010986328125">
        <ele>187.399993896484375</ele>
        <time>2019-05-03T07:44:27.000Z</time>
      </trkpt>
      <trkpt lat="41.90042844973504543304443359375" lon="-8.62396608106791973114013671875">
        <ele>186</ele>
        <time>2019-05-03T07:44:30.000Z</time>
      </trkpt>
      <trkpt lat="41.90083178691565990447998046875" lon="-8.62336543388664722442626953125">
        <ele>186.8000030517578125</ele>
        <time>2019-05-03T07:44:37.000Z</time>
      </trkpt>
      <trkpt lat="41.90101183019578456878662109375" lon="-8.6231076903641223907470703125">
        <ele>187.8000030517578125</ele>
        <time>2019-05-03T07:44:40.000Z</time>
      </trkpt>
      <trkpt lat="41.90150937996804714202880859375" lon="-8.62285732291638851165771484375">
        <ele>184.1999969482421875</ele>
        <time>2019-05-03T07:44:46.000Z</time>
      </trkpt>
      <trkpt lat="41.90205520950257778167724609375" lon="-8.6227596737444400787353515625">
        <ele>178.399993896484375</ele>
        <time>2019-05-03T07:44:52.000Z</time>
      </trkpt>
      <trkpt lat="41.90260254777967929840087890625" lon="-8.62268264405429363250732421875">
        <ele>175.600006103515625</ele>
        <time>2019-05-03T07:44:58.000Z</time>
      </trkpt>
      <trkpt lat="41.90318961627781391143798828125" lon="-8.62275154329836368560791015625">
        <ele>176.399993896484375</ele>
        <time>2019-05-03T07:45:05.000Z</time>
      </trkpt>
      <trkpt lat="41.90332925878465175628662109375" lon="-8.62282522022724151611328125">
        <ele>177.399993896484375</ele>
        <time>2019-05-03T07:45:07.000Z</time>
      </trkpt>
      <trkpt lat="41.90368113107979297637939453125" lon="-8.6231925152242183685302734375">
        <ele>179.600006103515625</ele>
        <time>2019-05-03T07:45:14.000Z</time>
      </trkpt>
      <trkpt lat="41.9039998948574066162109375" lon="-8.623820655047893524169921875">
        <ele>177.399993896484375</ele>
        <time>2019-05-03T07:45:23.000Z</time>
      </trkpt>
      <trkpt lat="41.90435352735221385955810546875" lon="-8.6244555003941059112548828125">
        <ele>172.399993896484375</ele>
        <time>2019-05-03T07:45:32.000Z</time>
      </trkpt>
      <trkpt lat="41.90440599806606769561767578125" lon="-8.6245131678879261016845703125">
        <ele>172</ele>
        <time>2019-05-03T07:45:33.000Z</time>
      </trkpt>
      <trkpt lat="41.9047993607819080352783203125" lon="-8.62470452673733234405517578125">
        <ele>170</ele>
        <time>2019-05-03T07:45:39.000Z</time>
      </trkpt>
      <trkpt lat="41.904872953891754150390625" lon="-8.624705784022808074951171875">
        <ele>169.8000030517578125</ele>
        <time>2019-05-03T07:45:40.000Z</time>
      </trkpt>
      <trkpt lat="41.90533387474715709686279296875" lon="-8.6245815642178058624267578125">
        <ele>173.399993896484375</ele>
        <time>2019-05-03T07:45:46.000Z</time>
      </trkpt>
      <trkpt lat="41.90594340674579143524169921875" lon="-8.62454694695770740509033203125">
        <ele>177.600006103515625</ele>
        <time>2019-05-03T07:45:54.000Z</time>
      </trkpt>
      <trkpt lat="41.90631723962724208831787109375" lon="-8.6251139827072620391845703125">
        <ele>169.1999969482421875</ele>
        <time>2019-05-03T07:46:02.000Z</time>
      </trkpt>
      <trkpt lat="41.90628153271973133087158203125" lon="-8.625548668205738067626953125">
        <ele>165.600006103515625</ele>
        <time>2019-05-03T07:46:06.000Z</time>
      </trkpt>
      <trkpt lat="41.90617575310170650482177734375" lon="-8.62626775167882442474365234375">
        <ele>160.1999969482421875</ele>
        <time>2019-05-03T07:46:14.000Z</time>
      </trkpt>
      <trkpt lat="41.90618765540421009063720703125" lon="-8.6264866031706333160400390625">
        <ele>160.600006103515625</ele>
        <time>2019-05-03T07:46:17.000Z</time>
      </trkpt>
      <trkpt lat="41.9062692113220691680908203125" lon="-8.626700006425380706787109375">
        <ele>160.8000030517578125</ele>
        <time>2019-05-03T07:46:21.000Z</time>
      </trkpt>
      <trkpt lat="41.90664254128932952880859375" lon="-8.6272275634109973907470703125">
        <ele>163.1999969482421875</ele>
        <time>2019-05-03T07:46:40.000Z</time>
      </trkpt>
      <trkpt lat="41.9070249237120151519775390625" lon="-8.62778973765671253204345703125">
        <ele>164.8000030517578125</ele>
        <time>2019-05-03T07:46:59.000Z</time>
      </trkpt>
      <trkpt lat="41.9070903025567531585693359375" lon="-8.62812434323132038116455078125">
        <ele>166.1999969482421875</ele>
        <time>2019-05-03T07:47:11.000Z</time>
      </trkpt>
      <trkpt lat="41.907088793814182281494140625" lon="-8.6281304620206356048583984375">
        <ele>166.1999969482421875</ele>
        <time>2019-05-03T07:47:13.000Z</time>
      </trkpt>
      <trkpt lat="41.9071033783257007598876953125" lon="-8.628084361553192138671875">
        <ele>166</ele>
        <time>2019-05-03T08:05:33.000Z</time>
      </trkpt>
      <trkpt lat="41.90718811936676502227783203125" lon="-8.6281482316553592681884765625">
        <ele>166</ele>
        <time>2019-05-03T08:05:38.000Z</time>
      </trkpt>
      <trkpt lat="41.90723304636776447296142578125" lon="-8.62817480228841304779052734375">
        <ele>166</ele>
        <time>2019-05-03T08:05:41.000Z</time>
      </trkpt>
      <trkpt lat="41.90735793672502040863037109375" lon="-8.6282514967024326324462890625">
        <ele>165.8000030517578125</ele>
        <time>2019-05-03T08:05:47.000Z</time>
      </trkpt>
      <trkpt lat="41.90781340934336185455322265625" lon="-8.6286918818950653076171875">
        <ele>169.1999969482421875</ele>
        <time>2019-05-03T08:06:08.000Z</time>
      </trkpt>
      <trkpt lat="41.90834800712764263153076171875" lon="-8.628839068114757537841796875">
        <ele>171.8000030517578125</ele>
        <time>2019-05-03T08:06:27.000Z</time>
      </trkpt>
      <trkpt lat="41.90889635123312473297119140625" lon="-8.62870202399790287017822265625">
        <ele>171.399993896484375</ele>
        <time>2019-05-03T08:06:47.000Z</time>
      </trkpt>
      <trkpt lat="41.90936154685914516448974609375" lon="-8.6283378303050994873046875">
        <ele>175.8000030517578125</ele>
        <time>2019-05-03T08:07:06.000Z</time>
      </trkpt>
      <trkpt lat="41.909654326736927032470703125" lon="-8.6277291364967823028564453125">
        <ele>183</ele>
        <time>2019-05-03T08:07:27.000Z</time>
      </trkpt>
      <trkpt lat="41.9099034368991851806640625" lon="-8.62708549015223979949951171875">
        <ele>185.1999969482421875</ele>
        <time>2019-05-03T08:07:51.000Z</time>
      </trkpt>
      <trkpt lat="41.9102931953966617584228515625" lon="-8.62658827565610408782958984375">
        <ele>184.8000030517578125</ele>
        <time>2019-05-03T08:08:15.000Z</time>
      </trkpt>
      <trkpt lat="41.91078026778995990753173828125" lon="-8.6262790672481060028076171875">
        <ele>185.8000030517578125</ele>
        <time>2019-05-03T08:08:39.000Z</time>
      </trkpt>
      <trkpt lat="41.91132559441030025482177734375" lon="-8.62623942084610462188720703125">
        <ele>186.8000030517578125</ele>
        <time>2019-05-03T08:09:02.000Z</time>
      </trkpt>
      <trkpt lat="41.91184091381728649139404296875" lon="-8.6264990083873271942138671875">
        <ele>192.8000030517578125</ele>
        <time>2019-05-03T08:09:22.000Z</time>
      </trkpt>
      <trkpt lat="41.91230426542460918426513671875" lon="-8.62688264809548854827880859375">
        <ele>190</ele>
        <time>2019-05-03T08:09:41.000Z</time>
      </trkpt>
      <trkpt lat="41.91276845522224903106689453125" lon="-8.62731884233653545379638671875">
        <ele>198.399993896484375</ele>
        <time>2019-05-03T08:09:59.000Z</time>
      </trkpt>
      <trkpt lat="41.91325561143457889556884765625" lon="-8.62746099941432476043701171875">
        <ele>192.399993896484375</ele>
        <time>2019-05-03T08:10:16.000Z</time>
      </trkpt>
      <trkpt lat="41.91381904296576976776123046875" lon="-8.6273695528507232666015625">
        <ele>194.1999969482421875</ele>
        <time>2019-05-03T08:10:28.000Z</time>
      </trkpt>
      <trkpt lat="41.91438348032534122467041015625" lon="-8.62732102163136005401611328125">
        <ele>195.600006103515625</ele>
        <time>2019-05-03T08:10:44.000Z</time>
      </trkpt>
      <trkpt lat="41.914561092853546142578125" lon="-8.6273221112787723541259765625">
        <ele>196.1999969482421875</ele>
        <time>2019-05-03T08:10:48.000Z</time>
      </trkpt>
      <trkpt lat="41.91481146030128002166748046875" lon="-8.62729537300765514373779296875">
        <ele>196.600006103515625</ele>
        <time>2019-05-03T08:10:54.000Z</time>
      </trkpt>
      <trkpt lat="41.91530616022646427154541015625" lon="-8.62730861641466617584228515625">
        <ele>199</ele>
        <time>2019-05-03T08:11:11.000Z</time>
      </trkpt>
      <trkpt lat="41.915392242372035980224609375" lon="-8.6273534595966339111328125">
        <ele>199.1999969482421875</ele>
        <time>2019-05-03T08:11:16.000Z</time>
      </trkpt>
      <trkpt lat="41.91580957733094692230224609375" lon="-8.62752218730747699737548828125">
        <ele>200.399993896484375</ele>
        <time>2019-05-03T08:11:38.000Z</time>
      </trkpt>
      <trkpt lat="41.9163610227406024932861328125" lon="-8.6275537870824337005615234375">
        <ele>199.1999969482421875</ele>
        <time>2019-05-03T08:12:02.000Z</time>
      </trkpt>
      <trkpt lat="41.9168890826404094696044921875" lon="-8.627828545868396759033203125">
        <ele>202.399993896484375</ele>
        <time>2019-05-03T08:12:21.000Z</time>
      </trkpt>
      <trkpt lat="41.9174231775104999542236328125" lon="-8.62798235379159450531005859375">
        <ele>204.399993896484375</ele>
        <time>2019-05-03T08:12:41.000Z</time>
      </trkpt>
      <trkpt lat="41.9176504947245121002197265625" lon="-8.62804806791245937347412109375">
        <ele>206</ele>
        <time>2019-05-03T08:12:51.000Z</time>
      </trkpt>
      <trkpt lat="41.9178328849375247955322265625" lon="-8.62809768877923488616943359375">
        <ele>207.399993896484375</ele>
        <time>2019-05-03T08:12:59.000Z</time>
      </trkpt>
      <trkpt lat="41.917908489704132080078125" lon="-8.62811143510043621063232421875">
        <ele>207.399993896484375</ele>
        <time>2019-05-03T08:13:02.000Z</time>
      </trkpt>
      <trkpt lat="41.91800479777157306671142578125" lon="-8.6281033046543598175048828125">
        <ele>207</ele>
        <time>2019-05-03T08:13:06.000Z</time>
      </trkpt>
      <trkpt lat="41.918490864336490631103515625" lon="-8.62817195244133472442626953125">
        <ele>208</ele>
        <time>2019-05-03T08:13:25.000Z</time>
      </trkpt>
      <trkpt lat="41.9186179339885711669921875" lon="-8.62820229493081569671630859375">
        <ele>208.399993896484375</ele>
        <time>2019-05-03T08:13:31.000Z</time>
      </trkpt>
      <trkpt lat="41.91868473775684833526611328125" lon="-8.62821914255619049072265625">
        <ele>208.1999969482421875</ele>
        <time>2019-05-03T08:13:35.000Z</time>
      </trkpt>
      <trkpt lat="41.91894927062094211578369140625" lon="-8.62832115031778812408447265625">
        <ele>208</ele>
        <time>2019-05-03T08:13:48.000Z</time>
      </trkpt>
      <trkpt lat="41.91944606602191925048828125" lon="-8.62861786969006061553955078125">
        <ele>209.1999969482421875</ele>
        <time>2019-05-03T08:14:05.000Z</time>
      </trkpt>
      <trkpt lat="41.91999114118516445159912109375" lon="-8.6286516487598419189453125">
        <ele>207.600006103515625</ele>
        <time>2019-05-03T08:14:22.000Z</time>
      </trkpt>
      <trkpt lat="41.9205445982515811920166015625" lon="-8.62868945114314556121826171875">
        <ele>208</ele>
        <time>2019-05-03T08:14:43.000Z</time>
      </trkpt>
      <trkpt lat="41.921071819961071014404296875" lon="-8.628560788929462432861328125">
        <ele>207.399993896484375</ele>
        <time>2019-05-03T08:15:03.000Z</time>
      </trkpt>
      <trkpt lat="41.9215075112879276275634765625" lon="-8.6281313002109527587890625">
        <ele>209.1999969482421875</ele>
        <time>2019-05-03T08:15:25.000Z</time>
      </trkpt>
      <trkpt lat="41.92195133306086063385009765625" lon="-8.628009594976902008056640625">
        <ele>212.399993896484375</ele>
        <time>2019-05-03T08:15:44.000Z</time>
      </trkpt>
      <trkpt lat="41.9224856793880462646484375" lon="-8.6280315555632114410400390625">
        <ele>215.1999969482421875</ele>
        <time>2019-05-03T08:16:13.000Z</time>
      </trkpt>
      <trkpt lat="41.92272397689521312713623046875" lon="-8.62820497713983058929443359375">
        <ele>216</ele>
        <time>2019-05-03T08:16:29.000Z</time>
      </trkpt>
      <trkpt lat="41.9227450154721736907958984375" lon="-8.6282219924032688140869140625">
        <ele>216.1999969482421875</ele>
        <time>2019-05-03T08:17:19.000Z</time>
      </trkpt>
      <trkpt lat="41.92276789806783199310302734375" lon="-8.6282444559037685394287109375">
        <ele>216.399993896484375</ele>
        <time>2019-05-03T08:17:21.000Z</time>
      </trkpt>
      <trkpt lat="41.9230650365352630615234375" lon="-8.62831125967204570770263671875">
        <ele>219.399993896484375</ele>
        <time>2019-05-03T08:17:39.000Z</time>
      </trkpt>
      <trkpt lat="41.923221610486507415771484375" lon="-8.62827169708907604217529296875">
        <ele>220.8000030517578125</ele>
        <time>2019-05-03T08:18:29.000Z</time>
      </trkpt>
      <trkpt lat="41.92331121303141117095947265625" lon="-8.62824537791311740875244140625">
        <ele>221.600006103515625</ele>
        <time>2019-05-03T08:18:34.000Z</time>
      </trkpt>
      <trkpt lat="41.92340458743274211883544921875" lon="-8.62826800905168056488037109375">
        <ele>222.1999969482421875</ele>
        <time>2019-05-03T08:18:40.000Z</time>
      </trkpt>
      <trkpt lat="41.923950500786304473876953125" lon="-8.6281576193869113922119140625">
        <ele>225.1999969482421875</ele>
        <time>2019-05-03T08:19:11.000Z</time>
      </trkpt>
      <trkpt lat="41.9244892895221710205078125" lon="-8.6282880418002605438232421875">
        <ele>228</ele>
        <time>2019-05-03T08:19:30.000Z</time>
      </trkpt>
      <trkpt lat="41.925001926720142364501953125" lon="-8.62853924743831157684326171875">
        <ele>227.8000030517578125</ele>
        <time>2019-05-03T08:19:50.000Z</time>
      </trkpt>
      <trkpt lat="41.925386488437652587890625" lon="-8.6287007667124271392822265625">
        <ele>230</ele>
        <time>2019-05-03T08:20:08.000Z</time>
      </trkpt>
      <trkpt lat="41.9254758395254611968994140625" lon="-8.628650642931461334228515625">
        <ele>231</ele>
        <time>2019-05-03T08:20:13.000Z</time>
      </trkpt>
      <trkpt lat="41.92566904239356517791748046875" lon="-8.62797615118324756622314453125">
        <ele>237.399993896484375</ele>
        <time>2019-05-03T08:20:49.000Z</time>
      </trkpt>
      <trkpt lat="41.9258077628910541534423828125" lon="-8.62773492000997066497802734375">
        <ele>240</ele>
        <time>2019-05-03T08:21:03.000Z</time>
      </trkpt>
      <trkpt lat="41.9258169829845428466796875" lon="-8.6276536993682384490966796875">
        <ele>240.8000030517578125</ele>
        <time>2019-05-03T08:21:07.000Z</time>
      </trkpt>
      <trkpt lat="41.92555320449173450469970703125" lon="-8.62702715210616588592529296875">
        <ele>243.399993896484375</ele>
        <time>2019-05-03T08:21:35.000Z</time>
      </trkpt>
      <trkpt lat="41.9255794398486614227294921875" lon="-8.62679488956928253173828125">
        <ele>245.8000030517578125</ele>
        <time>2019-05-03T08:21:45.000Z</time>
      </trkpt>
      <trkpt lat="41.92570843733847141265869140625" lon="-8.62671903334558010101318359375">
        <ele>247.8000030517578125</ele>
        <time>2019-05-03T08:21:53.000Z</time>
      </trkpt>
      <trkpt lat="41.92588009871542453765869140625" lon="-8.62664929591119289398193359375">
        <ele>251.8000030517578125</ele>
        <time>2019-05-03T08:22:07.000Z</time>
      </trkpt>
      <trkpt lat="41.925906501710414886474609375" lon="-8.62664393149316310882568359375">
        <ele>252.399993896484375</ele>
        <time>2019-05-03T08:22:43.000Z</time>
      </trkpt>
      <trkpt lat="41.926452331244945526123046875" lon="-8.6267043650150299072265625">
        <ele>256</ele>
        <time>2019-05-03T08:23:08.000Z</time>
      </trkpt>
      <trkpt lat="41.92698818631470203399658203125" lon="-8.626757003366947174072265625">
        <ele>256.399993896484375</ele>
        <time>2019-05-03T08:23:31.000Z</time>
      </trkpt>
      <trkpt lat="41.92752890288829803466796875" lon="-8.626870326697826385498046875">
        <ele>256</ele>
        <time>2019-05-03T08:23:56.000Z</time>
      </trkpt>
      <trkpt lat="41.92806744016706943511962890625" lon="-8.6268567480146884918212890625">
        <ele>256.79998779296875</ele>
        <time>2019-05-03T08:24:17.000Z</time>
      </trkpt>
      <trkpt lat="41.92860488779842853546142578125" lon="-8.6271031759679317474365234375">
        <ele>258.20001220703125</ele>
        <time>2019-05-03T08:24:39.000Z</time>
      </trkpt>
      <trkpt lat="41.9291263259947299957275390625" lon="-8.62736561335623264312744140625">
        <ele>260.399993896484375</ele>
        <time>2019-05-03T08:24:56.000Z</time>
      </trkpt>
      <trkpt lat="41.9296302460134029388427734375" lon="-8.62769301049411296844482421875">
        <ele>263.600006103515625</ele>
        <time>2019-05-03T08:25:13.000Z</time>
      </trkpt>
      <trkpt lat="41.9301254488527774810791015625" lon="-8.6280157975852489471435546875">
        <ele>268.20001220703125</ele>
        <time>2019-05-03T08:25:34.000Z</time>
      </trkpt>
      <trkpt lat="41.93066733889281749725341796875" lon="-8.628161810338497161865234375">
        <ele>271</ele>
        <time>2019-05-03T08:26:03.000Z</time>
      </trkpt>
      <trkpt lat="41.9312006793916225433349609375" lon="-8.62811462022364139556884765625">
        <ele>273.20001220703125</ele>
        <time>2019-05-03T08:26:33.000Z</time>
      </trkpt>
      <trkpt lat="41.93139153532683849334716796875" lon="-8.6280828528106212615966796875">
        <ele>274.399993896484375</ele>
        <time>2019-05-03T08:26:44.000Z</time>
      </trkpt>
      <trkpt lat="41.9314186088740825653076171875" lon="-8.6281234212219715118408203125">
        <ele>274.600006103515625</ele>
        <time>2019-05-03T08:26:48.000Z</time>
      </trkpt>
      <trkpt lat="41.9314474426209926605224609375" lon="-8.62812719307839870452880859375">
        <ele>274.79998779296875</ele>
        <time>2019-05-03T08:26:58.000Z</time>
      </trkpt>
      <trkpt lat="41.93148440681397914886474609375" lon="-8.6281314678490161895751953125">
        <ele>275</ele>
        <time>2019-05-03T08:27:00.000Z</time>
      </trkpt>
      <trkpt lat="41.931712143123149871826171875" lon="-8.6282546818256378173828125">
        <ele>275.399993896484375</ele>
        <time>2019-05-03T08:27:12.000Z</time>
      </trkpt>
      <trkpt lat="41.93180426023900508880615234375" lon="-8.6282625608146190643310546875">
        <ele>275.399993896484375</ele>
        <time>2019-05-03T08:27:17.000Z</time>
      </trkpt>
      <trkpt lat="41.9319788552820682525634765625" lon="-8.62824596464633941650390625">
        <ele>274.399993896484375</ele>
        <time>2019-05-03T08:27:28.000Z</time>
      </trkpt>
      <trkpt lat="41.93199184723198413848876953125" lon="-8.62827203236520290374755859375">
        <ele>274</ele>
        <time>2019-05-03T08:27:31.000Z</time>
      </trkpt>
      <trkpt lat="41.93200014531612396240234375" lon="-8.628235571086406707763671875">
        <ele>274.399993896484375</ele>
        <time>2019-05-03T08:30:06.000Z</time>
      </trkpt>
      <trkpt lat="41.932184211909770965576171875" lon="-8.62854762934148311614990234375">
        <ele>270.600006103515625</ele>
        <time>2019-05-03T08:30:28.000Z</time>
      </trkpt>
      <trkpt lat="41.932372637093067169189453125" lon="-8.629219941794872283935546875">
        <ele>271.600006103515625</ele>
        <time>2019-05-03T08:30:53.000Z</time>
      </trkpt>
      <trkpt lat="41.9324207492172718048095703125" lon="-8.6293007433414459228515625">
        <ele>271.79998779296875</ele>
        <time>2019-05-03T08:30:55.000Z</time>
      </trkpt>
      <trkpt lat="41.9325169734656810760498046875" lon="-8.62942538224160671234130859375">
        <ele>271</ele>
        <time>2019-05-03T08:30:58.000Z</time>
      </trkpt>
      <trkpt lat="41.93259014748036861419677734375" lon="-8.629638366401195526123046875">
        <ele>270.20001220703125</ele>
        <time>2019-05-03T08:31:02.000Z</time>
      </trkpt>
      <trkpt lat="41.93261931650340557098388671875" lon="-8.62974506802856922149658203125">
        <ele>269.79998779296875</ele>
        <time>2019-05-03T08:31:04.000Z</time>
      </trkpt>
      <trkpt lat="41.9327530078589916229248046875" lon="-8.62988286651670932769775390625">
        <ele>268.600006103515625</ele>
        <time>2019-05-03T08:31:08.000Z</time>
      </trkpt>
      <trkpt lat="41.933275870978832244873046875" lon="-8.63011814653873443603515625">
        <ele>267.600006103515625</ele>
        <time>2019-05-03T08:31:24.000Z</time>
      </trkpt>
      <trkpt lat="41.93379362113773822784423828125" lon="-8.63038368523120880126953125">
        <ele>265.399993896484375</ele>
        <time>2019-05-03T08:31:41.000Z</time>
      </trkpt>
      <trkpt lat="41.93403191864490509033203125" lon="-8.6305649019777774810791015625">
        <ele>265.399993896484375</ele>
        <time>2019-05-03T08:31:51.000Z</time>
      </trkpt>
      <trkpt lat="41.93412445485591888427734375" lon="-8.63060086034238338470458984375">
        <ele>265</ele>
        <time>2019-05-03T08:31:56.000Z</time>
      </trkpt>
      <trkpt lat="41.9341460801661014556884765625" lon="-8.6306064762175083160400390625">
        <ele>264.79998779296875</ele>
        <time>2019-05-03T08:31:59.000Z</time>
      </trkpt>
      <trkpt lat="41.93425848148763179779052734375" lon="-8.63064427860081195831298828125">
        <ele>263.600006103515625</ele>
        <time>2019-05-03T08:32:12.000Z</time>
      </trkpt>
      <trkpt lat="41.93431396968662738800048828125" lon="-8.630696833133697509765625">
        <ele>263.20001220703125</ele>
        <time>2019-05-03T08:32:17.000Z</time>
      </trkpt>
      <trkpt lat="41.93456643261015415191650390625" lon="-8.630785010755062103271484375">
        <ele>259.600006103515625</ele>
        <time>2019-05-03T08:32:46.000Z</time>
      </trkpt>
      <trkpt lat="41.93461203016340732574462890625" lon="-8.630811832845211029052734375">
        <ele>258.79998779296875</ele>
        <time>2019-05-03T08:32:50.000Z</time>
      </trkpt>
      <trkpt lat="41.9346682727336883544921875" lon="-8.63083857111632823944091796875">
        <ele>258</ele>
        <time>2019-05-03T08:32:54.000Z</time>
      </trkpt>
      <trkpt lat="41.9351941533386707305908203125" lon="-8.63104074262082576751708984375">
        <ele>248.8000030517578125</ele>
        <time>2019-05-03T08:33:13.000Z</time>
      </trkpt>
      <trkpt lat="41.9354838319122791290283203125" lon="-8.63127375952899456024169921875">
        <ele>242.399993896484375</ele>
        <time>2019-05-03T08:33:28.000Z</time>
      </trkpt>
      <trkpt lat="41.93552465178072452545166015625" lon="-8.6312847398221492767333984375">
        <ele>241.600006103515625</ele>
        <time>2019-05-03T08:33:32.000Z</time>
      </trkpt>
      <trkpt lat="41.93558785133063793182373046875" lon="-8.63114685751497745513916015625">
        <ele>241.1999969482421875</ele>
        <time>2019-05-03T08:33:44.000Z</time>
      </trkpt>
      <trkpt lat="41.93559472449123859405517578125" lon="-8.63109069876372814178466796875">
        <ele>241.1999969482421875</ele>
        <time>2019-05-03T08:33:48.000Z</time>
      </trkpt>
      <trkpt lat="41.935442425310611724853515625" lon="-8.63054034300148487091064453125">
        <ele>249.600006103515625</ele>
        <time>2019-05-03T08:34:07.000Z</time>
      </trkpt>
      <trkpt lat="41.9355223886668682098388671875" lon="-8.63046490587294101715087890625">
        <ele>249</ele>
        <time>2019-05-03T08:36:13.000Z</time>
      </trkpt>
      <trkpt lat="41.93552850745618343353271484375" lon="-8.630462475121021270751953125">
        <ele>248.8000030517578125</ele>
        <time>2019-05-03T08:36:15.000Z</time>
      </trkpt>
      <trkpt lat="41.9356863386929035186767578125" lon="-8.630388714373111724853515625">
        <ele>246.8000030517578125</ele>
        <time>2019-05-03T08:36:37.000Z</time>
      </trkpt>
      <trkpt lat="41.9357671402394771575927734375" lon="-8.63034881651401519775390625">
        <ele>245.8000030517578125</ele>
        <time>2019-05-03T08:36:40.000Z</time>
      </trkpt>
      <trkpt lat="41.9363055936992168426513671875" lon="-8.630316294729709625244140625">
        <ele>238.399993896484375</ele>
        <time>2019-05-03T08:37:07.000Z</time>
      </trkpt>
      <trkpt lat="41.93641413934528827667236328125" lon="-8.63025049678981304168701171875">
        <ele>237.600006103515625</ele>
        <time>2019-05-03T08:37:13.000Z</time>
      </trkpt>
      <trkpt lat="41.93677824921905994415283203125" lon="-8.63013398833572864532470703125">
        <ele>234.1999969482421875</ele>
        <time>2019-05-03T08:37:33.000Z</time>
      </trkpt>
      <trkpt lat="41.93690548650920391082763671875" lon="-8.63010163418948650360107421875">
        <ele>233.1999969482421875</ele>
        <time>2019-05-03T08:37:41.000Z</time>
      </trkpt>
      <trkpt lat="41.93695678375661373138427734375" lon="-8.63008939661085605621337890625">
        <ele>232.8000030517578125</ele>
        <time>2019-05-03T08:37:50.000Z</time>
      </trkpt>
      <trkpt lat="41.93712810985743999481201171875" lon="-8.63001781515777111053466796875">
        <ele>232</ele>
        <time>2019-05-03T08:37:57.000Z</time>
      </trkpt>
      <trkpt lat="41.93766765296459197998046875" lon="-8.62988722510635852813720703125">
        <ele>230</ele>
        <time>2019-05-03T08:38:13.000Z</time>
      </trkpt>
      <trkpt lat="41.93787150084972381591796875" lon="-8.62982469610869884490966796875">
        <ele>231</ele>
        <time>2019-05-03T08:38:18.000Z</time>
      </trkpt>
      <trkpt lat="41.93823494017124176025390625" lon="-8.63000323064625263214111328125">
        <ele>224.8000030517578125</ele>
        <time>2019-05-03T08:38:30.000Z</time>
      </trkpt>
      <trkpt lat="41.93835320882499217987060546875" lon="-8.6302044801414012908935546875">
        <ele>221.8000030517578125</ele>
        <time>2019-05-03T08:38:37.000Z</time>
      </trkpt>
      <trkpt lat="41.93876157514750957489013671875" lon="-8.63052257336676120758056640625">
        <ele>221.8000030517578125</ele>
        <time>2019-05-03T08:38:57.000Z</time>
      </trkpt>
      <trkpt lat="41.9388040713965892791748046875" lon="-8.63052852451801300048828125">
        <ele>222.399993896484375</ele>
        <time>2019-05-03T08:39:07.000Z</time>
      </trkpt>
      <trkpt lat="41.93933724425733089447021484375" lon="-8.63061745651066303253173828125">
        <ele>222</ele>
        <time>2019-05-03T08:39:29.000Z</time>
      </trkpt>
      <trkpt lat="41.93990595638751983642578125" lon="-8.6305910535156726837158203125">
        <ele>219</ele>
        <time>2019-05-03T08:39:45.000Z</time>
      </trkpt>
      <trkpt lat="41.94026679731905460357666015625" lon="-8.63061410374939441680908203125">
        <ele>210.8000030517578125</ele>
        <time>2019-05-03T08:39:55.000Z</time>
      </trkpt>
      <trkpt lat="41.940369307994842529296875" lon="-8.63060002215206623077392578125">
        <ele>209.399993896484375</ele>
        <time>2019-05-03T08:39:59.000Z</time>
      </trkpt>
      <trkpt lat="41.94066141732037067413330078125" lon="-8.63070881925523281097412109375">
        <ele>201</ele>
        <time>2019-05-03T08:40:08.000Z</time>
      </trkpt>
      <trkpt lat="41.94080508314073085784912109375" lon="-8.6307625472545623779296875">
        <ele>197.1999969482421875</ele>
        <time>2019-05-03T08:40:11.000Z</time>
      </trkpt>
      <trkpt lat="41.941004656255245208740234375" lon="-8.63083521835505962371826171875">
        <ele>192.1999969482421875</ele>
        <time>2019-05-03T08:40:15.000Z</time>
      </trkpt>
      <trkpt lat="41.9415600411593914031982421875" lon="-8.63088098354637622833251953125">
        <ele>184.600006103515625</ele>
        <time>2019-05-03T08:40:32.000Z</time>
      </trkpt>
      <trkpt lat="41.9417303614318370819091796875" lon="-8.6308753676712512969970703125">
        <ele>180.399993896484375</ele>
        <time>2019-05-03T08:40:37.000Z</time>
      </trkpt>
      <trkpt lat="41.9418968260288238525390625" lon="-8.63082214258611202239990234375">
        <ele>178.1999969482421875</ele>
        <time>2019-05-03T08:40:42.000Z</time>
      </trkpt>
      <trkpt lat="41.94209019653499126434326171875" lon="-8.63088634796440601348876953125">
        <ele>173.8000030517578125</ele>
        <time>2019-05-03T08:40:48.000Z</time>
      </trkpt>
      <trkpt lat="41.94236042909324169158935546875" lon="-8.63071753643453121185302734375">
        <ele>171.600006103515625</ele>
        <time>2019-05-03T08:40:54.000Z</time>
      </trkpt>
      <trkpt lat="41.94247039966285228729248046875" lon="-8.63068434409797191619873046875">
        <ele>170.399993896484375</ele>
        <time>2019-05-03T08:40:56.000Z</time>
      </trkpt>
      <trkpt lat="41.94271179847419261932373046875" lon="-8.6306530795991420745849609375">
        <ele>167.399993896484375</ele>
        <time>2019-05-03T08:41:00.000Z</time>
      </trkpt>
      <trkpt lat="41.94330590777099132537841796875" lon="-8.6306490562856197357177734375">
        <ele>158.1999969482421875</ele>
        <time>2019-05-03T08:41:10.000Z</time>
      </trkpt>
      <trkpt lat="41.94387269206345081329345703125" lon="-8.63060002215206623077392578125">
        <ele>150.399993896484375</ele>
        <time>2019-05-03T08:41:20.000Z</time>
      </trkpt>
      <trkpt lat="41.9441225565969944000244140625" lon="-8.63054729998111724853515625">
        <ele>148.600006103515625</ele>
        <time>2019-05-03T08:41:25.000Z</time>
      </trkpt>
      <trkpt lat="41.94461851380765438079833984375" lon="-8.6302973516285419464111328125">
        <ele>154.1999969482421875</ele>
        <time>2019-05-03T08:41:48.000Z</time>
      </trkpt>
      <trkpt lat="41.944712810218334197998046875" lon="-8.6301377601921558380126953125">
        <ele>157.1999969482421875</ele>
        <time>2019-05-03T08:41:58.000Z</time>
      </trkpt>
      <trkpt lat="41.9447568990290164947509765625" lon="-8.63003340549767017364501953125">
        <ele>159</ele>
        <time>2019-05-03T08:42:05.000Z</time>
      </trkpt>
      <trkpt lat="41.9448953680694103240966796875" lon="-8.62989225424826145172119140625">
        <ele>162</ele>
        <time>2019-05-03T08:42:22.000Z</time>
      </trkpt>
      <trkpt lat="41.9450351782143115997314453125" lon="-8.62959302030503749847412109375">
        <ele>167.1999969482421875</ele>
        <time>2019-05-03T08:42:37.000Z</time>
      </trkpt>
      <trkpt lat="41.9452152214944362640380859375" lon="-8.62951037473976612091064453125">
        <ele>169.1999969482421875</ele>
        <time>2019-05-03T08:42:53.000Z</time>
      </trkpt>
      <trkpt lat="41.94533214904367923736572265625" lon="-8.6295624263584613800048828125">
        <ele>168.600006103515625</ele>
        <time>2019-05-03T08:42:58.000Z</time>
      </trkpt>
      <trkpt lat="41.94585509598255157470703125" lon="-8.6298329941928386688232421875">
        <ele>165.1999969482421875</ele>
        <time>2019-05-03T08:43:16.000Z</time>
      </trkpt>
      <trkpt lat="41.946087442338466644287109375" lon="-8.6300785839557647705078125">
        <ele>160.1999969482421875</ele>
        <time>2019-05-03T08:43:26.000Z</time>
      </trkpt>
      <trkpt lat="41.94624644704163074493408203125" lon="-8.63035275600850582122802734375">
        <ele>155</ele>
        <time>2019-05-03T08:43:32.000Z</time>
      </trkpt>
      <trkpt lat="41.9463209621608257293701171875" lon="-8.63040757365524768829345703125">
        <ele>153</ele>
        <time>2019-05-03T08:43:34.000Z</time>
      </trkpt>
      <trkpt lat="41.9467999041080474853515625" lon="-8.6306755430996417999267578125">
        <ele>138</ele>
        <time>2019-05-03T08:43:48.000Z</time>
      </trkpt>
      <trkpt lat="41.947323270142078399658203125" lon="-8.630744777619838714599609375">
        <ele>126</ele>
        <time>2019-05-03T08:44:05.000Z</time>
      </trkpt>
      <trkpt lat="41.94783733226358890533447265625" lon="-8.63078174181282520294189453125">
        <ele>117.1999969482421875</ele>
        <time>2019-05-03T08:44:30.000Z</time>
      </trkpt>
      <trkpt lat="41.94786901585757732391357421875" lon="-8.6308220587670803070068359375">
        <ele>116.59999847412109375</ele>
        <time>2019-05-03T08:44:31.000Z</time>
      </trkpt>
      <trkpt lat="41.94831107743084430694580078125" lon="-8.631247021257877349853515625">
        <ele>109</ele>
        <time>2019-05-03T08:44:39.000Z</time>
      </trkpt>
      <trkpt lat="41.94857778958976268768310546875" lon="-8.63151381723582744598388671875">
        <ele>105.8000030517578125</ele>
        <time>2019-05-03T08:44:44.000Z</time>
      </trkpt>
      <trkpt lat="41.9487091340124607086181640625" lon="-8.63181422464549541473388671875">
        <ele>105.59999847412109375</ele>
        <time>2019-05-03T08:44:48.000Z</time>
      </trkpt>
      <trkpt lat="41.9487445056438446044921875" lon="-8.6318957805633544921875">
        <ele>105</ele>
        <time>2019-05-03T08:44:49.000Z</time>
      </trkpt>
      <trkpt lat="41.9491698034107685089111328125" lon="-8.632296435534954071044921875">
        <ele>100.59999847412109375</ele>
        <time>2019-05-03T08:44:57.000Z</time>
      </trkpt>
      <trkpt lat="41.94936937652528285980224609375" lon="-8.63235368393361568450927734375">
        <ele>97.59999847412109375</ele>
        <time>2019-05-03T08:45:00.000Z</time>
      </trkpt>
      <trkpt lat="41.9498011283576488494873046875" lon="-8.632598854601383209228515625">
        <ele>95.40000152587890625</ele>
        <time>2019-05-03T08:45:07.000Z</time>
      </trkpt>
      <trkpt lat="41.95024411194026470184326171875" lon="-8.633023314177989959716796875">
        <ele>90.1999969482421875</ele>
        <time>2019-05-03T08:45:16.000Z</time>
      </trkpt>
      <trkpt lat="41.95071433670818805694580078125" lon="-8.6334232985973358154296875">
        <ele>85.1999969482421875</ele>
        <time>2019-05-03T08:45:27.000Z</time>
      </trkpt>
      <trkpt lat="41.951258070766925811767578125" lon="-8.63373401574790477752685546875">
        <ele>81.40000152587890625</ele>
        <time>2019-05-03T08:45:36.000Z</time>
      </trkpt>
      <trkpt lat="41.9518104381859302520751953125" lon="-8.63394825719296932220458984375">
        <ele>77.40000152587890625</ele>
        <time>2019-05-03T08:45:44.000Z</time>
      </trkpt>
      <trkpt lat="41.95233372040092945098876953125" lon="-8.63422636874020099639892578125">
        <ele>72.8000030517578125</ele>
        <time>2019-05-03T08:45:51.000Z</time>
      </trkpt>
      <trkpt lat="41.95262222550809383392333984375" lon="-8.6343277059495449066162109375">
        <ele>70.8000030517578125</ele>
        <time>2019-05-03T08:45:55.000Z</time>
      </trkpt>
      <trkpt lat="41.95282037369906902313232421875" lon="-8.63446860574185848236083984375">
        <ele>70</ele>
        <time>2019-05-03T08:45:58.000Z</time>
      </trkpt>
      <trkpt lat="41.95295079611241817474365234375" lon="-8.63460858352482318878173828125">
        <ele>69.59999847412109375</ele>
        <time>2019-05-03T08:46:04.000Z</time>
      </trkpt>
      <trkpt lat="41.95298046804964542388916015625" lon="-8.6345902271568775177001953125">
        <ele>69.40000152587890625</ele>
        <time>2019-05-03T08:46:12.000Z</time>
      </trkpt>
      <trkpt lat="41.95306462235748767852783203125" lon="-8.634564913809299468994140625">
        <ele>68.8000030517578125</ele>
        <time>2019-05-03T08:46:20.000Z</time>
      </trkpt>
      <trkpt lat="41.95308373309671878814697265625" lon="-8.63456214778125286102294921875">
        <ele>68.59999847412109375</ele>
        <time>2019-05-03T08:46:23.000Z</time>
      </trkpt>
      <trkpt lat="41.9535887427628040313720703125" lon="-8.63431924022734165191650390625">
        <ele>65.59999847412109375</ele>
        <time>2019-05-03T08:46:49.000Z</time>
      </trkpt>
      <trkpt lat="41.95409618318080902099609375" lon="-8.63411254249513149261474609375">
        <ele>64.1999969482421875</ele>
        <time>2019-05-03T08:47:18.000Z</time>
      </trkpt>
      <trkpt lat="41.954185031354427337646484375" lon="-8.6340014822781085968017578125">
        <ele>64.59999847412109375</ele>
        <time>2019-05-03T08:47:24.000Z</time>
      </trkpt>
      <trkpt lat="41.95445367135107517242431640625" lon="-8.6338489316403865814208984375">
        <ele>65</ele>
        <time>2019-05-03T08:47:37.000Z</time>
      </trkpt>
      <trkpt lat="41.9548840820789337158203125" lon="-8.63340997137129306793212890625">
        <ele>66.40000152587890625</ele>
        <time>2019-05-03T08:48:04.000Z</time>
      </trkpt>
      <trkpt lat="41.955349445343017578125" lon="-8.63298417069017887115478515625">
        <ele>69.59999847412109375</ele>
        <time>2019-05-03T08:48:26.000Z</time>
      </trkpt>
      <trkpt lat="41.95586510002613067626953125" lon="-8.63283463753759860992431640625">
        <ele>71.40000152587890625</ele>
        <time>2019-05-03T08:48:49.000Z</time>
      </trkpt>
      <trkpt lat="41.95643238723278045654296875" lon="-8.6328638903796672821044921875">
        <ele>71.1999969482421875</ele>
        <time>2019-05-03T08:49:12.000Z</time>
      </trkpt>
      <trkpt lat="41.95701308548450469970703125" lon="-8.6328305304050445556640625">
        <ele>67.40000152587890625</ele>
        <time>2019-05-03T08:49:22.000Z</time>
      </trkpt>
      <trkpt lat="41.95755757391452789306640625" lon="-8.63267856650054454803466796875">
        <ele>64</ele>
        <time>2019-05-03T08:49:29.000Z</time>
      </trkpt>
      <trkpt lat="41.9581381045281887054443359375" lon="-8.63255099393427371978759765625">
        <ele>60</ele>
        <time>2019-05-03T08:49:36.000Z</time>
      </trkpt>
      <trkpt lat="41.95821245200932025909423828125" lon="-8.63255769945681095123291015625">
        <ele>59.59999847412109375</ele>
        <time>2019-05-03T08:49:37.000Z</time>
      </trkpt>
      <trkpt lat="41.95869340561330318450927734375" lon="-8.6325926519930362701416015625">
        <ele>58.799999237060546875</ele>
        <time>2019-05-03T08:49:44.000Z</time>
      </trkpt>
      <trkpt lat="41.9592180289328098297119140625" lon="-8.6324121057987213134765625">
        <ele>59</ele>
        <time>2019-05-03T08:49:55.000Z</time>
      </trkpt>
      <trkpt lat="41.95952807553112506866455078125" lon="-8.63230951130390167236328125">
        <ele>59.200000762939453125</ele>
        <time>2019-05-03T08:50:02.000Z</time>
      </trkpt>
      <trkpt lat="41.9600642658770084381103515625" lon="-8.6321105249226093292236328125">
        <ele>61.59999847412109375</ele>
        <time>2019-05-03T08:50:14.000Z</time>
      </trkpt>
      <trkpt lat="41.96060121059417724609375" lon="-8.631977252662181854248046875">
        <ele>68.8000030517578125</ele>
        <time>2019-05-03T08:50:27.000Z</time>
      </trkpt>
      <trkpt lat="41.96115835569798946380615234375" lon="-8.63186753354966640472412109375">
        <ele>72.8000030517578125</ele>
        <time>2019-05-03T08:50:46.000Z</time>
      </trkpt>
      <trkpt lat="41.961665712296962738037109375" lon="-8.63162152469158172607421875">
        <ele>77.1999969482421875</ele>
        <time>2019-05-03T08:51:05.000Z</time>
      </trkpt>
      <trkpt lat="41.96220718324184417724609375" lon="-8.631470315158367156982421875">
        <ele>76.8000030517578125</ele>
        <time>2019-05-03T08:51:22.000Z</time>
      </trkpt>
      <trkpt lat="41.9623890705406665802001953125" lon="-8.63143217749893665313720703125">
        <ele>76.59999847412109375</ele>
        <time>2019-05-03T08:51:26.000Z</time>
      </trkpt>
      <trkpt lat="41.96251940913498401641845703125" lon="-8.63134399987757205963134765625">
        <ele>76.59999847412109375</ele>
        <time>2019-05-03T08:51:29.000Z</time>
      </trkpt>
      <trkpt lat="41.9626609794795513153076171875" lon="-8.63119027577340602874755859375">
        <ele>77</ele>
        <time>2019-05-03T08:51:33.000Z</time>
      </trkpt>
      <trkpt lat="41.962718479335308074951171875" lon="-8.63110595382750034332275390625">
        <ele>77.59999847412109375</ele>
        <time>2019-05-03T08:51:35.000Z</time>
      </trkpt>
      <trkpt lat="41.96294747292995452880859375" lon="-8.6308515630662441253662109375">
        <ele>76.8000030517578125</ele>
        <time>2019-05-03T08:51:46.000Z</time>
      </trkpt>
      <trkpt lat="41.96321376599371433258056640625" lon="-8.6310093104839324951171875">
        <ele>74.1999969482421875</ele>
        <time>2019-05-03T08:51:56.000Z</time>
      </trkpt>
      <trkpt lat="41.9636039435863494873046875" lon="-8.6309068836271762847900390625">
        <ele>71.8000030517578125</ele>
        <time>2019-05-03T08:52:06.000Z</time>
      </trkpt>
      <trkpt lat="41.9639296643435955047607421875" lon="-8.630805797874927520751953125">
        <ele>69.8000030517578125</ele>
        <time>2019-05-03T08:52:14.000Z</time>
      </trkpt>
      <trkpt lat="41.9644542038440704345703125" lon="-8.6308052949607372283935546875">
        <ele>67.59999847412109375</ele>
        <time>2019-05-03T08:52:25.000Z</time>
      </trkpt>
      <trkpt lat="41.96454950608313083648681640625" lon="-8.63079414702951908111572265625">
        <ele>67.40000152587890625</ele>
        <time>2019-05-03T08:52:27.000Z</time>
      </trkpt>
      <trkpt lat="41.9646780006587505340576171875" lon="-8.63080655224621295928955078125">
        <ele>67</ele>
        <time>2019-05-03T08:52:30.000Z</time>
      </trkpt>
      <trkpt lat="41.9652013666927814483642578125" lon="-8.631026409566402435302734375">
        <ele>65.1999969482421875</ele>
        <time>2019-05-03T08:52:45.000Z</time>
      </trkpt>
      <trkpt lat="41.9655306078493595123291015625" lon="-8.63138356246054172515869140625">
        <ele>63.59999847412109375</ele>
        <time>2019-05-03T08:53:02.000Z</time>
      </trkpt>
      <trkpt lat="41.9660125672817230224609375" lon="-8.63174616359174251556396484375">
        <ele>63.200000762939453125</ele>
        <time>2019-05-03T08:53:19.000Z</time>
      </trkpt>
      <trkpt lat="41.966457478702068328857421875" lon="-8.6320097744464874267578125">
        <ele>64.1999969482421875</ele>
        <time>2019-05-03T08:53:30.000Z</time>
      </trkpt>
      <trkpt lat="41.96694287471473217010498046875" lon="-8.63235837779939174652099609375">
        <ele>65.59999847412109375</ele>
        <time>2019-05-03T08:53:41.000Z</time>
      </trkpt>
      <trkpt lat="41.9674690067768096923828125" lon="-8.63260924816131591796875">
        <ele>63.799999237060546875</ele>
        <time>2019-05-03T08:53:55.000Z</time>
      </trkpt>
      <trkpt lat="41.9680096395313739776611328125" lon="-8.63266498781740665435791015625">
        <ele>61.799999237060546875</ele>
        <time>2019-05-03T08:54:10.000Z</time>
      </trkpt>
      <trkpt lat="41.9685531221330165863037109375" lon="-8.6326613835990428924560546875">
        <ele>61</ele>
        <time>2019-05-03T08:54:22.000Z</time>
      </trkpt>
      <trkpt lat="41.9691130332648754119873046875" lon="-8.632832877337932586669921875">
        <ele>60.799999237060546875</ele>
        <time>2019-05-03T08:54:35.000Z</time>
      </trkpt>
      <trkpt lat="41.96964092552661895751953125" lon="-8.63303773105144500732421875">
        <ele>61.200000762939453125</ele>
        <time>2019-05-03T08:54:53.000Z</time>
      </trkpt>
      <trkpt lat="41.970186419785022735595703125" lon="-8.63298148848116397857666015625">
        <ele>61.59999847412109375</ele>
        <time>2019-05-03T08:55:11.000Z</time>
      </trkpt>
      <trkpt lat="41.9707354344427585601806640625" lon="-8.6330338753759860992431640625">
        <ele>62.40000152587890625</ele>
        <time>2019-05-03T08:55:26.000Z</time>
      </trkpt>
      <trkpt lat="41.97128872387111186981201171875" lon="-8.6330731026828289031982421875">
        <ele>63.59999847412109375</ele>
        <time>2019-05-03T08:55:40.000Z</time>
      </trkpt>
      <trkpt lat="41.97165786288678646087646484375" lon="-8.63312247209250926971435546875">
        <ele>64</ele>
        <time>2019-05-03T08:55:49.000Z</time>
      </trkpt>
      <trkpt lat="41.97174184955656528472900390625" lon="-8.633124567568302154541015625">
        <ele>64.59999847412109375</ele>
        <time>2019-05-03T08:55:51.000Z</time>
      </trkpt>
      <trkpt lat="41.9719045422971248626708984375" lon="-8.633119203150272369384765625">
        <ele>65.8000030517578125</ele>
        <time>2019-05-03T08:55:55.000Z</time>
      </trkpt>
      <trkpt lat="41.97237635962665081024169921875" lon="-8.6332494579255580902099609375">
        <ele>65.1999969482421875</ele>
        <time>2019-05-03T08:56:06.000Z</time>
      </trkpt>
      <trkpt lat="41.97292520664632320404052734375" lon="-8.63337434828281402587890625">
        <ele>65.1999969482421875</ele>
        <time>2019-05-03T08:56:18.000Z</time>
      </trkpt>
      <trkpt lat="41.97328277863562107086181640625" lon="-8.633453138172626495361328125">
        <ele>65.1999969482421875</ele>
        <time>2019-05-03T08:56:26.000Z</time>
      </trkpt>
      <trkpt lat="41.97382844053208827972412109375" lon="-8.63357878290116786956787109375">
        <ele>61.59999847412109375</ele>
        <time>2019-05-03T08:56:38.000Z</time>
      </trkpt>
      <trkpt lat="41.974304616451263427734375" lon="-8.63369864411652088165283203125">
        <ele>60</ele>
        <time>2019-05-03T08:56:49.000Z</time>
      </trkpt>
      <trkpt lat="41.97447183541953563690185546875" lon="-8.63372194580733776092529296875">
        <ele>59.799999237060546875</ele>
        <time>2019-05-03T08:56:53.000Z</time>
      </trkpt>
      <trkpt lat="41.975013725459575653076171875" lon="-8.63381691277027130126953125">
        <ele>59</ele>
        <time>2019-05-03T08:57:12.000Z</time>
      </trkpt>
      <trkpt lat="41.97510751895606517791748046875" lon="-8.63382001407444477081298828125">
        <ele>58.799999237060546875</ele>
        <time>2019-05-03T08:57:19.000Z</time>
      </trkpt>
      <trkpt lat="41.975149847567081451416015625" lon="-8.6338234506547451019287109375">
        <ele>58.799999237060546875</ele>
        <time>2019-05-03T09:03:39.000Z</time>
      </trkpt>
      <trkpt lat="41.9756924919784069061279296875" lon="-8.633960075676441192626953125">
        <ele>58</ele>
        <time>2019-05-03T09:03:58.000Z</time>
      </trkpt>
      <trkpt lat="41.97623153217136859893798828125" lon="-8.6340950243175029754638671875">
        <ele>56.200000762939453125</ele>
        <time>2019-05-03T09:04:13.000Z</time>
      </trkpt>
      <trkpt lat="41.97639782913029193878173828125" lon="-8.6341553740203380584716796875">
        <ele>56</ele>
        <time>2019-05-03T09:04:17.000Z</time>
      </trkpt>
      <trkpt lat="41.976945586502552032470703125" lon="-8.63424397073686122894287109375">
        <ele>54.59999847412109375</ele>
        <time>2019-05-03T09:04:28.000Z</time>
      </trkpt>
      <trkpt lat="41.9772615842521190643310546875" lon="-8.63428504206240177154541015625">
        <ele>53.59999847412109375</ele>
        <time>2019-05-03T09:04:35.000Z</time>
      </trkpt>
      <trkpt lat="41.977739520370960235595703125" lon="-8.63403811119496822357177734375">
        <ele>53.799999237060546875</ele>
        <time>2019-05-03T09:04:49.000Z</time>
      </trkpt>
      <trkpt lat="41.97830404154956340789794921875" lon="-8.63427531905472278594970703125">
        <ele>49.799999237060546875</ele>
        <time>2019-05-03T09:04:59.000Z</time>
      </trkpt>
      <trkpt lat="41.978397332131862640380859375" lon="-8.63434304483234882354736328125">
        <ele>49.200000762939453125</ele>
        <time>2019-05-03T09:05:01.000Z</time>
      </trkpt>
      <trkpt lat="41.97849481366574764251708984375" lon="-8.63440054468810558319091796875">
        <ele>49.40000152587890625</ele>
        <time>2019-05-03T09:05:07.000Z</time>
      </trkpt>
      <trkpt lat="41.9785116612911224365234375" lon="-8.63441479392349720001220703125">
        <ele>49.40000152587890625</ele>
        <time>2019-05-03T09:15:57.000Z</time>
      </trkpt>
      <trkpt lat="41.97870151139795780181884765625" lon="-8.63454781472682952880859375">
        <ele>50</ele>
        <time>2019-05-03T09:16:07.000Z</time>
      </trkpt>
      <trkpt lat="41.97873252443969249725341796875" lon="-8.63457120023667812347412109375">
        <ele>50.200000762939453125</ele>
        <time>2019-05-03T09:16:55.000Z</time>
      </trkpt>
      <trkpt lat="41.97897140868008136749267578125" lon="-8.6346616409718990325927734375">
        <ele>47.59999847412109375</ele>
        <time>2019-05-03T09:17:04.000Z</time>
      </trkpt>
      <trkpt lat="41.9791813753545284271240234375" lon="-8.634625934064388275146484375">
        <ele>46</ele>
        <time>2019-05-03T09:17:08.000Z</time>
      </trkpt>
      <trkpt lat="41.97952394373714923858642578125" lon="-8.6345739662647247314453125">
        <ele>45.59999847412109375</ele>
        <time>2019-05-03T09:17:14.000Z</time>
      </trkpt>
      <trkpt lat="41.97971555404365062713623046875" lon="-8.63461193628609180450439453125">
        <ele>44.200000762939453125</ele>
        <time>2019-05-03T09:17:18.000Z</time>
      </trkpt>
      <trkpt lat="41.97985603474080562591552734375" lon="-8.634656108915805816650390625">
        <ele>43</ele>
        <time>2019-05-03T09:17:21.000Z</time>
      </trkpt>
      <trkpt lat="41.98042214848101139068603515625" lon="-8.634695671498775482177734375">
        <ele>36.200000762939453125</ele>
        <time>2019-05-03T09:17:31.000Z</time>
      </trkpt>
      <trkpt lat="41.98100888170301914215087890625" lon="-8.63482114858925342559814453125">
        <ele>32.40000152587890625</ele>
        <time>2019-05-03T09:17:40.000Z</time>
      </trkpt>
      <trkpt lat="41.98151682503521442413330078125" lon="-8.63486389629542827606201171875">
        <ele>27.799999237060546875</ele>
        <time>2019-05-03T09:17:49.000Z</time>
      </trkpt>
      <trkpt lat="41.9817331619560718536376953125" lon="-8.6348966695368289947509765625">
        <ele>26.200000762939453125</ele>
        <time>2019-05-03T09:17:53.000Z</time>
      </trkpt>
      <trkpt lat="41.98224504478275775909423828125" lon="-8.6346106790006160736083984375">
        <ele>24.799999237060546875</ele>
        <time>2019-05-03T09:18:04.000Z</time>
      </trkpt>
      <trkpt lat="41.982436068356037139892578125" lon="-8.634397946298122406005859375">
        <ele>25.200000762939453125</ele>
        <time>2019-05-03T09:18:09.000Z</time>
      </trkpt>
      <trkpt lat="41.982555091381072998046875" lon="-8.6342314817011356353759765625">
        <ele>24.3999996185302734375</ele>
        <time>2019-05-03T09:18:13.000Z</time>
      </trkpt>
      <trkpt lat="41.982625164091587066650390625" lon="-8.6341647617518901824951171875">
        <ele>23.799999237060546875</ele>
        <time>2019-05-03T09:18:15.000Z</time>
      </trkpt>
      <trkpt lat="41.98275784961879253387451171875" lon="-8.63404666073620319366455078125">
        <ele>22.3999996185302734375</ele>
        <time>2019-05-03T09:18:19.000Z</time>
      </trkpt>
      <trkpt lat="41.98300234973430633544921875" lon="-8.63392059691250324249267578125">
        <ele>19.799999237060546875</ele>
        <time>2019-05-03T09:18:26.000Z</time>
      </trkpt>
      <trkpt lat="41.983498223125934600830078125" lon="-8.633631169795989990234375">
        <ele>16.6000003814697265625</ele>
        <time>2019-05-03T09:18:38.000Z</time>
      </trkpt>
      <trkpt lat="41.98397741653025150299072265625" lon="-8.6332554928958415985107421875">
        <ele>15.19999980926513671875</ele>
        <time>2019-05-03T09:18:58.000Z</time>
      </trkpt>
      <trkpt lat="41.98446272872388362884521484375" lon="-8.633441068232059478759765625">
        <ele>17.3999996185302734375</ele>
        <time>2019-05-03T09:19:18.000Z</time>
      </trkpt>
      <trkpt lat="41.98491568677127361297607421875" lon="-8.63385002128779888153076171875">
        <ele>20</ele>
        <time>2019-05-03T09:19:38.000Z</time>
      </trkpt>
      <trkpt lat="41.98540720157325267791748046875" lon="-8.63419233821332454681396484375">
        <ele>23.200000762939453125</ele>
        <time>2019-05-03T09:19:55.000Z</time>
      </trkpt>
      <trkpt lat="41.98567206971347332000732421875" lon="-8.63430448807775974273681640625">
        <ele>24.6000003814697265625</ele>
        <time>2019-05-03T09:20:06.000Z</time>
      </trkpt>
      <trkpt lat="41.98581707663834095001220703125" lon="-8.63448335789144039154052734375">
        <ele>26.200000762939453125</ele>
        <time>2019-05-03T09:20:16.000Z</time>
      </trkpt>
      <trkpt lat="41.9861279614269733428955078125" lon="-8.6346646584570407867431640625">
        <ele>31.3999996185302734375</ele>
        <time>2019-05-03T09:20:37.000Z</time>
      </trkpt>
      <trkpt lat="41.98617565445601940155029296875" lon="-8.63475157879292964935302734375">
        <ele>32.200000762939453125</ele>
        <time>2019-05-03T09:20:44.000Z</time>
      </trkpt>
      <trkpt lat="41.98651059530675411224365234375" lon="-8.63519330509006977081298828125">
        <ele>33.200000762939453125</ele>
        <time>2019-05-03T09:21:16.000Z</time>
      </trkpt>
      <trkpt lat="41.98703647591173648834228515625" lon="-8.635428249835968017578125">
        <ele>33.59999847412109375</ele>
        <time>2019-05-03T09:21:40.000Z</time>
      </trkpt>
      <trkpt lat="41.987571828067302703857421875" lon="-8.6353972367942333221435546875">
        <ele>34.799999237060546875</ele>
        <time>2019-05-03T09:22:03.000Z</time>
      </trkpt>
      <trkpt lat="41.98811254464089870452880859375" lon="-8.63527745939791202545166015625">
        <ele>33</ele>
        <time>2019-05-03T09:22:24.000Z</time>
      </trkpt>
      <trkpt lat="41.9886609725654125213623046875" lon="-8.63506640307605266571044921875">
        <ele>32.799999237060546875</ele>
        <time>2019-05-03T09:22:43.000Z</time>
      </trkpt>
      <trkpt lat="41.9892118312418460845947265625" lon="-8.63494587130844593048095703125">
        <ele>32.40000152587890625</ele>
        <time>2019-05-03T09:22:58.000Z</time>
      </trkpt>
      <trkpt lat="41.9897744245827198028564453125" lon="-8.63501862622797489166259765625">
        <ele>32.59999847412109375</ele>
        <time>2019-05-03T09:23:15.000Z</time>
      </trkpt>
      <trkpt lat="41.99031363241374492645263671875" lon="-8.63511099480092525482177734375">
        <ele>33</ele>
        <time>2019-05-03T09:23:30.000Z</time>
      </trkpt>
      <trkpt lat="41.9906779937446117401123046875" lon="-8.63524275831878185272216796875">
        <ele>32.59999847412109375</ele>
        <time>2019-05-03T09:23:40.000Z</time>
      </trkpt>
      <trkpt lat="41.99125005863606929779052734375" lon="-8.6354197002947330474853515625">
        <ele>29.6000003814697265625</ele>
        <time>2019-05-03T09:23:51.000Z</time>
      </trkpt>
      <trkpt lat="41.9918061979115009307861328125" lon="-8.63551232032477855682373046875">
        <ele>24.6000003814697265625</ele>
        <time>2019-05-03T09:24:06.000Z</time>
      </trkpt>
      <trkpt lat="41.99208036996424198150634765625" lon="-8.63551198504865169525146484375">
        <ele>22.3999996185302734375</ele>
        <time>2019-05-03T09:24:11.000Z</time>
      </trkpt>
      <trkpt lat="41.992670036852359771728515625" lon="-8.6355638690292835235595703125">
        <ele>17.799999237060546875</ele>
        <time>2019-05-03T09:24:19.000Z</time>
      </trkpt>
      <trkpt lat="41.9932217337191104888916015625" lon="-8.635545931756496429443359375">
        <ele>15.19999980926513671875</ele>
        <time>2019-05-03T09:24:27.000Z</time>
      </trkpt>
      <trkpt lat="41.99376546777784824371337890625" lon="-8.6355806328356266021728515625">
        <ele>17</ele>
        <time>2019-05-03T09:24:43.000Z</time>
      </trkpt>
      <trkpt lat="41.99431515298783779144287109375" lon="-8.63569102250039577484130859375">
        <ele>19.799999237060546875</ele>
        <time>2019-05-03T09:25:02.000Z</time>
      </trkpt>
      <trkpt lat="41.99485193006694316864013671875" lon="-8.63586008548736572265625">
        <ele>22.3999996185302734375</ele>
        <time>2019-05-03T09:25:28.000Z</time>
      </trkpt>
      <trkpt lat="41.9948686100542545318603515625" lon="-8.63586771301925182342529296875">
        <ele>22.3999996185302734375</ele>
        <time>2019-05-03T09:25:29.000Z</time>
      </trkpt>
      <trkpt lat="41.9954117573797702789306640625" lon="-8.63582915626466274261474609375">
        <ele>23.6000003814697265625</ele>
        <time>2019-05-03T09:26:00.000Z</time>
      </trkpt>
      <trkpt lat="41.995961777865886688232421875" lon="-8.6357673816382884979248046875">
        <ele>24.6000003814697265625</ele>
        <time>2019-05-03T09:26:20.000Z</time>
      </trkpt>
      <trkpt lat="41.99650232680141925811767578125" lon="-8.63574131391942501068115234375">
        <ele>24.6000003814697265625</ele>
        <time>2019-05-03T09:26:35.000Z</time>
      </trkpt>
      <trkpt lat="41.99706257320940494537353515625" lon="-8.63567124120891094207763671875">
        <ele>24.6000003814697265625</ele>
        <time>2019-05-03T09:26:50.000Z</time>
      </trkpt>
      <trkpt lat="41.9976143538951873779296875" lon="-8.63575338385999202728271484375">
        <ele>25.3999996185302734375</ele>
        <time>2019-05-03T09:27:04.000Z</time>
      </trkpt>
      <trkpt lat="41.998163200914859771728515625" lon="-8.63581540994346141815185546875">
        <ele>26.200000762939453125</ele>
        <time>2019-05-03T09:27:18.000Z</time>
      </trkpt>
      <trkpt lat="41.9985184259712696075439453125" lon="-8.63588581793010234832763671875">
        <ele>26.3999996185302734375</ele>
        <time>2019-05-03T09:27:26.000Z</time>
      </trkpt>
      <trkpt lat="41.99880030937492847442626953125" lon="-8.63594792783260345458984375">
        <ele>26.200000762939453125</ele>
        <time>2019-05-03T09:27:33.000Z</time>
      </trkpt>
      <trkpt lat="41.99903349392116069793701171875" lon="-8.63605194725096225738525390625">
        <ele>26</ele>
        <time>2019-05-03T09:27:39.000Z</time>
      </trkpt>
      <trkpt lat="41.99930858798325061798095703125" lon="-8.63613576628267765045166015625">
        <ele>25</ele>
        <time>2019-05-03T09:27:45.000Z</time>
      </trkpt>
      <trkpt lat="41.9994461350142955780029296875" lon="-8.6361734010279178619384765625">
        <ele>24.3999996185302734375</ele>
        <time>2019-05-03T09:27:48.000Z</time>
      </trkpt>
      <trkpt lat="41.99961016885936260223388671875" lon="-8.6362625844776630401611328125">
        <ele>23.6000003814697265625</ele>
        <time>2019-05-03T09:27:52.000Z</time>
      </trkpt>
      <trkpt lat="41.9997788965702056884765625" lon="-8.63630441017448902130126953125">
        <ele>23</ele>
        <time>2019-05-03T09:27:56.000Z</time>
      </trkpt>
      <trkpt lat="42.00009698979556560516357421875" lon="-8.63637481816112995147705078125">
        <ele>22.6000003814697265625</ele>
        <time>2019-05-03T09:28:03.000Z</time>
      </trkpt>
      <trkpt lat="42.00064533390104770660400390625" lon="-8.63650674931704998016357421875">
        <ele>22.3999996185302734375</ele>
        <time>2019-05-03T09:28:14.000Z</time>
      </trkpt>
      <trkpt lat="42.00118110515177249908447265625" lon="-8.63665292970836162567138671875">
        <ele>22.200000762939453125</ele>
        <time>2019-05-03T09:28:26.000Z</time>
      </trkpt>
      <trkpt lat="42.00172148644924163818359375" lon="-8.6368342302739620208740234375">
        <ele>22.200000762939453125</ele>
        <time>2019-05-03T09:28:37.000Z</time>
      </trkpt>
      <trkpt lat="42.00220520608127117156982421875" lon="-8.63705693744122982025146484375">
        <ele>22.799999237060546875</ele>
        <time>2019-05-03T09:28:47.000Z</time>
      </trkpt>
      <trkpt lat="42.00254224240779876708984375" lon="-8.637557588517665863037109375">
        <ele>22.200000762939453125</ele>
        <time>2019-05-03T09:29:02.000Z</time>
      </trkpt>
      <trkpt lat="42.0031034946441650390625" lon="-8.6374782957136631011962890625">
        <ele>22.200000762939453125</ele>
        <time>2019-05-03T09:29:16.000Z</time>
      </trkpt>
      <trkpt lat="42.00354396365582942962646484375" lon="-8.63736170344054698944091796875">
        <ele>22</ele>
        <time>2019-05-03T09:29:29.000Z</time>
      </trkpt>
      <trkpt lat="42.00362526811659336090087890625" lon="-8.63758097402751445770263671875">
        <ele>22.3999996185302734375</ele>
        <time>2019-05-03T09:29:34.000Z</time>
      </trkpt>
      <trkpt lat="42.0036427862942218780517578125" lon="-8.63767652772367000579833984375">
        <ele>22.3999996185302734375</ele>
        <time>2019-05-03T09:29:36.000Z</time>
      </trkpt>
      <trkpt lat="42.00383096002042293548583984375" lon="-8.6377260647714138031005859375">
        <ele>22.799999237060546875</ele>
        <time>2019-05-03T09:29:41.000Z</time>
      </trkpt>
      <trkpt lat="42.00398795306682586669921875" lon="-8.63771843723952770233154296875">
        <ele>23</ele>
        <time>2019-05-03T09:29:45.000Z</time>
      </trkpt>
      <trkpt lat="42.0045440085232257843017578125" lon="-8.63769295625388622283935546875">
        <ele>21.799999237060546875</ele>
        <time>2019-05-03T09:29:59.000Z</time>
      </trkpt>
      <trkpt lat="42.00511892326176166534423828125" lon="-8.63766479305922985076904296875">
        <ele>21.6000003814697265625</ele>
        <time>2019-05-03T09:30:14.000Z</time>
      </trkpt>
      <trkpt lat="42.00569274835288524627685546875" lon="-8.63763109780848026275634765625">
        <ele>23.6000003814697265625</ele>
        <time>2019-05-03T09:30:28.000Z</time>
      </trkpt>
      <trkpt lat="42.00573968701064586639404296875" lon="-8.63762238062918186187744140625">
        <ele>23.799999237060546875</ele>
        <time>2019-05-03T09:30:29.000Z</time>
      </trkpt>
      <trkpt lat="42.00630965642631053924560546875" lon="-8.637590445578098297119140625">
        <ele>23.3999996185302734375</ele>
        <time>2019-05-03T09:30:44.000Z</time>
      </trkpt>
      <trkpt lat="42.0068835653364658355712890625" lon="-8.6375557444989681243896484375">
        <ele>23.3999996185302734375</ele>
        <time>2019-05-03T09:31:00.000Z</time>
      </trkpt>
      <trkpt lat="42.00745311565697193145751953125" lon="-8.6375202052295207977294921875">
        <ele>23.3999996185302734375</ele>
        <time>2019-05-03T09:31:14.000Z</time>
      </trkpt>
      <trkpt lat="42.0080037228763103485107421875" lon="-8.63749179057776927947998046875">
        <ele>24</ele>
        <time>2019-05-03T09:31:28.000Z</time>
      </trkpt>
      <trkpt lat="42.00848392210900783538818359375" lon="-8.63746630959212779998779296875">
        <ele>23.799999237060546875</ele>
        <time>2019-05-03T09:31:40.000Z</time>
      </trkpt>
      <trkpt lat="42.00878240168094635009765625" lon="-8.63744862377643585205078125">
        <ele>23</ele>
        <time>2019-05-03T09:31:47.000Z</time>
      </trkpt>
      <trkpt lat="42.0089039392769336700439453125" lon="-8.637540824711322784423828125">
        <ele>22.6000003814697265625</ele>
        <time>2019-05-03T09:31:55.000Z</time>
      </trkpt>
      <trkpt lat="42.00888927094638347625732421875" lon="-8.63763495348393917083740234375">
        <ele>22.6000003814697265625</ele>
        <time>2019-05-03T09:33:20.000Z</time>
      </trkpt>
      <trkpt lat="42.00889748521149158477783203125" lon="-8.637662865221500396728515625">
        <ele>22.3999996185302734375</ele>
        <time>2019-05-03T09:33:21.000Z</time>
      </trkpt>
      <trkpt lat="42.0092268101871013641357421875" lon="-8.63829896785318851470947265625">
        <ele>22.799999237060546875</ele>
        <time>2019-05-03T09:33:37.000Z</time>
      </trkpt>
      <trkpt lat="42.00933761894702911376953125" lon="-8.63851589150726795196533203125">
        <ele>22.3999996185302734375</ele>
        <time>2019-05-03T09:33:41.000Z</time>
      </trkpt>
      <trkpt lat="42.00941984541714191436767578125" lon="-8.6387791670858860015869140625">
        <ele>21.6000003814697265625</ele>
        <time>2019-05-03T09:33:46.000Z</time>
      </trkpt>
      <trkpt lat="42.00955219566822052001953125" lon="-8.63922432996332645416259765625">
        <ele>20.200000762939453125</ele>
        <time>2019-05-03T09:33:54.000Z</time>
      </trkpt>
      <trkpt lat="42.0095852203667163848876953125" lon="-8.6394044570624828338623046875">
        <ele>19.799999237060546875</ele>
        <time>2019-05-03T09:33:57.000Z</time>
      </trkpt>
      <trkpt lat="42.00955864973366260528564453125" lon="-8.64017517305910587310791015625">
        <ele>18.799999237060546875</ele>
        <time>2019-05-03T09:34:10.000Z</time>
      </trkpt>
      <trkpt lat="42.0094115473330020904541015625" lon="-8.64091328345239162445068359375">
        <ele>17.3999996185302734375</ele>
        <time>2019-05-03T09:34:21.000Z</time>
      </trkpt>
      <trkpt lat="42.00937944464385509490966796875" lon="-8.64125962369143962860107421875">
        <ele>17.200000762939453125</ele>
        <time>2019-05-03T09:34:26.000Z</time>
      </trkpt>
      <trkpt lat="42.0094283111393451690673828125" lon="-8.64150320179760456085205078125">
        <ele>17.200000762939453125</ele>
        <time>2019-05-03T09:34:30.000Z</time>
      </trkpt>
      <trkpt lat="42.00951908715069293975830078125" lon="-8.6417570896446704864501953125">
        <ele>16.200000762939453125</ele>
        <time>2019-05-03T09:34:35.000Z</time>
      </trkpt>
      <trkpt lat="42.00958899222314357757568359375" lon="-8.64200511015951633453369140625">
        <ele>15.6000003814697265625</ele>
        <time>2019-05-03T09:34:40.000Z</time>
      </trkpt>
      <trkpt lat="42.00962889008224010467529296875" lon="-8.6421941220760345458984375">
        <ele>15.3999996185302734375</ele>
        <time>2019-05-03T09:34:44.000Z</time>
      </trkpt>
      <trkpt lat="42.00981597416102886199951171875" lon="-8.64287347532808780670166015625">
        <ele>13.6000003814697265625</ele>
        <time>2019-05-03T09:35:00.000Z</time>
      </trkpt>
      <trkpt lat="42.01009676791727542877197265625" lon="-8.6430006287992000579833984375">
        <ele>12.19999980926513671875</ele>
        <time>2019-05-03T09:35:08.000Z</time>
      </trkpt>
      <trkpt lat="42.0103285275399684906005859375" lon="-8.6428839527070522308349609375">
        <ele>11</ele>
        <time>2019-05-03T09:35:13.000Z</time>
      </trkpt>
      <trkpt lat="42.01086354441940784454345703125" lon="-8.64258916117250919342041015625">
        <ele>9.6000003814697265625</ele>
        <time>2019-05-03T09:35:26.000Z</time>
      </trkpt>
      <trkpt lat="42.01138758100569248199462890625" lon="-8.6425630934536457061767578125">
        <ele>11</ele>
        <time>2019-05-03T09:35:43.000Z</time>
      </trkpt>
      <trkpt lat="42.01180525124073028564453125" lon="-8.64305905066430568695068359375">
        <ele>11.3999996185302734375</ele>
        <time>2019-05-03T09:35:58.000Z</time>
      </trkpt>
      <trkpt lat="42.012261562049388885498046875" lon="-8.64343992434442043304443359375">
        <ele>14</ele>
        <time>2019-05-03T09:36:15.000Z</time>
      </trkpt>
      <trkpt lat="42.01278685592114925384521484375" lon="-8.64327010698616504669189453125">
        <ele>17</ele>
        <time>2019-05-03T09:36:37.000Z</time>
      </trkpt>
      <trkpt lat="42.0132041908800601959228515625" lon="-8.64323741756379604339599609375">
        <ele>20</ele>
        <time>2019-05-03T09:37:00.000Z</time>
      </trkpt>
      <trkpt lat="42.0132945477962493896484375" lon="-8.64328267984092235565185546875">
        <ele>20.6000003814697265625</ele>
        <time>2019-05-03T09:37:04.000Z</time>
      </trkpt>
      <trkpt lat="42.01381690800189971923828125" lon="-8.64311789162456989288330078125">
        <ele>21.200000762939453125</ele>
        <time>2019-05-03T09:37:23.000Z</time>
      </trkpt>
      <trkpt lat="42.01434840448200702667236328125" lon="-8.64301613532006740570068359375">
        <ele>22.3999996185302734375</ele>
        <time>2019-05-03T09:37:42.000Z</time>
      </trkpt>
      <trkpt lat="42.0148825831711292266845703125" lon="-8.643154688179492950439453125">
        <ele>24</ele>
        <time>2019-05-03T09:38:05.000Z</time>
      </trkpt>
      <trkpt lat="42.0149509795010089874267578125" lon="-8.64328586496412754058837890625">
        <ele>24</ele>
        <time>2019-05-03T09:38:10.000Z</time>
      </trkpt>
      <trkpt lat="42.01546051539480686187744140625" lon="-8.64352525211870670318603515625">
        <ele>22.6000003814697265625</ele>
        <time>2019-05-03T09:38:27.000Z</time>
      </trkpt>
      <trkpt lat="42.0160164870321750640869140625" lon="-8.6436802335083484649658203125">
        <ele>22.3999996185302734375</ele>
        <time>2019-05-03T09:38:41.000Z</time>
      </trkpt>
      <trkpt lat="42.0165421999990940093994140625" lon="-8.6435796506702899932861328125">
        <ele>23</ele>
        <time>2019-05-03T09:38:58.000Z</time>
      </trkpt>
      <trkpt lat="42.01710487715899944305419921875" lon="-8.64353111945092678070068359375">
        <ele>23</ele>
        <time>2019-05-03T09:39:12.000Z</time>
      </trkpt>
      <trkpt lat="42.017666213214397430419921875" lon="-8.64350245334208011627197265625">
        <ele>23.3999996185302734375</ele>
        <time>2019-05-03T09:39:25.000Z</time>
      </trkpt>
      <trkpt lat="42.01821179129183292388916015625" lon="-8.64347881637513637542724609375">
        <ele>24</ele>
        <time>2019-05-03T09:39:38.000Z</time>
      </trkpt>
      <trkpt lat="42.018785364925861358642578125" lon="-8.64353346638381481170654296875">
        <ele>24</ele>
        <time>2019-05-03T09:39:51.000Z</time>
      </trkpt>
      <trkpt lat="42.01935298740863800048828125" lon="-8.643680401146411895751953125">
        <ele>24.6000003814697265625</ele>
        <time>2019-05-03T09:40:04.000Z</time>
      </trkpt>
      <trkpt lat="42.01990778557956218719482421875" lon="-8.64385650493204593658447265625">
        <ele>25.3999996185302734375</ele>
        <time>2019-05-03T09:40:18.000Z</time>
      </trkpt>
      <trkpt lat="42.02043794095516204833984375" lon="-8.6440503783524036407470703125">
        <ele>28.6000003814697265625</ele>
        <time>2019-05-03T09:40:31.000Z</time>
      </trkpt>
      <trkpt lat="42.0209732092916965484619140625" lon="-8.6442030966281890869140625">
        <ele>29.799999237060546875</ele>
        <time>2019-05-03T09:40:48.000Z</time>
      </trkpt>
      <trkpt lat="42.02112081460654735565185546875" lon="-8.64424508996307849884033203125">
        <ele>30.3999996185302734375</ele>
        <time>2019-05-03T09:40:54.000Z</time>
      </trkpt>
      <trkpt lat="42.02145391143858432769775390625" lon="-8.64368475973606109619140625">
        <ele>31.6000003814697265625</ele>
        <time>2019-05-03T09:41:14.000Z</time>
      </trkpt>
      <trkpt lat="42.021801173686981201171875" lon="-8.64309157244861125946044921875">
        <ele>32.200000762939453125</ele>
        <time>2019-05-03T09:41:33.000Z</time>
      </trkpt>
      <trkpt lat="42.0221171714365482330322265625" lon="-8.6424779333174228668212890625">
        <ele>32.799999237060546875</ele>
        <time>2019-05-03T09:41:54.000Z</time>
      </trkpt>
      <trkpt lat="42.0225325785577297210693359375" lon="-8.64204190671443939208984375">
        <ele>34.59999847412109375</ele>
        <time>2019-05-03T09:42:13.000Z</time>
      </trkpt>
      <trkpt lat="42.02257960103452205657958984375" lon="-8.642023466527462005615234375">
        <ele>35</ele>
        <time>2019-05-03T09:42:15.000Z</time>
      </trkpt>
      <trkpt lat="42.02273785136640071868896484375" lon="-8.64196940325200557708740234375">
        <ele>36.200000762939453125</ele>
        <time>2019-05-03T09:42:22.000Z</time>
      </trkpt>
      <trkpt lat="42.02280859462916851043701171875" lon="-8.6420886777341365814208984375">
        <ele>36.59999847412109375</ele>
        <time>2019-05-03T09:42:26.000Z</time>
      </trkpt>
      <trkpt lat="42.0227853767573833465576171875" lon="-8.6423153243958950042724609375">
        <ele>36</ele>
        <time>2019-05-03T09:42:30.000Z</time>
      </trkpt>
      <trkpt lat="42.02278663404285907745361328125" lon="-8.6430846154689788818359375">
        <ele>38.799999237060546875</ele>
        <time>2019-05-03T09:42:43.000Z</time>
      </trkpt>
      <trkpt lat="42.022797279059886932373046875" lon="-8.6438331194221973419189453125">
        <ele>40</ele>
        <time>2019-05-03T09:42:56.000Z</time>
      </trkpt>
      <trkpt lat="42.0228002965450286865234375" lon="-8.64420653320848941802978515625">
        <ele>39.200000762939453125</ele>
        <time>2019-05-03T09:43:02.000Z</time>
      </trkpt>
      <trkpt lat="42.02279233373701572418212890625" lon="-8.64467055536806583404541015625">
        <ele>38.200000762939453125</ele>
        <time>2019-05-03T09:43:11.000Z</time>
      </trkpt>
      <trkpt lat="42.022782862186431884765625" lon="-8.64540732465684413909912109375">
        <ele>37.59999847412109375</ele>
        <time>2019-05-03T09:43:24.000Z</time>
      </trkpt>
      <trkpt lat="42.02274707145988941192626953125" lon="-8.64613705314695835113525390625">
        <ele>37.40000152587890625</ele>
        <time>2019-05-03T09:43:39.000Z</time>
      </trkpt>
      <trkpt lat="42.02271739952266216278076171875" lon="-8.64633386023342609405517578125">
        <ele>37.200000762939453125</ele>
        <time>2019-05-03T09:43:43.000Z</time>
      </trkpt>
      <trkpt lat="42.02251187525689601898193359375" lon="-8.6470148898661136627197265625">
        <ele>35.40000152587890625</ele>
        <time>2019-05-03T09:43:55.000Z</time>
      </trkpt>
      <trkpt lat="42.022337280213832855224609375" lon="-8.64746399223804473876953125">
        <ele>34.59999847412109375</ele>
        <time>2019-05-03T09:44:03.000Z</time>
      </trkpt>
      <trkpt lat="42.02226595021784305572509765625" lon="-8.64762492477893829345703125">
        <ele>34.40000152587890625</ele>
        <time>2019-05-03T09:44:06.000Z</time>
      </trkpt>
      <trkpt lat="42.02244465239346027374267578125" lon="-8.64782718010246753692626953125">
        <ele>36.799999237060546875</ele>
        <time>2019-05-03T09:44:15.000Z</time>
      </trkpt>
      <trkpt lat="42.02299182303249835968017578125" lon="-8.647834472358226776123046875">
        <ele>44</ele>
        <time>2019-05-03T09:44:44.000Z</time>
      </trkpt>
      <trkpt lat="42.02351300977170467376708984375" lon="-8.6476706899702548980712890625">
        <ele>49.40000152587890625</ele>
        <time>2019-05-03T09:45:14.000Z</time>
      </trkpt>
      <trkpt lat="42.02400536276400089263916015625" lon="-8.6473354138433933258056640625">
        <ele>53.799999237060546875</ele>
        <time>2019-05-03T09:45:47.000Z</time>
      </trkpt>
      <trkpt lat="42.02448916621506214141845703125" lon="-8.64700742997229099273681640625">
        <ele>55.59999847412109375</ele>
        <time>2019-05-03T09:46:15.000Z</time>
      </trkpt>
      <trkpt lat="42.02486065216362476348876953125" lon="-8.6469273827970027923583984375">
        <ele>56.799999237060546875</ele>
        <time>2019-05-03T09:46:38.000Z</time>
      </trkpt>
      <trkpt lat="42.02521520666778087615966796875" lon="-8.64736609160900115966796875">
        <ele>60</ele>
        <time>2019-05-03T09:47:02.000Z</time>
      </trkpt>
      <trkpt lat="42.02571518719196319580078125" lon="-8.64705705083906650543212890625">
        <ele>62.40000152587890625</ele>
        <time>2019-05-03T09:47:28.000Z</time>
      </trkpt>
      <trkpt lat="42.026218436658382415771484375" lon="-8.64673870615661144256591796875">
        <ele>66</ele>
        <time>2019-05-03T09:47:55.000Z</time>
      </trkpt>
      <trkpt lat="42.02643536031246185302734375" lon="-8.646652288734912872314453125">
        <ele>68</ele>
        <time>2019-05-03T09:48:11.000Z</time>
      </trkpt>
      <trkpt lat="42.02645891346037387847900390625" lon="-8.64660442806780338287353515625">
        <ele>68.1999969482421875</ele>
        <time>2019-05-03T09:58:34.000Z</time>
      </trkpt>
      <trkpt lat="42.02652948908507823944091796875" lon="-8.6464559845626354217529296875">
        <ele>69</ele>
        <time>2019-05-03T09:58:39.000Z</time>
      </trkpt>
      <trkpt lat="42.0265981368720531463623046875" lon="-8.6462618596851825714111328125">
        <ele>69.8000030517578125</ele>
        <time>2019-05-03T09:58:45.000Z</time>
      </trkpt>
      <trkpt lat="42.026912458240985870361328125" lon="-8.645697422325611114501953125">
        <ele>72.8000030517578125</ele>
        <time>2019-05-03T09:59:07.000Z</time>
      </trkpt>
      <trkpt lat="42.0269655995070934295654296875" lon="-8.64564436487853527069091796875">
        <ele>73.1999969482421875</ele>
        <time>2019-05-03T09:59:11.000Z</time>
      </trkpt>
      <trkpt lat="42.02708353288471698760986328125" lon="-8.6456804908812046051025390625">
        <ele>73.8000030517578125</ele>
        <time>2019-05-03T09:59:20.000Z</time>
      </trkpt>
      <trkpt lat="42.02710364945232868194580078125" lon="-8.64568107761442661285400390625">
        <ele>74</ele>
        <time>2019-05-03T09:59:46.000Z</time>
      </trkpt>
      <trkpt lat="42.0271347463130950927734375" lon="-8.64567722193896770477294921875">
        <ele>74.1999969482421875</ele>
        <time>2019-05-03T09:59:48.000Z</time>
      </trkpt>
      <trkpt lat="42.02722568996250629425048828125" lon="-8.64570370875298976898193359375">
        <ele>74.59999847412109375</ele>
        <time>2019-05-03T09:59:53.000Z</time>
      </trkpt>
      <trkpt lat="42.027287967503070831298828125" lon="-8.645679652690887451171875">
        <ele>75</ele>
        <time>2019-05-03T09:59:59.000Z</time>
      </trkpt>
      <trkpt lat="42.02730967663228511810302734375" lon="-8.64570840261876583099365234375">
        <ele>75</ele>
        <time>2019-05-03T10:00:08.000Z</time>
      </trkpt>
      <trkpt lat="42.027340270578861236572265625" lon="-8.64573757164180278778076171875">
        <ele>75.1999969482421875</ele>
        <time>2019-05-03T10:00:10.000Z</time>
      </trkpt>
      <trkpt lat="42.0274369977414608001708984375" lon="-8.64574042148888111114501953125">
        <ele>75.59999847412109375</ele>
        <time>2019-05-03T10:00:14.000Z</time>
      </trkpt>
      <trkpt lat="42.02772684395313262939453125" lon="-8.64573539234697818756103515625">
        <ele>75</ele>
        <time>2019-05-03T10:00:27.000Z</time>
      </trkpt>
      <trkpt lat="42.027776129543781280517578125" lon="-8.64558108150959014892578125">
        <ele>75.1999969482421875</ele>
        <time>2019-05-03T10:00:33.000Z</time>
      </trkpt>
      <trkpt lat="42.02818323858082294464111328125" lon="-8.645148575305938720703125">
        <ele>75</ele>
        <time>2019-05-03T10:00:57.000Z</time>
      </trkpt>
      <trkpt lat="42.02828700654208660125732421875" lon="-8.6451460607349872589111328125">
        <ele>74.8000030517578125</ele>
        <time>2019-05-03T10:01:01.000Z</time>
      </trkpt>
      <trkpt lat="42.02832824550569057464599609375" lon="-8.64518755115568637847900390625">
        <ele>74.8000030517578125</ele>
        <time>2019-05-03T10:01:05.000Z</time>
      </trkpt>
      <trkpt lat="42.02837116084992885589599609375" lon="-8.6452593840658664703369140625">
        <ele>74.59999847412109375</ele>
        <time>2019-05-03T10:01:24.000Z</time>
      </trkpt>
      <trkpt lat="42.02838172204792499542236328125" lon="-8.64529986865818500518798828125">
        <ele>74.59999847412109375</ele>
        <time>2019-05-03T10:01:28.000Z</time>
      </trkpt>
      <trkpt lat="42.02836814336478710174560546875" lon="-8.64528075791895389556884765625">
        <ele>74.59999847412109375</ele>
        <time>2019-05-03T10:01:41.000Z</time>
      </trkpt>
      <trkpt lat="42.02836948446929454803466796875" lon="-8.64522225223481655120849609375">
        <ele>74.59999847412109375</ele>
        <time>2019-05-03T10:01:47.000Z</time>
      </trkpt>
      <trkpt lat="42.02837233431637287139892578125" lon="-8.64522761665284633636474609375">
        <ele>74.59999847412109375</ele>
        <time>2019-05-03T10:01:49.000Z</time>
      </trkpt>
      <trkpt lat="42.02840552665293216705322265625" lon="-8.6451780796051025390625">
        <ele>74.59999847412109375</ele>
        <time>2019-05-03T10:02:42.000Z</time>
      </trkpt>
      <trkpt lat="42.02849705703556537628173828125" lon="-8.64509828388690948486328125">
        <ele>74</ele>
        <time>2019-05-03T10:02:47.000Z</time>
      </trkpt>
      <trkpt lat="42.0290335826575756072998046875" lon="-8.64489334635436534881591796875">
        <ele>71.8000030517578125</ele>
        <time>2019-05-03T10:03:06.000Z</time>
      </trkpt>
      <trkpt lat="42.0294013805687427520751953125" lon="-8.6449539475142955780029296875">
        <ele>71.40000152587890625</ele>
        <time>2019-05-03T10:03:20.000Z</time>
      </trkpt>
      <trkpt lat="42.02942107804119586944580078125" lon="-8.6449254490435123443603515625">
        <ele>71.40000152587890625</ele>
        <time>2019-05-03T10:04:05.000Z</time>
      </trkpt>
      <trkpt lat="42.02939073555171489715576171875" lon="-8.6449341662228107452392578125">
        <ele>71.40000152587890625</ele>
        <time>2019-05-03T10:04:09.000Z</time>
      </trkpt>
      <trkpt lat="42.02934547327458858489990234375" lon="-8.645138852298259735107421875">
        <ele>72.40000152587890625</ele>
        <time>2019-05-03T10:04:15.000Z</time>
      </trkpt>
      <trkpt lat="42.029186971485614776611328125" lon="-8.6456077359616756439208984375">
        <ele>71.40000152587890625</ele>
        <time>2019-05-03T10:04:26.000Z</time>
      </trkpt>
      <trkpt lat="42.02866016887128353118896484375" lon="-8.6458246596157550811767578125">
        <ele>72.8000030517578125</ele>
        <time>2019-05-03T10:04:41.000Z</time>
      </trkpt>
      <trkpt lat="42.02853695489466190338134765625" lon="-8.64588224329054355621337890625">
        <ele>73.1999969482421875</ele>
        <time>2019-05-03T10:04:49.000Z</time>
      </trkpt>
      <trkpt lat="42.02849035151302814483642578125" lon="-8.64587076008319854736328125">
        <ele>73.40000152587890625</ele>
        <time>2019-05-03T10:05:02.000Z</time>
      </trkpt>
      <trkpt lat="42.02835087664425373077392578125" lon="-8.64531629718840122222900390625">
        <ele>74.59999847412109375</ele>
        <time>2019-05-03T10:05:22.000Z</time>
      </trkpt>
      <trkpt lat="42.02833612449467182159423828125" lon="-8.6451588012278079986572265625">
        <ele>74.59999847412109375</ele>
        <time>2019-05-03T10:05:29.000Z</time>
      </trkpt>
      <trkpt lat="42.02843226492404937744140625" lon="-8.64510633051395416259765625">
        <ele>74.1999969482421875</ele>
        <time>2019-05-03T10:05:33.000Z</time>
      </trkpt>
      <trkpt lat="42.0287703908979892730712890625" lon="-8.64496677182614803314208984375">
        <ele>72.59999847412109375</ele>
        <time>2019-05-03T10:05:46.000Z</time>
      </trkpt>
      <trkpt lat="42.02876812778413295745849609375" lon="-8.64496492780745029449462890625">
        <ele>72.59999847412109375</ele>
        <time>2019-05-03T10:05:47.000Z</time>
      </trkpt>
      <trkpt lat="42.02879142947494983673095703125" lon="-8.6449299752712249755859375">
        <ele>72.40000152587890625</ele>
        <time>2019-05-03T10:06:28.000Z</time>
      </trkpt>
      <trkpt lat="42.02897868119180202484130859375" lon="-8.64486895501613616943359375">
        <ele>71.8000030517578125</ele>
        <time>2019-05-03T10:06:40.000Z</time>
      </trkpt>
      <trkpt lat="42.0290054194629192352294921875" lon="-8.64488194696605205535888671875">
        <ele>71.8000030517578125</ele>
        <time>2019-05-03T10:06:42.000Z</time>
      </trkpt>
      <trkpt lat="42.0295368321239948272705078125" lon="-8.64484707824885845184326171875">
        <ele>70.8000030517578125</ele>
        <time>2019-05-03T10:07:05.000Z</time>
      </trkpt>
      <trkpt lat="42.0295619778335094451904296875" lon="-8.64483668468892574310302734375">
        <ele>70.8000030517578125</ele>
        <time>2019-05-03T10:07:08.000Z</time>
      </trkpt>
      <trkpt lat="42.0295862853527069091796875" lon="-8.64482360891997814178466796875">
        <ele>70.59999847412109375</ele>
        <time>2019-05-03T10:07:10.000Z</time>
      </trkpt>
      <trkpt lat="42.030131109058856964111328125" lon="-8.64467642270028591156005859375">
        <ele>70</ele>
        <time>2019-05-03T10:07:41.000Z</time>
      </trkpt>
      <trkpt lat="42.03018517233431339263916015625" lon="-8.6446662805974483489990234375">
        <ele>70.1999969482421875</ele>
        <time>2019-05-03T10:07:46.000Z</time>
      </trkpt>
      <trkpt lat="42.030196152627468109130859375" lon="-8.64465446211397647857666015625">
        <ele>70</ele>
        <time>2019-05-03T10:08:01.000Z</time>
      </trkpt>
      <trkpt lat="42.03021316789090633392333984375" lon="-8.64407761953771114349365234375">
        <ele>65.40000152587890625</ele>
        <time>2019-05-03T10:08:16.000Z</time>
      </trkpt>
      <trkpt lat="42.0302139222621917724609375" lon="-8.64407661370933055877685546875">
        <ele>65.40000152587890625</ele>
        <time>2019-05-03T10:08:18.000Z</time>
      </trkpt>
      <trkpt lat="42.03016421757638454437255859375" lon="-8.64414199255406856536865234375">
        <ele>66</ele>
        <time>2019-05-03T10:12:40.000Z</time>
      </trkpt>
      <trkpt lat="42.030224315822124481201171875" lon="-8.6445469222962856292724609375">
        <ele>69.59999847412109375</ele>
        <time>2019-05-03T10:13:09.000Z</time>
      </trkpt>
      <trkpt lat="42.0302462764084339141845703125" lon="-8.6445556394755840301513671875">
        <ele>69.8000030517578125</ele>
        <time>2019-05-03T10:13:41.000Z</time>
      </trkpt>
      <trkpt lat="42.030518017709255218505859375" lon="-8.64462831057608127593994140625">
        <ele>70.59999847412109375</ele>
        <time>2019-05-03T10:13:53.000Z</time>
      </trkpt>
      <trkpt lat="42.03057526610791683197021484375" lon="-8.64489636383950710296630859375">
        <ele>70.8000030517578125</ele>
        <time>2019-05-03T10:14:04.000Z</time>
      </trkpt>
      <trkpt lat="42.0306667126715183258056640625" lon="-8.644966185092926025390625">
        <ele>70.8000030517578125</ele>
        <time>2019-05-03T10:14:09.000Z</time>
      </trkpt>
      <trkpt lat="42.03070049174129962921142578125" lon="-8.6449800990521907806396484375">
        <ele>70.8000030517578125</ele>
        <time>2019-05-03T10:14:12.000Z</time>
      </trkpt>
      <trkpt lat="42.030754387378692626953125" lon="-8.644983954727649688720703125">
        <ele>70.8000030517578125</ele>
        <time>2019-05-03T10:14:16.000Z</time>
      </trkpt>
      <trkpt lat="42.0313164778053760528564453125" lon="-8.64514731802046298980712890625">
        <ele>70.8000030517578125</ele>
        <time>2019-05-03T10:14:43.000Z</time>
      </trkpt>
      <trkpt lat="42.031464166939258575439453125" lon="-8.645186126232147216796875">
        <ele>71</ele>
        <time>2019-05-03T10:14:48.000Z</time>
      </trkpt>
      <trkpt lat="42.031554020941257476806640625" lon="-8.645211271941661834716796875">
        <ele>70.59999847412109375</ele>
        <time>2019-05-03T10:14:52.000Z</time>
      </trkpt>
      <trkpt lat="42.03174789436161518096923828125" lon="-8.64521923474967479705810546875">
        <ele>70.1999969482421875</ele>
        <time>2019-05-03T10:15:03.000Z</time>
      </trkpt>
      <trkpt lat="42.031903378665447235107421875" lon="-8.6452721245586872100830078125">
        <ele>69.1999969482421875</ele>
        <time>2019-05-03T10:15:08.000Z</time>
      </trkpt>
      <trkpt lat="42.0324275828897953033447265625" lon="-8.6455393396317958831787109375">
        <ele>66.40000152587890625</ele>
        <time>2019-05-03T10:15:25.000Z</time>
      </trkpt>
      <trkpt lat="42.03246295452117919921875" lon="-8.64553959108889102935791015625">
        <ele>65.8000030517578125</ele>
        <time>2019-05-03T10:15:27.000Z</time>
      </trkpt>
      <trkpt lat="42.03270728699862957000732421875" lon="-8.64514254033565521240234375">
        <ele>63.799999237060546875</ele>
        <time>2019-05-03T10:15:46.000Z</time>
      </trkpt>
      <trkpt lat="42.03277476131916046142578125" lon="-8.645058386027812957763671875">
        <ele>61.799999237060546875</ele>
        <time>2019-05-03T10:15:55.000Z</time>
      </trkpt>
      <trkpt lat="42.0329549722373485565185546875" lon="-8.64510725252330303192138671875">
        <ele>59.200000762939453125</ele>
        <time>2019-05-03T10:16:14.000Z</time>
      </trkpt>
      <trkpt lat="42.03334297053515911102294921875" lon="-8.6448724754154682159423828125">
        <ele>50</ele>
        <time>2019-05-03T10:16:52.000Z</time>
      </trkpt>
      <trkpt lat="42.0332570560276508331298828125" lon="-8.644814975559711456298828125">
        <ele>51.40000152587890625</ele>
        <time>2019-05-03T10:16:56.000Z</time>
      </trkpt>
      <trkpt lat="42.03327440656721591949462890625" lon="-8.6448275484144687652587890625">
        <ele>51</ele>
        <time>2019-05-03T10:16:58.000Z</time>
      </trkpt>
      <trkpt lat="42.0336124487221240997314453125" lon="-8.64495201967656612396240234375">
        <ele>43.799999237060546875</ele>
        <time>2019-05-03T10:17:11.000Z</time>
      </trkpt>
      <trkpt lat="42.03368897549808025360107421875" lon="-8.64480718038976192474365234375">
        <ele>41</ele>
        <time>2019-05-03T10:17:23.000Z</time>
      </trkpt>
      <trkpt lat="42.0338230021297931671142578125" lon="-8.64469385705888271331787109375">
        <ele>36.799999237060546875</ele>
        <time>2019-05-03T10:17:53.000Z</time>
      </trkpt>
      <trkpt lat="42.034161128103733062744140625" lon="-8.64438372664153575897216796875">
        <ele>27.3999996185302734375</ele>
        <time>2019-05-03T10:18:31.000Z</time>
      </trkpt>
      <trkpt lat="42.034233547747135162353515625" lon="-8.6444000713527202606201171875">
        <ele>26.799999237060546875</ele>
        <time>2019-05-03T10:18:42.000Z</time>
      </trkpt>
      <trkpt lat="42.03428224660456180572509765625" lon="-8.64447073079645633697509765625">
        <ele>26.3999996185302734375</ele>
        <time>2019-05-03T10:18:46.000Z</time>
      </trkpt>
      <trkpt lat="42.03429264016449451446533203125" lon="-8.64447064697742462158203125">
        <ele>26.3999996185302734375</ele>
        <time>2019-05-03T10:18:48.000Z</time>
      </trkpt>
      <trkpt lat="42.034322060644626617431640625" lon="-8.64446905441582202911376953125">
        <ele>26</ele>
        <time>2019-05-03T10:19:14.000Z</time>
      </trkpt>
      <trkpt lat="42.03472246415913105010986328125" lon="-8.64499292336404323577880859375">
        <ele>23</ele>
        <time>2019-05-03T10:19:31.000Z</time>
      </trkpt>
      <trkpt lat="42.03497660346329212188720703125" lon="-8.64522275514900684356689453125">
        <ele>20.6000003814697265625</ele>
        <time>2019-05-03T10:19:40.000Z</time>
      </trkpt>
      <trkpt lat="42.03504634089767932891845703125" lon="-8.6451686918735504150390625">
        <ele>20.200000762939453125</ele>
        <time>2019-05-03T10:19:45.000Z</time>
      </trkpt>
      <trkpt lat="42.0351597480475902557373046875" lon="-8.64522594027221202850341796875">
        <ele>19.3999996185302734375</ele>
        <time>2019-05-03T10:21:23.000Z</time>
      </trkpt>
      <trkpt lat="42.03523208387196063995361328125" lon="-8.64534714259207248687744140625">
        <ele>18.3999996185302734375</ele>
        <time>2019-05-03T10:21:29.000Z</time>
      </trkpt>
      <trkpt lat="42.035617567598819732666015625" lon="-8.64588894881308078765869140625">
        <ele>17.6000003814697265625</ele>
        <time>2019-05-03T10:21:43.000Z</time>
      </trkpt>
      <trkpt lat="42.03581697307527065277099609375" lon="-8.64613906480371952056884765625">
        <ele>14.80000019073486328125</ele>
        <time>2019-05-03T10:21:49.000Z</time>
      </trkpt>
      <trkpt lat="42.03623891808092594146728515625" lon="-8.64667517133057117462158203125">
        <ele>3</ele>
        <time>2019-05-03T10:22:02.000Z</time>
      </trkpt>
      <trkpt lat="42.03640119172632694244384765625" lon="-8.6468962021172046661376953125">
        <ele>3</ele>
        <time>2019-05-03T10:22:07.000Z</time>
      </trkpt>
      <trkpt lat="42.03653429634869098663330078125" lon="-8.64706107415258884429931640625">
        <ele>3</ele>
        <time>2019-05-03T10:22:11.000Z</time>
      </trkpt>
      <trkpt lat="42.03667444176971912384033203125" lon="-8.64724178798496723175048828125">
        <ele>3</ele>
        <time>2019-05-03T10:22:15.000Z</time>
      </trkpt>
      <trkpt lat="42.037075348198413848876953125" lon="-8.6477521620690822601318359375">
        <ele>8.80000019073486328125</ele>
        <time>2019-05-03T10:22:26.000Z</time>
      </trkpt>
      <trkpt lat="42.0374312438070774078369140625" lon="-8.6481969058513641357421875">
        <ele>11.80000019073486328125</ele>
        <time>2019-05-03T10:22:37.000Z</time>
      </trkpt>
      <trkpt lat="42.03750810585916042327880859375" lon="-8.648195229470729827880859375">
        <ele>11.6000003814697265625</ele>
        <time>2019-05-03T10:22:42.000Z</time>
      </trkpt>
      <trkpt lat="42.037568874657154083251953125" lon="-8.64821291528642177581787109375">
        <ele>11.6000003814697265625</ele>
        <time>2019-05-03T10:23:11.000Z</time>
      </trkpt>
      <trkpt lat="42.03767641447484493255615234375" lon="-8.6481759510934352874755859375">
        <ele>11.6000003814697265625</ele>
        <time>2019-05-03T10:23:18.000Z</time>
      </trkpt>
      <trkpt lat="42.0377034880220890045166015625" lon="-8.64817368797957897186279296875">
        <ele>11.6000003814697265625</ele>
        <time>2019-05-03T10:24:03.000Z</time>
      </trkpt>
      <trkpt lat="42.037735842168331146240234375" lon="-8.64814334549009799957275390625">
        <ele>11.6000003814697265625</ele>
        <time>2019-05-03T10:24:08.000Z</time>
      </trkpt>
      <trkpt lat="42.0377594791352748870849609375" lon="-8.64809154532849788665771484375">
        <ele>11.6000003814697265625</ele>
        <time>2019-05-03T10:24:49.000Z</time>
      </trkpt>
      <trkpt lat="42.0382801629602909088134765625" lon="-8.64789607934653759002685546875">
        <ele>13.3999996185302734375</ele>
        <time>2019-05-03T10:25:11.000Z</time>
      </trkpt>
      <trkpt lat="42.0388451032340526580810546875" lon="-8.64784360863268375396728515625">
        <ele>17.799999237060546875</ele>
        <time>2019-05-03T10:25:26.000Z</time>
      </trkpt>
      <trkpt lat="42.0393946208059787750244140625" lon="-8.64787780679762363433837890625">
        <ele>19.3999996185302734375</ele>
        <time>2019-05-03T10:25:41.000Z</time>
      </trkpt>
      <trkpt lat="42.03994288109242916107177734375" lon="-8.6479003541171550750732421875">
        <ele>19.3999996185302734375</ele>
        <time>2019-05-03T10:25:55.000Z</time>
      </trkpt>
      <trkpt lat="42.04050220549106597900390625" lon="-8.6479099094867706298828125">
        <ele>17.3999996185302734375</ele>
        <time>2019-05-03T10:26:09.000Z</time>
      </trkpt>
      <trkpt lat="42.040708065032958984375" lon="-8.64791317842900753021240234375">
        <ele>17.200000762939453125</ele>
        <time>2019-05-03T10:26:14.000Z</time>
      </trkpt>
      <trkpt lat="42.04091467894613742828369140625" lon="-8.647800274193286895751953125">
        <ele>17</ele>
        <time>2019-05-03T10:26:21.000Z</time>
      </trkpt>
      <trkpt lat="42.04090026207268238067626953125" lon="-8.64759885706007480621337890625">
        <ele>16.6000003814697265625</ele>
        <time>2019-05-03T10:26:26.000Z</time>
      </trkpt>
      <trkpt lat="42.0406485535204410552978515625" lon="-8.646923862397670745849609375">
        <ele>19.200000762939453125</ele>
        <time>2019-05-03T10:26:41.000Z</time>
      </trkpt>
      <trkpt lat="42.0403716154396533966064453125" lon="-8.64626378752291202545166015625">
        <ele>19.799999237060546875</ele>
        <time>2019-05-03T10:26:57.000Z</time>
      </trkpt>
      <trkpt lat="42.04036231152713298797607421875" lon="-8.64616119302809238433837890625">
        <ele>18.799999237060546875</ele>
        <time>2019-05-03T10:26:59.000Z</time>
      </trkpt>
      <trkpt lat="42.04053229652345180511474609375" lon="-8.64539575763046741485595703125">
        <ele>13.19999980926513671875</ele>
        <time>2019-05-03T10:27:11.000Z</time>
      </trkpt>
      <trkpt lat="42.04043037258088588714599609375" lon="-8.64507255144417285919189453125">
        <ele>10.3999996185302734375</ele>
        <time>2019-05-03T10:27:15.000Z</time>
      </trkpt>
      <trkpt lat="42.040238678455352783203125" lon="-8.64469863474369049072265625">
        <ele>7</ele>
        <time>2019-05-03T10:27:23.000Z</time>
      </trkpt>
      <trkpt lat="42.04004514031112194061279296875" lon="-8.6448034085333347320556640625">
        <ele>6.400000095367431640625</ele>
        <time>2019-05-03T10:27:31.000Z</time>
      </trkpt>
      <trkpt lat="42.039904408156871795654296875" lon="-8.6448347568511962890625">
        <ele>5.80000019073486328125</ele>
        <time>2019-05-03T10:27:40.000Z</time>
      </trkpt>
      <trkpt lat="42.03988621942698955535888671875" lon="-8.64483132027089595794677734375">
        <ele>5.599999904632568359375</ele>
        <time>2019-05-03T10:27:42.000Z</time>
      </trkpt>
      <trkpt lat="42.0398485846817493438720703125" lon="-8.64486359059810638427734375">
        <ele>5.599999904632568359375</ele>
        <time>2019-05-03T10:27:47.000Z</time>
      </trkpt>
      <trkpt lat="42.0398928411304950714111328125" lon="-8.64485478959977626800537109375">
        <ele>5.80000019073486328125</ele>
        <time>2019-05-03T10:28:32.000Z</time>
      </trkpt>
      <trkpt lat="42.0399833656847476959228515625" lon="-8.64487029612064361572265625">
        <ele>6.400000095367431640625</ele>
        <time>2019-05-03T10:28:38.000Z</time>
      </trkpt>
      <trkpt lat="42.04041494987905025482177734375" lon="-8.64459176547825336456298828125">
        <ele>7.400000095367431640625</ele>
        <time>2019-05-03T10:28:59.000Z</time>
      </trkpt>
      <trkpt lat="42.04095172695815563201904296875" lon="-8.64452454261481761932373046875">
        <ele>8.80000019073486328125</ele>
        <time>2019-05-03T10:29:19.000Z</time>
      </trkpt>
      <trkpt lat="42.04138557426631450653076171875" lon="-8.64499577321112155914306640625">
        <ele>10.6000003814697265625</ele>
        <time>2019-05-03T10:29:39.000Z</time>
      </trkpt>
      <trkpt lat="42.0416459999978542327880859375" lon="-8.645669929683208465576171875">
        <ele>12.3999996185302734375</ele>
        <time>2019-05-03T10:29:57.000Z</time>
      </trkpt>
      <trkpt lat="42.04165798611938953399658203125" lon="-8.64625322632491588592529296875">
        <ele>13.6000003814697265625</ele>
        <time>2019-05-03T10:30:08.000Z</time>
      </trkpt>
      <trkpt lat="42.0420228503644466400146484375" lon="-8.646762929856777191162109375">
        <ele>13.80000019073486328125</ele>
        <time>2019-05-03T10:30:18.000Z</time>
      </trkpt>
      <trkpt lat="42.04228612594306468963623046875" lon="-8.64677860401570796966552734375">
        <ele>14.19999980926513671875</ele>
        <time>2019-05-03T10:30:23.000Z</time>
      </trkpt>
      <trkpt lat="42.04268376342952251434326171875" lon="-8.64663141779601573944091796875">
        <ele>14</ele>
        <time>2019-05-03T10:30:32.000Z</time>
      </trkpt>
      <trkpt lat="42.04288140870630741119384765625" lon="-8.646519519388675689697265625">
        <ele>13.6000003814697265625</ele>
        <time>2019-05-03T10:30:37.000Z</time>
      </trkpt>
      <trkpt lat="42.04320712946355342864990234375" lon="-8.64593370817601680755615234375">
        <ele>11</ele>
        <time>2019-05-03T10:30:52.000Z</time>
      </trkpt>
      <trkpt lat="42.04363728873431682586669921875" lon="-8.64567135460674762725830078125">
        <ele>14</ele>
        <time>2019-05-03T10:31:08.000Z</time>
      </trkpt>
      <trkpt lat="42.0436744205653667449951171875" lon="-8.6455495655536651611328125">
        <ele>14.6000003814697265625</ele>
        <time>2019-05-03T10:31:12.000Z</time>
      </trkpt>
      <trkpt lat="42.04371959902346134185791015625" lon="-8.6452446319162845611572265625">
        <ele>15.19999980926513671875</ele>
        <time>2019-05-03T10:31:24.000Z</time>
      </trkpt>
      <trkpt lat="42.0437974669039249420166015625" lon="-8.6452637426555156707763671875">
        <ele>15.80000019073486328125</ele>
        <time>2019-05-03T10:31:29.000Z</time>
      </trkpt>
      <trkpt lat="42.04433214850723743438720703125" lon="-8.6454400978982448577880859375">
        <ele>20.200000762939453125</ele>
        <time>2019-05-03T10:31:54.000Z</time>
      </trkpt>
      <trkpt lat="42.04471486620604991912841796875" lon="-8.64569549448788166046142578125">
        <ele>22.6000003814697265625</ele>
        <time>2019-05-03T10:32:15.000Z</time>
      </trkpt>
      <trkpt lat="42.0448411814868450164794921875" lon="-8.6456372402608394622802734375">
        <ele>24.3999996185302734375</ele>
        <time>2019-05-03T10:32:24.000Z</time>
      </trkpt>
      <trkpt lat="42.044888623058795928955078125" lon="-8.64557705819606781005859375">
        <ele>25.6000003814697265625</ele>
        <time>2019-05-03T10:32:29.000Z</time>
      </trkpt>
      <trkpt lat="42.04510495997965335845947265625" lon="-8.645486198365688323974609375">
        <ele>31</ele>
        <time>2019-05-03T10:32:44.000Z</time>
      </trkpt>
      <trkpt lat="42.045121304690837860107421875" lon="-8.64541050978004932403564453125">
        <ele>32.40000152587890625</ele>
        <time>2019-05-03T10:32:49.000Z</time>
      </trkpt>
      <trkpt lat="42.04507143236696720123291015625" lon="-8.645302467048168182373046875">
        <ele>32.59999847412109375</ele>
        <time>2019-05-03T10:32:56.000Z</time>
      </trkpt>
      <trkpt lat="42.04502935521304607391357421875" lon="-8.6452191509306430816650390625">
        <ele>32.799999237060546875</ele>
        <time>2019-05-03T10:33:03.000Z</time>
      </trkpt>
      <trkpt lat="42.04503203742206096649169921875" lon="-8.64520682953298091888427734375">
        <ele>33.200000762939453125</ele>
        <time>2019-05-03T10:39:18.000Z</time>
      </trkpt>
      <trkpt lat="42.04494302161037921905517578125" lon="-8.645010106265544891357421875">
        <ele>31.3999996185302734375</ele>
        <time>2019-05-03T10:39:27.000Z</time>
      </trkpt>
      <trkpt lat="42.04488451592624187469482421875" lon="-8.64486702717840671539306640625">
        <ele>30.3999996185302734375</ele>
        <time>2019-05-03T10:39:34.000Z</time>
      </trkpt>
      <trkpt lat="42.044849395751953125" lon="-8.644713722169399261474609375">
        <ele>29.799999237060546875</ele>
        <time>2019-05-03T10:39:42.000Z</time>
      </trkpt>
      <trkpt lat="42.044893316924571990966796875" lon="-8.644623197615146636962890625">
        <ele>30.6000003814697265625</ele>
        <time>2019-05-03T10:39:48.000Z</time>
      </trkpt>
      <trkpt lat="42.04494084231555461883544921875" lon="-8.644660748541355133056640625">
        <ele>31.3999996185302734375</ele>
        <time>2019-05-03T10:39:54.000Z</time>
      </trkpt>
      <trkpt lat="42.045352645218372344970703125" lon="-8.644960820674896240234375">
        <ele>40</ele>
        <time>2019-05-03T10:40:30.000Z</time>
      </trkpt>
      <trkpt lat="42.0458034239709377288818359375" lon="-8.645317554473876953125">
        <ele>47.200000762939453125</ele>
        <time>2019-05-03T10:41:04.000Z</time>
      </trkpt>
      <trkpt lat="42.0459879934787750244140625" lon="-8.6454146169126033782958984375">
        <ele>46</ele>
        <time>2019-05-03T10:41:19.000Z</time>
      </trkpt>
      <trkpt lat="42.04609150998294353485107421875" lon="-8.64532702602446079254150390625">
        <ele>47.40000152587890625</ele>
        <time>2019-05-03T10:41:29.000Z</time>
      </trkpt>
      <trkpt lat="42.04612168483436107635498046875" lon="-8.6451329849660396575927734375">
        <ele>49.59999847412109375</ele>
        <time>2019-05-03T10:41:40.000Z</time>
      </trkpt>
      <trkpt lat="42.0463071763515472412109375" lon="-8.64499174989759922027587890625">
        <ele>50.40000152587890625</ele>
        <time>2019-05-03T10:41:57.000Z</time>
      </trkpt>
      <trkpt lat="42.0463495887815952301025390625" lon="-8.6448379419744014739990234375">
        <ele>51</ele>
        <time>2019-05-03T10:45:21.000Z</time>
      </trkpt>
      <trkpt lat="42.046458385884761810302734375" lon="-8.64474565722048282623291015625">
        <ele>51.40000152587890625</ele>
        <time>2019-05-03T10:45:28.000Z</time>
      </trkpt>
      <trkpt lat="42.04650004394352436065673828125" lon="-8.64456511102616786956787109375">
        <ele>52.200000762939453125</ele>
        <time>2019-05-03T10:45:35.000Z</time>
      </trkpt>
      <trkpt lat="42.046626023948192596435546875" lon="-8.64447425119578838348388671875">
        <ele>52.40000152587890625</ele>
        <time>2019-05-03T10:45:40.000Z</time>
      </trkpt>
      <trkpt lat="42.04663415439426898956298828125" lon="-8.64442312158644199371337890625">
        <ele>52.59999847412109375</ele>
        <time>2019-05-03T10:45:43.000Z</time>
      </trkpt>
      <trkpt lat="42.04665997065603733062744140625" lon="-8.64438104443252086639404296875">
        <ele>52.59999847412109375</ele>
        <time>2019-05-03T10:45:46.000Z</time>
      </trkpt>
      <trkpt lat="42.046885192394256591796875" lon="-8.64426922984421253204345703125">
        <ele>51.40000152587890625</ele>
        <time>2019-05-03T10:45:55.000Z</time>
      </trkpt>
      <trkpt lat="42.0469151996076107025146484375" lon="-8.64404526539146900177001953125">
        <ele>49.59999847412109375</ele>
        <time>2019-05-03T10:46:03.000Z</time>
      </trkpt>
      <trkpt lat="42.0471901260316371917724609375" lon="-8.64374242722988128662109375">
        <ele>46.40000152587890625</ele>
        <time>2019-05-03T10:46:21.000Z</time>
      </trkpt>
      <trkpt lat="42.04727989621460437774658203125" lon="-8.6436604522168636322021484375">
        <ele>45.40000152587890625</ele>
        <time>2019-05-03T10:47:59.000Z</time>
      </trkpt>
      <trkpt lat="42.04736287705600261688232421875" lon="-8.6435551755130290985107421875">
        <ele>44.200000762939453125</ele>
        <time>2019-05-03T10:48:11.000Z</time>
      </trkpt>
      <trkpt lat="42.047385089099407196044921875" lon="-8.64344579167664051055908203125">
        <ele>42.59999847412109375</ele>
        <time>2019-05-03T10:48:15.000Z</time>
      </trkpt>
      <trkpt lat="42.04737746156752109527587890625" lon="-8.64336490631103515625">
        <ele>41.200000762939453125</ele>
        <time>2019-05-03T10:48:21.000Z</time>
      </trkpt>
      <trkpt lat="42.0473986677825450897216796875" lon="-8.6433543451130390167236328125">
        <ele>41</ele>
        <time>2019-05-03T10:48:26.000Z</time>
      </trkpt>
      <trkpt lat="42.0475436747074127197265625" lon="-8.6432084999978542327880859375">
        <ele>38.799999237060546875</ele>
        <time>2019-05-03T10:48:45.000Z</time>
      </trkpt>
      <trkpt lat="42.0475168526172637939453125" lon="-8.6430603079497814178466796875">
        <ele>36.200000762939453125</ele>
        <time>2019-05-03T10:48:54.000Z</time>
      </trkpt>
      <trkpt lat="42.04750084318220615386962890625" lon="-8.64299031905829906463623046875">
        <ele>35</ele>
        <time>2019-05-03T10:49:03.000Z</time>
      </trkpt>
      <trkpt lat="42.04748810268938541412353515625" lon="-8.6429479904472827911376953125">
        <ele>34.40000152587890625</ele>
        <time>2019-05-03T10:49:07.000Z</time>
      </trkpt>
      <trkpt lat="42.04734192229807376861572265625" lon="-8.6423032544553279876708984375">
        <ele>23.6000003814697265625</ele>
        <time>2019-05-03T10:49:23.000Z</time>
      </trkpt>
      <trkpt lat="42.04725734889507293701171875" lon="-8.642063029110431671142578125">
        <ele>19.3999996185302734375</ele>
        <time>2019-05-03T10:49:30.000Z</time>
      </trkpt>
      <trkpt lat="42.0473332889378070831298828125" lon="-8.64196537993848323822021484375">
        <ele>18.200000762939453125</ele>
        <time>2019-05-03T10:49:35.000Z</time>
      </trkpt>
      <trkpt lat="42.0474503003060817718505859375" lon="-8.64188675768673419952392578125">
        <ele>17.6000003814697265625</ele>
        <time>2019-05-03T10:49:38.000Z</time>
      </trkpt>
      <trkpt lat="42.04756404273211956024169921875" lon="-8.64180243574082851409912109375">
        <ele>17.6000003814697265625</ele>
        <time>2019-05-03T10:49:41.000Z</time>
      </trkpt>
      <trkpt lat="42.04768717288970947265625" lon="-8.6416870169341564178466796875">
        <ele>17.6000003814697265625</ele>
        <time>2019-05-03T10:49:44.000Z</time>
      </trkpt>
      <trkpt lat="42.04815798439085483551025390625" lon="-8.64125761203467845916748046875">
        <ele>17.799999237060546875</ele>
        <time>2019-05-03T10:49:54.000Z</time>
      </trkpt>
      <trkpt lat="42.04860247671604156494140625" lon="-8.6408431269228458404541015625">
        <ele>19.200000762939453125</ele>
        <time>2019-05-03T10:50:11.000Z</time>
      </trkpt>
      <trkpt lat="42.04910731874406337738037109375" lon="-8.6405311524868011474609375">
        <ele>22.3999996185302734375</ele>
        <time>2019-05-03T10:50:31.000Z</time>
      </trkpt>
      <trkpt lat="42.04962029121816158294677734375" lon="-8.64029872231185436248779296875">
        <ele>22.200000762939453125</ele>
        <time>2019-05-03T10:50:50.000Z</time>
      </trkpt>
      <trkpt lat="42.05016084015369415283203125" lon="-8.64012035541236400604248046875">
        <ele>21.799999237060546875</ele>
        <time>2019-05-03T10:51:08.000Z</time>
      </trkpt>
      <trkpt lat="42.05066467635333538055419921875" lon="-8.63986034877598285675048828125">
        <ele>21.200000762939453125</ele>
        <time>2019-05-03T10:51:26.000Z</time>
      </trkpt>
      <trkpt lat="42.05119675956666469573974609375" lon="-8.63961073569953441619873046875">
        <ele>21.200000762939453125</ele>
        <time>2019-05-03T10:51:43.000Z</time>
      </trkpt>
      <trkpt lat="42.051740325987339019775390625" lon="-8.63958693109452724456787109375">
        <ele>20.3999996185302734375</ele>
        <time>2019-05-03T10:51:57.000Z</time>
      </trkpt>
      <trkpt lat="42.05187971703708171844482421875" lon="-8.63970712758600711822509765625">
        <ele>20</ele>
        <time>2019-05-03T10:52:01.000Z</time>
      </trkpt>
      <trkpt lat="42.0520496182143688201904296875" lon="-8.63996696658432483673095703125">
        <ele>20</ele>
        <time>2019-05-03T10:52:06.000Z</time>
      </trkpt>
      <trkpt lat="42.05213687382638454437255859375" lon="-8.6402979679405689239501953125">
        <ele>20.6000003814697265625</ele>
        <time>2019-05-03T10:52:11.000Z</time>
      </trkpt>
      <trkpt lat="42.0523131452500820159912109375" lon="-8.6404059268534183502197265625">
        <ele>20.6000003814697265625</ele>
        <time>2019-05-03T10:52:19.000Z</time>
      </trkpt>
      <trkpt lat="42.05239252187311649322509765625" lon="-8.6403620056807994842529296875">
        <ele>20.3999996185302734375</ele>
        <time>2019-05-03T10:52:21.000Z</time>
      </trkpt>
      <trkpt lat="42.05293650738894939422607421875" lon="-8.6401958763599395751953125">
        <ele>20</ele>
        <time>2019-05-03T10:52:32.000Z</time>
      </trkpt>
      <trkpt lat="42.0534364879131317138671875" lon="-8.63999948836863040924072265625">
        <ele>19.6000003814697265625</ele>
        <time>2019-05-03T10:52:43.000Z</time>
      </trkpt>
      <trkpt lat="42.0535187982022762298583984375" lon="-8.63978994078934192657470703125">
        <ele>19</ele>
        <time>2019-05-03T10:52:47.000Z</time>
      </trkpt>
      <trkpt lat="42.0535301975905895233154296875" lon="-8.639537058770656585693359375">
        <ele>18.3999996185302734375</ele>
        <time>2019-05-03T10:52:53.000Z</time>
      </trkpt>
      <trkpt lat="42.05345056951045989990234375" lon="-8.639438487589359283447265625">
        <ele>18.200000762939453125</ele>
        <time>2019-05-03T10:52:57.000Z</time>
      </trkpt>
      <trkpt lat="42.05326273106038570404052734375" lon="-8.63921477459371089935302734375">
        <ele>17.3999996185302734375</ele>
        <time>2019-05-03T10:53:04.000Z</time>
      </trkpt>
      <trkpt lat="42.05307128839194774627685546875" lon="-8.63852913491427898406982421875">
        <ele>14.19999980926513671875</ele>
        <time>2019-05-03T10:53:19.000Z</time>
      </trkpt>
      <trkpt lat="42.053096182644367218017578125" lon="-8.6381627619266510009765625">
        <ele>13.3999996185302734375</ele>
        <time>2019-05-03T10:53:24.000Z</time>
      </trkpt>
      <trkpt lat="42.053129374980926513671875" lon="-8.63794424571096897125244140625">
        <ele>12.80000019073486328125</ele>
        <time>2019-05-03T10:53:27.000Z</time>
      </trkpt>
      <trkpt lat="42.05320791341364383697509765625" lon="-8.63757879473268985748291015625">
        <ele>11.6000003814697265625</ele>
        <time>2019-05-03T10:53:32.000Z</time>
      </trkpt>
      <trkpt lat="42.05357336439192295074462890625" lon="-8.63708493299782276153564453125">
        <ele>11</ele>
        <time>2019-05-03T10:53:44.000Z</time>
      </trkpt>
      <trkpt lat="42.05372407101094722747802734375" lon="-8.63672845065593719482421875">
        <ele>9.80000019073486328125</ele>
        <time>2019-05-03T10:53:53.000Z</time>
      </trkpt>
      <trkpt lat="42.05379523336887359619140625" lon="-8.63664002157747745513916015625">
        <ele>9.3999996185302734375</ele>
        <time>2019-05-03T10:54:00.000Z</time>
      </trkpt>
      <trkpt lat="42.05388751812279224395751953125" lon="-8.63657799549400806427001953125">
        <ele>9.3999996185302734375</ele>
        <time>2019-05-03T10:58:26.000Z</time>
      </trkpt>
      <trkpt lat="42.05398759804666042327880859375" lon="-8.63650524057447910308837890625">
        <ele>9.3999996185302734375</ele>
        <time>2019-05-03T10:58:30.000Z</time>
      </trkpt>
      <trkpt lat="42.05441893078386783599853515625" lon="-8.63607466220855712890625">
        <ele>7.599999904632568359375</ele>
        <time>2019-05-03T10:58:44.000Z</time>
      </trkpt>
      <trkpt lat="42.0544595830142498016357421875" lon="-8.63605312071740627288818359375">
        <ele>7.599999904632568359375</ele>
        <time>2019-05-03T10:58:45.000Z</time>
      </trkpt>
      <trkpt lat="42.055005244910717010498046875" lon="-8.636042810976505279541015625">
        <ele>9.80000019073486328125</ele>
        <time>2019-05-03T10:59:03.000Z</time>
      </trkpt>
      <trkpt lat="42.05518755130469799041748046875" lon="-8.6362047493457794189453125">
        <ele>12.6000003814697265625</ele>
        <time>2019-05-03T10:59:14.000Z</time>
      </trkpt>
      <trkpt lat="42.05535091459751129150390625" lon="-8.635937534272670745849609375">
        <ele>11.3999996185302734375</ele>
        <time>2019-05-03T10:59:23.000Z</time>
      </trkpt>
      <trkpt lat="42.0553846098482608795166015625" lon="-8.63590409047901630401611328125">
        <ele>11.3999996185302734375</ele>
        <time>2019-05-03T10:59:24.000Z</time>
      </trkpt>
      <trkpt lat="42.05581032671034336090087890625" lon="-8.63539405167102813720703125">
        <ele>10</ele>
        <time>2019-05-03T10:59:37.000Z</time>
      </trkpt>
      <trkpt lat="42.0561436749994754791259765625" lon="-8.63511166535317897796630859375">
        <ele>10</ele>
        <time>2019-05-03T10:59:55.000Z</time>
      </trkpt>
      <trkpt lat="42.05617812462151050567626953125" lon="-8.6351065523922443389892578125">
        <ele>10.19999980926513671875</ele>
        <time>2019-05-03T11:00:00.000Z</time>
      </trkpt>
      <trkpt lat="42.05640208907425403594970703125" lon="-8.63495894707739353179931640625">
        <ele>10.3999996185302734375</ele>
        <time>2019-05-03T11:00:13.000Z</time>
      </trkpt>
      <trkpt lat="42.05640611238777637481689453125" lon="-8.63495886325836181640625">
        <ele>10.3999996185302734375</ele>
        <time>2019-05-03T11:01:13.000Z</time>
      </trkpt>
      <trkpt lat="42.05656939186155796051025390625" lon="-8.63492692820727825164794921875">
        <ele>11.3999996185302734375</ele>
        <time>2019-05-03T11:01:20.000Z</time>
      </trkpt>
      <trkpt lat="42.0566009916365146636962890625" lon="-8.63487177528440952301025390625">
        <ele>11</ele>
        <time>2019-05-03T11:01:23.000Z</time>
      </trkpt>
      <trkpt lat="42.0566082000732421875" lon="-8.63486205227673053741455078125">
        <ele>11</ele>
        <time>2019-05-03T11:01:25.000Z</time>
      </trkpt>
      <trkpt lat="42.0566616766154766082763671875" lon="-8.63481863401830196380615234375">
        <ele>10.80000019073486328125</ele>
        <time>2019-05-03T11:01:49.000Z</time>
      </trkpt>
      <trkpt lat="42.05718847922980785369873046875" lon="-8.6346898041665554046630859375">
        <ele>11.80000019073486328125</ele>
        <time>2019-05-03T11:02:05.000Z</time>
      </trkpt>
      <trkpt lat="42.05772927962243556976318359375" lon="-8.63486255519092082977294921875">
        <ele>14</ele>
        <time>2019-05-03T11:02:21.000Z</time>
      </trkpt>
      <trkpt lat="42.0582294277846813201904296875" lon="-8.63517184741795063018798828125">
        <ele>12.19999980926513671875</ele>
        <time>2019-05-03T11:02:39.000Z</time>
      </trkpt>
      <trkpt lat="42.05843813717365264892578125" lon="-8.63584508188068866729736328125">
        <ele>17.799999237060546875</ele>
        <time>2019-05-03T11:02:55.000Z</time>
      </trkpt>
      <trkpt lat="42.0584215410053730010986328125" lon="-8.6363058350980281829833984375">
        <ele>17</ele>
        <time>2019-05-03T11:03:07.000Z</time>
      </trkpt>
      <trkpt lat="42.05867894925177097320556640625" lon="-8.636537678539752960205078125">
        <ele>13.80000019073486328125</ele>
        <time>2019-05-03T11:03:16.000Z</time>
      </trkpt>
      <trkpt lat="42.05902746878564357757568359375" lon="-8.6370156146585941314697265625">
        <ele>10.6000003814697265625</ele>
        <time>2019-05-03T11:03:32.000Z</time>
      </trkpt>
      <trkpt lat="42.0591403730213642120361328125" lon="-8.63774961791932582855224609375">
        <ele>11.3999996185302734375</ele>
        <time>2019-05-03T11:03:54.000Z</time>
      </trkpt>
      <trkpt lat="42.0591980405151844024658203125" lon="-8.6380995623767375946044921875">
        <ele>13.3999996185302734375</ele>
        <time>2019-05-03T11:04:03.000Z</time>
      </trkpt>
      <trkpt lat="42.05936023034155368804931640625" lon="-8.63809294067323207855224609375">
        <ele>13.3999996185302734375</ele>
        <time>2019-05-03T11:04:08.000Z</time>
      </trkpt>
      <trkpt lat="42.05988879315555095672607421875" lon="-8.637868724763393402099609375">
        <ele>12</ele>
        <time>2019-05-03T11:04:18.000Z</time>
      </trkpt>
      <trkpt lat="42.060392461717128753662109375" lon="-8.63757996819913387298583984375">
        <ele>11</ele>
        <time>2019-05-03T11:04:26.000Z</time>
      </trkpt>
      <trkpt lat="42.0609123073518276214599609375" lon="-8.63736212253570556640625">
        <ele>11</ele>
        <time>2019-05-03T11:04:34.000Z</time>
      </trkpt>
      <trkpt lat="42.06119486130774021148681640625" lon="-8.63725223578512668609619140625">
        <ele>11</ele>
        <time>2019-05-03T11:04:39.000Z</time>
      </trkpt>
      <trkpt lat="42.06171068362891674041748046875" lon="-8.63704117946326732635498046875">
        <ele>11</ele>
        <time>2019-05-03T11:04:51.000Z</time>
      </trkpt>
      <trkpt lat="42.0618701912462711334228515625" lon="-8.63705308176577091217041015625">
        <ele>11</ele>
        <time>2019-05-03T11:04:55.000Z</time>
      </trkpt>
      <trkpt lat="42.06199944019317626953125" lon="-8.637210242450237274169921875">
        <ele>11</ele>
        <time>2019-05-03T11:04:59.000Z</time>
      </trkpt>
      <trkpt lat="42.0620247535407543182373046875" lon="-8.6372556723654270172119140625">
        <ele>11</ele>
        <time>2019-05-03T11:05:00.000Z</time>
      </trkpt>
      <trkpt lat="42.062085606157779693603515625" lon="-8.63745876587927341461181640625">
        <ele>11.19999980926513671875</ele>
        <time>2019-05-03T11:05:04.000Z</time>
      </trkpt>
      <trkpt lat="42.06211418844759464263916015625" lon="-8.63755985163152217864990234375">
        <ele>11.19999980926513671875</ele>
        <time>2019-05-03T11:05:06.000Z</time>
      </trkpt>
      <trkpt lat="42.06211284734308719635009765625" lon="-8.63832394592463970184326171875">
        <ele>12.80000019073486328125</ele>
        <time>2019-05-03T11:05:20.000Z</time>
      </trkpt>
      <trkpt lat="42.062142603099346160888671875" lon="-8.63854221068322658538818359375">
        <ele>13</ele>
        <time>2019-05-03T11:05:24.000Z</time>
      </trkpt>
      <trkpt lat="42.06222566775977611541748046875" lon="-8.6387442983686923980712890625">
        <ele>12.3999996185302734375</ele>
        <time>2019-05-03T11:05:28.000Z</time>
      </trkpt>
      <trkpt lat="42.06228333525359630584716796875" lon="-8.63883440382778644561767578125">
        <ele>12.3999996185302734375</ele>
        <time>2019-05-03T11:05:30.000Z</time>
      </trkpt>
      <trkpt lat="42.0624287612736225128173828125" lon="-8.63895124755799770355224609375">
        <ele>12</ele>
        <time>2019-05-03T11:05:34.000Z</time>
      </trkpt>
      <trkpt lat="42.06296034157276153564453125" lon="-8.6390638165175914764404296875">
        <ele>14.19999980926513671875</ele>
        <time>2019-05-03T11:05:48.000Z</time>
      </trkpt>
      <trkpt lat="42.06350726075470447540283203125" lon="-8.63909013569355010986328125">
        <ele>16.200000762939453125</ele>
        <time>2019-05-03T11:06:04.000Z</time>
      </trkpt>
      <trkpt lat="42.06389416940510272979736328125" lon="-8.63914201967418193817138671875">
        <ele>17</ele>
        <time>2019-05-03T11:06:25.000Z</time>
      </trkpt>
      <trkpt lat="42.063924260437488555908203125" lon="-8.63911829888820648193359375">
        <ele>17.200000762939453125</ele>
        <time>2019-05-03T11:06:42.000Z</time>
      </trkpt>
      <trkpt lat="42.06426800228655338287353515625" lon="-8.638519160449504852294921875">
        <ele>19</ele>
        <time>2019-05-03T11:07:00.000Z</time>
      </trkpt>
      <trkpt lat="42.06463563255965709686279296875" lon="-8.63797366619110107421875">
        <ele>18.3999996185302734375</ele>
        <time>2019-05-03T11:07:14.000Z</time>
      </trkpt>
      <trkpt lat="42.06509194336831569671630859375" lon="-8.63780259154736995697021484375">
        <ele>18.200000762939453125</ele>
        <time>2019-05-03T11:07:33.000Z</time>
      </trkpt>
      <trkpt lat="42.0655957795679569244384765625" lon="-8.63807584159076213836669921875">
        <ele>18.799999237060546875</ele>
        <time>2019-05-03T11:07:50.000Z</time>
      </trkpt>
      <trkpt lat="42.06609844230115413665771484375" lon="-8.63835227675735950469970703125">
        <ele>19.6000003814697265625</ele>
        <time>2019-05-03T11:08:04.000Z</time>
      </trkpt>
      <trkpt lat="42.06663823686540126800537109375" lon="-8.63847917877137660980224609375">
        <ele>20.6000003814697265625</ele>
        <time>2019-05-03T11:08:23.000Z</time>
      </trkpt>
      <trkpt lat="42.0671947114169597625732421875" lon="-8.638467527925968170166015625">
        <ele>22</ele>
        <time>2019-05-03T11:08:47.000Z</time>
      </trkpt>
      <trkpt lat="42.0677338354289531707763671875" lon="-8.63842670805752277374267578125">
        <ele>20</ele>
        <time>2019-05-03T11:09:04.000Z</time>
      </trkpt>
      <trkpt lat="42.0683131925761699676513671875" lon="-8.6385987885296344757080078125">
        <ele>16</ele>
        <time>2019-05-03T11:09:16.000Z</time>
      </trkpt>
      <trkpt lat="42.06891291774809360504150390625" lon="-8.63884580321609973907470703125">
        <ele>13.19999980926513671875</ele>
        <time>2019-05-03T11:09:24.000Z</time>
      </trkpt>
      <trkpt lat="42.06948322243988513946533203125" lon="-8.63901629112660884857177734375">
        <ele>11.80000019073486328125</ele>
        <time>2019-05-03T11:09:30.000Z</time>
      </trkpt>
      <trkpt lat="42.0701096020638942718505859375" lon="-8.6390349827706813812255859375">
        <ele>15.80000019073486328125</ele>
        <time>2019-05-03T11:09:36.000Z</time>
      </trkpt>
      <trkpt lat="42.07064352929592132568359375" lon="-8.638885952532291412353515625">
        <ele>18.3999996185302734375</ele>
        <time>2019-05-03T11:09:44.000Z</time>
      </trkpt>
      <trkpt lat="42.071159183979034423828125" lon="-8.63864128477871417999267578125">
        <ele>18</ele>
        <time>2019-05-03T11:10:05.000Z</time>
      </trkpt>
      <trkpt lat="42.0717050135135650634765625" lon="-8.63873717375099658966064453125">
        <ele>22.200000762939453125</ele>
        <time>2019-05-03T11:10:26.000Z</time>
      </trkpt>
      <trkpt lat="42.072247825562953948974609375" lon="-8.63885468803346157073974609375">
        <ele>24.200000762939453125</ele>
        <time>2019-05-03T11:10:45.000Z</time>
      </trkpt>
      <trkpt lat="42.072781585156917572021484375" lon="-8.63897002302110195159912109375">
        <ele>25.3999996185302734375</ele>
        <time>2019-05-03T11:10:59.000Z</time>
      </trkpt>
      <trkpt lat="42.07286280579864978790283203125" lon="-8.6390011198818683624267578125">
        <ele>25.3999996185302734375</ele>
        <time>2019-05-03T11:11:01.000Z</time>
      </trkpt>
      <trkpt lat="42.0734323561191558837890625" lon="-8.63914419896900653839111328125">
        <ele>25.6000003814697265625</ele>
        <time>2019-05-03T11:11:14.000Z</time>
      </trkpt>
      <trkpt lat="42.07376469857990741729736328125" lon="-8.63915073685348033905029296875">
        <ele>24</ele>
        <time>2019-05-03T11:11:22.000Z</time>
      </trkpt>
      <trkpt lat="42.0743478275835514068603515625" lon="-8.639240674674510955810546875">
        <ele>21</ele>
        <time>2019-05-03T11:11:34.000Z</time>
      </trkpt>
      <trkpt lat="42.07490212284028530120849609375" lon="-8.63940269686281681060791015625">
        <ele>17.3999996185302734375</ele>
        <time>2019-05-03T11:11:45.000Z</time>
      </trkpt>
      <trkpt lat="42.07546303980052471160888671875" lon="-8.639575950801372528076171875">
        <ele>20.3999996185302734375</ele>
        <time>2019-05-03T11:11:55.000Z</time>
      </trkpt>
      <trkpt lat="42.07567677833139896392822265625" lon="-8.63962381146848201751708984375">
        <ele>20.799999237060546875</ele>
        <time>2019-05-03T11:11:59.000Z</time>
      </trkpt>
      <trkpt lat="42.0760818757116794586181640625" lon="-8.63953663967549800872802734375">
        <ele>23.200000762939453125</ele>
        <time>2019-05-03T11:12:07.000Z</time>
      </trkpt>
      <trkpt lat="42.07633442245423793792724609375" lon="-8.6393481306731700897216796875">
        <ele>23.6000003814697265625</ele>
        <time>2019-05-03T11:12:15.000Z</time>
      </trkpt>
      <trkpt lat="42.07675435580313205718994140625" lon="-8.63887363113462924957275390625">
        <ele>26</ele>
        <time>2019-05-03T11:12:31.000Z</time>
      </trkpt>
      <trkpt lat="42.0772355608642101287841796875" lon="-8.63848102279007434844970703125">
        <ele>26.6000003814697265625</ele>
        <time>2019-05-03T11:12:46.000Z</time>
      </trkpt>
      <trkpt lat="42.0777840726077556610107421875" lon="-8.63838748075067996978759765625">
        <ele>26.200000762939453125</ele>
        <time>2019-05-03T11:13:04.000Z</time>
      </trkpt>
      <trkpt lat="42.07834021188318729400634765625" lon="-8.63855637609958648681640625">
        <ele>28.3999996185302734375</ele>
        <time>2019-05-03T11:13:19.000Z</time>
      </trkpt>
      <trkpt lat="42.07887564785778522491455078125" lon="-8.6387057416141033172607421875">
        <ele>30</ele>
        <time>2019-05-03T11:13:34.000Z</time>
      </trkpt>
      <trkpt lat="42.0794430188834667205810546875" lon="-8.63889341242611408233642578125">
        <ele>31.200000762939453125</ele>
        <time>2019-05-03T11:13:47.000Z</time>
      </trkpt>
      <trkpt lat="42.07998071797192096710205078125" lon="-8.63899751566350460052490234375">
        <ele>33.200000762939453125</ele>
        <time>2019-05-03T11:14:02.000Z</time>
      </trkpt>
      <trkpt lat="42.08045949228107929229736328125" lon="-8.63900070078670978546142578125">
        <ele>32.799999237060546875</ele>
        <time>2019-05-03T11:14:14.000Z</time>
      </trkpt>
      <trkpt lat="42.08069284446537494659423828125" lon="-8.63912408240139484405517578125">
        <ele>33.59999847412109375</ele>
        <time>2019-05-03T11:14:19.000Z</time>
      </trkpt>
      <trkpt lat="42.08078940398991107940673828125" lon="-8.63921058364212512969970703125">
        <ele>33.799999237060546875</ele>
        <time>2019-05-03T11:14:21.000Z</time>
      </trkpt>
      <trkpt lat="42.08115736953914165496826171875" lon="-8.6398372985422611236572265625">
        <ele>30.200000762939453125</ele>
        <time>2019-05-03T11:14:30.000Z</time>
      </trkpt>
      <trkpt lat="42.08134361542761325836181640625" lon="-8.64016410894691944122314453125">
        <ele>24</ele>
        <time>2019-05-03T11:14:34.000Z</time>
      </trkpt>
      <trkpt lat="42.08160982467234134674072265625" lon="-8.64037382416427135467529296875">
        <ele>18</ele>
        <time>2019-05-03T11:14:38.000Z</time>
      </trkpt>
      <trkpt lat="42.0818596892058849334716796875" lon="-8.6405003070831298828125">
        <ele>20.200000762939453125</ele>
        <time>2019-05-03T11:14:42.000Z</time>
      </trkpt>
      <trkpt lat="42.08238531835377216339111328125" lon="-8.64077112637460231781005859375">
        <ele>26.200000762939453125</ele>
        <time>2019-05-03T11:14:55.000Z</time>
      </trkpt>
      <trkpt lat="42.08270869217813014984130859375" lon="-8.64093574695289134979248046875">
        <ele>27</ele>
        <time>2019-05-03T11:15:07.000Z</time>
      </trkpt>
      <trkpt lat="42.08277272991836071014404296875" lon="-8.64083717577159404754638671875">
        <ele>27.799999237060546875</ele>
        <time>2019-05-03T11:15:11.000Z</time>
      </trkpt>
      <trkpt lat="42.08279125392436981201171875" lon="-8.64065922796726226806640625">
        <ele>29.200000762939453125</ele>
        <time>2019-05-03T11:15:18.000Z</time>
      </trkpt>
      <trkpt lat="42.082855291664600372314453125" lon="-8.6400081217288970947265625">
        <ele>29.3999996185302734375</ele>
        <time>2019-05-03T11:15:40.000Z</time>
      </trkpt>
      <trkpt lat="42.0828594826161861419677734375" lon="-8.63999580033123493194580078125">
        <ele>29.6000003814697265625</ele>
        <time>2019-05-03T11:15:45.000Z</time>
      </trkpt>
      <trkpt lat="42.0831075869500637054443359375" lon="-8.63933396525681018829345703125">
        <ele>32</ele>
        <time>2019-05-03T11:16:09.000Z</time>
      </trkpt>
      <trkpt lat="42.08329760469496250152587890625" lon="-8.63894085399806499481201171875">
        <ele>30</ele>
        <time>2019-05-03T11:16:24.000Z</time>
      </trkpt>
      <trkpt lat="42.083334065973758697509765625" lon="-8.63891352899372577667236328125">
        <ele>29.799999237060546875</ele>
        <time>2019-05-03T11:21:40.000Z</time>
      </trkpt>
      <trkpt lat="42.08377520553767681121826171875" lon="-8.6384965293109416961669921875">
        <ele>25.6000003814697265625</ele>
        <time>2019-05-03T11:21:53.000Z</time>
      </trkpt>
      <trkpt lat="42.08385868929326534271240234375" lon="-8.63844615407288074493408203125">
        <ele>25</ele>
        <time>2019-05-03T11:21:55.000Z</time>
      </trkpt>
      <trkpt lat="42.0841677300631999969482421875" lon="-8.6382246203720569610595703125">
        <ele>22.799999237060546875</ele>
        <time>2019-05-03T11:22:02.000Z</time>
      </trkpt>
      <trkpt lat="42.0847011543810367584228515625" lon="-8.6379061080515384674072265625">
        <ele>22.200000762939453125</ele>
        <time>2019-05-03T11:22:10.000Z</time>
      </trkpt>
      <trkpt lat="42.08489838056266307830810546875" lon="-8.63775313831865787506103515625">
        <ele>21</ele>
        <time>2019-05-03T11:22:14.000Z</time>
      </trkpt>
      <trkpt lat="42.08527858369052410125732421875" lon="-8.637222982943058013916015625">
        <ele>16.200000762939453125</ele>
        <time>2019-05-03T11:22:25.000Z</time>
      </trkpt>
      <trkpt lat="42.08553791977465152740478515625" lon="-8.6371001042425632476806640625">
        <ele>14.6000003814697265625</ele>
        <time>2019-05-03T11:22:30.000Z</time>
      </trkpt>
      <trkpt lat="42.0856442861258983612060546875" lon="-8.6370876990258693695068359375">
        <ele>14.19999980926513671875</ele>
        <time>2019-05-03T11:22:32.000Z</time>
      </trkpt>
      <trkpt lat="42.08592767827212810516357421875" lon="-8.63728609867393970489501953125">
        <ele>16</ele>
        <time>2019-05-03T11:22:38.000Z</time>
      </trkpt>
      <trkpt lat="42.086064554750919342041015625" lon="-8.63740579225122928619384765625">
        <ele>17.200000762939453125</ele>
        <time>2019-05-03T11:22:41.000Z</time>
      </trkpt>
      <trkpt lat="42.0863056182861328125" lon="-8.63744602538645267486572265625">
        <ele>15.3999996185302734375</ele>
        <time>2019-05-03T11:22:49.000Z</time>
      </trkpt>
      <trkpt lat="42.08636722527444362640380859375" lon="-8.63753487356007099151611328125">
        <ele>14.80000019073486328125</ele>
        <time>2019-05-03T11:22:57.000Z</time>
      </trkpt>
      <trkpt lat="42.08646051585674285888671875" lon="-8.63770301453769207000732421875">
        <ele>14</ele>
        <time>2019-05-03T11:23:08.000Z</time>
      </trkpt>
      <trkpt lat="42.086490690708160400390625" lon="-8.63776688463985919952392578125">
        <ele>13.3999996185302734375</ele>
        <time>2019-05-03T11:23:37.000Z</time>
      </trkpt>
      <trkpt lat="42.08689059130847454071044921875" lon="-8.6382547952234745025634765625">
        <ele>12</ele>
        <time>2019-05-03T11:23:54.000Z</time>
      </trkpt>
      <trkpt lat="42.08735494874417781829833984375" lon="-8.63870180211961269378662109375">
        <ele>9.80000019073486328125</ele>
        <time>2019-05-03T11:24:09.000Z</time>
      </trkpt>
      <trkpt lat="42.0878572762012481689453125" lon="-8.63900489173829555511474609375">
        <ele>11.80000019073486328125</ele>
        <time>2019-05-03T11:24:22.000Z</time>
      </trkpt>
      <trkpt lat="42.0884124934673309326171875" lon="-8.63912642933428287506103515625">
        <ele>12.3999996185302734375</ele>
        <time>2019-05-03T11:24:37.000Z</time>
      </trkpt>
      <trkpt lat="42.08896477706730365753173828125" lon="-8.639282919466495513916015625">
        <ele>13.6000003814697265625</ele>
        <time>2019-05-03T11:24:51.000Z</time>
      </trkpt>
      <trkpt lat="42.08950406871736049652099609375" lon="-8.6392673291265964508056640625">
        <ele>13.80000019073486328125</ele>
        <time>2019-05-03T11:25:05.000Z</time>
      </trkpt>
      <trkpt lat="42.089824341237545013427734375" lon="-8.63908133469521999359130859375">
        <ele>13.3999996185302734375</ele>
        <time>2019-05-03T11:25:13.000Z</time>
      </trkpt>
      <trkpt lat="42.0899976789951324462890625" lon="-8.63907161168754100799560546875">
        <ele>13.3999996185302734375</ele>
        <time>2019-05-03T11:25:17.000Z</time>
      </trkpt>
      <trkpt lat="42.0905158482491970062255859375" lon="-8.63928317092359066009521484375">
        <ele>15.80000019073486328125</ele>
        <time>2019-05-03T11:25:38.000Z</time>
      </trkpt>
      <trkpt lat="42.0905654691159725189208984375" lon="-8.63929071463644504547119140625">
        <ele>16</ele>
        <time>2019-05-03T11:25:41.000Z</time>
      </trkpt>
      <trkpt lat="42.0908417366445064544677734375" lon="-8.63925500772893428802490234375">
        <ele>16.799999237060546875</ele>
        <time>2019-05-03T11:25:55.000Z</time>
      </trkpt>
      <trkpt lat="42.09138312377035617828369140625" lon="-8.639307729899883270263671875">
        <ele>18.3999996185302734375</ele>
        <time>2019-05-03T11:26:22.000Z</time>
      </trkpt>
      <trkpt lat="42.091628797352313995361328125" lon="-8.639225922524929046630859375">
        <ele>18.6000003814697265625</ele>
        <time>2019-05-03T11:26:37.000Z</time>
      </trkpt>
      <trkpt lat="42.0916876383125782012939453125" lon="-8.63925316371023654937744140625">
        <ele>18.799999237060546875</ele>
        <time>2019-05-03T11:28:28.000Z</time>
      </trkpt>
      <trkpt lat="42.09174002520740032196044921875" lon="-8.63926791585981845855712890625">
        <ele>19</ele>
        <time>2019-05-03T11:28:31.000Z</time>
      </trkpt>
      <trkpt lat="42.0917784981429576873779296875" lon="-8.63926422782242298126220703125">
        <ele>19.200000762939453125</ele>
        <time>2019-05-03T11:28:34.000Z</time>
      </trkpt>
      <trkpt lat="42.09181554615497589111328125" lon="-8.6393052153289318084716796875">
        <ele>19.6000003814697265625</ele>
        <time>2019-05-03T11:28:40.000Z</time>
      </trkpt>
      <trkpt lat="42.0918458886444568634033203125" lon="-8.63928820006549358367919921875">
        <ele>19.6000003814697265625</ele>
        <time>2019-05-03T11:28:52.000Z</time>
      </trkpt>
      <trkpt lat="42.0920296199619770050048828125" lon="-8.6392562650144100189208984375">
        <ele>20.3999996185302734375</ele>
        <time>2019-05-03T11:29:00.000Z</time>
      </trkpt>
      <trkpt lat="42.09256178699433803558349609375" lon="-8.63902986980974674224853515625">
        <ele>21</ele>
        <time>2019-05-03T11:29:25.000Z</time>
      </trkpt>
      <trkpt lat="42.09310158155858516693115234375" lon="-8.6389110982418060302734375">
        <ele>21.200000762939453125</ele>
        <time>2019-05-03T11:29:44.000Z</time>
      </trkpt>
      <trkpt lat="42.0936225168406963348388671875" lon="-8.63872895948588848114013671875">
        <ele>21</ele>
        <time>2019-05-03T11:30:06.000Z</time>
      </trkpt>
      <trkpt lat="42.0941609703004360198974609375" lon="-8.63863826729357242584228515625">
        <ele>21.799999237060546875</ele>
        <time>2019-05-03T11:30:23.000Z</time>
      </trkpt>
      <trkpt lat="42.094654999673366546630859375" lon="-8.6383510194718837738037109375">
        <ele>24.3999996185302734375</ele>
        <time>2019-05-03T11:30:43.000Z</time>
      </trkpt>
      <trkpt lat="42.09494970738887786865234375" lon="-8.63834917545318603515625">
        <ele>26.3999996185302734375</ele>
        <time>2019-05-03T11:30:57.000Z</time>
      </trkpt>
      <trkpt lat="42.0951248891651630401611328125" lon="-8.6383811943233013153076171875">
        <ele>27</ele>
        <time>2019-05-03T11:31:05.000Z</time>
      </trkpt>
      <trkpt lat="42.0953974686563014984130859375" lon="-8.6384256184101104736328125">
        <ele>27.799999237060546875</ele>
        <time>2019-05-03T11:31:16.000Z</time>
      </trkpt>
      <trkpt lat="42.0955114625394344329833984375" lon="-8.6385555379092693328857421875">
        <ele>28.3999996185302734375</ele>
        <time>2019-05-03T11:31:23.000Z</time>
      </trkpt>
      <trkpt lat="42.09542487747967243194580078125" lon="-8.6392126791179180145263671875">
        <ele>29</ele>
        <time>2019-05-03T11:31:43.000Z</time>
      </trkpt>
      <trkpt lat="42.095436863601207733154296875" lon="-8.63932424224913120269775390625">
        <ele>29.200000762939453125</ele>
        <time>2019-05-03T11:31:47.000Z</time>
      </trkpt>
      <trkpt lat="42.095439545810222625732421875" lon="-8.639693297445774078369140625">
        <ele>27.200000762939453125</ele>
        <time>2019-05-03T11:31:55.000Z</time>
      </trkpt>
      <trkpt lat="42.09544432349503040313720703125" lon="-8.63982774317264556884765625">
        <ele>27.200000762939453125</ele>
        <time>2019-05-03T11:31:57.000Z</time>
      </trkpt>
      <trkpt lat="42.09545790217816829681396484375" lon="-8.6399714089930057525634765625">
        <ele>27</ele>
        <time>2019-05-03T11:31:59.000Z</time>
      </trkpt>
      <trkpt lat="42.0954806171357631683349609375" lon="-8.64027240313589572906494140625">
        <ele>26.799999237060546875</ele>
        <time>2019-05-03T11:32:03.000Z</time>
      </trkpt>
      <trkpt lat="42.0956536196172237396240234375" lon="-8.64095049910247325897216796875">
        <ele>27.200000762939453125</ele>
        <time>2019-05-03T11:32:18.000Z</time>
      </trkpt>
      <trkpt lat="42.09570248611271381378173828125" lon="-8.64097363315522670745849609375">
        <ele>27.6000003814697265625</ele>
        <time>2019-05-03T11:32:20.000Z</time>
      </trkpt>
      <trkpt lat="42.09594556130468845367431640625" lon="-8.64105074666440486907958984375">
        <ele>28.6000003814697265625</ele>
        <time>2019-05-03T11:32:31.000Z</time>
      </trkpt>
      <trkpt lat="42.09642366506159305572509765625" lon="-8.64146213047206401824951171875">
        <ele>29.200000762939453125</ele>
        <time>2019-05-03T11:32:46.000Z</time>
      </trkpt>
      <trkpt lat="42.0969588495790958404541015625" lon="-8.64138342440128326416015625">
        <ele>31.799999237060546875</ele>
        <time>2019-05-03T11:33:12.000Z</time>
      </trkpt>
      <trkpt lat="42.09745480678975582122802734375" lon="-8.6412062309682369232177734375">
        <ele>34.799999237060546875</ele>
        <time>2019-05-03T11:33:37.000Z</time>
      </trkpt>
      <trkpt lat="42.09729018621146678924560546875" lon="-8.64054146222770214080810546875">
        <ele>34.799999237060546875</ele>
        <time>2019-05-03T11:33:57.000Z</time>
      </trkpt>
      <trkpt lat="42.0972478576004505157470703125" lon="-8.64039125852286815643310546875">
        <ele>34.799999237060546875</ele>
        <time>2019-05-03T11:34:03.000Z</time>
      </trkpt>
      <trkpt lat="42.0972498692572116851806640625" lon="-8.6396720074117183685302734375">
        <ele>33.799999237060546875</ele>
        <time>2019-05-03T11:34:26.000Z</time>
      </trkpt>
      <trkpt lat="42.0977172441780567169189453125" lon="-8.63944460637867450714111328125">
        <ele>33.799999237060546875</ele>
        <time>2019-05-03T11:34:41.000Z</time>
      </trkpt>
      <trkpt lat="42.09796794690191745758056640625" lon="-8.63975322805345058441162109375">
        <ele>34.40000152587890625</ele>
        <time>2019-05-03T11:34:50.000Z</time>
      </trkpt>
      <trkpt lat="42.09802217781543731689453125" lon="-8.63984492607414722442626953125">
        <ele>34.799999237060546875</ele>
        <time>2019-05-03T11:34:52.000Z</time>
      </trkpt>
      <trkpt lat="42.098333649337291717529296875" lon="-8.6396297626197338104248046875">
        <ele>33.40000152587890625</ele>
        <time>2019-05-03T11:35:04.000Z</time>
      </trkpt>
      <trkpt lat="42.09838720969855785369873046875" lon="-8.6394695006310939788818359375">
        <ele>32.200000762939453125</ele>
        <time>2019-05-03T11:35:06.000Z</time>
      </trkpt>
      <trkpt lat="42.09856373257935047149658203125" lon="-8.63901763223111629486083984375">
        <ele>28.200000762939453125</ele>
        <time>2019-05-03T11:35:12.000Z</time>
      </trkpt>
      <trkpt lat="42.09888760931789875030517578125" lon="-8.6384519375860691070556640625">
        <ele>22.200000762939453125</ele>
        <time>2019-05-03T11:35:26.000Z</time>
      </trkpt>
      <trkpt lat="42.09910771809518337249755859375" lon="-8.63811247050762176513671875">
        <ele>19</ele>
        <time>2019-05-03T11:35:35.000Z</time>
      </trkpt>
      <trkpt lat="42.09918935783207416534423828125" lon="-8.6382041685283184051513671875">
        <ele>18.3999996185302734375</ele>
        <time>2019-05-03T11:35:39.000Z</time>
      </trkpt>
      <trkpt lat="42.09928952157497406005859375" lon="-8.63825353793799877166748046875">
        <ele>17.799999237060546875</ele>
        <time>2019-05-03T11:35:43.000Z</time>
      </trkpt>
      <trkpt lat="42.09941365756094455718994140625" lon="-8.63824565894901752471923828125">
        <ele>16.799999237060546875</ele>
        <time>2019-05-03T11:35:51.000Z</time>
      </trkpt>
      <trkpt lat="42.0995780266821384429931640625" lon="-8.6381773464381694793701171875">
        <ele>15.3999996185302734375</ele>
        <time>2019-05-03T11:36:02.000Z</time>
      </trkpt>
      <trkpt lat="42.09958481602370738983154296875" lon="-8.638174831867218017578125">
        <ele>15.19999980926513671875</ele>
        <time>2019-05-03T11:36:04.000Z</time>
      </trkpt>
      <trkpt lat="42.099577523767948150634765625" lon="-8.638113476336002349853515625">
        <ele>15</ele>
        <time>2019-05-03T11:36:47.000Z</time>
      </trkpt>
      <trkpt lat="42.0999272167682647705078125" lon="-8.63760687410831451416015625">
        <ele>11</ele>
        <time>2019-05-03T11:37:04.000Z</time>
      </trkpt>
      <trkpt lat="42.1004262752830982208251953125" lon="-8.63741937093436717987060546875">
        <ele>11</ele>
        <time>2019-05-03T11:37:16.000Z</time>
      </trkpt>
      <trkpt lat="42.10077035240828990936279296875" lon="-8.6372456140816211700439453125">
        <ele>11</ele>
        <time>2019-05-03T11:37:27.000Z</time>
      </trkpt>
      <trkpt lat="42.1013187803328037261962890625" lon="-8.63714058883488178253173828125">
        <ele>12.6000003814697265625</ele>
        <time>2019-05-03T11:37:41.000Z</time>
      </trkpt>
      <trkpt lat="42.10136261768639087677001953125" lon="-8.63715265877544879913330078125">
        <ele>12.80000019073486328125</ele>
        <time>2019-05-03T11:37:42.000Z</time>
      </trkpt>
      <trkpt lat="42.1015417389571666717529296875" lon="-8.63717378117144107818603515625">
        <ele>13</ele>
        <time>2019-05-03T11:37:46.000Z</time>
      </trkpt>
      <trkpt lat="42.10172270424664020538330078125" lon="-8.6371631361544132232666015625">
        <ele>13</ele>
        <time>2019-05-03T11:37:50.000Z</time>
      </trkpt>
      <trkpt lat="42.10197868756949901580810546875" lon="-8.63715332932770252227783203125">
        <ele>13</ele>
        <time>2019-05-03T11:37:56.000Z</time>
      </trkpt>
      <trkpt lat="42.1021801047027111053466796875" lon="-8.6370521597564220428466796875">
        <ele>13</ele>
        <time>2019-05-03T11:38:02.000Z</time>
      </trkpt>
      <trkpt lat="42.102279849350452423095703125" lon="-8.63656827248632907867431640625">
        <ele>12.6000003814697265625</ele>
        <time>2019-05-03T11:38:11.000Z</time>
      </trkpt>
      <trkpt lat="42.1022488363087177276611328125" lon="-8.63629217259585857391357421875">
        <ele>12.3999996185302734375</ele>
        <time>2019-05-03T11:38:16.000Z</time>
      </trkpt>
      <trkpt lat="42.1021747402846813201904296875" lon="-8.63597265444695949554443359375">
        <ele>13.80000019073486328125</ele>
        <time>2019-05-03T11:38:22.000Z</time>
      </trkpt>
      <trkpt lat="42.10201020352542400360107421875" lon="-8.63550125621259212493896484375">
        <ele>18.6000003814697265625</ele>
        <time>2019-05-03T11:38:33.000Z</time>
      </trkpt>
      <trkpt lat="42.1017698943614959716796875" lon="-8.6354186944663524627685546875">
        <ele>23.200000762939453125</ele>
        <time>2019-05-03T11:38:41.000Z</time>
      </trkpt>
      <trkpt lat="42.10130109451711177825927734375" lon="-8.63505969755351543426513671875">
        <ele>27.799999237060546875</ele>
        <time>2019-05-03T11:39:08.000Z</time>
      </trkpt>
      <trkpt lat="42.10121476091444492340087890625" lon="-8.63482676446437835693359375">
        <ele>27.6000003814697265625</ele>
        <time>2019-05-03T11:39:19.000Z</time>
      </trkpt>
      <trkpt lat="42.10122230462729930877685546875" lon="-8.63472324796020984649658203125">
        <ele>27.799999237060546875</ele>
        <time>2019-05-03T11:39:24.000Z</time>
      </trkpt>
      <trkpt lat="42.1015323512256145477294921875" lon="-8.63440473563969135284423828125">
        <ele>29.6000003814697265625</ele>
        <time>2019-05-03T11:42:13.000Z</time>
      </trkpt>
      <trkpt lat="42.101872153580188751220703125" lon="-8.6338559724390506744384765625">
        <ele>32.200000762939453125</ele>
        <time>2019-05-03T11:42:36.000Z</time>
      </trkpt>
      <trkpt lat="42.10223886184394359588623046875" lon="-8.63341416232287883758544921875">
        <ele>33.799999237060546875</ele>
        <time>2019-05-03T11:43:02.000Z</time>
      </trkpt>
      <trkpt lat="42.102479673922061920166015625" lon="-8.63358180038630962371826171875">
        <ele>33.59999847412109375</ele>
        <time>2019-05-03T11:43:16.000Z</time>
      </trkpt>
      <trkpt lat="42.102975547313690185546875" lon="-8.633663691580295562744140625">
        <ele>32.40000152587890625</ele>
        <time>2019-05-03T11:43:31.000Z</time>
      </trkpt>
      <trkpt lat="42.10331995971500873565673828125" lon="-8.6340205930173397064208984375">
        <ele>30</ele>
        <time>2019-05-03T11:43:39.000Z</time>
      </trkpt>
      <trkpt lat="42.1035235561430454254150390625" lon="-8.63413685001432895660400390625">
        <ele>31.200000762939453125</ele>
        <time>2019-05-03T11:43:43.000Z</time>
      </trkpt>
      <trkpt lat="42.1036097221076488494873046875" lon="-8.63418194465339183807373046875">
        <ele>31.6000003814697265625</ele>
        <time>2019-05-03T11:43:45.000Z</time>
      </trkpt>
      <trkpt lat="42.103678286075592041015625" lon="-8.6342485807836055755615234375">
        <ele>31.3999996185302734375</ele>
        <time>2019-05-03T11:43:47.000Z</time>
      </trkpt>
      <trkpt lat="42.1041086129844188690185546875" lon="-8.6346758902072906494140625">
        <ele>28.6000003814697265625</ele>
        <time>2019-05-03T11:44:00.000Z</time>
      </trkpt>
      <trkpt lat="42.10431857965886592864990234375" lon="-8.6347213201224803924560546875">
        <ele>26.6000003814697265625</ele>
        <time>2019-05-03T11:44:05.000Z</time>
      </trkpt>
      <trkpt lat="42.1046872995793819427490234375" lon="-8.634692989289760589599609375">
        <ele>25.200000762939453125</ele>
        <time>2019-05-03T11:44:30.000Z</time>
      </trkpt>
      <trkpt lat="42.10470180027186870574951171875" lon="-8.6347323842346668243408203125">
        <ele>24.6000003814697265625</ele>
        <time>2019-05-03T11:45:16.000Z</time>
      </trkpt>
      <trkpt lat="42.10506431758403778076171875" lon="-8.6353107355535030364990234375">
        <ele>17.6000003814697265625</ele>
        <time>2019-05-03T11:45:39.000Z</time>
      </trkpt>
      <trkpt lat="42.105306051671504974365234375" lon="-8.63564190454781055450439453125">
        <ele>16.200000762939453125</ele>
        <time>2019-05-03T11:45:53.000Z</time>
      </trkpt>
      <trkpt lat="42.10533329285681247711181640625" lon="-8.635696470737457275390625">
        <ele>16</ele>
        <time>2019-05-03T11:45:56.000Z</time>
      </trkpt>
      <trkpt lat="42.10534485988318920135498046875" lon="-8.63572337664663791656494140625">
        <ele>16</ele>
        <time>2019-05-03T11:45:57.000Z</time>
      </trkpt>
      <trkpt lat="42.10539330728352069854736328125" lon="-8.63581205718219280242919921875">
        <ele>15.6000003814697265625</ele>
        <time>2019-05-03T11:46:01.000Z</time>
      </trkpt>
      <trkpt lat="42.10551283322274684906005859375" lon="-8.6359521187841892242431640625">
        <ele>15</ele>
        <time>2019-05-03T11:46:08.000Z</time>
      </trkpt>
      <trkpt lat="42.10577552206814289093017578125" lon="-8.63654145039618015289306640625">
        <ele>14.3999996185302734375</ele>
        <time>2019-05-03T11:46:26.000Z</time>
      </trkpt>
      <trkpt lat="42.10587878711521625518798828125" lon="-8.63726883195340633392333984375">
        <ele>17.200000762939453125</ele>
        <time>2019-05-03T11:46:45.000Z</time>
      </trkpt>
      <trkpt lat="42.1059593372046947479248046875" lon="-8.63779722712934017181396484375">
        <ele>20.799999237060546875</ele>
        <time>2019-05-03T11:46:59.000Z</time>
      </trkpt>
      <trkpt lat="42.1065145544707775115966796875" lon="-8.637815080583095550537109375">
        <ele>22.6000003814697265625</ele>
        <time>2019-05-03T11:47:17.000Z</time>
      </trkpt>
      <trkpt lat="42.10684287361800670623779296875" lon="-8.6379973031580448150634765625">
        <ele>25.3999996185302734375</ele>
        <time>2019-05-03T11:47:29.000Z</time>
      </trkpt>
      <trkpt lat="42.1070174686610698699951171875" lon="-8.638483621180057525634765625">
        <ele>30.6000003814697265625</ele>
        <time>2019-05-03T11:47:51.000Z</time>
      </trkpt>
      <trkpt lat="42.1074744500219821929931640625" lon="-8.6388713680207729339599609375">
        <ele>30.799999237060546875</ele>
        <time>2019-05-03T11:48:18.000Z</time>
      </trkpt>
      <trkpt lat="42.1078338660299777984619140625" lon="-8.6394185386598110198974609375">
        <ele>36.59999847412109375</ele>
        <time>2019-05-03T11:48:46.000Z</time>
      </trkpt>
      <trkpt lat="42.10826930589973926544189453125" lon="-8.6398419924080371856689453125">
        <ele>38.200000762939453125</ele>
        <time>2019-05-03T11:49:08.000Z</time>
      </trkpt>
      <trkpt lat="42.10838883183896541595458984375" lon="-8.63997526466846466064453125">
        <ele>38.40000152587890625</ele>
        <time>2019-05-03T11:49:18.000Z</time>
      </trkpt>
      <trkpt lat="42.1085329167544841766357421875" lon="-8.64002195186913013458251953125">
        <ele>38.200000762939453125</ele>
        <time>2019-05-03T11:49:24.000Z</time>
      </trkpt>
      <trkpt lat="42.108985371887683868408203125" lon="-8.64039712585508823394775390625">
        <ele>37</ele>
        <time>2019-05-03T11:49:42.000Z</time>
      </trkpt>
      <trkpt lat="42.10939533077180385589599609375" lon="-8.64087539725005626678466796875">
        <ele>35.40000152587890625</ele>
        <time>2019-05-03T11:49:59.000Z</time>
      </trkpt>
      <trkpt lat="42.10958157666027545928955078125" lon="-8.64095720462501049041748046875">
        <ele>34.59999847412109375</ele>
        <time>2019-05-03T11:50:04.000Z</time>
      </trkpt>
      <trkpt lat="42.1097935549914836883544921875" lon="-8.64085276611149311065673828125">
        <ele>34.200000762939453125</ele>
        <time>2019-05-03T11:50:09.000Z</time>
      </trkpt>
      <trkpt lat="42.10996261797845363616943359375" lon="-8.6408836953341960906982421875">
        <ele>33.200000762939453125</ele>
        <time>2019-05-03T11:50:14.000Z</time>
      </trkpt>
      <trkpt lat="42.11038758046925067901611328125" lon="-8.64096365869045257568359375">
        <ele>28.3999996185302734375</ele>
        <time>2019-05-03T11:50:22.000Z</time>
      </trkpt>
      <trkpt lat="42.1104922704398632049560546875" lon="-8.6409453861415386199951171875">
        <ele>27.3999996185302734375</ele>
        <time>2019-05-03T11:50:24.000Z</time>
      </trkpt>
      <trkpt lat="42.11067507974803447723388671875" lon="-8.640859387814998626708984375">
        <ele>25.799999237060546875</ele>
        <time>2019-05-03T11:50:30.000Z</time>
      </trkpt>
      <trkpt lat="42.11069159209728240966796875" lon="-8.640857376158237457275390625">
        <ele>25.6000003814697265625</ele>
        <time>2019-05-03T11:50:31.000Z</time>
      </trkpt>
      <trkpt lat="42.11075370199978351593017578125" lon="-8.6408706195652484893798828125">
        <ele>24.799999237060546875</ele>
        <time>2019-05-03T11:50:37.000Z</time>
      </trkpt>
      <trkpt lat="42.11107355542480945587158203125" lon="-8.6407663486897945404052734375">
        <ele>22</ele>
        <time>2019-05-03T11:51:11.000Z</time>
      </trkpt>
      <trkpt lat="42.1114913932979106903076171875" lon="-8.64071295596659183502197265625">
        <ele>20.200000762939453125</ele>
        <time>2019-05-03T11:51:41.000Z</time>
      </trkpt>
      <trkpt lat="42.11155501194298267364501953125" lon="-8.64067909307777881622314453125">
        <ele>20</ele>
        <time>2019-05-03T11:51:45.000Z</time>
      </trkpt>
      <trkpt lat="42.11156674660742282867431640625" lon="-8.6406818591058254241943359375">
        <ele>19.799999237060546875</ele>
        <time>2019-05-03T11:51:47.000Z</time>
      </trkpt>
      <trkpt lat="42.1115869469940662384033203125" lon="-8.64069066010415554046630859375">
        <ele>19.799999237060546875</ele>
        <time>2019-05-03T11:51:52.000Z</time>
      </trkpt>
      <trkpt lat="42.11212598718702793121337890625" lon="-8.6407049931585788726806640625">
        <ele>23.799999237060546875</ele>
        <time>2019-05-03T11:52:19.000Z</time>
      </trkpt>
      <trkpt lat="42.1121998317539691925048828125" lon="-8.64066115580499172210693359375">
        <ele>24.200000762939453125</ele>
        <time>2019-05-03T11:52:24.000Z</time>
      </trkpt>
      <trkpt lat="42.1122868359088897705078125" lon="-8.64061472006142139434814453125">
        <ele>24.6000003814697265625</ele>
        <time>2019-05-03T11:52:30.000Z</time>
      </trkpt>
      <trkpt lat="42.112818248569965362548828125" lon="-8.6404706351459026336669921875">
        <ele>28</ele>
        <time>2019-05-03T11:52:56.000Z</time>
      </trkpt>
      <trkpt lat="42.11292277090251445770263671875" lon="-8.64047558046877384185791015625">
        <ele>28.799999237060546875</ele>
        <time>2019-05-03T11:53:00.000Z</time>
      </trkpt>
      <trkpt lat="42.11331470869481563568115234375" lon="-8.6405085213482379913330078125">
        <ele>31.3999996185302734375</ele>
        <time>2019-05-03T11:53:23.000Z</time>
      </trkpt>
      <trkpt lat="42.1133731305599212646484375" lon="-8.64052771590650081634521484375">
        <ele>31.6000003814697265625</ele>
        <time>2019-05-03T11:53:27.000Z</time>
      </trkpt>
      <trkpt lat="42.11387411691248416900634765625" lon="-8.6408315598964691162109375">
        <ele>32.799999237060546875</ele>
        <time>2019-05-03T11:53:46.000Z</time>
      </trkpt>
      <trkpt lat="42.1143898554146289825439453125" lon="-8.64113372750580310821533203125">
        <ele>33.200000762939453125</ele>
        <time>2019-05-03T11:54:11.000Z</time>
      </trkpt>
      <trkpt lat="42.1148183383047580718994140625" lon="-8.64156539551913738250732421875">
        <ele>33.200000762939453125</ele>
        <time>2019-05-03T11:54:38.000Z</time>
      </trkpt>
      <trkpt lat="42.11492369882762432098388671875" lon="-8.64160143770277500152587890625">
        <ele>33</ele>
        <time>2019-05-03T11:54:43.000Z</time>
      </trkpt>
      <trkpt lat="42.11546382866799831390380859375" lon="-8.64170688204467296600341796875">
        <ele>33.59999847412109375</ele>
        <time>2019-05-03T11:55:07.000Z</time>
      </trkpt>
      <trkpt lat="42.11598736234009265899658203125" lon="-8.642000667750835418701171875">
        <ele>35</ele>
        <time>2019-05-03T11:55:29.000Z</time>
      </trkpt>
      <trkpt lat="42.11631643585860729217529296875" lon="-8.64223326556384563446044921875">
        <ele>36.59999847412109375</ele>
        <time>2019-05-03T11:55:38.000Z</time>
      </trkpt>
      <trkpt lat="42.11659513413906097412109375" lon="-8.6423899233341217041015625">
        <ele>37.200000762939453125</ele>
        <time>2019-05-03T11:55:45.000Z</time>
      </trkpt>
      <trkpt lat="42.116769142448902130126953125" lon="-8.64231121726334095001220703125">
        <ele>37.40000152587890625</ele>
        <time>2019-05-03T11:55:49.000Z</time>
      </trkpt>
      <trkpt lat="42.11689109914004802703857421875" lon="-8.64220141433179378509521484375">
        <ele>37.59999847412109375</ele>
        <time>2019-05-03T11:55:52.000Z</time>
      </trkpt>
      <trkpt lat="42.11696871556341648101806640625" lon="-8.64212212152779102325439453125">
        <ele>37.59999847412109375</ele>
        <time>2019-05-03T11:55:54.000Z</time>
      </trkpt>
      <trkpt lat="42.11722453124821186065673828125" lon="-8.641954399645328521728515625">
        <ele>37.799999237060546875</ele>
        <time>2019-05-03T11:56:00.000Z</time>
      </trkpt>
      <trkpt lat="42.11775762028992176055908203125" lon="-8.6416850052773952484130859375">
        <ele>39.799999237060546875</ele>
        <time>2019-05-03T11:56:12.000Z</time>
      </trkpt>
      <trkpt lat="42.118277214467525482177734375" lon="-8.64147168584167957305908203125">
        <ele>42.59999847412109375</ele>
        <time>2019-05-03T11:56:27.000Z</time>
      </trkpt>
      <trkpt lat="42.11863202042877674102783203125" lon="-8.64129893481731414794921875">
        <ele>42.799999237060546875</ele>
        <time>2019-05-03T11:56:44.000Z</time>
      </trkpt>
      <trkpt lat="42.11905379779636859893798828125" lon="-8.6411599628627300262451171875">
        <ele>43.59999847412109375</ele>
        <time>2019-05-03T11:57:10.000Z</time>
      </trkpt>
      <trkpt lat="42.1195202507078647613525390625" lon="-8.6415565945208072662353515625">
        <ele>45.40000152587890625</ele>
        <time>2019-05-03T11:57:35.000Z</time>
      </trkpt>
      <trkpt lat="42.11999156512320041656494140625" lon="-8.6419763602316379547119140625">
        <ele>46.40000152587890625</ele>
        <time>2019-05-03T11:57:50.000Z</time>
      </trkpt>
      <trkpt lat="42.12049699388444423675537109375" lon="-8.64233301021158695220947265625">
        <ele>42.799999237060546875</ele>
        <time>2019-05-03T11:58:06.000Z</time>
      </trkpt>
      <trkpt lat="42.1208657138049602508544921875" lon="-8.64241548813879489898681640625">
        <ele>41.40000152587890625</ele>
        <time>2019-05-03T11:58:16.000Z</time>
      </trkpt>
      <trkpt lat="42.121255807578563690185546875" lon="-8.64255420863628387451171875">
        <ele>38.40000152587890625</ele>
        <time>2019-05-03T11:58:23.000Z</time>
      </trkpt>
      <trkpt lat="42.121550180017948150634765625" lon="-8.6427793465554714202880859375">
        <ele>38.200000762939453125</ele>
        <time>2019-05-03T11:58:27.000Z</time>
      </trkpt>
      <trkpt lat="42.12201914750039577484130859375" lon="-8.6433689296245574951171875">
        <ele>37.59999847412109375</ele>
        <time>2019-05-03T11:58:33.000Z</time>
      </trkpt>
      <trkpt lat="42.122427262365818023681640625" lon="-8.6439548246562480926513671875">
        <ele>38.40000152587890625</ele>
        <time>2019-05-03T11:58:39.000Z</time>
      </trkpt>
      <trkpt lat="42.122560031712055206298828125" lon="-8.6440877616405487060546875">
        <ele>40</ele>
        <time>2019-05-03T11:58:41.000Z</time>
      </trkpt>
      <trkpt lat="42.12299086153507232666015625" lon="-8.64449554122984409332275390625">
        <ele>39.59999847412109375</ele>
        <time>2019-05-03T11:58:50.000Z</time>
      </trkpt>
      <trkpt lat="42.1231506206095218658447265625" lon="-8.64460534416139125823974609375">
        <ele>38.799999237060546875</ele>
        <time>2019-05-03T11:58:54.000Z</time>
      </trkpt>
      <trkpt lat="42.12369360029697418212890625" lon="-8.6448741517961025238037109375">
        <ele>36.200000762939453125</ele>
        <time>2019-05-03T11:59:08.000Z</time>
      </trkpt>
      <trkpt lat="42.12424688972532749176025390625" lon="-8.64507406018674373626708984375">
        <ele>34</ele>
        <time>2019-05-03T11:59:21.000Z</time>
      </trkpt>
      <trkpt lat="42.12459616363048553466796875" lon="-8.64518755115568637847900390625">
        <ele>33.799999237060546875</ele>
        <time>2019-05-03T11:59:28.000Z</time>
      </trkpt>
      <trkpt lat="42.12480277754366397857666015625" lon="-8.6450645886361598968505859375">
        <ele>32.799999237060546875</ele>
        <time>2019-05-03T11:59:33.000Z</time>
      </trkpt>
      <trkpt lat="42.12483412586152553558349609375" lon="-8.64502510987222194671630859375">
        <ele>32.40000152587890625</ele>
        <time>2019-05-03T11:59:34.000Z</time>
      </trkpt>
      <trkpt lat="42.12517510168254375457763671875" lon="-8.64442178048193454742431640625">
        <ele>29.6000003814697265625</ele>
        <time>2019-05-03T11:59:48.000Z</time>
      </trkpt>
      <trkpt lat="42.12540753185749053955078125" lon="-8.6437663994729518890380859375">
        <ele>33.200000762939453125</ele>
        <time>2019-05-03T12:00:02.000Z</time>
      </trkpt>
      <trkpt lat="42.1252588368952274322509765625" lon="-8.6430552788078784942626953125">
        <ele>36</ele>
        <time>2019-05-03T12:00:19.000Z</time>
      </trkpt>
      <trkpt lat="42.1253553964197635650634765625" lon="-8.64232613705098628997802734375">
        <ele>36.200000762939453125</ele>
        <time>2019-05-03T12:00:37.000Z</time>
      </trkpt>
      <trkpt lat="42.1256306581199169158935546875" lon="-8.6417005956172943115234375">
        <ele>35</ele>
        <time>2019-05-03T12:00:51.000Z</time>
      </trkpt>
      <trkpt lat="42.126106582581996917724609375" lon="-8.64136607386171817779541015625">
        <ele>36.40000152587890625</ele>
        <time>2019-05-03T12:01:06.000Z</time>
      </trkpt>
      <trkpt lat="42.12663874961435794830322265625" lon="-8.6415450274944305419921875">
        <ele>37.799999237060546875</ele>
        <time>2019-05-03T12:01:23.000Z</time>
      </trkpt>
      <trkpt lat="42.1267565153539180755615234375" lon="-8.6415928043425083160400390625">
        <ele>37.40000152587890625</ele>
        <time>2019-05-03T12:01:26.000Z</time>
      </trkpt>
      <trkpt lat="42.1268809027969837188720703125" lon="-8.6416511423885822296142578125">
        <ele>37.200000762939453125</ele>
        <time>2019-05-03T12:01:29.000Z</time>
      </trkpt>
      <trkpt lat="42.12706840597093105316162109375" lon="-8.64174778573215007781982421875">
        <ele>37.200000762939453125</ele>
        <time>2019-05-03T12:01:33.000Z</time>
      </trkpt>
      <trkpt lat="42.127580456435680389404296875" lon="-8.64211491309106349945068359375">
        <ele>37.59999847412109375</ele>
        <time>2019-05-03T12:01:46.000Z</time>
      </trkpt>
      <trkpt lat="42.1280855499207973480224609375" lon="-8.64237206988036632537841796875">
        <ele>38.200000762939453125</ele>
        <time>2019-05-03T12:01:57.000Z</time>
      </trkpt>
      <trkpt lat="42.1286451257765293121337890625" lon="-8.6425409652292728424072265625">
        <ele>40.799999237060546875</ele>
        <time>2019-05-03T12:02:09.000Z</time>
      </trkpt>
      <trkpt lat="42.12919053621590137481689453125" lon="-8.6426579765975475311279296875">
        <ele>44.59999847412109375</ele>
        <time>2019-05-03T12:02:24.000Z</time>
      </trkpt>
      <trkpt lat="42.12972044013440608978271484375" lon="-8.6426152288913726806640625">
        <ele>43</ele>
        <time>2019-05-03T12:02:40.000Z</time>
      </trkpt>
      <trkpt lat="42.12995194830000400543212890625" lon="-8.6424115486443042755126953125">
        <ele>41.40000152587890625</ele>
        <time>2019-05-03T12:02:47.000Z</time>
      </trkpt>
      <trkpt lat="42.1305183134973049163818359375" lon="-8.6422043479979038238525390625">
        <ele>40.59999847412109375</ele>
        <time>2019-05-03T12:02:57.000Z</time>
      </trkpt>
      <trkpt lat="42.13089725933969020843505859375" lon="-8.64215598441660404205322265625">
        <ele>40.40000152587890625</ele>
        <time>2019-05-03T12:03:03.000Z</time>
      </trkpt>
      <trkpt lat="42.1314332820475101470947265625" lon="-8.64201215095818042755126953125">
        <ele>41.200000762939453125</ele>
        <time>2019-05-03T12:03:13.000Z</time>
      </trkpt>
      <trkpt lat="42.13185028173029422760009765625" lon="-8.641822300851345062255859375">
        <ele>42.799999237060546875</ele>
        <time>2019-05-03T12:03:22.000Z</time>
      </trkpt>
      <trkpt lat="42.1320354379713535308837890625" lon="-8.64152960479259490966796875">
        <ele>43.799999237060546875</ele>
        <time>2019-05-03T12:03:28.000Z</time>
      </trkpt>
      <trkpt lat="42.13236375711858272552490234375" lon="-8.640932478010654449462890625">
        <ele>45</ele>
        <time>2019-05-03T12:03:39.000Z</time>
      </trkpt>
      <trkpt lat="42.1325976960361003875732421875" lon="-8.64045747555792331695556640625">
        <ele>43.799999237060546875</ele>
        <time>2019-05-03T12:03:53.000Z</time>
      </trkpt>
      <trkpt lat="42.13262443430721759796142578125" lon="-8.64043149165809154510498046875">
        <ele>43.799999237060546875</ele>
        <time>2019-05-03T12:05:04.000Z</time>
      </trkpt>
      <trkpt lat="42.13263700716197490692138671875" lon="-8.64040634594857692718505859375">
        <ele>43.799999237060546875</ele>
        <time>2019-05-03T12:05:05.000Z</time>
      </trkpt>
      <trkpt lat="42.132922075688838958740234375" lon="-8.63970193080604076385498046875">
        <ele>41.40000152587890625</ele>
        <time>2019-05-03T12:05:17.000Z</time>
      </trkpt>
      <trkpt lat="42.13319775648415088653564453125" lon="-8.63904546014964580535888671875">
        <ele>40</ele>
        <time>2019-05-03T12:05:25.000Z</time>
      </trkpt>
      <trkpt lat="42.13346379809081554412841796875" lon="-8.63839209079742431640625">
        <ele>40</ele>
        <time>2019-05-03T12:05:35.000Z</time>
      </trkpt>
      <trkpt lat="42.1337369643151760101318359375" lon="-8.6377255618572235107421875">
        <ele>41.799999237060546875</ele>
        <time>2019-05-03T12:05:46.000Z</time>
      </trkpt>
      <trkpt lat="42.13399906642735004425048828125" lon="-8.637076802551746368408203125">
        <ele>42</ele>
        <time>2019-05-03T12:05:57.000Z</time>
      </trkpt>
      <trkpt lat="42.1340950392186641693115234375" lon="-8.636838085949420928955078125">
        <ele>41.799999237060546875</ele>
        <time>2019-05-03T12:06:02.000Z</time>
      </trkpt>
      <trkpt lat="42.134380526840686798095703125" lon="-8.6362146399915218353271484375">
        <ele>36.200000762939453125</ele>
        <time>2019-05-03T12:06:13.000Z</time>
      </trkpt>
      <trkpt lat="42.13467498309910297393798828125" lon="-8.63553847186267375946044921875">
        <ele>32.40000152587890625</ele>
        <time>2019-05-03T12:06:21.000Z</time>
      </trkpt>
      <trkpt lat="42.13494655676186084747314453125" lon="-8.634909577667713165283203125">
        <ele>30.3999996185302734375</ele>
        <time>2019-05-03T12:06:27.000Z</time>
      </trkpt>
      <trkpt lat="42.135260961949825286865234375" lon="-8.6342194117605686187744140625">
        <ele>27.3999996185302734375</ele>
        <time>2019-05-03T12:06:34.000Z</time>
      </trkpt>
      <trkpt lat="42.13548936881124973297119140625" lon="-8.63391020335257053375244140625">
        <ele>25.3999996185302734375</ele>
        <time>2019-05-03T12:06:38.000Z</time>
      </trkpt>
      <trkpt lat="42.1358473598957061767578125" lon="-8.6338261328637599945068359375">
        <ele>24</ele>
        <time>2019-05-03T12:06:42.000Z</time>
      </trkpt>
      <trkpt lat="42.1364007331430912017822265625" lon="-8.633753545582294464111328125">
        <ele>23.6000003814697265625</ele>
        <time>2019-05-03T12:06:48.000Z</time>
      </trkpt>
      <trkpt lat="42.13699978776276111602783203125" lon="-8.6336249671876430511474609375">
        <ele>21.799999237060546875</ele>
        <time>2019-05-03T12:06:56.000Z</time>
      </trkpt>
      <trkpt lat="42.13756254874169826507568359375" lon="-8.63351558335125446319580078125">
        <ele>21.200000762939453125</ele>
        <time>2019-05-03T12:07:06.000Z</time>
      </trkpt>
      <trkpt lat="42.1376130916178226470947265625" lon="-8.63349161110818386077880859375">
        <ele>21.200000762939453125</ele>
        <time>2019-05-03T12:07:07.000Z</time>
      </trkpt>
      <trkpt lat="42.13814056478440761566162109375" lon="-8.63325105048716068267822265625">
        <ele>21.200000762939453125</ele>
        <time>2019-05-03T12:07:18.000Z</time>
      </trkpt>
      <trkpt lat="42.138686813414096832275390625" lon="-8.63298408687114715576171875">
        <ele>22.200000762939453125</ele>
        <time>2019-05-03T12:07:30.000Z</time>
      </trkpt>
      <trkpt lat="42.1388112008571624755859375" lon="-8.63294251263141632080078125">
        <ele>22.6000003814697265625</ele>
        <time>2019-05-03T12:07:33.000Z</time>
      </trkpt>
      <trkpt lat="42.1393342316150665283203125" lon="-8.632704801857471466064453125">
        <ele>22.200000762939453125</ele>
        <time>2019-05-03T12:07:46.000Z</time>
      </trkpt>
      <trkpt lat="42.13991752825677394866943359375" lon="-8.63262324593961238861083984375">
        <ele>20</ele>
        <time>2019-05-03T12:07:57.000Z</time>
      </trkpt>
      <trkpt lat="42.14015792123973369598388671875" lon="-8.6325500719249248504638671875">
        <ele>20.6000003814697265625</ele>
        <time>2019-05-03T12:08:01.000Z</time>
      </trkpt>
      <trkpt lat="42.1406600810587406158447265625" lon="-8.6322538554668426513671875">
        <ele>21.799999237060546875</ele>
        <time>2019-05-03T12:08:12.000Z</time>
      </trkpt>
      <trkpt lat="42.14090608991682529449462890625" lon="-8.63209895789623260498046875">
        <ele>22</ele>
        <time>2019-05-03T12:08:18.000Z</time>
      </trkpt>
      <trkpt lat="42.14141763746738433837890625" lon="-8.6317853070795536041259765625">
        <ele>22</ele>
        <time>2019-05-03T12:08:32.000Z</time>
      </trkpt>
      <trkpt lat="42.141538672149181365966796875" lon="-8.631735183298587799072265625">
        <ele>21.799999237060546875</ele>
        <time>2019-05-03T12:08:35.000Z</time>
      </trkpt>
      <trkpt lat="42.14205927215516567230224609375" lon="-8.63146193325519561767578125">
        <ele>21.6000003814697265625</ele>
        <time>2019-05-03T12:08:48.000Z</time>
      </trkpt>
      <trkpt lat="42.1425785310566425323486328125" lon="-8.63119781948626041412353515625">
        <ele>21.799999237060546875</ele>
        <time>2019-05-03T12:09:02.000Z</time>
      </trkpt>
      <trkpt lat="42.14309896342456340789794921875" lon="-8.63092909567058086395263671875">
        <ele>24</ele>
        <time>2019-05-03T12:09:15.000Z</time>
      </trkpt>
      <trkpt lat="42.143272720277309417724609375" lon="-8.63084628246724605560302734375">
        <ele>24.799999237060546875</ele>
        <time>2019-05-03T12:09:19.000Z</time>
      </trkpt>
      <trkpt lat="42.14381285011768341064453125" lon="-8.63056213594973087310791015625">
        <ele>25</ele>
        <time>2019-05-03T12:09:33.000Z</time>
      </trkpt>
      <trkpt lat="42.1438515745103359222412109375" lon="-8.63054788671433925628662109375">
        <ele>24.799999237060546875</ele>
        <time>2019-05-03T12:09:34.000Z</time>
      </trkpt>
      <trkpt lat="42.1440775506198406219482421875" lon="-8.6303918994963169097900390625">
        <ele>24.799999237060546875</ele>
        <time>2019-05-03T12:09:40.000Z</time>
      </trkpt>
      <trkpt lat="42.14420252479612827301025390625" lon="-8.63023289479315280914306640625">
        <ele>25.200000762939453125</ele>
        <time>2019-05-03T12:09:44.000Z</time>
      </trkpt>
      <trkpt lat="42.14449035935103893280029296875" lon="-8.6301300488412380218505859375">
        <ele>25.799999237060546875</ele>
        <time>2019-05-03T12:09:53.000Z</time>
      </trkpt>
      <trkpt lat="42.14450678788125514984130859375" lon="-8.6301350779831409454345703125">
        <ele>25.799999237060546875</ele>
        <time>2019-05-03T12:09:56.000Z</time>
      </trkpt>
      <trkpt lat="42.14446253143250942230224609375" lon="-8.6301052384078502655029296875">
        <ele>25.799999237060546875</ele>
        <time>2019-05-03T12:10:02.000Z</time>
      </trkpt>
      <trkpt lat="42.14434233494102954864501953125" lon="-8.62972729839384555816650390625">
        <ele>24.799999237060546875</ele>
        <time>2019-05-03T12:10:11.000Z</time>
      </trkpt>
      <trkpt lat="42.14439346455037593841552734375" lon="-8.62896923907101154327392578125">
        <ele>23.200000762939453125</ele>
        <time>2019-05-03T12:10:23.000Z</time>
      </trkpt>
      <trkpt lat="42.14447376318275928497314453125" lon="-8.62821905873715877532958984375">
        <ele>21.799999237060546875</ele>
        <time>2019-05-03T12:10:36.000Z</time>
      </trkpt>
      <trkpt lat="42.1445777826011180877685546875" lon="-8.62750299274921417236328125">
        <ele>20.3999996185302734375</ele>
        <time>2019-05-03T12:10:50.000Z</time>
      </trkpt>
      <trkpt lat="42.14459178037941455841064453125" lon="-8.62675289623439311981201171875">
        <ele>19.200000762939453125</ele>
        <time>2019-05-03T12:11:04.000Z</time>
      </trkpt>
      <trkpt lat="42.1445913612842559814453125" lon="-8.626051247119903564453125">
        <ele>20.200000762939453125</ele>
        <time>2019-05-03T12:11:17.000Z</time>
      </trkpt>
      <trkpt lat="42.1446287445724010467529296875" lon="-8.62532503902912139892578125">
        <ele>20.200000762939453125</ele>
        <time>2019-05-03T12:11:37.000Z</time>
      </trkpt>
      <trkpt lat="42.14462212286889553070068359375" lon="-8.625112809240818023681640625">
        <ele>20.200000762939453125</ele>
        <time>2019-05-03T12:11:45.000Z</time>
      </trkpt>
      <trkpt lat="42.1446595899760723114013671875" lon="-8.625058494508266448974609375">
        <ele>20.3999996185302734375</ele>
        <time>2019-05-03T12:11:49.000Z</time>
      </trkpt>
      <trkpt lat="42.145132832229137420654296875" lon="-8.62477392889559268951416015625">
        <ele>21</ele>
        <time>2019-05-03T12:12:03.000Z</time>
      </trkpt>
      <trkpt lat="42.14518086053431034088134765625" lon="-8.62465792335569858551025390625">
        <ele>21</ele>
        <time>2019-05-03T12:12:05.000Z</time>
      </trkpt>
      <trkpt lat="42.14523266069591045379638671875" lon="-8.6245537362992763519287109375">
        <ele>21</ele>
        <time>2019-05-03T12:12:07.000Z</time>
      </trkpt>
      <trkpt lat="42.1453619934618473052978515625" lon="-8.62441786564886569976806640625">
        <ele>21</ele>
        <time>2019-05-03T12:12:11.000Z</time>
      </trkpt>
      <trkpt lat="42.14593556709587574005126953125" lon="-8.62430487759411334991455078125">
        <ele>20.6000003814697265625</ele>
        <time>2019-05-03T12:12:24.000Z</time>
      </trkpt>
      <trkpt lat="42.14639120735228061676025390625" lon="-8.62425223924219608306884765625">
        <ele>19.6000003814697265625</ele>
        <time>2019-05-03T12:12:34.000Z</time>
      </trkpt>
      <trkpt lat="42.14659354649484157562255859375" lon="-8.62431108020246028900146484375">
        <ele>19</ele>
        <time>2019-05-03T12:12:40.000Z</time>
      </trkpt>
      <trkpt lat="42.146742828190326690673828125" lon="-8.624153248965740203857421875">
        <ele>19.3999996185302734375</ele>
        <time>2019-05-03T12:12:44.000Z</time>
      </trkpt>
      <trkpt lat="42.14677174575626850128173828125" lon="-8.6240980960428714752197265625">
        <ele>19.6000003814697265625</ele>
        <time>2019-05-03T12:12:45.000Z</time>
      </trkpt>
      <trkpt lat="42.1470035053789615631103515625" lon="-8.62376407720148563385009765625">
        <ele>20.200000762939453125</ele>
        <time>2019-05-03T12:12:53.000Z</time>
      </trkpt>
      <trkpt lat="42.14721011929214000701904296875" lon="-8.62381151877343654632568359375">
        <ele>20.3999996185302734375</ele>
        <time>2019-05-03T12:12:58.000Z</time>
      </trkpt>
      <trkpt lat="42.14747347868978977203369140625" lon="-8.62397077493369579315185546875">
        <ele>19.799999237060546875</ele>
        <time>2019-05-03T12:13:07.000Z</time>
      </trkpt>
      <trkpt lat="42.147503904998302459716796875" lon="-8.62394982017576694488525390625">
        <ele>19.799999237060546875</ele>
        <time>2019-05-03T12:13:08.000Z</time>
      </trkpt>
      <trkpt lat="42.14776433072984218597412109375" lon="-8.623860217630863189697265625">
        <ele>19.799999237060546875</ele>
        <time>2019-05-03T12:13:15.000Z</time>
      </trkpt>
      <trkpt lat="42.14784446172416210174560546875" lon="-8.6238335631787776947021484375">
        <ele>19.799999237060546875</ele>
        <time>2019-05-03T12:13:17.000Z</time>
      </trkpt>
      <trkpt lat="42.1479295380413532257080078125" lon="-8.62378754653036594390869140625">
        <ele>19.799999237060546875</ele>
        <time>2019-05-03T12:13:19.000Z</time>
      </trkpt>
      <trkpt lat="42.14804763905704021453857421875" lon="-8.62378251738846302032470703125">
        <ele>19.799999237060546875</ele>
        <time>2019-05-03T12:13:22.000Z</time>
      </trkpt>
      <trkpt lat="42.14819130487740039825439453125" lon="-8.6239981837570667266845703125">
        <ele>20.3999996185302734375</ele>
        <time>2019-05-03T12:13:27.000Z</time>
      </trkpt>
      <trkpt lat="42.14822701178491115570068359375" lon="-8.6240364052355289459228515625">
        <ele>20.6000003814697265625</ele>
        <time>2019-05-03T12:13:28.000Z</time>
      </trkpt>
      <trkpt lat="42.14844192378222942352294921875" lon="-8.62414210103452205657958984375">
        <ele>21</ele>
        <time>2019-05-03T12:13:33.000Z</time>
      </trkpt>
      <trkpt lat="42.1485668979585170745849609375" lon="-8.6241664923727512359619140625">
        <ele>21</ele>
        <time>2019-05-03T12:13:36.000Z</time>
      </trkpt>
      <trkpt lat="42.148587517440319061279296875" lon="-8.62416766583919525146484375">
        <ele>21</ele>
        <time>2019-05-03T12:13:39.000Z</time>
      </trkpt>
      <trkpt lat="42.14861358515918254852294921875" lon="-8.6241802386939525604248046875">
        <ele>21</ele>
        <time>2019-05-03T12:21:08.000Z</time>
      </trkpt>
      <trkpt lat="42.148647867143154144287109375" lon="-8.624174036085605621337890625">
        <ele>21</ele>
        <time>2019-05-03T12:21:10.000Z</time>
      </trkpt>
      <trkpt lat="42.14902362786233425140380859375" lon="-8.6237966828048229217529296875">
        <ele>21</ele>
        <time>2019-05-03T12:21:26.000Z</time>
      </trkpt>
      <trkpt lat="42.14944808743894100189208984375" lon="-8.62353843636810779571533203125">
        <ele>20.6000003814697265625</ele>
        <time>2019-05-03T12:21:43.000Z</time>
      </trkpt>
      <trkpt lat="42.14992024004459381103515625" lon="-8.62394210882484912872314453125">
        <ele>20.6000003814697265625</ele>
        <time>2019-05-03T12:21:58.000Z</time>
      </trkpt>
      <trkpt lat="42.150234393775463104248046875" lon="-8.6237913183867931365966796875">
        <ele>21.3999996185302734375</ele>
        <time>2019-05-03T12:22:07.000Z</time>
      </trkpt>
      <trkpt lat="42.150294743478298187255859375" lon="-8.62371177412569522857666015625">
        <ele>21.6000003814697265625</ele>
        <time>2019-05-03T12:22:09.000Z</time>
      </trkpt>
      <trkpt lat="42.15033992193639278411865234375" lon="-8.6236230097711086273193359375">
        <ele>21.6000003814697265625</ele>
        <time>2019-05-03T12:22:11.000Z</time>
      </trkpt>
      <trkpt lat="42.1503824181854724884033203125" lon="-8.6235173977911472320556640625">
        <ele>21.6000003814697265625</ele>
        <time>2019-05-03T12:22:13.000Z</time>
      </trkpt>
      <trkpt lat="42.15044016949832439422607421875" lon="-8.62330525182187557220458984375">
        <ele>21.799999237060546875</ele>
        <time>2019-05-03T12:22:17.000Z</time>
      </trkpt>
      <trkpt lat="42.15045978315174579620361328125" lon="-8.62325261346995830535888671875">
        <ele>21.799999237060546875</ele>
        <time>2019-05-03T12:22:18.000Z</time>
      </trkpt>
      <trkpt lat="42.15051703155040740966796875" lon="-8.623167537152767181396484375">
        <ele>22</ele>
        <time>2019-05-03T12:22:20.000Z</time>
      </trkpt>
      <trkpt lat="42.15105238370597362518310546875" lon="-8.62313568592071533203125">
        <ele>22.3999996185302734375</ele>
        <time>2019-05-03T12:22:36.000Z</time>
      </trkpt>
      <trkpt lat="42.151523865759372711181640625" lon="-8.623441122472286224365234375">
        <ele>22.799999237060546875</ele>
        <time>2019-05-03T12:22:51.000Z</time>
      </trkpt>
      <trkpt lat="42.15194539166986942291259765625" lon="-8.62390288151800632476806640625">
        <ele>25.200000762939453125</ele>
        <time>2019-05-03T12:23:08.000Z</time>
      </trkpt>
      <trkpt lat="42.152496837079524993896484375" lon="-8.6240139417350292205810546875">
        <ele>25.3999996185302734375</ele>
        <time>2019-05-03T12:23:23.000Z</time>
      </trkpt>
      <trkpt lat="42.152682580053806304931640625" lon="-8.62402014434337615966796875">
        <ele>25.3999996185302734375</ele>
        <time>2019-05-03T12:23:28.000Z</time>
      </trkpt>
      <trkpt lat="42.153218686580657958984375" lon="-8.6241027899086475372314453125">
        <ele>24.6000003814697265625</ele>
        <time>2019-05-03T12:23:43.000Z</time>
      </trkpt>
      <trkpt lat="42.15335506014525890350341796875" lon="-8.62407588399946689605712890625">
        <ele>24.200000762939453125</ele>
        <time>2019-05-03T12:23:46.000Z</time>
      </trkpt>
      <trkpt lat="42.153453044593334197998046875" lon="-8.624051995575428009033203125">
        <ele>24</ele>
        <time>2019-05-03T12:23:48.000Z</time>
      </trkpt>
      <trkpt lat="42.15376409702003002166748046875" lon="-8.62411863170564174652099609375">
        <ele>23.799999237060546875</ele>
        <time>2019-05-03T12:23:55.000Z</time>
      </trkpt>
      <trkpt lat="42.15429567731916904449462890625" lon="-8.6242018640041351318359375">
        <ele>23.799999237060546875</ele>
        <time>2019-05-03T12:24:08.000Z</time>
      </trkpt>
      <trkpt lat="42.15468208305537700653076171875" lon="-8.624221980571746826171875">
        <ele>23.799999237060546875</ele>
        <time>2019-05-03T12:24:19.000Z</time>
      </trkpt>
      <trkpt lat="42.15495315380394458770751953125" lon="-8.62426028586924076080322265625">
        <ele>23.799999237060546875</ele>
        <time>2019-05-03T12:24:27.000Z</time>
      </trkpt>
      <trkpt lat="42.15524115599691867828369140625" lon="-8.6243022792041301727294921875">
        <ele>24.200000762939453125</ele>
        <time>2019-05-03T12:24:34.000Z</time>
      </trkpt>
      <trkpt lat="42.15572479180991649627685546875" lon="-8.6243951506912708282470703125">
        <ele>25.200000762939453125</ele>
        <time>2019-05-03T12:24:48.000Z</time>
      </trkpt>
      <trkpt lat="42.15580659918487071990966796875" lon="-8.62441199831664562225341796875">
        <ele>25.3999996185302734375</ele>
        <time>2019-05-03T12:25:48.000Z</time>
      </trkpt>
      <trkpt lat="42.155920676887035369873046875" lon="-8.624385260045528411865234375">
        <ele>25.200000762939453125</ele>
        <time>2019-05-03T12:25:53.000Z</time>
      </trkpt>
      <trkpt lat="42.15644781477749347686767578125" lon="-8.624562285840511322021484375">
        <ele>26</ele>
        <time>2019-05-03T12:26:07.000Z</time>
      </trkpt>
      <trkpt lat="42.1564908139407634735107421875" lon="-8.62454158253967761993408203125">
        <ele>25.799999237060546875</ele>
        <time>2019-05-03T12:26:08.000Z</time>
      </trkpt>
      <trkpt lat="42.1566339768469333648681640625" lon="-8.62444535829126834869384765625">
        <ele>25.200000762939453125</ele>
        <time>2019-05-03T12:26:12.000Z</time>
      </trkpt>
      <trkpt lat="42.15685240924358367919921875" lon="-8.624297417700290679931640625">
        <ele>25</ele>
        <time>2019-05-03T12:26:18.000Z</time>
      </trkpt>
      <trkpt lat="42.1570373140275478363037109375" lon="-8.6244340427219867706298828125">
        <ele>25.200000762939453125</ele>
        <time>2019-05-03T12:26:23.000Z</time>
      </trkpt>
      <trkpt lat="42.1571065485477447509765625" lon="-8.6245027743279933929443359375">
        <ele>25.3999996185302734375</ele>
        <time>2019-05-03T12:26:25.000Z</time>
      </trkpt>
      <trkpt lat="42.15760971419513225555419921875" lon="-8.6245480366051197052001953125">
        <ele>25.799999237060546875</ele>
        <time>2019-05-03T12:26:42.000Z</time>
      </trkpt>
      <trkpt lat="42.158149592578411102294921875" lon="-8.62458131276071071624755859375">
        <ele>26.3999996185302734375</ele>
        <time>2019-05-03T12:26:57.000Z</time>
      </trkpt>
      <trkpt lat="42.1582677774131298065185546875" lon="-8.6246256530284881591796875">
        <ele>26.3999996185302734375</ele>
        <time>2019-05-03T12:27:00.000Z</time>
      </trkpt>
      <trkpt lat="42.15879424475133419036865234375" lon="-8.62475213594734668731689453125">
        <ele>27</ele>
        <time>2019-05-03T12:27:12.000Z</time>
      </trkpt>
      <trkpt lat="42.158963643014430999755859375" lon="-8.62484903074800968170166015625">
        <ele>27.3999996185302734375</ele>
        <time>2019-05-03T12:27:16.000Z</time>
      </trkpt>
      <trkpt lat="42.15900630690157413482666015625" lon="-8.62486327998340129852294921875">
        <ele>27.3999996185302734375</ele>
        <time>2019-05-03T12:27:17.000Z</time>
      </trkpt>
      <trkpt lat="42.1592169441282749176025390625" lon="-8.62488440237939357757568359375">
        <ele>27.6000003814697265625</ele>
        <time>2019-05-03T12:27:22.000Z</time>
      </trkpt>
      <trkpt lat="42.1594776213169097900390625" lon="-8.62487887032330036163330078125">
        <ele>27.3999996185302734375</ele>
        <time>2019-05-03T12:27:28.000Z</time>
      </trkpt>
      <trkpt lat="42.1595663018524646759033203125" lon="-8.6248697340488433837890625">
        <ele>27.200000762939453125</ele>
        <time>2019-05-03T12:27:30.000Z</time>
      </trkpt>
      <trkpt lat="42.15969680808484554290771484375" lon="-8.6248477734625339508056640625">
        <ele>27</ele>
        <time>2019-05-03T12:27:33.000Z</time>
      </trkpt>
      <trkpt lat="42.15990400873124599456787109375" lon="-8.624803014099597930908203125">
        <ele>26.6000003814697265625</ele>
        <time>2019-05-03T12:27:38.000Z</time>
      </trkpt>
      <trkpt lat="42.16047146357595920562744140625" lon="-8.6249124817550182342529296875">
        <ele>26.3999996185302734375</ele>
        <time>2019-05-03T12:27:51.000Z</time>
      </trkpt>
      <trkpt lat="42.1606418676674365997314453125" lon="-8.62493050284683704376220703125">
        <ele>26.6000003814697265625</ele>
        <time>2019-05-03T12:27:55.000Z</time>
      </trkpt>
      <trkpt lat="42.1611808240413665771484375" lon="-8.62503309734165668487548828125">
        <ele>26.6000003814697265625</ele>
        <time>2019-05-03T12:28:15.000Z</time>
      </trkpt>
      <trkpt lat="42.1617023460566997528076171875" lon="-8.62481751479208469390869140625">
        <ele>26</ele>
        <time>2019-05-03T12:28:30.000Z</time>
      </trkpt>
      <trkpt lat="42.16202932409942150115966796875" lon="-8.62479588948190212249755859375">
        <ele>25.6000003814697265625</ele>
        <time>2019-05-03T12:28:44.000Z</time>
      </trkpt>
      <trkpt lat="42.1620610915124416351318359375" lon="-8.6248434148728847503662109375">
        <ele>25.6000003814697265625</ele>
        <time>2019-05-03T12:28:50.000Z</time>
      </trkpt>
      <trkpt lat="42.16240349225699901580810546875" lon="-8.624775521457195281982421875">
        <ele>25</ele>
        <time>2019-05-03T12:29:05.000Z</time>
      </trkpt>
      <trkpt lat="42.16239728964865207672119140625" lon="-8.62464585341513156890869140625">
        <ele>24.799999237060546875</ele>
        <time>2019-05-03T12:29:10.000Z</time>
      </trkpt>
      <trkpt lat="42.1623725630342960357666015625" lon="-8.623986952006816864013671875">
        <ele>26.200000762939453125</ele>
        <time>2019-05-03T12:29:28.000Z</time>
      </trkpt>
      <trkpt lat="42.16237834654748439788818359375" lon="-8.62392048351466655731201171875">
        <ele>26.6000003814697265625</ele>
        <time>2019-05-03T12:29:33.000Z</time>
      </trkpt>
      <trkpt lat="42.1623802743852138519287109375" lon="-8.6238774843513965606689453125">
        <ele>27</ele>
        <time>2019-05-03T12:30:58.000Z</time>
      </trkpt>
      <trkpt lat="42.1624010615050792694091796875" lon="-8.62375536002218723297119140625">
        <ele>27.6000003814697265625</ele>
        <time>2019-05-03T12:31:03.000Z</time>
      </trkpt>
      <trkpt lat="42.1624664403498172760009765625" lon="-8.623508512973785400390625">
        <ele>29</ele>
        <time>2019-05-03T12:31:10.000Z</time>
      </trkpt>
      <trkpt lat="42.16260038316249847412109375" lon="-8.6227777786552906036376953125">
        <ele>30</ele>
        <time>2019-05-03T12:31:30.000Z</time>
      </trkpt>
      <trkpt lat="42.16275469399988651275634765625" lon="-8.62207680009305477142333984375">
        <ele>33.200000762939453125</ele>
        <time>2019-05-03T12:31:48.000Z</time>
      </trkpt>
      <trkpt lat="42.162786461412906646728515625" lon="-8.62171235494315624237060546875">
        <ele>34.59999847412109375</ele>
        <time>2019-05-03T12:31:56.000Z</time>
      </trkpt>
      <trkpt lat="42.1629338152706623077392578125" lon="-8.6213639192283153533935546875">
        <ele>35.200000762939453125</ele>
        <time>2019-05-03T12:32:05.000Z</time>
      </trkpt>
      <trkpt lat="42.163475453853607177734375" lon="-8.62121698446571826934814453125">
        <ele>35.59999847412109375</ele>
        <time>2019-05-03T12:32:20.000Z</time>
      </trkpt>
      <trkpt lat="42.1640351973474025726318359375" lon="-8.62105898559093475341796875">
        <ele>35</ele>
        <time>2019-05-03T12:32:35.000Z</time>
      </trkpt>
      <trkpt lat="42.16438866220414638519287109375" lon="-8.620974831283092498779296875">
        <ele>35.200000762939453125</ele>
        <time>2019-05-03T12:32:49.000Z</time>
      </trkpt>
      <trkpt lat="42.16442562639713287353515625" lon="-8.62099771387875080108642578125">
        <ele>35</ele>
        <time>2019-05-03T12:33:13.000Z</time>
      </trkpt>
      <trkpt lat="42.16496315784752368927001953125" lon="-8.620901070535182952880859375">
        <ele>35.40000152587890625</ele>
        <time>2019-05-03T12:33:29.000Z</time>
      </trkpt>
      <trkpt lat="42.16548032127320766448974609375" lon="-8.620689846575260162353515625">
        <ele>37.200000762939453125</ele>
        <time>2019-05-03T12:33:50.000Z</time>
      </trkpt>
      <trkpt lat="42.1655335463583469390869140625" lon="-8.620655648410320281982421875">
        <ele>37.40000152587890625</ele>
        <time>2019-05-03T12:33:55.000Z</time>
      </trkpt>
      <trkpt lat="42.16559750027954578399658203125" lon="-8.620611727237701416015625">
        <ele>37.799999237060546875</ele>
        <time>2019-05-03T12:34:40.000Z</time>
      </trkpt>
      <trkpt lat="42.1656197123229503631591796875" lon="-8.62061046995222568511962890625">
        <ele>37.799999237060546875</ele>
        <time>2019-05-03T12:34:41.000Z</time>
      </trkpt>
      <trkpt lat="42.165729515254497528076171875" lon="-8.6205575801432132720947265625">
        <ele>38.200000762939453125</ele>
        <time>2019-05-03T12:34:46.000Z</time>
      </trkpt>
      <trkpt lat="42.165730185806751251220703125" lon="-8.62055699340999126434326171875">
        <ele>38.200000762939453125</ele>
        <time>2019-05-03T12:34:48.000Z</time>
      </trkpt>
      <trkpt lat="42.1658000908792018890380859375" lon="-8.62049102783203125">
        <ele>38.59999847412109375</ele>
        <time>2019-05-03T12:35:22.000Z</time>
      </trkpt>
      <trkpt lat="42.1659551560878753662109375" lon="-8.62029229290783405303955078125">
        <ele>40.200000762939453125</ele>
        <time>2019-05-03T12:35:28.000Z</time>
      </trkpt>
      <trkpt lat="42.1664915978908538818359375" lon="-8.62040628679096698760986328125">
        <ele>41.200000762939453125</ele>
        <time>2019-05-03T12:35:46.000Z</time>
      </trkpt>
      <trkpt lat="42.1670382656157016754150390625" lon="-8.6202588491141796112060546875">
        <ele>42.40000152587890625</ele>
        <time>2019-05-03T12:36:05.000Z</time>
      </trkpt>
      <trkpt lat="42.16712770052254199981689453125" lon="-8.620268404483795166015625">
        <ele>42.40000152587890625</ele>
        <time>2019-05-03T12:36:08.000Z</time>
      </trkpt>
      <trkpt lat="42.16767637990415096282958984375" lon="-8.62011392600834369659423828125">
        <ele>43.40000152587890625</ele>
        <time>2019-05-03T12:36:25.000Z</time>
      </trkpt>
      <trkpt lat="42.16820754110813140869140625" lon="-8.61994628794491291046142578125">
        <ele>44.40000152587890625</ele>
        <time>2019-05-03T12:36:38.000Z</time>
      </trkpt>
      <trkpt lat="42.16876703314483165740966796875" lon="-8.6197777278721332550048828125">
        <ele>45.799999237060546875</ele>
        <time>2019-05-03T12:36:52.000Z</time>
      </trkpt>
      <trkpt lat="42.16880994848906993865966796875" lon="-8.61976708285510540008544921875">
        <ele>46.200000762939453125</ele>
        <time>2019-05-03T12:36:56.000Z</time>
      </trkpt>
      <trkpt lat="42.1688251197338104248046875" lon="-8.61973623745143413543701171875">
        <ele>46.40000152587890625</ele>
        <time>2019-05-03T12:36:59.000Z</time>
      </trkpt>
      <trkpt lat="42.1688390336930751800537109375" lon="-8.61965644173324108123779296875">
        <ele>47</ele>
        <time>2019-05-03T12:37:04.000Z</time>
      </trkpt>
      <trkpt lat="42.1688739024102687835693359375" lon="-8.61961469985544681549072265625">
        <ele>47.40000152587890625</ele>
        <time>2019-05-03T12:37:09.000Z</time>
      </trkpt>
      <trkpt lat="42.16943062841892242431640625" lon="-8.61954445950686931610107421875">
        <ele>48.40000152587890625</ele>
        <time>2019-05-03T12:37:27.000Z</time>
      </trkpt>
      <trkpt lat="42.16957035474479198455810546875" lon="-8.61948025412857532501220703125">
        <ele>48.200000762939453125</ele>
        <time>2019-05-03T12:37:31.000Z</time>
      </trkpt>
      <trkpt lat="42.16971762478351593017578125" lon="-8.61887742765247821807861328125">
        <ele>49.200000762939453125</ele>
        <time>2019-05-03T12:37:46.000Z</time>
      </trkpt>
      <trkpt lat="42.16989289037883281707763671875" lon="-8.618806265294551849365234375">
        <ele>48.799999237060546875</ele>
        <time>2019-05-03T12:37:52.000Z</time>
      </trkpt>
      <trkpt lat="42.17002096585929393768310546875" lon="-8.618772737681865692138671875">
        <ele>48.40000152587890625</ele>
        <time>2019-05-03T12:37:55.000Z</time>
      </trkpt>
      <trkpt lat="42.17014677822589874267578125" lon="-8.6187380366027355194091796875">
        <ele>48</ele>
        <time>2019-05-03T12:37:58.000Z</time>
      </trkpt>
      <trkpt lat="42.17032891698181629180908203125" lon="-8.61865949817001819610595703125">
        <ele>47.40000152587890625</ele>
        <time>2019-05-03T12:38:02.000Z</time>
      </trkpt>
      <trkpt lat="42.17066000215709209442138671875" lon="-8.61848280765116214752197265625">
        <ele>46.59999847412109375</ele>
        <time>2019-05-03T12:38:09.000Z</time>
      </trkpt>
      <trkpt lat="42.171184457838535308837890625" lon="-8.6182887665927410125732421875">
        <ele>48.59999847412109375</ele>
        <time>2019-05-03T12:38:21.000Z</time>
      </trkpt>
      <trkpt lat="42.17170254327356815338134765625" lon="-8.618167228996753692626953125">
        <ele>50.200000762939453125</ele>
        <time>2019-05-03T12:38:37.000Z</time>
      </trkpt>
      <trkpt lat="42.1716955862939357757568359375" lon="-8.618161864578723907470703125">
        <ele>50.40000152587890625</ele>
        <time>2019-05-03T12:38:38.000Z</time>
      </trkpt>
      <trkpt lat="42.17175032012164592742919921875" lon="-8.6181415803730487823486328125">
        <ele>50.40000152587890625</ele>
        <time>2019-05-03T12:39:36.000Z</time>
      </trkpt>
      <trkpt lat="42.17210353352129459381103515625" lon="-8.6179903708398342132568359375">
        <ele>51.40000152587890625</ele>
        <time>2019-05-03T12:39:50.000Z</time>
      </trkpt>
      <trkpt lat="42.17260158620774745941162109375" lon="-8.61766733229160308837890625">
        <ele>53.40000152587890625</ele>
        <time>2019-05-03T12:40:10.000Z</time>
      </trkpt>
      <trkpt lat="42.1726365387439727783203125" lon="-8.6176185496151447296142578125">
        <ele>53.40000152587890625</ele>
        <time>2019-05-03T12:40:12.000Z</time>
      </trkpt>
      <trkpt lat="42.1727553941309452056884765625" lon="-8.61753447912633419036865234375">
        <ele>53.200000762939453125</ele>
        <time>2019-05-03T12:40:19.000Z</time>
      </trkpt>
      <trkpt lat="42.17286393977701663970947265625" lon="-8.617471195757389068603515625">
        <ele>53</ele>
        <time>2019-05-03T12:40:23.000Z</time>
      </trkpt>
      <trkpt lat="42.1729387901723384857177734375" lon="-8.6174110136926174163818359375">
        <ele>53</ele>
        <time>2019-05-03T12:40:25.000Z</time>
      </trkpt>
      <trkpt lat="42.17312696389853954315185546875" lon="-8.61723206005990505218505859375">
        <ele>53</ele>
        <time>2019-05-03T12:40:30.000Z</time>
      </trkpt>
      <trkpt lat="42.173253782093524932861328125" lon="-8.61699099652469158172607421875">
        <ele>53.40000152587890625</ele>
        <time>2019-05-03T12:40:34.000Z</time>
      </trkpt>
      <trkpt lat="42.17336383648216724395751953125" lon="-8.61681707203388214111328125">
        <ele>54.200000762939453125</ele>
        <time>2019-05-03T12:40:37.000Z</time>
      </trkpt>
      <trkpt lat="42.1735432930290699005126953125" lon="-8.61668891273438930511474609375">
        <ele>55</ele>
        <time>2019-05-03T12:40:41.000Z</time>
      </trkpt>
      <trkpt lat="42.1737008728086948394775390625" lon="-8.61667064018547534942626953125">
        <ele>54.799999237060546875</ele>
        <time>2019-05-03T12:40:45.000Z</time>
      </trkpt>
      <trkpt lat="42.174179144203662872314453125" lon="-8.6164229549467563629150390625">
        <ele>55.59999847412109375</ele>
        <time>2019-05-03T12:41:03.000Z</time>
      </trkpt>
      <trkpt lat="42.1746133267879486083984375" lon="-8.61612237989902496337890625">
        <ele>55.40000152587890625</ele>
        <time>2019-05-03T12:41:17.000Z</time>
      </trkpt>
      <trkpt lat="42.17482991516590118408203125" lon="-8.6159458570182323455810546875">
        <ele>55.799999237060546875</ele>
        <time>2019-05-03T12:41:23.000Z</time>
      </trkpt>
      <trkpt lat="42.17504926957190036773681640625" lon="-8.61585893668234348297119140625">
        <ele>55.200000762939453125</ele>
        <time>2019-05-03T12:41:28.000Z</time>
      </trkpt>
      <trkpt lat="42.17544875107705593109130859375" lon="-8.61576388590037822723388671875">
        <ele>53.40000152587890625</ele>
        <time>2019-05-03T12:41:39.000Z</time>
      </trkpt>
      <trkpt lat="42.1755351684987545013427734375" lon="-8.615969158709049224853515625">
        <ele>51</ele>
        <time>2019-05-03T12:41:43.000Z</time>
      </trkpt>
      <trkpt lat="42.17576357536017894744873046875" lon="-8.61665303818881511688232421875">
        <ele>47.40000152587890625</ele>
        <time>2019-05-03T12:41:54.000Z</time>
      </trkpt>
      <trkpt lat="42.17577748931944370269775390625" lon="-8.61670400016009807586669921875">
        <ele>47.40000152587890625</ele>
        <time>2019-05-03T12:41:56.000Z</time>
      </trkpt>
      <trkpt lat="42.175746895372867584228515625" lon="-8.6167418025434017181396484375">
        <ele>47.40000152587890625</ele>
        <time>2019-05-03T12:42:01.000Z</time>
      </trkpt>
      <trkpt lat="42.17575066722929477691650390625" lon="-8.6167723126709461212158203125">
        <ele>47.200000762939453125</ele>
        <time>2019-05-03T12:42:47.000Z</time>
      </trkpt>
      <trkpt lat="42.17577849514782428741455078125" lon="-8.616873063147068023681640625">
        <ele>47</ele>
        <time>2019-05-03T12:42:55.000Z</time>
      </trkpt>
      <trkpt lat="42.17578318901360034942626953125" lon="-8.6169161461293697357177734375">
        <ele>46.799999237060546875</ele>
        <time>2019-05-03T12:42:58.000Z</time>
      </trkpt>
      <trkpt lat="42.1758178062736988067626953125" lon="-8.61700708977878093719482421875">
        <ele>46.40000152587890625</ele>
        <time>2019-05-03T12:43:02.000Z</time>
      </trkpt>
      <trkpt lat="42.17591227032244205474853515625" lon="-8.61717187799513339996337890625">
        <ele>45.59999847412109375</ele>
        <time>2019-05-03T12:43:12.000Z</time>
      </trkpt>
      <trkpt lat="42.17592987231910228729248046875" lon="-8.617194928228855133056640625">
        <ele>45.59999847412109375</ele>
        <time>2019-05-03T12:43:14.000Z</time>
      </trkpt>
      <trkpt lat="42.175938673317432403564453125" lon="-8.6172269470989704132080078125">
        <ele>45.40000152587890625</ele>
        <time>2019-05-03T12:43:17.000Z</time>
      </trkpt>
      <trkpt lat="42.17595870606601238250732421875" lon="-8.61727950163185596466064453125">
        <ele>45.200000762939453125</ele>
        <time>2019-05-03T12:43:21.000Z</time>
      </trkpt>
      <trkpt lat="42.17613003216683864593505859375" lon="-8.61779205501079559326171875">
        <ele>44.40000152587890625</ele>
        <time>2019-05-03T12:43:43.000Z</time>
      </trkpt>
      <trkpt lat="42.1764320321381092071533203125" lon="-8.6183283291757106781005859375">
        <ele>42.40000152587890625</ele>
        <time>2019-05-03T12:43:56.000Z</time>
      </trkpt>
      <trkpt lat="42.17640437185764312744140625" lon="-8.61858054064214229583740234375">
        <ele>41.200000762939453125</ele>
        <time>2019-05-03T12:44:00.000Z</time>
      </trkpt>
      <trkpt lat="42.17618049122393131256103515625" lon="-8.6193163879215717315673828125">
        <ele>35.799999237060546875</ele>
        <time>2019-05-03T12:44:10.000Z</time>
      </trkpt>
      <trkpt lat="42.17616833746433258056640625" lon="-8.62009163014590740203857421875">
        <ele>34.59999847412109375</ele>
        <time>2019-05-03T12:44:20.000Z</time>
      </trkpt>
      <trkpt lat="42.17620094306766986846923828125" lon="-8.62030637450516223907470703125">
        <ele>34.40000152587890625</ele>
        <time>2019-05-03T12:44:23.000Z</time>
      </trkpt>
      <trkpt lat="42.17638115398585796356201171875" lon="-8.62105806358158588409423828125">
        <ele>35.799999237060546875</ele>
        <time>2019-05-03T12:44:35.000Z</time>
      </trkpt>
      <trkpt lat="42.1764095686376094818115234375" lon="-8.6212438903748989105224609375">
        <ele>36.59999847412109375</ele>
        <time>2019-05-03T12:44:38.000Z</time>
      </trkpt>
      <trkpt lat="42.17648626305162906646728515625" lon="-8.621980659663677215576171875">
        <ele>42</ele>
        <time>2019-05-03T12:44:50.000Z</time>
      </trkpt>
      <trkpt lat="42.1765426732599735260009765625" lon="-8.6222594417631626129150390625">
        <ele>42.40000152587890625</ele>
        <time>2019-05-03T12:44:55.000Z</time>
      </trkpt>
      <trkpt lat="42.1768417395651340484619140625" lon="-8.62275011837482452392578125">
        <ele>44.40000152587890625</ele>
        <time>2019-05-03T12:45:11.000Z</time>
      </trkpt>
      <trkpt lat="42.17692513950169086456298828125" lon="-8.62271449528634548187255859375">
        <ele>44.799999237060546875</ele>
        <time>2019-05-03T12:45:17.000Z</time>
      </trkpt>
      <trkpt lat="42.17696185223758220672607421875" lon="-8.6226778663694858551025390625">
        <ele>45</ele>
        <time>2019-05-03T12:45:21.000Z</time>
      </trkpt>
      <trkpt lat="42.17703511007130146026611328125" lon="-8.62258826382458209991455078125">
        <ele>45.200000762939453125</ele>
        <time>2019-05-03T12:45:26.000Z</time>
      </trkpt>
      <trkpt lat="42.17752964235842227935791015625" lon="-8.62225784920156002044677734375">
        <ele>47</ele>
        <time>2019-05-03T12:45:44.000Z</time>
      </trkpt>
      <trkpt lat="42.17787330038845539093017578125" lon="-8.6216408573091030120849609375">
        <ele>47</ele>
        <time>2019-05-03T12:45:56.000Z</time>
      </trkpt>
      <trkpt lat="42.178111933171749114990234375" lon="-8.62114557065069675445556640625">
        <ele>46.40000152587890625</ele>
        <time>2019-05-03T12:46:04.000Z</time>
      </trkpt>
      <trkpt lat="42.178313769400119781494140625" lon="-8.620879612863063812255859375">
        <ele>45.799999237060546875</ele>
        <time>2019-05-03T12:46:09.000Z</time>
      </trkpt>
      <trkpt lat="42.17870947904884815216064453125" lon="-8.62052614800631999969482421875">
        <ele>41.40000152587890625</ele>
        <time>2019-05-03T12:46:18.000Z</time>
      </trkpt>
      <trkpt lat="42.179052047431468963623046875" lon="-8.62055095843970775604248046875">
        <ele>41.40000152587890625</ele>
        <time>2019-05-03T12:46:25.000Z</time>
      </trkpt>
      <trkpt lat="42.17959125526249408721923828125" lon="-8.62066964618861675262451171875">
        <ele>46.59999847412109375</ele>
        <time>2019-05-03T12:46:38.000Z</time>
      </trkpt>
      <trkpt lat="42.179667949676513671875" lon="-8.6206226237118244171142578125">
        <ele>46.59999847412109375</ele>
        <time>2019-05-03T12:46:43.000Z</time>
      </trkpt>
      <trkpt lat="42.1800608932971954345703125" lon="-8.6204467713832855224609375">
        <ele>47.799999237060546875</ele>
        <time>2019-05-03T12:47:11.000Z</time>
      </trkpt>
      <trkpt lat="42.1801562793552875518798828125" lon="-8.6204516328871250152587890625">
        <ele>48.799999237060546875</ele>
        <time>2019-05-03T12:47:18.000Z</time>
      </trkpt>
      <trkpt lat="42.18069615773856639862060546875" lon="-8.620443083345890045166015625">
        <ele>54.59999847412109375</ele>
        <time>2019-05-03T12:47:55.000Z</time>
      </trkpt>
      <trkpt lat="42.1811570785939693450927734375" lon="-8.62017209641635417938232421875">
        <ele>56.59999847412109375</ele>
        <time>2019-05-03T12:48:28.000Z</time>
      </trkpt>
      <trkpt lat="42.18127534724771976470947265625" lon="-8.6200368963181972503662109375">
        <ele>56.59999847412109375</ele>
        <time>2019-05-03T12:48:38.000Z</time>
      </trkpt>
      <trkpt lat="42.181371487677097320556640625" lon="-8.61998316831886768341064453125">
        <ele>57.200000762939453125</ele>
        <time>2019-05-03T12:48:47.000Z</time>
      </trkpt>
      <trkpt lat="42.18162453733384609222412109375" lon="-8.619779236614704132080078125">
        <ele>58.200000762939453125</ele>
        <time>2019-05-03T12:48:57.000Z</time>
      </trkpt>
      <trkpt lat="42.181905917823314666748046875" lon="-8.6197185516357421875">
        <ele>61.200000762939453125</ele>
        <time>2019-05-03T12:49:01.000Z</time>
      </trkpt>
      <trkpt lat="42.18218293972313404083251953125" lon="-8.61927975900471210479736328125">
        <ele>61.59999847412109375</ele>
        <time>2019-05-03T12:49:10.000Z</time>
      </trkpt>
      <trkpt lat="42.1826398372650146484375" lon="-8.6191303096711635589599609375">
        <ele>64.59999847412109375</ele>
        <time>2019-05-03T12:49:34.000Z</time>
      </trkpt>
      <trkpt lat="42.182733379304409027099609375" lon="-8.61906015314161777496337890625">
        <ele>64.59999847412109375</ele>
        <time>2019-05-03T12:49:39.000Z</time>
      </trkpt>
      <trkpt lat="42.18310813419520854949951171875" lon="-8.61849479377269744873046875">
        <ele>63.40000152587890625</ele>
        <time>2019-05-03T12:50:05.000Z</time>
      </trkpt>
      <trkpt lat="42.183144092559814453125" lon="-8.6184485256671905517578125">
        <ele>63.40000152587890625</ele>
        <time>2019-05-03T12:50:06.000Z</time>
      </trkpt>
      <trkpt lat="42.18350275419652462005615234375" lon="-8.61826923675835132598876953125">
        <ele>63.59999847412109375</ele>
        <time>2019-05-03T12:50:15.000Z</time>
      </trkpt>
      <trkpt lat="42.18403165228664875030517578125" lon="-8.61837954260408878326416015625">
        <ele>65.1999969482421875</ele>
        <time>2019-05-03T12:50:34.000Z</time>
      </trkpt>
      <trkpt lat="42.184568680822849273681640625" lon="-8.618133701384067535400390625">
        <ele>66.1999969482421875</ele>
        <time>2019-05-03T12:50:52.000Z</time>
      </trkpt>
      <trkpt lat="42.1849728561937808990478515625" lon="-8.6176483891904354095458984375">
        <ele>64.8000030517578125</ele>
        <time>2019-05-03T12:51:04.000Z</time>
      </trkpt>
      <trkpt lat="42.18533000908792018890380859375" lon="-8.61704765819013118743896484375">
        <ele>60.59999847412109375</ele>
        <time>2019-05-03T12:51:11.000Z</time>
      </trkpt>
      <trkpt lat="42.18550108373165130615234375" lon="-8.616693019866943359375">
        <ele>58.799999237060546875</ele>
        <time>2019-05-03T12:51:16.000Z</time>
      </trkpt>
      <trkpt lat="42.185812890529632568359375" lon="-8.6161614395678043365478515625">
        <ele>57.59999847412109375</ele>
        <time>2019-05-03T12:51:25.000Z</time>
      </trkpt>
      <trkpt lat="42.18604247085750102996826171875" lon="-8.6159636266529560089111328125">
        <ele>57.200000762939453125</ele>
        <time>2019-05-03T12:51:30.000Z</time>
      </trkpt>
      <trkpt lat="42.18622251413762569427490234375" lon="-8.615810908377170562744140625">
        <ele>56.799999237060546875</ele>
        <time>2019-05-03T12:51:34.000Z</time>
      </trkpt>
      <trkpt lat="42.18632075004279613494873046875" lon="-8.61563019454479217529296875">
        <ele>56.200000762939453125</ele>
        <time>2019-05-03T12:51:37.000Z</time>
      </trkpt>
      <trkpt lat="42.18637841753661632537841796875" lon="-8.6154231615364551544189453125">
        <ele>55.59999847412109375</ele>
        <time>2019-05-03T12:51:40.000Z</time>
      </trkpt>
      <trkpt lat="42.18692122958600521087646484375" lon="-8.615183942019939422607421875">
        <ele>54.59999847412109375</ele>
        <time>2019-05-03T12:51:49.000Z</time>
      </trkpt>
      <trkpt lat="42.18709456734359264373779296875" lon="-8.61516290344297885894775390625">
        <ele>54.200000762939453125</ele>
        <time>2019-05-03T12:51:51.000Z</time>
      </trkpt>
      <trkpt lat="42.1874637901782989501953125" lon="-8.61494145356118679046630859375">
        <ele>51.799999237060546875</ele>
        <time>2019-05-03T12:51:56.000Z</time>
      </trkpt>
      <trkpt lat="42.187971733510494232177734375" lon="-8.61470022238790988922119140625">
        <ele>51</ele>
        <time>2019-05-03T12:52:09.000Z</time>
      </trkpt>
      <trkpt lat="42.18839812092483043670654296875" lon="-8.61471614800393581390380859375">
        <ele>50.59999847412109375</ele>
        <time>2019-05-03T12:52:26.000Z</time>
      </trkpt>
      <trkpt lat="42.188502810895442962646484375" lon="-8.61462763510644435882568359375">
        <ele>51.40000152587890625</ele>
        <time>2019-05-03T12:52:32.000Z</time>
      </trkpt>
      <trkpt lat="42.18861973844468593597412109375" lon="-8.614544570446014404296875">
        <ele>52.40000152587890625</ele>
        <time>2019-05-03T12:52:38.000Z</time>
      </trkpt>
      <trkpt lat="42.1886230073869228363037109375" lon="-8.61453794874250888824462890625">
        <ele>52.59999847412109375</ele>
        <time>2019-05-03T12:52:41.000Z</time>
      </trkpt>
      <trkpt lat="42.1886746399104595184326171875" lon="-8.61449696123600006103515625">
        <ele>53</ele>
        <time>2019-05-03T12:53:04.000Z</time>
      </trkpt>
      <trkpt lat="42.18904922716319561004638671875" lon="-8.61397803761065006256103515625">
        <ele>55.40000152587890625</ele>
        <time>2019-05-03T12:53:27.000Z</time>
      </trkpt>
      <trkpt lat="42.18940629623830318450927734375" lon="-8.613392896950244903564453125">
        <ele>58.40000152587890625</ele>
        <time>2019-05-03T12:53:47.000Z</time>
      </trkpt>
      <trkpt lat="42.18985053710639476776123046875" lon="-8.61298830248415470123291015625">
        <ele>64.59999847412109375</ele>
        <time>2019-05-03T12:54:05.000Z</time>
      </trkpt>
      <trkpt lat="42.19035227783024311065673828125" lon="-8.61271840520203113555908203125">
        <ele>65.40000152587890625</ele>
        <time>2019-05-03T12:54:23.000Z</time>
      </trkpt>
      <trkpt lat="42.19040759839117527008056640625" lon="-8.612684793770313262939453125">
        <ele>65.40000152587890625</ele>
        <time>2019-05-03T12:54:26.000Z</time>
      </trkpt>
      <trkpt lat="42.19093180261552333831787109375" lon="-8.61258597113192081451416015625">
        <ele>63</ele>
        <time>2019-05-03T12:54:45.000Z</time>
      </trkpt>
      <trkpt lat="42.191126681864261627197265625" lon="-8.6125981248915195465087890625">
        <ele>62.200000762939453125</ele>
        <time>2019-05-03T12:54:50.000Z</time>
      </trkpt>
      <trkpt lat="42.1912539191544055938720703125" lon="-8.61257155425846576690673828125">
        <ele>61.40000152587890625</ele>
        <time>2019-05-03T12:54:53.000Z</time>
      </trkpt>
      <trkpt lat="42.1917695738375186920166015625" lon="-8.6122417263686656951904296875">
        <ele>58.59999847412109375</ele>
        <time>2019-05-03T12:55:09.000Z</time>
      </trkpt>
      <trkpt lat="42.1922986395657062530517578125" lon="-8.61190083436667919158935546875">
        <ele>56.40000152587890625</ele>
        <time>2019-05-03T12:55:22.000Z</time>
      </trkpt>
      <trkpt lat="42.192777581512928009033203125" lon="-8.6116643808782100677490234375">
        <ele>56</ele>
        <time>2019-05-03T12:55:31.000Z</time>
      </trkpt>
      <trkpt lat="42.19290020875632762908935546875" lon="-8.61152281053364276885986328125">
        <ele>55.59999847412109375</ele>
        <time>2019-05-03T12:55:34.000Z</time>
      </trkpt>
      <trkpt lat="42.193250991404056549072265625" lon="-8.610906489193439483642578125">
        <ele>53.59999847412109375</ele>
        <time>2019-05-03T12:55:43.000Z</time>
      </trkpt>
      <trkpt lat="42.193328104913234710693359375" lon="-8.61082325689494609832763671875">
        <ele>53.59999847412109375</ele>
        <time>2019-05-03T12:55:45.000Z</time>
      </trkpt>
      <trkpt lat="42.1936246566474437713623046875" lon="-8.61067607067525386810302734375">
        <ele>53.200000762939453125</ele>
        <time>2019-05-03T12:55:53.000Z</time>
      </trkpt>
      <trkpt lat="42.19398600049316883087158203125" lon="-8.61057733185589313507080078125">
        <ele>53.200000762939453125</ele>
        <time>2019-05-03T12:56:02.000Z</time>
      </trkpt>
      <trkpt lat="42.19416193664073944091796875" lon="-8.6104818619787693023681640625">
        <ele>53.200000762939453125</ele>
        <time>2019-05-03T12:56:06.000Z</time>
      </trkpt>
      <trkpt lat="42.19470030628144741058349609375" lon="-8.61025907099246978759765625">
        <ele>53</ele>
        <time>2019-05-03T12:56:18.000Z</time>
      </trkpt>
      <trkpt lat="42.19487112946808338165283203125" lon="-8.61014029942452907562255859375">
        <ele>53</ele>
        <time>2019-05-03T12:56:22.000Z</time>
      </trkpt>
      <trkpt lat="42.1954165399074554443359375" lon="-8.60990745015442371368408203125">
        <ele>53.59999847412109375</ele>
        <time>2019-05-03T12:56:35.000Z</time>
      </trkpt>
      <trkpt lat="42.19596630893647670745849609375" lon="-8.60979882068932056427001953125">
        <ele>54.59999847412109375</ele>
        <time>2019-05-03T12:56:48.000Z</time>
      </trkpt>
      <trkpt lat="42.1965358592569828033447265625" lon="-8.60963679850101470947265625">
        <ele>54.200000762939453125</ele>
        <time>2019-05-03T12:57:00.000Z</time>
      </trkpt>
      <trkpt lat="42.19707674346864223480224609375" lon="-8.6094327829778194427490234375">
        <ele>55</ele>
        <time>2019-05-03T12:57:11.000Z</time>
      </trkpt>
      <trkpt lat="42.1971591375768184661865234375" lon="-8.6093640513718128204345703125">
        <ele>55</ele>
        <time>2019-05-03T12:57:13.000Z</time>
      </trkpt>
      <trkpt lat="42.197441942989826202392578125" lon="-8.60910580493509769439697265625">
        <ele>55.40000152587890625</ele>
        <time>2019-05-03T12:57:20.000Z</time>
      </trkpt>
      <trkpt lat="42.19788928516209125518798828125" lon="-8.608682267367839813232421875">
        <ele>54.40000152587890625</ele>
        <time>2019-05-03T12:57:31.000Z</time>
      </trkpt>
      <trkpt lat="42.1980251558125019073486328125" lon="-8.60860154964029788970947265625">
        <ele>54.200000762939453125</ele>
        <time>2019-05-03T12:57:34.000Z</time>
      </trkpt>
      <trkpt lat="42.19816555269062519073486328125" lon="-8.60853918828070163726806640625">
        <ele>54</ele>
        <time>2019-05-03T12:57:37.000Z</time>
      </trkpt>
      <trkpt lat="42.1984643675386905670166015625" lon="-8.6086785793304443359375">
        <ele>55.59999847412109375</ele>
        <time>2019-05-03T12:57:44.000Z</time>
      </trkpt>
      <trkpt lat="42.19850904308259487152099609375" lon="-8.6086986958980560302734375">
        <ele>55.799999237060546875</ele>
        <time>2019-05-03T12:57:45.000Z</time>
      </trkpt>
      <trkpt lat="42.1987248770892620086669921875" lon="-8.60875594429671764373779296875">
        <ele>57</ele>
        <time>2019-05-03T12:57:50.000Z</time>
      </trkpt>
      <trkpt lat="42.19885102473199367523193359375" lon="-8.60878662206232547760009765625">
        <ele>57.59999847412109375</ele>
        <time>2019-05-03T12:57:53.000Z</time>
      </trkpt>
      <trkpt lat="42.199401967227458953857421875" lon="-8.608774133026599884033203125">
        <ele>59.59999847412109375</ele>
        <time>2019-05-03T12:58:12.000Z</time>
      </trkpt>
      <trkpt lat="42.19966138713061809539794921875" lon="-8.60877572558820247650146484375">
        <ele>60.799999237060546875</ele>
        <time>2019-05-03T12:58:22.000Z</time>
      </trkpt>
      <trkpt lat="42.19958360306918621063232421875" lon="-8.60875544138252735137939453125">
        <ele>60.40000152587890625</ele>
        <time>2019-05-03T12:58:32.000Z</time>
      </trkpt>
      <trkpt lat="42.20009900629520416259765625" lon="-8.6088467203080654144287109375">
        <ele>64.40000152587890625</ele>
        <time>2019-05-03T12:58:54.000Z</time>
      </trkpt>
      <trkpt lat="42.20062564127147197723388671875" lon="-8.60863239504396915435791015625">
        <ele>65.1999969482421875</ele>
        <time>2019-05-03T12:59:14.000Z</time>
      </trkpt>
      <trkpt lat="42.20111078582704067230224609375" lon="-8.608540110290050506591796875">
        <ele>71.59999847412109375</ele>
        <time>2019-05-03T12:59:33.000Z</time>
      </trkpt>
      <trkpt lat="42.20120449550449848175048828125" lon="-8.60843290574848651885986328125">
        <ele>72.1999969482421875</ele>
        <time>2019-05-03T12:59:39.000Z</time>
      </trkpt>
      <trkpt lat="42.201203070580959320068359375" lon="-8.6084329895675182342529296875">
        <ele>72.1999969482421875</ele>
        <time>2019-05-03T12:59:41.000Z</time>
      </trkpt>
      <trkpt lat="42.20122285187244415283203125" lon="-8.60838596709072589874267578125">
        <ele>72.1999969482421875</ele>
        <time>2019-05-03T12:59:52.000Z</time>
      </trkpt>
      <trkpt lat="42.20126216299831867218017578125" lon="-8.60831723548471927642822265625">
        <ele>72.1999969482421875</ele>
        <time>2019-05-03T12:59:57.000Z</time>
      </trkpt>
      <trkpt lat="42.201299965381622314453125" lon="-8.60824196599423885345458984375">
        <ele>72.1999969482421875</ele>
        <time>2019-05-03T13:00:05.000Z</time>
      </trkpt>
      <trkpt lat="42.2013225965201854705810546875" lon="-8.6082335002720355987548828125">
        <ele>72.59999847412109375</ele>
        <time>2019-05-03T13:02:14.000Z</time>
      </trkpt>
      <trkpt lat="42.20141840167343616485595703125" lon="-8.60823207534849643707275390625">
        <ele>74.40000152587890625</ele>
        <time>2019-05-03T13:02:20.000Z</time>
      </trkpt>
      <trkpt lat="42.20177161507308483123779296875" lon="-8.607854135334491729736328125">
        <ele>77.8000030517578125</ele>
        <time>2019-05-03T13:02:40.000Z</time>
      </trkpt>
      <trkpt lat="42.20211527310311794281005859375" lon="-8.60728056170046329498291015625">
        <ele>78.40000152587890625</ele>
        <time>2019-05-03T13:03:06.000Z</time>
      </trkpt>
      <trkpt lat="42.20245256088674068450927734375" lon="-8.60666491091251373291015625">
        <ele>78.40000152587890625</ele>
        <time>2019-05-03T13:03:23.000Z</time>
      </trkpt>
      <trkpt lat="42.2029148228466510772705078125" lon="-8.60622159205377101898193359375">
        <ele>79.1999969482421875</ele>
        <time>2019-05-03T13:03:38.000Z</time>
      </trkpt>
      <trkpt lat="42.20303745009005069732666015625" lon="-8.6061011441051959991455078125">
        <ele>79.40000152587890625</ele>
        <time>2019-05-03T13:03:42.000Z</time>
      </trkpt>
      <trkpt lat="42.20332176424562931060791015625" lon="-8.60599008388817310333251953125">
        <ele>81</ele>
        <time>2019-05-03T13:03:54.000Z</time>
      </trkpt>
      <trkpt lat="42.20335185527801513671875" lon="-8.6059673689305782318115234375">
        <ele>80.8000030517578125</ele>
        <time>2019-05-03T13:03:56.000Z</time>
      </trkpt>
      <trkpt lat="42.20339485444128513336181640625" lon="-8.60595052130520343780517578125">
        <ele>80.8000030517578125</ele>
        <time>2019-05-03T13:04:00.000Z</time>
      </trkpt>
      <trkpt lat="42.20341128297150135040283203125" lon="-8.60595018602907657623291015625">
        <ele>81</ele>
        <time>2019-05-03T13:04:37.000Z</time>
      </trkpt>
      <trkpt lat="42.2037077508866786956787109375" lon="-8.605808280408382415771484375">
        <ele>81</ele>
        <time>2019-05-03T13:04:52.000Z</time>
      </trkpt>
      <trkpt lat="42.2037613950669765472412109375" lon="-8.60574147664010524749755859375">
        <ele>80.59999847412109375</ele>
        <time>2019-05-03T13:04:58.000Z</time>
      </trkpt>
      <trkpt lat="42.20379777252674102783203125" lon="-8.60573410056531429290771484375">
        <ele>80.59999847412109375</ele>
        <time>2019-05-03T13:05:51.000Z</time>
      </trkpt>
      <trkpt lat="42.2042850963771343231201171875" lon="-8.60604171641170978546142578125">
        <ele>87.8000030517578125</ele>
        <time>2019-05-03T13:06:15.000Z</time>
      </trkpt>
      <trkpt lat="42.20448701642453670501708984375" lon="-8.6061517708003520965576171875">
        <ele>90.59999847412109375</ele>
        <time>2019-05-03T13:06:28.000Z</time>
      </trkpt>
      <trkpt lat="42.204497158527374267578125" lon="-8.60615218989551067352294921875">
        <ele>90.8000030517578125</ele>
        <time>2019-05-03T13:06:30.000Z</time>
      </trkpt>
      <trkpt lat="42.20474660396575927734375" lon="-8.606298454105854034423828125">
        <ele>94.8000030517578125</ele>
        <time>2019-05-03T13:23:43.000Z</time>
      </trkpt>
      <trkpt lat="42.20476604998111724853515625" lon="-8.6063002981245517730712890625">
        <ele>95</ele>
        <time>2019-05-03T13:23:45.000Z</time>
      </trkpt>
      <trkpt lat="42.20492295920848846435546875" lon="-8.60631412826478481292724609375">
        <ele>97.59999847412109375</ele>
        <time>2019-05-03T13:23:57.000Z</time>
      </trkpt>
      <trkpt lat="42.2049328498542308807373046875" lon="-8.6063298024237155914306640625">
        <ele>97.8000030517578125</ele>
        <time>2019-05-03T13:24:00.000Z</time>
      </trkpt>
      <trkpt lat="42.20495623536407947540283203125" lon="-8.60631530173122882843017578125">
        <ele>98</ele>
        <time>2019-05-03T13:24:31.000Z</time>
      </trkpt>
      <trkpt lat="42.2051732428371906280517578125" lon="-8.6063059978187084197998046875">
        <ele>100</ele>
        <time>2019-05-03T13:24:46.000Z</time>
      </trkpt>
      <trkpt lat="42.205211631953716278076171875" lon="-8.60630390234291553497314453125">
        <ele>100.1999969482421875</ele>
        <time>2019-05-03T13:24:49.000Z</time>
      </trkpt>
      <trkpt lat="42.20525932498276233673095703125" lon="-8.60631513409316539764404296875">
        <ele>100.8000030517578125</ele>
        <time>2019-05-03T13:24:55.000Z</time>
      </trkpt>
      <trkpt lat="42.20529352314770221710205078125" lon="-8.6063029803335666656494140625">
        <ele>101</ele>
        <time>2019-05-03T13:25:10.000Z</time>
      </trkpt>
      <trkpt lat="42.20533811487257480621337890625" lon="-8.60629476606845855712890625">
        <ele>101.40000152587890625</ele>
        <time>2019-05-03T13:25:13.000Z</time>
      </trkpt>
      <trkpt lat="42.2054045833647251129150390625" lon="-8.60624640248715877532958984375">
        <ele>101.40000152587890625</ele>
        <time>2019-05-03T13:25:18.000Z</time>
      </trkpt>
      <trkpt lat="42.205846309661865234375" lon="-8.60633290372788906097412109375">
        <ele>107.40000152587890625</ele>
        <time>2019-05-03T13:25:45.000Z</time>
      </trkpt>
      <trkpt lat="42.205971367657184600830078125" lon="-8.60631966032087802886962890625">
        <ele>108.1999969482421875</ele>
        <time>2019-05-03T13:25:54.000Z</time>
      </trkpt>
      <trkpt lat="42.2064436040818691253662109375" lon="-8.60667698085308074951171875">
        <ele>115.40000152587890625</ele>
        <time>2019-05-03T13:26:30.000Z</time>
      </trkpt>
      <trkpt lat="42.20693117938935756683349609375" lon="-8.6070305295288562774658203125">
        <ele>123</ele>
        <time>2019-05-03T13:27:06.000Z</time>
      </trkpt>
      <trkpt lat="42.2073528729379177093505859375" lon="-8.6075049452483654022216796875">
        <ele>130.1999969482421875</ele>
        <time>2019-05-03T13:27:40.000Z</time>
      </trkpt>
      <trkpt lat="42.20780876465141773223876953125" lon="-8.60788389109075069427490234375">
        <ele>134.8000030517578125</ele>
        <time>2019-05-03T13:28:15.000Z</time>
      </trkpt>
      <trkpt lat="42.20802468247711658477783203125" lon="-8.6080812849104404449462890625">
        <ele>137.1999969482421875</ele>
        <time>2019-05-03T13:28:33.000Z</time>
      </trkpt>
      <trkpt lat="42.20809643156826496124267578125" lon="-8.60812830738723278045654296875">
        <ele>137.8000030517578125</ele>
        <time>2019-05-03T13:28:38.000Z</time>
      </trkpt>
      <trkpt lat="42.2083032131195068359375" lon="-8.60831891186535358428955078125">
        <ele>140.1999969482421875</ele>
        <time>2019-05-03T13:28:53.000Z</time>
      </trkpt>
      <trkpt lat="42.20835040323436260223388671875" lon="-8.6083662696182727813720703125">
        <ele>140.600006103515625</ele>
        <time>2019-05-03T13:28:57.000Z</time>
      </trkpt>
      <trkpt lat="42.20857336185872554779052734375" lon="-8.60865234397351741790771484375">
        <ele>144.600006103515625</ele>
        <time>2019-05-03T13:29:18.000Z</time>
      </trkpt>
      <trkpt lat="42.208728007972240447998046875" lon="-8.6087970994412899017333984375">
        <ele>147</ele>
        <time>2019-05-03T13:29:31.000Z</time>
      </trkpt>
      <trkpt lat="42.20881274901330471038818359375" lon="-8.608869351446628570556640625">
        <ele>148</ele>
        <time>2019-05-03T13:29:39.000Z</time>
      </trkpt>
      <trkpt lat="42.20902414061129093170166015625" lon="-8.608935736119747161865234375">
        <ele>149.1999969482421875</ele>
        <time>2019-05-03T13:29:54.000Z</time>
      </trkpt>
      <trkpt lat="42.20902942121028900146484375" lon="-8.608938753604888916015625">
        <ele>149.399993896484375</ele>
        <time>2019-05-03T13:29:56.000Z</time>
      </trkpt>
      <trkpt lat="42.20906185917556285858154296875" lon="-8.6089664138853549957275390625">
        <ele>149.8000030517578125</ele>
        <time>2019-05-03T13:32:53.000Z</time>
      </trkpt>
      <trkpt lat="42.20913461409509181976318359375" lon="-8.609001450240612030029296875">
        <ele>150.1999969482421875</ele>
        <time>2019-05-03T13:32:57.000Z</time>
      </trkpt>
      <trkpt lat="42.20952688716351985931396484375" lon="-8.60899440944194793701171875">
        <ele>150.8000030517578125</ele>
        <time>2019-05-03T13:33:13.000Z</time>
      </trkpt>
      <trkpt lat="42.21003818325698375701904296875" lon="-8.60902450047433376312255859375">
        <ele>150.1999969482421875</ele>
        <time>2019-05-03T13:33:26.000Z</time>
      </trkpt>
      <trkpt lat="42.21057613380253314971923828125" lon="-8.60909692011773586273193359375">
        <ele>150.1999969482421875</ele>
        <time>2019-05-03T13:33:36.000Z</time>
      </trkpt>
      <trkpt lat="42.21115414984524250030517578125" lon="-8.6092470400035381317138671875">
        <ele>149.1999969482421875</ele>
        <time>2019-05-03T13:33:46.000Z</time>
      </trkpt>
      <trkpt lat="42.21171691082417964935302734375" lon="-8.609387017786502838134765625">
        <ele>148.1999969482421875</ele>
        <time>2019-05-03T13:33:56.000Z</time>
      </trkpt>
      <trkpt lat="42.21231537871062755584716796875" lon="-8.60944074578583240509033203125">
        <ele>149.399993896484375</ele>
        <time>2019-05-03T13:34:06.000Z</time>
      </trkpt>
      <trkpt lat="42.2128845937550067901611328125" lon="-8.60944233834743499755859375">
        <ele>148.8000030517578125</ele>
        <time>2019-05-03T13:34:15.000Z</time>
      </trkpt>
      <trkpt lat="42.2134465165436267852783203125" lon="-8.6093853414058685302734375">
        <ele>147.600006103515625</ele>
        <time>2019-05-03T13:34:24.000Z</time>
      </trkpt>
      <trkpt lat="42.2140027396380901336669921875" lon="-8.60928182490170001983642578125">
        <ele>143.600006103515625</ele>
        <time>2019-05-03T13:34:32.000Z</time>
      </trkpt>
      <trkpt lat="42.21455200575292110443115234375" lon="-8.60897722654044628143310546875">
        <ele>143</ele>
        <time>2019-05-03T13:34:41.000Z</time>
      </trkpt>
      <trkpt lat="42.2149832546710968017578125" lon="-8.6085697822272777557373046875">
        <ele>143.1999969482421875</ele>
        <time>2019-05-03T13:34:50.000Z</time>
      </trkpt>
      <trkpt lat="42.2150239907205104827880859375" lon="-8.6085002124309539794921875">
        <ele>143.600006103515625</ele>
        <time>2019-05-03T13:34:54.000Z</time>
      </trkpt>
      <trkpt lat="42.2150565125048160552978515625" lon="-8.60847800038754940032958984375">
        <ele>143.600006103515625</ele>
        <time>2019-05-03T13:38:25.000Z</time>
      </trkpt>
      <trkpt lat="42.2153104841709136962890625" lon="-8.60829007811844348907470703125">
        <ele>145</ele>
        <time>2019-05-03T13:38:34.000Z</time>
      </trkpt>
      <trkpt lat="42.21573351882398128509521484375" lon="-8.6080420576035976409912109375">
        <ele>147.1999969482421875</ele>
        <time>2019-05-03T13:38:43.000Z</time>
      </trkpt>
      <trkpt lat="42.2162678651511669158935546875" lon="-8.607834018766880035400390625">
        <ele>144.399993896484375</ele>
        <time>2019-05-03T13:38:54.000Z</time>
      </trkpt>
      <trkpt lat="42.2168393433094024658203125" lon="-8.60765992663800716400146484375">
        <ele>142</ele>
        <time>2019-05-03T13:39:04.000Z</time>
      </trkpt>
      <trkpt lat="42.2173994220793247222900390625" lon="-8.60750402323901653289794921875">
        <ele>141.399993896484375</ele>
        <time>2019-05-03T13:39:15.000Z</time>
      </trkpt>
      <trkpt lat="42.2179583273828029632568359375" lon="-8.60751810483634471893310546875">
        <ele>143.8000030517578125</ele>
        <time>2019-05-03T13:39:30.000Z</time>
      </trkpt>
      <trkpt lat="42.21836275421082973480224609375" lon="-8.6075595952570438385009765625">
        <ele>146.600006103515625</ele>
        <time>2019-05-03T13:39:43.000Z</time>
      </trkpt>
      <trkpt lat="42.218900956213474273681640625" lon="-8.60764483921229839324951171875">
        <ele>154.8000030517578125</ele>
        <time>2019-05-03T13:40:03.000Z</time>
      </trkpt>
      <trkpt lat="42.21944016404449939727783203125" lon="-8.60764919780194759368896484375">
        <ele>161</ele>
        <time>2019-05-03T13:40:31.000Z</time>
      </trkpt>
      <trkpt lat="42.21999890170991420745849609375" lon="-8.60765120945870876312255859375">
        <ele>166</ele>
        <time>2019-05-03T13:40:57.000Z</time>
      </trkpt>
      <trkpt lat="42.2205379419028759002685546875" lon="-8.607692532241344451904296875">
        <ele>168.8000030517578125</ele>
        <time>2019-05-03T13:41:23.000Z</time>
      </trkpt>
      <trkpt lat="42.2207312285900115966796875" lon="-8.60778967849910259246826171875">
        <ele>169.1999969482421875</ele>
        <time>2019-05-03T13:41:34.000Z</time>
      </trkpt>
      <trkpt lat="42.221235819160938262939453125" lon="-8.6080846376717090606689453125">
        <ele>177.600006103515625</ele>
        <time>2019-05-03T13:42:02.000Z</time>
      </trkpt>
      <trkpt lat="42.22177636809647083282470703125" lon="-8.608138449490070343017578125">
        <ele>183.600006103515625</ele>
        <time>2019-05-03T13:42:33.000Z</time>
      </trkpt>
      <trkpt lat="42.2222444973886013031005859375" lon="-8.60820525325834751129150390625">
        <ele>189.8000030517578125</ele>
        <time>2019-05-03T13:42:59.000Z</time>
      </trkpt>
      <trkpt lat="42.22269502468407154083251953125" lon="-8.60807566903531551361083984375">
        <ele>194.399993896484375</ele>
        <time>2019-05-03T13:43:26.000Z</time>
      </trkpt>
      <trkpt lat="42.22288076765835285186767578125" lon="-8.60793954692780971527099609375">
        <ele>195.600006103515625</ele>
        <time>2019-05-03T13:43:43.000Z</time>
      </trkpt>
      <trkpt lat="42.22310087643563747406005859375" lon="-8.60766814090311527252197265625">
        <ele>197.1999969482421875</ele>
        <time>2019-05-03T13:44:11.000Z</time>
      </trkpt>
      <trkpt lat="42.2231157124042510986328125" lon="-8.6075944639742374420166015625">
        <ele>197</ele>
        <time>2019-05-03T13:44:15.000Z</time>
      </trkpt>
      <trkpt lat="42.223197855055332183837890625" lon="-8.607442416250705718994140625">
        <ele>196.8000030517578125</ele>
        <time>2019-05-03T13:44:27.000Z</time>
      </trkpt>
      <trkpt lat="42.22320699132978916168212890625" lon="-8.607443757355213165283203125">
        <ele>196.8000030517578125</ele>
        <time>2019-05-03T13:44:30.000Z</time>
      </trkpt>
      <trkpt lat="42.22324873320758342742919921875" lon="-8.607420958578586578369140625">
        <ele>197</ele>
        <time>2019-05-03T13:45:04.000Z</time>
      </trkpt>
      <trkpt lat="42.2233237512409687042236328125" lon="-8.60736270435154438018798828125">
        <ele>197.1999969482421875</ele>
        <time>2019-05-03T13:45:08.000Z</time>
      </trkpt>
      <trkpt lat="42.2235383279621601104736328125" lon="-8.60722406767308712005615234375">
        <ele>199</ele>
        <time>2019-05-03T13:45:21.000Z</time>
      </trkpt>
      <trkpt lat="42.22381107509136199951171875" lon="-8.60703245736658573150634765625">
        <ele>201.399993896484375</ele>
        <time>2019-05-03T13:45:41.000Z</time>
      </trkpt>
      <trkpt lat="42.22386882640421390533447265625" lon="-8.6069799028337001800537109375">
        <ele>201.8000030517578125</ele>
        <time>2019-05-03T13:45:45.000Z</time>
      </trkpt>
      <trkpt lat="42.22395985387265682220458984375" lon="-8.6069232411682605743408203125">
        <ele>202.600006103515625</ele>
        <time>2019-05-03T13:45:51.000Z</time>
      </trkpt>
      <trkpt lat="42.224176190793514251708984375" lon="-8.60677798278629779815673828125">
        <ele>203.8000030517578125</ele>
        <time>2019-05-03T13:46:04.000Z</time>
      </trkpt>
      <trkpt lat="42.2246848046779632568359375" lon="-8.60651470720767974853515625">
        <ele>205.600006103515625</ele>
        <time>2019-05-03T13:46:26.000Z</time>
      </trkpt>
      <trkpt lat="42.2251962684094905853271484375" lon="-8.60616375692188739776611328125">
        <ele>205</ele>
        <time>2019-05-03T13:46:42.000Z</time>
      </trkpt>
      <trkpt lat="42.2255013696849346160888671875" lon="-8.6060086078941822052001953125">
        <ele>203.8000030517578125</ele>
        <time>2019-05-03T13:46:48.000Z</time>
      </trkpt>
      <trkpt lat="42.2256106697022914886474609375" lon="-8.60598807223141193389892578125">
        <ele>203.600006103515625</ele>
        <time>2019-05-03T13:46:50.000Z</time>
      </trkpt>
      <trkpt lat="42.22591468133032321929931640625" lon="-8.60601791180670261383056640625">
        <ele>203.600006103515625</ele>
        <time>2019-05-03T13:46:56.000Z</time>
      </trkpt>
      <trkpt lat="42.22638356499373912811279296875" lon="-8.606421835720539093017578125">
        <ele>205.1999969482421875</ele>
        <time>2019-05-03T13:47:09.000Z</time>
      </trkpt>
      <trkpt lat="42.22652019001543521881103515625" lon="-8.606567345559597015380859375">
        <ele>204.600006103515625</ele>
        <time>2019-05-03T13:47:13.000Z</time>
      </trkpt>
      <trkpt lat="42.22702209837734699249267578125" lon="-8.6068444512784481048583984375">
        <ele>208.399993896484375</ele>
        <time>2019-05-03T13:47:33.000Z</time>
      </trkpt>
      <trkpt lat="42.2273279540240764617919921875" lon="-8.6073108203709125518798828125">
        <ele>215.399993896484375</ele>
        <time>2019-05-03T13:48:04.000Z</time>
      </trkpt>
      <trkpt lat="42.22723483107984066009521484375" lon="-8.60802018083631992340087890625">
        <ele>219.1999969482421875</ele>
        <time>2019-05-03T13:48:33.000Z</time>
      </trkpt>
      <trkpt lat="42.22756172530353069305419921875" lon="-8.6085567064583301544189453125">
        <ele>225</ele>
        <time>2019-05-03T13:48:59.000Z</time>
      </trkpt>
      <trkpt lat="42.22797646187245845794677734375" lon="-8.60902215354144573211669921875">
        <ele>228</ele>
        <time>2019-05-03T13:49:25.000Z</time>
      </trkpt>
      <trkpt lat="42.2283746860921382904052734375" lon="-8.60953294672071933746337890625">
        <ele>230.8000030517578125</ele>
        <time>2019-05-03T13:49:49.000Z</time>
      </trkpt>
      <trkpt lat="42.2287102974951267242431640625" lon="-8.61010878346860408782958984375">
        <ele>230.1999969482421875</ele>
        <time>2019-05-03T13:50:12.000Z</time>
      </trkpt>
      <trkpt lat="42.228827141225337982177734375" lon="-8.61032788641750812530517578125">
        <ele>229.399993896484375</ele>
        <time>2019-05-03T13:50:22.000Z</time>
      </trkpt>
      <trkpt lat="42.2288504429161548614501953125" lon="-8.610404245555400848388671875">
        <ele>229.1999969482421875</ele>
        <time>2019-05-03T13:50:26.000Z</time>
      </trkpt>
      <trkpt lat="42.228910624980926513671875" lon="-8.610514886677265167236328125">
        <ele>229</ele>
        <time>2019-05-03T13:50:32.000Z</time>
      </trkpt>
      <trkpt lat="42.22890651784837245941162109375" lon="-8.6104992963373661041259765625">
        <ele>229</ele>
        <time>2019-05-03T13:50:33.000Z</time>
      </trkpt>
      <trkpt lat="42.22894591279327869415283203125" lon="-8.61054933629930019378662109375">
        <ele>229</ele>
        <time>2019-05-03T13:51:46.000Z</time>
      </trkpt>
      <trkpt lat="42.2289661131799221038818359375" lon="-8.61058906652033329010009765625">
        <ele>228.8000030517578125</ele>
        <time>2019-05-03T13:51:48.000Z</time>
      </trkpt>
      <trkpt lat="42.2290408797562122344970703125" lon="-8.61069367267191410064697265625">
        <ele>228.600006103515625</ele>
        <time>2019-05-03T13:51:52.000Z</time>
      </trkpt>
      <trkpt lat="42.22932511009275913238525390625" lon="-8.61088913865387439727783203125">
        <ele>227.399993896484375</ele>
        <time>2019-05-03T13:52:07.000Z</time>
      </trkpt>
      <trkpt lat="42.229348830878734588623046875" lon="-8.61089869402348995208740234375">
        <ele>227.399993896484375</ele>
        <time>2019-05-03T13:52:17.000Z</time>
      </trkpt>
      <trkpt lat="42.229804806411266326904296875" lon="-8.61101654358208179473876953125">
        <ele>228</ele>
        <time>2019-05-03T13:52:37.000Z</time>
      </trkpt>
      <trkpt lat="42.23023856990039348602294921875" lon="-8.61141351051628589630126953125">
        <ele>227.600006103515625</ele>
        <time>2019-05-03T13:52:52.000Z</time>
      </trkpt>
      <trkpt lat="42.230730168521404266357421875" lon="-8.61171006225049495697021484375">
        <ele>226.399993896484375</ele>
        <time>2019-05-03T13:53:07.000Z</time>
      </trkpt>
      <trkpt lat="42.2309606708586215972900390625" lon="-8.61190167255699634552001953125">
        <ele>226</ele>
        <time>2019-05-03T13:53:13.000Z</time>
      </trkpt>
      <trkpt lat="42.23132369108498096466064453125" lon="-8.61227349378168582916259765625">
        <ele>225</ele>
        <time>2019-05-03T13:53:24.000Z</time>
      </trkpt>
      <trkpt lat="42.23147054202854633331298828125" lon="-8.612426631152629852294921875">
        <ele>223.8000030517578125</ele>
        <time>2019-05-03T13:53:28.000Z</time>
      </trkpt>
      <trkpt lat="42.231592833995819091796875" lon="-8.61251346766948699951171875">
        <ele>223</ele>
        <time>2019-05-03T13:53:32.000Z</time>
      </trkpt>
      <trkpt lat="42.23202743567526340484619140625" lon="-8.61235831864178180694580078125">
        <ele>219</ele>
        <time>2019-05-03T13:53:42.000Z</time>
      </trkpt>
      <trkpt lat="42.23257846198976039886474609375" lon="-8.61253760755062103271484375">
        <ele>215.600006103515625</ele>
        <time>2019-05-03T13:53:52.000Z</time>
      </trkpt>
      <trkpt lat="42.2331506945192813873291015625" lon="-8.612701892852783203125">
        <ele>212.8000030517578125</ele>
        <time>2019-05-03T13:54:01.000Z</time>
      </trkpt>
      <trkpt lat="42.2336941771209239959716796875" lon="-8.61281932331621646881103515625">
        <ele>210</ele>
        <time>2019-05-03T13:54:09.000Z</time>
      </trkpt>
      <trkpt lat="42.233761735260486602783203125" lon="-8.61284212209284305572509765625">
        <ele>209.8000030517578125</ele>
        <time>2019-05-03T13:54:10.000Z</time>
      </trkpt>
      <trkpt lat="42.23429641686379909515380859375" lon="-8.61316801048815250396728515625">
        <ele>206.1999969482421875</ele>
        <time>2019-05-03T13:54:18.000Z</time>
      </trkpt>
      <trkpt lat="42.234796397387981414794921875" lon="-8.613446541130542755126953125">
        <ele>205.1999969482421875</ele>
        <time>2019-05-03T13:54:26.000Z</time>
      </trkpt>
      <trkpt lat="42.2353209368884563446044921875" lon="-8.6136518977582454681396484375">
        <ele>203.8000030517578125</ele>
        <time>2019-05-03T13:54:37.000Z</time>
      </trkpt>
      <trkpt lat="42.23541808314621448516845703125" lon="-8.6136589385569095611572265625">
        <ele>203.600006103515625</ele>
        <time>2019-05-03T13:54:39.000Z</time>
      </trkpt>
      <trkpt lat="42.23598302341997623443603515625" lon="-8.61355877481400966644287109375">
        <ele>201.600006103515625</ele>
        <time>2019-05-03T13:54:49.000Z</time>
      </trkpt>
      <trkpt lat="42.2365316189825534820556640625" lon="-8.6134490557014942169189453125">
        <ele>199.8000030517578125</ele>
        <time>2019-05-03T13:54:58.000Z</time>
      </trkpt>
      <trkpt lat="42.237075604498386383056640625" lon="-8.613316453993320465087890625">
        <ele>198.8000030517578125</ele>
        <time>2019-05-03T13:55:08.000Z</time>
      </trkpt>
      <trkpt lat="42.2376098670065402984619140625" lon="-8.61317907460033893585205078125">
        <ele>197.600006103515625</ele>
        <time>2019-05-03T13:55:18.000Z</time>
      </trkpt>
      <trkpt lat="42.2381553612649440765380859375" lon="-8.6130685172975063323974609375">
        <ele>196.1999969482421875</ele>
        <time>2019-05-03T13:55:28.000Z</time>
      </trkpt>
      <trkpt lat="42.2386864386498928070068359375" lon="-8.61293633468449115753173828125">
        <ele>196</ele>
        <time>2019-05-03T13:55:38.000Z</time>
      </trkpt>
      <trkpt lat="42.2392074577510356903076171875" lon="-8.61268781125545501708984375">
        <ele>195.8000030517578125</ele>
        <time>2019-05-03T13:55:48.000Z</time>
      </trkpt>
      <trkpt lat="42.23971598781645298004150390625" lon="-8.612334430217742919921875">
        <ele>194.1999969482421875</ele>
        <time>2019-05-03T13:55:58.000Z</time>
      </trkpt>
      <trkpt lat="42.24020934663712978363037109375" lon="-8.61187803559005260467529296875">
        <ele>191.8000030517578125</ele>
        <time>2019-05-03T13:56:07.000Z</time>
      </trkpt>
      <trkpt lat="42.24062341265380382537841796875" lon="-8.61139456741511821746826171875">
        <ele>189.1999969482421875</ele>
        <time>2019-05-03T13:56:15.000Z</time>
      </trkpt>
      <trkpt lat="42.24106572568416595458984375" lon="-8.61081873066723346710205078125">
        <ele>186.399993896484375</ele>
        <time>2019-05-03T13:56:23.000Z</time>
      </trkpt>
      <trkpt lat="42.24149278365075588226318359375" lon="-8.6102838814258575439453125">
        <ele>183.8000030517578125</ele>
        <time>2019-05-03T13:56:31.000Z</time>
      </trkpt>
      <trkpt lat="42.24161247722804546356201171875" lon="-8.610604740679264068603515625">
        <ele>183.600006103515625</ele>
        <time>2019-05-03T13:56:38.000Z</time>
      </trkpt>
      <trkpt lat="42.24160761572420597076416015625" lon="-8.610669113695621490478515625">
        <ele>183.600006103515625</ele>
        <time>2019-05-03T13:56:39.000Z</time>
      </trkpt>
      <trkpt lat="42.24162655882537364959716796875" lon="-8.61080900765955448150634765625">
        <ele>183.8000030517578125</ele>
        <time>2019-05-03T13:56:42.000Z</time>
      </trkpt>
      <trkpt lat="42.242172472178936004638671875" lon="-8.6106806807219982147216796875">
        <ele>184.600006103515625</ele>
        <time>2019-05-03T13:56:54.000Z</time>
      </trkpt>
      <trkpt lat="42.242454774677753448486328125" lon="-8.61065872013568878173828125">
        <ele>185</ele>
        <time>2019-05-03T13:57:00.000Z</time>
      </trkpt>
      <trkpt lat="42.24302466027438640594482421875" lon="-8.61063214950263500213623046875">
        <ele>186.8000030517578125</ele>
        <time>2019-05-03T13:57:13.000Z</time>
      </trkpt>
      <trkpt lat="42.243064306676387786865234375" lon="-8.61062091775238513946533203125">
        <ele>187</ele>
        <time>2019-05-03T13:57:14.000Z</time>
      </trkpt>
      <trkpt lat="42.2436185181140899658203125" lon="-8.610551767051219940185546875">
        <ele>187.8000030517578125</ele>
        <time>2019-05-03T13:57:29.000Z</time>
      </trkpt>
      <trkpt lat="42.2439898364245891571044921875" lon="-8.610471300780773162841796875">
        <ele>188.1999969482421875</ele>
        <time>2019-05-03T13:57:38.000Z</time>
      </trkpt>
      <trkpt lat="42.24431463517248630523681640625" lon="-8.610321097075939178466796875">
        <ele>187</ele>
        <time>2019-05-03T13:57:46.000Z</time>
      </trkpt>
      <trkpt lat="42.2444501705467700958251953125" lon="-8.6102729849517345428466796875">
        <ele>186</ele>
        <time>2019-05-03T13:57:49.000Z</time>
      </trkpt>
      <trkpt lat="42.244551591575145721435546875" lon="-8.61025596968829631805419921875">
        <ele>185.399993896484375</ele>
        <time>2019-05-03T13:57:51.000Z</time>
      </trkpt>
      <trkpt lat="42.24510052241384983062744140625" lon="-8.61016477458178997039794921875">
        <ele>182.1999969482421875</ele>
        <time>2019-05-03T13:58:02.000Z</time>
      </trkpt>
      <trkpt lat="42.24515399895608425140380859375" lon="-8.61015002243220806121826171875">
        <ele>181.8000030517578125</ele>
        <time>2019-05-03T13:58:04.000Z</time>
      </trkpt>
      <trkpt lat="42.24530353210866451263427734375" lon="-8.61007559113204479217529296875">
        <ele>180.8000030517578125</ele>
        <time>2019-05-03T13:58:07.000Z</time>
      </trkpt>
      <trkpt lat="42.2454918734729290008544921875" lon="-8.60992488451302051544189453125">
        <ele>179.399993896484375</ele>
        <time>2019-05-03T13:58:11.000Z</time>
      </trkpt>
      <trkpt lat="42.24572681821882724761962890625" lon="-8.6098160035908222198486328125">
        <ele>178</ele>
        <time>2019-05-03T13:58:15.000Z</time>
      </trkpt>
      <trkpt lat="42.245982550084590911865234375" lon="-8.60984140075743198394775390625">
        <ele>176.8000030517578125</ele>
        <time>2019-05-03T13:58:19.000Z</time>
      </trkpt>
      <trkpt lat="42.24638982675969600677490234375" lon="-8.610053546726703643798828125">
        <ele>176.1999969482421875</ele>
        <time>2019-05-03T13:58:27.000Z</time>
      </trkpt>
      <trkpt lat="42.24658579565584659576416015625" lon="-8.610172569751739501953125">
        <ele>176</ele>
        <time>2019-05-03T13:58:31.000Z</time>
      </trkpt>
      <trkpt lat="42.24710404872894287109375" lon="-8.6103869788348674774169921875">
        <ele>176.8000030517578125</ele>
        <time>2019-05-03T13:58:40.000Z</time>
      </trkpt>
      <trkpt lat="42.24762129597365856170654296875" lon="-8.61063181422650814056396484375">
        <ele>176.1999969482421875</ele>
        <time>2019-05-03T13:58:48.000Z</time>
      </trkpt>
      <trkpt lat="42.24794517271220684051513671875" lon="-8.61070842482149600982666015625">
        <ele>176.600006103515625</ele>
        <time>2019-05-03T13:58:53.000Z</time>
      </trkpt>
      <trkpt lat="42.24850089289247989654541015625" lon="-8.6109442077577114105224609375">
        <ele>176</ele>
        <time>2019-05-03T13:59:05.000Z</time>
      </trkpt>
      <trkpt lat="42.2490528412163257598876953125" lon="-8.61092685721814632415771484375">
        <ele>175.1999969482421875</ele>
        <time>2019-05-03T13:59:20.000Z</time>
      </trkpt>
      <trkpt lat="42.24936355836689472198486328125" lon="-8.6108077503740787506103515625">
        <ele>167.600006103515625</ele>
        <time>2019-05-03T13:59:26.000Z</time>
      </trkpt>
      <trkpt lat="42.24990922026336193084716796875" lon="-8.6109861172735691070556640625">
        <ele>153.1999969482421875</ele>
        <time>2019-05-03T13:59:36.000Z</time>
      </trkpt>
      <trkpt lat="42.25043795071542263031005859375" lon="-8.61119977198541164398193359375">
        <ele>147.399993896484375</ele>
        <time>2019-05-03T13:59:44.000Z</time>
      </trkpt>
      <trkpt lat="42.2510051541030406951904296875" lon="-8.6113406717777252197265625">
        <ele>137.1999969482421875</ele>
        <time>2019-05-03T13:59:54.000Z</time>
      </trkpt>
      <trkpt lat="42.25105083547532558441162109375" lon="-8.61135349608957767486572265625">
        <ele>136.399993896484375</ele>
        <time>2019-05-03T13:59:55.000Z</time>
      </trkpt>
      <trkpt lat="42.2512572817504405975341796875" lon="-8.611442260444164276123046875">
        <ele>131.8000030517578125</ele>
        <time>2019-05-03T13:59:59.000Z</time>
      </trkpt>
      <trkpt lat="42.25156716071069240570068359375" lon="-8.61128761433064937591552734375">
        <ele>125.40000152587890625</ele>
        <time>2019-05-03T14:00:04.000Z</time>
      </trkpt>
      <trkpt lat="42.251633293926715850830078125" lon="-8.6112456209957599639892578125">
        <ele>124</ele>
        <time>2019-05-03T14:00:05.000Z</time>
      </trkpt>
      <trkpt lat="42.251857928931713104248046875" lon="-8.6112013645470142364501953125">
        <ele>117.59999847412109375</ele>
        <time>2019-05-03T14:00:09.000Z</time>
      </trkpt>
      <trkpt lat="42.25232086144387722015380859375" lon="-8.6110297031700611114501953125">
        <ele>105</ele>
        <time>2019-05-03T14:00:19.000Z</time>
      </trkpt>
      <trkpt lat="42.25254633463919162750244140625" lon="-8.61071781255304813385009765625">
        <ele>99.8000030517578125</ele>
        <time>2019-05-03T14:00:23.000Z</time>
      </trkpt>
      <trkpt lat="42.252674661576747894287109375" lon="-8.61054531298577785491943359375">
        <ele>98</ele>
        <time>2019-05-03T14:00:25.000Z</time>
      </trkpt>
      <trkpt lat="42.25280248560011386871337890625" lon="-8.610247336328029632568359375">
        <ele>96.1999969482421875</ele>
        <time>2019-05-03T14:00:29.000Z</time>
      </trkpt>
      <trkpt lat="42.2528391145169734954833984375" lon="-8.6102133058011531829833984375">
        <ele>95.59999847412109375</ele>
        <time>2019-05-03T14:00:30.000Z</time>
      </trkpt>
      <trkpt lat="42.25304874591529369354248046875" lon="-8.61025479622185230255126953125">
        <ele>92</ele>
        <time>2019-05-03T14:00:34.000Z</time>
      </trkpt>
      <trkpt lat="42.2532166354358196258544921875" lon="-8.6103133857250213623046875">
        <ele>89</ele>
        <time>2019-05-03T14:00:37.000Z</time>
      </trkpt>
      <trkpt lat="42.25348477251827716827392578125" lon="-8.61049753613770008087158203125">
        <ele>82.59999847412109375</ele>
        <time>2019-05-03T14:00:42.000Z</time>
      </trkpt>
      <trkpt lat="42.253646962344646453857421875" lon="-8.6107075028121471405029296875">
        <ele>78.59999847412109375</ele>
        <time>2019-05-03T14:00:46.000Z</time>
      </trkpt>
      <trkpt lat="42.25378383882343769073486328125" lon="-8.6104533635079860687255859375">
        <ele>75.59999847412109375</ele>
        <time>2019-05-03T14:00:54.000Z</time>
      </trkpt>
      <trkpt lat="42.253813259303569793701171875" lon="-8.61035470850765705108642578125">
        <ele>75</ele>
        <time>2019-05-03T14:01:01.000Z</time>
      </trkpt>
      <trkpt lat="42.25382122211158275604248046875" lon="-8.6102957837283611297607421875">
        <ele>75</ele>
        <time>2019-05-03T14:01:26.000Z</time>
      </trkpt>
      <trkpt lat="42.25385592319071292877197265625" lon="-8.61007089726626873016357421875">
        <ele>73.8000030517578125</ele>
        <time>2019-05-03T14:01:36.000Z</time>
      </trkpt>
      <trkpt lat="42.25388559512794017791748046875" lon="-8.61004315316677093505859375">
        <ele>73</ele>
        <time>2019-05-03T14:02:17.000Z</time>
      </trkpt>
      <trkpt lat="42.25413051433861255645751953125" lon="-8.6093603633344173431396484375">
        <ele>63</ele>
        <time>2019-05-03T14:02:35.000Z</time>
      </trkpt>
      <trkpt lat="42.254235707223415374755859375" lon="-8.60925701446831226348876953125">
        <ele>61</ele>
        <time>2019-05-03T14:02:39.000Z</time>
      </trkpt>
      <trkpt lat="42.2543552331626415252685546875" lon="-8.60940336249768733978271484375">
        <ele>59.40000152587890625</ele>
        <time>2019-05-03T14:02:43.000Z</time>
      </trkpt>
      <trkpt lat="42.25448607467114925384521484375" lon="-8.60958105884492397308349609375">
        <ele>58.40000152587890625</ele>
        <time>2019-05-03T14:02:47.000Z</time>
      </trkpt>
      <trkpt lat="42.254973985254764556884765625" lon="-8.6099232919514179229736328125">
        <ele>48.799999237060546875</ele>
        <time>2019-05-03T14:02:55.000Z</time>
      </trkpt>
      <trkpt lat="42.2551625780761241912841796875" lon="-8.61006595194339752197265625">
        <ele>47.200000762939453125</ele>
        <time>2019-05-03T14:02:58.000Z</time>
      </trkpt>
      <trkpt lat="42.25546809844672679901123046875" lon="-8.6100902594625949859619140625">
        <ele>44.200000762939453125</ele>
        <time>2019-05-03T14:03:02.000Z</time>
      </trkpt>
      <trkpt lat="42.25576288998126983642578125" lon="-8.60996964387595653533935546875">
        <ele>41.59999847412109375</ele>
        <time>2019-05-03T14:03:05.000Z</time>
      </trkpt>
      <trkpt lat="42.25622934289276599884033203125" lon="-8.60949237830936908721923828125">
        <ele>39.799999237060546875</ele>
        <time>2019-05-03T14:03:11.000Z</time>
      </trkpt>
      <trkpt lat="42.256739549338817596435546875" lon="-8.60911904834210872650146484375">
        <ele>38.799999237060546875</ele>
        <time>2019-05-03T14:03:18.000Z</time>
      </trkpt>
      <trkpt lat="42.2572815231978893280029296875" lon="-8.60879785381257534027099609375">
        <ele>39.59999847412109375</ele>
        <time>2019-05-03T14:03:26.000Z</time>
      </trkpt>
      <trkpt lat="42.25781142711639404296875" lon="-8.6085726320743560791015625">
        <ele>39.59999847412109375</ele>
        <time>2019-05-03T14:03:34.000Z</time>
      </trkpt>
      <trkpt lat="42.25835281424224376678466796875" lon="-8.60837423242628574371337890625">
        <ele>40.40000152587890625</ele>
        <time>2019-05-03T14:03:42.000Z</time>
      </trkpt>
      <trkpt lat="42.25889830850064754486083984375" lon="-8.60815362073481082916259765625">
        <ele>40</ele>
        <time>2019-05-03T14:03:50.000Z</time>
      </trkpt>
      <trkpt lat="42.2590289823710918426513671875" lon="-8.60809628851711750030517578125">
        <ele>40</ele>
        <time>2019-05-03T14:03:52.000Z</time>
      </trkpt>
      <trkpt lat="42.259159572422504425048828125" lon="-8.60806611366569995880126953125">
        <ele>39.59999847412109375</ele>
        <time>2019-05-03T14:03:54.000Z</time>
      </trkpt>
      <trkpt lat="42.25951052270829677581787109375" lon="-8.60798430629074573516845703125">
        <ele>38</ele>
        <time>2019-05-03T14:04:00.000Z</time>
      </trkpt>
      <trkpt lat="42.25981294177472591400146484375" lon="-8.60787718556821346282958984375">
        <ele>37.200000762939453125</ele>
        <time>2019-05-03T14:04:08.000Z</time>
      </trkpt>
      <trkpt lat="42.25990128703415393829345703125" lon="-8.6078781075775623321533203125">
        <ele>36.799999237060546875</ele>
        <time>2019-05-03T14:04:10.000Z</time>
      </trkpt>
      <trkpt lat="42.260442338883876800537109375" lon="-8.607925884425640106201171875">
        <ele>34</ele>
        <time>2019-05-03T14:04:22.000Z</time>
      </trkpt>
      <trkpt lat="42.2609896771609783172607421875" lon="-8.60792747698724269866943359375">
        <ele>33</ele>
        <time>2019-05-03T14:04:33.000Z</time>
      </trkpt>
      <trkpt lat="42.26108933798968791961669921875" lon="-8.60790233127772808074951171875">
        <ele>33.40000152587890625</ele>
        <time>2019-05-03T14:04:35.000Z</time>
      </trkpt>
      <trkpt lat="42.26162678562104701995849609375" lon="-8.6076528020203113555908203125">
        <ele>35.40000152587890625</ele>
        <time>2019-05-03T14:04:46.000Z</time>
      </trkpt>
      <trkpt lat="42.2621839307248592376708984375" lon="-8.6075616069138050079345703125">
        <ele>36.200000762939453125</ele>
        <time>2019-05-03T14:04:57.000Z</time>
      </trkpt>
      <trkpt lat="42.26273872889578342437744140625" lon="-8.60772178508341312408447265625">
        <ele>34</ele>
        <time>2019-05-03T14:05:08.000Z</time>
      </trkpt>
      <trkpt lat="42.2631086222827434539794921875" lon="-8.6079454980790615081787109375">
        <ele>32.40000152587890625</ele>
        <time>2019-05-03T14:05:16.000Z</time>
      </trkpt>
      <trkpt lat="42.26327718235552310943603515625" lon="-8.6079820431768894195556640625">
        <ele>32.799999237060546875</ele>
        <time>2019-05-03T14:05:19.000Z</time>
      </trkpt>
      <trkpt lat="42.2638073377311229705810546875" lon="-8.608025796711444854736328125">
        <ele>33.799999237060546875</ele>
        <time>2019-05-03T14:05:30.000Z</time>
      </trkpt>
      <trkpt lat="42.2643685899674892425537109375" lon="-8.60814473591744899749755859375">
        <ele>33.799999237060546875</ele>
        <time>2019-05-03T14:05:41.000Z</time>
      </trkpt>
      <trkpt lat="42.26446531713008880615234375" lon="-8.6081703007221221923828125">
        <ele>34</ele>
        <time>2019-05-03T14:05:43.000Z</time>
      </trkpt>
      <trkpt lat="42.26499614305794239044189453125" lon="-8.60823174007236957550048828125">
        <ele>33.59999847412109375</ele>
        <time>2019-05-03T14:05:54.000Z</time>
      </trkpt>
      <trkpt lat="42.26551079191267490386962890625" lon="-8.60844899900257587432861328125">
        <ele>33</ele>
        <time>2019-05-03T14:06:07.000Z</time>
      </trkpt>
      <trkpt lat="42.26586048491299152374267578125" lon="-8.60866575501859188079833984375">
        <ele>33.200000762939453125</ele>
        <time>2019-05-03T14:06:15.000Z</time>
      </trkpt>
      <trkpt lat="42.26640279404819011688232421875" lon="-8.60890966840088367462158203125">
        <ele>34.200000762939453125</ele>
        <time>2019-05-03T14:06:26.000Z</time>
      </trkpt>
      <trkpt lat="42.266921885311603546142578125" lon="-8.60922751016914844512939453125">
        <ele>35.799999237060546875</ele>
        <time>2019-05-03T14:06:38.000Z</time>
      </trkpt>
      <trkpt lat="42.267441563308238983154296875" lon="-8.60951484180986881256103515625">
        <ele>36.59999847412109375</ele>
        <time>2019-05-03T14:06:54.000Z</time>
      </trkpt>
      <trkpt lat="42.267994768917560577392578125" lon="-8.60972908325493335723876953125">
        <ele>33.200000762939453125</ele>
        <time>2019-05-03T14:07:06.000Z</time>
      </trkpt>
      <trkpt lat="42.26854654960334300994873046875" lon="-8.60988263972103595733642578125">
        <ele>34.40000152587890625</ele>
        <time>2019-05-03T14:07:17.000Z</time>
      </trkpt>
      <trkpt lat="42.26863682270050048828125" lon="-8.60992555506527423858642578125">
        <ele>34.40000152587890625</ele>
        <time>2019-05-03T14:07:19.000Z</time>
      </trkpt>
      <trkpt lat="42.26913797669112682342529296875" lon="-8.61026116646826267242431640625">
        <ele>31.200000762939453125</ele>
        <time>2019-05-03T14:07:30.000Z</time>
      </trkpt>
      <trkpt lat="42.2696119733154773712158203125" lon="-8.61061580479145050048828125">
        <ele>29.3999996185302734375</ele>
        <time>2019-05-03T14:07:40.000Z</time>
      </trkpt>
      <trkpt lat="42.2701470740139484405517578125" lon="-8.61088000237941741943359375">
        <ele>25</ele>
        <time>2019-05-03T14:07:50.000Z</time>
      </trkpt>
      <trkpt lat="42.2704567015171051025390625" lon="-8.61100363545119762420654296875">
        <ele>24.200000762939453125</ele>
        <time>2019-05-03T14:07:55.000Z</time>
      </trkpt>
      <trkpt lat="42.27064051665365695953369140625" lon="-8.61099642701447010040283203125">
        <ele>24.200000762939453125</ele>
        <time>2019-05-03T14:07:58.000Z</time>
      </trkpt>
      <trkpt lat="42.27118416689336299896240234375" lon="-8.61070708371698856353759765625">
        <ele>25.200000762939453125</ele>
        <time>2019-05-03T14:08:07.000Z</time>
      </trkpt>
      <trkpt lat="42.2714576683938503265380859375" lon="-8.61046467907726764678955078125">
        <ele>26.200000762939453125</ele>
        <time>2019-05-03T14:08:13.000Z</time>
      </trkpt>
      <trkpt lat="42.271624468266963958740234375" lon="-8.6103269644081592559814453125">
        <ele>26.6000003814697265625</ele>
        <time>2019-05-03T14:08:23.000Z</time>
      </trkpt>
      <trkpt lat="42.27165137417614459991455078125" lon="-8.610327132046222686767578125">
        <ele>26.6000003814697265625</ele>
        <time>2019-05-03T14:08:32.000Z</time>
      </trkpt>
      <trkpt lat="42.2721902467310428619384765625" lon="-8.61029888503253459930419921875">
        <ele>25.6000003814697265625</ele>
        <time>2019-05-03T14:08:48.000Z</time>
      </trkpt>
      <trkpt lat="42.27234086953103542327880859375" lon="-8.61029670573770999908447265625">
        <ele>25.200000762939453125</ele>
        <time>2019-05-03T14:08:51.000Z</time>
      </trkpt>
      <trkpt lat="42.27276365272700786590576171875" lon="-8.6102052591741085052490234375">
        <ele>24.6000003814697265625</ele>
        <time>2019-05-03T14:08:58.000Z</time>
      </trkpt>
      <trkpt lat="42.2733454406261444091796875" lon="-8.61019092611968517303466796875">
        <ele>22.799999237060546875</ele>
        <time>2019-05-03T14:09:07.000Z</time>
      </trkpt>
      <trkpt lat="42.27340369485318660736083984375" lon="-8.61019310541450977325439453125">
        <ele>22.6000003814697265625</ele>
        <time>2019-05-03T14:09:08.000Z</time>
      </trkpt>
      <trkpt lat="42.273970060050487518310546875" lon="-8.610226549208164215087890625">
        <ele>20</ele>
        <time>2019-05-03T14:09:19.000Z</time>
      </trkpt>
      <trkpt lat="42.2745593078434467315673828125" lon="-8.6102356016635894775390625">
        <ele>20</ele>
        <time>2019-05-03T14:09:29.000Z</time>
      </trkpt>
      <trkpt lat="42.2751460410654544830322265625" lon="-8.61022395081818103790283203125">
        <ele>19.799999237060546875</ele>
        <time>2019-05-03T14:09:39.000Z</time>
      </trkpt>
      <trkpt lat="42.2757207043468952178955078125" lon="-8.61022311262786388397216796875">
        <ele>17.799999237060546875</ele>
        <time>2019-05-03T14:09:49.000Z</time>
      </trkpt>
      <trkpt lat="42.27628807537257671356201171875" lon="-8.61022160388529300689697265625">
        <ele>17</ele>
        <time>2019-05-03T14:09:59.000Z</time>
      </trkpt>
      <trkpt lat="42.27659719996154308319091796875" lon="-8.61020333133637905120849609375">
        <ele>16.799999237060546875</ele>
        <time>2019-05-03T14:10:05.000Z</time>
      </trkpt>
      <trkpt lat="42.2770024649798870086669921875" lon="-8.61030978150665760040283203125">
        <ele>14.80000019073486328125</ele>
        <time>2019-05-03T14:10:13.000Z</time>
      </trkpt>
      <trkpt lat="42.277233302593231201171875" lon="-8.6102394573390483856201171875">
        <ele>15</ele>
        <time>2019-05-03T14:10:17.000Z</time>
      </trkpt>
      <trkpt lat="42.27779396809637546539306640625" lon="-8.61014700494706630706787109375">
        <ele>15.3999996185302734375</ele>
        <time>2019-05-03T14:10:27.000Z</time>
      </trkpt>
      <trkpt lat="42.2783616743981838226318359375" lon="-8.6099648661911487579345703125">
        <ele>18.799999237060546875</ele>
        <time>2019-05-03T14:10:38.000Z</time>
      </trkpt>
      <trkpt lat="42.27851766161620616912841796875" lon="-8.60995036549866199493408203125">
        <ele>19</ele>
        <time>2019-05-03T14:10:41.000Z</time>
      </trkpt>
      <trkpt lat="42.278798706829547882080078125" lon="-8.61011263914406299591064453125">
        <ele>15.6000003814697265625</ele>
        <time>2019-05-03T14:10:47.000Z</time>
      </trkpt>
      <trkpt lat="42.278837263584136962890625" lon="-8.61015907488763332366943359375">
        <ele>14.6000003814697265625</ele>
        <time>2019-05-03T14:10:48.000Z</time>
      </trkpt>
      <trkpt lat="42.27908042259514331817626953125" lon="-8.6104225181043148040771484375">
        <ele>12.19999980926513671875</ele>
        <time>2019-05-03T14:10:54.000Z</time>
      </trkpt>
      <trkpt lat="42.27929399348795413970947265625" lon="-8.61047456972301006317138671875">
        <ele>12.3999996185302734375</ele>
        <time>2019-05-03T14:10:58.000Z</time>
      </trkpt>
      <trkpt lat="42.2794084064662456512451171875" lon="-8.61050155945122241973876953125">
        <ele>12.3999996185302734375</ele>
        <time>2019-05-03T14:11:00.000Z</time>
      </trkpt>
      <trkpt lat="42.27997426874935626983642578125" lon="-8.61056459136307239532470703125">
        <ele>13.6000003814697265625</ele>
        <time>2019-05-03T14:11:11.000Z</time>
      </trkpt>
      <trkpt lat="42.28053837083280086517333984375" lon="-8.6103643476963043212890625">
        <ele>12.19999980926513671875</ele>
        <time>2019-05-03T14:11:23.000Z</time>
      </trkpt>
      <trkpt lat="42.28069896809756755828857421875" lon="-8.61024892888963222503662109375">
        <ele>12</ele>
        <time>2019-05-03T14:11:27.000Z</time>
      </trkpt>
      <trkpt lat="42.28085822425782680511474609375" lon="-8.6098922789096832275390625">
        <ele>12</ele>
        <time>2019-05-03T14:11:33.000Z</time>
      </trkpt>
      <trkpt lat="42.280902229249477386474609375" lon="-8.60976344905793666839599609375">
        <ele>12.19999980926513671875</ele>
        <time>2019-05-03T14:11:35.000Z</time>
      </trkpt>
      <trkpt lat="42.28108160197734832763671875" lon="-8.60938374884426593780517578125">
        <ele>12.3999996185302734375</ele>
        <time>2019-05-03T14:11:41.000Z</time>
      </trkpt>
      <trkpt lat="42.28124898858368396759033203125" lon="-8.60919901169836521148681640625">
        <ele>12.6000003814697265625</ele>
        <time>2019-05-03T14:11:45.000Z</time>
      </trkpt>
      <trkpt lat="42.28172876872122287750244140625" lon="-8.60886272974312305450439453125">
        <ele>12.80000019073486328125</ele>
        <time>2019-05-03T14:11:57.000Z</time>
      </trkpt>
      <trkpt lat="42.28180236183106899261474609375" lon="-8.60888116993010044097900390625">
        <ele>12.80000019073486328125</ele>
        <time>2019-05-03T14:11:59.000Z</time>
      </trkpt>
      <trkpt lat="42.28201559744775295257568359375" lon="-8.6089883744716644287109375">
        <ele>12.6000003814697265625</ele>
        <time>2019-05-03T14:12:09.000Z</time>
      </trkpt>
      <trkpt lat="42.2821154259145259857177734375" lon="-8.60885686241090297698974609375">
        <ele>12.3999996185302734375</ele>
        <time>2019-05-03T14:12:15.000Z</time>
      </trkpt>
      <trkpt lat="42.2825293242931365966796875" lon="-8.60839317552745342254638671875">
        <ele>12.19999980926513671875</ele>
        <time>2019-05-03T14:12:38.000Z</time>
      </trkpt>
      <trkpt lat="42.2830562107264995574951171875" lon="-8.60821045003831386566162109375">
        <ele>13.19999980926513671875</ele>
        <time>2019-05-03T14:12:59.000Z</time>
      </trkpt>
      <trkpt lat="42.28354655206203460693359375" lon="-8.6078886687755584716796875">
        <ele>14.80000019073486328125</ele>
        <time>2019-05-03T14:13:20.000Z</time>
      </trkpt>
      <trkpt lat="42.28369331918656826019287109375" lon="-8.6078278161585330963134765625">
        <ele>15.3999996185302734375</ele>
        <time>2019-05-03T14:13:26.000Z</time>
      </trkpt>
      <trkpt lat="42.2842484526336193084716796875" lon="-8.60784684307873249053955078125">
        <ele>16.200000762939453125</ele>
        <time>2019-05-03T14:13:46.000Z</time>
      </trkpt>
      <trkpt lat="42.284472249448299407958984375" lon="-8.607827313244342803955078125">
        <ele>17.200000762939453125</ele>
        <time>2019-05-03T14:13:58.000Z</time>
      </trkpt>
      <trkpt lat="42.28499771095812320709228515625" lon="-8.60772413201630115509033203125">
        <ele>19.799999237060546875</ele>
        <time>2019-05-03T14:14:21.000Z</time>
      </trkpt>
      <trkpt lat="42.285532392561435699462890625" lon="-8.60759966075420379638671875">
        <ele>24</ele>
        <time>2019-05-03T14:14:45.000Z</time>
      </trkpt>
      <trkpt lat="42.28601560927927494049072265625" lon="-8.6076933704316616058349609375">
        <ele>25.200000762939453125</ele>
        <time>2019-05-03T14:15:12.000Z</time>
      </trkpt>
      <trkpt lat="42.28604041971266269683837890625" lon="-8.60771474428474903106689453125">
        <ele>25</ele>
        <time>2019-05-03T14:15:14.000Z</time>
      </trkpt>
      <trkpt lat="42.286108396947383880615234375" lon="-8.607726730406284332275390625">
        <ele>25.3999996185302734375</ele>
        <time>2019-05-03T14:15:18.000Z</time>
      </trkpt>
      <trkpt lat="42.28661038912832736968994140625" lon="-8.60804088413715362548828125">
        <ele>26.6000003814697265625</ele>
        <time>2019-05-03T14:15:35.000Z</time>
      </trkpt>
      <trkpt lat="42.2871402092278003692626953125" lon="-8.608178012073040008544921875">
        <ele>22</ele>
        <time>2019-05-03T14:15:51.000Z</time>
      </trkpt>
      <trkpt lat="42.287175916135311126708984375" lon="-8.60820760019123554229736328125">
        <ele>21.6000003814697265625</ele>
        <time>2019-05-03T14:15:54.000Z</time>
      </trkpt>
      <trkpt lat="42.28757916949689388275146484375" lon="-8.60838529653847217559814453125">
        <ele>18</ele>
        <time>2019-05-03T14:16:06.000Z</time>
      </trkpt>
      <trkpt lat="42.28776977397501468658447265625" lon="-8.60840021632611751556396484375">
        <ele>16</ele>
        <time>2019-05-03T14:16:09.000Z</time>
      </trkpt>
      <trkpt lat="42.2880508191883563995361328125" lon="-8.60833249054849147796630859375">
        <ele>14</ele>
        <time>2019-05-03T14:16:14.000Z</time>
      </trkpt>
      <trkpt lat="42.28813991881906986236572265625" lon="-8.60851295292377471923828125">
        <ele>11.6000003814697265625</ele>
        <time>2019-05-03T14:16:20.000Z</time>
      </trkpt>
      <trkpt lat="42.2881413437426090240478515625" lon="-8.6086237616837024688720703125">
        <ele>10.3999996185302734375</ele>
        <time>2019-05-03T14:17:40.000Z</time>
      </trkpt>
      <trkpt lat="42.28823077864944934844970703125" lon="-8.6087416112422943115234375">
        <ele>8.80000019073486328125</ele>
        <time>2019-05-03T14:17:44.000Z</time>
      </trkpt>
      <trkpt lat="42.28852984495460987091064453125" lon="-8.60870263539254665374755859375">
        <ele>9.6000003814697265625</ele>
        <time>2019-05-03T14:17:52.000Z</time>
      </trkpt>
      <trkpt lat="42.28867627680301666259765625" lon="-8.6086807586252689361572265625">
        <ele>10.19999980926513671875</ele>
        <time>2019-05-03T14:17:56.000Z</time>
      </trkpt>
      <trkpt lat="42.2892118804156780242919921875" lon="-8.6085483245551586151123046875">
        <ele>12.6000003814697265625</ele>
        <time>2019-05-03T14:18:11.000Z</time>
      </trkpt>
      <trkpt lat="42.2897650860249996185302734375" lon="-8.6084638349711894989013671875">
        <ele>13.3999996185302734375</ele>
        <time>2019-05-03T14:18:29.000Z</time>
      </trkpt>
      <trkpt lat="42.2898418642580509185791015625" lon="-8.60844212584197521209716796875">
        <ele>13.6000003814697265625</ele>
        <time>2019-05-03T14:18:31.000Z</time>
      </trkpt>
      <trkpt lat="42.29037101380527019500732421875" lon="-8.608316481113433837890625">
        <ele>12.80000019073486328125</ele>
        <time>2019-05-03T14:18:46.000Z</time>
      </trkpt>
      <trkpt lat="42.29092539288103580474853515625" lon="-8.608139455318450927734375">
        <ele>12.6000003814697265625</ele>
        <time>2019-05-03T14:19:00.000Z</time>
      </trkpt>
      <trkpt lat="42.2914505191147327423095703125" lon="-8.6079448275268077850341796875">
        <ele>12.6000003814697265625</ele>
        <time>2019-05-03T14:19:13.000Z</time>
      </trkpt>
      <trkpt lat="42.2919889725744724273681640625" lon="-8.60783963464200496673583984375">
        <ele>10.19999980926513671875</ele>
        <time>2019-05-03T14:19:25.000Z</time>
      </trkpt>
      <trkpt lat="42.29256288148462772369384765625" lon="-8.6076794564723968505859375">
        <ele>8.6000003814697265625</ele>
        <time>2019-05-03T14:19:37.000Z</time>
      </trkpt>
      <trkpt lat="42.2931349463760852813720703125" lon="-8.60751877538859844207763671875">
        <ele>6.80000019073486328125</ele>
        <time>2019-05-03T14:19:49.000Z</time>
      </trkpt>
      <trkpt lat="42.29336385615170001983642578125" lon="-8.60747653059661388397216796875">
        <ele>5.80000019073486328125</ele>
        <time>2019-05-03T14:19:54.000Z</time>
      </trkpt>
      <trkpt lat="42.29354909621179103851318359375" lon="-8.60737578012049198150634765625">
        <ele>5.400000095367431640625</ele>
        <time>2019-05-03T14:19:58.000Z</time>
      </trkpt>
      <trkpt lat="42.293752022087574005126953125" lon="-8.60735583119094371795654296875">
        <ele>5.19999980926513671875</ele>
        <time>2019-05-03T14:20:02.000Z</time>
      </trkpt>
      <trkpt lat="42.29393198154866695404052734375" lon="-8.60739505849778652191162109375">
        <ele>5.400000095367431640625</ele>
        <time>2019-05-03T14:20:06.000Z</time>
      </trkpt>
      <trkpt lat="42.294126860797405242919921875" lon="-8.60772446729242801666259765625">
        <ele>6.19999980926513671875</ele>
        <time>2019-05-03T14:20:15.000Z</time>
      </trkpt>
      <trkpt lat="42.2944190539419651031494140625" lon="-8.608357049524784088134765625">
        <ele>10.6000003814697265625</ele>
        <time>2019-05-03T14:20:41.000Z</time>
      </trkpt>
      <trkpt lat="42.294769920408725738525390625" lon="-8.60891503281891345977783203125">
        <ele>15</ele>
        <time>2019-05-03T14:21:10.000Z</time>
      </trkpt>
      <trkpt lat="42.29520653374493122100830078125" lon="-8.60935558564960956573486328125">
        <ele>19.200000762939453125</ele>
        <time>2019-05-03T14:21:33.000Z</time>
      </trkpt>
      <trkpt lat="42.29566477239131927490234375" lon="-8.609775267541408538818359375">
        <ele>21.6000003814697265625</ele>
        <time>2019-05-03T14:21:55.000Z</time>
      </trkpt>
      <trkpt lat="42.2961121983826160430908203125" lon="-8.610216490924358367919921875">
        <ele>22.3999996185302734375</ele>
        <time>2019-05-03T14:22:16.000Z</time>
      </trkpt>
      <trkpt lat="42.296393327414989471435546875" lon="-8.61028027720749378204345703125">
        <ele>22.6000003814697265625</ele>
        <time>2019-05-03T14:22:26.000Z</time>
      </trkpt>
      <trkpt lat="42.2963864542543888092041015625" lon="-8.61027591861784458160400390625">
        <ele>22.6000003814697265625</ele>
        <time>2019-05-03T14:22:27.000Z</time>
      </trkpt>
      <trkpt lat="42.2964109294116497039794921875" lon="-8.61026368103921413421630859375">
        <ele>22.799999237060546875</ele>
        <time>2019-05-03T14:25:32.000Z</time>
      </trkpt>
      <trkpt lat="42.29661251418292522430419921875" lon="-8.61019226722419261932373046875">
        <ele>23.799999237060546875</ele>
        <time>2019-05-03T14:25:40.000Z</time>
      </trkpt>
      <trkpt lat="42.29718902148306369781494140625" lon="-8.6101257987320423126220703125">
        <ele>23.200000762939453125</ele>
        <time>2019-05-03T14:25:56.000Z</time>
      </trkpt>
      <trkpt lat="42.29752354323863983154296875" lon="-8.60999755561351776123046875">
        <ele>22.3999996185302734375</ele>
        <time>2019-05-03T14:26:03.000Z</time>
      </trkpt>
      <trkpt lat="42.2976742498576641082763671875" lon="-8.60994483344256877899169921875">
        <ele>22.200000762939453125</ele>
        <time>2019-05-03T14:26:06.000Z</time>
      </trkpt>
      <trkpt lat="42.29821261949837207794189453125" lon="-8.609689772129058837890625">
        <ele>20</ele>
        <time>2019-05-03T14:26:17.000Z</time>
      </trkpt>
      <trkpt lat="42.29847329668700695037841796875" lon="-8.60957720316946506500244140625">
        <ele>21</ele>
        <time>2019-05-03T14:26:22.000Z</time>
      </trkpt>
      <trkpt lat="42.29874235577881336212158203125" lon="-8.609525151550769805908203125">
        <ele>23</ele>
        <time>2019-05-03T14:26:27.000Z</time>
      </trkpt>
      <trkpt lat="42.299292124807834625244140625" lon="-8.60953914932906627655029296875">
        <ele>24.6000003814697265625</ele>
        <time>2019-05-03T14:26:40.000Z</time>
      </trkpt>
      <trkpt lat="42.299678027629852294921875" lon="-8.6090800724923610687255859375">
        <ele>29</ele>
        <time>2019-05-03T14:27:00.000Z</time>
      </trkpt>
      <trkpt lat="42.300117909908294677734375" lon="-8.6086629889905452728271484375">
        <ele>33</ele>
        <time>2019-05-03T14:27:28.000Z</time>
      </trkpt>
      <trkpt lat="42.300236932933330535888671875" lon="-8.6084671877324581146240234375">
        <ele>34.799999237060546875</ele>
        <time>2019-05-03T14:27:38.000Z</time>
      </trkpt>
      <trkpt lat="42.3004754818975925445556640625" lon="-8.60810886137187480926513671875">
        <ele>37.200000762939453125</ele>
        <time>2019-05-03T14:28:03.000Z</time>
      </trkpt>
      <trkpt lat="42.3005354963243007659912109375" lon="-8.60812579281628131866455078125">
        <ele>37</ele>
        <time>2019-05-03T14:28:07.000Z</time>
      </trkpt>
      <trkpt lat="42.30070422403514385223388671875" lon="-8.60829628072679042816162109375">
        <ele>35</ele>
        <time>2019-05-03T14:28:15.000Z</time>
      </trkpt>
      <trkpt lat="42.3009706847369670867919921875" lon="-8.60834858380258083343505859375">
        <ele>35</ele>
        <time>2019-05-03T14:28:21.000Z</time>
      </trkpt>
      <trkpt lat="42.30148910544812679290771484375" lon="-8.608215562999248504638671875">
        <ele>36.59999847412109375</ele>
        <time>2019-05-03T14:28:39.000Z</time>
      </trkpt>
      <trkpt lat="42.301996462047100067138671875" lon="-8.6079123057425022125244140625">
        <ele>39.799999237060546875</ele>
        <time>2019-05-03T14:28:56.000Z</time>
      </trkpt>
      <trkpt lat="42.302129566669464111328125" lon="-8.60781163908541202545166015625">
        <ele>40.799999237060546875</ele>
        <time>2019-05-03T14:29:02.000Z</time>
      </trkpt>
      <trkpt lat="42.3021954484283924102783203125" lon="-8.607699237763881683349609375">
        <ele>42.200000762939453125</ele>
        <time>2019-05-03T14:29:06.000Z</time>
      </trkpt>
      <trkpt lat="42.302638851106166839599609375" lon="-8.60725902020931243896484375">
        <ele>45</ele>
        <time>2019-05-03T14:29:26.000Z</time>
      </trkpt>
      <trkpt lat="42.30307512916624546051025390625" lon="-8.6067809164524078369140625">
        <ele>45.40000152587890625</ele>
        <time>2019-05-03T14:29:43.000Z</time>
      </trkpt>
      <trkpt lat="42.303505875170230865478515625" lon="-8.6062820255756378173828125">
        <ele>47.40000152587890625</ele>
        <time>2019-05-03T14:30:02.000Z</time>
      </trkpt>
      <trkpt lat="42.303990013897418975830078125" lon="-8.6059888266026973724365234375">
        <ele>50.200000762939453125</ele>
        <time>2019-05-03T14:30:19.000Z</time>
      </trkpt>
      <trkpt lat="42.3040421493351459503173828125" lon="-8.60590182244777679443359375">
        <ele>50.59999847412109375</ele>
        <time>2019-05-03T14:30:23.000Z</time>
      </trkpt>
      <trkpt lat="42.3041491024196147918701171875" lon="-8.6058957874774932861328125">
        <ele>50.799999237060546875</ele>
        <time>2019-05-03T14:30:27.000Z</time>
      </trkpt>
      <trkpt lat="42.30470138601958751678466796875" lon="-8.60593493096530437469482421875">
        <ele>56.59999847412109375</ele>
        <time>2019-05-03T14:30:44.000Z</time>
      </trkpt>
      <trkpt lat="42.3052578605711460113525390625" lon="-8.6058904230594635009765625">
        <ele>59.799999237060546875</ele>
        <time>2019-05-03T14:31:07.000Z</time>
      </trkpt>
      <trkpt lat="42.305796146392822265625" lon="-8.6057561449706554412841796875">
        <ele>60.200000762939453125</ele>
        <time>2019-05-03T14:31:31.000Z</time>
      </trkpt>
      <trkpt lat="42.30632160790264606475830078125" lon="-8.6055660434067249298095703125">
        <ele>60.799999237060546875</ele>
        <time>2019-05-03T14:31:48.000Z</time>
      </trkpt>
      <trkpt lat="42.30656166560947895050048828125" lon="-8.605149127542972564697265625">
        <ele>63.200000762939453125</ele>
        <time>2019-05-03T14:32:03.000Z</time>
      </trkpt>
      <trkpt lat="42.30677171610295772552490234375" lon="-8.60482919029891490936279296875">
        <ele>65</ele>
        <time>2019-05-03T14:32:22.000Z</time>
      </trkpt>
      <trkpt lat="42.306775487959384918212890625" lon="-8.60478627495467662811279296875">
        <ele>65.1999969482421875</ele>
        <time>2019-05-03T14:32:47.000Z</time>
      </trkpt>
      <trkpt lat="42.30691890232264995574951171875" lon="-8.60474704764783382415771484375">
        <ele>66</ele>
        <time>2019-05-03T14:32:54.000Z</time>
      </trkpt>
      <trkpt lat="42.306984029710292816162109375" lon="-8.604807816445827484130859375">
        <ele>66</ele>
        <time>2019-05-03T14:32:57.000Z</time>
      </trkpt>
      <trkpt lat="42.30707916431128978729248046875" lon="-8.6048512347042560577392578125">
        <ele>66.40000152587890625</ele>
        <time>2019-05-03T14:33:01.000Z</time>
      </trkpt>
      <trkpt lat="42.30756531469523906707763671875" lon="-8.60453397966921329498291015625">
        <ele>70.40000152587890625</ele>
        <time>2019-05-03T14:33:24.000Z</time>
      </trkpt>
      <trkpt lat="42.30780369602143764495849609375" lon="-8.60402067191898822784423828125">
        <ele>71.1999969482421875</ele>
        <time>2019-05-03T14:33:45.000Z</time>
      </trkpt>
      <trkpt lat="42.30781928636133670806884765625" lon="-8.60392662696540355682373046875">
        <ele>71.1999969482421875</ele>
        <time>2019-05-03T14:33:49.000Z</time>
      </trkpt>
      <trkpt lat="42.3078777082264423370361328125" lon="-8.60383652150630950927734375">
        <ele>71.40000152587890625</ele>
        <time>2019-05-03T14:33:54.000Z</time>
      </trkpt>
      <trkpt lat="42.30787678621709346771240234375" lon="-8.60383660532534122467041015625">
        <ele>71.40000152587890625</ele>
        <time>2019-05-03T14:33:55.000Z</time>
      </trkpt>
      <trkpt lat="42.3078922927379608154296875" lon="-8.6038383655250072479248046875">
        <ele>71.40000152587890625</ele>
        <time>2019-05-03T14:33:57.000Z</time>
      </trkpt>
      <trkpt lat="42.307907044887542724609375" lon="-8.60383325256407260894775390625">
        <ele>71.40000152587890625</ele>
        <time>2019-05-03T14:33:58.000Z</time>
      </trkpt>
      <trkpt lat="42.30832454748451709747314453125" lon="-8.60336738638579845428466796875">
        <ele>72.1999969482421875</ele>
        <time>2019-05-03T14:34:22.000Z</time>
      </trkpt>
      <trkpt lat="42.3085090331733226776123046875" lon="-8.60318348743021488189697265625">
        <ele>72.1999969482421875</ele>
        <time>2019-05-03T14:34:32.000Z</time>
      </trkpt>
      <trkpt lat="42.30907070450484752655029296875" lon="-8.603174686431884765625">
        <ele>75.59999847412109375</ele>
        <time>2019-05-03T14:34:58.000Z</time>
      </trkpt>
      <trkpt lat="42.30961225926876068115234375" lon="-8.60311140306293964385986328125">
        <ele>80.40000152587890625</ele>
        <time>2019-05-03T14:35:22.000Z</time>
      </trkpt>
      <trkpt lat="42.31012145988643169403076171875" lon="-8.603051640093326568603515625">
        <ele>86.1999969482421875</ele>
        <time>2019-05-03T14:35:50.000Z</time>
      </trkpt>
      <trkpt lat="42.310175858438014984130859375" lon="-8.60313269309699535369873046875">
        <ele>87.59999847412109375</ele>
        <time>2019-05-03T14:35:54.000Z</time>
      </trkpt>
      <trkpt lat="42.31018817983567714691162109375" lon="-8.6031795479357242584228515625">
        <ele>88</ele>
        <time>2019-05-03T14:35:56.000Z</time>
      </trkpt>
      <trkpt lat="42.31022723950445652008056640625" lon="-8.60334207303822040557861328125">
        <ele>89.8000030517578125</ele>
        <time>2019-05-03T14:36:03.000Z</time>
      </trkpt>
      <trkpt lat="42.3102472722530364990234375" lon="-8.60337995924055576324462890625">
        <ele>90.1999969482421875</ele>
        <time>2019-05-03T14:36:05.000Z</time>
      </trkpt>
      <trkpt lat="42.31028993614017963409423828125" lon="-8.6035094596445560455322265625">
        <ele>91.40000152587890625</ele>
        <time>2019-05-03T14:36:11.000Z</time>
      </trkpt>
      <trkpt lat="42.3103681392967700958251953125" lon="-8.6036770977079868316650390625">
        <ele>93.40000152587890625</ele>
        <time>2019-05-03T14:36:20.000Z</time>
      </trkpt>
      <trkpt lat="42.31038515456020832061767578125" lon="-8.60369361005723476409912109375">
        <ele>93.8000030517578125</ele>
        <time>2019-05-03T14:36:23.000Z</time>
      </trkpt>
      <trkpt lat="42.3118047975003719329833984375" lon="-8.6051157675683498382568359375">
        <ele>126.1999969482421875</ele>
        <time>2019-05-03T14:42:38.000Z</time>
      </trkpt>
      <trkpt lat="42.3121960647404193878173828125" lon="-8.6056114733219146728515625">
        <ele>128.399993896484375</ele>
        <time>2019-05-03T14:43:06.000Z</time>
      </trkpt>
      <trkpt lat="42.3127063550055027008056640625" lon="-8.6058879084885120391845703125">
        <ele>133.1999969482421875</ele>
        <time>2019-05-03T14:43:27.000Z</time>
      </trkpt>
      <trkpt lat="42.3132340796291828155517578125" lon="-8.60613115131855010986328125">
        <ele>136.1999969482421875</ele>
        <time>2019-05-03T14:43:50.000Z</time>
      </trkpt>
      <trkpt lat="42.31377194635570049285888671875" lon="-8.60626148991286754608154296875">
        <ele>140.1999969482421875</ele>
        <time>2019-05-03T14:44:18.000Z</time>
      </trkpt>
      <trkpt lat="42.31430520303547382354736328125" lon="-8.60643147490918636322021484375">
        <ele>144</ele>
        <time>2019-05-03T14:44:43.000Z</time>
      </trkpt>
      <trkpt lat="42.31432381086051464080810546875" lon="-8.60644270665943622589111328125">
        <ele>144.1999969482421875</ele>
        <time>2019-05-03T14:44:44.000Z</time>
      </trkpt>
      <trkpt lat="42.31480912305414676666259765625" lon="-8.6067834310233592987060546875">
        <ele>150.8000030517578125</ele>
        <time>2019-05-03T14:45:11.000Z</time>
      </trkpt>
      <trkpt lat="42.31530080549418926239013671875" lon="-8.607116527855396270751953125">
        <ele>152.1999969482421875</ele>
        <time>2019-05-03T14:45:29.000Z</time>
      </trkpt>
      <trkpt lat="42.31577689759433269500732421875" lon="-8.607478626072406768798828125">
        <ele>151.1999969482421875</ele>
        <time>2019-05-03T14:45:44.000Z</time>
      </trkpt>
      <trkpt lat="42.31626321561634540557861328125" lon="-8.60749329440295696258544921875">
        <ele>150</ele>
        <time>2019-05-03T14:46:02.000Z</time>
      </trkpt>
      <trkpt lat="42.3163373954594135284423828125" lon="-8.60744945704936981201171875">
        <ele>150.399993896484375</ele>
        <time>2019-05-03T14:46:06.000Z</time>
      </trkpt>
      <trkpt lat="42.3163531534373760223388671875" lon="-8.607453145086765289306640625">
        <ele>150.1999969482421875</ele>
        <time>2019-05-03T14:46:09.000Z</time>
      </trkpt>
      <trkpt lat="42.31637335382401943206787109375" lon="-8.6074392311275005340576171875">
        <ele>150.399993896484375</ele>
        <time>2019-05-03T14:48:02.000Z</time>
      </trkpt>
      <trkpt lat="42.31668432243168354034423828125" lon="-8.6074326932430267333984375">
        <ele>150.1999969482421875</ele>
        <time>2019-05-03T14:48:12.000Z</time>
      </trkpt>
      <trkpt lat="42.317182458937168121337890625" lon="-8.6071575991809368133544921875">
        <ele>153.600006103515625</ele>
        <time>2019-05-03T14:48:24.000Z</time>
      </trkpt>
      <trkpt lat="42.31770205311477184295654296875" lon="-8.60682777129113674163818359375">
        <ele>151.600006103515625</ele>
        <time>2019-05-03T14:48:38.000Z</time>
      </trkpt>
      <trkpt lat="42.31774278916418552398681640625" lon="-8.60678569413721561431884765625">
        <ele>151.399993896484375</ele>
        <time>2019-05-03T14:48:39.000Z</time>
      </trkpt>
      <trkpt lat="42.3180134408175945281982421875" lon="-8.60640968196094036102294921875">
        <ele>151.8000030517578125</ele>
        <time>2019-05-03T14:48:46.000Z</time>
      </trkpt>
      <trkpt lat="42.31822340749204158782958984375" lon="-8.6061058379709720611572265625">
        <ele>152.399993896484375</ele>
        <time>2019-05-03T14:48:51.000Z</time>
      </trkpt>
      <trkpt lat="42.318335473537445068359375" lon="-8.60601179301738739013671875">
        <ele>152.1999969482421875</ele>
        <time>2019-05-03T14:48:53.000Z</time>
      </trkpt>
      <trkpt lat="42.31885020621120929718017578125" lon="-8.60609418712556362152099609375">
        <ele>151.8000030517578125</ele>
        <time>2019-05-03T14:49:02.000Z</time>
      </trkpt>
      <trkpt lat="42.31920258142054080963134765625" lon="-8.60615395009517669677734375">
        <ele>150.399993896484375</ele>
        <time>2019-05-03T14:49:09.000Z</time>
      </trkpt>
      <trkpt lat="42.3195131309330463409423828125" lon="-8.606229722499847412109375">
        <ele>150.399993896484375</ele>
        <time>2019-05-03T14:49:15.000Z</time>
      </trkpt>
      <trkpt lat="42.319885455071926116943359375" lon="-8.60658721067011356353759765625">
        <ele>140.600006103515625</ele>
        <time>2019-05-03T14:49:23.000Z</time>
      </trkpt>
      <trkpt lat="42.3201112635433673858642578125" lon="-8.60685308463871479034423828125">
        <ele>134.399993896484375</ele>
        <time>2019-05-03T14:49:28.000Z</time>
      </trkpt>
      <trkpt lat="42.32031234540045261383056640625" lon="-8.60722289420664310455322265625">
        <ele>129.600006103515625</ele>
        <time>2019-05-03T14:49:34.000Z</time>
      </trkpt>
      <trkpt lat="42.3205263353884220123291015625" lon="-8.6075321026146411895751953125">
        <ele>121.1999969482421875</ele>
        <time>2019-05-03T14:49:40.000Z</time>
      </trkpt>
      <trkpt lat="42.3206155188381671905517578125" lon="-8.607613407075405120849609375">
        <ele>118.59999847412109375</ele>
        <time>2019-05-03T14:49:42.000Z</time>
      </trkpt>
      <trkpt lat="42.3207052052021026611328125" lon="-8.60768423415720462799072265625">
        <ele>116.59999847412109375</ele>
        <time>2019-05-03T14:49:44.000Z</time>
      </trkpt>
      <trkpt lat="42.3212711513042449951171875" lon="-8.6077590845525264739990234375">
        <ele>111.40000152587890625</ele>
        <time>2019-05-03T14:49:56.000Z</time>
      </trkpt>
      <trkpt lat="42.32137508690357208251953125" lon="-8.60771323554217815399169921875">
        <ele>112</ele>
        <time>2019-05-03T14:49:58.000Z</time>
      </trkpt>
      <trkpt lat="42.32193508185446262359619140625" lon="-8.6074838228523731231689453125">
        <ele>113</ele>
        <time>2019-05-03T14:50:11.000Z</time>
      </trkpt>
      <trkpt lat="42.32249080203473567962646484375" lon="-8.6073589324951171875">
        <ele>107.8000030517578125</ele>
        <time>2019-05-03T14:50:23.000Z</time>
      </trkpt>
      <trkpt lat="42.32303679920732975006103515625" lon="-8.60731534659862518310546875">
        <ele>103</ele>
        <time>2019-05-03T14:50:44.000Z</time>
      </trkpt>
      <trkpt lat="42.32304819859564304351806640625" lon="-8.6073205433785915374755859375">
        <ele>102.59999847412109375</ele>
        <time>2019-05-03T14:50:47.000Z</time>
      </trkpt>
      <trkpt lat="42.32309580780565738677978515625" lon="-8.6073047854006290435791015625">
        <ele>102.59999847412109375</ele>
        <time>2019-05-03T14:50:55.000Z</time>
      </trkpt>
      <trkpt lat="42.32327434234321117401123046875" lon="-8.6072836630046367645263671875">
        <ele>101.1999969482421875</ele>
        <time>2019-05-03T14:51:00.000Z</time>
      </trkpt>
      <trkpt lat="42.3232517950236797332763671875" lon="-8.60735767520964145660400390625">
        <ele>98.8000030517578125</ele>
        <time>2019-05-03T14:51:06.000Z</time>
      </trkpt>
      <trkpt lat="42.3231143318116664886474609375" lon="-8.60737578012049198150634765625">
        <ele>99.8000030517578125</ele>
        <time>2019-05-03T14:51:12.000Z</time>
      </trkpt>
      <trkpt lat="42.32308876700699329376220703125" lon="-8.6074117384850978851318359375">
        <ele>98.8000030517578125</ele>
        <time>2019-05-03T14:51:17.000Z</time>
      </trkpt>
      <trkpt lat="42.32309614308178424835205078125" lon="-8.60737326554954051971435546875">
        <ele>100</ele>
        <time>2019-05-03T14:51:56.000Z</time>
      </trkpt>
      <trkpt lat="42.32361833564937114715576171875" lon="-8.6072035320103168487548828125">
        <ele>97.40000152587890625</ele>
        <time>2019-05-03T14:52:13.000Z</time>
      </trkpt>
      <trkpt lat="42.3236397095024585723876953125" lon="-8.60718752257525920867919921875">
        <ele>97.59999847412109375</ele>
        <time>2019-05-03T14:52:16.000Z</time>
      </trkpt>
      <trkpt lat="42.3236601613461971282958984375" lon="-8.607171513140201568603515625">
        <ele>97.8000030517578125</ele>
        <time>2019-05-03T14:52:24.000Z</time>
      </trkpt>
      <trkpt lat="42.3237805254757404327392578125" lon="-8.60716908238828182220458984375">
        <ele>95.40000152587890625</ele>
        <time>2019-05-03T14:52:30.000Z</time>
      </trkpt>
      <trkpt lat="42.32401329092681407928466796875" lon="-8.60711359418928623199462890625">
        <ele>94.1999969482421875</ele>
        <time>2019-05-03T14:52:37.000Z</time>
      </trkpt>
      <trkpt lat="42.32417263090610504150390625" lon="-8.60706162638962268829345703125">
        <ele>93.8000030517578125</ele>
        <time>2019-05-03T14:52:41.000Z</time>
      </trkpt>
      <trkpt lat="42.32472139410674571990966796875" lon="-8.60687839798629283905029296875">
        <ele>88.8000030517578125</ele>
        <time>2019-05-03T14:52:52.000Z</time>
      </trkpt>
      <trkpt lat="42.325251214206218719482421875" lon="-8.60664747655391693115234375">
        <ele>83</ele>
        <time>2019-05-03T14:53:02.000Z</time>
      </trkpt>
      <trkpt lat="42.325812466442584991455078125" lon="-8.60622460953891277313232421875">
        <ele>79.8000030517578125</ele>
        <time>2019-05-03T14:53:08.000Z</time>
      </trkpt>
      <trkpt lat="42.3259140551090240478515625" lon="-8.606171049177646636962890625">
        <ele>79</ele>
        <time>2019-05-03T14:53:09.000Z</time>
      </trkpt>
      <trkpt lat="42.32629425823688507080078125" lon="-8.60614716075360774993896484375">
        <ele>70.1999969482421875</ele>
        <time>2019-05-03T14:53:13.000Z</time>
      </trkpt>
      <trkpt lat="42.32646994292736053466796875" lon="-8.60614682547748088836669921875">
        <ele>65.8000030517578125</ele>
        <time>2019-05-03T14:53:15.000Z</time>
      </trkpt>
      <trkpt lat="42.32687319628894329071044921875" lon="-8.60584189184010028839111328125">
        <ele>65.40000152587890625</ele>
        <time>2019-05-03T14:53:20.000Z</time>
      </trkpt>
      <trkpt lat="42.327020801603794097900390625" lon="-8.6056713201105594635009765625">
        <ele>66.59999847412109375</ele>
        <time>2019-05-03T14:53:27.000Z</time>
      </trkpt>
      <trkpt lat="42.32707352377474308013916015625" lon="-8.60568397678434848785400390625">
        <ele>65.1999969482421875</ele>
        <time>2019-05-03T14:54:19.000Z</time>
      </trkpt>
      <trkpt lat="42.32718944549560546875" lon="-8.60563988797366619110107421875">
        <ele>64</ele>
        <time>2019-05-03T14:54:24.000Z</time>
      </trkpt>
      <trkpt lat="42.3277186788618564605712890625" lon="-8.60567492432892322540283203125">
        <ele>59.59999847412109375</ele>
        <time>2019-05-03T14:54:46.000Z</time>
      </trkpt>
      <trkpt lat="42.3282500915229320526123046875" lon="-8.60591229982674121856689453125">
        <ele>60.40000152587890625</ele>
        <time>2019-05-03T14:55:08.000Z</time>
      </trkpt>
      <trkpt lat="42.3287385888397693634033203125" lon="-8.60624338500201702117919921875">
        <ele>64.40000152587890625</ele>
        <time>2019-05-03T14:55:30.000Z</time>
      </trkpt>
      <trkpt lat="42.32922046445310115814208984375" lon="-8.6065809242427349090576171875">
        <ele>66.40000152587890625</ele>
        <time>2019-05-03T14:55:51.000Z</time>
      </trkpt>
      <trkpt lat="42.329735197126865386962890625" lon="-8.6068307049572467803955078125">
        <ele>67.59999847412109375</ele>
        <time>2019-05-03T14:56:11.000Z</time>
      </trkpt>
      <trkpt lat="42.3302835412323474884033203125" lon="-8.60693640075623989105224609375">
        <ele>70.40000152587890625</ele>
        <time>2019-05-03T14:56:33.000Z</time>
      </trkpt>
      <trkpt lat="42.33084789477288722991943359375" lon="-8.60689298249781131744384765625">
        <ele>73.1999969482421875</ele>
        <time>2019-05-03T14:56:52.000Z</time>
      </trkpt>
      <trkpt lat="42.33140847645699977874755859375" lon="-8.60694109462201595306396484375">
        <ele>68.59999847412109375</ele>
        <time>2019-05-03T14:57:11.000Z</time>
      </trkpt>
      <trkpt lat="42.33197241090238094329833984375" lon="-8.6068250052630901336669921875">
        <ele>68.40000152587890625</ele>
        <time>2019-05-03T14:57:26.000Z</time>
      </trkpt>
      <trkpt lat="42.3325141333043575286865234375" lon="-8.60676339827477931976318359375">
        <ele>69</ele>
        <time>2019-05-03T14:57:37.000Z</time>
      </trkpt>
      <trkpt lat="42.3330827616155147552490234375" lon="-8.6066897213459014892578125">
        <ele>66.1999969482421875</ele>
        <time>2019-05-03T14:57:48.000Z</time>
      </trkpt>
      <trkpt lat="42.33362699858844280242919921875" lon="-8.60664437524974346160888671875">
        <ele>61.59999847412109375</ele>
        <time>2019-05-03T14:57:57.000Z</time>
      </trkpt>
      <trkpt lat="42.33419780619442462921142578125" lon="-8.60657564364373683929443359375">
        <ele>58.200000762939453125</ele>
        <time>2019-05-03T14:58:07.000Z</time>
      </trkpt>
      <trkpt lat="42.3344071023166179656982421875" lon="-8.60658176243305206298828125">
        <ele>56.40000152587890625</ele>
        <time>2019-05-03T14:58:13.000Z</time>
      </trkpt>
      <trkpt lat="42.33498486690223217010498046875" lon="-8.6066865362226963043212890625">
        <ele>51.40000152587890625</ele>
        <time>2019-05-03T14:58:24.000Z</time>
      </trkpt>
      <trkpt lat="42.33504840172827243804931640625" lon="-8.606716878712177276611328125">
        <ele>51.40000152587890625</ele>
        <time>2019-05-03T14:58:25.000Z</time>
      </trkpt>
      <trkpt lat="42.3355775512754917144775390625" lon="-8.6069799028337001800537109375">
        <ele>49.59999847412109375</ele>
        <time>2019-05-03T14:58:33.000Z</time>
      </trkpt>
      <trkpt lat="42.33610577881336212158203125" lon="-8.6071832478046417236328125">
        <ele>43.799999237060546875</ele>
        <time>2019-05-03T14:58:43.000Z</time>
      </trkpt>
      <trkpt lat="42.33626629225909709930419921875" lon="-8.60720805823802947998046875">
        <ele>43.200000762939453125</ele>
        <time>2019-05-03T14:58:47.000Z</time>
      </trkpt>
      <trkpt lat="42.3366085253655910491943359375" lon="-8.6066664196550846099853515625">
        <ele>48.40000152587890625</ele>
        <time>2019-05-03T14:59:15.000Z</time>
      </trkpt>
      <trkpt lat="42.33663090504705905914306640625" lon="-8.60666298307478427886962890625">
        <ele>48.40000152587890625</ele>
        <time>2019-05-03T14:59:18.000Z</time>
      </trkpt>
      <trkpt lat="42.33742919750511646270751953125" lon="-8.60663783736526966094970703125">
        <ele>46.40000152587890625</ele>
        <time>2019-05-04T07:07:21.000Z</time>
      </trkpt>
      <trkpt lat="42.33746968209743499755859375" lon="-8.60664001666009426116943359375">
        <ele>46.200000762939453125</ele>
        <time>2019-05-04T07:07:24.000Z</time>
      </trkpt>
      <trkpt lat="42.33753682114183902740478515625" lon="-8.60662710852921009063720703125">
        <ele>45.799999237060546875</ele>
        <time>2019-05-04T07:07:27.000Z</time>
      </trkpt>
      <trkpt lat="42.3380725085735321044921875" lon="-8.60648511908948421478271484375">
        <ele>43.59999847412109375</ele>
        <time>2019-05-04T07:07:46.000Z</time>
      </trkpt>
      <trkpt lat="42.3381474427878856658935546875" lon="-8.60647975467145442962646484375">
        <ele>43.40000152587890625</ele>
        <time>2019-05-04T07:07:48.000Z</time>
      </trkpt>
      <trkpt lat="42.338285408914089202880859375" lon="-8.60647170804440975189208984375">
        <ele>43</ele>
        <time>2019-05-04T07:07:51.000Z</time>
      </trkpt>
      <trkpt lat="42.33860048465430736541748046875" lon="-8.6065421998500823974609375">
        <ele>42.200000762939453125</ele>
        <time>2019-05-04T07:07:57.000Z</time>
      </trkpt>
      <trkpt lat="42.33887247741222381591796875" lon="-8.6064230091869831085205078125">
        <ele>41</ele>
        <time>2019-05-04T07:08:07.000Z</time>
      </trkpt>
      <trkpt lat="42.33937832526862621307373046875" lon="-8.60666549764573574066162109375">
        <ele>37.40000152587890625</ele>
        <time>2019-05-04T07:08:26.000Z</time>
      </trkpt>
      <trkpt lat="42.33984955586493015289306640625" lon="-8.60667429864406585693359375">
        <ele>36.799999237060546875</ele>
        <time>2019-05-04T07:08:45.000Z</time>
      </trkpt>
      <trkpt lat="42.3400385677814483642578125" lon="-8.60685895197093486785888671875">
        <ele>35.40000152587890625</ele>
        <time>2019-05-04T07:08:51.000Z</time>
      </trkpt>
      <trkpt lat="42.34054123051464557647705078125" lon="-8.60713739879429340362548828125">
        <ele>29</ele>
        <time>2019-05-04T07:09:00.000Z</time>
      </trkpt>
      <trkpt lat="42.34075329266488552093505859375" lon="-8.60715131275355815887451171875">
        <ele>28.799999237060546875</ele>
        <time>2019-05-04T07:09:04.000Z</time>
      </trkpt>
      <trkpt lat="42.34088488854467868804931640625" lon="-8.6074439249932765960693359375">
        <ele>28.3999996185302734375</ele>
        <time>2019-05-04T07:09:10.000Z</time>
      </trkpt>
      <trkpt lat="42.340943813323974609375" lon="-8.607798479497432708740234375">
        <ele>27.6000003814697265625</ele>
        <time>2019-05-04T07:09:15.000Z</time>
      </trkpt>
      <trkpt lat="42.34102687798440456390380859375" lon="-8.60826216638088226318359375">
        <ele>27.200000762939453125</ele>
        <time>2019-05-04T07:09:22.000Z</time>
      </trkpt>
      <trkpt lat="42.34138444997370243072509765625" lon="-8.60876918770372867584228515625">
        <ele>24.3999996185302734375</ele>
        <time>2019-05-04T07:09:32.000Z</time>
      </trkpt>
      <trkpt lat="42.3419424332678318023681640625" lon="-8.608784861862659454345703125">
        <ele>25</ele>
        <time>2019-05-04T07:09:48.000Z</time>
      </trkpt>
      <trkpt lat="42.342131026089191436767578125" lon="-8.6088722012937068939208984375">
        <ele>25</ele>
        <time>2019-05-04T07:09:59.000Z</time>
      </trkpt>
      <trkpt lat="42.34265816397964954376220703125" lon="-8.609045036137104034423828125">
        <ele>25.799999237060546875</ele>
        <time>2019-05-04T07:10:15.000Z</time>
      </trkpt>
      <trkpt lat="42.34319544397294521331787109375" lon="-8.6089456267654895782470703125">
        <ele>19.799999237060546875</ele>
        <time>2019-05-04T07:10:33.000Z</time>
      </trkpt>
      <trkpt lat="42.343350090086460113525390625" lon="-8.60894034616649150848388671875">
        <ele>18.200000762939453125</ele>
        <time>2019-05-04T07:10:40.000Z</time>
      </trkpt>
      <trkpt lat="42.3435125313699245452880859375" lon="-8.60877715051174163818359375">
        <ele>16.200000762939453125</ele>
        <time>2019-05-04T07:10:46.000Z</time>
      </trkpt>
      <trkpt lat="42.343941517174243927001953125" lon="-8.60827423632144927978515625">
        <ele>15.19999980926513671875</ele>
        <time>2019-05-04T07:10:55.000Z</time>
      </trkpt>
      <trkpt lat="42.34407688491046428680419921875" lon="-8.60813819803297519683837890625">
        <ele>16</ele>
        <time>2019-05-04T07:10:58.000Z</time>
      </trkpt>
      <trkpt lat="42.3441787250339984893798828125" lon="-8.60790099017322063446044921875">
        <ele>18.6000003814697265625</ele>
        <time>2019-05-04T07:11:04.000Z</time>
      </trkpt>
      <trkpt lat="42.3442685790359973907470703125" lon="-8.60770368017256259918212890625">
        <ele>20.799999237060546875</ele>
        <time>2019-05-04T07:11:09.000Z</time>
      </trkpt>
      <trkpt lat="42.3443996720016002655029296875" lon="-8.60747468657791614532470703125">
        <ele>23.200000762939453125</ele>
        <time>2019-05-04T07:11:17.000Z</time>
      </trkpt>
      <trkpt lat="42.3444855026900768280029296875" lon="-8.60746982507407665252685546875">
        <ele>23.6000003814697265625</ele>
        <time>2019-05-04T07:11:22.000Z</time>
      </trkpt>
      <trkpt lat="42.34476872719824314117431640625" lon="-8.6075277440249919891357421875">
        <ele>25</ele>
        <time>2019-05-04T07:11:30.000Z</time>
      </trkpt>
      <trkpt lat="42.34498565085232257843017578125" lon="-8.60735683701932430267333984375">
        <ele>64.59999847412109375</ele>
        <time>2019-05-04T07:11:34.000Z</time>
      </trkpt>
      <trkpt lat="42.34536183066666126251220703125" lon="-8.60693489201366901397705078125">
        <ele>65.8000030517578125</ele>
        <time>2019-05-04T07:11:52.000Z</time>
      </trkpt>
      <trkpt lat="42.345381863415241241455078125" lon="-8.60694729723036289215087890625">
        <ele>65.8000030517578125</ele>
        <time>2019-05-04T07:13:07.000Z</time>
      </trkpt>
      <trkpt lat="42.34592174179852008819580078125" lon="-8.606842271983623504638671875">
        <ele>8.80000019073486328125</ele>
        <time>2019-05-04T07:13:22.000Z</time>
      </trkpt>
      <trkpt lat="42.34646472148597240447998046875" lon="-8.606744371354579925537109375">
        <ele>8.3999996185302734375</ele>
        <time>2019-05-04T07:13:44.000Z</time>
      </trkpt>
      <trkpt lat="42.34667460434138774871826171875" lon="-8.60674311406910419464111328125">
        <ele>8.6000003814697265625</ele>
        <time>2019-05-04T07:13:52.000Z</time>
      </trkpt>
      <trkpt lat="42.34700091183185577392578125" lon="-8.6072672344744205474853515625">
        <ele>13.3999996185302734375</ele>
        <time>2019-05-04T07:14:10.000Z</time>
      </trkpt>
      <trkpt lat="42.3469826392829418182373046875" lon="-8.607554398477077484130859375">
        <ele>14.19999980926513671875</ele>
        <time>2019-05-04T07:14:21.000Z</time>
      </trkpt>
      <trkpt lat="42.346994876861572265625" lon="-8.60759387724101543426513671875">
        <ele>14.3999996185302734375</ele>
        <time>2019-05-04T07:14:23.000Z</time>
      </trkpt>
      <trkpt lat="42.3470483534038066864013671875" lon="-8.6075052805244922637939453125">
        <ele>14.80000019073486328125</ele>
        <time>2019-05-04T07:14:28.000Z</time>
      </trkpt>
      <trkpt lat="42.34734666533768177032470703125" lon="-8.60741869546473026275634765625">
        <ele>17.6000003814697265625</ele>
        <time>2019-05-04T07:14:49.000Z</time>
      </trkpt>
      <trkpt lat="42.3473517782986164093017578125" lon="-8.60745842568576335906982421875">
        <ele>17.799999237060546875</ele>
        <time>2019-05-04T07:14:52.000Z</time>
      </trkpt>
      <trkpt lat="42.347347252070903778076171875" lon="-8.60759773291647434234619140625">
        <ele>18.3999996185302734375</ele>
        <time>2019-05-04T07:15:00.000Z</time>
      </trkpt>
      <trkpt lat="42.347433753311634063720703125" lon="-8.60773569904267787933349609375">
        <ele>19.3999996185302734375</ele>
        <time>2019-05-04T07:15:11.000Z</time>
      </trkpt>
      <trkpt lat="42.34747440554201602935791015625" lon="-8.60772966407239437103271484375">
        <ele>20</ele>
        <time>2019-05-04T07:15:16.000Z</time>
      </trkpt>
      <trkpt lat="42.347608096897602081298828125" lon="-8.60783225856721401214599609375">
        <ele>19.6000003814697265625</ele>
        <time>2019-05-04T07:15:26.000Z</time>
      </trkpt>
      <trkpt lat="42.3476679436862468719482421875" lon="-8.60786519944667816162109375">
        <ele>19.6000003814697265625</ele>
        <time>2019-05-04T07:15:30.000Z</time>
      </trkpt>
      <trkpt lat="42.34822399914264678955078125" lon="-8.60782630741596221923828125">
        <ele>18.799999237060546875</ele>
        <time>2019-05-04T07:15:48.000Z</time>
      </trkpt>
      <trkpt lat="42.34823749400675296783447265625" lon="-8.60785908065736293792724609375">
        <ele>18.6000003814697265625</ele>
        <time>2019-05-04T07:15:50.000Z</time>
      </trkpt>
      <trkpt lat="42.34832164831459522247314453125" lon="-8.60815747641026973724365234375">
        <ele>16.6000003814697265625</ele>
        <time>2019-05-04T07:15:56.000Z</time>
      </trkpt>
      <trkpt lat="42.3483395017683506011962890625" lon="-8.6082214303314685821533203125">
        <ele>16.200000762939453125</ele>
        <time>2019-05-04T07:15:57.000Z</time>
      </trkpt>
      <trkpt lat="42.348516695201396942138671875" lon="-8.608548156917095184326171875">
        <ele>13.19999980926513671875</ele>
        <time>2019-05-04T07:16:05.000Z</time>
      </trkpt>
      <trkpt lat="42.34906998462975025177001953125" lon="-8.60845587216317653656005859375">
        <ele>9.80000019073486328125</ele>
        <time>2019-05-04T07:16:17.000Z</time>
      </trkpt>
      <trkpt lat="42.3492859862744808197021484375" lon="-8.60843340866267681121826171875">
        <ele>9.3999996185302734375</ele>
        <time>2019-05-04T07:16:21.000Z</time>
      </trkpt>
      <trkpt lat="42.349428646266460418701171875" lon="-8.608384542167186737060546875">
        <ele>9.6000003814697265625</ele>
        <time>2019-05-04T07:16:24.000Z</time>
      </trkpt>
      <trkpt lat="42.34985000453889369964599609375" lon="-8.6083900742232799530029296875">
        <ele>9.6000003814697265625</ele>
        <time>2019-05-04T07:16:41.000Z</time>
      </trkpt>
      <trkpt lat="42.3497240245342254638671875" lon="-8.60906590707600116729736328125">
        <ele>14</ele>
        <time>2019-05-04T07:17:07.000Z</time>
      </trkpt>
      <trkpt lat="42.34965437091886997222900390625" lon="-8.60912877134978771209716796875">
        <ele>14.3999996185302734375</ele>
        <time>2019-05-04T07:17:11.000Z</time>
      </trkpt>
      <trkpt lat="42.34950416721403598785400390625" lon="-8.60918392427265644073486328125">
        <ele>14.19999980926513671875</ele>
        <time>2019-05-04T07:17:19.000Z</time>
      </trkpt>
      <trkpt lat="42.349545992910861968994140625" lon="-8.60936187207698822021484375">
        <ele>16.6000003814697265625</ele>
        <time>2019-05-04T07:17:28.000Z</time>
      </trkpt>
      <trkpt lat="42.3495511896908283233642578125" lon="-8.609446026384830474853515625">
        <ele>18</ele>
        <time>2019-05-04T07:17:32.000Z</time>
      </trkpt>
      <trkpt lat="42.3496041633188724517822265625" lon="-8.60959111712872982025146484375">
        <ele>20.799999237060546875</ele>
        <time>2019-05-04T07:17:41.000Z</time>
      </trkpt>
      <trkpt lat="42.35004781745374202728271484375" lon="-8.6099755950272083282470703125">
        <ele>26.799999237060546875</ele>
        <time>2019-05-04T07:18:10.000Z</time>
      </trkpt>
      <trkpt lat="42.350126020610332489013671875" lon="-8.61072971485555171966552734375">
        <ele>27.6000003814697265625</ele>
        <time>2019-05-04T07:18:34.000Z</time>
      </trkpt>
      <trkpt lat="42.35014437697827816009521484375" lon="-8.610841445624828338623046875">
        <ele>27.3999996185302734375</ele>
        <time>2019-05-04T07:18:36.000Z</time>
      </trkpt>
      <trkpt lat="42.350330539047718048095703125" lon="-8.61114076338708400726318359375">
        <ele>26</ele>
        <time>2019-05-04T07:18:42.000Z</time>
      </trkpt>
      <trkpt lat="42.3504601232707500457763671875" lon="-8.61125014722347259521484375">
        <ele>24.799999237060546875</ele>
        <time>2019-05-04T07:18:45.000Z</time>
      </trkpt>
      <trkpt lat="42.35091266222298145294189453125" lon="-8.61143379472196102142333984375">
        <ele>22.200000762939453125</ele>
        <time>2019-05-04T07:18:54.000Z</time>
      </trkpt>
      <trkpt lat="42.351070158183574676513671875" lon="-8.61150973476469516754150390625">
        <ele>21.3999996185302734375</ele>
        <time>2019-05-04T07:18:58.000Z</time>
      </trkpt>
      <trkpt lat="42.3513090424239635467529296875" lon="-8.6116241477429866790771484375">
        <ele>19.200000762939453125</ele>
        <time>2019-05-04T07:19:07.000Z</time>
      </trkpt>
      <trkpt lat="42.351330332458019256591796875" lon="-8.6116504669189453125">
        <ele>18.799999237060546875</ele>
        <time>2019-05-04T07:19:09.000Z</time>
      </trkpt>
      <trkpt lat="42.3513750918209552764892578125" lon="-8.6117411591112613677978515625">
        <ele>17.6000003814697265625</ele>
        <time>2019-05-04T07:19:16.000Z</time>
      </trkpt>
      <trkpt lat="42.3514625988900661468505859375" lon="-8.612147010862827301025390625">
        <ele>14.19999980926513671875</ele>
        <time>2019-05-04T07:19:31.000Z</time>
      </trkpt>
      <trkpt lat="42.35199007205665111541748046875" lon="-8.6119227111339569091796875">
        <ele>12.6000003814697265625</ele>
        <time>2019-05-04T07:19:46.000Z</time>
      </trkpt>
      <trkpt lat="42.35203273594379425048828125" lon="-8.61189111135900020599365234375">
        <ele>12.6000003814697265625</ele>
        <time>2019-05-04T07:19:47.000Z</time>
      </trkpt>
      <trkpt lat="42.35222183167934417724609375" lon="-8.61170478165149688720703125">
        <ele>14.6000003814697265625</ele>
        <time>2019-05-04T07:19:54.000Z</time>
      </trkpt>
      <trkpt lat="42.35225929878652095794677734375" lon="-8.61170738004148006439208984375">
        <ele>14.3999996185302734375</ele>
        <time>2019-05-04T07:19:58.000Z</time>
      </trkpt>
      <trkpt lat="42.35235652886331081390380859375" lon="-8.611790947616100311279296875">
        <ele>12.6000003814697265625</ele>
        <time>2019-05-04T07:20:20.000Z</time>
      </trkpt>
      <trkpt lat="42.3525572754442691802978515625" lon="-8.61189077608287334442138671875">
        <ele>11.19999980926513671875</ele>
        <time>2019-05-04T07:20:29.000Z</time>
      </trkpt>
      <trkpt lat="42.3529374785721302032470703125" lon="-8.61230920068919658660888671875">
        <ele>12.6000003814697265625</ele>
        <time>2019-05-04T07:20:57.000Z</time>
      </trkpt>
      <trkpt lat="42.35296740196645259857177734375" lon="-8.6123446561396121978759765625">
        <ele>13</ele>
        <time>2019-05-04T07:21:03.000Z</time>
      </trkpt>
      <trkpt lat="42.3530135862529277801513671875" lon="-8.61238363198935985565185546875">
        <ele>13.3999996185302734375</ele>
        <time>2019-05-04T07:21:07.000Z</time>
      </trkpt>
      <trkpt lat="42.35301710665225982666015625" lon="-8.612398803234100341796875">
        <ele>13.6000003814697265625</ele>
        <time>2019-05-04T07:21:08.000Z</time>
      </trkpt>
      <trkpt lat="42.35303512774407863616943359375" lon="-8.6124777607619762420654296875">
        <ele>13.80000019073486328125</ele>
        <time>2019-05-04T07:21:13.000Z</time>
      </trkpt>
      <trkpt lat="42.353036217391490936279296875" lon="-8.61246895976364612579345703125">
        <ele>13.80000019073486328125</ele>
        <time>2019-05-04T07:21:14.000Z</time>
      </trkpt>
      <trkpt lat="42.35303445719182491302490234375" lon="-8.6127406172454357147216796875">
        <ele>14.19999980926513671875</ele>
        <time>2019-05-04T07:21:35.000Z</time>
      </trkpt>
      <trkpt lat="42.35303345136344432830810546875" lon="-8.6127664335072040557861328125">
        <ele>14</ele>
        <time>2019-05-04T07:21:39.000Z</time>
      </trkpt>
      <trkpt lat="42.35305055044591426849365234375" lon="-8.61284497193992137908935546875">
        <ele>14</ele>
        <time>2019-05-04T07:22:03.000Z</time>
      </trkpt>
      <trkpt lat="42.353221960365772247314453125" lon="-8.61322601325809955596923828125">
        <ele>12.6000003814697265625</ele>
        <time>2019-05-04T07:22:15.000Z</time>
      </trkpt>
      <trkpt lat="42.3533713258802890777587890625" lon="-8.6133659072220325469970703125">
        <ele>13.3999996185302734375</ele>
        <time>2019-05-04T07:22:23.000Z</time>
      </trkpt>
      <trkpt lat="42.35372194088995456695556640625" lon="-8.61379564739763736724853515625">
        <ele>15.80000019073486328125</ele>
        <time>2019-05-04T07:22:37.000Z</time>
      </trkpt>
      <trkpt lat="42.35417305491864681243896484375" lon="-8.61412337981164455413818359375">
        <ele>13.6000003814697265625</ele>
        <time>2019-05-04T07:22:46.000Z</time>
      </trkpt>
      <trkpt lat="42.3546212352812290191650390625" lon="-8.6143073625862598419189453125">
        <ele>18.3999996185302734375</ele>
        <time>2019-05-04T07:22:54.000Z</time>
      </trkpt>
      <trkpt lat="42.3550135083496570587158203125" lon="-8.61464993096888065338134765625">
        <ele>21.799999237060546875</ele>
        <time>2019-05-04T07:23:14.000Z</time>
      </trkpt>
      <trkpt lat="42.355043180286884307861328125" lon="-8.61468161456286907196044921875">
        <ele>21.799999237060546875</ele>
        <time>2019-05-04T07:23:19.000Z</time>
      </trkpt>
      <trkpt lat="42.355053909122943878173828125" lon="-8.6146838776767253875732421875">
        <ele>21.799999237060546875</ele>
        <time>2019-05-04T07:23:22.000Z</time>
      </trkpt>
      <trkpt lat="42.3551117442548274993896484375" lon="-8.61469770781695842742919921875">
        <ele>22</ele>
        <time>2019-05-04T07:23:36.000Z</time>
      </trkpt>
      <trkpt lat="42.35531039535999298095703125" lon="-8.61483366228640079498291015625">
        <ele>22.3999996185302734375</ele>
        <time>2019-05-04T07:24:05.000Z</time>
      </trkpt>
      <trkpt lat="42.35554282553493976593017578125" lon="-8.615059889853000640869140625">
        <ele>22.200000762939453125</ele>
        <time>2019-05-04T07:24:38.000Z</time>
      </trkpt>
      <trkpt lat="42.355583645403385162353515625" lon="-8.6151029728353023529052734375">
        <ele>22</ele>
        <time>2019-05-04T07:24:44.000Z</time>
      </trkpt>
      <trkpt lat="42.35576695762574672698974609375" lon="-8.61532350070774555206298828125">
        <ele>24.6000003814697265625</ele>
        <time>2019-05-04T07:25:39.000Z</time>
      </trkpt>
      <trkpt lat="42.35596326179802417755126953125" lon="-8.61558317206799983978271484375">
        <ele>29</ele>
        <time>2019-05-04T07:26:04.000Z</time>
      </trkpt>
      <trkpt lat="42.35607004724442958831787109375" lon="-8.61579137854278087615966796875">
        <ele>32</ele>
        <time>2019-05-04T07:26:36.000Z</time>
      </trkpt>
      <trkpt lat="42.35618588514626026153564453125" lon="-8.61593739129602909088134765625">
        <ele>33.40000152587890625</ele>
        <time>2019-05-04T07:26:46.000Z</time>
      </trkpt>
      <trkpt lat="42.35722423531115055084228515625" lon="-8.61623075790703296661376953125">
        <ele>45.799999237060546875</ele>
        <time>2019-05-04T07:29:06.000Z</time>
      </trkpt>
      <trkpt lat="42.357600666582584381103515625" lon="-8.61631415784358978271484375">
        <ele>49.799999237060546875</ele>
        <time>2019-05-04T07:29:25.000Z</time>
      </trkpt>
      <trkpt lat="42.3577429912984371185302734375" lon="-8.61618985421955585479736328125">
        <ele>48.799999237060546875</ele>
        <time>2019-05-04T07:29:43.000Z</time>
      </trkpt>
      <trkpt lat="42.35788623802363872528076171875" lon="-8.616050295531749725341796875">
        <ele>47.59999847412109375</ele>
        <time>2019-05-04T07:29:50.000Z</time>
      </trkpt>
      <trkpt lat="42.35806100070476531982421875" lon="-8.6158573441207408905029296875">
        <ele>46.40000152587890625</ele>
        <time>2019-05-04T07:30:03.000Z</time>
      </trkpt>
      <trkpt lat="42.3585272021591663360595703125" lon="-8.6154791526496410369873046875">
        <ele>43.799999237060546875</ele>
        <time>2019-05-04T07:30:27.000Z</time>
      </trkpt>
      <trkpt lat="42.35854103229939937591552734375" lon="-8.61547085456550121307373046875">
        <ele>43.799999237060546875</ele>
        <time>2019-05-04T07:30:29.000Z</time>
      </trkpt>
      <trkpt lat="42.35873683355748653411865234375" lon="-8.61541503109037876129150390625">
        <ele>43</ele>
        <time>2019-05-04T07:30:49.000Z</time>
      </trkpt>
      <trkpt lat="42.3589530028402805328369140625" lon="-8.61543171107769012451171875">
        <ele>43.59999847412109375</ele>
        <time>2019-05-04T07:31:06.000Z</time>
      </trkpt>
      <trkpt lat="42.35899499617516994476318359375" lon="-8.615444116294384002685546875">
        <ele>44.200000762939453125</ele>
        <time>2019-05-04T07:31:09.000Z</time>
      </trkpt>
      <trkpt lat="42.3595006763935089111328125" lon="-8.615737818181514739990234375">
        <ele>52.200000762939453125</ele>
        <time>2019-05-04T07:31:31.000Z</time>
      </trkpt>
      <trkpt lat="42.3600597493350505828857421875" lon="-8.61566564999520778656005859375">
        <ele>50.799999237060546875</ele>
        <time>2019-05-04T07:31:50.000Z</time>
      </trkpt>
      <trkpt lat="42.36049233935773372650146484375" lon="-8.616037555038928985595703125">
        <ele>56.40000152587890625</ele>
        <time>2019-05-04T07:32:13.000Z</time>
      </trkpt>
      <trkpt lat="42.36102090217173099517822265625" lon="-8.61620024777948856353759765625">
        <ele>59</ele>
        <time>2019-05-04T07:32:37.000Z</time>
      </trkpt>
      <trkpt lat="42.36155298538506031036376953125" lon="-8.61628775484859943389892578125">
        <ele>62.40000152587890625</ele>
        <time>2019-05-04T07:33:04.000Z</time>
      </trkpt>
      <trkpt lat="42.3620928637683391571044921875" lon="-8.61629647202789783477783203125">
        <ele>66.8000030517578125</ele>
        <time>2019-05-04T07:33:30.000Z</time>
      </trkpt>
      <trkpt lat="42.36264866776764392852783203125" lon="-8.61631013453006744384765625">
        <ele>73.1999969482421875</ele>
        <time>2019-05-04T07:33:54.000Z</time>
      </trkpt>
      <trkpt lat="42.36314990557730197906494140625" lon="-8.6165188439190387725830078125">
        <ele>80.8000030517578125</ele>
        <time>2019-05-04T07:34:27.000Z</time>
      </trkpt>
      <trkpt lat="42.36342667602002620697021484375" lon="-8.6166713945567607879638671875">
        <ele>88</ele>
        <time>2019-05-04T07:34:46.000Z</time>
      </trkpt>
      <trkpt lat="42.36360822804272174835205078125" lon="-8.61674138344824314117431640625">
        <ele>90.40000152587890625</ele>
        <time>2019-05-04T07:35:00.000Z</time>
      </trkpt>
      <trkpt lat="42.36400385387241840362548828125" lon="-8.61667566932737827301025390625">
        <ele>90</ele>
        <time>2019-05-04T07:35:28.000Z</time>
      </trkpt>
      <trkpt lat="42.364079542458057403564453125" lon="-8.6166281439363956451416015625">
        <ele>89.1999969482421875</ele>
        <time>2019-05-04T07:35:32.000Z</time>
      </trkpt>
      <trkpt lat="42.364145927131175994873046875" lon="-8.61660978756844997406005859375">
        <ele>89</ele>
        <time>2019-05-04T07:35:37.000Z</time>
      </trkpt>
      <trkpt lat="42.364249862730503082275390625" lon="-8.61660626716911792755126953125">
        <ele>90.59999847412109375</ele>
        <time>2019-05-04T07:35:42.000Z</time>
      </trkpt>
      <trkpt lat="42.36481773667037487030029296875" lon="-8.61664080061018466949462890625">
        <ele>95</ele>
        <time>2019-05-04T07:36:09.000Z</time>
      </trkpt>
      <trkpt lat="42.36484942026436328887939453125" lon="-8.6166583187878131866455078125">
        <ele>95.1999969482421875</ele>
        <time>2019-05-04T07:36:11.000Z</time>
      </trkpt>
      <trkpt lat="42.36484623514115810394287109375" lon="-8.61664951778948307037353515625">
        <ele>95.1999969482421875</ele>
        <time>2019-05-04T07:36:12.000Z</time>
      </trkpt>
      <trkpt lat="42.36503181047737598419189453125" lon="-8.61670282669365406036376953125">
        <ele>97.40000152587890625</ele>
        <time>2019-05-04T07:36:25.000Z</time>
      </trkpt>
      <trkpt lat="42.36528410576283931732177734375" lon="-8.61693886108696460723876953125">
        <ele>100.1999969482421875</ele>
        <time>2019-05-04T07:36:49.000Z</time>
      </trkpt>
      <trkpt lat="42.36516642384231090545654296875" lon="-8.617107756435871124267578125">
        <ele>103</ele>
        <time>2019-05-04T07:37:07.000Z</time>
      </trkpt>
      <trkpt lat="42.3651468940079212188720703125" lon="-8.61713734455406665802001953125">
        <ele>103.59999847412109375</ele>
        <time>2019-05-04T07:37:10.000Z</time>
      </trkpt>
      <trkpt lat="42.3651395179331302642822265625" lon="-8.61723071895539760589599609375">
        <ele>105.1999969482421875</ele>
        <time>2019-05-04T07:37:16.000Z</time>
      </trkpt>
      <trkpt lat="42.36513507552444934844970703125" lon="-8.61733649857342243194580078125">
        <ele>107</ele>
        <time>2019-05-04T07:37:22.000Z</time>
      </trkpt>
      <trkpt lat="42.36513038165867328643798828125" lon="-8.617351837456226348876953125">
        <ele>107.40000152587890625</ele>
        <time>2019-05-04T07:37:23.000Z</time>
      </trkpt>
      <trkpt lat="42.3651274479925632476806640625" lon="-8.61735485494136810302734375">
        <ele>107.40000152587890625</ele>
        <time>2019-05-04T07:37:25.000Z</time>
      </trkpt>
      <trkpt lat="42.36510909162461757659912109375" lon="-8.6173952557146549224853515625">
        <ele>108</ele>
        <time>2019-05-04T07:37:31.000Z</time>
      </trkpt>
      <trkpt lat="42.3649440519511699676513671875" lon="-8.6175875365734100341796875">
        <ele>111.1999969482421875</ele>
        <time>2019-05-04T07:37:46.000Z</time>
      </trkpt>
      <trkpt lat="42.3646781779825687408447265625" lon="-8.61777336336672306060791015625">
        <ele>113.8000030517578125</ele>
        <time>2019-05-04T07:38:04.000Z</time>
      </trkpt>
      <trkpt lat="42.36433728598058223724365234375" lon="-8.6178602837026119232177734375">
        <ele>114.1999969482421875</ele>
        <time>2019-05-04T07:38:26.000Z</time>
      </trkpt>
      <trkpt lat="42.3643898405134677886962890625" lon="-8.61806564033031463623046875">
        <ele>118.59999847412109375</ele>
        <time>2019-05-04T07:38:37.000Z</time>
      </trkpt>
      <trkpt lat="42.364892922341823577880859375" lon="-8.61822389066219329833984375">
        <ele>125.40000152587890625</ele>
        <time>2019-05-04T07:39:13.000Z</time>
      </trkpt>
      <trkpt lat="42.36538535915315151214599609375" lon="-8.61850284039974212646484375">
        <ele>128.8000030517578125</ele>
        <time>2019-05-04T07:39:40.000Z</time>
      </trkpt>
      <trkpt lat="42.3658050410449504852294921875" lon="-8.618967533111572265625">
        <ele>133.1999969482421875</ele>
        <time>2019-05-04T07:40:10.000Z</time>
      </trkpt>
      <trkpt lat="42.36589908599853515625" lon="-8.61909032799303531646728515625">
        <ele>136.1999969482421875</ele>
        <time>2019-05-04T07:40:17.000Z</time>
      </trkpt>
      <trkpt lat="42.36596203409135341644287109375" lon="-8.6191521026194095611572265625">
        <ele>137.8000030517578125</ele>
        <time>2019-05-04T07:40:21.000Z</time>
      </trkpt>
      <trkpt lat="42.36608725972473621368408203125" lon="-8.619251511991024017333984375">
        <ele>139</ele>
        <time>2019-05-04T07:40:29.000Z</time>
      </trkpt>
      <trkpt lat="42.36617267131805419921875" lon="-8.61931362189352512359619140625">
        <ele>139.1999969482421875</ele>
        <time>2019-05-04T07:40:34.000Z</time>
      </trkpt>
      <trkpt lat="42.3664771020412445068359375" lon="-8.6195386759936809539794921875">
        <ele>141.399993896484375</ele>
        <time>2019-05-04T07:40:55.000Z</time>
      </trkpt>
      <trkpt lat="42.3666945286095142364501953125" lon="-8.6197767220437526702880859375">
        <ele>140.8000030517578125</ele>
        <time>2019-05-04T07:41:11.000Z</time>
      </trkpt>
      <trkpt lat="42.36662856303155422210693359375" lon="-8.62019455991685390472412109375">
        <ele>142.1999969482421875</ele>
        <time>2019-05-04T07:41:31.000Z</time>
      </trkpt>
      <trkpt lat="42.36668321304023265838623046875" lon="-8.62025373615324497222900390625">
        <ele>142</ele>
        <time>2019-05-04T07:41:38.000Z</time>
      </trkpt>
      <trkpt lat="42.36672160215675830841064453125" lon="-8.6202917061746120452880859375">
        <ele>142</ele>
        <time>2019-05-04T07:41:48.000Z</time>
      </trkpt>
      <trkpt lat="42.3667347617447376251220703125" lon="-8.62029598094522953033447265625">
        <ele>142</ele>
        <time>2019-05-04T07:41:49.000Z</time>
      </trkpt>
      <trkpt lat="42.36724262125790119171142578125" lon="-8.62057845108211040496826171875">
        <ele>141.8000030517578125</ele>
        <time>2019-05-04T07:42:16.000Z</time>
      </trkpt>
      <trkpt lat="42.36760388128459453582763671875" lon="-8.62062044441699981689453125">
        <ele>141.8000030517578125</ele>
        <time>2019-05-04T07:42:25.000Z</time>
      </trkpt>
      <trkpt lat="42.3678052984178066253662109375" lon="-8.620837368071079254150390625">
        <ele>142.399993896484375</ele>
        <time>2019-05-04T07:42:29.000Z</time>
      </trkpt>
      <trkpt lat="42.36805901862680912017822265625" lon="-8.62151135690510272979736328125">
        <ele>137.1999969482421875</ele>
        <time>2019-05-04T07:42:44.000Z</time>
      </trkpt>
      <trkpt lat="42.3680681549012660980224609375" lon="-8.62158746458590030670166015625">
        <ele>136</ele>
        <time>2019-05-04T07:42:45.000Z</time>
      </trkpt>
      <trkpt lat="42.3680998384952545166015625" lon="-8.62172476015985012054443359375">
        <ele>134.399993896484375</ele>
        <time>2019-05-04T07:42:47.000Z</time>
      </trkpt>
      <trkpt lat="42.3682884313166141510009765625" lon="-8.6224022693932056427001953125">
        <ele>123.40000152587890625</ele>
        <time>2019-05-04T07:43:04.000Z</time>
      </trkpt>
      <trkpt lat="42.3683558218181133270263671875" lon="-8.62270376645028591156005859375">
        <ele>118.40000152587890625</ele>
        <time>2019-05-04T07:43:10.000Z</time>
      </trkpt>
      <trkpt lat="42.36851214431226253509521484375" lon="-8.62297768704593181610107421875">
        <ele>117.40000152587890625</ele>
        <time>2019-05-04T07:43:21.000Z</time>
      </trkpt>
      <trkpt lat="42.36854986287653446197509765625" lon="-8.623051531612873077392578125">
        <ele>117</ele>
        <time>2019-05-04T07:46:06.000Z</time>
      </trkpt>
      <trkpt lat="42.36885345540940761566162109375" lon="-8.6236585490405559539794921875">
        <ele>111</ele>
        <time>2019-05-04T07:46:27.000Z</time>
      </trkpt>
      <trkpt lat="42.368977926671504974365234375" lon="-8.62417277880012989044189453125">
        <ele>110.1999969482421875</ele>
        <time>2019-05-04T07:46:42.000Z</time>
      </trkpt>
      <trkpt lat="42.3692701198160648345947265625" lon="-8.6247887648642063140869140625">
        <ele>114</ele>
        <time>2019-05-04T07:47:07.000Z</time>
      </trkpt>
      <trkpt lat="42.36962928436696529388427734375" lon="-8.62535596825182437896728515625">
        <ele>117.59999847412109375</ele>
        <time>2019-05-04T07:47:25.000Z</time>
      </trkpt>
      <trkpt lat="42.36970539204776287078857421875" lon="-8.6254147253930568695068359375">
        <ele>118.8000030517578125</ele>
        <time>2019-05-04T07:47:27.000Z</time>
      </trkpt>
      <trkpt lat="42.37017611972987651824951171875" lon="-8.6257124505937099456787109375">
        <ele>119.59999847412109375</ele>
        <time>2019-05-04T07:47:37.000Z</time>
      </trkpt>
      <trkpt lat="42.37045951187610626220703125" lon="-8.6258251033723354339599609375">
        <ele>117.8000030517578125</ele>
        <time>2019-05-04T07:47:43.000Z</time>
      </trkpt>
      <trkpt lat="42.3705874197185039520263671875" lon="-8.62596114166080951690673828125">
        <ele>114</ele>
        <time>2019-05-04T07:47:47.000Z</time>
      </trkpt>
      <trkpt lat="42.37067048437893390655517578125" lon="-8.62607463262975215911865234375">
        <ele>111.1999969482421875</ele>
        <time>2019-05-04T07:47:50.000Z</time>
      </trkpt>
      <trkpt lat="42.37078808248043060302734375" lon="-8.6261491477489471435546875">
        <ele>109.40000152587890625</ele>
        <time>2019-05-04T07:47:53.000Z</time>
      </trkpt>
      <trkpt lat="42.37133299000561237335205078125" lon="-8.6259712837636470794677734375">
        <ele>108</ele>
        <time>2019-05-04T07:48:09.000Z</time>
      </trkpt>
      <trkpt lat="42.37184428609907627105712890625" lon="-8.6256011389195919036865234375">
        <ele>113.40000152587890625</ele>
        <time>2019-05-04T07:48:23.000Z</time>
      </trkpt>
      <trkpt lat="42.37228534184396266937255859375" lon="-8.62515564076602458953857421875">
        <ele>121.40000152587890625</ele>
        <time>2019-05-04T07:48:36.000Z</time>
      </trkpt>
      <trkpt lat="42.3727797903120517730712890625" lon="-8.624799661338329315185546875">
        <ele>124.1999969482421875</ele>
        <time>2019-05-04T07:48:50.000Z</time>
      </trkpt>
      <trkpt lat="42.373298294842243194580078125" lon="-8.6250838078558444976806640625">
        <ele>114.1999969482421875</ele>
        <time>2019-05-04T07:49:05.000Z</time>
      </trkpt>
      <trkpt lat="42.37380112521350383758544921875" lon="-8.6254096962511539459228515625">
        <ele>115</ele>
        <time>2019-05-04T07:49:20.000Z</time>
      </trkpt>
      <trkpt lat="42.3738853633403778076171875" lon="-8.625419922173023223876953125">
        <ele>115.59999847412109375</ele>
        <time>2019-05-04T07:49:22.000Z</time>
      </trkpt>
      <trkpt lat="42.3740773089230060577392578125" lon="-8.62541883252561092376708984375">
        <ele>116</ele>
        <time>2019-05-04T07:49:26.000Z</time>
      </trkpt>
      <trkpt lat="42.37434159033000469207763671875" lon="-8.62537465989589691162109375">
        <ele>119.8000030517578125</ele>
        <time>2019-05-04T07:49:31.000Z</time>
      </trkpt>
      <trkpt lat="42.37460352480411529541015625" lon="-8.62555210478603839874267578125">
        <ele>121.8000030517578125</ele>
        <time>2019-05-04T07:49:36.000Z</time>
      </trkpt>
      <trkpt lat="42.3747116513550281524658203125" lon="-8.62565788440406322479248046875">
        <ele>119.1999969482421875</ele>
        <time>2019-05-04T07:49:38.000Z</time>
      </trkpt>
      <trkpt lat="42.37522923387587070465087890625" lon="-8.62597220577299594879150390625">
        <ele>110.59999847412109375</ele>
        <time>2019-05-04T07:49:47.000Z</time>
      </trkpt>
      <trkpt lat="42.3756722174584865570068359375" lon="-8.6264026165008544921875">
        <ele>102.40000152587890625</ele>
        <time>2019-05-04T07:49:54.000Z</time>
      </trkpt>
      <trkpt lat="42.3761623911559581756591796875" lon="-8.62686336971819400787353515625">
        <ele>94.1999969482421875</ele>
        <time>2019-05-04T07:50:00.000Z</time>
      </trkpt>
      <trkpt lat="42.37625484354794025421142578125" lon="-8.626930005848407745361328125">
        <ele>93.8000030517578125</ele>
        <time>2019-05-04T07:50:01.000Z</time>
      </trkpt>
      <trkpt lat="42.37650948576629161834716796875" lon="-8.62704877741634845733642578125">
        <ele>93.40000152587890625</ele>
        <time>2019-05-04T07:50:04.000Z</time>
      </trkpt>
      <trkpt lat="42.37706855870783329010009765625" lon="-8.62699211575090885162353515625">
        <ele>98.59999847412109375</ele>
        <time>2019-05-04T07:50:15.000Z</time>
      </trkpt>
      <trkpt lat="42.37756007350981235504150390625" lon="-8.6272889189422130584716796875">
        <ele>98</ele>
        <time>2019-05-04T07:50:31.000Z</time>
      </trkpt>
      <trkpt lat="42.37777465023100376129150390625" lon="-8.62726293504238128662109375">
        <ele>100.40000152587890625</ele>
        <time>2019-05-04T07:50:36.000Z</time>
      </trkpt>
      <trkpt lat="42.378340847790241241455078125" lon="-8.62730744294822216033935546875">
        <ele>105.59999847412109375</ele>
        <time>2019-05-04T07:50:46.000Z</time>
      </trkpt>
      <trkpt lat="42.37847822718322277069091796875" lon="-8.62736217677593231201171875">
        <ele>102.8000030517578125</ele>
        <time>2019-05-04T07:50:48.000Z</time>
      </trkpt>
      <trkpt lat="42.3787302710115909576416015625" lon="-8.62756325863301753997802734375">
        <ele>97.59999847412109375</ele>
        <time>2019-05-04T07:50:52.000Z</time>
      </trkpt>
      <trkpt lat="42.37877880223095417022705078125" lon="-8.6276148073375225067138671875">
        <ele>96.59999847412109375</ele>
        <time>2019-05-04T07:50:53.000Z</time>
      </trkpt>
      <trkpt lat="42.378858514130115509033203125" lon="-8.62770373933017253875732421875">
        <ele>94.8000030517578125</ele>
        <time>2019-05-04T07:50:55.000Z</time>
      </trkpt>
      <trkpt lat="42.379008047282695770263671875" lon="-8.627809099853038787841796875">
        <ele>91.1999969482421875</ele>
        <time>2019-05-04T07:51:00.000Z</time>
      </trkpt>
      <trkpt lat="42.37911826930940151214599609375" lon="-8.62804823555052280426025390625">
        <ele>87.40000152587890625</ele>
        <time>2019-05-04T07:51:04.000Z</time>
      </trkpt>
      <trkpt lat="42.37934298813343048095703125" lon="-8.6287245713174343109130859375">
        <ele>77.1999969482421875</ele>
        <time>2019-05-04T07:51:16.000Z</time>
      </trkpt>
      <trkpt lat="42.37969578243792057037353515625" lon="-8.6291599273681640625">
        <ele>73.59999847412109375</ele>
        <time>2019-05-04T07:51:27.000Z</time>
      </trkpt>
      <trkpt lat="42.37980692647397518157958984375" lon="-8.62922706641256809234619140625">
        <ele>73.59999847412109375</ele>
        <time>2019-05-04T07:51:29.000Z</time>
      </trkpt>
      <trkpt lat="42.380254268646240234375" lon="-8.62938498146831989288330078125">
        <ele>73.1999969482421875</ele>
        <time>2019-05-04T07:51:36.000Z</time>
      </trkpt>
      <trkpt lat="42.38080479204654693603515625" lon="-8.62960517406463623046875">
        <ele>71.59999847412109375</ele>
        <time>2019-05-04T07:51:44.000Z</time>
      </trkpt>
      <trkpt lat="42.380985505878925323486328125" lon="-8.629609532654285430908203125">
        <ele>72</ele>
        <time>2019-05-04T07:51:49.000Z</time>
      </trkpt>
      <trkpt lat="42.3809970729053020477294921875" lon="-8.6296261288225650787353515625">
        <ele>71.8000030517578125</ele>
        <time>2019-05-04T07:51:52.000Z</time>
      </trkpt>
      <trkpt lat="42.38098642788827419281005859375" lon="-8.62963107414543628692626953125">
        <ele>71.8000030517578125</ele>
        <time>2019-05-04T07:51:56.000Z</time>
      </trkpt>
      <trkpt lat="42.380969412624835968017578125" lon="-8.6296153999865055084228515625">
        <ele>71.8000030517578125</ele>
        <time>2019-05-04T07:51:58.000Z</time>
      </trkpt>
      <trkpt lat="42.38094233907759189605712890625" lon="-8.629591763019561767578125">
        <ele>71.8000030517578125</ele>
        <time>2019-05-04T07:52:02.000Z</time>
      </trkpt>
      <trkpt lat="42.38101894967257976531982421875" lon="-8.62957290373742580413818359375">
        <ele>72</ele>
        <time>2019-05-04T07:52:17.000Z</time>
      </trkpt>
      <trkpt lat="42.3810870945453643798828125" lon="-8.62954591400921344757080078125">
        <ele>72</ele>
        <time>2019-05-04T07:52:21.000Z</time>
      </trkpt>
      <trkpt lat="42.38108550198376178741455078125" lon="-8.62954490818083286285400390625">
        <ele>72</ele>
        <time>2019-05-04T07:52:22.000Z</time>
      </trkpt>
      <trkpt lat="42.380998916923999786376953125" lon="-8.62954759038984775543212890625">
        <ele>72</ele>
        <time>2019-05-04T07:53:10.000Z</time>
      </trkpt>
      <trkpt lat="42.3809793032705783843994140625" lon="-8.62955890595912933349609375">
        <ele>72</ele>
        <time>2019-05-04T07:53:13.000Z</time>
      </trkpt>
      <trkpt lat="42.3810192011296749114990234375" lon="-8.62956385128200054168701171875">
        <ele>72</ele>
        <time>2019-05-04T07:53:56.000Z</time>
      </trkpt>
      <trkpt lat="42.381074018776416778564453125" lon="-8.6295233666896820068359375">
        <ele>72.1999969482421875</ele>
        <time>2019-05-04T07:54:01.000Z</time>
      </trkpt>
      <trkpt lat="42.3810805566608905792236328125" lon="-8.62951640971004962921142578125">
        <ele>72.1999969482421875</ele>
        <time>2019-05-04T07:54:03.000Z</time>
      </trkpt>
      <trkpt lat="42.38111752085387706756591796875" lon="-8.62953702919185161590576171875">
        <ele>72.1999969482421875</ele>
        <time>2019-05-04T07:56:23.000Z</time>
      </trkpt>
      <trkpt lat="42.38168028183281421661376953125" lon="-8.62954122014343738555908203125">
        <ele>73.1999969482421875</ele>
        <time>2019-05-04T07:56:41.000Z</time>
      </trkpt>
      <trkpt lat="42.38177181221544742584228515625" lon="-8.629567623138427734375">
        <ele>72.8000030517578125</ele>
        <time>2019-05-04T07:56:43.000Z</time>
      </trkpt>
      <trkpt lat="42.38236793316900730133056640625" lon="-8.6296264640986919403076171875">
        <ele>70.1999969482421875</ele>
        <time>2019-05-04T07:56:55.000Z</time>
      </trkpt>
      <trkpt lat="42.382940165698528289794921875" lon="-8.62972025759518146514892578125">
        <ele>65.8000030517578125</ele>
        <time>2019-05-04T07:57:09.000Z</time>
      </trkpt>
      <trkpt lat="42.38345758058130741119384765625" lon="-8.63002988509833812713623046875">
        <ele>57.59999847412109375</ele>
        <time>2019-05-04T07:57:23.000Z</time>
      </trkpt>
      <trkpt lat="42.3835827223956584930419921875" lon="-8.630124516785144805908203125">
        <ele>55.40000152587890625</ele>
        <time>2019-05-04T07:57:28.000Z</time>
      </trkpt>
      <trkpt lat="42.38383878953754901885986328125" lon="-8.63002963364124298095703125">
        <ele>53</ele>
        <time>2019-05-04T07:57:34.000Z</time>
      </trkpt>
      <trkpt lat="42.38432225771248340606689453125" lon="-8.630303554236888885498046875">
        <ele>46.200000762939453125</ele>
        <time>2019-05-04T07:57:43.000Z</time>
      </trkpt>
      <trkpt lat="42.38456793129444122314453125" lon="-8.6305370740592479705810546875">
        <ele>43.40000152587890625</ele>
        <time>2019-05-04T07:57:48.000Z</time>
      </trkpt>
      <trkpt lat="42.38462425768375396728515625" lon="-8.63060303963720798492431640625">
        <ele>42.59999847412109375</ele>
        <time>2019-05-04T07:57:50.000Z</time>
      </trkpt>
      <trkpt lat="42.38502248190343379974365234375" lon="-8.63053657114505767822265625">
        <ele>41</ele>
        <time>2019-05-04T07:57:59.000Z</time>
      </trkpt>
      <trkpt lat="42.3851038701832294464111328125" lon="-8.6305115930736064910888671875">
        <ele>41</ele>
        <time>2019-05-04T07:58:01.000Z</time>
      </trkpt>
      <trkpt lat="42.3852718435227870941162109375" lon="-8.63048653118312358856201171875">
        <ele>41.200000762939453125</ele>
        <time>2019-05-04T07:58:05.000Z</time>
      </trkpt>
      <trkpt lat="42.3853150941431522369384765625" lon="-8.63047848455607891082763671875">
        <ele>41.200000762939453125</ele>
        <time>2019-05-04T07:58:06.000Z</time>
      </trkpt>
      <trkpt lat="42.385669313371181488037109375" lon="-8.63043707795441150665283203125">
        <ele>41.59999847412109375</ele>
        <time>2019-05-04T07:58:15.000Z</time>
      </trkpt>
      <trkpt lat="42.38603518344461917877197265625" lon="-8.6303861998021602630615234375">
        <ele>41.200000762939453125</ele>
        <time>2019-05-04T07:58:29.000Z</time>
      </trkpt>
      <trkpt lat="42.3862731456756591796875" lon="-8.6304277740418910980224609375">
        <ele>40.40000152587890625</ele>
        <time>2019-05-04T07:58:37.000Z</time>
      </trkpt>
      <trkpt lat="42.386508174240589141845703125" lon="-8.6303338967263698577880859375">
        <ele>40.40000152587890625</ele>
        <time>2019-05-04T07:58:43.000Z</time>
      </trkpt>
      <trkpt lat="42.3870022036135196685791015625" lon="-8.6299620755016803741455078125">
        <ele>41</ele>
        <time>2019-05-04T07:58:56.000Z</time>
      </trkpt>
      <trkpt lat="42.38751978613436222076416015625" lon="-8.62969310022890567779541015625">
        <ele>41</ele>
        <time>2019-05-04T07:59:10.000Z</time>
      </trkpt>
      <trkpt lat="42.38803468644618988037109375" lon="-8.62954390235245227813720703125">
        <ele>41.799999237060546875</ele>
        <time>2019-05-04T07:59:25.000Z</time>
      </trkpt>
      <trkpt lat="42.3885785043239593505859375" lon="-8.62974942661821842193603515625">
        <ele>39.200000762939453125</ele>
        <time>2019-05-04T07:59:40.000Z</time>
      </trkpt>
      <trkpt lat="42.38883557729423046112060546875" lon="-8.6298390291631221771240234375">
        <ele>38.799999237060546875</ele>
        <time>2019-05-04T07:59:46.000Z</time>
      </trkpt>
      <trkpt lat="42.3893845081329345703125" lon="-8.6300013028085231781005859375">
        <ele>38.799999237060546875</ele>
        <time>2019-05-04T08:00:02.000Z</time>
      </trkpt>
      <trkpt lat="42.38986395299434661865234375" lon="-8.63002435304224491119384765625">
        <ele>39.200000762939453125</ele>
        <time>2019-05-04T08:00:14.000Z</time>
      </trkpt>
      <trkpt lat="42.390325963497161865234375" lon="-8.62993902526795864105224609375">
        <ele>39.40000152587890625</ele>
        <time>2019-05-04T08:00:23.000Z</time>
      </trkpt>
      <trkpt lat="42.390856705605983734130859375" lon="-8.629761748015880584716796875">
        <ele>39.799999237060546875</ele>
        <time>2019-05-04T08:00:35.000Z</time>
      </trkpt>
      <trkpt lat="42.39097732119262218475341796875" lon="-8.6297491751611232757568359375">
        <ele>40.200000762939453125</ele>
        <time>2019-05-04T08:00:42.000Z</time>
      </trkpt>
      <trkpt lat="42.39106063731014728546142578125" lon="-8.62972914241254329681396484375">
        <ele>40.59999847412109375</ele>
        <time>2019-05-04T08:03:23.000Z</time>
      </trkpt>
      <trkpt lat="42.3910982720553874969482421875" lon="-8.6297253705561161041259765625">
        <ele>40.59999847412109375</ele>
        <time>2019-05-04T08:03:26.000Z</time>
      </trkpt>
      <trkpt lat="42.39113288931548595428466796875" lon="-8.62972025759518146514892578125">
        <ele>40.799999237060546875</ele>
        <time>2019-05-04T08:03:28.000Z</time>
      </trkpt>
      <trkpt lat="42.39168140105903148651123046875" lon="-8.629779517650604248046875">
        <ele>40.59999847412109375</ele>
        <time>2019-05-04T08:03:56.000Z</time>
      </trkpt>
      <trkpt lat="42.39223494194447994232177734375" lon="-8.62987867556512355804443359375">
        <ele>35</ele>
        <time>2019-05-04T08:04:11.000Z</time>
      </trkpt>
      <trkpt lat="42.392702400684356689453125" lon="-8.62972998060286045074462890625">
        <ele>33.59999847412109375</ele>
        <time>2019-05-04T08:04:23.000Z</time>
      </trkpt>
      <trkpt lat="42.39324412308633327484130859375" lon="-8.62957525067031383514404296875">
        <ele>32.40000152587890625</ele>
        <time>2019-05-04T08:04:36.000Z</time>
      </trkpt>
      <trkpt lat="42.39381057210266590118408203125" lon="-8.6295057646930217742919921875">
        <ele>32.40000152587890625</ele>
        <time>2019-05-04T08:04:52.000Z</time>
      </trkpt>
      <trkpt lat="42.3943662084639072418212890625" lon="-8.62941012717783451080322265625">
        <ele>32</ele>
        <time>2019-05-04T08:05:07.000Z</time>
      </trkpt>
      <trkpt lat="42.39463317207992076873779296875" lon="-8.629234023392200469970703125">
        <ele>31.6000003814697265625</ele>
        <time>2019-05-04T08:05:16.000Z</time>
      </trkpt>
      <trkpt lat="42.39464205689728260040283203125" lon="-8.6292160861194133758544921875">
        <ele>31.6000003814697265625</ele>
        <time>2019-05-04T08:05:19.000Z</time>
      </trkpt>
      <trkpt lat="42.394700311124324798583984375" lon="-8.629220612347126007080078125">
        <ele>31.3999996185302734375</ele>
        <time>2019-05-04T08:07:32.000Z</time>
      </trkpt>
      <trkpt lat="42.39478304050862789154052734375" lon="-8.6291802115738391876220703125">
        <ele>31.200000762939453125</ele>
        <time>2019-05-04T08:07:38.000Z</time>
      </trkpt>
      <trkpt lat="42.394896782934665679931640625" lon="-8.6290665529668331146240234375">
        <ele>31</ele>
        <time>2019-05-04T08:07:46.000Z</time>
      </trkpt>
      <trkpt lat="42.39490248262882232666015625" lon="-8.62905859015882015228271484375">
        <ele>31</ele>
        <time>2019-05-04T08:07:48.000Z</time>
      </trkpt>
      <trkpt lat="42.39490977488458156585693359375" lon="-8.6290474422276020050048828125">
        <ele>31</ele>
        <time>2019-05-04T08:08:04.000Z</time>
      </trkpt>
      <trkpt lat="42.39511261694133281707763671875" lon="-8.62891794182360172271728515625">
        <ele>30.799999237060546875</ele>
        <time>2019-05-04T08:08:13.000Z</time>
      </trkpt>
      <trkpt lat="42.39566414617002010345458984375" lon="-8.62879003398120403289794921875">
        <ele>30</ele>
        <time>2019-05-04T08:08:26.000Z</time>
      </trkpt>
      <trkpt lat="42.39598165266215801239013671875" lon="-8.62874443642795085906982421875">
        <ele>31</ele>
        <time>2019-05-04T08:08:33.000Z</time>
      </trkpt>
      <trkpt lat="42.396293543279170989990234375" lon="-8.62899254076182842254638671875">
        <ele>32.59999847412109375</ele>
        <time>2019-05-04T08:08:42.000Z</time>
      </trkpt>
      <trkpt lat="42.396679781377315521240234375" lon="-8.62950266338884830474853515625">
        <ele>33</ele>
        <time>2019-05-04T08:08:56.000Z</time>
      </trkpt>
      <trkpt lat="42.3969706334173679351806640625" lon="-8.63010548986494541168212890625">
        <ele>33.200000762939453125</ele>
        <time>2019-05-04T08:09:14.000Z</time>
      </trkpt>
      <trkpt lat="42.39711035974323749542236328125" lon="-8.63080504350364208221435546875">
        <ele>31.3999996185302734375</ele>
        <time>2019-05-04T08:09:28.000Z</time>
      </trkpt>
      <trkpt lat="42.3973588831722736358642578125" lon="-8.63145916722714900970458984375">
        <ele>31.6000003814697265625</ele>
        <time>2019-05-04T08:09:42.000Z</time>
      </trkpt>
      <trkpt lat="42.39739961922168731689453125" lon="-8.631558157503604888916015625">
        <ele>31.6000003814697265625</ele>
        <time>2019-05-04T08:09:44.000Z</time>
      </trkpt>
      <trkpt lat="42.39763121120631694793701171875" lon="-8.63172302953898906707763671875">
        <ele>31.799999237060546875</ele>
        <time>2019-05-04T08:09:51.000Z</time>
      </trkpt>
      <trkpt lat="42.398044355213642120361328125" lon="-8.6322774924337863922119140625">
        <ele>30.200000762939453125</ele>
        <time>2019-05-04T08:10:03.000Z</time>
      </trkpt>
      <trkpt lat="42.39806187339127063751220703125" lon="-8.63299557007849216461181640625">
        <ele>26.799999237060546875</ele>
        <time>2019-05-04T08:10:14.000Z</time>
      </trkpt>
      <trkpt lat="42.39801728166639804840087890625" lon="-8.633083663880825042724609375">
        <ele>26.799999237060546875</ele>
        <time>2019-05-04T08:10:16.000Z</time>
      </trkpt>
      <trkpt lat="42.397988028824329376220703125" lon="-8.63310637883841991424560546875">
        <ele>26.799999237060546875</ele>
        <time>2019-05-04T08:10:21.000Z</time>
      </trkpt>
      <trkpt lat="42.39852773956954479217529296875" lon="-8.633105792105197906494140625">
        <ele>26.6000003814697265625</ele>
        <time>2019-05-04T08:10:41.000Z</time>
      </trkpt>
      <trkpt lat="42.39863167516887187957763671875" lon="-8.6331257410347461700439453125">
        <ele>26.799999237060546875</ele>
        <time>2019-05-04T08:10:48.000Z</time>
      </trkpt>
      <trkpt lat="42.39865330047905445098876953125" lon="-8.63312347792088985443115234375">
        <ele>26.799999237060546875</ele>
        <time>2019-05-04T08:10:50.000Z</time>
      </trkpt>
      <trkpt lat="42.39875153638422489166259765625" lon="-8.63321316428482532501220703125">
        <ele>26.6000003814697265625</ele>
        <time>2019-05-04T08:10:55.000Z</time>
      </trkpt>
      <trkpt lat="42.398890592157840728759765625" lon="-8.6335361190140247344970703125">
        <ele>25.6000003814697265625</ele>
        <time>2019-05-04T08:11:05.000Z</time>
      </trkpt>
      <trkpt lat="42.39895932376384735107421875" lon="-8.63356285728514194488525390625">
        <ele>25.799999237060546875</ele>
        <time>2019-05-04T08:11:09.000Z</time>
      </trkpt>
      <trkpt lat="42.39945192821323871612548828125" lon="-8.63386058248579502105712890625">
        <ele>27.3999996185302734375</ele>
        <time>2019-05-04T08:11:27.000Z</time>
      </trkpt>
      <trkpt lat="42.39956525154411792755126953125" lon="-8.63413668237626552581787109375">
        <ele>27.6000003814697265625</ele>
        <time>2019-05-04T08:11:33.000Z</time>
      </trkpt>
      <trkpt lat="42.39964404143393039703369140625" lon="-8.63426693715155124664306640625">
        <ele>27.200000762939453125</ele>
        <time>2019-05-04T08:11:37.000Z</time>
      </trkpt>
      <trkpt lat="42.3997219093143939971923828125" lon="-8.63441093824803829193115234375">
        <ele>27</ele>
        <time>2019-05-04T08:11:45.000Z</time>
      </trkpt>
      <trkpt lat="42.3998261801898479461669921875" lon="-8.6344665102660655975341796875">
        <ele>26.799999237060546875</ele>
        <time>2019-05-04T08:11:51.000Z</time>
      </trkpt>
      <trkpt lat="42.4000176228582859039306640625" lon="-8.63423927687108516693115234375">
        <ele>27.799999237060546875</ele>
        <time>2019-05-04T08:12:02.000Z</time>
      </trkpt>
      <trkpt lat="42.40040997974574565887451171875" lon="-8.634448908269405364990234375">
        <ele>28.3999996185302734375</ele>
        <time>2019-05-04T08:12:17.000Z</time>
      </trkpt>
      <trkpt lat="42.40059220232069492340087890625" lon="-8.6345176398754119873046875">
        <ele>29</ele>
        <time>2019-05-04T08:12:28.000Z</time>
      </trkpt>
      <trkpt lat="42.40100509487092494964599609375" lon="-8.6344644986093044281005859375">
        <ele>30.3999996185302734375</ele>
        <time>2019-05-04T08:12:41.000Z</time>
      </trkpt>
      <trkpt lat="42.401103079319000244140625" lon="-8.63459953106939792633056640625">
        <ele>30.3999996185302734375</ele>
        <time>2019-05-04T08:12:46.000Z</time>
      </trkpt>
      <trkpt lat="42.40116317756474018096923828125" lon="-8.63464747555553913116455078125">
        <ele>30.6000003814697265625</ele>
        <time>2019-05-04T08:12:50.000Z</time>
      </trkpt>
      <trkpt lat="42.40128136239945888519287109375" lon="-8.63460606895387172698974609375">
        <ele>31</ele>
        <time>2019-05-04T08:12:55.000Z</time>
      </trkpt>
      <trkpt lat="42.40153851918876171112060546875" lon="-8.63462082110345363616943359375">
        <ele>31.799999237060546875</ele>
        <time>2019-05-04T08:13:03.000Z</time>
      </trkpt>
      <trkpt lat="42.4016584642231464385986328125" lon="-8.63471838645637035369873046875">
        <ele>31.6000003814697265625</ele>
        <time>2019-05-04T08:13:08.000Z</time>
      </trkpt>
      <trkpt lat="42.40177153609693050384521484375" lon="-8.63481461070477962493896484375">
        <ele>30.3999996185302734375</ele>
        <time>2019-05-04T08:13:17.000Z</time>
      </trkpt>
      <trkpt lat="42.4017781578004360198974609375" lon="-8.6348219029605388641357421875">
        <ele>30.200000762939453125</ele>
        <time>2019-05-04T08:13:19.000Z</time>
      </trkpt>
      <trkpt lat="42.40192391909658908843994140625" lon="-8.63485987298190593719482421875">
        <ele>28.799999237060546875</ele>
        <time>2019-05-04T08:13:36.000Z</time>
      </trkpt>
      <trkpt lat="42.4020222388207912445068359375" lon="-8.634905554354190826416015625">
        <ele>28.3999996185302734375</ele>
        <time>2019-05-04T08:13:40.000Z</time>
      </trkpt>
      <trkpt lat="42.40209608338773250579833984375" lon="-8.63496347330510616302490234375">
        <ele>28.200000762939453125</ele>
        <time>2019-05-04T08:13:44.000Z</time>
      </trkpt>
      <trkpt lat="42.40211988799273967742919921875" lon="-8.63510998897254467010498046875">
        <ele>28.200000762939453125</ele>
        <time>2019-05-04T08:13:49.000Z</time>
      </trkpt>
      <trkpt lat="42.40213983692228794097900390625" lon="-8.63521291874349117279052734375">
        <ele>28.200000762939453125</ele>
        <time>2019-05-04T08:13:54.000Z</time>
      </trkpt>
      <trkpt lat="42.40216917358338832855224609375" lon="-8.635272346436977386474609375">
        <ele>28.200000762939453125</ele>
        <time>2019-05-04T08:13:58.000Z</time>
      </trkpt>
      <trkpt lat="42.4022475443780422210693359375" lon="-8.63526220433413982391357421875">
        <ele>27.799999237060546875</ele>
        <time>2019-05-04T08:14:04.000Z</time>
      </trkpt>
      <trkpt lat="42.40238391794264316558837890625" lon="-8.635186515748500823974609375">
        <ele>27.3999996185302734375</ele>
        <time>2019-05-04T08:14:11.000Z</time>
      </trkpt>
      <trkpt lat="42.402420379221439361572265625" lon="-8.6351989209651947021484375">
        <ele>27.200000762939453125</ele>
        <time>2019-05-04T08:14:15.000Z</time>
      </trkpt>
      <trkpt lat="42.40245021879673004150390625" lon="-8.63522213883697986602783203125">
        <ele>27.200000762939453125</ele>
        <time>2019-05-04T08:14:24.000Z</time>
      </trkpt>
      <trkpt lat="42.402461282908916473388671875" lon="-8.6352222226560115814208984375">
        <ele>27</ele>
        <time>2019-05-04T08:14:26.000Z</time>
      </trkpt>
      <trkpt lat="42.4025476165115833282470703125" lon="-8.6352150142192840576171875">
        <ele>27.200000762939453125</ele>
        <time>2019-05-04T08:14:32.000Z</time>
      </trkpt>
      <trkpt lat="42.402734868228435516357421875" lon="-8.63531283102929592132568359375">
        <ele>27.3999996185302734375</ele>
        <time>2019-05-04T08:14:38.000Z</time>
      </trkpt>
      <trkpt lat="42.402867637574672698974609375" lon="-8.63533210940659046173095703125">
        <ele>27.6000003814697265625</ele>
        <time>2019-05-04T08:14:43.000Z</time>
      </trkpt>
      <trkpt lat="42.4029408954083919525146484375" lon="-8.6355221271514892578125">
        <ele>28</ele>
        <time>2019-05-04T08:14:48.000Z</time>
      </trkpt>
      <trkpt lat="42.4033529497683048248291015625" lon="-8.635751791298389434814453125">
        <ele>28</ele>
        <time>2019-05-04T08:15:02.000Z</time>
      </trkpt>
      <trkpt lat="42.40363868884742259979248046875" lon="-8.6356610991060733795166015625">
        <ele>27.6000003814697265625</ele>
        <time>2019-05-04T08:15:11.000Z</time>
      </trkpt>
      <trkpt lat="42.40382962860167026519775390625" lon="-8.63531115464866161346435546875">
        <ele>27.3999996185302734375</ele>
        <time>2019-05-04T08:15:22.000Z</time>
      </trkpt>
      <trkpt lat="42.4039601348340511322021484375" lon="-8.6355062015354633331298828125">
        <ele>27</ele>
        <time>2019-05-04T08:15:33.000Z</time>
      </trkpt>
      <trkpt lat="42.40407521836459636688232421875" lon="-8.635739721357822418212890625">
        <ele>26</ele>
        <time>2019-05-04T08:15:40.000Z</time>
      </trkpt>
      <trkpt lat="42.40421368740499019622802734375" lon="-8.6356922797858715057373046875">
        <ele>25.6000003814697265625</ele>
        <time>2019-05-04T08:15:44.000Z</time>
      </trkpt>
      <trkpt lat="42.40441367961466312408447265625" lon="-8.63551634363830089569091796875">
        <ele>25.200000762939453125</ele>
        <time>2019-05-04T08:15:53.000Z</time>
      </trkpt>
      <trkpt lat="42.40457712672650814056396484375" lon="-8.63541257567703723907470703125">
        <ele>25</ele>
        <time>2019-05-04T08:16:11.000Z</time>
      </trkpt>
      <trkpt lat="42.40459472872316837310791015625" lon="-8.635462112724781036376953125">
        <ele>24.799999237060546875</ele>
        <time>2019-05-04T08:16:13.000Z</time>
      </trkpt>
      <trkpt lat="42.40468525327742099761962890625" lon="-8.63555003888905048370361328125">
        <ele>24.6000003814697265625</ele>
        <time>2019-05-04T08:16:17.000Z</time>
      </trkpt>
      <trkpt lat="42.4047785438597202301025390625" lon="-8.63562815822660923004150390625">
        <ele>24.799999237060546875</ele>
        <time>2019-05-04T08:16:21.000Z</time>
      </trkpt>
      <trkpt lat="42.4048915319144725799560546875" lon="-8.635771907866001129150390625">
        <ele>25.200000762939453125</ele>
        <time>2019-05-04T08:16:27.000Z</time>
      </trkpt>
      <trkpt lat="42.40497509948909282684326171875" lon="-8.63579546101391315460205078125">
        <ele>25.3999996185302734375</ele>
        <time>2019-05-04T08:16:30.000Z</time>
      </trkpt>
      <trkpt lat="42.405062019824981689453125" lon="-8.636070303618907928466796875">
        <ele>25.799999237060546875</ele>
        <time>2019-05-04T08:16:39.000Z</time>
      </trkpt>
      <trkpt lat="42.40503578446805477142333984375" lon="-8.63608765415847301483154296875">
        <ele>25.799999237060546875</ele>
        <time>2019-05-04T08:16:40.000Z</time>
      </trkpt>
      <trkpt lat="42.40491759963333606719970703125" lon="-8.6360480077564716339111328125">
        <ele>25.799999237060546875</ele>
        <time>2019-05-04T08:16:44.000Z</time>
      </trkpt>
      <trkpt lat="42.4048754386603832244873046875" lon="-8.63605655729770660400390625">
        <ele>25.799999237060546875</ele>
        <time>2019-05-04T08:16:46.000Z</time>
      </trkpt>
      <trkpt lat="42.40486747585237026214599609375" lon="-8.6362612433731555938720703125">
        <ele>25</ele>
        <time>2019-05-04T08:16:55.000Z</time>
      </trkpt>
      <trkpt lat="42.404885999858379364013671875" lon="-8.63632754422724246978759765625">
        <ele>24.799999237060546875</ele>
        <time>2019-05-04T08:16:59.000Z</time>
      </trkpt>
      <trkpt lat="42.40488256327807903289794921875" lon="-8.6363386921584606170654296875">
        <ele>24.799999237060546875</ele>
        <time>2019-05-04T08:17:01.000Z</time>
      </trkpt>
      <trkpt lat="42.40494593046605587005615234375" lon="-8.6364607326686382293701171875">
        <ele>24.3999996185302734375</ele>
        <time>2019-05-04T08:17:09.000Z</time>
      </trkpt>
      <trkpt lat="42.4050843156874179840087890625" lon="-8.63657279871404170989990234375">
        <ele>23.799999237060546875</ele>
        <time>2019-05-04T08:17:17.000Z</time>
      </trkpt>
      <trkpt lat="42.4051004089415073394775390625" lon="-8.63657128997147083282470703125">
        <ele>23.799999237060546875</ele>
        <time>2019-05-04T08:17:20.000Z</time>
      </trkpt>
      <trkpt lat="42.40514726378023624420166015625" lon="-8.6365851201117038726806640625">
        <ele>23.799999237060546875</ele>
        <time>2019-05-04T08:17:53.000Z</time>
      </trkpt>
      <trkpt lat="42.4052120558917522430419921875" lon="-8.6365871317684650421142578125">
        <ele>23.6000003814697265625</ele>
        <time>2019-05-04T08:17:56.000Z</time>
      </trkpt>
      <trkpt lat="42.40565545856952667236328125" lon="-8.63661177456378936767578125">
        <ele>24</ele>
        <time>2019-05-04T08:18:16.000Z</time>
      </trkpt>
      <trkpt lat="42.405840866267681121826171875" lon="-8.6366112716495990753173828125">
        <ele>24.200000762939453125</ele>
        <time>2019-05-04T08:18:24.000Z</time>
      </trkpt>
      <trkpt lat="42.40590884350240230560302734375" lon="-8.636685200035572052001953125">
        <ele>24.200000762939453125</ele>
        <time>2019-05-04T08:18:30.000Z</time>
      </trkpt>
      <trkpt lat="42.406039349734783172607421875" lon="-8.63672702573239803314208984375">
        <ele>24.200000762939453125</ele>
        <time>2019-05-04T08:18:43.000Z</time>
      </trkpt>
      <trkpt lat="42.40617446601390838623046875" lon="-8.63662778399884700775146484375">
        <ele>24.200000762939453125</ele>
        <time>2019-05-04T08:18:49.000Z</time>
      </trkpt>
      <trkpt lat="42.406261302530765533447265625" lon="-8.636256046593189239501953125">
        <ele>24.799999237060546875</ele>
        <time>2019-05-04T08:19:02.000Z</time>
      </trkpt>
      <trkpt lat="42.406315617263317108154296875" lon="-8.63614330999553203582763671875">
        <ele>24.799999237060546875</ele>
        <time>2019-05-04T08:19:06.000Z</time>
      </trkpt>
      <trkpt lat="42.4064840935170650482177734375" lon="-8.63613962195813655853271484375">
        <ele>24.799999237060546875</ele>
        <time>2019-05-04T08:19:12.000Z</time>
      </trkpt>
      <trkpt lat="42.40694819949567317962646484375" lon="-8.636421672999858856201171875">
        <ele>24.799999237060546875</ele>
        <time>2019-05-04T08:19:33.000Z</time>
      </trkpt>
      <trkpt lat="42.40699782036244869232177734375" lon="-8.63646500743925571441650390625">
        <ele>24.799999237060546875</ele>
        <time>2019-05-04T08:19:35.000Z</time>
      </trkpt>
      <trkpt lat="42.4070959724485874176025390625" lon="-8.636708669364452362060546875">
        <ele>24.799999237060546875</ele>
        <time>2019-05-04T08:19:42.000Z</time>
      </trkpt>
      <trkpt lat="42.4074840545654296875" lon="-8.6365975253283977508544921875">
        <ele>25.3999996185302734375</ele>
        <time>2019-05-04T08:20:02.000Z</time>
      </trkpt>
      <trkpt lat="42.407591342926025390625" lon="-8.63657413981854915618896484375">
        <ele>25.3999996185302734375</ele>
        <time>2019-05-04T08:20:07.000Z</time>
      </trkpt>
      <trkpt lat="42.40790440700948238372802734375" lon="-8.63645595498383045196533203125">
        <ele>25.3999996185302734375</ele>
        <time>2019-05-04T08:20:20.000Z</time>
      </trkpt>
      <trkpt lat="42.4079391919076442718505859375" lon="-8.63644287921488285064697265625">
        <ele>25.3999996185302734375</ele>
        <time>2019-05-04T08:20:22.000Z</time>
      </trkpt>
      <trkpt lat="42.407974563539028167724609375" lon="-8.63619737327098846435546875">
        <ele>25.799999237060546875</ele>
        <time>2019-05-04T08:20:29.000Z</time>
      </trkpt>
      <trkpt lat="42.40779946558177471160888671875" lon="-8.63592990674078464508056640625">
        <ele>25.799999237060546875</ele>
        <time>2019-05-04T08:20:38.000Z</time>
      </trkpt>
      <trkpt lat="42.40778018720448017120361328125" lon="-8.63571566529572010040283203125">
        <ele>25.6000003814697265625</ele>
        <time>2019-05-04T08:20:45.000Z</time>
      </trkpt>
      <trkpt lat="42.4077041633427143096923828125" lon="-8.63551164977252483367919921875">
        <ele>24.6000003814697265625</ele>
        <time>2019-05-04T08:20:52.000Z</time>
      </trkpt>
      <trkpt lat="42.4077638424932956695556640625" lon="-8.6353070475161075592041015625">
        <ele>24</ele>
        <time>2019-05-04T08:20:57.000Z</time>
      </trkpt>
      <trkpt lat="42.407788820564746856689453125" lon="-8.6352762021124362945556640625">
        <ele>24</ele>
        <time>2019-05-04T08:20:58.000Z</time>
      </trkpt>
      <trkpt lat="42.40789418108761310577392578125" lon="-8.63539665006101131439208984375">
        <ele>24.799999237060546875</ele>
        <time>2019-05-04T08:21:05.000Z</time>
      </trkpt>
      <trkpt lat="42.4079355038702487945556640625" lon="-8.6354337818920612335205078125">
        <ele>25</ele>
        <time>2019-05-04T08:21:07.000Z</time>
      </trkpt>
      <trkpt lat="42.40802627988159656524658203125" lon="-8.63563352264463901519775390625">
        <ele>25.6000003814697265625</ele>
        <time>2019-05-04T08:21:12.000Z</time>
      </trkpt>
      <trkpt lat="42.40806785412132740020751953125" lon="-8.6357288248836994171142578125">
        <ele>25.6000003814697265625</ele>
        <time>2019-05-04T08:21:15.000Z</time>
      </trkpt>
      <trkpt lat="42.40825460292398929595947265625" lon="-8.63594750873744487762451171875">
        <ele>26</ele>
        <time>2019-05-04T08:21:21.000Z</time>
      </trkpt>
      <trkpt lat="42.40842349827289581298828125" lon="-8.636045157909393310546875">
        <ele>25.6000003814697265625</ele>
        <time>2019-05-04T08:21:27.000Z</time>
      </trkpt>
      <trkpt lat="42.40853774361312389373779296875" lon="-8.63591867499053478240966796875">
        <ele>25.200000762939453125</ele>
        <time>2019-05-04T08:21:32.000Z</time>
      </trkpt>
      <trkpt lat="42.4086335487663745880126953125" lon="-8.6356470175087451934814453125">
        <ele>24</ele>
        <time>2019-05-04T08:21:41.000Z</time>
      </trkpt>
      <trkpt lat="42.4086536653339862823486328125" lon="-8.63563972525298595428466796875">
        <ele>24</ele>
        <time>2019-05-04T08:21:43.000Z</time>
      </trkpt>
      <trkpt lat="42.40908424369990825653076171875" lon="-8.63569001667201519012451171875">
        <ele>23</ele>
        <time>2019-05-04T08:21:56.000Z</time>
      </trkpt>
      <trkpt lat="42.40924802608788013458251953125" lon="-8.6357219517230987548828125">
        <ele>22.799999237060546875</ele>
        <time>2019-05-04T08:21:59.000Z</time>
      </trkpt>
      <trkpt lat="42.40933905355632305145263671875" lon="-8.63573611713945865631103515625">
        <ele>22.799999237060546875</ele>
        <time>2019-05-04T08:22:01.000Z</time>
      </trkpt>
      <trkpt lat="42.40942605771124362945556640625" lon="-8.63573226146399974822998046875">
        <ele>22.6000003814697265625</ele>
        <time>2019-05-04T08:22:03.000Z</time>
      </trkpt>
      <trkpt lat="42.40951071493327617645263671875" lon="-8.63573242910206317901611328125">
        <ele>22.6000003814697265625</ele>
        <time>2019-05-04T08:22:05.000Z</time>
      </trkpt>
      <trkpt lat="42.409659661352634429931640625" lon="-8.6357874982059001922607421875">
        <ele>22.799999237060546875</ele>
        <time>2019-05-04T08:22:10.000Z</time>
      </trkpt>
      <trkpt lat="42.410163581371307373046875" lon="-8.636091761291027069091796875">
        <ele>24</ele>
        <time>2019-05-04T08:22:31.000Z</time>
      </trkpt>
      <trkpt lat="42.41028402931988239288330078125" lon="-8.63585815764963626861572265625">
        <ele>23.200000762939453125</ele>
        <time>2019-05-04T08:22:40.000Z</time>
      </trkpt>
      <trkpt lat="42.41031588055193424224853515625" lon="-8.63583770580589771270751953125">
        <ele>23.200000762939453125</ele>
        <time>2019-05-04T08:22:42.000Z</time>
      </trkpt>
      <trkpt lat="42.4103982746601104736328125" lon="-8.6358726583421230316162109375">
        <ele>23</ele>
        <time>2019-05-04T08:22:46.000Z</time>
      </trkpt>
      <trkpt lat="42.41048301570117473602294921875" lon="-8.63594935275614261627197265625">
        <ele>22.799999237060546875</ele>
        <time>2019-05-04T08:22:51.000Z</time>
      </trkpt>
      <trkpt lat="42.4104779027402400970458984375" lon="-8.6359727382659912109375">
        <ele>22.799999237060546875</ele>
        <time>2019-05-04T08:22:52.000Z</time>
      </trkpt>
      <trkpt lat="42.4104758910834789276123046875" lon="-8.63638269715011119842529296875">
        <ele>25.3999996185302734375</ele>
        <time>2019-05-04T08:23:06.000Z</time>
      </trkpt>
      <trkpt lat="42.41051821969449520111083984375" lon="-8.6364595592021942138671875">
        <ele>25.3999996185302734375</ele>
        <time>2019-05-04T08:23:10.000Z</time>
      </trkpt>
      <trkpt lat="42.410645373165607452392578125" lon="-8.63654413260519504547119140625">
        <ele>25</ele>
        <time>2019-05-04T08:23:18.000Z</time>
      </trkpt>
      <trkpt lat="42.41067663766443729400634765625" lon="-8.6365358345210552215576171875">
        <ele>24.799999237060546875</ele>
        <time>2019-05-04T08:23:21.000Z</time>
      </trkpt>
      <trkpt lat="42.4109218083322048187255859375" lon="-8.63658721558749675750732421875">
        <ele>24.200000762939453125</ele>
        <time>2019-05-04T08:23:42.000Z</time>
      </trkpt>
      <trkpt lat="42.411146275699138641357421875" lon="-8.63656961359083652496337890625">
        <ele>24.6000003814697265625</ele>
        <time>2019-05-04T08:25:12.000Z</time>
      </trkpt>
      <trkpt lat="42.41129941307008266448974609375" lon="-8.6365911550819873809814453125">
        <ele>24.6000003814697265625</ele>
        <time>2019-05-04T08:25:20.000Z</time>
      </trkpt>
      <trkpt lat="42.41131416521966457366943359375" lon="-8.63660867325961589813232421875">
        <ele>24.799999237060546875</ele>
        <time>2019-05-04T08:25:21.000Z</time>
      </trkpt>
      <trkpt lat="42.41156763397157192230224609375" lon="-8.6368825100362300872802734375">
        <ele>25</ele>
        <time>2019-05-04T08:25:38.000Z</time>
      </trkpt>
      <trkpt lat="42.41162764839828014373779296875" lon="-8.63688561134040355682373046875">
        <ele>25</ele>
        <time>2019-05-04T08:26:11.000Z</time>
      </trkpt>
      <trkpt lat="42.4119946919381618499755859375" lon="-8.6364488303661346435546875">
        <ele>24.200000762939453125</ele>
        <time>2019-05-04T08:26:31.000Z</time>
      </trkpt>
      <trkpt lat="42.4120577238500118255615234375" lon="-8.636318407952785491943359375">
        <ele>23.799999237060546875</ele>
        <time>2019-05-04T08:26:37.000Z</time>
      </trkpt>
      <trkpt lat="42.41214715875685214996337890625" lon="-8.63630591891705989837646484375">
        <ele>23.799999237060546875</ele>
        <time>2019-05-04T08:26:52.000Z</time>
      </trkpt>
      <trkpt lat="42.41217364557087421417236328125" lon="-8.63632720895111560821533203125">
        <ele>23.799999237060546875</ele>
        <time>2019-05-04T08:26:56.000Z</time>
      </trkpt>
      <trkpt lat="42.41220968775451183319091796875" lon="-8.63637330941855907440185546875">
        <ele>23.3999996185302734375</ele>
        <time>2019-05-04T08:27:22.000Z</time>
      </trkpt>
      <trkpt lat="42.412284202873706817626953125" lon="-8.63654396496713161468505859375">
        <ele>22.799999237060546875</ele>
        <time>2019-05-04T08:27:29.000Z</time>
      </trkpt>
      <trkpt lat="42.412295602262020111083984375" lon="-8.6365606449544429779052734375">
        <ele>22.6000003814697265625</ele>
        <time>2019-05-04T08:27:30.000Z</time>
      </trkpt>
      <trkpt lat="42.412412278354167938232421875" lon="-8.63658620975911617279052734375">
        <ele>22</ele>
        <time>2019-05-04T08:27:37.000Z</time>
      </trkpt>
      <trkpt lat="42.4126059003174304962158203125" lon="-8.63644992001354694366455078125">
        <ele>21.200000762939453125</ele>
        <time>2019-05-04T08:27:51.000Z</time>
      </trkpt>
      <trkpt lat="42.4126773141324520111083984375" lon="-8.6364151351153850555419921875">
        <ele>20.6000003814697265625</ele>
        <time>2019-05-04T08:28:33.000Z</time>
      </trkpt>
      <trkpt lat="42.41279172711074352264404296875" lon="-8.63625998608767986297607421875">
        <ele>20.200000762939453125</ele>
        <time>2019-05-04T08:28:39.000Z</time>
      </trkpt>
      <trkpt lat="42.41298568435013294219970703125" lon="-8.63553947769105434417724609375">
        <ele>20.6000003814697265625</ele>
        <time>2019-05-04T08:28:55.000Z</time>
      </trkpt>
      <trkpt lat="42.41313236765563488006591796875" lon="-8.63524091430008411407470703125">
        <ele>19.799999237060546875</ele>
        <time>2019-05-04T08:29:01.000Z</time>
      </trkpt>
      <trkpt lat="42.413405366241931915283203125" lon="-8.6350874416530132293701171875">
        <ele>19</ele>
        <time>2019-05-04T08:29:07.000Z</time>
      </trkpt>
      <trkpt lat="42.41345666348934173583984375" lon="-8.63508853130042552947998046875">
        <ele>19</ele>
        <time>2019-05-04T08:29:08.000Z</time>
      </trkpt>
      <trkpt lat="42.4137337692081928253173828125" lon="-8.63499633036553859710693359375">
        <ele>19.200000762939453125</ele>
        <time>2019-05-04T08:29:14.000Z</time>
      </trkpt>
      <trkpt lat="42.413945496082305908203125" lon="-8.6348128505051136016845703125">
        <ele>19.3999996185302734375</ele>
        <time>2019-05-04T08:29:19.000Z</time>
      </trkpt>
      <trkpt lat="42.41433508694171905517578125" lon="-8.6349825002253055572509765625">
        <ele>19.799999237060546875</ele>
        <time>2019-05-04T08:29:29.000Z</time>
      </trkpt>
      <trkpt lat="42.4143748171627521514892578125" lon="-8.63501108251512050628662109375">
        <ele>19.799999237060546875</ele>
        <time>2019-05-04T08:29:30.000Z</time>
      </trkpt>
      <trkpt lat="42.4146333150565624237060546875" lon="-8.63525080494582653045654296875">
        <ele>20.3999996185302734375</ele>
        <time>2019-05-04T08:29:37.000Z</time>
      </trkpt>
      <trkpt lat="42.4148314632475376129150390625" lon="-8.63532364368438720703125">
        <ele>20.3999996185302734375</ele>
        <time>2019-05-04T08:29:41.000Z</time>
      </trkpt>
      <trkpt lat="42.414877898991107940673828125" lon="-8.63534686155617237091064453125">
        <ele>20.3999996185302734375</ele>
        <time>2019-05-04T08:29:42.000Z</time>
      </trkpt>
      <trkpt lat="42.41526405327022075653076171875" lon="-8.635544590651988983154296875">
        <ele>20</ele>
        <time>2019-05-04T08:29:50.000Z</time>
      </trkpt>
      <trkpt lat="42.41553143598139286041259765625" lon="-8.63540721125900745391845703125">
        <ele>19.3999996185302734375</ele>
        <time>2019-05-04T08:29:58.000Z</time>
      </trkpt>
      <trkpt lat="42.41594265215098857879638671875" lon="-8.63511912524700164794921875">
        <ele>19</ele>
        <time>2019-05-04T08:30:18.000Z</time>
      </trkpt>
      <trkpt lat="42.4161075241863727569580078125" lon="-8.63526069559156894683837890625">
        <ele>19.200000762939453125</ele>
        <time>2019-05-04T08:30:25.000Z</time>
      </trkpt>
      <trkpt lat="42.41620835848152637481689453125" lon="-8.63532431423664093017578125">
        <ele>19.3999996185302734375</ele>
        <time>2019-05-04T08:30:29.000Z</time>
      </trkpt>
      <trkpt lat="42.416298799216747283935546875" lon="-8.63526253961026668548583984375">
        <ele>19.3999996185302734375</ele>
        <time>2019-05-04T08:30:33.000Z</time>
      </trkpt>
      <trkpt lat="42.416450679302215576171875" lon="-8.635014183819293975830078125">
        <ele>19.6000003814697265625</ele>
        <time>2019-05-04T08:30:43.000Z</time>
      </trkpt>
      <trkpt lat="42.4165578000247478485107421875" lon="-8.63495492376387119293212890625">
        <ele>19.6000003814697265625</ele>
        <time>2019-05-04T08:31:15.000Z</time>
      </trkpt>
      <trkpt lat="42.41700396873056888580322265625" lon="-8.63497135229408740997314453125">
        <ele>19.3999996185302734375</ele>
        <time>2019-05-04T08:31:30.000Z</time>
      </trkpt>
      <trkpt lat="42.41737428121268749237060546875" lon="-8.63476381637156009674072265625">
        <ele>19</ele>
        <time>2019-05-04T08:31:45.000Z</time>
      </trkpt>
      <trkpt lat="42.417607046663761138916015625" lon="-8.63522063009440898895263671875">
        <ele>19.799999237060546875</ele>
        <time>2019-05-04T08:31:57.000Z</time>
      </trkpt>
      <trkpt lat="42.4176229722797870635986328125" lon="-8.6353952251374721527099609375">
        <ele>19.6000003814697265625</ele>
        <time>2019-05-04T08:32:05.000Z</time>
      </trkpt>
      <trkpt lat="42.4176732636988162994384765625" lon="-8.63562564365565776824951171875">
        <ele>19.6000003814697265625</ele>
        <time>2019-05-04T08:32:11.000Z</time>
      </trkpt>
      <trkpt lat="42.41784785874187946319580078125" lon="-8.6358076147735118865966796875">
        <ele>19.200000762939453125</ele>
        <time>2019-05-04T08:32:18.000Z</time>
      </trkpt>
      <trkpt lat="42.41787048988044261932373046875" lon="-8.63595756702125072479248046875">
        <ele>19</ele>
        <time>2019-05-04T08:32:26.000Z</time>
      </trkpt>
      <trkpt lat="42.41790510714054107666015625" lon="-8.63605094142258167266845703125">
        <ele>19.200000762939453125</ele>
        <time>2019-05-04T08:32:31.000Z</time>
      </trkpt>
      <trkpt lat="42.41790753789246082305908203125" lon="-8.6361774243414402008056640625">
        <ele>19.799999237060546875</ele>
        <time>2019-05-04T08:32:34.000Z</time>
      </trkpt>
      <trkpt lat="42.41845495998859405517578125" lon="-8.63634313456714153289794921875">
        <ele>18.799999237060546875</ele>
        <time>2019-05-04T08:32:55.000Z</time>
      </trkpt>
      <trkpt lat="42.41864615119993686676025390625" lon="-8.63624808378517627716064453125">
        <ele>19</ele>
        <time>2019-05-04T08:33:01.000Z</time>
      </trkpt>
      <trkpt lat="42.41869493387639522552490234375" lon="-8.63622612319886684417724609375">
        <ele>19.200000762939453125</ele>
        <time>2019-05-04T08:33:42.000Z</time>
      </trkpt>
      <trkpt lat="42.4187541939318180084228515625" lon="-8.6361791007220745086669921875">
        <ele>19.200000762939453125</ele>
        <time>2019-05-04T08:33:45.000Z</time>
      </trkpt>
      <trkpt lat="42.41886776871979236602783203125" lon="-8.636196367442607879638671875">
        <ele>19.6000003814697265625</ele>
        <time>2019-05-04T08:33:49.000Z</time>
      </trkpt>
      <trkpt lat="42.419388033449649810791015625" lon="-8.6364432983100414276123046875">
        <ele>19.6000003814697265625</ele>
        <time>2019-05-04T08:34:08.000Z</time>
      </trkpt>
      <trkpt lat="42.4199263192713260650634765625" lon="-8.636568523943424224853515625">
        <ele>20.6000003814697265625</ele>
        <time>2019-05-04T08:34:27.000Z</time>
      </trkpt>
      <trkpt lat="42.41997049190104007720947265625" lon="-8.63657296635210514068603515625">
        <ele>20.6000003814697265625</ele>
        <time>2019-05-04T08:34:29.000Z</time>
      </trkpt>
      <trkpt lat="42.4199735932052135467529296875" lon="-8.63658017478883266448974609375">
        <ele>20.6000003814697265625</ele>
        <time>2019-05-04T08:34:31.000Z</time>
      </trkpt>
      <trkpt lat="42.41999714635312557220458984375" lon="-8.63658671267330646514892578125">
        <ele>20.6000003814697265625</ele>
        <time>2019-05-04T08:34:45.000Z</time>
      </trkpt>
      <trkpt lat="42.42013075388967990875244140625" lon="-8.6365351639688014984130859375">
        <ele>20.6000003814697265625</ele>
        <time>2019-05-04T08:34:52.000Z</time>
      </trkpt>
      <trkpt lat="42.4201915226876735687255859375" lon="-8.636498786509037017822265625">
        <ele>20.6000003814697265625</ele>
        <time>2019-05-04T08:35:06.000Z</time>
      </trkpt>
      <trkpt lat="42.420763671398162841796875" lon="-8.63646031357347965240478515625">
        <ele>19.6000003814697265625</ele>
        <time>2019-05-04T08:35:20.000Z</time>
      </trkpt>
      <trkpt lat="42.42132115177810192108154296875" lon="-8.63643206655979156494140625">
        <ele>19.799999237060546875</ele>
        <time>2019-05-04T08:35:35.000Z</time>
      </trkpt>
      <trkpt lat="42.4215047992765903472900390625" lon="-8.63643248565495014190673828125">
        <ele>20.200000762939453125</ele>
        <time>2019-05-04T08:35:39.000Z</time>
      </trkpt>
      <trkpt lat="42.421692050993442535400390625" lon="-8.63636291585862636566162109375">
        <ele>20.6000003814697265625</ele>
        <time>2019-05-04T08:35:43.000Z</time>
      </trkpt>
      <trkpt lat="42.42197946645319461822509765625" lon="-8.63642410375177860260009765625">
        <ele>21</ele>
        <time>2019-05-04T08:35:53.000Z</time>
      </trkpt>
      <trkpt lat="42.42250886745750904083251953125" lon="-8.636430390179157257080078125">
        <ele>23</ele>
        <time>2019-05-04T08:36:10.000Z</time>
      </trkpt>
      <trkpt lat="42.42306961677968502044677734375" lon="-8.63643206655979156494140625">
        <ele>23.200000762939453125</ele>
        <time>2019-05-04T08:36:21.000Z</time>
      </trkpt>
      <trkpt lat="42.42343523539602756500244140625" lon="-8.63641689531505107879638671875">
        <ele>23.6000003814697265625</ele>
        <time>2019-05-04T08:36:28.000Z</time>
      </trkpt>
      <trkpt lat="42.42400319315493106842041015625" lon="-8.6363549530506134033203125">
        <ele>24.3999996185302734375</ele>
        <time>2019-05-04T08:36:39.000Z</time>
      </trkpt>
      <trkpt lat="42.424542568624019622802734375" lon="-8.63632452674210071563720703125">
        <ele>23.799999237060546875</ele>
        <time>2019-05-04T08:36:49.000Z</time>
      </trkpt>
      <trkpt lat="42.4246366135776042938232421875" lon="-8.63635319285094738006591796875">
        <ele>23.799999237060546875</ele>
        <time>2019-05-04T08:36:51.000Z</time>
      </trkpt>
      <trkpt lat="42.4247529543936252593994140625" lon="-8.63648612983524799346923828125">
        <ele>24.6000003814697265625</ele>
        <time>2019-05-04T08:36:54.000Z</time>
      </trkpt>
      <trkpt lat="42.4248887412250041961669921875" lon="-8.636585287749767303466796875">
        <ele>25.3999996185302734375</ele>
        <time>2019-05-04T08:36:57.000Z</time>
      </trkpt>
      <trkpt lat="42.42511966265738010406494140625" lon="-8.636727444827556610107421875">
        <ele>26.6000003814697265625</ele>
        <time>2019-05-04T08:37:02.000Z</time>
      </trkpt>
      <trkpt lat="42.42524363100528717041015625" lon="-8.63684537820518016815185546875">
        <ele>26.6000003814697265625</ele>
        <time>2019-05-04T08:37:05.000Z</time>
      </trkpt>
      <trkpt lat="42.42562559433281421661376953125" lon="-8.63703983835875988006591796875">
        <ele>25</ele>
        <time>2019-05-04T08:37:12.000Z</time>
      </trkpt>
      <trkpt lat="42.42607587017118930816650390625" lon="-8.6374627053737640380859375">
        <ele>27.200000762939453125</ele>
        <time>2019-05-04T08:37:23.000Z</time>
      </trkpt>
      <trkpt lat="42.4261654727160930633544921875" lon="-8.63751643337309360504150390625">
        <ele>27</ele>
        <time>2019-05-04T08:37:29.000Z</time>
      </trkpt>
      <trkpt lat="42.4262016825377941131591796875" lon="-8.637531436979770660400390625">
        <ele>27</ele>
        <time>2019-05-04T08:37:32.000Z</time>
      </trkpt>
      <trkpt lat="42.42639069445431232452392578125" lon="-8.63786294125020503997802734375">
        <ele>25.200000762939453125</ele>
        <time>2019-05-04T08:37:40.000Z</time>
      </trkpt>
      <trkpt lat="42.4267240427434444427490234375" lon="-8.6384442262351512908935546875">
        <ele>25.6000003814697265625</ele>
        <time>2019-05-04T08:37:57.000Z</time>
      </trkpt>
      <trkpt lat="42.4270358495414257049560546875" lon="-8.6389642395079135894775390625">
        <ele>26.799999237060546875</ele>
        <time>2019-05-04T08:38:14.000Z</time>
      </trkpt>
      <trkpt lat="42.4270968697965145111083984375" lon="-8.6391033791005611419677734375">
        <ele>26.6000003814697265625</ele>
        <time>2019-05-04T08:38:21.000Z</time>
      </trkpt>
      <trkpt lat="42.42712142877280712127685546875" lon="-8.63911159336566925048828125">
        <ele>26.6000003814697265625</ele>
        <time>2019-05-04T08:38:46.000Z</time>
      </trkpt>
      <trkpt lat="42.4271156452596187591552734375" lon="-8.63910815678536891937255859375">
        <ele>26.6000003814697265625</ele>
        <time>2019-05-04T08:38:47.000Z</time>
      </trkpt>
      <trkpt lat="42.42713165469467639923095703125" lon="-8.6391283571720123291015625">
        <ele>26.6000003814697265625</ele>
        <time>2019-05-04T08:38:48.000Z</time>
      </trkpt>
      <trkpt lat="42.42718395777046680450439453125" lon="-8.639329187572002410888671875">
        <ele>26</ele>
        <time>2019-05-04T08:38:55.000Z</time>
      </trkpt>
      <trkpt lat="42.42717892862856388092041015625" lon="-8.63932491280138492584228515625">
        <ele>26</ele>
        <time>2019-05-04T08:38:56.000Z</time>
      </trkpt>
      <trkpt lat="42.42721765302121639251708984375" lon="-8.63937621004879474639892578125">
        <ele>26</ele>
        <time>2019-05-04T08:39:08.000Z</time>
      </trkpt>
      <trkpt lat="42.42730901576578617095947265625" lon="-8.639566898345947265625">
        <ele>26.3999996185302734375</ele>
        <time>2019-05-04T08:39:19.000Z</time>
      </trkpt>
      <trkpt lat="42.42737154476344585418701171875" lon="-8.6397239752113819122314453125">
        <ele>26.6000003814697265625</ele>
        <time>2019-05-04T08:39:26.000Z</time>
      </trkpt>
      <trkpt lat="42.42737472988665103912353515625" lon="-8.63973227329552173614501953125">
        <ele>26.6000003814697265625</ele>
        <time>2019-05-04T08:39:28.000Z</time>
      </trkpt>
      <trkpt lat="42.427387051284313201904296875" lon="-8.63976982422173023223876953125">
        <ele>26.6000003814697265625</ele>
        <time>2019-05-04T08:39:31.000Z</time>
      </trkpt>
      <trkpt lat="42.42739836685359477996826171875" lon="-8.63978139124810695648193359375">
        <ele>26.6000003814697265625</ele>
        <time>2019-05-04T08:39:32.000Z</time>
      </trkpt>
      <trkpt lat="42.42742250673472881317138671875" lon="-8.63982950337231159210205078125">
        <ele>26.799999237060546875</ele>
        <time>2019-05-04T08:39:36.000Z</time>
      </trkpt>
      <trkpt lat="42.42746039293706417083740234375" lon="-8.63988867960870265960693359375">
        <ele>27</ele>
        <time>2019-05-04T08:42:43.000Z</time>
      </trkpt>
      <trkpt lat="42.42748352698981761932373046875" lon="-8.639907203614711761474609375">
        <ele>27</ele>
        <time>2019-05-04T08:42:44.000Z</time>
      </trkpt>
      <trkpt lat="42.4278948269784450531005859375" lon="-8.640418834984302520751953125">
        <ele>29.799999237060546875</ele>
        <time>2019-05-04T08:43:09.000Z</time>
      </trkpt>
      <trkpt lat="42.428140081465244293212890625" lon="-8.64085896871984004974365234375">
        <ele>31.200000762939453125</ele>
        <time>2019-05-04T08:43:24.000Z</time>
      </trkpt>
      <trkpt lat="42.42845079861581325531005859375" lon="-8.6414913833141326904296875">
        <ele>33.200000762939453125</ele>
        <time>2019-05-04T08:43:40.000Z</time>
      </trkpt>
      <trkpt lat="42.42865565232932567596435546875" lon="-8.64179623313248157501220703125">
        <ele>34.200000762939453125</ele>
        <time>2019-05-04T08:43:51.000Z</time>
      </trkpt>
      <trkpt lat="42.4285338632762432098388671875" lon="-8.64169833250343799591064453125">
        <ele>33.799999237060546875</ele>
        <time>2019-05-04T08:43:59.000Z</time>
      </trkpt>
      <trkpt lat="42.4285449273884296417236328125" lon="-8.641784079372882843017578125">
        <ele>34</ele>
        <time>2019-05-04T08:44:00.000Z</time>
      </trkpt>
      <trkpt lat="42.42866881191730499267578125" lon="-8.64198851399123668670654296875">
        <ele>33.59999847412109375</ele>
        <time>2019-05-04T08:44:06.000Z</time>
      </trkpt>
      <trkpt lat="42.428984977304935455322265625" lon="-8.64232496358454227447509765625">
        <ele>33</ele>
        <time>2019-05-04T08:44:15.000Z</time>
      </trkpt>
      <trkpt lat="42.42926116101443767547607421875" lon="-8.64265973679721355438232421875">
        <ele>33.200000762939453125</ele>
        <time>2019-05-04T08:44:25.000Z</time>
      </trkpt>
      <trkpt lat="42.42928697727620601654052734375" lon="-8.6427012272179126739501953125">
        <ele>33.200000762939453125</ele>
        <time>2019-05-04T08:44:26.000Z</time>
      </trkpt>
      <trkpt lat="42.4293695390224456787109375" lon="-8.64284950308501720428466796875">
        <ele>33</ele>
        <time>2019-05-04T08:44:30.000Z</time>
      </trkpt>
      <trkpt lat="42.42938236333429813385009765625" lon="-8.642922677099704742431640625">
        <ele>33</ele>
        <time>2019-05-04T08:44:32.000Z</time>
      </trkpt>
      <trkpt lat="42.4293650127947330474853515625" lon="-8.64297070540487766265869140625">
        <ele>33</ele>
        <time>2019-05-04T08:44:37.000Z</time>
      </trkpt>
      <trkpt lat="42.4293894879519939422607421875" lon="-8.642979674041271209716796875">
        <ele>33</ele>
        <time>2019-05-04T08:45:42.000Z</time>
      </trkpt>
      <trkpt lat="42.42959559895098209381103515625" lon="-8.6431629024446010589599609375">
        <ele>33</ele>
        <time>2019-05-04T08:45:52.000Z</time>
      </trkpt>
      <trkpt lat="42.42967120371758937835693359375" lon="-8.6432604677975177764892578125">
        <ele>33.200000762939453125</ele>
        <time>2019-05-04T08:45:56.000Z</time>
      </trkpt>
      <trkpt lat="42.42981101386249065399169921875" lon="-8.64338703453540802001953125">
        <ele>33.59999847412109375</ele>
        <time>2019-05-04T08:46:02.000Z</time>
      </trkpt>
      <trkpt lat="42.43032247759401798248291015625" lon="-8.64368534646928310394287109375">
        <ele>30.799999237060546875</ele>
        <time>2019-05-04T08:46:20.000Z</time>
      </trkpt>
      <trkpt lat="42.4305488727986812591552734375" lon="-8.64387025125324726104736328125">
        <ele>28.799999237060546875</ele>
        <time>2019-05-04T08:46:30.000Z</time>
      </trkpt>
      <trkpt lat="42.4305515550076961517333984375" lon="-8.6438512243330478668212890625">
        <ele>28.799999237060546875</ele>
        <time>2019-05-04T08:46:33.000Z</time>
      </trkpt>
      <trkpt lat="42.430563457310199737548828125" lon="-8.64383052103221416473388671875">
        <ele>28.6000003814697265625</ele>
        <time>2019-05-04T08:46:37.000Z</time>
      </trkpt>
      <trkpt lat="42.430646605789661407470703125" lon="-8.643811158835887908935546875">
        <ele>28.6000003814697265625</ele>
        <time>2019-05-04T08:49:17.000Z</time>
      </trkpt>
      <trkpt lat="42.430656664073467254638671875" lon="-8.64378576166927814483642578125">
        <ele>28.6000003814697265625</ele>
        <time>2019-05-04T08:49:23.000Z</time>
      </trkpt>
      <trkpt lat="42.43068491108715534210205078125" lon="-8.643802441656589508056640625">
        <ele>28.3999996185302734375</ele>
        <time>2019-05-04T08:49:27.000Z</time>
      </trkpt>
      <trkpt lat="42.43072346784174442291259765625" lon="-8.643823899328708648681640625">
        <ele>28.3999996185302734375</ele>
        <time>2019-05-04T08:49:31.000Z</time>
      </trkpt>
      <trkpt lat="42.43071810342371463775634765625" lon="-8.6438324488699436187744140625">
        <ele>28.3999996185302734375</ele>
        <time>2019-05-04T08:49:39.000Z</time>
      </trkpt>
      <trkpt lat="42.430770657956600189208984375" lon="-8.6438938044011592864990234375">
        <ele>28.6000003814697265625</ele>
        <time>2019-05-04T08:49:43.000Z</time>
      </trkpt>
      <trkpt lat="42.43082036264240741729736328125" lon="-8.64393546245992183685302734375">
        <ele>28.3999996185302734375</ele>
        <time>2019-05-04T08:49:47.000Z</time>
      </trkpt>
      <trkpt lat="42.43084802292287349700927734375" lon="-8.64401810802519321441650390625">
        <ele>28.3999996185302734375</ele>
        <time>2019-05-04T08:49:51.000Z</time>
      </trkpt>
      <trkpt lat="42.43088071234524250030517578125" lon="-8.64403604529798030853271484375">
        <ele>28.3999996185302734375</ele>
        <time>2019-05-04T08:49:56.000Z</time>
      </trkpt>
      <trkpt lat="42.4310142360627651214599609375" lon="-8.64410460926592350006103515625">
        <ele>28</ele>
        <time>2019-05-04T08:50:17.000Z</time>
      </trkpt>
      <trkpt lat="42.4310866557061672210693359375" lon="-8.64416194148361682891845703125">
        <ele>27.3999996185302734375</ele>
        <time>2019-05-04T08:50:24.000Z</time>
      </trkpt>
      <trkpt lat="42.43110953830182552337646484375" lon="-8.64418356679379940032958984375">
        <ele>27</ele>
        <time>2019-05-04T08:50:46.000Z</time>
      </trkpt>
      <trkpt lat="42.43111792020499706268310546875" lon="-8.644188679754734039306640625">
        <ele>26.799999237060546875</ele>
        <time>2019-05-04T08:50:48.000Z</time>
      </trkpt>
      <trkpt lat="42.431151866912841796875" lon="-8.64421810023486614227294921875">
        <ele>26.200000762939453125</ele>
        <time>2019-05-04T08:50:54.000Z</time>
      </trkpt>
      <trkpt lat="42.43122353218495845794677734375" lon="-8.6442864127457141876220703125">
        <ele>25</ele>
        <time>2019-05-04T08:50:58.000Z</time>
      </trkpt>
      <trkpt lat="42.43160641752183437347412109375" lon="-8.64478354342281818389892578125">
        <ele>22.3999996185302734375</ele>
        <time>2019-05-04T08:51:24.000Z</time>
      </trkpt>
      <trkpt lat="42.43164606392383575439453125" lon="-8.6448620818555355072021484375">
        <ele>22.3999996185302734375</ele>
        <time>2019-05-04T08:51:26.000Z</time>
      </trkpt>
      <trkpt lat="42.43168151937425136566162109375" lon="-8.64484615623950958251953125">
        <ele>22.3999996185302734375</ele>
        <time>2019-05-04T08:51:32.000Z</time>
      </trkpt>
      <trkpt lat="42.43173818103969097137451171875" lon="-8.64485864527523517608642578125">
        <ele>22.3999996185302734375</ele>
        <time>2019-05-04T08:51:34.000Z</time>
      </trkpt>
      <trkpt lat="42.43223019875586032867431640625" lon="-8.64501253701746463775634765625">
        <ele>19.799999237060546875</ele>
        <time>2019-05-04T08:51:50.000Z</time>
      </trkpt>
      <trkpt lat="42.432183511555194854736328125" lon="-8.6450696177780628204345703125">
        <ele>20</ele>
        <time>2019-05-04T08:52:26.000Z</time>
      </trkpt>
      <trkpt lat="42.43192928843200206756591796875" lon="-8.6449935100972652435302734375">
        <ele>22.3999996185302734375</ele>
        <time>2019-05-04T08:52:36.000Z</time>
      </trkpt>
      <trkpt lat="42.431932725012302398681640625" lon="-8.64496492780745029449462890625">
        <ele>22.3999996185302734375</ele>
        <time>2019-05-04T08:52:38.000Z</time>
      </trkpt>
      <trkpt lat="42.4320683442056179046630859375" lon="-8.64496308378875255584716796875">
        <ele>21.3999996185302734375</ele>
        <time>2019-05-04T08:52:45.000Z</time>
      </trkpt>
      <trkpt lat="42.43223891593515872955322265625" lon="-8.64503667689859867095947265625">
        <ele>19.6000003814697265625</ele>
        <time>2019-05-04T08:52:54.000Z</time>
      </trkpt>
      <trkpt lat="42.432255260646343231201171875" lon="-8.6450501717627048492431640625">
        <ele>19.3999996185302734375</ele>
        <time>2019-05-04T08:52:57.000Z</time>
      </trkpt>
      <trkpt lat="42.43235358037054538726806640625" lon="-8.64504522643983364105224609375">
        <ele>18.6000003814697265625</ele>
        <time>2019-05-04T08:53:01.000Z</time>
      </trkpt>
      <trkpt lat="42.432375960052013397216796875" lon="-8.64504857920110225677490234375">
        <ele>18.3999996185302734375</ele>
        <time>2019-05-04T08:53:02.000Z</time>
      </trkpt>
      <trkpt lat="42.43247260339558124542236328125" lon="-8.64505670964717864990234375">
        <ele>17.6000003814697265625</ele>
        <time>2019-05-04T08:53:06.000Z</time>
      </trkpt>
      <trkpt lat="42.43298758752644062042236328125" lon="-8.64515637047588825225830078125">
        <ele>15.19999980926513671875</ele>
        <time>2019-05-04T08:53:34.000Z</time>
      </trkpt>
      <trkpt lat="42.43322764523327350616455078125" lon="-8.6451353318989276885986328125">
        <ele>14.3999996185302734375</ele>
        <time>2019-05-04T08:53:47.000Z</time>
      </trkpt>
      <trkpt lat="42.433311045169830322265625" lon="-8.6450836993753910064697265625">
        <ele>14</ele>
        <time>2019-05-04T08:54:00.000Z</time>
      </trkpt>
      <trkpt lat="42.4338711239397525787353515625" lon="-8.64488328807055950164794921875">
        <ele>10.19999980926513671875</ele>
        <time>2019-05-04T08:54:17.000Z</time>
      </trkpt>
      <trkpt lat="42.434171698987483978271484375" lon="-8.6447541229426860809326171875">
        <ele>8.3999996185302734375</ele>
        <time>2019-05-04T08:54:26.000Z</time>
      </trkpt>
      <trkpt lat="42.43445022962987422943115234375" lon="-8.64507355727255344390869140625">
        <ele>8</ele>
        <time>2019-05-04T08:54:36.000Z</time>
      </trkpt>
      <trkpt lat="42.43462742306292057037353515625" lon="-8.64498890005052089691162109375">
        <ele>7</ele>
        <time>2019-05-04T08:54:41.000Z</time>
      </trkpt>
      <trkpt lat="42.43472783826291561126708984375" lon="-8.64487172104418277740478515625">
        <ele>6.19999980926513671875</ele>
        <time>2019-05-04T08:54:47.000Z</time>
      </trkpt>
      <trkpt lat="42.43472448550164699554443359375" lon="-8.64485797472298145294189453125">
        <ele>6.19999980926513671875</ele>
        <time>2019-05-04T08:54:49.000Z</time>
      </trkpt>
      <trkpt lat="42.4347622878849506378173828125" lon="-8.6447715573012828826904296875">
        <ele>5.80000019073486328125</ele>
        <time>2019-05-04T08:54:54.000Z</time>
      </trkpt>
      <trkpt lat="42.43477745912969112396240234375" lon="-8.64475588314235210418701171875">
        <ele>5.80000019073486328125</ele>
        <time>2019-05-04T08:54:57.000Z</time>
      </trkpt>
      <trkpt lat="42.4350261501967906951904296875" lon="-8.6448198370635509490966796875">
        <ele>4.400000095367431640625</ele>
        <time>2019-05-04T08:56:18.000Z</time>
      </trkpt>
      <trkpt lat="42.43513335473835468292236328125" lon="-8.64520397968590259552001953125">
        <ele>4.599999904632568359375</ele>
        <time>2019-05-04T08:56:46.000Z</time>
      </trkpt>
      <trkpt lat="42.4351451732218265533447265625" lon="-8.64523029886186122894287109375">
        <ele>4.599999904632568359375</ele>
        <time>2019-05-04T08:56:49.000Z</time>
      </trkpt>
      <trkpt lat="42.4352105520665645599365234375" lon="-8.64539408124983310699462890625">
        <ele>5</ele>
        <time>2019-05-04T08:56:54.000Z</time>
      </trkpt>
      <trkpt lat="42.43546611629426479339599609375" lon="-8.64607301540672779083251953125">
        <ele>6</ele>
        <time>2019-05-04T08:57:11.000Z</time>
      </trkpt>
      <trkpt lat="42.43569829501211643218994140625" lon="-8.64675530232489109039306640625">
        <ele>6</ele>
        <time>2019-05-04T08:57:33.000Z</time>
      </trkpt>
      <trkpt lat="42.4357315711677074432373046875" lon="-8.6469845473766326904296875">
        <ele>5.400000095367431640625</ele>
        <time>2019-05-04T08:57:41.000Z</time>
      </trkpt>
      <trkpt lat="42.43575596250593662261962890625" lon="-8.6470923386514186859130859375">
        <ele>4.80000019073486328125</ele>
        <time>2019-05-04T08:57:45.000Z</time>
      </trkpt>
      <trkpt lat="42.4357557110488414764404296875" lon="-8.6470916680991649627685546875">
        <ele>4.80000019073486328125</ele>
        <time>2019-05-04T08:57:46.000Z</time>
      </trkpt>
      <trkpt lat="42.4357677809894084930419921875" lon="-8.6471159756183624267578125">
        <ele>4.599999904632568359375</ele>
        <time>2019-05-04T08:57:52.000Z</time>
      </trkpt>
      <trkpt lat="42.43592728860676288604736328125" lon="-8.64715126343071460723876953125">
        <ele>3.599999904632568359375</ele>
        <time>2019-05-04T08:57:59.000Z</time>
      </trkpt>
      <trkpt lat="42.43598990142345428466796875" lon="-8.6471305601298809051513671875">
        <ele>3.599999904632568359375</ele>
        <time>2019-05-04T08:58:02.000Z</time>
      </trkpt>
      <trkpt lat="42.4359712935984134674072265625" lon="-8.64691120572388172149658203125">
        <ele>4.400000095367431640625</ele>
        <time>2019-05-04T08:58:10.000Z</time>
      </trkpt>
      <trkpt lat="42.435754202306270599365234375" lon="-8.6462404020130634307861328125">
        <ele>4.80000019073486328125</ele>
        <time>2019-05-04T08:58:30.000Z</time>
      </trkpt>
      <trkpt lat="42.4355910904705524444580078125" lon="-8.6457609571516513824462890625">
        <ele>4.400000095367431640625</ele>
        <time>2019-05-04T08:58:48.000Z</time>
      </trkpt>
      <trkpt lat="42.43557809852063655853271484375" lon="-8.64572231657803058624267578125">
        <ele>4.400000095367431640625</ele>
        <time>2019-05-04T08:58:59.000Z</time>
      </trkpt>
      <trkpt lat="42.43534491397440433502197265625" lon="-8.64505846984684467315673828125">
        <ele>3.7999999523162841796875</ele>
        <time>2019-05-04T08:59:23.000Z</time>
      </trkpt>
      <trkpt lat="42.43521516211330890655517578125" lon="-8.64476661197841167449951171875">
        <ele>4</ele>
        <time>2019-05-04T08:59:37.000Z</time>
      </trkpt>
      <trkpt lat="42.43520275689661502838134765625" lon="-8.64475185982882976531982421875">
        <ele>4</ele>
        <time>2019-05-04T09:00:01.000Z</time>
      </trkpt>
      <trkpt lat="42.43518599309027194976806640625" lon="-8.6446793563663959503173828125">
        <ele>4</ele>
        <time>2019-05-04T09:00:04.000Z</time>
      </trkpt>
      <trkpt lat="42.4351445026695728302001953125" lon="-8.64456477575004100799560546875">
        <ele>3.7999999523162841796875</ele>
        <time>2019-05-04T09:00:10.000Z</time>
      </trkpt>
      <trkpt lat="42.435146681964397430419921875" lon="-8.6444872431457042694091796875">
        <ele>3.7999999523162841796875</ele>
        <time>2019-05-04T09:00:14.000Z</time>
      </trkpt>
      <trkpt lat="42.43517710827291011810302734375" lon="-8.644429408013820648193359375">
        <ele>3.599999904632568359375</ele>
        <time>2019-05-04T09:00:20.000Z</time>
      </trkpt>
      <trkpt lat="42.435253970324993133544921875" lon="-8.6443561501801013946533203125">
        <ele>3.400000095367431640625</ele>
        <time>2019-05-04T09:00:35.000Z</time>
      </trkpt>
      <trkpt lat="42.43569276295602321624755859375" lon="-8.64391048438847064971923828125">
        <ele>2.400000095367431640625</ele>
        <time>2019-05-04T09:01:09.000Z</time>
      </trkpt>
      <trkpt lat="42.43614144623279571533203125" lon="-8.64351351745426654815673828125">
        <ele>3.7999999523162841796875</ele>
        <time>2019-05-04T09:01:40.000Z</time>
      </trkpt>
      <trkpt lat="42.43614873848855495452880859375" lon="-8.64351519383490085601806640625">
        <ele>4</ele>
        <time>2019-05-04T09:01:42.000Z</time>
      </trkpt>
      <trkpt lat="42.43618427775800228118896484375" lon="-8.64350765012204647064208984375">
        <ele>4.19999980926513671875</ele>
        <time>2019-05-04T09:01:47.000Z</time>
      </trkpt>
      <trkpt lat="42.436241693794727325439453125" lon="-8.64346104674041271209716796875">
        <ele>4.400000095367431640625</ele>
        <time>2019-05-04T09:01:52.000Z</time>
      </trkpt>
      <trkpt lat="42.43627488613128662109375" lon="-8.64343397319316864013671875">
        <ele>4.599999904632568359375</ele>
        <time>2019-05-04T09:01:56.000Z</time>
      </trkpt>
      <trkpt lat="42.43642031215131282806396484375" lon="-8.6432589590549468994140625">
        <ele>5.19999980926513671875</ele>
        <time>2019-05-04T09:02:03.000Z</time>
      </trkpt>
      <trkpt lat="42.43643514811992645263671875" lon="-8.64314697682857513427734375">
        <ele>5.19999980926513671875</ele>
        <time>2019-05-04T09:02:07.000Z</time>
      </trkpt>
      <trkpt lat="42.43644193746149539947509765625" lon="-8.6431173048913478851318359375">
        <ele>5.19999980926513671875</ele>
        <time>2019-05-04T09:02:08.000Z</time>
      </trkpt>
      <trkpt lat="42.43644545786082744598388671875" lon="-8.64310481585562229156494140625">
        <ele>5.19999980926513671875</ele>
        <time>2019-05-04T09:02:10.000Z</time>
      </trkpt>
      <trkpt lat="42.43646456860005855560302734375" lon="-8.64307849667966365814208984375">
        <ele>5.400000095367431640625</ele>
        <time>2019-05-04T09:02:12.000Z</time>
      </trkpt>
      <trkpt lat="42.43650899268686771392822265625" lon="-8.64306542091071605682373046875">
        <ele>5.599999904632568359375</ele>
        <time>2019-05-04T09:02:15.000Z</time>
      </trkpt>
      <trkpt lat="42.43655408732593059539794921875" lon="-8.64319450221955776214599609375">
        <ele>6</ele>
        <time>2019-05-04T09:02:22.000Z</time>
      </trkpt>
      <trkpt lat="42.436557523906230926513671875" lon="-8.64319257438182830810546875">
        <ele>6</ele>
        <time>2019-05-04T09:02:23.000Z</time>
      </trkpt>
      <trkpt lat="42.43657487444579601287841796875" lon="-8.6432544328272342681884765625">
        <ele>6.19999980926513671875</ele>
        <time>2019-05-04T09:03:52.000Z</time>
      </trkpt>
      <trkpt lat="42.4366106651723384857177734375" lon="-8.64327815361320972442626953125">
        <ele>6.400000095367431640625</ele>
        <time>2019-05-04T09:03:54.000Z</time>
      </trkpt>
      <trkpt lat="42.43699966929852962493896484375" lon="-8.6432675085961818695068359375">
        <ele>8.19999980926513671875</ele>
        <time>2019-05-04T09:04:09.000Z</time>
      </trkpt>
      <trkpt lat="42.4370378069579601287841796875" lon="-8.6432882957160472869873046875">
        <ele>8.3999996185302734375</ele>
        <time>2019-05-04T09:04:13.000Z</time>
      </trkpt>
      <trkpt lat="42.4375393800437450408935546875" lon="-8.64326591603457927703857421875">
        <ele>10.19999980926513671875</ele>
        <time>2019-05-04T09:04:34.000Z</time>
      </trkpt>
      <trkpt lat="42.4378176592290401458740234375" lon="-8.6432799138128757476806640625">
        <ele>11.19999980926513671875</ele>
        <time>2019-05-04T09:04:45.000Z</time>
      </trkpt>
      <trkpt lat="42.43791975080966949462890625" lon="-8.64325636066496372222900390625">
        <ele>11.3999996185302734375</ele>
        <time>2019-05-04T09:04:50.000Z</time>
      </trkpt>
      <trkpt lat="42.43844822980463504791259765625" lon="-8.64298562519252300262451171875">
        <ele>13</ele>
        <time>2019-05-04T09:05:10.000Z</time>
      </trkpt>
      <trkpt lat="42.43878685869276523590087890625" lon="-8.64280591718852519989013671875">
        <ele>14.19999980926513671875</ele>
        <time>2019-05-04T09:05:23.000Z</time>
      </trkpt>
      <trkpt lat="42.43905927054584026336669921875" lon="-8.64265018142759799957275390625">
        <ele>14.80000019073486328125</ele>
        <time>2019-05-04T09:05:32.000Z</time>
      </trkpt>
      <trkpt lat="42.43959889747202396392822265625" lon="-8.6425535380840301513671875">
        <ele>14.3999996185302734375</ele>
        <time>2019-05-04T09:05:54.000Z</time>
      </trkpt>
      <trkpt lat="42.44014958851039409637451171875" lon="-8.6424516141414642333984375">
        <ele>14.6000003814697265625</ele>
        <time>2019-05-04T09:06:14.000Z</time>
      </trkpt>
      <trkpt lat="42.4402634985744953155517578125" lon="-8.64240341819822788238525390625">
        <ele>15</ele>
        <time>2019-05-04T09:06:18.000Z</time>
      </trkpt>
      <trkpt lat="42.44037489406764507293701171875" lon="-8.6423872411251068115234375">
        <ele>15</ele>
        <time>2019-05-04T09:06:22.000Z</time>
      </trkpt>
      <trkpt lat="42.4408737011253833770751953125" lon="-8.6426908336579799652099609375">
        <ele>14</ele>
        <time>2019-05-04T09:06:43.000Z</time>
      </trkpt>
      <trkpt lat="42.44142984040081501007080078125" lon="-8.642847575247287750244140625">
        <ele>13.6000003814697265625</ele>
        <time>2019-05-04T09:06:58.000Z</time>
      </trkpt>
      <trkpt lat="42.44176243431866168975830078125" lon="-8.6428819410502910614013671875">
        <ele>13.19999980926513671875</ele>
        <time>2019-05-04T09:07:06.000Z</time>
      </trkpt>
      <trkpt lat="42.4422386102378368377685546875" lon="-8.64308855496346950531005859375">
        <ele>12.6000003814697265625</ele>
        <time>2019-05-04T09:07:16.000Z</time>
      </trkpt>
      <trkpt lat="42.44233223609626293182373046875" lon="-8.64312191493809223175048828125">
        <ele>12.3999996185302734375</ele>
        <time>2019-05-04T09:07:18.000Z</time>
      </trkpt>
      <trkpt lat="42.44288141839206218719482421875" lon="-8.643333055078983306884765625">
        <ele>10.19999980926513671875</ele>
        <time>2019-05-04T09:07:27.000Z</time>
      </trkpt>
      <trkpt lat="42.4434130825102329254150390625" lon="-8.64352810196578502655029296875">
        <ele>7.599999904632568359375</ele>
        <time>2019-05-04T09:07:34.000Z</time>
      </trkpt>
      <trkpt lat="42.4439542181789875030517578125" lon="-8.643664978444576263427734375">
        <ele>5</ele>
        <time>2019-05-04T09:07:45.000Z</time>
      </trkpt>
      <trkpt lat="42.44447783567011356353759765625" lon="-8.64341343753039836883544921875">
        <ele>6</ele>
        <time>2019-05-04T09:08:00.000Z</time>
      </trkpt>
      <trkpt lat="42.44500522501766681671142578125" lon="-8.6431404389441013336181640625">
        <ele>7.80000019073486328125</ele>
        <time>2019-05-04T09:08:16.000Z</time>
      </trkpt>
      <trkpt lat="42.44551618583500385284423828125" lon="-8.642787896096706390380859375">
        <ele>11.3999996185302734375</ele>
        <time>2019-05-04T09:08:31.000Z</time>
      </trkpt>
      <trkpt lat="42.44602161459624767303466796875" lon="-8.64272662438452243804931640625">
        <ele>13</ele>
        <time>2019-05-04T09:08:42.000Z</time>
      </trkpt>
      <trkpt lat="42.446494437754154205322265625" lon="-8.64267365075647830963134765625">
        <ele>13.80000019073486328125</ele>
        <time>2019-05-04T09:08:54.000Z</time>
      </trkpt>
      <trkpt lat="42.44667674414813518524169921875" lon="-8.64275461994111537933349609375">
        <ele>13.80000019073486328125</ele>
        <time>2019-05-04T09:08:58.000Z</time>
      </trkpt>
      <trkpt lat="42.44724369607865810394287109375" lon="-8.642808012664318084716796875">
        <ele>12.80000019073486328125</ele>
        <time>2019-05-04T09:09:11.000Z</time>
      </trkpt>
      <trkpt lat="42.44781064800918102264404296875" lon="-8.64283584058284759521484375">
        <ele>12.80000019073486328125</ele>
        <time>2019-05-04T09:09:24.000Z</time>
      </trkpt>
      <trkpt lat="42.4480841495096683502197265625" lon="-8.64273659884929656982421875">
        <ele>12.3999996185302734375</ele>
        <time>2019-05-04T09:09:29.000Z</time>
      </trkpt>
      <trkpt lat="42.448284812271595001220703125" lon="-8.642551191151142120361328125">
        <ele>11.3999996185302734375</ele>
        <time>2019-05-04T09:09:33.000Z</time>
      </trkpt>
      <trkpt lat="42.44846913032233715057373046875" lon="-8.6423763446509838104248046875">
        <ele>10.19999980926513671875</ele>
        <time>2019-05-04T09:09:38.000Z</time>
      </trkpt>
      <trkpt lat="42.44869820773601531982421875" lon="-8.64225220866501331329345703125">
        <ele>9</ele>
        <time>2019-05-04T09:09:42.000Z</time>
      </trkpt>
      <trkpt lat="42.449232302606105804443359375" lon="-8.64205908961594104766845703125">
        <ele>5.400000095367431640625</ele>
        <time>2019-05-04T09:09:50.000Z</time>
      </trkpt>
      <trkpt lat="42.44930195622146129608154296875" lon="-8.64205188117921352386474609375">
        <ele>5.19999980926513671875</ele>
        <time>2019-05-04T09:09:51.000Z</time>
      </trkpt>
      <trkpt lat="42.4494815804064273834228515625" lon="-8.64203662611544132232666015625">
        <ele>4.599999904632568359375</ele>
        <time>2019-05-04T09:09:54.000Z</time>
      </trkpt>
      <trkpt lat="42.4496435187757015228271484375" lon="-8.64199371077120304107666015625">
        <ele>4</ele>
        <time>2019-05-04T09:09:57.000Z</time>
      </trkpt>
      <trkpt lat="42.4497873522341251373291015625" lon="-8.6419663019478321075439453125">
        <ele>3.599999904632568359375</ele>
        <time>2019-05-04T09:10:00.000Z</time>
      </trkpt>
      <trkpt lat="42.4501226283609867095947265625" lon="-8.6418342031538486480712890625">
        <ele>3.2000000476837158203125</ele>
        <time>2019-05-04T09:10:08.000Z</time>
      </trkpt>
      <trkpt lat="42.45067139156162738800048828125" lon="-8.6417051218450069427490234375">
        <ele>4</ele>
        <time>2019-05-04T09:10:20.000Z</time>
      </trkpt>
      <trkpt lat="42.45100348256528377532958984375" lon="-8.6415619589388370513916015625">
        <ele>5.19999980926513671875</ele>
        <time>2019-05-04T09:10:27.000Z</time>
      </trkpt>
      <trkpt lat="42.45128360576927661895751953125" lon="-8.64149297587573528289794921875">
        <ele>5.599999904632568359375</ele>
        <time>2019-05-04T09:10:32.000Z</time>
      </trkpt>
      <trkpt lat="42.4514902196824550628662109375" lon="-8.64148962311446666717529296875">
        <ele>5.19999980926513671875</ele>
        <time>2019-05-04T09:10:36.000Z</time>
      </trkpt>
      <trkpt lat="42.4516318738460540771484375" lon="-8.64146850071847438812255859375">
        <ele>5.19999980926513671875</ele>
        <time>2019-05-04T09:10:39.000Z</time>
      </trkpt>
      <trkpt lat="42.4521849118173122406005859375" lon="-8.64163345657289028167724609375">
        <ele>6.400000095367431640625</ele>
        <time>2019-05-04T09:10:55.000Z</time>
      </trkpt>
      <trkpt lat="42.4527169950306415557861328125" lon="-8.6418201215565204620361328125">
        <ele>8.6000003814697265625</ele>
        <time>2019-05-04T09:11:08.000Z</time>
      </trkpt>
      <trkpt lat="42.4528407119214534759521484375" lon="-8.64188340492546558380126953125">
        <ele>9</ele>
        <time>2019-05-04T09:11:11.000Z</time>
      </trkpt>
      <trkpt lat="42.45334471575915813446044921875" lon="-8.6421954631805419921875">
        <ele>10.3999996185302734375</ele>
        <time>2019-05-04T09:11:24.000Z</time>
      </trkpt>
      <trkpt lat="42.45372525416314601898193359375" lon="-8.6424811184406280517578125">
        <ele>10.3999996185302734375</ele>
        <time>2019-05-04T09:11:34.000Z</time>
      </trkpt>
      <trkpt lat="42.45391309261322021484375" lon="-8.6426210962235927581787109375">
        <ele>9.3999996185302734375</ele>
        <time>2019-05-04T09:11:38.000Z</time>
      </trkpt>
      <trkpt lat="42.4541885219514369964599609375" lon="-8.64280910231173038482666015625">
        <ele>8.3999996185302734375</ele>
        <time>2019-05-04T09:11:43.000Z</time>
      </trkpt>
      <trkpt lat="42.4543276615440845489501953125" lon="-8.64291404373943805694580078125">
        <ele>8.80000019073486328125</ele>
        <time>2019-05-04T09:11:46.000Z</time>
      </trkpt>
      <trkpt lat="42.45454140007495880126953125" lon="-8.6430606432259082794189453125">
        <ele>9.6000003814697265625</ele>
        <time>2019-05-04T09:11:51.000Z</time>
      </trkpt>
      <trkpt lat="42.4550253711640834808349609375" lon="-8.643394410610198974609375">
        <ele>9.19999980926513671875</ele>
        <time>2019-05-04T09:12:02.000Z</time>
      </trkpt>
      <trkpt lat="42.455535493791103363037109375" lon="-8.6436881124973297119140625">
        <ele>9.6000003814697265625</ele>
        <time>2019-05-04T09:12:12.000Z</time>
      </trkpt>
      <trkpt lat="42.45593254454433917999267578125" lon="-8.64390470087528228759765625">
        <ele>9</ele>
        <time>2019-05-04T09:12:20.000Z</time>
      </trkpt>
      <trkpt lat="42.4561354704201221466064453125" lon="-8.643986843526363372802734375">
        <ele>9.3999996185302734375</ele>
        <time>2019-05-04T09:12:24.000Z</time>
      </trkpt>
      <trkpt lat="42.456301264464855194091796875" lon="-8.6441036872565746307373046875">
        <ele>8.6000003814697265625</ele>
        <time>2019-05-04T09:12:28.000Z</time>
      </trkpt>
      <trkpt lat="42.45645607821643352508544921875" lon="-8.6442057788372039794921875">
        <ele>8</ele>
        <time>2019-05-04T09:12:32.000Z</time>
      </trkpt>
      <trkpt lat="42.456689178943634033203125" lon="-8.6443755961954593658447265625">
        <ele>7</ele>
        <time>2019-05-04T09:12:43.000Z</time>
      </trkpt>
      <trkpt lat="42.4567178450524806976318359375" lon="-8.64440493285655975341796875">
        <ele>7.19999980926513671875</ele>
        <time>2019-05-04T09:13:32.000Z</time>
      </trkpt>
      <trkpt lat="42.45673050172626972198486328125" lon="-8.6444061063230037689208984375">
        <ele>7.19999980926513671875</ele>
        <time>2019-05-04T09:13:33.000Z</time>
      </trkpt>
      <trkpt lat="42.4567346088588237762451171875" lon="-8.6444114707410335540771484375">
        <ele>7.19999980926513671875</ele>
        <time>2019-05-04T09:13:35.000Z</time>
      </trkpt>
      <trkpt lat="42.4567574076354503631591796875" lon="-8.644446842372417449951171875">
        <ele>7.19999980926513671875</ele>
        <time>2019-05-04T09:14:21.000Z</time>
      </trkpt>
      <trkpt lat="42.456721700727939605712890625" lon="-8.6446196772158145904541015625">
        <ele>6.599999904632568359375</ele>
        <time>2019-05-04T09:14:25.000Z</time>
      </trkpt>
      <trkpt lat="42.45671239681541919708251953125" lon="-8.64473895169794559478759765625">
        <ele>6.400000095367431640625</ele>
        <time>2019-05-04T09:14:27.000Z</time>
      </trkpt>
      <trkpt lat="42.4568217806518077850341796875" lon="-8.64522426389157772064208984375">
        <ele>5.400000095367431640625</ele>
        <time>2019-05-04T09:14:35.000Z</time>
      </trkpt>
      <trkpt lat="42.456836700439453125" lon="-8.6452771537005901336669921875">
        <ele>5.400000095367431640625</ele>
        <time>2019-05-04T09:14:36.000Z</time>
      </trkpt>
      <trkpt lat="42.457166947424411773681640625" lon="-8.64554353058338165283203125">
        <ele>6.19999980926513671875</ele>
        <time>2019-05-04T09:14:48.000Z</time>
      </trkpt>
      <trkpt lat="42.4575489945709705352783203125" lon="-8.64612481556832790374755859375">
        <ele>6.400000095367431640625</ele>
        <time>2019-05-04T09:15:03.000Z</time>
      </trkpt>
      <trkpt lat="42.4579610489308834075927734375" lon="-8.64664994180202484130859375">
        <ele>9.3999996185302734375</ele>
        <time>2019-05-04T09:15:19.000Z</time>
      </trkpt>
      <trkpt lat="42.45843588374555110931396484375" lon="-8.6469629220664501190185546875">
        <ele>11.6000003814697265625</ele>
        <time>2019-05-04T09:15:38.000Z</time>
      </trkpt>
      <trkpt lat="42.4587516300380229949951171875" lon="-8.64755518734455108642578125">
        <ele>15.6000003814697265625</ele>
        <time>2019-05-04T09:15:59.000Z</time>
      </trkpt>
      <trkpt lat="42.458842657506465911865234375" lon="-8.648120462894439697265625">
        <ele>21</ele>
        <time>2019-05-04T09:16:21.000Z</time>
      </trkpt>
      <trkpt lat="42.4588201940059661865234375" lon="-8.64816379733383655548095703125">
        <ele>21.3999996185302734375</ele>
        <time>2019-05-04T09:16:23.000Z</time>
      </trkpt>
      <trkpt lat="42.45881424285471439361572265625" lon="-8.6483556590974330902099609375">
        <ele>22.200000762939453125</ele>
        <time>2019-05-04T09:16:31.000Z</time>
      </trkpt>
      <trkpt lat="42.45879529975354671478271484375" lon="-8.64875287748873233795166015625">
        <ele>25.3999996185302734375</ele>
        <time>2019-05-04T09:16:47.000Z</time>
      </trkpt>
      <trkpt lat="42.45874710381031036376953125" lon="-8.64895018748939037322998046875">
        <ele>27.6000003814697265625</ele>
        <time>2019-05-04T09:16:55.000Z</time>
      </trkpt>
      <trkpt lat="42.45865599252283573150634765625" lon="-8.6490176618099212646484375">
        <ele>28.799999237060546875</ele>
        <time>2019-05-04T09:17:00.000Z</time>
      </trkpt>
      <trkpt lat="42.45824645273387432098388671875" lon="-8.6493323184549808502197265625">
        <ele>33</ele>
        <time>2019-05-04T09:17:27.000Z</time>
      </trkpt>
      <trkpt lat="42.4581836722791194915771484375" lon="-8.64940130151808261871337890625">
        <ele>33</ele>
        <time>2019-05-04T09:17:31.000Z</time>
      </trkpt>
      <trkpt lat="42.457946129143238067626953125" lon="-8.6496018804609775543212890625">
        <ele>32.40000152587890625</ele>
        <time>2019-05-04T09:17:44.000Z</time>
      </trkpt>
      <trkpt lat="42.4579023756086826324462890625" lon="-8.64965946413576602935791015625">
        <ele>32.40000152587890625</ele>
        <time>2019-05-04T09:17:47.000Z</time>
      </trkpt>
      <trkpt lat="42.45770079083740711212158203125" lon="-8.65036136470735073089599609375">
        <ele>35.799999237060546875</ele>
        <time>2019-05-04T09:18:03.000Z</time>
      </trkpt>
      <trkpt lat="42.4572298116981983184814453125" lon="-8.65075615234673023223876953125">
        <ele>35.40000152587890625</ele>
        <time>2019-05-04T09:18:23.000Z</time>
      </trkpt>
      <trkpt lat="42.45721329934895038604736328125" lon="-8.65077995695173740386962890625">
        <ele>35.59999847412109375</ele>
        <time>2019-05-04T09:18:24.000Z</time>
      </trkpt>
      <trkpt lat="42.45694222860038280487060546875" lon="-8.6514033190906047821044921875">
        <ele>41</ele>
        <time>2019-05-04T09:18:49.000Z</time>
      </trkpt>
      <trkpt lat="42.4568407237529754638671875" lon="-8.65173541009426116943359375">
        <ele>44.59999847412109375</ele>
        <time>2019-05-04T09:19:03.000Z</time>
      </trkpt>
      <trkpt lat="42.45680744759738445281982421875" lon="-8.65194688551127910614013671875">
        <ele>46.40000152587890625</ele>
        <time>2019-05-04T09:19:11.000Z</time>
      </trkpt>
      <trkpt lat="42.4568221159279346466064453125" lon="-8.6521773040294647216796875">
        <ele>48.799999237060546875</ele>
        <time>2019-05-04T09:19:21.000Z</time>
      </trkpt>
      <trkpt lat="42.45682395994663238525390625" lon="-8.6522388271987438201904296875">
        <ele>49.59999847412109375</ele>
        <time>2019-05-04T09:19:24.000Z</time>
      </trkpt>
      <trkpt lat="42.457102574408054351806640625" lon="-8.65249305032193660736083984375">
        <ele>51</ele>
        <time>2019-05-04T09:19:43.000Z</time>
      </trkpt>
      <trkpt lat="42.45712570846080780029296875" lon="-8.6525338701903820037841796875">
        <ele>51.200000762939453125</ele>
        <time>2019-05-04T09:19:47.000Z</time>
      </trkpt>
      <trkpt lat="42.457139454782009124755859375" lon="-8.6525549925863742828369140625">
        <ele>51.40000152587890625</ele>
        <time>2019-05-04T09:20:04.000Z</time>
      </trkpt>
      <trkpt lat="42.4575101025402545928955078125" lon="-8.6530874110758304595947265625">
        <ele>57</ele>
        <time>2019-05-04T09:20:27.000Z</time>
      </trkpt>
      <trkpt lat="42.457824088633060455322265625" lon="-8.65368797443807125091552734375">
        <ele>61.200000762939453125</ele>
        <time>2019-05-04T09:20:50.000Z</time>
      </trkpt>
      <trkpt lat="42.45792978443205356597900390625" lon="-8.6538206599652767181396484375">
        <ele>61</ele>
        <time>2019-05-04T09:20:56.000Z</time>
      </trkpt>
      <trkpt lat="42.45801142416894435882568359375" lon="-8.65388511680066585540771484375">
        <ele>60.59999847412109375</ele>
        <time>2019-05-04T09:21:00.000Z</time>
      </trkpt>
      <trkpt lat="42.4583992548286914825439453125" lon="-8.65440395660698413848876953125">
        <ele>61.799999237060546875</ele>
        <time>2019-05-04T09:21:22.000Z</time>
      </trkpt>
      <trkpt lat="42.4587911926209926605224609375" lon="-8.65494241006672382354736328125">
        <ele>63.59999847412109375</ele>
        <time>2019-05-04T09:21:42.000Z</time>
      </trkpt>
      <trkpt lat="42.458904683589935302734375" lon="-8.65505724214017391204833984375">
        <ele>63.200000762939453125</ele>
        <time>2019-05-04T09:21:45.000Z</time>
      </trkpt>
      <trkpt lat="42.459317408502101898193359375" lon="-8.65518799982964992523193359375">
        <ele>58.59999847412109375</ele>
        <time>2019-05-04T09:21:56.000Z</time>
      </trkpt>
      <trkpt lat="42.45953273959457874298095703125" lon="-8.65525807254016399383544921875">
        <ele>56.200000762939453125</ele>
        <time>2019-05-04T09:22:01.000Z</time>
      </trkpt>
      <trkpt lat="42.46007538400590419769287109375" lon="-8.6553061008453369140625">
        <ele>48.59999847412109375</ele>
        <time>2019-05-04T09:22:14.000Z</time>
      </trkpt>
      <trkpt lat="42.46025190688669681549072265625" lon="-8.65541850216686725616455078125">
        <ele>48.200000762939453125</ele>
        <time>2019-05-04T09:22:20.000Z</time>
      </trkpt>
      <trkpt lat="42.46036372147500514984130859375" lon="-8.65574355237185955047607421875">
        <ele>49.799999237060546875</ele>
        <time>2019-05-04T09:22:27.000Z</time>
      </trkpt>
      <trkpt lat="42.4604581855237483978271484375" lon="-8.65623624064028263092041015625">
        <ele>48.799999237060546875</ele>
        <time>2019-05-04T09:22:36.000Z</time>
      </trkpt>
      <trkpt lat="42.46050302870571613311767578125" lon="-8.65639097057282924652099609375">
        <ele>48.59999847412109375</ele>
        <time>2019-05-04T09:22:39.000Z</time>
      </trkpt>
      <trkpt lat="42.46068340726196765899658203125" lon="-8.65708700381219387054443359375">
        <ele>46</ele>
        <time>2019-05-04T09:22:52.000Z</time>
      </trkpt>
      <trkpt lat="42.4608243070542812347412109375" lon="-8.65778706036508083343505859375">
        <ele>48</ele>
        <time>2019-05-04T09:23:10.000Z</time>
      </trkpt>
      <trkpt lat="42.4608464352786540985107421875" lon="-8.65780600346624851226806640625">
        <ele>48</ele>
        <time>2019-05-04T09:23:11.000Z</time>
      </trkpt>
      <trkpt lat="42.46107232756912708282470703125" lon="-8.65785763598978519439697265625">
        <ele>46.200000762939453125</ele>
        <time>2019-05-04T09:23:16.000Z</time>
      </trkpt>
      <trkpt lat="42.46138815768063068389892578125" lon="-8.6579224281013011932373046875">
        <ele>43.799999237060546875</ele>
        <time>2019-05-04T09:23:22.000Z</time>
      </trkpt>
      <trkpt lat="42.461654953658580780029296875" lon="-8.658542521297931671142578125">
        <ele>47</ele>
        <time>2019-05-04T09:23:39.000Z</time>
      </trkpt>
      <trkpt lat="42.4615431390702724456787109375" lon="-8.659267723560333251953125">
        <ele>50</ele>
        <time>2019-05-04T09:24:01.000Z</time>
      </trkpt>
      <trkpt lat="42.46139712631702423095703125" lon="-8.6599830351769924163818359375">
        <ele>54</ele>
        <time>2019-05-04T09:24:26.000Z</time>
      </trkpt>
      <trkpt lat="42.461558394134044647216796875" lon="-8.66030297242105007171630859375">
        <ele>57.200000762939453125</ele>
        <time>2019-05-04T09:24:41.000Z</time>
      </trkpt>
      <trkpt lat="42.46177338995039463043212890625" lon="-8.66067211143672466278076171875">
        <ele>60</ele>
        <time>2019-05-04T09:25:00.000Z</time>
      </trkpt>
      <trkpt lat="42.4619270302355289459228515625" lon="-8.66073128767311573028564453125">
        <ele>61.200000762939453125</ele>
        <time>2019-05-04T09:25:09.000Z</time>
      </trkpt>
      <trkpt lat="42.46244612149894237518310546875" lon="-8.6609851755201816558837890625">
        <ele>70.8000030517578125</ele>
        <time>2019-05-04T09:25:37.000Z</time>
      </trkpt>
      <trkpt lat="42.4625211395323276519775390625" lon="-8.661089278757572174072265625">
        <ele>72.59999847412109375</ele>
        <time>2019-05-04T09:25:43.000Z</time>
      </trkpt>
      <trkpt lat="42.46252859942615032196044921875" lon="-8.66120402701199054718017578125">
        <ele>73.40000152587890625</ele>
        <time>2019-05-04T09:25:47.000Z</time>
      </trkpt>
      <trkpt lat="42.4624034576117992401123046875" lon="-8.661920763552188873291015625">
        <ele>76</ele>
        <time>2019-05-04T09:26:13.000Z</time>
      </trkpt>
      <trkpt lat="42.4623848497867584228515625" lon="-8.66256524808704853057861328125">
        <ele>80.40000152587890625</ele>
        <time>2019-05-04T09:26:38.000Z</time>
      </trkpt>
      <trkpt lat="42.4624101631343364715576171875" lon="-8.662590645253658294677734375">
        <ele>81</ele>
        <time>2019-05-04T09:26:40.000Z</time>
      </trkpt>
      <trkpt lat="42.46247042901813983917236328125" lon="-8.66254278458654880523681640625">
        <ele>81.59999847412109375</ele>
        <time>2019-05-04T09:26:45.000Z</time>
      </trkpt>
      <trkpt lat="42.46253916062414646148681640625" lon="-8.6625475622713565826416015625">
        <ele>82.40000152587890625</ele>
        <time>2019-05-04T09:26:55.000Z</time>
      </trkpt>
      <trkpt lat="42.46255290694534778594970703125" lon="-8.6625520884990692138671875">
        <ele>82.40000152587890625</ele>
        <time>2019-05-04T09:26:57.000Z</time>
      </trkpt>
      <trkpt lat="42.4628986604511737823486328125" lon="-8.6624969355762004852294921875">
        <ele>84.8000030517578125</ele>
        <time>2019-05-04T09:28:00.000Z</time>
      </trkpt>
      <trkpt lat="42.46295875869691371917724609375" lon="-8.66246600635349750518798828125">
        <ele>85</ele>
        <time>2019-05-04T09:28:04.000Z</time>
      </trkpt>
      <trkpt lat="42.46303704567253589630126953125" lon="-8.6624104343354701995849609375">
        <ele>85.1999969482421875</ele>
        <time>2019-05-04T09:28:09.000Z</time>
      </trkpt>
      <trkpt lat="42.46317568235099315643310546875" lon="-8.66258771158754825592041015625">
        <ele>87.1999969482421875</ele>
        <time>2019-05-04T09:28:17.000Z</time>
      </trkpt>
      <trkpt lat="42.4633274786174297332763671875" lon="-8.66329397074878215789794921875">
        <ele>94</ele>
        <time>2019-05-04T09:28:43.000Z</time>
      </trkpt>
      <trkpt lat="42.46335388161242008209228515625" lon="-8.663371838629245758056640625">
        <ele>94.59999847412109375</ele>
        <time>2019-05-04T09:28:48.000Z</time>
      </trkpt>
      <trkpt lat="42.463372237980365753173828125" lon="-8.6634930409491062164306640625">
        <ele>95.59999847412109375</ele>
        <time>2019-05-04T09:28:55.000Z</time>
      </trkpt>
      <trkpt lat="42.46369770728051662445068359375" lon="-8.66420307196676731109619140625">
        <ele>101.8000030517578125</ele>
        <time>2019-05-04T09:30:24.000Z</time>
      </trkpt>
      <trkpt lat="42.46388755738735198974609375" lon="-8.66424028761684894561767578125">
        <ele>103.59999847412109375</ele>
        <time>2019-05-04T09:30:36.000Z</time>
      </trkpt>
      <trkpt lat="42.46392418630421161651611328125" lon="-8.66424565203487873077392578125">
        <ele>104</ele>
        <time>2019-05-04T09:30:40.000Z</time>
      </trkpt>
      <trkpt lat="42.46393457986414432525634765625" lon="-8.66428253240883350372314453125">
        <ele>104.40000152587890625</ele>
        <time>2019-05-04T09:36:51.000Z</time>
      </trkpt>
      <trkpt lat="42.46392468921840190887451171875" lon="-8.66433332674205303192138671875">
        <ele>105</ele>
        <time>2019-05-04T09:36:55.000Z</time>
      </trkpt>
      <trkpt lat="42.46392334811389446258544921875" lon="-8.664341457188129425048828125">
        <ele>105</ele>
        <time>2019-05-04T09:37:01.000Z</time>
      </trkpt>
      <trkpt lat="42.46388562954962253570556640625" lon="-8.66506733000278472900390625">
        <ele>105.40000152587890625</ele>
        <time>2019-05-04T09:37:21.000Z</time>
      </trkpt>
      <trkpt lat="42.46373735368251800537109375" lon="-8.6657725833356380462646484375">
        <ele>106.8000030517578125</ele>
        <time>2019-05-04T09:37:42.000Z</time>
      </trkpt>
      <trkpt lat="42.46355823241174221038818359375" lon="-8.66647741757333278656005859375">
        <ele>107.8000030517578125</ele>
        <time>2019-05-04T09:38:01.000Z</time>
      </trkpt>
      <trkpt lat="42.46329587884247303009033203125" lon="-8.66712651215493679046630859375">
        <ele>108.40000152587890625</ele>
        <time>2019-05-04T09:38:18.000Z</time>
      </trkpt>
      <trkpt lat="42.46301055885851383209228515625" lon="-8.6677406542003154754638671875">
        <ele>110</ele>
        <time>2019-05-04T09:38:35.000Z</time>
      </trkpt>
      <trkpt lat="42.4625824950635433197021484375" lon="-8.66821079514920711517333984375">
        <ele>109.8000030517578125</ele>
        <time>2019-05-04T09:38:51.000Z</time>
      </trkpt>
      <trkpt lat="42.46240186505019664764404296875" lon="-8.66839368827641010284423828125">
        <ele>109.8000030517578125</ele>
        <time>2019-05-04T09:39:01.000Z</time>
      </trkpt>
      <trkpt lat="42.46183566749095916748046875" lon="-8.66849251091480255126953125">
        <ele>110.8000030517578125</ele>
        <time>2019-05-04T09:39:19.000Z</time>
      </trkpt>
      <trkpt lat="42.461751513183116912841796875" lon="-8.668494522571563720703125">
        <ele>111</ele>
        <time>2019-05-04T09:39:21.000Z</time>
      </trkpt>
      <trkpt lat="42.461524866521358489990234375" lon="-8.6685738153755664825439453125">
        <ele>110.8000030517578125</ele>
        <time>2019-05-04T09:39:26.000Z</time>
      </trkpt>
      <trkpt lat="42.461337782442569732666015625" lon="-8.6685951054096221923828125">
        <ele>110.8000030517578125</ele>
        <time>2019-05-04T09:39:30.000Z</time>
      </trkpt>
      <trkpt lat="42.4612467549741268157958984375" lon="-8.6686237715184688568115234375">
        <ele>110.8000030517578125</ele>
        <time>2019-05-04T09:39:32.000Z</time>
      </trkpt>
      <trkpt lat="42.46108506806194782257080078125" lon="-8.6687488295137882232666015625">
        <ele>110.40000152587890625</ele>
        <time>2019-05-04T09:39:36.000Z</time>
      </trkpt>
      <trkpt lat="42.460840232670307159423828125" lon="-8.66903523914515972137451171875">
        <ele>109.8000030517578125</ele>
        <time>2019-05-04T09:39:43.000Z</time>
      </trkpt>
      <trkpt lat="42.4607176892459392547607421875" lon="-8.66916247643530368804931640625">
        <ele>110.59999847412109375</ele>
        <time>2019-05-04T09:39:47.000Z</time>
      </trkpt>
      <trkpt lat="42.46030144393444061279296875" lon="-8.6696185357868671417236328125">
        <ele>113.8000030517578125</ele>
        <time>2019-05-04T09:40:08.000Z</time>
      </trkpt>
      <trkpt lat="42.459859214723110198974609375" lon="-8.6700515449047088623046875">
        <ele>115.40000152587890625</ele>
        <time>2019-05-04T09:40:31.000Z</time>
      </trkpt>
      <trkpt lat="42.4594530276954174041748046875" lon="-8.670540042221546173095703125">
        <ele>111.59999847412109375</ele>
        <time>2019-05-04T09:40:49.000Z</time>
      </trkpt>
      <trkpt lat="42.4591941945254802703857421875" lon="-8.67087892256677150726318359375">
        <ele>108.8000030517578125</ele>
        <time>2019-05-04T09:40:59.000Z</time>
      </trkpt>
      <trkpt lat="42.45874919928610324859619140625" lon="-8.6712281964719295501708984375">
        <ele>104.8000030517578125</ele>
        <time>2019-05-04T09:41:12.000Z</time>
      </trkpt>
      <trkpt lat="42.4586057849228382110595703125" lon="-8.67134646512567996978759765625">
        <ele>103.40000152587890625</ele>
        <time>2019-05-04T09:41:15.000Z</time>
      </trkpt>
      <trkpt lat="42.4584545753896236419677734375" lon="-8.6715470440685749053955078125">
        <ele>101.59999847412109375</ele>
        <time>2019-05-04T09:41:19.000Z</time>
      </trkpt>
      <trkpt lat="42.45838307775557041168212890625" lon="-8.67164938710629940032958984375">
        <ele>100.59999847412109375</ele>
        <time>2019-05-04T09:41:21.000Z</time>
      </trkpt>
      <trkpt lat="42.4582171998918056488037109375" lon="-8.6717413365840911865234375">
        <ele>98.59999847412109375</ele>
        <time>2019-05-04T09:41:25.000Z</time>
      </trkpt>
      <trkpt lat="42.4578219093382358551025390625" lon="-8.6718286760151386260986328125">
        <ele>93.8000030517578125</ele>
        <time>2019-05-04T09:41:35.000Z</time>
      </trkpt>
      <trkpt lat="42.4574990384280681610107421875" lon="-8.67178517393767833709716796875">
        <ele>90.59999847412109375</ele>
        <time>2019-05-04T09:41:40.000Z</time>
      </trkpt>
      <trkpt lat="42.4574514292180538177490234375" lon="-8.67177880369126796722412109375">
        <ele>90.1999969482421875</ele>
        <time>2019-05-04T09:41:41.000Z</time>
      </trkpt>
      <trkpt lat="42.45734271593391895294189453125" lon="-8.6719409935176372528076171875">
        <ele>88</ele>
        <time>2019-05-04T09:41:45.000Z</time>
      </trkpt>
      <trkpt lat="42.45732276700437068939208984375" lon="-8.67226093076169490814208984375">
        <ele>84.8000030517578125</ele>
        <time>2019-05-04T09:41:51.000Z</time>
      </trkpt>
      <trkpt lat="42.4572958610951900482177734375" lon="-8.67246109060943126678466796875">
        <ele>82.59999847412109375</ele>
        <time>2019-05-04T09:41:54.000Z</time>
      </trkpt>
      <trkpt lat="42.4571520276367664337158203125" lon="-8.6727537028491497039794921875">
        <ele>79.1999969482421875</ele>
        <time>2019-05-04T09:41:58.000Z</time>
      </trkpt>
      <trkpt lat="42.4571138061583042144775390625" lon="-8.67282830178737640380859375">
        <ele>78.59999847412109375</ele>
        <time>2019-05-04T09:41:59.000Z</time>
      </trkpt>
      <trkpt lat="42.45673988945782184600830078125" lon="-8.67325745522975921630859375">
        <ele>75.40000152587890625</ele>
        <time>2019-05-04T09:42:10.000Z</time>
      </trkpt>
      <trkpt lat="42.45668071322143077850341796875" lon="-8.673267848789691925048828125">
        <ele>75</ele>
        <time>2019-05-04T09:42:11.000Z</time>
      </trkpt>
      <trkpt lat="42.45639614760875701904296875" lon="-8.673332892358303070068359375">
        <ele>75</ele>
        <time>2019-05-04T09:42:15.000Z</time>
      </trkpt>
      <trkpt lat="42.45586196891963481903076171875" lon="-8.67311303503811359405517578125">
        <ele>80</ele>
        <time>2019-05-04T09:42:21.000Z</time>
      </trkpt>
      <trkpt lat="42.45550842024385929107666015625" lon="-8.67326575331389904022216796875">
        <ele>85.8000030517578125</ele>
        <time>2019-05-04T09:42:26.000Z</time>
      </trkpt>
      <trkpt lat="42.45540247298777103424072265625" lon="-8.67338041774928569793701171875">
        <ele>86.59999847412109375</ele>
        <time>2019-05-04T09:42:29.000Z</time>
      </trkpt>
      <trkpt lat="42.45531949214637279510498046875" lon="-8.6737467907369136810302734375">
        <ele>81.40000152587890625</ele>
        <time>2019-05-04T09:42:34.000Z</time>
      </trkpt>
      <trkpt lat="42.45527406223118305206298828125" lon="-8.67397335357964038848876953125">
        <ele>77</ele>
        <time>2019-05-04T09:42:36.000Z</time>
      </trkpt>
      <trkpt lat="42.4548558890819549560546875" lon="-8.674533180892467498779296875">
        <ele>73.59999847412109375</ele>
        <time>2019-05-04T09:42:42.000Z</time>
      </trkpt>
      <trkpt lat="42.454768717288970947265625" lon="-8.67462395690381526947021484375">
        <ele>73.40000152587890625</ele>
        <time>2019-05-04T09:42:43.000Z</time>
      </trkpt>
      <trkpt lat="42.45451734401285648345947265625" lon="-8.6751301400363445281982421875">
        <ele>69.8000030517578125</ele>
        <time>2019-05-04T09:42:47.000Z</time>
      </trkpt>
      <trkpt lat="42.45434601791203022003173828125" lon="-8.675659038126468658447265625">
        <ele>63</ele>
        <time>2019-05-04T09:42:51.000Z</time>
      </trkpt>
      <trkpt lat="42.45409355498850345611572265625" lon="-8.676377199590206146240234375">
        <ele>58</ele>
        <time>2019-05-04T09:42:57.000Z</time>
      </trkpt>
      <trkpt lat="42.4540594406425952911376953125" lon="-8.67648272775113582611083984375">
        <ele>57.59999847412109375</ele>
        <time>2019-05-04T09:42:58.000Z</time>
      </trkpt>
      <trkpt lat="42.45384058915078639984130859375" lon="-8.67711371742188930511474609375">
        <ele>58.59999847412109375</ele>
        <time>2019-05-04T09:43:10.000Z</time>
      </trkpt>
      <trkpt lat="42.45382315479218959808349609375" lon="-8.6771384440362453460693359375">
        <ele>58.799999237060546875</ele>
        <time>2019-05-04T09:43:57.000Z</time>
      </trkpt>
      <trkpt lat="42.4537144415080547332763671875" lon="-8.6775183118879795074462890625">
        <ele>62.40000152587890625</ele>
        <time>2019-05-04T09:44:14.000Z</time>
      </trkpt>
      <trkpt lat="42.453573457896709442138671875" lon="-8.67803991772234439849853515625">
        <ele>71</ele>
        <time>2019-05-04T09:44:37.000Z</time>
      </trkpt>
      <trkpt lat="42.45354537852108478546142578125" lon="-8.67813714779913425445556640625">
        <ele>72.8000030517578125</ele>
        <time>2019-05-04T09:44:41.000Z</time>
      </trkpt>
      <trkpt lat="42.45348821394145488739013671875" lon="-8.67839262820780277252197265625">
        <ele>77.40000152587890625</ele>
        <time>2019-05-04T09:44:51.000Z</time>
      </trkpt>
      <trkpt lat="42.45331722311675548553466796875" lon="-8.67903484962880611419677734375">
        <ele>81</ele>
        <time>2019-05-04T09:45:15.000Z</time>
      </trkpt>
      <trkpt lat="42.453248910605907440185546875" lon="-8.6791236139833927154541015625">
        <ele>80</ele>
        <time>2019-05-04T09:45:19.000Z</time>
      </trkpt>
      <trkpt lat="42.4530884809792041778564453125" lon="-8.67905882187187671661376953125">
        <ele>76.8000030517578125</ele>
        <time>2019-05-04T09:45:25.000Z</time>
      </trkpt>
      <trkpt lat="42.45287449099123477935791015625" lon="-8.67902613244950771331787109375">
        <ele>72.59999847412109375</ele>
        <time>2019-05-04T09:45:31.000Z</time>
      </trkpt>
      <trkpt lat="42.4527672864496707916259765625" lon="-8.679345063865184783935546875">
        <ele>71.1999969482421875</ele>
        <time>2019-05-04T09:45:36.000Z</time>
      </trkpt>
      <trkpt lat="42.45273350737988948822021484375" lon="-8.67950758896768093109130859375">
        <ele>70.1999969482421875</ele>
        <time>2019-05-04T09:45:38.000Z</time>
      </trkpt>
      <trkpt lat="42.45267315767705440521240234375" lon="-8.67973842658102512359619140625">
        <ele>68.59999847412109375</ele>
        <time>2019-05-04T09:45:41.000Z</time>
      </trkpt>
      <trkpt lat="42.452509962022304534912109375" lon="-8.68031325750052928924560546875">
        <ele>64</ele>
        <time>2019-05-04T09:45:48.000Z</time>
      </trkpt>
      <trkpt lat="42.45235565118491649627685546875" lon="-8.6807548999786376953125">
        <ele>62.40000152587890625</ele>
        <time>2019-05-04T09:45:54.000Z</time>
      </trkpt>
      <trkpt lat="42.4521704949438571929931640625" lon="-8.68129863403737545013427734375">
        <ele>59.799999237060546875</ele>
        <time>2019-05-04T09:46:02.000Z</time>
      </trkpt>
      <trkpt lat="42.4519119970500469207763671875" lon="-8.6819979362189769744873046875">
        <ele>56.200000762939453125</ele>
        <time>2019-05-04T09:46:09.000Z</time>
      </trkpt>
      <trkpt lat="42.4516586959362030029296875" lon="-8.6824683286249637603759765625">
        <ele>52.59999847412109375</ele>
        <time>2019-05-04T09:46:14.000Z</time>
      </trkpt>
      <trkpt lat="42.45155735872685909271240234375" lon="-8.68261434137821197509765625">
        <ele>51.59999847412109375</ele>
        <time>2019-05-04T09:46:16.000Z</time>
      </trkpt>
      <trkpt lat="42.451433725655078887939453125" lon="-8.68274803273379802703857421875">
        <ele>50.799999237060546875</ele>
        <time>2019-05-04T09:46:18.000Z</time>
      </trkpt>
      <trkpt lat="42.45091916061937808990478515625" lon="-8.68286856450140476226806640625">
        <ele>47.799999237060546875</ele>
        <time>2019-05-04T09:46:25.000Z</time>
      </trkpt>
      <trkpt lat="42.45085311122238636016845703125" lon="-8.68285766802728176116943359375">
        <ele>47.40000152587890625</ele>
        <time>2019-05-04T09:46:26.000Z</time>
      </trkpt>
      <trkpt lat="42.450417838990688323974609375" lon="-8.682895638048648834228515625">
        <ele>45.59999847412109375</ele>
        <time>2019-05-04T09:46:33.000Z</time>
      </trkpt>
      <trkpt lat="42.45024743489921092987060546875" lon="-8.68286739103496074676513671875">
        <ele>44.59999847412109375</ele>
        <time>2019-05-04T09:46:37.000Z</time>
      </trkpt>
      <trkpt lat="42.450046353042125701904296875" lon="-8.68307995609939098358154296875">
        <ele>44.200000762939453125</ele>
        <time>2019-05-04T09:46:45.000Z</time>
      </trkpt>
      <trkpt lat="42.44976396672427654266357421875" lon="-8.68317048065364360809326171875">
        <ele>44.59999847412109375</ele>
        <time>2019-05-04T09:46:53.000Z</time>
      </trkpt>
      <trkpt lat="42.44943045079708099365234375" lon="-8.683724440634250640869140625">
        <ele>47</ele>
        <time>2019-05-04T09:47:10.000Z</time>
      </trkpt>
      <trkpt lat="42.44927312247455120086669921875" lon="-8.68443028070032596588134765625">
        <ele>49.59999847412109375</ele>
        <time>2019-05-04T09:47:29.000Z</time>
      </trkpt>
      <trkpt lat="42.4487674422562122344970703125" lon="-8.68476019240915775299072265625">
        <ele>49</ele>
        <time>2019-05-04T09:47:44.000Z</time>
      </trkpt>
      <trkpt lat="42.44867750443518161773681640625" lon="-8.68501835502684116363525390625">
        <ele>48.59999847412109375</ele>
        <time>2019-05-04T09:47:52.000Z</time>
      </trkpt>
      <trkpt lat="42.44847281835973262786865234375" lon="-8.6853399686515331268310546875">
        <ele>48.59999847412109375</ele>
        <time>2019-05-04T09:48:11.000Z</time>
      </trkpt>
      <trkpt lat="42.44831121526658535003662109375" lon="-8.68511608801782131195068359375">
        <ele>48</ele>
        <time>2019-05-04T09:48:18.000Z</time>
      </trkpt>
      <trkpt lat="42.4480938725173473358154296875" lon="-8.6851845681667327880859375">
        <ele>47.799999237060546875</ele>
        <time>2019-05-04T09:48:23.000Z</time>
      </trkpt>
      <trkpt lat="42.4479652941226959228515625" lon="-8.68527266196906566619873046875">
        <ele>47.200000762939453125</ele>
        <time>2019-05-04T09:48:26.000Z</time>
      </trkpt>
      <trkpt lat="42.44770252145826816558837890625" lon="-8.68549025617539882659912109375">
        <ele>46.200000762939453125</ele>
        <time>2019-05-04T09:48:32.000Z</time>
      </trkpt>
      <trkpt lat="42.44756639935076236724853515625" lon="-8.68559502996504306793212890625">
        <ele>45.59999847412109375</ele>
        <time>2019-05-04T09:48:35.000Z</time>
      </trkpt>
      <trkpt lat="42.44737453758716583251953125" lon="-8.68565940298140048980712890625">
        <ele>45.40000152587890625</ele>
        <time>2019-05-04T09:48:39.000Z</time>
      </trkpt>
      <trkpt lat="42.4471822567284107208251953125" lon="-8.68566225282847881317138671875">
        <ele>45.40000152587890625</ele>
        <time>2019-05-04T09:48:43.000Z</time>
      </trkpt>
      <trkpt lat="42.44693021290004253387451171875" lon="-8.6856551282107830047607421875">
        <ele>45.40000152587890625</ele>
        <time>2019-05-04T09:48:51.000Z</time>
      </trkpt>
      <trkpt lat="42.44690154679119586944580078125" lon="-8.6856544576585292816162109375">
        <ele>45.40000152587890625</ele>
        <time>2019-05-04T09:49:11.000Z</time>
      </trkpt>
      <trkpt lat="42.446727789938449859619140625" lon="-8.68565554730594158172607421875">
        <ele>45.40000152587890625</ele>
        <time>2019-05-04T09:49:22.000Z</time>
      </trkpt>
      <trkpt lat="42.4467121995985507965087890625" lon="-8.6856591515243053436279296875">
        <ele>45.40000152587890625</ele>
        <time>2019-05-04T09:49:29.000Z</time>
      </trkpt>
      <trkpt lat="42.44635940529406070709228515625" lon="-8.68572260253131389617919921875">
        <ele>44</ele>
        <time>2019-05-04T09:49:44.000Z</time>
      </trkpt>
      <trkpt lat="42.44621356017887592315673828125" lon="-8.68567164056003093719482421875">
        <ele>43.59999847412109375</ele>
        <time>2019-05-04T09:49:52.000Z</time>
      </trkpt>
      <trkpt lat="42.4462164938449859619140625" lon="-8.6856242828071117401123046875">
        <ele>43.799999237060546875</ele>
        <time>2019-05-04T09:49:56.000Z</time>
      </trkpt>
      <trkpt lat="42.4461655318737030029296875" lon="-8.6855880729854106903076171875">
        <ele>43.799999237060546875</ele>
        <time>2019-05-04T09:51:35.000Z</time>
      </trkpt>
      <trkpt lat="42.4460855685174465179443359375" lon="-8.6856055073440074920654296875">
        <ele>43.40000152587890625</ele>
        <time>2019-05-04T09:51:40.000Z</time>
      </trkpt>
      <trkpt lat="42.44599261321127414703369140625" lon="-8.6856661923229694366455078125">
        <ele>43</ele>
        <time>2019-05-04T09:51:45.000Z</time>
      </trkpt>
      <trkpt lat="42.44598649442195892333984375" lon="-8.68576669134199619293212890625">
        <ele>42.59999847412109375</ele>
        <time>2019-05-04T09:51:49.000Z</time>
      </trkpt>
      <trkpt lat="42.4458542279899120330810546875" lon="-8.6860670149326324462890625">
        <ele>40.799999237060546875</ele>
        <time>2019-05-04T09:51:56.000Z</time>
      </trkpt>
      <trkpt lat="42.44530789554119110107421875" lon="-8.68618796579539775848388671875">
        <ele>35</ele>
        <time>2019-05-04T09:52:06.000Z</time>
      </trkpt>
      <trkpt lat="42.44502668268978595733642578125" lon="-8.6861260235309600830078125">
        <ele>32.799999237060546875</ele>
        <time>2019-05-04T09:52:11.000Z</time>
      </trkpt>
      <trkpt lat="42.4448856152594089508056640625" lon="-8.68601496331393718719482421875">
        <ele>32.59999847412109375</ele>
        <time>2019-05-04T09:52:14.000Z</time>
      </trkpt>
      <trkpt lat="42.44460381567478179931640625" lon="-8.685573823750019073486328125">
        <ele>32.799999237060546875</ele>
        <time>2019-05-04T09:52:23.000Z</time>
      </trkpt>
      <trkpt lat="42.444521002471446990966796875" lon="-8.68540249764919281005859375">
        <ele>33</ele>
        <time>2019-05-04T09:52:27.000Z</time>
      </trkpt>
      <trkpt lat="42.444308102130889892578125" lon="-8.68506059981882572174072265625">
        <ele>33</ele>
        <time>2019-05-04T09:52:38.000Z</time>
      </trkpt>
      <trkpt lat="42.443998642265796661376953125" lon="-8.68444025516510009765625">
        <ele>32</ele>
        <time>2019-05-04T09:52:54.000Z</time>
      </trkpt>
      <trkpt lat="42.44354895316064357757568359375" lon="-8.68407438509166240692138671875">
        <ele>27.200000762939453125</ele>
        <time>2019-05-04T09:53:10.000Z</time>
      </trkpt>
      <trkpt lat="42.443307973444461822509765625" lon="-8.68420346640050411224365234375">
        <ele>25.799999237060546875</ele>
        <time>2019-05-04T09:53:20.000Z</time>
      </trkpt>
      <trkpt lat="42.44330151937901973724365234375" lon="-8.68423841893672943115234375">
        <ele>25.799999237060546875</ele>
        <time>2019-05-04T09:53:25.000Z</time>
      </trkpt>
      <trkpt lat="42.4431726895272731781005859375" lon="-8.68497074581682682037353515625">
        <ele>27.200000762939453125</ele>
        <time>2019-05-04T09:53:43.000Z</time>
      </trkpt>
      <trkpt lat="42.44285543449223041534423828125" lon="-8.68559318594634532928466796875">
        <ele>25.799999237060546875</ele>
        <time>2019-05-04T09:53:54.000Z</time>
      </trkpt>
      <trkpt lat="42.4425859563052654266357421875" lon="-8.6862167157232761383056640625">
        <ele>22.200000762939453125</ele>
        <time>2019-05-04T09:54:02.000Z</time>
      </trkpt>
      <trkpt lat="42.442555613815784454345703125" lon="-8.6864343099296092987060546875">
        <ele>20.3999996185302734375</ele>
        <time>2019-05-04T09:54:04.000Z</time>
      </trkpt>
      <trkpt lat="42.4426141194999217987060546875" lon="-8.68723335675895214080810546875">
        <ele>15.3999996185302734375</ele>
        <time>2019-05-04T09:54:11.000Z</time>
      </trkpt>
      <trkpt lat="42.44270053692162036895751953125" lon="-8.68785764090716838836669921875">
        <ele>11.3999996185302734375</ele>
        <time>2019-05-04T09:54:18.000Z</time>
      </trkpt>
      <trkpt lat="42.44272652082145214080810546875" lon="-8.68798739276826381683349609375">
        <ele>11</ele>
        <time>2019-05-04T09:54:20.000Z</time>
      </trkpt>
      <trkpt lat="42.44268142618238925933837890625" lon="-8.68814237415790557861328125">
        <ele>10.3999996185302734375</ele>
        <time>2019-05-04T09:54:25.000Z</time>
      </trkpt>
      <trkpt lat="42.442563660442829132080078125" lon="-8.68808814324438571929931640625">
        <ele>10.6000003814697265625</ele>
        <time>2019-05-04T09:54:29.000Z</time>
      </trkpt>
      <trkpt lat="42.44256609119474887847900390625" lon="-8.68780575692653656005859375">
        <ele>11.6000003814697265625</ele>
        <time>2019-05-04T09:54:34.000Z</time>
      </trkpt>
      <trkpt lat="42.44257229380309581756591796875" lon="-8.68774968199431896209716796875">
        <ele>11.80000019073486328125</ele>
        <time>2019-05-04T09:54:35.000Z</time>
      </trkpt>
      <trkpt lat="42.44234581477940082550048828125" lon="-8.68772252462804317474365234375">
        <ele>12.80000019073486328125</ele>
        <time>2019-05-04T09:54:41.000Z</time>
      </trkpt>
      <trkpt lat="42.441838793456554412841796875" lon="-8.6880647577345371246337890625">
        <ele>12.19999980926513671875</ele>
        <time>2019-05-04T09:54:55.000Z</time>
      </trkpt>
      <trkpt lat="42.44133780710399150848388671875" lon="-8.68841864168643951416015625">
        <ele>10.19999980926513671875</ele>
        <time>2019-05-04T09:55:13.000Z</time>
      </trkpt>
      <trkpt lat="42.44101644493639469146728515625" lon="-8.68896706961095333099365234375">
        <ele>7</ele>
        <time>2019-05-04T09:55:29.000Z</time>
      </trkpt>
      <trkpt lat="42.440982498228549957275390625" lon="-8.689068071544170379638671875">
        <ele>6.400000095367431640625</ele>
        <time>2019-05-04T09:55:31.000Z</time>
      </trkpt>
      <trkpt lat="42.44091502390801906585693359375" lon="-8.68921483866870403289794921875">
        <ele>5.599999904632568359375</ele>
        <time>2019-05-04T09:55:34.000Z</time>
      </trkpt>
      <trkpt lat="42.44081192649900913238525390625" lon="-8.68942036293447017669677734375">
        <ele>5</ele>
        <time>2019-05-04T09:55:38.000Z</time>
      </trkpt>
      <trkpt lat="42.44071117602288722991943359375" lon="-8.6897089518606662750244140625">
        <ele>5</ele>
        <time>2019-05-04T09:55:43.000Z</time>
      </trkpt>
      <trkpt lat="42.44043641723692417144775390625" lon="-8.69037321768701076507568359375">
        <ele>4.80000019073486328125</ele>
        <time>2019-05-04T09:55:58.000Z</time>
      </trkpt>
      <trkpt lat="42.44026743806898593902587890625" lon="-8.69111250154674053192138671875">
        <ele>4.599999904632568359375</ele>
        <time>2019-05-04T09:56:14.000Z</time>
      </trkpt>
      <trkpt lat="42.44009678252041339874267578125" lon="-8.691844828426837921142578125">
        <ele>3.400000095367431640625</ele>
        <time>2019-05-04T09:56:29.000Z</time>
      </trkpt>
      <trkpt lat="42.43983962573111057281494140625" lon="-8.69244757108390331268310546875">
        <ele>2.599999904632568359375</ele>
        <time>2019-05-04T09:56:47.000Z</time>
      </trkpt>
      <trkpt lat="42.43978614918887615203857421875" lon="-8.69245536625385284423828125">
        <ele>2.7999999523162841796875</ele>
        <time>2019-05-04T09:56:50.000Z</time>
      </trkpt>
      <trkpt lat="42.4397693015635013580322265625" lon="-8.69238965213298797607421875">
        <ele>3</ele>
        <time>2019-05-04T09:56:55.000Z</time>
      </trkpt>
      <trkpt lat="42.43974507786333560943603515625" lon="-8.69243533350527286529541015625">
        <ele>3</ele>
        <time>2019-05-04T09:57:03.000Z</time>
      </trkpt>
      <trkpt lat="42.43976888246834278106689453125" lon="-8.6924193240702152252197265625">
        <ele>2.7999999523162841796875</ele>
        <time>2019-05-04T09:57:08.000Z</time>
      </trkpt>
      <trkpt lat="42.43978681974112987518310546875" lon="-8.69239392690360546112060546875">
        <ele>2.7999999523162841796875</ele>
        <time>2019-05-04T09:57:15.000Z</time>
      </trkpt>
      <trkpt lat="42.43981112726032733917236328125" lon="-8.69229099713265895843505859375">
        <ele>3</ele>
        <time>2019-05-04T09:57:23.000Z</time>
      </trkpt>
      <trkpt lat="42.4398259632289409637451171875" lon="-8.6923137120902538299560546875">
        <ele>2.7999999523162841796875</ele>
        <time>2019-05-04T09:57:38.000Z</time>
      </trkpt>
      <trkpt lat="42.43943159468472003936767578125" lon="-8.69281101040542125701904296875">
        <ele>3.400000095367431640625</ele>
        <time>2019-05-04T09:57:56.000Z</time>
      </trkpt>
      <trkpt lat="42.43897310458123683929443359375" lon="-8.69321518577635288238525390625">
        <ele>4.400000095367431640625</ele>
        <time>2019-05-04T09:58:10.000Z</time>
      </trkpt>
      <trkpt lat="42.438750565052032470703125" lon="-8.69377308525145053863525390625">
        <ele>4.80000019073486328125</ele>
        <time>2019-05-04T09:58:27.000Z</time>
      </trkpt>
      <trkpt lat="42.4387460388243198394775390625" lon="-8.69377425871789455413818359375">
        <ele>4.80000019073486328125</ele>
        <time>2019-05-04T09:58:29.000Z</time>
      </trkpt>
      <trkpt lat="42.438722066581249237060546875" lon="-8.69381734170019626617431640625">
        <ele>4.80000019073486328125</ele>
        <time>2019-05-04T09:59:35.000Z</time>
      </trkpt>
      <trkpt lat="42.43827070109546184539794921875" lon="-8.6941932700574398040771484375">
        <ele>4.80000019073486328125</ele>
        <time>2019-05-04T09:59:54.000Z</time>
      </trkpt>
      <trkpt lat="42.43811043910682201385498046875" lon="-8.6943979561328887939453125">
        <ele>4.80000019073486328125</ele>
        <time>2019-05-04T09:59:59.000Z</time>
      </trkpt>
      <trkpt lat="42.43789921514689922332763671875" lon="-8.69479249231517314910888671875">
        <ele>5</ele>
        <time>2019-05-04T10:00:13.000Z</time>
      </trkpt>
      <trkpt lat="42.43789619766175746917724609375" lon="-8.69481445290148258209228515625">
        <ele>5.19999980926513671875</ele>
        <time>2019-05-04T10:05:54.000Z</time>
      </trkpt>
      <trkpt lat="42.437871806323528289794921875" lon="-8.6949478089809417724609375">
        <ele>5.80000019073486328125</ele>
        <time>2019-05-04T10:06:00.000Z</time>
      </trkpt>
      <trkpt lat="42.43782059289515018463134765625" lon="-8.69512659497559070587158203125">
        <ele>6.599999904632568359375</ele>
        <time>2019-05-04T10:06:09.000Z</time>
      </trkpt>
      <trkpt lat="42.437766529619693756103515625" lon="-8.69527897797524929046630859375">
        <ele>7.19999980926513671875</ele>
        <time>2019-05-04T10:06:17.000Z</time>
      </trkpt>
      <trkpt lat="42.43773962371051311492919921875" lon="-8.69538106955587863922119140625">
        <ele>7.599999904632568359375</ele>
        <time>2019-05-04T10:06:22.000Z</time>
      </trkpt>
      <trkpt lat="42.43770374916493892669677734375" lon="-8.69562448002398014068603515625">
        <ele>8.80000019073486328125</ele>
        <time>2019-05-04T10:06:37.000Z</time>
      </trkpt>
      <trkpt lat="42.4377085268497467041015625" lon="-8.69570461101830005645751953125">
        <ele>9.3999996185302734375</ele>
        <time>2019-05-04T10:06:42.000Z</time>
      </trkpt>
      <trkpt lat="42.43771615438163280487060546875" lon="-8.69582061655819416046142578125">
        <ele>10</ele>
        <time>2019-05-04T10:06:51.000Z</time>
      </trkpt>
      <trkpt lat="42.43768095038831233978271484375" lon="-8.69585531763732433319091796875">
        <ele>10</ele>
        <time>2019-05-04T10:07:10.000Z</time>
      </trkpt>
      <trkpt lat="42.43765421211719512939453125" lon="-8.695913068950176239013671875">
        <ele>10.19999980926513671875</ele>
        <time>2019-05-04T10:07:15.000Z</time>
      </trkpt>
      <trkpt lat="42.43765597231686115264892578125" lon="-8.69591952301561832427978515625">
        <ele>10.19999980926513671875</ele>
        <time>2019-05-04T10:07:36.000Z</time>
      </trkpt>
      <trkpt lat="42.43781355209648609161376953125" lon="-8.69596428237855434417724609375">
        <ele>10.6000003814697265625</ele>
        <time>2019-05-04T10:07:49.000Z</time>
      </trkpt>
      <trkpt lat="42.437825538218021392822265625" lon="-8.6959863267838954925537109375">
        <ele>10.6000003814697265625</ele>
        <time>2019-05-04T10:07:53.000Z</time>
      </trkpt>
      <trkpt lat="42.43783266283571720123291015625" lon="-8.696002922952175140380859375">
        <ele>10.80000019073486328125</ele>
        <time>2019-05-04T10:08:08.000Z</time>
      </trkpt>
      <trkpt lat="42.43790105916559696197509765625" lon="-8.69624071754515171051025390625">
        <ele>12.19999980926513671875</ele>
        <time>2019-05-04T10:08:22.000Z</time>
      </trkpt>
      <trkpt lat="42.4379249475896358489990234375" lon="-8.69630760513246059417724609375">
        <ele>12.6000003814697265625</ele>
        <time>2019-05-04T10:08:26.000Z</time>
      </trkpt>
      <trkpt lat="42.43792570196092128753662109375" lon="-8.6963237822055816650390625">
        <ele>12.80000019073486328125</ele>
        <time>2019-05-04T10:08:27.000Z</time>
      </trkpt>
      <trkpt lat="42.43793324567377567291259765625" lon="-8.69640651158988475799560546875">
        <ele>13.3999996185302734375</ele>
        <time>2019-05-04T10:08:31.000Z</time>
      </trkpt>
      <trkpt lat="42.43792754597961902618408203125" lon="-8.69649938307702541351318359375">
        <ele>14</ele>
        <time>2019-05-04T10:08:36.000Z</time>
      </trkpt>
      <trkpt lat="42.4378810264170169830322265625" lon="-8.696711361408233642578125">
        <ele>15.6000003814697265625</ele>
        <time>2019-05-04T10:08:48.000Z</time>
      </trkpt>
      <trkpt lat="42.43785412050783634185791015625" lon="-8.6967805959284305572509765625">
        <ele>16</ele>
        <time>2019-05-04T10:08:52.000Z</time>
      </trkpt>
      <trkpt lat="42.43783500976860523223876953125" lon="-8.69688629172742366790771484375">
        <ele>16.799999237060546875</ele>
        <time>2019-05-04T10:08:57.000Z</time>
      </trkpt>
      <trkpt lat="42.43768363259732723236083984375" lon="-8.69759104214608669281005859375">
        <ele>19.3999996185302734375</ele>
        <time>2019-05-04T10:09:28.000Z</time>
      </trkpt>
      <trkpt lat="42.43755170144140720367431640625" lon="-8.6981542222201824188232421875">
        <ele>21.3999996185302734375</ele>
        <time>2019-05-04T10:09:53.000Z</time>
      </trkpt>
      <trkpt lat="42.43740350939333438873291015625" lon="-8.69886207394301891326904296875">
        <ele>23.799999237060546875</ele>
        <time>2019-05-04T10:10:12.000Z</time>
      </trkpt>
      <trkpt lat="42.43723888881504535675048828125" lon="-8.6995590291917324066162109375">
        <ele>25.3999996185302734375</ele>
        <time>2019-05-04T10:10:30.000Z</time>
      </trkpt>
      <trkpt lat="42.4372067861258983612060546875" lon="-8.6996217258274555206298828125">
        <ele>25.200000762939453125</ele>
        <time>2019-05-04T10:10:32.000Z</time>
      </trkpt>
      <trkpt lat="42.4371239729225635528564453125" lon="-8.69968635030090808868408203125">
        <ele>24.6000003814697265625</ele>
        <time>2019-05-04T10:10:36.000Z</time>
      </trkpt>
      <trkpt lat="42.43693093769252300262451171875" lon="-8.69984887540340423583984375">
        <ele>23.3999996185302734375</ele>
        <time>2019-05-04T10:10:41.000Z</time>
      </trkpt>
      <trkpt lat="42.43679950945079326629638671875" lon="-8.70005406439304351806640625">
        <ele>22.799999237060546875</ele>
        <time>2019-05-04T10:10:45.000Z</time>
      </trkpt>
      <trkpt lat="42.4365712702274322509765625" lon="-8.70072687976062297821044921875">
        <ele>20.3999996185302734375</ele>
        <time>2019-05-04T10:10:54.000Z</time>
      </trkpt>
      <trkpt lat="42.43630480952560901641845703125" lon="-8.70130338706076145172119140625">
        <ele>17.3999996185302734375</ele>
        <time>2019-05-04T10:11:02.000Z</time>
      </trkpt>
      <trkpt lat="42.4360978603363037109375" lon="-8.70158024132251739501953125">
        <ele>15.6000003814697265625</ele>
        <time>2019-05-04T10:11:06.000Z</time>
      </trkpt>
      <trkpt lat="42.4359463155269622802734375" lon="-8.70230485685169696807861328125">
        <ele>12.80000019073486328125</ele>
        <time>2019-05-04T10:11:13.000Z</time>
      </trkpt>
      <trkpt lat="42.4359142966568470001220703125" lon="-8.7026405520737171173095703125">
        <ele>11.80000019073486328125</ele>
        <time>2019-05-04T10:11:16.000Z</time>
      </trkpt>
      <trkpt lat="42.435829974710941314697265625" lon="-8.70295261032879352569580078125">
        <ele>11</ele>
        <time>2019-05-04T10:11:19.000Z</time>
      </trkpt>
      <trkpt lat="42.4357590638101100921630859375" lon="-8.7031562067568302154541015625">
        <ele>10.6000003814697265625</ele>
        <time>2019-05-04T10:11:21.000Z</time>
      </trkpt>
      <trkpt lat="42.43554272688925266265869140625" lon="-8.70343909598886966705322265625">
        <ele>9.3999996185302734375</ele>
        <time>2019-05-04T10:11:25.000Z</time>
      </trkpt>
      <trkpt lat="42.43513771332800388336181640625" lon="-8.70377160608768463134765625">
        <ele>7.80000019073486328125</ele>
        <time>2019-05-04T10:11:39.000Z</time>
      </trkpt>
      <trkpt lat="42.4350875057280063629150390625" lon="-8.70376951061189174652099609375">
        <ele>7.400000095367431640625</ele>
        <time>2019-05-04T10:11:48.000Z</time>
      </trkpt>
      <trkpt lat="42.43496001698076725006103515625" lon="-8.70398174040019512176513671875">
        <ele>7.599999904632568359375</ele>
        <time>2019-05-04T10:11:56.000Z</time>
      </trkpt>
      <trkpt lat="42.4345145188271999359130859375" lon="-8.70426915585994720458984375">
        <ele>7.599999904632568359375</ele>
        <time>2019-05-04T10:12:16.000Z</time>
      </trkpt>
      <trkpt lat="42.4341996945440769195556640625" lon="-8.70486485771834850311279296875">
        <ele>7.19999980926513671875</ele>
        <time>2019-05-04T10:12:33.000Z</time>
      </trkpt>
      <trkpt lat="42.43408997543156147003173828125" lon="-8.7051101960241794586181640625">
        <ele>5.80000019073486328125</ele>
        <time>2019-05-04T10:12:45.000Z</time>
      </trkpt>
      <trkpt lat="42.4339143745601177215576171875" lon="-8.70521756820380687713623046875">
        <ele>5.80000019073486328125</ele>
        <time>2019-05-04T10:12:55.000Z</time>
      </trkpt>
      <trkpt lat="42.43389249779284000396728515625" lon="-8.70530742220580577850341796875">
        <ele>6.80000019073486328125</ele>
        <time>2019-05-04T10:12:59.000Z</time>
      </trkpt>
      <trkpt lat="42.43374514393508434295654296875" lon="-8.705599866807460784912109375">
        <ele>9.3999996185302734375</ele>
        <time>2019-05-04T10:13:10.000Z</time>
      </trkpt>
      <trkpt lat="42.43374916724860668182373046875" lon="-8.70587554760277271270751953125">
        <ele>11.6000003814697265625</ele>
        <time>2019-05-04T10:13:20.000Z</time>
      </trkpt>
      <trkpt lat="42.43379174731671810150146484375" lon="-8.705984763801097869873046875">
        <ele>12.6000003814697265625</ele>
        <time>2019-05-04T10:13:25.000Z</time>
      </trkpt>
      <trkpt lat="42.43383114226162433624267578125" lon="-8.7060110829770565032958984375">
        <ele>12.80000019073486328125</ele>
        <time>2019-05-04T10:13:30.000Z</time>
      </trkpt>
      <trkpt lat="42.433890067040920257568359375" lon="-8.70603865943849086761474609375">
        <ele>13</ele>
        <time>2019-05-04T10:13:44.000Z</time>
      </trkpt>
      <trkpt lat="42.43400037288665771484375" lon="-8.70610781013965606689453125">
        <ele>13.19999980926513671875</ele>
        <time>2019-05-04T10:13:50.000Z</time>
      </trkpt>
      <trkpt lat="42.43400515057146549224853515625" lon="-8.7061130069196224212646484375">
        <ele>13.19999980926513671875</ele>
        <time>2019-05-04T10:13:52.000Z</time>
      </trkpt>
      <trkpt lat="42.4340102635324001312255859375" lon="-8.7061344645917415618896484375">
        <ele>13.3999996185302734375</ele>
        <time>2019-05-04T10:13:59.000Z</time>
      </trkpt>
      <trkpt lat="42.43404236622154712677001953125" lon="-8.70630218647420406341552734375">
        <ele>14.80000019073486328125</ele>
        <time>2019-05-04T10:14:07.000Z</time>
      </trkpt>
      <trkpt lat="42.43403591215610504150390625" lon="-8.7063909508287906646728515625">
        <ele>15.80000019073486328125</ele>
        <time>2019-05-04T10:14:11.000Z</time>
      </trkpt>
      <trkpt lat="42.43420346640050411224365234375" lon="-8.70682387612760066986083984375">
        <ele>21</ele>
        <time>2019-05-04T10:14:26.000Z</time>
      </trkpt>
      <trkpt lat="42.4343777261674404144287109375" lon="-8.70673351921141147613525390625">
        <ele>22</ele>
        <time>2019-05-04T10:14:41.000Z</time>
      </trkpt>
      <trkpt lat="42.43449046276509761810302734375" lon="-8.7066209502518177032470703125">
        <ele>21.799999237060546875</ele>
        <time>2019-05-04T10:14:50.000Z</time>
      </trkpt>
      <trkpt lat="42.43474644608795642852783203125" lon="-8.70647418312728404998779296875">
        <ele>23.200000762939453125</ele>
        <time>2019-05-04T10:15:01.000Z</time>
      </trkpt>
      <trkpt lat="42.4352796189486980438232421875" lon="-8.706617765128612518310546875">
        <ele>33</ele>
        <time>2019-05-04T10:15:24.000Z</time>
      </trkpt>
      <trkpt lat="42.43548698723316192626953125" lon="-8.70685656554996967315673828125">
        <ele>37.200000762939453125</ele>
        <time>2019-05-04T10:15:36.000Z</time>
      </trkpt>
      <trkpt lat="42.43553258478641510009765625" lon="-8.70676386170089244842529296875">
        <ele>37</ele>
        <time>2019-05-04T10:15:41.000Z</time>
      </trkpt>
      <trkpt lat="42.43552965112030506134033203125" lon="-8.7068036757409572601318359375">
        <ele>37.200000762939453125</ele>
        <time>2019-05-04T10:16:03.000Z</time>
      </trkpt>
      <trkpt lat="42.43546108715236186981201171875" lon="-8.70699017308652400970458984375">
        <ele>38.59999847412109375</ele>
        <time>2019-05-04T10:16:09.000Z</time>
      </trkpt>
      <trkpt lat="42.43531792424619197845458984375" lon="-8.7072435580193996429443359375">
        <ele>40</ele>
        <time>2019-05-04T10:16:20.000Z</time>
      </trkpt>
      <trkpt lat="42.43520560674369335174560546875" lon="-8.7073525227606296539306640625">
        <ele>40.200000762939453125</ele>
        <time>2019-05-04T10:16:29.000Z</time>
      </trkpt>
      <trkpt lat="42.43521097116172313690185546875" lon="-8.7074182368814945220947265625">
        <ele>41</ele>
        <time>2019-05-04T10:16:34.000Z</time>
      </trkpt>
      <trkpt lat="42.43528909049928188323974609375" lon="-8.70747146196663379669189453125">
        <ele>42.59999847412109375</ele>
        <time>2019-05-04T10:16:44.000Z</time>
      </trkpt>
      <trkpt lat="42.4353329278528690338134765625" lon="-8.7076936662197113037109375">
        <ele>46.40000152587890625</ele>
        <time>2019-05-04T10:17:00.000Z</time>
      </trkpt>
      <trkpt lat="42.43534139357507228851318359375" lon="-8.70778528042137622833251953125">
        <ele>47.59999847412109375</ele>
        <time>2019-05-04T10:17:06.000Z</time>
      </trkpt>
      <trkpt lat="42.435345835983753204345703125" lon="-8.708432279527187347412109375">
        <ele>55.799999237060546875</ele>
        <time>2019-05-04T10:17:51.000Z</time>
      </trkpt>
      <trkpt lat="42.43542521260678768157958984375" lon="-8.70844057761132717132568359375">
        <ele>57.40000152587890625</ele>
        <time>2019-05-04T10:18:14.000Z</time>
      </trkpt>
      <trkpt lat="42.43555270135402679443359375" lon="-8.7085412442684173583984375">
        <ele>61.200000762939453125</ele>
        <time>2019-05-04T10:18:26.000Z</time>
      </trkpt>
      <trkpt lat="42.4355977959930896759033203125" lon="-8.7085370533168315887451171875">
        <ele>62</ele>
        <time>2019-05-04T10:18:40.000Z</time>
      </trkpt>
      <trkpt lat="42.435872890055179595947265625" lon="-8.708533532917499542236328125">
        <ele>66.1999969482421875</ele>
        <time>2019-05-04T10:19:40.000Z</time>
      </trkpt>
      <trkpt lat="42.43595645762979984283447265625" lon="-8.708567060530185699462890625">
        <ele>67</ele>
        <time>2019-05-04T10:19:45.000Z</time>
      </trkpt>
      <trkpt lat="42.436042539775371551513671875" lon="-8.70856211520731449127197265625">
        <ele>67.1999969482421875</ele>
        <time>2019-05-04T10:19:49.000Z</time>
      </trkpt>
      <trkpt lat="42.43658593855798244476318359375" lon="-8.70864786207675933837890625">
        <ele>70.59999847412109375</ele>
        <time>2019-05-04T10:20:10.000Z</time>
      </trkpt>
      <trkpt lat="42.4371236376464366912841796875" lon="-8.7086319364607334136962890625">
        <ele>76.8000030517578125</ele>
        <time>2019-05-04T10:20:34.000Z</time>
      </trkpt>
      <trkpt lat="42.43759579025208950042724609375" lon="-8.7082581035792827606201171875">
        <ele>79.40000152587890625</ele>
        <time>2019-05-04T10:21:02.000Z</time>
      </trkpt>
      <trkpt lat="42.4377080239355564117431640625" lon="-8.7082104943692684173583984375">
        <ele>80.1999969482421875</ele>
        <time>2019-05-04T10:21:08.000Z</time>
      </trkpt>
      <trkpt lat="42.43779544718563556671142578125" lon="-8.7081310339272022247314453125">
        <ele>80.40000152587890625</ele>
        <time>2019-05-04T10:21:13.000Z</time>
      </trkpt>
      <trkpt lat="42.4382595531642436981201171875" lon="-8.70774068869650363922119140625">
        <ele>81.59999847412109375</ele>
        <time>2019-05-04T10:21:35.000Z</time>
      </trkpt>
      <trkpt lat="42.43881200440227985382080078125" lon="-8.70767262764275074005126953125">
        <ele>84.40000152587890625</ele>
        <time>2019-05-04T10:21:54.000Z</time>
      </trkpt>
      <trkpt lat="42.43934006430208683013916015625" lon="-8.70752661488950252532958984375">
        <ele>84.1999969482421875</ele>
        <time>2019-05-04T10:22:11.000Z</time>
      </trkpt>
      <trkpt lat="42.439676932990550994873046875" lon="-8.70733668096363544464111328125">
        <ele>83</ele>
        <time>2019-05-04T10:22:29.000Z</time>
      </trkpt>
      <trkpt lat="42.43971842341125011444091796875" lon="-8.7072834558784961700439453125">
        <ele>81.8000030517578125</ele>
        <time>2019-05-04T10:23:33.000Z</time>
      </trkpt>
      <trkpt lat="42.44000785052776336669921875" lon="-8.7072190828621387481689453125">
        <ele>83.59999847412109375</ele>
        <time>2019-05-04T10:23:46.000Z</time>
      </trkpt>
      <trkpt lat="42.44001598097383975982666015625" lon="-8.70720474980771541595458984375">
        <ele>83.1999969482421875</ele>
        <time>2019-05-04T10:23:49.000Z</time>
      </trkpt>
      <trkpt lat="42.44006241671741008758544921875" lon="-8.7072055041790008544921875">
        <ele>83.1999969482421875</ele>
        <time>2019-05-04T10:24:21.000Z</time>
      </trkpt>
      <trkpt lat="42.44034371338784694671630859375" lon="-8.70718915946781635284423828125">
        <ele>83</ele>
        <time>2019-05-04T10:24:30.000Z</time>
      </trkpt>
      <trkpt lat="42.44075476191937923431396484375" lon="-8.707077093422412872314453125">
        <ele>80.1999969482421875</ele>
        <time>2019-05-04T10:24:37.000Z</time>
      </trkpt>
      <trkpt lat="42.44110294617712497711181640625" lon="-8.70717977173626422882080078125">
        <ele>86.40000152587890625</ele>
        <time>2019-05-04T10:24:42.000Z</time>
      </trkpt>
      <trkpt lat="42.4413028545677661895751953125" lon="-8.70664936490356922149658203125">
        <ele>81</ele>
        <time>2019-05-04T10:24:57.000Z</time>
      </trkpt>
      <trkpt lat="42.441097162663936614990234375" lon="-8.70601049624383449554443359375">
        <ele>77</ele>
        <time>2019-05-04T10:25:14.000Z</time>
      </trkpt>
      <trkpt lat="42.44096229784190654754638671875" lon="-8.705868087708950042724609375">
        <ele>72.1999969482421875</ele>
        <time>2019-05-04T10:25:17.000Z</time>
      </trkpt>
      <trkpt lat="42.44089054875075817108154296875" lon="-8.70557539165019989013671875">
        <ele>69.8000030517578125</ele>
        <time>2019-05-04T10:25:22.000Z</time>
      </trkpt>
      <trkpt lat="42.44085450656712055206298828125" lon="-8.705385290086269378662109375">
        <ele>68.40000152587890625</ele>
        <time>2019-05-04T10:25:25.000Z</time>
      </trkpt>
      <trkpt lat="42.44094989262521266937255859375" lon="-8.7047142349183559417724609375">
        <ele>66</ele>
        <time>2019-05-04T10:25:35.000Z</time>
      </trkpt>
      <trkpt lat="42.4408359825611114501953125" lon="-8.7039353884756565093994140625">
        <ele>65.8000030517578125</ele>
        <time>2019-05-04T10:25:43.000Z</time>
      </trkpt>
      <trkpt lat="42.44080639444291591644287109375" lon="-8.7038532458245754241943359375">
        <ele>66.1999969482421875</ele>
        <time>2019-05-04T10:25:44.000Z</time>
      </trkpt>
      <trkpt lat="42.44074202142655849456787109375" lon="-8.70368988253176212310791015625">
        <ele>66.8000030517578125</ele>
        <time>2019-05-04T10:25:46.000Z</time>
      </trkpt>
      <trkpt lat="42.44060573168098926544189453125" lon="-8.7034009583294391632080078125">
        <ele>66.40000152587890625</ele>
        <time>2019-05-04T10:25:50.000Z</time>
      </trkpt>
      <trkpt lat="42.44014238007366657257080078125" lon="-8.70300943963229656219482421875">
        <ele>61.59999847412109375</ele>
        <time>2019-05-04T10:25:58.000Z</time>
      </trkpt>
      <trkpt lat="42.4396606720983982086181640625" lon="-8.7026606686413288116455078125">
        <ele>57</ele>
        <time>2019-05-04T10:26:08.000Z</time>
      </trkpt>
      <trkpt lat="42.4395109713077545166015625" lon="-8.70251406915485858917236328125">
        <ele>56</ele>
        <time>2019-05-04T10:26:16.000Z</time>
      </trkpt>
      <trkpt lat="42.4395131506025791168212890625" lon="-8.70250158011913299560546875">
        <ele>56.200000762939453125</ele>
        <time>2019-05-04T10:26:18.000Z</time>
      </trkpt>
      <trkpt lat="42.439502589404582977294921875" lon="-8.702473081648349761962890625">
        <ele>56.200000762939453125</ele>
        <time>2019-05-04T10:26:27.000Z</time>
      </trkpt>
      <trkpt lat="42.4394836463034152984619140625" lon="-8.70239429175853729248046875">
        <ele>56.59999847412109375</ele>
        <time>2019-05-04T10:26:32.000Z</time>
      </trkpt>
      <trkpt lat="42.439483143389225006103515625" lon="-8.7023981474339962005615234375">
        <ele>56.40000152587890625</ele>
        <time>2019-05-04T10:26:33.000Z</time>
      </trkpt>
      <trkpt lat="42.4394948780536651611328125" lon="-8.70241851545870304107666015625">
        <ele>56.40000152587890625</ele>
        <time>2019-05-04T10:27:05.000Z</time>
      </trkpt>
      <trkpt lat="42.4395054392516613006591796875" lon="-8.70246411301195621490478515625">
        <ele>56.200000762939453125</ele>
        <time>2019-05-04T10:27:07.000Z</time>
      </trkpt>
      <trkpt lat="42.43952664546668529510498046875" lon="-8.70258665643632411956787109375">
        <ele>55.59999847412109375</ele>
        <time>2019-05-04T10:27:11.000Z</time>
      </trkpt>
      <trkpt lat="42.4396120570600032806396484375" lon="-8.70267114602029323577880859375">
        <ele>56.200000762939453125</ele>
        <time>2019-05-04T10:27:17.000Z</time>
      </trkpt>
      <trkpt lat="42.4400982074439525604248046875" lon="-8.7030153907835483551025390625">
        <ele>60.59999847412109375</ele>
        <time>2019-05-04T10:27:42.000Z</time>
      </trkpt>
      <trkpt lat="42.44057371281087398529052734375" lon="-8.7034039758145809173583984375">
        <ele>65.8000030517578125</ele>
        <time>2019-05-04T10:28:02.000Z</time>
      </trkpt>
      <trkpt lat="42.4408435262739658355712890625" lon="-8.70406019501388072967529296875">
        <ele>64.8000030517578125</ele>
        <time>2019-05-04T10:28:19.000Z</time>
      </trkpt>
      <trkpt lat="42.440914101898670196533203125" lon="-8.70478925295174121856689453125">
        <ele>66</ele>
        <time>2019-05-04T10:28:36.000Z</time>
      </trkpt>
      <trkpt lat="42.44089490734040737152099609375" lon="-8.70495923794806003570556640625">
        <ele>66.59999847412109375</ele>
        <time>2019-05-04T10:28:42.000Z</time>
      </trkpt>
      <trkpt lat="42.4408425204455852508544921875" lon="-8.70511363260447978973388671875">
        <ele>66.8000030517578125</ele>
        <time>2019-05-04T10:28:48.000Z</time>
      </trkpt>
      <trkpt lat="42.44080446660518646240234375" lon="-8.70578192174434661865234375">
        <ele>69.59999847412109375</ele>
        <time>2019-05-04T10:29:04.000Z</time>
      </trkpt>
      <trkpt lat="42.44091955013573169708251953125" lon="-8.70592600665986537933349609375">
        <ele>71.8000030517578125</ele>
        <time>2019-05-04T10:29:08.000Z</time>
      </trkpt>
      <trkpt lat="42.44125817902386188507080078125" lon="-8.70649530552327632904052734375">
        <ele>81.8000030517578125</ele>
        <time>2019-05-04T10:29:24.000Z</time>
      </trkpt>
      <trkpt lat="42.441327832639217376708984375" lon="-8.70707332156598567962646484375">
        <ele>85.59999847412109375</ele>
        <time>2019-05-04T10:29:34.000Z</time>
      </trkpt>
      <trkpt lat="42.4411176145076751708984375" lon="-8.70725856162607669830322265625">
        <ele>89</ele>
        <time>2019-05-04T10:29:41.000Z</time>
      </trkpt>
      <trkpt lat="42.44079616852104663848876953125" lon="-8.707081787288188934326171875">
        <ele>80.40000152587890625</ele>
        <time>2019-05-04T10:29:57.000Z</time>
      </trkpt>
      <trkpt lat="42.44063682854175567626953125" lon="-8.7070943601429462432861328125">
        <ele>80.59999847412109375</ele>
        <time>2019-05-04T10:30:03.000Z</time>
      </trkpt>
      <trkpt lat="42.4401991255581378936767578125" lon="-8.70721061713993549346923828125">
        <ele>83.59999847412109375</ele>
        <time>2019-05-04T10:30:24.000Z</time>
      </trkpt>
      <trkpt lat="42.440089322626590728759765625" lon="-8.70719821192324161529541015625">
        <ele>83</ele>
        <time>2019-05-04T10:30:30.000Z</time>
      </trkpt>
      <trkpt lat="42.439569644629955291748046875" lon="-8.70739736594259738922119140625">
        <ele>83.40000152587890625</ele>
        <time>2019-05-04T10:30:54.000Z</time>
      </trkpt>
      <trkpt lat="42.43905977346003055572509765625" lon="-8.70767514221370220184326171875">
        <ele>86</ele>
        <time>2019-05-04T10:31:12.000Z</time>
      </trkpt>
      <trkpt lat="42.43856876157224178314208984375" lon="-8.70775544084608554840087890625">
        <ele>84.1999969482421875</ele>
        <time>2019-05-04T10:31:29.000Z</time>
      </trkpt>
      <trkpt lat="42.4385599605739116668701171875" lon="-8.70810605585575103759765625">
        <ele>88.8000030517578125</ele>
        <time>2019-05-04T10:31:45.000Z</time>
      </trkpt>
      <trkpt lat="42.4384783208370208740234375" lon="-8.70825248770415782928466796875">
        <ele>90.1999969482421875</ele>
        <time>2019-05-04T10:31:52.000Z</time>
      </trkpt>
      <trkpt lat="42.4384704418480396270751953125" lon="-8.7082577683031558990478515625">
        <ele>90.1999969482421875</ele>
        <time>2019-05-04T10:31:54.000Z</time>
      </trkpt>
      <trkpt lat="42.43847253732383251190185546875" lon="-8.70829456485807895660400390625">
        <ele>90.8000030517578125</ele>
        <time>2019-05-04T10:32:01.000Z</time>
      </trkpt>
      <trkpt lat="42.4384898878633975982666015625" lon="-8.70832574553787708282470703125">
        <ele>91.1999969482421875</ele>
        <time>2019-05-04T10:32:05.000Z</time>
      </trkpt>
      <trkpt lat="42.4385695159435272216796875" lon="-8.7084653042256832122802734375">
        <ele>95</ele>
        <time>2019-05-04T10:32:18.000Z</time>
      </trkpt>
      <trkpt lat="42.43868325836956501007080078125" lon="-8.7085900269448757171630859375">
        <ele>98.59999847412109375</ele>
        <time>2019-05-04T10:32:34.000Z</time>
      </trkpt>
      <trkpt lat="42.43879121728241443634033203125" lon="-8.7088605947792530059814453125">
        <ele>102.40000152587890625</ele>
        <time>2019-05-04T10:32:58.000Z</time>
      </trkpt>
      <trkpt lat="42.4388174526393413543701171875" lon="-8.7089784443378448486328125">
        <ele>104.8000030517578125</ele>
        <time>2019-05-04T10:33:07.000Z</time>
      </trkpt>
      <trkpt lat="42.4388234876096248626708984375" lon="-8.70899696834385395050048828125">
        <ele>105.1999969482421875</ele>
        <time>2019-05-04T10:33:14.000Z</time>
      </trkpt>
      <trkpt lat="42.43870069272816181182861328125" lon="-8.70967422612011432647705078125">
        <ele>111.1999969482421875</ele>
        <time>2019-05-04T10:33:45.000Z</time>
      </trkpt>
      <trkpt lat="42.43868015706539154052734375" lon="-8.70976173318922519683837890625">
        <ele>111.40000152587890625</ele>
        <time>2019-05-04T10:33:49.000Z</time>
      </trkpt>
      <trkpt lat="42.43858519010245800018310546875" lon="-8.71014093048870563507080078125">
        <ele>113</ele>
        <time>2019-05-04T10:34:08.000Z</time>
      </trkpt>
      <trkpt lat="42.43857697583734989166259765625" lon="-8.710256181657314300537109375">
        <ele>113.40000152587890625</ele>
        <time>2019-05-04T10:34:13.000Z</time>
      </trkpt>
      <trkpt lat="42.43857697583734989166259765625" lon="-8.7102704308927059173583984375">
        <ele>113.40000152587890625</ele>
        <time>2019-05-04T10:34:15.000Z</time>
      </trkpt>
      <trkpt lat="42.43858519010245800018310546875" lon="-8.71032365597784519195556640625">
        <ele>113.8000030517578125</ele>
        <time>2019-05-04T10:36:19.000Z</time>
      </trkpt>
      <trkpt lat="42.43871846236288547515869140625" lon="-8.7110211141407489776611328125">
        <ele>114.8000030517578125</ele>
        <time>2019-05-04T10:36:44.000Z</time>
      </trkpt>
      <trkpt lat="42.43872868828475475311279296875" lon="-8.71107819490134716033935546875">
        <ele>115</ele>
        <time>2019-05-04T10:36:45.000Z</time>
      </trkpt>
      <trkpt lat="42.43870119564235210418701171875" lon="-8.7114666961133480072021484375">
        <ele>115.40000152587890625</ele>
        <time>2019-05-04T10:36:56.000Z</time>
      </trkpt>
      <trkpt lat="42.438685186207294464111328125" lon="-8.71141531504690647125244140625">
        <ele>115</ele>
        <time>2019-05-04T10:39:35.000Z</time>
      </trkpt>
      <trkpt lat="42.43871158920228481292724609375" lon="-8.7113195098936557769775390625">
        <ele>115.1999969482421875</ele>
        <time>2019-05-04T10:39:39.000Z</time>
      </trkpt>
      <trkpt lat="42.4387202225625514984130859375" lon="-8.7112799473106861114501953125">
        <ele>115.1999969482421875</ele>
        <time>2019-05-04T10:39:41.000Z</time>
      </trkpt>
      <trkpt lat="42.43873053230345249176025390625" lon="-8.71129578910768032073974609375">
        <ele>115.40000152587890625</ele>
        <time>2019-05-04T10:39:43.000Z</time>
      </trkpt>
      <trkpt lat="42.43870521895587444305419921875" lon="-8.7114029936492443084716796875">
        <ele>115.1999969482421875</ele>
        <time>2019-05-04T10:39:48.000Z</time>
      </trkpt>
      <trkpt lat="42.438696585595607757568359375" lon="-8.71144934557378292083740234375">
        <ele>115.1999969482421875</ele>
        <time>2019-05-04T10:39:50.000Z</time>
      </trkpt>
      <trkpt lat="42.43887620978057384490966796875" lon="-8.71156484819948673248291015625">
        <ele>117</ele>
        <time>2019-05-04T10:40:07.000Z</time>
      </trkpt>
      <trkpt lat="42.4389914609491825103759765625" lon="-8.7115828692913055419921875">
        <ele>118.1999969482421875</ele>
        <time>2019-05-04T10:40:16.000Z</time>
      </trkpt>
      <trkpt lat="42.43903680704534053802490234375" lon="-8.71163072995841503143310546875">
        <ele>118.59999847412109375</ele>
        <time>2019-05-04T10:40:20.000Z</time>
      </trkpt>
      <trkpt lat="42.43946059606969356536865234375" lon="-8.7120889686048030853271484375">
        <ele>120.59999847412109375</ele>
        <time>2019-05-04T10:40:51.000Z</time>
      </trkpt>
      <trkpt lat="42.439501583576202392578125" lon="-8.71214956976473331451416015625">
        <ele>121.40000152587890625</ele>
        <time>2019-05-04T10:40:54.000Z</time>
      </trkpt>
      <trkpt lat="42.43971054442226886749267578125" lon="-8.71228158473968505859375">
        <ele>122.40000152587890625</ele>
        <time>2019-05-04T10:41:07.000Z</time>
      </trkpt>
      <trkpt lat="42.43973904289305210113525390625" lon="-8.71229055337607860565185546875">
        <ele>122.59999847412109375</ele>
        <time>2019-05-04T10:41:13.000Z</time>
      </trkpt>
      <trkpt lat="42.440250255167484283447265625" lon="-8.71252960525453090667724609375">
        <ele>127.1999969482421875</ele>
        <time>2019-05-04T10:41:35.000Z</time>
      </trkpt>
      <trkpt lat="42.440688796341419219970703125" lon="-8.71218494139611721038818359375">
        <ele>123.40000152587890625</ele>
        <time>2019-05-04T10:41:58.000Z</time>
      </trkpt>
      <trkpt lat="42.44124074466526508331298828125" lon="-8.7120691873133182525634765625">
        <ele>127.1999969482421875</ele>
        <time>2019-05-04T10:42:22.000Z</time>
      </trkpt>
      <trkpt lat="42.44165833108127117156982421875" lon="-8.712233640253543853759765625">
        <ele>132</ele>
        <time>2019-05-04T10:42:47.000Z</time>
      </trkpt>
      <trkpt lat="42.44170577265322208404541015625" lon="-8.712339587509632110595703125">
        <ele>133.8000030517578125</ele>
        <time>2019-05-04T10:42:54.000Z</time>
      </trkpt>
      <trkpt lat="42.441803254187107086181640625" lon="-8.71277737431228160858154296875">
        <ele>137.8000030517578125</ele>
        <time>2019-05-04T10:43:08.000Z</time>
      </trkpt>
      <trkpt lat="42.4418460018932819366455078125" lon="-8.712900169193744659423828125">
        <ele>139.1999969482421875</ele>
        <time>2019-05-04T10:43:10.000Z</time>
      </trkpt>
      <trkpt lat="42.44221857748925685882568359375" lon="-8.71291299350559711456298828125">
        <ele>142.399993896484375</ele>
        <time>2019-05-04T10:43:27.000Z</time>
      </trkpt>
      <trkpt lat="42.442262582480907440185546875" lon="-8.7121831811964511871337890625">
        <ele>142.399993896484375</ele>
        <time>2019-05-04T10:43:46.000Z</time>
      </trkpt>
      <trkpt lat="42.44226233102381229400634765625" lon="-8.7114485912024974822998046875">
        <ele>139.600006103515625</ele>
        <time>2019-05-04T10:44:06.000Z</time>
      </trkpt>
      <trkpt lat="42.44260028935968875885009765625" lon="-8.7110187672078609466552734375">
        <ele>144</ele>
        <time>2019-05-04T10:44:33.000Z</time>
      </trkpt>
      <trkpt lat="42.44305592961609363555908203125" lon="-8.7114039994776248931884765625">
        <ele>150.1999969482421875</ele>
        <time>2019-05-04T10:45:02.000Z</time>
      </trkpt>
      <trkpt lat="42.4433678202331066131591796875" lon="-8.71168755926191806793212890625">
        <ele>154.399993896484375</ele>
        <time>2019-05-04T10:45:18.000Z</time>
      </trkpt>
      <trkpt lat="42.44342540390789508819580078125" lon="-8.711627461016178131103515625">
        <ele>154.399993896484375</ele>
        <time>2019-05-04T10:45:22.000Z</time>
      </trkpt>
      <trkpt lat="42.44359555654227733612060546875" lon="-8.71165403164923191070556640625">
        <ele>155</ele>
        <time>2019-05-04T10:45:33.000Z</time>
      </trkpt>
      <trkpt lat="42.44374659843742847442626953125" lon="-8.711612708866596221923828125">
        <ele>155.600006103515625</ele>
        <time>2019-05-04T10:45:41.000Z</time>
      </trkpt>
      <trkpt lat="42.4438214488327503204345703125" lon="-8.711603991687297821044921875">
        <ele>156</ele>
        <time>2019-05-04T10:45:47.000Z</time>
      </trkpt>
      <trkpt lat="42.4438372068107128143310546875" lon="-8.711610697209835052490234375">
        <ele>156.1999969482421875</ele>
        <time>2019-05-04T10:46:04.000Z</time>
      </trkpt>
      <trkpt lat="42.4442113749682903289794921875" lon="-8.7121667526662349700927734375">
        <ele>161.600006103515625</ele>
        <time>2019-05-04T10:46:25.000Z</time>
      </trkpt>
      <trkpt lat="42.4445540271699428558349609375" lon="-8.7127394042909145355224609375">
        <ele>166.8000030517578125</ele>
        <time>2019-05-04T10:46:52.000Z</time>
      </trkpt>
      <trkpt lat="42.44458512403070926666259765625" lon="-8.712767064571380615234375">
        <ele>167</ele>
        <time>2019-05-04T10:46:54.000Z</time>
      </trkpt>
      <trkpt lat="42.444973625242710113525390625" lon="-8.71327928267419338226318359375">
        <ele>173.1999969482421875</ele>
        <time>2019-05-04T10:47:26.000Z</time>
      </trkpt>
      <trkpt lat="42.44506674818694591522216796875" lon="-8.7133764289319515228271484375">
        <ele>174.8000030517578125</ele>
        <time>2019-05-04T10:47:33.000Z</time>
      </trkpt>
      <trkpt lat="42.44531502015888690948486328125" lon="-8.71353979222476482391357421875">
        <ele>178.1999969482421875</ele>
        <time>2019-05-04T10:47:51.000Z</time>
      </trkpt>
      <trkpt lat="42.44536397047340869903564453125" lon="-8.7136495113372802734375">
        <ele>178.8000030517578125</ele>
        <time>2019-05-04T10:47:57.000Z</time>
      </trkpt>
      <trkpt lat="42.44565649889409542083740234375" lon="-8.7142669223248958587646484375">
        <ele>187.1999969482421875</ele>
        <time>2019-05-04T10:48:29.000Z</time>
      </trkpt>
      <trkpt lat="42.4459276534616947174072265625" lon="-8.71489849872887134552001953125">
        <ele>195.8000030517578125</ele>
        <time>2019-05-04T10:48:59.000Z</time>
      </trkpt>
      <trkpt lat="42.4459544755518436431884765625" lon="-8.714960105717182159423828125">
        <ele>196.600006103515625</ele>
        <time>2019-05-04T10:49:03.000Z</time>
      </trkpt>
      <trkpt lat="42.44615237228572368621826171875" lon="-8.7152321822941303253173828125">
        <ele>202.8000030517578125</ele>
        <time>2019-05-04T10:49:24.000Z</time>
      </trkpt>
      <trkpt lat="42.4462183378636837005615234375" lon="-8.7153592519462108612060546875">
        <ele>206.399993896484375</ele>
        <time>2019-05-04T10:49:32.000Z</time>
      </trkpt>
      <trkpt lat="42.44623585604131221771240234375" lon="-8.71594975702464580535888671875">
        <ele>217.8000030517578125</ele>
        <time>2019-05-04T10:49:57.000Z</time>
      </trkpt>
      <trkpt lat="42.4461690522730350494384765625" lon="-8.7163097597658634185791015625">
        <ele>223.600006103515625</ele>
        <time>2019-05-04T10:50:18.000Z</time>
      </trkpt>
      <trkpt lat="42.44618631899356842041015625" lon="-8.71646926738321781158447265625">
        <ele>227.1999969482421875</ele>
        <time>2019-05-04T10:50:58.000Z</time>
      </trkpt>
      <trkpt lat="42.44619528762996196746826171875" lon="-8.71652408502995967864990234375">
        <ele>228.399993896484375</ele>
        <time>2019-05-04T10:51:01.000Z</time>
      </trkpt>
      <trkpt lat="42.4462052620947360992431640625" lon="-8.7165555171668529510498046875">
        <ele>228.8000030517578125</ele>
        <time>2019-05-04T10:51:03.000Z</time>
      </trkpt>
      <trkpt lat="42.446228563785552978515625" lon="-8.7166366539895534515380859375">
        <ele>230</ele>
        <time>2019-05-04T10:51:07.000Z</time>
      </trkpt>
      <trkpt lat="42.44630224071443080902099609375" lon="-8.71688802726566791534423828125">
        <ele>234.1999969482421875</ele>
        <time>2019-05-04T10:51:21.000Z</time>
      </trkpt>
      <trkpt lat="42.4463065154850482940673828125" lon="-8.71690713800489902496337890625">
        <ele>234.8000030517578125</ele>
        <time>2019-05-04T10:51:24.000Z</time>
      </trkpt>
      <trkpt lat="42.44628095068037509918212890625" lon="-8.71691736392676830291748046875">
        <ele>234.600006103515625</ele>
        <time>2019-05-04T10:57:07.000Z</time>
      </trkpt>
      <trkpt lat="42.4461603350937366485595703125" lon="-8.71694804169237613677978515625">
        <ele>234</ele>
        <time>2019-05-04T10:57:14.000Z</time>
      </trkpt>
      <trkpt lat="42.44602513499557971954345703125" lon="-8.7170061282813549041748046875">
        <ele>233.8000030517578125</ele>
        <time>2019-05-04T10:57:21.000Z</time>
      </trkpt>
      <trkpt lat="42.44548969902098178863525390625" lon="-8.7169518135488033294677734375">
        <ele>232.8000030517578125</ele>
        <time>2019-05-04T10:57:44.000Z</time>
      </trkpt>
      <trkpt lat="42.44498896412551403045654296875" lon="-8.71667797677218914031982421875">
        <ele>230</ele>
        <time>2019-05-04T10:58:08.000Z</time>
      </trkpt>
      <trkpt lat="42.4446911551058292388916015625" lon="-8.71684142388403415679931640625">
        <ele>235.399993896484375</ele>
        <time>2019-05-04T10:58:21.000Z</time>
      </trkpt>
      <trkpt lat="42.44420106522738933563232421875" lon="-8.71705122292041778564453125">
        <ele>241.399993896484375</ele>
        <time>2019-05-04T10:58:45.000Z</time>
      </trkpt>
      <trkpt lat="42.443649955093860626220703125" lon="-8.71707360260188579559326171875">
        <ele>240.1999969482421875</ele>
        <time>2019-05-04T10:59:09.000Z</time>
      </trkpt>
      <trkpt lat="42.44313304312527179718017578125" lon="-8.71728516183793544769287109375">
        <ele>241.8000030517578125</ele>
        <time>2019-05-04T10:59:33.000Z</time>
      </trkpt>
      <trkpt lat="42.44269408285617828369140625" lon="-8.71769621036946773529052734375">
        <ele>248.600006103515625</ele>
        <time>2019-05-04T10:59:54.000Z</time>
      </trkpt>
      <trkpt lat="42.442252524197101593017578125" lon="-8.7181490845978260040283203125">
        <ele>258.79998779296875</ele>
        <time>2019-05-04T11:00:16.000Z</time>
      </trkpt>
      <trkpt lat="42.4417279846966266632080078125" lon="-8.718237765133380889892578125">
        <ele>260.399993896484375</ele>
        <time>2019-05-04T11:00:37.000Z</time>
      </trkpt>
      <trkpt lat="42.44119632057845592498779296875" lon="-8.71844639070332050323486328125">
        <ele>261.79998779296875</ele>
        <time>2019-05-04T11:00:56.000Z</time>
      </trkpt>
      <trkpt lat="42.4407053925096988677978515625" lon="-8.71867664158344268798828125">
        <ele>264.399993896484375</ele>
        <time>2019-05-04T11:01:15.000Z</time>
      </trkpt>
      <trkpt lat="42.44015411473810672760009765625" lon="-8.71873422525823116302490234375">
        <ele>268.600006103515625</ele>
        <time>2019-05-04T11:01:32.000Z</time>
      </trkpt>
      <trkpt lat="42.4395976401865482330322265625" lon="-8.71875149197876453399658203125">
        <ele>270.600006103515625</ele>
        <time>2019-05-04T11:01:51.000Z</time>
      </trkpt>
      <trkpt lat="42.43939773179590702056884765625" lon="-8.71875970624387264251708984375">
        <ele>272</ele>
        <time>2019-05-04T11:01:59.000Z</time>
      </trkpt>
      <trkpt lat="42.4388784728944301605224609375" lon="-8.7190125882625579833984375">
        <ele>277.20001220703125</ele>
        <time>2019-05-04T11:02:19.000Z</time>
      </trkpt>
      <trkpt lat="42.43832300417125225067138671875" lon="-8.71912113390862941741943359375">
        <ele>280.600006103515625</ele>
        <time>2019-05-04T11:02:38.000Z</time>
      </trkpt>
      <trkpt lat="42.43784892372786998748779296875" lon="-8.7191847525537014007568359375">
        <ele>280</ele>
        <time>2019-05-04T11:03:00.000Z</time>
      </trkpt>
      <trkpt lat="42.438066266477108001708984375" lon="-8.719467222690582275390625">
        <ele>283.79998779296875</ele>
        <time>2019-05-04T11:03:18.000Z</time>
      </trkpt>
      <trkpt lat="42.4382515065371990203857421875" lon="-8.719668723642826080322265625">
        <ele>285.399993896484375</ele>
        <time>2019-05-04T11:03:30.000Z</time>
      </trkpt>
      <trkpt lat="42.4382789991796016693115234375" lon="-8.71970786713063716888427734375">
        <ele>285.600006103515625</ele>
        <time>2019-05-04T11:03:32.000Z</time>
      </trkpt>
      <trkpt lat="42.4382313899695873260498046875" lon="-8.7204316444694995880126953125">
        <ele>291.399993896484375</ele>
        <time>2019-05-04T11:03:57.000Z</time>
      </trkpt>
      <trkpt lat="42.4382417835295200347900390625" lon="-8.7211692519485950469970703125">
        <ele>298.79998779296875</ele>
        <time>2019-05-04T11:04:23.000Z</time>
      </trkpt>
      <trkpt lat="42.43872131220996379852294921875" lon="-8.72134141623973846435546875">
        <ele>301.399993896484375</ele>
        <time>2019-05-04T11:04:49.000Z</time>
      </trkpt>
      <trkpt lat="42.4390055425465106964111328125" lon="-8.72129439376294612884521484375">
        <ele>302.20001220703125</ele>
        <time>2019-05-04T11:05:02.000Z</time>
      </trkpt>
      <trkpt lat="42.43905164301395416259765625" lon="-8.72174131684005260467529296875">
        <ele>306.20001220703125</ele>
        <time>2019-05-04T11:05:26.000Z</time>
      </trkpt>
      <trkpt lat="42.43903663940727710723876953125" lon="-8.7217875011265277862548828125">
        <ele>306.600006103515625</ele>
        <time>2019-05-04T11:05:28.000Z</time>
      </trkpt>
      <trkpt lat="42.43879524059593677520751953125" lon="-8.7224443070590496063232421875">
        <ele>311.20001220703125</ele>
        <time>2019-05-04T11:05:58.000Z</time>
      </trkpt>
      <trkpt lat="42.43874444626271724700927734375" lon="-8.7226662598550319671630859375">
        <ele>313.600006103515625</ele>
        <time>2019-05-04T11:06:07.000Z</time>
      </trkpt>
      <trkpt lat="42.43868627585470676422119140625" lon="-8.72281822375953197479248046875">
        <ele>314.600006103515625</ele>
        <time>2019-05-04T11:06:15.000Z</time>
      </trkpt>
      <trkpt lat="42.43864956311881542205810546875" lon="-8.7229488976299762725830078125">
        <ele>315.600006103515625</ele>
        <time>2019-05-04T11:06:23.000Z</time>
      </trkpt>
      <trkpt lat="42.43863992393016815185546875" lon="-8.72299357317388057708740234375">
        <ele>316</ele>
        <time>2019-05-04T11:07:09.000Z</time>
      </trkpt>
      <trkpt lat="42.4386166222393512725830078125" lon="-8.72309985570609569549560546875">
        <ele>316.79998779296875</ele>
        <time>2019-05-04T11:07:13.000Z</time>
      </trkpt>
      <trkpt lat="42.43858066387474536895751953125" lon="-8.72335307300090789794921875">
        <ele>318.79998779296875</ele>
        <time>2019-05-04T11:07:24.000Z</time>
      </trkpt>
      <trkpt lat="42.43863346986472606658935546875" lon="-8.72368088923394680023193359375">
        <ele>320.399993896484375</ele>
        <time>2019-05-04T11:07:39.000Z</time>
      </trkpt>
      <trkpt lat="42.43864034302532672882080078125" lon="-8.72373922728002071380615234375">
        <ele>320.600006103515625</ele>
        <time>2019-05-04T11:07:44.000Z</time>
      </trkpt>
      <trkpt lat="42.4386685900390148162841796875" lon="-8.7237699888646602630615234375">
        <ele>320.79998779296875</ele>
        <time>2019-05-04T11:08:40.000Z</time>
      </trkpt>
      <trkpt lat="42.43884268216788768768310546875" lon="-8.72406763024628162384033203125">
        <ele>321.600006103515625</ele>
        <time>2019-05-04T11:08:52.000Z</time>
      </trkpt>
      <trkpt lat="42.439154572784900665283203125" lon="-8.72466995380818843841552734375">
        <ele>321.20001220703125</ele>
        <time>2019-05-04T11:09:09.000Z</time>
      </trkpt>
      <trkpt lat="42.4395185150206089019775390625" lon="-8.72514872811734676361083984375">
        <ele>323.79998779296875</ele>
        <time>2019-05-04T11:09:28.000Z</time>
      </trkpt>
      <trkpt lat="42.43994808755815029144287109375" lon="-8.72553597204387187957763671875">
        <ele>326.79998779296875</ele>
        <time>2019-05-04T11:09:47.000Z</time>
      </trkpt>
      <trkpt lat="42.4400130473077297210693359375" lon="-8.72623301111161708831787109375">
        <ele>326.79998779296875</ele>
        <time>2019-05-04T11:10:05.000Z</time>
      </trkpt>
      <trkpt lat="42.43991925381124019622802734375" lon="-8.7269571237266063690185546875">
        <ele>327.399993896484375</ele>
        <time>2019-05-04T11:10:26.000Z</time>
      </trkpt>
      <trkpt lat="42.4403245188295841217041015625" lon="-8.72744671069085597991943359375">
        <ele>328.600006103515625</ele>
        <time>2019-05-04T11:10:48.000Z</time>
      </trkpt>
      <trkpt lat="42.440719641745090484619140625" lon="-8.72801014222204685211181640625">
        <ele>327</ele>
        <time>2019-05-04T11:11:05.000Z</time>
      </trkpt>
      <trkpt lat="42.44103589095175266265869140625" lon="-8.7280487827956676483154296875">
        <ele>329</ele>
        <time>2019-05-04T11:11:13.000Z</time>
      </trkpt>
      <trkpt lat="42.44121878407895565032958984375" lon="-8.7282338552176952362060546875">
        <ele>328.79998779296875</ele>
        <time>2019-05-04T11:11:19.000Z</time>
      </trkpt>
      <trkpt lat="42.44163536466658115386962890625" lon="-8.72847206890583038330078125">
        <ele>331.399993896484375</ele>
        <time>2019-05-04T11:11:40.000Z</time>
      </trkpt>
      <trkpt lat="42.44191666133701801300048828125" lon="-8.7285416387021541595458984375">
        <ele>334.399993896484375</ele>
        <time>2019-05-04T11:11:56.000Z</time>
      </trkpt>
      <trkpt lat="42.44226786307990550994873046875" lon="-8.7286187522113323211669921875">
        <ele>338.600006103515625</ele>
        <time>2019-05-04T11:12:13.000Z</time>
      </trkpt>
      <trkpt lat="42.44234397076070308685302734375" lon="-8.7286120466887950897216796875">
        <ele>339.600006103515625</ele>
        <time>2019-05-04T11:12:17.000Z</time>
      </trkpt>
      <trkpt lat="42.44264236651360988616943359375" lon="-8.7286308221518993377685546875">
        <ele>343</ele>
        <time>2019-05-04T11:12:31.000Z</time>
      </trkpt>
      <trkpt lat="42.44293623603880405426025390625" lon="-8.72882151044905185699462890625">
        <ele>344.79998779296875</ele>
        <time>2019-05-04T11:12:45.000Z</time>
      </trkpt>
      <trkpt lat="42.44306020438671112060546875" lon="-8.7288769148290157318115234375">
        <ele>346.20001220703125</ele>
        <time>2019-05-04T11:12:52.000Z</time>
      </trkpt>
      <trkpt lat="42.4431401677429676055908203125" lon="-8.7290790863335132598876953125">
        <ele>346.399993896484375</ele>
        <time>2019-05-04T11:12:59.000Z</time>
      </trkpt>
      <trkpt lat="42.44314813055098056793212890625" lon="-8.7297570146620273590087890625">
        <ele>344.399993896484375</ele>
        <time>2019-05-04T11:13:19.000Z</time>
      </trkpt>
      <trkpt lat="42.44323245249688625335693359375" lon="-8.72988131828606128692626953125">
        <ele>346.20001220703125</ele>
        <time>2019-05-04T11:13:23.000Z</time>
      </trkpt>
      <trkpt lat="42.4431780539453029632568359375" lon="-8.7305890023708343505859375">
        <ele>347.20001220703125</ele>
        <time>2019-05-04T11:13:43.000Z</time>
      </trkpt>
      <trkpt lat="42.4429208971560001373291015625" lon="-8.7312647514045238494873046875">
        <ele>346.600006103515625</ele>
        <time>2019-05-04T11:14:03.000Z</time>
      </trkpt>
      <trkpt lat="42.44264773093163967132568359375" lon="-8.73189934529364109039306640625">
        <ele>347.600006103515625</ele>
        <time>2019-05-04T11:14:24.000Z</time>
      </trkpt>
      <trkpt lat="42.44254387915134429931640625" lon="-8.73260158114135265350341796875">
        <ele>351.600006103515625</ele>
        <time>2019-05-04T11:14:48.000Z</time>
      </trkpt>
      <trkpt lat="42.44263909757137298583984375" lon="-8.73330733738839626312255859375">
        <ele>357.399993896484375</ele>
        <time>2019-05-04T11:15:13.000Z</time>
      </trkpt>
      <trkpt lat="42.442704141139984130859375" lon="-8.73385501094162464141845703125">
        <ele>358.399993896484375</ele>
        <time>2019-05-04T11:15:36.000Z</time>
      </trkpt>
      <trkpt lat="42.44284705258905887603759765625" lon="-8.733878396451473236083984375">
        <ele>361.20001220703125</ele>
        <time>2019-05-04T11:15:45.000Z</time>
      </trkpt>
      <trkpt lat="42.44312767870724201202392578125" lon="-8.73376063071191310882568359375">
        <ele>367</ele>
        <time>2019-05-04T11:16:04.000Z</time>
      </trkpt>
      <trkpt lat="42.44329833425581455230712890625" lon="-8.73372039757668972015380859375">
        <ele>370.399993896484375</ele>
        <time>2019-05-04T11:16:14.000Z</time>
      </trkpt>
      <trkpt lat="42.443399839103221893310546875" lon="-8.7337766401469707489013671875">
        <ele>372.600006103515625</ele>
        <time>2019-05-04T11:16:19.000Z</time>
      </trkpt>
      <trkpt lat="42.4436031840741634368896484375" lon="-8.73394243419170379638671875">
        <ele>377</ele>
        <time>2019-05-04T11:16:33.000Z</time>
      </trkpt>
      <trkpt lat="42.4436880089342594146728515625" lon="-8.73396665789186954498291015625">
        <ele>378.79998779296875</ele>
        <time>2019-05-04T11:16:38.000Z</time>
      </trkpt>
      <trkpt lat="42.4442080222070217132568359375" lon="-8.734192885458469390869140625">
        <ele>382.79998779296875</ele>
        <time>2019-05-04T11:17:03.000Z</time>
      </trkpt>
      <trkpt lat="42.444747984409332275390625" lon="-8.7343992479145526885986328125">
        <ele>384.79998779296875</ele>
        <time>2019-05-04T11:17:23.000Z</time>
      </trkpt>
      <trkpt lat="42.44528643786907196044921875" lon="-8.73460829257965087890625">
        <ele>390</ele>
        <time>2019-05-04T11:17:46.000Z</time>
      </trkpt>
      <trkpt lat="42.44582514278590679168701171875" lon="-8.73473511077463626861572265625">
        <ele>394.399993896484375</ele>
        <time>2019-05-04T11:18:08.000Z</time>
      </trkpt>
      <trkpt lat="42.44633828289806842803955078125" lon="-8.73503744602203369140625">
        <ele>394.600006103515625</ele>
        <time>2019-05-04T11:18:34.000Z</time>
      </trkpt>
      <trkpt lat="42.44637139141559600830078125" lon="-8.735043816268444061279296875">
        <ele>395</ele>
        <time>2019-05-04T11:18:35.000Z</time>
      </trkpt>
      <trkpt lat="42.44683097116649150848388671875" lon="-8.735017664730548858642578125">
        <ele>400.20001220703125</ele>
        <time>2019-05-04T11:18:57.000Z</time>
      </trkpt>
      <trkpt lat="42.4469814263284206390380859375" lon="-8.73490124009549617767333984375">
        <ele>402.79998779296875</ele>
        <time>2019-05-04T11:19:06.000Z</time>
      </trkpt>
      <trkpt lat="42.4471701867878437042236328125" lon="-8.734964020550251007080078125">
        <ele>405.79998779296875</ele>
        <time>2019-05-04T11:19:19.000Z</time>
      </trkpt>
      <trkpt lat="42.44718938134610652923583984375" lon="-8.7350463308393955230712890625">
        <ele>406.20001220703125</ele>
        <time>2019-05-04T11:19:23.000Z</time>
      </trkpt>
      <trkpt lat="42.447194159030914306640625" lon="-8.73536073602735996246337890625">
        <ele>407.20001220703125</ele>
        <time>2019-05-04T11:19:38.000Z</time>
      </trkpt>
      <trkpt lat="42.44724185205996036529541015625" lon="-8.735586963593959808349609375">
        <ele>408.399993896484375</ele>
        <time>2019-05-04T11:19:49.000Z</time>
      </trkpt>
      <trkpt lat="42.44731946848332881927490234375" lon="-8.7357168830931186676025390625">
        <ele>409</ele>
        <time>2019-05-04T11:19:57.000Z</time>
      </trkpt>
      <trkpt lat="42.4473512358963489532470703125" lon="-8.7357825972139835357666015625">
        <ele>409.20001220703125</ele>
        <time>2019-05-04T11:20:01.000Z</time>
      </trkpt>
      <trkpt lat="42.4474152736365795135498046875" lon="-8.73588225804269313812255859375">
        <ele>409.600006103515625</ele>
        <time>2019-05-04T11:20:07.000Z</time>
      </trkpt>
      <trkpt lat="42.4478714168071746826171875" lon="-8.7362784706056118011474609375">
        <ele>410.399993896484375</ele>
        <time>2019-05-04T11:20:38.000Z</time>
      </trkpt>
      <trkpt lat="42.4480224587023258209228515625" lon="-8.7363240681588649749755859375">
        <ele>410.600006103515625</ele>
        <time>2019-05-04T11:20:47.000Z</time>
      </trkpt>
      <trkpt lat="42.44810367934405803680419921875" lon="-8.73636086471378803253173828125">
        <ele>410.20001220703125</ele>
        <time>2019-05-04T11:21:14.000Z</time>
      </trkpt>
      <trkpt lat="42.44863517582416534423828125" lon="-8.73649665154516696929931640625">
        <ele>407.20001220703125</ele>
        <time>2019-05-04T11:21:30.000Z</time>
      </trkpt>
      <trkpt lat="42.4490494094789028167724609375" lon="-8.736606203019618988037109375">
        <ele>405</ele>
        <time>2019-05-04T11:21:37.000Z</time>
      </trkpt>
      <trkpt lat="42.44915577583014965057373046875" lon="-8.73663361184298992156982421875">
        <ele>404.399993896484375</ele>
        <time>2019-05-04T11:21:39.000Z</time>
      </trkpt>
      <trkpt lat="42.44970562867820262908935546875" lon="-8.7367793731391429901123046875">
        <ele>407.79998779296875</ele>
        <time>2019-05-04T11:22:03.000Z</time>
      </trkpt>
      <trkpt lat="42.4502285756170749664306640625" lon="-8.73664014972746372222900390625">
        <ele>410.600006103515625</ele>
        <time>2019-05-04T11:22:27.000Z</time>
      </trkpt>
      <trkpt lat="42.4507519416511058807373046875" lon="-8.73634359799325466156005859375">
        <ele>412.600006103515625</ele>
        <time>2019-05-04T11:22:42.000Z</time>
      </trkpt>
      <trkpt lat="42.4508075974881649017333984375" lon="-8.73631794936954975128173828125">
        <ele>412.600006103515625</ele>
        <time>2019-05-04T11:22:43.000Z</time>
      </trkpt>
      <trkpt lat="42.45131579227745532989501953125" lon="-8.73602190054953098297119140625">
        <ele>411</ele>
        <time>2019-05-04T11:22:55.000Z</time>
      </trkpt>
      <trkpt lat="42.4516975879669189453125" lon="-8.73551244847476482391357421875">
        <ele>413</ele>
        <time>2019-05-04T11:23:12.000Z</time>
      </trkpt>
      <trkpt lat="42.45175031013786792755126953125" lon="-8.73478657566010951995849609375">
        <ele>419.20001220703125</ele>
        <time>2019-05-04T11:23:30.000Z</time>
      </trkpt>
      <trkpt lat="42.45162173174321651458740234375" lon="-8.73408257961273193359375">
        <ele>427.79998779296875</ele>
        <time>2019-05-04T11:23:56.000Z</time>
      </trkpt>
      <trkpt lat="42.4517634697258472442626953125" lon="-8.73340305872261524200439453125">
        <ele>435.399993896484375</ele>
        <time>2019-05-04T11:24:17.000Z</time>
      </trkpt>
      <trkpt lat="42.45185039006173610687255859375" lon="-8.7333662621676921844482421875">
        <ele>435</ele>
        <time>2019-05-04T11:24:20.000Z</time>
      </trkpt>
      <trkpt lat="42.45199338532984256744384765625" lon="-8.73361243866384029388427734375">
        <ele>432</ele>
        <time>2019-05-04T11:24:28.000Z</time>
      </trkpt>
      <trkpt lat="42.45225708000361919403076171875" lon="-8.7341320328414440155029296875">
        <ele>424.20001220703125</ele>
        <time>2019-05-04T11:24:41.000Z</time>
      </trkpt>
      <trkpt lat="42.4523277394473552703857421875" lon="-8.73421870172023773193359375">
        <ele>423</ele>
        <time>2019-05-04T11:24:43.000Z</time>
      </trkpt>
      <trkpt lat="42.452494204044342041015625" lon="-8.73434702865779399871826171875">
        <ele>421.20001220703125</ele>
        <time>2019-05-04T11:24:47.000Z</time>
      </trkpt>
      <trkpt lat="42.45271003805100917816162109375" lon="-8.73444342054426670074462890625">
        <ele>420.399993896484375</ele>
        <time>2019-05-04T11:24:52.000Z</time>
      </trkpt>
      <trkpt lat="42.45288974605500698089599609375" lon="-8.73443637974560260772705078125">
        <ele>420.600006103515625</ele>
        <time>2019-05-04T11:24:56.000Z</time>
      </trkpt>
      <trkpt lat="42.453021593391895294189453125" lon="-8.73441039584577083587646484375">
        <ele>420.79998779296875</ele>
        <time>2019-05-04T11:24:59.000Z</time>
      </trkpt>
      <trkpt lat="42.4534093402326107025146484375" lon="-8.73421224765479564666748046875">
        <ele>422.20001220703125</ele>
        <time>2019-05-04T11:25:08.000Z</time>
      </trkpt>
      <trkpt lat="42.4538907967507839202880859375" lon="-8.73384344391524791717529296875">
        <ele>424.20001220703125</ele>
        <time>2019-05-04T11:25:19.000Z</time>
      </trkpt>
      <trkpt lat="42.45397604070603847503662109375" lon="-8.73378259129822254180908203125">
        <ele>424.600006103515625</ele>
        <time>2019-05-04T11:25:21.000Z</time>
      </trkpt>
      <trkpt lat="42.45406522415578365325927734375" lon="-8.7337478064000606536865234375">
        <ele>424.79998779296875</ele>
        <time>2019-05-04T11:25:23.000Z</time>
      </trkpt>
      <trkpt lat="42.45425901375710964202880859375" lon="-8.7338262610137462615966796875">
        <ele>425.20001220703125</ele>
        <time>2019-05-04T11:25:27.000Z</time>
      </trkpt>
      <trkpt lat="42.45476980693638324737548828125" lon="-8.734194226562976837158203125">
        <ele>424.79998779296875</ele>
        <time>2019-05-04T11:25:41.000Z</time>
      </trkpt>
      <trkpt lat="42.45528512634336948394775390625" lon="-8.73450544662773609161376953125">
        <ele>422</ele>
        <time>2019-05-04T11:25:53.000Z</time>
      </trkpt>
      <trkpt lat="42.45566935278475284576416015625" lon="-8.735018670558929443359375">
        <ele>419</ele>
        <time>2019-05-04T11:26:06.000Z</time>
      </trkpt>
      <trkpt lat="42.45571712963283061981201171875" lon="-8.73525462113320827484130859375">
        <ele>418</ele>
        <time>2019-05-04T11:26:10.000Z</time>
      </trkpt>
      <trkpt lat="42.4557321332395076751708984375" lon="-8.73537833802402019500732421875">
        <ele>417.600006103515625</ele>
        <time>2019-05-04T11:26:12.000Z</time>
      </trkpt>
      <trkpt lat="42.455772869288921356201171875" lon="-8.73557531274855136871337890625">
        <ele>417.20001220703125</ele>
        <time>2019-05-04T11:26:15.000Z</time>
      </trkpt>
      <trkpt lat="42.45584637857973575592041015625" lon="-8.73584671877324581146240234375">
        <ele>416.600006103515625</ele>
        <time>2019-05-04T11:26:19.000Z</time>
      </trkpt>
      <trkpt lat="42.4559061415493488311767578125" lon="-8.73610303737223148345947265625">
        <ele>415.600006103515625</ele>
        <time>2019-05-04T11:26:23.000Z</time>
      </trkpt>
      <trkpt lat="42.45596297085285186767578125" lon="-8.736352063715457916259765625">
        <ele>415.20001220703125</ele>
        <time>2019-05-04T11:26:27.000Z</time>
      </trkpt>
      <trkpt lat="42.4561562575399875640869140625" lon="-8.73694944195449352264404296875">
        <ele>414.600006103515625</ele>
        <time>2019-05-04T11:26:36.000Z</time>
      </trkpt>
      <trkpt lat="42.4564611911773681640625" lon="-8.7366533093154430389404296875">
        <ele>413.20001220703125</ele>
        <time>2019-05-04T11:26:48.000Z</time>
      </trkpt>
      <trkpt lat="42.45646496303379535675048828125" lon="-8.73641970567405223846435546875">
        <ele>412.600006103515625</ele>
        <time>2019-05-04T11:26:51.000Z</time>
      </trkpt>
      <trkpt lat="42.4565297551453113555908203125" lon="-8.73577170073986053466796875">
        <ele>414.399993896484375</ele>
        <time>2019-05-04T11:26:58.000Z</time>
      </trkpt>
      <trkpt lat="42.4567510373890399932861328125" lon="-8.73531036078929901123046875">
        <ele>417.399993896484375</ele>
        <time>2019-05-04T11:27:04.000Z</time>
      </trkpt>
      <trkpt lat="42.45679504238069057464599609375" lon="-8.7352595664560794830322265625">
        <ele>417.600006103515625</ele>
        <time>2019-05-04T11:27:05.000Z</time>
      </trkpt>
      <trkpt lat="42.4573203362524509429931640625" lon="-8.7351552955806255340576171875">
        <ele>415.79998779296875</ele>
        <time>2019-05-04T11:27:15.000Z</time>
      </trkpt>
      <trkpt lat="42.4578239209949970245361328125" lon="-8.73542460612952709197998046875">
        <ele>412.20001220703125</ele>
        <time>2019-05-04T11:27:22.000Z</time>
      </trkpt>
      <trkpt lat="42.45796079747378826141357421875" lon="-8.7355519272387027740478515625">
        <ele>411.399993896484375</ele>
        <time>2019-05-04T11:27:24.000Z</time>
      </trkpt>
      <trkpt lat="42.458078898489475250244140625" lon="-8.7356940843164920806884765625">
        <ele>410</ele>
        <time>2019-05-04T11:27:26.000Z</time>
      </trkpt>
      <trkpt lat="42.45831392705440521240234375" lon="-8.73596523888409137725830078125">
        <ele>407.600006103515625</ele>
        <time>2019-05-04T11:27:30.000Z</time>
      </trkpt>
      <trkpt lat="42.4588696472346782684326171875" lon="-8.7360642291605472564697265625">
        <ele>403</ele>
        <time>2019-05-04T11:27:37.000Z</time>
      </trkpt>
      <trkpt lat="42.45924456976354122161865234375" lon="-8.735867254436016082763671875">
        <ele>401</ele>
        <time>2019-05-04T11:27:42.000Z</time>
      </trkpt>
      <trkpt lat="42.45938588865101337432861328125" lon="-8.735742531716823577880859375">
        <ele>399.79998779296875</ele>
        <time>2019-05-04T11:27:44.000Z</time>
      </trkpt>
      <trkpt lat="42.45954774320125579833984375" lon="-8.7355063296854496002197265625">
        <ele>399</ele>
        <time>2019-05-04T11:27:47.000Z</time>
      </trkpt>
      <trkpt lat="42.45984186418354511260986328125" lon="-8.7348431535065174102783203125">
        <ele>395.600006103515625</ele>
        <time>2019-05-04T11:27:55.000Z</time>
      </trkpt>
      <trkpt lat="42.45999910868704319000244140625" lon="-8.7344304285943508148193359375">
        <ele>392</ele>
        <time>2019-05-04T11:28:00.000Z</time>
      </trkpt>
      <trkpt lat="42.45971026830375194549560546875" lon="-8.7338048033416271209716796875">
        <ele>398</ele>
        <time>2019-05-04T11:28:09.000Z</time>
      </trkpt>
      <trkpt lat="42.45964623056352138519287109375" lon="-8.73375979252159595489501953125">
        <ele>399</ele>
        <time>2019-05-04T11:28:10.000Z</time>
      </trkpt>
      <trkpt lat="42.45934666134417057037353515625" lon="-8.73351755551993846893310546875">
        <ele>404.20001220703125</ele>
        <time>2019-05-04T11:28:15.000Z</time>
      </trkpt>
      <trkpt lat="42.4596032314002513885498046875" lon="-8.7330796010792255401611328125">
        <ele>405.399993896484375</ele>
        <time>2019-05-04T11:28:23.000Z</time>
      </trkpt>
      <trkpt lat="42.45981168933212757110595703125" lon="-8.7329820357263088226318359375">
        <ele>403.399993896484375</ele>
        <time>2019-05-04T11:28:26.000Z</time>
      </trkpt>
      <trkpt lat="42.46022894047200679779052734375" lon="-8.73302042484283447265625">
        <ele>399.79998779296875</ele>
        <time>2019-05-04T11:28:33.000Z</time>
      </trkpt>
      <trkpt lat="42.46074937283992767333984375" lon="-8.73328805901110172271728515625">
        <ele>392</ele>
        <time>2019-05-04T11:28:41.000Z</time>
      </trkpt>
      <trkpt lat="42.46126678772270679473876953125" lon="-8.73372090049088001251220703125">
        <ele>384.399993896484375</ele>
        <time>2019-05-04T11:28:47.000Z</time>
      </trkpt>
      <trkpt lat="42.46178428642451763153076171875" lon="-8.73413622379302978515625">
        <ele>375.79998779296875</ele>
        <time>2019-05-04T11:28:52.000Z</time>
      </trkpt>
      <trkpt lat="42.4622547626495361328125" lon="-8.734503686428070068359375">
        <ele>371.79998779296875</ele>
        <time>2019-05-04T11:28:57.000Z</time>
      </trkpt>
      <trkpt lat="42.46271987445652484893798828125" lon="-8.73489252291619777679443359375">
        <ele>366.20001220703125</ele>
        <time>2019-05-04T11:29:03.000Z</time>
      </trkpt>
      <trkpt lat="42.462943755090236663818359375" lon="-8.73505865223705768585205078125">
        <ele>365.600006103515625</ele>
        <time>2019-05-04T11:29:07.000Z</time>
      </trkpt>
      <trkpt lat="42.46300385333597660064697265625" lon="-8.7351247854530811309814453125">
        <ele>365.399993896484375</ele>
        <time>2019-05-04T11:29:10.000Z</time>
      </trkpt>
      <trkpt lat="42.46289673261344432830810546875" lon="-8.73511212877929210662841796875">
        <ele>364.79998779296875</ele>
        <time>2019-05-04T11:29:14.000Z</time>
      </trkpt>
      <trkpt lat="42.4626954831182956695556640625" lon="-8.735033087432384490966796875">
        <ele>364.20001220703125</ele>
        <time>2019-05-04T11:29:19.000Z</time>
      </trkpt>
      <trkpt lat="42.46241142041981220245361328125" lon="-8.73499260284006595611572265625">
        <ele>364.600006103515625</ele>
        <time>2019-05-04T11:29:28.000Z</time>
      </trkpt>
      <trkpt lat="42.4624249152839183807373046875" lon="-8.73503208160400390625">
        <ele>363.79998779296875</ele>
        <time>2019-05-04T11:29:54.000Z</time>
      </trkpt>
      <trkpt lat="42.46269288472831249237060546875" lon="-8.7352290563285350799560546875">
        <ele>362.600006103515625</ele>
        <time>2019-05-04T11:30:08.000Z</time>
      </trkpt>
      <trkpt lat="42.46283051557838916778564453125" lon="-8.73537029139697551727294921875">
        <ele>364</ele>
        <time>2019-05-04T11:30:19.000Z</time>
      </trkpt>
      <trkpt lat="42.462903521955013275146484375" lon="-8.735480010509490966796875">
        <ele>365</ele>
        <time>2019-05-04T11:30:32.000Z</time>
      </trkpt>
      <trkpt lat="42.4629124067723751068115234375" lon="-8.735511861741542816162109375">
        <ele>365.20001220703125</ele>
        <time>2019-05-04T11:30:34.000Z</time>
      </trkpt>
      <trkpt lat="42.46294467709958553314208984375" lon="-8.73557187616825103759765625">
        <ele>365.600006103515625</ele>
        <time>2019-05-04T11:30:40.000Z</time>
      </trkpt>
      <trkpt lat="42.462981976568698883056640625" lon="-8.73563499189913272857666015625">
        <ele>364.399993896484375</ele>
        <time>2019-05-04T11:30:44.000Z</time>
      </trkpt>
      <trkpt lat="42.463062442839145660400390625" lon="-8.735740520060062408447265625">
        <ele>361.79998779296875</ele>
        <time>2019-05-04T11:30:48.000Z</time>
      </trkpt>
      <trkpt lat="42.46339260600507259368896484375" lon="-8.73607805930078029632568359375">
        <ele>353.79998779296875</ele>
        <time>2019-05-04T11:31:04.000Z</time>
      </trkpt>
      <trkpt lat="42.46343920938670635223388671875" lon="-8.7362457811832427978515625">
        <ele>352.600006103515625</ele>
        <time>2019-05-04T11:31:09.000Z</time>
      </trkpt>
      <trkpt lat="42.463610954582691192626953125" lon="-8.736467398703098297119140625">
        <ele>351</ele>
        <time>2019-05-04T11:31:18.000Z</time>
      </trkpt>
      <trkpt lat="42.4637666903436183929443359375" lon="-8.73715043999254703521728515625">
        <ele>342.399993896484375</ele>
        <time>2019-05-04T11:31:40.000Z</time>
      </trkpt>
      <trkpt lat="42.46374699287116527557373046875" lon="-8.7374194152653217315673828125">
        <ele>340</ele>
        <time>2019-05-04T11:31:49.000Z</time>
      </trkpt>
      <trkpt lat="42.4637425504624843597412109375" lon="-8.7374527752399444580078125">
        <ele>339.600006103515625</ele>
        <time>2019-05-04T11:31:52.000Z</time>
      </trkpt>
      <trkpt lat="42.46374263428151607513427734375" lon="-8.73756718821823596954345703125">
        <ele>337.600006103515625</ele>
        <time>2019-05-04T11:32:01.000Z</time>
      </trkpt>
      <trkpt lat="42.46374146081507205963134765625" lon="-8.737632147967815399169921875">
        <ele>336.399993896484375</ele>
        <time>2019-05-04T11:32:05.000Z</time>
      </trkpt>
      <trkpt lat="42.4637150578200817108154296875" lon="-8.73788167722523212432861328125">
        <ele>332.20001220703125</ele>
        <time>2019-05-04T11:32:17.000Z</time>
      </trkpt>
      <trkpt lat="42.46367155574262142181396484375" lon="-8.73792543075978755950927734375">
        <ele>332.600006103515625</ele>
        <time>2019-05-04T11:32:21.000Z</time>
      </trkpt>
      <trkpt lat="42.4636121280491352081298828125" lon="-8.73813061974942684173583984375">
        <ele>330.20001220703125</ele>
        <time>2019-05-04T11:32:35.000Z</time>
      </trkpt>
      <trkpt lat="42.46361338533461093902587890625" lon="-8.73815693892538547515869140625">
        <ele>329.600006103515625</ele>
        <time>2019-05-04T11:32:37.000Z</time>
      </trkpt>
      <trkpt lat="42.4636074341833591461181640625" lon="-8.7382921390235424041748046875">
        <ele>327</ele>
        <time>2019-05-04T11:32:42.000Z</time>
      </trkpt>
      <trkpt lat="42.46353995986282825469970703125" lon="-8.73854510486125946044921875">
        <ele>324.600006103515625</ele>
        <time>2019-05-04T11:32:56.000Z</time>
      </trkpt>
      <trkpt lat="42.463472150266170501708984375" lon="-8.73864795081317424774169921875">
        <ele>324.20001220703125</ele>
        <time>2019-05-04T11:33:08.000Z</time>
      </trkpt>
      <trkpt lat="42.4635148979723453521728515625" lon="-8.73895355500280857086181640625">
        <ele>316.79998779296875</ele>
        <time>2019-05-04T11:34:33.000Z</time>
      </trkpt>
      <trkpt lat="42.463512383401393890380859375" lon="-8.7390964664518833160400390625">
        <ele>314</ele>
        <time>2019-05-04T11:34:45.000Z</time>
      </trkpt>
      <trkpt lat="42.46350861154496669769287109375" lon="-8.73916327022016048431396484375">
        <ele>312.79998779296875</ele>
        <time>2019-05-04T11:35:43.000Z</time>
      </trkpt>
      <trkpt lat="42.46350123547017574310302734375" lon="-8.7391910143196582794189453125">
        <ele>312.399993896484375</ele>
        <time>2019-05-04T11:35:44.000Z</time>
      </trkpt>
      <trkpt lat="42.463426552712917327880859375" lon="-8.7393076904118061065673828125">
        <ele>312.20001220703125</ele>
        <time>2019-05-04T11:35:54.000Z</time>
      </trkpt>
      <trkpt lat="42.46342345140874385833740234375" lon="-8.739323280751705169677734375">
        <ele>312</ele>
        <time>2019-05-04T11:35:57.000Z</time>
      </trkpt>
      <trkpt lat="42.46350274421274662017822265625" lon="-8.73939963988959789276123046875">
        <ele>309.600006103515625</ele>
        <time>2019-05-04T11:36:12.000Z</time>
      </trkpt>
      <trkpt lat="42.4635122157633304595947265625" lon="-8.7394619174301624298095703125">
        <ele>308</ele>
        <time>2019-05-04T11:36:17.000Z</time>
      </trkpt>
      <trkpt lat="42.46350693516433238983154296875" lon="-8.7395158968865871429443359375">
        <ele>307</ele>
        <time>2019-05-04T11:36:23.000Z</time>
      </trkpt>
      <trkpt lat="42.46353878639638423919677734375" lon="-8.73964154161512851715087890625">
        <ele>304</ele>
        <time>2019-05-04T11:37:21.000Z</time>
      </trkpt>
      <trkpt lat="42.46358052827417850494384765625" lon="-8.73971915803849697113037109375">
        <ele>301.600006103515625</ele>
        <time>2019-05-04T11:37:25.000Z</time>
      </trkpt>
      <trkpt lat="42.46361707337200641632080078125" lon="-8.73979425989091396331787109375">
        <ele>299.600006103515625</ele>
        <time>2019-05-04T11:37:27.000Z</time>
      </trkpt>
      <trkpt lat="42.4638367630541324615478515625" lon="-8.74046011827886104583740234375">
        <ele>285.600006103515625</ele>
        <time>2019-05-04T11:37:39.000Z</time>
      </trkpt>
      <trkpt lat="42.4639152176678180694580078125" lon="-8.74064468778669834136962890625">
        <ele>282.20001220703125</ele>
        <time>2019-05-04T11:37:43.000Z</time>
      </trkpt>
      <trkpt lat="42.464006580412387847900390625" lon="-8.740895055234432220458984375">
        <ele>277.79998779296875</ele>
        <time>2019-05-04T11:37:48.000Z</time>
      </trkpt>
      <trkpt lat="42.4640357494354248046875" lon="-8.74095733277499675750732421875">
        <ele>276.600006103515625</ele>
        <time>2019-05-04T11:37:50.000Z</time>
      </trkpt>
      <trkpt lat="42.4642069078981876373291015625" lon="-8.74148790724575519561767578125">
        <ele>270</ele>
        <time>2019-05-04T11:38:08.000Z</time>
      </trkpt>
      <trkpt lat="42.46421034447848796844482421875" lon="-8.741397298872470855712890625">
        <ele>270.79998779296875</ele>
        <time>2019-05-04T12:51:01.000Z</time>
      </trkpt>
      <trkpt lat="42.46416944079101085662841796875" lon="-8.74146376736462116241455078125">
        <ele>270.399993896484375</ele>
        <time>2019-05-04T12:51:05.000Z</time>
      </trkpt>
      <trkpt lat="42.463777251541614532470703125" lon="-8.741920329630374908447265625">
        <ele>269.20001220703125</ele>
        <time>2019-05-04T12:51:30.000Z</time>
      </trkpt>
      <trkpt lat="42.463622353971004486083984375" lon="-8.74205469153821468353271484375">
        <ele>269.600006103515625</ele>
        <time>2019-05-04T12:51:40.000Z</time>
      </trkpt>
      <trkpt lat="42.4636949412524700164794921875" lon="-8.74194824136793613433837890625">
        <ele>269.600006103515625</ele>
        <time>2019-05-04T12:52:47.000Z</time>
      </trkpt>
      <trkpt lat="42.46376912109553813934326171875" lon="-8.74187665991485118865966796875">
        <ele>269.399993896484375</ele>
        <time>2019-05-04T12:52:52.000Z</time>
      </trkpt>
      <trkpt lat="42.4638226814568042755126953125" lon="-8.7417927570641040802001953125">
        <ele>269.79998779296875</ele>
        <time>2019-05-04T12:52:56.000Z</time>
      </trkpt>
      <trkpt lat="42.46392653323709964752197265625" lon="-8.74175881035625934600830078125">
        <ele>269.399993896484375</ele>
        <time>2019-05-04T12:53:01.000Z</time>
      </trkpt>
      <trkpt lat="42.463934831321239471435546875" lon="-8.74176668934524059295654296875">
        <ele>269.20001220703125</ele>
        <time>2019-05-04T12:53:03.000Z</time>
      </trkpt>
      <trkpt lat="42.46395939029753208160400390625" lon="-8.7417756579816341400146484375">
        <ele>269</ele>
        <time>2019-05-04T12:53:20.000Z</time>
      </trkpt>
      <trkpt lat="42.464046813547611236572265625" lon="-8.74170835129916667938232421875">
        <ele>269</ele>
        <time>2019-05-04T12:53:24.000Z</time>
      </trkpt>
      <trkpt lat="42.464107163250446319580078125" lon="-8.74168404377996921539306640625">
        <ele>269</ele>
        <time>2019-05-04T12:53:27.000Z</time>
      </trkpt>
      <trkpt lat="42.46420615352690219879150390625" lon="-8.74188847839832305908203125">
        <ele>266.600006103515625</ele>
        <time>2019-05-04T12:53:32.000Z</time>
      </trkpt>
      <trkpt lat="42.46426030062139034271240234375" lon="-8.74214018695056438446044921875">
        <ele>266.20001220703125</ele>
        <time>2019-05-04T12:53:36.000Z</time>
      </trkpt>
      <trkpt lat="42.4642501585185527801513671875" lon="-8.74256364069879055023193359375">
        <ele>266.20001220703125</ele>
        <time>2019-05-04T12:53:43.000Z</time>
      </trkpt>
      <trkpt lat="42.46434093452990055084228515625" lon="-8.742562718689441680908203125">
        <ele>265.600006103515625</ele>
        <time>2019-05-04T12:53:48.000Z</time>
      </trkpt>
      <trkpt lat="42.46436205692589282989501953125" lon="-8.7425602041184902191162109375">
        <ele>265.399993896484375</ele>
        <time>2019-05-04T12:54:18.000Z</time>
      </trkpt>
      <trkpt lat="42.46452298946678638458251953125" lon="-8.7424926459789276123046875">
        <ele>264.20001220703125</ele>
        <time>2019-05-04T12:54:22.000Z</time>
      </trkpt>
      <trkpt lat="42.465066052973270416259765625" lon="-8.74246104620397090911865234375">
        <ele>260.600006103515625</ele>
        <time>2019-05-04T12:54:31.000Z</time>
      </trkpt>
      <trkpt lat="42.465341649949550628662109375" lon="-8.74252206645905971527099609375">
        <ele>260.79998779296875</ele>
        <time>2019-05-04T12:54:35.000Z</time>
      </trkpt>
      <trkpt lat="42.46553770266473293304443359375" lon="-8.742608316242694854736328125">
        <ele>261.20001220703125</ele>
        <time>2019-05-04T12:54:38.000Z</time>
      </trkpt>
      <trkpt lat="42.46566183865070343017578125" lon="-8.74266321770846843719482421875">
        <ele>261.600006103515625</ele>
        <time>2019-05-04T12:54:40.000Z</time>
      </trkpt>
      <trkpt lat="42.4662175588309764862060546875" lon="-8.7425568513572216033935546875">
        <ele>259.399993896484375</ele>
        <time>2019-05-04T12:54:48.000Z</time>
      </trkpt>
      <trkpt lat="42.46635074727237224578857421875" lon="-8.7425994314253330230712890625">
        <ele>258.399993896484375</ele>
        <time>2019-05-04T12:54:50.000Z</time>
      </trkpt>
      <trkpt lat="42.46665031649172306060791015625" lon="-8.74286388047039508819580078125">
        <ele>258.600006103515625</ele>
        <time>2019-05-04T12:54:55.000Z</time>
      </trkpt>
      <trkpt lat="42.46692088432610034942626953125" lon="-8.742773272097110748291015625">
        <ele>256.20001220703125</ele>
        <time>2019-05-04T12:55:00.000Z</time>
      </trkpt>
      <trkpt lat="42.4669689126312732696533203125" lon="-8.74273647554218769073486328125">
        <ele>255.399993896484375</ele>
        <time>2019-05-04T12:55:01.000Z</time>
      </trkpt>
      <trkpt lat="42.46717720292508602142333984375" lon="-8.74269808642566204071044921875">
        <ele>254.1999969482421875</ele>
        <time>2019-05-04T12:55:05.000Z</time>
      </trkpt>
      <trkpt lat="42.46723067946732044219970703125" lon="-8.7426845915615558624267578125">
        <ele>254</ele>
        <time>2019-05-04T12:55:06.000Z</time>
      </trkpt>
      <trkpt lat="42.4673994071781635284423828125" lon="-8.74280939809978008270263671875">
        <ele>255</ele>
        <time>2019-05-04T12:55:10.000Z</time>
      </trkpt>
      <trkpt lat="42.46744089759886264801025390625" lon="-8.742857761681079864501953125">
        <ele>255</ele>
        <time>2019-05-04T12:55:11.000Z</time>
      </trkpt>
      <trkpt lat="42.4677814543247222900390625" lon="-8.74272440560162067413330078125">
        <ele>253.1999969482421875</ele>
        <time>2019-05-04T12:55:18.000Z</time>
      </trkpt>
      <trkpt lat="42.46790206991136074066162109375" lon="-8.74270780943334102630615234375">
        <ele>253</ele>
        <time>2019-05-04T12:55:23.000Z</time>
      </trkpt>
      <trkpt lat="42.46791346929967403411865234375" lon="-8.7428337894380092620849609375">
        <ele>254.399993896484375</ele>
        <time>2019-05-04T12:55:30.000Z</time>
      </trkpt>
      <trkpt lat="42.46798731386661529541015625" lon="-8.74285767786204814910888671875">
        <ele>254.600006103515625</ele>
        <time>2019-05-04T12:55:51.000Z</time>
      </trkpt>
      <trkpt lat="42.4680793471634387969970703125" lon="-8.7428599409759044647216796875">
        <ele>254.600006103515625</ele>
        <time>2019-05-04T12:55:57.000Z</time>
      </trkpt>
      <trkpt lat="42.46810860000550746917724609375" lon="-8.74286555685102939605712890625">
        <ele>254.8000030517578125</ele>
        <time>2019-05-04T12:56:07.000Z</time>
      </trkpt>
      <trkpt lat="42.46822468936443328857421875" lon="-8.74296094290912151336669921875">
        <ele>253.600006103515625</ele>
        <time>2019-05-04T12:56:11.000Z</time>
      </trkpt>
      <trkpt lat="42.46817314065992832183837890625" lon="-8.74318809248507022857666015625">
        <ele>253.600006103515625</ele>
        <time>2019-05-04T12:56:16.000Z</time>
      </trkpt>
      <trkpt lat="42.46810625307261943817138671875" lon="-8.74326839111745357513427734375">
        <ele>254.1999969482421875</ele>
        <time>2019-05-04T12:56:18.000Z</time>
      </trkpt>
      <trkpt lat="42.46804389171302318572998046875" lon="-8.74353074468672275543212890625">
        <ele>254.1999969482421875</ele>
        <time>2019-05-04T12:56:29.000Z</time>
      </trkpt>
      <trkpt lat="42.46804640628397464752197265625" lon="-8.7435172498226165771484375">
        <ele>254.1999969482421875</ele>
        <time>2019-05-04T12:56:42.000Z</time>
      </trkpt>
      <trkpt lat="42.46805445291101932525634765625" lon="-8.7434862367808818817138671875">
        <ele>254.1999969482421875</ele>
        <time>2019-05-04T12:56:49.000Z</time>
      </trkpt>
      <trkpt lat="42.46809250675141811370849609375" lon="-8.74348229728639125823974609375">
        <ele>253.600006103515625</ele>
        <time>2019-05-04T12:57:08.000Z</time>
      </trkpt>
      <trkpt lat="42.46820465661585330963134765625" lon="-8.7435440719127655029296875">
        <ele>251.8000030517578125</ele>
        <time>2019-05-04T12:57:17.000Z</time>
      </trkpt>
      <trkpt lat="42.4682272039353847503662109375" lon="-8.74358103610575199127197265625">
        <ele>252</ele>
        <time>2019-05-04T12:57:21.000Z</time>
      </trkpt>
      <trkpt lat="42.4682644195854663848876953125" lon="-8.743628561496734619140625">
        <ele>251.600006103515625</ele>
        <time>2019-05-04T12:57:49.000Z</time>
      </trkpt>
      <trkpt lat="42.4682999588549137115478515625" lon="-8.74368195421993732452392578125">
        <ele>250.8000030517578125</ele>
        <time>2019-05-04T12:57:52.000Z</time>
      </trkpt>
      <trkpt lat="42.46830381453037261962890625" lon="-8.74370156787335872650146484375">
        <ele>250.600006103515625</ele>
        <time>2019-05-04T12:57:55.000Z</time>
      </trkpt>
      <trkpt lat="42.4683012999594211578369140625" lon="-8.7436971254646778106689453125">
        <ele>250.8000030517578125</ele>
        <time>2019-05-04T12:58:01.000Z</time>
      </trkpt>
      <trkpt lat="42.4683059938251972198486328125" lon="-8.74368329532444477081298828125">
        <ele>250.600006103515625</ele>
        <time>2019-05-04T12:58:04.000Z</time>
      </trkpt>
      <trkpt lat="42.46831915341317653656005859375" lon="-8.74372713267803192138671875">
        <ele>250.1999969482421875</ele>
        <time>2019-05-04T13:00:20.000Z</time>
      </trkpt>
      <trkpt lat="42.46832015924155712127685546875" lon="-8.7438429705798625946044921875">
        <ele>250.1999969482421875</ele>
        <time>2019-05-04T13:00:25.000Z</time>
      </trkpt>
      <trkpt lat="42.46835754252970218658447265625" lon="-8.7439036555588245391845703125">
        <ele>250</ele>
        <time>2019-05-04T13:00:32.000Z</time>
      </trkpt>
      <trkpt lat="42.4684377573430538177490234375" lon="-8.743950426578521728515625">
        <ele>249.8000030517578125</ele>
        <time>2019-05-04T13:00:45.000Z</time>
      </trkpt>
      <trkpt lat="42.46850389055907726287841796875" lon="-8.74402527697384357452392578125">
        <ele>249.600006103515625</ele>
        <time>2019-05-04T13:00:49.000Z</time>
      </trkpt>
      <trkpt lat="42.46897839009761810302734375" lon="-8.74432333745062351226806640625">
        <ele>242.600006103515625</ele>
        <time>2019-05-04T13:01:06.000Z</time>
      </trkpt>
      <trkpt lat="42.46921936981379985809326171875" lon="-8.74457529745995998382568359375">
        <ele>241.399993896484375</ele>
        <time>2019-05-04T13:01:19.000Z</time>
      </trkpt>
      <trkpt lat="42.46931106783449649810791015625" lon="-8.74468258582055568695068359375">
        <ele>241.600006103515625</ele>
        <time>2019-05-04T13:01:33.000Z</time>
      </trkpt>
      <trkpt lat="42.46946931816637516021728515625" lon="-8.74472223222255706787109375">
        <ele>241</ele>
        <time>2019-05-04T13:01:39.000Z</time>
      </trkpt>
      <trkpt lat="42.46956445276737213134765625" lon="-8.74475282616913318634033203125">
        <ele>240.8000030517578125</ele>
        <time>2019-05-04T13:01:46.000Z</time>
      </trkpt>
      <trkpt lat="42.46969210915267467498779296875" lon="-8.744757436215877532958984375">
        <ele>240.399993896484375</ele>
        <time>2019-05-04T13:01:55.000Z</time>
      </trkpt>
      <trkpt lat="42.470191754400730133056640625" lon="-8.74464117921888828277587890625">
        <ele>236</ele>
        <time>2019-05-04T13:02:11.000Z</time>
      </trkpt>
      <trkpt lat="42.4702174030244350433349609375" lon="-8.74461888335645198822021484375">
        <ele>235.600006103515625</ele>
        <time>2019-05-04T13:02:17.000Z</time>
      </trkpt>
      <trkpt lat="42.47031270526349544525146484375" lon="-8.7445606291294097900390625">
        <ele>233.8000030517578125</ele>
        <time>2019-05-04T13:02:25.000Z</time>
      </trkpt>
      <trkpt lat="42.4703498370945453643798828125" lon="-8.7445289455354213714599609375">
        <ele>233</ele>
        <time>2019-05-04T13:02:33.000Z</time>
      </trkpt>
      <trkpt lat="42.4708436988294124603271484375" lon="-8.7444615550339221954345703125">
        <ele>226.399993896484375</ele>
        <time>2019-05-04T13:02:50.000Z</time>
      </trkpt>
      <trkpt lat="42.47093162499368190765380859375" lon="-8.7444960884749889373779296875">
        <ele>226.1999969482421875</ele>
        <time>2019-05-04T13:02:54.000Z</time>
      </trkpt>
      <trkpt lat="42.47101728804409503936767578125" lon="-8.744709156453609466552734375">
        <ele>226.8000030517578125</ele>
        <time>2019-05-04T13:03:00.000Z</time>
      </trkpt>
      <trkpt lat="42.47102357447147369384765625" lon="-8.74472281895577907562255859375">
        <ele>227</ele>
        <time>2019-05-04T13:03:02.000Z</time>
      </trkpt>
      <trkpt lat="42.471034638583660125732421875" lon="-8.7447552569210529327392578125">
        <ele>227</ele>
        <time>2019-05-04T13:03:33.000Z</time>
      </trkpt>
      <trkpt lat="42.4710646457970142364501953125" lon="-8.74478920362889766693115234375">
        <ele>227</ele>
        <time>2019-05-04T13:03:34.000Z</time>
      </trkpt>
      <trkpt lat="42.471156008541584014892578125" lon="-8.74486841261386871337890625">
        <ele>227</ele>
        <time>2019-05-04T13:03:36.000Z</time>
      </trkpt>
      <trkpt lat="42.4714280851185321807861328125" lon="-8.7453698180615901947021484375">
        <ele>217.1999969482421875</ele>
        <time>2019-05-04T13:03:51.000Z</time>
      </trkpt>
      <trkpt lat="42.4719107151031494140625" lon="-8.745633848011493682861328125">
        <ele>206.600006103515625</ele>
        <time>2019-05-04T13:04:06.000Z</time>
      </trkpt>
      <trkpt lat="42.47223920188844203948974609375" lon="-8.74575211666524410247802734375">
        <ele>203.1999969482421875</ele>
        <time>2019-05-04T13:04:12.000Z</time>
      </trkpt>
      <trkpt lat="42.472694925963878631591796875" lon="-8.745683133602142333984375">
        <ele>197.600006103515625</ele>
        <time>2019-05-04T13:04:27.000Z</time>
      </trkpt>
      <trkpt lat="42.47281168587505817413330078125" lon="-8.74564767815172672271728515625">
        <ele>195.600006103515625</ele>
        <time>2019-05-04T13:04:35.000Z</time>
      </trkpt>
      <trkpt lat="42.47295099310576915740966796875" lon="-8.74553904868662357330322265625">
        <ele>193.600006103515625</ele>
        <time>2019-05-04T13:04:41.000Z</time>
      </trkpt>
      <trkpt lat="42.4730709381401538848876953125" lon="-8.74549395404756069183349609375">
        <ele>191.600006103515625</ele>
        <time>2019-05-04T13:04:44.000Z</time>
      </trkpt>
      <trkpt lat="42.47331007383763790130615234375" lon="-8.745586574077606201171875">
        <ele>187.8000030517578125</ele>
        <time>2019-05-04T13:04:49.000Z</time>
      </trkpt>
      <trkpt lat="42.47345759533345699310302734375" lon="-8.74564499594271183013916015625">
        <ele>185.399993896484375</ele>
        <time>2019-05-04T13:04:52.000Z</time>
      </trkpt>
      <trkpt lat="42.47366420924663543701171875" lon="-8.74548993073403835296630859375">
        <ele>182</ele>
        <time>2019-05-04T13:05:02.000Z</time>
      </trkpt>
      <trkpt lat="42.4736694060266017913818359375" lon="-8.74547484330832958221435546875">
        <ele>182</ele>
        <time>2019-05-04T13:05:16.000Z</time>
      </trkpt>
      <trkpt lat="42.47378985397517681121826171875" lon="-8.7452813051640987396240234375">
        <ele>180.1999969482421875</ele>
        <time>2019-05-04T13:05:23.000Z</time>
      </trkpt>
      <trkpt lat="42.4738685600459575653076171875" lon="-8.74519891105592250823974609375">
        <ele>179</ele>
        <time>2019-05-04T13:05:26.000Z</time>
      </trkpt>
      <trkpt lat="42.47410417534410953521728515625" lon="-8.74518491327762603759765625">
        <ele>175</ele>
        <time>2019-05-04T13:05:37.000Z</time>
      </trkpt>
      <trkpt lat="42.47416469268500804901123046875" lon="-8.74514291994273662567138671875">
        <ele>174.1999969482421875</ele>
        <time>2019-05-04T13:05:48.000Z</time>
      </trkpt>
      <trkpt lat="42.4745330773293972015380859375" lon="-8.7451093085110187530517578125">
        <ele>170.600006103515625</ele>
        <time>2019-05-04T13:05:58.000Z</time>
      </trkpt>
      <trkpt lat="42.4747308902442455291748046875" lon="-8.74499984085559844970703125">
        <ele>167.8000030517578125</ele>
        <time>2019-05-04T13:06:04.000Z</time>
      </trkpt>
      <trkpt lat="42.474889643490314483642578125" lon="-8.74480269849300384521484375">
        <ele>163.8000030517578125</ele>
        <time>2019-05-04T13:06:12.000Z</time>
      </trkpt>
      <trkpt lat="42.4749297089874744415283203125" lon="-8.7447609566152095794677734375">
        <ele>162.8000030517578125</ele>
        <time>2019-05-04T13:06:20.000Z</time>
      </trkpt>
      <trkpt lat="42.474943287670612335205078125" lon="-8.7445966713130474090576171875">
        <ele>160</ele>
        <time>2019-05-04T13:06:29.000Z</time>
      </trkpt>
      <trkpt lat="42.47494923882186412811279296875" lon="-8.74458384700119495391845703125">
        <ele>159.8000030517578125</ele>
        <time>2019-05-04T13:06:31.000Z</time>
      </trkpt>
      <trkpt lat="42.4749635718762874603271484375" lon="-8.74452400021255016326904296875">
        <ele>158.600006103515625</ele>
        <time>2019-05-04T13:06:37.000Z</time>
      </trkpt>
      <trkpt lat="42.47502165846526622772216796875" lon="-8.744305483996868133544921875">
        <ele>155.399993896484375</ele>
        <time>2019-05-04T13:06:43.000Z</time>
      </trkpt>
      <trkpt lat="42.4751972593367099761962890625" lon="-8.7439975328743457794189453125">
        <ele>152.399993896484375</ele>
        <time>2019-05-04T13:06:52.000Z</time>
      </trkpt>
      <trkpt lat="42.47550479136407375335693359375" lon="-8.74396442435681819915771484375">
        <ele>151.1999969482421875</ele>
        <time>2019-05-04T13:06:58.000Z</time>
      </trkpt>
      <trkpt lat="42.47565197758376598358154296875" lon="-8.743891417980194091796875">
        <ele>150.399993896484375</ele>
        <time>2019-05-04T13:07:03.000Z</time>
      </trkpt>
      <trkpt lat="42.4756358005106449127197265625" lon="-8.7437769211828708648681640625">
        <ele>148.8000030517578125</ele>
        <time>2019-05-04T13:07:07.000Z</time>
      </trkpt>
      <trkpt lat="42.47563487850129604339599609375" lon="-8.74371514655649662017822265625">
        <ele>148.1999969482421875</ele>
        <time>2019-05-04T13:07:09.000Z</time>
      </trkpt>
      <trkpt lat="42.4757149256765842437744140625" lon="-8.74352940358221530914306640625">
        <ele>146.399993896484375</ele>
        <time>2019-05-04T13:07:19.000Z</time>
      </trkpt>
      <trkpt lat="42.47591651044785976409912109375" lon="-8.74285801313817501068115234375">
        <ele>138.399993896484375</ele>
        <time>2019-05-04T13:07:35.000Z</time>
      </trkpt>
      <trkpt lat="42.47592070139944553375244140625" lon="-8.742708899080753326416015625">
        <ele>137</ele>
        <time>2019-05-04T13:07:37.000Z</time>
      </trkpt>
      <trkpt lat="42.4760770238935947418212890625" lon="-8.74240488745272159576416015625">
        <ele>131.399993896484375</ele>
        <time>2019-05-04T13:07:43.000Z</time>
      </trkpt>
      <trkpt lat="42.4761682190001010894775390625" lon="-8.742287792265415191650390625">
        <ele>129</ele>
        <time>2019-05-04T13:07:46.000Z</time>
      </trkpt>
      <trkpt lat="42.4763097055256366729736328125" lon="-8.74197841621935367584228515625">
        <ele>123.8000030517578125</ele>
        <time>2019-05-04T13:07:55.000Z</time>
      </trkpt>
      <trkpt lat="42.4763086996972560882568359375" lon="-8.74197539873421192169189453125">
        <ele>123.8000030517578125</ele>
        <time>2019-05-04T13:08:07.000Z</time>
      </trkpt>
      <trkpt lat="42.476333677768707275390625" lon="-8.74191085807979106903076171875">
        <ele>122.8000030517578125</ele>
        <time>2019-05-04T13:08:16.000Z</time>
      </trkpt>
      <trkpt lat="42.47636443935334682464599609375" lon="-8.7417806871235370635986328125">
        <ele>122</ele>
        <time>2019-05-04T13:08:22.000Z</time>
      </trkpt>
      <trkpt lat="42.4763737432658672332763671875" lon="-8.7417360953986644744873046875">
        <ele>122</ele>
        <time>2019-05-04T13:08:26.000Z</time>
      </trkpt>
      <trkpt lat="42.4763727374374866485595703125" lon="-8.74170332215726375579833984375">
        <ele>122</ele>
        <time>2019-05-04T13:08:31.000Z</time>
      </trkpt>
      <trkpt lat="42.47635521925985813140869140625" lon="-8.741608522832393646240234375">
        <ele>122.40000152587890625</ele>
        <time>2019-05-04T13:08:35.000Z</time>
      </trkpt>
      <trkpt lat="42.47636142186820507049560546875" lon="-8.741608522832393646240234375">
        <ele>122.1999969482421875</ele>
        <time>2019-05-04T13:08:37.000Z</time>
      </trkpt>
      <trkpt lat="42.476371563971042633056640625" lon="-8.74166057445108890533447265625">
        <ele>122.1999969482421875</ele>
        <time>2019-05-04T13:08:41.000Z</time>
      </trkpt>
      <trkpt lat="42.4763938598334789276123046875" lon="-8.74172528274357318878173828125">
        <ele>121.8000030517578125</ele>
        <time>2019-05-04T13:08:46.000Z</time>
      </trkpt>
      <trkpt lat="42.4764074385166168212890625" lon="-8.7417377717792987823486328125">
        <ele>121.59999847412109375</ele>
        <time>2019-05-04T13:08:48.000Z</time>
      </trkpt>
      <trkpt lat="42.47655537910759449005126953125" lon="-8.74160927720367908477783203125">
        <ele>119.8000030517578125</ele>
        <time>2019-05-04T13:08:54.000Z</time>
      </trkpt>
      <trkpt lat="42.4765849672257900238037109375" lon="-8.7415646016597747802734375">
        <ele>119.40000152587890625</ele>
        <time>2019-05-04T13:08:55.000Z</time>
      </trkpt>
      <trkpt lat="42.476671636104583740234375" lon="-8.7414273060858249664306640625">
        <ele>118.59999847412109375</ele>
        <time>2019-05-04T13:08:58.000Z</time>
      </trkpt>
      <trkpt lat="42.47690188698470592498779296875" lon="-8.741353042423725128173828125">
        <ele>118</ele>
        <time>2019-05-04T13:09:03.000Z</time>
      </trkpt>
      <trkpt lat="42.47696005739271640777587890625" lon="-8.74135337769985198974609375">
        <ele>118</ele>
        <time>2019-05-04T13:09:04.000Z</time>
      </trkpt>
      <trkpt lat="42.47717119753360748291015625" lon="-8.7414866499602794647216796875">
        <ele>117.59999847412109375</ele>
        <time>2019-05-04T13:09:08.000Z</time>
      </trkpt>
      <trkpt lat="42.4773390032351016998291015625" lon="-8.7416606582701206207275390625">
        <ele>118.40000152587890625</ele>
        <time>2019-05-04T13:09:12.000Z</time>
      </trkpt>
      <trkpt lat="42.47747437097132205963134765625" lon="-8.7417666055262088775634765625">
        <ele>118.8000030517578125</ele>
        <time>2019-05-04T13:09:16.000Z</time>
      </trkpt>
      <trkpt lat="42.47774678282439708709716796875" lon="-8.7417210079729557037353515625">
        <ele>118.40000152587890625</ele>
        <time>2019-05-04T13:09:23.000Z</time>
      </trkpt>
      <trkpt lat="42.4781530536711215972900390625" lon="-8.74155797995626926422119140625">
        <ele>118</ele>
        <time>2019-05-04T13:09:36.000Z</time>
      </trkpt>
      <trkpt lat="42.4782345257699489593505859375" lon="-8.74152109958231449127197265625">
        <ele>117.8000030517578125</ele>
        <time>2019-05-04T13:09:57.000Z</time>
      </trkpt>
      <trkpt lat="42.47830216772854328155517578125" lon="-8.741475082933902740478515625">
        <ele>117.59999847412109375</ele>
        <time>2019-05-04T13:10:00.000Z</time>
      </trkpt>
      <trkpt lat="42.47831792570650577545166015625" lon="-8.74146695248782634735107421875">
        <ele>117.59999847412109375</ele>
        <time>2019-05-04T13:10:02.000Z</time>
      </trkpt>
      <trkpt lat="42.4783495254814624786376953125" lon="-8.74145555309951305389404296875">
        <ele>117.40000152587890625</ele>
        <time>2019-05-04T13:10:05.000Z</time>
      </trkpt>
      <trkpt lat="42.4783615954220294952392578125" lon="-8.7414460815489292144775390625">
        <ele>117.40000152587890625</ele>
        <time>2019-05-04T13:10:06.000Z</time>
      </trkpt>
      <trkpt lat="42.47840476222336292266845703125" lon="-8.7414175830781459808349609375">
        <ele>117</ele>
        <time>2019-05-04T13:10:11.000Z</time>
      </trkpt>
      <trkpt lat="42.4784561432898044586181640625" lon="-8.7414293177425861358642578125">
        <ele>117</ele>
        <time>2019-05-04T13:10:20.000Z</time>
      </trkpt>
      <trkpt lat="42.47849754989147186279296875" lon="-8.741408698260784149169921875">
        <ele>116.59999847412109375</ele>
        <time>2019-05-04T13:10:23.000Z</time>
      </trkpt>
      <trkpt lat="42.47857868671417236328125" lon="-8.741392605006694793701171875">
        <ele>116.40000152587890625</ele>
        <time>2019-05-04T13:10:27.000Z</time>
      </trkpt>
      <trkpt lat="42.47860391624271869659423828125" lon="-8.74137626029551029205322265625">
        <ele>116.1999969482421875</ele>
        <time>2019-05-04T13:10:31.000Z</time>
      </trkpt>
      <trkpt lat="42.478615902364253997802734375" lon="-8.74136812984943389892578125">
        <ele>116</ele>
        <time>2019-05-04T13:10:49.000Z</time>
      </trkpt>
      <trkpt lat="42.47896500863134860992431640625" lon="-8.7411533854901790618896484375">
        <ele>113.40000152587890625</ele>
        <time>2019-05-04T13:11:00.000Z</time>
      </trkpt>
      <trkpt lat="42.4789798445999622344970703125" lon="-8.7411389686167240142822265625">
        <ele>113.1999969482421875</ele>
        <time>2019-05-04T13:11:02.000Z</time>
      </trkpt>
      <trkpt lat="42.4789835326373577117919921875" lon="-8.74109915457665920257568359375">
        <ele>113</ele>
        <time>2019-05-04T13:11:07.000Z</time>
      </trkpt>
      <trkpt lat="42.47907313518226146697998046875" lon="-8.7406705878674983978271484375">
        <ele>117</ele>
        <time>2019-05-04T13:11:19.000Z</time>
      </trkpt>
      <trkpt lat="42.479119487106800079345703125" lon="-8.740583248436450958251953125">
        <ele>118.1999969482421875</ele>
        <time>2019-05-04T13:11:23.000Z</time>
      </trkpt>
      <trkpt lat="42.47914454899728298187255859375" lon="-8.74057964421808719635009765625">
        <ele>118.1999969482421875</ele>
        <time>2019-05-04T13:11:25.000Z</time>
      </trkpt>
      <trkpt lat="42.47921160422265529632568359375" lon="-8.7405797280371189117431640625">
        <ele>117</ele>
        <time>2019-05-04T13:11:30.000Z</time>
      </trkpt>
      <trkpt lat="42.47929961420595645904541015625" lon="-8.740592636168003082275390625">
        <ele>115.1999969482421875</ele>
        <time>2019-05-04T13:11:33.000Z</time>
      </trkpt>
      <trkpt lat="42.47944529168307781219482421875" lon="-8.7405616231262683868408203125">
        <ele>112.59999847412109375</ele>
        <time>2019-05-04T13:11:40.000Z</time>
      </trkpt>
      <trkpt lat="42.47948770411312580108642578125" lon="-8.74054226092994213104248046875">
        <ele>112</ele>
        <time>2019-05-04T13:11:48.000Z</time>
      </trkpt>
      <trkpt lat="42.4795268476009368896484375" lon="-8.74052993953227996826171875">
        <ele>111.40000152587890625</ele>
        <time>2019-05-04T13:11:52.000Z</time>
      </trkpt>
      <trkpt lat="42.47955693863332271575927734375" lon="-8.74053957872092723846435546875">
        <ele>110.59999847412109375</ele>
        <time>2019-05-04T13:12:07.000Z</time>
      </trkpt>
      <trkpt lat="42.47989992611110210418701171875" lon="-8.74052817933261394500732421875">
        <ele>107</ele>
        <time>2019-05-04T13:12:19.000Z</time>
      </trkpt>
      <trkpt lat="42.47993253171443939208984375" lon="-8.740549720823764801025390625">
        <ele>106.8000030517578125</ele>
        <time>2019-05-04T13:12:22.000Z</time>
      </trkpt>
      <trkpt lat="42.47995130717754364013671875" lon="-8.74051644466817378997802734375">
        <ele>106.59999847412109375</ele>
        <time>2019-05-04T13:12:37.000Z</time>
      </trkpt>
      <trkpt lat="42.47995155863463878631591796875" lon="-8.74056120403110980987548828125">
        <ele>106.59999847412109375</ele>
        <time>2019-05-04T13:12:42.000Z</time>
      </trkpt>
      <trkpt lat="42.48000922612845897674560546875" lon="-8.74060311354696750640869140625">
        <ele>106.40000152587890625</ele>
        <time>2019-05-04T13:12:53.000Z</time>
      </trkpt>
      <trkpt lat="42.4801335297524929046630859375" lon="-8.74053169973194599151611328125">
        <ele>106</ele>
        <time>2019-05-04T13:12:58.000Z</time>
      </trkpt>
      <trkpt lat="42.480217181146144866943359375" lon="-8.7405234016478061676025390625">
        <ele>105.8000030517578125</ele>
        <time>2019-05-04T13:13:00.000Z</time>
      </trkpt>
      <trkpt lat="42.4803950451314449310302734375" lon="-8.74055349268019199371337890625">
        <ele>105.40000152587890625</ele>
        <time>2019-05-04T13:13:04.000Z</time>
      </trkpt>
      <trkpt lat="42.48057818971574306488037109375" lon="-8.7406632117927074432373046875">
        <ele>104.40000152587890625</ele>
        <time>2019-05-04T13:13:08.000Z</time>
      </trkpt>
      <trkpt lat="42.48100969009101390838623046875" lon="-8.74104551039636135101318359375">
        <ele>101.59999847412109375</ele>
        <time>2019-05-04T13:13:26.000Z</time>
      </trkpt>
      <trkpt lat="42.48128570616245269775390625" lon="-8.74100930057466030120849609375">
        <ele>101.1999969482421875</ele>
        <time>2019-05-04T13:13:34.000Z</time>
      </trkpt>
      <trkpt lat="42.48147639445960521697998046875" lon="-8.74106043018400669097900390625">
        <ele>100.59999847412109375</ele>
        <time>2019-05-04T13:13:39.000Z</time>
      </trkpt>
      <trkpt lat="42.48162240721285343170166015625" lon="-8.7412898428738117218017578125">
        <ele>102.8000030517578125</ele>
        <time>2019-05-04T13:13:46.000Z</time>
      </trkpt>
      <trkpt lat="42.48165995813906192779541015625" lon="-8.74130643904209136962890625">
        <ele>103.1999969482421875</ele>
        <time>2019-05-04T13:13:57.000Z</time>
      </trkpt>
      <trkpt lat="42.48172986321151256561279296875" lon="-8.7413206882774829864501953125">
        <ele>103.59999847412109375</ele>
        <time>2019-05-04T13:14:02.000Z</time>
      </trkpt>
      <trkpt lat="42.4820345453917980194091796875" lon="-8.74137424863874912261962890625">
        <ele>105.40000152587890625</ele>
        <time>2019-05-04T13:15:00.000Z</time>
      </trkpt>
      <trkpt lat="42.48209313489496707916259765625" lon="-8.74138933606445789337158203125">
        <ele>105.8000030517578125</ele>
        <time>2019-05-04T13:15:03.000Z</time>
      </trkpt>
      <trkpt lat="42.48218902386724948883056640625" lon="-8.74148170463740825653076171875">
        <ele>105.40000152587890625</ele>
        <time>2019-05-04T13:15:08.000Z</time>
      </trkpt>
      <trkpt lat="42.4822192825376987457275390625" lon="-8.741523362696170806884765625">
        <ele>105</ele>
        <time>2019-05-04T13:15:10.000Z</time>
      </trkpt>
      <trkpt lat="42.4822305142879486083984375" lon="-8.74153442680835723876953125">
        <ele>105</ele>
        <time>2019-05-04T13:15:12.000Z</time>
      </trkpt>
      <trkpt lat="42.48226110823452472686767578125" lon="-8.7415895797312259674072265625">
        <ele>104.59999847412109375</ele>
        <time>2019-05-04T13:16:44.000Z</time>
      </trkpt>
      <trkpt lat="42.48262773267924785614013671875" lon="-8.742118813097476959228515625">
        <ele>106</ele>
        <time>2019-05-04T13:17:00.000Z</time>
      </trkpt>
      <trkpt lat="42.48286443762481212615966796875" lon="-8.74225099571049213409423828125">
        <ele>107.40000152587890625</ele>
        <time>2019-05-04T13:17:05.000Z</time>
      </trkpt>
      <trkpt lat="42.48291246592998504638671875" lon="-8.74228008091449737548828125">
        <ele>107.8000030517578125</ele>
        <time>2019-05-04T13:17:06.000Z</time>
      </trkpt>
      <trkpt lat="42.48305118642747402191162109375" lon="-8.74236054718494415283203125">
        <ele>104.1999969482421875</ele>
        <time>2019-05-04T13:17:09.000Z</time>
      </trkpt>
      <trkpt lat="42.4835483171045780181884765625" lon="-8.74264846555888652801513671875">
        <ele>97.40000152587890625</ele>
        <time>2019-05-04T13:17:21.000Z</time>
      </trkpt>
      <trkpt lat="42.483787201344966888427734375" lon="-8.74275675974786281585693359375">
        <ele>98.40000152587890625</ele>
        <time>2019-05-04T13:17:30.000Z</time>
      </trkpt>
      <trkpt lat="42.48388879001140594482421875" lon="-8.7428834103047847747802734375">
        <ele>100.8000030517578125</ele>
        <time>2019-05-04T13:17:33.000Z</time>
      </trkpt>
      <trkpt lat="42.4842664785683155059814453125" lon="-8.74343971721827983856201171875">
        <ele>97.40000152587890625</ele>
        <time>2019-05-04T13:17:44.000Z</time>
      </trkpt>
      <trkpt lat="42.4843841604888439178466796875" lon="-8.743549101054668426513671875">
        <ele>98.8000030517578125</ele>
        <time>2019-05-04T13:17:47.000Z</time>
      </trkpt>
      <trkpt lat="42.4847043491899967193603515625" lon="-8.743953444063663482666015625">
        <ele>106.59999847412109375</ele>
        <time>2019-05-04T13:18:00.000Z</time>
      </trkpt>
      <trkpt lat="42.48472538776695728302001953125" lon="-8.74399342574179172515869140625">
        <ele>105.59999847412109375</ele>
        <time>2019-05-04T13:18:20.000Z</time>
      </trkpt>
      <trkpt lat="42.48481054790318012237548828125" lon="-8.74411647208034992218017578125">
        <ele>102.59999847412109375</ele>
        <time>2019-05-04T13:18:24.000Z</time>
      </trkpt>
      <trkpt lat="42.48503048904240131378173828125" lon="-8.74443925917148590087890625">
        <ele>96.8000030517578125</ele>
        <time>2019-05-04T13:18:32.000Z</time>
      </trkpt>
      <trkpt lat="42.48515102081000804901123046875" lon="-8.74461628496646881103515625">
        <ele>99.40000152587890625</ele>
        <time>2019-05-04T13:18:36.000Z</time>
      </trkpt>
      <trkpt lat="42.48529485426843166351318359375" lon="-8.7447475455701351165771484375">
        <ele>102.40000152587890625</ele>
        <time>2019-05-04T13:18:41.000Z</time>
      </trkpt>
      <trkpt lat="42.48538571409881114959716796875" lon="-8.74482122249901294708251953125">
        <ele>104</ele>
        <time>2019-05-04T13:18:47.000Z</time>
      </trkpt>
      <trkpt lat="42.48549275100231170654296875" lon="-8.74498450197279453277587890625">
        <ele>100.40000152587890625</ele>
        <time>2019-05-04T13:18:54.000Z</time>
      </trkpt>
      <trkpt lat="42.48553566634654998779296875" lon="-8.74503596685826778411865234375">
        <ele>99</ele>
        <time>2019-05-04T13:19:29.000Z</time>
      </trkpt>
      <trkpt lat="42.48569031246006488800048828125" lon="-8.74529882334172725677490234375">
        <ele>96.1999969482421875</ele>
        <time>2019-05-04T13:19:34.000Z</time>
      </trkpt>
      <trkpt lat="42.4857951700687408447265625" lon="-8.745497725903987884521484375">
        <ele>93</ele>
        <time>2019-05-04T13:19:37.000Z</time>
      </trkpt>
      <trkpt lat="42.485845796763896942138671875" lon="-8.74564968980848789215087890625">
        <ele>91.1999969482421875</ele>
        <time>2019-05-04T13:19:39.000Z</time>
      </trkpt>
      <trkpt lat="42.48589240014553070068359375" lon="-8.74597021378576755523681640625">
        <ele>90.40000152587890625</ele>
        <time>2019-05-04T13:19:43.000Z</time>
      </trkpt>
      <trkpt lat="42.48591310344636440277099609375" lon="-8.7461208365857601165771484375">
        <ele>89</ele>
        <time>2019-05-04T13:19:45.000Z</time>
      </trkpt>
      <trkpt lat="42.48609147034585475921630859375" lon="-8.74686799943447113037109375">
        <ele>87</ele>
        <time>2019-05-04T13:19:54.000Z</time>
      </trkpt>
      <trkpt lat="42.4861170351505279541015625" lon="-8.74723990447819232940673828125">
        <ele>87.8000030517578125</ele>
        <time>2019-05-04T13:19:58.000Z</time>
      </trkpt>
      <trkpt lat="42.4860588647425174713134765625" lon="-8.7477358616888523101806640625">
        <ele>87</ele>
        <time>2019-05-04T13:20:04.000Z</time>
      </trkpt>
      <trkpt lat="42.48611636459827423095703125" lon="-8.74809167347848415374755859375">
        <ele>89.40000152587890625</ele>
        <time>2019-05-04T13:20:08.000Z</time>
      </trkpt>
      <trkpt lat="42.486290372908115386962890625" lon="-8.748860545456409454345703125">
        <ele>87.1999969482421875</ele>
        <time>2019-05-04T13:20:16.000Z</time>
      </trkpt>
      <trkpt lat="42.48636455275118350982666015625" lon="-8.74958381988108158111572265625">
        <ele>83.1999969482421875</ele>
        <time>2019-05-04T13:20:27.000Z</time>
      </trkpt>
      <trkpt lat="42.48636706732213497161865234375" lon="-8.749726228415966033935546875">
        <ele>83</ele>
        <time>2019-05-04T13:20:33.000Z</time>
      </trkpt>
      <trkpt lat="42.48640545643866062164306640625" lon="-8.749793954193592071533203125">
        <ele>82.1999969482421875</ele>
        <time>2019-05-04T13:20:53.000Z</time>
      </trkpt>
      <trkpt lat="42.48653051443397998809814453125" lon="-8.74993150122463703155517578125">
        <ele>79.59999847412109375</ele>
        <time>2019-05-04T13:21:00.000Z</time>
      </trkpt>
      <trkpt lat="42.48668138869106769561767578125" lon="-8.749958574771881103515625">
        <ele>76.59999847412109375</ele>
        <time>2019-05-04T13:21:04.000Z</time>
      </trkpt>
      <trkpt lat="42.48698716051876544952392578125" lon="-8.749977014958858489990234375">
        <ele>78.40000152587890625</ele>
        <time>2019-05-04T13:21:13.000Z</time>
      </trkpt>
      <trkpt lat="42.48726694844663143157958984375" lon="-8.75023593194782733917236328125">
        <ele>77.40000152587890625</ele>
        <time>2019-05-04T13:21:25.000Z</time>
      </trkpt>
      <trkpt lat="42.48743358068168163299560546875" lon="-8.75045008957386016845703125">
        <ele>77.40000152587890625</ele>
        <time>2019-05-04T13:21:34.000Z</time>
      </trkpt>
      <trkpt lat="42.487473897635936737060546875" lon="-8.750521838665008544921875">
        <ele>76.40000152587890625</ele>
        <time>2019-05-04T13:21:38.000Z</time>
      </trkpt>
      <trkpt lat="42.4875072576105594635009765625" lon="-8.75058227218687534332275390625">
        <ele>75.8000030517578125</ele>
        <time>2019-05-04T13:22:06.000Z</time>
      </trkpt>
      <trkpt lat="42.4875233508646488189697265625" lon="-8.75071420334279537200927734375">
        <ele>75.40000152587890625</ele>
        <time>2019-05-04T13:22:10.000Z</time>
      </trkpt>
      <trkpt lat="42.4875277094542980194091796875" lon="-8.75077052973210811614990234375">
        <ele>75.1999969482421875</ele>
        <time>2019-05-04T13:22:17.000Z</time>
      </trkpt>
      <trkpt lat="42.48752913437783718109130859375" lon="-8.75080539844930171966552734375">
        <ele>75</ele>
        <time>2019-05-04T13:22:19.000Z</time>
      </trkpt>
      <trkpt lat="42.48754187487065792083740234375" lon="-8.7508552707731723785400390625">
        <ele>75</ele>
        <time>2019-05-04T13:22:24.000Z</time>
      </trkpt>
      <trkpt lat="42.48754925094544887542724609375" lon="-8.75094906426966190338134765625">
        <ele>74.59999847412109375</ele>
        <time>2019-05-04T13:22:37.000Z</time>
      </trkpt>
      <trkpt lat="42.487576492130756378173828125" lon="-8.75112759880721569061279296875">
        <ele>74.59999847412109375</ele>
        <time>2019-05-04T13:22:41.000Z</time>
      </trkpt>
      <trkpt lat="42.487641870975494384765625" lon="-8.751418031752109527587890625">
        <ele>76.40000152587890625</ele>
        <time>2019-05-04T13:22:46.000Z</time>
      </trkpt>
      <trkpt lat="42.487781010568141937255859375" lon="-8.75164928846061229705810546875">
        <ele>77.1999969482421875</ele>
        <time>2019-05-04T13:22:50.000Z</time>
      </trkpt>
      <trkpt lat="42.48794202692806720733642578125" lon="-8.75186554156243801116943359375">
        <ele>74.1999969482421875</ele>
        <time>2019-05-04T13:22:54.000Z</time>
      </trkpt>
      <trkpt lat="42.48813346959650516510009765625" lon="-8.75197517685592174530029296875">
        <ele>73.8000030517578125</ele>
        <time>2019-05-04T13:23:00.000Z</time>
      </trkpt>
      <trkpt lat="42.4881660751998424530029296875" lon="-8.7520102970302104949951171875">
        <ele>74</ele>
        <time>2019-05-04T13:23:03.000Z</time>
      </trkpt>
      <trkpt lat="42.4881885387003421783447265625" lon="-8.75202764756977558135986328125">
        <ele>74</ele>
        <time>2019-05-04T13:23:12.000Z</time>
      </trkpt>
      <trkpt lat="42.48820957727730274200439453125" lon="-8.752058409154415130615234375">
        <ele>73.59999847412109375</ele>
        <time>2019-05-04T13:23:13.000Z</time>
      </trkpt>
      <trkpt lat="42.48830907046794891357421875" lon="-8.75214415602385997772216796875">
        <ele>71.1999969482421875</ele>
        <time>2019-05-04T13:23:22.000Z</time>
      </trkpt>
      <trkpt lat="42.48833346180617809295654296875" lon="-8.7521534599363803863525390625">
        <ele>70.59999847412109375</ele>
        <time>2019-05-04T13:23:27.000Z</time>
      </trkpt>
      <trkpt lat="42.4883595295250415802001953125" lon="-8.7521480955183506011962890625">
        <ele>70.40000152587890625</ele>
        <time>2019-05-04T13:24:43.000Z</time>
      </trkpt>
      <trkpt lat="42.48852691613137722015380859375" lon="-8.75209964811801910400390625">
        <ele>68.8000030517578125</ele>
        <time>2019-05-04T13:24:53.000Z</time>
      </trkpt>
      <trkpt lat="42.4885938875377178192138671875" lon="-8.752201236784458160400390625">
        <ele>68.59999847412109375</ele>
        <time>2019-05-04T13:25:19.000Z</time>
      </trkpt>
      <trkpt lat="42.4890807084739208221435546875" lon="-8.7522480078041553497314453125">
        <ele>61.799999237060546875</ele>
        <time>2019-05-04T13:25:28.000Z</time>
      </trkpt>
      <trkpt lat="42.48924843035638332366943359375" lon="-8.752338029444217681884765625">
        <ele>58.59999847412109375</ele>
        <time>2019-05-04T13:25:31.000Z</time>
      </trkpt>
      <trkpt lat="42.4894300661981105804443359375" lon="-8.7525323219597339630126953125">
        <ele>55.59999847412109375</ele>
        <time>2019-05-04T13:25:35.000Z</time>
      </trkpt>
      <trkpt lat="42.48957641422748565673828125" lon="-8.75266634859144687652587890625">
        <ele>55</ele>
        <time>2019-05-04T13:25:38.000Z</time>
      </trkpt>
      <trkpt lat="42.4897489137947559356689453125" lon="-8.75255486927926540374755859375">
        <ele>54</ele>
        <time>2019-05-04T13:25:42.000Z</time>
      </trkpt>
      <trkpt lat="42.48979308642446994781494140625" lon="-8.752500973641872406005859375">
        <ele>53.799999237060546875</ele>
        <time>2019-05-04T13:25:43.000Z</time>
      </trkpt>
      <trkpt lat="42.48993356712162494659423828125" lon="-8.75221858732402324676513671875">
        <ele>52.799999237060546875</ele>
        <time>2019-05-04T13:25:47.000Z</time>
      </trkpt>
      <trkpt lat="42.489966340363025665283203125" lon="-8.75213812105357646942138671875">
        <ele>52.40000152587890625</ele>
        <time>2019-05-04T13:25:48.000Z</time>
      </trkpt>
      <trkpt lat="42.490071952342987060546875" lon="-8.75192840583622455596923828125">
        <ele>51.40000152587890625</ele>
        <time>2019-05-04T13:25:51.000Z</time>
      </trkpt>
      <trkpt lat="42.490230537950992584228515625" lon="-8.7518161721527576446533203125">
        <ele>50.200000762939453125</ele>
        <time>2019-05-04T13:25:54.000Z</time>
      </trkpt>
      <trkpt lat="42.4906404130160808563232421875" lon="-8.7519579939544200897216796875">
        <ele>46</ele>
        <time>2019-05-04T13:26:03.000Z</time>
      </trkpt>
      <trkpt lat="42.4907755292952060699462890625" lon="-8.75196109525859355926513671875">
        <ele>44.799999237060546875</ele>
        <time>2019-05-04T13:26:06.000Z</time>
      </trkpt>
      <trkpt lat="42.49112002551555633544921875" lon="-8.7522022426128387451171875">
        <ele>47.40000152587890625</ele>
        <time>2019-05-04T13:26:21.000Z</time>
      </trkpt>
      <trkpt lat="42.491172663867473602294921875" lon="-8.75251262448728084564208984375">
        <ele>49.200000762939453125</ele>
        <time>2019-05-04T13:26:27.000Z</time>
      </trkpt>
      <trkpt lat="42.4912077002227306365966796875" lon="-8.75256878323853015899658203125">
        <ele>48.799999237060546875</ele>
        <time>2019-05-04T13:26:28.000Z</time>
      </trkpt>
      <trkpt lat="42.4912858195602893829345703125" lon="-8.75267322175204753875732421875">
        <ele>48.200000762939453125</ele>
        <time>2019-05-04T13:26:30.000Z</time>
      </trkpt>
      <trkpt lat="42.49146477319300174713134765625" lon="-8.75294730998575687408447265625">
        <ele>48</ele>
        <time>2019-05-04T13:26:35.000Z</time>
      </trkpt>
      <trkpt lat="42.49160190112888813018798828125" lon="-8.7531220726668834686279296875">
        <ele>44.40000152587890625</ele>
        <time>2019-05-04T13:26:40.000Z</time>
      </trkpt>
      <trkpt lat="42.491709105670452117919921875" lon="-8.75340026803314685821533203125">
        <ele>42</ele>
        <time>2019-05-04T13:26:45.000Z</time>
      </trkpt>
      <trkpt lat="42.49172980897128582000732421875" lon="-8.7536860071122646331787109375">
        <ele>40.799999237060546875</ele>
        <time>2019-05-04T13:26:49.000Z</time>
      </trkpt>
      <trkpt lat="42.4917441420257091522216796875" lon="-8.754005692899227142333984375">
        <ele>39.40000152587890625</ele>
        <time>2019-05-04T13:26:53.000Z</time>
      </trkpt>
      <trkpt lat="42.49172209762036800384521484375" lon="-8.75413720495998859405517578125">
        <ele>38.59999847412109375</ele>
        <time>2019-05-04T13:26:55.000Z</time>
      </trkpt>
      <trkpt lat="42.49171606265008449554443359375" lon="-8.75442487187683582305908203125">
        <ele>37.59999847412109375</ele>
        <time>2019-05-04T13:27:00.000Z</time>
      </trkpt>
      <trkpt lat="42.49172109179198741912841796875" lon="-8.7544879876077175140380859375">
        <ele>37.799999237060546875</ele>
        <time>2019-05-04T13:27:01.000Z</time>
      </trkpt>
      <trkpt lat="42.4914832971990108489990234375" lon="-8.755127526819705963134765625">
        <ele>40</ele>
        <time>2019-05-04T13:27:14.000Z</time>
      </trkpt>
      <trkpt lat="42.49144247733056545257568359375" lon="-8.755658604204654693603515625">
        <ele>41.40000152587890625</ele>
        <time>2019-05-04T13:27:23.000Z</time>
      </trkpt>
      <trkpt lat="42.4914224445819854736328125" lon="-8.755925484001636505126953125">
        <ele>41.799999237060546875</ele>
        <time>2019-05-04T13:27:29.000Z</time>
      </trkpt>
      <trkpt lat="42.4916288070380687713623046875" lon="-8.75605992972850799560546875">
        <ele>38.59999847412109375</ele>
        <time>2019-05-04T13:27:37.000Z</time>
      </trkpt>
      <trkpt lat="42.49191689305007457733154296875" lon="-8.75651657581329345703125">
        <ele>38</ele>
        <time>2019-05-04T13:27:45.000Z</time>
      </trkpt>
      <trkpt lat="42.49214739538729190826416015625" lon="-8.75702644698321819305419921875">
        <ele>36.200000762939453125</ele>
        <time>2019-05-04T13:27:52.000Z</time>
      </trkpt>
      <trkpt lat="42.4921880476176738739013671875" lon="-8.75715720467269420623779296875">
        <ele>36.40000152587890625</ele>
        <time>2019-05-04T13:27:54.000Z</time>
      </trkpt>
      <trkpt lat="42.49213968403637409210205078125" lon="-8.75762994401156902313232421875">
        <ele>34.40000152587890625</ele>
        <time>2019-05-04T13:28:01.000Z</time>
      </trkpt>
      <trkpt lat="42.49210841953754425048828125" lon="-8.75770219601690769195556640625">
        <ele>34.200000762939453125</ele>
        <time>2019-05-04T13:28:02.000Z</time>
      </trkpt>
      <trkpt lat="42.49207019805908203125" lon="-8.75785089097917079925537109375">
        <ele>35</ele>
        <time>2019-05-04T13:28:04.000Z</time>
      </trkpt>
      <trkpt lat="42.4921357445418834686279296875" lon="-8.7585910968482494354248046875">
        <ele>32.799999237060546875</ele>
        <time>2019-05-04T13:28:13.000Z</time>
      </trkpt>
      <trkpt lat="42.49221562407910823822021484375" lon="-8.758863843977451324462890625">
        <ele>30</ele>
        <time>2019-05-04T13:28:20.000Z</time>
      </trkpt>
      <trkpt lat="42.492301873862743377685546875" lon="-8.75936667434871196746826171875">
        <ele>27.6000003814697265625</ele>
        <time>2019-05-04T13:28:30.000Z</time>
      </trkpt>
      <trkpt lat="42.4922376684844493865966796875" lon="-8.7595429457724094390869140625">
        <ele>27</ele>
        <time>2019-05-04T13:28:32.000Z</time>
      </trkpt>
      <trkpt lat="42.4919329024851322174072265625" lon="-8.75996254384517669677734375">
        <ele>27.799999237060546875</ele>
        <time>2019-05-04T13:28:38.000Z</time>
      </trkpt>
      <trkpt lat="42.4917639233171939849853515625" lon="-8.76014292240142822265625">
        <ele>28.6000003814697265625</ele>
        <time>2019-05-04T13:28:42.000Z</time>
      </trkpt>
      <trkpt lat="42.49195821583271026611328125" lon="-8.76037367619574069976806640625">
        <ele>27.3999996185302734375</ele>
        <time>2019-05-04T13:28:48.000Z</time>
      </trkpt>
      <trkpt lat="42.49215560965240001678466796875" lon="-8.760574422776699066162109375">
        <ele>25.6000003814697265625</ele>
        <time>2019-05-04T13:28:52.000Z</time>
      </trkpt>
      <trkpt lat="42.4923422746360301971435546875" lon="-8.76094289124011993408203125">
        <ele>24.3999996185302734375</ele>
        <time>2019-05-04T13:28:57.000Z</time>
      </trkpt>
      <trkpt lat="42.4921964295208454132080078125" lon="-8.76148209907114505767822265625">
        <ele>23.3999996185302734375</ele>
        <time>2019-05-04T13:29:03.000Z</time>
      </trkpt>
      <trkpt lat="42.49207112006843090057373046875" lon="-8.7617614679038524627685546875">
        <ele>23.200000762939453125</ele>
        <time>2019-05-04T13:29:11.000Z</time>
      </trkpt>
      <trkpt lat="42.492076568305492401123046875" lon="-8.7617497332394123077392578125">
        <ele>23.200000762939453125</ele>
        <time>2019-05-04T13:29:26.000Z</time>
      </trkpt>
      <trkpt lat="42.49207598157227039337158203125" lon="-8.76169349066913127899169921875">
        <ele>23.200000762939453125</ele>
        <time>2019-05-04T13:29:30.000Z</time>
      </trkpt>
      <trkpt lat="42.492078244686126708984375" lon="-8.76165510155260562896728515625">
        <ele>23.200000762939453125</ele>
        <time>2019-05-04T13:29:35.000Z</time>
      </trkpt>
      <trkpt lat="42.492095343768596649169921875" lon="-8.76162945292890071868896484375">
        <ele>23.200000762939453125</ele>
        <time>2019-05-04T13:29:55.000Z</time>
      </trkpt>
      <trkpt lat="42.49214739538729190826416015625" lon="-8.7615264393389225006103515625">
        <ele>23.3999996185302734375</ele>
        <time>2019-05-04T13:29:59.000Z</time>
      </trkpt>
      <trkpt lat="42.492239177227020263671875" lon="-8.761341534554958343505859375">
        <ele>23.6000003814697265625</ele>
        <time>2019-05-04T13:30:04.000Z</time>
      </trkpt>
      <trkpt lat="42.4923987686634063720703125" lon="-8.7611782550811767578125">
        <ele>23.799999237060546875</ele>
        <time>2019-05-04T13:30:11.000Z</time>
      </trkpt>
      <trkpt lat="42.49238225631415843963623046875" lon="-8.76131236553192138671875">
        <ele>23.6000003814697265625</ele>
        <time>2019-05-04T13:30:18.000Z</time>
      </trkpt>
      <trkpt lat="42.49243355356156826019287109375" lon="-8.7612629123032093048095703125">
        <ele>23.799999237060546875</ele>
        <time>2019-05-04T13:30:23.000Z</time>
      </trkpt>
      <trkpt lat="42.4926809035241603851318359375" lon="-8.76101522706449031829833984375">
        <ele>24.200000762939453125</ele>
        <time>2019-05-04T13:30:32.000Z</time>
      </trkpt>
      <trkpt lat="42.4927637167274951934814453125" lon="-8.760964013636112213134765625">
        <ele>24.6000003814697265625</ele>
        <time>2019-05-04T13:30:34.000Z</time>
      </trkpt>
      <trkpt lat="42.49281358905136585235595703125" lon="-8.76095018349587917327880859375">
        <ele>24.6000003814697265625</ele>
        <time>2019-05-04T13:30:37.000Z</time>
      </trkpt>
      <trkpt lat="42.4928106553852558135986328125" lon="-8.76095135696232318878173828125">
        <ele>24.6000003814697265625</ele>
        <time>2019-05-04T13:30:39.000Z</time>
      </trkpt>
      <trkpt lat="42.49282456934452056884765625" lon="-8.76097063533961772918701171875">
        <ele>24.6000003814697265625</ele>
        <time>2019-05-04T13:30:42.000Z</time>
      </trkpt>
      <trkpt lat="42.4928961507976055145263671875" lon="-8.7612548656761646270751953125">
        <ele>24.200000762939453125</ele>
        <time>2019-05-04T13:30:50.000Z</time>
      </trkpt>
      <trkpt lat="42.49293328262865543365478515625" lon="-8.76158796250820159912109375">
        <ele>24</ele>
        <time>2019-05-04T13:30:55.000Z</time>
      </trkpt>
      <trkpt lat="42.49307225458323955535888671875" lon="-8.76206514425575733184814453125">
        <ele>24</ele>
        <time>2019-05-04T13:31:02.000Z</time>
      </trkpt>
      <trkpt lat="42.49319094233214855194091796875" lon="-8.76265925355255603790283203125">
        <ele>21.200000762939453125</ele>
        <time>2019-05-04T13:31:13.000Z</time>
      </trkpt>
      <trkpt lat="42.493095807731151580810546875" lon="-8.76276251859962940216064453125">
        <ele>21</ele>
        <time>2019-05-04T13:31:15.000Z</time>
      </trkpt>
      <trkpt lat="42.49300586991012096405029296875" lon="-8.76287232153117656707763671875">
        <ele>20.799999237060546875</ele>
        <time>2019-05-04T13:31:17.000Z</time>
      </trkpt>
      <trkpt lat="42.49306420795619487762451171875" lon="-8.76329594291746616363525390625">
        <ele>21</ele>
        <time>2019-05-04T13:31:24.000Z</time>
      </trkpt>
      <trkpt lat="42.4931363761425018310546875" lon="-8.76344396732747554779052734375">
        <ele>21.3999996185302734375</ele>
        <time>2019-05-04T13:31:26.000Z</time>
      </trkpt>
      <trkpt lat="42.493227906525135040283203125" lon="-8.76377262175083160400390625">
        <ele>21.3999996185302734375</ele>
        <time>2019-05-04T13:31:30.000Z</time>
      </trkpt>
      <trkpt lat="42.49329018406569957733154296875" lon="-8.76393950544297695159912109375">
        <ele>21</ele>
        <time>2019-05-04T13:31:32.000Z</time>
      </trkpt>
      <trkpt lat="42.49339143745601177215576171875" lon="-8.76415709964931011199951171875">
        <ele>20.6000003814697265625</ele>
        <time>2019-05-04T13:31:35.000Z</time>
      </trkpt>
      <trkpt lat="42.49337685294449329376220703125" lon="-8.76466085202991962432861328125">
        <ele>19.6000003814697265625</ele>
        <time>2019-05-04T13:31:41.000Z</time>
      </trkpt>
      <trkpt lat="42.4930751882493495941162109375" lon="-8.76489386893808841705322265625">
        <ele>19.3999996185302734375</ele>
        <time>2019-05-04T13:31:47.000Z</time>
      </trkpt>
      <trkpt lat="42.4928815662860870361328125" lon="-8.76492488197982311248779296875">
        <ele>19.3999996185302734375</ele>
        <time>2019-05-04T13:31:50.000Z</time>
      </trkpt>
      <trkpt lat="42.492389716207981109619140625" lon="-8.7651011534035205841064453125">
        <ele>19</ele>
        <time>2019-05-04T13:31:59.000Z</time>
      </trkpt>
      <trkpt lat="42.49223808757960796356201171875" lon="-8.76524775288999080657958984375">
        <ele>19</ele>
        <time>2019-05-04T13:32:02.000Z</time>
      </trkpt>
      <trkpt lat="42.49228008091449737548828125" lon="-8.7659356556832790374755859375">
        <ele>18.200000762939453125</ele>
        <time>2019-05-04T13:32:12.000Z</time>
      </trkpt>
      <trkpt lat="42.4923694320023059844970703125" lon="-8.7660234980285167694091796875">
        <ele>18</ele>
        <time>2019-05-04T13:32:14.000Z</time>
      </trkpt>
      <trkpt lat="42.49239985831081867218017578125" lon="-8.766076974570751190185546875">
        <ele>18</ele>
        <time>2019-05-04T13:32:15.000Z</time>
      </trkpt>
      <trkpt lat="42.49257504008710384368896484375" lon="-8.76630420796573162078857421875">
        <ele>18</ele>
        <time>2019-05-04T13:32:20.000Z</time>
      </trkpt>
      <trkpt lat="42.49264578334987163543701171875" lon="-8.76642306335270404815673828125">
        <ele>18</ele>
        <time>2019-05-04T13:32:24.000Z</time>
      </trkpt>
      <trkpt lat="42.49246138148009777069091796875" lon="-8.76668441109359264373779296875">
        <ele>18</ele>
        <time>2019-05-04T13:32:37.000Z</time>
      </trkpt>
      <trkpt lat="42.49243036843836307525634765625" lon="-8.76680217683315277099609375">
        <ele>17.799999237060546875</ele>
        <time>2019-05-04T13:32:39.000Z</time>
      </trkpt>
      <trkpt lat="42.49233238399028778076171875" lon="-8.76717391423881053924560546875">
        <ele>17</ele>
        <time>2019-05-04T13:32:47.000Z</time>
      </trkpt>
      <trkpt lat="42.4923370778560638427734375" lon="-8.7674467451870441436767578125">
        <ele>16.3999996185302734375</ele>
        <time>2019-05-04T13:32:51.000Z</time>
      </trkpt>
      <trkpt lat="42.49237529933452606201171875" lon="-8.76763843931257724761962890625">
        <ele>16</ele>
        <time>2019-05-04T13:32:54.000Z</time>
      </trkpt>
      <trkpt lat="42.4924931488931179046630859375" lon="-8.7678893096745014190673828125">
        <ele>15.6000003814697265625</ele>
        <time>2019-05-04T13:32:58.000Z</time>
      </trkpt>
      <trkpt lat="42.49251754023134708404541015625" lon="-8.76827202737331390380859375">
        <ele>14.80000019073486328125</ele>
        <time>2019-05-04T13:33:03.000Z</time>
      </trkpt>
      <trkpt lat="42.49247713945806026458740234375" lon="-8.7687130831182003021240234375">
        <ele>13.6000003814697265625</ele>
        <time>2019-05-04T13:33:11.000Z</time>
      </trkpt>
      <trkpt lat="42.4925176240503787994384765625" lon="-8.76917417161166667938232421875">
        <ele>12.6000003814697265625</ele>
        <time>2019-05-04T13:33:19.000Z</time>
      </trkpt>
      <trkpt lat="42.49251603148877620697021484375" lon="-8.76931498758494853973388671875">
        <ele>12.3999996185302734375</ele>
        <time>2019-05-04T13:33:21.000Z</time>
      </trkpt>
      <trkpt lat="42.49261728487908840179443359375" lon="-8.76970231533050537109375">
        <ele>12.6000003814697265625</ele>
        <time>2019-05-04T13:33:26.000Z</time>
      </trkpt>
      <trkpt lat="42.49269188381731510162353515625" lon="-8.7699328176677227020263671875">
        <ele>13</ele>
        <time>2019-05-04T13:33:29.000Z</time>
      </trkpt>
      <trkpt lat="42.492714263498783111572265625" lon="-8.77031452953815460205078125">
        <ele>10.80000019073486328125</ele>
        <time>2019-05-04T13:33:39.000Z</time>
      </trkpt>
      <trkpt lat="42.492727339267730712890625" lon="-8.7703157030045986175537109375">
        <ele>11</ele>
        <time>2019-05-04T13:33:43.000Z</time>
      </trkpt>
      <trkpt lat="42.4927556701004505157470703125" lon="-8.7703442014753818511962890625">
        <ele>11</ele>
        <time>2019-05-04T13:33:49.000Z</time>
      </trkpt>
      <trkpt lat="42.49269272200763225555419921875" lon="-8.77041083760559558868408203125">
        <ele>11</ele>
        <time>2019-05-04T13:34:13.000Z</time>
      </trkpt>
      <trkpt lat="42.4926892854273319244384765625" lon="-8.77066296525299549102783203125">
        <ele>11.19999980926513671875</ele>
        <time>2019-05-04T13:34:20.000Z</time>
      </trkpt>
      <trkpt lat="42.49281878583133220672607421875" lon="-8.77102841623127460479736328125">
        <ele>11.80000019073486328125</ele>
        <time>2019-05-04T13:34:26.000Z</time>
      </trkpt>
      <trkpt lat="42.49294954352080821990966796875" lon="-8.77131558023393154144287109375">
        <ele>12</ele>
        <time>2019-05-04T13:34:32.000Z</time>
      </trkpt>
      <trkpt lat="42.49317786656320095062255859375" lon="-8.7716536223888397216796875">
        <ele>13.80000019073486328125</ele>
        <time>2019-05-04T13:34:41.000Z</time>
      </trkpt>
      <trkpt lat="42.4933169223368167877197265625" lon="-8.7718100287020206451416015625">
        <ele>14.80000019073486328125</ele>
        <time>2019-05-04T13:34:45.000Z</time>
      </trkpt>
      <trkpt lat="42.49331365339457988739013671875" lon="-8.7721349112689495086669921875">
        <ele>14.3999996185302734375</ele>
        <time>2019-05-04T13:34:51.000Z</time>
      </trkpt>
      <trkpt lat="42.493276856839656829833984375" lon="-8.77219031564891338348388671875">
        <ele>14.19999980926513671875</ele>
        <time>2019-05-04T13:34:52.000Z</time>
      </trkpt>
      <trkpt lat="42.493185661733150482177734375" lon="-8.772745616734027862548828125">
        <ele>12.6000003814697265625</ele>
        <time>2019-05-04T13:35:03.000Z</time>
      </trkpt>
      <trkpt lat="42.49315992929041385650634765625" lon="-8.772883079946041107177734375">
        <ele>12.6000003814697265625</ele>
        <time>2019-05-04T13:35:05.000Z</time>
      </trkpt>
      <trkpt lat="42.49313612468540668487548828125" lon="-8.7730150111019611358642578125">
        <ele>12.19999980926513671875</ele>
        <time>2019-05-04T13:35:07.000Z</time>
      </trkpt>
      <trkpt lat="42.493146769702434539794921875" lon="-8.77319295890629291534423828125">
        <ele>11.80000019073486328125</ele>
        <time>2019-05-04T13:35:10.000Z</time>
      </trkpt>
      <trkpt lat="42.493258081376552581787109375" lon="-8.7733737565577030181884765625">
        <ele>11.3999996185302734375</ele>
        <time>2019-05-04T13:35:14.000Z</time>
      </trkpt>
      <trkpt lat="42.4932704865932464599609375" lon="-8.77344374544918537139892578125">
        <ele>11.19999980926513671875</ele>
        <time>2019-05-04T13:35:15.000Z</time>
      </trkpt>
      <trkpt lat="42.4933135695755481719970703125" lon="-8.773728646337985992431640625">
        <ele>10.80000019073486328125</ele>
        <time>2019-05-04T13:35:20.000Z</time>
      </trkpt>
      <trkpt lat="42.493293620645999908447265625" lon="-8.77376250922679901123046875">
        <ele>10.80000019073486328125</ele>
        <time>2019-05-04T13:35:21.000Z</time>
      </trkpt>
      <trkpt lat="42.4931694008409976959228515625" lon="-8.77402880229055881500244140625">
        <ele>10.3999996185302734375</ele>
        <time>2019-05-04T13:35:26.000Z</time>
      </trkpt>
      <trkpt lat="42.49311483465135097503662109375" lon="-8.7741381861269474029541015625">
        <ele>10.19999980926513671875</ele>
        <time>2019-05-04T13:35:28.000Z</time>
      </trkpt>
      <trkpt lat="42.4930527247488498687744140625" lon="-8.7742240168154239654541015625">
        <ele>10.19999980926513671875</ele>
        <time>2019-05-04T13:35:30.000Z</time>
      </trkpt>
      <trkpt lat="42.49300939030945301055908203125" lon="-8.77429937012493610382080078125">
        <ele>10</ele>
        <time>2019-05-04T13:35:33.000Z</time>
      </trkpt>
      <trkpt lat="42.493081055581569671630859375" lon="-8.77439358271658420562744140625">
        <ele>10</ele>
        <time>2019-05-04T13:35:38.000Z</time>
      </trkpt>
      <trkpt lat="42.49361255206167697906494140625" lon="-8.774527274072170257568359375">
        <ele>10.6000003814697265625</ele>
        <time>2019-05-04T13:35:54.000Z</time>
      </trkpt>
      <trkpt lat="42.4937021546065807342529296875" lon="-8.774538002908229827880859375">
        <ele>10.80000019073486328125</ele>
        <time>2019-05-04T13:36:00.000Z</time>
      </trkpt>
      <trkpt lat="42.4937038309872150421142578125" lon="-8.7745401822030544281005859375">
        <ele>10.80000019073486328125</ele>
        <time>2019-05-04T13:36:18.000Z</time>
      </trkpt>
      <trkpt lat="42.49372470192611217498779296875" lon="-8.77466750331223011016845703125">
        <ele>11</ele>
        <time>2019-05-04T13:36:22.000Z</time>
      </trkpt>
      <trkpt lat="42.49361389316618442535400390625" lon="-8.77493505366146564483642578125">
        <ele>10.6000003814697265625</ele>
        <time>2019-05-04T13:36:28.000Z</time>
      </trkpt>
      <trkpt lat="42.49374565668404102325439453125" lon="-8.77514845691621303558349609375">
        <ele>9.80000019073486328125</ele>
        <time>2019-05-04T13:36:32.000Z</time>
      </trkpt>
      <trkpt lat="42.49380248598754405975341796875" lon="-8.77514041028916835784912109375">
        <ele>9.6000003814697265625</ele>
        <time>2019-05-04T13:36:33.000Z</time>
      </trkpt>
      <trkpt lat="42.494023852050304412841796875" lon="-8.7750853411853313446044921875">
        <ele>9.6000003814697265625</ele>
        <time>2019-05-04T13:36:37.000Z</time>
      </trkpt>
      <trkpt lat="42.49422074295580387115478515625" lon="-8.77512783743441104888916015625">
        <ele>9.6000003814697265625</ele>
        <time>2019-05-04T13:36:41.000Z</time>
      </trkpt>
      <trkpt lat="42.49446163885295391082763671875" lon="-8.775034882128238677978515625">
        <ele>10.19999980926513671875</ele>
        <time>2019-05-04T13:36:46.000Z</time>
      </trkpt>
      <trkpt lat="42.49480060301721096038818359375" lon="-8.77490580081939697265625">
        <ele>10.80000019073486328125</ele>
        <time>2019-05-04T13:36:55.000Z</time>
      </trkpt>
      <trkpt lat="42.49485156498849391937255859375" lon="-8.77517309971153736114501953125">
        <ele>8.6000003814697265625</ele>
        <time>2019-05-04T13:36:59.000Z</time>
      </trkpt>
      <trkpt lat="42.4948704242706298828125" lon="-8.7757129780948162078857421875">
        <ele>8.3999996185302734375</ele>
        <time>2019-05-04T13:37:05.000Z</time>
      </trkpt>
      <trkpt lat="42.49491359107196331024169921875" lon="-8.77608421258628368377685546875">
        <ele>9</ele>
        <time>2019-05-04T13:37:10.000Z</time>
      </trkpt>
      <trkpt lat="42.49510134570300579071044921875" lon="-8.77620139159262180328369140625">
        <ele>8.6000003814697265625</ele>
        <time>2019-05-04T13:37:15.000Z</time>
      </trkpt>
      <trkpt lat="42.4951766990125179290771484375" lon="-8.7762547843158245086669921875">
        <ele>8.3999996185302734375</ele>
        <time>2019-05-04T13:37:17.000Z</time>
      </trkpt>
      <trkpt lat="42.495515160262584686279296875" lon="-8.77648570574820041656494140625">
        <ele>7.599999904632568359375</ele>
        <time>2019-05-04T13:37:26.000Z</time>
      </trkpt>
      <trkpt lat="42.49562957324087619781494140625" lon="-8.77647313289344310760498046875">
        <ele>7.599999904632568359375</ele>
        <time>2019-05-04T13:37:29.000Z</time>
      </trkpt>
      <trkpt lat="42.4961285479366779327392578125" lon="-8.776778988540172576904296875">
        <ele>8.19999980926513671875</ele>
        <time>2019-05-04T13:37:40.000Z</time>
      </trkpt>
      <trkpt lat="42.49644689261913299560546875" lon="-8.7769925594329833984375">
        <ele>8.6000003814697265625</ele>
        <time>2019-05-04T13:37:46.000Z</time>
      </trkpt>
      <trkpt lat="42.4965892173349857330322265625" lon="-8.7772223912179470062255859375">
        <ele>8</ele>
        <time>2019-05-04T13:37:50.000Z</time>
      </trkpt>
      <trkpt lat="42.4966133572161197662353515625" lon="-8.7772847525775432586669921875">
        <ele>7.80000019073486328125</ele>
        <time>2019-05-04T13:37:51.000Z</time>
      </trkpt>
      <trkpt lat="42.4967719428241252899169921875" lon="-8.77743923105299472808837890625">
        <ele>7</ele>
        <time>2019-05-04T13:37:55.000Z</time>
      </trkpt>
      <trkpt lat="42.49732892028987407684326171875" lon="-8.77772974781692028045654296875">
        <ele>3.7999999523162841796875</ele>
        <time>2019-05-04T13:38:05.000Z</time>
      </trkpt>
      <trkpt lat="42.4978776834905147552490234375" lon="-8.7778570689260959625244140625">
        <ele>3.599999904632568359375</ele>
        <time>2019-05-04T13:38:14.000Z</time>
      </trkpt>
      <trkpt lat="42.4984449706971645355224609375" lon="-8.77786452881991863250732421875">
        <ele>3.599999904632568359375</ele>
        <time>2019-05-04T13:38:23.000Z</time>
      </trkpt>
      <trkpt lat="42.49850976280868053436279296875" lon="-8.777864277362823486328125">
        <ele>3.599999904632568359375</ele>
        <time>2019-05-04T13:38:24.000Z</time>
      </trkpt>
      <trkpt lat="42.4990642257034778594970703125" lon="-8.77790115773677825927734375">
        <ele>3.2000000476837158203125</ele>
        <time>2019-05-04T13:38:33.000Z</time>
      </trkpt>
      <trkpt lat="42.49912834726274013519287109375" lon="-8.77790995873510837554931640625">
        <ele>3.400000095367431640625</ele>
        <time>2019-05-04T13:38:34.000Z</time>
      </trkpt>
      <trkpt lat="42.4994300119578838348388671875" lon="-8.7779908441007137298583984375">
        <ele>3.599999904632568359375</ele>
        <time>2019-05-04T13:38:39.000Z</time>
      </trkpt>
      <trkpt lat="42.49958164058625698089599609375" lon="-8.77802076749503612518310546875">
        <ele>3.7999999523162841796875</ele>
        <time>2019-05-04T13:38:42.000Z</time>
      </trkpt>
      <trkpt lat="42.4997706525027751922607421875" lon="-8.77799478359520435333251953125">
        <ele>3.599999904632568359375</ele>
        <time>2019-05-04T13:38:45.000Z</time>
      </trkpt>
      <trkpt lat="42.49996586702764034271240234375" lon="-8.77792638726532459259033203125">
        <ele>3</ele>
        <time>2019-05-04T13:38:48.000Z</time>
      </trkpt>
      <trkpt lat="42.50020357780158519744873046875" lon="-8.7780039198696613311767578125">
        <ele>3</ele>
        <time>2019-05-04T13:38:53.000Z</time>
      </trkpt>
      <trkpt lat="42.5002812780439853668212890625" lon="-8.77803300507366657257080078125">
        <ele>3</ele>
        <time>2019-05-04T13:38:56.000Z</time>
      </trkpt>
      <trkpt lat="42.50041362829506397247314453125" lon="-8.777959160506725311279296875">
        <ele>3</ele>
        <time>2019-05-04T13:39:02.000Z</time>
      </trkpt>
      <trkpt lat="42.50057087279856204986572265625" lon="-8.7779165804386138916015625">
        <ele>3</ele>
        <time>2019-05-04T13:39:06.000Z</time>
      </trkpt>
      <trkpt lat="42.5007010437548160552978515625" lon="-8.77779185771942138671875">
        <ele>3</ele>
        <time>2019-05-04T13:39:10.000Z</time>
      </trkpt>
      <trkpt lat="42.50076432712376117706298828125" lon="-8.7776901014149188995361328125">
        <ele>3</ele>
        <time>2019-05-04T13:39:12.000Z</time>
      </trkpt>
      <trkpt lat="42.5010031275451183319091796875" lon="-8.77750687301158905029296875">
        <ele>2.7999999523162841796875</ele>
        <time>2019-05-04T13:39:17.000Z</time>
      </trkpt>
      <trkpt lat="42.501058615744113922119140625" lon="-8.7775030173361301422119140625">
        <ele>2.7999999523162841796875</ele>
        <time>2019-05-04T13:39:18.000Z</time>
      </trkpt>
      <trkpt lat="42.50120353884994983673095703125" lon="-8.7775469385087490081787109375">
        <ele>2.7999999523162841796875</ele>
        <time>2019-05-04T13:39:21.000Z</time>
      </trkpt>
      <trkpt lat="42.50138123519718647003173828125" lon="-8.77723203040659427642822265625">
        <ele>2.400000095367431640625</ele>
        <time>2019-05-04T13:39:29.000Z</time>
      </trkpt>
      <trkpt lat="42.5014352984726428985595703125" lon="-8.77695023082196712493896484375">
        <ele>2.2000000476837158203125</ele>
        <time>2019-05-04T13:39:34.000Z</time>
      </trkpt>
      <trkpt lat="42.50168549828231334686279296875" lon="-8.7770024500787258148193359375">
        <ele>2.2000000476837158203125</ele>
        <time>2019-05-04T13:39:43.000Z</time>
      </trkpt>
      <trkpt lat="42.5017631985247135162353515625" lon="-8.7770497240126132965087890625">
        <ele>2</ele>
        <time>2019-05-04T13:39:45.000Z</time>
      </trkpt>
      <trkpt lat="42.50189554877579212188720703125" lon="-8.77700136043131351470947265625">
        <ele>1.60000002384185791015625</ele>
        <time>2019-05-04T13:39:49.000Z</time>
      </trkpt>
      <trkpt lat="42.50202228315174579620361328125" lon="-8.7768173776566982269287109375">
        <ele>1.39999997615814208984375</ele>
        <time>2019-05-04T13:39:53.000Z</time>
      </trkpt>
      <trkpt lat="42.50204374082386493682861328125" lon="-8.77673112787306308746337890625">
        <ele>1.60000002384185791015625</ele>
        <time>2019-05-04T13:39:55.000Z</time>
      </trkpt>
      <trkpt lat="42.50213108025491237640380859375" lon="-8.7766986899077892303466796875">
        <ele>1.60000002384185791015625</ele>
        <time>2019-05-04T13:40:00.000Z</time>
      </trkpt>
      <trkpt lat="42.50215421430766582489013671875" lon="-8.7766882963478565216064453125">
        <ele>1.60000002384185791015625</ele>
        <time>2019-05-04T13:40:03.000Z</time>
      </trkpt>
      <trkpt lat="42.50214390456676483154296875" lon="-8.77671025693416595458984375">
        <ele>1.39999997615814208984375</ele>
        <time>2019-05-04T13:41:36.000Z</time>
      </trkpt>
      <trkpt lat="42.50242151319980621337890625" lon="-8.7764948420226573944091796875">
        <ele>1.60000002384185791015625</ele>
        <time>2019-05-04T13:41:46.000Z</time>
      </trkpt>
      <trkpt lat="42.50267825089395046234130859375" lon="-8.77633114345371723175048828125">
        <ele>1.2000000476837158203125</ele>
        <time>2019-05-04T13:41:51.000Z</time>
      </trkpt>
      <trkpt lat="42.5031968392431735992431640625" lon="-8.77600173465907573699951171875">
        <ele>-0.20000000298023223876953125</ele>
        <time>2019-05-04T13:42:01.000Z</time>
      </trkpt>
      <trkpt lat="42.50372045673429965972900390625" lon="-8.77574373967945575714111328125">
        <ele>-0.60000002384185791015625</ele>
        <time>2019-05-04T13:42:11.000Z</time>
      </trkpt>
      <trkpt lat="42.5042673759162425994873046875" lon="-8.7754571624100208282470703125">
        <ele>-0.20000000298023223876953125</ele>
        <time>2019-05-04T13:42:21.000Z</time>
      </trkpt>
      <trkpt lat="42.5044910050928592681884765625" lon="-8.77539454959332942962646484375">
        <ele>-0.4000000059604644775390625</ele>
        <time>2019-05-04T13:42:25.000Z</time>
      </trkpt>
      <trkpt lat="42.5047159753739833831787109375" lon="-8.77529849298298358917236328125">
        <ele>-0.60000002384185791015625</ele>
        <time>2019-05-04T13:42:29.000Z</time>
      </trkpt>
      <trkpt lat="42.5049027241766452789306640625" lon="-8.77512649632990360260009765625">
        <ele>-0.60000002384185791015625</ele>
        <time>2019-05-04T13:42:33.000Z</time>
      </trkpt>
      <trkpt lat="42.50499215908348560333251953125" lon="-8.775026164948940277099609375">
        <ele>-0.60000002384185791015625</ele>
        <time>2019-05-04T13:42:35.000Z</time>
      </trkpt>
      <trkpt lat="42.50536012463271617889404296875" lon="-8.77441889606416225433349609375">
        <ele>0</ele>
        <time>2019-05-04T13:42:45.000Z</time>
      </trkpt>
      <trkpt lat="42.50564896501600742340087890625" lon="-8.77378924749791622161865234375">
        <ele>0.20000000298023223876953125</ele>
        <time>2019-05-04T13:42:54.000Z</time>
      </trkpt>
      <trkpt lat="42.5056837499141693115234375" lon="-8.773737363517284393310546875">
        <ele>0.20000000298023223876953125</ele>
        <time>2019-05-04T13:42:55.000Z</time>
      </trkpt>
      <trkpt lat="42.50587762333452701568603515625" lon="-8.773196898400783538818359375">
        <ele>0.800000011920928955078125</ele>
        <time>2019-05-04T13:43:03.000Z</time>
      </trkpt>
      <trkpt lat="42.5059950537979602813720703125" lon="-8.7728034518659114837646484375">
        <ele>1.39999997615814208984375</ele>
        <time>2019-05-04T13:43:09.000Z</time>
      </trkpt>
      <trkpt lat="42.50616512261331081390380859375" lon="-8.77238963730633258819580078125">
        <ele>1.60000002384185791015625</ele>
        <time>2019-05-04T13:43:16.000Z</time>
      </trkpt>
      <trkpt lat="42.50622681342065334320068359375" lon="-8.772280924022197723388671875">
        <ele>1.60000002384185791015625</ele>
        <time>2019-05-04T13:43:18.000Z</time>
      </trkpt>
      <trkpt lat="42.5063470937311649322509765625" lon="-8.7720950134098529815673828125">
        <ele>1.7999999523162841796875</ele>
        <time>2019-05-04T13:43:22.000Z</time>
      </trkpt>
      <trkpt lat="42.50647508539259433746337890625" lon="-8.77177490852773189544677734375">
        <ele>2</ele>
        <time>2019-05-04T13:43:31.000Z</time>
      </trkpt>
      <trkpt lat="42.50649084337055683135986328125" lon="-8.77172947861254215240478515625">
        <ele>1.7999999523162841796875</ele>
        <time>2019-05-04T13:43:34.000Z</time>
      </trkpt>
      <trkpt lat="42.50653392635285854339599609375" lon="-8.771428652107715606689453125">
        <ele>1.60000002384185791015625</ele>
        <time>2019-05-04T13:43:42.000Z</time>
      </trkpt>
      <trkpt lat="42.50675369985401630401611328125" lon="-8.771110475063323974609375">
        <ele>1</ele>
        <time>2019-05-04T13:43:48.000Z</time>
      </trkpt>
      <trkpt lat="42.506807260215282440185546875" lon="-8.7710737623274326324462890625">
        <ele>1</ele>
        <time>2019-05-04T13:43:49.000Z</time>
      </trkpt>
      <trkpt lat="42.5073547661304473876953125" lon="-8.77080277539789676666259765625">
        <ele>1</ele>
        <time>2019-05-04T13:43:59.000Z</time>
      </trkpt>
      <trkpt lat="42.5079118274152278900146484375" lon="-8.77059658057987689971923828125">
        <ele>0.60000002384185791015625</ele>
        <time>2019-05-04T13:44:09.000Z</time>
      </trkpt>
      <trkpt lat="42.50850048847496509552001953125" lon="-8.77059255726635456085205078125">
        <ele>1.2000000476837158203125</ele>
        <time>2019-05-04T13:44:19.000Z</time>
      </trkpt>
      <trkpt lat="42.50884406268596649169921875" lon="-8.7705565989017486572265625">
        <ele>1.39999997615814208984375</ele>
        <time>2019-05-04T13:44:25.000Z</time>
      </trkpt>
      <trkpt lat="42.50906073488295078277587890625" lon="-8.7705919705331325531005859375">
        <ele>1.7999999523162841796875</ele>
        <time>2019-05-04T13:44:29.000Z</time>
      </trkpt>
      <trkpt lat="42.509341277182102203369140625" lon="-8.7707364745438098907470703125">
        <ele>2</ele>
        <time>2019-05-04T13:44:36.000Z</time>
      </trkpt>
      <trkpt lat="42.5095959194004535675048828125" lon="-8.7709218822419643402099609375">
        <ele>1.7999999523162841796875</ele>
        <time>2019-05-04T13:44:41.000Z</time>
      </trkpt>
      <trkpt lat="42.509795241057872772216796875" lon="-8.771136961877346038818359375">
        <ele>1.39999997615814208984375</ele>
        <time>2019-05-04T13:44:46.000Z</time>
      </trkpt>
      <trkpt lat="42.5099430978298187255859375" lon="-8.7712346948683261871337890625">
        <ele>1.2000000476837158203125</ele>
        <time>2019-05-04T13:44:49.000Z</time>
      </trkpt>
      <trkpt lat="42.51021961681544780731201171875" lon="-8.771425299346446990966796875">
        <ele>1</ele>
        <time>2019-05-04T13:44:55.000Z</time>
      </trkpt>
      <trkpt lat="42.51065899617969989776611328125" lon="-8.77155697904527187347412109375">
        <ele>1</ele>
        <time>2019-05-04T13:45:03.000Z</time>
      </trkpt>
      <trkpt lat="42.51099695451557636260986328125" lon="-8.77159587107598781585693359375">
        <ele>1.39999997615814208984375</ele>
        <time>2019-05-04T13:45:09.000Z</time>
      </trkpt>
      <trkpt lat="42.51117448322474956512451171875" lon="-8.77160626463592052459716796875">
        <ele>1.7999999523162841796875</ele>
        <time>2019-05-04T13:45:12.000Z</time>
      </trkpt>
      <trkpt lat="42.51138947904109954833984375" lon="-8.7715682946145534515380859375">
        <ele>2</ele>
        <time>2019-05-04T13:45:16.000Z</time>
      </trkpt>
      <trkpt lat="42.5115336477756500244140625" lon="-8.7713795341551303863525390625">
        <ele>2.400000095367431640625</ele>
        <time>2019-05-04T13:45:20.000Z</time>
      </trkpt>
      <trkpt lat="42.51156516373157501220703125" lon="-8.77132446505129337310791015625">
        <ele>2.599999904632568359375</ele>
        <time>2019-05-04T13:45:21.000Z</time>
      </trkpt>
      <trkpt lat="42.51165367662906646728515625" lon="-8.7711622752249240875244140625">
        <ele>2.7999999523162841796875</ele>
        <time>2019-05-04T13:45:24.000Z</time>
      </trkpt>
      <trkpt lat="42.511706985533237457275390625" lon="-8.77104031853377819061279296875">
        <ele>3</ele>
        <time>2019-05-04T13:45:26.000Z</time>
      </trkpt>
      <trkpt lat="42.51182357780635356903076171875" lon="-8.770776875317096710205078125">
        <ele>2.599999904632568359375</ele>
        <time>2019-05-04T13:45:30.000Z</time>
      </trkpt>
      <trkpt lat="42.51191544346511363983154296875" lon="-8.77038317732512950897216796875">
        <ele>2.2000000476837158203125</ele>
        <time>2019-05-04T13:45:36.000Z</time>
      </trkpt>
      <trkpt lat="42.51201652921736240386962890625" lon="-8.7701886333525180816650390625">
        <ele>2</ele>
        <time>2019-05-04T13:45:40.000Z</time>
      </trkpt>
      <trkpt lat="42.5123730115592479705810546875" lon="-8.7696092762053012847900390625">
        <ele>2</ele>
        <time>2019-05-04T13:45:50.000Z</time>
      </trkpt>
      <trkpt lat="42.51241408288478851318359375" lon="-8.769555129110813140869140625">
        <ele>2</ele>
        <time>2019-05-04T13:45:51.000Z</time>
      </trkpt>
      <trkpt lat="42.5128846429288387298583984375" lon="-8.7691881693899631500244140625">
        <ele>2.599999904632568359375</ele>
        <time>2019-05-04T13:46:00.000Z</time>
      </trkpt>
      <trkpt lat="42.51304649747908115386962890625" lon="-8.76909571699798107147216796875">
        <ele>3</ele>
        <time>2019-05-04T13:46:03.000Z</time>
      </trkpt>
      <trkpt lat="42.51335109584033489227294921875" lon="-8.7687798030674457550048828125">
        <ele>3.599999904632568359375</ele>
        <time>2019-05-04T13:46:10.000Z</time>
      </trkpt>
      <trkpt lat="42.51375158317387104034423828125" lon="-8.768203295767307281494140625">
        <ele>3</ele>
        <time>2019-05-04T13:46:20.000Z</time>
      </trkpt>
      <trkpt lat="42.51387119293212890625" lon="-8.7680197320878505706787109375">
        <ele>2.7999999523162841796875</ele>
        <time>2019-05-04T13:46:23.000Z</time>
      </trkpt>
      <trkpt lat="42.51408468000590801239013671875" lon="-8.76762720756232738494873046875">
        <ele>2</ele>
        <time>2019-05-04T13:46:29.000Z</time>
      </trkpt>
      <trkpt lat="42.514415681362152099609375" lon="-8.76698163338005542755126953125">
        <ele>3.7999999523162841796875</ele>
        <time>2019-05-04T13:46:38.000Z</time>
      </trkpt>
      <trkpt lat="42.51460251398384571075439453125" lon="-8.766549043357372283935546875">
        <ele>6.19999980926513671875</ele>
        <time>2019-05-04T13:46:44.000Z</time>
      </trkpt>
      <trkpt lat="42.51493510790169239044189453125" lon="-8.7659346498548984527587890625">
        <ele>8.80000019073486328125</ele>
        <time>2019-05-04T13:46:53.000Z</time>
      </trkpt>
      <trkpt lat="42.51496477983891963958740234375" lon="-8.765864074230194091796875">
        <ele>8.3999996185302734375</ele>
        <time>2019-05-04T13:46:54.000Z</time>
      </trkpt>
      <trkpt lat="42.5151360221207141876220703125" lon="-8.765424527227878570556640625">
        <ele>5.80000019073486328125</ele>
        <time>2019-05-04T13:47:04.000Z</time>
      </trkpt>
      <trkpt lat="42.51520383171737194061279296875" lon="-8.765550591051578521728515625">
        <ele>6.599999904632568359375</ele>
        <time>2019-05-04T13:47:11.000Z</time>
      </trkpt>
      <trkpt lat="42.51521003432571887969970703125" lon="-8.76556542702019214630126953125">
        <ele>6.80000019073486328125</ele>
        <time>2019-05-04T13:47:13.000Z</time>
      </trkpt>
      <trkpt lat="42.51525144092738628387451171875" lon="-8.76563030295073986053466796875">
        <ele>7.400000095367431640625</ele>
        <time>2019-05-04T13:47:42.000Z</time>
      </trkpt>
      <trkpt lat="42.51551815308630466461181640625" lon="-8.76601402647793292999267578125">
        <ele>7</ele>
        <time>2019-05-04T13:47:54.000Z</time>
      </trkpt>
      <trkpt lat="42.51566332764923572540283203125" lon="-8.7662494741380214691162109375">
        <ele>5.19999980926513671875</ele>
        <time>2019-05-04T13:48:02.000Z</time>
      </trkpt>
      <trkpt lat="42.51566953025758266448974609375" lon="-8.7662652321159839630126953125">
        <ele>5.19999980926513671875</ele>
        <time>2019-05-04T13:49:05.000Z</time>
      </trkpt>
      <trkpt lat="42.51581017859280109405517578125" lon="-8.7665562517940998077392578125">
        <ele>5</ele>
        <time>2019-05-04T13:49:16.000Z</time>
      </trkpt>
      <trkpt lat="42.51588058657944202423095703125" lon="-8.76683411188423633575439453125">
        <ele>5</ele>
        <time>2019-05-04T13:49:25.000Z</time>
      </trkpt>
      <trkpt lat="42.51598066650331020355224609375" lon="-8.7672599963843822479248046875">
        <ele>5.19999980926513671875</ele>
        <time>2019-05-04T13:49:35.000Z</time>
      </trkpt>
      <trkpt lat="42.51584538258612155914306640625" lon="-8.76707416959106922149658203125">
        <ele>4.80000019073486328125</ele>
        <time>2019-05-04T13:49:47.000Z</time>
      </trkpt>
      <trkpt lat="42.51578285358846187591552734375" lon="-8.7667413242161273956298828125">
        <ele>5</ele>
        <time>2019-05-04T13:50:00.000Z</time>
      </trkpt>
      <trkpt lat="42.5157965160906314849853515625" lon="-8.76677242107689380645751953125">
        <ele>5</ele>
        <time>2019-05-04T14:20:53.000Z</time>
      </trkpt>
      <trkpt lat="42.51580934040248394012451171875" lon="-8.766773678362369537353515625">
        <ele>5</ele>
        <time>2019-05-04T14:20:56.000Z</time>
      </trkpt>
      <trkpt lat="42.51581017859280109405517578125" lon="-8.76675029285252094268798828125">
        <ele>5</ele>
        <time>2019-05-04T14:21:15.000Z</time>
      </trkpt>
      <trkpt lat="42.51578452996909618377685546875" lon="-8.7667237222194671630859375">
        <ele>5</ele>
        <time>2019-05-04T14:21:20.000Z</time>
      </trkpt>
      <trkpt lat="42.51576877199113368988037109375" lon="-8.76667653210461139678955078125">
        <ele>5</ele>
        <time>2019-05-04T14:21:54.000Z</time>
      </trkpt>
      <trkpt lat="42.515719234943389892578125" lon="-8.76642758958041667938232421875">
        <ele>5.19999980926513671875</ele>
        <time>2019-05-04T14:21:59.000Z</time>
      </trkpt>
      <trkpt lat="42.51568176783621311187744140625" lon="-8.76632072031497955322265625">
        <ele>5.19999980926513671875</ele>
        <time>2019-05-04T14:22:01.000Z</time>
      </trkpt>
      <trkpt lat="42.51558244228363037109375" lon="-8.76592987217009067535400390625">
        <ele>6.599999904632568359375</ele>
        <time>2019-05-04T14:22:13.000Z</time>
      </trkpt>
      <trkpt lat="42.51554296351969242095947265625" lon="-8.76577162183821201324462890625">
        <ele>6.80000019073486328125</ele>
        <time>2019-05-04T14:22:16.000Z</time>
      </trkpt>
      <trkpt lat="42.5156489945948123931884765625" lon="-8.76553642563521862030029296875">
        <ele>6.19999980926513671875</ele>
        <time>2019-05-04T14:22:20.000Z</time>
      </trkpt>
      <trkpt lat="42.51603104174137115478515625" lon="-8.76510408706963062286376953125">
        <ele>4.599999904632568359375</ele>
        <time>2019-05-04T14:22:29.000Z</time>
      </trkpt>
      <trkpt lat="42.51634678803384304046630859375" lon="-8.76493401825428009033203125">
        <ele>3.7999999523162841796875</ele>
        <time>2019-05-04T14:22:35.000Z</time>
      </trkpt>
      <trkpt lat="42.51652783714234828948974609375" lon="-8.7649432383477687835693359375">
        <ele>3.400000095367431640625</ele>
        <time>2019-05-04T14:22:39.000Z</time>
      </trkpt>
      <trkpt lat="42.5166370533406734466552734375" lon="-8.7649576552212238311767578125">
        <ele>3</ele>
        <time>2019-05-04T14:22:46.000Z</time>
      </trkpt>
      <trkpt lat="42.51670670695602893829345703125" lon="-8.764967881143093109130859375">
        <ele>3</ele>
        <time>2019-05-04T14:22:53.000Z</time>
      </trkpt>
      <trkpt lat="42.51680896617472171783447265625" lon="-8.76495706848800182342529296875">
        <ele>3</ele>
        <time>2019-05-04T14:22:57.000Z</time>
      </trkpt>
      <trkpt lat="42.5169190205633640289306640625" lon="-8.7649435736238956451416015625">
        <ele>3</ele>
        <time>2019-05-04T14:23:03.000Z</time>
      </trkpt>
      <trkpt lat="42.51699931919574737548828125" lon="-8.76497500576078891754150390625">
        <ele>2.7999999523162841796875</ele>
        <time>2019-05-04T14:23:18.000Z</time>
      </trkpt>
      <trkpt lat="42.51701868139207363128662109375" lon="-8.76496628858149051666259765625">
        <ele>2.7999999523162841796875</ele>
        <time>2019-05-04T14:23:19.000Z</time>
      </trkpt>
      <trkpt lat="42.5172398798167705535888671875" lon="-8.764961846172809600830078125">
        <ele>2.599999904632568359375</ele>
        <time>2019-05-04T14:23:27.000Z</time>
      </trkpt>
      <trkpt lat="42.51741531305015087127685546875" lon="-8.76496863551437854766845703125">
        <ele>2.400000095367431640625</ele>
        <time>2019-05-04T14:23:31.000Z</time>
      </trkpt>
      <trkpt lat="42.5175082683563232421875" lon="-8.76496880315244197845458984375">
        <ele>2.400000095367431640625</ele>
        <time>2019-05-04T14:23:33.000Z</time>
      </trkpt>
      <trkpt lat="42.51768420450389385223388671875" lon="-8.764961846172809600830078125">
        <ele>3</ele>
        <time>2019-05-04T14:23:37.000Z</time>
      </trkpt>
      <trkpt lat="42.51807396300137042999267578125" lon="-8.7649144046008586883544921875">
        <ele>4</ele>
        <time>2019-05-04T14:23:45.000Z</time>
      </trkpt>
      <trkpt lat="42.518318630754947662353515625" lon="-8.76489403657615184783935546875">
        <ele>4.80000019073486328125</ele>
        <time>2019-05-04T14:23:50.000Z</time>
      </trkpt>
      <trkpt lat="42.51847160048782825469970703125" lon="-8.76488951034843921661376953125">
        <ele>4.400000095367431640625</ele>
        <time>2019-05-04T14:23:53.000Z</time>
      </trkpt>
      <trkpt lat="42.51904894597828388214111328125" lon="-8.764742575585842132568359375">
        <ele>4.80000019073486328125</ele>
        <time>2019-05-04T14:24:04.000Z</time>
      </trkpt>
      <trkpt lat="42.519602738320827484130859375" lon="-8.76455985009670257568359375">
        <ele>5.19999980926513671875</ele>
        <time>2019-05-04T14:24:14.000Z</time>
      </trkpt>
      <trkpt lat="42.5199733860790729522705078125" lon="-8.76437050290405750274658203125">
        <ele>5</ele>
        <time>2019-05-04T14:24:21.000Z</time>
      </trkpt>
      <trkpt lat="42.52017664723098278045654296875" lon="-8.7642066366970539093017578125">
        <ele>4.80000019073486328125</ele>
        <time>2019-05-04T14:24:25.000Z</time>
      </trkpt>
      <trkpt lat="42.52032525837421417236328125" lon="-8.76409255899488925933837890625">
        <ele>4.599999904632568359375</ele>
        <time>2019-05-04T14:24:28.000Z</time>
      </trkpt>
      <trkpt lat="42.52045643515884876251220703125" lon="-8.76389055512845516204833984375">
        <ele>4.400000095367431640625</ele>
        <time>2019-05-04T14:24:32.000Z</time>
      </trkpt>
      <trkpt lat="42.520566992461681365966796875" lon="-8.76363406889140605926513671875">
        <ele>4.19999980926513671875</ele>
        <time>2019-05-04T14:24:38.000Z</time>
      </trkpt>
      <trkpt lat="42.5205876119434833526611328125" lon="-8.76357975415885448455810546875">
        <ele>4</ele>
        <time>2019-05-04T14:24:39.000Z</time>
      </trkpt>
      <trkpt lat="42.52072985284030437469482421875" lon="-8.76308471895754337310791015625">
        <ele>5.19999980926513671875</ele>
        <time>2019-05-04T14:24:46.000Z</time>
      </trkpt>
      <trkpt lat="42.52079506404697895050048828125" lon="-8.7627347745001316070556640625">
        <ele>6</ele>
        <time>2019-05-04T14:24:51.000Z</time>
      </trkpt>
      <trkpt lat="42.52083999104797840118408203125" lon="-8.7626093812286853790283203125">
        <ele>6.599999904632568359375</ele>
        <time>2019-05-04T14:24:53.000Z</time>
      </trkpt>
      <trkpt lat="42.5211867503821849822998046875" lon="-8.76218668185174465179443359375">
        <ele>6.599999904632568359375</ele>
        <time>2019-05-04T14:25:05.000Z</time>
      </trkpt>
      <trkpt lat="42.52172109670937061309814453125" lon="-8.76194628886878490447998046875">
        <ele>4.599999904632568359375</ele>
        <time>2019-05-04T14:25:15.000Z</time>
      </trkpt>
      <trkpt lat="42.52192863263189792633056640625" lon="-8.7617976777255535125732421875">
        <ele>4.19999980926513671875</ele>
        <time>2019-05-04T14:25:19.000Z</time>
      </trkpt>
      <trkpt lat="42.52208453603088855743408203125" lon="-8.76162526197731494903564453125">
        <ele>4.19999980926513671875</ele>
        <time>2019-05-04T14:25:23.000Z</time>
      </trkpt>
      <trkpt lat="42.5221251882612705230712890625" lon="-8.7615874595940113067626953125">
        <ele>4</ele>
        <time>2019-05-04T14:25:24.000Z</time>
      </trkpt>
      <trkpt lat="42.52231679856777191162109375" lon="-8.7613510899245738983154296875">
        <ele>4</ele>
        <time>2019-05-04T14:25:29.000Z</time>
      </trkpt>
      <trkpt lat="42.52239919267594814300537109375" lon="-8.76127875410020351409912109375">
        <ele>3.7999999523162841796875</ele>
        <time>2019-05-04T14:25:31.000Z</time>
      </trkpt>
      <trkpt lat="42.52257320098578929901123046875" lon="-8.76115470193326473236083984375">
        <ele>3.599999904632568359375</ele>
        <time>2019-05-04T14:25:35.000Z</time>
      </trkpt>
      <trkpt lat="42.52285650931298732757568359375" lon="-8.76106250099837779998779296875">
        <ele>3.599999904632568359375</ele>
        <time>2019-05-04T14:25:41.000Z</time>
      </trkpt>
      <trkpt lat="42.5232842378318309783935546875" lon="-8.76086586154997348785400390625">
        <ele>3.7999999523162841796875</ele>
        <time>2019-05-04T14:25:50.000Z</time>
      </trkpt>
      <trkpt lat="42.52343419007956981658935546875" lon="-8.7607217766344547271728515625">
        <ele>3.599999904632568359375</ele>
        <time>2019-05-04T14:25:54.000Z</time>
      </trkpt>
      <trkpt lat="42.523626051843166351318359375" lon="-8.76053326763212680816650390625">
        <ele>3.400000095367431640625</ele>
        <time>2019-05-04T14:25:59.000Z</time>
      </trkpt>
      <trkpt lat="42.52374834381043910980224609375" lon="-8.760319612920284271240234375">
        <ele>3.599999904632568359375</ele>
        <time>2019-05-04T14:26:03.000Z</time>
      </trkpt>
      <trkpt lat="42.52390139736235141754150390625" lon="-8.75993748195469379425048828125">
        <ele>4.19999980926513671875</ele>
        <time>2019-05-04T14:26:10.000Z</time>
      </trkpt>
      <trkpt lat="42.52397599630057811737060546875" lon="-8.7596881203353404998779296875">
        <ele>4.80000019073486328125</ele>
        <time>2019-05-04T14:26:14.000Z</time>
      </trkpt>
      <trkpt lat="42.52412284724414348602294921875" lon="-8.75947295688092708587646484375">
        <ele>4.80000019073486328125</ele>
        <time>2019-05-04T14:26:18.000Z</time>
      </trkpt>
      <trkpt lat="42.52426936291158199310302734375" lon="-8.75924949534237384796142578125">
        <ele>5</ele>
        <time>2019-05-04T14:26:22.000Z</time>
      </trkpt>
      <trkpt lat="42.5244640745222568511962890625" lon="-8.75907733105123043060302734375">
        <ele>4.599999904632568359375</ele>
        <time>2019-05-04T14:26:26.000Z</time>
      </trkpt>
      <trkpt lat="42.524749226868152618408203125" lon="-8.7589696235954761505126953125">
        <ele>4.400000095367431640625</ele>
        <time>2019-05-04T14:26:31.000Z</time>
      </trkpt>
      <trkpt lat="42.525210566818714141845703125" lon="-8.7594024650752544403076171875">
        <ele>4.400000095367431640625</ele>
        <time>2019-05-04T14:26:41.000Z</time>
      </trkpt>
      <trkpt lat="42.52529446966946125030517578125" lon="-8.75952509231865406036376953125">
        <ele>4.400000095367431640625</ele>
        <time>2019-05-04T14:26:43.000Z</time>
      </trkpt>
      <trkpt lat="42.52544215880334377288818359375" lon="-8.7596656568348407745361328125">
        <ele>4.400000095367431640625</ele>
        <time>2019-05-04T14:26:46.000Z</time>
      </trkpt>
      <trkpt lat="42.525687329471111297607421875" lon="-8.75970899127423763275146484375">
        <ele>5</ele>
        <time>2019-05-04T14:26:50.000Z</time>
      </trkpt>
      <trkpt lat="42.525748349726200103759765625" lon="-8.75970547087490558624267578125">
        <ele>5.19999980926513671875</ele>
        <time>2019-05-04T14:26:51.000Z</time>
      </trkpt>
      <trkpt lat="42.52617708407342433929443359375" lon="-8.75965048559010028839111328125">
        <ele>5.19999980926513671875</ele>
        <time>2019-05-04T14:26:59.000Z</time>
      </trkpt>
      <trkpt lat="42.52651713788509368896484375" lon="-8.75937388278543949127197265625">
        <ele>5.19999980926513671875</ele>
        <time>2019-05-04T14:27:08.000Z</time>
      </trkpt>
      <trkpt lat="42.5265417806804180145263671875" lon="-8.7593236751854419708251953125">
        <ele>5.19999980926513671875</ele>
        <time>2019-05-04T14:27:09.000Z</time>
      </trkpt>
      <trkpt lat="42.5267794914543628692626953125" lon="-8.75877030193805694580078125">
        <ele>5.80000019073486328125</ele>
        <time>2019-05-04T14:27:20.000Z</time>
      </trkpt>
      <trkpt lat="42.52691100351512432098388671875" lon="-8.75859461724758148193359375">
        <ele>6</ele>
        <time>2019-05-04T14:27:32.000Z</time>
      </trkpt>
      <trkpt lat="42.52691745758056640625" lon="-8.75857860781252384185791015625">
        <ele>6</ele>
        <time>2019-05-04T14:27:42.000Z</time>
      </trkpt>
      <trkpt lat="42.52703539095818996429443359375" lon="-8.75836704857647418975830078125">
        <ele>6.19999980926513671875</ele>
        <time>2019-05-04T14:27:47.000Z</time>
      </trkpt>
      <trkpt lat="42.5274191983044147491455078125" lon="-8.75775416381657123565673828125">
        <ele>6.80000019073486328125</ele>
        <time>2019-05-04T14:27:58.000Z</time>
      </trkpt>
      <trkpt lat="42.52785379998385906219482421875" lon="-8.758116178214550018310546875">
        <ele>5.19999980926513671875</ele>
        <time>2019-05-04T14:28:09.000Z</time>
      </trkpt>
      <trkpt lat="42.5282573886215686798095703125" lon="-8.75844516791403293609619140625">
        <ele>6.599999904632568359375</ele>
        <time>2019-05-04T14:28:19.000Z</time>
      </trkpt>
      <trkpt lat="42.52878804691135883331298828125" lon="-8.7583654560148715972900390625">
        <ele>5.80000019073486328125</ele>
        <time>2019-05-04T14:28:32.000Z</time>
      </trkpt>
      <trkpt lat="42.52908677794039249420166015625" lon="-8.75835497863590717315673828125">
        <ele>5</ele>
        <time>2019-05-04T14:28:38.000Z</time>
      </trkpt>
      <trkpt lat="42.52918937243521213531494140625" lon="-8.7583257257938385009765625">
        <ele>4.80000019073486328125</ele>
        <time>2019-05-04T14:28:40.000Z</time>
      </trkpt>
      <trkpt lat="42.529282160103321075439453125" lon="-8.7582953833043575286865234375">
        <ele>4.80000019073486328125</ele>
        <time>2019-05-04T14:28:42.000Z</time>
      </trkpt>
      <trkpt lat="42.5296249799430370330810546875" lon="-8.75824685208499431610107421875">
        <ele>5</ele>
        <time>2019-05-04T14:28:49.000Z</time>
      </trkpt>
      <trkpt lat="42.5298170931637287139892578125" lon="-8.75811374746263027191162109375">
        <ele>5</ele>
        <time>2019-05-04T14:28:53.000Z</time>
      </trkpt>
      <trkpt lat="42.53009445033967494964599609375" lon="-8.7579319439828395843505859375">
        <ele>5.19999980926513671875</ele>
        <time>2019-05-04T14:28:59.000Z</time>
      </trkpt>
      <trkpt lat="42.53039158880710601806640625" lon="-8.7577059678733348846435546875">
        <ele>5.400000095367431640625</ele>
        <time>2019-05-04T14:29:06.000Z</time>
      </trkpt>
      <trkpt lat="42.53057657741010189056396484375" lon="-8.75761452130973339080810546875">
        <ele>5.400000095367431640625</ele>
        <time>2019-05-04T14:29:10.000Z</time>
      </trkpt>
      <trkpt lat="42.5310991890728473663330078125" lon="-8.7573442049324512481689453125">
        <ele>5.19999980926513671875</ele>
        <time>2019-05-04T14:29:20.000Z</time>
      </trkpt>
      <trkpt lat="42.53150294534862041473388671875" lon="-8.75701035372912883758544921875">
        <ele>4.400000095367431640625</ele>
        <time>2019-05-04T14:29:29.000Z</time>
      </trkpt>
      <trkpt lat="42.53168751485645771026611328125" lon="-8.75678136013448238372802734375">
        <ele>4</ele>
        <time>2019-05-04T14:29:34.000Z</time>
      </trkpt>
      <trkpt lat="42.53179647959768772125244140625" lon="-8.75667977146804332733154296875">
        <ele>4.19999980926513671875</ele>
        <time>2019-05-04T14:29:37.000Z</time>
      </trkpt>
      <trkpt lat="42.531917430460453033447265625" lon="-8.75659980811178684234619140625">
        <ele>4.19999980926513671875</ele>
        <time>2019-05-04T14:29:40.000Z</time>
      </trkpt>
      <trkpt lat="42.53200502134859561920166015625" lon="-8.75653929077088832855224609375">
        <ele>4.400000095367431640625</ele>
        <time>2019-05-04T14:29:42.000Z</time>
      </trkpt>
      <trkpt lat="42.53214131109416484832763671875" lon="-8.75649285502731800079345703125">
        <ele>4.400000095367431640625</ele>
        <time>2019-05-04T14:29:45.000Z</time>
      </trkpt>
      <trkpt lat="42.53236108459532260894775390625" lon="-8.75661757774651050567626953125">
        <ele>4.400000095367431640625</ele>
        <time>2019-05-04T14:29:51.000Z</time>
      </trkpt>
      <trkpt lat="42.53252402879297733306884765625" lon="-8.75680013559758663177490234375">
        <ele>4.19999980926513671875</ele>
        <time>2019-05-04T14:29:55.000Z</time>
      </trkpt>
      <trkpt lat="42.5325965322554111480712890625" lon="-8.756901808083057403564453125">
        <ele>4</ele>
        <time>2019-05-04T14:29:57.000Z</time>
      </trkpt>
      <trkpt lat="42.5327678583562374114990234375" lon="-8.75703868456184864044189453125">
        <ele>4.19999980926513671875</ele>
        <time>2019-05-04T14:30:01.000Z</time>
      </trkpt>
      <trkpt lat="42.5328168086707592010498046875" lon="-8.75705611892044544219970703125">
        <ele>4.19999980926513671875</ele>
        <time>2019-05-04T14:30:02.000Z</time>
      </trkpt>
      <trkpt lat="42.53304756246507167816162109375" lon="-8.7570722959935665130615234375">
        <ele>4.400000095367431640625</ele>
        <time>2019-05-04T14:30:07.000Z</time>
      </trkpt>
      <trkpt lat="42.5333814136683940887451171875" lon="-8.7570971064269542694091796875">
        <ele>4.599999904632568359375</ele>
        <time>2019-05-04T14:30:14.000Z</time>
      </trkpt>
      <trkpt lat="42.53389455378055572509765625" lon="-8.75685227103531360626220703125">
        <ele>6.599999904632568359375</ele>
        <time>2019-05-04T14:30:26.000Z</time>
      </trkpt>
      <trkpt lat="42.53408658318221569061279296875" lon="-8.7566991336643695831298828125">
        <ele>8.19999980926513671875</ele>
        <time>2019-05-04T14:30:31.000Z</time>
      </trkpt>
      <trkpt lat="42.534214071929454803466796875" lon="-8.75664196908473968505859375">
        <ele>8.6000003814697265625</ele>
        <time>2019-05-04T14:30:34.000Z</time>
      </trkpt>
      <trkpt lat="42.5344080291688442230224609375" lon="-8.7564781866967678070068359375">
        <ele>8</ele>
        <time>2019-05-04T14:30:39.000Z</time>
      </trkpt>
      <trkpt lat="42.53461078740656375885009765625" lon="-8.75628481619060039520263671875">
        <ele>7.80000019073486328125</ele>
        <time>2019-05-04T14:30:45.000Z</time>
      </trkpt>
      <trkpt lat="42.53489225171506404876708984375" lon="-8.7559062056243419647216796875">
        <ele>7.19999980926513671875</ele>
        <time>2019-05-04T14:30:57.000Z</time>
      </trkpt>
      <trkpt lat="42.53472226671874523162841796875" lon="-8.75518863089382648468017578125">
        <ele>10</ele>
        <time>2019-05-04T14:31:24.000Z</time>
      </trkpt>
      <trkpt lat="42.53471086733043193817138671875" lon="-8.75509978272020816802978515625">
        <ele>10</ele>
        <time>2019-05-04T14:31:26.000Z</time>
      </trkpt>
      <trkpt lat="42.53464221954345703125" lon="-8.75482569448649883270263671875">
        <ele>10.3999996185302734375</ele>
        <time>2019-05-04T14:31:32.000Z</time>
      </trkpt>
      <trkpt lat="42.534373663365840911865234375" lon="-8.75418238341808319091796875">
        <ele>16</ele>
        <time>2019-05-04T14:31:50.000Z</time>
      </trkpt>
      <trkpt lat="42.53430333919823169708251953125" lon="-8.7536712549626827239990234375">
        <ele>17.799999237060546875</ele>
        <time>2019-05-04T14:32:01.000Z</time>
      </trkpt>
      <trkpt lat="42.53427165560424327850341796875" lon="-8.75291679985821247100830078125">
        <ele>17.6000003814697265625</ele>
        <time>2019-05-04T14:32:16.000Z</time>
      </trkpt>
      <trkpt lat="42.534285821020603179931640625" lon="-8.75285108573734760284423828125">
        <ele>17.200000762939453125</ele>
        <time>2019-05-04T14:32:18.000Z</time>
      </trkpt>
      <trkpt lat="42.5344204343855381011962890625" lon="-8.75272066332399845123291015625">
        <ele>15.6000003814697265625</ele>
        <time>2019-05-04T14:32:24.000Z</time>
      </trkpt>
      <trkpt lat="42.53460726700723171234130859375" lon="-8.752601556479930877685546875">
        <ele>14</ele>
        <time>2019-05-04T14:32:29.000Z</time>
      </trkpt>
      <trkpt lat="42.53480650484561920166015625" lon="-8.75240667723119258880615234375">
        <ele>12.6000003814697265625</ele>
        <time>2019-05-04T14:32:34.000Z</time>
      </trkpt>
      <trkpt lat="42.53506877459585666656494140625" lon="-8.75228396616876125335693359375">
        <ele>11</ele>
        <time>2019-05-04T14:32:40.000Z</time>
      </trkpt>
      <trkpt lat="42.5354839302599430084228515625" lon="-8.75238203443586826324462890625">
        <ele>11</ele>
        <time>2019-05-04T14:32:53.000Z</time>
      </trkpt>
      <trkpt lat="42.53550563938915729522705078125" lon="-8.752403073012828826904296875">
        <ele>11</ele>
        <time>2019-05-04T14:32:55.000Z</time>
      </trkpt>
      <trkpt lat="42.53566573373973369598388671875" lon="-8.7525886483490467071533203125">
        <ele>12</ele>
        <time>2019-05-04T14:33:04.000Z</time>
      </trkpt>
      <trkpt lat="42.53569071181118488311767578125" lon="-8.7526097707450389862060546875">
        <ele>12.19999980926513671875</ele>
        <time>2019-05-04T14:33:07.000Z</time>
      </trkpt>
      <trkpt lat="42.53567478619515895843505859375" lon="-8.75261371023952960968017578125">
        <ele>12.19999980926513671875</ele>
        <time>2019-05-04T14:37:33.000Z</time>
      </trkpt>
      <trkpt lat="42.5356837548315525054931640625" lon="-8.752810098230838775634765625">
        <ele>12</ele>
        <time>2019-05-04T14:37:44.000Z</time>
      </trkpt>
      <trkpt lat="42.535670511424541473388671875" lon="-8.75292367301881313323974609375">
        <ele>11.80000019073486328125</ele>
        <time>2019-05-04T14:37:59.000Z</time>
      </trkpt>
      <trkpt lat="42.53582683391869068145751953125" lon="-8.7536125816404819488525390625">
        <ele>12.80000019073486328125</ele>
        <time>2019-05-04T14:38:21.000Z</time>
      </trkpt>
      <trkpt lat="42.53612053580582141876220703125" lon="-8.7542254664003849029541015625">
        <ele>12.19999980926513671875</ele>
        <time>2019-05-04T14:38:39.000Z</time>
      </trkpt>
      <trkpt lat="42.53633243031799793243408203125" lon="-8.75492510385811328887939453125">
        <ele>9.19999980926513671875</ele>
        <time>2019-05-04T14:38:56.000Z</time>
      </trkpt>
      <trkpt lat="42.5363482721149921417236328125" lon="-8.75508419238030910491943359375">
        <ele>9</ele>
        <time>2019-05-04T14:38:59.000Z</time>
      </trkpt>
      <trkpt lat="42.5364515371620655059814453125" lon="-8.75546422787010669708251953125">
        <ele>7.599999904632568359375</ele>
        <time>2019-05-04T14:39:06.000Z</time>
      </trkpt>
      <trkpt lat="42.5366174988448619842529296875" lon="-8.7557425908744335174560546875">
        <ele>7.599999904632568359375</ele>
        <time>2019-05-04T14:39:13.000Z</time>
      </trkpt>
      <trkpt lat="42.5365879945456981658935546875" lon="-8.756070323288440704345703125">
        <ele>6.599999904632568359375</ele>
        <time>2019-05-04T14:39:20.000Z</time>
      </trkpt>
      <trkpt lat="42.53664314746856689453125" lon="-8.756280206143856048583984375">
        <ele>6.80000019073486328125</ele>
        <time>2019-05-04T14:39:24.000Z</time>
      </trkpt>
      <trkpt lat="42.53671783022582530975341796875" lon="-8.7565586529672145843505859375">
        <ele>6.80000019073486328125</ele>
        <time>2019-05-04T14:39:29.000Z</time>
      </trkpt>
      <trkpt lat="42.53688647411763668060302734375" lon="-8.757274635136127471923828125">
        <ele>7.400000095367431640625</ele>
        <time>2019-05-04T14:39:41.000Z</time>
      </trkpt>
      <trkpt lat="42.5369138829410076141357421875" lon="-8.7575768865644931793212890625">
        <ele>7.80000019073486328125</ele>
        <time>2019-05-04T14:39:46.000Z</time>
      </trkpt>
      <trkpt lat="42.536864764988422393798828125" lon="-8.7578186206519603729248046875">
        <ele>7.599999904632568359375</ele>
        <time>2019-05-04T14:39:50.000Z</time>
      </trkpt>
      <trkpt lat="42.53661297261714935302734375" lon="-8.7584874965250492095947265625">
        <ele>6</ele>
        <time>2019-05-04T14:40:02.000Z</time>
      </trkpt>
      <trkpt lat="42.536478526890277862548828125" lon="-8.758835010230541229248046875">
        <ele>5.80000019073486328125</ele>
        <time>2019-05-04T14:40:09.000Z</time>
      </trkpt>
      <trkpt lat="42.53643720410764217376708984375" lon="-8.7590494193136692047119140625">
        <ele>6</ele>
        <time>2019-05-04T14:40:13.000Z</time>
      </trkpt>
      <trkpt lat="42.53616998903453350067138671875" lon="-8.75963053666055202484130859375">
        <ele>8</ele>
        <time>2019-05-04T14:40:28.000Z</time>
      </trkpt>
      <trkpt lat="42.53607644699513912200927734375" lon="-8.75967479310929775238037109375">
        <ele>8</ele>
        <time>2019-05-04T14:40:31.000Z</time>
      </trkpt>
      <trkpt lat="42.5364434905350208282470703125" lon="-8.7597018666565418243408203125">
        <ele>9.6000003814697265625</ele>
        <time>2019-05-04T14:40:45.000Z</time>
      </trkpt>
      <trkpt lat="42.53644625656306743621826171875" lon="-8.76009673811495304107666015625">
        <ele>12</ele>
        <time>2019-05-04T14:40:53.000Z</time>
      </trkpt>
      <trkpt lat="42.53628968261182308197021484375" lon="-8.76079536974430084228515625">
        <ele>19</ele>
        <time>2019-05-04T14:41:07.000Z</time>
      </trkpt>
      <trkpt lat="42.53620837815105915069580078125" lon="-8.76155250705778598785400390625">
        <ele>24.799999237060546875</ele>
        <time>2019-05-04T14:41:23.000Z</time>
      </trkpt>
      <trkpt lat="42.53622430376708507537841796875" lon="-8.7623150087893009185791015625">
        <ele>22.3999996185302734375</ele>
        <time>2019-05-04T14:41:38.000Z</time>
      </trkpt>
      <trkpt lat="42.53645245917141437530517578125" lon="-8.762996457517147064208984375">
        <ele>23.799999237060546875</ele>
        <time>2019-05-04T14:41:56.000Z</time>
      </trkpt>
      <trkpt lat="42.536774240434169769287109375" lon="-8.76361512579023838043212890625">
        <ele>28</ele>
        <time>2019-05-04T14:42:15.000Z</time>
      </trkpt>
      <trkpt lat="42.53712837584316730499267578125" lon="-8.76419775187969207763671875">
        <ele>32.200000762939453125</ele>
        <time>2019-05-04T14:42:35.000Z</time>
      </trkpt>
      <trkpt lat="42.537643611431121826171875" lon="-8.76441056840121746063232421875">
        <ele>33.59999847412109375</ele>
        <time>2019-05-04T14:42:56.000Z</time>
      </trkpt>
      <trkpt lat="42.538185417652130126953125" lon="-8.764462284743785858154296875">
        <ele>35.799999237060546875</ele>
        <time>2019-05-04T14:43:15.000Z</time>
      </trkpt>
      <trkpt lat="42.53867290914058685302734375" lon="-8.7647933699190616607666015625">
        <ele>42.799999237060546875</ele>
        <time>2019-05-04T14:43:35.000Z</time>
      </trkpt>
      <trkpt lat="42.53912528045475482940673828125" lon="-8.76520433463156223297119140625">
        <ele>44</ele>
        <time>2019-05-04T14:43:54.000Z</time>
      </trkpt>
      <trkpt lat="42.53958108834922313690185546875" lon="-8.76564186997711658477783203125">
        <ele>42.40000152587890625</ele>
        <time>2019-05-04T14:44:09.000Z</time>
      </trkpt>
      <trkpt lat="42.54004360176622867584228515625" lon="-8.7660865299403667449951171875">
        <ele>41.200000762939453125</ele>
        <time>2019-05-04T14:44:21.000Z</time>
      </trkpt>
      <trkpt lat="42.54037133418023586273193359375" lon="-8.76671693287789821624755859375">
        <ele>42.59999847412109375</ele>
        <time>2019-05-04T14:44:33.000Z</time>
      </trkpt>
      <trkpt lat="42.54038692452013492584228515625" lon="-8.76677694730460643768310546875">
        <ele>42.59999847412109375</ele>
        <time>2019-05-04T14:44:34.000Z</time>
      </trkpt>
      <trkpt lat="42.540475018322467803955078125" lon="-8.7670179270207881927490234375">
        <ele>42.799999237060546875</ele>
        <time>2019-05-04T14:44:38.000Z</time>
      </trkpt>
      <trkpt lat="42.54078204743564128875732421875" lon="-8.767662160098552703857421875">
        <ele>43</ele>
        <time>2019-05-04T14:44:48.000Z</time>
      </trkpt>
      <trkpt lat="42.54116627387702465057373046875" lon="-8.768240511417388916015625">
        <ele>42</ele>
        <time>2019-05-04T14:44:59.000Z</time>
      </trkpt>
      <trkpt lat="42.54118739627301692962646484375" lon="-8.7683070637285709381103515625">
        <ele>41.59999847412109375</ele>
        <time>2019-05-04T14:45:00.000Z</time>
      </trkpt>
      <trkpt lat="42.54123299382627010345458984375" lon="-8.76860755495727062225341796875">
        <ele>40.200000762939453125</ele>
        <time>2019-05-04T14:45:04.000Z</time>
      </trkpt>
      <trkpt lat="42.54125109873712062835693359375" lon="-8.76912689767777919769287109375">
        <ele>38.200000762939453125</ele>
        <time>2019-05-04T14:45:11.000Z</time>
      </trkpt>
      <trkpt lat="42.5410498492419719696044921875" lon="-8.7693737447261810302734375">
        <ele>37.799999237060546875</ele>
        <time>2019-05-04T14:45:17.000Z</time>
      </trkpt>
      <trkpt lat="42.54053863696753978729248046875" lon="-8.769634254276752471923828125">
        <ele>39.200000762939453125</ele>
        <time>2019-05-04T14:45:27.000Z</time>
      </trkpt>
      <trkpt lat="42.5403501279652118682861328125" lon="-8.76976710744202136993408203125">
        <ele>40.200000762939453125</ele>
        <time>2019-05-04T14:45:31.000Z</time>
      </trkpt>
      <trkpt lat="42.540014348924160003662109375" lon="-8.76992586068809032440185546875">
        <ele>42</ele>
        <time>2019-05-04T14:45:38.000Z</time>
      </trkpt>
      <trkpt lat="42.5396815873682498931884765625" lon="-8.76991731114685535430908203125">
        <ele>40.200000762939453125</ele>
        <time>2019-05-04T14:45:45.000Z</time>
      </trkpt>
      <trkpt lat="42.53952761180698871612548828125" lon="-8.76969334669411182403564453125">
        <ele>40.200000762939453125</ele>
        <time>2019-05-04T14:45:51.000Z</time>
      </trkpt>
      <trkpt lat="42.53949358128011226654052734375" lon="-8.7696552090346813201904296875">
        <ele>40.200000762939453125</ele>
        <time>2019-05-04T14:45:52.000Z</time>
      </trkpt>
      <trkpt lat="42.53942384384572505950927734375" lon="-8.76959167420864105224609375">
        <ele>40.200000762939453125</ele>
        <time>2019-05-04T14:45:54.000Z</time>
      </trkpt>
      <trkpt lat="42.53916442394256591796875" lon="-8.769447505474090576171875">
        <ele>39.59999847412109375</ele>
        <time>2019-05-04T14:46:01.000Z</time>
      </trkpt>
      <trkpt lat="42.53908052109181880950927734375" lon="-8.7694406323134899139404296875">
        <ele>39.40000152587890625</ele>
        <time>2019-05-04T14:46:03.000Z</time>
      </trkpt>
      <trkpt lat="42.53886980004608631134033203125" lon="-8.7696773372590541839599609375">
        <ele>37.200000762939453125</ele>
        <time>2019-05-04T14:46:11.000Z</time>
      </trkpt>
      <trkpt lat="42.53885219804942607879638671875" lon="-8.76979552209377288818359375">
        <ele>36.40000152587890625</ele>
        <time>2019-05-04T14:46:13.000Z</time>
      </trkpt>
      <trkpt lat="42.538847588002681732177734375" lon="-8.769916556775569915771484375">
        <ele>35.799999237060546875</ele>
        <time>2019-05-04T14:46:15.000Z</time>
      </trkpt>
      <trkpt lat="42.5389412976801395416259765625" lon="-8.7701906450092792510986328125">
        <ele>35</ele>
        <time>2019-05-04T14:46:20.000Z</time>
      </trkpt>
      <trkpt lat="42.53903509117662906646728515625" lon="-8.77094074152410030364990234375">
        <ele>34.59999847412109375</ele>
        <time>2019-05-04T14:46:36.000Z</time>
      </trkpt>
      <trkpt lat="42.5390445627272129058837890625" lon="-8.77166041173040866851806640625">
        <ele>34.799999237060546875</ele>
        <time>2019-05-04T14:46:52.000Z</time>
      </trkpt>
      <trkpt lat="42.53891003318130970001220703125" lon="-8.77200105227530002593994140625">
        <ele>33.40000152587890625</ele>
        <time>2019-05-04T14:47:00.000Z</time>
      </trkpt>
      <trkpt lat="42.5385480187833309173583984375" lon="-8.77208252437412738800048828125">
        <ele>30</ele>
        <time>2019-05-04T14:47:06.000Z</time>
      </trkpt>
      <trkpt lat="42.5382211245596408843994140625" lon="-8.77245903946459293365478515625">
        <ele>27.200000762939453125</ele>
        <time>2019-05-04T14:47:11.000Z</time>
      </trkpt>
      <trkpt lat="42.53783874213695526123046875" lon="-8.773001767694950103759765625">
        <ele>24.200000762939453125</ele>
        <time>2019-05-04T14:47:17.000Z</time>
      </trkpt>
      <trkpt lat="42.53730154596269130706787109375" lon="-8.7733764387667179107666015625">
        <ele>21.799999237060546875</ele>
        <time>2019-05-04T14:47:24.000Z</time>
      </trkpt>
      <trkpt lat="42.53683802671730518341064453125" lon="-8.77329203300178050994873046875">
        <ele>23</ele>
        <time>2019-05-04T14:47:31.000Z</time>
      </trkpt>
      <trkpt lat="42.5364776886999607086181640625" lon="-8.7738934345543384552001953125">
        <ele>22</ele>
        <time>2019-05-04T14:47:40.000Z</time>
      </trkpt>
      <trkpt lat="42.5364642776548862457275390625" lon="-8.77399343065917491912841796875">
        <ele>21.6000003814697265625</ele>
        <time>2019-05-04T14:47:41.000Z</time>
      </trkpt>
      <trkpt lat="42.53644399344921112060546875" lon="-8.77437581308186054229736328125">
        <ele>20.200000762939453125</ele>
        <time>2019-05-04T14:47:45.000Z</time>
      </trkpt>
      <trkpt lat="42.5362393073737621307373046875" lon="-8.7746649049222469329833984375">
        <ele>20.6000003814697265625</ele>
        <time>2019-05-04T14:47:50.000Z</time>
      </trkpt>
      <trkpt lat="42.536225058138370513916015625" lon="-8.774720393121242523193359375">
        <ele>20.6000003814697265625</ele>
        <time>2019-05-04T14:47:51.000Z</time>
      </trkpt>
      <trkpt lat="42.536318264901638031005859375" lon="-8.7749170325696468353271484375">
        <ele>20.200000762939453125</ele>
        <time>2019-05-04T14:47:55.000Z</time>
      </trkpt>
      <trkpt lat="42.5363858230412006378173828125" lon="-8.77501308917999267578125">
        <ele>20</ele>
        <time>2019-05-04T14:47:57.000Z</time>
      </trkpt>
      <trkpt lat="42.5366605818271636962890625" lon="-8.77542858012020587921142578125">
        <ele>19.799999237060546875</ele>
        <time>2019-05-04T14:48:04.000Z</time>
      </trkpt>
      <trkpt lat="42.53671984188258647918701171875" lon="-8.7756952084600925445556640625">
        <ele>21</ele>
        <time>2019-05-04T14:48:08.000Z</time>
      </trkpt>
      <trkpt lat="42.53682126291096210479736328125" lon="-8.776415549218654632568359375">
        <ele>24.6000003814697265625</ele>
        <time>2019-05-04T14:48:23.000Z</time>
      </trkpt>
      <trkpt lat="42.5367656908929347991943359375" lon="-8.7771543301641941070556640625">
        <ele>27.200000762939453125</ele>
        <time>2019-05-04T14:48:40.000Z</time>
      </trkpt>
      <trkpt lat="42.53654398955404758453369140625" lon="-8.77782714553177356719970703125">
        <ele>27.799999237060546875</ele>
        <time>2019-05-04T14:48:57.000Z</time>
      </trkpt>
      <trkpt lat="42.53672302700579166412353515625" lon="-8.77855486236512660980224609375">
        <ele>30</ele>
        <time>2019-05-04T14:49:11.000Z</time>
      </trkpt>
      <trkpt lat="42.53693743608891963958740234375" lon="-8.77924628555774688720703125">
        <ele>31.3999996185302734375</ele>
        <time>2019-05-04T14:49:24.000Z</time>
      </trkpt>
      <trkpt lat="42.536976076662540435791015625" lon="-8.77941987477242946624755859375">
        <ele>32.200000762939453125</ele>
        <time>2019-05-04T14:49:27.000Z</time>
      </trkpt>
      <trkpt lat="42.53701136447489261627197265625" lon="-8.7795934639871120452880859375">
        <ele>33.200000762939453125</ele>
        <time>2019-05-04T14:49:30.000Z</time>
      </trkpt>
      <trkpt lat="42.537043802440166473388671875" lon="-8.77970754168927669525146484375">
        <ele>34</ele>
        <time>2019-05-04T14:49:32.000Z</time>
      </trkpt>
      <trkpt lat="42.53717347048223018646240234375" lon="-8.78023358993232250213623046875">
        <ele>36.40000152587890625</ele>
        <time>2019-05-04T14:49:47.000Z</time>
      </trkpt>
      <trkpt lat="42.5371606461703777313232421875" lon="-8.780259154736995697021484375">
        <ele>36.40000152587890625</ele>
        <time>2019-05-04T14:49:49.000Z</time>
      </trkpt>
      <trkpt lat="42.537078000605106353759765625" lon="-8.7803438119590282440185546875">
        <ele>36.59999847412109375</ele>
        <time>2019-05-04T14:49:54.000Z</time>
      </trkpt>
      <trkpt lat="42.53681170754134654998779296875" lon="-8.780599124729633331298828125">
        <ele>37.200000762939453125</ele>
        <time>2019-05-04T14:50:05.000Z</time>
      </trkpt>
      <trkpt lat="42.53661808557808399200439453125" lon="-8.78128116019070148468017578125">
        <ele>39.799999237060546875</ele>
        <time>2019-05-04T14:50:26.000Z</time>
      </trkpt>
      <trkpt lat="42.53622061572968959808349609375" lon="-8.7817613594233989715576171875">
        <ele>41.59999847412109375</ele>
        <time>2019-05-04T14:50:46.000Z</time>
      </trkpt>
      <trkpt lat="42.5361608527600765228271484375" lon="-8.78188800998032093048095703125">
        <ele>42</ele>
        <time>2019-05-04T14:50:51.000Z</time>
      </trkpt>
      <trkpt lat="42.53614953719079494476318359375" lon="-8.78185917623341083526611328125">
        <ele>42</ele>
        <time>2019-05-04T14:50:54.000Z</time>
      </trkpt>
      <trkpt lat="42.53617954440414905548095703125" lon="-8.782081715762615203857421875">
        <ele>42.799999237060546875</ele>
        <time>2019-05-04T14:51:01.000Z</time>
      </trkpt>
      <trkpt lat="42.53625431098043918609619140625" lon="-8.78279149532318115234375">
        <ele>48</ele>
        <time>2019-05-04T14:51:17.000Z</time>
      </trkpt>
      <trkpt lat="42.53633712418377399444580078125" lon="-8.78344352357089519500732421875">
        <ele>61.40000152587890625</ele>
        <time>2019-05-04T14:51:40.000Z</time>
      </trkpt>
      <trkpt lat="42.53636981360614299774169921875" lon="-8.783469758927822113037109375">
        <ele>62.200000762939453125</ele>
        <time>2019-05-04T14:51:43.000Z</time>
      </trkpt>
      <trkpt lat="42.5365350209176540374755859375" lon="-8.78346514888107776641845703125">
        <ele>63.200000762939453125</ele>
        <time>2019-05-04T14:51:52.000Z</time>
      </trkpt>
      <trkpt lat="42.5370875559747219085693359375" lon="-8.78350404091179370880126953125">
        <ele>70</ele>
        <time>2019-05-04T14:52:21.000Z</time>
      </trkpt>
      <trkpt lat="42.5374893844127655029296875" lon="-8.78387049771845340728759765625">
        <ele>79</ele>
        <time>2019-05-04T14:52:48.000Z</time>
      </trkpt>
      <trkpt lat="42.5374965928494930267333984375" lon="-8.783888518810272216796875">
        <ele>79.1999969482421875</ele>
        <time>2019-05-04T14:52:51.000Z</time>
      </trkpt>
      <trkpt lat="42.53756071440875530242919921875" lon="-8.78398499451577663421630859375">
        <ele>79.8000030517578125</ele>
        <time>2019-05-04T14:53:00.000Z</time>
      </trkpt>
      <trkpt lat="42.53760228864848613739013671875" lon="-8.78405305556952953338623046875">
        <ele>80</ele>
        <time>2019-05-04T14:53:05.000Z</time>
      </trkpt>
      <trkpt lat="42.53771175630390644073486328125" lon="-8.78475395031273365020751953125">
        <ele>86</ele>
        <time>2019-05-04T14:54:00.000Z</time>
      </trkpt>
      <trkpt lat="42.53772198222577571868896484375" lon="-8.78483173437416553497314453125">
        <ele>86.8000030517578125</ele>
        <time>2019-05-04T14:54:08.000Z</time>
      </trkpt>
      <trkpt lat="42.5381867587566375732421875" lon="-8.7860736809670925140380859375">
        <ele>94.59999847412109375</ele>
        <time>2019-05-04T14:57:07.000Z</time>
      </trkpt>
      <trkpt lat="42.53820477984845638275146484375" lon="-8.7860733456909656524658203125">
        <ele>94.1999969482421875</ele>
        <time>2019-05-04T14:57:08.000Z</time>
      </trkpt>
      <trkpt lat="42.53838348202407360076904296875" lon="-8.7867227755486965179443359375">
        <ele>97.40000152587890625</ele>
        <time>2019-05-04T14:57:35.000Z</time>
      </trkpt>
      <trkpt lat="42.5383595936000347137451171875" lon="-8.7874825112521648406982421875">
        <ele>101</ele>
        <time>2019-05-04T14:57:57.000Z</time>
      </trkpt>
      <trkpt lat="42.53833830356597900390625" lon="-8.78810302354395389556884765625">
        <ele>102</ele>
        <time>2019-05-04T14:58:15.000Z</time>
      </trkpt>
      <trkpt lat="42.53834442235529422760009765625" lon="-8.78825909458100795745849609375">
        <ele>102</ele>
        <time>2019-05-04T14:58:19.000Z</time>
      </trkpt>
      <trkpt lat="42.53832212649285793304443359375" lon="-8.7886774353682994842529296875">
        <ele>103</ele>
        <time>2019-05-04T14:58:34.000Z</time>
      </trkpt>
      <trkpt lat="42.53831944428384304046630859375" lon="-8.78876586444675922393798828125">
        <ele>103.59999847412109375</ele>
        <time>2019-05-04T14:59:40.000Z</time>
      </trkpt>
      <trkpt lat="42.5382928736507892608642578125" lon="-8.7892313115298748016357421875">
        <ele>106.59999847412109375</ele>
        <time>2019-05-04T14:59:58.000Z</time>
      </trkpt>
      <trkpt lat="42.53829698078334331512451171875" lon="-8.78933608531951904296875">
        <ele>107.1999969482421875</ele>
        <time>2019-05-04T15:00:02.000Z</time>
      </trkpt>
      <trkpt lat="42.53837325610220432281494140625" lon="-8.79008936695754528045654296875">
        <ele>105.8000030517578125</ele>
        <time>2019-05-04T15:00:27.000Z</time>
      </trkpt>
      <trkpt lat="42.5384239666163921356201171875" lon="-8.7904963083565235137939453125">
        <ele>104</ele>
        <time>2019-05-04T15:00:35.000Z</time>
      </trkpt>
      <trkpt lat="42.53842757083475589752197265625" lon="-8.790641315281391143798828125">
        <ele>103</ele>
        <time>2019-05-04T15:00:41.000Z</time>
      </trkpt>
      <trkpt lat="42.53844886086881160736083984375" lon="-8.79067115485668182373046875">
        <ele>102.8000030517578125</ele>
        <time>2019-05-04T15:00:50.000Z</time>
      </trkpt>
      <trkpt lat="42.53847685642540454864501953125" lon="-8.79086385481059551239013671875">
        <ele>101.40000152587890625</ele>
        <time>2019-05-04T15:00:54.000Z</time>
      </trkpt>
      <trkpt lat="42.5385367870330810546875" lon="-8.79163809120655059814453125">
        <ele>101.40000152587890625</ele>
        <time>2019-05-04T15:01:04.000Z</time>
      </trkpt>
      <trkpt lat="42.53869570791721343994140625" lon="-8.7923389859497547149658203125">
        <ele>102</ele>
        <time>2019-05-04T15:01:13.000Z</time>
      </trkpt>
      <trkpt lat="42.53885923884809017181396484375" lon="-8.793059997260570526123046875">
        <ele>100.1999969482421875</ele>
        <time>2019-05-04T15:01:24.000Z</time>
      </trkpt>
      <trkpt lat="42.5390083529055118560791015625" lon="-8.7937092594802379608154296875">
        <ele>98</ele>
        <time>2019-05-04T15:01:34.000Z</time>
      </trkpt>
      <trkpt lat="42.539192251861095428466796875" lon="-8.7938980199396610260009765625">
        <ele>97.59999847412109375</ele>
        <time>2019-05-04T15:01:39.000Z</time>
      </trkpt>
      <trkpt lat="42.5392316468060016632080078125" lon="-8.7939392589032649993896484375">
        <ele>97.40000152587890625</ele>
        <time>2019-05-04T15:01:40.000Z</time>
      </trkpt>
      <trkpt lat="42.5396619737148284912109375" lon="-8.79438911564648151397705078125">
        <ele>98.8000030517578125</ele>
        <time>2019-05-04T15:01:55.000Z</time>
      </trkpt>
      <trkpt lat="42.54001426510512828826904296875" lon="-8.79478566348552703857421875">
        <ele>99</ele>
        <time>2019-05-04T15:02:06.000Z</time>
      </trkpt>
      <trkpt lat="42.54011417739093303680419921875" lon="-8.79489840008318424224853515625">
        <ele>99</ele>
        <time>2019-05-04T15:02:09.000Z</time>
      </trkpt>
      <trkpt lat="42.5404282473027706146240234375" lon="-8.79526368342339992523193359375">
        <ele>98.59999847412109375</ele>
        <time>2019-05-04T15:02:18.000Z</time>
      </trkpt>
      <trkpt lat="42.54096192307770252227783203125" lon="-8.7956392765045166015625">
        <ele>97</ele>
        <time>2019-05-04T15:02:28.000Z</time>
      </trkpt>
      <trkpt lat="42.5411397032439708709716796875" lon="-8.79574111662805080413818359375">
        <ele>95.8000030517578125</ele>
        <time>2019-05-04T15:02:31.000Z</time>
      </trkpt>
      <trkpt lat="42.5413978658616542816162109375" lon="-8.79567674361169338226318359375">
        <ele>96.40000152587890625</ele>
        <time>2019-05-04T15:02:35.000Z</time>
      </trkpt>
      <trkpt lat="42.54194159992039203643798828125" lon="-8.79544607363641262054443359375">
        <ele>94.40000152587890625</ele>
        <time>2019-05-04T15:02:44.000Z</time>
      </trkpt>
      <trkpt lat="42.54223999567329883575439453125" lon="-8.79537767730653285980224609375">
        <ele>91.59999847412109375</ele>
        <time>2019-05-04T15:02:48.000Z</time>
      </trkpt>
      <trkpt lat="42.542558424174785614013671875" lon="-8.79564640112221240997314453125">
        <ele>87.59999847412109375</ele>
        <time>2019-05-04T15:02:53.000Z</time>
      </trkpt>
      <trkpt lat="42.54261081106960773468017578125" lon="-8.79573340527713298797607421875">
        <ele>87.1999969482421875</ele>
        <time>2019-05-04T15:02:54.000Z</time>
      </trkpt>
      <trkpt lat="42.54276822321116924285888671875" lon="-8.796455673873424530029296875">
        <ele>86.8000030517578125</ele>
        <time>2019-05-04T15:03:00.000Z</time>
      </trkpt>
      <trkpt lat="42.5428861565887928009033203125" lon="-8.7972189299762248992919921875">
        <ele>86</ele>
        <time>2019-05-04T15:03:05.000Z</time>
      </trkpt>
      <trkpt lat="42.543031163513660430908203125" lon="-8.79803004674613475799560546875">
        <ele>79.59999847412109375</ele>
        <time>2019-05-04T15:03:10.000Z</time>
      </trkpt>
      <trkpt lat="42.54312361590564250946044921875" lon="-8.7984812445938587188720703125">
        <ele>73.8000030517578125</ele>
        <time>2019-05-04T15:03:13.000Z</time>
      </trkpt>
      <trkpt lat="42.54323392175137996673583984375" lon="-8.79920384846627712249755859375">
        <ele>65</ele>
        <time>2019-05-04T15:03:19.000Z</time>
      </trkpt>
      <trkpt lat="42.54337842576205730438232421875" lon="-8.7999370135366916656494140625">
        <ele>59.799999237060546875</ele>
        <time>2019-05-04T15:03:25.000Z</time>
      </trkpt>
      <trkpt lat="42.54358579404652118682861328125" lon="-8.800629191100597381591796875">
        <ele>57.40000152587890625</ele>
        <time>2019-05-04T15:03:31.000Z</time>
      </trkpt>
      <trkpt lat="42.54376214928925037384033203125" lon="-8.80110704340040683746337890625">
        <ele>56.40000152587890625</ele>
        <time>2019-05-04T15:03:37.000Z</time>
      </trkpt>
      <trkpt lat="42.54360012710094451904296875" lon="-8.80135866813361644744873046875">
        <ele>56</ele>
        <time>2019-05-04T15:03:44.000Z</time>
      </trkpt>
      <trkpt lat="42.54355855286121368408203125" lon="-8.8013699837028980255126953125">
        <ele>56</ele>
        <time>2019-05-04T15:03:45.000Z</time>
      </trkpt>
      <trkpt lat="42.54313048906624317169189453125" lon="-8.801555223762989044189453125">
        <ele>55.799999237060546875</ele>
        <time>2019-05-04T15:03:55.000Z</time>
      </trkpt>
      <trkpt lat="42.542964108288288116455078125" lon="-8.80161331035196781158447265625">
        <ele>55.59999847412109375</ele>
        <time>2019-05-04T15:03:59.000Z</time>
      </trkpt>
      <trkpt lat="42.54271340556442737579345703125" lon="-8.801758401095867156982421875">
        <ele>55.200000762939453125</ele>
        <time>2019-05-04T15:04:05.000Z</time>
      </trkpt>
      <trkpt lat="42.54225994460284709930419921875" lon="-8.80204648710787296295166015625">
        <ele>54.40000152587890625</ele>
        <time>2019-05-04T15:04:15.000Z</time>
      </trkpt>
      <trkpt lat="42.5423678196966648101806640625" lon="-8.802320659160614013671875">
        <ele>54.200000762939453125</ele>
        <time>2019-05-04T15:04:25.000Z</time>
      </trkpt>
      <trkpt lat="42.54263679496943950653076171875" lon="-8.80291451700031757354736328125">
        <ele>54</ele>
        <time>2019-05-04T15:04:39.000Z</time>
      </trkpt>
      <trkpt lat="42.5426276586949825286865234375" lon="-8.8029778003692626953125">
        <ele>54</ele>
        <time>2019-05-04T15:04:40.000Z</time>
      </trkpt>
      <trkpt lat="42.5426457636058330535888671875" lon="-8.8032795488834381103515625">
        <ele>54</ele>
        <time>2019-05-04T15:04:45.000Z</time>
      </trkpt>
      <trkpt lat="42.5429341010749340057373046875" lon="-8.80389067344367504119873046875">
        <ele>53.40000152587890625</ele>
        <time>2019-05-04T15:05:01.000Z</time>
      </trkpt>
      <trkpt lat="42.54321799613535404205322265625" lon="-8.80442309193313121795654296875">
        <ele>51.40000152587890625</ele>
        <time>2019-05-04T15:05:14.000Z</time>
      </trkpt>
      <trkpt lat="42.54332629032433032989501953125" lon="-8.80460388958454132080078125">
        <ele>50.40000152587890625</ele>
        <time>2019-05-04T15:05:18.000Z</time>
      </trkpt>
      <trkpt lat="42.5434326566755771636962890625" lon="-8.80481620319187641143798828125">
        <ele>48.200000762939453125</ele>
        <time>2019-05-04T15:05:22.000Z</time>
      </trkpt>
      <trkpt lat="42.54363189451396465301513671875" lon="-8.8051126711070537567138671875">
        <ele>45.200000762939453125</ele>
        <time>2019-05-04T15:05:27.000Z</time>
      </trkpt>
      <trkpt lat="42.54367447458207607269287109375" lon="-8.8054432533681392669677734375">
        <ele>43.40000152587890625</ele>
        <time>2019-05-04T15:05:31.000Z</time>
      </trkpt>
      <trkpt lat="42.54367925226688385009765625" lon="-8.80574927665293216705322265625">
        <ele>41.799999237060546875</ele>
        <time>2019-05-04T15:05:34.000Z</time>
      </trkpt>
      <trkpt lat="42.5437831878662109375" lon="-8.80612227134406566619873046875">
        <ele>40</ele>
        <time>2019-05-04T15:05:38.000Z</time>
      </trkpt>
      <trkpt lat="42.544032633304595947265625" lon="-8.8068312965333461761474609375">
        <ele>39.40000152587890625</ele>
        <time>2019-05-04T15:05:46.000Z</time>
      </trkpt>
      <trkpt lat="42.5442208908498287200927734375" lon="-8.80759463645517826080322265625">
        <ele>38.200000762939453125</ele>
        <time>2019-05-04T15:05:55.000Z</time>
      </trkpt>
      <trkpt lat="42.54438241012394428253173828125" lon="-8.8083299808204174041748046875">
        <ele>36.799999237060546875</ele>
        <time>2019-05-04T15:06:04.000Z</time>
      </trkpt>
      <trkpt lat="42.544518448412418365478515625" lon="-8.80907186307013034820556640625">
        <ele>35</ele>
        <time>2019-05-04T15:06:11.000Z</time>
      </trkpt>
      <trkpt lat="42.544626407325267791748046875" lon="-8.80983444862067699432373046875">
        <ele>32.40000152587890625</ele>
        <time>2019-05-04T15:06:18.000Z</time>
      </trkpt>
      <trkpt lat="42.5447670556604862213134765625" lon="-8.81060005165636539459228515625">
        <ele>29.6000003814697265625</ele>
        <time>2019-05-04T15:06:27.000Z</time>
      </trkpt>
      <trkpt lat="42.5450022518634796142578125" lon="-8.8113216497004032135009765625">
        <ele>28.6000003814697265625</ele>
        <time>2019-05-04T15:06:37.000Z</time>
      </trkpt>
      <trkpt lat="42.54508607089519500732421875" lon="-8.811612837016582489013671875">
        <ele>28.200000762939453125</ele>
        <time>2019-05-04T15:06:47.000Z</time>
      </trkpt>
      <trkpt lat="42.5450973026454448699951171875" lon="-8.8116280920803546905517578125">
        <ele>28.200000762939453125</ele>
        <time>2019-05-04T15:06:53.000Z</time>
      </trkpt>
      <trkpt lat="42.54525798372924327850341796875" lon="-8.81169741041958332061767578125">
        <ele>27.799999237060546875</ele>
        <time>2019-05-04T15:07:01.000Z</time>
      </trkpt>
      <trkpt lat="42.5453212670981884002685546875" lon="-8.81180134601891040802001953125">
        <ele>27.3999996185302734375</ele>
        <time>2019-05-04T15:07:05.000Z</time>
      </trkpt>
      <trkpt lat="42.54532503895461559295654296875" lon="-8.8121541403234004974365234375">
        <ele>27.6000003814697265625</ele>
        <time>2019-05-04T15:07:12.000Z</time>
      </trkpt>
      <trkpt lat="42.5455318205058574676513671875" lon="-8.81286643445491790771484375">
        <ele>26.3999996185302734375</ele>
        <time>2019-05-04T15:07:28.000Z</time>
      </trkpt>
      <trkpt lat="42.5458337366580963134765625" lon="-8.81352181546390056610107421875">
        <ele>26</ele>
        <time>2019-05-04T15:07:43.000Z</time>
      </trkpt>
      <trkpt lat="42.5459824316203594207763671875" lon="-8.8139508850872516632080078125">
        <ele>26</ele>
        <time>2019-05-04T15:07:52.000Z</time>
      </trkpt>
      <trkpt lat="42.5461971759796142578125" lon="-8.8143302500247955322265625">
        <ele>26</ele>
        <time>2019-05-04T15:08:00.000Z</time>
      </trkpt>
      <trkpt lat="42.54663764499127864837646484375" lon="-8.8148061744868755340576171875">
        <ele>26.6000003814697265625</ele>
        <time>2019-05-04T15:08:15.000Z</time>
      </trkpt>
      <trkpt lat="42.54697979427874088287353515625" lon="-8.81537807174026966094970703125">
        <ele>26.799999237060546875</ele>
        <time>2019-05-04T15:08:31.000Z</time>
      </trkpt>
      <trkpt lat="42.54717140458524227142333984375" lon="-8.81605633534491062164306640625">
        <ele>28.3999996185302734375</ele>
        <time>2019-05-04T15:08:45.000Z</time>
      </trkpt>
      <trkpt lat="42.54726645536720752716064453125" lon="-8.8167926855385303497314453125">
        <ele>29.799999237060546875</ele>
        <time>2019-05-04T15:09:00.000Z</time>
      </trkpt>
      <trkpt lat="42.54737324081361293792724609375" lon="-8.8175494037568569183349609375">
        <ele>31.3999996185302734375</ele>
        <time>2019-05-04T15:09:13.000Z</time>
      </trkpt>
      <trkpt lat="42.54738514311611652374267578125" lon="-8.817661888897418975830078125">
        <ele>31.799999237060546875</ele>
        <time>2019-05-04T15:09:15.000Z</time>
      </trkpt>
      <trkpt lat="42.54718163050711154937744140625" lon="-8.818284161388874053955078125">
        <ele>33</ele>
        <time>2019-05-04T15:09:30.000Z</time>
      </trkpt>
      <trkpt lat="42.54675599746406078338623046875" lon="-8.81874449551105499267578125">
        <ele>34.40000152587890625</ele>
        <time>2019-05-04T15:09:45.000Z</time>
      </trkpt>
      <trkpt lat="42.546436227858066558837890625" lon="-8.8190899975597858428955078125">
        <ele>34.799999237060546875</ele>
        <time>2019-05-04T15:09:56.000Z</time>
      </trkpt>
      <trkpt lat="42.54643597640097141265869140625" lon="-8.8192298077046871185302734375">
        <ele>35</ele>
        <time>2019-05-04T15:09:59.000Z</time>
      </trkpt>
      <trkpt lat="42.54678717814385890960693359375" lon="-8.81929124705493450164794921875">
        <ele>35.59999847412109375</ele>
        <time>2019-05-04T15:10:10.000Z</time>
      </trkpt>
      <trkpt lat="42.54670612514019012451171875" lon="-8.81934857927262783050537109375">
        <ele>35.799999237060546875</ele>
        <time>2019-05-04T15:10:14.000Z</time>
      </trkpt>
      <trkpt lat="42.54667636938393115997314453125" lon="-8.81939870305359363555908203125">
        <ele>36</ele>
        <time>2019-05-04T15:10:16.000Z</time>
      </trkpt>
      <trkpt lat="42.54666614346206188201904296875" lon="-8.81953801028430461883544921875">
        <ele>35.799999237060546875</ele>
        <time>2019-05-04T15:10:20.000Z</time>
      </trkpt>
      <trkpt lat="42.54665491171181201934814453125" lon="-8.81963230669498443603515625">
        <ele>35.799999237060546875</ele>
        <time>2019-05-04T15:10:23.000Z</time>
      </trkpt>
      <trkpt lat="42.54678902216255664825439453125" lon="-8.81989474408328533172607421875">
        <ele>34.799999237060546875</ele>
        <time>2019-05-04T15:10:29.000Z</time>
      </trkpt>
      <trkpt lat="42.54685691557824611663818359375" lon="-8.8201679103076457977294921875">
        <ele>33.799999237060546875</ele>
        <time>2019-05-04T15:10:34.000Z</time>
      </trkpt>
      <trkpt lat="42.54687099717557430267333984375" lon="-8.82046555168926715850830078125">
        <ele>33.200000762939453125</ele>
        <time>2019-05-04T15:10:39.000Z</time>
      </trkpt>
      <trkpt lat="42.5468340329825878143310546875" lon="-8.820735029876232147216796875">
        <ele>33.200000762939453125</ele>
        <time>2019-05-04T15:10:43.000Z</time>
      </trkpt>
      <trkpt lat="42.54680410958826541900634765625" lon="-8.82079278118908405303955078125">
        <ele>33.40000152587890625</ele>
        <time>2019-05-04T15:10:44.000Z</time>
      </trkpt>
      <trkpt lat="42.54673319868743419647216796875" lon="-8.82095958106219768524169921875">
        <ele>33.59999847412109375</ele>
        <time>2019-05-04T15:10:47.000Z</time>
      </trkpt>
      <trkpt lat="42.54673504270613193511962890625" lon="-8.82119377143681049346923828125">
        <ele>33.200000762939453125</ele>
        <time>2019-05-04T15:10:51.000Z</time>
      </trkpt>
      <trkpt lat="42.546835206449031829833984375" lon="-8.82149786688387393951416015625">
        <ele>31.6000003814697265625</ele>
        <time>2019-05-04T15:10:56.000Z</time>
      </trkpt>
      <trkpt lat="42.5471478514373302459716796875" lon="-8.82209398783743381500244140625">
        <ele>23.3999996185302734375</ele>
        <time>2019-05-04T15:11:04.000Z</time>
      </trkpt>
      <trkpt lat="42.54722253419458866119384765625" lon="-8.8223411701619625091552734375">
        <ele>20.799999237060546875</ele>
        <time>2019-05-04T15:11:08.000Z</time>
      </trkpt>
      <trkpt lat="42.5471428222954273223876953125" lon="-8.8229084573686122894287109375">
        <ele>17.799999237060546875</ele>
        <time>2019-05-04T15:11:14.000Z</time>
      </trkpt>
      <trkpt lat="42.5470784492790699005126953125" lon="-8.82324566133320331573486328125">
        <ele>15.19999980926513671875</ele>
        <time>2019-05-04T15:11:17.000Z</time>
      </trkpt>
      <trkpt lat="42.54704416729509830474853515625" lon="-8.8239352405071258544921875">
        <ele>13</ele>
        <time>2019-05-04T15:11:23.000Z</time>
      </trkpt>
      <trkpt lat="42.54699178040027618408203125" lon="-8.8241359032690525054931640625">
        <ele>12.6000003814697265625</ele>
        <time>2019-05-04T15:11:25.000Z</time>
      </trkpt>
      <trkpt lat="42.54677443765103816986083984375" lon="-8.824572600424289703369140625">
        <ele>11.3999996185302734375</ele>
        <time>2019-05-04T15:11:30.000Z</time>
      </trkpt>
      <trkpt lat="42.546489201486110687255859375" lon="-8.8252691365778446197509765625">
        <ele>10</ele>
        <time>2019-05-04T15:11:38.000Z</time>
      </trkpt>
      <trkpt lat="42.546337656676769256591796875" lon="-8.82575444877147674560546875">
        <ele>11.3999996185302734375</ele>
        <time>2019-05-04T15:11:44.000Z</time>
      </trkpt>
      <trkpt lat="42.54596675746142864227294921875" lon="-8.82617832161486148834228515625">
        <ele>13.19999980926513671875</ele>
        <time>2019-05-04T15:11:52.000Z</time>
      </trkpt>
      <trkpt lat="42.54554481245577335357666015625" lon="-8.82677041925489902496337890625">
        <ele>15</ele>
        <time>2019-05-04T15:12:00.000Z</time>
      </trkpt>
      <trkpt lat="42.54522160626947879791259765625" lon="-8.827449940145015716552734375">
        <ele>12.19999980926513671875</ele>
        <time>2019-05-04T15:12:08.000Z</time>
      </trkpt>
      <trkpt lat="42.54510342143476009368896484375" lon="-8.82799685932695865631103515625">
        <ele>9.80000019073486328125</ele>
        <time>2019-05-04T15:12:14.000Z</time>
      </trkpt>
      <trkpt lat="42.5451023317873477935791015625" lon="-8.8282614760100841522216796875">
        <ele>9.19999980926513671875</ele>
        <time>2019-05-04T15:12:17.000Z</time>
      </trkpt>
      <trkpt lat="42.54510023631155490875244140625" lon="-8.82841897197067737579345703125">
        <ele>8.80000019073486328125</ele>
        <time>2019-05-04T15:12:19.000Z</time>
      </trkpt>
      <trkpt lat="42.5451073609292507171630859375" lon="-8.82855475880205631256103515625">
        <ele>8.80000019073486328125</ele>
        <time>2019-05-04T15:12:21.000Z</time>
      </trkpt>
      <trkpt lat="42.54510107450187206268310546875" lon="-8.82932757027447223663330078125">
        <ele>11.80000019073486328125</ele>
        <time>2019-05-04T15:12:36.000Z</time>
      </trkpt>
      <trkpt lat="42.5450815446674823760986328125" lon="-8.82987893186509609222412109375">
        <ele>11</ele>
        <time>2019-05-04T15:12:43.000Z</time>
      </trkpt>
      <trkpt lat="42.545073665678501129150390625" lon="-8.83002561517059803009033203125">
        <ele>10.6000003814697265625</ele>
        <time>2019-05-04T15:12:45.000Z</time>
      </trkpt>
      <trkpt lat="42.54506302066147327423095703125" lon="-8.8302644155919551849365234375">
        <ele>10</ele>
        <time>2019-05-04T15:12:49.000Z</time>
      </trkpt>
      <trkpt lat="42.54503100179135799407958984375" lon="-8.83054009638726711273193359375">
        <ele>8.19999980926513671875</ele>
        <time>2019-05-04T15:12:58.000Z</time>
      </trkpt>
      <trkpt lat="42.54505665041506290435791015625" lon="-8.83059357292950153350830078125">
        <ele>8</ele>
        <time>2019-05-04T15:14:38.000Z</time>
      </trkpt>
      <trkpt lat="42.54541405476629734039306640625" lon="-8.83116823621094226837158203125">
        <ele>8.3999996185302734375</ele>
        <time>2019-05-04T15:14:54.000Z</time>
      </trkpt>
      <trkpt lat="42.54592736251652240753173828125" lon="-8.8314321823418140411376953125">
        <ele>8.3999996185302734375</ele>
        <time>2019-05-04T15:15:09.000Z</time>
      </trkpt>
      <trkpt lat="42.54608787596225738525390625" lon="-8.83145422674715518951416015625">
        <ele>7.80000019073486328125</ele>
        <time>2019-05-04T15:15:13.000Z</time>
      </trkpt>
      <trkpt lat="42.54663714207708835601806640625" lon="-8.8314239680767059326171875">
        <ele>5.19999980926513671875</ele>
        <time>2019-05-04T15:15:28.000Z</time>
      </trkpt>
      <trkpt lat="42.5471190176904201507568359375" lon="-8.83176393806934356689453125">
        <ele>1.7999999523162841796875</ele>
        <time>2019-05-04T15:15:46.000Z</time>
      </trkpt>
      <trkpt lat="42.54758094437420368194580078125" lon="-8.83218881674110889434814453125">
        <ele>2</ele>
        <time>2019-05-04T15:16:00.000Z</time>
      </trkpt>
      <trkpt lat="42.5478717125952243804931640625" lon="-8.8322874717414379119873046875">
        <ele>2</ele>
        <time>2019-05-04T15:16:07.000Z</time>
      </trkpt>
      <trkpt lat="42.54795737564563751220703125" lon="-8.83228755556046962738037109375">
        <ele>2</ele>
        <time>2019-05-04T15:16:09.000Z</time>
      </trkpt>
      <trkpt lat="42.548496834933757781982421875" lon="-8.83230314590036869049072265625">
        <ele>2.599999904632568359375</ele>
        <time>2019-05-04T15:16:22.000Z</time>
      </trkpt>
      <trkpt lat="42.54853715188801288604736328125" lon="-8.8323079235851764678955078125">
        <ele>2.7999999523162841796875</ele>
        <time>2019-05-04T15:16:23.000Z</time>
      </trkpt>
      <trkpt lat="42.54880771972239017486572265625" lon="-8.8325375877320766448974609375">
        <ele>5.400000095367431640625</ele>
        <time>2019-05-04T15:16:31.000Z</time>
      </trkpt>
      <trkpt lat="42.5490324385464191436767578125" lon="-8.8327918946743011474609375">
        <ele>9</ele>
        <time>2019-05-04T15:16:39.000Z</time>
      </trkpt>
      <trkpt lat="42.549140565097332000732421875" lon="-8.83298836648464202880859375">
        <ele>8.80000019073486328125</ele>
        <time>2019-05-04T15:16:45.000Z</time>
      </trkpt>
      <trkpt lat="42.54965345375239849090576171875" lon="-8.83294721134006977081298828125">
        <ele>14.19999980926513671875</ele>
        <time>2019-05-04T15:17:08.000Z</time>
      </trkpt>
      <trkpt lat="42.5502018816769123077392578125" lon="-8.832947127521038055419921875">
        <ele>13</ele>
        <time>2019-05-04T15:17:25.000Z</time>
      </trkpt>
      <trkpt lat="42.55072449333965778350830078125" lon="-8.83314552716910839080810546875">
        <ele>7.80000019073486328125</ele>
        <time>2019-05-04T15:17:38.000Z</time>
      </trkpt>
      <trkpt lat="42.550846450030803680419921875" lon="-8.8331915438175201416015625">
        <ele>6.599999904632568359375</ele>
        <time>2019-05-04T15:17:41.000Z</time>
      </trkpt>
      <trkpt lat="42.5514001585543155670166015625" lon="-8.8333301804959774017333984375">
        <ele>3.599999904632568359375</ele>
        <time>2019-05-04T15:17:55.000Z</time>
      </trkpt>
      <trkpt lat="42.551767118275165557861328125" lon="-8.8339076936244964599609375">
        <ele>4.400000095367431640625</ele>
        <time>2019-05-04T15:18:11.000Z</time>
      </trkpt>
      <trkpt lat="42.551834173500537872314453125" lon="-8.83408446796238422393798828125">
        <ele>5.400000095367431640625</ele>
        <time>2019-05-04T15:18:15.000Z</time>
      </trkpt>
      <trkpt lat="42.55198345519602298736572265625" lon="-8.83480380289256572723388671875">
        <ele>6.400000095367431640625</ele>
        <time>2019-05-04T15:18:27.000Z</time>
      </trkpt>
      <trkpt lat="42.55207381211221218109130859375" lon="-8.83531141094863414764404296875">
        <ele>6</ele>
        <time>2019-05-04T15:18:35.000Z</time>
      </trkpt>
      <trkpt lat="42.5521530210971832275390625" lon="-8.8355352915823459625244140625">
        <ele>6.19999980926513671875</ele>
        <time>2019-05-04T15:18:39.000Z</time>
      </trkpt>
      <trkpt lat="42.55216970108449459075927734375" lon="-8.835591785609722137451171875">
        <ele>6</ele>
        <time>2019-05-04T15:18:40.000Z</time>
      </trkpt>
      <trkpt lat="42.55223751068115234375" lon="-8.8358859904110431671142578125">
        <ele>4.400000095367431640625</ele>
        <time>2019-05-04T15:18:45.000Z</time>
      </trkpt>
      <trkpt lat="42.55250908434391021728515625" lon="-8.83606393821537494659423828125">
        <ele>3</ele>
        <time>2019-05-04T15:18:54.000Z</time>
      </trkpt>
      <trkpt lat="42.55307595245540142059326171875" lon="-8.8359703123569488525390625">
        <ele>7.19999980926513671875</ele>
        <time>2019-05-04T15:19:07.000Z</time>
      </trkpt>
      <trkpt lat="42.55311987362802028656005859375" lon="-8.835980035364627838134765625">
        <ele>7.400000095367431640625</ele>
        <time>2019-05-04T15:19:08.000Z</time>
      </trkpt>
      <trkpt lat="42.5532451830804347991943359375" lon="-8.83602596819400787353515625">
        <ele>8.3999996185302734375</ele>
        <time>2019-05-04T15:19:11.000Z</time>
      </trkpt>
      <trkpt lat="42.55338960327208042144775390625" lon="-8.836132921278476715087890625">
        <ele>8.6000003814697265625</ele>
        <time>2019-05-04T15:19:15.000Z</time>
      </trkpt>
      <trkpt lat="42.5535526312887668609619140625" lon="-8.836184553802013397216796875">
        <ele>7.599999904632568359375</ele>
        <time>2019-05-04T15:19:19.000Z</time>
      </trkpt>
      <trkpt lat="42.55369596183300018310546875" lon="-8.83618547581136226654052734375">
        <ele>7</ele>
        <time>2019-05-04T15:19:26.000Z</time>
      </trkpt>
      <trkpt lat="42.5537095405161380767822265625" lon="-8.83618849329650402069091796875">
        <ele>7</ele>
        <time>2019-05-04T15:20:12.000Z</time>
      </trkpt>
      <trkpt lat="42.55385044030845165252685546875" lon="-8.8361568935215473175048828125">
        <ele>6.400000095367431640625</ele>
        <time>2019-05-04T15:20:22.000Z</time>
      </trkpt>
      <trkpt lat="42.553863935172557830810546875" lon="-8.83615546859800815582275390625">
        <ele>6.19999980926513671875</ele>
        <time>2019-05-04T15:20:54.000Z</time>
      </trkpt>
      <trkpt lat="42.554381601512432098388671875" lon="-8.83589982055127620697021484375">
        <ele>6</ele>
        <time>2019-05-04T15:21:14.000Z</time>
      </trkpt>
      <trkpt lat="42.55486532114446163177490234375" lon="-8.83557108230888843536376953125">
        <ele>8.3999996185302734375</ele>
        <time>2019-05-04T15:21:33.000Z</time>
      </trkpt>
      <trkpt lat="42.55542271770536899566650390625" lon="-8.8354363851249217987060546875">
        <ele>8</ele>
        <time>2019-05-04T15:21:50.000Z</time>
      </trkpt>
      <trkpt lat="42.55592286586761474609375" lon="-8.83510186336934566497802734375">
        <ele>7</ele>
        <time>2019-05-04T15:22:07.000Z</time>
      </trkpt>
      <trkpt lat="42.55634598433971405029296875" lon="-8.8346427865326404571533203125">
        <ele>6.599999904632568359375</ele>
        <time>2019-05-04T15:22:22.000Z</time>
      </trkpt>
      <trkpt lat="42.55638345144689083099365234375" lon="-8.8346136175096035003662109375">
        <ele>6.599999904632568359375</ele>
        <time>2019-05-04T15:22:23.000Z</time>
      </trkpt>
      <trkpt lat="42.5568737089633941650390625" lon="-8.8342548720538616180419921875">
        <ele>6</ele>
        <time>2019-05-04T15:22:35.000Z</time>
      </trkpt>
      <trkpt lat="42.55737486295402050018310546875" lon="-8.83400936610996723175048828125">
        <ele>5.400000095367431640625</ele>
        <time>2019-05-04T15:22:47.000Z</time>
      </trkpt>
      <trkpt lat="42.55751618184149265289306640625" lon="-8.8341324962675571441650390625">
        <ele>4.19999980926513671875</ele>
        <time>2019-05-04T15:22:51.000Z</time>
      </trkpt>
      <trkpt lat="42.55784659646451473236083984375" lon="-8.83451026864349842071533203125">
        <ele>3</ele>
        <time>2019-05-04T15:23:04.000Z</time>
      </trkpt>
      <trkpt lat="42.55784508772194385528564453125" lon="-8.83450171910226345062255859375">
        <ele>3</ele>
        <time>2019-05-04T15:23:05.000Z</time>
      </trkpt>
      <trkpt lat="42.5579680502414703369140625" lon="-8.83465007878839969635009765625">
        <ele>3</ele>
        <time>2019-05-04T15:23:21.000Z</time>
      </trkpt>
      <trkpt lat="42.5581050105392932891845703125" lon="-8.83480690419673919677734375">
        <ele>3</ele>
        <time>2019-05-04T15:23:37.000Z</time>
      </trkpt>
      <trkpt lat="42.5581465847790241241455078125" lon="-8.83483649231493473052978515625">
        <ele>3</ele>
        <time>2019-05-04T15:23:41.000Z</time>
      </trkpt>
      <trkpt lat="42.5582206808030605316162109375" lon="-8.8349170424044132232666015625">
        <ele>3</ele>
        <time>2019-05-04T15:23:45.000Z</time>
      </trkpt>
      <trkpt lat="42.5585556216537952423095703125" lon="-8.8352459482848644256591796875">
        <ele>13</ele>
        <time>2019-05-04T15:24:00.000Z</time>
      </trkpt>
      <trkpt lat="42.5585854612290859222412109375" lon="-8.835222981870174407958984375">
        <ele>11.80000019073486328125</ele>
        <time>2019-05-04T15:24:41.000Z</time>
      </trkpt>
      <trkpt lat="42.55866366438567638397216796875" lon="-8.83501083590090274810791015625">
        <ele>5.80000019073486328125</ele>
        <time>2019-05-04T15:24:47.000Z</time>
      </trkpt>
      <trkpt lat="42.55875452421605587005615234375" lon="-8.83478687144815921783447265625">
        <ele>6.400000095367431640625</ele>
        <time>2019-05-04T15:24:52.000Z</time>
      </trkpt>
      <trkpt lat="42.558893747627735137939453125" lon="-8.83440599776804447174072265625">
        <ele>6.400000095367431640625</ele>
        <time>2019-05-04T15:25:00.000Z</time>
      </trkpt>
      <trkpt lat="42.55892492830753326416015625" lon="-8.8342005573213100433349609375">
        <ele>7.400000095367431640625</ele>
        <time>2019-05-04T15:25:04.000Z</time>
      </trkpt>
      <trkpt lat="42.558986954391002655029296875" lon="-8.8341066800057888031005859375">
        <ele>8.19999980926513671875</ele>
        <time>2019-05-04T15:25:07.000Z</time>
      </trkpt>
      <trkpt lat="42.5591172091662883758544921875" lon="-8.83404741995036602020263671875">
        <ele>9.19999980926513671875</ele>
        <time>2019-05-04T15:25:11.000Z</time>
      </trkpt>
      <trkpt lat="42.5596363842487335205078125" lon="-8.833784647285938262939453125">
        <ele>8.19999980926513671875</ele>
        <time>2019-05-04T15:25:27.000Z</time>
      </trkpt>
      <trkpt lat="42.56015069782733917236328125" lon="-8.83360502310097217559814453125">
        <ele>7</ele>
        <time>2019-05-04T15:25:41.000Z</time>
      </trkpt>
      <trkpt lat="42.56013728678226470947265625" lon="-8.8334357924759387969970703125">
        <ele>6.80000019073486328125</ele>
        <time>2019-05-04T15:25:45.000Z</time>
      </trkpt>
      <trkpt lat="42.5600251369178295135498046875" lon="-8.832743950188159942626953125">
        <ele>6</ele>
        <time>2019-05-04T15:25:58.000Z</time>
      </trkpt>
      <trkpt lat="42.56032395176589488983154296875" lon="-8.8322113640606403350830078125">
        <ele>6</ele>
        <time>2019-05-04T15:26:12.000Z</time>
      </trkpt>
      <trkpt lat="42.56037256680428981781005859375" lon="-8.83204557001590728759765625">
        <ele>6</ele>
        <time>2019-05-04T15:26:16.000Z</time>
      </trkpt>
      <trkpt lat="42.56033216603100299835205078125" lon="-8.83164189755916595458984375">
        <ele>6.80000019073486328125</ele>
        <time>2019-05-04T15:26:27.000Z</time>
      </trkpt>
      <trkpt lat="42.56041715852916240692138671875" lon="-8.8315512053668498992919921875">
        <ele>7</ele>
        <time>2019-05-04T15:26:32.000Z</time>
      </trkpt>
      <trkpt lat="42.56092778407037258148193359375" lon="-8.83126437664031982421875">
        <ele>11.6000003814697265625</ele>
        <time>2019-05-04T15:26:48.000Z</time>
      </trkpt>
      <trkpt lat="42.56143555976450443267822265625" lon="-8.8310055434703826904296875">
        <ele>16</ele>
        <time>2019-05-04T15:27:05.000Z</time>
      </trkpt>
      <trkpt lat="42.56191802211105823516845703125" lon="-8.83074193261563777923583984375">
        <ele>3.599999904632568359375</ele>
        <time>2019-05-04T15:27:28.000Z</time>
      </trkpt>
      <trkpt lat="42.5619680620729923248291015625" lon="-8.830784596502780914306640625">
        <ele>3.599999904632568359375</ele>
        <time>2019-05-04T15:27:32.000Z</time>
      </trkpt>
      <trkpt lat="42.56195624358952045440673828125" lon="-8.830773532390594482421875">
        <ele>3.599999904632568359375</ele>
        <time>2019-05-04T15:27:37.000Z</time>
      </trkpt>
      <trkpt lat="42.56196864880621433258056640625" lon="-8.8307200558483600616455078125">
        <ele>3.599999904632568359375</ele>
        <time>2019-05-04T15:27:42.000Z</time>
      </trkpt>
      <trkpt lat="42.56197082810103893280029296875" lon="-8.83070203475654125213623046875">
        <ele>3.7999999523162841796875</ele>
        <time>2019-05-04T15:28:53.000Z</time>
      </trkpt>
      <trkpt lat="42.56194383837282657623291015625" lon="-8.83017648942768573760986328125">
        <ele>5</ele>
        <time>2019-05-04T15:29:13.000Z</time>
      </trkpt>
      <trkpt lat="42.5619372166693210601806640625" lon="-8.83014815859496593475341796875">
        <ele>5</ele>
        <time>2019-05-04T15:30:43.000Z</time>
      </trkpt>
      <trkpt lat="42.56194802932441234588623046875" lon="-8.829558826982975006103515625">
        <ele>5</ele>
        <time>2019-05-04T15:31:05.000Z</time>
      </trkpt>
      <trkpt lat="42.56195540539920330047607421875" lon="-8.82953376509249210357666015625">
        <ele>5</ele>
        <time>2019-05-04T15:31:08.000Z</time>
      </trkpt>
      <trkpt lat="42.561985664069652557373046875" lon="-8.829521946609020233154296875">
        <ele>5</ele>
        <time>2019-05-04T15:31:13.000Z</time>
      </trkpt>
      <trkpt lat="42.5620049424469470977783203125" lon="-8.82952420972287654876708984375">
        <ele>5</ele>
        <time>2019-05-04T15:31:14.000Z</time>
      </trkpt>
      <trkpt lat="42.5620693154633045196533203125" lon="-8.8296840526163578033447265625">
        <ele>5</ele>
        <time>2019-05-04T15:31:21.000Z</time>
      </trkpt>
      <trkpt lat="42.56207560189068317413330078125" lon="-8.8298158161342144012451171875">
        <ele>5</ele>
        <time>2019-05-04T15:31:28.000Z</time>
      </trkpt>
      <trkpt lat="42.5620491988956928253173828125" lon="-8.82969587109982967376708984375">
        <ele>5</ele>
        <time>2019-05-04T15:50:08.000Z</time>
      </trkpt>
      <trkpt lat="42.56204727105796337127685546875" lon="-8.82958992384374141693115234375">
        <ele>5</ele>
        <time>2019-05-04T15:50:12.000Z</time>
      </trkpt>
      <trkpt lat="42.5619248114526271820068359375" lon="-8.8291851617395877838134765625">
        <ele>3.599999904632568359375</ele>
        <time>2019-05-04T15:50:28.000Z</time>
      </trkpt>
      <trkpt lat="42.56174149923026561737060546875" lon="-8.828509747982025146484375">
        <ele>1.39999997615814208984375</ele>
        <time>2019-05-04T15:50:54.000Z</time>
      </trkpt>
      <trkpt lat="42.5617430917918682098388671875" lon="-8.82851469330489635467529296875">
        <ele>1.39999997615814208984375</ele>
        <time>2019-05-04T15:50:55.000Z</time>
      </trkpt>
      <trkpt lat="42.5617088936269283294677734375" lon="-8.828479237854480743408203125">
        <ele>1.39999997615814208984375</ele>
        <time>2019-05-04T15:51:02.000Z</time>
      </trkpt>
      <trkpt lat="42.56117136217653751373291015625" lon="-8.82843590341508388519287109375">
        <ele>3.400000095367431640625</ele>
        <time>2019-05-04T15:51:21.000Z</time>
      </trkpt>
      <trkpt lat="42.56064246408641338348388671875" lon="-8.8284405134618282318115234375">
        <ele>3.400000095367431640625</ele>
        <time>2019-05-04T15:51:37.000Z</time>
      </trkpt>
      <trkpt lat="42.56039620377123355865478515625" lon="-8.82827698253095149993896484375">
        <ele>4</ele>
        <time>2019-05-04T15:51:45.000Z</time>
      </trkpt>
      <trkpt lat="42.56022655405104160308837890625" lon="-8.82824664004147052764892578125">
        <ele>3.599999904632568359375</ele>
        <time>2019-05-04T15:51:49.000Z</time>
      </trkpt>
      <trkpt lat="42.56014055572450160980224609375" lon="-8.82804798893630504608154296875">
        <ele>2.599999904632568359375</ele>
        <time>2019-05-04T15:51:53.000Z</time>
      </trkpt>
      <trkpt lat="42.560100071132183074951171875" lon="-8.8279412873089313507080078125">
        <ele>2</ele>
        <time>2019-05-04T15:51:55.000Z</time>
      </trkpt>
      <trkpt lat="42.55999387241899967193603515625" lon="-8.8277364335954189300537109375">
        <ele>1</ele>
        <time>2019-05-04T15:51:59.000Z</time>
      </trkpt>
      <trkpt lat="42.55994643084704875946044921875" lon="-8.82703092880547046661376953125">
        <ele>1.7999999523162841796875</ele>
        <time>2019-05-04T15:52:13.000Z</time>
      </trkpt>
      <trkpt lat="42.5599394738674163818359375" lon="-8.82676170207560062408447265625">
        <ele>2</ele>
        <time>2019-05-04T15:52:18.000Z</time>
      </trkpt>
      <trkpt lat="42.559967972338199615478515625" lon="-8.826020658016204833984375">
        <ele>2.2000000476837158203125</ele>
        <time>2019-05-04T15:52:35.000Z</time>
      </trkpt>
      <trkpt lat="42.5598871707916259765625" lon="-8.82557599805295467376708984375">
        <ele>3.400000095367431640625</ele>
        <time>2019-05-04T15:52:47.000Z</time>
      </trkpt>
      <trkpt lat="42.56044699810445308685302734375" lon="-8.82551531307399272918701171875">
        <ele>4.400000095367431640625</ele>
        <time>2019-05-04T15:53:03.000Z</time>
      </trkpt>
      <trkpt lat="42.5610024668276309967041015625" lon="-8.8255177438259124755859375">
        <ele>5.19999980926513671875</ele>
        <time>2019-05-04T15:53:17.000Z</time>
      </trkpt>
      <trkpt lat="42.5611221604049205780029296875" lon="-8.82550458423793315887451171875">
        <ele>5.400000095367431640625</ele>
        <time>2019-05-04T15:53:20.000Z</time>
      </trkpt>
      <trkpt lat="42.56137303076684474945068359375" lon="-8.8253770954906940460205078125">
        <ele>5.599999904632568359375</ele>
        <time>2019-05-04T15:53:28.000Z</time>
      </trkpt>
      <trkpt lat="42.56138292141258716583251953125" lon="-8.82553911767899990081787109375">
        <ele>5.19999980926513671875</ele>
        <time>2019-05-04T15:54:02.000Z</time>
      </trkpt>
      <trkpt lat="42.5612716935575008392333984375" lon="-8.825541548430919647216796875">
        <ele>5.19999980926513671875</ele>
        <time>2019-05-04T15:54:08.000Z</time>
      </trkpt>
      <trkpt lat="42.561209499835968017578125" lon="-8.82555688731372356414794921875">
        <ele>5.19999980926513671875</ele>
        <time>2019-05-04T15:54:12.000Z</time>
      </trkpt>
      <trkpt lat="42.5606564618647098541259765625" lon="-8.8255749084055423736572265625">
        <ele>4.599999904632568359375</ele>
        <time>2019-05-04T15:54:32.000Z</time>
      </trkpt>
      <trkpt lat="42.56009395234286785125732421875" lon="-8.8256007246673107147216796875">
        <ele>3.2000000476837158203125</ele>
        <time>2019-05-04T15:54:46.000Z</time>
      </trkpt>
      <trkpt lat="42.56006092764437198638916015625" lon="-8.82559862919151782989501953125">
        <ele>3.2000000476837158203125</ele>
        <time>2019-05-04T15:54:48.000Z</time>
      </trkpt>
      <trkpt lat="42.55992430262267589569091796875" lon="-8.82570574991405010223388671875">
        <ele>3</ele>
        <time>2019-05-04T15:54:55.000Z</time>
      </trkpt>
      <trkpt lat="42.5599969737231731414794921875" lon="-8.82606131024658679962158203125">
        <ele>2</ele>
        <time>2019-05-04T15:55:03.000Z</time>
      </trkpt>
      <trkpt lat="42.56031473167240619659423828125" lon="-8.82660479284822940826416015625">
        <ele>2.7999999523162841796875</ele>
        <time>2019-05-04T15:55:17.000Z</time>
      </trkpt>
      <trkpt lat="42.5605267100036144256591796875" lon="-8.8266732729971408843994140625">
        <ele>3.599999904632568359375</ele>
        <time>2019-05-04T15:55:22.000Z</time>
      </trkpt>
      <trkpt lat="42.56106507964432239532470703125" lon="-8.82676555775105953216552734375">
        <ele>4.80000019073486328125</ele>
        <time>2019-05-04T15:55:33.000Z</time>
      </trkpt>
      <trkpt lat="42.5612371601164340972900390625" lon="-8.826805539429187774658203125">
        <ele>4.599999904632568359375</ele>
        <time>2019-05-04T15:55:37.000Z</time>
      </trkpt>
      <trkpt lat="42.56127881817519664764404296875" lon="-8.8273022510111331939697265625">
        <ele>5</ele>
        <time>2019-05-04T15:55:53.000Z</time>
      </trkpt>
      <trkpt lat="42.56180704571306705474853515625" lon="-8.82720686495304107666015625">
        <ele>4.599999904632568359375</ele>
        <time>2019-05-04T15:56:10.000Z</time>
      </trkpt>
      <trkpt lat="42.5618409924209117889404296875" lon="-8.82753769867122173309326171875">
        <ele>5.19999980926513671875</ele>
        <time>2019-05-04T15:56:17.000Z</time>
      </trkpt>
      <trkpt lat="42.56182297132909297943115234375" lon="-8.8278799317777156829833984375">
        <ele>4.599999904632568359375</ele>
        <time>2019-05-04T15:56:24.000Z</time>
      </trkpt>
      <trkpt lat="42.561775110661983489990234375" lon="-8.8281999528408050537109375">
        <ele>3</ele>
        <time>2019-05-04T15:56:29.000Z</time>
      </trkpt>
      <trkpt lat="42.56186638958752155303955078125" lon="-8.828431628644466400146484375">
        <ele>2.2000000476837158203125</ele>
        <time>2019-05-04T15:56:34.000Z</time>
      </trkpt>
      <trkpt lat="42.5619077123701572418212890625" lon="-8.8285303674638271331787109375">
        <ele>2.2000000476837158203125</ele>
        <time>2019-05-04T15:56:36.000Z</time>
      </trkpt>
      <trkpt lat="42.56194802932441234588623046875" lon="-8.82864075712859630584716796875">
        <ele>2.599999904632568359375</ele>
        <time>2019-05-04T15:56:38.000Z</time>
      </trkpt>
      <trkpt lat="42.561998404562473297119140625" lon="-8.8288143463432788848876953125">
        <ele>3.2000000476837158203125</ele>
        <time>2019-05-04T15:56:41.000Z</time>
      </trkpt>
      <trkpt lat="42.562014497816562652587890625" lon="-8.82908265106379985809326171875">
        <ele>3.7999999523162841796875</ele>
        <time>2019-05-04T15:56:45.000Z</time>
      </trkpt>
      <trkpt lat="42.56202497519552707672119140625" lon="-8.8293638639152050018310546875">
        <ele>3.7999999523162841796875</ele>
        <time>2019-05-04T15:56:49.000Z</time>
      </trkpt>
      <trkpt lat="42.5620542280375957489013671875" lon="-8.8301078416407108306884765625">
        <ele>5</ele>
        <time>2019-05-04T15:56:59.000Z</time>
      </trkpt>
      <trkpt lat="42.56205280311405658721923828125" lon="-8.83088140748441219329833984375">
        <ele>3.2000000476837158203125</ele>
        <time>2019-05-04T15:57:10.000Z</time>
      </trkpt>
      <trkpt lat="42.56205515004694461822509765625" lon="-8.83094309829175472259521484375">
        <ele>3</ele>
        <time>2019-05-04T15:57:11.000Z</time>
      </trkpt>
      <trkpt lat="42.5622721575200557708740234375" lon="-8.83116086013615131378173828125">
        <ele>1.39999997615814208984375</ele>
        <time>2019-05-04T15:57:17.000Z</time>
      </trkpt>
      <trkpt lat="42.562408447265625" lon="-8.83120997808873653411865234375">
        <ele>1.60000002384185791015625</ele>
        <time>2019-05-04T15:57:20.000Z</time>
      </trkpt>
      <trkpt lat="42.5626925937831401824951171875" lon="-8.83094812743365764617919921875">
        <ele>1.60000002384185791015625</ele>
        <time>2019-05-04T15:57:28.000Z</time>
      </trkpt>
      <trkpt lat="42.56299291737377643585205078125" lon="-8.83039341308176517486572265625">
        <ele>2</ele>
        <time>2019-05-04T15:57:41.000Z</time>
      </trkpt>
      <trkpt lat="42.5631633214652538299560546875" lon="-8.8303421996533870697021484375">
        <ele>1.39999997615814208984375</ele>
        <time>2019-05-04T15:57:45.000Z</time>
      </trkpt>
      <trkpt lat="42.56320648826658725738525390625" lon="-8.83033105172216892242431640625">
        <ele>1.2000000476837158203125</ele>
        <time>2019-05-04T15:57:46.000Z</time>
      </trkpt>
      <trkpt lat="42.5637658126652240753173828125" lon="-8.83016022853553295135498046875">
        <ele>2.400000095367431640625</ele>
        <time>2019-05-04T15:58:01.000Z</time>
      </trkpt>
      <trkpt lat="42.56394795142114162445068359375" lon="-8.8299006409943103790283203125">
        <ele>4.400000095367431640625</ele>
        <time>2019-05-04T15:58:09.000Z</time>
      </trkpt>
      <trkpt lat="42.5639297626912593841552734375" lon="-8.8294605910778045654296875">
        <ele>6.80000019073486328125</ele>
        <time>2019-05-04T15:58:18.000Z</time>
      </trkpt>
      <trkpt lat="42.5641564093530178070068359375" lon="-8.82942915894091129302978515625">
        <ele>7.80000019073486328125</ele>
        <time>2019-05-04T15:58:24.000Z</time>
      </trkpt>
      <trkpt lat="42.564506269991397857666015625" lon="-8.82947810925543308258056640625">
        <ele>6.19999980926513671875</ele>
        <time>2019-05-04T15:58:32.000Z</time>
      </trkpt>
      <trkpt lat="42.56492041982710361480712890625" lon="-8.829616494476795196533203125">
        <ele>4.599999904632568359375</ele>
        <time>2019-05-04T15:58:41.000Z</time>
      </trkpt>
      <trkpt lat="42.56500943563878536224365234375" lon="-8.8296783529222011566162109375">
        <ele>4.599999904632568359375</ele>
        <time>2019-05-04T15:58:43.000Z</time>
      </trkpt>
      <trkpt lat="42.5654147006571292877197265625" lon="-8.82996191270649433135986328125">
        <ele>4.599999904632568359375</ele>
        <time>2019-05-04T15:58:53.000Z</time>
      </trkpt>
      <trkpt lat="42.56595105864107608795166015625" lon="-8.8298389501869678497314453125">
        <ele>5.400000095367431640625</ele>
        <time>2019-05-04T15:59:04.000Z</time>
      </trkpt>
      <trkpt lat="42.56603940390050411224365234375" lon="-8.8298235274851322174072265625">
        <ele>5.599999904632568359375</ele>
        <time>2019-05-04T15:59:06.000Z</time>
      </trkpt>
      <trkpt lat="42.566305361688137054443359375" lon="-8.82979293353855609893798828125">
        <ele>6.80000019073486328125</ele>
        <time>2019-05-04T15:59:12.000Z</time>
      </trkpt>
      <trkpt lat="42.56639613769948482513427734375" lon="-8.82977684028446674346923828125">
        <ele>7.19999980926513671875</ele>
        <time>2019-05-04T15:59:14.000Z</time>
      </trkpt>
      <trkpt lat="42.56668045185506343841552734375" lon="-8.82974968291819095611572265625">
        <ele>8.6000003814697265625</ele>
        <time>2019-05-04T15:59:20.000Z</time>
      </trkpt>
      <trkpt lat="42.566804252564907073974609375" lon="-8.82940418086946010589599609375">
        <ele>9.80000019073486328125</ele>
        <time>2019-05-04T15:59:29.000Z</time>
      </trkpt>
      <trkpt lat="42.56676108576357364654541015625" lon="-8.82900486700236797332763671875">
        <ele>11.3999996185302734375</ele>
        <time>2019-05-04T15:59:42.000Z</time>
      </trkpt>
      <trkpt lat="42.56704556755721569061279296875" lon="-8.8290352933108806610107421875">
        <ele>12</ele>
        <time>2019-05-04T15:59:49.000Z</time>
      </trkpt>
      <trkpt lat="42.5672231800854206085205078125" lon="-8.82910980843007564544677734375">
        <ele>13</ele>
        <time>2019-05-04T15:59:53.000Z</time>
      </trkpt>
      <trkpt lat="42.56774134933948516845703125" lon="-8.82935774512588977813720703125">
        <ele>12.19999980926513671875</ele>
        <time>2019-05-04T16:00:01.000Z</time>
      </trkpt>
      <trkpt lat="42.5682570040225982666015625" lon="-8.82957014255225658416748046875">
        <ele>7.599999904632568359375</ele>
        <time>2019-05-04T16:00:09.000Z</time>
      </trkpt>
      <trkpt lat="42.568814568221569061279296875" lon="-8.82965228520333766937255859375">
        <ele>4.19999980926513671875</ele>
        <time>2019-05-04T16:00:18.000Z</time>
      </trkpt>
      <trkpt lat="42.56935461424291133880615234375" lon="-8.829722106456756591796875">
        <ele>3</ele>
        <time>2019-05-04T16:00:28.000Z</time>
      </trkpt>
      <trkpt lat="42.5699114240705966949462890625" lon="-8.8297413848340511322021484375">
        <ele>3</ele>
        <time>2019-05-04T16:00:38.000Z</time>
      </trkpt>
      <trkpt lat="42.57048952393233776092529296875" lon="-8.82973878644406795501708984375">
        <ele>6.19999980926513671875</ele>
        <time>2019-05-04T16:00:48.000Z</time>
      </trkpt>
      <trkpt lat="42.57106921635568141937255859375" lon="-8.82972151972353458404541015625">
        <ele>6</ele>
        <time>2019-05-04T16:01:00.000Z</time>
      </trkpt>
      <trkpt lat="42.5715009681880474090576171875" lon="-8.82969268597662448883056640625">
        <ele>5.400000095367431640625</ele>
        <time>2019-05-04T16:01:10.000Z</time>
      </trkpt>
      <trkpt lat="42.5720323808491230010986328125" lon="-8.82944248616695404052734375">
        <ele>5</ele>
        <time>2019-05-04T16:01:21.000Z</time>
      </trkpt>
      <trkpt lat="42.57256396114826202392578125" lon="-8.82911282591521739959716796875">
        <ele>4.599999904632568359375</ele>
        <time>2019-05-04T16:01:33.000Z</time>
      </trkpt>
      <trkpt lat="42.57306687533855438232421875" lon="-8.82879414595663547515869140625">
        <ele>4.80000019073486328125</ele>
        <time>2019-05-04T16:01:45.000Z</time>
      </trkpt>
      <trkpt lat="42.57346920669078826904296875" lon="-8.828540258109569549560546875">
        <ele>4.80000019073486328125</ele>
        <time>2019-05-04T16:01:56.000Z</time>
      </trkpt>
      <trkpt lat="42.57396248169243335723876953125" lon="-8.82823406718671321868896484375">
        <ele>4.599999904632568359375</ele>
        <time>2019-05-04T16:02:08.000Z</time>
      </trkpt>
      <trkpt lat="42.57445097900927066802978515625" lon="-8.827904574573040008544921875">
        <ele>4.80000019073486328125</ele>
        <time>2019-05-04T16:02:20.000Z</time>
      </trkpt>
      <trkpt lat="42.57474836893379688262939453125" lon="-8.82770231924951076507568359375">
        <ele>5</ele>
        <time>2019-05-04T16:02:26.000Z</time>
      </trkpt>
      <trkpt lat="42.5750575773417949676513671875" lon="-8.82722186855971813201904296875">
        <ele>6.599999904632568359375</ele>
        <time>2019-05-04T16:02:34.000Z</time>
      </trkpt>
      <trkpt lat="42.57512438111007213592529296875" lon="-8.82709463126957416534423828125">
        <ele>6.80000019073486328125</ele>
        <time>2019-05-04T16:02:36.000Z</time>
      </trkpt>
      <trkpt lat="42.575445659458637237548828125" lon="-8.82645626552402973175048828125">
        <ele>8</ele>
        <time>2019-05-04T16:02:47.000Z</time>
      </trkpt>
      <trkpt lat="42.5757740624248981475830078125" lon="-8.8258186541497707366943359375">
        <ele>8</ele>
        <time>2019-05-04T16:02:59.000Z</time>
      </trkpt>
      <trkpt lat="42.57614563219249248504638671875" lon="-8.82525421679019927978515625">
        <ele>9</ele>
        <time>2019-05-04T16:03:10.000Z</time>
      </trkpt>
      <trkpt lat="42.576567828655242919921875" lon="-8.8247477822005748748779296875">
        <ele>9.3999996185302734375</ele>
        <time>2019-05-04T16:03:21.000Z</time>
      </trkpt>
      <trkpt lat="42.57700997404754161834716796875" lon="-8.8242291100323200225830078125">
        <ele>10.6000003814697265625</ele>
        <time>2019-05-04T16:03:33.000Z</time>
      </trkpt>
      <trkpt lat="42.57744449190795421600341796875" lon="-8.8236812688410282135009765625">
        <ele>11.19999980926513671875</ele>
        <time>2019-05-04T16:03:44.000Z</time>
      </trkpt>
      <trkpt lat="42.57751992903649806976318359375" lon="-8.82356300018727779388427734375">
        <ele>11</ele>
        <time>2019-05-04T16:03:46.000Z</time>
      </trkpt>
      <trkpt lat="42.5775882415473461151123046875" lon="-8.82285908795893192291259765625">
        <ele>12.6000003814697265625</ele>
        <time>2019-05-04T16:03:55.000Z</time>
      </trkpt>
      <trkpt lat="42.57743191905319690704345703125" lon="-8.82215894758701324462890625">
        <ele>12.80000019073486328125</ele>
        <time>2019-05-04T16:04:04.000Z</time>
      </trkpt>
      <trkpt lat="42.5772804580628871917724609375" lon="-8.8214446417987346649169921875">
        <ele>11.80000019073486328125</ele>
        <time>2019-05-04T16:04:13.000Z</time>
      </trkpt>
      <trkpt lat="42.57712128572165966033935546875" lon="-8.820731006562709808349609375">
        <ele>9</ele>
        <time>2019-05-04T16:04:22.000Z</time>
      </trkpt>
      <trkpt lat="42.57696144282817840576171875" lon="-8.820020221173763275146484375">
        <ele>10</ele>
        <time>2019-05-04T16:04:31.000Z</time>
      </trkpt>
      <trkpt lat="42.57681383751332759857177734375" lon="-8.81929946132004261016845703125">
        <ele>9.6000003814697265625</ele>
        <time>2019-05-04T16:04:40.000Z</time>
      </trkpt>
      <trkpt lat="42.576668746769428253173828125" lon="-8.8185632787644863128662109375">
        <ele>5.19999980926513671875</ele>
        <time>2019-05-04T16:04:50.000Z</time>
      </trkpt>
      <trkpt lat="42.57652516476809978485107421875" lon="-8.81785190664231777191162109375">
        <ele>2.2000000476837158203125</ele>
        <time>2019-05-04T16:04:59.000Z</time>
      </trkpt>
      <trkpt lat="42.5763792358338832855224609375" lon="-8.81713340990245342254638671875">
        <ele>5</ele>
        <time>2019-05-04T16:05:08.000Z</time>
      </trkpt>
      <trkpt lat="42.57622643373906612396240234375" lon="-8.81642614491283893585205078125">
        <ele>4.80000019073486328125</ele>
        <time>2019-05-04T16:05:17.000Z</time>
      </trkpt>
      <trkpt lat="42.5760959275066852569580078125" lon="-8.81570043973624706268310546875">
        <ele>3.2000000476837158203125</ele>
        <time>2019-05-04T16:05:26.000Z</time>
      </trkpt>
      <trkpt lat="42.57602040655910968780517578125" lon="-8.81493869237601757049560546875">
        <ele>8.6000003814697265625</ele>
        <time>2019-05-04T16:05:36.000Z</time>
      </trkpt>
      <trkpt lat="42.5759817659854888916015625" lon="-8.81414358504116535186767578125">
        <ele>12.80000019073486328125</ele>
        <time>2019-05-04T16:05:46.000Z</time>
      </trkpt>
      <trkpt lat="42.575964666903018951416015625" lon="-8.813686184585094451904296875">
        <ele>9.3999996185302734375</ele>
        <time>2019-05-04T16:05:52.000Z</time>
      </trkpt>
      <trkpt lat="42.5759447179734706878662109375" lon="-8.81292720325291156768798828125">
        <ele>4.400000095367431640625</ele>
        <time>2019-05-04T16:06:02.000Z</time>
      </trkpt>
      <trkpt lat="42.5759152136743068695068359375" lon="-8.81267960183322429656982421875">
        <ele>2.7999999523162841796875</ele>
        <time>2019-05-04T16:06:05.000Z</time>
      </trkpt>
      <trkpt lat="42.57587238214910030364990234375" lon="-8.8119216263294219970703125">
        <ele>0.20000000298023223876953125</ele>
        <time>2019-05-04T16:06:14.000Z</time>
      </trkpt>
      <trkpt lat="42.575839273631572723388671875" lon="-8.81118292920291423797607421875">
        <ele>-0.800000011920928955078125</ele>
        <time>2019-05-04T16:06:23.000Z</time>
      </trkpt>
      <trkpt lat="42.57581287063658237457275390625" lon="-8.81041883490979671478271484375">
        <ele>1.39999997615814208984375</ele>
        <time>2019-05-04T16:06:33.000Z</time>
      </trkpt>
      <trkpt lat="42.575805075466632843017578125" lon="-8.809624649584293365478515625">
        <ele>1.39999997615814208984375</ele>
        <time>2019-05-04T16:06:44.000Z</time>
      </trkpt>
      <trkpt lat="42.5757881440222263336181640625" lon="-8.80886700935661792755126953125">
        <ele>0.60000002384185791015625</ele>
        <time>2019-05-04T16:06:54.000Z</time>
      </trkpt>
      <trkpt lat="42.57578437216579914093017578125" lon="-8.80806888453662395477294921875">
        <ele>1.39999997615814208984375</ele>
        <time>2019-05-04T16:07:04.000Z</time>
      </trkpt>
      <trkpt lat="42.57577749900519847869873046875" lon="-8.80731761455535888671875">
        <ele>4.599999904632568359375</ele>
        <time>2019-05-04T16:07:15.000Z</time>
      </trkpt>
      <trkpt lat="42.57577347569167613983154296875" lon="-8.8065543584525585174560546875">
        <ele>8</ele>
        <time>2019-05-04T16:07:29.000Z</time>
      </trkpt>
      <trkpt lat="42.5757737271487712860107421875" lon="-8.80582186393439769744873046875">
        <ele>10.3999996185302734375</ele>
        <time>2019-05-04T16:07:43.000Z</time>
      </trkpt>
      <trkpt lat="42.57578437216579914093017578125" lon="-8.805494047701358795166015625">
        <ele>11.80000019073486328125</ele>
        <time>2019-05-04T16:07:49.000Z</time>
      </trkpt>
      <trkpt lat="42.57576442323625087738037109375" lon="-8.8047163747251033782958984375">
        <ele>13.19999980926513671875</ele>
        <time>2019-05-04T16:08:02.000Z</time>
      </trkpt>
      <trkpt lat="42.5757576338946819305419921875" lon="-8.8039834611117839813232421875">
        <ele>14.3999996185302734375</ele>
        <time>2019-05-04T16:08:15.000Z</time>
      </trkpt>
      <trkpt lat="42.57575235329568386077880859375" lon="-8.8032435066998004913330078125">
        <ele>16.6000003814697265625</ele>
        <time>2019-05-04T16:08:28.000Z</time>
      </trkpt>
      <trkpt lat="42.575750090181827545166015625" lon="-8.8031348772346973419189453125">
        <ele>17</ele>
        <time>2019-05-04T16:08:30.000Z</time>
      </trkpt>
      <trkpt lat="42.57568445987999439239501953125" lon="-8.8025213219225406646728515625">
        <ele>19.200000762939453125</ele>
        <time>2019-05-04T16:08:43.000Z</time>
      </trkpt>
      <trkpt lat="42.5756640918552875518798828125" lon="-8.8021602295339107513427734375">
        <ele>20.6000003814697265625</ele>
        <time>2019-05-04T16:08:51.000Z</time>
      </trkpt>
      <trkpt lat="42.57578604854643344879150390625" lon="-8.80202268250286579132080078125">
        <ele>20.799999237060546875</ele>
        <time>2019-05-04T16:08:55.000Z</time>
      </trkpt>
      <trkpt lat="42.57616004906594753265380859375" lon="-8.80147886462509632110595703125">
        <ele>21.6000003814697265625</ele>
        <time>2019-05-04T16:09:08.000Z</time>
      </trkpt>
      <trkpt lat="42.57654846645891666412353515625" lon="-8.8009621202945709228515625">
        <ele>22.200000762939453125</ele>
        <time>2019-05-04T16:09:20.000Z</time>
      </trkpt>
      <trkpt lat="42.576927579939365386962890625" lon="-8.80043380893766880035400390625">
        <ele>22</ele>
        <time>2019-05-04T16:09:31.000Z</time>
      </trkpt>
      <trkpt lat="42.57724843919277191162109375" lon="-8.79994816146790981292724609375">
        <ele>21.6000003814697265625</ele>
        <time>2019-05-04T16:09:42.000Z</time>
      </trkpt>
      <trkpt lat="42.57763090543448925018310546875" lon="-8.7993903458118438720703125">
        <ele>20.799999237060546875</ele>
        <time>2019-05-04T16:09:56.000Z</time>
      </trkpt>
      <trkpt lat="42.57777507416903972625732421875" lon="-8.799187503755092620849609375">
        <ele>21.6000003814697265625</ele>
        <time>2019-05-04T16:10:05.000Z</time>
      </trkpt>
      <trkpt lat="42.57780776359140872955322265625" lon="-8.799140565097332000732421875">
        <ele>21.799999237060546875</ele>
        <time>2019-05-04T16:10:23.000Z</time>
      </trkpt>
      <trkpt lat="42.578219063580036163330078125" lon="-8.79857989959418773651123046875">
        <ele>23.3999996185302734375</ele>
        <time>2019-05-04T16:10:37.000Z</time>
      </trkpt>
      <trkpt lat="42.578278742730617523193359375" lon="-8.79846339114010334014892578125">
        <ele>23.799999237060546875</ele>
        <time>2019-05-04T16:10:39.000Z</time>
      </trkpt>
      <trkpt lat="42.57852123118937015533447265625" lon="-8.797769956290721893310546875">
        <ele>26</ele>
        <time>2019-05-04T16:10:48.000Z</time>
      </trkpt>
      <trkpt lat="42.578671686351299285888671875" lon="-8.7969798780977725982666015625">
        <ele>20</ele>
        <time>2019-05-04T16:10:56.000Z</time>
      </trkpt>
      <trkpt lat="42.57879029028117656707763671875" lon="-8.796165324747562408447265625">
        <ele>8.80000019073486328125</ele>
        <time>2019-05-04T16:11:03.000Z</time>
      </trkpt>
      <trkpt lat="42.57899464108049869537353515625" lon="-8.7954272143542766571044921875">
        <ele>4.400000095367431640625</ele>
        <time>2019-05-04T16:11:10.000Z</time>
      </trkpt>
      <trkpt lat="42.57907745428383350372314453125" lon="-8.7952300719916820526123046875">
        <ele>4</ele>
        <time>2019-05-04T16:11:13.000Z</time>
      </trkpt>
      <trkpt lat="42.57914233021438121795654296875" lon="-8.7948934547603130340576171875">
        <ele>6.80000019073486328125</ele>
        <time>2019-05-04T16:11:22.000Z</time>
      </trkpt>
      <trkpt lat="42.5794584117829799652099609375" lon="-8.794829584658145904541015625">
        <ele>7</ele>
        <time>2019-05-04T16:11:39.000Z</time>
      </trkpt>
      <trkpt lat="42.57953158579766750335693359375" lon="-8.794781304895877838134765625">
        <ele>7.19999980926513671875</ele>
        <time>2019-05-04T16:11:43.000Z</time>
      </trkpt>
      <trkpt lat="42.5797878205776214599609375" lon="-8.7948471866548061370849609375">
        <ele>6.400000095367431640625</ele>
        <time>2019-05-04T16:11:54.000Z</time>
      </trkpt>
      <trkpt lat="42.5799328275024890899658203125" lon="-8.79506268538534641265869140625">
        <ele>4.400000095367431640625</ele>
        <time>2019-05-04T16:12:00.000Z</time>
      </trkpt>
      <trkpt lat="42.580096609890460968017578125" lon="-8.79496939480304718017578125">
        <ele>4.80000019073486328125</ele>
        <time>2019-05-04T16:12:05.000Z</time>
      </trkpt>
      <trkpt lat="42.58038704283535480499267578125" lon="-8.79482430405914783477783203125">
        <ele>5.400000095367431640625</ele>
        <time>2019-05-04T16:12:12.000Z</time>
      </trkpt>
      <trkpt lat="42.5805708579719066619873046875" lon="-8.79481608979403972625732421875">
        <ele>5.400000095367431640625</ele>
        <time>2019-05-04T16:12:16.000Z</time>
      </trkpt>
      <trkpt lat="42.580794990062713623046875" lon="-8.79497718997299671173095703125">
        <ele>4.400000095367431640625</ele>
        <time>2019-05-04T16:12:21.000Z</time>
      </trkpt>
      <trkpt lat="42.5810700841248035430908203125" lon="-8.79522043280303478240966796875">
        <ele>4.80000019073486328125</ele>
        <time>2019-05-04T16:12:27.000Z</time>
      </trkpt>
      <trkpt lat="42.58126907050609588623046875" lon="-8.7953303195536136627197265625">
        <ele>6.80000019073486328125</ele>
        <time>2019-05-04T16:12:31.000Z</time>
      </trkpt>
      <trkpt lat="42.58146311156451702117919921875" lon="-8.79561421461403369903564453125">
        <ele>7.400000095367431640625</ele>
        <time>2019-05-04T16:12:36.000Z</time>
      </trkpt>
      <trkpt lat="42.58160627447068691253662109375" lon="-8.79583306610584259033203125">
        <ele>5.599999904632568359375</ele>
        <time>2019-05-04T16:12:40.000Z</time>
      </trkpt>
      <trkpt lat="42.5820574723184108734130859375" lon="-8.79625895060598850250244140625">
        <ele>4.599999904632568359375</ele>
        <time>2019-05-04T16:12:52.000Z</time>
      </trkpt>
      <trkpt lat="42.58236886002123355865478515625" lon="-8.79659825004637241363525390625">
        <ele>3</ele>
        <time>2019-05-04T16:13:02.000Z</time>
      </trkpt>
      <trkpt lat="42.582500874996185302734375" lon="-8.7967740185558795928955078125">
        <ele>1.60000002384185791015625</ele>
        <time>2019-05-04T16:13:06.000Z</time>
      </trkpt>
      <trkpt lat="42.58239434100687503814697265625" lon="-8.79715128801763057708740234375">
        <ele>1</ele>
        <time>2019-05-04T16:13:12.000Z</time>
      </trkpt>
      <trkpt lat="42.582810334861278533935546875" lon="-8.7972370348870754241943359375">
        <ele>1</ele>
        <time>2019-05-04T16:13:26.000Z</time>
      </trkpt>
      <trkpt lat="42.582865655422210693359375" lon="-8.79716453142464160919189453125">
        <ele>1</ele>
        <time>2019-05-04T16:13:28.000Z</time>
      </trkpt>
      <trkpt lat="42.58305517025291919708251953125" lon="-8.7967550754547119140625">
        <ele>3.2000000476837158203125</ele>
        <time>2019-05-04T16:13:37.000Z</time>
      </trkpt>
      <trkpt lat="42.58322163484990596771240234375" lon="-8.7963555939495563507080078125">
        <ele>4.19999980926513671875</ele>
        <time>2019-05-04T16:13:44.000Z</time>
      </trkpt>
      <trkpt lat="42.58348952047526836395263671875" lon="-8.7961125187575817108154296875">
        <ele>5</ele>
        <time>2019-05-04T16:13:51.000Z</time>
      </trkpt>
      <trkpt lat="42.58353478275239467620849609375" lon="-8.79609466530382633209228515625">
        <ele>5</ele>
        <time>2019-05-04T16:13:52.000Z</time>
      </trkpt>
      <trkpt lat="42.58372890762984752655029296875" lon="-8.79599072970449924468994140625">
        <ele>5</ele>
        <time>2019-05-04T16:13:57.000Z</time>
      </trkpt>
      <trkpt lat="42.58385195396840572357177734375" lon="-8.79595787264406681060791015625">
        <ele>5.19999980926513671875</ele>
        <time>2019-05-04T16:14:00.000Z</time>
      </trkpt>
      <trkpt lat="42.5840161554515361785888671875" lon="-8.79595435224473476409912109375">
        <ele>5.19999980926513671875</ele>
        <time>2019-05-04T16:14:04.000Z</time>
      </trkpt>
      <trkpt lat="42.584268115460872650146484375" lon="-8.795715384185314178466796875">
        <ele>5.19999980926513671875</ele>
        <time>2019-05-04T16:14:11.000Z</time>
      </trkpt>
      <trkpt lat="42.584373056888580322265625" lon="-8.79564891569316387176513671875">
        <ele>5.19999980926513671875</ele>
        <time>2019-05-04T16:14:14.000Z</time>
      </trkpt>
      <trkpt lat="42.58464354090392589569091796875" lon="-8.79556559957563877105712890625">
        <ele>5</ele>
        <time>2019-05-04T16:14:20.000Z</time>
      </trkpt>
      <trkpt lat="42.58521703071892261505126953125" lon="-8.7954382784664630889892578125">
        <ele>2.2000000476837158203125</ele>
        <time>2019-05-04T16:14:32.000Z</time>
      </trkpt>
      <trkpt lat="42.5853203795850276947021484375" lon="-8.79536778666079044342041015625">
        <ele>1.39999997615814208984375</ele>
        <time>2019-05-04T16:14:35.000Z</time>
      </trkpt>
      <trkpt lat="42.58528769016265869140625" lon="-8.79500518552958965301513671875">
        <ele>3.400000095367431640625</ele>
        <time>2019-05-04T16:14:41.000Z</time>
      </trkpt>
      <trkpt lat="42.58522055111825466156005859375" lon="-8.79427595995366573333740234375">
        <ele>2</ele>
        <time>2019-05-04T16:14:52.000Z</time>
      </trkpt>
      <trkpt lat="42.58522356860339641571044921875" lon="-8.79420706070959568023681640625">
        <ele>2</ele>
        <time>2019-05-04T16:14:53.000Z</time>
      </trkpt>
      <trkpt lat="42.585285343229770660400390625" lon="-8.793466351926326751708984375">
        <ele>2</ele>
        <time>2019-05-04T16:15:04.000Z</time>
      </trkpt>
      <trkpt lat="42.58536421693861484527587890625" lon="-8.79269965924322605133056640625">
        <ele>3</ele>
        <time>2019-05-04T16:15:16.000Z</time>
      </trkpt>
      <trkpt lat="42.585411407053470611572265625" lon="-8.7922457791864871978759765625">
        <ele>3</ele>
        <time>2019-05-04T16:15:23.000Z</time>
      </trkpt>
      <trkpt lat="42.58546429686248302459716796875" lon="-8.791457712650299072265625">
        <ele>2.400000095367431640625</ele>
        <time>2019-05-04T16:15:35.000Z</time>
      </trkpt>
      <trkpt lat="42.58548156358301639556884765625" lon="-8.79139677621424198150634765625">
        <ele>2.2000000476837158203125</ele>
        <time>2019-05-04T16:15:36.000Z</time>
      </trkpt>
      <trkpt lat="42.5855993293225765228271484375" lon="-8.791019506752490997314453125">
        <ele>1.60000002384185791015625</ele>
        <time>2019-05-04T16:15:42.000Z</time>
      </trkpt>
      <trkpt lat="42.5857718288898468017578125" lon="-8.790800571441650390625">
        <ele>1.7999999523162841796875</ele>
        <time>2019-05-04T16:15:47.000Z</time>
      </trkpt>
      <trkpt lat="42.58588959462940692901611328125" lon="-8.79068666137754917144775390625">
        <ele>2</ele>
        <time>2019-05-04T16:15:50.000Z</time>
      </trkpt>
      <trkpt lat="42.5861220248043537139892578125" lon="-8.79059697501361370086669921875">
        <ele>2.7999999523162841796875</ele>
        <time>2019-05-04T16:15:55.000Z</time>
      </trkpt>
      <trkpt lat="42.5866923294961452484130859375" lon="-8.79050745628774166107177734375">
        <ele>3.2000000476837158203125</ele>
        <time>2019-05-04T16:16:07.000Z</time>
      </trkpt>
      <trkpt lat="42.587267495691776275634765625" lon="-8.79042313434183597564697265625">
        <ele>2.400000095367431640625</ele>
        <time>2019-05-04T16:16:19.000Z</time>
      </trkpt>
      <trkpt lat="42.58761408738791942596435546875" lon="-8.79030813463032245635986328125">
        <ele>2.400000095367431640625</ele>
        <time>2019-05-04T16:16:27.000Z</time>
      </trkpt>
      <trkpt lat="42.58777669630944728851318359375" lon="-8.79007729701697826385498046875">
        <ele>2.2000000476837158203125</ele>
        <time>2019-05-04T16:16:33.000Z</time>
      </trkpt>
      <trkpt lat="42.58786596357822418212890625" lon="-8.78990429453551769256591796875">
        <ele>2.2000000476837158203125</ele>
        <time>2019-05-04T16:16:37.000Z</time>
      </trkpt>
      <trkpt lat="42.58796612732112407684326171875" lon="-8.78952090628445148468017578125">
        <ele>2.7999999523162841796875</ele>
        <time>2019-05-04T16:16:44.000Z</time>
      </trkpt>
      <trkpt lat="42.58804969489574432373046875" lon="-8.7893748097121715545654296875">
        <ele>2.7999999523162841796875</ele>
        <time>2019-05-04T16:16:47.000Z</time>
      </trkpt>
      <trkpt lat="42.5883274711668491363525390625" lon="-8.78907498903572559356689453125">
        <ele>2.2000000476837158203125</ele>
        <time>2019-05-04T16:16:55.000Z</time>
      </trkpt>
      <trkpt lat="42.5887512601912021636962890625" lon="-8.78861431963741779327392578125">
        <ele>3.2000000476837158203125</ele>
        <time>2019-05-04T16:17:10.000Z</time>
      </trkpt>
      <trkpt lat="42.58918401785194873809814453125" lon="-8.788155578076839447021484375">
        <ele>3.400000095367431640625</ele>
        <time>2019-05-04T16:17:24.000Z</time>
      </trkpt>
      <trkpt lat="42.58948073722422122955322265625" lon="-8.787841089069843292236328125">
        <ele>3.2000000476837158203125</ele>
        <time>2019-05-04T16:17:33.000Z</time>
      </trkpt>
      <trkpt lat="42.589628510177135467529296875" lon="-8.78779607824981212615966796875">
        <ele>2.7999999523162841796875</ele>
        <time>2019-05-04T16:17:37.000Z</time>
      </trkpt>
      <trkpt lat="42.58970218710601329803466796875" lon="-8.7877765484154224395751953125">
        <ele>2.599999904632568359375</ele>
        <time>2019-05-04T16:17:39.000Z</time>
      </trkpt>
      <trkpt lat="42.5901490263640880584716796875" lon="-8.78732048906385898590087890625">
        <ele>3</ele>
        <time>2019-05-04T16:17:52.000Z</time>
      </trkpt>
      <trkpt lat="42.5902301631867885589599609375" lon="-8.787263743579387664794921875">
        <ele>2.7999999523162841796875</ele>
        <time>2019-05-04T16:17:54.000Z</time>
      </trkpt>
      <trkpt lat="42.59029579348862171173095703125" lon="-8.787199370563030242919921875">
        <ele>2.7999999523162841796875</ele>
        <time>2019-05-04T16:17:56.000Z</time>
      </trkpt>
      <trkpt lat="42.59064950980246067047119140625" lon="-8.78678186796605587005615234375">
        <ele>3.400000095367431640625</ele>
        <time>2019-05-04T16:18:08.000Z</time>
      </trkpt>
      <trkpt lat="42.59099903516471385955810546875" lon="-8.7864820472896099090576171875">
        <ele>4.599999904632568359375</ele>
        <time>2019-05-04T16:18:18.000Z</time>
      </trkpt>
      <trkpt lat="42.59149474091827869415283203125" lon="-8.78614082001149654388427734375">
        <ele>5.80000019073486328125</ele>
        <time>2019-05-04T16:18:32.000Z</time>
      </trkpt>
      <trkpt lat="42.59171895682811737060546875" lon="-8.78589472733438014984130859375">
        <ele>6.599999904632568359375</ele>
        <time>2019-05-04T16:18:39.000Z</time>
      </trkpt>
      <trkpt lat="42.59178827516734600067138671875" lon="-8.78582482226192951202392578125">
        <ele>6.599999904632568359375</ele>
        <time>2019-05-04T16:18:41.000Z</time>
      </trkpt>
      <trkpt lat="42.5922391377389430999755859375" lon="-8.7853823415935039520263671875">
        <ele>6</ele>
        <time>2019-05-04T16:18:54.000Z</time>
      </trkpt>
      <trkpt lat="42.59238271974027156829833984375" lon="-8.7851593829691410064697265625">
        <ele>6</ele>
        <time>2019-05-04T16:18:59.000Z</time>
      </trkpt>
      <trkpt lat="42.592534683644771575927734375" lon="-8.784864507615566253662109375">
        <ele>5.400000095367431640625</ele>
        <time>2019-05-04T16:19:05.000Z</time>
      </trkpt>
      <trkpt lat="42.59260274469852447509765625" lon="-8.78466828726232051849365234375">
        <ele>5.19999980926513671875</ele>
        <time>2019-05-04T16:19:09.000Z</time>
      </trkpt>
      <trkpt lat="42.5928764976561069488525390625" lon="-8.7841607630252838134765625">
        <ele>5.599999904632568359375</ele>
        <time>2019-05-04T16:19:18.000Z</time>
      </trkpt>
      <trkpt lat="42.5930753163993358612060546875" lon="-8.78405054099857807159423828125">
        <ele>5.400000095367431640625</ele>
        <time>2019-05-04T16:19:22.000Z</time>
      </trkpt>
      <trkpt lat="42.59348426945507526397705078125" lon="-8.7839795462787151336669921875">
        <ele>4.400000095367431640625</ele>
        <time>2019-05-04T16:19:30.000Z</time>
      </trkpt>
      <trkpt lat="42.59405247867107391357421875" lon="-8.78386463038623332977294921875">
        <ele>6.19999980926513671875</ele>
        <time>2019-05-04T16:19:42.000Z</time>
      </trkpt>
      <trkpt lat="42.59418985806405544281005859375" lon="-8.78384551964700222015380859375">
        <ele>6.80000019073486328125</ele>
        <time>2019-05-04T16:19:45.000Z</time>
      </trkpt>
      <trkpt lat="42.59474440477788448333740234375" lon="-8.78376253880560398101806640625">
        <ele>3.7999999523162841796875</ele>
        <time>2019-05-04T16:19:57.000Z</time>
      </trkpt>
      <trkpt lat="42.594790756702423095703125" lon="-8.78374661318957805633544921875">
        <ele>3.599999904632568359375</ele>
        <time>2019-05-04T16:19:58.000Z</time>
      </trkpt>
      <trkpt lat="42.5949047505855560302734375" lon="-8.7835758738219738006591796875">
        <ele>3.599999904632568359375</ele>
        <time>2019-05-04T16:20:02.000Z</time>
      </trkpt>
      <trkpt lat="42.5949069298803806304931640625" lon="-8.78350823186337947845458984375">
        <ele>3.7999999523162841796875</ele>
        <time>2019-05-04T16:20:03.000Z</time>
      </trkpt>
      <trkpt lat="42.59491640143096446990966796875" lon="-8.7827668525278568267822265625">
        <ele>4.599999904632568359375</ele>
        <time>2019-05-04T16:20:14.000Z</time>
      </trkpt>
      <trkpt lat="42.5948968715965747833251953125" lon="-8.78203586675226688385009765625">
        <ele>3.2000000476837158203125</ele>
        <time>2019-05-04T16:20:25.000Z</time>
      </trkpt>
      <trkpt lat="42.59485580027103424072265625" lon="-8.7818341143429279327392578125">
        <ele>2.400000095367431640625</ele>
        <time>2019-05-04T16:20:28.000Z</time>
      </trkpt>
      <trkpt lat="42.5946363620460033416748046875" lon="-8.78152188844978809356689453125">
        <ele>3.400000095367431640625</ele>
        <time>2019-05-04T16:20:34.000Z</time>
      </trkpt>
      <trkpt lat="42.5944127328693866729736328125" lon="-8.78128048963844776153564453125">
        <ele>2.7999999523162841796875</ele>
        <time>2019-05-04T16:20:39.000Z</time>
      </trkpt>
      <trkpt lat="42.5942668877542018890380859375" lon="-8.78106323070824146270751953125">
        <ele>2.2000000476837158203125</ele>
        <time>2019-05-04T16:20:43.000Z</time>
      </trkpt>
      <trkpt lat="42.59395499713718891143798828125" lon="-8.7804544530808925628662109375">
        <ele>4.80000019073486328125</ele>
        <time>2019-05-04T16:20:54.000Z</time>
      </trkpt>
      <trkpt lat="42.59369431994855403900146484375" lon="-8.77975523471832275390625">
        <ele>4.599999904632568359375</ele>
        <time>2019-05-04T16:21:05.000Z</time>
      </trkpt>
      <trkpt lat="42.59343867190182209014892578125" lon="-8.77908325754106044769287109375">
        <ele>4.80000019073486328125</ele>
        <time>2019-05-04T16:21:15.000Z</time>
      </trkpt>
      <trkpt lat="42.59316408075392246246337890625" lon="-8.77850842662155628204345703125">
        <ele>8.3999996185302734375</ele>
        <time>2019-05-04T16:21:24.000Z</time>
      </trkpt>
      <trkpt lat="42.5929418765008449554443359375" lon="-8.778063766658306121826171875">
        <ele>10.19999980926513671875</ele>
        <time>2019-05-04T16:21:31.000Z</time>
      </trkpt>
      <trkpt lat="42.5926230289041996002197265625" lon="-8.7774305976927280426025390625">
        <ele>6.80000019073486328125</ele>
        <time>2019-05-04T16:21:41.000Z</time>
      </trkpt>
      <trkpt lat="42.5923672132194042205810546875" lon="-8.77672970294952392578125">
        <ele>7.599999904632568359375</ele>
        <time>2019-05-04T16:21:51.000Z</time>
      </trkpt>
      <trkpt lat="42.59233720600605010986328125" lon="-8.776577152311801910400390625">
        <ele>8</ele>
        <time>2019-05-04T16:21:53.000Z</time>
      </trkpt>
      <trkpt lat="42.5922280736267566680908203125" lon="-8.77581682987511157989501953125">
        <ele>9.6000003814697265625</ele>
        <time>2019-05-04T16:22:03.000Z</time>
      </trkpt>
      <trkpt lat="42.59217367507517337799072265625" lon="-8.7750850059092044830322265625">
        <ele>7.400000095367431640625</ele>
        <time>2019-05-04T16:22:13.000Z</time>
      </trkpt>
      <trkpt lat="42.59213293902575969696044921875" lon="-8.7747381627559661865234375">
        <ele>7</ele>
        <time>2019-05-04T16:22:23.000Z</time>
      </trkpt>
      <trkpt lat="42.59212690405547618865966796875" lon="-8.7747301161289215087890625">
        <ele>7</ele>
        <time>2019-05-04T16:22:27.000Z</time>
      </trkpt>
      <trkpt lat="42.59210544638335704803466796875" lon="-8.774570524692535400390625">
        <ele>6.19999980926513671875</ele>
        <time>2019-05-04T16:22:31.000Z</time>
      </trkpt>
      <trkpt lat="42.59216328151524066925048828125" lon="-8.7743752263486385345458984375">
        <ele>4.80000019073486328125</ele>
        <time>2019-05-04T16:22:35.000Z</time>
      </trkpt>
      <trkpt lat="42.5921962223947048187255859375" lon="-8.7741277925670146942138671875">
        <ele>4.400000095367431640625</ele>
        <time>2019-05-04T16:22:39.000Z</time>
      </trkpt>
      <trkpt lat="42.59234315715730190277099609375" lon="-8.773404099047183990478515625">
        <ele>4.599999904632568359375</ele>
        <time>2019-05-04T16:22:49.000Z</time>
      </trkpt>
      <trkpt lat="42.59256024844944477081298828125" lon="-8.7726753763854503631591796875">
        <ele>3</ele>
        <time>2019-05-04T16:23:01.000Z</time>
      </trkpt>
      <trkpt lat="42.59287138469517230987548828125" lon="-8.7720373459160327911376953125">
        <ele>4.400000095367431640625</ele>
        <time>2019-05-04T16:23:12.000Z</time>
      </trkpt>
      <trkpt lat="42.59303365834057331085205078125" lon="-8.771778680384159088134765625">
        <ele>5.599999904632568359375</ele>
        <time>2019-05-04T16:23:17.000Z</time>
      </trkpt>
      <trkpt lat="42.593476474285125732421875" lon="-8.7713054381310939788818359375">
        <ele>8.19999980926513671875</ele>
        <time>2019-05-04T16:23:30.000Z</time>
      </trkpt>
      <trkpt lat="42.5939337909221649169921875" lon="-8.77085574902594089508056640625">
        <ele>7.19999980926513671875</ele>
        <time>2019-05-04T16:23:43.000Z</time>
      </trkpt>
      <trkpt lat="42.59396941401064395904541015625" lon="-8.77081166021525859832763671875">
        <ele>6.80000019073486328125</ele>
        <time>2019-05-04T16:23:44.000Z</time>
      </trkpt>
      <trkpt lat="42.59443008340895175933837890625" lon="-8.77033707685768604278564453125">
        <ele>4.19999980926513671875</ele>
        <time>2019-05-04T16:23:57.000Z</time>
      </trkpt>
      <trkpt lat="42.5948754139244556427001953125" lon="-8.76989082433283329010009765625">
        <ele>1.7999999523162841796875</ele>
        <time>2019-05-04T16:24:09.000Z</time>
      </trkpt>
      <trkpt lat="42.59530515410006046295166015625" lon="-8.769438453018665313720703125">
        <ele>1</ele>
        <time>2019-05-04T16:24:21.000Z</time>
      </trkpt>
      <trkpt lat="42.59574252180755138397216796875" lon="-8.76895791850984096527099609375">
        <ele>2</ele>
        <time>2019-05-04T16:24:34.000Z</time>
      </trkpt>
      <trkpt lat="42.59576850570738315582275390625" lon="-8.76891450025141239166259765625">
        <ele>2.2000000476837158203125</ele>
        <time>2019-05-04T16:24:35.000Z</time>
      </trkpt>
      <trkpt lat="42.59625348262488842010498046875" lon="-8.7687989138066768646240234375">
        <ele>1.39999997615814208984375</ele>
        <time>2019-05-04T16:24:51.000Z</time>
      </trkpt>
      <trkpt lat="42.59627745486795902252197265625" lon="-8.7687787972390651702880859375">
        <ele>1.39999997615814208984375</ele>
        <time>2019-05-04T16:24:52.000Z</time>
      </trkpt>
      <trkpt lat="42.5967744179069995880126953125" lon="-8.76841359771788120269775390625">
        <ele>1.39999997615814208984375</ele>
        <time>2019-05-04T16:25:07.000Z</time>
      </trkpt>
      <trkpt lat="42.59730004705488681793212890625" lon="-8.76807630993425846099853515625">
        <ele>2.599999904632568359375</ele>
        <time>2019-05-04T16:25:19.000Z</time>
      </trkpt>
      <trkpt lat="42.5974292121827602386474609375" lon="-8.76799785532057285308837890625">
        <ele>3</ele>
        <time>2019-05-04T16:25:22.000Z</time>
      </trkpt>
      <trkpt lat="42.5978013686835765838623046875" lon="-8.7677625752985477447509765625">
        <ele>3.400000095367431640625</ele>
        <time>2019-05-04T16:25:33.000Z</time>
      </trkpt>
      <trkpt lat="42.597842104732990264892578125" lon="-8.76774757169187068939208984375">
        <ele>3.400000095367431640625</ele>
        <time>2019-05-04T16:25:34.000Z</time>
      </trkpt>
      <trkpt lat="42.5983622856438159942626953125" lon="-8.76740491949021816253662109375">
        <ele>2.2000000476837158203125</ele>
        <time>2019-05-04T16:25:48.000Z</time>
      </trkpt>
      <trkpt lat="42.5987585820257663726806640625" lon="-8.7671341001987457275390625">
        <ele>1.60000002384185791015625</ele>
        <time>2019-05-04T16:26:00.000Z</time>
      </trkpt>
      <trkpt lat="42.5992499291896820068359375" lon="-8.76680259592831134796142578125">
        <ele>1.39999997615814208984375</ele>
        <time>2019-05-04T16:26:15.000Z</time>
      </trkpt>
      <trkpt lat="42.59944732300937175750732421875" lon="-8.7666504643857479095458984375">
        <ele>2.400000095367431640625</ele>
        <time>2019-05-04T16:26:24.000Z</time>
      </trkpt>
      <trkpt lat="42.59944698773324489593505859375" lon="-8.76668357290327548980712890625">
        <ele>2.2000000476837158203125</ele>
        <time>2019-05-04T16:26:29.000Z</time>
      </trkpt>
      <trkpt lat="42.5992638431489467620849609375" lon="-8.76676253043115139007568359375">
        <ele>1.60000002384185791015625</ele>
        <time>2019-05-04T16:26:36.000Z</time>
      </trkpt>
      <trkpt lat="42.5989902578294277191162109375" lon="-8.76692212186753749847412109375">
        <ele>1.2000000476837158203125</ele>
        <time>2019-05-04T16:26:43.000Z</time>
      </trkpt>
      <trkpt lat="42.5988100469112396240234375" lon="-8.76705698668956756591796875">
        <ele>1.39999997615814208984375</ele>
        <time>2019-05-04T16:26:52.000Z</time>
      </trkpt>
      <trkpt lat="42.598880119621753692626953125" lon="-8.7670229561626911163330078125">
        <ele>1.39999997615814208984375</ele>
        <time>2019-05-04T16:29:44.000Z</time>
      </trkpt>
      <trkpt lat="42.59893007576465606689453125" lon="-8.76700476743280887603759765625">
        <ele>1.39999997615814208984375</ele>
        <time>2019-05-04T16:29:47.000Z</time>
      </trkpt>
      <trkpt lat="42.59897743351757526397705078125" lon="-8.76698398031294345855712890625">
        <ele>1.2000000476837158203125</ele>
        <time>2019-05-04T16:29:49.000Z</time>
      </trkpt>
      <trkpt lat="42.59947615675628185272216796875" lon="-8.7666692398488521575927734375">
        <ele>2.400000095367431640625</ele>
        <time>2019-05-04T16:30:05.000Z</time>
      </trkpt>
      <trkpt lat="42.599981836974620819091796875" lon="-8.7663456983864307403564453125">
        <ele>4.599999904632568359375</ele>
        <time>2019-05-04T16:30:19.000Z</time>
      </trkpt>
      <trkpt lat="42.60044828988611698150634765625" lon="-8.765911348164081573486328125">
        <ele>6</ele>
        <time>2019-05-04T16:30:33.000Z</time>
      </trkpt>
      <trkpt lat="42.60049656964838504791259765625" lon="-8.765797354280948638916015625">
        <ele>6.599999904632568359375</ele>
        <time>2019-05-04T16:30:36.000Z</time>
      </trkpt>
      <trkpt lat="42.60044007562100887298583984375" lon="-8.76565779559314250946044921875">
        <ele>7.80000019073486328125</ele>
        <time>2019-05-04T16:30:43.000Z</time>
      </trkpt>
      <trkpt lat="42.6004339568316936492919921875" lon="-8.765653856098651885986328125">
        <ele>7.80000019073486328125</ele>
        <time>2019-05-04T16:30:44.000Z</time>
      </trkpt>
      <trkpt lat="42.60076462291181087493896484375" lon="-8.7651980482041835784912109375">
        <ele>10</ele>
        <time>2019-05-04T16:31:05.000Z</time>
      </trkpt>
      <trkpt lat="42.60087073780596256256103515625" lon="-8.7651105411350727081298828125">
        <ele>10.19999980926513671875</ele>
        <time>2019-05-04T16:31:11.000Z</time>
      </trkpt>
      <trkpt lat="42.6008889265358448028564453125" lon="-8.76509151421487331390380859375">
        <ele>10.19999980926513671875</ele>
        <time>2019-05-04T16:31:17.000Z</time>
      </trkpt>
      <trkpt lat="42.6009075343608856201171875" lon="-8.76508832909166812896728515625">
        <ele>10.19999980926513671875</ele>
        <time>2019-05-04T16:31:18.000Z</time>
      </trkpt>
      <trkpt lat="42.60100853629410266876220703125" lon="-8.76510660164058208465576171875">
        <ele>9.80000019073486328125</ele>
        <time>2019-05-04T16:31:27.000Z</time>
      </trkpt>
      <trkpt lat="42.6010186783969402313232421875" lon="-8.76511104404926300048828125">
        <ele>9.80000019073486328125</ele>
        <time>2019-05-04T16:31:47.000Z</time>
      </trkpt>
      <trkpt lat="42.60130357928574085235595703125" lon="-8.765193521976470947265625">
        <ele>8</ele>
        <time>2019-05-04T16:31:56.000Z</time>
      </trkpt>
      <trkpt lat="42.60185846127569675445556640625" lon="-8.765236102044582366943359375">
        <ele>5.19999980926513671875</ele>
        <time>2019-05-04T16:32:08.000Z</time>
      </trkpt>
      <trkpt lat="42.602150738239288330078125" lon="-8.76530089415609836578369140625">
        <ele>3.7999999523162841796875</ele>
        <time>2019-05-04T16:32:15.000Z</time>
      </trkpt>
      <trkpt lat="42.6023292727768421173095703125" lon="-8.76543835736811161041259765625">
        <ele>2.599999904632568359375</ele>
        <time>2019-05-04T16:32:20.000Z</time>
      </trkpt>
      <trkpt lat="42.60241954587399959564208984375" lon="-8.76548345200717449188232421875">
        <ele>2.7999999523162841796875</ele>
        <time>2019-05-04T16:32:22.000Z</time>
      </trkpt>
      <trkpt lat="42.6027718372642993927001953125" lon="-8.76563281752169132232666015625">
        <ele>4.599999904632568359375</ele>
        <time>2019-05-04T16:32:30.000Z</time>
      </trkpt>
      <trkpt lat="42.6033387891948223114013671875" lon="-8.76582006923854351043701171875">
        <ele>8</ele>
        <time>2019-05-04T16:32:41.000Z</time>
      </trkpt>
      <trkpt lat="42.6038728840649127960205078125" lon="-8.765989802777767181396484375">
        <ele>8.19999980926513671875</ele>
        <time>2019-05-04T16:32:52.000Z</time>
      </trkpt>
      <trkpt lat="42.60443120263516902923583984375" lon="-8.766202367842197418212890625">
        <ele>7.400000095367431640625</ele>
        <time>2019-05-04T16:33:06.000Z</time>
      </trkpt>
      <trkpt lat="42.60475943796336650848388671875" lon="-8.766310997307300567626953125">
        <ele>7</ele>
        <time>2019-05-04T16:33:13.000Z</time>
      </trkpt>
      <trkpt lat="42.604900337755680084228515625" lon="-8.76637168228626251220703125">
        <ele>7</ele>
        <time>2019-05-04T16:33:16.000Z</time>
      </trkpt>
      <trkpt lat="42.60520334355533123016357421875" lon="-8.7665146775543689727783203125">
        <ele>6.400000095367431640625</ele>
        <time>2019-05-04T16:33:22.000Z</time>
      </trkpt>
      <trkpt lat="42.605769373476505279541015625" lon="-8.7667104788124561309814453125">
        <ele>7.400000095367431640625</ele>
        <time>2019-05-04T16:33:32.000Z</time>
      </trkpt>
      <trkpt lat="42.60608193464577198028564453125" lon="-8.766860850155353546142578125">
        <ele>8.19999980926513671875</ele>
        <time>2019-05-04T16:33:38.000Z</time>
      </trkpt>
      <trkpt lat="42.6061785779893398284912109375" lon="-8.76691617071628570556640625">
        <ele>8.19999980926513671875</ele>
        <time>2019-05-04T16:33:40.000Z</time>
      </trkpt>
      <trkpt lat="42.60669649578630924224853515625" lon="-8.76716569997370243072509765625">
        <ele>8</ele>
        <time>2019-05-04T16:33:50.000Z</time>
      </trkpt>
      <trkpt lat="42.60695113800466060638427734375" lon="-8.7672905065119266510009765625">
        <ele>7.19999980926513671875</ele>
        <time>2019-05-04T16:33:55.000Z</time>
      </trkpt>
      <trkpt lat="42.6075030863285064697265625" lon="-8.7675490044057369232177734375">
        <ele>9.6000003814697265625</ele>
        <time>2019-05-04T16:34:06.000Z</time>
      </trkpt>
      <trkpt lat="42.60803190059959888458251953125" lon="-8.767872713506221771240234375">
        <ele>10.3999996185302734375</ele>
        <time>2019-05-04T16:34:18.000Z</time>
      </trkpt>
      <trkpt lat="42.60846130549907684326171875" lon="-8.7682048045098781585693359375">
        <ele>11.3999996185302734375</ele>
        <time>2019-05-04T16:34:28.000Z</time>
      </trkpt>
      <trkpt lat="42.60893932543694972991943359375" lon="-8.768599927425384521484375">
        <ele>11.19999980926513671875</ele>
        <time>2019-05-04T16:34:39.000Z</time>
      </trkpt>
      <trkpt lat="42.6094538904726505279541015625" lon="-8.76896780915558338165283203125">
        <ele>12.80000019073486328125</ele>
        <time>2019-05-04T16:34:50.000Z</time>
      </trkpt>
      <trkpt lat="42.60957442224025726318359375" lon="-8.769087083637714385986328125">
        <ele>12.3999996185302734375</ele>
        <time>2019-05-04T16:34:53.000Z</time>
      </trkpt>
      <trkpt lat="42.61003014631569385528564453125" lon="-8.7695388682186603546142578125">
        <ele>7.80000019073486328125</ele>
        <time>2019-05-04T16:35:04.000Z</time>
      </trkpt>
      <trkpt lat="42.6102790050208568572998046875" lon="-8.76985394395887851715087890625">
        <ele>10.19999980926513671875</ele>
        <time>2019-05-04T16:35:11.000Z</time>
      </trkpt>
      <trkpt lat="42.61047824285924434661865234375" lon="-8.77011093311011791229248046875">
        <ele>10</ele>
        <time>2019-05-04T16:35:17.000Z</time>
      </trkpt>
      <trkpt lat="42.61087101884186267852783203125" lon="-8.770622648298740386962890625">
        <ele>9</ele>
        <time>2019-05-04T16:35:27.000Z</time>
      </trkpt>
      <trkpt lat="42.6113163493573665618896484375" lon="-8.77107082866132259368896484375">
        <ele>6.599999904632568359375</ele>
        <time>2019-05-04T16:35:36.000Z</time>
      </trkpt>
      <trkpt lat="42.611778862774372100830078125" lon="-8.77153518609702587127685546875">
        <ele>4</ele>
        <time>2019-05-04T16:35:46.000Z</time>
      </trkpt>
      <trkpt lat="42.61221312917768955230712890625" lon="-8.772022426128387451171875">
        <ele>3.7999999523162841796875</ele>
        <time>2019-05-04T16:35:56.000Z</time>
      </trkpt>
      <trkpt lat="42.612649239599704742431640625" lon="-8.77251218073070049285888671875">
        <ele>4.400000095367431640625</ele>
        <time>2019-05-04T16:36:07.000Z</time>
      </trkpt>
      <trkpt lat="42.61279701255261898040771484375" lon="-8.77269775606691837310791015625">
        <ele>4.599999904632568359375</ele>
        <time>2019-05-04T16:36:11.000Z</time>
      </trkpt>
      <trkpt lat="42.61304377578198909759521484375" lon="-8.77295784652233123779296875">
        <ele>4.400000095367431640625</ele>
        <time>2019-05-04T16:36:17.000Z</time>
      </trkpt>
      <trkpt lat="42.6134963147342205047607421875" lon="-8.773400746285915374755859375">
        <ele>7</ele>
        <time>2019-05-04T16:36:30.000Z</time>
      </trkpt>
      <trkpt lat="42.61366219259798526763916015625" lon="-8.773518092930316925048828125">
        <ele>7.19999980926513671875</ele>
        <time>2019-05-04T16:36:34.000Z</time>
      </trkpt>
      <trkpt lat="42.6137377135455608367919921875" lon="-8.7735906802117824554443359375">
        <ele>7.400000095367431640625</ele>
        <time>2019-05-04T16:36:36.000Z</time>
      </trkpt>
      <trkpt lat="42.61389185674488544464111328125" lon="-8.7737382017076015472412109375">
        <ele>8</ele>
        <time>2019-05-04T16:36:40.000Z</time>
      </trkpt>
      <trkpt lat="42.614049352705478668212890625" lon="-8.773905001580715179443359375">
        <ele>8.19999980926513671875</ele>
        <time>2019-05-04T16:36:44.000Z</time>
      </trkpt>
      <trkpt lat="42.6144619099795818328857421875" lon="-8.7744235061109066009521484375">
        <ele>11</ele>
        <time>2019-05-04T16:36:54.000Z</time>
      </trkpt>
      <trkpt lat="42.61484655551612377166748046875" lon="-8.77489498816430568695068359375">
        <ele>11.80000019073486328125</ele>
        <time>2019-05-04T16:37:03.000Z</time>
      </trkpt>
      <trkpt lat="42.61513254605233669281005859375" lon="-8.77556872554123401641845703125">
        <ele>7.19999980926513671875</ele>
        <time>2019-05-04T16:37:14.000Z</time>
      </trkpt>
      <trkpt lat="42.6153839193284511566162109375" lon="-8.77570468001067638397216796875">
        <ele>7.599999904632568359375</ele>
        <time>2019-05-04T16:37:19.000Z</time>
      </trkpt>
      <trkpt lat="42.6154959015548229217529296875" lon="-8.775723874568939208984375">
        <ele>7.599999904632568359375</ele>
        <time>2019-05-04T16:37:21.000Z</time>
      </trkpt>
      <trkpt lat="42.61567242443561553955078125" lon="-8.7757625989615917205810546875">
        <ele>7.599999904632568359375</ele>
        <time>2019-05-04T16:37:24.000Z</time>
      </trkpt>
      <trkpt lat="42.6161827147006988525390625" lon="-8.77613265998661518096923828125">
        <ele>6</ele>
        <time>2019-05-04T16:37:34.000Z</time>
      </trkpt>
      <trkpt lat="42.61632780544459819793701171875" lon="-8.7762267887592315673828125">
        <ele>6</ele>
        <time>2019-05-04T16:37:37.000Z</time>
      </trkpt>
      <trkpt lat="42.61653886176645755767822265625" lon="-8.776255957782268524169921875">
        <ele>6.80000019073486328125</ele>
        <time>2019-05-04T16:37:41.000Z</time>
      </trkpt>
      <trkpt lat="42.61668923310935497283935546875" lon="-8.776249252259731292724609375">
        <ele>8.6000003814697265625</ele>
        <time>2019-05-04T16:37:44.000Z</time>
      </trkpt>
      <trkpt lat="42.6167823560535907745361328125" lon="-8.77623123116791248321533203125">
        <ele>8.19999980926513671875</ele>
        <time>2019-05-04T16:37:46.000Z</time>
      </trkpt>
      <trkpt lat="42.6173446141183376312255859375" lon="-8.77601816318929195404052734375">
        <ele>6.80000019073486328125</ele>
        <time>2019-05-04T16:37:58.000Z</time>
      </trkpt>
      <trkpt lat="42.6177057065069675445556640625" lon="-8.77581330947577953338623046875">
        <ele>7.19999980926513671875</ele>
        <time>2019-05-04T16:38:06.000Z</time>
      </trkpt>
      <trkpt lat="42.61784476228058338165283203125" lon="-8.77571490593254566192626953125">
        <ele>7.599999904632568359375</ele>
        <time>2019-05-04T16:38:10.000Z</time>
      </trkpt>
      <trkpt lat="42.61826754547655582427978515625" lon="-8.77541198395192623138427734375">
        <ele>9.3999996185302734375</ele>
        <time>2019-05-04T16:38:22.000Z</time>
      </trkpt>
      <trkpt lat="42.618755958974361419677734375" lon="-8.77501904033124446868896484375">
        <ele>10.3999996185302734375</ele>
        <time>2019-05-04T16:38:35.000Z</time>
      </trkpt>
      <trkpt lat="42.6190327294170856475830078125" lon="-8.77481971867382526397705078125">
        <ele>11.6000003814697265625</ele>
        <time>2019-05-04T16:38:42.000Z</time>
      </trkpt>
      <trkpt lat="42.619519047439098358154296875" lon="-8.77446700818836688995361328125">
        <ele>14.19999980926513671875</ele>
        <time>2019-05-04T16:38:54.000Z</time>
      </trkpt>
      <trkpt lat="42.61988290585577487945556640625" lon="-8.77419509924948215484619140625">
        <ele>15.6000003814697265625</ele>
        <time>2019-05-04T16:39:04.000Z</time>
      </trkpt>
      <trkpt lat="42.62031122110784053802490234375" lon="-8.77375781536102294921875">
        <ele>17.799999237060546875</ele>
        <time>2019-05-04T16:39:19.000Z</time>
      </trkpt>
      <trkpt lat="42.62052454054355621337890625" lon="-8.77307594753801822662353515625">
        <ele>18.6000003814697265625</ele>
        <time>2019-05-04T16:39:39.000Z</time>
      </trkpt>
      <trkpt lat="42.62046687304973602294921875" lon="-8.7723411060869693756103515625">
        <ele>21</ele>
        <time>2019-05-04T16:39:59.000Z</time>
      </trkpt>
      <trkpt lat="42.62018331326544284820556640625" lon="-8.77172042615711688995361328125">
        <ele>24.3999996185302734375</ele>
        <time>2019-05-04T16:40:18.000Z</time>
      </trkpt>
      <trkpt lat="42.61988894082605838775634765625" lon="-8.77109144814312458038330078125">
        <ele>25</ele>
        <time>2019-05-04T16:40:38.000Z</time>
      </trkpt>
      <trkpt lat="42.61971912346780300140380859375" lon="-8.7703840993344783782958984375">
        <ele>26</ele>
        <time>2019-05-04T16:40:58.000Z</time>
      </trkpt>
      <trkpt lat="42.61963681317865848541259765625" lon="-8.7700732983648777008056640625">
        <ele>27</ele>
        <time>2019-05-04T16:41:10.000Z</time>
      </trkpt>
      <trkpt lat="42.61962600052356719970703125" lon="-8.7700434587895870208740234375">
        <ele>27.200000762939453125</ele>
        <time>2019-05-04T16:42:04.000Z</time>
      </trkpt>
      <trkpt lat="42.61960965581238269805908203125" lon="-8.769610114395618438720703125">
        <ele>26.799999237060546875</ele>
        <time>2019-05-04T16:42:17.000Z</time>
      </trkpt>
      <trkpt lat="42.6197760365903377532958984375" lon="-8.7695395387709140777587890625">
        <ele>25.799999237060546875</ele>
        <time>2019-05-04T16:42:21.000Z</time>
      </trkpt>
      <trkpt lat="42.61985340155661106109619140625" lon="-8.7695036642253398895263671875">
        <ele>25.3999996185302734375</ele>
        <time>2019-05-04T16:42:23.000Z</time>
      </trkpt>
      <trkpt lat="42.620292864739894866943359375" lon="-8.76902514137327671051025390625">
        <ele>29.200000762939453125</ele>
        <time>2019-05-04T16:42:37.000Z</time>
      </trkpt>
      <trkpt lat="42.6207733154296875" lon="-8.76869707368314266204833984375">
        <ele>34.200000762939453125</ele>
        <time>2019-05-04T16:42:52.000Z</time>
      </trkpt>
      <trkpt lat="42.6208283007144927978515625" lon="-8.7686951458454132080078125">
        <ele>33.799999237060546875</ele>
        <time>2019-05-04T16:42:57.000Z</time>
      </trkpt>
      <trkpt lat="42.62087079696357250213623046875" lon="-8.76871132291853427886962890625">
        <ele>33.200000762939453125</ele>
        <time>2019-05-04T16:43:19.000Z</time>
      </trkpt>
      <trkpt lat="42.62107866816222667694091796875" lon="-8.768754489719867706298828125">
        <ele>30.6000003814697265625</ele>
        <time>2019-05-04T16:43:24.000Z</time>
      </trkpt>
      <trkpt lat="42.62166179716587066650390625" lon="-8.76886353828012943267822265625">
        <ele>25</ele>
        <time>2019-05-04T16:43:33.000Z</time>
      </trkpt>
      <trkpt lat="42.62227543629705905914306640625" lon="-8.76895573921501636505126953125">
        <ele>23.200000762939453125</ele>
        <time>2019-05-04T16:43:41.000Z</time>
      </trkpt>
      <trkpt lat="42.62289561331272125244140625" lon="-8.76892673783004283905029296875">
        <ele>20.799999237060546875</ele>
        <time>2019-05-04T16:43:48.000Z</time>
      </trkpt>
      <trkpt lat="42.62348377145826816558837890625" lon="-8.7687541544437408447265625">
        <ele>20.3999996185302734375</ele>
        <time>2019-05-04T16:43:55.000Z</time>
      </trkpt>
      <trkpt lat="42.62402004562318325042724609375" lon="-8.7684857659041881561279296875">
        <ele>18.3999996185302734375</ele>
        <time>2019-05-04T16:44:02.000Z</time>
      </trkpt>
      <trkpt lat="42.6245510391891002655029296875" lon="-8.76811335794627666473388671875">
        <ele>16.6000003814697265625</ele>
        <time>2019-05-04T16:44:10.000Z</time>
      </trkpt>
      <trkpt lat="42.62501900084316730499267578125" lon="-8.76764765940606594085693359375">
        <ele>16.799999237060546875</ele>
        <time>2019-05-04T16:44:19.000Z</time>
      </trkpt>
      <trkpt lat="42.625453770160675048828125" lon="-8.76713686622679233551025390625">
        <ele>18.799999237060546875</ele>
        <time>2019-05-04T16:44:29.000Z</time>
      </trkpt>
      <trkpt lat="42.625888288021087646484375" lon="-8.76660545356571674346923828125">
        <ele>20.799999237060546875</ele>
        <time>2019-05-04T16:44:39.000Z</time>
      </trkpt>
      <trkpt lat="42.6260064728558063507080078125" lon="-8.76644150353968143463134765625">
        <ele>21.6000003814697265625</ele>
        <time>2019-05-04T16:44:42.000Z</time>
      </trkpt>
      <trkpt lat="42.62639011256396770477294921875" lon="-8.7659738771617412567138671875">
        <ele>22.6000003814697265625</ele>
        <time>2019-05-04T16:44:51.000Z</time>
      </trkpt>
      <trkpt lat="42.626735866069793701171875" lon="-8.76560783945024013519287109375">
        <ele>21</ele>
        <time>2019-05-04T16:44:59.000Z</time>
      </trkpt>
      <trkpt lat="42.62721598148345947265625" lon="-8.765136189758777618408203125">
        <ele>18.6000003814697265625</ele>
        <time>2019-05-04T16:45:08.000Z</time>
      </trkpt>
      <trkpt lat="42.6277100108563899993896484375" lon="-8.7646616064012050628662109375">
        <ele>19.6000003814697265625</ele>
        <time>2019-05-04T16:45:17.000Z</time>
      </trkpt>
      <trkpt lat="42.6281654834747314453125" lon="-8.76422164030373096466064453125">
        <ele>21.3999996185302734375</ele>
        <time>2019-05-04T16:45:26.000Z</time>
      </trkpt>
      <trkpt lat="42.6286457665264606475830078125" lon="-8.76376817934215068817138671875">
        <ele>22.6000003814697265625</ele>
        <time>2019-05-04T16:45:36.000Z</time>
      </trkpt>
      <trkpt lat="42.62918698601424694061279296875" lon="-8.76345352269709110260009765625">
        <ele>21.200000762939453125</ele>
        <time>2019-05-04T16:45:45.000Z</time>
      </trkpt>
      <trkpt lat="42.62970834039151668548583984375" lon="-8.763273060321807861328125">
        <ele>19.200000762939453125</ele>
        <time>2019-05-04T16:45:54.000Z</time>
      </trkpt>
      <trkpt lat="42.630173452198505401611328125" lon="-8.762906603515148162841796875">
        <ele>18.799999237060546875</ele>
        <time>2019-05-04T16:46:03.000Z</time>
      </trkpt>
      <trkpt lat="42.63029054738581180572509765625" lon="-8.76273385249078273773193359375">
        <ele>19.200000762939453125</ele>
        <time>2019-05-04T16:46:06.000Z</time>
      </trkpt>
      <trkpt lat="42.63055868446826934814453125" lon="-8.7620437704026699066162109375">
        <ele>14.80000019073486328125</ele>
        <time>2019-05-04T16:46:16.000Z</time>
      </trkpt>
      <trkpt lat="42.630810476839542388916015625" lon="-8.7613928318023681640625">
        <ele>12.6000003814697265625</ele>
        <time>2019-05-04T16:46:26.000Z</time>
      </trkpt>
      <trkpt lat="42.6310547254979610443115234375" lon="-8.7609638459980487823486328125">
        <ele>13.6000003814697265625</ele>
        <time>2019-05-04T16:46:34.000Z</time>
      </trkpt>
      <trkpt lat="42.63145496137440204620361328125" lon="-8.76041173003613948822021484375">
        <ele>19.200000762939453125</ele>
        <time>2019-05-04T16:46:49.000Z</time>
      </trkpt>
      <trkpt lat="42.63187288306653499603271484375" lon="-8.7598899565637111663818359375">
        <ele>21.200000762939453125</ele>
        <time>2019-05-04T16:47:05.000Z</time>
      </trkpt>
      <trkpt lat="42.63229264877736568450927734375" lon="-8.7593421153724193572998046875">
        <ele>20.799999237060546875</ele>
        <time>2019-05-04T16:47:21.000Z</time>
      </trkpt>
      <trkpt lat="42.63272850774228572845458984375" lon="-8.75879150815308094024658203125">
        <ele>18.6000003814697265625</ele>
        <time>2019-05-04T16:47:31.000Z</time>
      </trkpt>
      <trkpt lat="42.63315481133759021759033203125" lon="-8.75823277048766613006591796875">
        <ele>16.3999996185302734375</ele>
        <time>2019-05-04T16:47:38.000Z</time>
      </trkpt>
      <trkpt lat="42.63360843993723392486572265625" lon="-8.75765576027333736419677734375">
        <ele>13.80000019073486328125</ele>
        <time>2019-05-04T16:47:45.000Z</time>
      </trkpt>
      <trkpt lat="42.63403960503637790679931640625" lon="-8.7571081705391407012939453125">
        <ele>10.19999980926513671875</ele>
        <time>2019-05-04T16:47:52.000Z</time>
      </trkpt>
      <trkpt lat="42.634449563920497894287109375" lon="-8.75656913034617900848388671875">
        <ele>7.599999904632568359375</ele>
        <time>2019-05-04T16:47:59.000Z</time>
      </trkpt>
      <trkpt lat="42.634874694049358367919921875" lon="-8.75602849759161472320556640625">
        <ele>5.599999904632568359375</ele>
        <time>2019-05-04T16:48:06.000Z</time>
      </trkpt>
      <trkpt lat="42.6352800428867340087890625" lon="-8.75551435165107250213623046875">
        <ele>8.19999980926513671875</ele>
        <time>2019-05-04T16:48:13.000Z</time>
      </trkpt>
      <trkpt lat="42.63569218106567859649658203125" lon="-8.75499567948281764984130859375">
        <ele>9.6000003814697265625</ele>
        <time>2019-05-04T16:48:21.000Z</time>
      </trkpt>
      <trkpt lat="42.6361190713942050933837890625" lon="-8.754446245729923248291015625">
        <ele>9.80000019073486328125</ele>
        <time>2019-05-04T16:48:31.000Z</time>
      </trkpt>
      <trkpt lat="42.6363024674355983734130859375" lon="-8.7541969679296016693115234375">
        <ele>10</ele>
        <time>2019-05-04T16:48:36.000Z</time>
      </trkpt>
      <trkpt lat="42.6365770585834980010986328125" lon="-8.753866218030452728271484375">
        <ele>10.19999980926513671875</ele>
        <time>2019-05-04T16:48:43.000Z</time>
      </trkpt>
      <trkpt lat="42.63696371577680110931396484375" lon="-8.7533483840525150299072265625">
        <ele>13.6000003814697265625</ele>
        <time>2019-05-04T16:48:52.000Z</time>
      </trkpt>
      <trkpt lat="42.6374454237520694732666015625" lon="-8.75289869494736194610595703125">
        <ele>19.200000762939453125</ele>
        <time>2019-05-04T16:49:03.000Z</time>
      </trkpt>
      <trkpt lat="42.63769344426691532135009765625" lon="-8.7527529336512088775634765625">
        <ele>20.3999996185302734375</ele>
        <time>2019-05-04T16:49:09.000Z</time>
      </trkpt>
      <trkpt lat="42.637837864458560943603515625" lon="-8.7527230940759181976318359375">
        <ele>20.3999996185302734375</ele>
        <time>2019-05-04T16:49:12.000Z</time>
      </trkpt>
      <trkpt lat="42.63837506063282489776611328125" lon="-8.75259191729128360748291015625">
        <ele>20.799999237060546875</ele>
        <time>2019-05-04T16:49:24.000Z</time>
      </trkpt>
      <trkpt lat="42.6389565132558345794677734375" lon="-8.75263248570263385772705078125">
        <ele>20.6000003814697265625</ele>
        <time>2019-05-04T16:49:36.000Z</time>
      </trkpt>
      <trkpt lat="42.639525644481182098388671875" lon="-8.75267900526523590087890625">
        <ele>19.3999996185302734375</ele>
        <time>2019-05-04T16:49:47.000Z</time>
      </trkpt>
      <trkpt lat="42.639826051890850067138671875" lon="-8.75258387066423892974853515625">
        <ele>19.6000003814697265625</ele>
        <time>2019-05-04T16:49:53.000Z</time>
      </trkpt>
      <trkpt lat="42.640014477074146270751953125" lon="-8.7524515204131603240966796875">
        <ele>20.200000762939453125</ele>
        <time>2019-05-04T16:49:57.000Z</time>
      </trkpt>
      <trkpt lat="42.6403757371008396148681640625" lon="-8.75190175138413906097412109375">
        <ele>19.200000762939453125</ele>
        <time>2019-05-04T16:50:07.000Z</time>
      </trkpt>
      <trkpt lat="42.640485875308513641357421875" lon="-8.7511830031871795654296875">
        <ele>19.799999237060546875</ele>
        <time>2019-05-04T16:50:17.000Z</time>
      </trkpt>
      <trkpt lat="42.640474475920200347900390625" lon="-8.75094152055680751800537109375">
        <ele>20.200000762939453125</ele>
        <time>2019-05-04T16:50:21.000Z</time>
      </trkpt>
      <trkpt lat="42.640455029904842376708984375" lon="-8.7508257664740085601806640625">
        <ele>20.799999237060546875</ele>
        <time>2019-05-04T16:50:23.000Z</time>
      </trkpt>
      <trkpt lat="42.640384621918201446533203125" lon="-8.75004080124199390411376953125">
        <ele>20.3999996185302734375</ele>
        <time>2019-05-04T16:50:36.000Z</time>
      </trkpt>
      <trkpt lat="42.64042728580534458160400390625" lon="-8.74970669858157634735107421875">
        <ele>22</ele>
        <time>2019-05-04T16:50:41.000Z</time>
      </trkpt>
      <trkpt lat="42.64049492776393890380859375" lon="-8.74946882016956806182861328125">
        <ele>22.200000762939453125</ele>
        <time>2019-05-04T16:50:45.000Z</time>
      </trkpt>
      <trkpt lat="42.6405544392764568328857421875" lon="-8.74930453486740589141845703125">
        <ele>22.6000003814697265625</ele>
        <time>2019-05-04T16:50:48.000Z</time>
      </trkpt>
      <trkpt lat="42.64060892164707183837890625" lon="-8.74921233393251895904541015625">
        <ele>23.3999996185302734375</ele>
        <time>2019-05-04T16:50:50.000Z</time>
      </trkpt>
      <trkpt lat="42.6409725286066532135009765625" lon="-8.74862375669181346893310546875">
        <ele>26.3999996185302734375</ele>
        <time>2019-05-04T16:51:05.000Z</time>
      </trkpt>
      <trkpt lat="42.64125240035355091094970703125" lon="-8.74816887080669403076171875">
        <ele>26.3999996185302734375</ele>
        <time>2019-05-04T16:51:23.000Z</time>
      </trkpt>
      <trkpt lat="42.64129732735455036163330078125" lon="-8.748147077858448028564453125">
        <ele>26.200000762939453125</ele>
        <time>2019-05-04T17:01:13.000Z</time>
      </trkpt>
      <trkpt lat="42.64167300425469875335693359375" lon="-8.74760334379971027374267578125">
        <ele>25.6000003814697265625</ele>
        <time>2019-05-04T17:01:32.000Z</time>
      </trkpt>
      <trkpt lat="42.6420544646680355072021484375" lon="-8.74701711349189281463623046875">
        <ele>25.3999996185302734375</ele>
        <time>2019-05-04T17:01:49.000Z</time>
      </trkpt>
      <trkpt lat="42.64241530559957027435302734375" lon="-8.74644412659108638763427734375">
        <ele>27.200000762939453125</ele>
        <time>2019-05-04T17:02:04.000Z</time>
      </trkpt>
      <trkpt lat="42.642592750489711761474609375" lon="-8.7457369454205036163330078125">
        <ele>31</ele>
        <time>2019-05-04T17:02:18.000Z</time>
      </trkpt>
      <trkpt lat="42.64266324229538440704345703125" lon="-8.7451592646539211273193359375">
        <ele>33.200000762939453125</ele>
        <time>2019-05-04T17:02:29.000Z</time>
      </trkpt>
      <trkpt lat="42.64289441518485546112060546875" lon="-8.74446415342390537261962890625">
        <ele>31.799999237060546875</ele>
        <time>2019-05-04T17:02:43.000Z</time>
      </trkpt>
      <trkpt lat="42.6433003507554531097412109375" lon="-8.74396140687167644500732421875">
        <ele>32.59999847412109375</ele>
        <time>2019-05-04T17:02:55.000Z</time>
      </trkpt>
      <trkpt lat="42.64372724108397960662841796875" lon="-8.7434862367808818817138671875">
        <ele>32.200000762939453125</ele>
        <time>2019-05-04T17:03:08.000Z</time>
      </trkpt>
      <trkpt lat="42.6440694741904735565185546875" lon="-8.74290327541530132293701171875">
        <ele>35.799999237060546875</ele>
        <time>2019-05-04T17:03:24.000Z</time>
      </trkpt>
      <trkpt lat="42.64432847499847412109375" lon="-8.7422266043722629547119140625">
        <ele>38.200000762939453125</ele>
        <time>2019-05-04T17:03:43.000Z</time>
      </trkpt>
      <trkpt lat="42.644609771668910980224609375" lon="-8.74156217090785503387451171875">
        <ele>39.40000152587890625</ele>
        <time>2019-05-04T17:04:03.000Z</time>
      </trkpt>
      <trkpt lat="42.64472879469394683837890625" lon="-8.74128389172255992889404296875">
        <ele>40</ele>
        <time>2019-05-04T17:04:15.000Z</time>
      </trkpt>
      <trkpt lat="42.64477514661848545074462890625" lon="-8.74124600552022457122802734375">
        <ele>39.799999237060546875</ele>
        <time>2019-05-04T17:04:21.000Z</time>
      </trkpt>
      <trkpt lat="42.64481806196272373199462890625" lon="-8.741233013570308685302734375">
        <ele>39.40000152587890625</ele>
        <time>2019-05-04T17:04:53.000Z</time>
      </trkpt>
      <trkpt lat="42.6452295295894145965576171875" lon="-8.74087728559970855712890625">
        <ele>40</ele>
        <time>2019-05-04T17:05:16.000Z</time>
      </trkpt>
      <trkpt lat="42.6451505720615386962890625" lon="-8.74071811325848102569580078125">
        <ele>40.200000762939453125</ele>
        <time>2019-05-04T17:05:20.000Z</time>
      </trkpt>
      <trkpt lat="42.6448550261557102203369140625" lon="-8.7405963242053985595703125">
        <ele>41.40000152587890625</ele>
        <time>2019-05-04T17:05:32.000Z</time>
      </trkpt>
      <trkpt lat="42.6448664255440235137939453125" lon="-8.74058802612125873565673828125">
        <ele>41.40000152587890625</ele>
        <time>2019-05-04T17:05:41.000Z</time>
      </trkpt>
      <trkpt lat="42.644993998110294342041015625" lon="-8.7406065501272678375244140625">
        <ele>39.799999237060546875</ele>
        <time>2019-05-04T17:05:47.000Z</time>
      </trkpt>
      <trkpt lat="42.64518636278808116912841796875" lon="-8.7407272495329380035400390625">
        <ele>40.40000152587890625</ele>
        <time>2019-05-04T17:05:55.000Z</time>
      </trkpt>
      <trkpt lat="42.64520681463181972503662109375" lon="-8.7407487072050571441650390625">
        <ele>40.59999847412109375</ele>
        <time>2019-05-04T17:06:02.000Z</time>
      </trkpt>
      <trkpt lat="42.64528728090226650238037109375" lon="-8.740836717188358306884765625">
        <ele>40.59999847412109375</ele>
        <time>2019-05-04T17:06:07.000Z</time>
      </trkpt>
      <trkpt lat="42.6453723572194576263427734375" lon="-8.74086563475430011749267578125">
        <ele>40.200000762939453125</ele>
        <time>2019-05-04T17:06:11.000Z</time>
      </trkpt>
      <trkpt lat="42.64566488564014434814453125" lon="-8.74087519012391567230224609375">
        <ele>40.59999847412109375</ele>
        <time>2019-05-04T17:06:20.000Z</time>
      </trkpt>
      <trkpt lat="42.64612178318202495574951171875" lon="-8.7408164329826831817626953125">
        <ele>41</ele>
        <time>2019-05-04T17:06:29.000Z</time>
      </trkpt>
      <trkpt lat="42.64665973372757434844970703125" lon="-8.740652315318584442138671875">
        <ele>40.799999237060546875</ele>
        <time>2019-05-04T17:06:38.000Z</time>
      </trkpt>
      <trkpt lat="42.64715560711920261383056640625" lon="-8.74028476886451244354248046875">
        <ele>40.200000762939453125</ele>
        <time>2019-05-04T17:06:47.000Z</time>
      </trkpt>
      <trkpt lat="42.6475727744400501251220703125" lon="-8.7398075871169567108154296875">
        <ele>40.200000762939453125</ele>
        <time>2019-05-04T17:06:56.000Z</time>
      </trkpt>
      <trkpt lat="42.64787795953452587127685546875" lon="-8.73941221274435520172119140625">
        <ele>40</ele>
        <time>2019-05-04T17:07:03.000Z</time>
      </trkpt>
      <trkpt lat="42.64837567694485187530517578125" lon="-8.73898389749228954315185546875">
        <ele>38.40000152587890625</ele>
        <time>2019-05-04T17:07:13.000Z</time>
      </trkpt>
      <trkpt lat="42.6486315764486789703369140625" lon="-8.7388309277594089508056640625">
        <ele>37.799999237060546875</ele>
        <time>2019-05-04T17:07:18.000Z</time>
      </trkpt>
      <trkpt lat="42.64916055835783481597900390625" lon="-8.73862867243587970733642578125">
        <ele>35.200000762939453125</ele>
        <time>2019-05-04T17:07:28.000Z</time>
      </trkpt>
      <trkpt lat="42.6497021131217479705810546875" lon="-8.73845550231635570526123046875">
        <ele>36.59999847412109375</ele>
        <time>2019-05-04T17:07:38.000Z</time>
      </trkpt>
      <trkpt lat="42.65027652494609355926513671875" lon="-8.73825802467763423919677734375">
        <ele>36</ele>
        <time>2019-05-04T17:07:48.000Z</time>
      </trkpt>
      <trkpt lat="42.65082268975675106048583984375" lon="-8.7380735389888286590576171875">
        <ele>33.799999237060546875</ele>
        <time>2019-05-04T17:07:57.000Z</time>
      </trkpt>
      <trkpt lat="42.6513898931443691253662109375" lon="-8.73788335360586643218994140625">
        <ele>33.799999237060546875</ele>
        <time>2019-05-04T17:08:06.000Z</time>
      </trkpt>
      <trkpt lat="42.65196497552096843719482421875" lon="-8.73772325925529003143310546875">
        <ele>33.59999847412109375</ele>
        <time>2019-05-04T17:08:16.000Z</time>
      </trkpt>
      <trkpt lat="42.652222216129302978515625" lon="-8.7376671843230724334716796875">
        <ele>33.799999237060546875</ele>
        <time>2019-05-04T17:08:21.000Z</time>
      </trkpt>
      <trkpt lat="42.6525274850428104400634765625" lon="-8.73781311325728893280029296875">
        <ele>32</ele>
        <time>2019-05-04T17:08:27.000Z</time>
      </trkpt>
      <trkpt lat="42.6530290581285953521728515625" lon="-8.7381144426763057708740234375">
        <ele>29</ele>
        <time>2019-05-04T17:08:35.000Z</time>
      </trkpt>
      <trkpt lat="42.6535007916390895843505859375" lon="-8.73863386921584606170654296875">
        <ele>24.799999237060546875</ele>
        <time>2019-05-04T17:08:43.000Z</time>
      </trkpt>
      <trkpt lat="42.653912007808685302734375" lon="-8.73901583254337310791015625">
        <ele>23.200000762939453125</ele>
        <time>2019-05-04T17:08:49.000Z</time>
      </trkpt>
      <trkpt lat="42.65452933497726917266845703125" lon="-8.73907961882650852203369140625">
        <ele>22.200000762939453125</ele>
        <time>2019-05-04T17:08:56.000Z</time>
      </trkpt>
      <trkpt lat="42.65461768023669719696044921875" lon="-8.73905095271766185760498046875">
        <ele>22.3999996185302734375</ele>
        <time>2019-05-04T17:08:57.000Z</time>
      </trkpt>
      <trkpt lat="42.654700912535190582275390625" lon="-8.739013485610485076904296875">
        <ele>22.799999237060546875</ele>
        <time>2019-05-04T17:08:58.000Z</time>
      </trkpt>
      <trkpt lat="42.65526493079960346221923828125" lon="-8.7387249805033206939697265625">
        <ele>23.799999237060546875</ele>
        <time>2019-05-04T17:09:05.000Z</time>
      </trkpt>
      <trkpt lat="42.65585401095449924468994140625" lon="-8.738617189228534698486328125">
        <ele>21.3999996185302734375</ele>
        <time>2019-05-04T17:09:12.000Z</time>
      </trkpt>
      <trkpt lat="42.65644828788936138153076171875" lon="-8.73870880343019962310791015625">
        <ele>22.799999237060546875</ele>
        <time>2019-05-04T17:09:19.000Z</time>
      </trkpt>
      <trkpt lat="42.65702538192272186279296875" lon="-8.738758675754070281982421875">
        <ele>20.6000003814697265625</ele>
        <time>2019-05-04T17:09:26.000Z</time>
      </trkpt>
      <trkpt lat="42.65757850371301174163818359375" lon="-8.73869740404188632965087890625">
        <ele>19.6000003814697265625</ele>
        <time>2019-05-04T17:09:33.000Z</time>
      </trkpt>
      <trkpt lat="42.65816540457308292388916015625" lon="-8.73852758668363094329833984375">
        <ele>19</ele>
        <time>2019-05-04T17:09:41.000Z</time>
      </trkpt>
      <trkpt lat="42.65846572816371917724609375" lon="-8.73835869133472442626953125">
        <ele>18.3999996185302734375</ele>
        <time>2019-05-04T17:09:46.000Z</time>
      </trkpt>
      <trkpt lat="42.6589510403573513031005859375" lon="-8.73799617402255535125732421875">
        <ele>16.200000762939453125</ele>
        <time>2019-05-04T17:09:54.000Z</time>
      </trkpt>
      <trkpt lat="42.65925639308989048004150390625" lon="-8.73769082129001617431640625">
        <ele>15.6000003814697265625</ele>
        <time>2019-05-04T17:10:00.000Z</time>
      </trkpt>
      <trkpt lat="42.6596738956868648529052734375" lon="-8.73715697787702083587646484375">
        <ele>14</ele>
        <time>2019-05-04T17:10:09.000Z</time>
      </trkpt>
      <trkpt lat="42.660076059401035308837890625" lon="-8.73660779558122158050537109375">
        <ele>13</ele>
        <time>2019-05-04T17:10:18.000Z</time>
      </trkpt>
      <trkpt lat="42.6604862697422504425048828125" lon="-8.73605911619961261749267578125">
        <ele>14.19999980926513671875</ele>
        <time>2019-05-04T17:10:28.000Z</time>
      </trkpt>
      <trkpt lat="42.66088667325675487518310546875" lon="-8.73549702577292919158935546875">
        <ele>15.6000003814697265625</ele>
        <time>2019-05-04T17:10:39.000Z</time>
      </trkpt>
      <trkpt lat="42.66127106733620166778564453125" lon="-8.7349786050617694854736328125">
        <ele>18.3999996185302734375</ele>
        <time>2019-05-04T17:10:49.000Z</time>
      </trkpt>
      <trkpt lat="42.66166334040462970733642578125" lon="-8.734470494091510772705078125">
        <ele>22.200000762939453125</ele>
        <time>2019-05-04T17:10:59.000Z</time>
      </trkpt>
      <trkpt lat="42.66207866370677947998046875" lon="-8.73391401953995227813720703125">
        <ele>24</ele>
        <time>2019-05-04T17:11:10.000Z</time>
      </trkpt>
      <trkpt lat="42.6624905504286289215087890625" lon="-8.7333505041897296905517578125">
        <ele>26.200000762939453125</ele>
        <time>2019-05-04T17:11:21.000Z</time>
      </trkpt>
      <trkpt lat="42.6625653170049190521240234375" lon="-8.73324774205684661865234375">
        <ele>26.3999996185302734375</ele>
        <time>2019-05-04T17:11:23.000Z</time>
      </trkpt>
      <trkpt lat="42.66262826509773731231689453125" lon="-8.733130395412445068359375">
        <ele>27</ele>
        <time>2019-05-04T17:11:25.000Z</time>
      </trkpt>
      <trkpt lat="42.66296689398586750030517578125" lon="-8.7325148284435272216796875">
        <ele>28</ele>
        <time>2019-05-04T17:11:36.000Z</time>
      </trkpt>
      <trkpt lat="42.663242407143115997314453125" lon="-8.731869757175445556640625">
        <ele>26.799999237060546875</ele>
        <time>2019-05-04T17:11:46.000Z</time>
      </trkpt>
      <trkpt lat="42.6634568162262439727783203125" lon="-8.7311259470880031585693359375">
        <ele>28.200000762939453125</ele>
        <time>2019-05-04T17:11:57.000Z</time>
      </trkpt>
      <trkpt lat="42.66356527805328369140625" lon="-8.73037702403962612152099609375">
        <ele>31</ele>
        <time>2019-05-04T17:12:08.000Z</time>
      </trkpt>
      <trkpt lat="42.66358799301087856292724609375" lon="-8.72961468994617462158203125">
        <ele>33.59999847412109375</ele>
        <time>2019-05-04T17:12:21.000Z</time>
      </trkpt>
      <trkpt lat="42.663532085716724395751953125" lon="-8.72884623706340789794921875">
        <ele>30.3999996185302734375</ele>
        <time>2019-05-04T17:12:37.000Z</time>
      </trkpt>
      <trkpt lat="42.66352194361388683319091796875" lon="-8.728790245950222015380859375">
        <ele>30</ele>
        <time>2019-05-04T17:12:38.000Z</time>
      </trkpt>
      <trkpt lat="42.66347785480320453643798828125" lon="-8.72843996621668338775634765625">
        <ele>28.200000762939453125</ele>
        <time>2019-05-04T17:12:44.000Z</time>
      </trkpt>
      <trkpt lat="42.6634541340172290802001953125" lon="-8.72801014222204685211181640625">
        <ele>28.3999996185302734375</ele>
        <time>2019-05-04T17:12:51.000Z</time>
      </trkpt>
      <trkpt lat="42.6634809561073780059814453125" lon="-8.7275634706020355224609375">
        <ele>28.6000003814697265625</ele>
        <time>2019-05-04T17:12:58.000Z</time>
      </trkpt>
      <trkpt lat="42.66355480067431926727294921875" lon="-8.727316372096538543701171875">
        <ele>28.6000003814697265625</ele>
        <time>2019-05-04T17:13:02.000Z</time>
      </trkpt>
      <trkpt lat="42.66384087502956390380859375" lon="-8.7266758270561695098876953125">
        <ele>28.200000762939453125</ele>
        <time>2019-05-04T17:13:14.000Z</time>
      </trkpt>
      <trkpt lat="42.66413466073572635650634765625" lon="-8.7259901873767375946044921875">
        <ele>28.3999996185302734375</ele>
        <time>2019-05-04T17:13:27.000Z</time>
      </trkpt>
      <trkpt lat="42.66418294049799442291259765625" lon="-8.725882060825824737548828125">
        <ele>28.3999996185302734375</ele>
        <time>2019-05-04T17:13:29.000Z</time>
      </trkpt>
      <trkpt lat="42.66435175202786922454833984375" lon="-8.72543086297810077667236328125">
        <ele>29</ele>
        <time>2019-05-04T17:13:37.000Z</time>
      </trkpt>
      <trkpt lat="42.6645659096539020538330078125" lon="-8.7250346504151821136474609375">
        <ele>29</ele>
        <time>2019-05-04T17:13:45.000Z</time>
      </trkpt>
      <trkpt lat="42.66460170038044452667236328125" lon="-8.7249830178916454315185546875">
        <ele>28.799999237060546875</ele>
        <time>2019-05-04T17:13:46.000Z</time>
      </trkpt>
      <trkpt lat="42.6647161133587360382080078125" lon="-8.7247753143310546875">
        <ele>28.200000762939453125</ele>
        <time>2019-05-04T17:13:50.000Z</time>
      </trkpt>
      <trkpt lat="42.6651060394942760467529296875" lon="-8.724218420684337615966796875">
        <ele>26.3999996185302734375</ele>
        <time>2019-05-04T17:14:00.000Z</time>
      </trkpt>
      <trkpt lat="42.6654956303536891937255859375" lon="-8.72364652343094348907470703125">
        <ele>24.200000762939453125</ele>
        <time>2019-05-04T17:14:08.000Z</time>
      </trkpt>
      <trkpt lat="42.66587072052061557769775390625" lon="-8.7231115065515041351318359375">
        <ele>22</ele>
        <time>2019-05-04T17:14:15.000Z</time>
      </trkpt>
      <trkpt lat="42.66625477932393550872802734375" lon="-8.7225475721061229705810546875">
        <ele>19.200000762939453125</ele>
        <time>2019-05-04T17:14:22.000Z</time>
      </trkpt>
      <trkpt lat="42.6666184701025485992431640625" lon="-8.721987493336200714111328125">
        <ele>16.6000003814697265625</ele>
        <time>2019-05-04T17:14:29.000Z</time>
      </trkpt>
      <trkpt lat="42.6667160354554653167724609375" lon="-8.7215564958751201629638671875">
        <ele>15.6000003814697265625</ele>
        <time>2019-05-04T17:14:34.000Z</time>
      </trkpt>
      <trkpt lat="42.667145021259784698486328125" lon="-8.7216010875999927520751953125">
        <ele>15</ele>
        <time>2019-05-04T17:14:42.000Z</time>
      </trkpt>
      <trkpt lat="42.66771264374256134033203125" lon="-8.721695803105831146240234375">
        <ele>16</ele>
        <time>2019-05-04T17:14:52.000Z</time>
      </trkpt>
      <trkpt lat="42.66777106560766696929931640625" lon="-8.7217073701322078704833984375">
        <ele>17</ele>
        <time>2019-05-04T17:14:56.000Z</time>
      </trkpt>
      <trkpt lat="42.6677205227315425872802734375" lon="-8.72178205288946628570556640625">
        <ele>16.200000762939453125</ele>
        <time>2019-05-04T17:15:01.000Z</time>
      </trkpt>
      <trkpt lat="42.66772882081568241119384765625" lon="-8.72178087942302227020263671875">
        <ele>16.200000762939453125</ele>
        <time>2019-05-04T17:15:02.000Z</time>
      </trkpt>
      <trkpt lat="42.667668722569942474365234375" lon="-8.7217469327151775360107421875">
        <ele>15.3999996185302734375</ele>
        <time>2019-05-04T17:16:17.000Z</time>
      </trkpt>
      <trkpt lat="42.6671321131289005279541015625" lon="-8.72160553000867366790771484375">
        <ele>15</ele>
        <time>2019-05-04T17:16:29.000Z</time>
      </trkpt>
      <trkpt lat="42.66708726994693279266357421875" lon="-8.7216087989509105682373046875">
        <ele>15.19999980926513671875</ele>
        <time>2019-05-04T17:16:30.000Z</time>
      </trkpt>
      <trkpt lat="42.666737325489521026611328125" lon="-8.72167711146175861358642578125">
        <ele>15.80000019073486328125</ele>
        <time>2019-05-04T17:16:38.000Z</time>
      </trkpt>
      <trkpt lat="42.66675886698067188262939453125" lon="-8.72130788862705230712890625">
        <ele>15.3999996185302734375</ele>
        <time>2019-05-04T17:16:44.000Z</time>
      </trkpt>
      <trkpt lat="42.66677864827215671539306640625" lon="-8.721241839230060577392578125">
        <ele>15.19999980926513671875</ele>
        <time>2019-05-04T17:16:45.000Z</time>
      </trkpt>
      <trkpt lat="42.66685961745679378509521484375" lon="-8.72060003690421581268310546875">
        <ele>16</ele>
        <time>2019-05-04T17:16:54.000Z</time>
      </trkpt>
      <trkpt lat="42.6669849269092082977294921875" lon="-8.71986947022378444671630859375">
        <ele>17.200000762939453125</ele>
        <time>2019-05-04T17:17:06.000Z</time>
      </trkpt>
      <trkpt lat="42.6672648824751377105712890625" lon="-8.71923856437206268310546875">
        <ele>19.200000762939453125</ele>
        <time>2019-05-04T17:17:22.000Z</time>
      </trkpt>
      <trkpt lat="42.6676652021706104278564453125" lon="-8.7187443673610687255859375">
        <ele>20.3999996185302734375</ele>
        <time>2019-05-04T17:17:38.000Z</time>
      </trkpt>
      <trkpt lat="42.66808756627142429351806640625" lon="-8.7182768248021602630615234375">
        <ele>23.6000003814697265625</ele>
        <time>2019-05-04T17:17:55.000Z</time>
      </trkpt>
      <trkpt lat="42.66843792982399463653564453125" lon="-8.7177145667374134063720703125">
        <ele>27</ele>
        <time>2019-05-04T17:18:16.000Z</time>
      </trkpt>
      <trkpt lat="42.66864563338458538055419921875" lon="-8.71702699922025203704833984375">
        <ele>29.799999237060546875</ele>
        <time>2019-05-04T17:18:36.000Z</time>
      </trkpt>
      <trkpt lat="42.6688490621745586395263671875" lon="-8.71634286828339099884033203125">
        <ele>31.200000762939453125</ele>
        <time>2019-05-04T17:18:53.000Z</time>
      </trkpt>
      <trkpt lat="42.66904377378523349761962890625" lon="-8.71563501656055450439453125">
        <ele>32.200000762939453125</ele>
        <time>2019-05-04T17:19:08.000Z</time>
      </trkpt>
      <trkpt lat="42.66924058087170124053955078125" lon="-8.7149222195148468017578125">
        <ele>34.200000762939453125</ele>
        <time>2019-05-04T17:19:22.000Z</time>
      </trkpt>
      <trkpt lat="42.6694406569004058837890625" lon="-8.71422191150486469268798828125">
        <ele>37.40000152587890625</ele>
        <time>2019-05-04T17:19:36.000Z</time>
      </trkpt>
      <trkpt lat="42.66958482563495635986328125" lon="-8.71350542642176151275634765625">
        <ele>39.799999237060546875</ele>
        <time>2019-05-04T17:19:50.000Z</time>
      </trkpt>
      <trkpt lat="42.6696889288723468780517578125" lon="-8.7127508036792278289794921875">
        <ele>38</ele>
        <time>2019-05-04T17:20:04.000Z</time>
      </trkpt>
      <trkpt lat="42.66991733573377132415771484375" lon="-8.71205586008727550506591796875">
        <ele>38.799999237060546875</ele>
        <time>2019-05-04T17:20:17.000Z</time>
      </trkpt>
      <trkpt lat="42.6701747439801692962646484375" lon="-8.71136535890400409698486328125">
        <ele>40.200000762939453125</ele>
        <time>2019-05-04T17:20:29.000Z</time>
      </trkpt>
      <trkpt lat="42.67028697766363620758056640625" lon="-8.71107484214007854461669921875">
        <ele>40.59999847412109375</ele>
        <time>2019-05-04T17:20:34.000Z</time>
      </trkpt>
      <trkpt lat="42.67059710808098316192626953125" lon="-8.71050252579152584075927734375">
        <ele>40.59999847412109375</ele>
        <time>2019-05-04T17:20:45.000Z</time>
      </trkpt>
      <trkpt lat="42.6710156165063381195068359375" lon="-8.7101923115551471710205078125">
        <ele>39.799999237060546875</ele>
        <time>2019-05-04T17:21:01.000Z</time>
      </trkpt>
      <trkpt lat="42.6710327155888080596923828125" lon="-8.71018099598586559295654296875">
        <ele>39.799999237060546875</ele>
        <time>2019-05-04T17:22:07.000Z</time>
      </trkpt>
      <trkpt lat="42.671539150178432464599609375" lon="-8.70987522415816783905029296875">
        <ele>40.799999237060546875</ele>
        <time>2019-05-04T17:22:23.000Z</time>
      </trkpt>
      <trkpt lat="42.67168574966490268707275390625" lon="-8.7097081728279590606689453125">
        <ele>41.40000152587890625</ele>
        <time>2019-05-04T17:22:29.000Z</time>
      </trkpt>
      <trkpt lat="42.672219760715961456298828125" lon="-8.70950281620025634765625">
        <ele>41</ele>
        <time>2019-05-04T17:22:43.000Z</time>
      </trkpt>
      <trkpt lat="42.67231355421245098114013671875" lon="-8.70943098329007625579833984375">
        <ele>41.200000762939453125</ele>
        <time>2019-05-04T17:22:45.000Z</time>
      </trkpt>
      <trkpt lat="42.67235831357538700103759765625" lon="-8.70938505046069622039794921875">
        <ele>41.40000152587890625</ele>
        <time>2019-05-04T17:22:46.000Z</time>
      </trkpt>
      <trkpt lat="42.6724435575306415557861328125" lon="-8.709283880889415740966796875">
        <ele>41.40000152587890625</ele>
        <time>2019-05-04T17:22:48.000Z</time>
      </trkpt>
      <trkpt lat="42.67259082756936550140380859375" lon="-8.7089437432587146759033203125">
        <ele>40.59999847412109375</ele>
        <time>2019-05-04T17:22:53.000Z</time>
      </trkpt>
      <trkpt lat="42.6726071722805500030517578125" lon="-8.70886252261698246002197265625">
        <ele>40.59999847412109375</ele>
        <time>2019-05-04T17:22:54.000Z</time>
      </trkpt>
      <trkpt lat="42.672635503113269805908203125" lon="-8.70832457207143306732177734375">
        <ele>41</ele>
        <time>2019-05-04T17:23:01.000Z</time>
      </trkpt>
      <trkpt lat="42.6725696213543415069580078125" lon="-8.70751940645277500152587890625">
        <ele>43.59999847412109375</ele>
        <time>2019-05-04T17:23:11.000Z</time>
      </trkpt>
      <trkpt lat="42.6725840382277965545654296875" lon="-8.7068023346364498138427734375">
        <ele>43.799999237060546875</ele>
        <time>2019-05-04T17:23:20.000Z</time>
      </trkpt>
      <trkpt lat="42.67268487252295017242431640625" lon="-8.7065190263092517852783203125">
        <ele>43.40000152587890625</ele>
        <time>2019-05-04T17:23:24.000Z</time>
      </trkpt>
      <trkpt lat="42.67272032797336578369140625" lon="-8.7064533121883869171142578125">
        <ele>43.40000152587890625</ele>
        <time>2019-05-04T17:23:25.000Z</time>
      </trkpt>
      <trkpt lat="42.67315995879471302032470703125" lon="-8.70591326616704463958740234375">
        <ele>42</ele>
        <time>2019-05-04T17:23:35.000Z</time>
      </trkpt>
      <trkpt lat="42.6735918782651424407958984375" lon="-8.70539861731231212615966796875">
        <ele>43.40000152587890625</ele>
        <time>2019-05-04T17:23:48.000Z</time>
      </trkpt>
      <trkpt lat="42.67399781383574008941650390625" lon="-8.70490542612969875335693359375">
        <ele>46</ele>
        <time>2019-05-04T17:24:02.000Z</time>
      </trkpt>
      <trkpt lat="42.67425857484340667724609375" lon="-8.70458154939115047454833984375">
        <ele>47.40000152587890625</ele>
        <time>2019-05-04T17:24:11.000Z</time>
      </trkpt>
      <trkpt lat="42.67468370497226715087890625" lon="-8.7040617875754833221435546875">
        <ele>49.40000152587890625</ele>
        <time>2019-05-04T17:24:24.000Z</time>
      </trkpt>
      <trkpt lat="42.67499945126473903656005859375" lon="-8.703746795654296875">
        <ele>51</ele>
        <time>2019-05-04T17:24:33.000Z</time>
      </trkpt>
      <trkpt lat="42.67515334300696849822998046875" lon="-8.70365115813910961151123046875">
        <ele>52.200000762939453125</ele>
        <time>2019-05-04T17:24:37.000Z</time>
      </trkpt>
      <trkpt lat="42.67572448588907718658447265625" lon="-8.70355258695781230926513671875">
        <ele>56</ele>
        <time>2019-05-04T17:24:50.000Z</time>
      </trkpt>
      <trkpt lat="42.6762771047651767730712890625" lon="-8.7034696899354457855224609375">
        <ele>61.59999847412109375</ele>
        <time>2019-05-04T17:25:03.000Z</time>
      </trkpt>
      <trkpt lat="42.67682670615613460540771484375" lon="-8.70338226668536663055419921875">
        <ele>65.59999847412109375</ele>
        <time>2019-05-04T17:25:17.000Z</time>
      </trkpt>
      <trkpt lat="42.67708503641188144683837890625" lon="-8.70336667634546756744384765625">
        <ele>64.8000030517578125</ele>
        <time>2019-05-04T17:25:23.000Z</time>
      </trkpt>
      <trkpt lat="42.67763086594641208648681640625" lon="-8.7032809294760227203369140625">
        <ele>65</ele>
        <time>2019-05-04T17:25:36.000Z</time>
      </trkpt>
      <trkpt lat="42.67817921005189418792724609375" lon="-8.703211359679698944091796875">
        <ele>69.1999969482421875</ele>
        <time>2019-05-04T17:25:50.000Z</time>
      </trkpt>
      <trkpt lat="42.678731493651866912841796875" lon="-8.7030314840376377105712890625">
        <ele>69.8000030517578125</ele>
        <time>2019-05-04T17:26:06.000Z</time>
      </trkpt>
      <trkpt lat="42.67912418581545352935791015625" lon="-8.70250250212848186492919921875">
        <ele>70.8000030517578125</ele>
        <time>2019-05-04T17:26:22.000Z</time>
      </trkpt>
      <trkpt lat="42.6793639920651912689208984375" lon="-8.70182834565639495849609375">
        <ele>70.40000152587890625</ele>
        <time>2019-05-04T17:26:37.000Z</time>
      </trkpt>
      <trkpt lat="42.67960798926651477813720703125" lon="-8.70115569792687892913818359375">
        <ele>70.40000152587890625</ele>
        <time>2019-05-04T17:26:52.000Z</time>
      </trkpt>
      <trkpt lat="42.679841928184032440185546875" lon="-8.70047190226614475250244140625">
        <ele>69.8000030517578125</ele>
        <time>2019-05-04T17:27:06.000Z</time>
      </trkpt>
      <trkpt lat="42.68009112216532230377197265625" lon="-8.6997749470174312591552734375">
        <ele>70.8000030517578125</ele>
        <time>2019-05-04T17:27:20.000Z</time>
      </trkpt>
      <trkpt lat="42.6803248934447765350341796875" lon="-8.69909827597439289093017578125">
        <ele>73.1999969482421875</ele>
        <time>2019-05-04T17:27:35.000Z</time>
      </trkpt>
      <trkpt lat="42.6805542223155498504638671875" lon="-8.69842386804521083831787109375">
        <ele>74.8000030517578125</ele>
        <time>2019-05-04T17:27:49.000Z</time>
      </trkpt>
      <trkpt lat="42.68082152120769023895263671875" lon="-8.697779215872287750244140625">
        <ele>76.8000030517578125</ele>
        <time>2019-05-04T17:28:04.000Z</time>
      </trkpt>
      <trkpt lat="42.681259810924530029296875" lon="-8.6972902156412601470947265625">
        <ele>81.40000152587890625</ele>
        <time>2019-05-04T17:28:21.000Z</time>
      </trkpt>
      <trkpt lat="42.68170916475355625152587890625" lon="-8.696868605911731719970703125">
        <ele>86</ele>
        <time>2019-05-04T17:28:39.000Z</time>
      </trkpt>
      <trkpt lat="42.68213027156889438629150390625" lon="-8.6964057572185993194580078125">
        <ele>90.8000030517578125</ele>
        <time>2019-05-04T17:28:58.000Z</time>
      </trkpt>
      <trkpt lat="42.68258557654917240142822265625" lon="-8.6959564872086048126220703125">
        <ele>95.8000030517578125</ele>
        <time>2019-05-04T17:29:19.000Z</time>
      </trkpt>
      <trkpt lat="42.68304691649973392486572265625" lon="-8.6955083906650543212890625">
        <ele>101.1999969482421875</ele>
        <time>2019-05-04T17:29:42.000Z</time>
      </trkpt>
      <trkpt lat="42.68351345323026180267333984375" lon="-8.69507982395589351654052734375">
        <ele>106.59999847412109375</ele>
        <time>2019-05-04T17:30:00.000Z</time>
      </trkpt>
      <trkpt lat="42.68402181565761566162109375" lon="-8.69480188004672527313232421875">
        <ele>110.8000030517578125</ele>
        <time>2019-05-04T17:30:22.000Z</time>
      </trkpt>
      <trkpt lat="42.68456253223121166229248046875" lon="-8.69481679983437061309814453125">
        <ele>112</ele>
        <time>2019-05-04T17:30:46.000Z</time>
      </trkpt>
      <trkpt lat="42.68508673645555973052978515625" lon="-8.6950395070016384124755859375">
        <ele>116.59999847412109375</ele>
        <time>2019-05-04T17:31:08.000Z</time>
      </trkpt>
      <trkpt lat="42.68555427901446819305419921875" lon="-8.695434294641017913818359375">
        <ele>117.40000152587890625</ele>
        <time>2019-05-04T17:31:30.000Z</time>
      </trkpt>
      <trkpt lat="42.685982175171375274658203125" lon="-8.695752136409282684326171875">
        <ele>121.8000030517578125</ele>
        <time>2019-05-04T17:31:50.000Z</time>
      </trkpt>
      <trkpt lat="42.68653638660907745361328125" lon="-8.69580544531345367431640625">
        <ele>126.40000152587890625</ele>
        <time>2019-05-04T17:32:14.000Z</time>
      </trkpt>
      <trkpt lat="42.6870877481997013092041015625" lon="-8.6957363784313201904296875">
        <ele>131.399993896484375</ele>
        <time>2019-05-04T17:32:36.000Z</time>
      </trkpt>
      <trkpt lat="42.68763852305710315704345703125" lon="-8.69563101790845394134521484375">
        <ele>136.1999969482421875</ele>
        <time>2019-05-04T17:32:59.000Z</time>
      </trkpt>
      <trkpt lat="42.6881800778210163116455078125" lon="-8.69552917778491973876953125">
        <ele>139.1999969482421875</ele>
        <time>2019-05-04T17:33:21.000Z</time>
      </trkpt>
      <trkpt lat="42.688259370625019073486328125" lon="-8.695519454777240753173828125">
        <ele>140</ele>
        <time>2019-05-04T17:33:27.000Z</time>
      </trkpt>
      <trkpt lat="42.68831075169146060943603515625" lon="-8.69550445117056369781494140625">
        <ele>140.399993896484375</ele>
        <time>2019-05-04T17:34:41.000Z</time>
      </trkpt>
      <trkpt lat="42.68857511691749095916748046875" lon="-8.69546975009143352508544921875">
        <ele>140.8000030517578125</ele>
        <time>2019-05-04T17:34:51.000Z</time>
      </trkpt>
      <trkpt lat="42.68874560482800006866455078125" lon="-8.69542851112782955169677734375">
        <ele>140.600006103515625</ele>
        <time>2019-05-04T17:34:55.000Z</time>
      </trkpt>
      <trkpt lat="42.68917710520327091217041015625" lon="-8.69531652890145778656005859375">
        <ele>140</ele>
        <time>2019-05-04T17:35:07.000Z</time>
      </trkpt>
      <trkpt lat="42.6893837191164493560791015625" lon="-8.69520672596991062164306640625">
        <ele>138.399993896484375</ele>
        <time>2019-05-04T17:35:11.000Z</time>
      </trkpt>
      <trkpt lat="42.68959284760057926177978515625" lon="-8.69500824250280857086181640625">
        <ele>137</ele>
        <time>2019-05-04T17:35:15.000Z</time>
      </trkpt>
      <trkpt lat="42.68986693583428859710693359375" lon="-8.6945261992514133453369140625">
        <ele>135.1999969482421875</ele>
        <time>2019-05-04T17:35:20.000Z</time>
      </trkpt>
      <trkpt lat="42.69004429690539836883544921875" lon="-8.69377761147916316986083984375">
        <ele>134.600006103515625</ele>
        <time>2019-05-04T17:35:26.000Z</time>
      </trkpt>
      <trkpt lat="42.6902131922543048858642578125" lon="-8.6931388266384601593017578125">
        <ele>132</ele>
        <time>2019-05-04T17:35:31.000Z</time>
      </trkpt>
      <trkpt lat="42.6904391683638095855712890625" lon="-8.69270288385450839996337890625">
        <ele>128.1999969482421875</ele>
        <time>2019-05-04T17:35:35.000Z</time>
      </trkpt>
      <trkpt lat="42.6909591816365718841552734375" lon="-8.69233123026788234710693359375">
        <ele>120.8000030517578125</ele>
        <time>2019-05-04T17:35:41.000Z</time>
      </trkpt>
      <trkpt lat="42.69154633395373821258544921875" lon="-8.6921182461082935333251953125">
        <ele>116</ele>
        <time>2019-05-04T17:35:47.000Z</time>
      </trkpt>
      <trkpt lat="42.69173056818544864654541015625" lon="-8.69199964217841625213623046875">
        <ele>114.59999847412109375</ele>
        <time>2019-05-04T17:35:49.000Z</time>
      </trkpt>
      <trkpt lat="42.69209903664886951446533203125" lon="-8.69146990589797496795654296875">
        <ele>108.40000152587890625</ele>
        <time>2019-05-04T17:35:54.000Z</time>
      </trkpt>
      <trkpt lat="42.692246474325656890869140625" lon="-8.6907593719661235809326171875">
        <ele>102.8000030517578125</ele>
        <time>2019-05-04T17:35:59.000Z</time>
      </trkpt>
      <trkpt lat="42.69223599694669246673583984375" lon="-8.69047028012573719024658203125">
        <ele>101.40000152587890625</ele>
        <time>2019-05-04T17:36:01.000Z</time>
      </trkpt>
      <trkpt lat="42.69227371551096439361572265625" lon="-8.68961750529706478118896484375">
        <ele>101.40000152587890625</ele>
        <time>2019-05-04T17:36:07.000Z</time>
      </trkpt>
      <trkpt lat="42.69244554452598094940185546875" lon="-8.688815943896770477294921875">
        <ele>98.8000030517578125</ele>
        <time>2019-05-04T17:36:13.000Z</time>
      </trkpt>
      <trkpt lat="42.69265425391495227813720703125" lon="-8.68799476884305477142333984375">
        <ele>89.40000152587890625</ele>
        <time>2019-05-04T17:36:19.000Z</time>
      </trkpt>
      <trkpt lat="42.692690379917621612548828125" lon="-8.68770492263138294219970703125">
        <ele>86.1999969482421875</ele>
        <time>2019-05-04T17:36:21.000Z</time>
      </trkpt>
      <trkpt lat="42.6926680840551853179931640625" lon="-8.68711550720036029815673828125">
        <ele>81.40000152587890625</ele>
        <time>2019-05-04T17:36:25.000Z</time>
      </trkpt>
      <trkpt lat="42.6926446147263050079345703125" lon="-8.6869736015796661376953125">
        <ele>80.40000152587890625</ele>
        <time>2019-05-04T17:36:26.000Z</time>
      </trkpt>
      <trkpt lat="42.69242584705352783203125" lon="-8.68631151504814624786376953125">
        <ele>81.1999969482421875</ele>
        <time>2019-05-04T17:36:31.000Z</time>
      </trkpt>
      <trkpt lat="42.69205176271498203277587890625" lon="-8.68575026281177997589111328125">
        <ele>84</ele>
        <time>2019-05-04T17:36:36.000Z</time>
      </trkpt>
      <trkpt lat="42.69173526205122470855712890625" lon="-8.68530468083918094635009765625">
        <ele>82.8000030517578125</ele>
        <time>2019-05-04T17:36:40.000Z</time>
      </trkpt>
      <trkpt lat="42.6916117966175079345703125" lon="-8.68503729812800884246826171875">
        <ele>82.1999969482421875</ele>
        <time>2019-05-04T17:36:42.000Z</time>
      </trkpt>
      <trkpt lat="42.6914962939918041229248046875" lon="-8.68425585329532623291015625">
        <ele>78.1999969482421875</ele>
        <time>2019-05-04T17:36:47.000Z</time>
      </trkpt>
      <trkpt lat="42.69169402308762073516845703125" lon="-8.68345177732408046722412109375">
        <ele>72.1999969482421875</ele>
        <time>2019-05-04T17:36:52.000Z</time>
      </trkpt>
      <trkpt lat="42.6917588151991367340087890625" lon="-8.6833024956285953521728515625">
        <ele>70.1999969482421875</ele>
        <time>2019-05-04T17:36:53.000Z</time>
      </trkpt>
      <trkpt lat="42.6918292231857776641845703125" lon="-8.6831690557301044464111328125">
        <ele>68.1999969482421875</ele>
        <time>2019-05-04T17:36:54.000Z</time>
      </trkpt>
      <trkpt lat="42.69224823452532291412353515625" lon="-8.68259866721928119659423828125">
        <ele>58.59999847412109375</ele>
        <time>2019-05-04T17:36:59.000Z</time>
      </trkpt>
      <trkpt lat="42.6925547607243061065673828125" lon="-8.6823446117341518402099609375">
        <ele>52.40000152587890625</ele>
        <time>2019-05-04T17:37:02.000Z</time>
      </trkpt>
      <trkpt lat="42.693089358508586883544921875" lon="-8.68207027204334735870361328125">
        <ele>46.799999237060546875</ele>
        <time>2019-05-04T17:37:07.000Z</time>
      </trkpt>
      <trkpt lat="42.69363862462341785430908203125" lon="-8.6819610558450222015380859375">
        <ele>43.40000152587890625</ele>
        <time>2019-05-04T17:37:12.000Z</time>
      </trkpt>
      <trkpt lat="42.694205157458782196044921875" lon="-8.68190632201731204986572265625">
        <ele>39</ele>
        <time>2019-05-04T17:37:17.000Z</time>
      </trkpt>
      <trkpt lat="42.6943181455135345458984375" lon="-8.6819054000079631805419921875">
        <ele>38</ele>
        <time>2019-05-04T17:37:18.000Z</time>
      </trkpt>
      <trkpt lat="42.69466456957161426544189453125" lon="-8.681966252624988555908203125">
        <ele>36.40000152587890625</ele>
        <time>2019-05-04T17:37:21.000Z</time>
      </trkpt>
      <trkpt lat="42.6952166855335235595703125" lon="-8.6822480522096157073974609375">
        <ele>35.799999237060546875</ele>
        <time>2019-05-04T17:37:26.000Z</time>
      </trkpt>
      <trkpt lat="42.69573410041630268096923828125" lon="-8.68258743546903133392333984375">
        <ele>26.799999237060546875</ele>
        <time>2019-05-04T17:37:31.000Z</time>
      </trkpt>
      <trkpt lat="42.69629568792879581451416015625" lon="-8.68286236189305782318115234375">
        <ele>24</ele>
        <time>2019-05-04T17:37:36.000Z</time>
      </trkpt>
      <trkpt lat="42.69690102897584438323974609375" lon="-8.6829212866723537445068359375">
        <ele>23.3999996185302734375</ele>
        <time>2019-05-04T17:37:41.000Z</time>
      </trkpt>
      <trkpt lat="42.69748516380786895751953125" lon="-8.68276060558855533599853515625">
        <ele>20.6000003814697265625</ele>
        <time>2019-05-04T17:37:46.000Z</time>
      </trkpt>
      <trkpt lat="42.69770133309066295623779296875" lon="-8.6826567538082599639892578125">
        <ele>18.6000003814697265625</ele>
        <time>2019-05-04T17:37:48.000Z</time>
      </trkpt>
      <trkpt lat="42.6981912553310394287109375" lon="-8.68226791732013225555419921875">
        <ele>12.3999996185302734375</ele>
        <time>2019-05-04T17:37:53.000Z</time>
      </trkpt>
      <trkpt lat="42.6986204087734222412109375" lon="-8.6818155460059642791748046875">
        <ele>7.80000019073486328125</ele>
        <time>2019-05-04T17:37:58.000Z</time>
      </trkpt>
      <trkpt lat="42.6990108378231525421142578125" lon="-8.681271560490131378173828125">
        <ele>6.599999904632568359375</ele>
        <time>2019-05-04T17:38:04.000Z</time>
      </trkpt>
      <trkpt lat="42.69940403290092945098876953125" lon="-8.680641911923885345458984375">
        <ele>6.19999980926513671875</ele>
        <time>2019-05-04T17:38:12.000Z</time>
      </trkpt>
      <trkpt lat="42.699605114758014678955078125" lon="-8.67993003688752651214599609375">
        <ele>7.599999904632568359375</ele>
        <time>2019-05-04T17:38:21.000Z</time>
      </trkpt>
      <trkpt lat="42.69973796792328357696533203125" lon="-8.67918471805751323699951171875">
        <ele>9</ele>
        <time>2019-05-04T17:38:31.000Z</time>
      </trkpt>
      <trkpt lat="42.699866630136966705322265625" lon="-8.67843990214169025421142578125">
        <ele>10</ele>
        <time>2019-05-04T17:38:41.000Z</time>
      </trkpt>
      <trkpt lat="42.69999579526484012603759765625" lon="-8.67769181728363037109375">
        <ele>11.19999980926513671875</ele>
        <time>2019-05-04T17:38:52.000Z</time>
      </trkpt>
      <trkpt lat="42.70012957043945789337158203125" lon="-8.6769791878759860992431640625">
        <ele>11.6000003814697265625</ele>
        <time>2019-05-04T17:39:04.000Z</time>
      </trkpt>
      <trkpt lat="42.700343392789363861083984375" lon="-8.676294051110744476318359375">
        <ele>12</ele>
        <time>2019-05-04T17:39:15.000Z</time>
      </trkpt>
      <trkpt lat="42.70070976577699184417724609375" lon="-8.67573581635951995849609375">
        <ele>11.80000019073486328125</ele>
        <time>2019-05-04T17:39:25.000Z</time>
      </trkpt>
      <trkpt lat="42.70108242519199848175048828125" lon="-8.6751958541572093963623046875">
        <ele>11.19999980926513671875</ele>
        <time>2019-05-04T17:39:34.000Z</time>
      </trkpt>
      <trkpt lat="42.701451480388641357421875" lon="-8.67461339570581912994384765625">
        <ele>10.6000003814697265625</ele>
        <time>2019-05-04T17:39:43.000Z</time>
      </trkpt>
      <trkpt lat="42.7018506266176700592041015625" lon="-8.6739970743656158447265625">
        <ele>9.3999996185302734375</ele>
        <time>2019-05-04T17:39:52.000Z</time>
      </trkpt>
      <trkpt lat="42.7022435702383518218994140625" lon="-8.67338226176798343658447265625">
        <ele>8.3999996185302734375</ele>
        <time>2019-05-04T17:40:01.000Z</time>
      </trkpt>
      <trkpt lat="42.7026006393134593963623046875" lon="-8.67280676029622554779052734375">
        <ele>8</ele>
        <time>2019-05-04T17:40:10.000Z</time>
      </trkpt>
      <trkpt lat="42.7029962651431560516357421875" lon="-8.67221281863749027252197265625">
        <ele>8</ele>
        <time>2019-05-04T17:40:20.000Z</time>
      </trkpt>
      <trkpt lat="42.70337621681392192840576171875" lon="-8.67160228081047534942626953125">
        <ele>8</ele>
        <time>2019-05-04T17:40:30.000Z</time>
      </trkpt>
      <trkpt lat="42.70374284125864505767822265625" lon="-8.67102057673037052154541015625">
        <ele>8</ele>
        <time>2019-05-04T17:40:39.000Z</time>
      </trkpt>
      <trkpt lat="42.7041055262088775634765625" lon="-8.6704657785594463348388671875">
        <ele>9.3999996185302734375</ele>
        <time>2019-05-04T17:40:48.000Z</time>
      </trkpt>
      <trkpt lat="42.70447039045393466949462890625" lon="-8.66990192793309688568115234375">
        <ele>10.3999996185302734375</ele>
        <time>2019-05-04T17:40:58.000Z</time>
      </trkpt>
      <trkpt lat="42.704502828419208526611328125" lon="-8.6698471941053867340087890625">
        <ele>10.3999996185302734375</ele>
        <time>2019-05-04T17:40:59.000Z</time>
      </trkpt>
      <trkpt lat="42.704701311886310577392578125" lon="-8.66947663016617298126220703125">
        <ele>11.19999980926513671875</ele>
        <time>2019-05-04T17:41:06.000Z</time>
      </trkpt>
      <trkpt lat="42.70498436875641345977783203125" lon="-8.66941276006400585174560546875">
        <ele>11</ele>
        <time>2019-05-04T17:41:16.000Z</time>
      </trkpt>
      <trkpt lat="42.70533506758511066436767578125" lon="-8.66997250355780124664306640625">
        <ele>9.19999980926513671875</ele>
        <time>2019-05-04T17:41:28.000Z</time>
      </trkpt>
      <trkpt lat="42.70571024157106876373291015625" lon="-8.6705182492733001708984375">
        <ele>9.19999980926513671875</ele>
        <time>2019-05-04T17:41:39.000Z</time>
      </trkpt>
      <trkpt lat="42.70611810497939586639404296875" lon="-8.671018816530704498291015625">
        <ele>9</ele>
        <time>2019-05-04T17:41:51.000Z</time>
      </trkpt>
      <trkpt lat="42.7063949592411518096923828125" lon="-8.67104488424956798553466796875">
        <ele>9</ele>
        <time>2019-05-04T17:41:57.000Z</time>
      </trkpt>
      <trkpt lat="42.706692516803741455078125" lon="-8.67094312794506549835205078125">
        <ele>9.19999980926513671875</ele>
        <time>2019-05-04T17:42:04.000Z</time>
      </trkpt>
      <trkpt lat="42.7070747315883636474609375" lon="-8.6707252822816371917724609375">
        <ele>8.6000003814697265625</ele>
        <time>2019-05-04T17:42:14.000Z</time>
      </trkpt>
      <trkpt lat="42.707562558352947235107421875" lon="-8.67036410607397556304931640625">
        <ele>8</ele>
        <time>2019-05-04T17:42:26.000Z</time>
      </trkpt>
      <trkpt lat="42.70771401934325695037841796875" lon="-8.6702361144125461578369140625">
        <ele>7.80000019073486328125</ele>
        <time>2019-05-04T17:42:31.000Z</time>
      </trkpt>
      <trkpt lat="42.7081690728664398193359375" lon="-8.6698190309107303619384765625">
        <ele>8.19999980926513671875</ele>
        <time>2019-05-04T17:42:47.000Z</time>
      </trkpt>
      <trkpt lat="42.70860048942267894744873046875" lon="-8.66931150667369365692138671875">
        <ele>8.80000019073486328125</ele>
        <time>2019-05-04T17:43:02.000Z</time>
      </trkpt>
      <trkpt lat="42.70895722322165966033935546875" lon="-8.668753020465373992919921875">
        <ele>9</ele>
        <time>2019-05-04T17:43:19.000Z</time>
      </trkpt>
      <trkpt lat="42.70904305391013622283935546875" lon="-8.668000660836696624755859375">
        <ele>8.80000019073486328125</ele>
        <time>2019-05-04T17:43:39.000Z</time>
      </trkpt>
      <trkpt lat="42.70923382602632045745849609375" lon="-8.66749330423772335052490234375">
        <ele>8.80000019073486328125</ele>
        <time>2019-05-04T17:43:54.000Z</time>
      </trkpt>
      <trkpt lat="42.7092488296329975128173828125" lon="-8.667459525167942047119140625">
        <ele>8.80000019073486328125</ele>
        <time>2019-05-04T17:43:58.000Z</time>
      </trkpt>
      <trkpt lat="42.7093105204403400421142578125" lon="-8.6673208884894847869873046875">
        <ele>8.6000003814697265625</ele>
        <time>2019-05-04T17:44:02.000Z</time>
      </trkpt>
      <trkpt lat="42.70964898169040679931640625" lon="-8.66673926822841167449951171875">
        <ele>8.6000003814697265625</ele>
        <time>2019-05-04T17:44:20.000Z</time>
      </trkpt>
      <trkpt lat="42.70978711545467376708984375" lon="-8.6662459932267665863037109375">
        <ele>8.80000019073486328125</ele>
        <time>2019-05-04T17:44:30.000Z</time>
      </trkpt>
      <trkpt lat="42.7099205553531646728515625" lon="-8.6654993332922458648681640625">
        <ele>7.599999904632568359375</ele>
        <time>2019-05-04T17:44:42.000Z</time>
      </trkpt>
      <trkpt lat="42.709938324987888336181640625" lon="-8.66539045237004756927490234375">
        <ele>7.400000095367431640625</ele>
        <time>2019-05-04T17:44:44.000Z</time>
      </trkpt>
      <trkpt lat="42.7101634629070758819580078125" lon="-8.66475124843418598175048828125">
        <ele>7</ele>
        <time>2019-05-04T17:45:00.000Z</time>
      </trkpt>
      <trkpt lat="42.710651122033596038818359375" lon="-8.66437557153403759002685546875">
        <ele>7</ele>
        <time>2019-05-04T17:45:18.000Z</time>
      </trkpt>
      <trkpt lat="42.71082856692373752593994140625" lon="-8.66419452242553234100341796875">
        <ele>7.400000095367431640625</ele>
        <time>2019-05-04T17:45:28.000Z</time>
      </trkpt>
      <trkpt lat="42.71083317697048187255859375" lon="-8.6641904152929782867431640625">
        <ele>7.400000095367431640625</ele>
        <time>2019-05-04T17:45:45.000Z</time>
      </trkpt>
      <trkpt lat="42.711242549121379852294921875" lon="-8.66371071897447109222412109375">
        <ele>7.19999980926513671875</ele>
        <time>2019-05-04T17:46:05.000Z</time>
      </trkpt>
      <trkpt lat="42.71126543171703815460205078125" lon="-8.66368976421654224395751953125">
        <ele>7.19999980926513671875</ele>
        <time>2019-05-04T17:46:06.000Z</time>
      </trkpt>
      <trkpt lat="42.71133734844624996185302734375" lon="-8.66354173980653285980224609375">
        <ele>7.19999980926513671875</ele>
        <time>2019-05-04T17:46:11.000Z</time>
      </trkpt>
      <trkpt lat="42.71147866733372211456298828125" lon="-8.6628680862486362457275390625">
        <ele>7.400000095367431640625</ele>
        <time>2019-05-04T17:46:31.000Z</time>
      </trkpt>
      <trkpt lat="42.7117793262004852294921875" lon="-8.662239946424961090087890625">
        <ele>6.599999904632568359375</ele>
        <time>2019-05-04T17:46:48.000Z</time>
      </trkpt>
      <trkpt lat="42.71200857125222682952880859375" lon="-8.66153561510145664215087890625">
        <ele>6</ele>
        <time>2019-05-04T17:47:04.000Z</time>
      </trkpt>
      <trkpt lat="42.712078727781772613525390625" lon="-8.6611425876617431640625">
        <ele>6.400000095367431640625</ele>
        <time>2019-05-04T17:47:15.000Z</time>
      </trkpt>
      <trkpt lat="42.7120889537036418914794921875" lon="-8.66112087853252887725830078125">
        <ele>6.400000095367431640625</ele>
        <time>2019-05-04T17:47:18.000Z</time>
      </trkpt>
      <trkpt lat="42.712114267051219940185546875" lon="-8.66109020076692104339599609375">
        <ele>6.400000095367431640625</ele>
        <time>2019-05-04T17:47:20.000Z</time>
      </trkpt>
      <trkpt lat="42.7121382392942905426025390625" lon="-8.66108366288244724273681640625">
        <ele>6.400000095367431640625</ele>
        <time>2019-05-04T17:47:22.000Z</time>
      </trkpt>
      <trkpt lat="42.71212239749729633331298828125" lon="-8.661151640117168426513671875">
        <ele>6.400000095367431640625</ele>
        <time>2019-05-04T17:47:26.000Z</time>
      </trkpt>
      <trkpt lat="42.7119042165577411651611328125" lon="-8.661604262888431549072265625">
        <ele>6</ele>
        <time>2019-05-04T17:47:44.000Z</time>
      </trkpt>
      <trkpt lat="42.71174068562686443328857421875" lon="-8.6615581624209880828857421875">
        <ele>6.400000095367431640625</ele>
        <time>2019-05-04T17:47:50.000Z</time>
      </trkpt>
      <trkpt lat="42.71148025989532470703125" lon="-8.66156444884836673736572265625">
        <ele>6.80000019073486328125</ele>
        <time>2019-05-04T17:47:57.000Z</time>
      </trkpt>
      <trkpt lat="42.71135645918548107147216796875" lon="-8.661568053066730499267578125">
        <ele>7.19999980926513671875</ele>
        <time>2019-05-04T17:48:00.000Z</time>
      </trkpt>
      <trkpt lat="42.710830830037593841552734375" lon="-8.6613435856997966766357421875">
        <ele>8</ele>
        <time>2019-05-04T17:48:15.000Z</time>
      </trkpt>
      <trkpt lat="42.71044266410171985626220703125" lon="-8.66144006140530109405517578125">
        <ele>9</ele>
        <time>2019-05-04T17:48:28.000Z</time>
      </trkpt>
      <trkpt lat="42.7103907801210880279541015625" lon="-8.66130611859261989593505859375">
        <ele>9</ele>
        <time>2019-05-04T17:48:33.000Z</time>
      </trkpt>
      <trkpt lat="42.71036370657384395599365234375" lon="-8.6609714291989803314208984375">
        <ele>8.6000003814697265625</ele>
        <time>2019-05-04T17:48:42.000Z</time>
      </trkpt>
      <trkpt lat="42.71061046980321407318115234375" lon="-8.6603967659175395965576171875">
        <ele>8.19999980926513671875</ele>
        <time>2019-05-04T17:48:57.000Z</time>
      </trkpt>
      <trkpt lat="42.71097642369568347930908203125" lon="-8.65981615148484706878662109375">
        <ele>8.3999996185302734375</ele>
        <time>2019-05-04T17:49:12.000Z</time>
      </trkpt>
      <trkpt lat="42.71125839091837406158447265625" lon="-8.65939470939338207244873046875">
        <ele>9</ele>
        <time>2019-05-04T17:49:23.000Z</time>
      </trkpt>
      <trkpt lat="42.71150280721485614776611328125" lon="-8.65904618985950946807861328125">
        <ele>9</ele>
        <time>2019-05-04T17:49:31.000Z</time>
      </trkpt>
      <trkpt lat="42.7118063159286975860595703125" lon="-8.6585799045860767364501953125">
        <ele>9</ele>
        <time>2019-05-04T17:49:41.000Z</time>
      </trkpt>
      <trkpt lat="42.71217185072600841522216796875" lon="-8.65802007727324962615966796875">
        <ele>8.3999996185302734375</ele>
        <time>2019-05-04T17:49:53.000Z</time>
      </trkpt>
      <trkpt lat="42.7125271596014499664306640625" lon="-8.65744055248796939849853515625">
        <ele>8.3999996185302734375</ele>
        <time>2019-05-04T17:50:05.000Z</time>
      </trkpt>
      <trkpt lat="42.71278942935168743133544921875" lon="-8.65686387754976749420166015625">
        <ele>9.19999980926513671875</ele>
        <time>2019-05-04T17:50:18.000Z</time>
      </trkpt>
      <trkpt lat="42.71294047124683856964111328125" lon="-8.65676094777882099151611328125">
        <ele>9.3999996185302734375</ele>
        <time>2019-05-04T17:50:22.000Z</time>
      </trkpt>
      <trkpt lat="42.7130734920501708984375" lon="-8.65660496056079864501953125">
        <ele>9.6000003814697265625</ele>
        <time>2019-05-04T17:50:26.000Z</time>
      </trkpt>
      <trkpt lat="42.71346383728086948394775390625" lon="-8.65602786652743816375732421875">
        <ele>10</ele>
        <time>2019-05-04T17:50:39.000Z</time>
      </trkpt>
      <trkpt lat="42.7138392627239227294921875" lon="-8.65544750355184078216552734375">
        <ele>10.6000003814697265625</ele>
        <time>2019-05-04T17:50:51.000Z</time>
      </trkpt>
      <trkpt lat="42.7142213098704814910888671875" lon="-8.65485825575888156890869140625">
        <ele>11.80000019073486328125</ele>
        <time>2019-05-04T17:51:04.000Z</time>
      </trkpt>
      <trkpt lat="42.7146063745021820068359375" lon="-8.65427152253687381744384765625">
        <ele>11.80000019073486328125</ele>
        <time>2019-05-04T17:51:16.000Z</time>
      </trkpt>
      <trkpt lat="42.7148325182497501373291015625" lon="-8.6539395153522491455078125">
        <ele>11.80000019073486328125</ele>
        <time>2019-05-04T17:51:23.000Z</time>
      </trkpt>
      <trkpt lat="42.715196125209331512451171875" lon="-8.65339745767414569854736328125">
        <ele>12.3999996185302734375</ele>
        <time>2019-05-04T17:51:34.000Z</time>
      </trkpt>
      <trkpt lat="42.71557691507041454315185546875" lon="-8.65282447077333927154541015625">
        <ele>14.3999996185302734375</ele>
        <time>2019-05-04T17:51:47.000Z</time>
      </trkpt>
      <trkpt lat="42.71594136022031307220458984375" lon="-8.6522656492888927459716796875">
        <ele>15.6000003814697265625</ele>
        <time>2019-05-04T17:52:02.000Z</time>
      </trkpt>
      <trkpt lat="42.7159828506410121917724609375" lon="-8.65209214389324188232421875">
        <ele>16</ele>
        <time>2019-05-04T17:52:07.000Z</time>
      </trkpt>
      <trkpt lat="42.71595141850411891937255859375" lon="-8.65184026770293712615966796875">
        <ele>16.200000762939453125</ele>
        <time>2019-05-04T17:52:12.000Z</time>
      </trkpt>
      <trkpt lat="42.71607815288007259368896484375" lon="-8.65158629603683948516845703125">
        <ele>16.200000762939453125</ele>
        <time>2019-05-04T17:52:18.000Z</time>
      </trkpt>
      <trkpt lat="42.71614872850477695465087890625" lon="-8.6515374295413494110107421875">
        <ele>16.3999996185302734375</ele>
        <time>2019-05-04T17:52:20.000Z</time>
      </trkpt>
      <trkpt lat="42.716692797839641571044921875" lon="-8.6512812785804271697998046875">
        <ele>17.200000762939453125</ele>
        <time>2019-05-04T17:52:33.000Z</time>
      </trkpt>
      <trkpt lat="42.71677385084331035614013671875" lon="-8.6512614972889423370361328125">
        <ele>17.200000762939453125</ele>
        <time>2019-05-04T17:52:35.000Z</time>
      </trkpt>
      <trkpt lat="42.7170215360820293426513671875" lon="-8.65118421614170074462890625">
        <ele>16.799999237060546875</ele>
        <time>2019-05-04T17:52:41.000Z</time>
      </trkpt>
      <trkpt lat="42.7171080373227596282958984375" lon="-8.65116686560213565826416015625">
        <ele>16.6000003814697265625</ele>
        <time>2019-05-04T17:52:43.000Z</time>
      </trkpt>
      <trkpt lat="42.71766870282590389251708984375" lon="-8.65112914703786373138427734375">
        <ele>15</ele>
        <time>2019-05-04T17:52:54.000Z</time>
      </trkpt>
      <trkpt lat="42.71821595728397369384765625" lon="-8.65107466466724872589111328125">
        <ele>11.19999980926513671875</ele>
        <time>2019-05-04T17:53:04.000Z</time>
      </trkpt>
      <trkpt lat="42.71878601051867008209228515625" lon="-8.651004843413829803466796875">
        <ele>13</ele>
        <time>2019-05-04T17:53:14.000Z</time>
      </trkpt>
      <trkpt lat="42.71888961084187030792236328125" lon="-8.65099436603486537933349609375">
        <ele>13.80000019073486328125</ele>
        <time>2019-05-04T17:53:16.000Z</time>
      </trkpt>
      <trkpt lat="42.71945220418274402618408203125" lon="-8.6509300768375396728515625">
        <ele>17.6000003814697265625</ele>
        <time>2019-05-04T17:53:27.000Z</time>
      </trkpt>
      <trkpt lat="42.719627134501934051513671875" lon="-8.65090602077543735504150390625">
        <ele>18.6000003814697265625</ele>
        <time>2019-05-04T17:53:30.000Z</time>
      </trkpt>
      <trkpt lat="42.7201144583523273468017578125" lon="-8.65090736187994480133056640625">
        <ele>20.6000003814697265625</ele>
        <time>2019-05-04T17:53:40.000Z</time>
      </trkpt>
      <trkpt lat="42.72050128318369388580322265625" lon="-8.6508859880268573760986328125">
        <ele>22.799999237060546875</ele>
        <time>2019-05-04T17:53:49.000Z</time>
      </trkpt>
      <trkpt lat="42.7205858565866947174072265625" lon="-8.650875091552734375">
        <ele>23.200000762939453125</ele>
        <time>2019-05-04T17:53:51.000Z</time>
      </trkpt>
      <trkpt lat="42.72108550183475017547607421875" lon="-8.650845587253570556640625">
        <ele>25</ele>
        <time>2019-05-04T17:54:02.000Z</time>
      </trkpt>
      <trkpt lat="42.721662260591983795166015625" lon="-8.650805018842220306396484375">
        <ele>24.200000762939453125</ele>
        <time>2019-05-04T17:54:15.000Z</time>
      </trkpt>
      <trkpt lat="42.7222253568470478057861328125" lon="-8.65076906047761440277099609375">
        <ele>26</ele>
        <time>2019-05-04T17:54:27.000Z</time>
      </trkpt>
      <trkpt lat="42.72279423661530017852783203125" lon="-8.6507344432175159454345703125">
        <ele>26.799999237060546875</ele>
        <time>2019-05-04T17:54:39.000Z</time>
      </trkpt>
      <trkpt lat="42.72333738394081592559814453125" lon="-8.65069244988262653350830078125">
        <ele>25.6000003814697265625</ele>
        <time>2019-05-04T17:54:50.000Z</time>
      </trkpt>
      <trkpt lat="42.72392143495380878448486328125" lon="-8.6507020890712738037109375">
        <ele>21.799999237060546875</ele>
        <time>2019-05-04T17:55:01.000Z</time>
      </trkpt>
      <trkpt lat="42.72450095973908901214599609375" lon="-8.650780878961086273193359375">
        <ele>18.6000003814697265625</ele>
        <time>2019-05-04T17:55:11.000Z</time>
      </trkpt>
      <trkpt lat="42.72504779510200023651123046875" lon="-8.65095488727092742919921875">
        <ele>17</ele>
        <time>2019-05-04T17:55:21.000Z</time>
      </trkpt>
      <trkpt lat="42.72528483532369136810302734375" lon="-8.65116284228861331939697265625">
        <ele>13.80000019073486328125</ele>
        <time>2019-05-04T17:55:26.000Z</time>
      </trkpt>
      <trkpt lat="42.725550122559070587158203125" lon="-8.6518039740622043609619140625">
        <ele>8.3999996185302734375</ele>
        <time>2019-05-04T17:55:35.000Z</time>
      </trkpt>
      <trkpt lat="42.725562192499637603759765625" lon="-8.6518874578177928924560546875">
        <ele>7.80000019073486328125</ele>
        <time>2019-05-04T17:55:36.000Z</time>
      </trkpt>
      <trkpt lat="42.72559027187526226043701171875" lon="-8.65215626545250415802001953125">
        <ele>7</ele>
        <time>2019-05-04T17:55:39.000Z</time>
      </trkpt>
      <trkpt lat="42.72564073093235492706298828125" lon="-8.65298188291490077972412109375">
        <ele>6.80000019073486328125</ele>
        <time>2019-05-04T17:55:47.000Z</time>
      </trkpt>
      <trkpt lat="42.7256622724235057830810546875" lon="-8.653729967772960662841796875">
        <ele>5.599999904632568359375</ele>
        <time>2019-05-04T17:55:54.000Z</time>
      </trkpt>
      <trkpt lat="42.7256490290164947509765625" lon="-8.6539209075272083282470703125">
        <ele>5</ele>
        <time>2019-05-04T17:55:56.000Z</time>
      </trkpt>
      <trkpt lat="42.72556931711733341217041015625" lon="-8.6547185294330120086669921875">
        <ele>2.7999999523162841796875</ele>
        <time>2019-05-04T17:56:06.000Z</time>
      </trkpt>
      <trkpt lat="42.7255010046064853668212890625" lon="-8.655476756393909454345703125">
        <ele>2.7999999523162841796875</ele>
        <time>2019-05-04T17:56:16.000Z</time>
      </trkpt>
      <trkpt lat="42.725507207214832305908203125" lon="-8.65561782382428646087646484375">
        <ele>3.2000000476837158203125</ele>
        <time>2019-05-04T17:56:18.000Z</time>
      </trkpt>
      <trkpt lat="42.72584390826523303985595703125" lon="-8.65593365393579006195068359375">
        <ele>5.400000095367431640625</ele>
        <time>2019-05-04T17:56:27.000Z</time>
      </trkpt>
      <trkpt lat="42.72638219408690929412841796875" lon="-8.65615510381758213043212890625">
        <ele>6</ele>
        <time>2019-05-04T17:56:36.000Z</time>
      </trkpt>
      <trkpt lat="42.72693389095366001129150390625" lon="-8.6563902162015438079833984375">
        <ele>6</ele>
        <time>2019-05-04T17:56:46.000Z</time>
      </trkpt>
      <trkpt lat="42.7273643016815185546875" lon="-8.65655609406530857086181640625">
        <ele>6.400000095367431640625</ele>
        <time>2019-05-04T17:56:55.000Z</time>
      </trkpt>
      <trkpt lat="42.72752297110855579376220703125" lon="-8.6566071398556232452392578125">
        <ele>6.599999904632568359375</ele>
        <time>2019-05-04T17:56:59.000Z</time>
      </trkpt>
      <trkpt lat="42.7275612764060497283935546875" lon="-8.65662767551839351654052734375">
        <ele>6.599999904632568359375</ele>
        <time>2019-05-04T17:57:00.000Z</time>
      </trkpt>
      <trkpt lat="42.72770502604544162750244140625" lon="-8.65668945014476776123046875">
        <ele>6.599999904632568359375</ele>
        <time>2019-05-04T17:57:07.000Z</time>
      </trkpt>
      <trkpt lat="42.72773469798266887664794921875" lon="-8.65669858641922473907470703125">
        <ele>6.599999904632568359375</ele>
        <time>2019-05-04T18:00:57.000Z</time>
      </trkpt>
      <trkpt lat="42.7282851375639438629150390625" lon="-8.65691768936812877655029296875">
        <ele>6</ele>
        <time>2019-05-04T18:01:16.000Z</time>
      </trkpt>
      <trkpt lat="42.72843182086944580078125" lon="-8.657015673816204071044921875">
        <ele>6</ele>
        <time>2019-05-04T18:01:20.000Z</time>
      </trkpt>
      <trkpt lat="42.72892761044204235076904296875" lon="-8.65721088834106922149658203125">
        <ele>5.599999904632568359375</ele>
        <time>2019-05-04T18:01:33.000Z</time>
      </trkpt>
      <trkpt lat="42.7290079928934574127197265625" lon="-8.65725246258080005645751953125">
        <ele>5.80000019073486328125</ele>
        <time>2019-05-04T18:01:35.000Z</time>
      </trkpt>
      <trkpt lat="42.72916381247341632843017578125" lon="-8.65732521750032901763916015625">
        <ele>6</ele>
        <time>2019-05-04T18:01:38.000Z</time>
      </trkpt>
      <trkpt lat="42.7297264896333217620849609375" lon="-8.65756058134138584136962890625">
        <ele>6.599999904632568359375</ele>
        <time>2019-05-04T18:01:48.000Z</time>
      </trkpt>
      <trkpt lat="42.73026988841593265533447265625" lon="-8.65778303705155849456787109375">
        <ele>6.19999980926513671875</ele>
        <time>2019-05-04T18:01:58.000Z</time>
      </trkpt>
      <trkpt lat="42.730824686586856842041015625" lon="-8.65801672451198101043701171875">
        <ele>4.19999980926513671875</ele>
        <time>2019-05-04T18:02:08.000Z</time>
      </trkpt>
      <trkpt lat="42.73135852999985218048095703125" lon="-8.65821403451263904571533203125">
        <ele>4.80000019073486328125</ele>
        <time>2019-05-04T18:02:18.000Z</time>
      </trkpt>
      <trkpt lat="42.7319171838462352752685546875" lon="-8.65845744498074054718017578125">
        <ele>5.599999904632568359375</ele>
        <time>2019-05-04T18:02:29.000Z</time>
      </trkpt>
      <trkpt lat="42.7324539609253406524658203125" lon="-8.65870035253465175628662109375">
        <ele>4.400000095367431640625</ele>
        <time>2019-05-04T18:02:39.000Z</time>
      </trkpt>
      <trkpt lat="42.7330158837139606475830078125" lon="-8.6589383147656917572021484375">
        <ele>5.19999980926513671875</ele>
        <time>2019-05-04T18:02:49.000Z</time>
      </trkpt>
      <trkpt lat="42.73359172046184539794921875" lon="-8.65918524563312530517578125">
        <ele>6.400000095367431640625</ele>
        <time>2019-05-04T18:02:59.000Z</time>
      </trkpt>
      <trkpt lat="42.7339606918394565582275390625" lon="-8.659325726330280303955078125">
        <ele>6.80000019073486328125</ele>
        <time>2019-05-04T18:03:05.000Z</time>
      </trkpt>
      <trkpt lat="42.7345202676951885223388671875" lon="-8.65955195389688014984130859375">
        <ele>7.599999904632568359375</ele>
        <time>2019-05-04T18:03:14.000Z</time>
      </trkpt>
      <trkpt lat="42.7350785024464130401611328125" lon="-8.65978748537600040435791015625">
        <ele>8.3999996185302734375</ele>
        <time>2019-05-04T18:03:23.000Z</time>
      </trkpt>
      <trkpt lat="42.73563019931316375732421875" lon="-8.65995998494327068328857421875">
        <ele>8.19999980926513671875</ele>
        <time>2019-05-04T18:03:32.000Z</time>
      </trkpt>
      <trkpt lat="42.7359317801892757415771484375" lon="-8.66002921946346759796142578125">
        <ele>8.6000003814697265625</ele>
        <time>2019-05-04T18:03:37.000Z</time>
      </trkpt>
      <trkpt lat="42.73633293807506561279296875" lon="-8.66000206209719181060791015625">
        <ele>9.6000003814697265625</ele>
        <time>2019-05-04T18:03:44.000Z</time>
      </trkpt>
      <trkpt lat="42.73659822531044483184814453125" lon="-8.66016936488449573516845703125">
        <ele>9.80000019073486328125</ele>
        <time>2019-05-04T18:03:49.000Z</time>
      </trkpt>
      <trkpt lat="42.73675899021327495574951171875" lon="-8.66057337261736392974853515625">
        <ele>9.6000003814697265625</ele>
        <time>2019-05-04T18:03:55.000Z</time>
      </trkpt>
      <trkpt lat="42.736785896122455596923828125" lon="-8.6606750451028347015380859375">
        <ele>9.6000003814697265625</ele>
        <time>2019-05-04T18:03:58.000Z</time>
      </trkpt>
      <trkpt lat="42.73700122721493244171142578125" lon="-8.6607523262500762939453125">
        <ele>9.80000019073486328125</ele>
        <time>2019-05-04T18:04:06.000Z</time>
      </trkpt>
      <trkpt lat="42.7374281175434589385986328125" lon="-8.66089557297527790069580078125">
        <ele>11.3999996185302734375</ele>
        <time>2019-05-04T18:04:24.000Z</time>
      </trkpt>
      <trkpt lat="42.73755644448101520538330078125" lon="-8.66088635288178920745849609375">
        <ele>11.80000019073486328125</ele>
        <time>2019-05-04T18:04:28.000Z</time>
      </trkpt>
      <trkpt lat="42.7377486415207386016845703125" lon="-8.6609486304223537445068359375">
        <ele>12.19999980926513671875</ele>
        <time>2019-05-04T18:04:33.000Z</time>
      </trkpt>
      <trkpt lat="42.73806028068065643310546875" lon="-8.66105315275490283966064453125">
        <ele>12.6000003814697265625</ele>
        <time>2019-05-04T18:04:40.000Z</time>
      </trkpt>
      <trkpt lat="42.7381637133657932281494140625" lon="-8.66111484356224536895751953125">
        <ele>12.6000003814697265625</ele>
        <time>2019-05-04T18:04:43.000Z</time>
      </trkpt>
      <trkpt lat="42.73822448216378688812255859375" lon="-8.66123177111148834228515625">
        <ele>12.19999980926513671875</ele>
        <time>2019-05-04T18:04:48.000Z</time>
      </trkpt>
      <trkpt lat="42.7384906075894832611083984375" lon="-8.6611251533031463623046875">
        <ele>12.6000003814697265625</ele>
        <time>2019-05-04T18:04:58.000Z</time>
      </trkpt>
      <trkpt lat="42.7385268174111843109130859375" lon="-8.6612466908991336822509765625">
        <ele>12.19999980926513671875</ele>
        <time>2019-05-04T18:05:03.000Z</time>
      </trkpt>
      <trkpt lat="42.73857333697378635406494140625" lon="-8.66140544414520263671875">
        <ele>11.6000003814697265625</ele>
        <time>2019-05-04T18:05:08.000Z</time>
      </trkpt>
      <trkpt lat="42.7386656217277050018310546875" lon="-8.66145263426005840301513671875">
        <ele>11.3999996185302734375</ele>
        <time>2019-05-04T18:05:12.000Z</time>
      </trkpt>
      <trkpt lat="42.73897265084087848663330078125" lon="-8.6614793725311756134033203125">
        <ele>11.3999996185302734375</ele>
        <time>2019-05-04T18:05:19.000Z</time>
      </trkpt>
      <trkpt lat="42.73904331028461456298828125" lon="-8.66131550632417201995849609375">
        <ele>12</ele>
        <time>2019-05-04T18:05:25.000Z</time>
      </trkpt>
      <trkpt lat="42.73904607631266117095947265625" lon="-8.66129958070814609527587890625">
        <ele>12</ele>
        <time>2019-05-04T18:05:28.000Z</time>
      </trkpt>
      <trkpt lat="42.739062421023845672607421875" lon="-8.6614545620977878570556640625">
        <ele>11.3999996185302734375</ele>
        <time>2019-05-04T18:10:19.000Z</time>
      </trkpt>
      <trkpt lat="42.73905646987259387969970703125" lon="-8.66146537475287914276123046875">
        <ele>11.3999996185302734375</ele>
        <time>2019-05-04T18:10:21.000Z</time>
      </trkpt>
      <trkpt lat="42.739027552306652069091796875" lon="-8.66148264147341251373291015625">
        <ele>11.3999996185302734375</ele>
        <time>2019-05-04T18:10:25.000Z</time>
      </trkpt>
      <trkpt lat="42.73875924758613109588623046875" lon="-8.6615531332790851593017578125">
        <ele>11.19999980926513671875</ele>
        <time>2019-05-04T18:10:34.000Z</time>
      </trkpt>
      <trkpt lat="42.7385576628148555755615234375" lon="-8.6615487746894359588623046875">
        <ele>11.19999980926513671875</ele>
        <time>2019-05-04T18:10:38.000Z</time>
      </trkpt>
      <trkpt lat="42.73800957016646862030029296875" lon="-8.6615269817411899566650390625">
        <ele>11.19999980926513671875</ele>
        <time>2019-05-04T18:10:48.000Z</time>
      </trkpt>
      <trkpt lat="42.73743373341858386993408203125" lon="-8.66148683242499828338623046875">
        <ele>10.80000019073486328125</ele>
        <time>2019-05-04T18:10:59.000Z</time>
      </trkpt>
      <trkpt lat="42.736957557499408721923828125" lon="-8.66141508333384990692138671875">
        <ele>10</ele>
        <time>2019-05-04T18:11:13.000Z</time>
      </trkpt>
      <trkpt lat="42.7367817051708698272705078125" lon="-8.66139010526239871978759765625">
        <ele>9.19999980926513671875</ele>
        <time>2019-05-04T18:11:17.000Z</time>
      </trkpt>
      <trkpt lat="42.73670417256653308868408203125" lon="-8.661012835800647735595703125">
        <ele>9</ele>
        <time>2019-05-04T18:11:23.000Z</time>
      </trkpt>
      <trkpt lat="42.7364943735301494598388671875" lon="-8.66044479422271251678466796875">
        <ele>9.19999980926513671875</ele>
        <time>2019-05-04T18:11:39.000Z</time>
      </trkpt>
      <trkpt lat="42.73592649959027767181396484375" lon="-8.660202808678150177001953125">
        <ele>9</ele>
        <time>2019-05-04T18:11:49.000Z</time>
      </trkpt>
      <trkpt lat="42.7358794771134853363037109375" lon="-8.66018512286245822906494140625">
        <ele>9</ele>
        <time>2019-05-04T18:11:50.000Z</time>
      </trkpt>
      <trkpt lat="42.73535267449915409088134765625" lon="-8.65998093970119953155517578125">
        <ele>8.19999980926513671875</ele>
        <time>2019-05-04T18:12:01.000Z</time>
      </trkpt>
      <trkpt lat="42.7348075993359088897705078125" lon="-8.6597594060003757476806640625">
        <ele>8.19999980926513671875</ele>
        <time>2019-05-04T18:12:10.000Z</time>
      </trkpt>
      <trkpt lat="42.7342522144317626953125" lon="-8.65953586064279079437255859375">
        <ele>7.19999980926513671875</ele>
        <time>2019-05-04T18:12:20.000Z</time>
      </trkpt>
      <trkpt lat="42.7341595105826854705810546875" lon="-8.65950644016265869140625">
        <ele>7.19999980926513671875</ele>
        <time>2019-05-04T18:12:22.000Z</time>
      </trkpt>
      <trkpt lat="42.73405171930789947509765625" lon="-8.6594771035015583038330078125">
        <ele>7.19999980926513671875</ele>
        <time>2019-05-04T18:12:28.000Z</time>
      </trkpt>
      <trkpt lat="42.73407862521708011627197265625" lon="-8.65949428640305995941162109375">
        <ele>7.19999980926513671875</ele>
        <time>2019-05-04T18:12:47.000Z</time>
      </trkpt>
      <trkpt lat="42.73426805622875690460205078125" lon="-8.6595599167048931121826171875">
        <ele>7.400000095367431640625</ele>
        <time>2019-05-04T18:12:58.000Z</time>
      </trkpt>
      <trkpt lat="42.73427434265613555908203125" lon="-8.6595733277499675750732421875">
        <ele>7.400000095367431640625</ele>
        <time>2019-05-04T18:13:12.000Z</time>
      </trkpt>
      <trkpt lat="42.7342564053833484649658203125" lon="-8.65958984009921550750732421875">
        <ele>7.400000095367431640625</ele>
        <time>2019-05-04T18:13:15.000Z</time>
      </trkpt>
      <trkpt lat="42.73415221832692623138427734375" lon="-8.65950853563845157623291015625">
        <ele>7.19999980926513671875</ele>
        <time>2019-05-04T18:13:22.000Z</time>
      </trkpt>
      <trkpt lat="42.734045684337615966796875" lon="-8.659476935863494873046875">
        <ele>7.19999980926513671875</ele>
        <time>2019-05-04T18:13:31.000Z</time>
      </trkpt>
      <trkpt lat="42.7346835471689701080322265625" lon="-8.65962512791156768798828125">
        <ele>7.80000019073486328125</ele>
        <time>2019-05-05T06:45:08.000Z</time>
      </trkpt>
      <trkpt lat="42.7346835471689701080322265625" lon="-8.65962512791156768798828125">
        <ele>7.80000019073486328125</ele>
        <time>2019-05-05T06:45:09.000Z</time>
      </trkpt>
      <trkpt lat="42.73468681611120700836181640625" lon="-8.659658990800380706787109375">
        <ele>8</ele>
        <time>2019-05-05T06:45:52.000Z</time>
      </trkpt>
      <trkpt lat="42.73497062735259532928466796875" lon="-8.6598028242588043212890625">
        <ele>8.3999996185302734375</ele>
        <time>2019-05-05T06:46:02.000Z</time>
      </trkpt>
      <trkpt lat="42.7352883853018283843994140625" lon="-8.65988798439502716064453125">
        <ele>8</ele>
        <time>2019-05-05T06:46:14.000Z</time>
      </trkpt>
      <trkpt lat="42.735344879329204559326171875" lon="-8.65991036407649517059326171875">
        <ele>8</ele>
        <time>2019-05-05T06:46:46.000Z</time>
      </trkpt>
      <trkpt lat="42.7353447116911411285400390625" lon="-8.65991036407649517059326171875">
        <ele>8</ele>
        <time>2019-05-05T06:46:47.000Z</time>
      </trkpt>
      <trkpt lat="42.73539341054856777191162109375" lon="-8.65993416868150234222412109375">
        <ele>8</ele>
        <time>2019-05-05T06:46:51.000Z</time>
      </trkpt>
      <trkpt lat="42.7359203808009624481201171875" lon="-8.6600054986774921417236328125">
        <ele>8.6000003814697265625</ele>
        <time>2019-05-05T06:47:07.000Z</time>
      </trkpt>
      <trkpt lat="42.73612665943801403045654296875" lon="-8.659987561404705047607421875">
        <ele>9.3999996185302734375</ele>
        <time>2019-05-05T06:47:12.000Z</time>
      </trkpt>
      <trkpt lat="42.7362234704196453094482421875" lon="-8.6600068397819995880126953125">
        <ele>9.3999996185302734375</ele>
        <time>2019-05-05T06:47:14.000Z</time>
      </trkpt>
      <trkpt lat="42.73660786449909210205078125" lon="-8.66025771014392375946044921875">
        <ele>9.80000019073486328125</ele>
        <time>2019-05-05T06:47:25.000Z</time>
      </trkpt>
      <trkpt lat="42.73660786449909210205078125" lon="-8.6602576263248920440673828125">
        <ele>9.80000019073486328125</ele>
        <time>2019-05-05T06:47:26.000Z</time>
      </trkpt>
      <trkpt lat="42.7366351895034313201904296875" lon="-8.66028034128248691558837890625">
        <ele>9.80000019073486328125</ele>
        <time>2019-05-05T06:49:41.000Z</time>
      </trkpt>
      <trkpt lat="42.73669411428272724151611328125" lon="-8.6610312759876251220703125">
        <ele>9</ele>
        <time>2019-05-05T06:50:04.000Z</time>
      </trkpt>
      <trkpt lat="42.73671842180192470550537109375" lon="-8.66133159957826137542724609375">
        <ele>9</ele>
        <time>2019-05-05T06:50:10.000Z</time>
      </trkpt>
      <trkpt lat="42.73682646453380584716796875" lon="-8.6614592559635639190673828125">
        <ele>9.3999996185302734375</ele>
        <time>2019-05-05T06:50:15.000Z</time>
      </trkpt>
      <trkpt lat="42.73736567236483097076416015625" lon="-8.6614652909338474273681640625">
        <ele>10.80000019073486328125</ele>
        <time>2019-05-05T06:50:30.000Z</time>
      </trkpt>
      <trkpt lat="42.7379078976809978485107421875" lon="-8.66149328649044036865234375">
        <ele>11.3999996185302734375</ele>
        <time>2019-05-05T06:50:45.000Z</time>
      </trkpt>
      <trkpt lat="42.73810126818716526031494140625" lon="-8.6614297516644001007080078125">
        <ele>11.6000003814697265625</ele>
        <time>2019-05-05T06:50:52.000Z</time>
      </trkpt>
      <trkpt lat="42.7381818182766437530517578125" lon="-8.661441989243030548095703125">
        <ele>11.6000003814697265625</ele>
        <time>2019-05-05T06:50:59.000Z</time>
      </trkpt>
      <trkpt lat="42.73847174830734729766845703125" lon="-8.66150661371648311614990234375">
        <ele>11.19999980926513671875</ele>
        <time>2019-05-05T06:51:05.000Z</time>
      </trkpt>
      <trkpt lat="42.73892470635473728179931640625" lon="-8.66149471141397953033447265625">
        <ele>11.3999996185302734375</ele>
        <time>2019-05-05T06:51:16.000Z</time>
      </trkpt>
      <trkpt lat="42.73896678350865840911865234375" lon="-8.66137250326573848724365234375">
        <ele>11.80000019073486328125</ele>
        <time>2019-05-05T06:51:20.000Z</time>
      </trkpt>
      <trkpt lat="42.73896594531834125518798828125" lon="-8.66130150854587554931640625">
        <ele>12</ele>
        <time>2019-05-05T06:51:25.000Z</time>
      </trkpt>
      <trkpt lat="42.73897382430732250213623046875" lon="-8.661302514374256134033203125">
        <ele>12</ele>
        <time>2019-05-05T06:51:32.000Z</time>
      </trkpt>
      <trkpt lat="42.7390039153397083282470703125" lon="-8.66129438392817974090576171875">
        <ele>12</ele>
        <time>2019-05-05T06:51:36.000Z</time>
      </trkpt>
      <trkpt lat="42.739142887294292449951171875" lon="-8.661266304552555084228515625">
        <ele>12.19999980926513671875</ele>
        <time>2019-05-05T07:00:59.000Z</time>
      </trkpt>
      <trkpt lat="42.73962543345987796783447265625" lon="-8.661311231553554534912109375">
        <ele>10</ele>
        <time>2019-05-05T07:01:22.000Z</time>
      </trkpt>
      <trkpt lat="42.73961596190929412841796875" lon="-8.66130259819328784942626953125">
        <ele>10</ele>
        <time>2019-05-05T07:01:23.000Z</time>
      </trkpt>
      <trkpt lat="42.73963632993400096893310546875" lon="-8.66127259097993373870849609375">
        <ele>10</ele>
        <time>2019-05-05T07:01:25.000Z</time>
      </trkpt>
      <trkpt lat="42.73968360386788845062255859375" lon="-8.66106639616191387176513671875">
        <ele>10.6000003814697265625</ele>
        <time>2019-05-05T07:01:32.000Z</time>
      </trkpt>
      <trkpt lat="42.74000932462513446807861328125" lon="-8.66050967015326023101806640625">
        <ele>8.6000003814697265625</ele>
        <time>2019-05-05T07:01:55.000Z</time>
      </trkpt>
      <trkpt lat="42.74008224718272686004638671875" lon="-8.66020423360168933868408203125">
        <ele>7.80000019073486328125</ele>
        <time>2019-05-05T07:02:03.000Z</time>
      </trkpt>
      <trkpt lat="42.74016975425183773040771484375" lon="-8.66016467101871967315673828125">
        <ele>7.599999904632568359375</ele>
        <time>2019-05-05T07:02:08.000Z</time>
      </trkpt>
      <trkpt lat="42.74036086164414882659912109375" lon="-8.66006190888583660125732421875">
        <ele>7.19999980926513671875</ele>
        <time>2019-05-05T07:02:18.000Z</time>
      </trkpt>
      <trkpt lat="42.74082270450890064239501953125" lon="-8.65968908183276653289794921875">
        <ele>6.400000095367431640625</ele>
        <time>2019-05-05T07:02:37.000Z</time>
      </trkpt>
      <trkpt lat="42.74088506586849689483642578125" lon="-8.6596266366541385650634765625">
        <ele>6.400000095367431640625</ele>
        <time>2019-05-05T07:02:40.000Z</time>
      </trkpt>
      <trkpt lat="42.74091909639537334442138671875" lon="-8.6595947854220867156982421875">
        <ele>6.400000095367431640625</ele>
        <time>2019-05-05T07:02:42.000Z</time>
      </trkpt>
      <trkpt lat="42.741440199315547943115234375" lon="-8.659380041062831878662109375">
        <ele>7</ele>
        <time>2019-05-05T07:03:00.000Z</time>
      </trkpt>
      <trkpt lat="42.74193179793655872344970703125" lon="-8.65906245075166225433349609375">
        <ele>7.400000095367431640625</ele>
        <time>2019-05-05T07:03:15.000Z</time>
      </trkpt>
      <trkpt lat="42.7423670701682567596435546875" lon="-8.65862575359642505645751953125">
        <ele>8</ele>
        <time>2019-05-05T07:03:30.000Z</time>
      </trkpt>
      <trkpt lat="42.74283989332616329193115234375" lon="-8.6582283675670623779296875">
        <ele>7</ele>
        <time>2019-05-05T07:03:47.000Z</time>
      </trkpt>
      <trkpt lat="42.7432639338076114654541015625" lon="-8.657731823623180389404296875">
        <ele>5.19999980926513671875</ele>
        <time>2019-05-05T07:04:05.000Z</time>
      </trkpt>
      <trkpt lat="42.74374790489673614501953125" lon="-8.65738908760249614715576171875">
        <ele>5.80000019073486328125</ele>
        <time>2019-05-05T07:04:22.000Z</time>
      </trkpt>
      <trkpt lat="42.74429180659353733062744140625" lon="-8.65715858526527881622314453125">
        <ele>6.19999980926513671875</ele>
        <time>2019-05-05T07:04:39.000Z</time>
      </trkpt>
      <trkpt lat="42.74458165280520915985107421875" lon="-8.65653388202190399169921875">
        <ele>7.80000019073486328125</ele>
        <time>2019-05-05T07:04:55.000Z</time>
      </trkpt>
      <trkpt lat="42.744892872869968414306640625" lon="-8.65593197755515575408935546875">
        <ele>8.6000003814697265625</ele>
        <time>2019-05-05T07:05:11.000Z</time>
      </trkpt>
      <trkpt lat="42.7452397160232067108154296875" lon="-8.655367456376552581787109375">
        <ele>9.3999996185302734375</ele>
        <time>2019-05-05T07:05:29.000Z</time>
      </trkpt>
      <trkpt lat="42.74554104544222354888916015625" lon="-8.65474887192249298095703125">
        <ele>10.80000019073486328125</ele>
        <time>2019-05-05T07:05:54.000Z</time>
      </trkpt>
      <trkpt lat="42.7455885708332061767578125" lon="-8.65463965572416782379150390625">
        <ele>11</ele>
        <time>2019-05-05T07:06:02.000Z</time>
      </trkpt>
      <trkpt lat="42.74559787474572658538818359375" lon="-8.65458215586841106414794921875">
        <ele>11.19999980926513671875</ele>
        <time>2019-05-05T07:06:24.000Z</time>
      </trkpt>
      <trkpt lat="42.74558614008128643035888671875" lon="-8.65434545092284679412841796875">
        <ele>11.80000019073486328125</ele>
        <time>2019-05-05T07:06:34.000Z</time>
      </trkpt>
      <trkpt lat="42.7456510998308658599853515625" lon="-8.65385678596794605255126953125">
        <ele>14.19999980926513671875</ele>
        <time>2019-05-05T07:06:43.000Z</time>
      </trkpt>
      <trkpt lat="42.74571723304688930511474609375" lon="-8.65371144376695156097412109375">
        <ele>15</ele>
        <time>2019-05-05T07:06:47.000Z</time>
      </trkpt>
      <trkpt lat="42.7461545169353485107421875" lon="-8.65326317958533763885498046875">
        <ele>17.200000762939453125</ele>
        <time>2019-05-05T07:07:11.000Z</time>
      </trkpt>
      <trkpt lat="42.746646702289581298828125" lon="-8.65293611772358417510986328125">
        <ele>18.3999996185302734375</ele>
        <time>2019-05-05T07:07:31.000Z</time>
      </trkpt>
      <trkpt lat="42.74718356318771839141845703125" lon="-8.65280561149120330810546875">
        <ele>19.200000762939453125</ele>
        <time>2019-05-05T07:07:51.000Z</time>
      </trkpt>
      <trkpt lat="42.74770818650722503662109375" lon="-8.65266320295631885528564453125">
        <ele>20.6000003814697265625</ele>
        <time>2019-05-05T07:08:06.000Z</time>
      </trkpt>
      <trkpt lat="42.74821889586746692657470703125" lon="-8.65236145444214344024658203125">
        <ele>24.3999996185302734375</ele>
        <time>2019-05-05T07:08:23.000Z</time>
      </trkpt>
      <trkpt lat="42.74875533767044544219970703125" lon="-8.652336560189723968505859375">
        <ele>25</ele>
        <time>2019-05-05T07:08:42.000Z</time>
      </trkpt>
      <trkpt lat="42.74883605539798736572265625" lon="-8.652428425848484039306640625">
        <ele>24.6000003814697265625</ele>
        <time>2019-05-05T07:08:46.000Z</time>
      </trkpt>
      <trkpt lat="42.7488472871482372283935546875" lon="-8.6526260711252689361572265625">
        <ele>23.6000003814697265625</ele>
        <time>2019-05-05T07:08:50.000Z</time>
      </trkpt>
      <trkpt lat="42.74886983446776866912841796875" lon="-8.65341103635728359222412109375">
        <ele>17.6000003814697265625</ele>
        <time>2019-05-05T07:09:01.000Z</time>
      </trkpt>
      <trkpt lat="42.74888291023671627044677734375" lon="-8.6535510979592800140380859375">
        <ele>16.799999237060546875</ele>
        <time>2019-05-05T07:09:03.000Z</time>
      </trkpt>
      <trkpt lat="42.74892331101000308990478515625" lon="-8.6537552811205387115478515625">
        <ele>16.3999996185302734375</ele>
        <time>2019-05-05T07:09:06.000Z</time>
      </trkpt>
      <trkpt lat="42.74890755303204059600830078125" lon="-8.6543443612754344940185546875">
        <ele>13.80000019073486328125</ele>
        <time>2019-05-05T07:09:15.000Z</time>
      </trkpt>
      <trkpt lat="42.74892783723771572113037109375" lon="-8.654523231089115142822265625">
        <ele>13.3999996185302734375</ele>
        <time>2019-05-05T07:09:19.000Z</time>
      </trkpt>
      <trkpt lat="42.74906538426876068115234375" lon="-8.65452851168811321258544921875">
        <ele>13.6000003814697265625</ele>
        <time>2019-05-05T07:09:23.000Z</time>
      </trkpt>
      <trkpt lat="42.74958833120763301849365234375" lon="-8.65433505736291408538818359375">
        <ele>15</ele>
        <time>2019-05-05T07:09:38.000Z</time>
      </trkpt>
      <trkpt lat="42.75011756457388401031494140625" lon="-8.65413598716259002685546875">
        <ele>16.3999996185302734375</ele>
        <time>2019-05-05T07:09:54.000Z</time>
      </trkpt>
      <trkpt lat="42.75063942186534404754638671875" lon="-8.6539232544600963592529296875">
        <ele>17.799999237060546875</ele>
        <time>2019-05-05T07:10:17.000Z</time>
      </trkpt>
      <trkpt lat="42.7511630393564701080322265625" lon="-8.65372954867780208587646484375">
        <ele>18.200000762939453125</ele>
        <time>2019-05-05T07:10:35.000Z</time>
      </trkpt>
      <trkpt lat="42.7516986429691314697265625" lon="-8.653537519276142120361328125">
        <ele>18</ele>
        <time>2019-05-05T07:10:52.000Z</time>
      </trkpt>
      <trkpt lat="42.75185379199683666229248046875" lon="-8.6535437218844890594482421875">
        <ele>17.3999996185302734375</ele>
        <time>2019-05-05T07:10:58.000Z</time>
      </trkpt>
      <trkpt lat="42.7520823664963245391845703125" lon="-8.65349032916128635406494140625">
        <ele>17</ele>
        <time>2019-05-05T07:11:04.000Z</time>
      </trkpt>
      <trkpt lat="42.75260514579713344573974609375" lon="-8.653216995298862457275390625">
        <ele>17</ele>
        <time>2019-05-05T07:11:19.000Z</time>
      </trkpt>
      <trkpt lat="42.7531658113002777099609375" lon="-8.6530569009482860565185546875">
        <ele>16.6000003814697265625</ele>
        <time>2019-05-05T07:11:35.000Z</time>
      </trkpt>
      <trkpt lat="42.75370560586452484130859375" lon="-8.65286939777433872222900390625">
        <ele>16.3999996185302734375</ele>
        <time>2019-05-05T07:11:56.000Z</time>
      </trkpt>
      <trkpt lat="42.7540856413543224334716796875" lon="-8.65284861065447330474853515625">
        <ele>15.19999980926513671875</ele>
        <time>2019-05-05T07:12:08.000Z</time>
      </trkpt>
      <trkpt lat="42.75421497412025928497314453125" lon="-8.65272204391658306121826171875">
        <ele>15.80000019073486328125</ele>
        <time>2019-05-05T07:12:13.000Z</time>
      </trkpt>
      <trkpt lat="42.75472090579569339752197265625" lon="-8.652429096400737762451171875">
        <ele>19.3999996185302734375</ele>
        <time>2019-05-05T07:12:32.000Z</time>
      </trkpt>
      <trkpt lat="42.7552373148500919342041015625" lon="-8.65220001898705959320068359375">
        <ele>21.3999996185302734375</ele>
        <time>2019-05-05T07:12:52.000Z</time>
      </trkpt>
      <trkpt lat="42.75576361455023288726806640625" lon="-8.65205752663314342498779296875">
        <ele>21.3999996185302734375</ele>
        <time>2019-05-05T07:13:08.000Z</time>
      </trkpt>
      <trkpt lat="42.7560580708086490631103515625" lon="-8.65225265733897686004638671875">
        <ele>22</ele>
        <time>2019-05-05T07:13:22.000Z</time>
      </trkpt>
      <trkpt lat="42.756532989442348480224609375" lon="-8.65187077783048152923583984375">
        <ele>22</ele>
        <time>2019-05-05T07:13:44.000Z</time>
      </trkpt>
      <trkpt lat="42.757060043513774871826171875" lon="-8.65168486721813678741455078125">
        <ele>22.3999996185302734375</ele>
        <time>2019-05-05T07:14:04.000Z</time>
      </trkpt>
      <trkpt lat="42.75752247311174869537353515625" lon="-8.65148336626589298248291015625">
        <ele>23</ele>
        <time>2019-05-05T07:14:22.000Z</time>
      </trkpt>
      <trkpt lat="42.75763412006199359893798828125" lon="-8.65146710537374019622802734375">
        <ele>23.6000003814697265625</ele>
        <time>2019-05-05T07:14:26.000Z</time>
      </trkpt>
      <trkpt lat="42.75788985192775726318359375" lon="-8.6514370143413543701171875">
        <ele>25</ele>
        <time>2019-05-05T07:14:37.000Z</time>
      </trkpt>
      <trkpt lat="42.75792849250137805938720703125" lon="-8.65142821334302425384521484375">
        <ele>25.3999996185302734375</ele>
        <time>2019-05-05T07:14:43.000Z</time>
      </trkpt>
      <trkpt lat="42.75794207118451595306396484375" lon="-8.65142217837274074554443359375">
        <ele>25.3999996185302734375</ele>
        <time>2019-05-05T07:14:44.000Z</time>
      </trkpt>
      <trkpt lat="42.75848538614809513092041015625" lon="-8.65133618004620075225830078125">
        <ele>25.6000003814697265625</ele>
        <time>2019-05-05T07:15:04.000Z</time>
      </trkpt>
      <trkpt lat="42.7587952651083469390869140625" lon="-8.65129980258643627166748046875">
        <ele>28.6000003814697265625</ele>
        <time>2019-05-05T07:15:16.000Z</time>
      </trkpt>
      <trkpt lat="42.75893717072904109954833984375" lon="-8.6512936837971210479736328125">
        <ele>29.799999237060546875</ele>
        <time>2019-05-05T07:15:24.000Z</time>
      </trkpt>
      <trkpt lat="42.758982516825199127197265625" lon="-8.6512842960655689239501953125">
        <ele>30</ele>
        <time>2019-05-05T07:15:27.000Z</time>
      </trkpt>
      <trkpt lat="42.75953941047191619873046875" lon="-8.6512910015881061553955078125">
        <ele>32.200000762939453125</ele>
        <time>2019-05-05T07:15:52.000Z</time>
      </trkpt>
      <trkpt lat="42.75988315232098102569580078125" lon="-8.65130382589995861053466796875">
        <ele>33.200000762939453125</ele>
        <time>2019-05-05T07:16:08.000Z</time>
      </trkpt>
      <trkpt lat="42.75992095470428466796875" lon="-8.65129326470196247100830078125">
        <ele>33.40000152587890625</ele>
        <time>2019-05-05T07:16:10.000Z</time>
      </trkpt>
      <trkpt lat="42.759981639683246612548828125" lon="-8.65166458301246166229248046875">
        <ele>25.799999237060546875</ele>
        <time>2019-05-05T07:16:18.000Z</time>
      </trkpt>
      <trkpt lat="42.76003830134868621826171875" lon="-8.6524292640388011932373046875">
        <ele>18.6000003814697265625</ele>
        <time>2019-05-05T07:16:29.000Z</time>
      </trkpt>
      <trkpt lat="42.76009068824350833892822265625" lon="-8.65317785181105136871337890625">
        <ele>14.80000019073486328125</ele>
        <time>2019-05-05T07:16:40.000Z</time>
      </trkpt>
      <trkpt lat="42.76012656278908252716064453125" lon="-8.65345026366412639617919921875">
        <ele>13.6000003814697265625</ele>
        <time>2019-05-05T07:16:47.000Z</time>
      </trkpt>
      <trkpt lat="42.76030275039374828338623046875" lon="-8.6534884013235569000244140625">
        <ele>12.80000019073486328125</ele>
        <time>2019-05-05T07:16:52.000Z</time>
      </trkpt>
      <trkpt lat="42.76085008867084980010986328125" lon="-8.653573058545589447021484375">
        <ele>10.80000019073486328125</ele>
        <time>2019-05-05T07:17:08.000Z</time>
      </trkpt>
      <trkpt lat="42.76140714995563030242919921875" lon="-8.6536520160734653472900390625">
        <ele>12</ele>
        <time>2019-05-05T07:17:27.000Z</time>
      </trkpt>
      <trkpt lat="42.76195750571787357330322265625" lon="-8.65378805436193943023681640625">
        <ele>13.19999980926513671875</ele>
        <time>2019-05-05T07:17:43.000Z</time>
      </trkpt>
      <trkpt lat="42.76250920258462429046630859375" lon="-8.653776906430721282958984375">
        <ele>15.19999980926513671875</ele>
        <time>2019-05-05T07:18:01.000Z</time>
      </trkpt>
      <trkpt lat="42.762900888919830322265625" lon="-8.65367942489683628082275390625">
        <ele>15.3999996185302734375</ele>
        <time>2019-05-05T07:18:17.000Z</time>
      </trkpt>
      <trkpt lat="42.7629848755896091461181640625" lon="-8.65380615927278995513916015625">
        <ele>14.3999996185302734375</ele>
        <time>2019-05-05T07:18:22.000Z</time>
      </trkpt>
      <trkpt lat="42.763351500034332275390625" lon="-8.65434528328478336334228515625">
        <ele>12</ele>
        <time>2019-05-05T07:18:48.000Z</time>
      </trkpt>
      <trkpt lat="42.76339734904468059539794921875" lon="-8.6543963290750980377197265625">
        <ele>12</ele>
        <time>2019-05-05T07:18:50.000Z</time>
      </trkpt>
      <trkpt lat="42.76356096379458904266357421875" lon="-8.6544489674270153045654296875">
        <ele>12</ele>
        <time>2019-05-05T07:18:57.000Z</time>
      </trkpt>
      <trkpt lat="42.76407393626868724822998046875" lon="-8.65465071983635425567626953125">
        <ele>12.19999980926513671875</ele>
        <time>2019-05-05T07:19:19.000Z</time>
      </trkpt>
      <trkpt lat="42.764126993715763092041015625" lon="-8.65466530434787273406982421875">
        <ele>12.19999980926513671875</ele>
        <time>2019-05-05T07:19:21.000Z</time>
      </trkpt>
      <trkpt lat="42.76420067064464092254638671875" lon="-8.65483545698225498199462890625">
        <ele>11.80000019073486328125</ele>
        <time>2019-05-05T07:19:29.000Z</time>
      </trkpt>
      <trkpt lat="42.764294631779193878173828125" lon="-8.65486462600529193878173828125">
        <ele>11.6000003814697265625</ele>
        <time>2019-05-05T07:19:33.000Z</time>
      </trkpt>
      <trkpt lat="42.7644641138613224029541015625" lon="-8.65497409366071224212646484375">
        <ele>11.3999996185302734375</ele>
        <time>2019-05-05T07:19:40.000Z</time>
      </trkpt>
      <trkpt lat="42.76453376747667789459228515625" lon="-8.65500192157924175262451171875">
        <ele>11.3999996185302734375</ele>
        <time>2019-05-05T07:19:43.000Z</time>
      </trkpt>
      <trkpt lat="42.764684222638607025146484375" lon="-8.65517995320260524749755859375">
        <ele>11.6000003814697265625</ele>
        <time>2019-05-05T07:19:50.000Z</time>
      </trkpt>
      <trkpt lat="42.765182442963123321533203125" lon="-8.655378520488739013671875">
        <ele>11.6000003814697265625</ele>
        <time>2019-05-05T07:20:07.000Z</time>
      </trkpt>
      <trkpt lat="42.76533457450568675994873046875" lon="-8.655322529375553131103515625">
        <ele>11.6000003814697265625</ele>
        <time>2019-05-05T07:20:13.000Z</time>
      </trkpt>
      <trkpt lat="42.76534195058047771453857421875" lon="-8.6551520414650440216064453125">
        <ele>12.19999980926513671875</ele>
        <time>2019-05-05T07:20:18.000Z</time>
      </trkpt>
      <trkpt lat="42.76552182622253894805908203125" lon="-8.6550806276500225067138671875">
        <ele>12.3999996185302734375</ele>
        <time>2019-05-05T07:20:27.000Z</time>
      </trkpt>
      <trkpt lat="42.76556574739515781402587890625" lon="-8.6550598405301570892333984375">
        <ele>12.3999996185302734375</ele>
        <time>2019-05-05T07:20:29.000Z</time>
      </trkpt>
      <trkpt lat="42.76563741266727447509765625" lon="-8.65489102900028228759765625">
        <ele>13</ele>
        <time>2019-05-05T07:20:34.000Z</time>
      </trkpt>
      <trkpt lat="42.76584587059915065765380859375" lon="-8.65421469323337078094482421875">
        <ele>15.19999980926513671875</ele>
        <time>2019-05-05T07:20:54.000Z</time>
      </trkpt>
      <trkpt lat="42.76628407649695873260498046875" lon="-8.65413372404873371124267578125">
        <ele>16.200000762939453125</ele>
        <time>2019-05-05T07:21:13.000Z</time>
      </trkpt>
      <trkpt lat="42.76646898128092288970947265625" lon="-8.65423095412552356719970703125">
        <ele>16.6000003814697265625</ele>
        <time>2019-05-05T07:21:23.000Z</time>
      </trkpt>
      <trkpt lat="42.7666331827640533447265625" lon="-8.6549491994082927703857421875">
        <ele>14.6000003814697265625</ele>
        <time>2019-05-05T07:21:41.000Z</time>
      </trkpt>
      <trkpt lat="42.7667429856956005096435546875" lon="-8.65513871423900127410888671875">
        <ele>14.19999980926513671875</ele>
        <time>2019-05-05T07:21:46.000Z</time>
      </trkpt>
      <trkpt lat="42.76691372506320476531982421875" lon="-8.65535044111311435699462890625">
        <ele>12.80000019073486328125</ele>
        <time>2019-05-05T07:21:51.000Z</time>
      </trkpt>
      <trkpt lat="42.76719988323748111724853515625" lon="-8.65534122101962566375732421875">
        <ele>12.6000003814697265625</ele>
        <time>2019-05-05T07:22:01.000Z</time>
      </trkpt>
      <trkpt lat="42.7676653303205966949462890625" lon="-8.65495280362665653228759765625">
        <ele>13.80000019073486328125</ele>
        <time>2019-05-05T07:22:16.000Z</time>
      </trkpt>
      <trkpt lat="42.76814796030521392822265625" lon="-8.65458198823034763336181640625">
        <ele>14.3999996185302734375</ele>
        <time>2019-05-05T07:22:34.000Z</time>
      </trkpt>
      <trkpt lat="42.7686488628387451171875" lon="-8.6542079038918018341064453125">
        <ele>15.3999996185302734375</ele>
        <time>2019-05-05T07:22:50.000Z</time>
      </trkpt>
      <trkpt lat="42.76915152557194232940673828125" lon="-8.6538330651819705963134765625">
        <ele>16</ele>
        <time>2019-05-05T07:23:06.000Z</time>
      </trkpt>
      <trkpt lat="42.76963817887008190155029296875" lon="-8.65342696197330951690673828125">
        <ele>17.200000762939453125</ele>
        <time>2019-05-05T07:23:22.000Z</time>
      </trkpt>
      <trkpt lat="42.76989935897290706634521484375" lon="-8.653125800192356109619140625">
        <ele>18.200000762939453125</ele>
        <time>2019-05-05T07:23:33.000Z</time>
      </trkpt>
      <trkpt lat="42.7702865190804004669189453125" lon="-8.65363986231386661529541015625">
        <ele>19</ele>
        <time>2019-05-05T07:23:54.000Z</time>
      </trkpt>
      <trkpt lat="42.7703046239912509918212890625" lon="-8.6536432988941669464111328125">
        <ele>19</ele>
        <time>2019-05-05T07:23:55.000Z</time>
      </trkpt>
      <trkpt lat="42.77041300199925899505615234375" lon="-8.6536634154617786407470703125">
        <ele>19.3999996185302734375</ele>
        <time>2019-05-05T07:24:01.000Z</time>
      </trkpt>
      <trkpt lat="42.77041115798056125640869140625" lon="-8.65368126891553401947021484375">
        <ele>19.6000003814697265625</ele>
        <time>2019-05-05T07:24:02.000Z</time>
      </trkpt>
      <trkpt lat="42.77043345384299755096435546875" lon="-8.6538474820554256439208984375">
        <ele>19.799999237060546875</ele>
        <time>2019-05-05T07:24:07.000Z</time>
      </trkpt>
      <trkpt lat="42.7703575976192951202392578125" lon="-8.654149062931537628173828125">
        <ele>19.799999237060546875</ele>
        <time>2019-05-05T07:24:17.000Z</time>
      </trkpt>
      <trkpt lat="42.770391963422298431396484375" lon="-8.654288537800312042236328125">
        <ele>20.200000762939453125</ele>
        <time>2019-05-05T07:24:23.000Z</time>
      </trkpt>
      <trkpt lat="42.7709198556840419769287109375" lon="-8.65451945923268795013427734375">
        <ele>22.6000003814697265625</ele>
        <time>2019-05-05T07:24:44.000Z</time>
      </trkpt>
      <trkpt lat="42.7712252922356128692626953125" lon="-8.654568828642368316650390625">
        <ele>23.200000762939453125</ele>
        <time>2019-05-05T07:24:51.000Z</time>
      </trkpt>
      <trkpt lat="42.77121481485664844512939453125" lon="-8.65428761579096317291259765625">
        <ele>22.3999996185302734375</ele>
        <time>2019-05-05T07:24:55.000Z</time>
      </trkpt>
      <trkpt lat="42.771214731037616729736328125" lon="-8.65421419031918048858642578125">
        <ele>22.6000003814697265625</ele>
        <time>2019-05-05T07:24:56.000Z</time>
      </trkpt>
      <trkpt lat="42.77164916507899761199951171875" lon="-8.65403733216226100921630859375">
        <ele>23.3999996185302734375</ele>
        <time>2019-05-05T07:25:04.000Z</time>
      </trkpt>
      <trkpt lat="42.77218929491937160491943359375" lon="-8.6539319716393947601318359375">
        <ele>24.6000003814697265625</ele>
        <time>2019-05-05T07:25:13.000Z</time>
      </trkpt>
      <trkpt lat="42.77272053994238376617431640625" lon="-8.65384002216160297393798828125">
        <ele>26</ele>
        <time>2019-05-05T07:25:24.000Z</time>
      </trkpt>
      <trkpt lat="42.77269698679447174072265625" lon="-8.65386801771819591522216796875">
        <ele>26</ele>
        <time>2019-05-05T07:25:28.000Z</time>
      </trkpt>
      <trkpt lat="42.77268768288195133209228515625" lon="-8.65383080206811428070068359375">
        <ele>26</ele>
        <time>2019-05-05T07:25:56.000Z</time>
      </trkpt>
      <trkpt lat="42.7727393992245197296142578125" lon="-8.65384035743772983551025390625">
        <ele>26</ele>
        <time>2019-05-05T07:26:00.000Z</time>
      </trkpt>
      <trkpt lat="42.77275842614471912384033203125" lon="-8.65382811985909938812255859375">
        <ele>26.200000762939453125</ele>
        <time>2019-05-05T07:26:01.000Z</time>
      </trkpt>
      <trkpt lat="42.77281257323920726776123046875" lon="-8.65381672047078609466552734375">
        <ele>26.200000762939453125</ele>
        <time>2019-05-05T07:26:05.000Z</time>
      </trkpt>
      <trkpt lat="42.7728688158094882965087890625" lon="-8.65379660390317440032958984375">
        <ele>26.3999996185302734375</ele>
        <time>2019-05-05T07:26:13.000Z</time>
      </trkpt>
      <trkpt lat="42.772881723940372467041015625" lon="-8.65378595888614654541015625">
        <ele>26.3999996185302734375</ele>
        <time>2019-05-05T07:28:05.000Z</time>
      </trkpt>
      <trkpt lat="42.77343459427356719970703125" lon="-8.65366517566144466400146484375">
        <ele>27.799999237060546875</ele>
        <time>2019-05-05T07:28:22.000Z</time>
      </trkpt>
      <trkpt lat="42.77382292784750461578369140625" lon="-8.65360080264508724212646484375">
        <ele>28.3999996185302734375</ele>
        <time>2019-05-05T07:28:36.000Z</time>
      </trkpt>
      <trkpt lat="42.77388595975935459136962890625" lon="-8.65365989506244659423828125">
        <ele>28.200000762939453125</ele>
        <time>2019-05-05T07:28:40.000Z</time>
      </trkpt>
      <trkpt lat="42.7740173041820526123046875" lon="-8.65410220809280872344970703125">
        <ele>28.200000762939453125</ele>
        <time>2019-05-05T07:28:57.000Z</time>
      </trkpt>
      <trkpt lat="42.7745834179222583770751953125" lon="-8.654017634689807891845703125">
        <ele>29.3999996185302734375</ele>
        <time>2019-05-05T07:29:19.000Z</time>
      </trkpt>
      <trkpt lat="42.7751248888671398162841796875" lon="-8.6539234220981597900390625">
        <ele>30.200000762939453125</ele>
        <time>2019-05-05T07:29:36.000Z</time>
      </trkpt>
      <trkpt lat="42.7756951935589313507080078125" lon="-8.65383080206811428070068359375">
        <ele>31.799999237060546875</ele>
        <time>2019-05-05T07:29:51.000Z</time>
      </trkpt>
      <trkpt lat="42.77624680660665035247802734375" lon="-8.65380699746310710906982421875">
        <ele>31.6000003814697265625</ele>
        <time>2019-05-05T07:30:07.000Z</time>
      </trkpt>
      <trkpt lat="42.77679003775119781494140625" lon="-8.653624691069126129150390625">
        <ele>31.799999237060546875</ele>
        <time>2019-05-05T07:30:25.000Z</time>
      </trkpt>
      <trkpt lat="42.777020372450351715087890625" lon="-8.6537073366343975067138671875">
        <ele>29.6000003814697265625</ele>
        <time>2019-05-05T07:30:29.000Z</time>
      </trkpt>
      <trkpt lat="42.777179963886737823486328125" lon="-8.65377330221235752105712890625">
        <ele>27.799999237060546875</ele>
        <time>2019-05-05T07:30:33.000Z</time>
      </trkpt>
      <trkpt lat="42.777374424040317535400390625" lon="-8.653996177017688751220703125">
        <ele>25.200000762939453125</ele>
        <time>2019-05-05T07:30:44.000Z</time>
      </trkpt>
      <trkpt lat="42.77743267826735973358154296875" lon="-8.65393574349582195281982421875">
        <ele>25</ele>
        <time>2019-05-05T07:30:48.000Z</time>
      </trkpt>
      <trkpt lat="42.77789452113211154937744140625" lon="-8.6535130441188812255859375">
        <ele>25.6000003814697265625</ele>
        <time>2019-05-05T07:31:04.000Z</time>
      </trkpt>
      <trkpt lat="42.77812636457383632659912109375" lon="-8.653456382453441619873046875">
        <ele>26</ele>
        <time>2019-05-05T07:31:10.000Z</time>
      </trkpt>
      <trkpt lat="42.77840347029268741607666015625" lon="-8.6535799317061901092529296875">
        <ele>24.799999237060546875</ele>
        <time>2019-05-05T07:31:16.000Z</time>
      </trkpt>
      <trkpt lat="42.77889129705727100372314453125" lon="-8.65335722453892230987548828125">
        <ele>26.6000003814697265625</ele>
        <time>2019-05-05T07:31:36.000Z</time>
      </trkpt>
      <trkpt lat="42.779270075261592864990234375" lon="-8.65281072445213794708251953125">
        <ele>30</ele>
        <time>2019-05-05T07:31:59.000Z</time>
      </trkpt>
      <trkpt lat="42.77968757785856723785400390625" lon="-8.65229129791259765625">
        <ele>29.6000003814697265625</ele>
        <time>2019-05-05T07:32:17.000Z</time>
      </trkpt>
      <trkpt lat="42.780047245323657989501953125" lon="-8.651722334325313568115234375">
        <ele>29.3999996185302734375</ele>
        <time>2019-05-05T07:32:33.000Z</time>
      </trkpt>
      <trkpt lat="42.7802395261824131011962890625" lon="-8.65106460638344287872314453125">
        <ele>31.6000003814697265625</ele>
        <time>2019-05-05T07:32:52.000Z</time>
      </trkpt>
      <trkpt lat="42.78036885894834995269775390625" lon="-8.6510358564555644989013671875">
        <ele>31.6000003814697265625</ele>
        <time>2019-05-05T07:32:56.000Z</time>
      </trkpt>
      <trkpt lat="42.7809030376374721527099609375" lon="-8.65085472352802753448486328125">
        <ele>32.59999847412109375</ele>
        <time>2019-05-05T07:33:12.000Z</time>
      </trkpt>
      <trkpt lat="42.7814502082765102386474609375" lon="-8.65070317871868610382080078125">
        <ele>32</ele>
        <time>2019-05-05T07:33:22.000Z</time>
      </trkpt>
      <trkpt lat="42.78199746273458003997802734375" lon="-8.65057862363755702972412109375">
        <ele>32.59999847412109375</ele>
        <time>2019-05-05T07:33:32.000Z</time>
      </trkpt>
      <trkpt lat="42.782584615051746368408203125" lon="-8.65044065751135349273681640625">
        <ele>33.799999237060546875</ele>
        <time>2019-05-05T07:33:42.000Z</time>
      </trkpt>
      <trkpt lat="42.78303732164204120635986328125" lon="-8.65034258924424648284912109375">
        <ele>33.40000152587890625</ele>
        <time>2019-05-05T07:33:50.000Z</time>
      </trkpt>
      <trkpt lat="42.78359614312648773193359375" lon="-8.65021015517413616180419921875">
        <ele>34.59999847412109375</ele>
        <time>2019-05-05T07:34:01.000Z</time>
      </trkpt>
      <trkpt lat="42.783798314630985260009765625" lon="-8.6501752026379108428955078125">
        <ele>35.799999237060546875</ele>
        <time>2019-05-05T07:34:05.000Z</time>
      </trkpt>
      <trkpt lat="42.7843443118035793304443359375" lon="-8.6500035412609577178955078125">
        <ele>39</ele>
        <time>2019-05-05T07:34:15.000Z</time>
      </trkpt>
      <trkpt lat="42.78460339643061161041259765625" lon="-8.649869598448276519775390625">
        <ele>39.200000762939453125</ele>
        <time>2019-05-05T07:34:21.000Z</time>
      </trkpt>
      <trkpt lat="42.78463457711040973663330078125" lon="-8.6497391760349273681640625">
        <ele>40.59999847412109375</ele>
        <time>2019-05-05T07:34:24.000Z</time>
      </trkpt>
      <trkpt lat="42.78459099121391773223876953125" lon="-8.64955217577517032623291015625">
        <ele>44.200000762939453125</ele>
        <time>2019-05-05T07:34:32.000Z</time>
      </trkpt>
      <trkpt lat="42.78456131927669048309326171875" lon="-8.64955770783126354217529296875">
        <ele>44.40000152587890625</ele>
        <time>2019-05-05T07:34:55.000Z</time>
      </trkpt>
      <trkpt lat="42.7844103612005710601806640625" lon="-8.649651668965816497802734375">
        <ele>44.200000762939453125</ele>
        <time>2019-05-05T07:35:03.000Z</time>
      </trkpt>
      <trkpt lat="42.7842920087277889251708984375" lon="-8.64979541860520839691162109375">
        <ele>43</ele>
        <time>2019-05-05T07:35:09.000Z</time>
      </trkpt>
      <trkpt lat="42.78416049666702747344970703125" lon="-8.64996607415378093719482421875">
        <ele>40.59999847412109375</ele>
        <time>2019-05-05T07:35:15.000Z</time>
      </trkpt>
      <trkpt lat="42.78410785831511020660400390625" lon="-8.64996389485895633697509765625">
        <ele>40.40000152587890625</ele>
        <time>2019-05-05T07:35:17.000Z</time>
      </trkpt>
      <trkpt lat="42.78410308063030242919921875" lon="-8.64995685406029224395751953125">
        <ele>40.59999847412109375</ele>
        <time>2019-05-05T07:35:19.000Z</time>
      </trkpt>
      <trkpt lat="42.78409637510776519775390625" lon="-8.64996238611638545989990234375">
        <ele>40.40000152587890625</ele>
        <time>2019-05-05T07:37:48.000Z</time>
      </trkpt>
      <trkpt lat="42.7842262946069240570068359375" lon="-8.649785108864307403564453125">
        <ele>43.799999237060546875</ele>
        <time>2019-05-05T07:38:00.000Z</time>
      </trkpt>
      <trkpt lat="42.78444514609873294830322265625" lon="-8.649561144411563873291015625">
        <ele>45.40000152587890625</ele>
        <time>2019-05-05T07:38:14.000Z</time>
      </trkpt>
      <trkpt lat="42.78453416191041469573974609375" lon="-8.64950791932642459869384765625">
        <ele>45.40000152587890625</ele>
        <time>2019-05-05T07:38:26.000Z</time>
      </trkpt>
      <trkpt lat="42.7845914103090763092041015625" lon="-8.64941529929637908935546875">
        <ele>46.40000152587890625</ele>
        <time>2019-05-05T07:38:30.000Z</time>
      </trkpt>
      <trkpt lat="42.78501427732408046722412109375" lon="-8.64893652498722076416015625">
        <ele>51.40000152587890625</ele>
        <time>2019-05-05T07:38:49.000Z</time>
      </trkpt>
      <trkpt lat="42.78548399917781352996826171875" lon="-8.64854433573782444000244140625">
        <ele>52.40000152587890625</ele>
        <time>2019-05-05T07:39:08.000Z</time>
      </trkpt>
      <trkpt lat="42.7858637832105159759521484375" lon="-8.64802449010312557220458984375">
        <ele>50.799999237060546875</ele>
        <time>2019-05-05T07:39:26.000Z</time>
      </trkpt>
      <trkpt lat="42.78635119087994098663330078125" lon="-8.647810332477092742919921875">
        <ele>51</ele>
        <time>2019-05-05T07:39:46.000Z</time>
      </trkpt>
      <trkpt lat="42.78684622608125209808349609375" lon="-8.648039661347866058349609375">
        <ele>49.200000762939453125</ele>
        <time>2019-05-05T07:40:06.000Z</time>
      </trkpt>
      <trkpt lat="42.78699290938675403594970703125" lon="-8.64809699356555938720703125">
        <ele>48.799999237060546875</ele>
        <time>2019-05-05T07:40:11.000Z</time>
      </trkpt>
      <trkpt lat="42.78711176477372646331787109375" lon="-8.64800085313618183135986328125">
        <ele>49</ele>
        <time>2019-05-05T07:40:15.000Z</time>
      </trkpt>
      <trkpt lat="42.787511833012104034423828125" lon="-8.64775098860263824462890625">
        <ele>49.799999237060546875</ele>
        <time>2019-05-05T07:40:26.000Z</time>
      </trkpt>
      <trkpt lat="42.78806813992559909820556640625" lon="-8.64772642962634563446044921875">
        <ele>48.59999847412109375</ele>
        <time>2019-05-05T07:40:41.000Z</time>
      </trkpt>
      <trkpt lat="42.78810820542275905609130859375" lon="-8.64770581014454364776611328125">
        <ele>48.59999847412109375</ele>
        <time>2019-05-05T07:40:43.000Z</time>
      </trkpt>
      <trkpt lat="42.78812882490456104278564453125" lon="-8.647603802382946014404296875">
        <ele>49</ele>
        <time>2019-05-05T07:40:47.000Z</time>
      </trkpt>
      <trkpt lat="42.7880712412297725677490234375" lon="-8.64721077494323253631591796875">
        <ele>50.40000152587890625</ele>
        <time>2019-05-05T07:40:59.000Z</time>
      </trkpt>
      <trkpt lat="42.788374833762645721435546875" lon="-8.64711664617061614990234375">
        <ele>50</ele>
        <time>2019-05-05T07:41:09.000Z</time>
      </trkpt>
      <trkpt lat="42.788930051028728485107421875" lon="-8.64695596508681774139404296875">
        <ele>50.59999847412109375</ele>
        <time>2019-05-05T07:41:27.000Z</time>
      </trkpt>
      <trkpt lat="42.78904102742671966552734375" lon="-8.64692277275025844573974609375">
        <ele>50.799999237060546875</ele>
        <time>2019-05-05T07:41:30.000Z</time>
      </trkpt>
      <trkpt lat="42.789584510028362274169921875" lon="-8.6467533744871616363525390625">
        <ele>50.200000762939453125</ele>
        <time>2019-05-05T07:41:45.000Z</time>
      </trkpt>
      <trkpt lat="42.78994702734053134918212890625" lon="-8.6465810425579547882080078125">
        <ele>49.799999237060546875</ele>
        <time>2019-05-05T07:41:55.000Z</time>
      </trkpt>
      <trkpt lat="42.78993043117225170135498046875" lon="-8.6463818885385990142822265625">
        <ele>51.59999847412109375</ele>
        <time>2019-05-05T07:41:59.000Z</time>
      </trkpt>
      <trkpt lat="42.78994283638894557952880859375" lon="-8.6456831730902194976806640625">
        <ele>56.40000152587890625</ele>
        <time>2019-05-05T07:42:17.000Z</time>
      </trkpt>
      <trkpt lat="42.789991535246372222900390625" lon="-8.64550472237169742584228515625">
        <ele>57.40000152587890625</ele>
        <time>2019-05-05T07:42:20.000Z</time>
      </trkpt>
      <trkpt lat="42.79002699069678783416748046875" lon="-8.64537589251995086669921875">
        <ele>58</ele>
        <time>2019-05-05T07:42:22.000Z</time>
      </trkpt>
      <trkpt lat="42.790062613785266876220703125" lon="-8.64500105381011962890625">
        <ele>62</ele>
        <time>2019-05-05T07:42:29.000Z</time>
      </trkpt>
      <trkpt lat="42.79008097015321254730224609375" lon="-8.64490122534334659576416015625">
        <ele>63.59999847412109375</ele>
        <time>2019-05-05T07:42:31.000Z</time>
      </trkpt>
      <trkpt lat="42.7906069345772266387939453125" lon="-8.6448925919830799102783203125">
        <ele>64.1999969482421875</ele>
        <time>2019-05-05T07:42:57.000Z</time>
      </trkpt>
      <trkpt lat="42.79114999808371067047119140625" lon="-8.64490910433232784271240234375">
        <ele>64</ele>
        <time>2019-05-05T07:43:18.000Z</time>
      </trkpt>
      <trkpt lat="42.7916811592876911163330078125" lon="-8.6447688750922679901123046875">
        <ele>68.8000030517578125</ele>
        <time>2019-05-05T07:43:33.000Z</time>
      </trkpt>
      <trkpt lat="42.79215934686362743377685546875" lon="-8.64439487457275390625">
        <ele>64</ele>
        <time>2019-05-05T07:43:51.000Z</time>
      </trkpt>
      <trkpt lat="42.79252463020384311676025390625" lon="-8.64380889572203159332275390625">
        <ele>64</ele>
        <time>2019-05-05T07:44:06.000Z</time>
      </trkpt>
      <trkpt lat="42.79296099208295345306396484375" lon="-8.64334923215210437774658203125">
        <ele>65</ele>
        <time>2019-05-05T07:44:24.000Z</time>
      </trkpt>
      <trkpt lat="42.79339157044887542724609375" lon="-8.64285939373075962066650390625">
        <ele>65.8000030517578125</ele>
        <time>2019-05-05T07:44:48.000Z</time>
      </trkpt>
      <trkpt lat="42.7938316203653812408447265625" lon="-8.6424138955771923065185546875">
        <ele>63.40000152587890625</ele>
        <time>2019-05-05T07:45:02.000Z</time>
      </trkpt>
      <trkpt lat="42.794168405234813690185546875" lon="-8.6420122347772121429443359375">
        <ele>61.799999237060546875</ele>
        <time>2019-05-05T07:45:12.000Z</time>
      </trkpt>
      <trkpt lat="42.7944170124828815460205078125" lon="-8.6417279206216335296630859375">
        <ele>60.799999237060546875</ele>
        <time>2019-05-05T07:45:18.000Z</time>
      </trkpt>
      <trkpt lat="42.7947512827813625335693359375" lon="-8.6417805589735507965087890625">
        <ele>58.40000152587890625</ele>
        <time>2019-05-05T07:45:23.000Z</time>
      </trkpt>
      <trkpt lat="42.795032747089862823486328125" lon="-8.64196320064365863800048828125">
        <ele>55.799999237060546875</ele>
        <time>2019-05-05T07:45:27.000Z</time>
      </trkpt>
      <trkpt lat="42.79541487805545330047607421875" lon="-8.64229411818087100982666015625">
        <ele>48.799999237060546875</ele>
        <time>2019-05-05T07:45:34.000Z</time>
      </trkpt>
      <trkpt lat="42.79573506675660610198974609375" lon="-8.6420880071818828582763671875">
        <ele>44.40000152587890625</ele>
        <time>2019-05-05T07:45:42.000Z</time>
      </trkpt>
      <trkpt lat="42.7959053032100200653076171875" lon="-8.64181668497622013092041015625">
        <ele>43</ele>
        <time>2019-05-05T07:45:48.000Z</time>
      </trkpt>
      <trkpt lat="42.7961634658277034759521484375" lon="-8.64142499864101409912109375">
        <ele>42.200000762939453125</ele>
        <time>2019-05-05T07:45:56.000Z</time>
      </trkpt>
      <trkpt lat="42.79618903063237667083740234375" lon="-8.64118401892483234405517578125">
        <ele>42.799999237060546875</ele>
        <time>2019-05-05T07:46:00.000Z</time>
      </trkpt>
      <trkpt lat="42.796320207417011260986328125" lon="-8.64046879112720489501953125">
        <ele>43.59999847412109375</ele>
        <time>2019-05-05T07:46:15.000Z</time>
      </trkpt>
      <trkpt lat="42.79649010859429836273193359375" lon="-8.6401690542697906494140625">
        <ele>43</ele>
        <time>2019-05-05T07:46:22.000Z</time>
      </trkpt>
      <trkpt lat="42.796471081674098968505859375" lon="-8.639971911907196044921875">
        <ele>43.59999847412109375</ele>
        <time>2019-05-05T07:46:27.000Z</time>
      </trkpt>
      <trkpt lat="42.79636957682669162750244140625" lon="-8.6394862644374370574951171875">
        <ele>48.200000762939453125</ele>
        <time>2019-05-05T07:46:38.000Z</time>
      </trkpt>
      <trkpt lat="42.79639841057360172271728515625" lon="-8.6393819935619831085205078125">
        <ele>49.200000762939453125</ele>
        <time>2019-05-05T07:46:40.000Z</time>
      </trkpt>
      <trkpt lat="42.7966714091598987579345703125" lon="-8.63910916261374950408935546875">
        <ele>46</ele>
        <time>2019-05-05T07:46:53.000Z</time>
      </trkpt>
      <trkpt lat="42.79671440832316875457763671875" lon="-8.63911218009889125823974609375">
        <ele>45</ele>
        <time>2019-05-05T07:46:54.000Z</time>
      </trkpt>
      <trkpt lat="42.7968670427799224853515625" lon="-8.6390155367553234100341796875">
        <ele>44</ele>
        <time>2019-05-05T07:46:58.000Z</time>
      </trkpt>
      <trkpt lat="42.79725956730544567108154296875" lon="-8.63876290619373321533203125">
        <ele>41.40000152587890625</ele>
        <time>2019-05-05T07:47:10.000Z</time>
      </trkpt>
      <trkpt lat="42.7973697893321514129638671875" lon="-8.638645894825458526611328125">
        <ele>41.200000762939453125</ele>
        <time>2019-05-05T07:47:14.000Z</time>
      </trkpt>
      <trkpt lat="42.79751672409474849700927734375" lon="-8.638500384986400604248046875">
        <ele>40.59999847412109375</ele>
        <time>2019-05-05T07:47:25.000Z</time>
      </trkpt>
      <trkpt lat="42.79783439822494983673095703125" lon="-8.637998811900615692138671875">
        <ele>42</ele>
        <time>2019-05-05T07:47:41.000Z</time>
      </trkpt>
      <trkpt lat="42.79802232049405574798583984375" lon="-8.6379996500909328460693359375">
        <ele>41</ele>
        <time>2019-05-05T07:47:49.000Z</time>
      </trkpt>
      <trkpt lat="42.798272185027599334716796875" lon="-8.63732348196208477020263671875">
        <ele>42.59999847412109375</ele>
        <time>2019-05-05T07:48:05.000Z</time>
      </trkpt>
      <trkpt lat="42.798400260508060455322265625" lon="-8.6370488069951534271240234375">
        <ele>42.59999847412109375</ele>
        <time>2019-05-05T07:48:14.000Z</time>
      </trkpt>
      <trkpt lat="42.7988919429481029510498046875" lon="-8.63669232465326786041259765625">
        <ele>43.40000152587890625</ele>
        <time>2019-05-05T07:48:33.000Z</time>
      </trkpt>
      <trkpt lat="42.79918924905359745025634765625" lon="-8.6364204995334148406982421875">
        <ele>44.59999847412109375</ele>
        <time>2019-05-05T07:48:45.000Z</time>
      </trkpt>
      <trkpt lat="42.79915639199316501617431640625" lon="-8.63627390004694461822509765625">
        <ele>45.59999847412109375</ele>
        <time>2019-05-05T07:48:49.000Z</time>
      </trkpt>
      <trkpt lat="42.7989187650382518768310546875" lon="-8.63568046130239963531494140625">
        <ele>49.40000152587890625</ele>
        <time>2019-05-05T07:49:06.000Z</time>
      </trkpt>
      <trkpt lat="42.79901389963924884796142578125" lon="-8.63536111079156398773193359375">
        <ele>50.799999237060546875</ele>
        <time>2019-05-05T07:49:12.000Z</time>
      </trkpt>
      <trkpt lat="42.79919830150902271270751953125" lon="-8.6350755393505096435546875">
        <ele>52</ele>
        <time>2019-05-05T07:49:21.000Z</time>
      </trkpt>
      <trkpt lat="42.79956945218145847320556640625" lon="-8.63453230820596218109130859375">
        <ele>57.799999237060546875</ele>
        <time>2019-05-05T07:49:43.000Z</time>
      </trkpt>
      <trkpt lat="42.7996297180652618408203125" lon="-8.63451202400028705596923828125">
        <ele>58.40000152587890625</ele>
        <time>2019-05-05T07:49:46.000Z</time>
      </trkpt>
      <trkpt lat="42.7996831946074962615966796875" lon="-8.63457463681697845458984375">
        <ele>58.200000762939453125</ele>
        <time>2019-05-05T07:49:50.000Z</time>
      </trkpt>
      <trkpt lat="42.7996986173093318939208984375" lon="-8.63463406451046466827392578125">
        <ele>57.799999237060546875</ele>
        <time>2019-05-05T07:49:54.000Z</time>
      </trkpt>
      <trkpt lat="42.7998075820505619049072265625" lon="-8.6348772235214710235595703125">
        <ele>56.799999237060546875</ele>
        <time>2019-05-05T07:50:00.000Z</time>
      </trkpt>
      <trkpt lat="42.8001287765800952911376953125" lon="-8.63552623428404331207275390625">
        <ele>54.59999847412109375</ele>
        <time>2019-05-05T07:50:18.000Z</time>
      </trkpt>
      <trkpt lat="42.80039859004318714141845703125" lon="-8.636160828173160552978515625">
        <ele>51.799999237060546875</ele>
        <time>2019-05-05T07:50:36.000Z</time>
      </trkpt>
      <trkpt lat="42.8008569963276386260986328125" lon="-8.63646685145795345306396484375">
        <ele>52.200000762939453125</ele>
        <time>2019-05-05T07:50:48.000Z</time>
      </trkpt>
      <trkpt lat="42.80104265548288822174072265625" lon="-8.6368753015995025634765625">
        <ele>50.40000152587890625</ele>
        <time>2019-05-05T07:50:54.000Z</time>
      </trkpt>
      <trkpt lat="42.80112328939139842987060546875" lon="-8.6370940692722797393798828125">
        <ele>48.799999237060546875</ele>
        <time>2019-05-05T07:50:57.000Z</time>
      </trkpt>
      <trkpt lat="42.801468037068843841552734375" lon="-8.6374290101230144500732421875">
        <ele>46.200000762939453125</ele>
        <time>2019-05-05T07:51:04.000Z</time>
      </trkpt>
      <trkpt lat="42.801952175796031951904296875" lon="-8.637846596539020538330078125">
        <ele>44.59999847412109375</ele>
        <time>2019-05-05T07:51:14.000Z</time>
      </trkpt>
      <trkpt lat="42.8020700253546237945556640625" lon="-8.63785564899444580078125">
        <ele>44.40000152587890625</ele>
        <time>2019-05-05T07:51:18.000Z</time>
      </trkpt>
      <trkpt lat="42.80209802091121673583984375" lon="-8.63786277361214160919189453125">
        <ele>44.40000152587890625</ele>
        <time>2019-05-05T07:51:19.000Z</time>
      </trkpt>
      <trkpt lat="42.80221779830753803253173828125" lon="-8.637851960957050323486328125">
        <ele>44.200000762939453125</ele>
        <time>2019-05-05T07:51:24.000Z</time>
      </trkpt>
      <trkpt lat="42.80269137583673000335693359375" lon="-8.6374786309897899627685546875">
        <ele>44</ele>
        <time>2019-05-05T07:51:48.000Z</time>
      </trkpt>
      <trkpt lat="42.80300653539597988128662109375" lon="-8.63718937151134014129638671875">
        <ele>44</ele>
        <time>2019-05-05T07:52:03.000Z</time>
      </trkpt>
      <trkpt lat="42.8030024282634258270263671875" lon="-8.6371909640729427337646484375">
        <ele>44</ele>
        <time>2019-05-05T07:52:04.000Z</time>
      </trkpt>
      <trkpt lat="42.80301894061267375946044921875" lon="-8.63717042841017246246337890625">
        <ele>44</ele>
        <time>2019-05-05T07:52:05.000Z</time>
      </trkpt>
      <trkpt lat="42.8034704737365245819091796875" lon="-8.6367601342499256134033203125">
        <ele>44.200000762939453125</ele>
        <time>2019-05-05T07:52:25.000Z</time>
      </trkpt>
      <trkpt lat="42.8038154728710651397705078125" lon="-8.63643550314009189605712890625">
        <ele>44.40000152587890625</ele>
        <time>2019-05-05T07:52:39.000Z</time>
      </trkpt>
      <trkpt lat="42.80383248813450336456298828125" lon="-8.63644874654710292816162109375">
        <ele>44.40000152587890625</ele>
        <time>2019-05-05T07:52:41.000Z</time>
      </trkpt>
      <trkpt lat="42.80381999909877777099609375" lon="-8.63678217865526676177978515625">
        <ele>43.200000762939453125</ele>
        <time>2019-05-05T07:52:53.000Z</time>
      </trkpt>
      <trkpt lat="42.80409333296120166778564453125" lon="-8.6374504677951335906982421875">
        <ele>38.59999847412109375</ele>
        <time>2019-05-05T07:53:12.000Z</time>
      </trkpt>
      <trkpt lat="42.804416455328464508056640625" lon="-8.6380744166672229766845703125">
        <ele>38</ele>
        <time>2019-05-05T07:53:26.000Z</time>
      </trkpt>
      <trkpt lat="42.8044662438333034515380859375" lon="-8.63813795149326324462890625">
        <ele>38.40000152587890625</ele>
        <time>2019-05-05T07:53:29.000Z</time>
      </trkpt>
      <trkpt lat="42.8045569360256195068359375" lon="-8.63806419074535369873046875">
        <ele>38.200000762939453125</ele>
        <time>2019-05-05T07:53:34.000Z</time>
      </trkpt>
      <trkpt lat="42.80460999347269535064697265625" lon="-8.6380174197256565093994140625">
        <ele>38</ele>
        <time>2019-05-05T07:53:37.000Z</time>
      </trkpt>
      <trkpt lat="42.8051297552883625030517578125" lon="-8.63775129429996013641357421875">
        <ele>37.40000152587890625</ele>
        <time>2019-05-05T07:53:59.000Z</time>
      </trkpt>
      <trkpt lat="42.80565320514142513275146484375" lon="-8.63744870759546756744384765625">
        <ele>39.799999237060546875</ele>
        <time>2019-05-05T07:54:17.000Z</time>
      </trkpt>
      <trkpt lat="42.80597515404224395751953125" lon="-8.63730068318545818328857421875">
        <ele>41.59999847412109375</ele>
        <time>2019-05-05T07:54:27.000Z</time>
      </trkpt>
      <trkpt lat="42.8060671873390674591064453125" lon="-8.6373649723827838897705078125">
        <ele>42</ele>
        <time>2019-05-05T07:54:32.000Z</time>
      </trkpt>
      <trkpt lat="42.80636667273938655853271484375" lon="-8.6374380625784397125244140625">
        <ele>43.40000152587890625</ele>
        <time>2019-05-05T07:54:47.000Z</time>
      </trkpt>
      <trkpt lat="42.8065962530672550201416015625" lon="-8.63738735206425189971923828125">
        <ele>44.200000762939453125</ele>
        <time>2019-05-05T07:54:58.000Z</time>
      </trkpt>
      <trkpt lat="42.80668602325022220611572265625" lon="-8.63719222135841846466064453125">
        <ele>45</ele>
        <time>2019-05-05T07:55:06.000Z</time>
      </trkpt>
      <trkpt lat="42.80675156973302364349365234375" lon="-8.63709113560616970062255859375">
        <ele>45</ele>
        <time>2019-05-05T07:55:10.000Z</time>
      </trkpt>
      <trkpt lat="42.80681057833135128021240234375" lon="-8.63696725107729434967041015625">
        <ele>44.59999847412109375</ele>
        <time>2019-05-05T07:55:15.000Z</time>
      </trkpt>
      <trkpt lat="42.806838490068912506103515625" lon="-8.63660917617380619049072265625">
        <ele>44.59999847412109375</ele>
        <time>2019-05-05T07:55:25.000Z</time>
      </trkpt>
      <trkpt lat="42.806852571666240692138671875" lon="-8.6365856230258941650390625">
        <ele>44.59999847412109375</ele>
        <time>2019-05-05T07:55:26.000Z</time>
      </trkpt>
      <trkpt lat="42.8072579205036163330078125" lon="-8.6363323219120502471923828125">
        <ele>42</ele>
        <time>2019-05-05T07:55:40.000Z</time>
      </trkpt>
      <trkpt lat="42.8073050267994403839111328125" lon="-8.636272810399532318115234375">
        <ele>41.799999237060546875</ele>
        <time>2019-05-05T07:55:42.000Z</time>
      </trkpt>
      <trkpt lat="42.807338722050189971923828125" lon="-8.6361479200422763824462890625">
        <ele>41.200000762939453125</ele>
        <time>2019-05-05T07:55:46.000Z</time>
      </trkpt>
      <trkpt lat="42.80745036900043487548828125" lon="-8.63540603779256343841552734375">
        <ele>42.59999847412109375</ele>
        <time>2019-05-05T07:56:03.000Z</time>
      </trkpt>
      <trkpt lat="42.8077975474298000335693359375" lon="-8.6348430253565311431884765625">
        <ele>44.200000762939453125</ele>
        <time>2019-05-05T07:56:21.000Z</time>
      </trkpt>
      <trkpt lat="42.80784331262111663818359375" lon="-8.63477169536054134368896484375">
        <ele>44.59999847412109375</ele>
        <time>2019-05-05T07:56:26.000Z</time>
      </trkpt>
      <trkpt lat="42.8078860603272914886474609375" lon="-8.6346318013966083526611328125">
        <ele>45.59999847412109375</ele>
        <time>2019-05-05T07:56:33.000Z</time>
      </trkpt>
      <trkpt lat="42.8081162273883819580078125" lon="-8.6342499218881130218505859375">
        <ele>46.40000152587890625</ele>
        <time>2019-05-05T07:56:47.000Z</time>
      </trkpt>
      <trkpt lat="42.808206081390380859375" lon="-8.63391481339931488037109375">
        <ele>46.200000762939453125</ele>
        <time>2019-05-05T07:56:57.000Z</time>
      </trkpt>
      <trkpt lat="42.80833977274596691131591796875" lon="-8.6335260607302188873291015625">
        <ele>45.59999847412109375</ele>
        <time>2019-05-05T07:57:11.000Z</time>
      </trkpt>
      <trkpt lat="42.808443792164325714111328125" lon="-8.6332695744931697845458984375">
        <ele>47.40000152587890625</ele>
        <time>2019-05-05T07:57:20.000Z</time>
      </trkpt>
      <trkpt lat="42.8085601329803466796875" lon="-8.63305474631488323211669921875">
        <ele>48.40000152587890625</ele>
        <time>2019-05-05T07:57:30.000Z</time>
      </trkpt>
      <trkpt lat="42.8090192936360836029052734375" lon="-8.63228780217468738555908203125">
        <ele>53.799999237060546875</ele>
        <time>2019-05-05T07:58:33.000Z</time>
      </trkpt>
      <trkpt lat="42.80910403467714786529541015625" lon="-8.632193505764007568359375">
        <ele>54.200000762939453125</ele>
        <time>2019-05-05T07:58:37.000Z</time>
      </trkpt>
      <trkpt lat="42.8091644681990146636962890625" lon="-8.632076494395732879638671875">
        <ele>55.59999847412109375</ele>
        <time>2019-05-05T07:58:43.000Z</time>
      </trkpt>
      <trkpt lat="42.80943118035793304443359375" lon="-8.6309692449867725372314453125">
        <ele>66.1999969482421875</ele>
        <time>2019-05-05T08:00:01.000Z</time>
      </trkpt>
      <trkpt lat="42.8094823099672794342041015625" lon="-8.630882240831851959228515625">
        <ele>66</ele>
        <time>2019-05-05T08:00:05.000Z</time>
      </trkpt>
      <trkpt lat="42.809544838964939117431640625" lon="-8.63070152699947357177734375">
        <ele>66.59999847412109375</ele>
        <time>2019-05-05T08:00:13.000Z</time>
      </trkpt>
      <trkpt lat="42.80954073183238506317138671875" lon="-8.63068199716508388519287109375">
        <ele>66.8000030517578125</ele>
        <time>2019-05-05T08:00:14.000Z</time>
      </trkpt>
      <trkpt lat="42.8095148317515850067138671875" lon="-8.63073161803185939788818359375">
        <ele>66.8000030517578125</ele>
        <time>2019-05-05T08:00:18.000Z</time>
      </trkpt>
      <trkpt lat="42.80921920202672481536865234375" lon="-8.63104158081114292144775390625">
        <ele>68.8000030517578125</ele>
        <time>2019-05-05T08:00:40.000Z</time>
      </trkpt>
      <trkpt lat="42.809208221733570098876953125" lon="-8.63101341761648654937744140625">
        <ele>69.1999969482421875</ele>
        <time>2019-05-05T08:00:42.000Z</time>
      </trkpt>
      <trkpt lat="42.809211574494838714599609375" lon="-8.6310104839503765106201171875">
        <ele>69.1999969482421875</ele>
        <time>2019-05-05T08:00:44.000Z</time>
      </trkpt>
      <trkpt lat="42.80921149067580699920654296875" lon="-8.63097318448126316070556640625">
        <ele>69.59999847412109375</ele>
        <time>2019-05-05T08:01:27.000Z</time>
      </trkpt>
      <trkpt lat="42.8092868439853191375732421875" lon="-8.6307838372886180877685546875">
        <ele>70.40000152587890625</ele>
        <time>2019-05-05T08:01:37.000Z</time>
      </trkpt>
      <trkpt lat="42.80953804962337017059326171875" lon="-8.63013599999248981475830078125">
        <ele>72.59999847412109375</ele>
        <time>2019-05-05T08:02:00.000Z</time>
      </trkpt>
      <trkpt lat="42.8097035922110080718994140625" lon="-8.62943996675312519073486328125">
        <ele>75.1999969482421875</ele>
        <time>2019-05-05T08:02:20.000Z</time>
      </trkpt>
      <trkpt lat="42.8098259679973125457763671875" lon="-8.62894929014146327972412109375">
        <ele>74.59999847412109375</ele>
        <time>2019-05-05T08:02:36.000Z</time>
      </trkpt>
      <trkpt lat="42.80983485281467437744140625" lon="-8.62892665900290012359619140625">
        <ele>74.40000152587890625</ele>
        <time>2019-05-05T08:02:52.000Z</time>
      </trkpt>
      <trkpt lat="42.80982119031250476837158203125" lon="-8.62872834317386150360107421875">
        <ele>75.1999969482421875</ele>
        <time>2019-05-05T08:02:59.000Z</time>
      </trkpt>
      <trkpt lat="42.80979185365140438079833984375" lon="-8.6279812641441822052001953125">
        <ele>72.8000030517578125</ele>
        <time>2019-05-05T08:03:19.000Z</time>
      </trkpt>
      <trkpt lat="42.80975832603871822357177734375" lon="-8.62784673459827899932861328125">
        <ele>71.59999847412109375</ele>
        <time>2019-05-05T08:03:21.000Z</time>
      </trkpt>
      <trkpt lat="42.809507288038730621337890625" lon="-8.6271843127906322479248046875">
        <ele>68.1999969482421875</ele>
        <time>2019-05-05T08:03:29.000Z</time>
      </trkpt>
      <trkpt lat="42.809367477893829345703125" lon="-8.626472689211368560791015625">
        <ele>65</ele>
        <time>2019-05-05T08:03:37.000Z</time>
      </trkpt>
      <trkpt lat="42.809376530349254608154296875" lon="-8.62631636671721935272216796875">
        <ele>64.8000030517578125</ele>
        <time>2019-05-05T08:03:39.000Z</time>
      </trkpt>
      <trkpt lat="42.8094705753028392791748046875" lon="-8.62586039118468761444091796875">
        <ele>65.40000152587890625</ele>
        <time>2019-05-05T08:03:45.000Z</time>
      </trkpt>
      <trkpt lat="42.80957057140767574310302734375" lon="-8.62559367902576923370361328125">
        <ele>66.1999969482421875</ele>
        <time>2019-05-05T08:03:48.000Z</time>
      </trkpt>
      <trkpt lat="42.80983108095824718475341796875" lon="-8.62493637017905712127685546875">
        <ele>69.59999847412109375</ele>
        <time>2019-05-05T08:03:56.000Z</time>
      </trkpt>
      <trkpt lat="42.81019133515655994415283203125" lon="-8.6243616230785846710205078125">
        <ele>73</ele>
        <time>2019-05-05T08:04:09.000Z</time>
      </trkpt>
      <trkpt lat="42.81045268289744853973388671875" lon="-8.624235056340694427490234375">
        <ele>70.1999969482421875</ele>
        <time>2019-05-05T08:04:16.000Z</time>
      </trkpt>
      <trkpt lat="42.81095065176486968994140625" lon="-8.62390824593603610992431640625">
        <ele>67.1999969482421875</ele>
        <time>2019-05-05T08:04:23.000Z</time>
      </trkpt>
      <trkpt lat="42.81143386848270893096923828125" lon="-8.62355486489832401275634765625">
        <ele>73.59999847412109375</ele>
        <time>2019-05-05T08:04:37.000Z</time>
      </trkpt>
      <trkpt lat="42.81170996837317943572998046875" lon="-8.62292370758950710296630859375">
        <ele>77.40000152587890625</ele>
        <time>2019-05-05T08:04:53.000Z</time>
      </trkpt>
      <trkpt lat="42.8121665306389331817626953125" lon="-8.622540570795536041259765625">
        <ele>82.59999847412109375</ele>
        <time>2019-05-05T08:05:21.000Z</time>
      </trkpt>
      <trkpt lat="42.8126798383891582489013671875" lon="-8.6223243176937103271484375">
        <ele>87</ele>
        <time>2019-05-05T08:05:48.000Z</time>
      </trkpt>
      <trkpt lat="42.8131659887731075286865234375" lon="-8.62198929302394390106201171875">
        <ele>88.40000152587890625</ele>
        <time>2019-05-05T08:06:06.000Z</time>
      </trkpt>
      <trkpt lat="42.81352582387626171112060546875" lon="-8.62146131694316864013671875">
        <ele>91.1999969482421875</ele>
        <time>2019-05-05T08:06:23.000Z</time>
      </trkpt>
      <trkpt lat="42.81379438005387783050537109375" lon="-8.620809875428676605224609375">
        <ele>95</ele>
        <time>2019-05-05T08:06:44.000Z</time>
      </trkpt>
      <trkpt lat="42.8140608407557010650634765625" lon="-8.62029447220265865325927734375">
        <ele>98.40000152587890625</ele>
        <time>2019-05-05T08:07:03.000Z</time>
      </trkpt>
      <trkpt lat="42.8141538798809051513671875" lon="-8.6203528940677642822265625">
        <ele>99</ele>
        <time>2019-05-05T08:07:08.000Z</time>
      </trkpt>
      <trkpt lat="42.81445403583347797393798828125" lon="-8.62023429013788700103759765625">
        <ele>101</ele>
        <time>2019-05-05T08:07:22.000Z</time>
      </trkpt>
      <trkpt lat="42.8146500885486602783203125" lon="-8.620241247117519378662109375">
        <ele>102</ele>
        <time>2019-05-05T08:07:29.000Z</time>
      </trkpt>
      <trkpt lat="42.81473793089389801025390625" lon="-8.62100743688642978668212890625">
        <ele>99.40000152587890625</ele>
        <time>2019-05-05T08:07:48.000Z</time>
      </trkpt>
      <trkpt lat="42.8147327341139316558837890625" lon="-8.6212100274860858917236328125">
        <ele>99</ele>
        <time>2019-05-05T08:07:52.000Z</time>
      </trkpt>
      <trkpt lat="42.81510950066149234771728515625" lon="-8.62172911874949932098388671875">
        <ele>98.8000030517578125</ele>
        <time>2019-05-05T08:08:07.000Z</time>
      </trkpt>
      <trkpt lat="42.81556262634694576263427734375" lon="-8.622156344354152679443359375">
        <ele>96.59999847412109375</ele>
        <time>2019-05-05T08:08:25.000Z</time>
      </trkpt>
      <trkpt lat="42.8157107345759868621826171875" lon="-8.62215475179255008697509765625">
        <ele>96.59999847412109375</ele>
        <time>2019-05-05T08:08:34.000Z</time>
      </trkpt>
      <trkpt lat="42.81573361717164516448974609375" lon="-8.6221499741077423095703125">
        <ele>96.40000152587890625</ele>
        <time>2019-05-05T08:09:31.000Z</time>
      </trkpt>
      <trkpt lat="42.816074676811695098876953125" lon="-8.62209071405231952667236328125">
        <ele>95.40000152587890625</ele>
        <time>2019-05-05T08:09:42.000Z</time>
      </trkpt>
      <trkpt lat="42.81613779254257678985595703125" lon="-8.62198795191943645477294921875">
        <ele>94.1999969482421875</ele>
        <time>2019-05-05T08:09:44.000Z</time>
      </trkpt>
      <trkpt lat="42.81635538674890995025634765625" lon="-8.62162970937788486480712890625">
        <ele>92.40000152587890625</ele>
        <time>2019-05-05T08:09:50.000Z</time>
      </trkpt>
      <trkpt lat="42.8164537064731121063232421875" lon="-8.62155812792479991912841796875">
        <ele>92</ele>
        <time>2019-05-05T08:09:52.000Z</time>
      </trkpt>
      <trkpt lat="42.81654708087444305419921875" lon="-8.621498532593250274658203125">
        <ele>91.59999847412109375</ele>
        <time>2019-05-05T08:09:54.000Z</time>
      </trkpt>
      <trkpt lat="42.81704890541732311248779296875" lon="-8.621263168752193450927734375">
        <ele>93</ele>
        <time>2019-05-05T08:10:09.000Z</time>
      </trkpt>
      <trkpt lat="42.8175889514386653900146484375" lon="-8.6211697943508625030517578125">
        <ele>95.8000030517578125</ele>
        <time>2019-05-05T08:10:31.000Z</time>
      </trkpt>
      <trkpt lat="42.81808507628738880157470703125" lon="-8.62091942690312862396240234375">
        <ele>100.59999847412109375</ele>
        <time>2019-05-05T08:10:52.000Z</time>
      </trkpt>
      <trkpt lat="42.8182817995548248291015625" lon="-8.62064768560230731964111328125">
        <ele>102.59999847412109375</ele>
        <time>2019-05-05T08:11:04.000Z</time>
      </trkpt>
      <trkpt lat="42.81834977678954601287841796875" lon="-8.62056939862668514251708984375">
        <ele>103.1999969482421875</ele>
        <time>2019-05-05T08:11:10.000Z</time>
      </trkpt>
      <trkpt lat="42.8188174031674861907958984375" lon="-8.6201575957238674163818359375">
        <ele>108.59999847412109375</ele>
        <time>2019-05-05T08:11:44.000Z</time>
      </trkpt>
      <trkpt lat="42.8192227520048618316650390625" lon="-8.61966834403574466705322265625">
        <ele>112.40000152587890625</ele>
        <time>2019-05-05T08:12:06.000Z</time>
      </trkpt>
      <trkpt lat="42.8195006959140300750732421875" lon="-8.619021512567996978759765625">
        <ele>115.8000030517578125</ele>
        <time>2019-05-05T08:12:24.000Z</time>
      </trkpt>
      <trkpt lat="42.819937057793140411376953125" lon="-8.61853796057403087615966796875">
        <ele>121.59999847412109375</ele>
        <time>2019-05-05T08:12:44.000Z</time>
      </trkpt>
      <trkpt lat="42.82043720595538616180419921875" lon="-8.61820402555167675018310546875">
        <ele>123.8000030517578125</ele>
        <time>2019-05-05T08:13:06.000Z</time>
      </trkpt>
      <trkpt lat="42.82072369940578937530517578125" lon="-8.6175923980772495269775390625">
        <ele>123.8000030517578125</ele>
        <time>2019-05-05T08:13:26.000Z</time>
      </trkpt>
      <trkpt lat="42.8207931853830814361572265625" lon="-8.6170153878629207611083984375">
        <ele>123.1999969482421875</ele>
        <time>2019-05-05T08:13:38.000Z</time>
      </trkpt>
      <trkpt lat="42.82110122032463550567626953125" lon="-8.6169250309467315673828125">
        <ele>122.40000152587890625</ele>
        <time>2019-05-05T08:13:46.000Z</time>
      </trkpt>
      <trkpt lat="42.8212404437363147735595703125" lon="-8.61695227213203907012939453125">
        <ele>121.8000030517578125</ele>
        <time>2019-05-05T08:13:49.000Z</time>
      </trkpt>
      <trkpt lat="42.8213363327085971832275390625" lon="-8.61661766655743122100830078125">
        <ele>122.1999969482421875</ele>
        <time>2019-05-05T08:14:02.000Z</time>
      </trkpt>
      <trkpt lat="42.82127640210092067718505859375" lon="-8.6160293407738208770751953125">
        <ele>123.59999847412109375</ele>
        <time>2019-05-05T08:14:14.000Z</time>
      </trkpt>
      <trkpt lat="42.82123398967087268829345703125" lon="-8.61578215844929218292236328125">
        <ele>124.1999969482421875</ele>
        <time>2019-05-05T08:14:19.000Z</time>
      </trkpt>
      <trkpt lat="42.82127237878739833831787109375" lon="-8.61545274965465068817138671875">
        <ele>124.59999847412109375</ele>
        <time>2019-05-05T08:14:29.000Z</time>
      </trkpt>
      <trkpt lat="42.8215058147907257080078125" lon="-8.614787645637989044189453125">
        <ele>126.40000152587890625</ele>
        <time>2019-05-05T08:14:47.000Z</time>
      </trkpt>
      <trkpt lat="42.82154076732695102691650390625" lon="-8.61404710449278354644775390625">
        <ele>129.600006103515625</ele>
        <time>2019-05-05T08:15:04.000Z</time>
      </trkpt>
      <trkpt lat="42.8215100057423114776611328125" lon="-8.61363463103771209716796875">
        <ele>131.399993896484375</ele>
        <time>2019-05-05T08:15:14.000Z</time>
      </trkpt>
      <trkpt lat="42.821913845837116241455078125" lon="-8.613136075437068939208984375">
        <ele>132.1999969482421875</ele>
        <time>2019-05-05T08:15:36.000Z</time>
      </trkpt>
      <trkpt lat="42.82236001454293727874755859375" lon="-8.61267867498099803924560546875">
        <ele>131.600006103515625</ele>
        <time>2019-05-05T08:15:52.000Z</time>
      </trkpt>
      <trkpt lat="42.822785563766956329345703125" lon="-8.61218682490289211273193359375">
        <ele>130.600006103515625</ele>
        <time>2019-05-05T08:16:07.000Z</time>
      </trkpt>
      <trkpt lat="42.82321781851351261138916015625" lon="-8.61169405281543731689453125">
        <ele>130.1999969482421875</ele>
        <time>2019-05-05T08:16:23.000Z</time>
      </trkpt>
      <trkpt lat="42.8236849419772624969482421875" lon="-8.61143496818840503692626953125">
        <ele>128.600006103515625</ele>
        <time>2019-05-05T08:16:43.000Z</time>
      </trkpt>
      <trkpt lat="42.82385769300162792205810546875" lon="-8.61129951663315296173095703125">
        <ele>128</ele>
        <time>2019-05-05T08:16:47.000Z</time>
      </trkpt>
      <trkpt lat="42.82438047230243682861328125" lon="-8.61099743284285068511962890625">
        <ele>126.1999969482421875</ele>
        <time>2019-05-05T08:17:00.000Z</time>
      </trkpt>
      <trkpt lat="42.8249229490756988525390625" lon="-8.6109090037643909454345703125">
        <ele>123.8000030517578125</ele>
        <time>2019-05-05T08:17:14.000Z</time>
      </trkpt>
      <trkpt lat="42.8250817023217678070068359375" lon="-8.61087522469460964202880859375">
        <ele>123.1999969482421875</ele>
        <time>2019-05-05T08:17:21.000Z</time>
      </trkpt>
      <trkpt lat="42.82511866651475429534912109375" lon="-8.610889725387096405029296875">
        <ele>123</ele>
        <time>2019-05-05T08:17:25.000Z</time>
      </trkpt>
      <trkpt lat="42.82514766789972782135009765625" lon="-8.6109049804508686065673828125">
        <ele>123</ele>
        <time>2019-05-05T08:17:33.000Z</time>
      </trkpt>
      <trkpt lat="42.82518153078854084014892578125" lon="-8.61092132516205310821533203125">
        <ele>123</ele>
        <time>2019-05-05T08:17:37.000Z</time>
      </trkpt>
      <trkpt lat="42.82520986162126064300537109375" lon="-8.610913194715976715087890625">
        <ele>123</ele>
        <time>2019-05-05T08:21:01.000Z</time>
      </trkpt>
      <trkpt lat="42.82574445940554141998291015625" lon="-8.6110514961183071136474609375">
        <ele>123</ele>
        <time>2019-05-05T08:21:16.000Z</time>
      </trkpt>
      <trkpt lat="42.8259792365133762359619140625" lon="-8.6111440323293209075927734375">
        <ele>123</ele>
        <time>2019-05-05T08:21:22.000Z</time>
      </trkpt>
      <trkpt lat="42.8261207230389118194580078125" lon="-8.6111368238925933837890625">
        <ele>123.1999969482421875</ele>
        <time>2019-05-05T08:21:26.000Z</time>
      </trkpt>
      <trkpt lat="42.82642272301018238067626953125" lon="-8.61089651472866535186767578125">
        <ele>123.40000152587890625</ele>
        <time>2019-05-05T08:21:36.000Z</time>
      </trkpt>
      <trkpt lat="42.8269555605947971343994140625" lon="-8.61077279783785343170166015625">
        <ele>124.1999969482421875</ele>
        <time>2019-05-05T08:21:51.000Z</time>
      </trkpt>
      <trkpt lat="42.82742075622081756591796875" lon="-8.61042209900915622711181640625">
        <ele>125.40000152587890625</ele>
        <time>2019-05-05T08:22:07.000Z</time>
      </trkpt>
      <trkpt lat="42.8276453912258148193359375" lon="-8.6103527806699275970458984375">
        <ele>126.1999969482421875</ele>
        <time>2019-05-05T08:22:13.000Z</time>
      </trkpt>
      <trkpt lat="42.8279808349907398223876953125" lon="-8.6102632619440555572509765625">
        <ele>126</ele>
        <time>2019-05-05T08:22:21.000Z</time>
      </trkpt>
      <trkpt lat="42.8282235749065876007080078125" lon="-8.60991700552403926849365234375">
        <ele>126.8000030517578125</ele>
        <time>2019-05-05T08:22:30.000Z</time>
      </trkpt>
      <trkpt lat="42.82827772200107574462890625" lon="-8.60916581936180591583251953125">
        <ele>130.600006103515625</ele>
        <time>2019-05-05T08:22:51.000Z</time>
      </trkpt>
      <trkpt lat="42.82833002507686614990234375" lon="-8.60860942862927913665771484375">
        <ele>136</ele>
        <time>2019-05-05T08:23:06.000Z</time>
      </trkpt>
      <trkpt lat="42.82844963483512401580810546875" lon="-8.60848738811910152435302734375">
        <ele>136.8000030517578125</ele>
        <time>2019-05-05T08:23:09.000Z</time>
      </trkpt>
      <trkpt lat="42.828759513795375823974609375" lon="-8.6081533692777156829833984375">
        <ele>137.399993896484375</ele>
        <time>2019-05-05T08:23:17.000Z</time>
      </trkpt>
      <trkpt lat="42.828854061663150787353515625" lon="-8.60792228020727634429931640625">
        <ele>138.1999969482421875</ele>
        <time>2019-05-05T08:23:21.000Z</time>
      </trkpt>
      <trkpt lat="42.82886537723243236541748046875" lon="-8.6076752655208110809326171875">
        <ele>139.1999969482421875</ele>
        <time>2019-05-05T08:23:26.000Z</time>
      </trkpt>
      <trkpt lat="42.8289427421987056732177734375" lon="-8.6069389991462230682373046875">
        <ele>138.8000030517578125</ele>
        <time>2019-05-05T08:23:45.000Z</time>
      </trkpt>
      <trkpt lat="42.82894156873226165771484375" lon="-8.6069151945412158966064453125">
        <ele>138.8000030517578125</ele>
        <time>2019-05-05T08:23:46.000Z</time>
      </trkpt>
      <trkpt lat="42.82895975746214389801025390625" lon="-8.6066157929599285125732421875">
        <ele>138</ele>
        <time>2019-05-05T08:23:54.000Z</time>
      </trkpt>
      <trkpt lat="42.82902882434427738189697265625" lon="-8.60625989735126495361328125">
        <ele>137</ele>
        <time>2019-05-05T08:24:03.000Z</time>
      </trkpt>
      <trkpt lat="42.829143740236759185791015625" lon="-8.6061457358300685882568359375">
        <ele>136.399993896484375</ele>
        <time>2019-05-05T08:24:07.000Z</time>
      </trkpt>
      <trkpt lat="42.82962813042104244232177734375" lon="-8.60577969811856746673583984375">
        <ele>139.399993896484375</ele>
        <time>2019-05-05T08:24:26.000Z</time>
      </trkpt>
      <trkpt lat="42.83015795052051544189453125" lon="-8.60562614165246486663818359375">
        <ele>142.600006103515625</ele>
        <time>2019-05-05T08:24:41.000Z</time>
      </trkpt>
      <trkpt lat="42.8307213820517063140869140625" lon="-8.60547157935798168182373046875">
        <ele>145.1999969482421875</ele>
        <time>2019-05-05T08:24:56.000Z</time>
      </trkpt>
      <trkpt lat="42.83122136257588863372802734375" lon="-8.6051962338387966156005859375">
        <ele>146.1999969482421875</ele>
        <time>2019-05-05T08:25:12.000Z</time>
      </trkpt>
      <trkpt lat="42.83161715604364871978759765625" lon="-8.6047221533954143524169921875">
        <ele>146.1999969482421875</ele>
        <time>2019-05-05T08:25:28.000Z</time>
      </trkpt>
      <trkpt lat="42.83193147741258144378662109375" lon="-8.60410331748425960540771484375">
        <ele>149</ele>
        <time>2019-05-05T08:25:45.000Z</time>
      </trkpt>
      <trkpt lat="42.8323172964155673980712890625" lon="-8.6035312525928020477294921875">
        <ele>153</ele>
        <time>2019-05-05T08:26:00.000Z</time>
      </trkpt>
      <trkpt lat="42.83263287506997585296630859375" lon="-8.602912165224552154541015625">
        <ele>155.1999969482421875</ele>
        <time>2019-05-05T08:26:14.000Z</time>
      </trkpt>
      <trkpt lat="42.83282834105193614959716796875" lon="-8.60266649164259433746337890625">
        <ele>157.600006103515625</ele>
        <time>2019-05-05T08:26:23.000Z</time>
      </trkpt>
      <trkpt lat="42.8329050354659557342529296875" lon="-8.602549731731414794921875">
        <ele>158.1999969482421875</ele>
        <time>2019-05-05T08:26:27.000Z</time>
      </trkpt>
      <trkpt lat="42.83308398909866809844970703125" lon="-8.60205880366265773773193359375">
        <ele>159.8000030517578125</ele>
        <time>2019-05-05T08:26:46.000Z</time>
      </trkpt>
      <trkpt lat="42.83309907652437686920166015625" lon="-8.6019829474389553070068359375">
        <ele>159.8000030517578125</ele>
        <time>2019-05-05T08:26:49.000Z</time>
      </trkpt>
      <trkpt lat="42.83311986364424228668212890625" lon="-8.60182109288871288299560546875">
        <ele>160</ele>
        <time>2019-05-05T08:26:54.000Z</time>
      </trkpt>
      <trkpt lat="42.833169065415859222412109375" lon="-8.601585142314434051513671875">
        <ele>160.600006103515625</ele>
        <time>2019-05-05T08:27:03.000Z</time>
      </trkpt>
      <trkpt lat="42.83329881727695465087890625" lon="-8.60138305462896823883056640625">
        <ele>162</ele>
        <time>2019-05-05T08:27:12.000Z</time>
      </trkpt>
      <trkpt lat="42.8333895094692707061767578125" lon="-8.60125447623431682586669921875">
        <ele>163</ele>
        <time>2019-05-05T08:27:17.000Z</time>
      </trkpt>
      <trkpt lat="42.8334703110158443450927734375" lon="-8.601164706051349639892578125">
        <ele>163.399993896484375</ele>
        <time>2019-05-05T08:27:22.000Z</time>
      </trkpt>
      <trkpt lat="42.83360593020915985107421875" lon="-8.6010143347084522247314453125">
        <ele>164</ele>
        <time>2019-05-05T08:27:29.000Z</time>
      </trkpt>
      <trkpt lat="42.83410809002816677093505859375" lon="-8.60071116127073764801025390625">
        <ele>168.1999969482421875</ele>
        <time>2019-05-05T08:27:50.000Z</time>
      </trkpt>
      <trkpt lat="42.8345059789717197418212890625" lon="-8.600221909582614898681640625">
        <ele>170.399993896484375</ele>
        <time>2019-05-05T08:28:10.000Z</time>
      </trkpt>
      <trkpt lat="42.834980897605419158935546875" lon="-8.59983659349381923675537109375">
        <ele>168.8000030517578125</ele>
        <time>2019-05-05T08:28:26.000Z</time>
      </trkpt>
      <trkpt lat="42.835406698286533355712890625" lon="-8.59938313253223896026611328125">
        <ele>172.399993896484375</ele>
        <time>2019-05-05T08:28:42.000Z</time>
      </trkpt>
      <trkpt lat="42.8355513699352741241455078125" lon="-8.5992310009896755218505859375">
        <ele>173.8000030517578125</ele>
        <time>2019-05-05T08:28:49.000Z</time>
      </trkpt>
      <trkpt lat="42.83557492308318614959716796875" lon="-8.59919370152056217193603515625">
        <ele>174.1999969482421875</ele>
        <time>2019-05-05T08:28:53.000Z</time>
      </trkpt>
      <trkpt lat="42.83576309680938720703125" lon="-8.598500601947307586669921875">
        <ele>176.1999969482421875</ele>
        <time>2019-05-05T08:29:16.000Z</time>
      </trkpt>
      <trkpt lat="42.83610574901103973388671875" lon="-8.59791914932429790496826171875">
        <ele>176.399993896484375</ele>
        <time>2019-05-05T08:29:34.000Z</time>
      </trkpt>
      <trkpt lat="42.83635309897363185882568359375" lon="-8.59725840389728546142578125">
        <ele>178.8000030517578125</ele>
        <time>2019-05-05T08:29:49.000Z</time>
      </trkpt>
      <trkpt lat="42.83639316447079181671142578125" lon="-8.5970061086118221282958984375">
        <ele>180.399993896484375</ele>
        <time>2019-05-05T08:29:54.000Z</time>
      </trkpt>
      <trkpt lat="42.8364210762083530426025390625" lon="-8.59676077030599117279052734375">
        <ele>181.8000030517578125</ele>
        <time>2019-05-05T08:29:58.000Z</time>
      </trkpt>
      <trkpt lat="42.83648033626377582550048828125" lon="-8.596372269093990325927734375">
        <ele>183</ele>
        <time>2019-05-05T08:30:04.000Z</time>
      </trkpt>
      <trkpt lat="42.836501039564609527587890625" lon="-8.59625299461185932159423828125">
        <ele>183.399993896484375</ele>
        <time>2019-05-05T08:30:06.000Z</time>
      </trkpt>
      <trkpt lat="42.8365183062851428985595703125" lon="-8.5959939099848270416259765625">
        <ele>186</ele>
        <time>2019-05-05T08:30:10.000Z</time>
      </trkpt>
      <trkpt lat="42.83648804761469364166259765625" lon="-8.59524565748870372772216796875">
        <ele>189.399993896484375</ele>
        <time>2019-05-05T08:30:24.000Z</time>
      </trkpt>
      <trkpt lat="42.83636332489550113677978515625" lon="-8.5945156775414943695068359375">
        <ele>194.8000030517578125</ele>
        <time>2019-05-05T08:30:45.000Z</time>
      </trkpt>
      <trkpt lat="42.83644731156527996063232421875" lon="-8.5940296947956085205078125">
        <ele>197.1999969482421875</ele>
        <time>2019-05-05T08:31:01.000Z</time>
      </trkpt>
      <trkpt lat="42.83642702735960483551025390625" lon="-8.59347204677760601043701171875">
        <ele>201.8000030517578125</ele>
        <time>2019-05-05T08:31:20.000Z</time>
      </trkpt>
      <trkpt lat="42.836463153362274169921875" lon="-8.59338236041367053985595703125">
        <ele>202</ele>
        <time>2019-05-05T08:31:25.000Z</time>
      </trkpt>
      <trkpt lat="42.8365411050617694854736328125" lon="-8.5933975316584110260009765625">
        <ele>200.8000030517578125</ele>
        <time>2019-05-05T08:31:30.000Z</time>
      </trkpt>
      <trkpt lat="42.83655644394457340240478515625" lon="-8.5933938436210155487060546875">
        <ele>200.8000030517578125</ele>
        <time>2019-05-05T08:31:31.000Z</time>
      </trkpt>
      <trkpt lat="42.83672265708446502685546875" lon="-8.5933861322700977325439453125">
        <ele>198.8000030517578125</ele>
        <time>2019-05-05T08:31:44.000Z</time>
      </trkpt>
      <trkpt lat="42.83674553968012332916259765625" lon="-8.593381606042385101318359375">
        <ele>199</ele>
        <time>2019-05-05T08:31:58.000Z</time>
      </trkpt>
      <trkpt lat="42.83722288906574249267578125" lon="-8.593283034861087799072265625">
        <ele>203</ele>
        <time>2019-05-05T08:32:22.000Z</time>
      </trkpt>
      <trkpt lat="42.83727762289345264434814453125" lon="-8.59329083003103733062744140625">
        <ele>203.399993896484375</ele>
        <time>2019-05-05T08:32:26.000Z</time>
      </trkpt>
      <trkpt lat="42.83730360679328441619873046875" lon="-8.59328202903270721435546875">
        <ele>203.8000030517578125</ele>
        <time>2019-05-05T08:32:28.000Z</time>
      </trkpt>
      <trkpt lat="42.83738491125404834747314453125" lon="-8.5932583920657634735107421875">
        <ele>204.399993896484375</ele>
        <time>2019-05-05T08:32:34.000Z</time>
      </trkpt>
      <trkpt lat="42.83739949576556682586669921875" lon="-8.59326568432152271270751953125">
        <ele>204.600006103515625</ele>
        <time>2019-05-05T08:32:35.000Z</time>
      </trkpt>
      <trkpt lat="42.83748867921531200408935546875" lon="-8.59325394965708255767822265625">
        <ele>205.399993896484375</ele>
        <time>2019-05-05T08:32:40.000Z</time>
      </trkpt>
      <trkpt lat="42.8375056944787502288818359375" lon="-8.593259565532207489013671875">
        <ele>205.399993896484375</ele>
        <time>2019-05-05T08:32:41.000Z</time>
      </trkpt>
      <trkpt lat="42.837555818259716033935546875" lon="-8.5932486690580844879150390625">
        <ele>206</ele>
        <time>2019-05-05T08:32:45.000Z</time>
      </trkpt>
      <trkpt lat="42.8375844843685626983642578125" lon="-8.59324942342936992645263671875">
        <ele>206</ele>
        <time>2019-05-05T08:32:47.000Z</time>
      </trkpt>
      <trkpt lat="42.837685905396938323974609375" lon="-8.59323643147945404052734375">
        <ele>206.399993896484375</ele>
        <time>2019-05-05T08:32:54.000Z</time>
      </trkpt>
      <trkpt lat="42.83824338577687740325927734375" lon="-8.59317180700600147247314453125">
        <ele>209.1999969482421875</ele>
        <time>2019-05-05T08:33:16.000Z</time>
      </trkpt>
      <trkpt lat="42.83837447874248027801513671875" lon="-8.59319192357361316680908203125">
        <ele>209.8000030517578125</ele>
        <time>2019-05-05T08:33:21.000Z</time>
      </trkpt>
      <trkpt lat="42.83840482123196125030517578125" lon="-8.59342779032886028289794921875">
        <ele>209.1999969482421875</ele>
        <time>2019-05-05T08:33:29.000Z</time>
      </trkpt>
      <trkpt lat="42.8382427990436553955078125" lon="-8.5941703431308269500732421875">
        <ele>208.399993896484375</ele>
        <time>2019-05-05T08:33:49.000Z</time>
      </trkpt>
      <trkpt lat="42.83816635608673095703125" lon="-8.5943574272096157073974609375">
        <ele>207.8000030517578125</ele>
        <time>2019-05-05T08:33:54.000Z</time>
      </trkpt>
      <trkpt lat="42.83835209906101226806640625" lon="-8.59428911469876766204833984375">
        <ele>209.600006103515625</ele>
        <time>2019-05-05T08:34:05.000Z</time>
      </trkpt>
      <trkpt lat="42.8386701084673404693603515625" lon="-8.593690730631351470947265625">
        <ele>211.600006103515625</ele>
        <time>2019-05-05T08:34:30.000Z</time>
      </trkpt>
      <trkpt lat="42.83874906599521636962890625" lon="-8.59340214170515537261962890625">
        <ele>212</ele>
        <time>2019-05-05T08:34:41.000Z</time>
      </trkpt>
      <trkpt lat="42.83875443041324615478515625" lon="-8.593258894979953765869140625">
        <ele>212</ele>
        <time>2019-05-05T08:34:45.000Z</time>
      </trkpt>
      <trkpt lat="42.83870279788970947265625" lon="-8.59287760220468044281005859375">
        <ele>212.399993896484375</ele>
        <time>2019-05-05T08:34:53.000Z</time>
      </trkpt>
      <trkpt lat="42.83867455087602138519287109375" lon="-8.592461608350276947021484375">
        <ele>210.8000030517578125</ele>
        <time>2019-05-05T08:34:59.000Z</time>
      </trkpt>
      <trkpt lat="42.8389106690883636474609375" lon="-8.591760210692882537841796875">
        <ele>209.1999969482421875</ele>
        <time>2019-05-05T08:35:07.000Z</time>
      </trkpt>
      <trkpt lat="42.83893547952175140380859375" lon="-8.5916626453399658203125">
        <ele>209.1999969482421875</ele>
        <time>2019-05-05T08:35:08.000Z</time>
      </trkpt>
      <trkpt lat="42.83897437155246734619140625" lon="-8.59138679690659046173095703125">
        <ele>208.8000030517578125</ele>
        <time>2019-05-05T08:35:11.000Z</time>
      </trkpt>
      <trkpt lat="42.83894813619554042816162109375" lon="-8.59105370007455348968505859375">
        <ele>208</ele>
        <time>2019-05-05T08:35:15.000Z</time>
      </trkpt>
      <trkpt lat="42.8388355672359466552734375" lon="-8.59029983170330524444580078125">
        <ele>206.8000030517578125</ele>
        <time>2019-05-05T08:35:30.000Z</time>
      </trkpt>
      <trkpt lat="42.8389450348913669586181640625" lon="-8.59000881202518939971923828125">
        <ele>207</ele>
        <time>2019-05-05T08:35:36.000Z</time>
      </trkpt>
      <trkpt lat="42.8392477892339229583740234375" lon="-8.58935435302555561065673828125">
        <ele>209</ele>
        <time>2019-05-05T08:35:48.000Z</time>
      </trkpt>
      <trkpt lat="42.83936790190637111663818359375" lon="-8.58907230198383331298828125">
        <ele>209</ele>
        <time>2019-05-05T08:35:54.000Z</time>
      </trkpt>
      <trkpt lat="42.83966839313507080078125" lon="-8.5883938707411289215087890625">
        <ele>209.1999969482421875</ele>
        <time>2019-05-05T08:36:06.000Z</time>
      </trkpt>
      <trkpt lat="42.8399709798395633697509765625" lon="-8.58777553774416446685791015625">
        <ele>209.8000030517578125</ele>
        <time>2019-05-05T08:36:17.000Z</time>
      </trkpt>
      <trkpt lat="42.84003945998847484588623046875" lon="-8.58759708702564239501953125">
        <ele>210.1999969482421875</ele>
        <time>2019-05-05T08:36:20.000Z</time>
      </trkpt>
      <trkpt lat="42.84028957597911357879638671875" lon="-8.5869012214243412017822265625">
        <ele>211.8000030517578125</ele>
        <time>2019-05-05T08:36:32.000Z</time>
      </trkpt>
      <trkpt lat="42.84031438641250133514404296875" lon="-8.58684531413018703460693359375">
        <ele>212</ele>
        <time>2019-05-05T08:36:33.000Z</time>
      </trkpt>
      <trkpt lat="42.84057020209729671478271484375" lon="-8.58617861755192279815673828125">
        <ele>214.600006103515625</ele>
        <time>2019-05-05T08:36:45.000Z</time>
      </trkpt>
      <trkpt lat="42.84081327728927135467529296875" lon="-8.58551594428718090057373046875">
        <ele>218.8000030517578125</ele>
        <time>2019-05-05T08:37:00.000Z</time>
      </trkpt>
      <trkpt lat="42.8410807438194751739501953125" lon="-8.58486928045749664306640625">
        <ele>223</ele>
        <time>2019-05-05T08:37:16.000Z</time>
      </trkpt>
      <trkpt lat="42.84131267108023166656494140625" lon="-8.5841794498264789581298828125">
        <ele>228.600006103515625</ele>
        <time>2019-05-05T08:37:32.000Z</time>
      </trkpt>
      <trkpt lat="42.84162313677370548248291015625" lon="-8.5835658945143222808837890625">
        <ele>231</ele>
        <time>2019-05-05T08:37:49.000Z</time>
      </trkpt>
      <trkpt lat="42.841998897492885589599609375" lon="-8.5830049775540828704833984375">
        <ele>234.8000030517578125</ele>
        <time>2019-05-05T08:38:09.000Z</time>
      </trkpt>
      <trkpt lat="42.84245361573994159698486328125" lon="-8.5825821943581104278564453125">
        <ele>238.399993896484375</ele>
        <time>2019-05-05T08:38:31.000Z</time>
      </trkpt>
      <trkpt lat="42.8429071605205535888671875" lon="-8.58224465511739253997802734375">
        <ele>240.600006103515625</ele>
        <time>2019-05-05T08:38:55.000Z</time>
      </trkpt>
      <trkpt lat="42.842960469424724578857421875" lon="-8.58224700205028057098388671875">
        <ele>240.600006103515625</ele>
        <time>2019-05-05T08:38:57.000Z</time>
      </trkpt>
      <trkpt lat="42.8431889601051807403564453125" lon="-8.58200929127633571624755859375">
        <ele>242</ele>
        <time>2019-05-05T08:39:10.000Z</time>
      </trkpt>
      <trkpt lat="42.84318384714424610137939453125" lon="-8.58201314695179462432861328125">
        <ele>242</ele>
        <time>2019-05-05T08:39:11.000Z</time>
      </trkpt>
      <trkpt lat="42.84321628510951995849609375" lon="-8.58198833651840686798095703125">
        <ele>242.1999969482421875</ele>
        <time>2019-05-05T08:39:13.000Z</time>
      </trkpt>
      <trkpt lat="42.8434263356029987335205078125" lon="-8.5816826485097408294677734375">
        <ele>243.8000030517578125</ele>
        <time>2019-05-05T08:39:30.000Z</time>
      </trkpt>
      <trkpt lat="42.84352331422269344329833984375" lon="-8.5815793834626674652099609375">
        <ele>244.600006103515625</ele>
        <time>2019-05-05T08:39:37.000Z</time>
      </trkpt>
      <trkpt lat="42.84368357621133327484130859375" lon="-8.58144468627870082855224609375">
        <ele>245.600006103515625</ele>
        <time>2019-05-05T08:39:46.000Z</time>
      </trkpt>
      <trkpt lat="42.84417358227074146270751953125" lon="-8.581124581396579742431640625">
        <ele>248.399993896484375</ele>
        <time>2019-05-05T08:40:07.000Z</time>
      </trkpt>
      <trkpt lat="42.84469627775251865386962890625" lon="-8.5808612219989299774169921875">
        <ele>248.8000030517578125</ele>
        <time>2019-05-05T08:40:26.000Z</time>
      </trkpt>
      <trkpt lat="42.8448893129825592041015625" lon="-8.58074882067739963531494140625">
        <ele>248.600006103515625</ele>
        <time>2019-05-05T08:40:36.000Z</time>
      </trkpt>
      <trkpt lat="42.8449012152850627899169921875" lon="-8.58073909766972064971923828125">
        <ele>248.600006103515625</ele>
        <time>2019-05-05T08:40:39.000Z</time>
      </trkpt>
      <trkpt lat="42.8448995389044284820556640625" lon="-8.580728955566883087158203125">
        <ele>248.600006103515625</ele>
        <time>2019-05-05T08:40:54.000Z</time>
      </trkpt>
      <trkpt lat="42.84480591304600238800048828125" lon="-8.58077413402497768402099609375">
        <ele>248.8000030517578125</ele>
        <time>2019-05-05T08:41:00.000Z</time>
      </trkpt>
      <trkpt lat="42.84478412009775638580322265625" lon="-8.580829538404941558837890625">
        <ele>248.8000030517578125</ele>
        <time>2019-05-05T08:41:02.000Z</time>
      </trkpt>
      <trkpt lat="42.84488855861127376556396484375" lon="-8.580791652202606201171875">
        <ele>248.8000030517578125</ele>
        <time>2019-05-05T08:41:08.000Z</time>
      </trkpt>
      <trkpt lat="42.8451211564242839813232421875" lon="-8.580647818744182586669921875">
        <ele>248.399993896484375</ele>
        <time>2019-05-05T08:41:23.000Z</time>
      </trkpt>
      <trkpt lat="42.84530530683696269989013671875" lon="-8.58068645931780338287353515625">
        <ele>248</ele>
        <time>2019-05-05T08:41:34.000Z</time>
      </trkpt>
      <trkpt lat="42.84530011005699634552001953125" lon="-8.58067640103399753570556640625">
        <ele>248</ele>
        <time>2019-05-05T08:41:35.000Z</time>
      </trkpt>
      <trkpt lat="42.84532190300524234771728515625" lon="-8.580693416297435760498046875">
        <ele>248</ele>
        <time>2019-05-05T08:42:01.000Z</time>
      </trkpt>
      <trkpt lat="42.845460958778858184814453125" lon="-8.58064807020127773284912109375">
        <ele>247.600006103515625</ele>
        <time>2019-05-05T08:42:09.000Z</time>
      </trkpt>
      <trkpt lat="42.8460264019668102264404296875" lon="-8.58058839105069637298583984375">
        <ele>246.1999969482421875</ele>
        <time>2019-05-05T08:42:30.000Z</time>
      </trkpt>
      <trkpt lat="42.8465695492923259735107421875" lon="-8.580510355532169342041015625">
        <ele>245.1999969482421875</ele>
        <time>2019-05-05T08:42:44.000Z</time>
      </trkpt>
      <trkpt lat="42.847000546753406524658203125" lon="-8.58040650375187397003173828125">
        <ele>244.8000030517578125</ele>
        <time>2019-05-05T08:42:55.000Z</time>
      </trkpt>
      <trkpt lat="42.84708646126091480255126953125" lon="-8.580393679440021514892578125">
        <ele>244.8000030517578125</ele>
        <time>2019-05-05T08:42:57.000Z</time>
      </trkpt>
      <trkpt lat="42.84743062220513820648193359375" lon="-8.5803774185478687286376953125">
        <ele>244.600006103515625</ele>
        <time>2019-05-05T08:43:06.000Z</time>
      </trkpt>
      <trkpt lat="42.84760328941047191619873046875" lon="-8.58040113933384418487548828125">
        <ele>244.399993896484375</ele>
        <time>2019-05-05T08:43:12.000Z</time>
      </trkpt>
      <trkpt lat="42.84796555526554584503173828125" lon="-8.58022143132984638214111328125">
        <ele>244.600006103515625</ele>
        <time>2019-05-05T08:43:26.000Z</time>
      </trkpt>
      <trkpt lat="42.84848959185183048248291015625" lon="-8.5800790227949619293212890625">
        <ele>244.8000030517578125</ele>
        <time>2019-05-05T08:43:46.000Z</time>
      </trkpt>
      <trkpt lat="42.84856402315199375152587890625" lon="-8.58007240109145641326904296875">
        <ele>245.1999969482421875</ele>
        <time>2019-05-05T08:43:49.000Z</time>
      </trkpt>
      <trkpt lat="42.84856595098972320556640625" lon="-8.5799784399569034576416015625">
        <ele>244.600006103515625</ele>
        <time>2019-05-05T08:43:53.000Z</time>
      </trkpt>
      <trkpt lat="42.84860241226851940155029296875" lon="-8.57985212467610836029052734375">
        <ele>244.1999969482421875</ele>
        <time>2019-05-05T08:44:00.000Z</time>
      </trkpt>
      <trkpt lat="42.8490003012120723724365234375" lon="-8.57931115664541721343994140625">
        <ele>242.8000030517578125</ele>
        <time>2019-05-05T08:44:17.000Z</time>
      </trkpt>
      <trkpt lat="42.84901463426649570465087890625" lon="-8.579249046742916107177734375">
        <ele>242</ele>
        <time>2019-05-05T08:44:18.000Z</time>
      </trkpt>
      <trkpt lat="42.84907020628452301025390625" lon="-8.5788344778120517730712890625">
        <ele>236.600006103515625</ele>
        <time>2019-05-05T08:44:25.000Z</time>
      </trkpt>
      <trkpt lat="42.84927464090287685394287109375" lon="-8.5783334076404571533203125">
        <ele>232.399993896484375</ele>
        <time>2019-05-05T08:44:34.000Z</time>
      </trkpt>
      <trkpt lat="42.84920088015496730804443359375" lon="-8.5781724750995635986328125">
        <ele>232.1999969482421875</ele>
        <time>2019-05-05T08:44:38.000Z</time>
      </trkpt>
      <trkpt lat="42.84903307445347309112548828125" lon="-8.5777595825493335723876953125">
        <ele>230.8000030517578125</ele>
        <time>2019-05-05T08:44:45.000Z</time>
      </trkpt>
      <trkpt lat="42.8490070067346096038818359375" lon="-8.57762823812663555145263671875">
        <ele>230.1999969482421875</ele>
        <time>2019-05-05T08:44:47.000Z</time>
      </trkpt>
      <trkpt lat="42.8489769995212554931640625" lon="-8.5773186944425106048583984375">
        <ele>228.1999969482421875</ele>
        <time>2019-05-05T08:44:53.000Z</time>
      </trkpt>
      <trkpt lat="42.84908319823443889617919921875" lon="-8.5771235637366771697998046875">
        <ele>227.399993896484375</ele>
        <time>2019-05-05T08:44:58.000Z</time>
      </trkpt>
      <trkpt lat="42.84961469471454620361328125" lon="-8.57690521515905857086181640625">
        <ele>225.399993896484375</ele>
        <time>2019-05-05T08:45:13.000Z</time>
      </trkpt>
      <trkpt lat="42.850020714104175567626953125" lon="-8.57691125012934207916259765625">
        <ele>224.399993896484375</ele>
        <time>2019-05-05T08:45:22.000Z</time>
      </trkpt>
      <trkpt lat="42.8505962155759334564208984375" lon="-8.5770430974662303924560546875">
        <ele>221.399993896484375</ele>
        <time>2019-05-05T08:45:32.000Z</time>
      </trkpt>
      <trkpt lat="42.85094900988042354583740234375" lon="-8.5771933011710643768310546875">
        <ele>220.399993896484375</ele>
        <time>2019-05-05T08:45:40.000Z</time>
      </trkpt>
      <trkpt lat="42.851118743419647216796875" lon="-8.57716857455670833587646484375">
        <ele>221</ele>
        <time>2019-05-05T08:45:43.000Z</time>
      </trkpt>
      <trkpt lat="42.851518727838993072509765625" lon="-8.5766370780766010284423828125">
        <ele>220.600006103515625</ele>
        <time>2019-05-05T08:45:56.000Z</time>
      </trkpt>
      <trkpt lat="42.85154228098690509796142578125" lon="-8.57658938504755496978759765625">
        <ele>220.600006103515625</ele>
        <time>2019-05-05T08:45:57.000Z</time>
      </trkpt>
      <trkpt lat="42.851786278188228607177734375" lon="-8.576261736452579498291015625">
        <ele>221.1999969482421875</ele>
        <time>2019-05-05T08:46:05.000Z</time>
      </trkpt>
      <trkpt lat="42.852024324238300323486328125" lon="-8.575835265219211578369140625">
        <ele>220.8000030517578125</ele>
        <time>2019-05-05T08:46:16.000Z</time>
      </trkpt>
      <trkpt lat="42.85238273441791534423828125" lon="-8.57549973763525485992431640625">
        <ele>220.600006103515625</ele>
        <time>2019-05-05T08:46:27.000Z</time>
      </trkpt>
      <trkpt lat="42.85253620706498622894287109375" lon="-8.57520134188234806060791015625">
        <ele>219</ele>
        <time>2019-05-05T08:46:33.000Z</time>
      </trkpt>
      <trkpt lat="42.8527428209781646728515625" lon="-8.57494468800723552703857421875">
        <ele>217.1999969482421875</ele>
        <time>2019-05-05T08:46:38.000Z</time>
      </trkpt>
      <trkpt lat="42.85290786065161228179931640625" lon="-8.5745389200747013092041015625">
        <ele>213.600006103515625</ele>
        <time>2019-05-05T08:46:45.000Z</time>
      </trkpt>
      <trkpt lat="42.85293233580887317657470703125" lon="-8.5742591321468353271484375">
        <ele>210.600006103515625</ele>
        <time>2019-05-05T08:46:49.000Z</time>
      </trkpt>
      <trkpt lat="42.852944321930408477783203125" lon="-8.57419073581695556640625">
        <ele>209.8000030517578125</ele>
        <time>2019-05-05T08:46:50.000Z</time>
      </trkpt>
      <trkpt lat="42.85319016315042972564697265625" lon="-8.57409727759659290313720703125">
        <ele>209</ele>
        <time>2019-05-05T08:46:55.000Z</time>
      </trkpt>
      <trkpt lat="42.853305749595165252685546875" lon="-8.57412393204867839813232421875">
        <ele>209.600006103515625</ele>
        <time>2019-05-05T08:46:57.000Z</time>
      </trkpt>
      <trkpt lat="42.85360456444323062896728515625" lon="-8.574128039181232452392578125">
        <ele>209.8000030517578125</ele>
        <time>2019-05-05T08:47:01.000Z</time>
      </trkpt>
      <trkpt lat="42.85406238399446010589599609375" lon="-8.57412124983966350555419921875">
        <ele>209.1999969482421875</ele>
        <time>2019-05-05T08:47:08.000Z</time>
      </trkpt>
      <trkpt lat="42.8542500548064708709716796875" lon="-8.574000634253025054931640625">
        <ele>207.399993896484375</ele>
        <time>2019-05-05T08:47:12.000Z</time>
      </trkpt>
      <trkpt lat="42.85410010255873203277587890625" lon="-8.57380223460495471954345703125">
        <ele>205</ele>
        <time>2019-05-05T08:47:18.000Z</time>
      </trkpt>
      <trkpt lat="42.85398074425756931304931640625" lon="-8.57373584993183612823486328125">
        <ele>204.1999969482421875</ele>
        <time>2019-05-05T08:47:20.000Z</time>
      </trkpt>
      <trkpt lat="42.85376616753637790679931640625" lon="-8.57364683412015438079833984375">
        <ele>203</ele>
        <time>2019-05-05T08:47:23.000Z</time>
      </trkpt>
      <trkpt lat="42.853247411549091339111328125" lon="-8.57329462654888629913330078125">
        <ele>200.399993896484375</ele>
        <time>2019-05-05T08:47:31.000Z</time>
      </trkpt>
      <trkpt lat="42.8531359322369098663330078125" lon="-8.573175854980945587158203125">
        <ele>200</ele>
        <time>2019-05-05T08:47:34.000Z</time>
      </trkpt>
      <trkpt lat="42.85334170795977115631103515625" lon="-8.57288206927478313446044921875">
        <ele>198.8000030517578125</ele>
        <time>2019-05-05T08:47:43.000Z</time>
      </trkpt>
      <trkpt lat="42.8534722141921520233154296875" lon="-8.57283680699765682220458984375">
        <ele>198.399993896484375</ele>
        <time>2019-05-05T08:47:46.000Z</time>
      </trkpt>
      <trkpt lat="42.853649072349071502685546875" lon="-8.57277427799999713897705078125">
        <ele>198</ele>
        <time>2019-05-05T08:47:50.000Z</time>
      </trkpt>
      <trkpt lat="42.8537897206842899322509765625" lon="-8.57278148643672466278076171875">
        <ele>197.8000030517578125</ele>
        <time>2019-05-05T08:47:53.000Z</time>
      </trkpt>
      <trkpt lat="42.85388150252401828765869140625" lon="-8.572814427316188812255859375">
        <ele>198</ele>
        <time>2019-05-05T08:47:55.000Z</time>
      </trkpt>
      <trkpt lat="42.85418383777141571044921875" lon="-8.57302472926676273345947265625">
        <ele>198.600006103515625</ele>
        <time>2019-05-05T08:48:01.000Z</time>
      </trkpt>
      <trkpt lat="42.85443923436105251312255859375" lon="-8.57300050556659698486328125">
        <ele>197.1999969482421875</ele>
        <time>2019-05-05T08:48:05.000Z</time>
      </trkpt>
      <trkpt lat="42.8549896739423274993896484375" lon="-8.5728960670530796051025390625">
        <ele>194.600006103515625</ele>
        <time>2019-05-05T08:48:14.000Z</time>
      </trkpt>
      <trkpt lat="42.85551999695599079132080078125" lon="-8.572739325463771820068359375">
        <ele>195</ele>
        <time>2019-05-05T08:48:22.000Z</time>
      </trkpt>
      <trkpt lat="42.85581856034696102142333984375" lon="-8.572735302150249481201171875">
        <ele>196.399993896484375</ele>
        <time>2019-05-05T08:48:26.000Z</time>
      </trkpt>
      <trkpt lat="42.8561094962060451507568359375" lon="-8.57293068431317806243896484375">
        <ele>196.8000030517578125</ele>
        <time>2019-05-05T08:48:30.000Z</time>
      </trkpt>
      <trkpt lat="42.85618283785879611968994140625" lon="-8.57300846837460994720458984375">
        <ele>197</ele>
        <time>2019-05-05T08:48:31.000Z</time>
      </trkpt>
      <trkpt lat="42.8563948161900043487548828125" lon="-8.57341281138360500335693359375">
        <ele>197.1999969482421875</ele>
        <time>2019-05-05T08:48:36.000Z</time>
      </trkpt>
      <trkpt lat="42.85645843483507633209228515625" lon="-8.57385520823299884796142578125">
        <ele>201.1999969482421875</ele>
        <time>2019-05-05T08:48:50.000Z</time>
      </trkpt>
      <trkpt lat="42.8564389050006866455078125" lon="-8.57394791208207607269287109375">
        <ele>202.600006103515625</ele>
        <time>2019-05-05T08:48:54.000Z</time>
      </trkpt>
      <trkpt lat="42.85642926581203937530517578125" lon="-8.57402401976287364959716796875">
        <ele>203.8000030517578125</ele>
        <time>2019-05-05T08:48:58.000Z</time>
      </trkpt>
      <trkpt lat="42.85643496550619602203369140625" lon="-8.574054948985576629638671875">
        <ele>204.1999969482421875</ele>
        <time>2019-05-05T08:49:00.000Z</time>
      </trkpt>
      <trkpt lat="42.856451310217380523681640625" lon="-8.57415980659425258636474609375">
        <ele>205.600006103515625</ele>
        <time>2019-05-05T08:49:06.000Z</time>
      </trkpt>
      <trkpt lat="42.85644535906612873077392578125" lon="-8.57420942746102809906005859375">
        <ele>206.399993896484375</ele>
        <time>2019-05-05T08:49:09.000Z</time>
      </trkpt>
      <trkpt lat="42.85643982701003551483154296875" lon="-8.574272878468036651611328125">
        <ele>207.399993896484375</ele>
        <time>2019-05-05T08:49:13.000Z</time>
      </trkpt>
      <trkpt lat="42.8564467839896678924560546875" lon="-8.57428704388439655303955078125">
        <ele>207.600006103515625</ele>
        <time>2019-05-05T08:49:14.000Z</time>
      </trkpt>
      <trkpt lat="42.8564447723329067230224609375" lon="-8.574404306709766387939453125">
        <ele>209.399993896484375</ele>
        <time>2019-05-05T08:49:22.000Z</time>
      </trkpt>
      <trkpt lat="42.856450974941253662109375" lon="-8.574699349701404571533203125">
        <ele>214.600006103515625</ele>
        <time>2019-05-05T08:49:39.000Z</time>
      </trkpt>
      <trkpt lat="42.856486178934574127197265625" lon="-8.5748446919023990631103515625">
        <ele>215.8000030517578125</ele>
        <time>2019-05-05T08:49:47.000Z</time>
      </trkpt>
      <trkpt lat="42.85651777870953083038330078125" lon="-8.57494301162660121917724609375">
        <ele>216.600006103515625</ele>
        <time>2019-05-05T08:49:52.000Z</time>
      </trkpt>
      <trkpt lat="42.856581397354602813720703125" lon="-8.575053401291370391845703125">
        <ele>217.1999969482421875</ele>
        <time>2019-05-05T08:49:58.000Z</time>
      </trkpt>
      <trkpt lat="42.8570355288684368133544921875" lon="-8.575372584164142608642578125">
        <ele>214.1999969482421875</ele>
        <time>2019-05-05T08:50:26.000Z</time>
      </trkpt>
      <trkpt lat="42.85711348056793212890625" lon="-8.57541893608868122100830078125">
        <ele>213.600006103515625</ele>
        <time>2019-05-05T08:50:28.000Z</time>
      </trkpt>
      <trkpt lat="42.857357226312160491943359375" lon="-8.57560048811137676239013671875">
        <ele>212</ele>
        <time>2019-05-05T08:50:33.000Z</time>
      </trkpt>
      <trkpt lat="42.85753668285906314849853515625" lon="-8.57574767433106899261474609375">
        <ele>211.1999969482421875</ele>
        <time>2019-05-05T08:50:37.000Z</time>
      </trkpt>
      <trkpt lat="42.85774053074419498443603515625" lon="-8.57589653693139553070068359375">
        <ele>209.8000030517578125</ele>
        <time>2019-05-05T08:50:41.000Z</time>
      </trkpt>
      <trkpt lat="42.85820178687572479248046875" lon="-8.57640515081584453582763671875">
        <ele>211.600006103515625</ele>
        <time>2019-05-05T08:50:50.000Z</time>
      </trkpt>
      <trkpt lat="42.85826154984533786773681640625" lon="-8.5764570347964763641357421875">
        <ele>211.1999969482421875</ele>
        <time>2019-05-05T08:50:51.000Z</time>
      </trkpt>
      <trkpt lat="42.85856933332979679107666015625" lon="-8.576703630387783050537109375">
        <ele>210.8000030517578125</ele>
        <time>2019-05-05T08:50:56.000Z</time>
      </trkpt>
      <trkpt lat="42.858965210616588592529296875" lon="-8.57709045521914958953857421875">
        <ele>211</ele>
        <time>2019-05-05T08:51:10.000Z</time>
      </trkpt>
      <trkpt lat="42.85951129160821437835693359375" lon="-8.57680664397776126861572265625">
        <ele>203.600006103515625</ele>
        <time>2019-05-05T08:51:24.000Z</time>
      </trkpt>
      <trkpt lat="42.8598199971020221710205078125" lon="-8.57660480774939060211181640625">
        <ele>201.1999969482421875</ele>
        <time>2019-05-05T08:51:31.000Z</time>
      </trkpt>
      <trkpt lat="42.8600419498980045318603515625" lon="-8.57675249688327312469482421875">
        <ele>202.8000030517578125</ele>
        <time>2019-05-05T08:51:39.000Z</time>
      </trkpt>
      <trkpt lat="42.86055919714272022247314453125" lon="-8.57697729952633380889892578125">
        <ele>204.600006103515625</ele>
        <time>2019-05-05T08:52:02.000Z</time>
      </trkpt>
      <trkpt lat="42.86111273802816867828369140625" lon="-8.57705458067357540130615234375">
        <ele>207.600006103515625</ele>
        <time>2019-05-05T08:52:17.000Z</time>
      </trkpt>
      <trkpt lat="42.8616180829703807830810546875" lon="-8.576727770268917083740234375">
        <ele>208.600006103515625</ele>
        <time>2019-05-05T08:52:33.000Z</time>
      </trkpt>
      <trkpt lat="42.86165169440209865570068359375" lon="-8.5766883753240108489990234375">
        <ele>208.399993896484375</ele>
        <time>2019-05-05T08:52:34.000Z</time>
      </trkpt>
      <trkpt lat="42.86178144626319408416748046875" lon="-8.57651998288929462432861328125">
        <ele>207.399993896484375</ele>
        <time>2019-05-05T08:52:38.000Z</time>
      </trkpt>
      <trkpt lat="42.862012870609760284423828125" lon="-8.57616224326193332672119140625">
        <ele>204.8000030517578125</ele>
        <time>2019-05-05T08:52:46.000Z</time>
      </trkpt>
      <trkpt lat="42.862142287194728851318359375" lon="-8.57603617943823337554931640625">
        <ele>204.1999969482421875</ele>
        <time>2019-05-05T08:52:49.000Z</time>
      </trkpt>
      <trkpt lat="42.86238628439605236053466796875" lon="-8.5758568905293941497802734375">
        <ele>203.1999969482421875</ele>
        <time>2019-05-05T08:52:53.000Z</time>
      </trkpt>
      <trkpt lat="42.8627808205783367156982421875" lon="-8.57579343952238559722900390625">
        <ele>203.8000030517578125</ele>
        <time>2019-05-05T08:52:59.000Z</time>
      </trkpt>
      <trkpt lat="42.86293110810220241546630859375" lon="-8.5758206807076930999755859375">
        <ele>203.399993896484375</ele>
        <time>2019-05-05T08:53:02.000Z</time>
      </trkpt>
      <trkpt lat="42.8630369715392589569091796875" lon="-8.57559042982757091522216796875">
        <ele>200.600006103515625</ele>
        <time>2019-05-05T08:53:08.000Z</time>
      </trkpt>
      <trkpt lat="42.86314317025244235992431640625" lon="-8.5748165287077426910400390625">
        <ele>192.600006103515625</ele>
        <time>2019-05-05T08:53:15.000Z</time>
      </trkpt>
      <trkpt lat="42.863381803035736083984375" lon="-8.57415963895618915557861328125">
        <ele>191.399993896484375</ele>
        <time>2019-05-05T08:53:22.000Z</time>
      </trkpt>
      <trkpt lat="42.863462604582309722900390625" lon="-8.5740336589515209197998046875">
        <ele>192.399993896484375</ele>
        <time>2019-05-05T08:53:27.000Z</time>
      </trkpt>
      <trkpt lat="42.86359612829983234405517578125" lon="-8.5739857144653797149658203125">
        <ele>194</ele>
        <time>2019-05-05T08:53:32.000Z</time>
      </trkpt>
      <trkpt lat="42.863870970904827117919921875" lon="-8.57425217516720294952392578125">
        <ele>194.600006103515625</ele>
        <time>2019-05-05T08:53:38.000Z</time>
      </trkpt>
      <trkpt lat="42.86427590064704418182373046875" lon="-8.57490009628236293792724609375">
        <ele>188.1999969482421875</ele>
        <time>2019-05-05T08:53:45.000Z</time>
      </trkpt>
      <trkpt lat="42.86469700746238231658935546875" lon="-8.575531505048274993896484375">
        <ele>183.399993896484375</ele>
        <time>2019-05-05T08:53:51.000Z</time>
      </trkpt>
      <trkpt lat="42.8648830018937587738037109375" lon="-8.57588564045727252960205078125">
        <ele>181.8000030517578125</ele>
        <time>2019-05-05T08:53:55.000Z</time>
      </trkpt>
      <trkpt lat="42.86494477652013301849365234375" lon="-8.576003573834896087646484375">
        <ele>181.1999969482421875</ele>
        <time>2019-05-05T08:53:57.000Z</time>
      </trkpt>
      <trkpt lat="42.86509506404399871826171875" lon="-8.575961999595165252685546875">
        <ele>179.600006103515625</ele>
        <time>2019-05-05T08:54:01.000Z</time>
      </trkpt>
      <trkpt lat="42.86513119004666805267333984375" lon="-8.5759179107844829559326171875">
        <ele>179</ele>
        <time>2019-05-05T08:54:02.000Z</time>
      </trkpt>
      <trkpt lat="42.86532715894281864166259765625" lon="-8.575633428990840911865234375">
        <ele>176.399993896484375</ele>
        <time>2019-05-05T08:54:07.000Z</time>
      </trkpt>
      <trkpt lat="42.865597642958164215087890625" lon="-8.57533964328467845916748046875">
        <ele>173</ele>
        <time>2019-05-05T08:54:12.000Z</time>
      </trkpt>
      <trkpt lat="42.8658257983624935150146484375" lon="-8.5751420818269252777099609375">
        <ele>170</ele>
        <time>2019-05-05T08:54:16.000Z</time>
      </trkpt>
      <trkpt lat="42.8659615851938724517822265625" lon="-8.575026579201221466064453125">
        <ele>168.1999969482421875</ele>
        <time>2019-05-05T08:54:19.000Z</time>
      </trkpt>
      <trkpt lat="42.86604565568268299102783203125" lon="-8.5747565142810344696044921875">
        <ele>167.1999969482421875</ele>
        <time>2019-05-05T08:54:24.000Z</time>
      </trkpt>
      <trkpt lat="42.8660715557634830474853515625" lon="-8.574701361358165740966796875">
        <ele>167</ele>
        <time>2019-05-05T08:54:30.000Z</time>
      </trkpt>
      <trkpt lat="42.86607381887733936309814453125" lon="-8.57465970329940319061279296875">
        <ele>167</ele>
        <time>2019-05-05T08:54:36.000Z</time>
      </trkpt>
      <trkpt lat="42.86611757241189479827880859375" lon="-8.5743538476526737213134765625">
        <ele>167</ele>
        <time>2019-05-05T08:54:44.000Z</time>
      </trkpt>
      <trkpt lat="42.86607381887733936309814453125" lon="-8.57374171726405620574951171875">
        <ele>166</ele>
        <time>2019-05-05T08:54:53.000Z</time>
      </trkpt>
      <trkpt lat="42.86582755856215953826904296875" lon="-8.57301232405006885528564453125">
        <ele>166.399993896484375</ele>
        <time>2019-05-05T08:55:04.000Z</time>
      </trkpt>
      <trkpt lat="42.865629829466342926025390625" lon="-8.57244537211954593658447265625">
        <ele>167.600006103515625</ele>
        <time>2019-05-05T08:55:15.000Z</time>
      </trkpt>
      <trkpt lat="42.8657247126102447509765625" lon="-8.57233925722539424896240234375">
        <ele>165.600006103515625</ele>
        <time>2019-05-05T08:55:19.000Z</time>
      </trkpt>
      <trkpt lat="42.8658073581755161285400390625" lon="-8.57226423919200897216796875">
        <ele>164</ele>
        <time>2019-05-05T08:55:25.000Z</time>
      </trkpt>
      <trkpt lat="42.8658247925341129302978515625" lon="-8.57201823033392429351806640625">
        <ele>162.8000030517578125</ele>
        <time>2019-05-05T09:02:49.000Z</time>
      </trkpt>
      <trkpt lat="42.865817584097385406494140625" lon="-8.5718875564634799957275390625">
        <ele>162</ele>
        <time>2019-05-05T09:02:54.000Z</time>
      </trkpt>
      <trkpt lat="42.86581833846867084503173828125" lon="-8.57175461947917938232421875">
        <ele>162.399993896484375</ele>
        <time>2019-05-05T09:02:58.000Z</time>
      </trkpt>
      <trkpt lat="42.8657503612339496612548828125" lon="-8.5711920261383056640625">
        <ele>168.1999969482421875</ele>
        <time>2019-05-05T09:03:12.000Z</time>
      </trkpt>
      <trkpt lat="42.86528491415083408355712890625" lon="-8.5707509703934192657470703125">
        <ele>168.8000030517578125</ele>
        <time>2019-05-05T09:03:37.000Z</time>
      </trkpt>
      <trkpt lat="42.86499582231044769287109375" lon="-8.57035811059176921844482421875">
        <ele>171.399993896484375</ele>
        <time>2019-05-05T09:03:58.000Z</time>
      </trkpt>
      <trkpt lat="42.86455250345170497894287109375" lon="-8.569899536669254302978515625">
        <ele>174.1999969482421875</ele>
        <time>2019-05-05T09:04:19.000Z</time>
      </trkpt>
      <trkpt lat="42.8645108453929424285888671875" lon="-8.569888137280941009521484375">
        <ele>174.1999969482421875</ele>
        <time>2019-05-05T09:04:20.000Z</time>
      </trkpt>
      <trkpt lat="42.86442090757191181182861328125" lon="-8.56987346895039081573486328125">
        <ele>174</ele>
        <time>2019-05-05T09:04:22.000Z</time>
      </trkpt>
      <trkpt lat="42.86390818655490875244140625" lon="-8.5700841061770915985107421875">
        <ele>172.1999969482421875</ele>
        <time>2019-05-05T09:04:38.000Z</time>
      </trkpt>
      <trkpt lat="42.8633407317101955413818359375" lon="-8.570074550807476043701171875">
        <ele>175</ele>
        <time>2019-05-05T09:04:58.000Z</time>
      </trkpt>
      <trkpt lat="42.86279297433793544769287109375" lon="-8.570063151419162750244140625">
        <ele>175.1999969482421875</ele>
        <time>2019-05-05T09:05:17.000Z</time>
      </trkpt>
      <trkpt lat="42.8622745536267757415771484375" lon="-8.5698147118091583251953125">
        <ele>177.600006103515625</ele>
        <time>2019-05-05T09:05:41.000Z</time>
      </trkpt>
      <trkpt lat="42.86176350899040699005126953125" lon="-8.569676578044891357421875">
        <ele>177.8000030517578125</ele>
        <time>2019-05-05T09:06:04.000Z</time>
      </trkpt>
      <trkpt lat="42.8617196716368198394775390625" lon="-8.56957557611167430877685546875">
        <ele>178.8000030517578125</ele>
        <time>2019-05-05T09:06:07.000Z</time>
      </trkpt>
      <trkpt lat="42.86181061528623104095458984375" lon="-8.56934457086026668548583984375">
        <ele>181.1999969482421875</ele>
        <time>2019-05-05T09:06:13.000Z</time>
      </trkpt>
      <trkpt lat="42.862170450389385223388671875" lon="-8.5687785409390926361083984375">
        <ele>181.8000030517578125</ele>
        <time>2019-05-05T09:06:34.000Z</time>
      </trkpt>
      <trkpt lat="42.8624401800334453582763671875" lon="-8.56813958846032619476318359375">
        <ele>183.1999969482421875</ele>
        <time>2019-05-05T09:06:52.000Z</time>
      </trkpt>
      <trkpt lat="42.86240522749722003936767578125" lon="-8.567417152225971221923828125">
        <ele>183.1999969482421875</ele>
        <time>2019-05-05T09:07:15.000Z</time>
      </trkpt>
      <trkpt lat="42.8623987734317779541015625" lon="-8.5673858039081096649169921875">
        <ele>183</ele>
        <time>2019-05-05T09:07:16.000Z</time>
      </trkpt>
      <trkpt lat="42.86234990693628787994384765625" lon="-8.5670602507889270782470703125">
        <ele>182.399993896484375</ele>
        <time>2019-05-05T09:07:28.000Z</time>
      </trkpt>
      <trkpt lat="42.86272876895964145660400390625" lon="-8.56671634130179882049560546875">
        <ele>185.1999969482421875</ele>
        <time>2019-05-05T09:07:51.000Z</time>
      </trkpt>
      <trkpt lat="42.8627493046224117279052734375" lon="-8.56670041568577289581298828125">
        <ele>185.399993896484375</ele>
        <time>2019-05-05T09:07:59.000Z</time>
      </trkpt>
      <trkpt lat="42.862781994044780731201171875" lon="-8.5666756890714168548583984375">
        <ele>185.399993896484375</ele>
        <time>2019-05-05T09:08:02.000Z</time>
      </trkpt>
      <trkpt lat="42.862934879958629608154296875" lon="-8.56652003712952136993408203125">
        <ele>185.600006103515625</ele>
        <time>2019-05-05T09:08:14.000Z</time>
      </trkpt>
      <trkpt lat="42.86295005120337009429931640625" lon="-8.56651148758828639984130859375">
        <ele>185.600006103515625</ele>
        <time>2019-05-05T09:08:15.000Z</time>
      </trkpt>
      <trkpt lat="42.86327652633190155029296875" lon="-8.56591880321502685546875">
        <ele>186.1999969482421875</ele>
        <time>2019-05-05T09:08:35.000Z</time>
      </trkpt>
      <trkpt lat="42.86329655908048152923583984375" lon="-8.5658408515155315399169921875">
        <ele>186.399993896484375</ele>
        <time>2019-05-05T09:08:38.000Z</time>
      </trkpt>
      <trkpt lat="42.8632941283285617828369140625" lon="-8.5658462159335613250732421875">
        <ele>186.399993896484375</ele>
        <time>2019-05-05T09:08:39.000Z</time>
      </trkpt>
      <trkpt lat="42.8632984869182109832763671875" lon="-8.5658076591789722442626953125">
        <ele>186.600006103515625</ele>
        <time>2019-05-05T09:08:40.000Z</time>
      </trkpt>
      <trkpt lat="42.8633080422878265380859375" lon="-8.56575225479900836944580078125">
        <ele>186.8000030517578125</ele>
        <time>2019-05-05T09:08:45.000Z</time>
      </trkpt>
      <trkpt lat="42.863296307623386383056640625" lon="-8.56572325341403484344482421875">
        <ele>187</ele>
        <time>2019-05-05T09:08:57.000Z</time>
      </trkpt>
      <trkpt lat="42.86319832317531108856201171875" lon="-8.56566742993891239166259765625">
        <ele>187</ele>
        <time>2019-05-05T09:09:01.000Z</time>
      </trkpt>
      <trkpt lat="42.8630135022103786468505859375" lon="-8.56549945659935474395751953125">
        <ele>187.1999969482421875</ele>
        <time>2019-05-05T09:09:07.000Z</time>
      </trkpt>
      <trkpt lat="42.862877212464809417724609375" lon="-8.56474542059004306793212890625">
        <ele>184.8000030517578125</ele>
        <time>2019-05-05T09:09:17.000Z</time>
      </trkpt>
      <trkpt lat="42.86266808398067951202392578125" lon="-8.564010746777057647705078125">
        <ele>181</ele>
        <time>2019-05-05T09:09:27.000Z</time>
      </trkpt>
      <trkpt lat="42.8624753840267658233642578125" lon="-8.56332820840179920196533203125">
        <ele>177.1999969482421875</ele>
        <time>2019-05-05T09:09:42.000Z</time>
      </trkpt>
      <trkpt lat="42.86239944398403167724609375" lon="-8.56328244321048259735107421875">
        <ele>177.1999969482421875</ele>
        <time>2019-05-05T09:09:45.000Z</time>
      </trkpt>
      <trkpt lat="42.86231135018169879913330078125" lon="-8.56323190033435821533203125">
        <ele>177</ele>
        <time>2019-05-05T09:09:49.000Z</time>
      </trkpt>
      <trkpt lat="42.86245099268853664398193359375" lon="-8.56254114769399166107177734375">
        <ele>173.8000030517578125</ele>
        <time>2019-05-05T09:10:11.000Z</time>
      </trkpt>
      <trkpt lat="42.86264729686081409454345703125" lon="-8.56185919605195522308349609375">
        <ele>173.399993896484375</ele>
        <time>2019-05-05T09:10:27.000Z</time>
      </trkpt>
      <trkpt lat="42.862830273807048797607421875" lon="-8.561170957982540130615234375">
        <ele>174.8000030517578125</ele>
        <time>2019-05-05T09:10:42.000Z</time>
      </trkpt>
      <trkpt lat="42.86289221607148647308349609375" lon="-8.5604113899171352386474609375">
        <ele>177.1999969482421875</ele>
        <time>2019-05-05T09:10:58.000Z</time>
      </trkpt>
      <trkpt lat="42.86291903816163539886474609375" lon="-8.5596526600420475006103515625">
        <ele>181</ele>
        <time>2019-05-05T09:11:16.000Z</time>
      </trkpt>
      <trkpt lat="42.862952314317226409912109375" lon="-8.55890893377363681793212890625">
        <ele>184.600006103515625</ele>
        <time>2019-05-05T09:11:35.000Z</time>
      </trkpt>
      <trkpt lat="42.862934209406375885009765625" lon="-8.55875621549785137176513671875">
        <ele>186</ele>
        <time>2019-05-05T09:11:41.000Z</time>
      </trkpt>
      <trkpt lat="42.862712256610393524169921875" lon="-8.55812790803611278533935546875">
        <ele>190.600006103515625</ele>
        <time>2019-05-05T09:12:05.000Z</time>
      </trkpt>
      <trkpt lat="42.8625005297362804412841796875" lon="-8.55777251534163951873779296875">
        <ele>193.1999969482421875</ele>
        <time>2019-05-05T09:12:20.000Z</time>
      </trkpt>
      <trkpt lat="42.86245836876332759857177734375" lon="-8.55709659866988658905029296875">
        <ele>198.600006103515625</ele>
        <time>2019-05-05T09:12:46.000Z</time>
      </trkpt>
      <trkpt lat="42.86264796741306781768798828125" lon="-8.556400649249553680419921875">
        <ele>202.399993896484375</ele>
        <time>2019-05-05T09:13:09.000Z</time>
      </trkpt>
      <trkpt lat="42.8631283342838287353515625" lon="-8.55606679804623126983642578125">
        <ele>202.399993896484375</ele>
        <time>2019-05-05T09:13:36.000Z</time>
      </trkpt>
      <trkpt lat="42.86329320631921291351318359375" lon="-8.55600334703922271728515625">
        <ele>202.1999969482421875</ele>
        <time>2019-05-05T09:13:46.000Z</time>
      </trkpt>
      <trkpt lat="42.863306365907192230224609375" lon="-8.55600041337311267852783203125">
        <ele>202.1999969482421875</ele>
        <time>2019-05-05T09:13:49.000Z</time>
      </trkpt>
      <trkpt lat="42.86331231705844402313232421875" lon="-8.556036539375782012939453125">
        <ele>202</ele>
        <time>2019-05-05T09:14:40.000Z</time>
      </trkpt>
      <trkpt lat="42.8633142448961734771728515625" lon="-8.5560608468949794769287109375">
        <ele>202</ele>
        <time>2019-05-05T09:14:45.000Z</time>
      </trkpt>
      <trkpt lat="42.86339529789984226226806640625" lon="-8.55603327043354511260986328125">
        <ele>202</ele>
        <time>2019-05-05T09:14:55.000Z</time>
      </trkpt>
      <trkpt lat="42.86342002451419830322265625" lon="-8.5560093820095062255859375">
        <ele>202.1999969482421875</ele>
        <time>2019-05-05T09:14:59.000Z</time>
      </trkpt>
      <trkpt lat="42.863471321761608123779296875" lon="-8.55595917440950870513916015625">
        <ele>202.399993896484375</ele>
        <time>2019-05-05T09:15:15.000Z</time>
      </trkpt>
      <trkpt lat="42.86352152936160564422607421875" lon="-8.5559270717203617095947265625">
        <ele>202.600006103515625</ele>
        <time>2019-05-05T09:15:18.000Z</time>
      </trkpt>
      <trkpt lat="42.8636240400373935699462890625" lon="-8.55593302287161350250244140625">
        <ele>203.1999969482421875</ele>
        <time>2019-05-05T09:15:24.000Z</time>
      </trkpt>
      <trkpt lat="42.863689921796321868896484375" lon="-8.55603192932903766632080078125">
        <ele>203.8000030517578125</ele>
        <time>2019-05-05T09:15:28.000Z</time>
      </trkpt>
      <trkpt lat="42.863878346979618072509765625" lon="-8.55610736645758152008056640625">
        <ele>204.600006103515625</ele>
        <time>2019-05-05T09:15:37.000Z</time>
      </trkpt>
      <trkpt lat="42.8639646805822849273681640625" lon="-8.55593352578580379486083984375">
        <ele>205.399993896484375</ele>
        <time>2019-05-05T09:15:45.000Z</time>
      </trkpt>
      <trkpt lat="42.8641517646610736846923828125" lon="-8.5558712482452392578125">
        <ele>206.399993896484375</ele>
        <time>2019-05-05T09:15:55.000Z</time>
      </trkpt>
      <trkpt lat="42.8642235137522220611572265625" lon="-8.55594878084957599639892578125">
        <ele>207</ele>
        <time>2019-05-05T09:16:00.000Z</time>
      </trkpt>
      <trkpt lat="42.86424086429178714752197265625" lon="-8.55594291351735591888427734375">
        <ele>207</ele>
        <time>2019-05-05T09:16:01.000Z</time>
      </trkpt>
      <trkpt lat="42.8643951751291751861572265625" lon="-8.555799834430217742919921875">
        <ele>207.600006103515625</ele>
        <time>2019-05-05T09:16:10.000Z</time>
      </trkpt>
      <trkpt lat="42.86452383734285831451416015625" lon="-8.55562825687229633331298828125">
        <ele>208</ele>
        <time>2019-05-05T09:16:19.000Z</time>
      </trkpt>
      <trkpt lat="42.8647317923605442047119140625" lon="-8.55544620193541049957275390625">
        <ele>208.8000030517578125</ele>
        <time>2019-05-05T09:16:30.000Z</time>
      </trkpt>
      <trkpt lat="42.8652015142142772674560546875" lon="-8.55507086031138896942138671875">
        <ele>211</ele>
        <time>2019-05-05T09:16:52.000Z</time>
      </trkpt>
      <trkpt lat="42.8653657995164394378662109375" lon="-8.55497530661523342132568359375">
        <ele>212</ele>
        <time>2019-05-05T09:16:59.000Z</time>
      </trkpt>
      <trkpt lat="42.86546881310641765594482421875" lon="-8.55491973459720611572265625">
        <ele>212.600006103515625</ele>
        <time>2019-05-05T09:17:03.000Z</time>
      </trkpt>
      <trkpt lat="42.86547786556184291839599609375" lon="-8.55489668436348438262939453125">
        <ele>212.600006103515625</ele>
        <time>2019-05-05T09:17:04.000Z</time>
      </trkpt>
      <trkpt lat="42.86569126881659030914306640625" lon="-8.5547797568142414093017578125">
        <ele>213.8000030517578125</ele>
        <time>2019-05-05T09:17:13.000Z</time>
      </trkpt>
      <trkpt lat="42.866241037845611572265625" lon="-8.55457062833011150360107421875">
        <ele>217.1999969482421875</ele>
        <time>2019-05-05T09:17:34.000Z</time>
      </trkpt>
      <trkpt lat="42.86675811745226383209228515625" lon="-8.554243147373199462890625">
        <ele>221</ele>
        <time>2019-05-05T09:18:00.000Z</time>
      </trkpt>
      <trkpt lat="42.867051064968109130859375" lon="-8.55419285595417022705078125">
        <ele>221.8000030517578125</ele>
        <time>2019-05-05T09:18:12.000Z</time>
      </trkpt>
      <trkpt lat="42.86723001860082149505615234375" lon="-8.55415396392345428466796875">
        <ele>222.600006103515625</ele>
        <time>2019-05-05T09:18:18.000Z</time>
      </trkpt>
      <trkpt lat="42.8674022667109966278076171875" lon="-8.55404357425868511199951171875">
        <ele>222.8000030517578125</ele>
        <time>2019-05-05T09:18:26.000Z</time>
      </trkpt>
      <trkpt lat="42.8679189272224903106689453125" lon="-8.55375423096120357513427734375">
        <ele>223</ele>
        <time>2019-05-05T09:18:49.000Z</time>
      </trkpt>
      <trkpt lat="42.86845578812062740325927734375" lon="-8.5535020194947719573974609375">
        <ele>223.1999969482421875</ele>
        <time>2019-05-05T09:19:08.000Z</time>
      </trkpt>
      <trkpt lat="42.8689361549913883209228515625" lon="-8.55311603285372257232666015625">
        <ele>222.8000030517578125</ele>
        <time>2019-05-05T09:19:30.000Z</time>
      </trkpt>
      <trkpt lat="42.8691255860030651092529296875" lon="-8.55310547165572643280029296875">
        <ele>223.600006103515625</ele>
        <time>2019-05-05T09:19:34.000Z</time>
      </trkpt>
      <trkpt lat="42.869449295103549957275390625" lon="-8.55309759266674518585205078125">
        <ele>224.600006103515625</ele>
        <time>2019-05-05T09:19:44.000Z</time>
      </trkpt>
      <trkpt lat="42.8695118241012096405029296875" lon="-8.55298376642167568206787109375">
        <ele>224</ele>
        <time>2019-05-05T09:19:49.000Z</time>
      </trkpt>
      <trkpt lat="42.8698615171015262603759765625" lon="-8.55251471512019634246826171875">
        <ele>221</ele>
        <time>2019-05-05T09:20:09.000Z</time>
      </trkpt>
      <trkpt lat="42.87012395448982715606689453125" lon="-8.55233081616461277008056640625">
        <ele>220.1999969482421875</ele>
        <time>2019-05-05T09:20:20.000Z</time>
      </trkpt>
      <trkpt lat="42.8703811950981616973876953125" lon="-8.55220542289316654205322265625">
        <ele>220.8000030517578125</ele>
        <time>2019-05-05T09:20:28.000Z</time>
      </trkpt>
      <trkpt lat="42.870549671351909637451171875" lon="-8.55202403850853443145751953125">
        <ele>220.1999969482421875</ele>
        <time>2019-05-05T09:20:41.000Z</time>
      </trkpt>
      <trkpt lat="42.871031798422336578369140625" lon="-8.55200526304543018341064453125">
        <ele>224</ele>
        <time>2019-05-05T09:20:58.000Z</time>
      </trkpt>
      <trkpt lat="42.871141098439693450927734375" lon="-8.55193912982940673828125">
        <ele>224.600006103515625</ele>
        <time>2019-05-05T09:21:03.000Z</time>
      </trkpt>
      <trkpt lat="42.87169639952480792999267578125" lon="-8.55190468020737171173095703125">
        <ele>230</ele>
        <time>2019-05-05T09:21:20.000Z</time>
      </trkpt>
      <trkpt lat="42.871820367872714996337890625" lon="-8.55179554782807826995849609375">
        <ele>231.1999969482421875</ele>
        <time>2019-05-05T09:21:31.000Z</time>
      </trkpt>
      <trkpt lat="42.87183503620326519012451171875" lon="-8.55177157558500766754150390625">
        <ele>231.399993896484375</ele>
        <time>2019-05-05T09:22:12.000Z</time>
      </trkpt>
      <trkpt lat="42.87207442335784435272216796875" lon="-8.55166143737733364105224609375">
        <ele>234.399993896484375</ele>
        <time>2019-05-05T09:22:23.000Z</time>
      </trkpt>
      <trkpt lat="42.8721454180777072906494140625" lon="-8.55173461139202117919921875">
        <ele>235.1999969482421875</ele>
        <time>2019-05-05T09:22:26.000Z</time>
      </trkpt>
      <trkpt lat="42.87236678414046764373779296875" lon="-8.5517857410013675689697265625">
        <ele>237.8000030517578125</ele>
        <time>2019-05-05T09:22:37.000Z</time>
      </trkpt>
      <trkpt lat="42.87263399921357631683349609375" lon="-8.55171047151088714599609375">
        <ele>240.1999969482421875</ele>
        <time>2019-05-05T09:22:49.000Z</time>
      </trkpt>
      <trkpt lat="42.87274916656315326690673828125" lon="-8.55173620395362377166748046875">
        <ele>241.1999969482421875</ele>
        <time>2019-05-05T09:22:53.000Z</time>
      </trkpt>
      <trkpt lat="42.87325141020119190216064453125" lon="-8.55211825110018253326416015625">
        <ele>247.1999969482421875</ele>
        <time>2019-05-05T09:23:14.000Z</time>
      </trkpt>
      <trkpt lat="42.87336439825594425201416015625" lon="-8.55219058692455291748046875">
        <ele>248</ele>
        <time>2019-05-05T09:23:20.000Z</time>
      </trkpt>
      <trkpt lat="42.87358693778514862060546875" lon="-8.552338443696498870849609375">
        <ele>246.600006103515625</ele>
        <time>2019-05-05T09:23:31.000Z</time>
      </trkpt>
      <trkpt lat="42.873587943613529205322265625" lon="-8.55233810842037200927734375">
        <ele>246.600006103515625</ele>
        <time>2019-05-05T09:23:44.000Z</time>
      </trkpt>
      <trkpt lat="42.87362490780651569366455078125" lon="-8.55233869515359401702880859375">
        <ele>246.399993896484375</ele>
        <time>2019-05-05T09:23:46.000Z</time>
      </trkpt>
      <trkpt lat="42.87369598634541034698486328125" lon="-8.552300222218036651611328125">
        <ele>246</ele>
        <time>2019-05-05T09:23:50.000Z</time>
      </trkpt>
      <trkpt lat="42.87374175153672695159912109375" lon="-8.5523342527449131011962890625">
        <ele>245.8000030517578125</ele>
        <time>2019-05-05T09:23:54.000Z</time>
      </trkpt>
      <trkpt lat="42.87375180982053279876708984375" lon="-8.55234506540000438690185546875">
        <ele>245.600006103515625</ele>
        <time>2019-05-05T09:23:56.000Z</time>
      </trkpt>
      <trkpt lat="42.87375633604824542999267578125" lon="-8.55237138457596302032470703125">
        <ele>245.399993896484375</ele>
        <time>2019-05-05T09:24:02.000Z</time>
      </trkpt>
      <trkpt lat="42.87369280122220516204833984375" lon="-8.55250951834022998809814453125">
        <ele>245.1999969482421875</ele>
        <time>2019-05-05T09:24:07.000Z</time>
      </trkpt>
      <trkpt lat="42.87344436161220073699951171875" lon="-8.55273851193487644195556640625">
        <ele>246</ele>
        <time>2019-05-05T09:24:19.000Z</time>
      </trkpt>
      <trkpt lat="42.87343547679483890533447265625" lon="-8.55274370871484279632568359375">
        <ele>246</ele>
        <time>2019-05-05T09:25:11.000Z</time>
      </trkpt>
      <trkpt lat="42.87307891063392162322998046875" lon="-8.55327361263334751129150390625">
        <ele>242</ele>
        <time>2019-05-05T09:25:27.000Z</time>
      </trkpt>
      <trkpt lat="42.873126603662967681884765625" lon="-8.5533803142607212066650390625">
        <ele>240.8000030517578125</ele>
        <time>2019-05-05T09:25:31.000Z</time>
      </trkpt>
      <trkpt lat="42.87312702275812625885009765625" lon="-8.5533933900296688079833984375">
        <ele>240.8000030517578125</ele>
        <time>2019-05-05T09:25:58.000Z</time>
      </trkpt>
      <trkpt lat="42.87312853150069713592529296875" lon="-8.55345382355153560638427734375">
        <ele>240.1999969482421875</ele>
        <time>2019-05-05T09:26:00.000Z</time>
      </trkpt>
      <trkpt lat="42.87301001138985157012939453125" lon="-8.5533754527568817138671875">
        <ele>241.1999969482421875</ele>
        <time>2019-05-05T09:26:09.000Z</time>
      </trkpt>
      <trkpt lat="42.87298587150871753692626953125" lon="-8.55328216217458248138427734375">
        <ele>242.1999969482421875</ele>
        <time>2019-05-05T09:26:12.000Z</time>
      </trkpt>
      <trkpt lat="42.87298872135579586029052734375" lon="-8.5532743670046329498291015625">
        <ele>242.1999969482421875</ele>
        <time>2019-05-05T09:26:14.000Z</time>
      </trkpt>
      <trkpt lat="42.8730312176048755645751953125" lon="-8.55328400619328022003173828125">
        <ele>242</ele>
        <time>2019-05-05T09:26:34.000Z</time>
      </trkpt>
      <trkpt lat="42.8734467923641204833984375" lon="-8.55279701761901378631591796875">
        <ele>245.399993896484375</ele>
        <time>2019-05-05T09:26:54.000Z</time>
      </trkpt>
      <trkpt lat="42.873674444854259490966796875" lon="-8.55243961326777935028076171875">
        <ele>245.8000030517578125</ele>
        <time>2019-05-05T09:27:03.000Z</time>
      </trkpt>
      <trkpt lat="42.874037884175777435302734375" lon="-8.5521525330841541290283203125">
        <ele>244</ele>
        <time>2019-05-05T09:27:12.000Z</time>
      </trkpt>
      <trkpt lat="42.87419705651700496673583984375" lon="-8.5519812069833278656005859375">
        <ele>243.399993896484375</ele>
        <time>2019-05-05T09:27:16.000Z</time>
      </trkpt>
      <trkpt lat="42.87461958825588226318359375" lon="-8.5514769516885280609130859375">
        <ele>243.8000030517578125</ele>
        <time>2019-05-05T09:27:28.000Z</time>
      </trkpt>
      <trkpt lat="42.87480994127690792083740234375" lon="-8.5512378998100757598876953125">
        <ele>243.8000030517578125</ele>
        <time>2019-05-05T09:27:34.000Z</time>
      </trkpt>
      <trkpt lat="42.87492862902581691741943359375" lon="-8.5510079003870487213134765625">
        <ele>243.1999969482421875</ele>
        <time>2019-05-05T09:27:39.000Z</time>
      </trkpt>
      <trkpt lat="42.87503072060644626617431640625" lon="-8.55081972666084766387939453125">
        <ele>244</ele>
        <time>2019-05-05T09:27:43.000Z</time>
      </trkpt>
      <trkpt lat="42.8753429464995861053466796875" lon="-8.55024204589426517486572265625">
        <ele>246</ele>
        <time>2019-05-05T09:28:09.000Z</time>
      </trkpt>
      <trkpt lat="42.87542349658906459808349609375" lon="-8.55010516941547393798828125">
        <ele>246.600006103515625</ele>
        <time>2019-05-05T09:28:15.000Z</time>
      </trkpt>
      <trkpt lat="42.87542517296969890594482421875" lon="-8.55003316886723041534423828125">
        <ele>246.8000030517578125</ele>
        <time>2019-05-05T09:28:20.000Z</time>
      </trkpt>
      <trkpt lat="42.87542299367487430572509765625" lon="-8.5500312410295009613037109375">
        <ele>246.8000030517578125</ele>
        <time>2019-05-05T09:28:48.000Z</time>
      </trkpt>
      <trkpt lat="42.87565500475466251373291015625" lon="-8.54959345422685146331787109375">
        <ele>249.1999969482421875</ele>
        <time>2019-05-05T09:29:05.000Z</time>
      </trkpt>
      <trkpt lat="42.87580638192594051361083984375" lon="-8.5492502152919769287109375">
        <ele>250.8000030517578125</ele>
        <time>2019-05-05T09:29:16.000Z</time>
      </trkpt>
      <trkpt lat="42.87580654956400394439697265625" lon="-8.54913596995174884796142578125">
        <ele>251.1999969482421875</ele>
        <time>2019-05-05T09:29:21.000Z</time>
      </trkpt>
      <trkpt lat="42.87603101693093776702880859375" lon="-8.5489184595644474029541015625">
        <ele>252.8000030517578125</ele>
        <time>2019-05-05T09:29:40.000Z</time>
      </trkpt>
      <trkpt lat="42.876144759356975555419921875" lon="-8.548745624721050262451171875">
        <ele>253.8000030517578125</ele>
        <time>2019-05-05T09:29:48.000Z</time>
      </trkpt>
      <trkpt lat="42.87626503966748714447021484375" lon="-8.54844865389168262481689453125">
        <ele>254.600006103515625</ele>
        <time>2019-05-05T09:30:02.000Z</time>
      </trkpt>
      <trkpt lat="42.87629387341439723968505859375" lon="-8.5484158806502819061279296875">
        <ele>254.600006103515625</ele>
        <time>2019-05-05T09:30:05.000Z</time>
      </trkpt>
      <trkpt lat="42.87643485702574253082275390625" lon="-8.54799770750105381011962890625">
        <ele>252.8000030517578125</ele>
        <time>2019-05-05T09:30:19.000Z</time>
      </trkpt>
      <trkpt lat="42.8764315880835056304931640625" lon="-8.5479964502155780792236328125">
        <ele>252.8000030517578125</ele>
        <time>2019-05-05T09:30:20.000Z</time>
      </trkpt>
      <trkpt lat="42.87664591334760189056396484375" lon="-8.548025786876678466796875">
        <ele>253.399993896484375</ele>
        <time>2019-05-05T09:30:53.000Z</time>
      </trkpt>
      <trkpt lat="42.87671866826713085174560546875" lon="-8.54788086377084255218505859375">
        <ele>253</ele>
        <time>2019-05-05T09:31:01.000Z</time>
      </trkpt>
      <trkpt lat="42.87684087641537189483642578125" lon="-8.547441400587558746337890625">
        <ele>252.8000030517578125</ele>
        <time>2019-05-05T09:31:17.000Z</time>
      </trkpt>
      <trkpt lat="42.8770357556641101837158203125" lon="-8.54705273173749446868896484375">
        <ele>253.8000030517578125</ele>
        <time>2019-05-05T09:31:32.000Z</time>
      </trkpt>
      <trkpt lat="42.87705771625041961669921875" lon="-8.54703747667372226715087890625">
        <ele>253.8000030517578125</ele>
        <time>2019-05-05T09:31:35.000Z</time>
      </trkpt>
      <trkpt lat="42.87708965130150318145751953125" lon="-8.54705424048006534576416015625">
        <ele>253.8000030517578125</ele>
        <time>2019-05-05T09:31:51.000Z</time>
      </trkpt>
      <trkpt lat="42.87756557576358318328857421875" lon="-8.5474665462970733642578125">
        <ele>253.1999969482421875</ele>
        <time>2019-05-05T09:32:21.000Z</time>
      </trkpt>
      <trkpt lat="42.8779302723705768585205078125" lon="-8.54801631532609462738037109375">
        <ele>255</ele>
        <time>2019-05-05T09:32:41.000Z</time>
      </trkpt>
      <trkpt lat="42.87795013748109340667724609375" lon="-8.54803207330405712127685546875">
        <ele>255</ele>
        <time>2019-05-05T09:32:42.000Z</time>
      </trkpt>
      <trkpt lat="42.87800696678459644317626953125" lon="-8.54809426702558994293212890625">
        <ele>255.1999969482421875</ele>
        <time>2019-05-05T09:32:45.000Z</time>
      </trkpt>
      <trkpt lat="42.8780731000006198883056640625" lon="-8.54816065169870853424072265625">
        <ele>255</ele>
        <time>2019-05-05T09:32:51.000Z</time>
      </trkpt>
      <trkpt lat="42.8780640475451946258544921875" lon="-8.548157215118408203125">
        <ele>255</ele>
        <time>2019-05-05T09:32:54.000Z</time>
      </trkpt>
      <trkpt lat="42.87806111387908458709716796875" lon="-8.5481329075992107391357421875">
        <ele>255</ele>
        <time>2019-05-05T09:32:57.000Z</time>
      </trkpt>
      <trkpt lat="42.8780523128807544708251953125" lon="-8.548109941184520721435546875">
        <ele>254.8000030517578125</ele>
        <time>2019-05-05T09:33:38.000Z</time>
      </trkpt>
      <trkpt lat="42.8778856806457042694091796875" lon="-8.54794791899621486663818359375">
        <ele>254.399993896484375</ele>
        <time>2019-05-05T09:33:46.000Z</time>
      </trkpt>
      <trkpt lat="42.87769138813018798828125" lon="-8.54767651297152042388916015625">
        <ele>252.1999969482421875</ele>
        <time>2019-05-05T09:33:54.000Z</time>
      </trkpt>
      <trkpt lat="42.87760312668979167938232421875" lon="-8.5475780256092548370361328125">
        <ele>253</ele>
        <time>2019-05-05T09:34:00.000Z</time>
      </trkpt>
      <trkpt lat="42.87792432121932506561279296875" lon="-8.5479223541915416717529296875">
        <ele>253.8000030517578125</ele>
        <time>2019-05-05T09:34:23.000Z</time>
      </trkpt>
      <trkpt lat="42.877946533262729644775390625" lon="-8.54799292981624603271484375">
        <ele>254.600006103515625</ele>
        <time>2019-05-05T09:34:49.000Z</time>
      </trkpt>
      <trkpt lat="42.87809866480529308319091796875" lon="-8.54816467501223087310791015625">
        <ele>254.8000030517578125</ele>
        <time>2019-05-05T09:35:00.000Z</time>
      </trkpt>
      <trkpt lat="42.8781044483184814453125" lon="-8.54820155538618564605712890625">
        <ele>255</ele>
        <time>2019-05-05T09:36:24.000Z</time>
      </trkpt>
      <trkpt lat="42.87802356295287609100341796875" lon="-8.54815310798585414886474609375">
        <ele>255.399993896484375</ele>
        <time>2019-05-05T09:36:31.000Z</time>
      </trkpt>
      <trkpt lat="42.8776281885802745819091796875" lon="-8.547637201845645904541015625">
        <ele>252.8000030517578125</ele>
        <time>2019-05-05T09:36:49.000Z</time>
      </trkpt>
      <trkpt lat="42.8774370811879634857177734375" lon="-8.54735992848873138427734375">
        <ele>253.1999969482421875</ele>
        <time>2019-05-05T09:36:56.000Z</time>
      </trkpt>
      <trkpt lat="42.8774447925388813018798828125" lon="-8.547239564359188079833984375">
        <ele>253.399993896484375</ele>
        <time>2019-05-05T09:37:00.000Z</time>
      </trkpt>
      <trkpt lat="42.87745459936559200286865234375" lon="-8.54721064679324626922607421875">
        <ele>253.399993896484375</ele>
        <time>2019-05-05T09:37:03.000Z</time>
      </trkpt>
      <trkpt lat="42.8774595446884632110595703125" lon="-8.54719773866236209869384765625">
        <ele>253.399993896484375</ele>
        <time>2019-05-05T09:37:21.000Z</time>
      </trkpt>
      <trkpt lat="42.87750220857560634613037109375" lon="-8.546873442828655242919921875">
        <ele>254</ele>
        <time>2019-05-05T09:37:27.000Z</time>
      </trkpt>
      <trkpt lat="42.8775420226156711578369140625" lon="-8.5464414395391941070556640625">
        <ele>256</ele>
        <time>2019-05-05T09:37:34.000Z</time>
      </trkpt>
      <trkpt lat="42.87738251499831676483154296875" lon="-8.54624412953853607177734375">
        <ele>257</ele>
        <time>2019-05-05T09:37:41.000Z</time>
      </trkpt>
      <trkpt lat="42.8772080875933170318603515625" lon="-8.54623365215957164764404296875">
        <ele>257</ele>
        <time>2019-05-05T09:37:46.000Z</time>
      </trkpt>
      <trkpt lat="42.8772013820707798004150390625" lon="-8.5462292097508907318115234375">
        <ele>257</ele>
        <time>2019-05-05T09:37:48.000Z</time>
      </trkpt>
      <trkpt lat="42.87719392217695713043212890625" lon="-8.54621705599129199981689453125">
        <ele>257</ele>
        <time>2019-05-05T09:37:56.000Z</time>
      </trkpt>
      <trkpt lat="42.87728595547378063201904296875" lon="-8.54603131301701068878173828125">
        <ele>257.600006103515625</ele>
        <time>2019-05-05T09:38:03.000Z</time>
      </trkpt>
      <trkpt lat="42.8773026354610919952392578125" lon="-8.5459806025028228759765625">
        <ele>257.79998779296875</ele>
        <time>2019-05-05T09:38:05.000Z</time>
      </trkpt>
      <trkpt lat="42.8774069063365459442138671875" lon="-8.545708358287811279296875">
        <ele>259.600006103515625</ele>
        <time>2019-05-05T09:38:16.000Z</time>
      </trkpt>
      <trkpt lat="42.87749349139630794525146484375" lon="-8.54562562890350818634033203125">
        <ele>260.20001220703125</ele>
        <time>2019-05-05T09:38:23.000Z</time>
      </trkpt>
      <trkpt lat="42.87754126824438571929931640625" lon="-8.54554650373756885528564453125">
        <ele>260.79998779296875</ele>
        <time>2019-05-05T09:38:27.000Z</time>
      </trkpt>
      <trkpt lat="42.8780640475451946258544921875" lon="-8.5453179292380809783935546875">
        <ele>261.600006103515625</ele>
        <time>2019-05-05T09:38:57.000Z</time>
      </trkpt>
      <trkpt lat="42.87821643054485321044921875" lon="-8.54523570276796817779541015625">
        <ele>261.79998779296875</ele>
        <time>2019-05-05T09:39:10.000Z</time>
      </trkpt>
      <trkpt lat="42.87884716875851154327392578125" lon="-8.54510192759335041046142578125">
        <ele>259.20001220703125</ele>
        <time>2019-05-05T09:39:48.000Z</time>
      </trkpt>
      <trkpt lat="42.87894691340625286102294921875" lon="-8.54511165060102939605712890625">
        <ele>258.399993896484375</ele>
        <time>2019-05-05T09:39:52.000Z</time>
      </trkpt>
      <trkpt lat="42.87899133749306201934814453125" lon="-8.545100502669811248779296875">
        <ele>258</ele>
        <time>2019-05-05T09:39:53.000Z</time>
      </trkpt>
      <trkpt lat="42.87948570214211940765380859375" lon="-8.54508901946246623992919921875">
        <ele>257.600006103515625</ele>
        <time>2019-05-05T09:40:17.000Z</time>
      </trkpt>
      <trkpt lat="42.879606150090694427490234375" lon="-8.54510259814560413360595703125">
        <ele>258.20001220703125</ele>
        <time>2019-05-05T09:40:35.000Z</time>
      </trkpt>
      <trkpt lat="42.8796126879751682281494140625" lon="-8.54510016739368438720703125">
        <ele>258.20001220703125</ele>
        <time>2019-05-05T09:40:37.000Z</time>
      </trkpt>
      <trkpt lat="42.87963992916047573089599609375" lon="-8.54509346187114715576171875">
        <ele>258.399993896484375</ele>
        <time>2019-05-05T09:40:44.000Z</time>
      </trkpt>
      <trkpt lat="42.87975459359586238861083984375" lon="-8.545123971998691558837890625">
        <ele>258.79998779296875</ele>
        <time>2019-05-05T09:40:51.000Z</time>
      </trkpt>
      <trkpt lat="42.87987914867699146270751953125" lon="-8.545146100223064422607421875">
        <ele>259.20001220703125</ele>
        <time>2019-05-05T09:41:01.000Z</time>
      </trkpt>
      <trkpt lat="42.8799151070415973663330078125" lon="-8.5451626963913440704345703125">
        <ele>259.399993896484375</ele>
        <time>2019-05-05T09:41:46.000Z</time>
      </trkpt>
      <trkpt lat="42.8801156021654605865478515625" lon="-8.545273840427398681640625">
        <ele>259.20001220703125</ele>
        <time>2019-05-05T09:41:54.000Z</time>
      </trkpt>
      <trkpt lat="42.88040419109165668487548828125" lon="-8.54591287672519683837890625">
        <ele>254.8000030517578125</ele>
        <time>2019-05-05T09:42:13.000Z</time>
      </trkpt>
      <trkpt lat="42.8804019279778003692626953125" lon="-8.54593676514923572540283203125">
        <ele>254.600006103515625</ele>
        <time>2019-05-05T09:42:14.000Z</time>
      </trkpt>
      <trkpt lat="42.88038491271436214447021484375" lon="-8.545901142060756683349609375">
        <ele>254.8000030517578125</ele>
        <time>2019-05-05T09:42:19.000Z</time>
      </trkpt>
    </trkseg>
  </trk>
</gpx>
